<?xml version="1.0" encoding="UTF-8" standalone="no" ?>
<gpx xmlns="http://www.topografix.com/GPX/1/1" xmlns:xsi="http://www.w3.org/2001/XMLSchema-instance" xsi:schemaLocation="http://www.topografix.com/GPX/1/1 http://www.topografix.com/GPX/1/1/gpx.xsd" version="1.1" creator="VisuGPX - https://www.visugpx.com">
  <metadata>
    <name>voyage total </name>
  </metadata>
  <trk>
    <name><![CDATA[T22]]></name>
    <trkseg>
      <trkpt lat="49.70261" lon="5.80677">
        <ele>386.3</ele>
        <time>2020-06-26T07:56:44Z</time>
      </trkpt>
      <trkpt lat="49.7029" lon="5.8076">
        <ele>385.6</ele>
        <time>2020-06-26T07:56:46Z</time>
      </trkpt>
      <trkpt lat="49.70292" lon="5.8076">
        <ele>385.6</ele>
        <time>2020-06-26T07:56:47Z</time>
      </trkpt>
      <trkpt lat="49.70294" lon="5.80761">
        <ele>385.6</ele>
        <time>2020-06-26T07:56:48Z</time>
      </trkpt>
      <trkpt lat="49.70296" lon="5.80761">
        <ele>385.6</ele>
        <time>2020-06-26T07:56:49Z</time>
      </trkpt>
      <trkpt lat="49.70299" lon="5.80761">
        <ele>385.6</ele>
        <time>2020-06-26T07:56:50Z</time>
      </trkpt>
      <trkpt lat="49.70301" lon="5.80762">
        <ele>385.6</ele>
        <time>2020-06-26T07:56:51Z</time>
      </trkpt>
      <trkpt lat="49.70303" lon="5.80762">
        <ele>387</ele>
        <time>2020-06-26T07:56:58Z</time>
      </trkpt>
      <trkpt lat="49.70305" lon="5.80762">
        <ele>387.1</ele>
        <time>2020-06-26T07:56:59Z</time>
      </trkpt>
      <trkpt lat="49.70307" lon="5.80763">
        <ele>387.3</ele>
        <time>2020-06-26T07:57:00Z</time>
      </trkpt>
      <trkpt lat="49.70309" lon="5.80763">
        <ele>387.4</ele>
        <time>2020-06-26T07:57:01Z</time>
      </trkpt>
      <trkpt lat="49.70312" lon="5.80763">
        <ele>387.6</ele>
        <time>2020-06-26T07:57:02Z</time>
      </trkpt>
      <trkpt lat="49.70314" lon="5.80764">
        <ele>387.7</ele>
        <time>2020-06-26T07:57:03Z</time>
      </trkpt>
      <trkpt lat="49.70314" lon="5.80759">
        <ele>387.8</ele>
        <time>2020-06-26T07:57:04Z</time>
      </trkpt>
      <trkpt lat="49.70314" lon="5.80754">
        <ele>388</ele>
        <time>2020-06-26T07:57:05Z</time>
      </trkpt>
      <trkpt lat="49.70314" lon="5.80753">
        <ele>388</ele>
        <time>2020-06-26T07:57:06Z</time>
      </trkpt>
      <trkpt lat="49.70314" lon="5.80749">
        <ele>388.2</ele>
        <time>2020-06-26T07:57:07Z</time>
      </trkpt>
      <trkpt lat="49.70315" lon="5.80744">
        <ele>388.3</ele>
        <time>2020-06-26T07:57:08Z</time>
      </trkpt>
      <trkpt lat="49.70315" lon="5.80742">
        <ele>388.3</ele>
        <time>2020-06-26T07:57:09Z</time>
      </trkpt>
      <trkpt lat="49.70313" lon="5.80738">
        <ele>388.4</ele>
        <time>2020-06-26T07:57:10Z</time>
      </trkpt>
      <trkpt lat="49.70312" lon="5.80737">
        <ele>388.5</ele>
        <time>2020-06-26T07:57:11Z</time>
      </trkpt>
      <trkpt lat="49.70308" lon="5.80735">
        <ele>388.4</ele>
        <time>2020-06-26T07:57:12Z</time>
      </trkpt>
      <trkpt lat="49.70307" lon="5.80734">
        <ele>388.3</ele>
        <time>2020-06-26T07:57:13Z</time>
      </trkpt>
      <trkpt lat="49.70304" lon="5.80734">
        <ele>388.2</ele>
        <time>2020-06-26T07:57:14Z</time>
      </trkpt>
      <trkpt lat="49.70303" lon="5.80734">
        <ele>388.1</ele>
        <time>2020-06-26T07:57:15Z</time>
      </trkpt>
      <trkpt lat="49.703" lon="5.80733">
        <ele>388</ele>
        <time>2020-06-26T07:57:16Z</time>
      </trkpt>
      <trkpt lat="49.70297" lon="5.80732">
        <ele>387.9</ele>
        <time>2020-06-26T07:57:17Z</time>
      </trkpt>
      <trkpt lat="49.70294" lon="5.80731">
        <ele>387.8</ele>
        <time>2020-06-26T07:57:18Z</time>
      </trkpt>
      <trkpt lat="49.70291" lon="5.8073">
        <ele>387.6</ele>
        <time>2020-06-26T07:57:19Z</time>
      </trkpt>
      <trkpt lat="49.70288" lon="5.8073">
        <ele>387.5</ele>
        <time>2020-06-26T07:57:20Z</time>
      </trkpt>
      <trkpt lat="49.70284" lon="5.80729">
        <ele>387.4</ele>
        <time>2020-06-26T07:57:21Z</time>
      </trkpt>
      <trkpt lat="49.70282" lon="5.80729">
        <ele>387.3</ele>
        <time>2020-06-26T07:57:22Z</time>
      </trkpt>
      <trkpt lat="49.70279" lon="5.80728">
        <ele>387.2</ele>
        <time>2020-06-26T07:57:23Z</time>
      </trkpt>
      <trkpt lat="49.70276" lon="5.80727">
        <ele>387.1</ele>
        <time>2020-06-26T07:57:24Z</time>
      </trkpt>
      <trkpt lat="49.70272" lon="5.80727">
        <ele>387</ele>
        <time>2020-06-26T07:57:25Z</time>
      </trkpt>
      <trkpt lat="49.70268" lon="5.80726">
        <ele>386.9</ele>
        <time>2020-06-26T07:57:26Z</time>
      </trkpt>
      <trkpt lat="49.70264" lon="5.80724">
        <ele>386.8</ele>
        <time>2020-06-26T07:57:27Z</time>
      </trkpt>
      <trkpt lat="49.70259" lon="5.80722">
        <ele>386.6</ele>
        <time>2020-06-26T07:57:28Z</time>
      </trkpt>
      <trkpt lat="49.70254" lon="5.80719">
        <ele>386.4</ele>
        <time>2020-06-26T07:57:29Z</time>
      </trkpt>
      <trkpt lat="49.70251" lon="5.80716">
        <ele>386.3</ele>
        <time>2020-06-26T07:57:30Z</time>
      </trkpt>
      <trkpt lat="49.70248" lon="5.80712">
        <ele>386.3</ele>
        <time>2020-06-26T07:57:31Z</time>
      </trkpt>
      <trkpt lat="49.70245" lon="5.80708">
        <ele>386.3</ele>
        <time>2020-06-26T07:57:32Z</time>
      </trkpt>
      <trkpt lat="49.70242" lon="5.80704">
        <ele>386.3</ele>
        <time>2020-06-26T07:57:33Z</time>
      </trkpt>
      <trkpt lat="49.7024" lon="5.80699">
        <ele>386.3</ele>
        <time>2020-06-26T07:57:34Z</time>
      </trkpt>
      <trkpt lat="49.70238" lon="5.80695">
        <ele>386.3</ele>
        <time>2020-06-26T07:57:35Z</time>
      </trkpt>
      <trkpt lat="49.70235" lon="5.8069">
        <ele>386.3</ele>
        <time>2020-06-26T07:57:36Z</time>
      </trkpt>
      <trkpt lat="49.70235" lon="5.80687">
        <ele>386.3</ele>
        <time>2020-06-26T07:57:37Z</time>
      </trkpt>
      <trkpt lat="49.70233" lon="5.80684">
        <ele>386.4</ele>
        <time>2020-06-26T07:57:38Z</time>
      </trkpt>
      <trkpt lat="49.70231" lon="5.80679">
        <ele>386.4</ele>
        <time>2020-06-26T07:57:39Z</time>
      </trkpt>
      <trkpt lat="49.70231" lon="5.80677">
        <ele>386.5</ele>
        <time>2020-06-26T07:57:40Z</time>
      </trkpt>
      <trkpt lat="49.7023" lon="5.80673">
        <ele>386.5</ele>
        <time>2020-06-26T07:57:41Z</time>
      </trkpt>
      <trkpt lat="49.70229" lon="5.80672">
        <ele>386.5</ele>
        <time>2020-06-26T07:57:42Z</time>
      </trkpt>
      <trkpt lat="49.70228" lon="5.80668">
        <ele>386.6</ele>
        <time>2020-06-26T07:57:43Z</time>
      </trkpt>
      <trkpt lat="49.70228" lon="5.80666">
        <ele>386.6</ele>
        <time>2020-06-26T07:57:44Z</time>
      </trkpt>
      <trkpt lat="49.70227" lon="5.80663">
        <ele>386.7</ele>
        <time>2020-06-26T07:57:45Z</time>
      </trkpt>
      <trkpt lat="49.70227" lon="5.80661">
        <ele>386.7</ele>
        <time>2020-06-26T07:57:46Z</time>
      </trkpt>
      <trkpt lat="49.70226" lon="5.80658">
        <ele>386.7</ele>
        <time>2020-06-26T07:57:47Z</time>
      </trkpt>
      <trkpt lat="49.70225" lon="5.80657">
        <ele>386.8</ele>
        <time>2020-06-26T07:57:48Z</time>
      </trkpt>
      <trkpt lat="49.70224" lon="5.80655">
        <ele>386.8</ele>
        <time>2020-06-26T07:57:49Z</time>
      </trkpt>
      <trkpt lat="49.70222" lon="5.80652">
        <ele>386.8</ele>
        <time>2020-06-26T07:57:50Z</time>
      </trkpt>
      <trkpt lat="49.70221" lon="5.80651">
        <ele>386.8</ele>
        <time>2020-06-26T07:57:51Z</time>
      </trkpt>
      <trkpt lat="49.70217" lon="5.8065">
        <ele>386.9</ele>
        <time>2020-06-26T07:57:52Z</time>
      </trkpt>
      <trkpt lat="49.70216" lon="5.8065">
        <ele>386.9</ele>
        <time>2020-06-26T07:57:53Z</time>
      </trkpt>
      <trkpt lat="49.70213" lon="5.8065">
        <ele>386.5</ele>
        <time>2020-06-26T07:57:54Z</time>
      </trkpt>
      <trkpt lat="49.70209" lon="5.80651">
        <ele>386.3</ele>
        <time>2020-06-26T07:57:55Z</time>
      </trkpt>
      <trkpt lat="49.70205" lon="5.80653">
        <ele>386.1</ele>
        <time>2020-06-26T07:57:56Z</time>
      </trkpt>
      <trkpt lat="49.702" lon="5.80655">
        <ele>385.8</ele>
        <time>2020-06-26T07:57:57Z</time>
      </trkpt>
      <trkpt lat="49.70194" lon="5.80657">
        <ele>385.5</ele>
        <time>2020-06-26T07:57:58Z</time>
      </trkpt>
      <trkpt lat="49.70189" lon="5.80659">
        <ele>385.2</ele>
        <time>2020-06-26T07:57:59Z</time>
      </trkpt>
      <trkpt lat="49.70183" lon="5.80661">
        <ele>385</ele>
        <time>2020-06-26T07:58:00Z</time>
      </trkpt>
      <trkpt lat="49.70177" lon="5.80664">
        <ele>384.7</ele>
        <time>2020-06-26T07:58:01Z</time>
      </trkpt>
      <trkpt lat="49.70171" lon="5.80667">
        <ele>384.4</ele>
        <time>2020-06-26T07:58:02Z</time>
      </trkpt>
      <trkpt lat="49.70165" lon="5.80669">
        <ele>384</ele>
        <time>2020-06-26T07:58:03Z</time>
      </trkpt>
      <trkpt lat="49.70159" lon="5.80673">
        <ele>383.6</ele>
        <time>2020-06-26T07:58:04Z</time>
      </trkpt>
      <trkpt lat="49.70152" lon="5.80676">
        <ele>383.2</ele>
        <time>2020-06-26T07:58:05Z</time>
      </trkpt>
      <trkpt lat="49.70144" lon="5.80679">
        <ele>382.7</ele>
        <time>2020-06-26T07:58:06Z</time>
      </trkpt>
      <trkpt lat="49.70137" lon="5.80682">
        <ele>382.2</ele>
        <time>2020-06-26T07:58:07Z</time>
      </trkpt>
      <trkpt lat="49.7013" lon="5.80685">
        <ele>381.8</ele>
        <time>2020-06-26T07:58:08Z</time>
      </trkpt>
      <trkpt lat="49.70123" lon="5.80688">
        <ele>381.4</ele>
        <time>2020-06-26T07:58:09Z</time>
      </trkpt>
      <trkpt lat="49.70116" lon="5.80691">
        <ele>381</ele>
        <time>2020-06-26T07:58:10Z</time>
      </trkpt>
      <trkpt lat="49.70108" lon="5.80694">
        <ele>380.6</ele>
        <time>2020-06-26T07:58:11Z</time>
      </trkpt>
      <trkpt lat="49.70101" lon="5.80698">
        <ele>380.2</ele>
        <time>2020-06-26T07:58:12Z</time>
      </trkpt>
      <trkpt lat="49.70093" lon="5.80702">
        <ele>379.8</ele>
        <time>2020-06-26T07:58:13Z</time>
      </trkpt>
      <trkpt lat="49.70085" lon="5.80705">
        <ele>379.4</ele>
        <time>2020-06-26T07:58:14Z</time>
      </trkpt>
      <trkpt lat="49.70077" lon="5.80709">
        <ele>379</ele>
        <time>2020-06-26T07:58:15Z</time>
      </trkpt>
      <trkpt lat="49.70068" lon="5.80713">
        <ele>378.6</ele>
        <time>2020-06-26T07:58:16Z</time>
      </trkpt>
      <trkpt lat="49.7006" lon="5.80717">
        <ele>378.1</ele>
        <time>2020-06-26T07:58:17Z</time>
      </trkpt>
      <trkpt lat="49.70051" lon="5.80722">
        <ele>377.5</ele>
        <time>2020-06-26T07:58:18Z</time>
      </trkpt>
      <trkpt lat="49.70043" lon="5.80727">
        <ele>377.1</ele>
        <time>2020-06-26T07:58:19Z</time>
      </trkpt>
      <trkpt lat="49.70034" lon="5.8073">
        <ele>376.7</ele>
        <time>2020-06-26T07:58:20Z</time>
      </trkpt>
      <trkpt lat="49.70025" lon="5.80735">
        <ele>376.4</ele>
        <time>2020-06-26T07:58:21Z</time>
      </trkpt>
      <trkpt lat="49.70016" lon="5.80739">
        <ele>376</ele>
        <time>2020-06-26T07:58:22Z</time>
      </trkpt>
      <trkpt lat="49.70006" lon="5.80743">
        <ele>375.7</ele>
        <time>2020-06-26T07:58:23Z</time>
      </trkpt>
      <trkpt lat="49.69997" lon="5.80746">
        <ele>375.4</ele>
        <time>2020-06-26T07:58:24Z</time>
      </trkpt>
      <trkpt lat="49.69988" lon="5.8075">
        <ele>375.1</ele>
        <time>2020-06-26T07:58:25Z</time>
      </trkpt>
      <trkpt lat="49.69979" lon="5.80754">
        <ele>374.7</ele>
        <time>2020-06-26T07:58:26Z</time>
      </trkpt>
      <trkpt lat="49.6997" lon="5.80758">
        <ele>374.4</ele>
        <time>2020-06-26T07:58:27Z</time>
      </trkpt>
      <trkpt lat="49.69962" lon="5.80762">
        <ele>374.3</ele>
        <time>2020-06-26T07:58:28Z</time>
      </trkpt>
      <trkpt lat="49.69954" lon="5.80765">
        <ele>374.1</ele>
        <time>2020-06-26T07:58:29Z</time>
      </trkpt>
      <trkpt lat="49.69946" lon="5.80769">
        <ele>373.9</ele>
        <time>2020-06-26T07:58:30Z</time>
      </trkpt>
      <trkpt lat="49.69939" lon="5.80773">
        <ele>373.5</ele>
        <time>2020-06-26T07:58:31Z</time>
      </trkpt>
      <trkpt lat="49.69931" lon="5.80778">
        <ele>373.1</ele>
        <time>2020-06-26T07:58:32Z</time>
      </trkpt>
      <trkpt lat="49.69924" lon="5.80782">
        <ele>372.8</ele>
        <time>2020-06-26T07:58:33Z</time>
      </trkpt>
      <trkpt lat="49.69916" lon="5.80787">
        <ele>372.6</ele>
        <time>2020-06-26T07:58:34Z</time>
      </trkpt>
      <trkpt lat="49.69909" lon="5.80792">
        <ele>372.4</ele>
        <time>2020-06-26T07:58:35Z</time>
      </trkpt>
      <trkpt lat="49.69902" lon="5.80795">
        <ele>372.2</ele>
        <time>2020-06-26T07:58:36Z</time>
      </trkpt>
      <trkpt lat="49.69894" lon="5.80799">
        <ele>372</ele>
        <time>2020-06-26T07:58:37Z</time>
      </trkpt>
      <trkpt lat="49.69887" lon="5.80802">
        <ele>371.9</ele>
        <time>2020-06-26T07:58:38Z</time>
      </trkpt>
      <trkpt lat="49.6988" lon="5.80805">
        <ele>371.8</ele>
        <time>2020-06-26T07:58:39Z</time>
      </trkpt>
      <trkpt lat="49.69873" lon="5.80809">
        <ele>371.7</ele>
        <time>2020-06-26T07:58:40Z</time>
      </trkpt>
      <trkpt lat="49.69866" lon="5.80812">
        <ele>371.5</ele>
        <time>2020-06-26T07:58:41Z</time>
      </trkpt>
      <trkpt lat="49.6986" lon="5.80816">
        <ele>371.2</ele>
        <time>2020-06-26T07:58:42Z</time>
      </trkpt>
      <trkpt lat="49.69853" lon="5.80818">
        <ele>371.1</ele>
        <time>2020-06-26T07:58:43Z</time>
      </trkpt>
      <trkpt lat="49.69847" lon="5.80821">
        <ele>371</ele>
        <time>2020-06-26T07:58:44Z</time>
      </trkpt>
      <trkpt lat="49.69842" lon="5.80824">
        <ele>371</ele>
        <time>2020-06-26T07:58:45Z</time>
      </trkpt>
      <trkpt lat="49.69836" lon="5.80827">
        <ele>371</ele>
        <time>2020-06-26T07:58:46Z</time>
      </trkpt>
      <trkpt lat="49.6983" lon="5.80831">
        <ele>371</ele>
        <time>2020-06-26T07:58:47Z</time>
      </trkpt>
      <trkpt lat="49.69825" lon="5.80833">
        <ele>371</ele>
        <time>2020-06-26T07:58:48Z</time>
      </trkpt>
      <trkpt lat="49.6982" lon="5.80835">
        <ele>371</ele>
        <time>2020-06-26T07:58:49Z</time>
      </trkpt>
      <trkpt lat="49.69815" lon="5.80838">
        <ele>371.1</ele>
        <time>2020-06-26T07:58:50Z</time>
      </trkpt>
      <trkpt lat="49.6981" lon="5.80841">
        <ele>371.1</ele>
        <time>2020-06-26T07:58:51Z</time>
      </trkpt>
      <trkpt lat="49.69806" lon="5.80843">
        <ele>371.1</ele>
        <time>2020-06-26T07:58:52Z</time>
      </trkpt>
      <trkpt lat="49.69801" lon="5.80844">
        <ele>371.1</ele>
        <time>2020-06-26T07:58:53Z</time>
      </trkpt>
      <trkpt lat="49.69798" lon="5.80844">
        <ele>371.1</ele>
        <time>2020-06-26T07:58:54Z</time>
      </trkpt>
      <trkpt lat="49.69795" lon="5.80844">
        <ele>371.1</ele>
        <time>2020-06-26T07:58:55Z</time>
      </trkpt>
      <trkpt lat="49.69794" lon="5.80843">
        <ele>371.1</ele>
        <time>2020-06-26T07:58:56Z</time>
      </trkpt>
      <trkpt lat="49.69794" lon="5.80842">
        <ele>371.1</ele>
        <time>2020-06-26T07:58:57Z</time>
      </trkpt>
      <trkpt lat="49.69793" lon="5.80841">
        <ele>371.1</ele>
        <time>2020-06-26T07:58:58Z</time>
      </trkpt>
      <trkpt lat="49.69793" lon="5.8084">
        <ele>371.1</ele>
        <time>2020-06-26T07:58:59Z</time>
      </trkpt>
      <trkpt lat="49.69793" lon="5.80843">
        <ele>371.1</ele>
        <time>2020-06-26T07:59:00Z</time>
      </trkpt>
      <trkpt lat="49.69793" lon="5.80845">
        <ele>371.1</ele>
        <time>2020-06-26T07:59:01Z</time>
      </trkpt>
      <trkpt lat="49.69792" lon="5.80848">
        <ele>371.1</ele>
        <time>2020-06-26T07:59:02Z</time>
      </trkpt>
      <trkpt lat="49.69792" lon="5.80851">
        <ele>371.1</ele>
        <time>2020-06-26T07:59:03Z</time>
      </trkpt>
      <trkpt lat="49.69792" lon="5.80854">
        <ele>371.1</ele>
        <time>2020-06-26T07:59:04Z</time>
      </trkpt>
      <trkpt lat="49.69792" lon="5.80857">
        <ele>371.1</ele>
        <time>2020-06-26T07:59:05Z</time>
      </trkpt>
      <trkpt lat="49.69792" lon="5.8086">
        <ele>371.1</ele>
        <time>2020-06-26T07:59:06Z</time>
      </trkpt>
      <trkpt lat="49.6979" lon="5.80861">
        <ele>371.1</ele>
        <time>2020-06-26T07:59:07Z</time>
      </trkpt>
      <trkpt lat="49.69789" lon="5.80862">
        <ele>371.1</ele>
        <time>2020-06-26T07:59:08Z</time>
      </trkpt>
      <trkpt lat="49.69786" lon="5.80864">
        <ele>371.1</ele>
        <time>2020-06-26T07:59:09Z</time>
      </trkpt>
      <trkpt lat="49.69786" lon="5.80864">
        <ele>371.1</ele>
        <time>2020-06-26T07:59:10Z</time>
      </trkpt>
      <trkpt lat="49.69784" lon="5.80864">
        <ele>371.1</ele>
        <time>2020-06-26T07:59:11Z</time>
      </trkpt>
      <trkpt lat="49.69783" lon="5.80864">
        <ele>371.1</ele>
        <time>2020-06-26T07:59:12Z</time>
      </trkpt>
      <trkpt lat="49.69781" lon="5.80865">
        <ele>371.1</ele>
        <time>2020-06-26T07:59:13Z</time>
      </trkpt>
      <trkpt lat="49.6978" lon="5.80865">
        <ele>371.1</ele>
        <time>2020-06-26T07:59:14Z</time>
      </trkpt>
      <trkpt lat="49.69779" lon="5.80866">
        <ele>371.2</ele>
        <time>2020-06-26T07:59:15Z</time>
      </trkpt>
      <trkpt lat="49.69778" lon="5.80867">
        <ele>371.2</ele>
        <time>2020-06-26T07:59:16Z</time>
      </trkpt>
      <trkpt lat="49.69776" lon="5.80868">
        <ele>371.2</ele>
        <time>2020-06-26T07:59:17Z</time>
      </trkpt>
      <trkpt lat="49.69775" lon="5.80868">
        <ele>371.2</ele>
        <time>2020-06-26T07:59:18Z</time>
      </trkpt>
      <trkpt lat="49.69773" lon="5.80869">
        <ele>371.3</ele>
        <time>2020-06-26T07:59:19Z</time>
      </trkpt>
      <trkpt lat="49.6977" lon="5.80871">
        <ele>371.4</ele>
        <time>2020-06-26T07:59:20Z</time>
      </trkpt>
      <trkpt lat="49.69768" lon="5.80871">
        <ele>371.4</ele>
        <time>2020-06-26T07:59:21Z</time>
      </trkpt>
      <trkpt lat="49.69765" lon="5.80872">
        <ele>371.5</ele>
        <time>2020-06-26T07:59:22Z</time>
      </trkpt>
      <trkpt lat="49.69762" lon="5.80873">
        <ele>371.6</ele>
        <time>2020-06-26T07:59:23Z</time>
      </trkpt>
      <trkpt lat="49.6976" lon="5.80875">
        <ele>371.7</ele>
        <time>2020-06-26T07:59:24Z</time>
      </trkpt>
      <trkpt lat="49.69756" lon="5.80878">
        <ele>371.8</ele>
        <time>2020-06-26T07:59:25Z</time>
      </trkpt>
      <trkpt lat="49.69754" lon="5.80879">
        <ele>371.8</ele>
        <time>2020-06-26T07:59:26Z</time>
      </trkpt>
      <trkpt lat="49.69751" lon="5.80881">
        <ele>371.9</ele>
        <time>2020-06-26T07:59:27Z</time>
      </trkpt>
      <trkpt lat="49.69749" lon="5.80882">
        <ele>371.9</ele>
        <time>2020-06-26T07:59:28Z</time>
      </trkpt>
      <trkpt lat="49.69745" lon="5.80884">
        <ele>371.9</ele>
        <time>2020-06-26T07:59:29Z</time>
      </trkpt>
      <trkpt lat="49.69744" lon="5.80885">
        <ele>372</ele>
        <time>2020-06-26T07:59:30Z</time>
      </trkpt>
      <trkpt lat="49.69741" lon="5.80886">
        <ele>372</ele>
        <time>2020-06-26T07:59:31Z</time>
      </trkpt>
      <trkpt lat="49.6974" lon="5.80887">
        <ele>372</ele>
        <time>2020-06-26T07:59:32Z</time>
      </trkpt>
      <trkpt lat="49.69736" lon="5.80889">
        <ele>372.1</ele>
        <time>2020-06-26T07:59:33Z</time>
      </trkpt>
      <trkpt lat="49.69735" lon="5.80889">
        <ele>372.1</ele>
        <time>2020-06-26T07:59:34Z</time>
      </trkpt>
      <trkpt lat="49.69732" lon="5.80891">
        <ele>372.1</ele>
        <time>2020-06-26T07:59:35Z</time>
      </trkpt>
      <trkpt lat="49.6973" lon="5.80892">
        <ele>372.1</ele>
        <time>2020-06-26T07:59:36Z</time>
      </trkpt>
      <trkpt lat="49.69728" lon="5.80894">
        <ele>372.2</ele>
        <time>2020-06-26T07:59:37Z</time>
      </trkpt>
      <trkpt lat="49.69726" lon="5.80896">
        <ele>372.2</ele>
        <time>2020-06-26T07:59:38Z</time>
      </trkpt>
      <trkpt lat="49.69722" lon="5.809">
        <ele>372.4</ele>
        <time>2020-06-26T07:59:39Z</time>
      </trkpt>
      <trkpt lat="49.69721" lon="5.80901">
        <ele>372.4</ele>
        <time>2020-06-26T07:59:40Z</time>
      </trkpt>
      <trkpt lat="49.69718" lon="5.80904">
        <ele>372.5</ele>
        <time>2020-06-26T07:59:41Z</time>
      </trkpt>
      <trkpt lat="49.69715" lon="5.80905">
        <ele>372.6</ele>
        <time>2020-06-26T07:59:42Z</time>
      </trkpt>
      <trkpt lat="49.69712" lon="5.80907">
        <ele>372.7</ele>
        <time>2020-06-26T07:59:43Z</time>
      </trkpt>
      <trkpt lat="49.69709" lon="5.8091">
        <ele>372.9</ele>
        <time>2020-06-26T07:59:44Z</time>
      </trkpt>
      <trkpt lat="49.69705" lon="5.80913">
        <ele>373</ele>
        <time>2020-06-26T07:59:45Z</time>
      </trkpt>
      <trkpt lat="49.69702" lon="5.80914">
        <ele>373.2</ele>
        <time>2020-06-26T07:59:46Z</time>
      </trkpt>
      <trkpt lat="49.69698" lon="5.80914">
        <ele>373.3</ele>
        <time>2020-06-26T07:59:47Z</time>
      </trkpt>
      <trkpt lat="49.69695" lon="5.80917">
        <ele>373.4</ele>
        <time>2020-06-26T07:59:48Z</time>
      </trkpt>
      <trkpt lat="49.69691" lon="5.80917">
        <ele>373.6</ele>
        <time>2020-06-26T07:59:49Z</time>
      </trkpt>
      <trkpt lat="49.69687" lon="5.80919">
        <ele>373.7</ele>
        <time>2020-06-26T07:59:50Z</time>
      </trkpt>
      <trkpt lat="49.69684" lon="5.80921">
        <ele>373.9</ele>
        <time>2020-06-26T07:59:51Z</time>
      </trkpt>
      <trkpt lat="49.69681" lon="5.80922">
        <ele>374</ele>
        <time>2020-06-26T07:59:52Z</time>
      </trkpt>
      <trkpt lat="49.69677" lon="5.80924">
        <ele>374.2</ele>
        <time>2020-06-26T07:59:53Z</time>
      </trkpt>
      <trkpt lat="49.69674" lon="5.80926">
        <ele>374.3</ele>
        <time>2020-06-26T07:59:54Z</time>
      </trkpt>
      <trkpt lat="49.69671" lon="5.80928">
        <ele>374.5</ele>
        <time>2020-06-26T07:59:55Z</time>
      </trkpt>
      <trkpt lat="49.69667" lon="5.8093">
        <ele>374.7</ele>
        <time>2020-06-26T07:59:56Z</time>
      </trkpt>
      <trkpt lat="49.69664" lon="5.80932">
        <ele>374.8</ele>
        <time>2020-06-26T07:59:57Z</time>
      </trkpt>
      <trkpt lat="49.6966" lon="5.80935">
        <ele>375</ele>
        <time>2020-06-26T07:59:58Z</time>
      </trkpt>
      <trkpt lat="49.69656" lon="5.80937">
        <ele>375.2</ele>
        <time>2020-06-26T07:59:59Z</time>
      </trkpt>
      <trkpt lat="49.69653" lon="5.80939">
        <ele>375.4</ele>
        <time>2020-06-26T08:00:00Z</time>
      </trkpt>
      <trkpt lat="49.6965" lon="5.80941">
        <ele>375.5</ele>
        <time>2020-06-26T08:00:01Z</time>
      </trkpt>
      <trkpt lat="49.69647" lon="5.80943">
        <ele>375.7</ele>
        <time>2020-06-26T08:00:02Z</time>
      </trkpt>
      <trkpt lat="49.69643" lon="5.80946">
        <ele>375.9</ele>
        <time>2020-06-26T08:00:03Z</time>
      </trkpt>
      <trkpt lat="49.6964" lon="5.80948">
        <ele>376.1</ele>
        <time>2020-06-26T08:00:04Z</time>
      </trkpt>
      <trkpt lat="49.69638" lon="5.8095">
        <ele>376.2</ele>
        <time>2020-06-26T08:00:05Z</time>
      </trkpt>
      <trkpt lat="49.69635" lon="5.80951">
        <ele>376.4</ele>
        <time>2020-06-26T08:00:06Z</time>
      </trkpt>
      <trkpt lat="49.69631" lon="5.80954">
        <ele>376.6</ele>
        <time>2020-06-26T08:00:07Z</time>
      </trkpt>
      <trkpt lat="49.69627" lon="5.80957">
        <ele>376.9</ele>
        <time>2020-06-26T08:00:08Z</time>
      </trkpt>
      <trkpt lat="49.69623" lon="5.8096">
        <ele>377.1</ele>
        <time>2020-06-26T08:00:09Z</time>
      </trkpt>
      <trkpt lat="49.6962" lon="5.80963">
        <ele>377.3</ele>
        <time>2020-06-26T08:00:10Z</time>
      </trkpt>
      <trkpt lat="49.69616" lon="5.80966">
        <ele>377.6</ele>
        <time>2020-06-26T08:00:11Z</time>
      </trkpt>
      <trkpt lat="49.69613" lon="5.80968">
        <ele>377.7</ele>
        <time>2020-06-26T08:00:12Z</time>
      </trkpt>
      <trkpt lat="49.6961" lon="5.8097">
        <ele>377.9</ele>
        <time>2020-06-26T08:00:13Z</time>
      </trkpt>
      <trkpt lat="49.69606" lon="5.80973">
        <ele>378.1</ele>
        <time>2020-06-26T08:00:14Z</time>
      </trkpt>
      <trkpt lat="49.69604" lon="5.80976">
        <ele>378.3</ele>
        <time>2020-06-26T08:00:15Z</time>
      </trkpt>
      <trkpt lat="49.696" lon="5.80978">
        <ele>378.5</ele>
        <time>2020-06-26T08:00:16Z</time>
      </trkpt>
      <trkpt lat="49.69597" lon="5.8098">
        <ele>378.7</ele>
        <time>2020-06-26T08:00:17Z</time>
      </trkpt>
      <trkpt lat="49.69593" lon="5.80983">
        <ele>378.9</ele>
        <time>2020-06-26T08:00:18Z</time>
      </trkpt>
      <trkpt lat="49.6959" lon="5.80985">
        <ele>379</ele>
        <time>2020-06-26T08:00:19Z</time>
      </trkpt>
      <trkpt lat="49.69587" lon="5.80986">
        <ele>379.2</ele>
        <time>2020-06-26T08:00:20Z</time>
      </trkpt>
      <trkpt lat="49.69584" lon="5.80988">
        <ele>379.3</ele>
        <time>2020-06-26T08:00:21Z</time>
      </trkpt>
      <trkpt lat="49.6958" lon="5.80985">
        <ele>379.4</ele>
        <time>2020-06-26T08:00:22Z</time>
      </trkpt>
      <trkpt lat="49.69577" lon="5.80985">
        <ele>379.6</ele>
        <time>2020-06-26T08:00:23Z</time>
      </trkpt>
      <trkpt lat="49.69574" lon="5.80983">
        <ele>379.6</ele>
        <time>2020-06-26T08:00:24Z</time>
      </trkpt>
      <trkpt lat="49.69571" lon="5.80983">
        <ele>379.7</ele>
        <time>2020-06-26T08:00:25Z</time>
      </trkpt>
      <trkpt lat="49.69568" lon="5.80982">
        <ele>379.7</ele>
        <time>2020-06-26T08:00:26Z</time>
      </trkpt>
      <trkpt lat="49.69563" lon="5.80984">
        <ele>379.8</ele>
        <time>2020-06-26T08:00:27Z</time>
      </trkpt>
      <trkpt lat="49.6956" lon="5.80986">
        <ele>379.8</ele>
        <time>2020-06-26T08:00:28Z</time>
      </trkpt>
      <trkpt lat="49.69559" lon="5.80988">
        <ele>379.8</ele>
        <time>2020-06-26T08:00:29Z</time>
      </trkpt>
      <trkpt lat="49.69557" lon="5.8099">
        <ele>379.9</ele>
        <time>2020-06-26T08:00:30Z</time>
      </trkpt>
      <trkpt lat="49.69554" lon="5.80993">
        <ele>380.1</ele>
        <time>2020-06-26T08:00:31Z</time>
      </trkpt>
      <trkpt lat="49.69551" lon="5.80998">
        <ele>380.4</ele>
        <time>2020-06-26T08:00:32Z</time>
      </trkpt>
      <trkpt lat="49.6955" lon="5.80999">
        <ele>380.5</ele>
        <time>2020-06-26T08:00:33Z</time>
      </trkpt>
      <trkpt lat="49.6955" lon="5.81005">
        <ele>380.6</ele>
        <time>2020-06-26T08:00:34Z</time>
      </trkpt>
      <trkpt lat="49.6955" lon="5.81008">
        <ele>380.7</ele>
        <time>2020-06-26T08:00:35Z</time>
      </trkpt>
      <trkpt lat="49.69549" lon="5.81013">
        <ele>380.8</ele>
        <time>2020-06-26T08:00:36Z</time>
      </trkpt>
      <trkpt lat="49.69549" lon="5.81018">
        <ele>380.9</ele>
        <time>2020-06-26T08:00:37Z</time>
      </trkpt>
      <trkpt lat="49.69549" lon="5.81023">
        <ele>381</ele>
        <time>2020-06-26T08:00:38Z</time>
      </trkpt>
      <trkpt lat="49.69548" lon="5.81028">
        <ele>381.1</ele>
        <time>2020-06-26T08:00:39Z</time>
      </trkpt>
      <trkpt lat="49.69547" lon="5.81032">
        <ele>381.2</ele>
        <time>2020-06-26T08:00:40Z</time>
      </trkpt>
      <trkpt lat="49.69544" lon="5.81036">
        <ele>381.3</ele>
        <time>2020-06-26T08:00:41Z</time>
      </trkpt>
      <trkpt lat="49.69542" lon="5.8104">
        <ele>381.4</ele>
        <time>2020-06-26T08:00:42Z</time>
      </trkpt>
      <trkpt lat="49.69539" lon="5.81042">
        <ele>381.5</ele>
        <time>2020-06-26T08:00:43Z</time>
      </trkpt>
      <trkpt lat="49.69536" lon="5.81043">
        <ele>381.7</ele>
        <time>2020-06-26T08:00:44Z</time>
      </trkpt>
      <trkpt lat="49.69533" lon="5.81045">
        <ele>381.8</ele>
        <time>2020-06-26T08:00:45Z</time>
      </trkpt>
      <trkpt lat="49.69529" lon="5.81046">
        <ele>382</ele>
        <time>2020-06-26T08:00:46Z</time>
      </trkpt>
      <trkpt lat="49.69526" lon="5.81047">
        <ele>382.2</ele>
        <time>2020-06-26T08:00:47Z</time>
      </trkpt>
      <trkpt lat="49.69521" lon="5.81048">
        <ele>382.4</ele>
        <time>2020-06-26T08:00:48Z</time>
      </trkpt>
      <trkpt lat="49.69516" lon="5.81049">
        <ele>382.6</ele>
        <time>2020-06-26T08:00:49Z</time>
      </trkpt>
      <trkpt lat="49.69512" lon="5.81051">
        <ele>382.8</ele>
        <time>2020-06-26T08:00:50Z</time>
      </trkpt>
      <trkpt lat="49.69509" lon="5.81051">
        <ele>383</ele>
        <time>2020-06-26T08:00:51Z</time>
      </trkpt>
      <trkpt lat="49.69505" lon="5.81052">
        <ele>383.1</ele>
        <time>2020-06-26T08:00:52Z</time>
      </trkpt>
      <trkpt lat="49.69501" lon="5.81053">
        <ele>383.2</ele>
        <time>2020-06-26T08:00:53Z</time>
      </trkpt>
      <trkpt lat="49.69498" lon="5.81055">
        <ele>383.4</ele>
        <time>2020-06-26T08:00:54Z</time>
      </trkpt>
      <trkpt lat="49.69494" lon="5.81057">
        <ele>383.5</ele>
        <time>2020-06-26T08:00:55Z</time>
      </trkpt>
      <trkpt lat="49.69491" lon="5.81059">
        <ele>383.6</ele>
        <time>2020-06-26T08:00:56Z</time>
      </trkpt>
      <trkpt lat="49.69487" lon="5.81061">
        <ele>383.7</ele>
        <time>2020-06-26T08:00:57Z</time>
      </trkpt>
      <trkpt lat="49.69484" lon="5.81062">
        <ele>383.8</ele>
        <time>2020-06-26T08:00:58Z</time>
      </trkpt>
      <trkpt lat="49.69481" lon="5.81065">
        <ele>383.9</ele>
        <time>2020-06-26T08:00:59Z</time>
      </trkpt>
      <trkpt lat="49.69477" lon="5.81068">
        <ele>384.1</ele>
        <time>2020-06-26T08:01:00Z</time>
      </trkpt>
      <trkpt lat="49.69474" lon="5.81071">
        <ele>384.1</ele>
        <time>2020-06-26T08:01:01Z</time>
      </trkpt>
      <trkpt lat="49.69472" lon="5.81074">
        <ele>384.2</ele>
        <time>2020-06-26T08:01:02Z</time>
      </trkpt>
      <trkpt lat="49.69468" lon="5.81077">
        <ele>384.3</ele>
        <time>2020-06-26T08:01:03Z</time>
      </trkpt>
      <trkpt lat="49.69465" lon="5.8108">
        <ele>384.4</ele>
        <time>2020-06-26T08:01:04Z</time>
      </trkpt>
      <trkpt lat="49.69461" lon="5.81084">
        <ele>384.5</ele>
        <time>2020-06-26T08:01:05Z</time>
      </trkpt>
      <trkpt lat="49.69458" lon="5.81087">
        <ele>384.6</ele>
        <time>2020-06-26T08:01:06Z</time>
      </trkpt>
      <trkpt lat="49.69454" lon="5.8109">
        <ele>384.8</ele>
        <time>2020-06-26T08:01:07Z</time>
      </trkpt>
      <trkpt lat="49.6945" lon="5.81092">
        <ele>384.9</ele>
        <time>2020-06-26T08:01:08Z</time>
      </trkpt>
      <trkpt lat="49.69447" lon="5.81095">
        <ele>385</ele>
        <time>2020-06-26T08:01:09Z</time>
      </trkpt>
      <trkpt lat="49.69444" lon="5.81097">
        <ele>385.1</ele>
        <time>2020-06-26T08:01:10Z</time>
      </trkpt>
      <trkpt lat="49.6944" lon="5.811">
        <ele>385.2</ele>
        <time>2020-06-26T08:01:11Z</time>
      </trkpt>
      <trkpt lat="49.69437" lon="5.81103">
        <ele>385.3</ele>
        <time>2020-06-26T08:01:12Z</time>
      </trkpt>
      <trkpt lat="49.69434" lon="5.81106">
        <ele>385.4</ele>
        <time>2020-06-26T08:01:13Z</time>
      </trkpt>
      <trkpt lat="49.69431" lon="5.81109">
        <ele>385.5</ele>
        <time>2020-06-26T08:01:14Z</time>
      </trkpt>
      <trkpt lat="49.69428" lon="5.81112">
        <ele>385.5</ele>
        <time>2020-06-26T08:01:15Z</time>
      </trkpt>
      <trkpt lat="49.69424" lon="5.81115">
        <ele>385.6</ele>
        <time>2020-06-26T08:01:16Z</time>
      </trkpt>
      <trkpt lat="49.69421" lon="5.81119">
        <ele>385.7</ele>
        <time>2020-06-26T08:01:17Z</time>
      </trkpt>
      <trkpt lat="49.69417" lon="5.81124">
        <ele>385.9</ele>
        <time>2020-06-26T08:01:18Z</time>
      </trkpt>
      <trkpt lat="49.69414" lon="5.81128">
        <ele>385.9</ele>
        <time>2020-06-26T08:01:19Z</time>
      </trkpt>
      <trkpt lat="49.69411" lon="5.81132">
        <ele>386</ele>
        <time>2020-06-26T08:01:20Z</time>
      </trkpt>
      <trkpt lat="49.69408" lon="5.81136">
        <ele>386.1</ele>
        <time>2020-06-26T08:01:21Z</time>
      </trkpt>
      <trkpt lat="49.69405" lon="5.8114">
        <ele>386.2</ele>
        <time>2020-06-26T08:01:22Z</time>
      </trkpt>
      <trkpt lat="49.69401" lon="5.81143">
        <ele>386.2</ele>
        <time>2020-06-26T08:01:23Z</time>
      </trkpt>
      <trkpt lat="49.69398" lon="5.81147">
        <ele>386.2</ele>
        <time>2020-06-26T08:01:24Z</time>
      </trkpt>
      <trkpt lat="49.69395" lon="5.8115">
        <ele>386.3</ele>
        <time>2020-06-26T08:01:25Z</time>
      </trkpt>
      <trkpt lat="49.69392" lon="5.81154">
        <ele>386.3</ele>
        <time>2020-06-26T08:01:26Z</time>
      </trkpt>
      <trkpt lat="49.69389" lon="5.81156">
        <ele>386.3</ele>
        <time>2020-06-26T08:01:27Z</time>
      </trkpt>
      <trkpt lat="49.69386" lon="5.81158">
        <ele>386.4</ele>
        <time>2020-06-26T08:01:28Z</time>
      </trkpt>
      <trkpt lat="49.69382" lon="5.81161">
        <ele>386.4</ele>
        <time>2020-06-26T08:01:29Z</time>
      </trkpt>
      <trkpt lat="49.69381" lon="5.81162">
        <ele>386.4</ele>
        <time>2020-06-26T08:01:30Z</time>
      </trkpt>
      <trkpt lat="49.69378" lon="5.81165">
        <ele>386.5</ele>
        <time>2020-06-26T08:01:31Z</time>
      </trkpt>
      <trkpt lat="49.69376" lon="5.81167">
        <ele>386.5</ele>
        <time>2020-06-26T08:01:32Z</time>
      </trkpt>
      <trkpt lat="49.69373" lon="5.8117">
        <ele>386.5</ele>
        <time>2020-06-26T08:01:33Z</time>
      </trkpt>
      <trkpt lat="49.69371" lon="5.81173">
        <ele>386.5</ele>
        <time>2020-06-26T08:01:34Z</time>
      </trkpt>
      <trkpt lat="49.69368" lon="5.81175">
        <ele>386.6</ele>
        <time>2020-06-26T08:01:35Z</time>
      </trkpt>
      <trkpt lat="49.69366" lon="5.81179">
        <ele>386.6</ele>
        <time>2020-06-26T08:01:36Z</time>
      </trkpt>
      <trkpt lat="49.69364" lon="5.81183">
        <ele>386.6</ele>
        <time>2020-06-26T08:01:37Z</time>
      </trkpt>
      <trkpt lat="49.6936" lon="5.81188">
        <ele>386.7</ele>
        <time>2020-06-26T08:01:38Z</time>
      </trkpt>
      <trkpt lat="49.69357" lon="5.81192">
        <ele>386.7</ele>
        <time>2020-06-26T08:01:39Z</time>
      </trkpt>
      <trkpt lat="49.69355" lon="5.81196">
        <ele>386.7</ele>
        <time>2020-06-26T08:01:40Z</time>
      </trkpt>
      <trkpt lat="49.69352" lon="5.812">
        <ele>386.8</ele>
        <time>2020-06-26T08:01:41Z</time>
      </trkpt>
      <trkpt lat="49.69349" lon="5.81203">
        <ele>386.8</ele>
        <time>2020-06-26T08:01:42Z</time>
      </trkpt>
      <trkpt lat="49.69347" lon="5.81206">
        <ele>386.8</ele>
        <time>2020-06-26T08:01:43Z</time>
      </trkpt>
      <trkpt lat="49.69345" lon="5.81209">
        <ele>386.9</ele>
        <time>2020-06-26T08:01:44Z</time>
      </trkpt>
      <trkpt lat="49.69342" lon="5.81212">
        <ele>386.9</ele>
        <time>2020-06-26T08:01:45Z</time>
      </trkpt>
      <trkpt lat="49.69339" lon="5.81215">
        <ele>386.9</ele>
        <time>2020-06-26T08:01:46Z</time>
      </trkpt>
      <trkpt lat="49.69337" lon="5.81217">
        <ele>387</ele>
        <time>2020-06-26T08:01:47Z</time>
      </trkpt>
      <trkpt lat="49.69334" lon="5.81219">
        <ele>387</ele>
        <time>2020-06-26T08:01:48Z</time>
      </trkpt>
      <trkpt lat="49.69332" lon="5.81223">
        <ele>387.1</ele>
        <time>2020-06-26T08:01:49Z</time>
      </trkpt>
      <trkpt lat="49.6933" lon="5.81227">
        <ele>387.1</ele>
        <time>2020-06-26T08:01:50Z</time>
      </trkpt>
      <trkpt lat="49.69327" lon="5.81229">
        <ele>387.1</ele>
        <time>2020-06-26T08:01:51Z</time>
      </trkpt>
      <trkpt lat="49.69324" lon="5.81232">
        <ele>387.2</ele>
        <time>2020-06-26T08:01:52Z</time>
      </trkpt>
      <trkpt lat="49.69321" lon="5.81235">
        <ele>387.2</ele>
        <time>2020-06-26T08:01:53Z</time>
      </trkpt>
      <trkpt lat="49.69318" lon="5.81238">
        <ele>387.2</ele>
        <time>2020-06-26T08:01:54Z</time>
      </trkpt>
      <trkpt lat="49.69315" lon="5.81242">
        <ele>387.3</ele>
        <time>2020-06-26T08:01:55Z</time>
      </trkpt>
      <trkpt lat="49.69312" lon="5.81246">
        <ele>387.3</ele>
        <time>2020-06-26T08:01:56Z</time>
      </trkpt>
      <trkpt lat="49.69309" lon="5.8125">
        <ele>387.3</ele>
        <time>2020-06-26T08:01:57Z</time>
      </trkpt>
      <trkpt lat="49.69306" lon="5.81254">
        <ele>387.4</ele>
        <time>2020-06-26T08:01:58Z</time>
      </trkpt>
      <trkpt lat="49.69304" lon="5.81257">
        <ele>387.4</ele>
        <time>2020-06-26T08:01:59Z</time>
      </trkpt>
      <trkpt lat="49.69301" lon="5.81261">
        <ele>387.4</ele>
        <time>2020-06-26T08:02:00Z</time>
      </trkpt>
      <trkpt lat="49.69298" lon="5.81264">
        <ele>387.5</ele>
        <time>2020-06-26T08:02:01Z</time>
      </trkpt>
      <trkpt lat="49.69294" lon="5.81268">
        <ele>387.5</ele>
        <time>2020-06-26T08:02:02Z</time>
      </trkpt>
      <trkpt lat="49.69291" lon="5.81272">
        <ele>387.5</ele>
        <time>2020-06-26T08:02:03Z</time>
      </trkpt>
      <trkpt lat="49.69288" lon="5.81276">
        <ele>387.5</ele>
        <time>2020-06-26T08:02:04Z</time>
      </trkpt>
      <trkpt lat="49.69285" lon="5.8128">
        <ele>387.6</ele>
        <time>2020-06-26T08:02:05Z</time>
      </trkpt>
      <trkpt lat="49.69281" lon="5.81284">
        <ele>387.6</ele>
        <time>2020-06-26T08:02:06Z</time>
      </trkpt>
      <trkpt lat="49.69277" lon="5.81289">
        <ele>387.7</ele>
        <time>2020-06-26T08:02:07Z</time>
      </trkpt>
      <trkpt lat="49.69273" lon="5.81293">
        <ele>387.8</ele>
        <time>2020-06-26T08:02:08Z</time>
      </trkpt>
      <trkpt lat="49.69268" lon="5.81298">
        <ele>387.9</ele>
        <time>2020-06-26T08:02:09Z</time>
      </trkpt>
      <trkpt lat="49.69264" lon="5.81302">
        <ele>387.9</ele>
        <time>2020-06-26T08:02:10Z</time>
      </trkpt>
      <trkpt lat="49.69261" lon="5.81307">
        <ele>387.8</ele>
        <time>2020-06-26T08:02:11Z</time>
      </trkpt>
      <trkpt lat="49.69257" lon="5.81311">
        <ele>387.8</ele>
        <time>2020-06-26T08:02:12Z</time>
      </trkpt>
      <trkpt lat="49.69253" lon="5.81316">
        <ele>387.7</ele>
        <time>2020-06-26T08:02:13Z</time>
      </trkpt>
      <trkpt lat="49.69249" lon="5.8132">
        <ele>387.6</ele>
        <time>2020-06-26T08:02:14Z</time>
      </trkpt>
      <trkpt lat="49.69244" lon="5.81324">
        <ele>387.5</ele>
        <time>2020-06-26T08:02:15Z</time>
      </trkpt>
      <trkpt lat="49.69239" lon="5.81328">
        <ele>387.4</ele>
        <time>2020-06-26T08:02:16Z</time>
      </trkpt>
      <trkpt lat="49.69234" lon="5.81333">
        <ele>387.4</ele>
        <time>2020-06-26T08:02:17Z</time>
      </trkpt>
      <trkpt lat="49.69229" lon="5.81339">
        <ele>387.5</ele>
        <time>2020-06-26T08:02:18Z</time>
      </trkpt>
      <trkpt lat="49.69225" lon="5.81344">
        <ele>387.6</ele>
        <time>2020-06-26T08:02:19Z</time>
      </trkpt>
      <trkpt lat="49.69221" lon="5.81349">
        <ele>387.6</ele>
        <time>2020-06-26T08:02:20Z</time>
      </trkpt>
      <trkpt lat="49.69218" lon="5.81354">
        <ele>387.7</ele>
        <time>2020-06-26T08:02:21Z</time>
      </trkpt>
      <trkpt lat="49.69214" lon="5.81358">
        <ele>387.8</ele>
        <time>2020-06-26T08:02:22Z</time>
      </trkpt>
      <trkpt lat="49.6921" lon="5.81362">
        <ele>387.8</ele>
        <time>2020-06-26T08:02:23Z</time>
      </trkpt>
      <trkpt lat="49.69206" lon="5.81367">
        <ele>387.9</ele>
        <time>2020-06-26T08:02:24Z</time>
      </trkpt>
      <trkpt lat="49.69202" lon="5.81372">
        <ele>388.1</ele>
        <time>2020-06-26T08:02:25Z</time>
      </trkpt>
      <trkpt lat="49.69198" lon="5.81376">
        <ele>388.2</ele>
        <time>2020-06-26T08:02:26Z</time>
      </trkpt>
      <trkpt lat="49.69193" lon="5.81381">
        <ele>388.3</ele>
        <time>2020-06-26T08:02:27Z</time>
      </trkpt>
      <trkpt lat="49.69189" lon="5.81387">
        <ele>388.5</ele>
        <time>2020-06-26T08:02:28Z</time>
      </trkpt>
      <trkpt lat="49.69185" lon="5.81392">
        <ele>388.6</ele>
        <time>2020-06-26T08:02:29Z</time>
      </trkpt>
      <trkpt lat="49.69181" lon="5.81397">
        <ele>388.8</ele>
        <time>2020-06-26T08:02:30Z</time>
      </trkpt>
      <trkpt lat="49.69177" lon="5.81402">
        <ele>388.9</ele>
        <time>2020-06-26T08:02:31Z</time>
      </trkpt>
      <trkpt lat="49.69174" lon="5.81407">
        <ele>389</ele>
        <time>2020-06-26T08:02:32Z</time>
      </trkpt>
      <trkpt lat="49.6917" lon="5.81412">
        <ele>389.1</ele>
        <time>2020-06-26T08:02:33Z</time>
      </trkpt>
      <trkpt lat="49.69167" lon="5.81417">
        <ele>389.3</ele>
        <time>2020-06-26T08:02:34Z</time>
      </trkpt>
      <trkpt lat="49.69164" lon="5.81421">
        <ele>389.4</ele>
        <time>2020-06-26T08:02:35Z</time>
      </trkpt>
      <trkpt lat="49.6916" lon="5.81425">
        <ele>389.6</ele>
        <time>2020-06-26T08:02:36Z</time>
      </trkpt>
      <trkpt lat="49.69156" lon="5.8143">
        <ele>389.8</ele>
        <time>2020-06-26T08:02:37Z</time>
      </trkpt>
      <trkpt lat="49.69152" lon="5.81433">
        <ele>390</ele>
        <time>2020-06-26T08:02:38Z</time>
      </trkpt>
      <trkpt lat="49.69149" lon="5.81437">
        <ele>390.2</ele>
        <time>2020-06-26T08:02:39Z</time>
      </trkpt>
      <trkpt lat="49.69146" lon="5.81441">
        <ele>390.4</ele>
        <time>2020-06-26T08:02:40Z</time>
      </trkpt>
      <trkpt lat="49.69142" lon="5.81447">
        <ele>390.6</ele>
        <time>2020-06-26T08:02:41Z</time>
      </trkpt>
      <trkpt lat="49.69139" lon="5.81453">
        <ele>390.8</ele>
        <time>2020-06-26T08:02:42Z</time>
      </trkpt>
      <trkpt lat="49.69135" lon="5.81458">
        <ele>391</ele>
        <time>2020-06-26T08:02:43Z</time>
      </trkpt>
      <trkpt lat="49.69131" lon="5.81464">
        <ele>391.2</ele>
        <time>2020-06-26T08:02:44Z</time>
      </trkpt>
      <trkpt lat="49.69127" lon="5.81469">
        <ele>391.4</ele>
        <time>2020-06-26T08:02:45Z</time>
      </trkpt>
      <trkpt lat="49.69124" lon="5.81473">
        <ele>391.6</ele>
        <time>2020-06-26T08:02:46Z</time>
      </trkpt>
      <trkpt lat="49.69121" lon="5.81479">
        <ele>391.8</ele>
        <time>2020-06-26T08:02:47Z</time>
      </trkpt>
      <trkpt lat="49.69118" lon="5.81484">
        <ele>391.9</ele>
        <time>2020-06-26T08:02:48Z</time>
      </trkpt>
      <trkpt lat="49.69114" lon="5.81488">
        <ele>392.1</ele>
        <time>2020-06-26T08:02:49Z</time>
      </trkpt>
      <trkpt lat="49.69111" lon="5.81493">
        <ele>392.3</ele>
        <time>2020-06-26T08:02:50Z</time>
      </trkpt>
      <trkpt lat="49.69108" lon="5.81497">
        <ele>392.4</ele>
        <time>2020-06-26T08:02:51Z</time>
      </trkpt>
      <trkpt lat="49.69105" lon="5.81502">
        <ele>392.6</ele>
        <time>2020-06-26T08:02:52Z</time>
      </trkpt>
      <trkpt lat="49.69103" lon="5.81507">
        <ele>392.8</ele>
        <time>2020-06-26T08:02:53Z</time>
      </trkpt>
      <trkpt lat="49.691" lon="5.81511">
        <ele>392.9</ele>
        <time>2020-06-26T08:02:54Z</time>
      </trkpt>
      <trkpt lat="49.69097" lon="5.81516">
        <ele>393.1</ele>
        <time>2020-06-26T08:02:55Z</time>
      </trkpt>
      <trkpt lat="49.69094" lon="5.81521">
        <ele>393.3</ele>
        <time>2020-06-26T08:02:56Z</time>
      </trkpt>
      <trkpt lat="49.6909" lon="5.81526">
        <ele>393.5</ele>
        <time>2020-06-26T08:02:57Z</time>
      </trkpt>
      <trkpt lat="49.69088" lon="5.8153">
        <ele>393.7</ele>
        <time>2020-06-26T08:02:58Z</time>
      </trkpt>
      <trkpt lat="49.69084" lon="5.81535">
        <ele>393.9</ele>
        <time>2020-06-26T08:02:59Z</time>
      </trkpt>
      <trkpt lat="49.69081" lon="5.8154">
        <ele>394</ele>
        <time>2020-06-26T08:03:00Z</time>
      </trkpt>
      <trkpt lat="49.69079" lon="5.81545">
        <ele>394.2</ele>
        <time>2020-06-26T08:03:01Z</time>
      </trkpt>
      <trkpt lat="49.69076" lon="5.81551">
        <ele>394.4</ele>
        <time>2020-06-26T08:03:02Z</time>
      </trkpt>
      <trkpt lat="49.69074" lon="5.81556">
        <ele>394.5</ele>
        <time>2020-06-26T08:03:03Z</time>
      </trkpt>
      <trkpt lat="49.69071" lon="5.8156">
        <ele>394.6</ele>
        <time>2020-06-26T08:03:04Z</time>
      </trkpt>
      <trkpt lat="49.69069" lon="5.81565">
        <ele>394.8</ele>
        <time>2020-06-26T08:03:05Z</time>
      </trkpt>
      <trkpt lat="49.69066" lon="5.81569">
        <ele>394.9</ele>
        <time>2020-06-26T08:03:06Z</time>
      </trkpt>
      <trkpt lat="49.69064" lon="5.81573">
        <ele>395.1</ele>
        <time>2020-06-26T08:03:07Z</time>
      </trkpt>
      <trkpt lat="49.69062" lon="5.81577">
        <ele>395.2</ele>
        <time>2020-06-26T08:03:08Z</time>
      </trkpt>
      <trkpt lat="49.6906" lon="5.81581">
        <ele>395.3</ele>
        <time>2020-06-26T08:03:09Z</time>
      </trkpt>
      <trkpt lat="49.69057" lon="5.81585">
        <ele>395.5</ele>
        <time>2020-06-26T08:03:10Z</time>
      </trkpt>
      <trkpt lat="49.69055" lon="5.81589">
        <ele>395.6</ele>
        <time>2020-06-26T08:03:11Z</time>
      </trkpt>
      <trkpt lat="49.69052" lon="5.81595">
        <ele>395.8</ele>
        <time>2020-06-26T08:03:12Z</time>
      </trkpt>
      <trkpt lat="49.69051" lon="5.816">
        <ele>395.9</ele>
        <time>2020-06-26T08:03:13Z</time>
      </trkpt>
      <trkpt lat="49.69049" lon="5.81605">
        <ele>396</ele>
        <time>2020-06-26T08:03:14Z</time>
      </trkpt>
      <trkpt lat="49.69047" lon="5.81609">
        <ele>396.2</ele>
        <time>2020-06-26T08:03:15Z</time>
      </trkpt>
      <trkpt lat="49.69045" lon="5.81614">
        <ele>396.3</ele>
        <time>2020-06-26T08:03:16Z</time>
      </trkpt>
      <trkpt lat="49.69042" lon="5.81619">
        <ele>396.4</ele>
        <time>2020-06-26T08:03:17Z</time>
      </trkpt>
      <trkpt lat="49.6904" lon="5.81622">
        <ele>396.4</ele>
        <time>2020-06-26T08:03:18Z</time>
      </trkpt>
      <trkpt lat="49.69037" lon="5.81627">
        <ele>396.6</ele>
        <time>2020-06-26T08:03:19Z</time>
      </trkpt>
      <trkpt lat="49.69034" lon="5.81631">
        <ele>396.7</ele>
        <time>2020-06-26T08:03:20Z</time>
      </trkpt>
      <trkpt lat="49.69032" lon="5.81634">
        <ele>396.8</ele>
        <time>2020-06-26T08:03:21Z</time>
      </trkpt>
      <trkpt lat="49.69029" lon="5.81638">
        <ele>396.9</ele>
        <time>2020-06-26T08:03:22Z</time>
      </trkpt>
      <trkpt lat="49.69026" lon="5.81643">
        <ele>397.1</ele>
        <time>2020-06-26T08:03:23Z</time>
      </trkpt>
      <trkpt lat="49.69022" lon="5.81648">
        <ele>397.3</ele>
        <time>2020-06-26T08:03:24Z</time>
      </trkpt>
      <trkpt lat="49.69019" lon="5.81652">
        <ele>397.4</ele>
        <time>2020-06-26T08:03:25Z</time>
      </trkpt>
      <trkpt lat="49.69016" lon="5.81656">
        <ele>397.6</ele>
        <time>2020-06-26T08:03:26Z</time>
      </trkpt>
      <trkpt lat="49.69013" lon="5.8166">
        <ele>397.7</ele>
        <time>2020-06-26T08:03:27Z</time>
      </trkpt>
      <trkpt lat="49.6901" lon="5.81664">
        <ele>397.9</ele>
        <time>2020-06-26T08:03:28Z</time>
      </trkpt>
      <trkpt lat="49.69007" lon="5.81668">
        <ele>398</ele>
        <time>2020-06-26T08:03:29Z</time>
      </trkpt>
      <trkpt lat="49.69005" lon="5.81672">
        <ele>398.2</ele>
        <time>2020-06-26T08:03:30Z</time>
      </trkpt>
      <trkpt lat="49.69002" lon="5.81677">
        <ele>398.3</ele>
        <time>2020-06-26T08:03:31Z</time>
      </trkpt>
      <trkpt lat="49.68999" lon="5.81682">
        <ele>398.5</ele>
        <time>2020-06-26T08:03:32Z</time>
      </trkpt>
      <trkpt lat="49.68996" lon="5.81686">
        <ele>398.7</ele>
        <time>2020-06-26T08:03:33Z</time>
      </trkpt>
      <trkpt lat="49.68994" lon="5.81692">
        <ele>398.9</ele>
        <time>2020-06-26T08:03:34Z</time>
      </trkpt>
      <trkpt lat="49.68991" lon="5.81696">
        <ele>399</ele>
        <time>2020-06-26T08:03:35Z</time>
      </trkpt>
      <trkpt lat="49.68988" lon="5.81702">
        <ele>399.2</ele>
        <time>2020-06-26T08:03:36Z</time>
      </trkpt>
      <trkpt lat="49.68986" lon="5.81706">
        <ele>399.3</ele>
        <time>2020-06-26T08:03:37Z</time>
      </trkpt>
      <trkpt lat="49.68984" lon="5.8171">
        <ele>399.5</ele>
        <time>2020-06-26T08:03:38Z</time>
      </trkpt>
      <trkpt lat="49.68981" lon="5.81714">
        <ele>399.6</ele>
        <time>2020-06-26T08:03:39Z</time>
      </trkpt>
      <trkpt lat="49.68979" lon="5.81717">
        <ele>399.8</ele>
        <time>2020-06-26T08:03:40Z</time>
      </trkpt>
      <trkpt lat="49.68976" lon="5.81721">
        <ele>399.9</ele>
        <time>2020-06-26T08:03:41Z</time>
      </trkpt>
      <trkpt lat="49.68973" lon="5.81725">
        <ele>400</ele>
        <time>2020-06-26T08:03:42Z</time>
      </trkpt>
      <trkpt lat="49.68971" lon="5.81729">
        <ele>400.2</ele>
        <time>2020-06-26T08:03:43Z</time>
      </trkpt>
      <trkpt lat="49.68969" lon="5.81734">
        <ele>400.3</ele>
        <time>2020-06-26T08:03:44Z</time>
      </trkpt>
      <trkpt lat="49.68966" lon="5.81737">
        <ele>400.5</ele>
        <time>2020-06-26T08:03:45Z</time>
      </trkpt>
      <trkpt lat="49.68964" lon="5.81742">
        <ele>400.6</ele>
        <time>2020-06-26T08:03:46Z</time>
      </trkpt>
      <trkpt lat="49.68961" lon="5.81745">
        <ele>400.8</ele>
        <time>2020-06-26T08:03:47Z</time>
      </trkpt>
      <trkpt lat="49.68958" lon="5.81749">
        <ele>400.9</ele>
        <time>2020-06-26T08:03:48Z</time>
      </trkpt>
      <trkpt lat="49.68955" lon="5.81753">
        <ele>401.1</ele>
        <time>2020-06-26T08:03:49Z</time>
      </trkpt>
      <trkpt lat="49.68953" lon="5.81756">
        <ele>401.2</ele>
        <time>2020-06-26T08:03:50Z</time>
      </trkpt>
      <trkpt lat="49.6895" lon="5.81761">
        <ele>401.4</ele>
        <time>2020-06-26T08:03:51Z</time>
      </trkpt>
      <trkpt lat="49.68948" lon="5.81765">
        <ele>401.6</ele>
        <time>2020-06-26T08:03:52Z</time>
      </trkpt>
      <trkpt lat="49.68945" lon="5.81769">
        <ele>401.7</ele>
        <time>2020-06-26T08:03:53Z</time>
      </trkpt>
      <trkpt lat="49.68943" lon="5.81772">
        <ele>401.9</ele>
        <time>2020-06-26T08:03:54Z</time>
      </trkpt>
      <trkpt lat="49.68941" lon="5.81777">
        <ele>402</ele>
        <time>2020-06-26T08:03:55Z</time>
      </trkpt>
      <trkpt lat="49.68938" lon="5.81781">
        <ele>402.2</ele>
        <time>2020-06-26T08:03:56Z</time>
      </trkpt>
      <trkpt lat="49.68935" lon="5.81785">
        <ele>402.4</ele>
        <time>2020-06-26T08:03:57Z</time>
      </trkpt>
      <trkpt lat="49.68932" lon="5.81789">
        <ele>402.6</ele>
        <time>2020-06-26T08:03:58Z</time>
      </trkpt>
      <trkpt lat="49.68928" lon="5.81793">
        <ele>402.8</ele>
        <time>2020-06-26T08:03:59Z</time>
      </trkpt>
      <trkpt lat="49.68925" lon="5.81796">
        <ele>402.9</ele>
        <time>2020-06-26T08:04:00Z</time>
      </trkpt>
      <trkpt lat="49.68922" lon="5.818">
        <ele>403.1</ele>
        <time>2020-06-26T08:04:01Z</time>
      </trkpt>
      <trkpt lat="49.68919" lon="5.81804">
        <ele>403.3</ele>
        <time>2020-06-26T08:04:02Z</time>
      </trkpt>
      <trkpt lat="49.68917" lon="5.81809">
        <ele>403.4</ele>
        <time>2020-06-26T08:04:03Z</time>
      </trkpt>
      <trkpt lat="49.68914" lon="5.81812">
        <ele>403.6</ele>
        <time>2020-06-26T08:04:04Z</time>
      </trkpt>
      <trkpt lat="49.68912" lon="5.81817">
        <ele>403.7</ele>
        <time>2020-06-26T08:04:05Z</time>
      </trkpt>
      <trkpt lat="49.68909" lon="5.8182">
        <ele>403.8</ele>
        <time>2020-06-26T08:04:06Z</time>
      </trkpt>
      <trkpt lat="49.68905" lon="5.81823">
        <ele>404</ele>
        <time>2020-06-26T08:04:07Z</time>
      </trkpt>
      <trkpt lat="49.68901" lon="5.81827">
        <ele>404.2</ele>
        <time>2020-06-26T08:04:08Z</time>
      </trkpt>
      <trkpt lat="49.68898" lon="5.8183">
        <ele>404.4</ele>
        <time>2020-06-26T08:04:09Z</time>
      </trkpt>
      <trkpt lat="49.68895" lon="5.81833">
        <ele>404.5</ele>
        <time>2020-06-26T08:04:10Z</time>
      </trkpt>
      <trkpt lat="49.68893" lon="5.81837">
        <ele>404.7</ele>
        <time>2020-06-26T08:04:11Z</time>
      </trkpt>
      <trkpt lat="49.6889" lon="5.8184">
        <ele>404.8</ele>
        <time>2020-06-26T08:04:12Z</time>
      </trkpt>
      <trkpt lat="49.68887" lon="5.81843">
        <ele>404.9</ele>
        <time>2020-06-26T08:04:13Z</time>
      </trkpt>
      <trkpt lat="49.68886" lon="5.81847">
        <ele>405</ele>
        <time>2020-06-26T08:04:14Z</time>
      </trkpt>
      <trkpt lat="49.68883" lon="5.8185">
        <ele>405.2</ele>
        <time>2020-06-26T08:04:15Z</time>
      </trkpt>
      <trkpt lat="49.68881" lon="5.81854">
        <ele>405.3</ele>
        <time>2020-06-26T08:04:16Z</time>
      </trkpt>
      <trkpt lat="49.68878" lon="5.81857">
        <ele>405.4</ele>
        <time>2020-06-26T08:04:17Z</time>
      </trkpt>
      <trkpt lat="49.68876" lon="5.8186">
        <ele>405.5</ele>
        <time>2020-06-26T08:04:18Z</time>
      </trkpt>
      <trkpt lat="49.68873" lon="5.81864">
        <ele>405.6</ele>
        <time>2020-06-26T08:04:19Z</time>
      </trkpt>
      <trkpt lat="49.68872" lon="5.81865">
        <ele>405.7</ele>
        <time>2020-06-26T08:04:20Z</time>
      </trkpt>
      <trkpt lat="49.68869" lon="5.81868">
        <ele>406.1</ele>
        <time>2020-06-26T08:04:21Z</time>
      </trkpt>
      <trkpt lat="49.68867" lon="5.81868">
        <ele>406.1</ele>
        <time>2020-06-26T08:04:22Z</time>
      </trkpt>
      <trkpt lat="49.68864" lon="5.81869">
        <ele>406.2</ele>
        <time>2020-06-26T08:04:23Z</time>
      </trkpt>
      <trkpt lat="49.68862" lon="5.8187">
        <ele>406.2</ele>
        <time>2020-06-26T08:04:24Z</time>
      </trkpt>
      <trkpt lat="49.68859" lon="5.8187">
        <ele>406.3</ele>
        <time>2020-06-26T08:04:25Z</time>
      </trkpt>
      <trkpt lat="49.68856" lon="5.81872">
        <ele>406.4</ele>
        <time>2020-06-26T08:04:26Z</time>
      </trkpt>
      <trkpt lat="49.68852" lon="5.81872">
        <ele>406.5</ele>
        <time>2020-06-26T08:04:27Z</time>
      </trkpt>
      <trkpt lat="49.68849" lon="5.81875">
        <ele>406.6</ele>
        <time>2020-06-26T08:04:28Z</time>
      </trkpt>
      <trkpt lat="49.68845" lon="5.81878">
        <ele>406.7</ele>
        <time>2020-06-26T08:04:29Z</time>
      </trkpt>
      <trkpt lat="49.68841" lon="5.81881">
        <ele>406.8</ele>
        <time>2020-06-26T08:04:30Z</time>
      </trkpt>
      <trkpt lat="49.68839" lon="5.81886">
        <ele>406.9</ele>
        <time>2020-06-26T08:04:31Z</time>
      </trkpt>
      <trkpt lat="49.68837" lon="5.81892">
        <ele>407</ele>
        <time>2020-06-26T08:04:32Z</time>
      </trkpt>
      <trkpt lat="49.68835" lon="5.81898">
        <ele>407</ele>
        <time>2020-06-26T08:04:33Z</time>
      </trkpt>
      <trkpt lat="49.68834" lon="5.81905">
        <ele>407.1</ele>
        <time>2020-06-26T08:04:34Z</time>
      </trkpt>
      <trkpt lat="49.68834" lon="5.81912">
        <ele>407.3</ele>
        <time>2020-06-26T08:04:35Z</time>
      </trkpt>
      <trkpt lat="49.68833" lon="5.81918">
        <ele>407.4</ele>
        <time>2020-06-26T08:04:36Z</time>
      </trkpt>
      <trkpt lat="49.68833" lon="5.81924">
        <ele>407.8</ele>
        <time>2020-06-26T08:04:37Z</time>
      </trkpt>
      <trkpt lat="49.68833" lon="5.8193">
        <ele>407.9</ele>
        <time>2020-06-26T08:04:38Z</time>
      </trkpt>
      <trkpt lat="49.68833" lon="5.81936">
        <ele>408.1</ele>
        <time>2020-06-26T08:04:39Z</time>
      </trkpt>
      <trkpt lat="49.68832" lon="5.81941">
        <ele>408.2</ele>
        <time>2020-06-26T08:04:40Z</time>
      </trkpt>
      <trkpt lat="49.68832" lon="5.81946">
        <ele>408.4</ele>
        <time>2020-06-26T08:04:41Z</time>
      </trkpt>
      <trkpt lat="49.68831" lon="5.8195">
        <ele>408.5</ele>
        <time>2020-06-26T08:04:42Z</time>
      </trkpt>
      <trkpt lat="49.68829" lon="5.81954">
        <ele>408.6</ele>
        <time>2020-06-26T08:04:43Z</time>
      </trkpt>
      <trkpt lat="49.68828" lon="5.81958">
        <ele>408.7</ele>
        <time>2020-06-26T08:04:44Z</time>
      </trkpt>
      <trkpt lat="49.68825" lon="5.8196">
        <ele>408.8</ele>
        <time>2020-06-26T08:04:45Z</time>
      </trkpt>
      <trkpt lat="49.68822" lon="5.81963">
        <ele>409</ele>
        <time>2020-06-26T08:04:46Z</time>
      </trkpt>
      <trkpt lat="49.68818" lon="5.81966">
        <ele>409.1</ele>
        <time>2020-06-26T08:04:47Z</time>
      </trkpt>
      <trkpt lat="49.68814" lon="5.81969">
        <ele>409.3</ele>
        <time>2020-06-26T08:04:48Z</time>
      </trkpt>
      <trkpt lat="49.68811" lon="5.81973">
        <ele>409.6</ele>
        <time>2020-06-26T08:04:49Z</time>
      </trkpt>
      <trkpt lat="49.68807" lon="5.81976">
        <ele>409.7</ele>
        <time>2020-06-26T08:04:50Z</time>
      </trkpt>
      <trkpt lat="49.68804" lon="5.8198">
        <ele>409.9</ele>
        <time>2020-06-26T08:04:51Z</time>
      </trkpt>
      <trkpt lat="49.68801" lon="5.81985">
        <ele>410.1</ele>
        <time>2020-06-26T08:04:52Z</time>
      </trkpt>
      <trkpt lat="49.68799" lon="5.81989">
        <ele>410.3</ele>
        <time>2020-06-26T08:04:53Z</time>
      </trkpt>
      <trkpt lat="49.68796" lon="5.81992">
        <ele>410.4</ele>
        <time>2020-06-26T08:04:54Z</time>
      </trkpt>
      <trkpt lat="49.68794" lon="5.81997">
        <ele>410.6</ele>
        <time>2020-06-26T08:04:55Z</time>
      </trkpt>
      <trkpt lat="49.68791" lon="5.81999">
        <ele>410.8</ele>
        <time>2020-06-26T08:04:56Z</time>
      </trkpt>
      <trkpt lat="49.68789" lon="5.82004">
        <ele>411</ele>
        <time>2020-06-26T08:04:57Z</time>
      </trkpt>
      <trkpt lat="49.68787" lon="5.82008">
        <ele>411.1</ele>
        <time>2020-06-26T08:04:58Z</time>
      </trkpt>
      <trkpt lat="49.68784" lon="5.82011">
        <ele>411.3</ele>
        <time>2020-06-26T08:04:59Z</time>
      </trkpt>
      <trkpt lat="49.68781" lon="5.82015">
        <ele>411.4</ele>
        <time>2020-06-26T08:05:00Z</time>
      </trkpt>
      <trkpt lat="49.68778" lon="5.8202">
        <ele>411.6</ele>
        <time>2020-06-26T08:05:01Z</time>
      </trkpt>
      <trkpt lat="49.68776" lon="5.82023">
        <ele>411.7</ele>
        <time>2020-06-26T08:05:02Z</time>
      </trkpt>
      <trkpt lat="49.68774" lon="5.82027">
        <ele>411.8</ele>
        <time>2020-06-26T08:05:03Z</time>
      </trkpt>
      <trkpt lat="49.68772" lon="5.82031">
        <ele>412</ele>
        <time>2020-06-26T08:05:04Z</time>
      </trkpt>
      <trkpt lat="49.6877" lon="5.82035">
        <ele>412.1</ele>
        <time>2020-06-26T08:05:05Z</time>
      </trkpt>
      <trkpt lat="49.68768" lon="5.82038">
        <ele>412.2</ele>
        <time>2020-06-26T08:05:06Z</time>
      </trkpt>
      <trkpt lat="49.68765" lon="5.82042">
        <ele>412.4</ele>
        <time>2020-06-26T08:05:07Z</time>
      </trkpt>
      <trkpt lat="49.68763" lon="5.82049">
        <ele>412.6</ele>
        <time>2020-06-26T08:05:08Z</time>
      </trkpt>
      <trkpt lat="49.68762" lon="5.82055">
        <ele>412.7</ele>
        <time>2020-06-26T08:05:09Z</time>
      </trkpt>
      <trkpt lat="49.68759" lon="5.82059">
        <ele>412.9</ele>
        <time>2020-06-26T08:05:10Z</time>
      </trkpt>
      <trkpt lat="49.68758" lon="5.82062">
        <ele>413.1</ele>
        <time>2020-06-26T08:05:11Z</time>
      </trkpt>
      <trkpt lat="49.68756" lon="5.82065">
        <ele>413.2</ele>
        <time>2020-06-26T08:05:12Z</time>
      </trkpt>
      <trkpt lat="49.68753" lon="5.82069">
        <ele>413.4</ele>
        <time>2020-06-26T08:05:13Z</time>
      </trkpt>
      <trkpt lat="49.6875" lon="5.82074">
        <ele>413.5</ele>
        <time>2020-06-26T08:05:14Z</time>
      </trkpt>
      <trkpt lat="49.68747" lon="5.82077">
        <ele>413.6</ele>
        <time>2020-06-26T08:05:15Z</time>
      </trkpt>
      <trkpt lat="49.68744" lon="5.8208">
        <ele>413.7</ele>
        <time>2020-06-26T08:05:16Z</time>
      </trkpt>
      <trkpt lat="49.68742" lon="5.82084">
        <ele>413.8</ele>
        <time>2020-06-26T08:05:17Z</time>
      </trkpt>
      <trkpt lat="49.68739" lon="5.82088">
        <ele>414</ele>
        <time>2020-06-26T08:05:18Z</time>
      </trkpt>
      <trkpt lat="49.68736" lon="5.82091">
        <ele>414.1</ele>
        <time>2020-06-26T08:05:19Z</time>
      </trkpt>
      <trkpt lat="49.68734" lon="5.82095">
        <ele>414.2</ele>
        <time>2020-06-26T08:05:20Z</time>
      </trkpt>
      <trkpt lat="49.68731" lon="5.82099">
        <ele>414.3</ele>
        <time>2020-06-26T08:05:21Z</time>
      </trkpt>
      <trkpt lat="49.68729" lon="5.82104">
        <ele>414.4</ele>
        <time>2020-06-26T08:05:22Z</time>
      </trkpt>
      <trkpt lat="49.68726" lon="5.82108">
        <ele>414.5</ele>
        <time>2020-06-26T08:05:23Z</time>
      </trkpt>
      <trkpt lat="49.68723" lon="5.82112">
        <ele>414.6</ele>
        <time>2020-06-26T08:05:24Z</time>
      </trkpt>
      <trkpt lat="49.6872" lon="5.82115">
        <ele>414.7</ele>
        <time>2020-06-26T08:05:25Z</time>
      </trkpt>
      <trkpt lat="49.68717" lon="5.82117">
        <ele>414.7</ele>
        <time>2020-06-26T08:05:26Z</time>
      </trkpt>
      <trkpt lat="49.68714" lon="5.82121">
        <ele>414.8</ele>
        <time>2020-06-26T08:05:27Z</time>
      </trkpt>
      <trkpt lat="49.68711" lon="5.82125">
        <ele>414.9</ele>
        <time>2020-06-26T08:05:28Z</time>
      </trkpt>
      <trkpt lat="49.68709" lon="5.82128">
        <ele>415</ele>
        <time>2020-06-26T08:05:29Z</time>
      </trkpt>
      <trkpt lat="49.6871" lon="5.82135">
        <ele>415.1</ele>
        <time>2020-06-26T08:05:30Z</time>
      </trkpt>
      <trkpt lat="49.68707" lon="5.82139">
        <ele>415.2</ele>
        <time>2020-06-26T08:05:31Z</time>
      </trkpt>
      <trkpt lat="49.68705" lon="5.82143">
        <ele>415.3</ele>
        <time>2020-06-26T08:05:32Z</time>
      </trkpt>
      <trkpt lat="49.68702" lon="5.82151">
        <ele>415.4</ele>
        <time>2020-06-26T08:05:33Z</time>
      </trkpt>
      <trkpt lat="49.68698" lon="5.82157">
        <ele>415.4</ele>
        <time>2020-06-26T08:05:34Z</time>
      </trkpt>
      <trkpt lat="49.68693" lon="5.82161">
        <ele>415.5</ele>
        <time>2020-06-26T08:05:35Z</time>
      </trkpt>
      <trkpt lat="49.6869" lon="5.82166">
        <ele>415.6</ele>
        <time>2020-06-26T08:05:36Z</time>
      </trkpt>
      <trkpt lat="49.68689" lon="5.82172">
        <ele>415.7</ele>
        <time>2020-06-26T08:05:37Z</time>
      </trkpt>
      <trkpt lat="49.68686" lon="5.82177">
        <ele>415.7</ele>
        <time>2020-06-26T08:05:38Z</time>
      </trkpt>
      <trkpt lat="49.68683" lon="5.82182">
        <ele>415.8</ele>
        <time>2020-06-26T08:05:39Z</time>
      </trkpt>
      <trkpt lat="49.68679" lon="5.82184">
        <ele>415.8</ele>
        <time>2020-06-26T08:05:40Z</time>
      </trkpt>
      <trkpt lat="49.68676" lon="5.82188">
        <ele>415.9</ele>
        <time>2020-06-26T08:05:41Z</time>
      </trkpt>
      <trkpt lat="49.68673" lon="5.82192">
        <ele>415.9</ele>
        <time>2020-06-26T08:05:42Z</time>
      </trkpt>
      <trkpt lat="49.6867" lon="5.82196">
        <ele>416</ele>
        <time>2020-06-26T08:05:43Z</time>
      </trkpt>
      <trkpt lat="49.68666" lon="5.82201">
        <ele>416</ele>
        <time>2020-06-26T08:05:44Z</time>
      </trkpt>
      <trkpt lat="49.68663" lon="5.82207">
        <ele>416.1</ele>
        <time>2020-06-26T08:05:45Z</time>
      </trkpt>
      <trkpt lat="49.68661" lon="5.82213">
        <ele>416.1</ele>
        <time>2020-06-26T08:05:46Z</time>
      </trkpt>
      <trkpt lat="49.68657" lon="5.8222">
        <ele>416.2</ele>
        <time>2020-06-26T08:05:47Z</time>
      </trkpt>
      <trkpt lat="49.68654" lon="5.82226">
        <ele>416.2</ele>
        <time>2020-06-26T08:05:48Z</time>
      </trkpt>
      <trkpt lat="49.68651" lon="5.82231">
        <ele>416.2</ele>
        <time>2020-06-26T08:05:49Z</time>
      </trkpt>
      <trkpt lat="49.68648" lon="5.82236">
        <ele>416.3</ele>
        <time>2020-06-26T08:05:50Z</time>
      </trkpt>
      <trkpt lat="49.68645" lon="5.82242">
        <ele>416.3</ele>
        <time>2020-06-26T08:05:51Z</time>
      </trkpt>
      <trkpt lat="49.68642" lon="5.82247">
        <ele>416.4</ele>
        <time>2020-06-26T08:05:52Z</time>
      </trkpt>
      <trkpt lat="49.68638" lon="5.82251">
        <ele>416.4</ele>
        <time>2020-06-26T08:05:53Z</time>
      </trkpt>
      <trkpt lat="49.68635" lon="5.82255">
        <ele>416.4</ele>
        <time>2020-06-26T08:05:54Z</time>
      </trkpt>
      <trkpt lat="49.68631" lon="5.8226">
        <ele>416.4</ele>
        <time>2020-06-26T08:05:55Z</time>
      </trkpt>
      <trkpt lat="49.68628" lon="5.82264">
        <ele>416.4</ele>
        <time>2020-06-26T08:05:56Z</time>
      </trkpt>
      <trkpt lat="49.68625" lon="5.82268">
        <ele>416.4</ele>
        <time>2020-06-26T08:05:57Z</time>
      </trkpt>
      <trkpt lat="49.68622" lon="5.82272">
        <ele>416.4</ele>
        <time>2020-06-26T08:05:58Z</time>
      </trkpt>
      <trkpt lat="49.68619" lon="5.82277">
        <ele>416.4</ele>
        <time>2020-06-26T08:05:59Z</time>
      </trkpt>
      <trkpt lat="49.68616" lon="5.82283">
        <ele>416.4</ele>
        <time>2020-06-26T08:06:00Z</time>
      </trkpt>
      <trkpt lat="49.68612" lon="5.82288">
        <ele>416.4</ele>
        <time>2020-06-26T08:06:01Z</time>
      </trkpt>
      <trkpt lat="49.68609" lon="5.82294">
        <ele>416.3</ele>
        <time>2020-06-26T08:06:02Z</time>
      </trkpt>
      <trkpt lat="49.68604" lon="5.82299">
        <ele>416.3</ele>
        <time>2020-06-26T08:06:03Z</time>
      </trkpt>
      <trkpt lat="49.68601" lon="5.82304">
        <ele>416.3</ele>
        <time>2020-06-26T08:06:04Z</time>
      </trkpt>
      <trkpt lat="49.68598" lon="5.82308">
        <ele>416.2</ele>
        <time>2020-06-26T08:06:05Z</time>
      </trkpt>
      <trkpt lat="49.68595" lon="5.82312">
        <ele>416.2</ele>
        <time>2020-06-26T08:06:06Z</time>
      </trkpt>
      <trkpt lat="49.68591" lon="5.82316">
        <ele>416.1</ele>
        <time>2020-06-26T08:06:07Z</time>
      </trkpt>
      <trkpt lat="49.68588" lon="5.82321">
        <ele>416.1</ele>
        <time>2020-06-26T08:06:08Z</time>
      </trkpt>
      <trkpt lat="49.68585" lon="5.82324">
        <ele>416</ele>
        <time>2020-06-26T08:06:09Z</time>
      </trkpt>
      <trkpt lat="49.68581" lon="5.82328">
        <ele>416</ele>
        <time>2020-06-26T08:06:10Z</time>
      </trkpt>
      <trkpt lat="49.68577" lon="5.82332">
        <ele>416</ele>
        <time>2020-06-26T08:06:11Z</time>
      </trkpt>
      <trkpt lat="49.68573" lon="5.82335">
        <ele>415.9</ele>
        <time>2020-06-26T08:06:12Z</time>
      </trkpt>
      <trkpt lat="49.68569" lon="5.82338">
        <ele>415.9</ele>
        <time>2020-06-26T08:06:13Z</time>
      </trkpt>
      <trkpt lat="49.68566" lon="5.82342">
        <ele>415.8</ele>
        <time>2020-06-26T08:06:14Z</time>
      </trkpt>
      <trkpt lat="49.68562" lon="5.82347">
        <ele>415.8</ele>
        <time>2020-06-26T08:06:15Z</time>
      </trkpt>
      <trkpt lat="49.68558" lon="5.82353">
        <ele>415.7</ele>
        <time>2020-06-26T08:06:16Z</time>
      </trkpt>
      <trkpt lat="49.68554" lon="5.82358">
        <ele>415.6</ele>
        <time>2020-06-26T08:06:17Z</time>
      </trkpt>
      <trkpt lat="49.6855" lon="5.82363">
        <ele>415.6</ele>
        <time>2020-06-26T08:06:18Z</time>
      </trkpt>
      <trkpt lat="49.68547" lon="5.82366">
        <ele>415.5</ele>
        <time>2020-06-26T08:06:19Z</time>
      </trkpt>
      <trkpt lat="49.68542" lon="5.82365">
        <ele>415.5</ele>
        <time>2020-06-26T08:06:20Z</time>
      </trkpt>
      <trkpt lat="49.68538" lon="5.82368">
        <ele>415.4</ele>
        <time>2020-06-26T08:06:21Z</time>
      </trkpt>
      <trkpt lat="49.68534" lon="5.82371">
        <ele>415.3</ele>
        <time>2020-06-26T08:06:22Z</time>
      </trkpt>
      <trkpt lat="49.6853" lon="5.82375">
        <ele>415.2</ele>
        <time>2020-06-26T08:06:23Z</time>
      </trkpt>
      <trkpt lat="49.68526" lon="5.82379">
        <ele>415</ele>
        <time>2020-06-26T08:06:24Z</time>
      </trkpt>
      <trkpt lat="49.68521" lon="5.82383">
        <ele>414.8</ele>
        <time>2020-06-26T08:06:25Z</time>
      </trkpt>
      <trkpt lat="49.68517" lon="5.82388">
        <ele>414.7</ele>
        <time>2020-06-26T08:06:26Z</time>
      </trkpt>
      <trkpt lat="49.68512" lon="5.82391">
        <ele>414.6</ele>
        <time>2020-06-26T08:06:27Z</time>
      </trkpt>
      <trkpt lat="49.68508" lon="5.82393">
        <ele>414.5</ele>
        <time>2020-06-26T08:06:28Z</time>
      </trkpt>
      <trkpt lat="49.68503" lon="5.82395">
        <ele>414.4</ele>
        <time>2020-06-26T08:06:29Z</time>
      </trkpt>
      <trkpt lat="49.68499" lon="5.82396">
        <ele>414.2</ele>
        <time>2020-06-26T08:06:30Z</time>
      </trkpt>
      <trkpt lat="49.68495" lon="5.82398">
        <ele>414</ele>
        <time>2020-06-26T08:06:31Z</time>
      </trkpt>
      <trkpt lat="49.68489" lon="5.82399">
        <ele>413.7</ele>
        <time>2020-06-26T08:06:32Z</time>
      </trkpt>
      <trkpt lat="49.68484" lon="5.82401">
        <ele>413.4</ele>
        <time>2020-06-26T08:06:33Z</time>
      </trkpt>
      <trkpt lat="49.68478" lon="5.82404">
        <ele>413</ele>
        <time>2020-06-26T08:06:34Z</time>
      </trkpt>
      <trkpt lat="49.68472" lon="5.82406">
        <ele>412.7</ele>
        <time>2020-06-26T08:06:35Z</time>
      </trkpt>
      <trkpt lat="49.68466" lon="5.82405">
        <ele>412.2</ele>
        <time>2020-06-26T08:06:36Z</time>
      </trkpt>
      <trkpt lat="49.6846" lon="5.82405">
        <ele>411.8</ele>
        <time>2020-06-26T08:06:37Z</time>
      </trkpt>
      <trkpt lat="49.68454" lon="5.82407">
        <ele>411.4</ele>
        <time>2020-06-26T08:06:38Z</time>
      </trkpt>
      <trkpt lat="49.68448" lon="5.82408">
        <ele>411.2</ele>
        <time>2020-06-26T08:06:39Z</time>
      </trkpt>
      <trkpt lat="49.68441" lon="5.82409">
        <ele>411</ele>
        <time>2020-06-26T08:06:40Z</time>
      </trkpt>
      <trkpt lat="49.68434" lon="5.82409">
        <ele>410.7</ele>
        <time>2020-06-26T08:06:41Z</time>
      </trkpt>
      <trkpt lat="49.68427" lon="5.82411">
        <ele>410.5</ele>
        <time>2020-06-26T08:06:42Z</time>
      </trkpt>
      <trkpt lat="49.68419" lon="5.82411">
        <ele>410.1</ele>
        <time>2020-06-26T08:06:43Z</time>
      </trkpt>
      <trkpt lat="49.6841" lon="5.82411">
        <ele>409.7</ele>
        <time>2020-06-26T08:06:44Z</time>
      </trkpt>
      <trkpt lat="49.684" lon="5.8241">
        <ele>409.2</ele>
        <time>2020-06-26T08:06:45Z</time>
      </trkpt>
      <trkpt lat="49.68391" lon="5.8241">
        <ele>408.8</ele>
        <time>2020-06-26T08:06:46Z</time>
      </trkpt>
      <trkpt lat="49.68382" lon="5.82409">
        <ele>408.3</ele>
        <time>2020-06-26T08:06:47Z</time>
      </trkpt>
      <trkpt lat="49.68374" lon="5.82408">
        <ele>408.1</ele>
        <time>2020-06-26T08:06:48Z</time>
      </trkpt>
      <trkpt lat="49.68367" lon="5.82408">
        <ele>408</ele>
        <time>2020-06-26T08:06:49Z</time>
      </trkpt>
      <trkpt lat="49.6836" lon="5.82409">
        <ele>407.8</ele>
        <time>2020-06-26T08:06:50Z</time>
      </trkpt>
      <trkpt lat="49.68353" lon="5.8241">
        <ele>407.6</ele>
        <time>2020-06-26T08:06:51Z</time>
      </trkpt>
      <trkpt lat="49.68345" lon="5.82411">
        <ele>407.4</ele>
        <time>2020-06-26T08:06:52Z</time>
      </trkpt>
      <trkpt lat="49.68337" lon="5.8241">
        <ele>407.2</ele>
        <time>2020-06-26T08:06:53Z</time>
      </trkpt>
      <trkpt lat="49.68328" lon="5.8241">
        <ele>407.2</ele>
        <time>2020-06-26T08:06:54Z</time>
      </trkpt>
      <trkpt lat="49.6832" lon="5.8241">
        <ele>407.1</ele>
        <time>2020-06-26T08:06:55Z</time>
      </trkpt>
      <trkpt lat="49.68313" lon="5.82411">
        <ele>407.1</ele>
        <time>2020-06-26T08:06:56Z</time>
      </trkpt>
      <trkpt lat="49.68305" lon="5.82411">
        <ele>407.1</ele>
        <time>2020-06-26T08:06:57Z</time>
      </trkpt>
      <trkpt lat="49.68298" lon="5.82411">
        <ele>407.1</ele>
        <time>2020-06-26T08:06:58Z</time>
      </trkpt>
      <trkpt lat="49.68292" lon="5.82411">
        <ele>407</ele>
        <time>2020-06-26T08:06:59Z</time>
      </trkpt>
      <trkpt lat="49.68285" lon="5.8241">
        <ele>407</ele>
        <time>2020-06-26T08:07:00Z</time>
      </trkpt>
      <trkpt lat="49.68279" lon="5.8241">
        <ele>407.1</ele>
        <time>2020-06-26T08:07:01Z</time>
      </trkpt>
      <trkpt lat="49.68274" lon="5.8241">
        <ele>407.1</ele>
        <time>2020-06-26T08:07:02Z</time>
      </trkpt>
      <trkpt lat="49.68269" lon="5.8241">
        <ele>407.2</ele>
        <time>2020-06-26T08:07:03Z</time>
      </trkpt>
      <trkpt lat="49.68264" lon="5.82409">
        <ele>407.2</ele>
        <time>2020-06-26T08:07:04Z</time>
      </trkpt>
      <trkpt lat="49.68259" lon="5.82411">
        <ele>407.3</ele>
        <time>2020-06-26T08:07:05Z</time>
      </trkpt>
      <trkpt lat="49.68254" lon="5.82411">
        <ele>407.3</ele>
        <time>2020-06-26T08:07:06Z</time>
      </trkpt>
      <trkpt lat="49.68251" lon="5.82419">
        <ele>407.3</ele>
        <time>2020-06-26T08:07:07Z</time>
      </trkpt>
      <trkpt lat="49.68246" lon="5.8242">
        <ele>407.2</ele>
        <time>2020-06-26T08:07:08Z</time>
      </trkpt>
      <trkpt lat="49.68242" lon="5.82421">
        <ele>407.1</ele>
        <time>2020-06-26T08:07:09Z</time>
      </trkpt>
      <trkpt lat="49.68237" lon="5.82421">
        <ele>407.1</ele>
        <time>2020-06-26T08:07:10Z</time>
      </trkpt>
      <trkpt lat="49.68233" lon="5.82421">
        <ele>407</ele>
        <time>2020-06-26T08:07:11Z</time>
      </trkpt>
      <trkpt lat="49.68229" lon="5.8242">
        <ele>407</ele>
        <time>2020-06-26T08:07:12Z</time>
      </trkpt>
      <trkpt lat="49.68224" lon="5.8242">
        <ele>406.9</ele>
        <time>2020-06-26T08:07:13Z</time>
      </trkpt>
      <trkpt lat="49.6822" lon="5.82421">
        <ele>406.9</ele>
        <time>2020-06-26T08:07:14Z</time>
      </trkpt>
      <trkpt lat="49.68215" lon="5.82421">
        <ele>406.9</ele>
        <time>2020-06-26T08:07:15Z</time>
      </trkpt>
      <trkpt lat="49.6821" lon="5.82421">
        <ele>406.9</ele>
        <time>2020-06-26T08:07:16Z</time>
      </trkpt>
      <trkpt lat="49.68205" lon="5.8242">
        <ele>407</ele>
        <time>2020-06-26T08:07:17Z</time>
      </trkpt>
      <trkpt lat="49.682" lon="5.8242">
        <ele>407.1</ele>
        <time>2020-06-26T08:07:18Z</time>
      </trkpt>
      <trkpt lat="49.68194" lon="5.8242">
        <ele>407.2</ele>
        <time>2020-06-26T08:07:19Z</time>
      </trkpt>
      <trkpt lat="49.68189" lon="5.8242">
        <ele>407.3</ele>
        <time>2020-06-26T08:07:20Z</time>
      </trkpt>
      <trkpt lat="49.68184" lon="5.82421">
        <ele>407.4</ele>
        <time>2020-06-26T08:07:21Z</time>
      </trkpt>
      <trkpt lat="49.68179" lon="5.8242">
        <ele>407.5</ele>
        <time>2020-06-26T08:07:22Z</time>
      </trkpt>
      <trkpt lat="49.68174" lon="5.8242">
        <ele>407.5</ele>
        <time>2020-06-26T08:07:23Z</time>
      </trkpt>
      <trkpt lat="49.68169" lon="5.8242">
        <ele>407.4</ele>
        <time>2020-06-26T08:07:24Z</time>
      </trkpt>
      <trkpt lat="49.68164" lon="5.82419">
        <ele>407.4</ele>
        <time>2020-06-26T08:07:25Z</time>
      </trkpt>
      <trkpt lat="49.68159" lon="5.82418">
        <ele>407.4</ele>
        <time>2020-06-26T08:07:26Z</time>
      </trkpt>
      <trkpt lat="49.68155" lon="5.82417">
        <ele>407.4</ele>
        <time>2020-06-26T08:07:27Z</time>
      </trkpt>
      <trkpt lat="49.6815" lon="5.82416">
        <ele>407.5</ele>
        <time>2020-06-26T08:07:28Z</time>
      </trkpt>
      <trkpt lat="49.68145" lon="5.82415">
        <ele>407.5</ele>
        <time>2020-06-26T08:07:29Z</time>
      </trkpt>
      <trkpt lat="49.6814" lon="5.82415">
        <ele>407.5</ele>
        <time>2020-06-26T08:07:30Z</time>
      </trkpt>
      <trkpt lat="49.68135" lon="5.82419">
        <ele>407.5</ele>
        <time>2020-06-26T08:07:31Z</time>
      </trkpt>
      <trkpt lat="49.6813" lon="5.82419">
        <ele>407.6</ele>
        <time>2020-06-26T08:07:32Z</time>
      </trkpt>
      <trkpt lat="49.68125" lon="5.82419">
        <ele>407.6</ele>
        <time>2020-06-26T08:07:33Z</time>
      </trkpt>
      <trkpt lat="49.6812" lon="5.8242">
        <ele>407.6</ele>
        <time>2020-06-26T08:07:34Z</time>
      </trkpt>
      <trkpt lat="49.68116" lon="5.8242">
        <ele>407.6</ele>
        <time>2020-06-26T08:07:35Z</time>
      </trkpt>
      <trkpt lat="49.68112" lon="5.82419">
        <ele>407.6</ele>
        <time>2020-06-26T08:07:36Z</time>
      </trkpt>
      <trkpt lat="49.68107" lon="5.82418">
        <ele>407.7</ele>
        <time>2020-06-26T08:07:37Z</time>
      </trkpt>
      <trkpt lat="49.68102" lon="5.82418">
        <ele>407.7</ele>
        <time>2020-06-26T08:07:38Z</time>
      </trkpt>
      <trkpt lat="49.68097" lon="5.82418">
        <ele>407.7</ele>
        <time>2020-06-26T08:07:39Z</time>
      </trkpt>
      <trkpt lat="49.68093" lon="5.82417">
        <ele>407.7</ele>
        <time>2020-06-26T08:07:40Z</time>
      </trkpt>
      <trkpt lat="49.68088" lon="5.82418">
        <ele>407.7</ele>
        <time>2020-06-26T08:07:41Z</time>
      </trkpt>
      <trkpt lat="49.68083" lon="5.82417">
        <ele>407.7</ele>
        <time>2020-06-26T08:07:42Z</time>
      </trkpt>
      <trkpt lat="49.68078" lon="5.82417">
        <ele>407.7</ele>
        <time>2020-06-26T08:07:43Z</time>
      </trkpt>
      <trkpt lat="49.68074" lon="5.82417">
        <ele>407.7</ele>
        <time>2020-06-26T08:07:44Z</time>
      </trkpt>
      <trkpt lat="49.6807" lon="5.82417">
        <ele>407.7</ele>
        <time>2020-06-26T08:07:45Z</time>
      </trkpt>
      <trkpt lat="49.68065" lon="5.82417">
        <ele>407.7</ele>
        <time>2020-06-26T08:07:46Z</time>
      </trkpt>
      <trkpt lat="49.68061" lon="5.82416">
        <ele>407.7</ele>
        <time>2020-06-26T08:07:47Z</time>
      </trkpt>
      <trkpt lat="49.68056" lon="5.82416">
        <ele>407.6</ele>
        <time>2020-06-26T08:07:48Z</time>
      </trkpt>
      <trkpt lat="49.68051" lon="5.82416">
        <ele>407.6</ele>
        <time>2020-06-26T08:07:49Z</time>
      </trkpt>
      <trkpt lat="49.68046" lon="5.82416">
        <ele>407.6</ele>
        <time>2020-06-26T08:07:50Z</time>
      </trkpt>
      <trkpt lat="49.68041" lon="5.82415">
        <ele>407.6</ele>
        <time>2020-06-26T08:07:51Z</time>
      </trkpt>
      <trkpt lat="49.68037" lon="5.82415">
        <ele>407.5</ele>
        <time>2020-06-26T08:07:52Z</time>
      </trkpt>
      <trkpt lat="49.68032" lon="5.82415">
        <ele>407.5</ele>
        <time>2020-06-26T08:07:53Z</time>
      </trkpt>
      <trkpt lat="49.68027" lon="5.82417">
        <ele>407.5</ele>
        <time>2020-06-26T08:07:54Z</time>
      </trkpt>
      <trkpt lat="49.68022" lon="5.82417">
        <ele>407.5</ele>
        <time>2020-06-26T08:07:55Z</time>
      </trkpt>
      <trkpt lat="49.68017" lon="5.82418">
        <ele>407.5</ele>
        <time>2020-06-26T08:07:56Z</time>
      </trkpt>
      <trkpt lat="49.68013" lon="5.82417">
        <ele>407.5</ele>
        <time>2020-06-26T08:07:57Z</time>
      </trkpt>
      <trkpt lat="49.68009" lon="5.82417">
        <ele>407.5</ele>
        <time>2020-06-26T08:07:58Z</time>
      </trkpt>
      <trkpt lat="49.68005" lon="5.82417">
        <ele>407.4</ele>
        <time>2020-06-26T08:07:59Z</time>
      </trkpt>
      <trkpt lat="49.68" lon="5.82417">
        <ele>407.4</ele>
        <time>2020-06-26T08:08:00Z</time>
      </trkpt>
      <trkpt lat="49.67995" lon="5.82417">
        <ele>407.4</ele>
        <time>2020-06-26T08:08:01Z</time>
      </trkpt>
      <trkpt lat="49.6799" lon="5.82417">
        <ele>407.4</ele>
        <time>2020-06-26T08:08:02Z</time>
      </trkpt>
      <trkpt lat="49.67986" lon="5.82418">
        <ele>407.4</ele>
        <time>2020-06-26T08:08:03Z</time>
      </trkpt>
      <trkpt lat="49.67981" lon="5.82418">
        <ele>407.4</ele>
        <time>2020-06-26T08:08:04Z</time>
      </trkpt>
      <trkpt lat="49.67976" lon="5.82418">
        <ele>407.4</ele>
        <time>2020-06-26T08:08:05Z</time>
      </trkpt>
      <trkpt lat="49.67971" lon="5.82419">
        <ele>407.4</ele>
        <time>2020-06-26T08:08:06Z</time>
      </trkpt>
      <trkpt lat="49.67967" lon="5.82418">
        <ele>407.4</ele>
        <time>2020-06-26T08:08:07Z</time>
      </trkpt>
      <trkpt lat="49.67962" lon="5.82418">
        <ele>407.4</ele>
        <time>2020-06-26T08:08:08Z</time>
      </trkpt>
      <trkpt lat="49.67957" lon="5.82418">
        <ele>407.4</ele>
        <time>2020-06-26T08:08:09Z</time>
      </trkpt>
      <trkpt lat="49.67952" lon="5.82418">
        <ele>407.3</ele>
        <time>2020-06-26T08:08:10Z</time>
      </trkpt>
      <trkpt lat="49.67947" lon="5.82419">
        <ele>407.2</ele>
        <time>2020-06-26T08:08:11Z</time>
      </trkpt>
      <trkpt lat="49.67942" lon="5.82419">
        <ele>407.2</ele>
        <time>2020-06-26T08:08:12Z</time>
      </trkpt>
      <trkpt lat="49.67937" lon="5.82418">
        <ele>407.1</ele>
        <time>2020-06-26T08:08:13Z</time>
      </trkpt>
      <trkpt lat="49.67932" lon="5.82418">
        <ele>407</ele>
        <time>2020-06-26T08:08:14Z</time>
      </trkpt>
      <trkpt lat="49.67927" lon="5.82418">
        <ele>406.9</ele>
        <time>2020-06-26T08:08:15Z</time>
      </trkpt>
      <trkpt lat="49.67922" lon="5.82416">
        <ele>406.8</ele>
        <time>2020-06-26T08:08:16Z</time>
      </trkpt>
      <trkpt lat="49.67916" lon="5.82418">
        <ele>406.7</ele>
        <time>2020-06-26T08:08:17Z</time>
      </trkpt>
      <trkpt lat="49.67911" lon="5.82418">
        <ele>406.6</ele>
        <time>2020-06-26T08:08:18Z</time>
      </trkpt>
      <trkpt lat="49.67906" lon="5.82418">
        <ele>406.5</ele>
        <time>2020-06-26T08:08:19Z</time>
      </trkpt>
      <trkpt lat="49.679" lon="5.82417">
        <ele>406.4</ele>
        <time>2020-06-26T08:08:20Z</time>
      </trkpt>
      <trkpt lat="49.67894" lon="5.82417">
        <ele>406.3</ele>
        <time>2020-06-26T08:08:21Z</time>
      </trkpt>
      <trkpt lat="49.67888" lon="5.82417">
        <ele>406.2</ele>
        <time>2020-06-26T08:08:22Z</time>
      </trkpt>
      <trkpt lat="49.67883" lon="5.82419">
        <ele>406.2</ele>
        <time>2020-06-26T08:08:23Z</time>
      </trkpt>
      <trkpt lat="49.67877" lon="5.82419">
        <ele>406.2</ele>
        <time>2020-06-26T08:08:24Z</time>
      </trkpt>
      <trkpt lat="49.67871" lon="5.82418">
        <ele>406.1</ele>
        <time>2020-06-26T08:08:25Z</time>
      </trkpt>
      <trkpt lat="49.67866" lon="5.82418">
        <ele>405.9</ele>
        <time>2020-06-26T08:08:26Z</time>
      </trkpt>
      <trkpt lat="49.6786" lon="5.82417">
        <ele>405.8</ele>
        <time>2020-06-26T08:08:27Z</time>
      </trkpt>
      <trkpt lat="49.67855" lon="5.82417">
        <ele>405.7</ele>
        <time>2020-06-26T08:08:28Z</time>
      </trkpt>
      <trkpt lat="49.67849" lon="5.82417">
        <ele>405.5</ele>
        <time>2020-06-26T08:08:29Z</time>
      </trkpt>
      <trkpt lat="49.67843" lon="5.82416">
        <ele>405.4</ele>
        <time>2020-06-26T08:08:30Z</time>
      </trkpt>
      <trkpt lat="49.67838" lon="5.82415">
        <ele>405.3</ele>
        <time>2020-06-26T08:08:31Z</time>
      </trkpt>
      <trkpt lat="49.67832" lon="5.82417">
        <ele>405.2</ele>
        <time>2020-06-26T08:08:32Z</time>
      </trkpt>
      <trkpt lat="49.67826" lon="5.82417">
        <ele>405.1</ele>
        <time>2020-06-26T08:08:33Z</time>
      </trkpt>
      <trkpt lat="49.67821" lon="5.82417">
        <ele>405</ele>
        <time>2020-06-26T08:08:34Z</time>
      </trkpt>
      <trkpt lat="49.67815" lon="5.82417">
        <ele>404.9</ele>
        <time>2020-06-26T08:08:35Z</time>
      </trkpt>
      <trkpt lat="49.67809" lon="5.82417">
        <ele>404.8</ele>
        <time>2020-06-26T08:08:36Z</time>
      </trkpt>
      <trkpt lat="49.67804" lon="5.82417">
        <ele>404.7</ele>
        <time>2020-06-26T08:08:37Z</time>
      </trkpt>
      <trkpt lat="49.67799" lon="5.82416">
        <ele>404.6</ele>
        <time>2020-06-26T08:08:38Z</time>
      </trkpt>
      <trkpt lat="49.67794" lon="5.82417">
        <ele>404.5</ele>
        <time>2020-06-26T08:08:39Z</time>
      </trkpt>
      <trkpt lat="49.6779" lon="5.82416">
        <ele>404.5</ele>
        <time>2020-06-26T08:08:40Z</time>
      </trkpt>
      <trkpt lat="49.67785" lon="5.82416">
        <ele>404.4</ele>
        <time>2020-06-26T08:08:41Z</time>
      </trkpt>
      <trkpt lat="49.67782" lon="5.82416">
        <ele>404.4</ele>
        <time>2020-06-26T08:08:42Z</time>
      </trkpt>
      <trkpt lat="49.67779" lon="5.82416">
        <ele>404.4</ele>
        <time>2020-06-26T08:08:43Z</time>
      </trkpt>
      <trkpt lat="49.67776" lon="5.82417">
        <ele>404.3</ele>
        <time>2020-06-26T08:08:44Z</time>
      </trkpt>
      <trkpt lat="49.67775" lon="5.82417">
        <ele>404.3</ele>
        <time>2020-06-26T08:08:45Z</time>
      </trkpt>
      <trkpt lat="49.67774" lon="5.82417">
        <ele>404.3</ele>
        <time>2020-06-26T08:08:46Z</time>
      </trkpt>
      <trkpt lat="49.67773" lon="5.82417">
        <ele>404.3</ele>
        <time>2020-06-26T08:08:47Z</time>
      </trkpt>
      <trkpt lat="49.67773" lon="5.82417">
        <ele>404.3</ele>
        <time>2020-06-26T08:08:48Z</time>
      </trkpt>
      <trkpt lat="49.67774" lon="5.82417">
        <ele>404.3</ele>
        <time>2020-06-26T08:08:49Z</time>
      </trkpt>
      <trkpt lat="49.67773" lon="5.82417">
        <ele>404.3</ele>
        <time>2020-06-26T08:08:50Z</time>
      </trkpt>
      <trkpt lat="49.67773" lon="5.82417">
        <ele>404.3</ele>
        <time>2020-06-26T08:08:51Z</time>
      </trkpt>
      <trkpt lat="49.67773" lon="5.82417">
        <ele>404.3</ele>
        <time>2020-06-26T08:08:52Z</time>
      </trkpt>
      <trkpt lat="49.67772" lon="5.82417">
        <ele>404.3</ele>
        <time>2020-06-26T08:08:53Z</time>
      </trkpt>
      <trkpt lat="49.67772" lon="5.82416">
        <ele>404.3</ele>
        <time>2020-06-26T08:08:54Z</time>
      </trkpt>
      <trkpt lat="49.67772" lon="5.82416">
        <ele>404.3</ele>
        <time>2020-06-26T08:08:55Z</time>
      </trkpt>
      <trkpt lat="49.67771" lon="5.82417">
        <ele>404.2</ele>
        <time>2020-06-26T08:08:56Z</time>
      </trkpt>
      <trkpt lat="49.67768" lon="5.82417">
        <ele>404.2</ele>
        <time>2020-06-26T08:08:57Z</time>
      </trkpt>
      <trkpt lat="49.67767" lon="5.82417">
        <ele>404.2</ele>
        <time>2020-06-26T08:08:58Z</time>
      </trkpt>
      <trkpt lat="49.67763" lon="5.82417">
        <ele>404.1</ele>
        <time>2020-06-26T08:08:59Z</time>
      </trkpt>
      <trkpt lat="49.67762" lon="5.82418">
        <ele>404.1</ele>
        <time>2020-06-26T08:09:00Z</time>
      </trkpt>
      <trkpt lat="49.67758" lon="5.82417">
        <ele>404</ele>
        <time>2020-06-26T08:09:01Z</time>
      </trkpt>
      <trkpt lat="49.67756" lon="5.82416">
        <ele>404</ele>
        <time>2020-06-26T08:09:02Z</time>
      </trkpt>
      <trkpt lat="49.67753" lon="5.82417">
        <ele>404</ele>
        <time>2020-06-26T08:09:03Z</time>
      </trkpt>
      <trkpt lat="49.67748" lon="5.82418">
        <ele>403.9</ele>
        <time>2020-06-26T08:09:04Z</time>
      </trkpt>
      <trkpt lat="49.67744" lon="5.82417">
        <ele>403.8</ele>
        <time>2020-06-26T08:09:05Z</time>
      </trkpt>
      <trkpt lat="49.67741" lon="5.82417">
        <ele>403.8</ele>
        <time>2020-06-26T08:09:06Z</time>
      </trkpt>
      <trkpt lat="49.67738" lon="5.82418">
        <ele>403.7</ele>
        <time>2020-06-26T08:09:07Z</time>
      </trkpt>
      <trkpt lat="49.67733" lon="5.82416">
        <ele>403.6</ele>
        <time>2020-06-26T08:09:08Z</time>
      </trkpt>
      <trkpt lat="49.67729" lon="5.82415">
        <ele>403.6</ele>
        <time>2020-06-26T08:09:09Z</time>
      </trkpt>
      <trkpt lat="49.67724" lon="5.82414">
        <ele>403.5</ele>
        <time>2020-06-26T08:09:10Z</time>
      </trkpt>
      <trkpt lat="49.67718" lon="5.82412">
        <ele>403.4</ele>
        <time>2020-06-26T08:09:11Z</time>
      </trkpt>
      <trkpt lat="49.67713" lon="5.82411">
        <ele>403.3</ele>
        <time>2020-06-26T08:09:12Z</time>
      </trkpt>
      <trkpt lat="49.67707" lon="5.82416">
        <ele>403.2</ele>
        <time>2020-06-26T08:09:13Z</time>
      </trkpt>
      <trkpt lat="49.67702" lon="5.82416">
        <ele>403.1</ele>
        <time>2020-06-26T08:09:14Z</time>
      </trkpt>
      <trkpt lat="49.67697" lon="5.82416">
        <ele>402.9</ele>
        <time>2020-06-26T08:09:15Z</time>
      </trkpt>
      <trkpt lat="49.67691" lon="5.82416">
        <ele>402.8</ele>
        <time>2020-06-26T08:09:16Z</time>
      </trkpt>
      <trkpt lat="49.67685" lon="5.82416">
        <ele>402.6</ele>
        <time>2020-06-26T08:09:17Z</time>
      </trkpt>
      <trkpt lat="49.6768" lon="5.82416">
        <ele>402.5</ele>
        <time>2020-06-26T08:09:18Z</time>
      </trkpt>
      <trkpt lat="49.67675" lon="5.82416">
        <ele>402.4</ele>
        <time>2020-06-26T08:09:19Z</time>
      </trkpt>
      <trkpt lat="49.6767" lon="5.82416">
        <ele>402.2</ele>
        <time>2020-06-26T08:09:20Z</time>
      </trkpt>
      <trkpt lat="49.67665" lon="5.82416">
        <ele>402.1</ele>
        <time>2020-06-26T08:09:21Z</time>
      </trkpt>
      <trkpt lat="49.6766" lon="5.82416">
        <ele>402</ele>
        <time>2020-06-26T08:09:22Z</time>
      </trkpt>
      <trkpt lat="49.67655" lon="5.82415">
        <ele>401.9</ele>
        <time>2020-06-26T08:09:23Z</time>
      </trkpt>
      <trkpt lat="49.6765" lon="5.82415">
        <ele>401.8</ele>
        <time>2020-06-26T08:09:24Z</time>
      </trkpt>
      <trkpt lat="49.67645" lon="5.82416">
        <ele>401.7</ele>
        <time>2020-06-26T08:09:25Z</time>
      </trkpt>
      <trkpt lat="49.67639" lon="5.82416">
        <ele>401.6</ele>
        <time>2020-06-26T08:09:26Z</time>
      </trkpt>
      <trkpt lat="49.67635" lon="5.82416">
        <ele>401.5</ele>
        <time>2020-06-26T08:09:27Z</time>
      </trkpt>
      <trkpt lat="49.6763" lon="5.82416">
        <ele>401.4</ele>
        <time>2020-06-26T08:09:28Z</time>
      </trkpt>
      <trkpt lat="49.67625" lon="5.82416">
        <ele>401.3</ele>
        <time>2020-06-26T08:09:29Z</time>
      </trkpt>
      <trkpt lat="49.67621" lon="5.82416">
        <ele>401.1</ele>
        <time>2020-06-26T08:09:30Z</time>
      </trkpt>
      <trkpt lat="49.67616" lon="5.82416">
        <ele>401</ele>
        <time>2020-06-26T08:09:31Z</time>
      </trkpt>
      <trkpt lat="49.67611" lon="5.82416">
        <ele>400.9</ele>
        <time>2020-06-26T08:09:32Z</time>
      </trkpt>
      <trkpt lat="49.67607" lon="5.82416">
        <ele>400.8</ele>
        <time>2020-06-26T08:09:33Z</time>
      </trkpt>
      <trkpt lat="49.67603" lon="5.82416">
        <ele>400.7</ele>
        <time>2020-06-26T08:09:34Z</time>
      </trkpt>
      <trkpt lat="49.67599" lon="5.82416">
        <ele>400.6</ele>
        <time>2020-06-26T08:09:35Z</time>
      </trkpt>
      <trkpt lat="49.67595" lon="5.82416">
        <ele>400.6</ele>
        <time>2020-06-26T08:09:36Z</time>
      </trkpt>
      <trkpt lat="49.67591" lon="5.82416">
        <ele>400.5</ele>
        <time>2020-06-26T08:09:37Z</time>
      </trkpt>
      <trkpt lat="49.67587" lon="5.82415">
        <ele>400.4</ele>
        <time>2020-06-26T08:09:38Z</time>
      </trkpt>
      <trkpt lat="49.67583" lon="5.82415">
        <ele>400.4</ele>
        <time>2020-06-26T08:09:39Z</time>
      </trkpt>
      <trkpt lat="49.6758" lon="5.82414">
        <ele>400.4</ele>
        <time>2020-06-26T08:09:40Z</time>
      </trkpt>
      <trkpt lat="49.67576" lon="5.82415">
        <ele>400.4</ele>
        <time>2020-06-26T08:09:41Z</time>
      </trkpt>
      <trkpt lat="49.67575" lon="5.82415">
        <ele>400.4</ele>
        <time>2020-06-26T08:09:42Z</time>
      </trkpt>
      <trkpt lat="49.67572" lon="5.82415">
        <ele>400.4</ele>
        <time>2020-06-26T08:09:43Z</time>
      </trkpt>
      <trkpt lat="49.67571" lon="5.82416">
        <ele>400.4</ele>
        <time>2020-06-26T08:09:44Z</time>
      </trkpt>
      <trkpt lat="49.67569" lon="5.82416">
        <ele>400.4</ele>
        <time>2020-06-26T08:09:45Z</time>
      </trkpt>
      <trkpt lat="49.67567" lon="5.82415">
        <ele>400.4</ele>
        <time>2020-06-26T08:09:46Z</time>
      </trkpt>
      <trkpt lat="49.67564" lon="5.82414">
        <ele>400.4</ele>
        <time>2020-06-26T08:09:47Z</time>
      </trkpt>
      <trkpt lat="49.67563" lon="5.82414">
        <ele>400.4</ele>
        <time>2020-06-26T08:09:48Z</time>
      </trkpt>
      <trkpt lat="49.67561" lon="5.82413">
        <ele>400.3</ele>
        <time>2020-06-26T08:09:49Z</time>
      </trkpt>
      <trkpt lat="49.6756" lon="5.82412">
        <ele>400.3</ele>
        <time>2020-06-26T08:09:50Z</time>
      </trkpt>
      <trkpt lat="49.67557" lon="5.82412">
        <ele>400.3</ele>
        <time>2020-06-26T08:09:51Z</time>
      </trkpt>
      <trkpt lat="49.67553" lon="5.82412">
        <ele>400.2</ele>
        <time>2020-06-26T08:09:52Z</time>
      </trkpt>
      <trkpt lat="49.67549" lon="5.8241">
        <ele>400.2</ele>
        <time>2020-06-26T08:09:53Z</time>
      </trkpt>
      <trkpt lat="49.67545" lon="5.8241">
        <ele>400.1</ele>
        <time>2020-06-26T08:09:54Z</time>
      </trkpt>
      <trkpt lat="49.6754" lon="5.82411">
        <ele>400.1</ele>
        <time>2020-06-26T08:09:55Z</time>
      </trkpt>
      <trkpt lat="49.67536" lon="5.82412">
        <ele>400</ele>
        <time>2020-06-26T08:09:56Z</time>
      </trkpt>
      <trkpt lat="49.67532" lon="5.82413">
        <ele>400</ele>
        <time>2020-06-26T08:09:57Z</time>
      </trkpt>
      <trkpt lat="49.67528" lon="5.82412">
        <ele>399.9</ele>
        <time>2020-06-26T08:09:58Z</time>
      </trkpt>
      <trkpt lat="49.67524" lon="5.82412">
        <ele>399.9</ele>
        <time>2020-06-26T08:09:59Z</time>
      </trkpt>
      <trkpt lat="49.6752" lon="5.82411">
        <ele>399.8</ele>
        <time>2020-06-26T08:10:00Z</time>
      </trkpt>
      <trkpt lat="49.67517" lon="5.82413">
        <ele>399.7</ele>
        <time>2020-06-26T08:10:01Z</time>
      </trkpt>
      <trkpt lat="49.67515" lon="5.82411">
        <ele>399.6</ele>
        <time>2020-06-26T08:10:02Z</time>
      </trkpt>
      <trkpt lat="49.67513" lon="5.82411">
        <ele>399.6</ele>
        <time>2020-06-26T08:10:03Z</time>
      </trkpt>
      <trkpt lat="49.67513" lon="5.82412">
        <ele>399.5</ele>
        <time>2020-06-26T08:10:04Z</time>
      </trkpt>
      <trkpt lat="49.67513" lon="5.82412">
        <ele>399.5</ele>
        <time>2020-06-26T08:10:05Z</time>
      </trkpt>
      <trkpt lat="49.67513" lon="5.82411">
        <ele>399.5</ele>
        <time>2020-06-26T08:10:06Z</time>
      </trkpt>
      <trkpt lat="49.67512" lon="5.8241">
        <ele>399.5</ele>
        <time>2020-06-26T08:10:07Z</time>
      </trkpt>
      <trkpt lat="49.67512" lon="5.82409">
        <ele>399.5</ele>
        <time>2020-06-26T08:10:08Z</time>
      </trkpt>
      <trkpt lat="49.67512" lon="5.82409">
        <ele>399.5</ele>
        <time>2020-06-26T08:10:09Z</time>
      </trkpt>
      <trkpt lat="49.67511" lon="5.82408">
        <ele>399.5</ele>
        <time>2020-06-26T08:10:10Z</time>
      </trkpt>
      <trkpt lat="49.67511" lon="5.82407">
        <ele>399.4</ele>
        <time>2020-06-26T08:10:11Z</time>
      </trkpt>
      <trkpt lat="49.67511" lon="5.82408">
        <ele>399.4</ele>
        <time>2020-06-26T08:10:12Z</time>
      </trkpt>
      <trkpt lat="49.67511" lon="5.82409">
        <ele>399.4</ele>
        <time>2020-06-26T08:10:13Z</time>
      </trkpt>
      <trkpt lat="49.6751" lon="5.8241">
        <ele>399.4</ele>
        <time>2020-06-26T08:10:14Z</time>
      </trkpt>
      <trkpt lat="49.67504" lon="5.82412">
        <ele>399.2</ele>
        <time>2020-06-26T08:10:29Z</time>
      </trkpt>
      <trkpt lat="49.67503" lon="5.82411">
        <ele>399.2</ele>
        <time>2020-06-26T08:10:30Z</time>
      </trkpt>
      <trkpt lat="49.67502" lon="5.8241">
        <ele>399.2</ele>
        <time>2020-06-26T08:10:31Z</time>
      </trkpt>
      <trkpt lat="49.67501" lon="5.8241">
        <ele>399.2</ele>
        <time>2020-06-26T08:10:32Z</time>
      </trkpt>
      <trkpt lat="49.675" lon="5.82409">
        <ele>399.1</ele>
        <time>2020-06-26T08:10:33Z</time>
      </trkpt>
      <trkpt lat="49.675" lon="5.82409">
        <ele>399.1</ele>
        <time>2020-06-26T08:10:34Z</time>
      </trkpt>
      <trkpt lat="49.67499" lon="5.82409">
        <ele>399.1</ele>
        <time>2020-06-26T08:10:35Z</time>
      </trkpt>
      <trkpt lat="49.67499" lon="5.8241">
        <ele>399.1</ele>
        <time>2020-06-26T08:10:36Z</time>
      </trkpt>
      <trkpt lat="49.67499" lon="5.82409">
        <ele>399.1</ele>
        <time>2020-06-26T08:10:37Z</time>
      </trkpt>
      <trkpt lat="49.67499" lon="5.82409">
        <ele>399.1</ele>
        <time>2020-06-26T08:10:38Z</time>
      </trkpt>
      <trkpt lat="49.67499" lon="5.82411">
        <ele>399</ele>
        <time>2020-06-26T08:10:39Z</time>
      </trkpt>
      <trkpt lat="49.67499" lon="5.82413">
        <ele>399</ele>
        <time>2020-06-26T08:10:40Z</time>
      </trkpt>
      <trkpt lat="49.67498" lon="5.82414">
        <ele>399</ele>
        <time>2020-06-26T08:10:41Z</time>
      </trkpt>
      <trkpt lat="49.67497" lon="5.82416">
        <ele>398.9</ele>
        <time>2020-06-26T08:10:42Z</time>
      </trkpt>
      <trkpt lat="49.67495" lon="5.82418">
        <ele>398.9</ele>
        <time>2020-06-26T08:10:43Z</time>
      </trkpt>
      <trkpt lat="49.67494" lon="5.8242">
        <ele>398.8</ele>
        <time>2020-06-26T08:10:44Z</time>
      </trkpt>
      <trkpt lat="49.67492" lon="5.82424">
        <ele>398.8</ele>
        <time>2020-06-26T08:10:45Z</time>
      </trkpt>
      <trkpt lat="49.67492" lon="5.82425">
        <ele>398.7</ele>
        <time>2020-06-26T08:10:46Z</time>
      </trkpt>
      <trkpt lat="49.67492" lon="5.82431">
        <ele>398.6</ele>
        <time>2020-06-26T08:10:47Z</time>
      </trkpt>
      <trkpt lat="49.67492" lon="5.82433">
        <ele>398.6</ele>
        <time>2020-06-26T08:10:48Z</time>
      </trkpt>
      <trkpt lat="49.6749" lon="5.82436">
        <ele>398.5</ele>
        <time>2020-06-26T08:10:49Z</time>
      </trkpt>
      <trkpt lat="49.67489" lon="5.8244">
        <ele>398.5</ele>
        <time>2020-06-26T08:10:50Z</time>
      </trkpt>
      <trkpt lat="49.67487" lon="5.82444">
        <ele>398.4</ele>
        <time>2020-06-26T08:10:51Z</time>
      </trkpt>
      <trkpt lat="49.67486" lon="5.82448">
        <ele>398.3</ele>
        <time>2020-06-26T08:10:52Z</time>
      </trkpt>
      <trkpt lat="49.67485" lon="5.82453">
        <ele>398.2</ele>
        <time>2020-06-26T08:10:53Z</time>
      </trkpt>
      <trkpt lat="49.67483" lon="5.82456">
        <ele>398.1</ele>
        <time>2020-06-26T08:10:54Z</time>
      </trkpt>
      <trkpt lat="49.6748" lon="5.8246">
        <ele>398</ele>
        <time>2020-06-26T08:10:55Z</time>
      </trkpt>
      <trkpt lat="49.67476" lon="5.82462">
        <ele>397.9</ele>
        <time>2020-06-26T08:10:56Z</time>
      </trkpt>
      <trkpt lat="49.67473" lon="5.82464">
        <ele>397.8</ele>
        <time>2020-06-26T08:10:57Z</time>
      </trkpt>
      <trkpt lat="49.6747" lon="5.82468">
        <ele>397.8</ele>
        <time>2020-06-26T08:10:58Z</time>
      </trkpt>
      <trkpt lat="49.67467" lon="5.82471">
        <ele>397.7</ele>
        <time>2020-06-26T08:10:59Z</time>
      </trkpt>
      <trkpt lat="49.67465" lon="5.82478">
        <ele>397.7</ele>
        <time>2020-06-26T08:11:00Z</time>
      </trkpt>
      <trkpt lat="49.67462" lon="5.82482">
        <ele>397.6</ele>
        <time>2020-06-26T08:11:01Z</time>
      </trkpt>
      <trkpt lat="49.67458" lon="5.82486">
        <ele>397.5</ele>
        <time>2020-06-26T08:11:02Z</time>
      </trkpt>
      <trkpt lat="49.67453" lon="5.82489">
        <ele>397.4</ele>
        <time>2020-06-26T08:11:03Z</time>
      </trkpt>
      <trkpt lat="49.67449" lon="5.82492">
        <ele>397.4</ele>
        <time>2020-06-26T08:11:04Z</time>
      </trkpt>
      <trkpt lat="49.67445" lon="5.82494">
        <ele>397.3</ele>
        <time>2020-06-26T08:11:05Z</time>
      </trkpt>
      <trkpt lat="49.67436" lon="5.82482">
        <ele>397.1</ele>
        <time>2020-06-26T08:11:06Z</time>
      </trkpt>
      <trkpt lat="49.67431" lon="5.82483">
        <ele>397</ele>
        <time>2020-06-26T08:11:07Z</time>
      </trkpt>
      <trkpt lat="49.67427" lon="5.82485">
        <ele>396.8</ele>
        <time>2020-06-26T08:11:08Z</time>
      </trkpt>
      <trkpt lat="49.67423" lon="5.82487">
        <ele>396.7</ele>
        <time>2020-06-26T08:11:09Z</time>
      </trkpt>
      <trkpt lat="49.6742" lon="5.8249">
        <ele>396.6</ele>
        <time>2020-06-26T08:11:10Z</time>
      </trkpt>
      <trkpt lat="49.67416" lon="5.82493">
        <ele>396.5</ele>
        <time>2020-06-26T08:11:11Z</time>
      </trkpt>
      <trkpt lat="49.67412" lon="5.82496">
        <ele>396.4</ele>
        <time>2020-06-26T08:11:12Z</time>
      </trkpt>
      <trkpt lat="49.67409" lon="5.82498">
        <ele>396.3</ele>
        <time>2020-06-26T08:11:13Z</time>
      </trkpt>
      <trkpt lat="49.67405" lon="5.82501">
        <ele>396.2</ele>
        <time>2020-06-26T08:11:14Z</time>
      </trkpt>
      <trkpt lat="49.67402" lon="5.82504">
        <ele>396.1</ele>
        <time>2020-06-26T08:11:15Z</time>
      </trkpt>
      <trkpt lat="49.67398" lon="5.82507">
        <ele>395.9</ele>
        <time>2020-06-26T08:11:16Z</time>
      </trkpt>
      <trkpt lat="49.67394" lon="5.8251">
        <ele>395.8</ele>
        <time>2020-06-26T08:11:17Z</time>
      </trkpt>
      <trkpt lat="49.67389" lon="5.82513">
        <ele>395.7</ele>
        <time>2020-06-26T08:11:18Z</time>
      </trkpt>
      <trkpt lat="49.67385" lon="5.82517">
        <ele>395.5</ele>
        <time>2020-06-26T08:11:19Z</time>
      </trkpt>
      <trkpt lat="49.67381" lon="5.8252">
        <ele>395.4</ele>
        <time>2020-06-26T08:11:20Z</time>
      </trkpt>
      <trkpt lat="49.67376" lon="5.82523">
        <ele>395.2</ele>
        <time>2020-06-26T08:11:21Z</time>
      </trkpt>
      <trkpt lat="49.67371" lon="5.82526">
        <ele>395</ele>
        <time>2020-06-26T08:11:22Z</time>
      </trkpt>
      <trkpt lat="49.67367" lon="5.82529">
        <ele>394.9</ele>
        <time>2020-06-26T08:11:23Z</time>
      </trkpt>
      <trkpt lat="49.67362" lon="5.82533">
        <ele>394.7</ele>
        <time>2020-06-26T08:11:24Z</time>
      </trkpt>
      <trkpt lat="49.67357" lon="5.82536">
        <ele>394.6</ele>
        <time>2020-06-26T08:11:25Z</time>
      </trkpt>
      <trkpt lat="49.67353" lon="5.8254">
        <ele>394.4</ele>
        <time>2020-06-26T08:11:26Z</time>
      </trkpt>
      <trkpt lat="49.67348" lon="5.82544">
        <ele>394.2</ele>
        <time>2020-06-26T08:11:27Z</time>
      </trkpt>
      <trkpt lat="49.67344" lon="5.82547">
        <ele>394</ele>
        <time>2020-06-26T08:11:28Z</time>
      </trkpt>
      <trkpt lat="49.67339" lon="5.82551">
        <ele>393.9</ele>
        <time>2020-06-26T08:11:29Z</time>
      </trkpt>
      <trkpt lat="49.67334" lon="5.82555">
        <ele>393.7</ele>
        <time>2020-06-26T08:11:30Z</time>
      </trkpt>
      <trkpt lat="49.67329" lon="5.82558">
        <ele>393.5</ele>
        <time>2020-06-26T08:11:31Z</time>
      </trkpt>
      <trkpt lat="49.67324" lon="5.82562">
        <ele>393.3</ele>
        <time>2020-06-26T08:11:32Z</time>
      </trkpt>
      <trkpt lat="49.67318" lon="5.82566">
        <ele>393.2</ele>
        <time>2020-06-26T08:11:33Z</time>
      </trkpt>
      <trkpt lat="49.67313" lon="5.82571">
        <ele>393</ele>
        <time>2020-06-26T08:11:34Z</time>
      </trkpt>
      <trkpt lat="49.67307" lon="5.82575">
        <ele>392.8</ele>
        <time>2020-06-26T08:11:35Z</time>
      </trkpt>
      <trkpt lat="49.67301" lon="5.82579">
        <ele>392.6</ele>
        <time>2020-06-26T08:11:36Z</time>
      </trkpt>
      <trkpt lat="49.67295" lon="5.82583">
        <ele>392.3</ele>
        <time>2020-06-26T08:11:37Z</time>
      </trkpt>
      <trkpt lat="49.67289" lon="5.82588">
        <ele>392.1</ele>
        <time>2020-06-26T08:11:38Z</time>
      </trkpt>
      <trkpt lat="49.67283" lon="5.82592">
        <ele>391.9</ele>
        <time>2020-06-26T08:11:39Z</time>
      </trkpt>
      <trkpt lat="49.67277" lon="5.82597">
        <ele>391.7</ele>
        <time>2020-06-26T08:11:40Z</time>
      </trkpt>
      <trkpt lat="49.67271" lon="5.82601">
        <ele>391.5</ele>
        <time>2020-06-26T08:11:41Z</time>
      </trkpt>
      <trkpt lat="49.67266" lon="5.82605">
        <ele>391.3</ele>
        <time>2020-06-26T08:11:42Z</time>
      </trkpt>
      <trkpt lat="49.67261" lon="5.82609">
        <ele>391.1</ele>
        <time>2020-06-26T08:11:43Z</time>
      </trkpt>
      <trkpt lat="49.67256" lon="5.82613">
        <ele>390.9</ele>
        <time>2020-06-26T08:11:44Z</time>
      </trkpt>
      <trkpt lat="49.6725" lon="5.82617">
        <ele>390.7</ele>
        <time>2020-06-26T08:11:45Z</time>
      </trkpt>
      <trkpt lat="49.67245" lon="5.82621">
        <ele>390.5</ele>
        <time>2020-06-26T08:11:46Z</time>
      </trkpt>
      <trkpt lat="49.67239" lon="5.82624">
        <ele>390.4</ele>
        <time>2020-06-26T08:11:47Z</time>
      </trkpt>
      <trkpt lat="49.67234" lon="5.82629">
        <ele>390.2</ele>
        <time>2020-06-26T08:11:48Z</time>
      </trkpt>
      <trkpt lat="49.67228" lon="5.82633">
        <ele>390.1</ele>
        <time>2020-06-26T08:11:49Z</time>
      </trkpt>
      <trkpt lat="49.67222" lon="5.82637">
        <ele>389.9</ele>
        <time>2020-06-26T08:11:50Z</time>
      </trkpt>
      <trkpt lat="49.67217" lon="5.82641">
        <ele>389.8</ele>
        <time>2020-06-26T08:11:51Z</time>
      </trkpt>
      <trkpt lat="49.67211" lon="5.82645">
        <ele>389.7</ele>
        <time>2020-06-26T08:11:52Z</time>
      </trkpt>
      <trkpt lat="49.67205" lon="5.8265">
        <ele>389.6</ele>
        <time>2020-06-26T08:11:53Z</time>
      </trkpt>
      <trkpt lat="49.672" lon="5.82654">
        <ele>389.5</ele>
        <time>2020-06-26T08:11:54Z</time>
      </trkpt>
      <trkpt lat="49.67194" lon="5.82659">
        <ele>389.3</ele>
        <time>2020-06-26T08:11:55Z</time>
      </trkpt>
      <trkpt lat="49.67188" lon="5.82664">
        <ele>389.2</ele>
        <time>2020-06-26T08:11:56Z</time>
      </trkpt>
      <trkpt lat="49.67182" lon="5.82668">
        <ele>389</ele>
        <time>2020-06-26T08:11:57Z</time>
      </trkpt>
      <trkpt lat="49.67176" lon="5.82674">
        <ele>388.9</ele>
        <time>2020-06-26T08:11:58Z</time>
      </trkpt>
      <trkpt lat="49.6717" lon="5.82679">
        <ele>388.8</ele>
        <time>2020-06-26T08:11:59Z</time>
      </trkpt>
      <trkpt lat="49.67164" lon="5.82684">
        <ele>388.7</ele>
        <time>2020-06-26T08:12:00Z</time>
      </trkpt>
      <trkpt lat="49.67158" lon="5.8269">
        <ele>388.6</ele>
        <time>2020-06-26T08:12:01Z</time>
      </trkpt>
      <trkpt lat="49.67152" lon="5.82695">
        <ele>388.6</ele>
        <time>2020-06-26T08:12:02Z</time>
      </trkpt>
      <trkpt lat="49.67147" lon="5.827">
        <ele>388.5</ele>
        <time>2020-06-26T08:12:03Z</time>
      </trkpt>
      <trkpt lat="49.67142" lon="5.82704">
        <ele>388.4</ele>
        <time>2020-06-26T08:12:04Z</time>
      </trkpt>
      <trkpt lat="49.67136" lon="5.82709">
        <ele>388.4</ele>
        <time>2020-06-26T08:12:05Z</time>
      </trkpt>
      <trkpt lat="49.67131" lon="5.82714">
        <ele>388.3</ele>
        <time>2020-06-26T08:12:06Z</time>
      </trkpt>
      <trkpt lat="49.67126" lon="5.82718">
        <ele>388.3</ele>
        <time>2020-06-26T08:12:07Z</time>
      </trkpt>
      <trkpt lat="49.67121" lon="5.82723">
        <ele>388.3</ele>
        <time>2020-06-26T08:12:08Z</time>
      </trkpt>
      <trkpt lat="49.67116" lon="5.82729">
        <ele>388.2</ele>
        <time>2020-06-26T08:12:09Z</time>
      </trkpt>
      <trkpt lat="49.67111" lon="5.82734">
        <ele>388.2</ele>
        <time>2020-06-26T08:12:10Z</time>
      </trkpt>
      <trkpt lat="49.67107" lon="5.82739">
        <ele>388.1</ele>
        <time>2020-06-26T08:12:11Z</time>
      </trkpt>
      <trkpt lat="49.67101" lon="5.82744">
        <ele>388.1</ele>
        <time>2020-06-26T08:12:12Z</time>
      </trkpt>
      <trkpt lat="49.67096" lon="5.82748">
        <ele>388</ele>
        <time>2020-06-26T08:12:13Z</time>
      </trkpt>
      <trkpt lat="49.67091" lon="5.82754">
        <ele>388</ele>
        <time>2020-06-26T08:12:14Z</time>
      </trkpt>
      <trkpt lat="49.67087" lon="5.8276">
        <ele>388</ele>
        <time>2020-06-26T08:12:15Z</time>
      </trkpt>
      <trkpt lat="49.67082" lon="5.82766">
        <ele>387.9</ele>
        <time>2020-06-26T08:12:16Z</time>
      </trkpt>
      <trkpt lat="49.67077" lon="5.82771">
        <ele>387.9</ele>
        <time>2020-06-26T08:12:17Z</time>
      </trkpt>
      <trkpt lat="49.67073" lon="5.82776">
        <ele>387.9</ele>
        <time>2020-06-26T08:12:18Z</time>
      </trkpt>
      <trkpt lat="49.67068" lon="5.82782">
        <ele>387.8</ele>
        <time>2020-06-26T08:12:19Z</time>
      </trkpt>
      <trkpt lat="49.67063" lon="5.82787">
        <ele>387.8</ele>
        <time>2020-06-26T08:12:20Z</time>
      </trkpt>
      <trkpt lat="49.67059" lon="5.82793">
        <ele>387.8</ele>
        <time>2020-06-26T08:12:21Z</time>
      </trkpt>
      <trkpt lat="49.67054" lon="5.82798">
        <ele>387.7</ele>
        <time>2020-06-26T08:12:22Z</time>
      </trkpt>
      <trkpt lat="49.6705" lon="5.82803">
        <ele>387.7</ele>
        <time>2020-06-26T08:12:23Z</time>
      </trkpt>
      <trkpt lat="49.67045" lon="5.82809">
        <ele>387.7</ele>
        <time>2020-06-26T08:12:24Z</time>
      </trkpt>
      <trkpt lat="49.67041" lon="5.82814">
        <ele>387.6</ele>
        <time>2020-06-26T08:12:25Z</time>
      </trkpt>
      <trkpt lat="49.67037" lon="5.82819">
        <ele>387.5</ele>
        <time>2020-06-26T08:12:26Z</time>
      </trkpt>
      <trkpt lat="49.67033" lon="5.82825">
        <ele>387.5</ele>
        <time>2020-06-26T08:12:27Z</time>
      </trkpt>
      <trkpt lat="49.67029" lon="5.82831">
        <ele>387.4</ele>
        <time>2020-06-26T08:12:28Z</time>
      </trkpt>
      <trkpt lat="49.67024" lon="5.82836">
        <ele>387.4</ele>
        <time>2020-06-26T08:12:29Z</time>
      </trkpt>
      <trkpt lat="49.6702" lon="5.82842">
        <ele>387.3</ele>
        <time>2020-06-26T08:12:30Z</time>
      </trkpt>
      <trkpt lat="49.67015" lon="5.82847">
        <ele>387.3</ele>
        <time>2020-06-26T08:12:31Z</time>
      </trkpt>
      <trkpt lat="49.67011" lon="5.82853">
        <ele>387.2</ele>
        <time>2020-06-26T08:12:32Z</time>
      </trkpt>
      <trkpt lat="49.67007" lon="5.82859">
        <ele>387.2</ele>
        <time>2020-06-26T08:12:33Z</time>
      </trkpt>
      <trkpt lat="49.67002" lon="5.82865">
        <ele>387.1</ele>
        <time>2020-06-26T08:12:34Z</time>
      </trkpt>
      <trkpt lat="49.66998" lon="5.82872">
        <ele>386.9</ele>
        <time>2020-06-26T08:12:35Z</time>
      </trkpt>
      <trkpt lat="49.66994" lon="5.82878">
        <ele>386.8</ele>
        <time>2020-06-26T08:12:36Z</time>
      </trkpt>
      <trkpt lat="49.66989" lon="5.82884">
        <ele>386.7</ele>
        <time>2020-06-26T08:12:37Z</time>
      </trkpt>
      <trkpt lat="49.66985" lon="5.82889">
        <ele>386.6</ele>
        <time>2020-06-26T08:12:38Z</time>
      </trkpt>
      <trkpt lat="49.6698" lon="5.82895">
        <ele>386.6</ele>
        <time>2020-06-26T08:12:39Z</time>
      </trkpt>
      <trkpt lat="49.66976" lon="5.82901">
        <ele>386.5</ele>
        <time>2020-06-26T08:12:40Z</time>
      </trkpt>
      <trkpt lat="49.66971" lon="5.82907">
        <ele>386.4</ele>
        <time>2020-06-26T08:12:41Z</time>
      </trkpt>
      <trkpt lat="49.66967" lon="5.82913">
        <ele>386.3</ele>
        <time>2020-06-26T08:12:42Z</time>
      </trkpt>
      <trkpt lat="49.66963" lon="5.82919">
        <ele>386.2</ele>
        <time>2020-06-26T08:12:43Z</time>
      </trkpt>
      <trkpt lat="49.66958" lon="5.82925">
        <ele>386.1</ele>
        <time>2020-06-26T08:12:44Z</time>
      </trkpt>
      <trkpt lat="49.66954" lon="5.8293">
        <ele>386</ele>
        <time>2020-06-26T08:12:45Z</time>
      </trkpt>
      <trkpt lat="49.6695" lon="5.82936">
        <ele>385.9</ele>
        <time>2020-06-26T08:12:46Z</time>
      </trkpt>
      <trkpt lat="49.66946" lon="5.82941">
        <ele>385.9</ele>
        <time>2020-06-26T08:12:47Z</time>
      </trkpt>
      <trkpt lat="49.66942" lon="5.82947">
        <ele>385.8</ele>
        <time>2020-06-26T08:12:48Z</time>
      </trkpt>
      <trkpt lat="49.66938" lon="5.82953">
        <ele>385.8</ele>
        <time>2020-06-26T08:12:49Z</time>
      </trkpt>
      <trkpt lat="49.66933" lon="5.82959">
        <ele>385.7</ele>
        <time>2020-06-26T08:12:50Z</time>
      </trkpt>
      <trkpt lat="49.66929" lon="5.82964">
        <ele>385.7</ele>
        <time>2020-06-26T08:12:51Z</time>
      </trkpt>
      <trkpt lat="49.66925" lon="5.8297">
        <ele>385.6</ele>
        <time>2020-06-26T08:12:52Z</time>
      </trkpt>
      <trkpt lat="49.6692" lon="5.82976">
        <ele>385.6</ele>
        <time>2020-06-26T08:12:53Z</time>
      </trkpt>
      <trkpt lat="49.66916" lon="5.82982">
        <ele>385.6</ele>
        <time>2020-06-26T08:12:54Z</time>
      </trkpt>
      <trkpt lat="49.66912" lon="5.82989">
        <ele>385.5</ele>
        <time>2020-06-26T08:12:55Z</time>
      </trkpt>
      <trkpt lat="49.66907" lon="5.82995">
        <ele>385.4</ele>
        <time>2020-06-26T08:12:56Z</time>
      </trkpt>
      <trkpt lat="49.66903" lon="5.83">
        <ele>385.4</ele>
        <time>2020-06-26T08:12:57Z</time>
      </trkpt>
      <trkpt lat="49.66899" lon="5.83006">
        <ele>385.3</ele>
        <time>2020-06-26T08:12:58Z</time>
      </trkpt>
      <trkpt lat="49.66894" lon="5.83012">
        <ele>385.3</ele>
        <time>2020-06-26T08:12:59Z</time>
      </trkpt>
      <trkpt lat="49.6689" lon="5.83018">
        <ele>385.2</ele>
        <time>2020-06-26T08:13:00Z</time>
      </trkpt>
      <trkpt lat="49.66886" lon="5.83024">
        <ele>385.2</ele>
        <time>2020-06-26T08:13:01Z</time>
      </trkpt>
      <trkpt lat="49.66881" lon="5.83031">
        <ele>385.1</ele>
        <time>2020-06-26T08:13:02Z</time>
      </trkpt>
      <trkpt lat="49.66876" lon="5.83037">
        <ele>385</ele>
        <time>2020-06-26T08:13:03Z</time>
      </trkpt>
      <trkpt lat="49.66872" lon="5.83044">
        <ele>385</ele>
        <time>2020-06-26T08:13:04Z</time>
      </trkpt>
      <trkpt lat="49.66868" lon="5.83051">
        <ele>384.9</ele>
        <time>2020-06-26T08:13:05Z</time>
      </trkpt>
      <trkpt lat="49.66863" lon="5.83057">
        <ele>384.9</ele>
        <time>2020-06-26T08:13:06Z</time>
      </trkpt>
      <trkpt lat="49.66859" lon="5.83063">
        <ele>384.9</ele>
        <time>2020-06-26T08:13:07Z</time>
      </trkpt>
      <trkpt lat="49.66854" lon="5.83069">
        <ele>384.9</ele>
        <time>2020-06-26T08:13:08Z</time>
      </trkpt>
      <trkpt lat="49.6685" lon="5.83075">
        <ele>384.9</ele>
        <time>2020-06-26T08:13:09Z</time>
      </trkpt>
      <trkpt lat="49.66847" lon="5.83081">
        <ele>384.9</ele>
        <time>2020-06-26T08:13:10Z</time>
      </trkpt>
      <trkpt lat="49.66843" lon="5.83088">
        <ele>385</ele>
        <time>2020-06-26T08:13:11Z</time>
      </trkpt>
      <trkpt lat="49.66839" lon="5.83094">
        <ele>384.6</ele>
        <time>2020-06-26T08:13:12Z</time>
      </trkpt>
      <trkpt lat="49.66834" lon="5.831">
        <ele>384.4</ele>
        <time>2020-06-26T08:13:13Z</time>
      </trkpt>
      <trkpt lat="49.66829" lon="5.83106">
        <ele>384.2</ele>
        <time>2020-06-26T08:13:14Z</time>
      </trkpt>
      <trkpt lat="49.66824" lon="5.83112">
        <ele>384</ele>
        <time>2020-06-26T08:13:15Z</time>
      </trkpt>
      <trkpt lat="49.66819" lon="5.83118">
        <ele>383.8</ele>
        <time>2020-06-26T08:13:16Z</time>
      </trkpt>
      <trkpt lat="49.66814" lon="5.83123">
        <ele>383.6</ele>
        <time>2020-06-26T08:13:17Z</time>
      </trkpt>
      <trkpt lat="49.66809" lon="5.83129">
        <ele>383.5</ele>
        <time>2020-06-26T08:13:18Z</time>
      </trkpt>
      <trkpt lat="49.66804" lon="5.83135">
        <ele>383.3</ele>
        <time>2020-06-26T08:13:19Z</time>
      </trkpt>
      <trkpt lat="49.66799" lon="5.83141">
        <ele>383.1</ele>
        <time>2020-06-26T08:13:20Z</time>
      </trkpt>
      <trkpt lat="49.66794" lon="5.83147">
        <ele>383</ele>
        <time>2020-06-26T08:13:21Z</time>
      </trkpt>
      <trkpt lat="49.6679" lon="5.83154">
        <ele>382.8</ele>
        <time>2020-06-26T08:13:22Z</time>
      </trkpt>
      <trkpt lat="49.66786" lon="5.83161">
        <ele>382.7</ele>
        <time>2020-06-26T08:13:23Z</time>
      </trkpt>
      <trkpt lat="49.66782" lon="5.83168">
        <ele>382.6</ele>
        <time>2020-06-26T08:13:24Z</time>
      </trkpt>
      <trkpt lat="49.66778" lon="5.83176">
        <ele>382.5</ele>
        <time>2020-06-26T08:13:25Z</time>
      </trkpt>
      <trkpt lat="49.66774" lon="5.83183">
        <ele>382.4</ele>
        <time>2020-06-26T08:13:26Z</time>
      </trkpt>
      <trkpt lat="49.6677" lon="5.8319">
        <ele>382.4</ele>
        <time>2020-06-26T08:13:27Z</time>
      </trkpt>
      <trkpt lat="49.66766" lon="5.83197">
        <ele>382.3</ele>
        <time>2020-06-26T08:13:28Z</time>
      </trkpt>
      <trkpt lat="49.66761" lon="5.83202">
        <ele>382.2</ele>
        <time>2020-06-26T08:13:29Z</time>
      </trkpt>
      <trkpt lat="49.66756" lon="5.83209">
        <ele>382.1</ele>
        <time>2020-06-26T08:13:30Z</time>
      </trkpt>
      <trkpt lat="49.66752" lon="5.83216">
        <ele>382</ele>
        <time>2020-06-26T08:13:31Z</time>
      </trkpt>
      <trkpt lat="49.66747" lon="5.83222">
        <ele>381.9</ele>
        <time>2020-06-26T08:13:32Z</time>
      </trkpt>
      <trkpt lat="49.66743" lon="5.83228">
        <ele>381.8</ele>
        <time>2020-06-26T08:13:33Z</time>
      </trkpt>
      <trkpt lat="49.66739" lon="5.83235">
        <ele>381.7</ele>
        <time>2020-06-26T08:13:34Z</time>
      </trkpt>
      <trkpt lat="49.66735" lon="5.83242">
        <ele>381.6</ele>
        <time>2020-06-26T08:13:35Z</time>
      </trkpt>
      <trkpt lat="49.66731" lon="5.83249">
        <ele>381.5</ele>
        <time>2020-06-26T08:13:36Z</time>
      </trkpt>
      <trkpt lat="49.66726" lon="5.83256">
        <ele>381.5</ele>
        <time>2020-06-26T08:13:37Z</time>
      </trkpt>
      <trkpt lat="49.66722" lon="5.83263">
        <ele>381.4</ele>
        <time>2020-06-26T08:13:38Z</time>
      </trkpt>
      <trkpt lat="49.66717" lon="5.8327">
        <ele>381.3</ele>
        <time>2020-06-26T08:13:39Z</time>
      </trkpt>
      <trkpt lat="49.66712" lon="5.83277">
        <ele>381.2</ele>
        <time>2020-06-26T08:13:40Z</time>
      </trkpt>
      <trkpt lat="49.66708" lon="5.83284">
        <ele>381.1</ele>
        <time>2020-06-26T08:13:41Z</time>
      </trkpt>
      <trkpt lat="49.66703" lon="5.83291">
        <ele>381</ele>
        <time>2020-06-26T08:13:42Z</time>
      </trkpt>
      <trkpt lat="49.66699" lon="5.83298">
        <ele>381</ele>
        <time>2020-06-26T08:13:43Z</time>
      </trkpt>
      <trkpt lat="49.66693" lon="5.83304">
        <ele>381</ele>
        <time>2020-06-26T08:13:44Z</time>
      </trkpt>
      <trkpt lat="49.66689" lon="5.83312">
        <ele>381</ele>
        <time>2020-06-26T08:13:45Z</time>
      </trkpt>
      <trkpt lat="49.66685" lon="5.83319">
        <ele>381</ele>
        <time>2020-06-26T08:13:46Z</time>
      </trkpt>
      <trkpt lat="49.6668" lon="5.83327">
        <ele>380.9</ele>
        <time>2020-06-26T08:13:47Z</time>
      </trkpt>
      <trkpt lat="49.66676" lon="5.83335">
        <ele>380.8</ele>
        <time>2020-06-26T08:13:48Z</time>
      </trkpt>
      <trkpt lat="49.66672" lon="5.83343">
        <ele>380.6</ele>
        <time>2020-06-26T08:13:49Z</time>
      </trkpt>
      <trkpt lat="49.66669" lon="5.83352">
        <ele>380.5</ele>
        <time>2020-06-26T08:13:50Z</time>
      </trkpt>
      <trkpt lat="49.66665" lon="5.8336">
        <ele>380.4</ele>
        <time>2020-06-26T08:13:51Z</time>
      </trkpt>
      <trkpt lat="49.66661" lon="5.83368">
        <ele>380.3</ele>
        <time>2020-06-26T08:13:52Z</time>
      </trkpt>
      <trkpt lat="49.66657" lon="5.83375">
        <ele>380.2</ele>
        <time>2020-06-26T08:13:53Z</time>
      </trkpt>
      <trkpt lat="49.66653" lon="5.83381">
        <ele>380.1</ele>
        <time>2020-06-26T08:13:54Z</time>
      </trkpt>
      <trkpt lat="49.66649" lon="5.83389">
        <ele>380</ele>
        <time>2020-06-26T08:13:55Z</time>
      </trkpt>
      <trkpt lat="49.66644" lon="5.83396">
        <ele>380</ele>
        <time>2020-06-26T08:13:56Z</time>
      </trkpt>
      <trkpt lat="49.6664" lon="5.83403">
        <ele>379.9</ele>
        <time>2020-06-26T08:13:57Z</time>
      </trkpt>
      <trkpt lat="49.66636" lon="5.8341">
        <ele>379.9</ele>
        <time>2020-06-26T08:13:58Z</time>
      </trkpt>
      <trkpt lat="49.66632" lon="5.83418">
        <ele>379.9</ele>
        <time>2020-06-26T08:13:59Z</time>
      </trkpt>
      <trkpt lat="49.66629" lon="5.83426">
        <ele>379.9</ele>
        <time>2020-06-26T08:14:00Z</time>
      </trkpt>
      <trkpt lat="49.66626" lon="5.83434">
        <ele>379.9</ele>
        <time>2020-06-26T08:14:01Z</time>
      </trkpt>
      <trkpt lat="49.66623" lon="5.83442">
        <ele>379.6</ele>
        <time>2020-06-26T08:14:02Z</time>
      </trkpt>
      <trkpt lat="49.6662" lon="5.83449">
        <ele>379.5</ele>
        <time>2020-06-26T08:14:03Z</time>
      </trkpt>
      <trkpt lat="49.66617" lon="5.83458">
        <ele>379.4</ele>
        <time>2020-06-26T08:14:04Z</time>
      </trkpt>
      <trkpt lat="49.66613" lon="5.83465">
        <ele>379.3</ele>
        <time>2020-06-26T08:14:05Z</time>
      </trkpt>
      <trkpt lat="49.6661" lon="5.83473">
        <ele>379.2</ele>
        <time>2020-06-26T08:14:06Z</time>
      </trkpt>
      <trkpt lat="49.66606" lon="5.83481">
        <ele>379</ele>
        <time>2020-06-26T08:14:07Z</time>
      </trkpt>
      <trkpt lat="49.66603" lon="5.83489">
        <ele>378.9</ele>
        <time>2020-06-26T08:14:08Z</time>
      </trkpt>
      <trkpt lat="49.666" lon="5.83498">
        <ele>378.8</ele>
        <time>2020-06-26T08:14:09Z</time>
      </trkpt>
      <trkpt lat="49.66596" lon="5.83506">
        <ele>378.7</ele>
        <time>2020-06-26T08:14:10Z</time>
      </trkpt>
      <trkpt lat="49.66593" lon="5.83515">
        <ele>378.5</ele>
        <time>2020-06-26T08:14:11Z</time>
      </trkpt>
      <trkpt lat="49.6659" lon="5.83523">
        <ele>378.4</ele>
        <time>2020-06-26T08:14:12Z</time>
      </trkpt>
      <trkpt lat="49.66588" lon="5.83532">
        <ele>378.3</ele>
        <time>2020-06-26T08:14:13Z</time>
      </trkpt>
      <trkpt lat="49.66585" lon="5.8354">
        <ele>378.1</ele>
        <time>2020-06-26T08:14:14Z</time>
      </trkpt>
      <trkpt lat="49.66582" lon="5.83546">
        <ele>378</ele>
        <time>2020-06-26T08:14:15Z</time>
      </trkpt>
      <trkpt lat="49.6658" lon="5.83554">
        <ele>378</ele>
        <time>2020-06-26T08:14:16Z</time>
      </trkpt>
      <trkpt lat="49.66577" lon="5.83562">
        <ele>377.9</ele>
        <time>2020-06-26T08:14:17Z</time>
      </trkpt>
      <trkpt lat="49.66575" lon="5.8357">
        <ele>377.8</ele>
        <time>2020-06-26T08:14:18Z</time>
      </trkpt>
      <trkpt lat="49.66572" lon="5.83578">
        <ele>377.7</ele>
        <time>2020-06-26T08:14:19Z</time>
      </trkpt>
      <trkpt lat="49.66569" lon="5.83586">
        <ele>377.6</ele>
        <time>2020-06-26T08:14:20Z</time>
      </trkpt>
      <trkpt lat="49.66566" lon="5.83594">
        <ele>377.5</ele>
        <time>2020-06-26T08:14:21Z</time>
      </trkpt>
      <trkpt lat="49.66564" lon="5.83603">
        <ele>377.4</ele>
        <time>2020-06-26T08:14:22Z</time>
      </trkpt>
      <trkpt lat="49.6656" lon="5.8361">
        <ele>377.3</ele>
        <time>2020-06-26T08:14:23Z</time>
      </trkpt>
      <trkpt lat="49.66557" lon="5.83619">
        <ele>377.1</ele>
        <time>2020-06-26T08:14:24Z</time>
      </trkpt>
      <trkpt lat="49.66554" lon="5.83626">
        <ele>377</ele>
        <time>2020-06-26T08:14:25Z</time>
      </trkpt>
      <trkpt lat="49.6655" lon="5.83633">
        <ele>376.9</ele>
        <time>2020-06-26T08:14:26Z</time>
      </trkpt>
      <trkpt lat="49.66548" lon="5.83641">
        <ele>376.9</ele>
        <time>2020-06-26T08:14:27Z</time>
      </trkpt>
      <trkpt lat="49.66545" lon="5.8365">
        <ele>376.8</ele>
        <time>2020-06-26T08:14:28Z</time>
      </trkpt>
      <trkpt lat="49.66543" lon="5.83657">
        <ele>376.7</ele>
        <time>2020-06-26T08:14:29Z</time>
      </trkpt>
      <trkpt lat="49.66541" lon="5.83665">
        <ele>376.7</ele>
        <time>2020-06-26T08:14:30Z</time>
      </trkpt>
      <trkpt lat="49.66539" lon="5.83673">
        <ele>376.6</ele>
        <time>2020-06-26T08:14:31Z</time>
      </trkpt>
      <trkpt lat="49.66537" lon="5.83682">
        <ele>376.6</ele>
        <time>2020-06-26T08:14:32Z</time>
      </trkpt>
      <trkpt lat="49.66534" lon="5.8369">
        <ele>376.6</ele>
        <time>2020-06-26T08:14:33Z</time>
      </trkpt>
      <trkpt lat="49.66531" lon="5.83698">
        <ele>376.6</ele>
        <time>2020-06-26T08:14:34Z</time>
      </trkpt>
      <trkpt lat="49.66529" lon="5.83707">
        <ele>376.5</ele>
        <time>2020-06-26T08:14:35Z</time>
      </trkpt>
      <trkpt lat="49.66526" lon="5.83715">
        <ele>376.4</ele>
        <time>2020-06-26T08:14:36Z</time>
      </trkpt>
      <trkpt lat="49.66524" lon="5.83723">
        <ele>376.4</ele>
        <time>2020-06-26T08:14:37Z</time>
      </trkpt>
      <trkpt lat="49.66521" lon="5.83732">
        <ele>376.3</ele>
        <time>2020-06-26T08:14:38Z</time>
      </trkpt>
      <trkpt lat="49.66518" lon="5.83739">
        <ele>376.2</ele>
        <time>2020-06-26T08:14:39Z</time>
      </trkpt>
      <trkpt lat="49.66516" lon="5.83748">
        <ele>376.2</ele>
        <time>2020-06-26T08:14:40Z</time>
      </trkpt>
      <trkpt lat="49.66512" lon="5.83756">
        <ele>376.1</ele>
        <time>2020-06-26T08:14:41Z</time>
      </trkpt>
      <trkpt lat="49.6651" lon="5.83765">
        <ele>376</ele>
        <time>2020-06-26T08:14:42Z</time>
      </trkpt>
      <trkpt lat="49.66507" lon="5.83773">
        <ele>376</ele>
        <time>2020-06-26T08:14:43Z</time>
      </trkpt>
      <trkpt lat="49.66504" lon="5.83781">
        <ele>375.9</ele>
        <time>2020-06-26T08:14:44Z</time>
      </trkpt>
      <trkpt lat="49.66502" lon="5.8379">
        <ele>375.9</ele>
        <time>2020-06-26T08:14:45Z</time>
      </trkpt>
      <trkpt lat="49.66499" lon="5.83799">
        <ele>375.8</ele>
        <time>2020-06-26T08:14:46Z</time>
      </trkpt>
      <trkpt lat="49.66496" lon="5.83807">
        <ele>375.7</ele>
        <time>2020-06-26T08:14:47Z</time>
      </trkpt>
      <trkpt lat="49.66494" lon="5.83816">
        <ele>375.7</ele>
        <time>2020-06-26T08:14:48Z</time>
      </trkpt>
      <trkpt lat="49.66491" lon="5.83825">
        <ele>375.6</ele>
        <time>2020-06-26T08:14:49Z</time>
      </trkpt>
      <trkpt lat="49.66488" lon="5.83833">
        <ele>375.7</ele>
        <time>2020-06-26T08:14:50Z</time>
      </trkpt>
      <trkpt lat="49.66485" lon="5.83841">
        <ele>375.7</ele>
        <time>2020-06-26T08:14:51Z</time>
      </trkpt>
      <trkpt lat="49.66482" lon="5.8385">
        <ele>375.7</ele>
        <time>2020-06-26T08:14:52Z</time>
      </trkpt>
      <trkpt lat="49.6648" lon="5.83858">
        <ele>375.7</ele>
        <time>2020-06-26T08:14:53Z</time>
      </trkpt>
      <trkpt lat="49.66477" lon="5.83866">
        <ele>375.7</ele>
        <time>2020-06-26T08:14:54Z</time>
      </trkpt>
      <trkpt lat="49.66475" lon="5.83874">
        <ele>375.5</ele>
        <time>2020-06-26T08:14:55Z</time>
      </trkpt>
      <trkpt lat="49.66472" lon="5.83882">
        <ele>375.3</ele>
        <time>2020-06-26T08:14:56Z</time>
      </trkpt>
      <trkpt lat="49.66469" lon="5.8389">
        <ele>375</ele>
        <time>2020-06-26T08:14:57Z</time>
      </trkpt>
      <trkpt lat="49.66467" lon="5.83898">
        <ele>374.8</ele>
        <time>2020-06-26T08:14:58Z</time>
      </trkpt>
      <trkpt lat="49.66464" lon="5.83907">
        <ele>374.7</ele>
        <time>2020-06-26T08:14:59Z</time>
      </trkpt>
      <trkpt lat="49.66461" lon="5.83915">
        <ele>374.6</ele>
        <time>2020-06-26T08:15:00Z</time>
      </trkpt>
      <trkpt lat="49.66459" lon="5.83924">
        <ele>374.5</ele>
        <time>2020-06-26T08:15:01Z</time>
      </trkpt>
      <trkpt lat="49.66457" lon="5.83932">
        <ele>374.5</ele>
        <time>2020-06-26T08:15:02Z</time>
      </trkpt>
      <trkpt lat="49.66454" lon="5.8394">
        <ele>374.5</ele>
        <time>2020-06-26T08:15:03Z</time>
      </trkpt>
      <trkpt lat="49.66452" lon="5.83948">
        <ele>374.6</ele>
        <time>2020-06-26T08:15:04Z</time>
      </trkpt>
      <trkpt lat="49.66447" lon="5.83955">
        <ele>374.6</ele>
        <time>2020-06-26T08:15:05Z</time>
      </trkpt>
      <trkpt lat="49.66444" lon="5.83963">
        <ele>374.6</ele>
        <time>2020-06-26T08:15:06Z</time>
      </trkpt>
      <trkpt lat="49.6644" lon="5.83971">
        <ele>374.7</ele>
        <time>2020-06-26T08:15:07Z</time>
      </trkpt>
      <trkpt lat="49.66437" lon="5.83979">
        <ele>374.7</ele>
        <time>2020-06-26T08:15:08Z</time>
      </trkpt>
      <trkpt lat="49.66436" lon="5.83989">
        <ele>374.7</ele>
        <time>2020-06-26T08:15:09Z</time>
      </trkpt>
      <trkpt lat="49.66435" lon="5.83998">
        <ele>374.7</ele>
        <time>2020-06-26T08:15:10Z</time>
      </trkpt>
      <trkpt lat="49.66432" lon="5.84005">
        <ele>374.7</ele>
        <time>2020-06-26T08:15:11Z</time>
      </trkpt>
      <trkpt lat="49.66429" lon="5.84013">
        <ele>374.8</ele>
        <time>2020-06-26T08:15:12Z</time>
      </trkpt>
      <trkpt lat="49.66426" lon="5.84021">
        <ele>374.9</ele>
        <time>2020-06-26T08:15:13Z</time>
      </trkpt>
      <trkpt lat="49.66423" lon="5.84029">
        <ele>374.9</ele>
        <time>2020-06-26T08:15:14Z</time>
      </trkpt>
      <trkpt lat="49.6642" lon="5.84036">
        <ele>374.9</ele>
        <time>2020-06-26T08:15:15Z</time>
      </trkpt>
      <trkpt lat="49.66418" lon="5.84044">
        <ele>375</ele>
        <time>2020-06-26T08:15:16Z</time>
      </trkpt>
      <trkpt lat="49.66415" lon="5.84052">
        <ele>375</ele>
        <time>2020-06-26T08:15:17Z</time>
      </trkpt>
      <trkpt lat="49.66413" lon="5.8406">
        <ele>375</ele>
        <time>2020-06-26T08:15:18Z</time>
      </trkpt>
      <trkpt lat="49.6641" lon="5.84066">
        <ele>375</ele>
        <time>2020-06-26T08:15:19Z</time>
      </trkpt>
      <trkpt lat="49.66408" lon="5.84074">
        <ele>375</ele>
        <time>2020-06-26T08:15:20Z</time>
      </trkpt>
      <trkpt lat="49.66405" lon="5.84082">
        <ele>375</ele>
        <time>2020-06-26T08:15:21Z</time>
      </trkpt>
      <trkpt lat="49.66403" lon="5.84089">
        <ele>375</ele>
        <time>2020-06-26T08:15:22Z</time>
      </trkpt>
      <trkpt lat="49.664" lon="5.84097">
        <ele>375.1</ele>
        <time>2020-06-26T08:15:23Z</time>
      </trkpt>
      <trkpt lat="49.66397" lon="5.84104">
        <ele>375.1</ele>
        <time>2020-06-26T08:15:24Z</time>
      </trkpt>
      <trkpt lat="49.66395" lon="5.84112">
        <ele>375.1</ele>
        <time>2020-06-26T08:15:25Z</time>
      </trkpt>
      <trkpt lat="49.66392" lon="5.8412">
        <ele>375.1</ele>
        <time>2020-06-26T08:15:26Z</time>
      </trkpt>
      <trkpt lat="49.6639" lon="5.84128">
        <ele>375.1</ele>
        <time>2020-06-26T08:15:27Z</time>
      </trkpt>
      <trkpt lat="49.66387" lon="5.84135">
        <ele>375.2</ele>
        <time>2020-06-26T08:15:28Z</time>
      </trkpt>
      <trkpt lat="49.66385" lon="5.84143">
        <ele>375.2</ele>
        <time>2020-06-26T08:15:29Z</time>
      </trkpt>
      <trkpt lat="49.66382" lon="5.8415">
        <ele>375.3</ele>
        <time>2020-06-26T08:15:30Z</time>
      </trkpt>
      <trkpt lat="49.66379" lon="5.84157">
        <ele>375.3</ele>
        <time>2020-06-26T08:15:31Z</time>
      </trkpt>
      <trkpt lat="49.66377" lon="5.84165">
        <ele>375.4</ele>
        <time>2020-06-26T08:15:32Z</time>
      </trkpt>
      <trkpt lat="49.66375" lon="5.84173">
        <ele>375.4</ele>
        <time>2020-06-26T08:15:33Z</time>
      </trkpt>
      <trkpt lat="49.66373" lon="5.84181">
        <ele>375.3</ele>
        <time>2020-06-26T08:15:34Z</time>
      </trkpt>
      <trkpt lat="49.66369" lon="5.84187">
        <ele>375.3</ele>
        <time>2020-06-26T08:15:35Z</time>
      </trkpt>
      <trkpt lat="49.66367" lon="5.84196">
        <ele>375.3</ele>
        <time>2020-06-26T08:15:36Z</time>
      </trkpt>
      <trkpt lat="49.66365" lon="5.84204">
        <ele>375.3</ele>
        <time>2020-06-26T08:15:37Z</time>
      </trkpt>
      <trkpt lat="49.66364" lon="5.84213">
        <ele>375.2</ele>
        <time>2020-06-26T08:15:38Z</time>
      </trkpt>
      <trkpt lat="49.66362" lon="5.84221">
        <ele>375.2</ele>
        <time>2020-06-26T08:15:39Z</time>
      </trkpt>
      <trkpt lat="49.66359" lon="5.84229">
        <ele>375.2</ele>
        <time>2020-06-26T08:15:40Z</time>
      </trkpt>
      <trkpt lat="49.66356" lon="5.84237">
        <ele>375.2</ele>
        <time>2020-06-26T08:15:41Z</time>
      </trkpt>
      <trkpt lat="49.66354" lon="5.84245">
        <ele>375.2</ele>
        <time>2020-06-26T08:15:42Z</time>
      </trkpt>
      <trkpt lat="49.66351" lon="5.84254">
        <ele>375.2</ele>
        <time>2020-06-26T08:15:43Z</time>
      </trkpt>
      <trkpt lat="49.66349" lon="5.84261">
        <ele>375.2</ele>
        <time>2020-06-26T08:15:44Z</time>
      </trkpt>
      <trkpt lat="49.66346" lon="5.84268">
        <ele>375.2</ele>
        <time>2020-06-26T08:15:45Z</time>
      </trkpt>
      <trkpt lat="49.66344" lon="5.84274">
        <ele>375.2</ele>
        <time>2020-06-26T08:15:46Z</time>
      </trkpt>
      <trkpt lat="49.66341" lon="5.84284">
        <ele>375.3</ele>
        <time>2020-06-26T08:15:47Z</time>
      </trkpt>
      <trkpt lat="49.66338" lon="5.84293">
        <ele>375.4</ele>
        <time>2020-06-26T08:15:48Z</time>
      </trkpt>
      <trkpt lat="49.66336" lon="5.84302">
        <ele>375.4</ele>
        <time>2020-06-26T08:15:49Z</time>
      </trkpt>
      <trkpt lat="49.66333" lon="5.84311">
        <ele>375.5</ele>
        <time>2020-06-26T08:15:50Z</time>
      </trkpt>
      <trkpt lat="49.66329" lon="5.84322">
        <ele>375.5</ele>
        <time>2020-06-26T08:15:51Z</time>
      </trkpt>
      <trkpt lat="49.66327" lon="5.84329">
        <ele>375.5</ele>
        <time>2020-06-26T08:15:52Z</time>
      </trkpt>
      <trkpt lat="49.66325" lon="5.84337">
        <ele>375.5</ele>
        <time>2020-06-26T08:15:53Z</time>
      </trkpt>
      <trkpt lat="49.66322" lon="5.84345">
        <ele>375.5</ele>
        <time>2020-06-26T08:15:54Z</time>
      </trkpt>
      <trkpt lat="49.6632" lon="5.84353">
        <ele>375.5</ele>
        <time>2020-06-26T08:15:55Z</time>
      </trkpt>
      <trkpt lat="49.66317" lon="5.8436">
        <ele>375.5</ele>
        <time>2020-06-26T08:15:56Z</time>
      </trkpt>
      <trkpt lat="49.66315" lon="5.84368">
        <ele>375.5</ele>
        <time>2020-06-26T08:15:57Z</time>
      </trkpt>
      <trkpt lat="49.66313" lon="5.84377">
        <ele>375.5</ele>
        <time>2020-06-26T08:15:58Z</time>
      </trkpt>
      <trkpt lat="49.6631" lon="5.84385">
        <ele>375.5</ele>
        <time>2020-06-26T08:15:59Z</time>
      </trkpt>
      <trkpt lat="49.66308" lon="5.84391">
        <ele>375.5</ele>
        <time>2020-06-26T08:16:00Z</time>
      </trkpt>
      <trkpt lat="49.66306" lon="5.84398">
        <ele>375.5</ele>
        <time>2020-06-26T08:16:01Z</time>
      </trkpt>
      <trkpt lat="49.66303" lon="5.84406">
        <ele>375.4</ele>
        <time>2020-06-26T08:16:02Z</time>
      </trkpt>
      <trkpt lat="49.66301" lon="5.84415">
        <ele>375.3</ele>
        <time>2020-06-26T08:16:03Z</time>
      </trkpt>
      <trkpt lat="49.66299" lon="5.84422">
        <ele>375.3</ele>
        <time>2020-06-26T08:16:04Z</time>
      </trkpt>
      <trkpt lat="49.66297" lon="5.8443">
        <ele>375.2</ele>
        <time>2020-06-26T08:16:05Z</time>
      </trkpt>
      <trkpt lat="49.66293" lon="5.84438">
        <ele>375.2</ele>
        <time>2020-06-26T08:16:06Z</time>
      </trkpt>
      <trkpt lat="49.66291" lon="5.84447">
        <ele>375.2</ele>
        <time>2020-06-26T08:16:07Z</time>
      </trkpt>
      <trkpt lat="49.66289" lon="5.84455">
        <ele>375.1</ele>
        <time>2020-06-26T08:16:08Z</time>
      </trkpt>
      <trkpt lat="49.66287" lon="5.84462">
        <ele>375.1</ele>
        <time>2020-06-26T08:16:09Z</time>
      </trkpt>
      <trkpt lat="49.66284" lon="5.84472">
        <ele>375.1</ele>
        <time>2020-06-26T08:16:10Z</time>
      </trkpt>
      <trkpt lat="49.66281" lon="5.84479">
        <ele>375.1</ele>
        <time>2020-06-26T08:16:11Z</time>
      </trkpt>
      <trkpt lat="49.66279" lon="5.84486">
        <ele>375.1</ele>
        <time>2020-06-26T08:16:12Z</time>
      </trkpt>
      <trkpt lat="49.66276" lon="5.84494">
        <ele>375.2</ele>
        <time>2020-06-26T08:16:13Z</time>
      </trkpt>
      <trkpt lat="49.66273" lon="5.84502">
        <ele>375.2</ele>
        <time>2020-06-26T08:16:14Z</time>
      </trkpt>
      <trkpt lat="49.6627" lon="5.84511">
        <ele>375.3</ele>
        <time>2020-06-26T08:16:15Z</time>
      </trkpt>
      <trkpt lat="49.66268" lon="5.84519">
        <ele>375.5</ele>
        <time>2020-06-26T08:16:16Z</time>
      </trkpt>
      <trkpt lat="49.66265" lon="5.84527">
        <ele>375.7</ele>
        <time>2020-06-26T08:16:17Z</time>
      </trkpt>
      <trkpt lat="49.66262" lon="5.84535">
        <ele>375.6</ele>
        <time>2020-06-26T08:16:18Z</time>
      </trkpt>
      <trkpt lat="49.6626" lon="5.84544">
        <ele>375.5</ele>
        <time>2020-06-26T08:16:19Z</time>
      </trkpt>
      <trkpt lat="49.66257" lon="5.84553">
        <ele>375.4</ele>
        <time>2020-06-26T08:16:20Z</time>
      </trkpt>
      <trkpt lat="49.66255" lon="5.84562">
        <ele>375.3</ele>
        <time>2020-06-26T08:16:21Z</time>
      </trkpt>
      <trkpt lat="49.66252" lon="5.8457">
        <ele>375.3</ele>
        <time>2020-06-26T08:16:22Z</time>
      </trkpt>
      <trkpt lat="49.66249" lon="5.84579">
        <ele>375.2</ele>
        <time>2020-06-26T08:16:23Z</time>
      </trkpt>
      <trkpt lat="49.66246" lon="5.84587">
        <ele>375.2</ele>
        <time>2020-06-26T08:16:24Z</time>
      </trkpt>
      <trkpt lat="49.66244" lon="5.84595">
        <ele>375.2</ele>
        <time>2020-06-26T08:16:25Z</time>
      </trkpt>
      <trkpt lat="49.66242" lon="5.84604">
        <ele>375.3</ele>
        <time>2020-06-26T08:16:26Z</time>
      </trkpt>
      <trkpt lat="49.66239" lon="5.84613">
        <ele>375.3</ele>
        <time>2020-06-26T08:16:27Z</time>
      </trkpt>
      <trkpt lat="49.66236" lon="5.84621">
        <ele>375.3</ele>
        <time>2020-06-26T08:16:28Z</time>
      </trkpt>
      <trkpt lat="49.66233" lon="5.84629">
        <ele>375.4</ele>
        <time>2020-06-26T08:16:29Z</time>
      </trkpt>
      <trkpt lat="49.66229" lon="5.84638">
        <ele>375.4</ele>
        <time>2020-06-26T08:16:30Z</time>
      </trkpt>
      <trkpt lat="49.66227" lon="5.84645">
        <ele>375.4</ele>
        <time>2020-06-26T08:16:31Z</time>
      </trkpt>
      <trkpt lat="49.66225" lon="5.84654">
        <ele>375.4</ele>
        <time>2020-06-26T08:16:32Z</time>
      </trkpt>
      <trkpt lat="49.66221" lon="5.84663">
        <ele>375.5</ele>
        <time>2020-06-26T08:16:33Z</time>
      </trkpt>
      <trkpt lat="49.66218" lon="5.84672">
        <ele>375.5</ele>
        <time>2020-06-26T08:16:34Z</time>
      </trkpt>
      <trkpt lat="49.66215" lon="5.8468">
        <ele>375.5</ele>
        <time>2020-06-26T08:16:35Z</time>
      </trkpt>
      <trkpt lat="49.66212" lon="5.84689">
        <ele>375.6</ele>
        <time>2020-06-26T08:16:36Z</time>
      </trkpt>
      <trkpt lat="49.66209" lon="5.84698">
        <ele>375.7</ele>
        <time>2020-06-26T08:16:37Z</time>
      </trkpt>
      <trkpt lat="49.66206" lon="5.84706">
        <ele>375.8</ele>
        <time>2020-06-26T08:16:38Z</time>
      </trkpt>
      <trkpt lat="49.66204" lon="5.84714">
        <ele>376</ele>
        <time>2020-06-26T08:16:39Z</time>
      </trkpt>
      <trkpt lat="49.66202" lon="5.84722">
        <ele>376</ele>
        <time>2020-06-26T08:16:40Z</time>
      </trkpt>
      <trkpt lat="49.662" lon="5.8473">
        <ele>376</ele>
        <time>2020-06-26T08:16:41Z</time>
      </trkpt>
      <trkpt lat="49.66198" lon="5.84738">
        <ele>375.9</ele>
        <time>2020-06-26T08:16:42Z</time>
      </trkpt>
      <trkpt lat="49.66196" lon="5.84747">
        <ele>375.9</ele>
        <time>2020-06-26T08:16:43Z</time>
      </trkpt>
      <trkpt lat="49.66193" lon="5.84755">
        <ele>375.8</ele>
        <time>2020-06-26T08:16:44Z</time>
      </trkpt>
      <trkpt lat="49.66191" lon="5.84762">
        <ele>375.8</ele>
        <time>2020-06-26T08:16:45Z</time>
      </trkpt>
      <trkpt lat="49.66188" lon="5.8477">
        <ele>375.7</ele>
        <time>2020-06-26T08:16:46Z</time>
      </trkpt>
      <trkpt lat="49.66185" lon="5.84778">
        <ele>375.7</ele>
        <time>2020-06-26T08:16:47Z</time>
      </trkpt>
      <trkpt lat="49.6618" lon="5.84786">
        <ele>375.7</ele>
        <time>2020-06-26T08:16:48Z</time>
      </trkpt>
      <trkpt lat="49.66177" lon="5.84794">
        <ele>375.7</ele>
        <time>2020-06-26T08:16:49Z</time>
      </trkpt>
      <trkpt lat="49.66175" lon="5.84802">
        <ele>375.7</ele>
        <time>2020-06-26T08:16:50Z</time>
      </trkpt>
      <trkpt lat="49.66172" lon="5.84811">
        <ele>375.7</ele>
        <time>2020-06-26T08:16:51Z</time>
      </trkpt>
      <trkpt lat="49.6617" lon="5.8482">
        <ele>375.7</ele>
        <time>2020-06-26T08:16:52Z</time>
      </trkpt>
      <trkpt lat="49.66167" lon="5.8483">
        <ele>375.6</ele>
        <time>2020-06-26T08:16:53Z</time>
      </trkpt>
      <trkpt lat="49.66165" lon="5.84838">
        <ele>375.6</ele>
        <time>2020-06-26T08:16:54Z</time>
      </trkpt>
      <trkpt lat="49.66162" lon="5.84847">
        <ele>375.6</ele>
        <time>2020-06-26T08:16:55Z</time>
      </trkpt>
      <trkpt lat="49.66159" lon="5.84855">
        <ele>375.6</ele>
        <time>2020-06-26T08:16:56Z</time>
      </trkpt>
      <trkpt lat="49.66156" lon="5.84864">
        <ele>375.6</ele>
        <time>2020-06-26T08:16:57Z</time>
      </trkpt>
      <trkpt lat="49.66154" lon="5.84871">
        <ele>375.6</ele>
        <time>2020-06-26T08:16:58Z</time>
      </trkpt>
      <trkpt lat="49.66152" lon="5.84878">
        <ele>375.5</ele>
        <time>2020-06-26T08:16:59Z</time>
      </trkpt>
      <trkpt lat="49.66149" lon="5.84888">
        <ele>375.5</ele>
        <time>2020-06-26T08:17:00Z</time>
      </trkpt>
      <trkpt lat="49.66147" lon="5.84897">
        <ele>375.5</ele>
        <time>2020-06-26T08:17:01Z</time>
      </trkpt>
      <trkpt lat="49.66144" lon="5.84907">
        <ele>375.6</ele>
        <time>2020-06-26T08:17:02Z</time>
      </trkpt>
      <trkpt lat="49.66141" lon="5.84915">
        <ele>375.6</ele>
        <time>2020-06-26T08:17:03Z</time>
      </trkpt>
      <trkpt lat="49.66138" lon="5.84924">
        <ele>375.8</ele>
        <time>2020-06-26T08:17:04Z</time>
      </trkpt>
      <trkpt lat="49.66136" lon="5.84932">
        <ele>375.9</ele>
        <time>2020-06-26T08:17:05Z</time>
      </trkpt>
      <trkpt lat="49.66134" lon="5.84939">
        <ele>375.9</ele>
        <time>2020-06-26T08:17:06Z</time>
      </trkpt>
      <trkpt lat="49.66131" lon="5.84947">
        <ele>375.9</ele>
        <time>2020-06-26T08:17:07Z</time>
      </trkpt>
      <trkpt lat="49.66129" lon="5.84956">
        <ele>375.8</ele>
        <time>2020-06-26T08:17:08Z</time>
      </trkpt>
      <trkpt lat="49.66125" lon="5.84964">
        <ele>375.8</ele>
        <time>2020-06-26T08:17:09Z</time>
      </trkpt>
      <trkpt lat="49.66122" lon="5.84973">
        <ele>375.7</ele>
        <time>2020-06-26T08:17:10Z</time>
      </trkpt>
      <trkpt lat="49.66119" lon="5.84983">
        <ele>375.5</ele>
        <time>2020-06-26T08:17:11Z</time>
      </trkpt>
      <trkpt lat="49.66117" lon="5.8499">
        <ele>375.5</ele>
        <time>2020-06-26T08:17:12Z</time>
      </trkpt>
      <trkpt lat="49.66115" lon="5.84998">
        <ele>375.3</ele>
        <time>2020-06-26T08:17:13Z</time>
      </trkpt>
      <trkpt lat="49.66113" lon="5.85006">
        <ele>375.2</ele>
        <time>2020-06-26T08:17:14Z</time>
      </trkpt>
      <trkpt lat="49.66111" lon="5.85014">
        <ele>375.1</ele>
        <time>2020-06-26T08:17:15Z</time>
      </trkpt>
      <trkpt lat="49.66108" lon="5.8502">
        <ele>374.9</ele>
        <time>2020-06-26T08:17:16Z</time>
      </trkpt>
      <trkpt lat="49.66106" lon="5.85028">
        <ele>374.7</ele>
        <time>2020-06-26T08:17:17Z</time>
      </trkpt>
      <trkpt lat="49.66104" lon="5.85034">
        <ele>374.6</ele>
        <time>2020-06-26T08:17:18Z</time>
      </trkpt>
      <trkpt lat="49.66101" lon="5.85042">
        <ele>374.4</ele>
        <time>2020-06-26T08:17:19Z</time>
      </trkpt>
      <trkpt lat="49.66099" lon="5.85049">
        <ele>374.3</ele>
        <time>2020-06-26T08:17:20Z</time>
      </trkpt>
      <trkpt lat="49.66096" lon="5.85057">
        <ele>374.1</ele>
        <time>2020-06-26T08:17:21Z</time>
      </trkpt>
      <trkpt lat="49.66093" lon="5.85065">
        <ele>373.9</ele>
        <time>2020-06-26T08:17:22Z</time>
      </trkpt>
      <trkpt lat="49.6609" lon="5.85075">
        <ele>373.6</ele>
        <time>2020-06-26T08:17:23Z</time>
      </trkpt>
      <trkpt lat="49.66087" lon="5.85083">
        <ele>373.4</ele>
        <time>2020-06-26T08:17:24Z</time>
      </trkpt>
      <trkpt lat="49.66085" lon="5.85091">
        <ele>373.2</ele>
        <time>2020-06-26T08:17:25Z</time>
      </trkpt>
      <trkpt lat="49.66082" lon="5.85101">
        <ele>372.9</ele>
        <time>2020-06-26T08:17:26Z</time>
      </trkpt>
      <trkpt lat="49.66079" lon="5.8511">
        <ele>372.6</ele>
        <time>2020-06-26T08:17:27Z</time>
      </trkpt>
      <trkpt lat="49.66076" lon="5.85118">
        <ele>372.4</ele>
        <time>2020-06-26T08:17:28Z</time>
      </trkpt>
      <trkpt lat="49.66072" lon="5.85126">
        <ele>372.2</ele>
        <time>2020-06-26T08:17:29Z</time>
      </trkpt>
      <trkpt lat="49.66069" lon="5.85136">
        <ele>371.9</ele>
        <time>2020-06-26T08:17:30Z</time>
      </trkpt>
      <trkpt lat="49.66066" lon="5.85145">
        <ele>371.6</ele>
        <time>2020-06-26T08:17:31Z</time>
      </trkpt>
      <trkpt lat="49.66062" lon="5.85154">
        <ele>371.3</ele>
        <time>2020-06-26T08:17:32Z</time>
      </trkpt>
      <trkpt lat="49.66058" lon="5.85163">
        <ele>371</ele>
        <time>2020-06-26T08:17:33Z</time>
      </trkpt>
      <trkpt lat="49.66055" lon="5.85173">
        <ele>370.7</ele>
        <time>2020-06-26T08:17:34Z</time>
      </trkpt>
      <trkpt lat="49.66052" lon="5.85184">
        <ele>370.3</ele>
        <time>2020-06-26T08:17:35Z</time>
      </trkpt>
      <trkpt lat="49.66048" lon="5.85193">
        <ele>369.9</ele>
        <time>2020-06-26T08:17:36Z</time>
      </trkpt>
      <trkpt lat="49.66044" lon="5.85203">
        <ele>369.4</ele>
        <time>2020-06-26T08:17:37Z</time>
      </trkpt>
      <trkpt lat="49.66039" lon="5.85212">
        <ele>369</ele>
        <time>2020-06-26T08:17:38Z</time>
      </trkpt>
      <trkpt lat="49.66034" lon="5.85222">
        <ele>368.6</ele>
        <time>2020-06-26T08:17:39Z</time>
      </trkpt>
      <trkpt lat="49.6603" lon="5.85232">
        <ele>368.1</ele>
        <time>2020-06-26T08:17:40Z</time>
      </trkpt>
      <trkpt lat="49.66024" lon="5.85242">
        <ele>367.6</ele>
        <time>2020-06-26T08:17:41Z</time>
      </trkpt>
      <trkpt lat="49.66018" lon="5.85252">
        <ele>367.2</ele>
        <time>2020-06-26T08:17:42Z</time>
      </trkpt>
      <trkpt lat="49.66012" lon="5.85261">
        <ele>366.7</ele>
        <time>2020-06-26T08:17:43Z</time>
      </trkpt>
      <trkpt lat="49.66007" lon="5.85271">
        <ele>366.3</ele>
        <time>2020-06-26T08:17:44Z</time>
      </trkpt>
      <trkpt lat="49.66001" lon="5.85281">
        <ele>365.9</ele>
        <time>2020-06-26T08:17:45Z</time>
      </trkpt>
      <trkpt lat="49.65995" lon="5.8529">
        <ele>365</ele>
        <time>2020-06-26T08:17:46Z</time>
      </trkpt>
      <trkpt lat="49.65989" lon="5.85299">
        <ele>364.5</ele>
        <time>2020-06-26T08:17:47Z</time>
      </trkpt>
      <trkpt lat="49.65983" lon="5.85308">
        <ele>364</ele>
        <time>2020-06-26T08:17:48Z</time>
      </trkpt>
      <trkpt lat="49.65977" lon="5.85316">
        <ele>363.4</ele>
        <time>2020-06-26T08:17:49Z</time>
      </trkpt>
      <trkpt lat="49.6597" lon="5.85325">
        <ele>362.9</ele>
        <time>2020-06-26T08:17:50Z</time>
      </trkpt>
      <trkpt lat="49.65963" lon="5.85333">
        <ele>362.4</ele>
        <time>2020-06-26T08:17:51Z</time>
      </trkpt>
      <trkpt lat="49.65956" lon="5.85341">
        <ele>361.8</ele>
        <time>2020-06-26T08:17:52Z</time>
      </trkpt>
      <trkpt lat="49.65948" lon="5.85348">
        <ele>361.3</ele>
        <time>2020-06-26T08:17:53Z</time>
      </trkpt>
      <trkpt lat="49.6594" lon="5.85356">
        <ele>360.7</ele>
        <time>2020-06-26T08:17:54Z</time>
      </trkpt>
      <trkpt lat="49.65932" lon="5.85365">
        <ele>360.1</ele>
        <time>2020-06-26T08:17:55Z</time>
      </trkpt>
      <trkpt lat="49.65924" lon="5.85373">
        <ele>359.6</ele>
        <time>2020-06-26T08:17:56Z</time>
      </trkpt>
      <trkpt lat="49.65916" lon="5.85383">
        <ele>359</ele>
        <time>2020-06-26T08:17:57Z</time>
      </trkpt>
      <trkpt lat="49.65909" lon="5.85393">
        <ele>358.5</ele>
        <time>2020-06-26T08:17:58Z</time>
      </trkpt>
      <trkpt lat="49.65901" lon="5.85403">
        <ele>358</ele>
        <time>2020-06-26T08:17:59Z</time>
      </trkpt>
      <trkpt lat="49.65894" lon="5.85413">
        <ele>357.4</ele>
        <time>2020-06-26T08:18:00Z</time>
      </trkpt>
      <trkpt lat="49.65886" lon="5.85423">
        <ele>356.8</ele>
        <time>2020-06-26T08:18:01Z</time>
      </trkpt>
      <trkpt lat="49.65879" lon="5.85434">
        <ele>356.2</ele>
        <time>2020-06-26T08:18:02Z</time>
      </trkpt>
      <trkpt lat="49.65871" lon="5.85445">
        <ele>355.7</ele>
        <time>2020-06-26T08:18:03Z</time>
      </trkpt>
      <trkpt lat="49.65864" lon="5.85456">
        <ele>355.1</ele>
        <time>2020-06-26T08:18:04Z</time>
      </trkpt>
      <trkpt lat="49.65857" lon="5.85469">
        <ele>354.5</ele>
        <time>2020-06-26T08:18:05Z</time>
      </trkpt>
      <trkpt lat="49.6585" lon="5.85481">
        <ele>353.9</ele>
        <time>2020-06-26T08:18:06Z</time>
      </trkpt>
      <trkpt lat="49.65844" lon="5.85494">
        <ele>353.4</ele>
        <time>2020-06-26T08:18:07Z</time>
      </trkpt>
      <trkpt lat="49.65838" lon="5.85508">
        <ele>353</ele>
        <time>2020-06-26T08:18:08Z</time>
      </trkpt>
      <trkpt lat="49.65832" lon="5.85522">
        <ele>352.4</ele>
        <time>2020-06-26T08:18:09Z</time>
      </trkpt>
      <trkpt lat="49.65826" lon="5.85537">
        <ele>351.6</ele>
        <time>2020-06-26T08:18:10Z</time>
      </trkpt>
      <trkpt lat="49.65821" lon="5.85552">
        <ele>350.9</ele>
        <time>2020-06-26T08:18:11Z</time>
      </trkpt>
      <trkpt lat="49.65816" lon="5.85567">
        <ele>350.2</ele>
        <time>2020-06-26T08:18:12Z</time>
      </trkpt>
      <trkpt lat="49.65811" lon="5.85582">
        <ele>349.5</ele>
        <time>2020-06-26T08:18:13Z</time>
      </trkpt>
      <trkpt lat="49.65806" lon="5.85597">
        <ele>348.9</ele>
        <time>2020-06-26T08:18:14Z</time>
      </trkpt>
      <trkpt lat="49.65802" lon="5.85613">
        <ele>348.2</ele>
        <time>2020-06-26T08:18:15Z</time>
      </trkpt>
      <trkpt lat="49.65799" lon="5.85629">
        <ele>347.5</ele>
        <time>2020-06-26T08:18:16Z</time>
      </trkpt>
      <trkpt lat="49.65797" lon="5.85646">
        <ele>346.9</ele>
        <time>2020-06-26T08:18:17Z</time>
      </trkpt>
      <trkpt lat="49.65795" lon="5.85662">
        <ele>346.3</ele>
        <time>2020-06-26T08:18:18Z</time>
      </trkpt>
      <trkpt lat="49.65793" lon="5.85678">
        <ele>345.8</ele>
        <time>2020-06-26T08:18:19Z</time>
      </trkpt>
      <trkpt lat="49.65792" lon="5.85694">
        <ele>345.2</ele>
        <time>2020-06-26T08:18:20Z</time>
      </trkpt>
      <trkpt lat="49.65791" lon="5.8571">
        <ele>344.7</ele>
        <time>2020-06-26T08:18:21Z</time>
      </trkpt>
      <trkpt lat="49.6579" lon="5.85726">
        <ele>344.3</ele>
        <time>2020-06-26T08:18:22Z</time>
      </trkpt>
      <trkpt lat="49.65791" lon="5.85742">
        <ele>344.1</ele>
        <time>2020-06-26T08:18:23Z</time>
      </trkpt>
      <trkpt lat="49.65792" lon="5.85758">
        <ele>343.9</ele>
        <time>2020-06-26T08:18:24Z</time>
      </trkpt>
      <trkpt lat="49.65792" lon="5.85774">
        <ele>343.5</ele>
        <time>2020-06-26T08:18:25Z</time>
      </trkpt>
      <trkpt lat="49.65791" lon="5.8579">
        <ele>343.2</ele>
        <time>2020-06-26T08:18:26Z</time>
      </trkpt>
      <trkpt lat="49.65792" lon="5.85805">
        <ele>342.8</ele>
        <time>2020-06-26T08:18:27Z</time>
      </trkpt>
      <trkpt lat="49.65792" lon="5.8582">
        <ele>342.5</ele>
        <time>2020-06-26T08:18:28Z</time>
      </trkpt>
      <trkpt lat="49.65792" lon="5.85835">
        <ele>342.2</ele>
        <time>2020-06-26T08:18:29Z</time>
      </trkpt>
      <trkpt lat="49.65793" lon="5.8585">
        <ele>342</ele>
        <time>2020-06-26T08:18:30Z</time>
      </trkpt>
      <trkpt lat="49.65793" lon="5.85865">
        <ele>341.8</ele>
        <time>2020-06-26T08:18:31Z</time>
      </trkpt>
      <trkpt lat="49.65794" lon="5.8588">
        <ele>341.6</ele>
        <time>2020-06-26T08:18:32Z</time>
      </trkpt>
      <trkpt lat="49.65795" lon="5.85894">
        <ele>341.4</ele>
        <time>2020-06-26T08:18:33Z</time>
      </trkpt>
      <trkpt lat="49.65795" lon="5.85908">
        <ele>341.3</ele>
        <time>2020-06-26T08:18:34Z</time>
      </trkpt>
      <trkpt lat="49.65795" lon="5.85922">
        <ele>341.2</ele>
        <time>2020-06-26T08:18:35Z</time>
      </trkpt>
      <trkpt lat="49.65795" lon="5.85936">
        <ele>341.1</ele>
        <time>2020-06-26T08:18:36Z</time>
      </trkpt>
      <trkpt lat="49.65796" lon="5.8595">
        <ele>341</ele>
        <time>2020-06-26T08:18:37Z</time>
      </trkpt>
      <trkpt lat="49.65796" lon="5.85963">
        <ele>341</ele>
        <time>2020-06-26T08:18:38Z</time>
      </trkpt>
      <trkpt lat="49.65796" lon="5.85976">
        <ele>341</ele>
        <time>2020-06-26T08:18:39Z</time>
      </trkpt>
      <trkpt lat="49.65797" lon="5.85989">
        <ele>340.9</ele>
        <time>2020-06-26T08:18:40Z</time>
      </trkpt>
      <trkpt lat="49.65797" lon="5.86001">
        <ele>340.9</ele>
        <time>2020-06-26T08:18:41Z</time>
      </trkpt>
      <trkpt lat="49.65798" lon="5.86014">
        <ele>340.8</ele>
        <time>2020-06-26T08:18:42Z</time>
      </trkpt>
      <trkpt lat="49.65799" lon="5.86026">
        <ele>340.8</ele>
        <time>2020-06-26T08:18:43Z</time>
      </trkpt>
      <trkpt lat="49.65799" lon="5.86038">
        <ele>340.8</ele>
        <time>2020-06-26T08:18:44Z</time>
      </trkpt>
      <trkpt lat="49.658" lon="5.86049">
        <ele>340.7</ele>
        <time>2020-06-26T08:18:45Z</time>
      </trkpt>
      <trkpt lat="49.658" lon="5.86061">
        <ele>340.8</ele>
        <time>2020-06-26T08:18:46Z</time>
      </trkpt>
      <trkpt lat="49.658" lon="5.86071">
        <ele>340.7</ele>
        <time>2020-06-26T08:18:47Z</time>
      </trkpt>
      <trkpt lat="49.658" lon="5.86082">
        <ele>340.6</ele>
        <time>2020-06-26T08:18:48Z</time>
      </trkpt>
      <trkpt lat="49.658" lon="5.86092">
        <ele>340.5</ele>
        <time>2020-06-26T08:18:49Z</time>
      </trkpt>
      <trkpt lat="49.658" lon="5.86102">
        <ele>340.4</ele>
        <time>2020-06-26T08:18:50Z</time>
      </trkpt>
      <trkpt lat="49.65799" lon="5.86111">
        <ele>340.4</ele>
        <time>2020-06-26T08:18:51Z</time>
      </trkpt>
      <trkpt lat="49.65799" lon="5.86121">
        <ele>340.3</ele>
        <time>2020-06-26T08:18:52Z</time>
      </trkpt>
      <trkpt lat="49.65799" lon="5.86131">
        <ele>340.3</ele>
        <time>2020-06-26T08:18:53Z</time>
      </trkpt>
      <trkpt lat="49.65798" lon="5.86141">
        <ele>340.3</ele>
        <time>2020-06-26T08:18:54Z</time>
      </trkpt>
      <trkpt lat="49.65797" lon="5.8615">
        <ele>340.2</ele>
        <time>2020-06-26T08:18:55Z</time>
      </trkpt>
      <trkpt lat="49.65798" lon="5.8616">
        <ele>340.2</ele>
        <time>2020-06-26T08:18:56Z</time>
      </trkpt>
      <trkpt lat="49.65798" lon="5.8617">
        <ele>340.2</ele>
        <time>2020-06-26T08:18:57Z</time>
      </trkpt>
      <trkpt lat="49.65798" lon="5.8618">
        <ele>340.1</ele>
        <time>2020-06-26T08:18:58Z</time>
      </trkpt>
      <trkpt lat="49.65798" lon="5.8619">
        <ele>340.1</ele>
        <time>2020-06-26T08:18:59Z</time>
      </trkpt>
      <trkpt lat="49.65799" lon="5.862">
        <ele>340</ele>
        <time>2020-06-26T08:19:00Z</time>
      </trkpt>
      <trkpt lat="49.65799" lon="5.8621">
        <ele>340</ele>
        <time>2020-06-26T08:19:01Z</time>
      </trkpt>
      <trkpt lat="49.65799" lon="5.8622">
        <ele>340</ele>
        <time>2020-06-26T08:19:02Z</time>
      </trkpt>
      <trkpt lat="49.658" lon="5.8623">
        <ele>340</ele>
        <time>2020-06-26T08:19:03Z</time>
      </trkpt>
      <trkpt lat="49.658" lon="5.8624">
        <ele>340</ele>
        <time>2020-06-26T08:19:04Z</time>
      </trkpt>
      <trkpt lat="49.658" lon="5.86249">
        <ele>340</ele>
        <time>2020-06-26T08:19:05Z</time>
      </trkpt>
      <trkpt lat="49.65801" lon="5.86259">
        <ele>340.1</ele>
        <time>2020-06-26T08:19:06Z</time>
      </trkpt>
      <trkpt lat="49.65801" lon="5.86269">
        <ele>340.1</ele>
        <time>2020-06-26T08:19:07Z</time>
      </trkpt>
      <trkpt lat="49.65801" lon="5.86279">
        <ele>340.1</ele>
        <time>2020-06-26T08:19:08Z</time>
      </trkpt>
      <trkpt lat="49.65801" lon="5.86289">
        <ele>340.1</ele>
        <time>2020-06-26T08:19:09Z</time>
      </trkpt>
      <trkpt lat="49.65801" lon="5.863">
        <ele>340.1</ele>
        <time>2020-06-26T08:19:10Z</time>
      </trkpt>
      <trkpt lat="49.65802" lon="5.8631">
        <ele>340.1</ele>
        <time>2020-06-26T08:19:11Z</time>
      </trkpt>
      <trkpt lat="49.65802" lon="5.8632">
        <ele>340.1</ele>
        <time>2020-06-26T08:19:12Z</time>
      </trkpt>
      <trkpt lat="49.65802" lon="5.86329">
        <ele>340.1</ele>
        <time>2020-06-26T08:19:13Z</time>
      </trkpt>
      <trkpt lat="49.65802" lon="5.86339">
        <ele>340.1</ele>
        <time>2020-06-26T08:19:14Z</time>
      </trkpt>
      <trkpt lat="49.65802" lon="5.86348">
        <ele>340.2</ele>
        <time>2020-06-26T08:19:15Z</time>
      </trkpt>
      <trkpt lat="49.65802" lon="5.86356">
        <ele>340.2</ele>
        <time>2020-06-26T08:19:16Z</time>
      </trkpt>
      <trkpt lat="49.65802" lon="5.86365">
        <ele>340.2</ele>
        <time>2020-06-26T08:19:17Z</time>
      </trkpt>
      <trkpt lat="49.65802" lon="5.86375">
        <ele>340.2</ele>
        <time>2020-06-26T08:19:18Z</time>
      </trkpt>
      <trkpt lat="49.65803" lon="5.86384">
        <ele>340.3</ele>
        <time>2020-06-26T08:19:19Z</time>
      </trkpt>
      <trkpt lat="49.65803" lon="5.86393">
        <ele>340.3</ele>
        <time>2020-06-26T08:19:20Z</time>
      </trkpt>
      <trkpt lat="49.65803" lon="5.86402">
        <ele>340.4</ele>
        <time>2020-06-26T08:19:21Z</time>
      </trkpt>
      <trkpt lat="49.65803" lon="5.86411">
        <ele>340.5</ele>
        <time>2020-06-26T08:19:22Z</time>
      </trkpt>
      <trkpt lat="49.65803" lon="5.8642">
        <ele>340.5</ele>
        <time>2020-06-26T08:19:23Z</time>
      </trkpt>
      <trkpt lat="49.65804" lon="5.86429">
        <ele>340.6</ele>
        <time>2020-06-26T08:19:24Z</time>
      </trkpt>
      <trkpt lat="49.65804" lon="5.86437">
        <ele>340.7</ele>
        <time>2020-06-26T08:19:25Z</time>
      </trkpt>
      <trkpt lat="49.65804" lon="5.86447">
        <ele>340.8</ele>
        <time>2020-06-26T08:19:26Z</time>
      </trkpt>
      <trkpt lat="49.65804" lon="5.86457">
        <ele>340.9</ele>
        <time>2020-06-26T08:19:27Z</time>
      </trkpt>
      <trkpt lat="49.65805" lon="5.86465">
        <ele>340.9</ele>
        <time>2020-06-26T08:19:28Z</time>
      </trkpt>
      <trkpt lat="49.65804" lon="5.86475">
        <ele>340.9</ele>
        <time>2020-06-26T08:19:29Z</time>
      </trkpt>
      <trkpt lat="49.65804" lon="5.86483">
        <ele>340.9</ele>
        <time>2020-06-26T08:19:30Z</time>
      </trkpt>
      <trkpt lat="49.65804" lon="5.86493">
        <ele>340.9</ele>
        <time>2020-06-26T08:19:31Z</time>
      </trkpt>
      <trkpt lat="49.65804" lon="5.86502">
        <ele>341</ele>
        <time>2020-06-26T08:19:32Z</time>
      </trkpt>
      <trkpt lat="49.65804" lon="5.86512">
        <ele>341</ele>
        <time>2020-06-26T08:19:33Z</time>
      </trkpt>
      <trkpt lat="49.65804" lon="5.86523">
        <ele>341.1</ele>
        <time>2020-06-26T08:19:34Z</time>
      </trkpt>
      <trkpt lat="49.65804" lon="5.86531">
        <ele>341.2</ele>
        <time>2020-06-26T08:19:35Z</time>
      </trkpt>
      <trkpt lat="49.65805" lon="5.86539">
        <ele>341.3</ele>
        <time>2020-06-26T08:19:36Z</time>
      </trkpt>
      <trkpt lat="49.65805" lon="5.86546">
        <ele>341.4</ele>
        <time>2020-06-26T08:19:37Z</time>
      </trkpt>
      <trkpt lat="49.65803" lon="5.86553">
        <ele>341.6</ele>
        <time>2020-06-26T08:19:38Z</time>
      </trkpt>
      <trkpt lat="49.65803" lon="5.86561">
        <ele>341.7</ele>
        <time>2020-06-26T08:19:39Z</time>
      </trkpt>
      <trkpt lat="49.65804" lon="5.8657">
        <ele>342</ele>
        <time>2020-06-26T08:19:40Z</time>
      </trkpt>
      <trkpt lat="49.65804" lon="5.86578">
        <ele>341.9</ele>
        <time>2020-06-26T08:19:41Z</time>
      </trkpt>
      <trkpt lat="49.65805" lon="5.86588">
        <ele>341.7</ele>
        <time>2020-06-26T08:19:42Z</time>
      </trkpt>
      <trkpt lat="49.65806" lon="5.86596">
        <ele>341.6</ele>
        <time>2020-06-26T08:19:43Z</time>
      </trkpt>
      <trkpt lat="49.65806" lon="5.86606">
        <ele>341.5</ele>
        <time>2020-06-26T08:19:44Z</time>
      </trkpt>
      <trkpt lat="49.65805" lon="5.86614">
        <ele>341.4</ele>
        <time>2020-06-26T08:19:45Z</time>
      </trkpt>
      <trkpt lat="49.65806" lon="5.86626">
        <ele>341.3</ele>
        <time>2020-06-26T08:19:46Z</time>
      </trkpt>
      <trkpt lat="49.65806" lon="5.86634">
        <ele>341.3</ele>
        <time>2020-06-26T08:19:47Z</time>
      </trkpt>
      <trkpt lat="49.65806" lon="5.86644">
        <ele>341.2</ele>
        <time>2020-06-26T08:19:48Z</time>
      </trkpt>
      <trkpt lat="49.65806" lon="5.86652">
        <ele>341.2</ele>
        <time>2020-06-26T08:19:49Z</time>
      </trkpt>
      <trkpt lat="49.65806" lon="5.86662">
        <ele>341.2</ele>
        <time>2020-06-26T08:19:50Z</time>
      </trkpt>
      <trkpt lat="49.65807" lon="5.86672">
        <ele>341.2</ele>
        <time>2020-06-26T08:19:51Z</time>
      </trkpt>
      <trkpt lat="49.65807" lon="5.8668">
        <ele>341.1</ele>
        <time>2020-06-26T08:19:52Z</time>
      </trkpt>
      <trkpt lat="49.65808" lon="5.86688">
        <ele>341.1</ele>
        <time>2020-06-26T08:19:53Z</time>
      </trkpt>
      <trkpt lat="49.65808" lon="5.86694">
        <ele>341.1</ele>
        <time>2020-06-26T08:19:54Z</time>
      </trkpt>
      <trkpt lat="49.65809" lon="5.86701">
        <ele>341.1</ele>
        <time>2020-06-26T08:19:55Z</time>
      </trkpt>
      <trkpt lat="49.65809" lon="5.86711">
        <ele>341.2</ele>
        <time>2020-06-26T08:19:56Z</time>
      </trkpt>
      <trkpt lat="49.6581" lon="5.86717">
        <ele>341.2</ele>
        <time>2020-06-26T08:19:57Z</time>
      </trkpt>
      <trkpt lat="49.6581" lon="5.86726">
        <ele>341.2</ele>
        <time>2020-06-26T08:19:58Z</time>
      </trkpt>
      <trkpt lat="49.6581" lon="5.86734">
        <ele>341.2</ele>
        <time>2020-06-26T08:19:59Z</time>
      </trkpt>
      <trkpt lat="49.65811" lon="5.86743">
        <ele>341.2</ele>
        <time>2020-06-26T08:20:00Z</time>
      </trkpt>
      <trkpt lat="49.65811" lon="5.86752">
        <ele>341.2</ele>
        <time>2020-06-26T08:20:01Z</time>
      </trkpt>
      <trkpt lat="49.65811" lon="5.86762">
        <ele>341.1</ele>
        <time>2020-06-26T08:20:02Z</time>
      </trkpt>
      <trkpt lat="49.65812" lon="5.86771">
        <ele>341.1</ele>
        <time>2020-06-26T08:20:03Z</time>
      </trkpt>
      <trkpt lat="49.65811" lon="5.86778">
        <ele>341.1</ele>
        <time>2020-06-26T08:20:04Z</time>
      </trkpt>
      <trkpt lat="49.65811" lon="5.86789">
        <ele>341.1</ele>
        <time>2020-06-26T08:20:05Z</time>
      </trkpt>
      <trkpt lat="49.65811" lon="5.86799">
        <ele>341.1</ele>
        <time>2020-06-26T08:20:06Z</time>
      </trkpt>
      <trkpt lat="49.65811" lon="5.86808">
        <ele>341.1</ele>
        <time>2020-06-26T08:20:07Z</time>
      </trkpt>
      <trkpt lat="49.65811" lon="5.86817">
        <ele>341.2</ele>
        <time>2020-06-26T08:20:08Z</time>
      </trkpt>
      <trkpt lat="49.65812" lon="5.86827">
        <ele>341.2</ele>
        <time>2020-06-26T08:20:09Z</time>
      </trkpt>
      <trkpt lat="49.65813" lon="5.86836">
        <ele>341.2</ele>
        <time>2020-06-26T08:20:10Z</time>
      </trkpt>
      <trkpt lat="49.65813" lon="5.86843">
        <ele>341.2</ele>
        <time>2020-06-26T08:20:11Z</time>
      </trkpt>
      <trkpt lat="49.65814" lon="5.86851">
        <ele>341.2</ele>
        <time>2020-06-26T08:20:12Z</time>
      </trkpt>
      <trkpt lat="49.65814" lon="5.86861">
        <ele>341.2</ele>
        <time>2020-06-26T08:20:13Z</time>
      </trkpt>
      <trkpt lat="49.65814" lon="5.86869">
        <ele>341.2</ele>
        <time>2020-06-26T08:20:14Z</time>
      </trkpt>
      <trkpt lat="49.65814" lon="5.86879">
        <ele>341.2</ele>
        <time>2020-06-26T08:20:15Z</time>
      </trkpt>
      <trkpt lat="49.65815" lon="5.8689">
        <ele>341.2</ele>
        <time>2020-06-26T08:20:16Z</time>
      </trkpt>
      <trkpt lat="49.65815" lon="5.86899">
        <ele>341.2</ele>
        <time>2020-06-26T08:20:17Z</time>
      </trkpt>
      <trkpt lat="49.65816" lon="5.86909">
        <ele>341.2</ele>
        <time>2020-06-26T08:20:18Z</time>
      </trkpt>
      <trkpt lat="49.65815" lon="5.86916">
        <ele>341.2</ele>
        <time>2020-06-26T08:20:19Z</time>
      </trkpt>
      <trkpt lat="49.65815" lon="5.86925">
        <ele>341.2</ele>
        <time>2020-06-26T08:20:20Z</time>
      </trkpt>
      <trkpt lat="49.65815" lon="5.86934">
        <ele>341.3</ele>
        <time>2020-06-26T08:20:21Z</time>
      </trkpt>
      <trkpt lat="49.65815" lon="5.86945">
        <ele>341.3</ele>
        <time>2020-06-26T08:20:22Z</time>
      </trkpt>
      <trkpt lat="49.65814" lon="5.86954">
        <ele>341.3</ele>
        <time>2020-06-26T08:20:23Z</time>
      </trkpt>
      <trkpt lat="49.65813" lon="5.8696">
        <ele>341.3</ele>
        <time>2020-06-26T08:20:24Z</time>
      </trkpt>
      <trkpt lat="49.65813" lon="5.86971">
        <ele>341.3</ele>
        <time>2020-06-26T08:20:25Z</time>
      </trkpt>
      <trkpt lat="49.65813" lon="5.86981">
        <ele>341.2</ele>
        <time>2020-06-26T08:20:26Z</time>
      </trkpt>
      <trkpt lat="49.65812" lon="5.86989">
        <ele>341.2</ele>
        <time>2020-06-26T08:20:27Z</time>
      </trkpt>
      <trkpt lat="49.65813" lon="5.86997">
        <ele>341.2</ele>
        <time>2020-06-26T08:20:28Z</time>
      </trkpt>
      <trkpt lat="49.65814" lon="5.87005">
        <ele>341.1</ele>
        <time>2020-06-26T08:20:29Z</time>
      </trkpt>
      <trkpt lat="49.65814" lon="5.87014">
        <ele>341.1</ele>
        <time>2020-06-26T08:20:30Z</time>
      </trkpt>
      <trkpt lat="49.65814" lon="5.87023">
        <ele>341.1</ele>
        <time>2020-06-26T08:20:31Z</time>
      </trkpt>
      <trkpt lat="49.65814" lon="5.87031">
        <ele>341.1</ele>
        <time>2020-06-26T08:20:32Z</time>
      </trkpt>
      <trkpt lat="49.65814" lon="5.8704">
        <ele>341</ele>
        <time>2020-06-26T08:20:33Z</time>
      </trkpt>
      <trkpt lat="49.65814" lon="5.8705">
        <ele>341</ele>
        <time>2020-06-26T08:20:34Z</time>
      </trkpt>
      <trkpt lat="49.65814" lon="5.87059">
        <ele>341</ele>
        <time>2020-06-26T08:20:35Z</time>
      </trkpt>
      <trkpt lat="49.65815" lon="5.87072">
        <ele>341</ele>
        <time>2020-06-26T08:20:36Z</time>
      </trkpt>
      <trkpt lat="49.65815" lon="5.87081">
        <ele>340.9</ele>
        <time>2020-06-26T08:20:37Z</time>
      </trkpt>
      <trkpt lat="49.65815" lon="5.87091">
        <ele>340.9</ele>
        <time>2020-06-26T08:20:38Z</time>
      </trkpt>
      <trkpt lat="49.65815" lon="5.87102">
        <ele>340.8</ele>
        <time>2020-06-26T08:20:39Z</time>
      </trkpt>
      <trkpt lat="49.65815" lon="5.87112">
        <ele>340.8</ele>
        <time>2020-06-26T08:20:40Z</time>
      </trkpt>
      <trkpt lat="49.65815" lon="5.87119">
        <ele>340.7</ele>
        <time>2020-06-26T08:20:41Z</time>
      </trkpt>
      <trkpt lat="49.65815" lon="5.87129">
        <ele>340.7</ele>
        <time>2020-06-26T08:20:42Z</time>
      </trkpt>
      <trkpt lat="49.65816" lon="5.87139">
        <ele>340.6</ele>
        <time>2020-06-26T08:20:43Z</time>
      </trkpt>
      <trkpt lat="49.65816" lon="5.87149">
        <ele>340.5</ele>
        <time>2020-06-26T08:20:44Z</time>
      </trkpt>
      <trkpt lat="49.65817" lon="5.87159">
        <ele>340.4</ele>
        <time>2020-06-26T08:20:45Z</time>
      </trkpt>
      <trkpt lat="49.65817" lon="5.87169">
        <ele>340.3</ele>
        <time>2020-06-26T08:20:46Z</time>
      </trkpt>
      <trkpt lat="49.65817" lon="5.87179">
        <ele>340.2</ele>
        <time>2020-06-26T08:20:47Z</time>
      </trkpt>
      <trkpt lat="49.65817" lon="5.87191">
        <ele>340.1</ele>
        <time>2020-06-26T08:20:48Z</time>
      </trkpt>
      <trkpt lat="49.65817" lon="5.87201">
        <ele>340</ele>
        <time>2020-06-26T08:20:49Z</time>
      </trkpt>
      <trkpt lat="49.65817" lon="5.87212">
        <ele>340</ele>
        <time>2020-06-26T08:20:50Z</time>
      </trkpt>
      <trkpt lat="49.65818" lon="5.87221">
        <ele>339.9</ele>
        <time>2020-06-26T08:20:51Z</time>
      </trkpt>
      <trkpt lat="49.65818" lon="5.87229">
        <ele>339.9</ele>
        <time>2020-06-26T08:20:52Z</time>
      </trkpt>
      <trkpt lat="49.65818" lon="5.87238">
        <ele>339.9</ele>
        <time>2020-06-26T08:20:53Z</time>
      </trkpt>
      <trkpt lat="49.65819" lon="5.87248">
        <ele>339.9</ele>
        <time>2020-06-26T08:20:54Z</time>
      </trkpt>
      <trkpt lat="49.65819" lon="5.87258">
        <ele>340</ele>
        <time>2020-06-26T08:20:55Z</time>
      </trkpt>
      <trkpt lat="49.65819" lon="5.87268">
        <ele>340</ele>
        <time>2020-06-26T08:20:56Z</time>
      </trkpt>
      <trkpt lat="49.6582" lon="5.87277">
        <ele>339.9</ele>
        <time>2020-06-26T08:20:57Z</time>
      </trkpt>
      <trkpt lat="49.65821" lon="5.87287">
        <ele>339.9</ele>
        <time>2020-06-26T08:20:58Z</time>
      </trkpt>
      <trkpt lat="49.65822" lon="5.87296">
        <ele>339.8</ele>
        <time>2020-06-26T08:20:59Z</time>
      </trkpt>
      <trkpt lat="49.65822" lon="5.87306">
        <ele>339.7</ele>
        <time>2020-06-26T08:21:00Z</time>
      </trkpt>
      <trkpt lat="49.65822" lon="5.87315">
        <ele>339.7</ele>
        <time>2020-06-26T08:21:01Z</time>
      </trkpt>
      <trkpt lat="49.65823" lon="5.87324">
        <ele>339.6</ele>
        <time>2020-06-26T08:21:02Z</time>
      </trkpt>
      <trkpt lat="49.65822" lon="5.87334">
        <ele>339.5</ele>
        <time>2020-06-26T08:21:03Z</time>
      </trkpt>
      <trkpt lat="49.65822" lon="5.87343">
        <ele>339.4</ele>
        <time>2020-06-26T08:21:04Z</time>
      </trkpt>
      <trkpt lat="49.65822" lon="5.87352">
        <ele>339.3</ele>
        <time>2020-06-26T08:21:05Z</time>
      </trkpt>
      <trkpt lat="49.65821" lon="5.8736">
        <ele>339.3</ele>
        <time>2020-06-26T08:21:06Z</time>
      </trkpt>
      <trkpt lat="49.65821" lon="5.87368">
        <ele>339.3</ele>
        <time>2020-06-26T08:21:07Z</time>
      </trkpt>
      <trkpt lat="49.65821" lon="5.87375">
        <ele>339.2</ele>
        <time>2020-06-26T08:21:08Z</time>
      </trkpt>
      <trkpt lat="49.6582" lon="5.87383">
        <ele>339.2</ele>
        <time>2020-06-26T08:21:09Z</time>
      </trkpt>
      <trkpt lat="49.6582" lon="5.87392">
        <ele>339.1</ele>
        <time>2020-06-26T08:21:10Z</time>
      </trkpt>
      <trkpt lat="49.6582" lon="5.874">
        <ele>339.1</ele>
        <time>2020-06-26T08:21:11Z</time>
      </trkpt>
      <trkpt lat="49.6582" lon="5.8741">
        <ele>339.1</ele>
        <time>2020-06-26T08:21:12Z</time>
      </trkpt>
      <trkpt lat="49.6582" lon="5.87421">
        <ele>339</ele>
        <time>2020-06-26T08:21:13Z</time>
      </trkpt>
      <trkpt lat="49.6582" lon="5.87429">
        <ele>338.9</ele>
        <time>2020-06-26T08:21:14Z</time>
      </trkpt>
      <trkpt lat="49.6582" lon="5.8744">
        <ele>338.8</ele>
        <time>2020-06-26T08:21:15Z</time>
      </trkpt>
      <trkpt lat="49.65821" lon="5.8745">
        <ele>338.7</ele>
        <time>2020-06-26T08:21:16Z</time>
      </trkpt>
      <trkpt lat="49.65821" lon="5.87459">
        <ele>338.6</ele>
        <time>2020-06-26T08:21:17Z</time>
      </trkpt>
      <trkpt lat="49.65821" lon="5.87468">
        <ele>338.5</ele>
        <time>2020-06-26T08:21:18Z</time>
      </trkpt>
      <trkpt lat="49.65822" lon="5.87478">
        <ele>338.3</ele>
        <time>2020-06-26T08:21:19Z</time>
      </trkpt>
      <trkpt lat="49.65822" lon="5.87487">
        <ele>338.1</ele>
        <time>2020-06-26T08:21:20Z</time>
      </trkpt>
      <trkpt lat="49.65823" lon="5.87494">
        <ele>338</ele>
        <time>2020-06-26T08:21:21Z</time>
      </trkpt>
      <trkpt lat="49.65823" lon="5.875">
        <ele>337.9</ele>
        <time>2020-06-26T08:21:22Z</time>
      </trkpt>
      <trkpt lat="49.65823" lon="5.87506">
        <ele>337.8</ele>
        <time>2020-06-26T08:21:23Z</time>
      </trkpt>
      <trkpt lat="49.65823" lon="5.87512">
        <ele>337.7</ele>
        <time>2020-06-26T08:21:24Z</time>
      </trkpt>
      <trkpt lat="49.65823" lon="5.87525">
        <ele>337.5</ele>
        <time>2020-06-26T08:21:25Z</time>
      </trkpt>
      <trkpt lat="49.65823" lon="5.8753">
        <ele>337.5</ele>
        <time>2020-06-26T08:21:26Z</time>
      </trkpt>
      <trkpt lat="49.65823" lon="5.87539">
        <ele>337.4</ele>
        <time>2020-06-26T08:21:27Z</time>
      </trkpt>
      <trkpt lat="49.65824" lon="5.87547">
        <ele>337.3</ele>
        <time>2020-06-26T08:21:28Z</time>
      </trkpt>
      <trkpt lat="49.65824" lon="5.87557">
        <ele>337.1</ele>
        <time>2020-06-26T08:21:29Z</time>
      </trkpt>
      <trkpt lat="49.65825" lon="5.87566">
        <ele>337</ele>
        <time>2020-06-26T08:21:30Z</time>
      </trkpt>
      <trkpt lat="49.65825" lon="5.87574">
        <ele>337</ele>
        <time>2020-06-26T08:21:31Z</time>
      </trkpt>
      <trkpt lat="49.65825" lon="5.87582">
        <ele>336.9</ele>
        <time>2020-06-26T08:21:32Z</time>
      </trkpt>
      <trkpt lat="49.65824" lon="5.8759">
        <ele>336.8</ele>
        <time>2020-06-26T08:21:33Z</time>
      </trkpt>
      <trkpt lat="49.65825" lon="5.87599">
        <ele>336.7</ele>
        <time>2020-06-26T08:21:34Z</time>
      </trkpt>
      <trkpt lat="49.65825" lon="5.87607">
        <ele>336.6</ele>
        <time>2020-06-26T08:21:35Z</time>
      </trkpt>
      <trkpt lat="49.65825" lon="5.87613">
        <ele>336.6</ele>
        <time>2020-06-26T08:21:36Z</time>
      </trkpt>
      <trkpt lat="49.65826" lon="5.87622">
        <ele>336.5</ele>
        <time>2020-06-26T08:21:37Z</time>
      </trkpt>
      <trkpt lat="49.65826" lon="5.87632">
        <ele>336.4</ele>
        <time>2020-06-26T08:21:38Z</time>
      </trkpt>
      <trkpt lat="49.65827" lon="5.87641">
        <ele>336.3</ele>
        <time>2020-06-26T08:21:39Z</time>
      </trkpt>
      <trkpt lat="49.65828" lon="5.87652">
        <ele>336.2</ele>
        <time>2020-06-26T08:21:40Z</time>
      </trkpt>
      <trkpt lat="49.65828" lon="5.87663">
        <ele>336</ele>
        <time>2020-06-26T08:21:41Z</time>
      </trkpt>
      <trkpt lat="49.65829" lon="5.8767">
        <ele>335.9</ele>
        <time>2020-06-26T08:21:42Z</time>
      </trkpt>
      <trkpt lat="49.65829" lon="5.87679">
        <ele>335.8</ele>
        <time>2020-06-26T08:21:43Z</time>
      </trkpt>
      <trkpt lat="49.65829" lon="5.87687">
        <ele>335.8</ele>
        <time>2020-06-26T08:21:44Z</time>
      </trkpt>
      <trkpt lat="49.65829" lon="5.87698">
        <ele>335.7</ele>
        <time>2020-06-26T08:21:45Z</time>
      </trkpt>
      <trkpt lat="49.65829" lon="5.8771">
        <ele>335.7</ele>
        <time>2020-06-26T08:21:46Z</time>
      </trkpt>
      <trkpt lat="49.65829" lon="5.87718">
        <ele>335.8</ele>
        <time>2020-06-26T08:21:47Z</time>
      </trkpt>
      <trkpt lat="49.65829" lon="5.87725">
        <ele>335.8</ele>
        <time>2020-06-26T08:21:48Z</time>
      </trkpt>
      <trkpt lat="49.65828" lon="5.87733">
        <ele>335.9</ele>
        <time>2020-06-26T08:21:49Z</time>
      </trkpt>
      <trkpt lat="49.65829" lon="5.87745">
        <ele>336.1</ele>
        <time>2020-06-26T08:21:50Z</time>
      </trkpt>
      <trkpt lat="49.65829" lon="5.87757">
        <ele>335.8</ele>
        <time>2020-06-26T08:21:51Z</time>
      </trkpt>
      <trkpt lat="49.65829" lon="5.87766">
        <ele>335.6</ele>
        <time>2020-06-26T08:21:52Z</time>
      </trkpt>
      <trkpt lat="49.65829" lon="5.87775">
        <ele>335.4</ele>
        <time>2020-06-26T08:21:53Z</time>
      </trkpt>
      <trkpt lat="49.6583" lon="5.87783">
        <ele>335.3</ele>
        <time>2020-06-26T08:21:54Z</time>
      </trkpt>
      <trkpt lat="49.65831" lon="5.87793">
        <ele>335.2</ele>
        <time>2020-06-26T08:21:55Z</time>
      </trkpt>
      <trkpt lat="49.65831" lon="5.878">
        <ele>335.1</ele>
        <time>2020-06-26T08:21:56Z</time>
      </trkpt>
      <trkpt lat="49.65832" lon="5.87809">
        <ele>335</ele>
        <time>2020-06-26T08:21:57Z</time>
      </trkpt>
      <trkpt lat="49.65832" lon="5.87819">
        <ele>335</ele>
        <time>2020-06-26T08:21:58Z</time>
      </trkpt>
      <trkpt lat="49.65833" lon="5.87829">
        <ele>334.9</ele>
        <time>2020-06-26T08:21:59Z</time>
      </trkpt>
      <trkpt lat="49.65834" lon="5.87838">
        <ele>334.9</ele>
        <time>2020-06-26T08:22:00Z</time>
      </trkpt>
      <trkpt lat="49.65834" lon="5.87848">
        <ele>334.9</ele>
        <time>2020-06-26T08:22:01Z</time>
      </trkpt>
      <trkpt lat="49.65835" lon="5.87858">
        <ele>334.8</ele>
        <time>2020-06-26T08:22:02Z</time>
      </trkpt>
      <trkpt lat="49.65835" lon="5.87867">
        <ele>334.7</ele>
        <time>2020-06-26T08:22:03Z</time>
      </trkpt>
      <trkpt lat="49.65835" lon="5.87876">
        <ele>334.7</ele>
        <time>2020-06-26T08:22:04Z</time>
      </trkpt>
      <trkpt lat="49.65835" lon="5.87885">
        <ele>334.6</ele>
        <time>2020-06-26T08:22:05Z</time>
      </trkpt>
      <trkpt lat="49.65835" lon="5.87895">
        <ele>334.5</ele>
        <time>2020-06-26T08:22:06Z</time>
      </trkpt>
      <trkpt lat="49.65835" lon="5.87905">
        <ele>334.4</ele>
        <time>2020-06-26T08:22:07Z</time>
      </trkpt>
      <trkpt lat="49.65834" lon="5.87916">
        <ele>334.4</ele>
        <time>2020-06-26T08:22:08Z</time>
      </trkpt>
      <trkpt lat="49.65834" lon="5.87925">
        <ele>334.3</ele>
        <time>2020-06-26T08:22:09Z</time>
      </trkpt>
      <trkpt lat="49.65834" lon="5.87934">
        <ele>334.2</ele>
        <time>2020-06-26T08:22:10Z</time>
      </trkpt>
      <trkpt lat="49.65834" lon="5.87944">
        <ele>334.2</ele>
        <time>2020-06-26T08:22:11Z</time>
      </trkpt>
      <trkpt lat="49.65834" lon="5.87953">
        <ele>334.1</ele>
        <time>2020-06-26T08:22:12Z</time>
      </trkpt>
      <trkpt lat="49.65835" lon="5.87962">
        <ele>334.1</ele>
        <time>2020-06-26T08:22:13Z</time>
      </trkpt>
      <trkpt lat="49.65834" lon="5.87971">
        <ele>334.1</ele>
        <time>2020-06-26T08:22:14Z</time>
      </trkpt>
      <trkpt lat="49.65834" lon="5.87981">
        <ele>334.1</ele>
        <time>2020-06-26T08:22:15Z</time>
      </trkpt>
      <trkpt lat="49.65834" lon="5.8799">
        <ele>334</ele>
        <time>2020-06-26T08:22:16Z</time>
      </trkpt>
      <trkpt lat="49.65834" lon="5.88">
        <ele>334</ele>
        <time>2020-06-26T08:22:17Z</time>
      </trkpt>
      <trkpt lat="49.65834" lon="5.8801">
        <ele>334</ele>
        <time>2020-06-26T08:22:18Z</time>
      </trkpt>
      <trkpt lat="49.65835" lon="5.8802">
        <ele>334</ele>
        <time>2020-06-26T08:22:19Z</time>
      </trkpt>
      <trkpt lat="49.65834" lon="5.8803">
        <ele>334</ele>
        <time>2020-06-26T08:22:20Z</time>
      </trkpt>
      <trkpt lat="49.65834" lon="5.88039">
        <ele>333.8</ele>
        <time>2020-06-26T08:22:21Z</time>
      </trkpt>
      <trkpt lat="49.65834" lon="5.88049">
        <ele>333.6</ele>
        <time>2020-06-26T08:22:22Z</time>
      </trkpt>
      <trkpt lat="49.65834" lon="5.88058">
        <ele>333.5</ele>
        <time>2020-06-26T08:22:23Z</time>
      </trkpt>
      <trkpt lat="49.65834" lon="5.88067">
        <ele>333.4</ele>
        <time>2020-06-26T08:22:24Z</time>
      </trkpt>
      <trkpt lat="49.65835" lon="5.88076">
        <ele>333.3</ele>
        <time>2020-06-26T08:22:25Z</time>
      </trkpt>
      <trkpt lat="49.65835" lon="5.88086">
        <ele>333.2</ele>
        <time>2020-06-26T08:22:26Z</time>
      </trkpt>
      <trkpt lat="49.65835" lon="5.88096">
        <ele>333.2</ele>
        <time>2020-06-26T08:22:27Z</time>
      </trkpt>
      <trkpt lat="49.65835" lon="5.88105">
        <ele>333.1</ele>
        <time>2020-06-26T08:22:28Z</time>
      </trkpt>
      <trkpt lat="49.65835" lon="5.88115">
        <ele>333</ele>
        <time>2020-06-26T08:22:29Z</time>
      </trkpt>
      <trkpt lat="49.65835" lon="5.88125">
        <ele>333</ele>
        <time>2020-06-26T08:22:30Z</time>
      </trkpt>
      <trkpt lat="49.65836" lon="5.88135">
        <ele>332.9</ele>
        <time>2020-06-26T08:22:31Z</time>
      </trkpt>
      <trkpt lat="49.65836" lon="5.88145">
        <ele>332.8</ele>
        <time>2020-06-26T08:22:32Z</time>
      </trkpt>
      <trkpt lat="49.65837" lon="5.88154">
        <ele>332.7</ele>
        <time>2020-06-26T08:22:33Z</time>
      </trkpt>
      <trkpt lat="49.65837" lon="5.88164">
        <ele>332.6</ele>
        <time>2020-06-26T08:22:34Z</time>
      </trkpt>
      <trkpt lat="49.65837" lon="5.88174">
        <ele>332.5</ele>
        <time>2020-06-26T08:22:35Z</time>
      </trkpt>
      <trkpt lat="49.65837" lon="5.88184">
        <ele>332.4</ele>
        <time>2020-06-26T08:22:36Z</time>
      </trkpt>
      <trkpt lat="49.65837" lon="5.88193">
        <ele>332.3</ele>
        <time>2020-06-26T08:22:37Z</time>
      </trkpt>
      <trkpt lat="49.65837" lon="5.88203">
        <ele>332.2</ele>
        <time>2020-06-26T08:22:38Z</time>
      </trkpt>
      <trkpt lat="49.65837" lon="5.88214">
        <ele>332.1</ele>
        <time>2020-06-26T08:22:39Z</time>
      </trkpt>
      <trkpt lat="49.65838" lon="5.88225">
        <ele>332.1</ele>
        <time>2020-06-26T08:22:40Z</time>
      </trkpt>
      <trkpt lat="49.65838" lon="5.88234">
        <ele>332</ele>
        <time>2020-06-26T08:22:41Z</time>
      </trkpt>
      <trkpt lat="49.65838" lon="5.88244">
        <ele>331.9</ele>
        <time>2020-06-26T08:22:42Z</time>
      </trkpt>
      <trkpt lat="49.65838" lon="5.88253">
        <ele>331.9</ele>
        <time>2020-06-26T08:22:43Z</time>
      </trkpt>
      <trkpt lat="49.65838" lon="5.88263">
        <ele>331.8</ele>
        <time>2020-06-26T08:22:44Z</time>
      </trkpt>
      <trkpt lat="49.65839" lon="5.88272">
        <ele>331.7</ele>
        <time>2020-06-26T08:22:45Z</time>
      </trkpt>
      <trkpt lat="49.65839" lon="5.88282">
        <ele>331.6</ele>
        <time>2020-06-26T08:22:46Z</time>
      </trkpt>
      <trkpt lat="49.65839" lon="5.88292">
        <ele>331.5</ele>
        <time>2020-06-26T08:22:47Z</time>
      </trkpt>
      <trkpt lat="49.65839" lon="5.88301">
        <ele>331.4</ele>
        <time>2020-06-26T08:22:48Z</time>
      </trkpt>
      <trkpt lat="49.6584" lon="5.88312">
        <ele>331.3</ele>
        <time>2020-06-26T08:22:49Z</time>
      </trkpt>
      <trkpt lat="49.6584" lon="5.88321">
        <ele>331.2</ele>
        <time>2020-06-26T08:22:50Z</time>
      </trkpt>
      <trkpt lat="49.6584" lon="5.88331">
        <ele>331.2</ele>
        <time>2020-06-26T08:22:51Z</time>
      </trkpt>
      <trkpt lat="49.6584" lon="5.88341">
        <ele>331.1</ele>
        <time>2020-06-26T08:22:52Z</time>
      </trkpt>
      <trkpt lat="49.6584" lon="5.8835">
        <ele>331</ele>
        <time>2020-06-26T08:22:53Z</time>
      </trkpt>
      <trkpt lat="49.6584" lon="5.8836">
        <ele>330.9</ele>
        <time>2020-06-26T08:22:54Z</time>
      </trkpt>
      <trkpt lat="49.65841" lon="5.88369">
        <ele>330.8</ele>
        <time>2020-06-26T08:22:55Z</time>
      </trkpt>
      <trkpt lat="49.65841" lon="5.88379">
        <ele>330.7</ele>
        <time>2020-06-26T08:22:56Z</time>
      </trkpt>
      <trkpt lat="49.65841" lon="5.8839">
        <ele>330.6</ele>
        <time>2020-06-26T08:22:57Z</time>
      </trkpt>
      <trkpt lat="49.65841" lon="5.884">
        <ele>330.5</ele>
        <time>2020-06-26T08:22:58Z</time>
      </trkpt>
      <trkpt lat="49.65841" lon="5.88411">
        <ele>330.4</ele>
        <time>2020-06-26T08:22:59Z</time>
      </trkpt>
      <trkpt lat="49.65841" lon="5.88421">
        <ele>330.3</ele>
        <time>2020-06-26T08:23:00Z</time>
      </trkpt>
      <trkpt lat="49.65841" lon="5.88431">
        <ele>330.2</ele>
        <time>2020-06-26T08:23:01Z</time>
      </trkpt>
      <trkpt lat="49.65842" lon="5.88441">
        <ele>330.1</ele>
        <time>2020-06-26T08:23:02Z</time>
      </trkpt>
      <trkpt lat="49.65842" lon="5.88451">
        <ele>330</ele>
        <time>2020-06-26T08:23:03Z</time>
      </trkpt>
      <trkpt lat="49.65842" lon="5.88461">
        <ele>329.9</ele>
        <time>2020-06-26T08:23:04Z</time>
      </trkpt>
      <trkpt lat="49.65842" lon="5.88471">
        <ele>329.8</ele>
        <time>2020-06-26T08:23:05Z</time>
      </trkpt>
      <trkpt lat="49.65843" lon="5.88482">
        <ele>329.8</ele>
        <time>2020-06-26T08:23:06Z</time>
      </trkpt>
      <trkpt lat="49.65843" lon="5.88493">
        <ele>329.7</ele>
        <time>2020-06-26T08:23:07Z</time>
      </trkpt>
      <trkpt lat="49.65843" lon="5.88502">
        <ele>329.6</ele>
        <time>2020-06-26T08:23:08Z</time>
      </trkpt>
      <trkpt lat="49.65843" lon="5.88513">
        <ele>329.5</ele>
        <time>2020-06-26T08:23:09Z</time>
      </trkpt>
      <trkpt lat="49.65844" lon="5.88522">
        <ele>329.4</ele>
        <time>2020-06-26T08:23:10Z</time>
      </trkpt>
      <trkpt lat="49.65844" lon="5.88532">
        <ele>329.4</ele>
        <time>2020-06-26T08:23:11Z</time>
      </trkpt>
      <trkpt lat="49.65844" lon="5.88541">
        <ele>329.3</ele>
        <time>2020-06-26T08:23:12Z</time>
      </trkpt>
      <trkpt lat="49.65844" lon="5.88551">
        <ele>329.2</ele>
        <time>2020-06-26T08:23:13Z</time>
      </trkpt>
      <trkpt lat="49.65844" lon="5.88561">
        <ele>329.1</ele>
        <time>2020-06-26T08:23:14Z</time>
      </trkpt>
      <trkpt lat="49.65844" lon="5.8857">
        <ele>329.1</ele>
        <time>2020-06-26T08:23:15Z</time>
      </trkpt>
      <trkpt lat="49.65845" lon="5.8858">
        <ele>329</ele>
        <time>2020-06-26T08:23:16Z</time>
      </trkpt>
      <trkpt lat="49.65845" lon="5.8859">
        <ele>328.9</ele>
        <time>2020-06-26T08:23:17Z</time>
      </trkpt>
      <trkpt lat="49.65845" lon="5.88599">
        <ele>328.9</ele>
        <time>2020-06-26T08:23:18Z</time>
      </trkpt>
      <trkpt lat="49.65845" lon="5.8861">
        <ele>328.8</ele>
        <time>2020-06-26T08:23:19Z</time>
      </trkpt>
      <trkpt lat="49.65846" lon="5.8862">
        <ele>328.7</ele>
        <time>2020-06-26T08:23:20Z</time>
      </trkpt>
      <trkpt lat="49.65846" lon="5.8863">
        <ele>328.6</ele>
        <time>2020-06-26T08:23:21Z</time>
      </trkpt>
      <trkpt lat="49.65846" lon="5.8864">
        <ele>328.5</ele>
        <time>2020-06-26T08:23:22Z</time>
      </trkpt>
      <trkpt lat="49.65846" lon="5.88649">
        <ele>328.5</ele>
        <time>2020-06-26T08:23:23Z</time>
      </trkpt>
      <trkpt lat="49.65846" lon="5.88659">
        <ele>328.4</ele>
        <time>2020-06-26T08:23:24Z</time>
      </trkpt>
      <trkpt lat="49.65846" lon="5.88669">
        <ele>328.3</ele>
        <time>2020-06-26T08:23:25Z</time>
      </trkpt>
      <trkpt lat="49.65847" lon="5.88679">
        <ele>328.3</ele>
        <time>2020-06-26T08:23:26Z</time>
      </trkpt>
      <trkpt lat="49.65847" lon="5.88689">
        <ele>328.2</ele>
        <time>2020-06-26T08:23:27Z</time>
      </trkpt>
      <trkpt lat="49.65847" lon="5.88699">
        <ele>328.1</ele>
        <time>2020-06-26T08:23:28Z</time>
      </trkpt>
      <trkpt lat="49.65847" lon="5.88709">
        <ele>328.1</ele>
        <time>2020-06-26T08:23:29Z</time>
      </trkpt>
      <trkpt lat="49.65847" lon="5.88719">
        <ele>328</ele>
        <time>2020-06-26T08:23:30Z</time>
      </trkpt>
      <trkpt lat="49.65846" lon="5.8873">
        <ele>327.9</ele>
        <time>2020-06-26T08:23:31Z</time>
      </trkpt>
      <trkpt lat="49.65846" lon="5.88739">
        <ele>327.9</ele>
        <time>2020-06-26T08:23:32Z</time>
      </trkpt>
      <trkpt lat="49.65846" lon="5.88748">
        <ele>327.9</ele>
        <time>2020-06-26T08:23:33Z</time>
      </trkpt>
      <trkpt lat="49.65846" lon="5.88756">
        <ele>327.8</ele>
        <time>2020-06-26T08:23:34Z</time>
      </trkpt>
      <trkpt lat="49.65846" lon="5.88765">
        <ele>327.8</ele>
        <time>2020-06-26T08:23:35Z</time>
      </trkpt>
      <trkpt lat="49.65846" lon="5.88775">
        <ele>327.8</ele>
        <time>2020-06-26T08:23:36Z</time>
      </trkpt>
      <trkpt lat="49.65846" lon="5.88785">
        <ele>327.9</ele>
        <time>2020-06-26T08:23:37Z</time>
      </trkpt>
      <trkpt lat="49.65847" lon="5.88795">
        <ele>328</ele>
        <time>2020-06-26T08:23:38Z</time>
      </trkpt>
      <trkpt lat="49.65847" lon="5.88803">
        <ele>327.9</ele>
        <time>2020-06-26T08:23:39Z</time>
      </trkpt>
      <trkpt lat="49.65847" lon="5.88811">
        <ele>327.8</ele>
        <time>2020-06-26T08:23:40Z</time>
      </trkpt>
      <trkpt lat="49.65847" lon="5.88819">
        <ele>327.7</ele>
        <time>2020-06-26T08:23:41Z</time>
      </trkpt>
      <trkpt lat="49.65847" lon="5.88829">
        <ele>327.6</ele>
        <time>2020-06-26T08:23:42Z</time>
      </trkpt>
      <trkpt lat="49.65848" lon="5.88839">
        <ele>327.5</ele>
        <time>2020-06-26T08:23:43Z</time>
      </trkpt>
      <trkpt lat="49.65848" lon="5.88847">
        <ele>327.4</ele>
        <time>2020-06-26T08:23:44Z</time>
      </trkpt>
      <trkpt lat="49.65849" lon="5.88857">
        <ele>327.3</ele>
        <time>2020-06-26T08:23:45Z</time>
      </trkpt>
      <trkpt lat="49.6585" lon="5.88868">
        <ele>327.2</ele>
        <time>2020-06-26T08:23:46Z</time>
      </trkpt>
      <trkpt lat="49.65849" lon="5.88876">
        <ele>327.2</ele>
        <time>2020-06-26T08:23:47Z</time>
      </trkpt>
      <trkpt lat="49.65849" lon="5.88885">
        <ele>327.1</ele>
        <time>2020-06-26T08:23:48Z</time>
      </trkpt>
      <trkpt lat="49.65849" lon="5.88894">
        <ele>327.1</ele>
        <time>2020-06-26T08:23:49Z</time>
      </trkpt>
      <trkpt lat="49.65849" lon="5.88902">
        <ele>327</ele>
        <time>2020-06-26T08:23:50Z</time>
      </trkpt>
      <trkpt lat="49.65849" lon="5.8891">
        <ele>327</ele>
        <time>2020-06-26T08:23:51Z</time>
      </trkpt>
      <trkpt lat="49.65849" lon="5.88919">
        <ele>327</ele>
        <time>2020-06-26T08:23:52Z</time>
      </trkpt>
      <trkpt lat="49.65849" lon="5.88927">
        <ele>327</ele>
        <time>2020-06-26T08:23:53Z</time>
      </trkpt>
      <trkpt lat="49.65849" lon="5.88936">
        <ele>327</ele>
        <time>2020-06-26T08:23:54Z</time>
      </trkpt>
      <trkpt lat="49.65849" lon="5.88945">
        <ele>327.1</ele>
        <time>2020-06-26T08:23:55Z</time>
      </trkpt>
      <trkpt lat="49.65849" lon="5.88954">
        <ele>327.1</ele>
        <time>2020-06-26T08:23:56Z</time>
      </trkpt>
      <trkpt lat="49.65849" lon="5.88962">
        <ele>327.1</ele>
        <time>2020-06-26T08:23:57Z</time>
      </trkpt>
      <trkpt lat="49.6585" lon="5.8897">
        <ele>327.1</ele>
        <time>2020-06-26T08:23:58Z</time>
      </trkpt>
      <trkpt lat="49.6585" lon="5.88979">
        <ele>327.1</ele>
        <time>2020-06-26T08:23:59Z</time>
      </trkpt>
      <trkpt lat="49.6585" lon="5.88988">
        <ele>327.2</ele>
        <time>2020-06-26T08:24:00Z</time>
      </trkpt>
      <trkpt lat="49.6585" lon="5.88996">
        <ele>327.2</ele>
        <time>2020-06-26T08:24:01Z</time>
      </trkpt>
      <trkpt lat="49.65849" lon="5.89003">
        <ele>327.2</ele>
        <time>2020-06-26T08:24:02Z</time>
      </trkpt>
      <trkpt lat="49.6585" lon="5.89011">
        <ele>327.3</ele>
        <time>2020-06-26T08:24:03Z</time>
      </trkpt>
      <trkpt lat="49.6585" lon="5.89019">
        <ele>327.4</ele>
        <time>2020-06-26T08:24:04Z</time>
      </trkpt>
      <trkpt lat="49.6585" lon="5.89025">
        <ele>327.4</ele>
        <time>2020-06-26T08:24:05Z</time>
      </trkpt>
      <trkpt lat="49.65851" lon="5.89033">
        <ele>327.5</ele>
        <time>2020-06-26T08:24:06Z</time>
      </trkpt>
      <trkpt lat="49.65852" lon="5.89042">
        <ele>327.6</ele>
        <time>2020-06-26T08:24:07Z</time>
      </trkpt>
      <trkpt lat="49.65853" lon="5.8905">
        <ele>327.7</ele>
        <time>2020-06-26T08:24:08Z</time>
      </trkpt>
      <trkpt lat="49.65853" lon="5.89056">
        <ele>327.8</ele>
        <time>2020-06-26T08:24:09Z</time>
      </trkpt>
      <trkpt lat="49.65854" lon="5.89062">
        <ele>327.9</ele>
        <time>2020-06-26T08:24:10Z</time>
      </trkpt>
      <trkpt lat="49.65854" lon="5.89068">
        <ele>328</ele>
        <time>2020-06-26T08:24:11Z</time>
      </trkpt>
      <trkpt lat="49.65854" lon="5.89073">
        <ele>328.1</ele>
        <time>2020-06-26T08:24:12Z</time>
      </trkpt>
      <trkpt lat="49.65854" lon="5.89079">
        <ele>328.2</ele>
        <time>2020-06-26T08:24:13Z</time>
      </trkpt>
      <trkpt lat="49.65854" lon="5.89083">
        <ele>328.3</ele>
        <time>2020-06-26T08:24:14Z</time>
      </trkpt>
      <trkpt lat="49.65854" lon="5.89086">
        <ele>328.3</ele>
        <time>2020-06-26T08:24:15Z</time>
      </trkpt>
      <trkpt lat="49.65854" lon="5.89088">
        <ele>328.5</ele>
        <time>2020-06-26T08:24:16Z</time>
      </trkpt>
      <trkpt lat="49.65854" lon="5.89095">
        <ele>328.6</ele>
        <time>2020-06-26T08:24:17Z</time>
      </trkpt>
      <trkpt lat="49.65854" lon="5.89101">
        <ele>328.7</ele>
        <time>2020-06-26T08:24:18Z</time>
      </trkpt>
      <trkpt lat="49.65855" lon="5.89107">
        <ele>328.8</ele>
        <time>2020-06-26T08:24:19Z</time>
      </trkpt>
      <trkpt lat="49.65855" lon="5.89113">
        <ele>328.9</ele>
        <time>2020-06-26T08:24:20Z</time>
      </trkpt>
      <trkpt lat="49.65855" lon="5.89115">
        <ele>328.9</ele>
        <time>2020-06-26T08:24:21Z</time>
      </trkpt>
      <trkpt lat="49.65855" lon="5.89121">
        <ele>329</ele>
        <time>2020-06-26T08:24:22Z</time>
      </trkpt>
      <trkpt lat="49.65855" lon="5.89127">
        <ele>329.1</ele>
        <time>2020-06-26T08:24:23Z</time>
      </trkpt>
      <trkpt lat="49.65854" lon="5.89133">
        <ele>329.2</ele>
        <time>2020-06-26T08:24:24Z</time>
      </trkpt>
      <trkpt lat="49.65855" lon="5.8914">
        <ele>329.3</ele>
        <time>2020-06-26T08:24:25Z</time>
      </trkpt>
      <trkpt lat="49.65856" lon="5.89147">
        <ele>329.4</ele>
        <time>2020-06-26T08:24:26Z</time>
      </trkpt>
      <trkpt lat="49.65856" lon="5.89154">
        <ele>329.5</ele>
        <time>2020-06-26T08:24:27Z</time>
      </trkpt>
      <trkpt lat="49.65856" lon="5.89162">
        <ele>329.6</ele>
        <time>2020-06-26T08:24:28Z</time>
      </trkpt>
      <trkpt lat="49.65856" lon="5.89168">
        <ele>329.7</ele>
        <time>2020-06-26T08:24:29Z</time>
      </trkpt>
      <trkpt lat="49.65857" lon="5.89174">
        <ele>329.8</ele>
        <time>2020-06-26T08:24:30Z</time>
      </trkpt>
      <trkpt lat="49.65857" lon="5.8918">
        <ele>329.9</ele>
        <time>2020-06-26T08:24:31Z</time>
      </trkpt>
      <trkpt lat="49.65856" lon="5.89185">
        <ele>330</ele>
        <time>2020-06-26T08:24:32Z</time>
      </trkpt>
      <trkpt lat="49.65856" lon="5.8919">
        <ele>330</ele>
        <time>2020-06-26T08:24:33Z</time>
      </trkpt>
      <trkpt lat="49.65856" lon="5.89196">
        <ele>330.1</ele>
        <time>2020-06-26T08:24:34Z</time>
      </trkpt>
      <trkpt lat="49.65856" lon="5.89203">
        <ele>330.1</ele>
        <time>2020-06-26T08:24:35Z</time>
      </trkpt>
      <trkpt lat="49.65856" lon="5.89208">
        <ele>330.2</ele>
        <time>2020-06-26T08:24:36Z</time>
      </trkpt>
      <trkpt lat="49.65856" lon="5.89214">
        <ele>330.3</ele>
        <time>2020-06-26T08:24:37Z</time>
      </trkpt>
      <trkpt lat="49.65856" lon="5.89221">
        <ele>330.3</ele>
        <time>2020-06-26T08:24:38Z</time>
      </trkpt>
      <trkpt lat="49.65856" lon="5.89228">
        <ele>330.5</ele>
        <time>2020-06-26T08:24:39Z</time>
      </trkpt>
      <trkpt lat="49.65856" lon="5.89236">
        <ele>330.6</ele>
        <time>2020-06-26T08:24:40Z</time>
      </trkpt>
      <trkpt lat="49.65857" lon="5.89244">
        <ele>330.7</ele>
        <time>2020-06-26T08:24:41Z</time>
      </trkpt>
      <trkpt lat="49.65857" lon="5.89251">
        <ele>330.8</ele>
        <time>2020-06-26T08:24:42Z</time>
      </trkpt>
      <trkpt lat="49.65857" lon="5.89257">
        <ele>330.9</ele>
        <time>2020-06-26T08:24:43Z</time>
      </trkpt>
      <trkpt lat="49.65857" lon="5.89264">
        <ele>331</ele>
        <time>2020-06-26T08:24:44Z</time>
      </trkpt>
      <trkpt lat="49.65857" lon="5.89269">
        <ele>331.1</ele>
        <time>2020-06-26T08:24:45Z</time>
      </trkpt>
      <trkpt lat="49.65858" lon="5.89278">
        <ele>331.2</ele>
        <time>2020-06-26T08:24:46Z</time>
      </trkpt>
      <trkpt lat="49.65859" lon="5.89283">
        <ele>331.3</ele>
        <time>2020-06-26T08:24:47Z</time>
      </trkpt>
      <trkpt lat="49.65859" lon="5.89289">
        <ele>331.3</ele>
        <time>2020-06-26T08:24:48Z</time>
      </trkpt>
      <trkpt lat="49.65859" lon="5.89295">
        <ele>331.4</ele>
        <time>2020-06-26T08:24:49Z</time>
      </trkpt>
      <trkpt lat="49.65859" lon="5.89302">
        <ele>331.5</ele>
        <time>2020-06-26T08:24:50Z</time>
      </trkpt>
      <trkpt lat="49.65859" lon="5.8931">
        <ele>331.6</ele>
        <time>2020-06-26T08:24:51Z</time>
      </trkpt>
      <trkpt lat="49.65859" lon="5.89318">
        <ele>331.7</ele>
        <time>2020-06-26T08:24:52Z</time>
      </trkpt>
      <trkpt lat="49.6586" lon="5.89324">
        <ele>331.8</ele>
        <time>2020-06-26T08:24:53Z</time>
      </trkpt>
      <trkpt lat="49.6586" lon="5.89332">
        <ele>331.9</ele>
        <time>2020-06-26T08:24:54Z</time>
      </trkpt>
      <trkpt lat="49.6586" lon="5.89338">
        <ele>331.9</ele>
        <time>2020-06-26T08:24:55Z</time>
      </trkpt>
      <trkpt lat="49.6586" lon="5.89346">
        <ele>332</ele>
        <time>2020-06-26T08:24:56Z</time>
      </trkpt>
      <trkpt lat="49.65859" lon="5.89354">
        <ele>332.1</ele>
        <time>2020-06-26T08:24:57Z</time>
      </trkpt>
      <trkpt lat="49.65859" lon="5.8936">
        <ele>332.2</ele>
        <time>2020-06-26T08:24:58Z</time>
      </trkpt>
      <trkpt lat="49.65859" lon="5.89367">
        <ele>332.3</ele>
        <time>2020-06-26T08:24:59Z</time>
      </trkpt>
      <trkpt lat="49.65859" lon="5.89375">
        <ele>332.3</ele>
        <time>2020-06-26T08:25:00Z</time>
      </trkpt>
      <trkpt lat="49.65859" lon="5.89382">
        <ele>332.4</ele>
        <time>2020-06-26T08:25:01Z</time>
      </trkpt>
      <trkpt lat="49.65859" lon="5.8939">
        <ele>332.4</ele>
        <time>2020-06-26T08:25:02Z</time>
      </trkpt>
      <trkpt lat="49.6586" lon="5.89398">
        <ele>332.5</ele>
        <time>2020-06-26T08:25:03Z</time>
      </trkpt>
      <trkpt lat="49.65859" lon="5.89406">
        <ele>332.5</ele>
        <time>2020-06-26T08:25:04Z</time>
      </trkpt>
      <trkpt lat="49.6586" lon="5.89413">
        <ele>332.6</ele>
        <time>2020-06-26T08:25:05Z</time>
      </trkpt>
      <trkpt lat="49.6586" lon="5.89421">
        <ele>332.6</ele>
        <time>2020-06-26T08:25:06Z</time>
      </trkpt>
      <trkpt lat="49.6586" lon="5.89429">
        <ele>332.7</ele>
        <time>2020-06-26T08:25:07Z</time>
      </trkpt>
      <trkpt lat="49.6586" lon="5.89437">
        <ele>332.7</ele>
        <time>2020-06-26T08:25:08Z</time>
      </trkpt>
      <trkpt lat="49.6586" lon="5.89445">
        <ele>332.8</ele>
        <time>2020-06-26T08:25:09Z</time>
      </trkpt>
      <trkpt lat="49.6586" lon="5.89451">
        <ele>332.8</ele>
        <time>2020-06-26T08:25:10Z</time>
      </trkpt>
      <trkpt lat="49.6586" lon="5.89458">
        <ele>332.8</ele>
        <time>2020-06-26T08:25:11Z</time>
      </trkpt>
      <trkpt lat="49.65861" lon="5.89466">
        <ele>332.9</ele>
        <time>2020-06-26T08:25:12Z</time>
      </trkpt>
      <trkpt lat="49.65861" lon="5.89471">
        <ele>332.9</ele>
        <time>2020-06-26T08:25:13Z</time>
      </trkpt>
      <trkpt lat="49.65861" lon="5.89477">
        <ele>332.9</ele>
        <time>2020-06-26T08:25:14Z</time>
      </trkpt>
      <trkpt lat="49.65861" lon="5.89485">
        <ele>332.9</ele>
        <time>2020-06-26T08:25:15Z</time>
      </trkpt>
      <trkpt lat="49.65861" lon="5.89491">
        <ele>333</ele>
        <time>2020-06-26T08:25:16Z</time>
      </trkpt>
      <trkpt lat="49.65862" lon="5.895">
        <ele>333</ele>
        <time>2020-06-26T08:25:17Z</time>
      </trkpt>
      <trkpt lat="49.65862" lon="5.8951">
        <ele>333</ele>
        <time>2020-06-26T08:25:18Z</time>
      </trkpt>
      <trkpt lat="49.65863" lon="5.89518">
        <ele>333</ele>
        <time>2020-06-26T08:25:19Z</time>
      </trkpt>
      <trkpt lat="49.65862" lon="5.89526">
        <ele>333</ele>
        <time>2020-06-26T08:25:20Z</time>
      </trkpt>
      <trkpt lat="49.65863" lon="5.89534">
        <ele>333</ele>
        <time>2020-06-26T08:25:21Z</time>
      </trkpt>
      <trkpt lat="49.65863" lon="5.89541">
        <ele>333</ele>
        <time>2020-06-26T08:25:22Z</time>
      </trkpt>
      <trkpt lat="49.65863" lon="5.89549">
        <ele>333</ele>
        <time>2020-06-26T08:25:23Z</time>
      </trkpt>
      <trkpt lat="49.65863" lon="5.89559">
        <ele>333</ele>
        <time>2020-06-26T08:25:24Z</time>
      </trkpt>
      <trkpt lat="49.65863" lon="5.89567">
        <ele>333</ele>
        <time>2020-06-26T08:25:25Z</time>
      </trkpt>
      <trkpt lat="49.65863" lon="5.89576">
        <ele>333</ele>
        <time>2020-06-26T08:25:26Z</time>
      </trkpt>
      <trkpt lat="49.65863" lon="5.89586">
        <ele>333</ele>
        <time>2020-06-26T08:25:27Z</time>
      </trkpt>
      <trkpt lat="49.65863" lon="5.89594">
        <ele>333</ele>
        <time>2020-06-26T08:25:28Z</time>
      </trkpt>
      <trkpt lat="49.65863" lon="5.89601">
        <ele>333</ele>
        <time>2020-06-26T08:25:29Z</time>
      </trkpt>
      <trkpt lat="49.65863" lon="5.89609">
        <ele>333</ele>
        <time>2020-06-26T08:25:30Z</time>
      </trkpt>
      <trkpt lat="49.65863" lon="5.89616">
        <ele>332.9</ele>
        <time>2020-06-26T08:25:31Z</time>
      </trkpt>
      <trkpt lat="49.65863" lon="5.89624">
        <ele>332.9</ele>
        <time>2020-06-26T08:25:32Z</time>
      </trkpt>
      <trkpt lat="49.65863" lon="5.89632">
        <ele>332.9</ele>
        <time>2020-06-26T08:25:33Z</time>
      </trkpt>
      <trkpt lat="49.65864" lon="5.89642">
        <ele>332.8</ele>
        <time>2020-06-26T08:25:34Z</time>
      </trkpt>
      <trkpt lat="49.65864" lon="5.89653">
        <ele>332.7</ele>
        <time>2020-06-26T08:25:35Z</time>
      </trkpt>
      <trkpt lat="49.65865" lon="5.89663">
        <ele>332.7</ele>
        <time>2020-06-26T08:25:36Z</time>
      </trkpt>
      <trkpt lat="49.65865" lon="5.89674">
        <ele>332.6</ele>
        <time>2020-06-26T08:25:37Z</time>
      </trkpt>
      <trkpt lat="49.65866" lon="5.89682">
        <ele>332.5</ele>
        <time>2020-06-26T08:25:38Z</time>
      </trkpt>
      <trkpt lat="49.65865" lon="5.89692">
        <ele>332.5</ele>
        <time>2020-06-26T08:25:39Z</time>
      </trkpt>
      <trkpt lat="49.65866" lon="5.89701">
        <ele>332.4</ele>
        <time>2020-06-26T08:25:40Z</time>
      </trkpt>
      <trkpt lat="49.65866" lon="5.8971">
        <ele>332.3</ele>
        <time>2020-06-26T08:25:41Z</time>
      </trkpt>
      <trkpt lat="49.65866" lon="5.89718">
        <ele>332.2</ele>
        <time>2020-06-26T08:25:42Z</time>
      </trkpt>
      <trkpt lat="49.65866" lon="5.89727">
        <ele>332.2</ele>
        <time>2020-06-26T08:25:43Z</time>
      </trkpt>
      <trkpt lat="49.65866" lon="5.89736">
        <ele>332.2</ele>
        <time>2020-06-26T08:25:44Z</time>
      </trkpt>
      <trkpt lat="49.65866" lon="5.89745">
        <ele>332.1</ele>
        <time>2020-06-26T08:25:45Z</time>
      </trkpt>
      <trkpt lat="49.65866" lon="5.89755">
        <ele>332</ele>
        <time>2020-06-26T08:25:46Z</time>
      </trkpt>
      <trkpt lat="49.65865" lon="5.89765">
        <ele>332</ele>
        <time>2020-06-26T08:25:47Z</time>
      </trkpt>
      <trkpt lat="49.65865" lon="5.89775">
        <ele>331.9</ele>
        <time>2020-06-26T08:25:48Z</time>
      </trkpt>
      <trkpt lat="49.65865" lon="5.89786">
        <ele>331.8</ele>
        <time>2020-06-26T08:25:49Z</time>
      </trkpt>
      <trkpt lat="49.65866" lon="5.89797">
        <ele>331.7</ele>
        <time>2020-06-26T08:25:50Z</time>
      </trkpt>
      <trkpt lat="49.65866" lon="5.89806">
        <ele>331.7</ele>
        <time>2020-06-26T08:25:51Z</time>
      </trkpt>
      <trkpt lat="49.65867" lon="5.89816">
        <ele>331.6</ele>
        <time>2020-06-26T08:25:52Z</time>
      </trkpt>
      <trkpt lat="49.65866" lon="5.89826">
        <ele>331.5</ele>
        <time>2020-06-26T08:25:53Z</time>
      </trkpt>
      <trkpt lat="49.65866" lon="5.89836">
        <ele>331.4</ele>
        <time>2020-06-26T08:25:54Z</time>
      </trkpt>
      <trkpt lat="49.65866" lon="5.89846">
        <ele>331.3</ele>
        <time>2020-06-26T08:25:55Z</time>
      </trkpt>
      <trkpt lat="49.65866" lon="5.89856">
        <ele>331.2</ele>
        <time>2020-06-26T08:25:56Z</time>
      </trkpt>
      <trkpt lat="49.65866" lon="5.89866">
        <ele>331.1</ele>
        <time>2020-06-26T08:25:57Z</time>
      </trkpt>
      <trkpt lat="49.65866" lon="5.89876">
        <ele>331.1</ele>
        <time>2020-06-26T08:25:58Z</time>
      </trkpt>
      <trkpt lat="49.65866" lon="5.89885">
        <ele>331</ele>
        <time>2020-06-26T08:25:59Z</time>
      </trkpt>
      <trkpt lat="49.65866" lon="5.89894">
        <ele>331</ele>
        <time>2020-06-26T08:26:00Z</time>
      </trkpt>
      <trkpt lat="49.65866" lon="5.89903">
        <ele>330.9</ele>
        <time>2020-06-26T08:26:01Z</time>
      </trkpt>
      <trkpt lat="49.65867" lon="5.89913">
        <ele>330.9</ele>
        <time>2020-06-26T08:26:02Z</time>
      </trkpt>
      <trkpt lat="49.65867" lon="5.89923">
        <ele>330.8</ele>
        <time>2020-06-26T08:26:03Z</time>
      </trkpt>
      <trkpt lat="49.65867" lon="5.89933">
        <ele>330.7</ele>
        <time>2020-06-26T08:26:04Z</time>
      </trkpt>
      <trkpt lat="49.65867" lon="5.89944">
        <ele>330.7</ele>
        <time>2020-06-26T08:26:05Z</time>
      </trkpt>
      <trkpt lat="49.65867" lon="5.89954">
        <ele>330.6</ele>
        <time>2020-06-26T08:26:06Z</time>
      </trkpt>
      <trkpt lat="49.65867" lon="5.89965">
        <ele>330.5</ele>
        <time>2020-06-26T08:26:07Z</time>
      </trkpt>
      <trkpt lat="49.65868" lon="5.89973">
        <ele>330.4</ele>
        <time>2020-06-26T08:26:08Z</time>
      </trkpt>
      <trkpt lat="49.65868" lon="5.89983">
        <ele>330.3</ele>
        <time>2020-06-26T08:26:09Z</time>
      </trkpt>
      <trkpt lat="49.65868" lon="5.89992">
        <ele>330.3</ele>
        <time>2020-06-26T08:26:10Z</time>
      </trkpt>
      <trkpt lat="49.65868" lon="5.90001">
        <ele>330.2</ele>
        <time>2020-06-26T08:26:11Z</time>
      </trkpt>
      <trkpt lat="49.65868" lon="5.90011">
        <ele>330.1</ele>
        <time>2020-06-26T08:26:12Z</time>
      </trkpt>
      <trkpt lat="49.65868" lon="5.90021">
        <ele>330</ele>
        <time>2020-06-26T08:26:13Z</time>
      </trkpt>
      <trkpt lat="49.65869" lon="5.90031">
        <ele>329.9</ele>
        <time>2020-06-26T08:26:14Z</time>
      </trkpt>
      <trkpt lat="49.65869" lon="5.90041">
        <ele>329.9</ele>
        <time>2020-06-26T08:26:15Z</time>
      </trkpt>
      <trkpt lat="49.65869" lon="5.9005">
        <ele>329.8</ele>
        <time>2020-06-26T08:26:16Z</time>
      </trkpt>
      <trkpt lat="49.65869" lon="5.9006">
        <ele>329.8</ele>
        <time>2020-06-26T08:26:17Z</time>
      </trkpt>
      <trkpt lat="49.65869" lon="5.90069">
        <ele>329.7</ele>
        <time>2020-06-26T08:26:18Z</time>
      </trkpt>
      <trkpt lat="49.6587" lon="5.9008">
        <ele>329.6</ele>
        <time>2020-06-26T08:26:19Z</time>
      </trkpt>
      <trkpt lat="49.6587" lon="5.90089">
        <ele>329.5</ele>
        <time>2020-06-26T08:26:20Z</time>
      </trkpt>
      <trkpt lat="49.6587" lon="5.90098">
        <ele>329.4</ele>
        <time>2020-06-26T08:26:21Z</time>
      </trkpt>
      <trkpt lat="49.6587" lon="5.90108">
        <ele>329.4</ele>
        <time>2020-06-26T08:26:22Z</time>
      </trkpt>
      <trkpt lat="49.6587" lon="5.90118">
        <ele>329.3</ele>
        <time>2020-06-26T08:26:23Z</time>
      </trkpt>
      <trkpt lat="49.6587" lon="5.90127">
        <ele>329.3</ele>
        <time>2020-06-26T08:26:24Z</time>
      </trkpt>
      <trkpt lat="49.65871" lon="5.90136">
        <ele>329.2</ele>
        <time>2020-06-26T08:26:25Z</time>
      </trkpt>
      <trkpt lat="49.65871" lon="5.90147">
        <ele>329.2</ele>
        <time>2020-06-26T08:26:26Z</time>
      </trkpt>
      <trkpt lat="49.65871" lon="5.90156">
        <ele>329.1</ele>
        <time>2020-06-26T08:26:27Z</time>
      </trkpt>
      <trkpt lat="49.65871" lon="5.90164">
        <ele>329.1</ele>
        <time>2020-06-26T08:26:28Z</time>
      </trkpt>
      <trkpt lat="49.65871" lon="5.90174">
        <ele>329</ele>
        <time>2020-06-26T08:26:29Z</time>
      </trkpt>
      <trkpt lat="49.65871" lon="5.90183">
        <ele>329</ele>
        <time>2020-06-26T08:26:30Z</time>
      </trkpt>
      <trkpt lat="49.65871" lon="5.90193">
        <ele>328.9</ele>
        <time>2020-06-26T08:26:31Z</time>
      </trkpt>
      <trkpt lat="49.65871" lon="5.90203">
        <ele>328.8</ele>
        <time>2020-06-26T08:26:32Z</time>
      </trkpt>
      <trkpt lat="49.65871" lon="5.90212">
        <ele>328.7</ele>
        <time>2020-06-26T08:26:33Z</time>
      </trkpt>
      <trkpt lat="49.65871" lon="5.90221">
        <ele>328.6</ele>
        <time>2020-06-26T08:26:34Z</time>
      </trkpt>
      <trkpt lat="49.65872" lon="5.9023">
        <ele>328.5</ele>
        <time>2020-06-26T08:26:35Z</time>
      </trkpt>
      <trkpt lat="49.65872" lon="5.90242">
        <ele>328.3</ele>
        <time>2020-06-26T08:26:36Z</time>
      </trkpt>
      <trkpt lat="49.65872" lon="5.90251">
        <ele>328.3</ele>
        <time>2020-06-26T08:26:37Z</time>
      </trkpt>
      <trkpt lat="49.65872" lon="5.90259">
        <ele>328.2</ele>
        <time>2020-06-26T08:26:38Z</time>
      </trkpt>
      <trkpt lat="49.65873" lon="5.90268">
        <ele>328.1</ele>
        <time>2020-06-26T08:26:39Z</time>
      </trkpt>
      <trkpt lat="49.65873" lon="5.90278">
        <ele>328</ele>
        <time>2020-06-26T08:26:40Z</time>
      </trkpt>
      <trkpt lat="49.65873" lon="5.90287">
        <ele>328</ele>
        <time>2020-06-26T08:26:41Z</time>
      </trkpt>
      <trkpt lat="49.65873" lon="5.90295">
        <ele>327.9</ele>
        <time>2020-06-26T08:26:42Z</time>
      </trkpt>
      <trkpt lat="49.65874" lon="5.90304">
        <ele>327.8</ele>
        <time>2020-06-26T08:26:43Z</time>
      </trkpt>
      <trkpt lat="49.65874" lon="5.90312">
        <ele>327.7</ele>
        <time>2020-06-26T08:26:44Z</time>
      </trkpt>
      <trkpt lat="49.65874" lon="5.9032">
        <ele>327.6</ele>
        <time>2020-06-26T08:26:45Z</time>
      </trkpt>
      <trkpt lat="49.65874" lon="5.90329">
        <ele>327.5</ele>
        <time>2020-06-26T08:26:46Z</time>
      </trkpt>
      <trkpt lat="49.65874" lon="5.90338">
        <ele>327.4</ele>
        <time>2020-06-26T08:26:47Z</time>
      </trkpt>
      <trkpt lat="49.65874" lon="5.90346">
        <ele>327.3</ele>
        <time>2020-06-26T08:26:48Z</time>
      </trkpt>
      <trkpt lat="49.65874" lon="5.90353">
        <ele>327.2</ele>
        <time>2020-06-26T08:26:49Z</time>
      </trkpt>
      <trkpt lat="49.65874" lon="5.90362">
        <ele>327.1</ele>
        <time>2020-06-26T08:26:50Z</time>
      </trkpt>
      <trkpt lat="49.65875" lon="5.90371">
        <ele>327.1</ele>
        <time>2020-06-26T08:26:51Z</time>
      </trkpt>
      <trkpt lat="49.65874" lon="5.90377">
        <ele>327</ele>
        <time>2020-06-26T08:26:52Z</time>
      </trkpt>
      <trkpt lat="49.65874" lon="5.90384">
        <ele>327</ele>
        <time>2020-06-26T08:26:53Z</time>
      </trkpt>
      <trkpt lat="49.65875" lon="5.90388">
        <ele>326.9</ele>
        <time>2020-06-26T08:26:54Z</time>
      </trkpt>
      <trkpt lat="49.65875" lon="5.90394">
        <ele>326.9</ele>
        <time>2020-06-26T08:26:55Z</time>
      </trkpt>
      <trkpt lat="49.65875" lon="5.90397">
        <ele>326.9</ele>
        <time>2020-06-26T08:26:56Z</time>
      </trkpt>
      <trkpt lat="49.65874" lon="5.90401">
        <ele>326.8</ele>
        <time>2020-06-26T08:26:57Z</time>
      </trkpt>
      <trkpt lat="49.65874" lon="5.90407">
        <ele>326.8</ele>
        <time>2020-06-26T08:26:58Z</time>
      </trkpt>
      <trkpt lat="49.65874" lon="5.90413">
        <ele>326.8</ele>
        <time>2020-06-26T08:26:59Z</time>
      </trkpt>
      <trkpt lat="49.65874" lon="5.90419">
        <ele>326.7</ele>
        <time>2020-06-26T08:27:00Z</time>
      </trkpt>
      <trkpt lat="49.65875" lon="5.90423">
        <ele>326.7</ele>
        <time>2020-06-26T08:27:01Z</time>
      </trkpt>
      <trkpt lat="49.65874" lon="5.90429">
        <ele>326.6</ele>
        <time>2020-06-26T08:27:02Z</time>
      </trkpt>
      <trkpt lat="49.65874" lon="5.9043">
        <ele>326.6</ele>
        <time>2020-06-26T08:27:03Z</time>
      </trkpt>
      <trkpt lat="49.65874" lon="5.90432">
        <ele>326.6</ele>
        <time>2020-06-26T08:27:04Z</time>
      </trkpt>
      <trkpt lat="49.65874" lon="5.90431">
        <ele>326.6</ele>
        <time>2020-06-26T08:27:05Z</time>
      </trkpt>
      <trkpt lat="49.65874" lon="5.90431">
        <ele>326.6</ele>
        <time>2020-06-26T08:27:06Z</time>
      </trkpt>
      <trkpt lat="49.65874" lon="5.90431">
        <ele>326.6</ele>
        <time>2020-06-26T08:27:07Z</time>
      </trkpt>
      <trkpt lat="49.65874" lon="5.90431">
        <ele>326.6</ele>
        <time>2020-06-26T08:27:08Z</time>
      </trkpt>
      <trkpt lat="49.65874" lon="5.90432">
        <ele>326.6</ele>
        <time>2020-06-26T08:27:09Z</time>
      </trkpt>
      <trkpt lat="49.65874" lon="5.90433">
        <ele>326.6</ele>
        <time>2020-06-26T08:27:10Z</time>
      </trkpt>
      <trkpt lat="49.65874" lon="5.90433">
        <ele>326.6</ele>
        <time>2020-06-26T08:27:11Z</time>
      </trkpt>
      <trkpt lat="49.65874" lon="5.90433">
        <ele>326.6</ele>
        <time>2020-06-26T08:27:12Z</time>
      </trkpt>
      <trkpt lat="49.65874" lon="5.90433">
        <ele>326.6</ele>
        <time>2020-06-26T08:27:13Z</time>
      </trkpt>
      <trkpt lat="49.65874" lon="5.90433">
        <ele>326.6</ele>
        <time>2020-06-26T08:27:14Z</time>
      </trkpt>
      <trkpt lat="49.65873" lon="5.90433">
        <ele>326.6</ele>
        <time>2020-06-26T08:27:15Z</time>
      </trkpt>
      <trkpt lat="49.65873" lon="5.90433">
        <ele>326.6</ele>
        <time>2020-06-26T08:27:16Z</time>
      </trkpt>
      <trkpt lat="49.6588" lon="5.90436">
        <ele>326.5</ele>
        <time>2020-06-26T08:29:40Z</time>
      </trkpt>
      <trkpt lat="49.65881" lon="5.90438">
        <ele>326.5</ele>
        <time>2020-06-26T08:29:41Z</time>
      </trkpt>
      <trkpt lat="49.65881" lon="5.90443">
        <ele>326.5</ele>
        <time>2020-06-26T08:29:42Z</time>
      </trkpt>
      <trkpt lat="49.65881" lon="5.90445">
        <ele>326.5</ele>
        <time>2020-06-26T08:29:43Z</time>
      </trkpt>
      <trkpt lat="49.65881" lon="5.9045">
        <ele>326.5</ele>
        <time>2020-06-26T08:29:44Z</time>
      </trkpt>
      <trkpt lat="49.65882" lon="5.90452">
        <ele>326.4</ele>
        <time>2020-06-26T08:29:45Z</time>
      </trkpt>
      <trkpt lat="49.65881" lon="5.90456">
        <ele>326.4</ele>
        <time>2020-06-26T08:29:46Z</time>
      </trkpt>
      <trkpt lat="49.6588" lon="5.90461">
        <ele>326.4</ele>
        <time>2020-06-26T08:29:47Z</time>
      </trkpt>
      <trkpt lat="49.65879" lon="5.90467">
        <ele>326.3</ele>
        <time>2020-06-26T08:29:48Z</time>
      </trkpt>
      <trkpt lat="49.65878" lon="5.90473">
        <ele>326.3</ele>
        <time>2020-06-26T08:29:49Z</time>
      </trkpt>
      <trkpt lat="49.65878" lon="5.90479">
        <ele>326.2</ele>
        <time>2020-06-26T08:29:50Z</time>
      </trkpt>
      <trkpt lat="49.65878" lon="5.90485">
        <ele>326.2</ele>
        <time>2020-06-26T08:29:51Z</time>
      </trkpt>
      <trkpt lat="49.65878" lon="5.90492">
        <ele>326.2</ele>
        <time>2020-06-26T08:29:52Z</time>
      </trkpt>
      <trkpt lat="49.65877" lon="5.90498">
        <ele>326.1</ele>
        <time>2020-06-26T08:29:53Z</time>
      </trkpt>
      <trkpt lat="49.65878" lon="5.90503">
        <ele>326.1</ele>
        <time>2020-06-26T08:29:54Z</time>
      </trkpt>
      <trkpt lat="49.65878" lon="5.90509">
        <ele>326</ele>
        <time>2020-06-26T08:29:55Z</time>
      </trkpt>
      <trkpt lat="49.65878" lon="5.90515">
        <ele>326</ele>
        <time>2020-06-26T08:29:56Z</time>
      </trkpt>
      <trkpt lat="49.65877" lon="5.90522">
        <ele>325.9</ele>
        <time>2020-06-26T08:29:57Z</time>
      </trkpt>
      <trkpt lat="49.65877" lon="5.90525">
        <ele>325.9</ele>
        <time>2020-06-26T08:29:58Z</time>
      </trkpt>
      <trkpt lat="49.65877" lon="5.9053">
        <ele>325.8</ele>
        <time>2020-06-26T08:29:59Z</time>
      </trkpt>
      <trkpt lat="49.65878" lon="5.90536">
        <ele>325.8</ele>
        <time>2020-06-26T08:30:00Z</time>
      </trkpt>
      <trkpt lat="49.6588" lon="5.90542">
        <ele>325.7</ele>
        <time>2020-06-26T08:30:01Z</time>
      </trkpt>
      <trkpt lat="49.65879" lon="5.90547">
        <ele>325.7</ele>
        <time>2020-06-26T08:30:02Z</time>
      </trkpt>
      <trkpt lat="49.65879" lon="5.90553">
        <ele>325.6</ele>
        <time>2020-06-26T08:30:03Z</time>
      </trkpt>
      <trkpt lat="49.65879" lon="5.90558">
        <ele>325.6</ele>
        <time>2020-06-26T08:30:04Z</time>
      </trkpt>
      <trkpt lat="49.65878" lon="5.90564">
        <ele>325.5</ele>
        <time>2020-06-26T08:30:05Z</time>
      </trkpt>
      <trkpt lat="49.65877" lon="5.9057">
        <ele>325.5</ele>
        <time>2020-06-26T08:30:06Z</time>
      </trkpt>
      <trkpt lat="49.65877" lon="5.90577">
        <ele>325.5</ele>
        <time>2020-06-26T08:30:07Z</time>
      </trkpt>
      <trkpt lat="49.65879" lon="5.90583">
        <ele>325.4</ele>
        <time>2020-06-26T08:30:08Z</time>
      </trkpt>
      <trkpt lat="49.65879" lon="5.90591">
        <ele>325.4</ele>
        <time>2020-06-26T08:30:09Z</time>
      </trkpt>
      <trkpt lat="49.65879" lon="5.90597">
        <ele>325.3</ele>
        <time>2020-06-26T08:30:10Z</time>
      </trkpt>
      <trkpt lat="49.65879" lon="5.90603">
        <ele>325.3</ele>
        <time>2020-06-26T08:30:11Z</time>
      </trkpt>
      <trkpt lat="49.65879" lon="5.90609">
        <ele>325.2</ele>
        <time>2020-06-26T08:30:12Z</time>
      </trkpt>
      <trkpt lat="49.65879" lon="5.90615">
        <ele>325.1</ele>
        <time>2020-06-26T08:30:13Z</time>
      </trkpt>
      <trkpt lat="49.65878" lon="5.90622">
        <ele>325.1</ele>
        <time>2020-06-26T08:30:14Z</time>
      </trkpt>
      <trkpt lat="49.65878" lon="5.90629">
        <ele>325</ele>
        <time>2020-06-26T08:30:15Z</time>
      </trkpt>
      <trkpt lat="49.65877" lon="5.90635">
        <ele>324.9</ele>
        <time>2020-06-26T08:30:16Z</time>
      </trkpt>
      <trkpt lat="49.65876" lon="5.90641">
        <ele>324.9</ele>
        <time>2020-06-26T08:30:17Z</time>
      </trkpt>
      <trkpt lat="49.65877" lon="5.90648">
        <ele>324.8</ele>
        <time>2020-06-26T08:30:18Z</time>
      </trkpt>
      <trkpt lat="49.65877" lon="5.90654">
        <ele>324.8</ele>
        <time>2020-06-26T08:30:19Z</time>
      </trkpt>
      <trkpt lat="49.65878" lon="5.90662">
        <ele>324.7</ele>
        <time>2020-06-26T08:30:20Z</time>
      </trkpt>
      <trkpt lat="49.65878" lon="5.90669">
        <ele>324.6</ele>
        <time>2020-06-26T08:30:21Z</time>
      </trkpt>
      <trkpt lat="49.65878" lon="5.90676">
        <ele>324.6</ele>
        <time>2020-06-26T08:30:22Z</time>
      </trkpt>
      <trkpt lat="49.65878" lon="5.90683">
        <ele>324.5</ele>
        <time>2020-06-26T08:30:23Z</time>
      </trkpt>
      <trkpt lat="49.65878" lon="5.9069">
        <ele>324.4</ele>
        <time>2020-06-26T08:30:24Z</time>
      </trkpt>
      <trkpt lat="49.65878" lon="5.90697">
        <ele>324.3</ele>
        <time>2020-06-26T08:30:25Z</time>
      </trkpt>
      <trkpt lat="49.65879" lon="5.90704">
        <ele>324.3</ele>
        <time>2020-06-26T08:30:26Z</time>
      </trkpt>
      <trkpt lat="49.65878" lon="5.90711">
        <ele>324.2</ele>
        <time>2020-06-26T08:30:27Z</time>
      </trkpt>
      <trkpt lat="49.65878" lon="5.90717">
        <ele>324.1</ele>
        <time>2020-06-26T08:30:28Z</time>
      </trkpt>
      <trkpt lat="49.65879" lon="5.90724">
        <ele>324.1</ele>
        <time>2020-06-26T08:30:29Z</time>
      </trkpt>
      <trkpt lat="49.65879" lon="5.90731">
        <ele>324</ele>
        <time>2020-06-26T08:30:30Z</time>
      </trkpt>
      <trkpt lat="49.6588" lon="5.90739">
        <ele>323.9</ele>
        <time>2020-06-26T08:30:31Z</time>
      </trkpt>
      <trkpt lat="49.6588" lon="5.90746">
        <ele>323.8</ele>
        <time>2020-06-26T08:30:32Z</time>
      </trkpt>
      <trkpt lat="49.65879" lon="5.90754">
        <ele>323.7</ele>
        <time>2020-06-26T08:30:33Z</time>
      </trkpt>
      <trkpt lat="49.65879" lon="5.90761">
        <ele>323.6</ele>
        <time>2020-06-26T08:30:34Z</time>
      </trkpt>
      <trkpt lat="49.65879" lon="5.90768">
        <ele>323.5</ele>
        <time>2020-06-26T08:30:35Z</time>
      </trkpt>
      <trkpt lat="49.6588" lon="5.90776">
        <ele>323.3</ele>
        <time>2020-06-26T08:30:36Z</time>
      </trkpt>
      <trkpt lat="49.65881" lon="5.90783">
        <ele>323.2</ele>
        <time>2020-06-26T08:30:37Z</time>
      </trkpt>
      <trkpt lat="49.65881" lon="5.90791">
        <ele>323.1</ele>
        <time>2020-06-26T08:30:38Z</time>
      </trkpt>
      <trkpt lat="49.65881" lon="5.90799">
        <ele>323</ele>
        <time>2020-06-26T08:30:39Z</time>
      </trkpt>
      <trkpt lat="49.6588" lon="5.90807">
        <ele>322.9</ele>
        <time>2020-06-26T08:30:40Z</time>
      </trkpt>
      <trkpt lat="49.6588" lon="5.90815">
        <ele>322.7</ele>
        <time>2020-06-26T08:30:41Z</time>
      </trkpt>
      <trkpt lat="49.6588" lon="5.90823">
        <ele>322.6</ele>
        <time>2020-06-26T08:30:42Z</time>
      </trkpt>
      <trkpt lat="49.6588" lon="5.90832">
        <ele>322.4</ele>
        <time>2020-06-26T08:30:43Z</time>
      </trkpt>
      <trkpt lat="49.65879" lon="5.90841">
        <ele>322.3</ele>
        <time>2020-06-26T08:30:44Z</time>
      </trkpt>
      <trkpt lat="49.65879" lon="5.90849">
        <ele>322.1</ele>
        <time>2020-06-26T08:30:45Z</time>
      </trkpt>
      <trkpt lat="49.65878" lon="5.90858">
        <ele>321.9</ele>
        <time>2020-06-26T08:30:46Z</time>
      </trkpt>
      <trkpt lat="49.65879" lon="5.90867">
        <ele>321.7</ele>
        <time>2020-06-26T08:30:47Z</time>
      </trkpt>
      <trkpt lat="49.65879" lon="5.90877">
        <ele>321.5</ele>
        <time>2020-06-26T08:30:48Z</time>
      </trkpt>
      <trkpt lat="49.65879" lon="5.90887">
        <ele>321.3</ele>
        <time>2020-06-26T08:30:49Z</time>
      </trkpt>
      <trkpt lat="49.6588" lon="5.90898">
        <ele>320.8</ele>
        <time>2020-06-26T08:30:50Z</time>
      </trkpt>
      <trkpt lat="49.6588" lon="5.90908">
        <ele>320.4</ele>
        <time>2020-06-26T08:30:51Z</time>
      </trkpt>
      <trkpt lat="49.6588" lon="5.9092">
        <ele>320</ele>
        <time>2020-06-26T08:30:52Z</time>
      </trkpt>
      <trkpt lat="49.6588" lon="5.90931">
        <ele>319.7</ele>
        <time>2020-06-26T08:30:53Z</time>
      </trkpt>
      <trkpt lat="49.65881" lon="5.90943">
        <ele>319.2</ele>
        <time>2020-06-26T08:30:54Z</time>
      </trkpt>
      <trkpt lat="49.65881" lon="5.90955">
        <ele>318.8</ele>
        <time>2020-06-26T08:30:55Z</time>
      </trkpt>
      <trkpt lat="49.65883" lon="5.90966">
        <ele>318.4</ele>
        <time>2020-06-26T08:30:56Z</time>
      </trkpt>
      <trkpt lat="49.65885" lon="5.90977">
        <ele>318</ele>
        <time>2020-06-26T08:30:57Z</time>
      </trkpt>
      <trkpt lat="49.65885" lon="5.90988">
        <ele>317.6</ele>
        <time>2020-06-26T08:30:58Z</time>
      </trkpt>
      <trkpt lat="49.65886" lon="5.90999">
        <ele>317.1</ele>
        <time>2020-06-26T08:30:59Z</time>
      </trkpt>
      <trkpt lat="49.65885" lon="5.91009">
        <ele>316.9</ele>
        <time>2020-06-26T08:31:00Z</time>
      </trkpt>
      <trkpt lat="49.65885" lon="5.91018">
        <ele>316.6</ele>
        <time>2020-06-26T08:31:01Z</time>
      </trkpt>
      <trkpt lat="49.65886" lon="5.91028">
        <ele>316.3</ele>
        <time>2020-06-26T08:31:02Z</time>
      </trkpt>
      <trkpt lat="49.65887" lon="5.91035">
        <ele>316.1</ele>
        <time>2020-06-26T08:31:03Z</time>
      </trkpt>
      <trkpt lat="49.65888" lon="5.91043">
        <ele>315.9</ele>
        <time>2020-06-26T08:31:04Z</time>
      </trkpt>
      <trkpt lat="49.6589" lon="5.91051">
        <ele>315.6</ele>
        <time>2020-06-26T08:31:05Z</time>
      </trkpt>
      <trkpt lat="49.6589" lon="5.91058">
        <ele>315.4</ele>
        <time>2020-06-26T08:31:06Z</time>
      </trkpt>
      <trkpt lat="49.65888" lon="5.91064">
        <ele>315.3</ele>
        <time>2020-06-26T08:31:07Z</time>
      </trkpt>
      <trkpt lat="49.65888" lon="5.91069">
        <ele>315.1</ele>
        <time>2020-06-26T08:31:08Z</time>
      </trkpt>
      <trkpt lat="49.65888" lon="5.91073">
        <ele>315.1</ele>
        <time>2020-06-26T08:31:09Z</time>
      </trkpt>
      <trkpt lat="49.65889" lon="5.91077">
        <ele>315.1</ele>
        <time>2020-06-26T08:31:10Z</time>
      </trkpt>
      <trkpt lat="49.65889" lon="5.91079">
        <ele>315.1</ele>
        <time>2020-06-26T08:31:11Z</time>
      </trkpt>
      <trkpt lat="49.6589" lon="5.91085">
        <ele>315.1</ele>
        <time>2020-06-26T08:31:12Z</time>
      </trkpt>
      <trkpt lat="49.6589" lon="5.91087">
        <ele>315</ele>
        <time>2020-06-26T08:31:13Z</time>
      </trkpt>
      <trkpt lat="49.65891" lon="5.91093">
        <ele>314.8</ele>
        <time>2020-06-26T08:31:14Z</time>
      </trkpt>
      <trkpt lat="49.65892" lon="5.911">
        <ele>314.6</ele>
        <time>2020-06-26T08:31:15Z</time>
      </trkpt>
      <trkpt lat="49.65891" lon="5.91108">
        <ele>314.2</ele>
        <time>2020-06-26T08:31:16Z</time>
      </trkpt>
      <trkpt lat="49.65891" lon="5.91116">
        <ele>313.9</ele>
        <time>2020-06-26T08:31:17Z</time>
      </trkpt>
      <trkpt lat="49.6589" lon="5.91123">
        <ele>313.4</ele>
        <time>2020-06-26T08:31:18Z</time>
      </trkpt>
      <trkpt lat="49.65889" lon="5.91131">
        <ele>312.9</ele>
        <time>2020-06-26T08:31:19Z</time>
      </trkpt>
      <trkpt lat="49.65888" lon="5.9114">
        <ele>312.3</ele>
        <time>2020-06-26T08:31:20Z</time>
      </trkpt>
      <trkpt lat="49.65887" lon="5.91148">
        <ele>311.8</ele>
        <time>2020-06-26T08:31:21Z</time>
      </trkpt>
      <trkpt lat="49.65889" lon="5.91157">
        <ele>311.4</ele>
        <time>2020-06-26T08:31:22Z</time>
      </trkpt>
      <trkpt lat="49.6589" lon="5.91167">
        <ele>311.3</ele>
        <time>2020-06-26T08:31:23Z</time>
      </trkpt>
      <trkpt lat="49.6589" lon="5.91178">
        <ele>311</ele>
        <time>2020-06-26T08:31:24Z</time>
      </trkpt>
      <trkpt lat="49.65889" lon="5.91188">
        <ele>310.8</ele>
        <time>2020-06-26T08:31:25Z</time>
      </trkpt>
      <trkpt lat="49.65888" lon="5.91199">
        <ele>310.1</ele>
        <time>2020-06-26T08:31:26Z</time>
      </trkpt>
      <trkpt lat="49.65888" lon="5.9121">
        <ele>309.6</ele>
        <time>2020-06-26T08:31:27Z</time>
      </trkpt>
      <trkpt lat="49.65889" lon="5.9122">
        <ele>309.2</ele>
        <time>2020-06-26T08:31:28Z</time>
      </trkpt>
      <trkpt lat="49.65891" lon="5.9123">
        <ele>308.7</ele>
        <time>2020-06-26T08:31:29Z</time>
      </trkpt>
      <trkpt lat="49.65895" lon="5.91239">
        <ele>308.3</ele>
        <time>2020-06-26T08:31:30Z</time>
      </trkpt>
      <trkpt lat="49.65899" lon="5.91248">
        <ele>307.5</ele>
        <time>2020-06-26T08:31:31Z</time>
      </trkpt>
      <trkpt lat="49.65903" lon="5.91256">
        <ele>307.4</ele>
        <time>2020-06-26T08:31:32Z</time>
      </trkpt>
      <trkpt lat="49.65907" lon="5.91265">
        <ele>307.3</ele>
        <time>2020-06-26T08:31:33Z</time>
      </trkpt>
      <trkpt lat="49.65911" lon="5.91274">
        <ele>307.2</ele>
        <time>2020-06-26T08:31:34Z</time>
      </trkpt>
      <trkpt lat="49.65914" lon="5.91283">
        <ele>307</ele>
        <time>2020-06-26T08:31:35Z</time>
      </trkpt>
      <trkpt lat="49.65915" lon="5.9129">
        <ele>306.7</ele>
        <time>2020-06-26T08:31:36Z</time>
      </trkpt>
      <trkpt lat="49.65917" lon="5.91295">
        <ele>306.5</ele>
        <time>2020-06-26T08:31:37Z</time>
      </trkpt>
      <trkpt lat="49.65919" lon="5.91299">
        <ele>305.9</ele>
        <time>2020-06-26T08:31:38Z</time>
      </trkpt>
      <trkpt lat="49.65921" lon="5.91305">
        <ele>305.8</ele>
        <time>2020-06-26T08:31:39Z</time>
      </trkpt>
      <trkpt lat="49.65924" lon="5.91311">
        <ele>305.6</ele>
        <time>2020-06-26T08:31:40Z</time>
      </trkpt>
      <trkpt lat="49.65927" lon="5.91317">
        <ele>305.5</ele>
        <time>2020-06-26T08:31:41Z</time>
      </trkpt>
      <trkpt lat="49.65929" lon="5.91322">
        <ele>305.4</ele>
        <time>2020-06-26T08:31:42Z</time>
      </trkpt>
      <trkpt lat="49.65931" lon="5.91325">
        <ele>305.2</ele>
        <time>2020-06-26T08:31:43Z</time>
      </trkpt>
      <trkpt lat="49.65932" lon="5.91327">
        <ele>305.3</ele>
        <time>2020-06-26T08:31:44Z</time>
      </trkpt>
      <trkpt lat="49.65933" lon="5.91328">
        <ele>305.3</ele>
        <time>2020-06-26T08:31:45Z</time>
      </trkpt>
      <trkpt lat="49.65933" lon="5.91328">
        <ele>305.3</ele>
        <time>2020-06-26T08:31:46Z</time>
      </trkpt>
      <trkpt lat="49.65933" lon="5.91329">
        <ele>305.3</ele>
        <time>2020-06-26T08:31:47Z</time>
      </trkpt>
      <trkpt lat="49.65932" lon="5.91329">
        <ele>305.3</ele>
        <time>2020-06-26T08:31:48Z</time>
      </trkpt>
      <trkpt lat="49.65932" lon="5.9133">
        <ele>305.3</ele>
        <time>2020-06-26T08:31:49Z</time>
      </trkpt>
      <trkpt lat="49.65932" lon="5.9133">
        <ele>305.3</ele>
        <time>2020-06-26T08:31:50Z</time>
      </trkpt>
      <trkpt lat="49.65932" lon="5.9133">
        <ele>305.3</ele>
        <time>2020-06-26T08:31:51Z</time>
      </trkpt>
      <trkpt lat="49.65932" lon="5.9133">
        <ele>305.3</ele>
        <time>2020-06-26T08:31:52Z</time>
      </trkpt>
      <trkpt lat="49.65933" lon="5.9133">
        <ele>305.3</ele>
        <time>2020-06-26T08:31:53Z</time>
      </trkpt>
      <trkpt lat="49.65932" lon="5.9133">
        <ele>305.3</ele>
        <time>2020-06-26T08:31:54Z</time>
      </trkpt>
      <trkpt lat="49.65931" lon="5.9133">
        <ele>305.3</ele>
        <time>2020-06-26T08:31:55Z</time>
      </trkpt>
      <trkpt lat="49.65929" lon="5.91329">
        <ele>305.3</ele>
        <time>2020-06-26T08:32:01Z</time>
      </trkpt>
      <trkpt lat="49.65927" lon="5.91327">
        <ele>305.4</ele>
        <time>2020-06-26T08:32:02Z</time>
      </trkpt>
      <trkpt lat="49.65925" lon="5.91323">
        <ele>305.4</ele>
        <time>2020-06-26T08:32:03Z</time>
      </trkpt>
      <trkpt lat="49.65923" lon="5.91322">
        <ele>305.8</ele>
        <time>2020-06-26T08:32:04Z</time>
      </trkpt>
      <trkpt lat="49.6592" lon="5.91319">
        <ele>305.7</ele>
        <time>2020-06-26T08:32:05Z</time>
      </trkpt>
      <trkpt lat="49.65918" lon="5.91318">
        <ele>305.6</ele>
        <time>2020-06-26T08:32:06Z</time>
      </trkpt>
      <trkpt lat="49.65915" lon="5.91318">
        <ele>305.5</ele>
        <time>2020-06-26T08:32:07Z</time>
      </trkpt>
      <trkpt lat="49.65913" lon="5.91318">
        <ele>305.5</ele>
        <time>2020-06-26T08:32:08Z</time>
      </trkpt>
      <trkpt lat="49.65911" lon="5.91319">
        <ele>305.4</ele>
        <time>2020-06-26T08:32:09Z</time>
      </trkpt>
      <trkpt lat="49.65908" lon="5.91318">
        <ele>305.4</ele>
        <time>2020-06-26T08:32:10Z</time>
      </trkpt>
      <trkpt lat="49.65904" lon="5.91317">
        <ele>305.3</ele>
        <time>2020-06-26T08:32:11Z</time>
      </trkpt>
      <trkpt lat="49.65901" lon="5.91316">
        <ele>305.2</ele>
        <time>2020-06-26T08:32:12Z</time>
      </trkpt>
      <trkpt lat="49.65899" lon="5.91318">
        <ele>305.1</ele>
        <time>2020-06-26T08:32:13Z</time>
      </trkpt>
      <trkpt lat="49.65896" lon="5.91317">
        <ele>305.1</ele>
        <time>2020-06-26T08:32:14Z</time>
      </trkpt>
      <trkpt lat="49.65893" lon="5.91317">
        <ele>305.1</ele>
        <time>2020-06-26T08:32:15Z</time>
      </trkpt>
      <trkpt lat="49.6589" lon="5.91317">
        <ele>305.1</ele>
        <time>2020-06-26T08:32:16Z</time>
      </trkpt>
      <trkpt lat="49.65886" lon="5.91318">
        <ele>305.2</ele>
        <time>2020-06-26T08:32:17Z</time>
      </trkpt>
      <trkpt lat="49.65882" lon="5.91318">
        <ele>305.2</ele>
        <time>2020-06-26T08:32:18Z</time>
      </trkpt>
      <trkpt lat="49.65878" lon="5.91317">
        <ele>305.2</ele>
        <time>2020-06-26T08:32:19Z</time>
      </trkpt>
      <trkpt lat="49.65874" lon="5.91318">
        <ele>305.3</ele>
        <time>2020-06-26T08:32:20Z</time>
      </trkpt>
      <trkpt lat="49.65869" lon="5.91319">
        <ele>305.3</ele>
        <time>2020-06-26T08:32:21Z</time>
      </trkpt>
      <trkpt lat="49.65865" lon="5.9132">
        <ele>305.3</ele>
        <time>2020-06-26T08:32:22Z</time>
      </trkpt>
      <trkpt lat="49.65861" lon="5.9132">
        <ele>305.7</ele>
        <time>2020-06-26T08:32:23Z</time>
      </trkpt>
      <trkpt lat="49.65858" lon="5.91322">
        <ele>305.8</ele>
        <time>2020-06-26T08:32:24Z</time>
      </trkpt>
      <trkpt lat="49.65854" lon="5.91324">
        <ele>306</ele>
        <time>2020-06-26T08:32:25Z</time>
      </trkpt>
      <trkpt lat="49.6585" lon="5.91326">
        <ele>305.8</ele>
        <time>2020-06-26T08:32:26Z</time>
      </trkpt>
      <trkpt lat="49.65846" lon="5.91329">
        <ele>305.7</ele>
        <time>2020-06-26T08:32:27Z</time>
      </trkpt>
      <trkpt lat="49.65841" lon="5.91333">
        <ele>305.6</ele>
        <time>2020-06-26T08:32:28Z</time>
      </trkpt>
      <trkpt lat="49.65837" lon="5.91336">
        <ele>305.6</ele>
        <time>2020-06-26T08:32:29Z</time>
      </trkpt>
      <trkpt lat="49.65832" lon="5.91338">
        <ele>305.6</ele>
        <time>2020-06-26T08:32:30Z</time>
      </trkpt>
      <trkpt lat="49.65829" lon="5.91342">
        <ele>305.7</ele>
        <time>2020-06-26T08:32:31Z</time>
      </trkpt>
      <trkpt lat="49.65825" lon="5.91344">
        <ele>305.9</ele>
        <time>2020-06-26T08:32:32Z</time>
      </trkpt>
      <trkpt lat="49.65821" lon="5.91346">
        <ele>306</ele>
        <time>2020-06-26T08:32:33Z</time>
      </trkpt>
      <trkpt lat="49.65816" lon="5.91348">
        <ele>306.1</ele>
        <time>2020-06-26T08:32:34Z</time>
      </trkpt>
      <trkpt lat="49.65811" lon="5.9135">
        <ele>306.4</ele>
        <time>2020-06-26T08:32:35Z</time>
      </trkpt>
      <trkpt lat="49.65807" lon="5.91352">
        <ele>306.4</ele>
        <time>2020-06-26T08:32:36Z</time>
      </trkpt>
      <trkpt lat="49.65803" lon="5.91355">
        <ele>306.4</ele>
        <time>2020-06-26T08:32:37Z</time>
      </trkpt>
      <trkpt lat="49.65799" lon="5.91359">
        <ele>306.4</ele>
        <time>2020-06-26T08:32:38Z</time>
      </trkpt>
      <trkpt lat="49.65796" lon="5.91362">
        <ele>306.5</ele>
        <time>2020-06-26T08:32:39Z</time>
      </trkpt>
      <trkpt lat="49.65792" lon="5.91364">
        <ele>306.5</ele>
        <time>2020-06-26T08:32:40Z</time>
      </trkpt>
      <trkpt lat="49.65788" lon="5.91367">
        <ele>306.6</ele>
        <time>2020-06-26T08:32:41Z</time>
      </trkpt>
      <trkpt lat="49.65785" lon="5.9137">
        <ele>306.6</ele>
        <time>2020-06-26T08:32:42Z</time>
      </trkpt>
      <trkpt lat="49.65781" lon="5.91374">
        <ele>306.7</ele>
        <time>2020-06-26T08:32:43Z</time>
      </trkpt>
      <trkpt lat="49.65778" lon="5.9138">
        <ele>306.8</ele>
        <time>2020-06-26T08:32:44Z</time>
      </trkpt>
      <trkpt lat="49.65775" lon="5.91384">
        <ele>306.8</ele>
        <time>2020-06-26T08:32:45Z</time>
      </trkpt>
      <trkpt lat="49.65772" lon="5.91388">
        <ele>306.9</ele>
        <time>2020-06-26T08:32:46Z</time>
      </trkpt>
      <trkpt lat="49.65768" lon="5.9139">
        <ele>307</ele>
        <time>2020-06-26T08:32:47Z</time>
      </trkpt>
      <trkpt lat="49.65765" lon="5.91394">
        <ele>307.1</ele>
        <time>2020-06-26T08:32:48Z</time>
      </trkpt>
      <trkpt lat="49.65762" lon="5.91396">
        <ele>307.2</ele>
        <time>2020-06-26T08:32:49Z</time>
      </trkpt>
      <trkpt lat="49.6576" lon="5.91398">
        <ele>307.3</ele>
        <time>2020-06-26T08:32:50Z</time>
      </trkpt>
      <trkpt lat="49.65758" lon="5.91401">
        <ele>307.3</ele>
        <time>2020-06-26T08:32:51Z</time>
      </trkpt>
      <trkpt lat="49.65755" lon="5.91403">
        <ele>307.4</ele>
        <time>2020-06-26T08:32:52Z</time>
      </trkpt>
      <trkpt lat="49.65752" lon="5.91406">
        <ele>307.5</ele>
        <time>2020-06-26T08:32:53Z</time>
      </trkpt>
      <trkpt lat="49.65749" lon="5.91409">
        <ele>307.6</ele>
        <time>2020-06-26T08:32:54Z</time>
      </trkpt>
      <trkpt lat="49.65745" lon="5.91411">
        <ele>307.7</ele>
        <time>2020-06-26T08:32:55Z</time>
      </trkpt>
      <trkpt lat="49.65742" lon="5.91415">
        <ele>307.8</ele>
        <time>2020-06-26T08:32:56Z</time>
      </trkpt>
      <trkpt lat="49.65739" lon="5.91418">
        <ele>307.9</ele>
        <time>2020-06-26T08:32:57Z</time>
      </trkpt>
      <trkpt lat="49.65736" lon="5.91421">
        <ele>308</ele>
        <time>2020-06-26T08:32:58Z</time>
      </trkpt>
      <trkpt lat="49.65734" lon="5.91423">
        <ele>308.1</ele>
        <time>2020-06-26T08:32:59Z</time>
      </trkpt>
      <trkpt lat="49.65731" lon="5.91427">
        <ele>308.1</ele>
        <time>2020-06-26T08:33:00Z</time>
      </trkpt>
      <trkpt lat="49.65728" lon="5.91428">
        <ele>308.2</ele>
        <time>2020-06-26T08:33:01Z</time>
      </trkpt>
      <trkpt lat="49.65726" lon="5.91431">
        <ele>308.3</ele>
        <time>2020-06-26T08:33:02Z</time>
      </trkpt>
      <trkpt lat="49.65723" lon="5.91434">
        <ele>308.4</ele>
        <time>2020-06-26T08:33:03Z</time>
      </trkpt>
      <trkpt lat="49.65721" lon="5.91436">
        <ele>308.5</ele>
        <time>2020-06-26T08:33:04Z</time>
      </trkpt>
      <trkpt lat="49.65719" lon="5.91438">
        <ele>308.5</ele>
        <time>2020-06-26T08:33:05Z</time>
      </trkpt>
      <trkpt lat="49.65717" lon="5.9144">
        <ele>308.6</ele>
        <time>2020-06-26T08:33:06Z</time>
      </trkpt>
      <trkpt lat="49.65715" lon="5.91443">
        <ele>308.7</ele>
        <time>2020-06-26T08:33:07Z</time>
      </trkpt>
      <trkpt lat="49.65712" lon="5.91446">
        <ele>308.8</ele>
        <time>2020-06-26T08:33:08Z</time>
      </trkpt>
      <trkpt lat="49.65709" lon="5.91449">
        <ele>308.9</ele>
        <time>2020-06-26T08:33:09Z</time>
      </trkpt>
      <trkpt lat="49.65706" lon="5.91451">
        <ele>309</ele>
        <time>2020-06-26T08:33:10Z</time>
      </trkpt>
      <trkpt lat="49.65704" lon="5.91454">
        <ele>309</ele>
        <time>2020-06-26T08:33:11Z</time>
      </trkpt>
      <trkpt lat="49.65702" lon="5.91457">
        <ele>309.1</ele>
        <time>2020-06-26T08:33:12Z</time>
      </trkpt>
      <trkpt lat="49.657" lon="5.91459">
        <ele>309.1</ele>
        <time>2020-06-26T08:33:13Z</time>
      </trkpt>
      <trkpt lat="49.65697" lon="5.91461">
        <ele>309.2</ele>
        <time>2020-06-26T08:33:14Z</time>
      </trkpt>
      <trkpt lat="49.65694" lon="5.91463">
        <ele>309.2</ele>
        <time>2020-06-26T08:33:15Z</time>
      </trkpt>
      <trkpt lat="49.65693" lon="5.91464">
        <ele>309.2</ele>
        <time>2020-06-26T08:33:16Z</time>
      </trkpt>
      <trkpt lat="49.65691" lon="5.91468">
        <ele>309.2</ele>
        <time>2020-06-26T08:33:17Z</time>
      </trkpt>
      <trkpt lat="49.65688" lon="5.91471">
        <ele>309.2</ele>
        <time>2020-06-26T08:33:18Z</time>
      </trkpt>
      <trkpt lat="49.65687" lon="5.91472">
        <ele>309.2</ele>
        <time>2020-06-26T08:33:19Z</time>
      </trkpt>
      <trkpt lat="49.65683" lon="5.91475">
        <ele>309.2</ele>
        <time>2020-06-26T08:33:20Z</time>
      </trkpt>
      <trkpt lat="49.65681" lon="5.91476">
        <ele>309.2</ele>
        <time>2020-06-26T08:33:21Z</time>
      </trkpt>
      <trkpt lat="49.65679" lon="5.91478">
        <ele>309.2</ele>
        <time>2020-06-26T08:33:22Z</time>
      </trkpt>
      <trkpt lat="49.65676" lon="5.9148">
        <ele>309.2</ele>
        <time>2020-06-26T08:33:23Z</time>
      </trkpt>
      <trkpt lat="49.65672" lon="5.91481">
        <ele>309.2</ele>
        <time>2020-06-26T08:33:24Z</time>
      </trkpt>
      <trkpt lat="49.65669" lon="5.91483">
        <ele>309.2</ele>
        <time>2020-06-26T08:33:25Z</time>
      </trkpt>
      <trkpt lat="49.65666" lon="5.91485">
        <ele>309.1</ele>
        <time>2020-06-26T08:33:26Z</time>
      </trkpt>
      <trkpt lat="49.65663" lon="5.91488">
        <ele>309.1</ele>
        <time>2020-06-26T08:33:27Z</time>
      </trkpt>
      <trkpt lat="49.65659" lon="5.91495">
        <ele>309.1</ele>
        <time>2020-06-26T08:33:28Z</time>
      </trkpt>
      <trkpt lat="49.65656" lon="5.91502">
        <ele>308.8</ele>
        <time>2020-06-26T08:33:29Z</time>
      </trkpt>
      <trkpt lat="49.65652" lon="5.91508">
        <ele>308.6</ele>
        <time>2020-06-26T08:33:30Z</time>
      </trkpt>
      <trkpt lat="49.65649" lon="5.91514">
        <ele>308.4</ele>
        <time>2020-06-26T08:33:31Z</time>
      </trkpt>
      <trkpt lat="49.65646" lon="5.9152">
        <ele>308.3</ele>
        <time>2020-06-26T08:33:32Z</time>
      </trkpt>
      <trkpt lat="49.65644" lon="5.91526">
        <ele>308.2</ele>
        <time>2020-06-26T08:33:33Z</time>
      </trkpt>
      <trkpt lat="49.65642" lon="5.91532">
        <ele>308</ele>
        <time>2020-06-26T08:33:34Z</time>
      </trkpt>
      <trkpt lat="49.6564" lon="5.9154">
        <ele>307.9</ele>
        <time>2020-06-26T08:33:35Z</time>
      </trkpt>
      <trkpt lat="49.65638" lon="5.91547">
        <ele>307.7</ele>
        <time>2020-06-26T08:33:36Z</time>
      </trkpt>
      <trkpt lat="49.65636" lon="5.91554">
        <ele>307.6</ele>
        <time>2020-06-26T08:33:37Z</time>
      </trkpt>
      <trkpt lat="49.65634" lon="5.91561">
        <ele>307.4</ele>
        <time>2020-06-26T08:33:38Z</time>
      </trkpt>
      <trkpt lat="49.65633" lon="5.91569">
        <ele>307.3</ele>
        <time>2020-06-26T08:33:39Z</time>
      </trkpt>
      <trkpt lat="49.65633" lon="5.91576">
        <ele>307.1</ele>
        <time>2020-06-26T08:33:40Z</time>
      </trkpt>
      <trkpt lat="49.65632" lon="5.91583">
        <ele>307</ele>
        <time>2020-06-26T08:33:41Z</time>
      </trkpt>
      <trkpt lat="49.65631" lon="5.9159">
        <ele>306.9</ele>
        <time>2020-06-26T08:33:42Z</time>
      </trkpt>
      <trkpt lat="49.6563" lon="5.91598">
        <ele>306.7</ele>
        <time>2020-06-26T08:33:43Z</time>
      </trkpt>
      <trkpt lat="49.65631" lon="5.91607">
        <ele>306.6</ele>
        <time>2020-06-26T08:33:44Z</time>
      </trkpt>
      <trkpt lat="49.65631" lon="5.91614">
        <ele>306.4</ele>
        <time>2020-06-26T08:33:45Z</time>
      </trkpt>
      <trkpt lat="49.65632" lon="5.91623">
        <ele>306.3</ele>
        <time>2020-06-26T08:33:46Z</time>
      </trkpt>
      <trkpt lat="49.65636" lon="5.91635">
        <ele>306.2</ele>
        <time>2020-06-26T08:33:47Z</time>
      </trkpt>
      <trkpt lat="49.65638" lon="5.91646">
        <ele>306</ele>
        <time>2020-06-26T08:33:48Z</time>
      </trkpt>
      <trkpt lat="49.65641" lon="5.91657">
        <ele>306.1</ele>
        <time>2020-06-26T08:33:49Z</time>
      </trkpt>
      <trkpt lat="49.65643" lon="5.91668">
        <ele>306</ele>
        <time>2020-06-26T08:33:50Z</time>
      </trkpt>
      <trkpt lat="49.65644" lon="5.91679">
        <ele>306</ele>
        <time>2020-06-26T08:33:51Z</time>
      </trkpt>
      <trkpt lat="49.65643" lon="5.91689">
        <ele>306.1</ele>
        <time>2020-06-26T08:33:52Z</time>
      </trkpt>
      <trkpt lat="49.65643" lon="5.917">
        <ele>306.3</ele>
        <time>2020-06-26T08:33:53Z</time>
      </trkpt>
      <trkpt lat="49.65641" lon="5.91711">
        <ele>306.5</ele>
        <time>2020-06-26T08:33:54Z</time>
      </trkpt>
      <trkpt lat="49.6564" lon="5.91721">
        <ele>306.7</ele>
        <time>2020-06-26T08:33:55Z</time>
      </trkpt>
      <trkpt lat="49.65639" lon="5.9173">
        <ele>307</ele>
        <time>2020-06-26T08:33:56Z</time>
      </trkpt>
      <trkpt lat="49.65637" lon="5.91737">
        <ele>307.2</ele>
        <time>2020-06-26T08:33:57Z</time>
      </trkpt>
      <trkpt lat="49.65636" lon="5.91744">
        <ele>307.4</ele>
        <time>2020-06-26T08:33:58Z</time>
      </trkpt>
      <trkpt lat="49.65634" lon="5.91751">
        <ele>307.6</ele>
        <time>2020-06-26T08:33:59Z</time>
      </trkpt>
      <trkpt lat="49.65633" lon="5.91757">
        <ele>307.7</ele>
        <time>2020-06-26T08:34:00Z</time>
      </trkpt>
      <trkpt lat="49.65632" lon="5.91762">
        <ele>307.9</ele>
        <time>2020-06-26T08:34:01Z</time>
      </trkpt>
      <trkpt lat="49.6563" lon="5.91767">
        <ele>308</ele>
        <time>2020-06-26T08:34:02Z</time>
      </trkpt>
      <trkpt lat="49.65627" lon="5.91769">
        <ele>308.1</ele>
        <time>2020-06-26T08:34:03Z</time>
      </trkpt>
      <trkpt lat="49.65625" lon="5.91773">
        <ele>308.2</ele>
        <time>2020-06-26T08:34:04Z</time>
      </trkpt>
      <trkpt lat="49.65623" lon="5.91777">
        <ele>308.3</ele>
        <time>2020-06-26T08:34:05Z</time>
      </trkpt>
      <trkpt lat="49.65622" lon="5.91781">
        <ele>308.3</ele>
        <time>2020-06-26T08:34:06Z</time>
      </trkpt>
      <trkpt lat="49.6562" lon="5.91785">
        <ele>308.3</ele>
        <time>2020-06-26T08:34:07Z</time>
      </trkpt>
      <trkpt lat="49.65619" lon="5.91789">
        <ele>308.3</ele>
        <time>2020-06-26T08:34:08Z</time>
      </trkpt>
      <trkpt lat="49.65617" lon="5.91793">
        <ele>308.3</ele>
        <time>2020-06-26T08:34:09Z</time>
      </trkpt>
      <trkpt lat="49.65616" lon="5.91797">
        <ele>308.3</ele>
        <time>2020-06-26T08:34:10Z</time>
      </trkpt>
      <trkpt lat="49.65614" lon="5.91801">
        <ele>308.3</ele>
        <time>2020-06-26T08:34:11Z</time>
      </trkpt>
      <trkpt lat="49.65613" lon="5.91807">
        <ele>308.3</ele>
        <time>2020-06-26T08:34:12Z</time>
      </trkpt>
      <trkpt lat="49.65614" lon="5.91809">
        <ele>308.3</ele>
        <time>2020-06-26T08:34:13Z</time>
      </trkpt>
      <trkpt lat="49.65613" lon="5.91813">
        <ele>308.2</ele>
        <time>2020-06-26T08:34:14Z</time>
      </trkpt>
      <trkpt lat="49.65613" lon="5.91817">
        <ele>308.2</ele>
        <time>2020-06-26T08:34:15Z</time>
      </trkpt>
      <trkpt lat="49.65612" lon="5.91822">
        <ele>308.1</ele>
        <time>2020-06-26T08:34:16Z</time>
      </trkpt>
      <trkpt lat="49.65612" lon="5.91826">
        <ele>308</ele>
        <time>2020-06-26T08:34:17Z</time>
      </trkpt>
      <trkpt lat="49.6561" lon="5.91831">
        <ele>307.9</ele>
        <time>2020-06-26T08:34:18Z</time>
      </trkpt>
      <trkpt lat="49.65609" lon="5.91836">
        <ele>307.8</ele>
        <time>2020-06-26T08:34:19Z</time>
      </trkpt>
      <trkpt lat="49.65608" lon="5.91841">
        <ele>307.7</ele>
        <time>2020-06-26T08:34:20Z</time>
      </trkpt>
      <trkpt lat="49.65607" lon="5.91847">
        <ele>307.6</ele>
        <time>2020-06-26T08:34:21Z</time>
      </trkpt>
      <trkpt lat="49.65606" lon="5.91854">
        <ele>307.4</ele>
        <time>2020-06-26T08:34:22Z</time>
      </trkpt>
      <trkpt lat="49.65605" lon="5.9186">
        <ele>307.2</ele>
        <time>2020-06-26T08:34:23Z</time>
      </trkpt>
      <trkpt lat="49.65603" lon="5.91868">
        <ele>306.9</ele>
        <time>2020-06-26T08:34:24Z</time>
      </trkpt>
      <trkpt lat="49.65602" lon="5.91876">
        <ele>306.7</ele>
        <time>2020-06-26T08:34:25Z</time>
      </trkpt>
      <trkpt lat="49.656" lon="5.91885">
        <ele>306.3</ele>
        <time>2020-06-26T08:34:26Z</time>
      </trkpt>
      <trkpt lat="49.65598" lon="5.91893">
        <ele>306</ele>
        <time>2020-06-26T08:34:27Z</time>
      </trkpt>
      <trkpt lat="49.65597" lon="5.91903">
        <ele>305.7</ele>
        <time>2020-06-26T08:34:28Z</time>
      </trkpt>
      <trkpt lat="49.65595" lon="5.91912">
        <ele>305.3</ele>
        <time>2020-06-26T08:34:29Z</time>
      </trkpt>
      <trkpt lat="49.65593" lon="5.91921">
        <ele>305</ele>
        <time>2020-06-26T08:34:30Z</time>
      </trkpt>
      <trkpt lat="49.65591" lon="5.9193">
        <ele>304.7</ele>
        <time>2020-06-26T08:34:31Z</time>
      </trkpt>
      <trkpt lat="49.65588" lon="5.9194">
        <ele>304.4</ele>
        <time>2020-06-26T08:34:32Z</time>
      </trkpt>
      <trkpt lat="49.65583" lon="5.91947">
        <ele>304.2</ele>
        <time>2020-06-26T08:34:33Z</time>
      </trkpt>
      <trkpt lat="49.65577" lon="5.91955">
        <ele>303.9</ele>
        <time>2020-06-26T08:34:34Z</time>
      </trkpt>
      <trkpt lat="49.65571" lon="5.9196">
        <ele>303.7</ele>
        <time>2020-06-26T08:34:35Z</time>
      </trkpt>
      <trkpt lat="49.65565" lon="5.91962">
        <ele>303.6</ele>
        <time>2020-06-26T08:34:36Z</time>
      </trkpt>
      <trkpt lat="49.65559" lon="5.91965">
        <ele>303.5</ele>
        <time>2020-06-26T08:34:37Z</time>
      </trkpt>
      <trkpt lat="49.65554" lon="5.91968">
        <ele>303.4</ele>
        <time>2020-06-26T08:34:38Z</time>
      </trkpt>
      <trkpt lat="49.65548" lon="5.91973">
        <ele>303.4</ele>
        <time>2020-06-26T08:34:39Z</time>
      </trkpt>
      <trkpt lat="49.65543" lon="5.91976">
        <ele>303.3</ele>
        <time>2020-06-26T08:34:40Z</time>
      </trkpt>
      <trkpt lat="49.65537" lon="5.91978">
        <ele>303.3</ele>
        <time>2020-06-26T08:34:41Z</time>
      </trkpt>
      <trkpt lat="49.65531" lon="5.91979">
        <ele>303.3</ele>
        <time>2020-06-26T08:34:42Z</time>
      </trkpt>
      <trkpt lat="49.65526" lon="5.9198">
        <ele>303.3</ele>
        <time>2020-06-26T08:34:43Z</time>
      </trkpt>
      <trkpt lat="49.65522" lon="5.91983">
        <ele>303.3</ele>
        <time>2020-06-26T08:34:44Z</time>
      </trkpt>
      <trkpt lat="49.65517" lon="5.91986">
        <ele>303.4</ele>
        <time>2020-06-26T08:34:45Z</time>
      </trkpt>
      <trkpt lat="49.65512" lon="5.91989">
        <ele>303.4</ele>
        <time>2020-06-26T08:34:46Z</time>
      </trkpt>
      <trkpt lat="49.65508" lon="5.91992">
        <ele>303.5</ele>
        <time>2020-06-26T08:34:47Z</time>
      </trkpt>
      <trkpt lat="49.65504" lon="5.91996">
        <ele>303.5</ele>
        <time>2020-06-26T08:34:48Z</time>
      </trkpt>
      <trkpt lat="49.655" lon="5.92">
        <ele>303.6</ele>
        <time>2020-06-26T08:34:49Z</time>
      </trkpt>
      <trkpt lat="49.65495" lon="5.92002">
        <ele>303.6</ele>
        <time>2020-06-26T08:34:50Z</time>
      </trkpt>
      <trkpt lat="49.65491" lon="5.92006">
        <ele>303.6</ele>
        <time>2020-06-26T08:34:51Z</time>
      </trkpt>
      <trkpt lat="49.65486" lon="5.9201">
        <ele>303.7</ele>
        <time>2020-06-26T08:34:52Z</time>
      </trkpt>
      <trkpt lat="49.65482" lon="5.92013">
        <ele>303.7</ele>
        <time>2020-06-26T08:34:53Z</time>
      </trkpt>
      <trkpt lat="49.65478" lon="5.92017">
        <ele>303.8</ele>
        <time>2020-06-26T08:34:54Z</time>
      </trkpt>
      <trkpt lat="49.65475" lon="5.92022">
        <ele>303.9</ele>
        <time>2020-06-26T08:34:55Z</time>
      </trkpt>
      <trkpt lat="49.65471" lon="5.92026">
        <ele>304</ele>
        <time>2020-06-26T08:34:56Z</time>
      </trkpt>
      <trkpt lat="49.65468" lon="5.92032">
        <ele>304</ele>
        <time>2020-06-26T08:34:57Z</time>
      </trkpt>
      <trkpt lat="49.65465" lon="5.92036">
        <ele>304.1</ele>
        <time>2020-06-26T08:34:58Z</time>
      </trkpt>
      <trkpt lat="49.65462" lon="5.9204">
        <ele>304.3</ele>
        <time>2020-06-26T08:34:59Z</time>
      </trkpt>
      <trkpt lat="49.65458" lon="5.92044">
        <ele>304.4</ele>
        <time>2020-06-26T08:35:00Z</time>
      </trkpt>
      <trkpt lat="49.65454" lon="5.92047">
        <ele>304.6</ele>
        <time>2020-06-26T08:35:01Z</time>
      </trkpt>
      <trkpt lat="49.6545" lon="5.92051">
        <ele>304.7</ele>
        <time>2020-06-26T08:35:02Z</time>
      </trkpt>
      <trkpt lat="49.65446" lon="5.92054">
        <ele>304.9</ele>
        <time>2020-06-26T08:35:03Z</time>
      </trkpt>
      <trkpt lat="49.65443" lon="5.92058">
        <ele>305</ele>
        <time>2020-06-26T08:35:04Z</time>
      </trkpt>
      <trkpt lat="49.6544" lon="5.92062">
        <ele>305.2</ele>
        <time>2020-06-26T08:35:05Z</time>
      </trkpt>
      <trkpt lat="49.65437" lon="5.92065">
        <ele>305.4</ele>
        <time>2020-06-26T08:35:06Z</time>
      </trkpt>
      <trkpt lat="49.65434" lon="5.92069">
        <ele>305.6</ele>
        <time>2020-06-26T08:35:07Z</time>
      </trkpt>
      <trkpt lat="49.6543" lon="5.92071">
        <ele>305.8</ele>
        <time>2020-06-26T08:35:08Z</time>
      </trkpt>
      <trkpt lat="49.65427" lon="5.92073">
        <ele>306</ele>
        <time>2020-06-26T08:35:09Z</time>
      </trkpt>
      <trkpt lat="49.65425" lon="5.92077">
        <ele>306.2</ele>
        <time>2020-06-26T08:35:10Z</time>
      </trkpt>
      <trkpt lat="49.65423" lon="5.92081">
        <ele>306.4</ele>
        <time>2020-06-26T08:35:11Z</time>
      </trkpt>
      <trkpt lat="49.6542" lon="5.92083">
        <ele>306.6</ele>
        <time>2020-06-26T08:35:12Z</time>
      </trkpt>
      <trkpt lat="49.65417" lon="5.92087">
        <ele>306.7</ele>
        <time>2020-06-26T08:35:13Z</time>
      </trkpt>
      <trkpt lat="49.65413" lon="5.92089">
        <ele>306.8</ele>
        <time>2020-06-26T08:35:14Z</time>
      </trkpt>
      <trkpt lat="49.65409" lon="5.92091">
        <ele>307</ele>
        <time>2020-06-26T08:35:15Z</time>
      </trkpt>
      <trkpt lat="49.65405" lon="5.92095">
        <ele>307.1</ele>
        <time>2020-06-26T08:35:16Z</time>
      </trkpt>
      <trkpt lat="49.65402" lon="5.921">
        <ele>307.3</ele>
        <time>2020-06-26T08:35:17Z</time>
      </trkpt>
      <trkpt lat="49.65399" lon="5.92104">
        <ele>307.4</ele>
        <time>2020-06-26T08:35:18Z</time>
      </trkpt>
      <trkpt lat="49.65395" lon="5.92106">
        <ele>307.6</ele>
        <time>2020-06-26T08:35:19Z</time>
      </trkpt>
      <trkpt lat="49.65391" lon="5.92108">
        <ele>307.7</ele>
        <time>2020-06-26T08:35:20Z</time>
      </trkpt>
      <trkpt lat="49.65387" lon="5.92112">
        <ele>307.9</ele>
        <time>2020-06-26T08:35:21Z</time>
      </trkpt>
      <trkpt lat="49.65383" lon="5.92114">
        <ele>308.1</ele>
        <time>2020-06-26T08:35:22Z</time>
      </trkpt>
      <trkpt lat="49.65379" lon="5.92117">
        <ele>308.3</ele>
        <time>2020-06-26T08:35:23Z</time>
      </trkpt>
      <trkpt lat="49.65375" lon="5.92119">
        <ele>308.6</ele>
        <time>2020-06-26T08:35:24Z</time>
      </trkpt>
      <trkpt lat="49.65371" lon="5.92122">
        <ele>308.8</ele>
        <time>2020-06-26T08:35:25Z</time>
      </trkpt>
      <trkpt lat="49.65367" lon="5.92123">
        <ele>309</ele>
        <time>2020-06-26T08:35:26Z</time>
      </trkpt>
      <trkpt lat="49.65361" lon="5.92125">
        <ele>309.2</ele>
        <time>2020-06-26T08:35:27Z</time>
      </trkpt>
      <trkpt lat="49.65357" lon="5.92126">
        <ele>309.4</ele>
        <time>2020-06-26T08:35:28Z</time>
      </trkpt>
      <trkpt lat="49.65353" lon="5.92128">
        <ele>309.6</ele>
        <time>2020-06-26T08:35:29Z</time>
      </trkpt>
      <trkpt lat="49.65349" lon="5.92132">
        <ele>309.8</ele>
        <time>2020-06-26T08:35:30Z</time>
      </trkpt>
      <trkpt lat="49.65345" lon="5.92135">
        <ele>310</ele>
        <time>2020-06-26T08:35:31Z</time>
      </trkpt>
      <trkpt lat="49.65343" lon="5.92136">
        <ele>310.1</ele>
        <time>2020-06-26T08:35:32Z</time>
      </trkpt>
      <trkpt lat="49.6534" lon="5.92139">
        <ele>310.2</ele>
        <time>2020-06-26T08:35:33Z</time>
      </trkpt>
      <trkpt lat="49.65338" lon="5.92141">
        <ele>310.4</ele>
        <time>2020-06-26T08:35:34Z</time>
      </trkpt>
      <trkpt lat="49.65335" lon="5.92142">
        <ele>310.4</ele>
        <time>2020-06-26T08:35:35Z</time>
      </trkpt>
      <trkpt lat="49.65331" lon="5.92145">
        <ele>310.6</ele>
        <time>2020-06-26T08:35:36Z</time>
      </trkpt>
      <trkpt lat="49.65326" lon="5.92149">
        <ele>310.7</ele>
        <time>2020-06-26T08:35:37Z</time>
      </trkpt>
      <trkpt lat="49.65322" lon="5.92153">
        <ele>310.8</ele>
        <time>2020-06-26T08:35:38Z</time>
      </trkpt>
      <trkpt lat="49.65318" lon="5.92157">
        <ele>310.9</ele>
        <time>2020-06-26T08:35:39Z</time>
      </trkpt>
      <trkpt lat="49.65314" lon="5.9216">
        <ele>310.9</ele>
        <time>2020-06-26T08:35:40Z</time>
      </trkpt>
      <trkpt lat="49.65309" lon="5.92163">
        <ele>311</ele>
        <time>2020-06-26T08:35:41Z</time>
      </trkpt>
      <trkpt lat="49.65305" lon="5.92165">
        <ele>311.1</ele>
        <time>2020-06-26T08:35:42Z</time>
      </trkpt>
      <trkpt lat="49.65301" lon="5.92167">
        <ele>311.1</ele>
        <time>2020-06-26T08:35:43Z</time>
      </trkpt>
      <trkpt lat="49.65297" lon="5.92172">
        <ele>311.1</ele>
        <time>2020-06-26T08:35:44Z</time>
      </trkpt>
      <trkpt lat="49.65292" lon="5.92177">
        <ele>311.2</ele>
        <time>2020-06-26T08:35:45Z</time>
      </trkpt>
      <trkpt lat="49.65288" lon="5.92181">
        <ele>311.2</ele>
        <time>2020-06-26T08:35:46Z</time>
      </trkpt>
      <trkpt lat="49.65284" lon="5.92184">
        <ele>311.2</ele>
        <time>2020-06-26T08:35:47Z</time>
      </trkpt>
      <trkpt lat="49.6528" lon="5.92189">
        <ele>311.3</ele>
        <time>2020-06-26T08:35:48Z</time>
      </trkpt>
      <trkpt lat="49.65276" lon="5.92193">
        <ele>311.4</ele>
        <time>2020-06-26T08:35:49Z</time>
      </trkpt>
      <trkpt lat="49.65272" lon="5.92197">
        <ele>311.4</ele>
        <time>2020-06-26T08:35:50Z</time>
      </trkpt>
      <trkpt lat="49.65268" lon="5.92203">
        <ele>311.4</ele>
        <time>2020-06-26T08:35:51Z</time>
      </trkpt>
      <trkpt lat="49.65263" lon="5.92208">
        <ele>311.5</ele>
        <time>2020-06-26T08:35:52Z</time>
      </trkpt>
      <trkpt lat="49.65259" lon="5.92213">
        <ele>311.5</ele>
        <time>2020-06-26T08:35:53Z</time>
      </trkpt>
      <trkpt lat="49.65256" lon="5.92217">
        <ele>311.5</ele>
        <time>2020-06-26T08:35:54Z</time>
      </trkpt>
      <trkpt lat="49.65253" lon="5.92223">
        <ele>311.5</ele>
        <time>2020-06-26T08:35:55Z</time>
      </trkpt>
      <trkpt lat="49.65249" lon="5.92227">
        <ele>311.5</ele>
        <time>2020-06-26T08:35:56Z</time>
      </trkpt>
      <trkpt lat="49.65246" lon="5.92231">
        <ele>311.5</ele>
        <time>2020-06-26T08:35:57Z</time>
      </trkpt>
      <trkpt lat="49.65242" lon="5.92236">
        <ele>311.6</ele>
        <time>2020-06-26T08:35:58Z</time>
      </trkpt>
      <trkpt lat="49.65238" lon="5.92241">
        <ele>311.6</ele>
        <time>2020-06-26T08:35:59Z</time>
      </trkpt>
      <trkpt lat="49.65236" lon="5.92244">
        <ele>311.6</ele>
        <time>2020-06-26T08:36:00Z</time>
      </trkpt>
      <trkpt lat="49.65233" lon="5.92249">
        <ele>311.6</ele>
        <time>2020-06-26T08:36:01Z</time>
      </trkpt>
      <trkpt lat="49.65229" lon="5.92252">
        <ele>311.6</ele>
        <time>2020-06-26T08:36:02Z</time>
      </trkpt>
      <trkpt lat="49.65225" lon="5.92257">
        <ele>311.7</ele>
        <time>2020-06-26T08:36:03Z</time>
      </trkpt>
      <trkpt lat="49.6522" lon="5.92263">
        <ele>311.7</ele>
        <time>2020-06-26T08:36:04Z</time>
      </trkpt>
      <trkpt lat="49.65216" lon="5.92267">
        <ele>311.8</ele>
        <time>2020-06-26T08:36:05Z</time>
      </trkpt>
      <trkpt lat="49.65213" lon="5.92271">
        <ele>311.8</ele>
        <time>2020-06-26T08:36:06Z</time>
      </trkpt>
      <trkpt lat="49.65209" lon="5.92276">
        <ele>311.8</ele>
        <time>2020-06-26T08:36:07Z</time>
      </trkpt>
      <trkpt lat="49.65205" lon="5.92279">
        <ele>311.8</ele>
        <time>2020-06-26T08:36:08Z</time>
      </trkpt>
      <trkpt lat="49.65201" lon="5.92283">
        <ele>311.8</ele>
        <time>2020-06-26T08:36:09Z</time>
      </trkpt>
      <trkpt lat="49.65198" lon="5.92287">
        <ele>311.8</ele>
        <time>2020-06-26T08:36:10Z</time>
      </trkpt>
      <trkpt lat="49.65194" lon="5.9229">
        <ele>311.8</ele>
        <time>2020-06-26T08:36:11Z</time>
      </trkpt>
      <trkpt lat="49.6519" lon="5.92293">
        <ele>311.8</ele>
        <time>2020-06-26T08:36:12Z</time>
      </trkpt>
      <trkpt lat="49.65187" lon="5.92296">
        <ele>311.8</ele>
        <time>2020-06-26T08:36:13Z</time>
      </trkpt>
      <trkpt lat="49.65183" lon="5.92299">
        <ele>311.8</ele>
        <time>2020-06-26T08:36:14Z</time>
      </trkpt>
      <trkpt lat="49.65179" lon="5.92302">
        <ele>311.8</ele>
        <time>2020-06-26T08:36:15Z</time>
      </trkpt>
      <trkpt lat="49.65176" lon="5.92306">
        <ele>311.8</ele>
        <time>2020-06-26T08:36:16Z</time>
      </trkpt>
      <trkpt lat="49.65172" lon="5.92309">
        <ele>311.8</ele>
        <time>2020-06-26T08:36:17Z</time>
      </trkpt>
      <trkpt lat="49.65169" lon="5.92313">
        <ele>311.8</ele>
        <time>2020-06-26T08:36:18Z</time>
      </trkpt>
      <trkpt lat="49.65165" lon="5.92318">
        <ele>311.8</ele>
        <time>2020-06-26T08:36:19Z</time>
      </trkpt>
      <trkpt lat="49.65161" lon="5.92322">
        <ele>311.8</ele>
        <time>2020-06-26T08:36:20Z</time>
      </trkpt>
      <trkpt lat="49.65158" lon="5.92327">
        <ele>311.9</ele>
        <time>2020-06-26T08:36:21Z</time>
      </trkpt>
      <trkpt lat="49.65155" lon="5.92331">
        <ele>311.9</ele>
        <time>2020-06-26T08:36:22Z</time>
      </trkpt>
      <trkpt lat="49.65151" lon="5.92337">
        <ele>311.9</ele>
        <time>2020-06-26T08:36:23Z</time>
      </trkpt>
      <trkpt lat="49.65148" lon="5.92342">
        <ele>311.9</ele>
        <time>2020-06-26T08:36:24Z</time>
      </trkpt>
      <trkpt lat="49.65144" lon="5.92346">
        <ele>311.9</ele>
        <time>2020-06-26T08:36:25Z</time>
      </trkpt>
      <trkpt lat="49.65141" lon="5.92351">
        <ele>311.9</ele>
        <time>2020-06-26T08:36:26Z</time>
      </trkpt>
      <trkpt lat="49.65138" lon="5.92355">
        <ele>311.9</ele>
        <time>2020-06-26T08:36:27Z</time>
      </trkpt>
      <trkpt lat="49.65136" lon="5.92358">
        <ele>311.9</ele>
        <time>2020-06-26T08:36:28Z</time>
      </trkpt>
      <trkpt lat="49.65133" lon="5.92363">
        <ele>311.9</ele>
        <time>2020-06-26T08:36:29Z</time>
      </trkpt>
      <trkpt lat="49.65131" lon="5.92369">
        <ele>311.9</ele>
        <time>2020-06-26T08:36:30Z</time>
      </trkpt>
      <trkpt lat="49.65128" lon="5.92374">
        <ele>311.9</ele>
        <time>2020-06-26T08:36:31Z</time>
      </trkpt>
      <trkpt lat="49.65126" lon="5.92378">
        <ele>312</ele>
        <time>2020-06-26T08:36:32Z</time>
      </trkpt>
      <trkpt lat="49.65125" lon="5.92383">
        <ele>312</ele>
        <time>2020-06-26T08:36:33Z</time>
      </trkpt>
      <trkpt lat="49.65123" lon="5.92389">
        <ele>311.9</ele>
        <time>2020-06-26T08:36:34Z</time>
      </trkpt>
      <trkpt lat="49.65123" lon="5.92396">
        <ele>311.9</ele>
        <time>2020-06-26T08:36:35Z</time>
      </trkpt>
      <trkpt lat="49.65123" lon="5.92401">
        <ele>311.8</ele>
        <time>2020-06-26T08:36:36Z</time>
      </trkpt>
      <trkpt lat="49.65125" lon="5.92408">
        <ele>311.7</ele>
        <time>2020-06-26T08:36:37Z</time>
      </trkpt>
      <trkpt lat="49.65127" lon="5.92415">
        <ele>311.6</ele>
        <time>2020-06-26T08:36:38Z</time>
      </trkpt>
      <trkpt lat="49.65128" lon="5.92422">
        <ele>311.6</ele>
        <time>2020-06-26T08:36:39Z</time>
      </trkpt>
      <trkpt lat="49.6513" lon="5.92429">
        <ele>311.5</ele>
        <time>2020-06-26T08:36:40Z</time>
      </trkpt>
      <trkpt lat="49.65132" lon="5.92437">
        <ele>311.5</ele>
        <time>2020-06-26T08:36:41Z</time>
      </trkpt>
      <trkpt lat="49.65134" lon="5.92444">
        <ele>311.5</ele>
        <time>2020-06-26T08:36:42Z</time>
      </trkpt>
      <trkpt lat="49.65136" lon="5.9245">
        <ele>311.5</ele>
        <time>2020-06-26T08:36:43Z</time>
      </trkpt>
      <trkpt lat="49.65138" lon="5.92458">
        <ele>311.5</ele>
        <time>2020-06-26T08:36:44Z</time>
      </trkpt>
      <trkpt lat="49.65141" lon="5.92465">
        <ele>311.6</ele>
        <time>2020-06-26T08:36:45Z</time>
      </trkpt>
      <trkpt lat="49.65143" lon="5.92472">
        <ele>311.6</ele>
        <time>2020-06-26T08:36:46Z</time>
      </trkpt>
      <trkpt lat="49.65145" lon="5.9248">
        <ele>311.6</ele>
        <time>2020-06-26T08:36:47Z</time>
      </trkpt>
      <trkpt lat="49.65146" lon="5.92487">
        <ele>311.6</ele>
        <time>2020-06-26T08:36:48Z</time>
      </trkpt>
      <trkpt lat="49.65148" lon="5.92494">
        <ele>311.6</ele>
        <time>2020-06-26T08:36:49Z</time>
      </trkpt>
      <trkpt lat="49.6515" lon="5.92501">
        <ele>311.6</ele>
        <time>2020-06-26T08:36:50Z</time>
      </trkpt>
      <trkpt lat="49.65152" lon="5.92506">
        <ele>311.6</ele>
        <time>2020-06-26T08:36:51Z</time>
      </trkpt>
      <trkpt lat="49.65153" lon="5.92513">
        <ele>311.6</ele>
        <time>2020-06-26T08:36:52Z</time>
      </trkpt>
      <trkpt lat="49.65154" lon="5.92518">
        <ele>311.5</ele>
        <time>2020-06-26T08:36:53Z</time>
      </trkpt>
      <trkpt lat="49.65155" lon="5.92524">
        <ele>311.5</ele>
        <time>2020-06-26T08:36:54Z</time>
      </trkpt>
      <trkpt lat="49.65157" lon="5.92528">
        <ele>311.5</ele>
        <time>2020-06-26T08:36:55Z</time>
      </trkpt>
      <trkpt lat="49.65159" lon="5.92532">
        <ele>311.5</ele>
        <time>2020-06-26T08:36:56Z</time>
      </trkpt>
      <trkpt lat="49.6516" lon="5.92537">
        <ele>311.4</ele>
        <time>2020-06-26T08:36:57Z</time>
      </trkpt>
      <trkpt lat="49.65162" lon="5.92542">
        <ele>311.4</ele>
        <time>2020-06-26T08:36:58Z</time>
      </trkpt>
      <trkpt lat="49.65164" lon="5.92547">
        <ele>311.4</ele>
        <time>2020-06-26T08:36:59Z</time>
      </trkpt>
      <trkpt lat="49.65165" lon="5.92553">
        <ele>311.4</ele>
        <time>2020-06-26T08:37:00Z</time>
      </trkpt>
      <trkpt lat="49.65167" lon="5.92559">
        <ele>311.4</ele>
        <time>2020-06-26T08:37:01Z</time>
      </trkpt>
      <trkpt lat="49.65169" lon="5.92566">
        <ele>311.4</ele>
        <time>2020-06-26T08:37:02Z</time>
      </trkpt>
      <trkpt lat="49.65171" lon="5.92573">
        <ele>311.3</ele>
        <time>2020-06-26T08:37:03Z</time>
      </trkpt>
      <trkpt lat="49.65174" lon="5.9258">
        <ele>311.3</ele>
        <time>2020-06-26T08:37:04Z</time>
      </trkpt>
      <trkpt lat="49.65175" lon="5.92588">
        <ele>311.3</ele>
        <time>2020-06-26T08:37:05Z</time>
      </trkpt>
      <trkpt lat="49.65177" lon="5.92595">
        <ele>311.3</ele>
        <time>2020-06-26T08:37:06Z</time>
      </trkpt>
      <trkpt lat="49.65179" lon="5.92603">
        <ele>311.2</ele>
        <time>2020-06-26T08:37:07Z</time>
      </trkpt>
      <trkpt lat="49.6518" lon="5.9261">
        <ele>311.2</ele>
        <time>2020-06-26T08:37:08Z</time>
      </trkpt>
      <trkpt lat="49.6518" lon="5.92617">
        <ele>311.3</ele>
        <time>2020-06-26T08:37:09Z</time>
      </trkpt>
      <trkpt lat="49.65181" lon="5.92624">
        <ele>311.3</ele>
        <time>2020-06-26T08:37:10Z</time>
      </trkpt>
      <trkpt lat="49.65179" lon="5.92631">
        <ele>311.3</ele>
        <time>2020-06-26T08:37:11Z</time>
      </trkpt>
      <trkpt lat="49.65176" lon="5.92636">
        <ele>311.4</ele>
        <time>2020-06-26T08:37:12Z</time>
      </trkpt>
      <trkpt lat="49.65173" lon="5.92643">
        <ele>311.4</ele>
        <time>2020-06-26T08:37:13Z</time>
      </trkpt>
      <trkpt lat="49.65171" lon="5.92648">
        <ele>311.5</ele>
        <time>2020-06-26T08:37:14Z</time>
      </trkpt>
      <trkpt lat="49.65168" lon="5.92654">
        <ele>311.5</ele>
        <time>2020-06-26T08:37:15Z</time>
      </trkpt>
      <trkpt lat="49.65166" lon="5.9266">
        <ele>311.5</ele>
        <time>2020-06-26T08:37:16Z</time>
      </trkpt>
      <trkpt lat="49.65161" lon="5.92667">
        <ele>311.5</ele>
        <time>2020-06-26T08:37:17Z</time>
      </trkpt>
      <trkpt lat="49.65159" lon="5.92674">
        <ele>311.6</ele>
        <time>2020-06-26T08:37:18Z</time>
      </trkpt>
      <trkpt lat="49.65156" lon="5.9268">
        <ele>311.6</ele>
        <time>2020-06-26T08:37:19Z</time>
      </trkpt>
      <trkpt lat="49.65152" lon="5.92684">
        <ele>311.6</ele>
        <time>2020-06-26T08:37:20Z</time>
      </trkpt>
      <trkpt lat="49.6515" lon="5.92689">
        <ele>311.6</ele>
        <time>2020-06-26T08:37:21Z</time>
      </trkpt>
      <trkpt lat="49.65147" lon="5.92694">
        <ele>311.6</ele>
        <time>2020-06-26T08:37:22Z</time>
      </trkpt>
      <trkpt lat="49.65145" lon="5.92699">
        <ele>311.6</ele>
        <time>2020-06-26T08:37:23Z</time>
      </trkpt>
      <trkpt lat="49.65142" lon="5.92704">
        <ele>311.6</ele>
        <time>2020-06-26T08:37:24Z</time>
      </trkpt>
      <trkpt lat="49.6514" lon="5.92709">
        <ele>311.6</ele>
        <time>2020-06-26T08:37:25Z</time>
      </trkpt>
      <trkpt lat="49.65138" lon="5.92715">
        <ele>311.6</ele>
        <time>2020-06-26T08:37:26Z</time>
      </trkpt>
      <trkpt lat="49.65135" lon="5.9272">
        <ele>311.5</ele>
        <time>2020-06-26T08:37:27Z</time>
      </trkpt>
      <trkpt lat="49.65133" lon="5.92726">
        <ele>311.5</ele>
        <time>2020-06-26T08:37:28Z</time>
      </trkpt>
      <trkpt lat="49.6513" lon="5.92732">
        <ele>311.4</ele>
        <time>2020-06-26T08:37:29Z</time>
      </trkpt>
      <trkpt lat="49.65128" lon="5.92738">
        <ele>311.4</ele>
        <time>2020-06-26T08:37:30Z</time>
      </trkpt>
      <trkpt lat="49.65126" lon="5.92743">
        <ele>311.3</ele>
        <time>2020-06-26T08:37:31Z</time>
      </trkpt>
      <trkpt lat="49.65123" lon="5.92749">
        <ele>311.3</ele>
        <time>2020-06-26T08:37:32Z</time>
      </trkpt>
      <trkpt lat="49.6512" lon="5.92755">
        <ele>311.2</ele>
        <time>2020-06-26T08:37:33Z</time>
      </trkpt>
      <trkpt lat="49.65118" lon="5.92762">
        <ele>311.2</ele>
        <time>2020-06-26T08:37:34Z</time>
      </trkpt>
      <trkpt lat="49.65115" lon="5.92769">
        <ele>311.1</ele>
        <time>2020-06-26T08:37:35Z</time>
      </trkpt>
      <trkpt lat="49.65112" lon="5.92775">
        <ele>311</ele>
        <time>2020-06-26T08:37:36Z</time>
      </trkpt>
      <trkpt lat="49.6511" lon="5.92781">
        <ele>310.9</ele>
        <time>2020-06-26T08:37:37Z</time>
      </trkpt>
      <trkpt lat="49.65107" lon="5.92789">
        <ele>310.8</ele>
        <time>2020-06-26T08:37:38Z</time>
      </trkpt>
      <trkpt lat="49.65103" lon="5.92795">
        <ele>310.7</ele>
        <time>2020-06-26T08:37:39Z</time>
      </trkpt>
      <trkpt lat="49.651" lon="5.92802">
        <ele>310.6</ele>
        <time>2020-06-26T08:37:40Z</time>
      </trkpt>
      <trkpt lat="49.65097" lon="5.92809">
        <ele>310.4</ele>
        <time>2020-06-26T08:37:41Z</time>
      </trkpt>
      <trkpt lat="49.65094" lon="5.92814">
        <ele>310.3</ele>
        <time>2020-06-26T08:37:42Z</time>
      </trkpt>
      <trkpt lat="49.6509" lon="5.92819">
        <ele>310.2</ele>
        <time>2020-06-26T08:37:43Z</time>
      </trkpt>
      <trkpt lat="49.65087" lon="5.92826">
        <ele>310.1</ele>
        <time>2020-06-26T08:37:44Z</time>
      </trkpt>
      <trkpt lat="49.65084" lon="5.92833">
        <ele>310</ele>
        <time>2020-06-26T08:37:45Z</time>
      </trkpt>
      <trkpt lat="49.65081" lon="5.92839">
        <ele>309.9</ele>
        <time>2020-06-26T08:37:46Z</time>
      </trkpt>
      <trkpt lat="49.65078" lon="5.92845">
        <ele>309.8</ele>
        <time>2020-06-26T08:37:47Z</time>
      </trkpt>
      <trkpt lat="49.65075" lon="5.92851">
        <ele>309.7</ele>
        <time>2020-06-26T08:37:48Z</time>
      </trkpt>
      <trkpt lat="49.65072" lon="5.92857">
        <ele>309.6</ele>
        <time>2020-06-26T08:37:49Z</time>
      </trkpt>
      <trkpt lat="49.65068" lon="5.92865">
        <ele>309.5</ele>
        <time>2020-06-26T08:37:50Z</time>
      </trkpt>
      <trkpt lat="49.65066" lon="5.92872">
        <ele>309.4</ele>
        <time>2020-06-26T08:37:51Z</time>
      </trkpt>
      <trkpt lat="49.65063" lon="5.92878">
        <ele>309.4</ele>
        <time>2020-06-26T08:37:52Z</time>
      </trkpt>
      <trkpt lat="49.6506" lon="5.92882">
        <ele>309.3</ele>
        <time>2020-06-26T08:37:53Z</time>
      </trkpt>
      <trkpt lat="49.65057" lon="5.92887">
        <ele>309.3</ele>
        <time>2020-06-26T08:37:54Z</time>
      </trkpt>
      <trkpt lat="49.65053" lon="5.92893">
        <ele>309.2</ele>
        <time>2020-06-26T08:37:55Z</time>
      </trkpt>
      <trkpt lat="49.65049" lon="5.92899">
        <ele>309.1</ele>
        <time>2020-06-26T08:37:56Z</time>
      </trkpt>
      <trkpt lat="49.65045" lon="5.92904">
        <ele>309.1</ele>
        <time>2020-06-26T08:37:57Z</time>
      </trkpt>
      <trkpt lat="49.65041" lon="5.9291">
        <ele>309</ele>
        <time>2020-06-26T08:37:58Z</time>
      </trkpt>
      <trkpt lat="49.65037" lon="5.92915">
        <ele>308.9</ele>
        <time>2020-06-26T08:37:59Z</time>
      </trkpt>
      <trkpt lat="49.65032" lon="5.92922">
        <ele>308.9</ele>
        <time>2020-06-26T08:38:00Z</time>
      </trkpt>
      <trkpt lat="49.65028" lon="5.92928">
        <ele>309</ele>
        <time>2020-06-26T08:38:01Z</time>
      </trkpt>
      <trkpt lat="49.65024" lon="5.92935">
        <ele>309</ele>
        <time>2020-06-26T08:38:02Z</time>
      </trkpt>
      <trkpt lat="49.65021" lon="5.92941">
        <ele>309.1</ele>
        <time>2020-06-26T08:38:03Z</time>
      </trkpt>
      <trkpt lat="49.65018" lon="5.92948">
        <ele>309.1</ele>
        <time>2020-06-26T08:38:04Z</time>
      </trkpt>
      <trkpt lat="49.65015" lon="5.92956">
        <ele>309.2</ele>
        <time>2020-06-26T08:38:05Z</time>
      </trkpt>
      <trkpt lat="49.65013" lon="5.92963">
        <ele>309.2</ele>
        <time>2020-06-26T08:38:06Z</time>
      </trkpt>
      <trkpt lat="49.65011" lon="5.92971">
        <ele>309.3</ele>
        <time>2020-06-26T08:38:07Z</time>
      </trkpt>
      <trkpt lat="49.6501" lon="5.92978">
        <ele>309.4</ele>
        <time>2020-06-26T08:38:08Z</time>
      </trkpt>
      <trkpt lat="49.65011" lon="5.92986">
        <ele>309.5</ele>
        <time>2020-06-26T08:38:09Z</time>
      </trkpt>
      <trkpt lat="49.65011" lon="5.92994">
        <ele>309.6</ele>
        <time>2020-06-26T08:38:10Z</time>
      </trkpt>
      <trkpt lat="49.65012" lon="5.93003">
        <ele>309.7</ele>
        <time>2020-06-26T08:38:11Z</time>
      </trkpt>
      <trkpt lat="49.65014" lon="5.93012">
        <ele>309.9</ele>
        <time>2020-06-26T08:38:12Z</time>
      </trkpt>
      <trkpt lat="49.65016" lon="5.93019">
        <ele>310</ele>
        <time>2020-06-26T08:38:13Z</time>
      </trkpt>
      <trkpt lat="49.65017" lon="5.93026">
        <ele>309.9</ele>
        <time>2020-06-26T08:38:14Z</time>
      </trkpt>
      <trkpt lat="49.65018" lon="5.93034">
        <ele>309.8</ele>
        <time>2020-06-26T08:38:15Z</time>
      </trkpt>
      <trkpt lat="49.6502" lon="5.93042">
        <ele>309.7</ele>
        <time>2020-06-26T08:38:16Z</time>
      </trkpt>
      <trkpt lat="49.65021" lon="5.93052">
        <ele>309.6</ele>
        <time>2020-06-26T08:38:17Z</time>
      </trkpt>
      <trkpt lat="49.65022" lon="5.93062">
        <ele>309.5</ele>
        <time>2020-06-26T08:38:18Z</time>
      </trkpt>
      <trkpt lat="49.65021" lon="5.93071">
        <ele>309.4</ele>
        <time>2020-06-26T08:38:19Z</time>
      </trkpt>
      <trkpt lat="49.65021" lon="5.9308">
        <ele>309.4</ele>
        <time>2020-06-26T08:38:20Z</time>
      </trkpt>
      <trkpt lat="49.65019" lon="5.93089">
        <ele>309.3</ele>
        <time>2020-06-26T08:38:21Z</time>
      </trkpt>
      <trkpt lat="49.65018" lon="5.93097">
        <ele>309.3</ele>
        <time>2020-06-26T08:38:22Z</time>
      </trkpt>
      <trkpt lat="49.65016" lon="5.93105">
        <ele>309.3</ele>
        <time>2020-06-26T08:38:23Z</time>
      </trkpt>
      <trkpt lat="49.65014" lon="5.93112">
        <ele>309.3</ele>
        <time>2020-06-26T08:38:24Z</time>
      </trkpt>
      <trkpt lat="49.6501" lon="5.93117">
        <ele>309.3</ele>
        <time>2020-06-26T08:38:25Z</time>
      </trkpt>
      <trkpt lat="49.65006" lon="5.93122">
        <ele>309.3</ele>
        <time>2020-06-26T08:38:26Z</time>
      </trkpt>
      <trkpt lat="49.65002" lon="5.93127">
        <ele>309.3</ele>
        <time>2020-06-26T08:38:27Z</time>
      </trkpt>
      <trkpt lat="49.64998" lon="5.93133">
        <ele>309.3</ele>
        <time>2020-06-26T08:38:28Z</time>
      </trkpt>
      <trkpt lat="49.64994" lon="5.93138">
        <ele>309.3</ele>
        <time>2020-06-26T08:38:29Z</time>
      </trkpt>
      <trkpt lat="49.6499" lon="5.93143">
        <ele>309.2</ele>
        <time>2020-06-26T08:38:30Z</time>
      </trkpt>
      <trkpt lat="49.64985" lon="5.93149">
        <ele>309.2</ele>
        <time>2020-06-26T08:38:31Z</time>
      </trkpt>
      <trkpt lat="49.64982" lon="5.93153">
        <ele>309.2</ele>
        <time>2020-06-26T08:38:32Z</time>
      </trkpt>
      <trkpt lat="49.64977" lon="5.93157">
        <ele>309.2</ele>
        <time>2020-06-26T08:38:33Z</time>
      </trkpt>
      <trkpt lat="49.64974" lon="5.93162">
        <ele>309.2</ele>
        <time>2020-06-26T08:38:34Z</time>
      </trkpt>
      <trkpt lat="49.64969" lon="5.93165">
        <ele>309.3</ele>
        <time>2020-06-26T08:38:35Z</time>
      </trkpt>
      <trkpt lat="49.64964" lon="5.9317">
        <ele>309.3</ele>
        <time>2020-06-26T08:38:36Z</time>
      </trkpt>
      <trkpt lat="49.6496" lon="5.93173">
        <ele>309.4</ele>
        <time>2020-06-26T08:38:37Z</time>
      </trkpt>
      <trkpt lat="49.64956" lon="5.93178">
        <ele>309.4</ele>
        <time>2020-06-26T08:38:38Z</time>
      </trkpt>
      <trkpt lat="49.64953" lon="5.93183">
        <ele>309.4</ele>
        <time>2020-06-26T08:38:39Z</time>
      </trkpt>
      <trkpt lat="49.64948" lon="5.93187">
        <ele>309.4</ele>
        <time>2020-06-26T08:38:40Z</time>
      </trkpt>
      <trkpt lat="49.64945" lon="5.93191">
        <ele>309.4</ele>
        <time>2020-06-26T08:38:41Z</time>
      </trkpt>
      <trkpt lat="49.64941" lon="5.93195">
        <ele>309.4</ele>
        <time>2020-06-26T08:38:42Z</time>
      </trkpt>
      <trkpt lat="49.64938" lon="5.93197">
        <ele>309.4</ele>
        <time>2020-06-26T08:38:43Z</time>
      </trkpt>
      <trkpt lat="49.64934" lon="5.932">
        <ele>309.4</ele>
        <time>2020-06-26T08:38:44Z</time>
      </trkpt>
      <trkpt lat="49.6493" lon="5.93202">
        <ele>309.4</ele>
        <time>2020-06-26T08:38:45Z</time>
      </trkpt>
      <trkpt lat="49.64926" lon="5.93204">
        <ele>309.4</ele>
        <time>2020-06-26T08:38:46Z</time>
      </trkpt>
      <trkpt lat="49.64923" lon="5.93205">
        <ele>309.4</ele>
        <time>2020-06-26T08:38:47Z</time>
      </trkpt>
      <trkpt lat="49.64919" lon="5.93206">
        <ele>309.3</ele>
        <time>2020-06-26T08:38:48Z</time>
      </trkpt>
      <trkpt lat="49.64916" lon="5.9321">
        <ele>309.3</ele>
        <time>2020-06-26T08:38:49Z</time>
      </trkpt>
      <trkpt lat="49.64913" lon="5.93213">
        <ele>309.3</ele>
        <time>2020-06-26T08:38:50Z</time>
      </trkpt>
      <trkpt lat="49.64909" lon="5.93215">
        <ele>309.2</ele>
        <time>2020-06-26T08:38:51Z</time>
      </trkpt>
      <trkpt lat="49.64905" lon="5.93217">
        <ele>309.2</ele>
        <time>2020-06-26T08:38:52Z</time>
      </trkpt>
      <trkpt lat="49.64901" lon="5.9322">
        <ele>309.2</ele>
        <time>2020-06-26T08:38:53Z</time>
      </trkpt>
      <trkpt lat="49.64897" lon="5.93223">
        <ele>309.1</ele>
        <time>2020-06-26T08:38:54Z</time>
      </trkpt>
      <trkpt lat="49.64892" lon="5.93226">
        <ele>309.1</ele>
        <time>2020-06-26T08:38:55Z</time>
      </trkpt>
      <trkpt lat="49.64888" lon="5.93229">
        <ele>309</ele>
        <time>2020-06-26T08:38:56Z</time>
      </trkpt>
      <trkpt lat="49.64886" lon="5.93231">
        <ele>309</ele>
        <time>2020-06-26T08:38:57Z</time>
      </trkpt>
      <trkpt lat="49.64883" lon="5.93233">
        <ele>309</ele>
        <time>2020-06-26T08:38:58Z</time>
      </trkpt>
      <trkpt lat="49.64882" lon="5.93233">
        <ele>309</ele>
        <time>2020-06-26T08:38:59Z</time>
      </trkpt>
      <trkpt lat="49.6488" lon="5.93236">
        <ele>308.9</ele>
        <time>2020-06-26T08:39:00Z</time>
      </trkpt>
      <trkpt lat="49.64877" lon="5.93239">
        <ele>308.8</ele>
        <time>2020-06-26T08:39:01Z</time>
      </trkpt>
      <trkpt lat="49.64876" lon="5.93241">
        <ele>308.8</ele>
        <time>2020-06-26T08:39:02Z</time>
      </trkpt>
      <trkpt lat="49.64876" lon="5.93246">
        <ele>308.7</ele>
        <time>2020-06-26T08:39:03Z</time>
      </trkpt>
      <trkpt lat="49.64877" lon="5.93251">
        <ele>308.6</ele>
        <time>2020-06-26T08:39:04Z</time>
      </trkpt>
      <trkpt lat="49.64879" lon="5.93258">
        <ele>308.4</ele>
        <time>2020-06-26T08:39:05Z</time>
      </trkpt>
      <trkpt lat="49.64881" lon="5.93263">
        <ele>308.3</ele>
        <time>2020-06-26T08:39:06Z</time>
      </trkpt>
      <trkpt lat="49.64883" lon="5.93271">
        <ele>308.1</ele>
        <time>2020-06-26T08:39:07Z</time>
      </trkpt>
      <trkpt lat="49.64884" lon="5.93278">
        <ele>308</ele>
        <time>2020-06-26T08:39:08Z</time>
      </trkpt>
      <trkpt lat="49.64886" lon="5.93286">
        <ele>307.8</ele>
        <time>2020-06-26T08:39:09Z</time>
      </trkpt>
      <trkpt lat="49.64888" lon="5.93293">
        <ele>307.7</ele>
        <time>2020-06-26T08:39:10Z</time>
      </trkpt>
      <trkpt lat="49.64891" lon="5.93301">
        <ele>307.6</ele>
        <time>2020-06-26T08:39:11Z</time>
      </trkpt>
      <trkpt lat="49.64894" lon="5.93307">
        <ele>307.5</ele>
        <time>2020-06-26T08:39:12Z</time>
      </trkpt>
      <trkpt lat="49.64897" lon="5.93314">
        <ele>307.4</ele>
        <time>2020-06-26T08:39:13Z</time>
      </trkpt>
      <trkpt lat="49.64899" lon="5.9332">
        <ele>307.4</ele>
        <time>2020-06-26T08:39:14Z</time>
      </trkpt>
      <trkpt lat="49.64901" lon="5.93328">
        <ele>307.3</ele>
        <time>2020-06-26T08:39:15Z</time>
      </trkpt>
      <trkpt lat="49.64904" lon="5.93334">
        <ele>307.2</ele>
        <time>2020-06-26T08:39:16Z</time>
      </trkpt>
      <trkpt lat="49.64906" lon="5.93342">
        <ele>307.1</ele>
        <time>2020-06-26T08:39:17Z</time>
      </trkpt>
      <trkpt lat="49.64909" lon="5.93349">
        <ele>307</ele>
        <time>2020-06-26T08:39:18Z</time>
      </trkpt>
      <trkpt lat="49.64912" lon="5.93357">
        <ele>307</ele>
        <time>2020-06-26T08:39:19Z</time>
      </trkpt>
      <trkpt lat="49.64914" lon="5.93363">
        <ele>306.9</ele>
        <time>2020-06-26T08:39:20Z</time>
      </trkpt>
      <trkpt lat="49.64916" lon="5.9337">
        <ele>306.8</ele>
        <time>2020-06-26T08:39:21Z</time>
      </trkpt>
      <trkpt lat="49.64919" lon="5.93376">
        <ele>306.7</ele>
        <time>2020-06-26T08:39:22Z</time>
      </trkpt>
      <trkpt lat="49.64922" lon="5.93383">
        <ele>306.6</ele>
        <time>2020-06-26T08:39:23Z</time>
      </trkpt>
      <trkpt lat="49.64924" lon="5.93389">
        <ele>306.5</ele>
        <time>2020-06-26T08:39:24Z</time>
      </trkpt>
      <trkpt lat="49.64927" lon="5.93395">
        <ele>306.4</ele>
        <time>2020-06-26T08:39:25Z</time>
      </trkpt>
      <trkpt lat="49.6493" lon="5.93402">
        <ele>306.3</ele>
        <time>2020-06-26T08:39:26Z</time>
      </trkpt>
      <trkpt lat="49.64933" lon="5.93409">
        <ele>306.2</ele>
        <time>2020-06-26T08:39:27Z</time>
      </trkpt>
      <trkpt lat="49.64936" lon="5.93415">
        <ele>306.2</ele>
        <time>2020-06-26T08:39:28Z</time>
      </trkpt>
      <trkpt lat="49.64939" lon="5.93422">
        <ele>306.1</ele>
        <time>2020-06-26T08:39:29Z</time>
      </trkpt>
      <trkpt lat="49.64942" lon="5.93428">
        <ele>306.1</ele>
        <time>2020-06-26T08:39:30Z</time>
      </trkpt>
      <trkpt lat="49.64944" lon="5.93435">
        <ele>306</ele>
        <time>2020-06-26T08:39:31Z</time>
      </trkpt>
      <trkpt lat="49.64947" lon="5.93442">
        <ele>306</ele>
        <time>2020-06-26T08:39:32Z</time>
      </trkpt>
      <trkpt lat="49.64949" lon="5.93449">
        <ele>305.9</ele>
        <time>2020-06-26T08:39:33Z</time>
      </trkpt>
      <trkpt lat="49.64951" lon="5.93455">
        <ele>305.8</ele>
        <time>2020-06-26T08:39:34Z</time>
      </trkpt>
      <trkpt lat="49.64954" lon="5.93462">
        <ele>305.8</ele>
        <time>2020-06-26T08:39:35Z</time>
      </trkpt>
      <trkpt lat="49.64957" lon="5.93468">
        <ele>305.7</ele>
        <time>2020-06-26T08:39:36Z</time>
      </trkpt>
      <trkpt lat="49.6496" lon="5.93474">
        <ele>305.6</ele>
        <time>2020-06-26T08:39:37Z</time>
      </trkpt>
      <trkpt lat="49.64963" lon="5.9348">
        <ele>305.5</ele>
        <time>2020-06-26T08:39:38Z</time>
      </trkpt>
      <trkpt lat="49.64966" lon="5.93486">
        <ele>305.5</ele>
        <time>2020-06-26T08:39:39Z</time>
      </trkpt>
      <trkpt lat="49.64968" lon="5.93492">
        <ele>305.4</ele>
        <time>2020-06-26T08:39:40Z</time>
      </trkpt>
      <trkpt lat="49.64969" lon="5.93498">
        <ele>305.4</ele>
        <time>2020-06-26T08:39:41Z</time>
      </trkpt>
      <trkpt lat="49.64972" lon="5.93504">
        <ele>305.3</ele>
        <time>2020-06-26T08:39:42Z</time>
      </trkpt>
      <trkpt lat="49.64975" lon="5.9351">
        <ele>305.3</ele>
        <time>2020-06-26T08:39:43Z</time>
      </trkpt>
      <trkpt lat="49.64978" lon="5.93516">
        <ele>305.2</ele>
        <time>2020-06-26T08:39:44Z</time>
      </trkpt>
      <trkpt lat="49.6498" lon="5.93521">
        <ele>305.2</ele>
        <time>2020-06-26T08:39:45Z</time>
      </trkpt>
      <trkpt lat="49.64982" lon="5.93526">
        <ele>305.2</ele>
        <time>2020-06-26T08:39:46Z</time>
      </trkpt>
      <trkpt lat="49.64984" lon="5.9353">
        <ele>305.2</ele>
        <time>2020-06-26T08:39:47Z</time>
      </trkpt>
      <trkpt lat="49.64987" lon="5.93535">
        <ele>305.2</ele>
        <time>2020-06-26T08:39:48Z</time>
      </trkpt>
      <trkpt lat="49.64989" lon="5.93542">
        <ele>305.1</ele>
        <time>2020-06-26T08:39:49Z</time>
      </trkpt>
      <trkpt lat="49.64992" lon="5.93548">
        <ele>305.1</ele>
        <time>2020-06-26T08:39:50Z</time>
      </trkpt>
      <trkpt lat="49.64995" lon="5.93555">
        <ele>305</ele>
        <time>2020-06-26T08:39:51Z</time>
      </trkpt>
      <trkpt lat="49.64997" lon="5.93562">
        <ele>305</ele>
        <time>2020-06-26T08:39:52Z</time>
      </trkpt>
      <trkpt lat="49.65" lon="5.93568">
        <ele>304.9</ele>
        <time>2020-06-26T08:39:53Z</time>
      </trkpt>
      <trkpt lat="49.65003" lon="5.93576">
        <ele>304.9</ele>
        <time>2020-06-26T08:39:54Z</time>
      </trkpt>
      <trkpt lat="49.65005" lon="5.93585">
        <ele>304.8</ele>
        <time>2020-06-26T08:39:55Z</time>
      </trkpt>
      <trkpt lat="49.65007" lon="5.93592">
        <ele>304.8</ele>
        <time>2020-06-26T08:39:56Z</time>
      </trkpt>
      <trkpt lat="49.65009" lon="5.93599">
        <ele>304.7</ele>
        <time>2020-06-26T08:39:57Z</time>
      </trkpt>
      <trkpt lat="49.65011" lon="5.93608">
        <ele>304.7</ele>
        <time>2020-06-26T08:39:58Z</time>
      </trkpt>
      <trkpt lat="49.65012" lon="5.93617">
        <ele>304.7</ele>
        <time>2020-06-26T08:39:59Z</time>
      </trkpt>
      <trkpt lat="49.65014" lon="5.93625">
        <ele>304.7</ele>
        <time>2020-06-26T08:40:00Z</time>
      </trkpt>
      <trkpt lat="49.65016" lon="5.93631">
        <ele>304.7</ele>
        <time>2020-06-26T08:40:01Z</time>
      </trkpt>
      <trkpt lat="49.65017" lon="5.93639">
        <ele>304.7</ele>
        <time>2020-06-26T08:40:02Z</time>
      </trkpt>
      <trkpt lat="49.65018" lon="5.93647">
        <ele>304.7</ele>
        <time>2020-06-26T08:40:03Z</time>
      </trkpt>
      <trkpt lat="49.65019" lon="5.93655">
        <ele>304.7</ele>
        <time>2020-06-26T08:40:04Z</time>
      </trkpt>
      <trkpt lat="49.6502" lon="5.93663">
        <ele>304.7</ele>
        <time>2020-06-26T08:40:05Z</time>
      </trkpt>
      <trkpt lat="49.65021" lon="5.93673">
        <ele>304.7</ele>
        <time>2020-06-26T08:40:06Z</time>
      </trkpt>
      <trkpt lat="49.65022" lon="5.93681">
        <ele>304.8</ele>
        <time>2020-06-26T08:40:07Z</time>
      </trkpt>
      <trkpt lat="49.65023" lon="5.9369">
        <ele>304.8</ele>
        <time>2020-06-26T08:40:08Z</time>
      </trkpt>
      <trkpt lat="49.65024" lon="5.93699">
        <ele>304.8</ele>
        <time>2020-06-26T08:40:09Z</time>
      </trkpt>
      <trkpt lat="49.65024" lon="5.93708">
        <ele>304.8</ele>
        <time>2020-06-26T08:40:10Z</time>
      </trkpt>
      <trkpt lat="49.65024" lon="5.93716">
        <ele>304.8</ele>
        <time>2020-06-26T08:40:11Z</time>
      </trkpt>
      <trkpt lat="49.65023" lon="5.93724">
        <ele>304.8</ele>
        <time>2020-06-26T08:40:12Z</time>
      </trkpt>
      <trkpt lat="49.65023" lon="5.93733">
        <ele>304.8</ele>
        <time>2020-06-26T08:40:13Z</time>
      </trkpt>
      <trkpt lat="49.65022" lon="5.93741">
        <ele>304.8</ele>
        <time>2020-06-26T08:40:14Z</time>
      </trkpt>
      <trkpt lat="49.65022" lon="5.93749">
        <ele>304.9</ele>
        <time>2020-06-26T08:40:15Z</time>
      </trkpt>
      <trkpt lat="49.65022" lon="5.93758">
        <ele>304.9</ele>
        <time>2020-06-26T08:40:16Z</time>
      </trkpt>
      <trkpt lat="49.65022" lon="5.93764">
        <ele>304.9</ele>
        <time>2020-06-26T08:40:17Z</time>
      </trkpt>
      <trkpt lat="49.65022" lon="5.93772">
        <ele>304.9</ele>
        <time>2020-06-26T08:40:18Z</time>
      </trkpt>
      <trkpt lat="49.65022" lon="5.93779">
        <ele>304.9</ele>
        <time>2020-06-26T08:40:19Z</time>
      </trkpt>
      <trkpt lat="49.65021" lon="5.93787">
        <ele>305</ele>
        <time>2020-06-26T08:40:20Z</time>
      </trkpt>
      <trkpt lat="49.6502" lon="5.93795">
        <ele>305</ele>
        <time>2020-06-26T08:40:21Z</time>
      </trkpt>
      <trkpt lat="49.65019" lon="5.93803">
        <ele>305</ele>
        <time>2020-06-26T08:40:22Z</time>
      </trkpt>
      <trkpt lat="49.65018" lon="5.93811">
        <ele>305</ele>
        <time>2020-06-26T08:40:23Z</time>
      </trkpt>
      <trkpt lat="49.65016" lon="5.93818">
        <ele>305</ele>
        <time>2020-06-26T08:40:24Z</time>
      </trkpt>
      <trkpt lat="49.65015" lon="5.93825">
        <ele>305</ele>
        <time>2020-06-26T08:40:25Z</time>
      </trkpt>
      <trkpt lat="49.65014" lon="5.93832">
        <ele>305.1</ele>
        <time>2020-06-26T08:40:26Z</time>
      </trkpt>
      <trkpt lat="49.65013" lon="5.93839">
        <ele>305.1</ele>
        <time>2020-06-26T08:40:27Z</time>
      </trkpt>
      <trkpt lat="49.65012" lon="5.93847">
        <ele>305.2</ele>
        <time>2020-06-26T08:40:28Z</time>
      </trkpt>
      <trkpt lat="49.6501" lon="5.93855">
        <ele>305.4</ele>
        <time>2020-06-26T08:40:29Z</time>
      </trkpt>
      <trkpt lat="49.65008" lon="5.93861">
        <ele>305.5</ele>
        <time>2020-06-26T08:40:30Z</time>
      </trkpt>
      <trkpt lat="49.65006" lon="5.93869">
        <ele>305.6</ele>
        <time>2020-06-26T08:40:31Z</time>
      </trkpt>
      <trkpt lat="49.65004" lon="5.93877">
        <ele>305.8</ele>
        <time>2020-06-26T08:40:32Z</time>
      </trkpt>
      <trkpt lat="49.65002" lon="5.93885">
        <ele>305.9</ele>
        <time>2020-06-26T08:40:33Z</time>
      </trkpt>
      <trkpt lat="49.65" lon="5.93893">
        <ele>306</ele>
        <time>2020-06-26T08:40:34Z</time>
      </trkpt>
      <trkpt lat="49.64997" lon="5.939">
        <ele>306.1</ele>
        <time>2020-06-26T08:40:35Z</time>
      </trkpt>
      <trkpt lat="49.64995" lon="5.93907">
        <ele>306.2</ele>
        <time>2020-06-26T08:40:36Z</time>
      </trkpt>
      <trkpt lat="49.64993" lon="5.93914">
        <ele>306.3</ele>
        <time>2020-06-26T08:40:37Z</time>
      </trkpt>
      <trkpt lat="49.64991" lon="5.9392">
        <ele>306.5</ele>
        <time>2020-06-26T08:40:38Z</time>
      </trkpt>
      <trkpt lat="49.64989" lon="5.93928">
        <ele>306.7</ele>
        <time>2020-06-26T08:40:39Z</time>
      </trkpt>
      <trkpt lat="49.64987" lon="5.93935">
        <ele>306.8</ele>
        <time>2020-06-26T08:40:40Z</time>
      </trkpt>
      <trkpt lat="49.64985" lon="5.93941">
        <ele>307</ele>
        <time>2020-06-26T08:40:41Z</time>
      </trkpt>
      <trkpt lat="49.64981" lon="5.93947">
        <ele>307.1</ele>
        <time>2020-06-26T08:40:42Z</time>
      </trkpt>
      <trkpt lat="49.64978" lon="5.93956">
        <ele>307.3</ele>
        <time>2020-06-26T08:40:43Z</time>
      </trkpt>
      <trkpt lat="49.64976" lon="5.93963">
        <ele>307.5</ele>
        <time>2020-06-26T08:40:44Z</time>
      </trkpt>
      <trkpt lat="49.64973" lon="5.9397">
        <ele>307.7</ele>
        <time>2020-06-26T08:40:45Z</time>
      </trkpt>
      <trkpt lat="49.6497" lon="5.93977">
        <ele>307.8</ele>
        <time>2020-06-26T08:40:46Z</time>
      </trkpt>
      <trkpt lat="49.64967" lon="5.93984">
        <ele>308</ele>
        <time>2020-06-26T08:40:47Z</time>
      </trkpt>
      <trkpt lat="49.64965" lon="5.9399">
        <ele>308.2</ele>
        <time>2020-06-26T08:40:48Z</time>
      </trkpt>
      <trkpt lat="49.64963" lon="5.93997">
        <ele>308.4</ele>
        <time>2020-06-26T08:40:49Z</time>
      </trkpt>
      <trkpt lat="49.6496" lon="5.94003">
        <ele>308.5</ele>
        <time>2020-06-26T08:40:50Z</time>
      </trkpt>
      <trkpt lat="49.64959" lon="5.94009">
        <ele>308.7</ele>
        <time>2020-06-26T08:40:51Z</time>
      </trkpt>
      <trkpt lat="49.64956" lon="5.94016">
        <ele>308.9</ele>
        <time>2020-06-26T08:40:52Z</time>
      </trkpt>
      <trkpt lat="49.64954" lon="5.94023">
        <ele>309.1</ele>
        <time>2020-06-26T08:40:53Z</time>
      </trkpt>
      <trkpt lat="49.64951" lon="5.9403">
        <ele>309.2</ele>
        <time>2020-06-26T08:40:54Z</time>
      </trkpt>
      <trkpt lat="49.6495" lon="5.94036">
        <ele>309.4</ele>
        <time>2020-06-26T08:40:55Z</time>
      </trkpt>
      <trkpt lat="49.64948" lon="5.94042">
        <ele>309.6</ele>
        <time>2020-06-26T08:40:56Z</time>
      </trkpt>
      <trkpt lat="49.64946" lon="5.94048">
        <ele>309.8</ele>
        <time>2020-06-26T08:40:57Z</time>
      </trkpt>
      <trkpt lat="49.64945" lon="5.94054">
        <ele>310</ele>
        <time>2020-06-26T08:40:58Z</time>
      </trkpt>
      <trkpt lat="49.64944" lon="5.94059">
        <ele>310.1</ele>
        <time>2020-06-26T08:40:59Z</time>
      </trkpt>
      <trkpt lat="49.64943" lon="5.94065">
        <ele>310.3</ele>
        <time>2020-06-26T08:41:00Z</time>
      </trkpt>
      <trkpt lat="49.64941" lon="5.94069">
        <ele>310.5</ele>
        <time>2020-06-26T08:41:01Z</time>
      </trkpt>
      <trkpt lat="49.6494" lon="5.94073">
        <ele>310.6</ele>
        <time>2020-06-26T08:41:02Z</time>
      </trkpt>
      <trkpt lat="49.64938" lon="5.94079">
        <ele>310.8</ele>
        <time>2020-06-26T08:41:03Z</time>
      </trkpt>
      <trkpt lat="49.64938" lon="5.94081">
        <ele>310.9</ele>
        <time>2020-06-26T08:41:04Z</time>
      </trkpt>
      <trkpt lat="49.64936" lon="5.94086">
        <ele>311.1</ele>
        <time>2020-06-26T08:41:05Z</time>
      </trkpt>
      <trkpt lat="49.64934" lon="5.9409">
        <ele>311.3</ele>
        <time>2020-06-26T08:41:06Z</time>
      </trkpt>
      <trkpt lat="49.64932" lon="5.94094">
        <ele>311.5</ele>
        <time>2020-06-26T08:41:07Z</time>
      </trkpt>
      <trkpt lat="49.64932" lon="5.94098">
        <ele>311.7</ele>
        <time>2020-06-26T08:41:08Z</time>
      </trkpt>
      <trkpt lat="49.6493" lon="5.94102">
        <ele>311.9</ele>
        <time>2020-06-26T08:41:09Z</time>
      </trkpt>
      <trkpt lat="49.64928" lon="5.94107">
        <ele>312.1</ele>
        <time>2020-06-26T08:41:10Z</time>
      </trkpt>
      <trkpt lat="49.64927" lon="5.94112">
        <ele>312.3</ele>
        <time>2020-06-26T08:41:11Z</time>
      </trkpt>
      <trkpt lat="49.64926" lon="5.94116">
        <ele>312.5</ele>
        <time>2020-06-26T08:41:12Z</time>
      </trkpt>
      <trkpt lat="49.64925" lon="5.94121">
        <ele>312.7</ele>
        <time>2020-06-26T08:41:13Z</time>
      </trkpt>
      <trkpt lat="49.64924" lon="5.94126">
        <ele>312.9</ele>
        <time>2020-06-26T08:41:14Z</time>
      </trkpt>
      <trkpt lat="49.64923" lon="5.94132">
        <ele>313.2</ele>
        <time>2020-06-26T08:41:15Z</time>
      </trkpt>
      <trkpt lat="49.64921" lon="5.94136">
        <ele>313.4</ele>
        <time>2020-06-26T08:41:16Z</time>
      </trkpt>
      <trkpt lat="49.6492" lon="5.9414">
        <ele>313.6</ele>
        <time>2020-06-26T08:41:17Z</time>
      </trkpt>
      <trkpt lat="49.64919" lon="5.94145">
        <ele>313.8</ele>
        <time>2020-06-26T08:41:18Z</time>
      </trkpt>
      <trkpt lat="49.64917" lon="5.94149">
        <ele>314</ele>
        <time>2020-06-26T08:41:19Z</time>
      </trkpt>
      <trkpt lat="49.64916" lon="5.94153">
        <ele>314.2</ele>
        <time>2020-06-26T08:41:20Z</time>
      </trkpt>
      <trkpt lat="49.64913" lon="5.94157">
        <ele>314.5</ele>
        <time>2020-06-26T08:41:21Z</time>
      </trkpt>
      <trkpt lat="49.64912" lon="5.94159">
        <ele>314.6</ele>
        <time>2020-06-26T08:41:22Z</time>
      </trkpt>
      <trkpt lat="49.64911" lon="5.94163">
        <ele>314.8</ele>
        <time>2020-06-26T08:41:23Z</time>
      </trkpt>
      <trkpt lat="49.6491" lon="5.94168">
        <ele>315.1</ele>
        <time>2020-06-26T08:41:24Z</time>
      </trkpt>
      <trkpt lat="49.64909" lon="5.94172">
        <ele>315.3</ele>
        <time>2020-06-26T08:41:25Z</time>
      </trkpt>
      <trkpt lat="49.64909" lon="5.94178">
        <ele>315.5</ele>
        <time>2020-06-26T08:41:26Z</time>
      </trkpt>
      <trkpt lat="49.64907" lon="5.94182">
        <ele>315.8</ele>
        <time>2020-06-26T08:41:27Z</time>
      </trkpt>
      <trkpt lat="49.64905" lon="5.94187">
        <ele>316</ele>
        <time>2020-06-26T08:41:28Z</time>
      </trkpt>
      <trkpt lat="49.64904" lon="5.94192">
        <ele>316.2</ele>
        <time>2020-06-26T08:41:29Z</time>
      </trkpt>
      <trkpt lat="49.64903" lon="5.94194">
        <ele>316.3</ele>
        <time>2020-06-26T08:41:30Z</time>
      </trkpt>
      <trkpt lat="49.64902" lon="5.942">
        <ele>316.5</ele>
        <time>2020-06-26T08:41:31Z</time>
      </trkpt>
      <trkpt lat="49.64901" lon="5.94204">
        <ele>316.7</ele>
        <time>2020-06-26T08:41:32Z</time>
      </trkpt>
      <trkpt lat="49.649" lon="5.94208">
        <ele>316.9</ele>
        <time>2020-06-26T08:41:33Z</time>
      </trkpt>
      <trkpt lat="49.64899" lon="5.94212">
        <ele>317.1</ele>
        <time>2020-06-26T08:41:34Z</time>
      </trkpt>
      <trkpt lat="49.64898" lon="5.94217">
        <ele>317.3</ele>
        <time>2020-06-26T08:41:35Z</time>
      </trkpt>
      <trkpt lat="49.64897" lon="5.94221">
        <ele>317.5</ele>
        <time>2020-06-26T08:41:36Z</time>
      </trkpt>
      <trkpt lat="49.64895" lon="5.94226">
        <ele>317.7</ele>
        <time>2020-06-26T08:41:37Z</time>
      </trkpt>
      <trkpt lat="49.64894" lon="5.94231">
        <ele>317.9</ele>
        <time>2020-06-26T08:41:38Z</time>
      </trkpt>
      <trkpt lat="49.64892" lon="5.94236">
        <ele>318.2</ele>
        <time>2020-06-26T08:41:39Z</time>
      </trkpt>
      <trkpt lat="49.64891" lon="5.94242">
        <ele>318.4</ele>
        <time>2020-06-26T08:41:40Z</time>
      </trkpt>
      <trkpt lat="49.64891" lon="5.94247">
        <ele>318.6</ele>
        <time>2020-06-26T08:41:41Z</time>
      </trkpt>
      <trkpt lat="49.6489" lon="5.94252">
        <ele>318.9</ele>
        <time>2020-06-26T08:41:42Z</time>
      </trkpt>
      <trkpt lat="49.64889" lon="5.94257">
        <ele>319.1</ele>
        <time>2020-06-26T08:41:43Z</time>
      </trkpt>
      <trkpt lat="49.64889" lon="5.94262">
        <ele>319.3</ele>
        <time>2020-06-26T08:41:44Z</time>
      </trkpt>
      <trkpt lat="49.64889" lon="5.94267">
        <ele>319.5</ele>
        <time>2020-06-26T08:41:45Z</time>
      </trkpt>
      <trkpt lat="49.6489" lon="5.94271">
        <ele>319.6</ele>
        <time>2020-06-26T08:41:46Z</time>
      </trkpt>
      <trkpt lat="49.64889" lon="5.94278">
        <ele>319.9</ele>
        <time>2020-06-26T08:41:47Z</time>
      </trkpt>
      <trkpt lat="49.64889" lon="5.94283">
        <ele>320.1</ele>
        <time>2020-06-26T08:41:48Z</time>
      </trkpt>
      <trkpt lat="49.64888" lon="5.94288">
        <ele>320.3</ele>
        <time>2020-06-26T08:41:49Z</time>
      </trkpt>
      <trkpt lat="49.64887" lon="5.94293">
        <ele>320.5</ele>
        <time>2020-06-26T08:41:50Z</time>
      </trkpt>
      <trkpt lat="49.64887" lon="5.94298">
        <ele>320.7</ele>
        <time>2020-06-26T08:41:51Z</time>
      </trkpt>
      <trkpt lat="49.64887" lon="5.94303">
        <ele>320.8</ele>
        <time>2020-06-26T08:41:52Z</time>
      </trkpt>
      <trkpt lat="49.64886" lon="5.94308">
        <ele>321</ele>
        <time>2020-06-26T08:41:53Z</time>
      </trkpt>
      <trkpt lat="49.64886" lon="5.94312">
        <ele>321.2</ele>
        <time>2020-06-26T08:41:54Z</time>
      </trkpt>
      <trkpt lat="49.64885" lon="5.94317">
        <ele>321.4</ele>
        <time>2020-06-26T08:41:55Z</time>
      </trkpt>
      <trkpt lat="49.64884" lon="5.94321">
        <ele>321.5</ele>
        <time>2020-06-26T08:41:56Z</time>
      </trkpt>
      <trkpt lat="49.64883" lon="5.94327">
        <ele>321.7</ele>
        <time>2020-06-26T08:41:57Z</time>
      </trkpt>
      <trkpt lat="49.64882" lon="5.94332">
        <ele>321.9</ele>
        <time>2020-06-26T08:41:58Z</time>
      </trkpt>
      <trkpt lat="49.64883" lon="5.94337">
        <ele>322.1</ele>
        <time>2020-06-26T08:41:59Z</time>
      </trkpt>
      <trkpt lat="49.64882" lon="5.94342">
        <ele>322.3</ele>
        <time>2020-06-26T08:42:00Z</time>
      </trkpt>
      <trkpt lat="49.64882" lon="5.94347">
        <ele>322.5</ele>
        <time>2020-06-26T08:42:01Z</time>
      </trkpt>
      <trkpt lat="49.6488" lon="5.94351">
        <ele>322.6</ele>
        <time>2020-06-26T08:42:02Z</time>
      </trkpt>
      <trkpt lat="49.64879" lon="5.94357">
        <ele>322.8</ele>
        <time>2020-06-26T08:42:03Z</time>
      </trkpt>
      <trkpt lat="49.64879" lon="5.94361">
        <ele>323</ele>
        <time>2020-06-26T08:42:04Z</time>
      </trkpt>
      <trkpt lat="49.64878" lon="5.94366">
        <ele>323.2</ele>
        <time>2020-06-26T08:42:05Z</time>
      </trkpt>
      <trkpt lat="49.64877" lon="5.9437">
        <ele>323.4</ele>
        <time>2020-06-26T08:42:06Z</time>
      </trkpt>
      <trkpt lat="49.64877" lon="5.94375">
        <ele>323.5</ele>
        <time>2020-06-26T08:42:07Z</time>
      </trkpt>
      <trkpt lat="49.64876" lon="5.9438">
        <ele>323.7</ele>
        <time>2020-06-26T08:42:08Z</time>
      </trkpt>
      <trkpt lat="49.64876" lon="5.94385">
        <ele>323.9</ele>
        <time>2020-06-26T08:42:09Z</time>
      </trkpt>
      <trkpt lat="49.64875" lon="5.94389">
        <ele>324.1</ele>
        <time>2020-06-26T08:42:10Z</time>
      </trkpt>
      <trkpt lat="49.64874" lon="5.94394">
        <ele>324.3</ele>
        <time>2020-06-26T08:42:11Z</time>
      </trkpt>
      <trkpt lat="49.64874" lon="5.94396">
        <ele>324.4</ele>
        <time>2020-06-26T08:42:12Z</time>
      </trkpt>
      <trkpt lat="49.64874" lon="5.94401">
        <ele>324.5</ele>
        <time>2020-06-26T08:42:13Z</time>
      </trkpt>
      <trkpt lat="49.64874" lon="5.94406">
        <ele>324.7</ele>
        <time>2020-06-26T08:42:14Z</time>
      </trkpt>
      <trkpt lat="49.64874" lon="5.94412">
        <ele>324.9</ele>
        <time>2020-06-26T08:42:15Z</time>
      </trkpt>
      <trkpt lat="49.64873" lon="5.94418">
        <ele>325.2</ele>
        <time>2020-06-26T08:42:16Z</time>
      </trkpt>
      <trkpt lat="49.64873" lon="5.94423">
        <ele>325.3</ele>
        <time>2020-06-26T08:42:17Z</time>
      </trkpt>
      <trkpt lat="49.64872" lon="5.94428">
        <ele>325.5</ele>
        <time>2020-06-26T08:42:18Z</time>
      </trkpt>
      <trkpt lat="49.64871" lon="5.94433">
        <ele>325.7</ele>
        <time>2020-06-26T08:42:19Z</time>
      </trkpt>
      <trkpt lat="49.64871" lon="5.94438">
        <ele>325.9</ele>
        <time>2020-06-26T08:42:20Z</time>
      </trkpt>
      <trkpt lat="49.64869" lon="5.94444">
        <ele>326.1</ele>
        <time>2020-06-26T08:42:21Z</time>
      </trkpt>
      <trkpt lat="49.64869" lon="5.94449">
        <ele>326.2</ele>
        <time>2020-06-26T08:42:22Z</time>
      </trkpt>
      <trkpt lat="49.64868" lon="5.94454">
        <ele>326.4</ele>
        <time>2020-06-26T08:42:23Z</time>
      </trkpt>
      <trkpt lat="49.64867" lon="5.94458">
        <ele>326.5</ele>
        <time>2020-06-26T08:42:24Z</time>
      </trkpt>
      <trkpt lat="49.64866" lon="5.94462">
        <ele>326.7</ele>
        <time>2020-06-26T08:42:25Z</time>
      </trkpt>
      <trkpt lat="49.64866" lon="5.94467">
        <ele>326.8</ele>
        <time>2020-06-26T08:42:26Z</time>
      </trkpt>
      <trkpt lat="49.64866" lon="5.94473">
        <ele>327</ele>
        <time>2020-06-26T08:42:27Z</time>
      </trkpt>
      <trkpt lat="49.64866" lon="5.94478">
        <ele>327.2</ele>
        <time>2020-06-26T08:42:28Z</time>
      </trkpt>
      <trkpt lat="49.64866" lon="5.94483">
        <ele>327.3</ele>
        <time>2020-06-26T08:42:29Z</time>
      </trkpt>
      <trkpt lat="49.64864" lon="5.94488">
        <ele>327.5</ele>
        <time>2020-06-26T08:42:30Z</time>
      </trkpt>
      <trkpt lat="49.64863" lon="5.94493">
        <ele>327.6</ele>
        <time>2020-06-26T08:42:31Z</time>
      </trkpt>
      <trkpt lat="49.64862" lon="5.94498">
        <ele>327.8</ele>
        <time>2020-06-26T08:42:32Z</time>
      </trkpt>
      <trkpt lat="49.64862" lon="5.94503">
        <ele>327.9</ele>
        <time>2020-06-26T08:42:33Z</time>
      </trkpt>
      <trkpt lat="49.64862" lon="5.94508">
        <ele>328</ele>
        <time>2020-06-26T08:42:34Z</time>
      </trkpt>
      <trkpt lat="49.64862" lon="5.94512">
        <ele>328.1</ele>
        <time>2020-06-26T08:42:35Z</time>
      </trkpt>
      <trkpt lat="49.64861" lon="5.94517">
        <ele>328.2</ele>
        <time>2020-06-26T08:42:36Z</time>
      </trkpt>
      <trkpt lat="49.64861" lon="5.94522">
        <ele>328.3</ele>
        <time>2020-06-26T08:42:37Z</time>
      </trkpt>
      <trkpt lat="49.64861" lon="5.94528">
        <ele>328.4</ele>
        <time>2020-06-26T08:42:38Z</time>
      </trkpt>
      <trkpt lat="49.64861" lon="5.94533">
        <ele>328.5</ele>
        <time>2020-06-26T08:42:39Z</time>
      </trkpt>
      <trkpt lat="49.6486" lon="5.94538">
        <ele>328.5</ele>
        <time>2020-06-26T08:42:40Z</time>
      </trkpt>
      <trkpt lat="49.6486" lon="5.94543">
        <ele>328.6</ele>
        <time>2020-06-26T08:42:41Z</time>
      </trkpt>
      <trkpt lat="49.64859" lon="5.94549">
        <ele>328.7</ele>
        <time>2020-06-26T08:42:42Z</time>
      </trkpt>
      <trkpt lat="49.64858" lon="5.94554">
        <ele>328.7</ele>
        <time>2020-06-26T08:42:43Z</time>
      </trkpt>
      <trkpt lat="49.64857" lon="5.9456">
        <ele>328.8</ele>
        <time>2020-06-26T08:42:44Z</time>
      </trkpt>
      <trkpt lat="49.64857" lon="5.94566">
        <ele>328.9</ele>
        <time>2020-06-26T08:42:45Z</time>
      </trkpt>
      <trkpt lat="49.64858" lon="5.94572">
        <ele>328.9</ele>
        <time>2020-06-26T08:42:46Z</time>
      </trkpt>
      <trkpt lat="49.64858" lon="5.94578">
        <ele>329</ele>
        <time>2020-06-26T08:42:47Z</time>
      </trkpt>
      <trkpt lat="49.64858" lon="5.94584">
        <ele>329</ele>
        <time>2020-06-26T08:42:48Z</time>
      </trkpt>
      <trkpt lat="49.64858" lon="5.9459">
        <ele>329</ele>
        <time>2020-06-26T08:42:49Z</time>
      </trkpt>
      <trkpt lat="49.64858" lon="5.94596">
        <ele>329</ele>
        <time>2020-06-26T08:42:50Z</time>
      </trkpt>
      <trkpt lat="49.64858" lon="5.94603">
        <ele>329</ele>
        <time>2020-06-26T08:42:51Z</time>
      </trkpt>
      <trkpt lat="49.64858" lon="5.9461">
        <ele>329</ele>
        <time>2020-06-26T08:42:52Z</time>
      </trkpt>
      <trkpt lat="49.64857" lon="5.94617">
        <ele>329</ele>
        <time>2020-06-26T08:42:53Z</time>
      </trkpt>
      <trkpt lat="49.64857" lon="5.94624">
        <ele>329</ele>
        <time>2020-06-26T08:42:54Z</time>
      </trkpt>
      <trkpt lat="49.64857" lon="5.9463">
        <ele>328.9</ele>
        <time>2020-06-26T08:42:55Z</time>
      </trkpt>
      <trkpt lat="49.64857" lon="5.94636">
        <ele>328.9</ele>
        <time>2020-06-26T08:42:56Z</time>
      </trkpt>
      <trkpt lat="49.64857" lon="5.94642">
        <ele>328.9</ele>
        <time>2020-06-26T08:42:57Z</time>
      </trkpt>
      <trkpt lat="49.64858" lon="5.94648">
        <ele>328.9</ele>
        <time>2020-06-26T08:42:58Z</time>
      </trkpt>
      <trkpt lat="49.64858" lon="5.94654">
        <ele>328.9</ele>
        <time>2020-06-26T08:42:59Z</time>
      </trkpt>
      <trkpt lat="49.64857" lon="5.94661">
        <ele>328.9</ele>
        <time>2020-06-26T08:43:00Z</time>
      </trkpt>
      <trkpt lat="49.64857" lon="5.94668">
        <ele>328.9</ele>
        <time>2020-06-26T08:43:01Z</time>
      </trkpt>
      <trkpt lat="49.64858" lon="5.94675">
        <ele>328.9</ele>
        <time>2020-06-26T08:43:02Z</time>
      </trkpt>
      <trkpt lat="49.64858" lon="5.94681">
        <ele>328.8</ele>
        <time>2020-06-26T08:43:03Z</time>
      </trkpt>
      <trkpt lat="49.64858" lon="5.94687">
        <ele>328.8</ele>
        <time>2020-06-26T08:43:04Z</time>
      </trkpt>
      <trkpt lat="49.64858" lon="5.94694">
        <ele>328.8</ele>
        <time>2020-06-26T08:43:05Z</time>
      </trkpt>
      <trkpt lat="49.64858" lon="5.947">
        <ele>328.7</ele>
        <time>2020-06-26T08:43:06Z</time>
      </trkpt>
      <trkpt lat="49.64857" lon="5.94706">
        <ele>328.7</ele>
        <time>2020-06-26T08:43:07Z</time>
      </trkpt>
      <trkpt lat="49.64857" lon="5.94712">
        <ele>328.7</ele>
        <time>2020-06-26T08:43:08Z</time>
      </trkpt>
      <trkpt lat="49.64857" lon="5.94718">
        <ele>328.6</ele>
        <time>2020-06-26T08:43:09Z</time>
      </trkpt>
      <trkpt lat="49.64858" lon="5.94725">
        <ele>328.5</ele>
        <time>2020-06-26T08:43:10Z</time>
      </trkpt>
      <trkpt lat="49.64857" lon="5.94732">
        <ele>328.5</ele>
        <time>2020-06-26T08:43:11Z</time>
      </trkpt>
      <trkpt lat="49.64857" lon="5.94739">
        <ele>328.5</ele>
        <time>2020-06-26T08:43:12Z</time>
      </trkpt>
      <trkpt lat="49.64857" lon="5.94745">
        <ele>328.4</ele>
        <time>2020-06-26T08:43:13Z</time>
      </trkpt>
      <trkpt lat="49.64858" lon="5.94751">
        <ele>328.4</ele>
        <time>2020-06-26T08:43:14Z</time>
      </trkpt>
      <trkpt lat="49.64857" lon="5.94757">
        <ele>328.3</ele>
        <time>2020-06-26T08:43:15Z</time>
      </trkpt>
      <trkpt lat="49.64858" lon="5.94763">
        <ele>328.3</ele>
        <time>2020-06-26T08:43:16Z</time>
      </trkpt>
      <trkpt lat="49.64859" lon="5.94769">
        <ele>328.3</ele>
        <time>2020-06-26T08:43:17Z</time>
      </trkpt>
      <trkpt lat="49.64862" lon="5.94774">
        <ele>328.3</ele>
        <time>2020-06-26T08:43:18Z</time>
      </trkpt>
      <trkpt lat="49.64863" lon="5.9478">
        <ele>328.2</ele>
        <time>2020-06-26T08:43:19Z</time>
      </trkpt>
      <trkpt lat="49.64865" lon="5.94787">
        <ele>328.2</ele>
        <time>2020-06-26T08:43:20Z</time>
      </trkpt>
      <trkpt lat="49.64865" lon="5.94793">
        <ele>328.2</ele>
        <time>2020-06-26T08:43:21Z</time>
      </trkpt>
      <trkpt lat="49.64866" lon="5.94798">
        <ele>328.2</ele>
        <time>2020-06-26T08:43:22Z</time>
      </trkpt>
      <trkpt lat="49.64865" lon="5.94805">
        <ele>328.2</ele>
        <time>2020-06-26T08:43:23Z</time>
      </trkpt>
      <trkpt lat="49.64865" lon="5.94807">
        <ele>328.1</ele>
        <time>2020-06-26T08:43:24Z</time>
      </trkpt>
      <trkpt lat="49.64864" lon="5.94811">
        <ele>328.1</ele>
        <time>2020-06-26T08:43:25Z</time>
      </trkpt>
      <trkpt lat="49.64862" lon="5.94816">
        <ele>328</ele>
        <time>2020-06-26T08:43:26Z</time>
      </trkpt>
      <trkpt lat="49.6486" lon="5.9482">
        <ele>328</ele>
        <time>2020-06-26T08:43:27Z</time>
      </trkpt>
      <trkpt lat="49.64858" lon="5.94824">
        <ele>328</ele>
        <time>2020-06-26T08:43:28Z</time>
      </trkpt>
      <trkpt lat="49.64855" lon="5.94829">
        <ele>327.9</ele>
        <time>2020-06-26T08:43:29Z</time>
      </trkpt>
      <trkpt lat="49.64853" lon="5.94834">
        <ele>327.9</ele>
        <time>2020-06-26T08:43:30Z</time>
      </trkpt>
      <trkpt lat="49.64851" lon="5.9484">
        <ele>327.9</ele>
        <time>2020-06-26T08:43:31Z</time>
      </trkpt>
      <trkpt lat="49.64848" lon="5.94846">
        <ele>327.8</ele>
        <time>2020-06-26T08:43:32Z</time>
      </trkpt>
      <trkpt lat="49.64846" lon="5.94852">
        <ele>327.8</ele>
        <time>2020-06-26T08:43:33Z</time>
      </trkpt>
      <trkpt lat="49.64844" lon="5.94858">
        <ele>327.8</ele>
        <time>2020-06-26T08:43:34Z</time>
      </trkpt>
      <trkpt lat="49.64841" lon="5.94864">
        <ele>327.8</ele>
        <time>2020-06-26T08:43:35Z</time>
      </trkpt>
      <trkpt lat="49.6484" lon="5.9487">
        <ele>327.8</ele>
        <time>2020-06-26T08:43:36Z</time>
      </trkpt>
      <trkpt lat="49.64838" lon="5.94877">
        <ele>327.8</ele>
        <time>2020-06-26T08:43:37Z</time>
      </trkpt>
      <trkpt lat="49.64836" lon="5.94883">
        <ele>327.8</ele>
        <time>2020-06-26T08:43:38Z</time>
      </trkpt>
      <trkpt lat="49.64834" lon="5.9489">
        <ele>327.8</ele>
        <time>2020-06-26T08:43:39Z</time>
      </trkpt>
      <trkpt lat="49.64831" lon="5.94898">
        <ele>327.9</ele>
        <time>2020-06-26T08:43:40Z</time>
      </trkpt>
      <trkpt lat="49.64829" lon="5.94904">
        <ele>327.9</ele>
        <time>2020-06-26T08:43:41Z</time>
      </trkpt>
      <trkpt lat="49.64826" lon="5.94909">
        <ele>328</ele>
        <time>2020-06-26T08:43:42Z</time>
      </trkpt>
      <trkpt lat="49.64824" lon="5.94917">
        <ele>328.1</ele>
        <time>2020-06-26T08:43:43Z</time>
      </trkpt>
      <trkpt lat="49.64821" lon="5.94923">
        <ele>328</ele>
        <time>2020-06-26T08:43:44Z</time>
      </trkpt>
      <trkpt lat="49.64818" lon="5.9493">
        <ele>328</ele>
        <time>2020-06-26T08:43:45Z</time>
      </trkpt>
      <trkpt lat="49.64815" lon="5.94937">
        <ele>327.9</ele>
        <time>2020-06-26T08:43:46Z</time>
      </trkpt>
      <trkpt lat="49.64813" lon="5.94943">
        <ele>327.9</ele>
        <time>2020-06-26T08:43:47Z</time>
      </trkpt>
      <trkpt lat="49.64811" lon="5.94949">
        <ele>327.9</ele>
        <time>2020-06-26T08:43:48Z</time>
      </trkpt>
      <trkpt lat="49.64808" lon="5.94956">
        <ele>327.9</ele>
        <time>2020-06-26T08:43:49Z</time>
      </trkpt>
      <trkpt lat="49.64806" lon="5.94962">
        <ele>328</ele>
        <time>2020-06-26T08:43:50Z</time>
      </trkpt>
      <trkpt lat="49.64804" lon="5.94967">
        <ele>328</ele>
        <time>2020-06-26T08:43:51Z</time>
      </trkpt>
      <trkpt lat="49.64802" lon="5.94972">
        <ele>328.1</ele>
        <time>2020-06-26T08:43:52Z</time>
      </trkpt>
      <trkpt lat="49.648" lon="5.9498">
        <ele>328.1</ele>
        <time>2020-06-26T08:43:53Z</time>
      </trkpt>
      <trkpt lat="49.64798" lon="5.94987">
        <ele>328.2</ele>
        <time>2020-06-26T08:43:54Z</time>
      </trkpt>
      <trkpt lat="49.64796" lon="5.94995">
        <ele>328.3</ele>
        <time>2020-06-26T08:43:55Z</time>
      </trkpt>
      <trkpt lat="49.64793" lon="5.95002">
        <ele>328.4</ele>
        <time>2020-06-26T08:43:56Z</time>
      </trkpt>
      <trkpt lat="49.6479" lon="5.95009">
        <ele>328.4</ele>
        <time>2020-06-26T08:43:57Z</time>
      </trkpt>
      <trkpt lat="49.64788" lon="5.95015">
        <ele>328.5</ele>
        <time>2020-06-26T08:43:58Z</time>
      </trkpt>
      <trkpt lat="49.64786" lon="5.95021">
        <ele>328.5</ele>
        <time>2020-06-26T08:43:59Z</time>
      </trkpt>
      <trkpt lat="49.64784" lon="5.95026">
        <ele>328.5</ele>
        <time>2020-06-26T08:44:00Z</time>
      </trkpt>
      <trkpt lat="49.64782" lon="5.95032">
        <ele>328.6</ele>
        <time>2020-06-26T08:44:01Z</time>
      </trkpt>
      <trkpt lat="49.6478" lon="5.95039">
        <ele>328.7</ele>
        <time>2020-06-26T08:44:02Z</time>
      </trkpt>
      <trkpt lat="49.64777" lon="5.95047">
        <ele>328.8</ele>
        <time>2020-06-26T08:44:03Z</time>
      </trkpt>
      <trkpt lat="49.64774" lon="5.95055">
        <ele>328.9</ele>
        <time>2020-06-26T08:44:04Z</time>
      </trkpt>
      <trkpt lat="49.64771" lon="5.95061">
        <ele>329</ele>
        <time>2020-06-26T08:44:05Z</time>
      </trkpt>
      <trkpt lat="49.64769" lon="5.95068">
        <ele>329</ele>
        <time>2020-06-26T08:44:06Z</time>
      </trkpt>
      <trkpt lat="49.64767" lon="5.95074">
        <ele>329.1</ele>
        <time>2020-06-26T08:44:07Z</time>
      </trkpt>
      <trkpt lat="49.64765" lon="5.95081">
        <ele>329.2</ele>
        <time>2020-06-26T08:44:08Z</time>
      </trkpt>
      <trkpt lat="49.64764" lon="5.95086">
        <ele>329.2</ele>
        <time>2020-06-26T08:44:09Z</time>
      </trkpt>
      <trkpt lat="49.64761" lon="5.95094">
        <ele>329.3</ele>
        <time>2020-06-26T08:44:10Z</time>
      </trkpt>
      <trkpt lat="49.6476" lon="5.951">
        <ele>329.4</ele>
        <time>2020-06-26T08:44:11Z</time>
      </trkpt>
      <trkpt lat="49.64756" lon="5.95108">
        <ele>329.5</ele>
        <time>2020-06-26T08:44:12Z</time>
      </trkpt>
      <trkpt lat="49.64755" lon="5.95114">
        <ele>329.7</ele>
        <time>2020-06-26T08:44:13Z</time>
      </trkpt>
      <trkpt lat="49.64753" lon="5.95121">
        <ele>329.8</ele>
        <time>2020-06-26T08:44:14Z</time>
      </trkpt>
      <trkpt lat="49.64752" lon="5.95127">
        <ele>329.8</ele>
        <time>2020-06-26T08:44:15Z</time>
      </trkpt>
      <trkpt lat="49.6475" lon="5.95134">
        <ele>329.8</ele>
        <time>2020-06-26T08:44:16Z</time>
      </trkpt>
      <trkpt lat="49.64749" lon="5.9514">
        <ele>329.9</ele>
        <time>2020-06-26T08:44:17Z</time>
      </trkpt>
      <trkpt lat="49.64747" lon="5.95145">
        <ele>329.9</ele>
        <time>2020-06-26T08:44:18Z</time>
      </trkpt>
      <trkpt lat="49.64746" lon="5.95153">
        <ele>330</ele>
        <time>2020-06-26T08:44:19Z</time>
      </trkpt>
      <trkpt lat="49.64744" lon="5.95161">
        <ele>330.1</ele>
        <time>2020-06-26T08:44:20Z</time>
      </trkpt>
      <trkpt lat="49.64742" lon="5.95169">
        <ele>330.2</ele>
        <time>2020-06-26T08:44:21Z</time>
      </trkpt>
      <trkpt lat="49.6474" lon="5.95177">
        <ele>330.3</ele>
        <time>2020-06-26T08:44:22Z</time>
      </trkpt>
      <trkpt lat="49.64738" lon="5.95184">
        <ele>330.4</ele>
        <time>2020-06-26T08:44:23Z</time>
      </trkpt>
      <trkpt lat="49.64737" lon="5.9519">
        <ele>330.4</ele>
        <time>2020-06-26T08:44:24Z</time>
      </trkpt>
      <trkpt lat="49.64734" lon="5.95198">
        <ele>330.5</ele>
        <time>2020-06-26T08:44:25Z</time>
      </trkpt>
      <trkpt lat="49.64732" lon="5.95206">
        <ele>330.6</ele>
        <time>2020-06-26T08:44:26Z</time>
      </trkpt>
      <trkpt lat="49.6473" lon="5.95214">
        <ele>330.7</ele>
        <time>2020-06-26T08:44:27Z</time>
      </trkpt>
      <trkpt lat="49.64728" lon="5.95221">
        <ele>330.7</ele>
        <time>2020-06-26T08:44:28Z</time>
      </trkpt>
      <trkpt lat="49.64727" lon="5.95228">
        <ele>330.8</ele>
        <time>2020-06-26T08:44:29Z</time>
      </trkpt>
      <trkpt lat="49.64725" lon="5.95235">
        <ele>330.9</ele>
        <time>2020-06-26T08:44:30Z</time>
      </trkpt>
      <trkpt lat="49.64723" lon="5.95242">
        <ele>330.9</ele>
        <time>2020-06-26T08:44:31Z</time>
      </trkpt>
      <trkpt lat="49.64724" lon="5.95249">
        <ele>331</ele>
        <time>2020-06-26T08:44:32Z</time>
      </trkpt>
      <trkpt lat="49.64722" lon="5.95255">
        <ele>331.1</ele>
        <time>2020-06-26T08:44:33Z</time>
      </trkpt>
      <trkpt lat="49.64721" lon="5.95263">
        <ele>331.1</ele>
        <time>2020-06-26T08:44:34Z</time>
      </trkpt>
      <trkpt lat="49.64719" lon="5.95268">
        <ele>331.2</ele>
        <time>2020-06-26T08:44:35Z</time>
      </trkpt>
      <trkpt lat="49.64718" lon="5.95276">
        <ele>331.2</ele>
        <time>2020-06-26T08:44:36Z</time>
      </trkpt>
      <trkpt lat="49.64717" lon="5.95283">
        <ele>331.3</ele>
        <time>2020-06-26T08:44:37Z</time>
      </trkpt>
      <trkpt lat="49.64715" lon="5.9529">
        <ele>331.3</ele>
        <time>2020-06-26T08:44:38Z</time>
      </trkpt>
      <trkpt lat="49.64714" lon="5.95297">
        <ele>331.4</ele>
        <time>2020-06-26T08:44:39Z</time>
      </trkpt>
      <trkpt lat="49.64713" lon="5.95305">
        <ele>331.5</ele>
        <time>2020-06-26T08:44:40Z</time>
      </trkpt>
      <trkpt lat="49.64711" lon="5.95314">
        <ele>331.5</ele>
        <time>2020-06-26T08:44:41Z</time>
      </trkpt>
      <trkpt lat="49.6471" lon="5.9532">
        <ele>331.6</ele>
        <time>2020-06-26T08:44:42Z</time>
      </trkpt>
      <trkpt lat="49.64709" lon="5.95326">
        <ele>331.7</ele>
        <time>2020-06-26T08:44:43Z</time>
      </trkpt>
      <trkpt lat="49.64708" lon="5.95331">
        <ele>331.7</ele>
        <time>2020-06-26T08:44:44Z</time>
      </trkpt>
      <trkpt lat="49.64707" lon="5.95339">
        <ele>331.8</ele>
        <time>2020-06-26T08:44:45Z</time>
      </trkpt>
      <trkpt lat="49.64705" lon="5.95345">
        <ele>331.9</ele>
        <time>2020-06-26T08:44:46Z</time>
      </trkpt>
      <trkpt lat="49.64704" lon="5.95352">
        <ele>332</ele>
        <time>2020-06-26T08:44:47Z</time>
      </trkpt>
      <trkpt lat="49.64703" lon="5.9536">
        <ele>332.1</ele>
        <time>2020-06-26T08:44:48Z</time>
      </trkpt>
      <trkpt lat="49.64702" lon="5.95367">
        <ele>332.3</ele>
        <time>2020-06-26T08:44:49Z</time>
      </trkpt>
      <trkpt lat="49.64701" lon="5.95374">
        <ele>332.4</ele>
        <time>2020-06-26T08:44:50Z</time>
      </trkpt>
      <trkpt lat="49.647" lon="5.95381">
        <ele>332.5</ele>
        <time>2020-06-26T08:44:51Z</time>
      </trkpt>
      <trkpt lat="49.64699" lon="5.95388">
        <ele>332.7</ele>
        <time>2020-06-26T08:44:52Z</time>
      </trkpt>
      <trkpt lat="49.64697" lon="5.95395">
        <ele>332.7</ele>
        <time>2020-06-26T08:44:53Z</time>
      </trkpt>
      <trkpt lat="49.64696" lon="5.95402">
        <ele>332.7</ele>
        <time>2020-06-26T08:44:54Z</time>
      </trkpt>
      <trkpt lat="49.64695" lon="5.95409">
        <ele>332.7</ele>
        <time>2020-06-26T08:44:55Z</time>
      </trkpt>
      <trkpt lat="49.64694" lon="5.95416">
        <ele>332.7</ele>
        <time>2020-06-26T08:44:56Z</time>
      </trkpt>
      <trkpt lat="49.64694" lon="5.95422">
        <ele>332.7</ele>
        <time>2020-06-26T08:44:57Z</time>
      </trkpt>
      <trkpt lat="49.64693" lon="5.95428">
        <ele>332.8</ele>
        <time>2020-06-26T08:44:58Z</time>
      </trkpt>
      <trkpt lat="49.64692" lon="5.95435">
        <ele>332.8</ele>
        <time>2020-06-26T08:44:59Z</time>
      </trkpt>
      <trkpt lat="49.64691" lon="5.95442">
        <ele>332.9</ele>
        <time>2020-06-26T08:45:00Z</time>
      </trkpt>
      <trkpt lat="49.6469" lon="5.95451">
        <ele>333</ele>
        <time>2020-06-26T08:45:01Z</time>
      </trkpt>
      <trkpt lat="49.64689" lon="5.95457">
        <ele>333.1</ele>
        <time>2020-06-26T08:45:02Z</time>
      </trkpt>
      <trkpt lat="49.64689" lon="5.95464">
        <ele>333.2</ele>
        <time>2020-06-26T08:45:03Z</time>
      </trkpt>
      <trkpt lat="49.64687" lon="5.95472">
        <ele>333.3</ele>
        <time>2020-06-26T08:45:04Z</time>
      </trkpt>
      <trkpt lat="49.64686" lon="5.9548">
        <ele>333.3</ele>
        <time>2020-06-26T08:45:05Z</time>
      </trkpt>
      <trkpt lat="49.64685" lon="5.95488">
        <ele>333.4</ele>
        <time>2020-06-26T08:45:06Z</time>
      </trkpt>
      <trkpt lat="49.64685" lon="5.95493">
        <ele>333.4</ele>
        <time>2020-06-26T08:45:07Z</time>
      </trkpt>
      <trkpt lat="49.64684" lon="5.95499">
        <ele>333.4</ele>
        <time>2020-06-26T08:45:08Z</time>
      </trkpt>
      <trkpt lat="49.64682" lon="5.95504">
        <ele>333.4</ele>
        <time>2020-06-26T08:45:09Z</time>
      </trkpt>
      <trkpt lat="49.64681" lon="5.95511">
        <ele>333.4</ele>
        <time>2020-06-26T08:45:10Z</time>
      </trkpt>
      <trkpt lat="49.64678" lon="5.95515">
        <ele>333.3</ele>
        <time>2020-06-26T08:45:11Z</time>
      </trkpt>
      <trkpt lat="49.64674" lon="5.95519">
        <ele>333.3</ele>
        <time>2020-06-26T08:45:12Z</time>
      </trkpt>
      <trkpt lat="49.64671" lon="5.95523">
        <ele>333.3</ele>
        <time>2020-06-26T08:45:13Z</time>
      </trkpt>
      <trkpt lat="49.64668" lon="5.95526">
        <ele>333.3</ele>
        <time>2020-06-26T08:45:14Z</time>
      </trkpt>
      <trkpt lat="49.64664" lon="5.95531">
        <ele>333.2</ele>
        <time>2020-06-26T08:45:15Z</time>
      </trkpt>
      <trkpt lat="49.6466" lon="5.95535">
        <ele>333.2</ele>
        <time>2020-06-26T08:45:16Z</time>
      </trkpt>
      <trkpt lat="49.64657" lon="5.9554">
        <ele>333.2</ele>
        <time>2020-06-26T08:45:17Z</time>
      </trkpt>
      <trkpt lat="49.64655" lon="5.95543">
        <ele>333.2</ele>
        <time>2020-06-26T08:45:18Z</time>
      </trkpt>
      <trkpt lat="49.64654" lon="5.9555">
        <ele>333.2</ele>
        <time>2020-06-26T08:45:19Z</time>
      </trkpt>
      <trkpt lat="49.64654" lon="5.9556">
        <ele>333.2</ele>
        <time>2020-06-26T08:45:20Z</time>
      </trkpt>
      <trkpt lat="49.64654" lon="5.95567">
        <ele>333.2</ele>
        <time>2020-06-26T08:45:21Z</time>
      </trkpt>
      <trkpt lat="49.64656" lon="5.95574">
        <ele>333.2</ele>
        <time>2020-06-26T08:45:22Z</time>
      </trkpt>
      <trkpt lat="49.64656" lon="5.95579">
        <ele>333.2</ele>
        <time>2020-06-26T08:45:23Z</time>
      </trkpt>
      <trkpt lat="49.64659" lon="5.95583">
        <ele>333.2</ele>
        <time>2020-06-26T08:45:24Z</time>
      </trkpt>
      <trkpt lat="49.64662" lon="5.95586">
        <ele>333.3</ele>
        <time>2020-06-26T08:45:25Z</time>
      </trkpt>
      <trkpt lat="49.64666" lon="5.95588">
        <ele>333.3</ele>
        <time>2020-06-26T08:45:26Z</time>
      </trkpt>
      <trkpt lat="49.6467" lon="5.95588">
        <ele>333.2</ele>
        <time>2020-06-26T08:45:27Z</time>
      </trkpt>
      <trkpt lat="49.64675" lon="5.95588">
        <ele>333.2</ele>
        <time>2020-06-26T08:45:28Z</time>
      </trkpt>
      <trkpt lat="49.6468" lon="5.95586">
        <ele>333.1</ele>
        <time>2020-06-26T08:45:29Z</time>
      </trkpt>
      <trkpt lat="49.64684" lon="5.95583">
        <ele>333.1</ele>
        <time>2020-06-26T08:45:30Z</time>
      </trkpt>
      <trkpt lat="49.64688" lon="5.95579">
        <ele>333.1</ele>
        <time>2020-06-26T08:45:31Z</time>
      </trkpt>
      <trkpt lat="49.64693" lon="5.95573">
        <ele>333.1</ele>
        <time>2020-06-26T08:45:32Z</time>
      </trkpt>
      <trkpt lat="49.64697" lon="5.95567">
        <ele>333.2</ele>
        <time>2020-06-26T08:45:33Z</time>
      </trkpt>
      <trkpt lat="49.64701" lon="5.95562">
        <ele>333.3</ele>
        <time>2020-06-26T08:45:34Z</time>
      </trkpt>
      <trkpt lat="49.64702" lon="5.95555">
        <ele>333.4</ele>
        <time>2020-06-26T08:45:35Z</time>
      </trkpt>
      <trkpt lat="49.64702" lon="5.95548">
        <ele>333.4</ele>
        <time>2020-06-26T08:45:36Z</time>
      </trkpt>
      <trkpt lat="49.64701" lon="5.95542">
        <ele>333.5</ele>
        <time>2020-06-26T08:45:37Z</time>
      </trkpt>
      <trkpt lat="49.64699" lon="5.95536">
        <ele>333.6</ele>
        <time>2020-06-26T08:45:38Z</time>
      </trkpt>
      <trkpt lat="49.64696" lon="5.95529">
        <ele>333.6</ele>
        <time>2020-06-26T08:45:39Z</time>
      </trkpt>
      <trkpt lat="49.64693" lon="5.95524">
        <ele>333.6</ele>
        <time>2020-06-26T08:45:40Z</time>
      </trkpt>
      <trkpt lat="49.64688" lon="5.95521">
        <ele>333.5</ele>
        <time>2020-06-26T08:45:41Z</time>
      </trkpt>
      <trkpt lat="49.64684" lon="5.95519">
        <ele>333.4</ele>
        <time>2020-06-26T08:45:42Z</time>
      </trkpt>
      <trkpt lat="49.64679" lon="5.95517">
        <ele>333.4</ele>
        <time>2020-06-26T08:45:43Z</time>
      </trkpt>
      <trkpt lat="49.64673" lon="5.95518">
        <ele>333.3</ele>
        <time>2020-06-26T08:45:44Z</time>
      </trkpt>
      <trkpt lat="49.64668" lon="5.95519">
        <ele>333.3</ele>
        <time>2020-06-26T08:45:45Z</time>
      </trkpt>
      <trkpt lat="49.64664" lon="5.95524">
        <ele>333.3</ele>
        <time>2020-06-26T08:45:46Z</time>
      </trkpt>
      <trkpt lat="49.6466" lon="5.95531">
        <ele>333.2</ele>
        <time>2020-06-26T08:45:47Z</time>
      </trkpt>
      <trkpt lat="49.64656" lon="5.95537">
        <ele>333.2</ele>
        <time>2020-06-26T08:45:48Z</time>
      </trkpt>
      <trkpt lat="49.64653" lon="5.95543">
        <ele>333.2</ele>
        <time>2020-06-26T08:45:49Z</time>
      </trkpt>
      <trkpt lat="49.64649" lon="5.95549">
        <ele>333.1</ele>
        <time>2020-06-26T08:45:50Z</time>
      </trkpt>
      <trkpt lat="49.64646" lon="5.95554">
        <ele>333</ele>
        <time>2020-06-26T08:45:51Z</time>
      </trkpt>
      <trkpt lat="49.64643" lon="5.95559">
        <ele>332.9</ele>
        <time>2020-06-26T08:45:52Z</time>
      </trkpt>
      <trkpt lat="49.64638" lon="5.95563">
        <ele>332.8</ele>
        <time>2020-06-26T08:45:53Z</time>
      </trkpt>
      <trkpt lat="49.64633" lon="5.95566">
        <ele>332.7</ele>
        <time>2020-06-26T08:45:54Z</time>
      </trkpt>
      <trkpt lat="49.64626" lon="5.95567">
        <ele>332.6</ele>
        <time>2020-06-26T08:45:55Z</time>
      </trkpt>
      <trkpt lat="49.6462" lon="5.95568">
        <ele>332.6</ele>
        <time>2020-06-26T08:45:56Z</time>
      </trkpt>
      <trkpt lat="49.64614" lon="5.95568">
        <ele>332.5</ele>
        <time>2020-06-26T08:45:57Z</time>
      </trkpt>
      <trkpt lat="49.64609" lon="5.95568">
        <ele>332.4</ele>
        <time>2020-06-26T08:45:58Z</time>
      </trkpt>
      <trkpt lat="49.64603" lon="5.95569">
        <ele>332.4</ele>
        <time>2020-06-26T08:45:59Z</time>
      </trkpt>
      <trkpt lat="49.64598" lon="5.95569">
        <ele>332.5</ele>
        <time>2020-06-26T08:46:00Z</time>
      </trkpt>
      <trkpt lat="49.64592" lon="5.95568">
        <ele>332.5</ele>
        <time>2020-06-26T08:46:01Z</time>
      </trkpt>
      <trkpt lat="49.64586" lon="5.95568">
        <ele>332.5</ele>
        <time>2020-06-26T08:46:02Z</time>
      </trkpt>
      <trkpt lat="49.64581" lon="5.95568">
        <ele>332.6</ele>
        <time>2020-06-26T08:46:03Z</time>
      </trkpt>
      <trkpt lat="49.64575" lon="5.95568">
        <ele>332.6</ele>
        <time>2020-06-26T08:46:04Z</time>
      </trkpt>
      <trkpt lat="49.6457" lon="5.95568">
        <ele>332.7</ele>
        <time>2020-06-26T08:46:05Z</time>
      </trkpt>
      <trkpt lat="49.64566" lon="5.95569">
        <ele>332.7</ele>
        <time>2020-06-26T08:46:06Z</time>
      </trkpt>
      <trkpt lat="49.64561" lon="5.95569">
        <ele>332.7</ele>
        <time>2020-06-26T08:46:07Z</time>
      </trkpt>
      <trkpt lat="49.64556" lon="5.95569">
        <ele>332.6</ele>
        <time>2020-06-26T08:46:08Z</time>
      </trkpt>
      <trkpt lat="49.64552" lon="5.9557">
        <ele>332.6</ele>
        <time>2020-06-26T08:46:09Z</time>
      </trkpt>
      <trkpt lat="49.64547" lon="5.95571">
        <ele>332.6</ele>
        <time>2020-06-26T08:46:10Z</time>
      </trkpt>
      <trkpt lat="49.6454" lon="5.95571">
        <ele>332.6</ele>
        <time>2020-06-26T08:46:11Z</time>
      </trkpt>
      <trkpt lat="49.64536" lon="5.95572">
        <ele>332.6</ele>
        <time>2020-06-26T08:46:12Z</time>
      </trkpt>
      <trkpt lat="49.64531" lon="5.95573">
        <ele>332.5</ele>
        <time>2020-06-26T08:46:13Z</time>
      </trkpt>
      <trkpt lat="49.64525" lon="5.95574">
        <ele>332.5</ele>
        <time>2020-06-26T08:46:14Z</time>
      </trkpt>
      <trkpt lat="49.64521" lon="5.95575">
        <ele>332.4</ele>
        <time>2020-06-26T08:46:15Z</time>
      </trkpt>
      <trkpt lat="49.64515" lon="5.95576">
        <ele>332.3</ele>
        <time>2020-06-26T08:46:16Z</time>
      </trkpt>
      <trkpt lat="49.6451" lon="5.95577">
        <ele>332.3</ele>
        <time>2020-06-26T08:46:17Z</time>
      </trkpt>
      <trkpt lat="49.64505" lon="5.95578">
        <ele>332.3</ele>
        <time>2020-06-26T08:46:18Z</time>
      </trkpt>
      <trkpt lat="49.64499" lon="5.95579">
        <ele>332.3</ele>
        <time>2020-06-26T08:46:19Z</time>
      </trkpt>
      <trkpt lat="49.64494" lon="5.95579">
        <ele>332.3</ele>
        <time>2020-06-26T08:46:20Z</time>
      </trkpt>
      <trkpt lat="49.64488" lon="5.95579">
        <ele>332.3</ele>
        <time>2020-06-26T08:46:21Z</time>
      </trkpt>
      <trkpt lat="49.64483" lon="5.95579">
        <ele>332.4</ele>
        <time>2020-06-26T08:46:22Z</time>
      </trkpt>
      <trkpt lat="49.64478" lon="5.95579">
        <ele>332.5</ele>
        <time>2020-06-26T08:46:23Z</time>
      </trkpt>
      <trkpt lat="49.64473" lon="5.95579">
        <ele>332.6</ele>
        <time>2020-06-26T08:46:24Z</time>
      </trkpt>
      <trkpt lat="49.64468" lon="5.95581">
        <ele>332.7</ele>
        <time>2020-06-26T08:46:25Z</time>
      </trkpt>
      <trkpt lat="49.64463" lon="5.95582">
        <ele>332.9</ele>
        <time>2020-06-26T08:46:26Z</time>
      </trkpt>
      <trkpt lat="49.64459" lon="5.95582">
        <ele>333</ele>
        <time>2020-06-26T08:46:27Z</time>
      </trkpt>
      <trkpt lat="49.64455" lon="5.95583">
        <ele>333.1</ele>
        <time>2020-06-26T08:46:28Z</time>
      </trkpt>
      <trkpt lat="49.6445" lon="5.95583">
        <ele>333.2</ele>
        <time>2020-06-26T08:46:29Z</time>
      </trkpt>
      <trkpt lat="49.64445" lon="5.95584">
        <ele>333.4</ele>
        <time>2020-06-26T08:46:30Z</time>
      </trkpt>
      <trkpt lat="49.6444" lon="5.95584">
        <ele>333.5</ele>
        <time>2020-06-26T08:46:31Z</time>
      </trkpt>
      <trkpt lat="49.64436" lon="5.95586">
        <ele>333.7</ele>
        <time>2020-06-26T08:46:32Z</time>
      </trkpt>
      <trkpt lat="49.64432" lon="5.95588">
        <ele>333.8</ele>
        <time>2020-06-26T08:46:33Z</time>
      </trkpt>
      <trkpt lat="49.64427" lon="5.9559">
        <ele>334</ele>
        <time>2020-06-26T08:46:34Z</time>
      </trkpt>
      <trkpt lat="49.64422" lon="5.95591">
        <ele>334.2</ele>
        <time>2020-06-26T08:46:35Z</time>
      </trkpt>
      <trkpt lat="49.64418" lon="5.95591">
        <ele>334.3</ele>
        <time>2020-06-26T08:46:36Z</time>
      </trkpt>
      <trkpt lat="49.64413" lon="5.95591">
        <ele>334.5</ele>
        <time>2020-06-26T08:46:37Z</time>
      </trkpt>
      <trkpt lat="49.64408" lon="5.95591">
        <ele>334.7</ele>
        <time>2020-06-26T08:46:38Z</time>
      </trkpt>
      <trkpt lat="49.64403" lon="5.95591">
        <ele>334.9</ele>
        <time>2020-06-26T08:46:39Z</time>
      </trkpt>
      <trkpt lat="49.64398" lon="5.95591">
        <ele>335</ele>
        <time>2020-06-26T08:46:40Z</time>
      </trkpt>
      <trkpt lat="49.64395" lon="5.95591">
        <ele>335.2</ele>
        <time>2020-06-26T08:46:41Z</time>
      </trkpt>
      <trkpt lat="49.6439" lon="5.95591">
        <ele>335.3</ele>
        <time>2020-06-26T08:46:42Z</time>
      </trkpt>
      <trkpt lat="49.64386" lon="5.95592">
        <ele>335.4</ele>
        <time>2020-06-26T08:46:43Z</time>
      </trkpt>
      <trkpt lat="49.64382" lon="5.95592">
        <ele>335.6</ele>
        <time>2020-06-26T08:46:44Z</time>
      </trkpt>
      <trkpt lat="49.64377" lon="5.95593">
        <ele>335.7</ele>
        <time>2020-06-26T08:46:45Z</time>
      </trkpt>
      <trkpt lat="49.64372" lon="5.95593">
        <ele>335.9</ele>
        <time>2020-06-26T08:46:46Z</time>
      </trkpt>
      <trkpt lat="49.64368" lon="5.95593">
        <ele>336</ele>
        <time>2020-06-26T08:46:47Z</time>
      </trkpt>
      <trkpt lat="49.64363" lon="5.95592">
        <ele>336.1</ele>
        <time>2020-06-26T08:46:48Z</time>
      </trkpt>
      <trkpt lat="49.64359" lon="5.95592">
        <ele>336.2</ele>
        <time>2020-06-26T08:46:49Z</time>
      </trkpt>
      <trkpt lat="49.64355" lon="5.95593">
        <ele>336.3</ele>
        <time>2020-06-26T08:46:50Z</time>
      </trkpt>
      <trkpt lat="49.6435" lon="5.95593">
        <ele>336.4</ele>
        <time>2020-06-26T08:46:51Z</time>
      </trkpt>
      <trkpt lat="49.64346" lon="5.95593">
        <ele>336.5</ele>
        <time>2020-06-26T08:46:52Z</time>
      </trkpt>
      <trkpt lat="49.64341" lon="5.95594">
        <ele>336.6</ele>
        <time>2020-06-26T08:46:53Z</time>
      </trkpt>
      <trkpt lat="49.64337" lon="5.95594">
        <ele>336.7</ele>
        <time>2020-06-26T08:46:54Z</time>
      </trkpt>
      <trkpt lat="49.64333" lon="5.95594">
        <ele>336.8</ele>
        <time>2020-06-26T08:46:55Z</time>
      </trkpt>
      <trkpt lat="49.64329" lon="5.95595">
        <ele>336.9</ele>
        <time>2020-06-26T08:46:56Z</time>
      </trkpt>
      <trkpt lat="49.64325" lon="5.95595">
        <ele>337</ele>
        <time>2020-06-26T08:46:57Z</time>
      </trkpt>
      <trkpt lat="49.64321" lon="5.95595">
        <ele>337.1</ele>
        <time>2020-06-26T08:46:58Z</time>
      </trkpt>
      <trkpt lat="49.64316" lon="5.95594">
        <ele>337.1</ele>
        <time>2020-06-26T08:46:59Z</time>
      </trkpt>
      <trkpt lat="49.64313" lon="5.95596">
        <ele>337.1</ele>
        <time>2020-06-26T08:47:00Z</time>
      </trkpt>
      <trkpt lat="49.64309" lon="5.95597">
        <ele>337.2</ele>
        <time>2020-06-26T08:47:01Z</time>
      </trkpt>
      <trkpt lat="49.64303" lon="5.95596">
        <ele>337.2</ele>
        <time>2020-06-26T08:47:02Z</time>
      </trkpt>
      <trkpt lat="49.64298" lon="5.95596">
        <ele>337.2</ele>
        <time>2020-06-26T08:47:03Z</time>
      </trkpt>
      <trkpt lat="49.64293" lon="5.95596">
        <ele>337.2</ele>
        <time>2020-06-26T08:47:04Z</time>
      </trkpt>
      <trkpt lat="49.64288" lon="5.95596">
        <ele>337.1</ele>
        <time>2020-06-26T08:47:05Z</time>
      </trkpt>
      <trkpt lat="49.64284" lon="5.95595">
        <ele>337.1</ele>
        <time>2020-06-26T08:47:06Z</time>
      </trkpt>
      <trkpt lat="49.64278" lon="5.95595">
        <ele>337.1</ele>
        <time>2020-06-26T08:47:07Z</time>
      </trkpt>
      <trkpt lat="49.64274" lon="5.95595">
        <ele>337.1</ele>
        <time>2020-06-26T08:47:08Z</time>
      </trkpt>
      <trkpt lat="49.64269" lon="5.95595">
        <ele>337.1</ele>
        <time>2020-06-26T08:47:09Z</time>
      </trkpt>
      <trkpt lat="49.64266" lon="5.95596">
        <ele>337.1</ele>
        <time>2020-06-26T08:47:10Z</time>
      </trkpt>
      <trkpt lat="49.64262" lon="5.95596">
        <ele>337.1</ele>
        <time>2020-06-26T08:47:11Z</time>
      </trkpt>
      <trkpt lat="49.64257" lon="5.95597">
        <ele>337.1</ele>
        <time>2020-06-26T08:47:12Z</time>
      </trkpt>
      <trkpt lat="49.64254" lon="5.95596">
        <ele>337.1</ele>
        <time>2020-06-26T08:47:13Z</time>
      </trkpt>
      <trkpt lat="49.6425" lon="5.95595">
        <ele>337.1</ele>
        <time>2020-06-26T08:47:14Z</time>
      </trkpt>
      <trkpt lat="49.64246" lon="5.95594">
        <ele>337.1</ele>
        <time>2020-06-26T08:47:15Z</time>
      </trkpt>
      <trkpt lat="49.64242" lon="5.95594">
        <ele>337</ele>
        <time>2020-06-26T08:47:16Z</time>
      </trkpt>
      <trkpt lat="49.64239" lon="5.95592">
        <ele>337</ele>
        <time>2020-06-26T08:47:17Z</time>
      </trkpt>
      <trkpt lat="49.64237" lon="5.95592">
        <ele>337</ele>
        <time>2020-06-26T08:47:18Z</time>
      </trkpt>
      <trkpt lat="49.64233" lon="5.95592">
        <ele>336.9</ele>
        <time>2020-06-26T08:47:19Z</time>
      </trkpt>
      <trkpt lat="49.6423" lon="5.95593">
        <ele>336.9</ele>
        <time>2020-06-26T08:47:20Z</time>
      </trkpt>
      <trkpt lat="49.64226" lon="5.95593">
        <ele>336.8</ele>
        <time>2020-06-26T08:47:21Z</time>
      </trkpt>
      <trkpt lat="49.64223" lon="5.95593">
        <ele>336.7</ele>
        <time>2020-06-26T08:47:22Z</time>
      </trkpt>
      <trkpt lat="49.64219" lon="5.95591">
        <ele>336.6</ele>
        <time>2020-06-26T08:47:23Z</time>
      </trkpt>
      <trkpt lat="49.64217" lon="5.95591">
        <ele>336.6</ele>
        <time>2020-06-26T08:47:24Z</time>
      </trkpt>
      <trkpt lat="49.64214" lon="5.9559">
        <ele>336.5</ele>
        <time>2020-06-26T08:47:25Z</time>
      </trkpt>
      <trkpt lat="49.64211" lon="5.9559">
        <ele>336.5</ele>
        <time>2020-06-26T08:47:26Z</time>
      </trkpt>
      <trkpt lat="49.64208" lon="5.95591">
        <ele>336.4</ele>
        <time>2020-06-26T08:47:27Z</time>
      </trkpt>
      <trkpt lat="49.64205" lon="5.95591">
        <ele>336.3</ele>
        <time>2020-06-26T08:47:28Z</time>
      </trkpt>
      <trkpt lat="49.64202" lon="5.95591">
        <ele>336.3</ele>
        <time>2020-06-26T08:47:29Z</time>
      </trkpt>
      <trkpt lat="49.64199" lon="5.95589">
        <ele>336.2</ele>
        <time>2020-06-26T08:47:30Z</time>
      </trkpt>
      <trkpt lat="49.64195" lon="5.95588">
        <ele>336.1</ele>
        <time>2020-06-26T08:47:31Z</time>
      </trkpt>
      <trkpt lat="49.64192" lon="5.95587">
        <ele>336</ele>
        <time>2020-06-26T08:47:32Z</time>
      </trkpt>
      <trkpt lat="49.64188" lon="5.95587">
        <ele>335.9</ele>
        <time>2020-06-26T08:47:33Z</time>
      </trkpt>
      <trkpt lat="49.64184" lon="5.95587">
        <ele>335.8</ele>
        <time>2020-06-26T08:47:34Z</time>
      </trkpt>
      <trkpt lat="49.6418" lon="5.95587">
        <ele>335.7</ele>
        <time>2020-06-26T08:47:35Z</time>
      </trkpt>
      <trkpt lat="49.64176" lon="5.95586">
        <ele>335.6</ele>
        <time>2020-06-26T08:47:36Z</time>
      </trkpt>
      <trkpt lat="49.64172" lon="5.95585">
        <ele>335.5</ele>
        <time>2020-06-26T08:47:37Z</time>
      </trkpt>
      <trkpt lat="49.64168" lon="5.95585">
        <ele>335.4</ele>
        <time>2020-06-26T08:47:38Z</time>
      </trkpt>
      <trkpt lat="49.64164" lon="5.95583">
        <ele>335.3</ele>
        <time>2020-06-26T08:47:39Z</time>
      </trkpt>
      <trkpt lat="49.64159" lon="5.95582">
        <ele>335.2</ele>
        <time>2020-06-26T08:47:40Z</time>
      </trkpt>
      <trkpt lat="49.64154" lon="5.95582">
        <ele>335.1</ele>
        <time>2020-06-26T08:47:41Z</time>
      </trkpt>
      <trkpt lat="49.64148" lon="5.95581">
        <ele>335.1</ele>
        <time>2020-06-26T08:47:42Z</time>
      </trkpt>
      <trkpt lat="49.64143" lon="5.95581">
        <ele>334.8</ele>
        <time>2020-06-26T08:47:43Z</time>
      </trkpt>
      <trkpt lat="49.64138" lon="5.9558">
        <ele>334.6</ele>
        <time>2020-06-26T08:47:44Z</time>
      </trkpt>
      <trkpt lat="49.64133" lon="5.95579">
        <ele>334.4</ele>
        <time>2020-06-26T08:47:45Z</time>
      </trkpt>
      <trkpt lat="49.64127" lon="5.95577">
        <ele>334.2</ele>
        <time>2020-06-26T08:47:46Z</time>
      </trkpt>
      <trkpt lat="49.64122" lon="5.95576">
        <ele>334.1</ele>
        <time>2020-06-26T08:47:47Z</time>
      </trkpt>
      <trkpt lat="49.64117" lon="5.95573">
        <ele>333.9</ele>
        <time>2020-06-26T08:47:48Z</time>
      </trkpt>
      <trkpt lat="49.64113" lon="5.95571">
        <ele>333.7</ele>
        <time>2020-06-26T08:47:49Z</time>
      </trkpt>
      <trkpt lat="49.6411" lon="5.95569">
        <ele>333.6</ele>
        <time>2020-06-26T08:47:50Z</time>
      </trkpt>
      <trkpt lat="49.64106" lon="5.95568">
        <ele>333.5</ele>
        <time>2020-06-26T08:47:51Z</time>
      </trkpt>
      <trkpt lat="49.64105" lon="5.95568">
        <ele>333.5</ele>
        <time>2020-06-26T08:47:52Z</time>
      </trkpt>
      <trkpt lat="49.64102" lon="5.95567">
        <ele>333.4</ele>
        <time>2020-06-26T08:47:53Z</time>
      </trkpt>
      <trkpt lat="49.641" lon="5.95567">
        <ele>333.3</ele>
        <time>2020-06-26T08:47:54Z</time>
      </trkpt>
      <trkpt lat="49.64097" lon="5.95566">
        <ele>333.2</ele>
        <time>2020-06-26T08:47:55Z</time>
      </trkpt>
      <trkpt lat="49.64093" lon="5.95566">
        <ele>333.1</ele>
        <time>2020-06-26T08:47:56Z</time>
      </trkpt>
      <trkpt lat="49.64089" lon="5.95565">
        <ele>333</ele>
        <time>2020-06-26T08:47:57Z</time>
      </trkpt>
      <trkpt lat="49.64086" lon="5.95564">
        <ele>332.9</ele>
        <time>2020-06-26T08:47:58Z</time>
      </trkpt>
      <trkpt lat="49.64083" lon="5.95562">
        <ele>332.8</ele>
        <time>2020-06-26T08:47:59Z</time>
      </trkpt>
      <trkpt lat="49.64079" lon="5.9556">
        <ele>332.7</ele>
        <time>2020-06-26T08:48:00Z</time>
      </trkpt>
      <trkpt lat="49.64075" lon="5.95559">
        <ele>332.5</ele>
        <time>2020-06-26T08:48:01Z</time>
      </trkpt>
      <trkpt lat="49.6407" lon="5.95558">
        <ele>332.4</ele>
        <time>2020-06-26T08:48:02Z</time>
      </trkpt>
      <trkpt lat="49.64066" lon="5.95556">
        <ele>332.3</ele>
        <time>2020-06-26T08:48:03Z</time>
      </trkpt>
      <trkpt lat="49.64061" lon="5.95555">
        <ele>332.1</ele>
        <time>2020-06-26T08:48:04Z</time>
      </trkpt>
      <trkpt lat="49.64057" lon="5.95554">
        <ele>332</ele>
        <time>2020-06-26T08:48:05Z</time>
      </trkpt>
      <trkpt lat="49.64052" lon="5.95551">
        <ele>331.9</ele>
        <time>2020-06-26T08:48:06Z</time>
      </trkpt>
      <trkpt lat="49.64048" lon="5.95549">
        <ele>331.7</ele>
        <time>2020-06-26T08:48:07Z</time>
      </trkpt>
      <trkpt lat="49.64044" lon="5.95547">
        <ele>331.6</ele>
        <time>2020-06-26T08:48:08Z</time>
      </trkpt>
      <trkpt lat="49.6404" lon="5.95545">
        <ele>331.5</ele>
        <time>2020-06-26T08:48:09Z</time>
      </trkpt>
      <trkpt lat="49.64035" lon="5.95543">
        <ele>331.3</ele>
        <time>2020-06-26T08:48:10Z</time>
      </trkpt>
      <trkpt lat="49.6403" lon="5.95543">
        <ele>331.2</ele>
        <time>2020-06-26T08:48:11Z</time>
      </trkpt>
      <trkpt lat="49.64025" lon="5.95541">
        <ele>331</ele>
        <time>2020-06-26T08:48:12Z</time>
      </trkpt>
      <trkpt lat="49.6402" lon="5.95539">
        <ele>330.9</ele>
        <time>2020-06-26T08:48:13Z</time>
      </trkpt>
      <trkpt lat="49.64014" lon="5.95537">
        <ele>330.7</ele>
        <time>2020-06-26T08:48:14Z</time>
      </trkpt>
      <trkpt lat="49.64008" lon="5.95535">
        <ele>330.6</ele>
        <time>2020-06-26T08:48:15Z</time>
      </trkpt>
      <trkpt lat="49.64003" lon="5.95533">
        <ele>330.4</ele>
        <time>2020-06-26T08:48:16Z</time>
      </trkpt>
      <trkpt lat="49.63998" lon="5.95531">
        <ele>330.3</ele>
        <time>2020-06-26T08:48:17Z</time>
      </trkpt>
      <trkpt lat="49.63993" lon="5.9553">
        <ele>330.2</ele>
        <time>2020-06-26T08:48:18Z</time>
      </trkpt>
      <trkpt lat="49.63989" lon="5.95527">
        <ele>330</ele>
        <time>2020-06-26T08:48:19Z</time>
      </trkpt>
      <trkpt lat="49.63985" lon="5.95525">
        <ele>329.9</ele>
        <time>2020-06-26T08:48:20Z</time>
      </trkpt>
      <trkpt lat="49.63982" lon="5.95524">
        <ele>329.8</ele>
        <time>2020-06-26T08:48:21Z</time>
      </trkpt>
      <trkpt lat="49.63979" lon="5.95524">
        <ele>329.7</ele>
        <time>2020-06-26T08:48:22Z</time>
      </trkpt>
      <trkpt lat="49.63976" lon="5.95523">
        <ele>329.6</ele>
        <time>2020-06-26T08:48:23Z</time>
      </trkpt>
      <trkpt lat="49.63973" lon="5.9552">
        <ele>329.4</ele>
        <time>2020-06-26T08:48:24Z</time>
      </trkpt>
      <trkpt lat="49.6397" lon="5.95519">
        <ele>329.3</ele>
        <time>2020-06-26T08:48:25Z</time>
      </trkpt>
      <trkpt lat="49.63967" lon="5.95518">
        <ele>329.2</ele>
        <time>2020-06-26T08:48:26Z</time>
      </trkpt>
      <trkpt lat="49.63964" lon="5.95516">
        <ele>329.1</ele>
        <time>2020-06-26T08:48:27Z</time>
      </trkpt>
      <trkpt lat="49.63962" lon="5.95516">
        <ele>329.1</ele>
        <time>2020-06-26T08:48:28Z</time>
      </trkpt>
      <trkpt lat="49.63958" lon="5.95514">
        <ele>328.9</ele>
        <time>2020-06-26T08:48:29Z</time>
      </trkpt>
      <trkpt lat="49.63957" lon="5.95513">
        <ele>328.9</ele>
        <time>2020-06-26T08:48:30Z</time>
      </trkpt>
      <trkpt lat="49.63955" lon="5.95512">
        <ele>328.8</ele>
        <time>2020-06-26T08:48:31Z</time>
      </trkpt>
      <trkpt lat="49.63951" lon="5.95511">
        <ele>328.7</ele>
        <time>2020-06-26T08:48:32Z</time>
      </trkpt>
      <trkpt lat="49.6395" lon="5.9551">
        <ele>328.6</ele>
        <time>2020-06-26T08:48:33Z</time>
      </trkpt>
      <trkpt lat="49.63947" lon="5.95509">
        <ele>328.5</ele>
        <time>2020-06-26T08:48:34Z</time>
      </trkpt>
      <trkpt lat="49.63946" lon="5.95509">
        <ele>328.5</ele>
        <time>2020-06-26T08:48:35Z</time>
      </trkpt>
      <trkpt lat="49.63943" lon="5.95508">
        <ele>328.4</ele>
        <time>2020-06-26T08:48:36Z</time>
      </trkpt>
      <trkpt lat="49.63942" lon="5.95508">
        <ele>328.4</ele>
        <time>2020-06-26T08:48:37Z</time>
      </trkpt>
      <trkpt lat="49.63939" lon="5.95506">
        <ele>328.3</ele>
        <time>2020-06-26T08:48:38Z</time>
      </trkpt>
      <trkpt lat="49.63938" lon="5.95505">
        <ele>328.3</ele>
        <time>2020-06-26T08:48:39Z</time>
      </trkpt>
      <trkpt lat="49.63936" lon="5.95505">
        <ele>328.4</ele>
        <time>2020-06-26T08:48:40Z</time>
      </trkpt>
      <trkpt lat="49.63936" lon="5.95506">
        <ele>328.4</ele>
        <time>2020-06-26T08:48:41Z</time>
      </trkpt>
      <trkpt lat="49.63936" lon="5.95506">
        <ele>328.4</ele>
        <time>2020-06-26T08:48:42Z</time>
      </trkpt>
      <trkpt lat="49.63935" lon="5.95507">
        <ele>328.4</ele>
        <time>2020-06-26T08:48:43Z</time>
      </trkpt>
      <trkpt lat="49.63935" lon="5.95507">
        <ele>328.5</ele>
        <time>2020-06-26T08:48:44Z</time>
      </trkpt>
      <trkpt lat="49.63934" lon="5.95508">
        <ele>328.5</ele>
        <time>2020-06-26T08:48:45Z</time>
      </trkpt>
      <trkpt lat="49.63934" lon="5.9551">
        <ele>328.5</ele>
        <time>2020-06-26T08:48:46Z</time>
      </trkpt>
      <trkpt lat="49.63934" lon="5.95511">
        <ele>328.5</ele>
        <time>2020-06-26T08:48:47Z</time>
      </trkpt>
      <trkpt lat="49.63934" lon="5.95511">
        <ele>328.5</ele>
        <time>2020-06-26T08:48:48Z</time>
      </trkpt>
      <trkpt lat="49.63934" lon="5.95512">
        <ele>328.5</ele>
        <time>2020-06-26T08:48:49Z</time>
      </trkpt>
      <trkpt lat="49.63934" lon="5.95512">
        <ele>328.6</ele>
        <time>2020-06-26T08:48:50Z</time>
      </trkpt>
      <trkpt lat="49.63934" lon="5.95512">
        <ele>328.6</ele>
        <time>2020-06-26T08:48:51Z</time>
      </trkpt>
      <trkpt lat="49.63934" lon="5.95513">
        <ele>328.6</ele>
        <time>2020-06-26T08:48:52Z</time>
      </trkpt>
      <trkpt lat="49.63934" lon="5.95513">
        <ele>328.6</ele>
        <time>2020-06-26T08:48:53Z</time>
      </trkpt>
      <trkpt lat="49.63934" lon="5.95513">
        <ele>328.6</ele>
        <time>2020-06-26T08:48:54Z</time>
      </trkpt>
      <trkpt lat="49.63934" lon="5.95512">
        <ele>328.6</ele>
        <time>2020-06-26T08:48:55Z</time>
      </trkpt>
      <trkpt lat="49.63934" lon="5.9551">
        <ele>328.6</ele>
        <time>2020-06-26T08:48:56Z</time>
      </trkpt>
      <trkpt lat="49.63934" lon="5.9551">
        <ele>328.6</ele>
        <time>2020-06-26T08:48:57Z</time>
      </trkpt>
      <trkpt lat="49.63935" lon="5.95509">
        <ele>328.7</ele>
        <time>2020-06-26T08:48:58Z</time>
      </trkpt>
      <trkpt lat="49.63934" lon="5.95509">
        <ele>328.7</ele>
        <time>2020-06-26T08:48:59Z</time>
      </trkpt>
      <trkpt lat="49.63939" lon="5.95509">
        <ele>328.8</ele>
        <time>2020-06-26T08:50:17Z</time>
      </trkpt>
      <trkpt lat="49.63942" lon="5.95511">
        <ele>328.9</ele>
        <time>2020-06-26T08:50:18Z</time>
      </trkpt>
      <trkpt lat="49.63946" lon="5.95513">
        <ele>329</ele>
        <time>2020-06-26T08:50:19Z</time>
      </trkpt>
      <trkpt lat="49.63947" lon="5.95513">
        <ele>329</ele>
        <time>2020-06-26T08:50:20Z</time>
      </trkpt>
      <trkpt lat="49.6395" lon="5.95514">
        <ele>329.1</ele>
        <time>2020-06-26T08:50:21Z</time>
      </trkpt>
      <trkpt lat="49.63953" lon="5.95514">
        <ele>329.2</ele>
        <time>2020-06-26T08:50:22Z</time>
      </trkpt>
      <trkpt lat="49.63956" lon="5.95515">
        <ele>329.3</ele>
        <time>2020-06-26T08:50:23Z</time>
      </trkpt>
      <trkpt lat="49.63959" lon="5.95515">
        <ele>329.4</ele>
        <time>2020-06-26T08:50:24Z</time>
      </trkpt>
      <trkpt lat="49.63962" lon="5.95516">
        <ele>329.5</ele>
        <time>2020-06-26T08:50:25Z</time>
      </trkpt>
      <trkpt lat="49.63965" lon="5.95518">
        <ele>329.6</ele>
        <time>2020-06-26T08:50:26Z</time>
      </trkpt>
      <trkpt lat="49.63968" lon="5.95519">
        <ele>329.7</ele>
        <time>2020-06-26T08:50:27Z</time>
      </trkpt>
      <trkpt lat="49.63971" lon="5.9552">
        <ele>329.8</ele>
        <time>2020-06-26T08:50:28Z</time>
      </trkpt>
      <trkpt lat="49.63975" lon="5.95522">
        <ele>330</ele>
        <time>2020-06-26T08:50:29Z</time>
      </trkpt>
      <trkpt lat="49.63976" lon="5.95522">
        <ele>330</ele>
        <time>2020-06-26T08:50:30Z</time>
      </trkpt>
      <trkpt lat="49.63978" lon="5.95525">
        <ele>330.1</ele>
        <time>2020-06-26T08:50:31Z</time>
      </trkpt>
      <trkpt lat="49.63981" lon="5.95526">
        <ele>330.2</ele>
        <time>2020-06-26T08:50:32Z</time>
      </trkpt>
      <trkpt lat="49.63984" lon="5.95527">
        <ele>330.2</ele>
        <time>2020-06-26T08:50:33Z</time>
      </trkpt>
      <trkpt lat="49.63988" lon="5.95528">
        <ele>330.3</ele>
        <time>2020-06-26T08:50:34Z</time>
      </trkpt>
      <trkpt lat="49.63991" lon="5.95529">
        <ele>330.4</ele>
        <time>2020-06-26T08:50:35Z</time>
      </trkpt>
      <trkpt lat="49.63994" lon="5.95531">
        <ele>330.5</ele>
        <time>2020-06-26T08:50:36Z</time>
      </trkpt>
      <trkpt lat="49.63997" lon="5.95532">
        <ele>330.6</ele>
        <time>2020-06-26T08:50:37Z</time>
      </trkpt>
      <trkpt lat="49.64001" lon="5.95534">
        <ele>330.6</ele>
        <time>2020-06-26T08:50:38Z</time>
      </trkpt>
      <trkpt lat="49.64004" lon="5.95535">
        <ele>330.7</ele>
        <time>2020-06-26T08:50:39Z</time>
      </trkpt>
      <trkpt lat="49.64006" lon="5.95538">
        <ele>330.8</ele>
        <time>2020-06-26T08:50:40Z</time>
      </trkpt>
      <trkpt lat="49.64009" lon="5.95539">
        <ele>330.9</ele>
        <time>2020-06-26T08:50:41Z</time>
      </trkpt>
      <trkpt lat="49.64013" lon="5.95541">
        <ele>331</ele>
        <time>2020-06-26T08:50:42Z</time>
      </trkpt>
      <trkpt lat="49.64016" lon="5.95543">
        <ele>331.1</ele>
        <time>2020-06-26T08:50:43Z</time>
      </trkpt>
      <trkpt lat="49.64019" lon="5.95545">
        <ele>331.2</ele>
        <time>2020-06-26T08:50:44Z</time>
      </trkpt>
      <trkpt lat="49.64023" lon="5.95547">
        <ele>331.3</ele>
        <time>2020-06-26T08:50:45Z</time>
      </trkpt>
      <trkpt lat="49.64027" lon="5.95547">
        <ele>331.4</ele>
        <time>2020-06-26T08:50:46Z</time>
      </trkpt>
      <trkpt lat="49.64031" lon="5.95548">
        <ele>331.5</ele>
        <time>2020-06-26T08:50:47Z</time>
      </trkpt>
      <trkpt lat="49.64035" lon="5.95549">
        <ele>331.6</ele>
        <time>2020-06-26T08:50:48Z</time>
      </trkpt>
      <trkpt lat="49.64039" lon="5.9555">
        <ele>331.7</ele>
        <time>2020-06-26T08:50:49Z</time>
      </trkpt>
      <trkpt lat="49.64043" lon="5.95552">
        <ele>331.8</ele>
        <time>2020-06-26T08:50:50Z</time>
      </trkpt>
      <trkpt lat="49.64047" lon="5.95554">
        <ele>331.9</ele>
        <time>2020-06-26T08:50:51Z</time>
      </trkpt>
      <trkpt lat="49.64052" lon="5.95555">
        <ele>332.1</ele>
        <time>2020-06-26T08:50:52Z</time>
      </trkpt>
      <trkpt lat="49.64057" lon="5.95556">
        <ele>332.2</ele>
        <time>2020-06-26T08:50:53Z</time>
      </trkpt>
      <trkpt lat="49.64061" lon="5.95557">
        <ele>332.3</ele>
        <time>2020-06-26T08:50:54Z</time>
      </trkpt>
      <trkpt lat="49.64066" lon="5.95558">
        <ele>332.4</ele>
        <time>2020-06-26T08:50:55Z</time>
      </trkpt>
      <trkpt lat="49.6407" lon="5.9556">
        <ele>332.6</ele>
        <time>2020-06-26T08:50:56Z</time>
      </trkpt>
      <trkpt lat="49.64074" lon="5.9556">
        <ele>332.7</ele>
        <time>2020-06-26T08:50:57Z</time>
      </trkpt>
      <trkpt lat="49.64078" lon="5.95561">
        <ele>332.8</ele>
        <time>2020-06-26T08:50:58Z</time>
      </trkpt>
      <trkpt lat="49.64082" lon="5.95562">
        <ele>332.9</ele>
        <time>2020-06-26T08:50:59Z</time>
      </trkpt>
      <trkpt lat="49.64088" lon="5.95564">
        <ele>333.1</ele>
        <time>2020-06-26T08:51:00Z</time>
      </trkpt>
      <trkpt lat="49.64093" lon="5.95565">
        <ele>333.2</ele>
        <time>2020-06-26T08:51:01Z</time>
      </trkpt>
      <trkpt lat="49.64098" lon="5.95567">
        <ele>333.4</ele>
        <time>2020-06-26T08:51:02Z</time>
      </trkpt>
      <trkpt lat="49.64102" lon="5.9557">
        <ele>333.5</ele>
        <time>2020-06-26T08:51:03Z</time>
      </trkpt>
      <trkpt lat="49.64106" lon="5.95571">
        <ele>333.6</ele>
        <time>2020-06-26T08:51:04Z</time>
      </trkpt>
      <trkpt lat="49.6411" lon="5.95572">
        <ele>333.7</ele>
        <time>2020-06-26T08:51:05Z</time>
      </trkpt>
      <trkpt lat="49.64114" lon="5.95573">
        <ele>333.9</ele>
        <time>2020-06-26T08:51:06Z</time>
      </trkpt>
      <trkpt lat="49.64118" lon="5.95574">
        <ele>334</ele>
        <time>2020-06-26T08:51:07Z</time>
      </trkpt>
      <trkpt lat="49.64122" lon="5.95576">
        <ele>334.1</ele>
        <time>2020-06-26T08:51:08Z</time>
      </trkpt>
      <trkpt lat="49.64126" lon="5.95578">
        <ele>334.3</ele>
        <time>2020-06-26T08:51:09Z</time>
      </trkpt>
      <trkpt lat="49.6413" lon="5.9558">
        <ele>334.4</ele>
        <time>2020-06-26T08:51:10Z</time>
      </trkpt>
      <trkpt lat="49.64134" lon="5.9558">
        <ele>334.5</ele>
        <time>2020-06-26T08:51:11Z</time>
      </trkpt>
      <trkpt lat="49.64139" lon="5.95581">
        <ele>334.7</ele>
        <time>2020-06-26T08:51:12Z</time>
      </trkpt>
      <trkpt lat="49.64143" lon="5.95582">
        <ele>334.8</ele>
        <time>2020-06-26T08:51:13Z</time>
      </trkpt>
      <trkpt lat="49.64148" lon="5.95582">
        <ele>335</ele>
        <time>2020-06-26T08:51:14Z</time>
      </trkpt>
      <trkpt lat="49.64151" lon="5.95583">
        <ele>335.1</ele>
        <time>2020-06-26T08:51:15Z</time>
      </trkpt>
      <trkpt lat="49.64155" lon="5.95584">
        <ele>335.2</ele>
        <time>2020-06-26T08:51:16Z</time>
      </trkpt>
      <trkpt lat="49.6416" lon="5.95585">
        <ele>335.2</ele>
        <time>2020-06-26T08:51:17Z</time>
      </trkpt>
      <trkpt lat="49.64163" lon="5.95586">
        <ele>335.3</ele>
        <time>2020-06-26T08:51:18Z</time>
      </trkpt>
      <trkpt lat="49.64168" lon="5.95587">
        <ele>335.4</ele>
        <time>2020-06-26T08:51:19Z</time>
      </trkpt>
      <trkpt lat="49.64172" lon="5.95588">
        <ele>335.4</ele>
        <time>2020-06-26T08:51:20Z</time>
      </trkpt>
      <trkpt lat="49.64176" lon="5.95588">
        <ele>335.5</ele>
        <time>2020-06-26T08:51:21Z</time>
      </trkpt>
      <trkpt lat="49.6418" lon="5.95588">
        <ele>335.6</ele>
        <time>2020-06-26T08:51:22Z</time>
      </trkpt>
      <trkpt lat="49.64184" lon="5.95588">
        <ele>335.7</ele>
        <time>2020-06-26T08:51:23Z</time>
      </trkpt>
      <trkpt lat="49.64188" lon="5.95588">
        <ele>335.8</ele>
        <time>2020-06-26T08:51:24Z</time>
      </trkpt>
      <trkpt lat="49.64193" lon="5.95588">
        <ele>336</ele>
        <time>2020-06-26T08:51:25Z</time>
      </trkpt>
      <trkpt lat="49.64198" lon="5.95589">
        <ele>336.1</ele>
        <time>2020-06-26T08:51:26Z</time>
      </trkpt>
      <trkpt lat="49.64202" lon="5.95589">
        <ele>336.2</ele>
        <time>2020-06-26T08:51:27Z</time>
      </trkpt>
      <trkpt lat="49.64206" lon="5.9559">
        <ele>336.3</ele>
        <time>2020-06-26T08:51:28Z</time>
      </trkpt>
      <trkpt lat="49.6421" lon="5.95591">
        <ele>336.4</ele>
        <time>2020-06-26T08:51:29Z</time>
      </trkpt>
      <trkpt lat="49.64214" lon="5.95591">
        <ele>336.5</ele>
        <time>2020-06-26T08:51:30Z</time>
      </trkpt>
      <trkpt lat="49.64217" lon="5.95592">
        <ele>336.5</ele>
        <time>2020-06-26T08:51:31Z</time>
      </trkpt>
      <trkpt lat="49.6422" lon="5.95593">
        <ele>336.6</ele>
        <time>2020-06-26T08:51:32Z</time>
      </trkpt>
      <trkpt lat="49.64224" lon="5.95593">
        <ele>336.7</ele>
        <time>2020-06-26T08:51:33Z</time>
      </trkpt>
      <trkpt lat="49.64227" lon="5.95593">
        <ele>336.8</ele>
        <time>2020-06-26T08:51:34Z</time>
      </trkpt>
      <trkpt lat="49.64231" lon="5.95593">
        <ele>336.8</ele>
        <time>2020-06-26T08:51:35Z</time>
      </trkpt>
      <trkpt lat="49.64234" lon="5.95595">
        <ele>336.9</ele>
        <time>2020-06-26T08:51:36Z</time>
      </trkpt>
      <trkpt lat="49.64236" lon="5.95595">
        <ele>336.9</ele>
        <time>2020-06-26T08:51:37Z</time>
      </trkpt>
      <trkpt lat="49.64239" lon="5.95596">
        <ele>337</ele>
        <time>2020-06-26T08:51:38Z</time>
      </trkpt>
      <trkpt lat="49.64243" lon="5.95596">
        <ele>337</ele>
        <time>2020-06-26T08:51:39Z</time>
      </trkpt>
      <trkpt lat="49.64244" lon="5.95597">
        <ele>337</ele>
        <time>2020-06-26T08:51:40Z</time>
      </trkpt>
      <trkpt lat="49.64247" lon="5.95597">
        <ele>337</ele>
        <time>2020-06-26T08:51:41Z</time>
      </trkpt>
      <trkpt lat="49.64248" lon="5.95598">
        <ele>337.1</ele>
        <time>2020-06-26T08:51:42Z</time>
      </trkpt>
      <trkpt lat="49.64249" lon="5.95598">
        <ele>337.1</ele>
        <time>2020-06-26T08:51:43Z</time>
      </trkpt>
      <trkpt lat="49.64249" lon="5.95598">
        <ele>337.1</ele>
        <time>2020-06-26T08:51:44Z</time>
      </trkpt>
      <trkpt lat="49.64249" lon="5.95599">
        <ele>337.1</ele>
        <time>2020-06-26T08:51:45Z</time>
      </trkpt>
      <trkpt lat="49.64249" lon="5.95599">
        <ele>337.1</ele>
        <time>2020-06-26T08:51:46Z</time>
      </trkpt>
      <trkpt lat="49.6425" lon="5.95599">
        <ele>337.1</ele>
        <time>2020-06-26T08:51:47Z</time>
      </trkpt>
      <trkpt lat="49.6425" lon="5.956">
        <ele>337.1</ele>
        <time>2020-06-26T08:51:48Z</time>
      </trkpt>
      <trkpt lat="49.6425" lon="5.956">
        <ele>337.1</ele>
        <time>2020-06-26T08:51:49Z</time>
      </trkpt>
      <trkpt lat="49.6425" lon="5.956">
        <ele>337.1</ele>
        <time>2020-06-26T08:51:50Z</time>
      </trkpt>
      <trkpt lat="49.6425" lon="5.95601">
        <ele>337.1</ele>
        <time>2020-06-26T08:51:51Z</time>
      </trkpt>
      <trkpt lat="49.6425" lon="5.95601">
        <ele>337.1</ele>
        <time>2020-06-26T08:51:52Z</time>
      </trkpt>
      <trkpt lat="49.6425" lon="5.95601">
        <ele>337.1</ele>
        <time>2020-06-26T08:51:53Z</time>
      </trkpt>
      <trkpt lat="49.6425" lon="5.95602">
        <ele>337.1</ele>
        <time>2020-06-26T08:51:54Z</time>
      </trkpt>
      <trkpt lat="49.6425" lon="5.95602">
        <ele>337.1</ele>
        <time>2020-06-26T08:51:55Z</time>
      </trkpt>
      <trkpt lat="49.64251" lon="5.95602">
        <ele>337.1</ele>
        <time>2020-06-26T08:51:56Z</time>
      </trkpt>
      <trkpt lat="49.64251" lon="5.95603">
        <ele>337.1</ele>
        <time>2020-06-26T08:51:57Z</time>
      </trkpt>
      <trkpt lat="49.64251" lon="5.95603">
        <ele>337.1</ele>
        <time>2020-06-26T08:51:58Z</time>
      </trkpt>
      <trkpt lat="49.64252" lon="5.95606">
        <ele>337.1</ele>
        <time>2020-06-26T08:51:59Z</time>
      </trkpt>
      <trkpt lat="49.64252" lon="5.95608">
        <ele>337.1</ele>
        <time>2020-06-26T08:52:00Z</time>
      </trkpt>
      <trkpt lat="49.64253" lon="5.95609">
        <ele>337.1</ele>
        <time>2020-06-26T08:52:01Z</time>
      </trkpt>
      <trkpt lat="49.64255" lon="5.9561">
        <ele>337.1</ele>
        <time>2020-06-26T08:52:02Z</time>
      </trkpt>
      <trkpt lat="49.64258" lon="5.9561">
        <ele>337.1</ele>
        <time>2020-06-26T08:52:03Z</time>
      </trkpt>
      <trkpt lat="49.64262" lon="5.9561">
        <ele>337.1</ele>
        <time>2020-06-26T08:52:04Z</time>
      </trkpt>
      <trkpt lat="49.64265" lon="5.9561">
        <ele>337.1</ele>
        <time>2020-06-26T08:52:05Z</time>
      </trkpt>
      <trkpt lat="49.64269" lon="5.9561">
        <ele>337.1</ele>
        <time>2020-06-26T08:52:06Z</time>
      </trkpt>
      <trkpt lat="49.64273" lon="5.9561">
        <ele>337.1</ele>
        <time>2020-06-26T08:52:07Z</time>
      </trkpt>
      <trkpt lat="49.64276" lon="5.95609">
        <ele>337.1</ele>
        <time>2020-06-26T08:52:08Z</time>
      </trkpt>
      <trkpt lat="49.6428" lon="5.95608">
        <ele>337.1</ele>
        <time>2020-06-26T08:52:09Z</time>
      </trkpt>
      <trkpt lat="49.64284" lon="5.95608">
        <ele>337.1</ele>
        <time>2020-06-26T08:52:10Z</time>
      </trkpt>
      <trkpt lat="49.64288" lon="5.95607">
        <ele>337.1</ele>
        <time>2020-06-26T08:52:11Z</time>
      </trkpt>
      <trkpt lat="49.64293" lon="5.95607">
        <ele>337.2</ele>
        <time>2020-06-26T08:52:12Z</time>
      </trkpt>
      <trkpt lat="49.64299" lon="5.95606">
        <ele>337.3</ele>
        <time>2020-06-26T08:52:13Z</time>
      </trkpt>
      <trkpt lat="49.64304" lon="5.95606">
        <ele>337.2</ele>
        <time>2020-06-26T08:52:14Z</time>
      </trkpt>
      <trkpt lat="49.64309" lon="5.95606">
        <ele>337.2</ele>
        <time>2020-06-26T08:52:15Z</time>
      </trkpt>
      <trkpt lat="49.64314" lon="5.95605">
        <ele>337.1</ele>
        <time>2020-06-26T08:52:16Z</time>
      </trkpt>
      <trkpt lat="49.64319" lon="5.95605">
        <ele>337.1</ele>
        <time>2020-06-26T08:52:17Z</time>
      </trkpt>
      <trkpt lat="49.64325" lon="5.95605">
        <ele>337</ele>
        <time>2020-06-26T08:52:18Z</time>
      </trkpt>
      <trkpt lat="49.6433" lon="5.95605">
        <ele>336.9</ele>
        <time>2020-06-26T08:52:19Z</time>
      </trkpt>
      <trkpt lat="49.64334" lon="5.95605">
        <ele>336.8</ele>
        <time>2020-06-26T08:52:20Z</time>
      </trkpt>
      <trkpt lat="49.64341" lon="5.95604">
        <ele>336.6</ele>
        <time>2020-06-26T08:52:21Z</time>
      </trkpt>
      <trkpt lat="49.64347" lon="5.95603">
        <ele>336.5</ele>
        <time>2020-06-26T08:52:22Z</time>
      </trkpt>
      <trkpt lat="49.64353" lon="5.95602">
        <ele>336.4</ele>
        <time>2020-06-26T08:52:23Z</time>
      </trkpt>
      <trkpt lat="49.64359" lon="5.95602">
        <ele>336.2</ele>
        <time>2020-06-26T08:52:24Z</time>
      </trkpt>
      <trkpt lat="49.64365" lon="5.95602">
        <ele>336.1</ele>
        <time>2020-06-26T08:52:25Z</time>
      </trkpt>
      <trkpt lat="49.6437" lon="5.95602">
        <ele>335.9</ele>
        <time>2020-06-26T08:52:26Z</time>
      </trkpt>
      <trkpt lat="49.64376" lon="5.95601">
        <ele>335.7</ele>
        <time>2020-06-26T08:52:27Z</time>
      </trkpt>
      <trkpt lat="49.64384" lon="5.956">
        <ele>335.5</ele>
        <time>2020-06-26T08:52:28Z</time>
      </trkpt>
      <trkpt lat="49.64392" lon="5.956">
        <ele>335.2</ele>
        <time>2020-06-26T08:52:29Z</time>
      </trkpt>
      <trkpt lat="49.64399" lon="5.95598">
        <ele>335</ele>
        <time>2020-06-26T08:52:30Z</time>
      </trkpt>
      <trkpt lat="49.64406" lon="5.95597">
        <ele>334.7</ele>
        <time>2020-06-26T08:52:31Z</time>
      </trkpt>
      <trkpt lat="49.64413" lon="5.95595">
        <ele>334.5</ele>
        <time>2020-06-26T08:52:32Z</time>
      </trkpt>
      <trkpt lat="49.6442" lon="5.95594">
        <ele>334.3</ele>
        <time>2020-06-26T08:52:33Z</time>
      </trkpt>
      <trkpt lat="49.64427" lon="5.95593">
        <ele>334</ele>
        <time>2020-06-26T08:52:34Z</time>
      </trkpt>
      <trkpt lat="49.64434" lon="5.95592">
        <ele>333.8</ele>
        <time>2020-06-26T08:52:35Z</time>
      </trkpt>
      <trkpt lat="49.64442" lon="5.95591">
        <ele>333.5</ele>
        <time>2020-06-26T08:52:36Z</time>
      </trkpt>
      <trkpt lat="49.64449" lon="5.95591">
        <ele>333.2</ele>
        <time>2020-06-26T08:52:37Z</time>
      </trkpt>
      <trkpt lat="49.64456" lon="5.9559">
        <ele>333</ele>
        <time>2020-06-26T08:52:38Z</time>
      </trkpt>
      <trkpt lat="49.64463" lon="5.95589">
        <ele>332.9</ele>
        <time>2020-06-26T08:52:39Z</time>
      </trkpt>
      <trkpt lat="49.6447" lon="5.95588">
        <ele>332.7</ele>
        <time>2020-06-26T08:52:40Z</time>
      </trkpt>
      <trkpt lat="49.64477" lon="5.95588">
        <ele>332.5</ele>
        <time>2020-06-26T08:52:41Z</time>
      </trkpt>
      <trkpt lat="49.64483" lon="5.95588">
        <ele>332.4</ele>
        <time>2020-06-26T08:52:42Z</time>
      </trkpt>
      <trkpt lat="49.64489" lon="5.95587">
        <ele>332.3</ele>
        <time>2020-06-26T08:52:43Z</time>
      </trkpt>
      <trkpt lat="49.64494" lon="5.95588">
        <ele>332.3</ele>
        <time>2020-06-26T08:52:44Z</time>
      </trkpt>
      <trkpt lat="49.645" lon="5.95588">
        <ele>332.3</ele>
        <time>2020-06-26T08:52:45Z</time>
      </trkpt>
      <trkpt lat="49.64506" lon="5.95588">
        <ele>332.3</ele>
        <time>2020-06-26T08:52:46Z</time>
      </trkpt>
      <trkpt lat="49.64512" lon="5.95589">
        <ele>332.3</ele>
        <time>2020-06-26T08:52:47Z</time>
      </trkpt>
      <trkpt lat="49.64518" lon="5.9559">
        <ele>332.3</ele>
        <time>2020-06-26T08:52:48Z</time>
      </trkpt>
      <trkpt lat="49.64523" lon="5.95592">
        <ele>332.7</ele>
        <time>2020-06-26T08:52:49Z</time>
      </trkpt>
      <trkpt lat="49.64527" lon="5.95595">
        <ele>332.9</ele>
        <time>2020-06-26T08:52:50Z</time>
      </trkpt>
      <trkpt lat="49.64528" lon="5.95599">
        <ele>333</ele>
        <time>2020-06-26T08:52:51Z</time>
      </trkpt>
      <trkpt lat="49.6453" lon="5.95602">
        <ele>333.5</ele>
        <time>2020-06-26T08:52:52Z</time>
      </trkpt>
      <trkpt lat="49.64531" lon="5.95604">
        <ele>333.5</ele>
        <time>2020-06-26T08:52:53Z</time>
      </trkpt>
      <trkpt lat="49.64531" lon="5.95606">
        <ele>333.5</ele>
        <time>2020-06-26T08:52:54Z</time>
      </trkpt>
      <trkpt lat="49.6453" lon="5.95606">
        <ele>333.5</ele>
        <time>2020-06-26T08:52:55Z</time>
      </trkpt>
      <trkpt lat="49.6453" lon="5.95607">
        <ele>333.5</ele>
        <time>2020-06-26T08:52:56Z</time>
      </trkpt>
      <trkpt lat="49.64529" lon="5.95607">
        <ele>333.5</ele>
        <time>2020-06-26T08:52:57Z</time>
      </trkpt>
      <trkpt lat="49.64529" lon="5.95608">
        <ele>333.5</ele>
        <time>2020-06-26T08:52:58Z</time>
      </trkpt>
      <trkpt lat="49.64528" lon="5.95609">
        <ele>333.5</ele>
        <time>2020-06-26T08:52:59Z</time>
      </trkpt>
      <trkpt lat="49.64528" lon="5.9561">
        <ele>333.5</ele>
        <time>2020-06-26T08:53:00Z</time>
      </trkpt>
      <trkpt lat="49.64528" lon="5.9561">
        <ele>333.5</ele>
        <time>2020-06-26T08:53:01Z</time>
      </trkpt>
      <trkpt lat="49.64529" lon="5.95611">
        <ele>333.5</ele>
        <time>2020-06-26T08:53:02Z</time>
      </trkpt>
      <trkpt lat="49.64529" lon="5.95612">
        <ele>333.5</ele>
        <time>2020-06-26T08:53:03Z</time>
      </trkpt>
      <trkpt lat="49.64529" lon="5.95612">
        <ele>333.5</ele>
        <time>2020-06-26T08:53:04Z</time>
      </trkpt>
      <trkpt lat="49.64529" lon="5.95612">
        <ele>333.5</ele>
        <time>2020-06-26T08:53:05Z</time>
      </trkpt>
      <trkpt lat="49.64529" lon="5.95612">
        <ele>333.5</ele>
        <time>2020-06-26T08:53:06Z</time>
      </trkpt>
      <trkpt lat="49.64529" lon="5.95613">
        <ele>333.5</ele>
        <time>2020-06-26T08:53:07Z</time>
      </trkpt>
      <trkpt lat="49.64529" lon="5.95613">
        <ele>333.5</ele>
        <time>2020-06-26T08:53:08Z</time>
      </trkpt>
      <trkpt lat="49.64529" lon="5.95614">
        <ele>333.5</ele>
        <time>2020-06-26T08:53:09Z</time>
      </trkpt>
      <trkpt lat="49.64529" lon="5.95614">
        <ele>333.5</ele>
        <time>2020-06-26T08:53:10Z</time>
      </trkpt>
      <trkpt lat="49.64529" lon="5.95614">
        <ele>333.5</ele>
        <time>2020-06-26T08:53:11Z</time>
      </trkpt>
      <trkpt lat="49.64529" lon="5.95614">
        <ele>333.5</ele>
        <time>2020-06-26T08:53:12Z</time>
      </trkpt>
      <trkpt lat="49.64529" lon="5.95614">
        <ele>333.5</ele>
        <time>2020-06-26T08:53:13Z</time>
      </trkpt>
      <trkpt lat="49.64524" lon="5.95622">
        <ele>333.5</ele>
        <time>2020-06-26T08:53:23Z</time>
      </trkpt>
      <trkpt lat="49.64523" lon="5.95624">
        <ele>333.5</ele>
        <time>2020-06-26T08:53:24Z</time>
      </trkpt>
      <trkpt lat="49.64521" lon="5.95625">
        <ele>333.5</ele>
        <time>2020-06-26T08:53:25Z</time>
      </trkpt>
      <trkpt lat="49.64519" lon="5.95626">
        <ele>333.5</ele>
        <time>2020-06-26T08:53:26Z</time>
      </trkpt>
      <trkpt lat="49.64519" lon="5.95626">
        <ele>333.5</ele>
        <time>2020-06-26T08:53:27Z</time>
      </trkpt>
      <trkpt lat="49.64518" lon="5.95626">
        <ele>333.5</ele>
        <time>2020-06-26T08:53:28Z</time>
      </trkpt>
      <trkpt lat="49.64517" lon="5.95625">
        <ele>333.5</ele>
        <time>2020-06-26T08:53:29Z</time>
      </trkpt>
      <trkpt lat="49.64515" lon="5.95624">
        <ele>333.5</ele>
        <time>2020-06-26T08:53:30Z</time>
      </trkpt>
      <trkpt lat="49.64514" lon="5.95625">
        <ele>333.5</ele>
        <time>2020-06-26T08:53:31Z</time>
      </trkpt>
      <trkpt lat="49.64513" lon="5.95626">
        <ele>333.5</ele>
        <time>2020-06-26T08:53:32Z</time>
      </trkpt>
      <trkpt lat="49.64512" lon="5.95627">
        <ele>333.5</ele>
        <time>2020-06-26T08:53:33Z</time>
      </trkpt>
      <trkpt lat="49.64511" lon="5.95627">
        <ele>333.5</ele>
        <time>2020-06-26T08:53:34Z</time>
      </trkpt>
      <trkpt lat="49.64511" lon="5.95628">
        <ele>333.5</ele>
        <time>2020-06-26T08:53:35Z</time>
      </trkpt>
      <trkpt lat="49.64511" lon="5.95628">
        <ele>333.5</ele>
        <time>2020-06-26T08:53:36Z</time>
      </trkpt>
      <trkpt lat="49.64511" lon="5.95628">
        <ele>333.5</ele>
        <time>2020-06-26T08:53:37Z</time>
      </trkpt>
      <trkpt lat="49.6451" lon="5.95628">
        <ele>333.5</ele>
        <time>2020-06-26T08:53:38Z</time>
      </trkpt>
      <trkpt lat="49.64509" lon="5.95629">
        <ele>333.5</ele>
        <time>2020-06-26T08:53:39Z</time>
      </trkpt>
      <trkpt lat="49.64509" lon="5.95627">
        <ele>333.5</ele>
        <time>2020-06-26T08:53:40Z</time>
      </trkpt>
      <trkpt lat="49.64509" lon="5.95626">
        <ele>333.5</ele>
        <time>2020-06-26T08:53:41Z</time>
      </trkpt>
      <trkpt lat="49.64508" lon="5.95626">
        <ele>333.5</ele>
        <time>2020-06-26T08:53:42Z</time>
      </trkpt>
      <trkpt lat="49.64508" lon="5.95625">
        <ele>333.5</ele>
        <time>2020-06-26T08:53:43Z</time>
      </trkpt>
      <trkpt lat="49.64508" lon="5.95625">
        <ele>333.5</ele>
        <time>2020-06-26T08:53:44Z</time>
      </trkpt>
      <trkpt lat="49.64496" lon="5.95632">
        <ele>333.6</ele>
        <time>2020-06-26T08:54:38Z</time>
      </trkpt>
      <trkpt lat="49.64494" lon="5.95635">
        <ele>333.6</ele>
        <time>2020-06-26T08:54:39Z</time>
      </trkpt>
      <trkpt lat="49.64491" lon="5.95637">
        <ele>333.6</ele>
        <time>2020-06-26T08:54:40Z</time>
      </trkpt>
      <trkpt lat="49.64488" lon="5.9564">
        <ele>333.7</ele>
        <time>2020-06-26T08:54:41Z</time>
      </trkpt>
      <trkpt lat="49.64486" lon="5.95644">
        <ele>333.7</ele>
        <time>2020-06-26T08:54:42Z</time>
      </trkpt>
      <trkpt lat="49.64483" lon="5.95647">
        <ele>333.7</ele>
        <time>2020-06-26T08:54:43Z</time>
      </trkpt>
      <trkpt lat="49.6448" lon="5.9565">
        <ele>333.8</ele>
        <time>2020-06-26T08:54:44Z</time>
      </trkpt>
      <trkpt lat="49.64478" lon="5.95654">
        <ele>333.8</ele>
        <time>2020-06-26T08:54:45Z</time>
      </trkpt>
      <trkpt lat="49.64475" lon="5.95656">
        <ele>333.9</ele>
        <time>2020-06-26T08:54:46Z</time>
      </trkpt>
      <trkpt lat="49.64472" lon="5.95659">
        <ele>333.9</ele>
        <time>2020-06-26T08:54:47Z</time>
      </trkpt>
      <trkpt lat="49.64469" lon="5.95662">
        <ele>334</ele>
        <time>2020-06-26T08:54:48Z</time>
      </trkpt>
      <trkpt lat="49.64466" lon="5.95665">
        <ele>334</ele>
        <time>2020-06-26T08:54:49Z</time>
      </trkpt>
      <trkpt lat="49.64464" lon="5.95669">
        <ele>334</ele>
        <time>2020-06-26T08:54:50Z</time>
      </trkpt>
      <trkpt lat="49.64462" lon="5.95673">
        <ele>334.1</ele>
        <time>2020-06-26T08:54:51Z</time>
      </trkpt>
      <trkpt lat="49.64459" lon="5.95677">
        <ele>334.2</ele>
        <time>2020-06-26T08:54:52Z</time>
      </trkpt>
      <trkpt lat="49.64455" lon="5.95681">
        <ele>334.3</ele>
        <time>2020-06-26T08:54:53Z</time>
      </trkpt>
      <trkpt lat="49.64451" lon="5.95683">
        <ele>334.4</ele>
        <time>2020-06-26T08:54:54Z</time>
      </trkpt>
      <trkpt lat="49.64449" lon="5.95684">
        <ele>334.5</ele>
        <time>2020-06-26T08:54:55Z</time>
      </trkpt>
      <trkpt lat="49.64446" lon="5.95687">
        <ele>334.6</ele>
        <time>2020-06-26T08:54:56Z</time>
      </trkpt>
      <trkpt lat="49.64443" lon="5.95689">
        <ele>334.6</ele>
        <time>2020-06-26T08:54:57Z</time>
      </trkpt>
      <trkpt lat="49.64438" lon="5.95693">
        <ele>334.8</ele>
        <time>2020-06-26T08:54:58Z</time>
      </trkpt>
      <trkpt lat="49.64434" lon="5.95696">
        <ele>334.8</ele>
        <time>2020-06-26T08:54:59Z</time>
      </trkpt>
      <trkpt lat="49.64433" lon="5.95697">
        <ele>334.9</ele>
        <time>2020-06-26T08:55:00Z</time>
      </trkpt>
      <trkpt lat="49.64429" lon="5.957">
        <ele>334.9</ele>
        <time>2020-06-26T08:55:01Z</time>
      </trkpt>
      <trkpt lat="49.64426" lon="5.95703">
        <ele>335</ele>
        <time>2020-06-26T08:55:02Z</time>
      </trkpt>
      <trkpt lat="49.64424" lon="5.95704">
        <ele>335</ele>
        <time>2020-06-26T08:55:03Z</time>
      </trkpt>
      <trkpt lat="49.64422" lon="5.95706">
        <ele>335.2</ele>
        <time>2020-06-26T08:55:04Z</time>
      </trkpt>
      <trkpt lat="49.64419" lon="5.95708">
        <ele>335.2</ele>
        <time>2020-06-26T08:55:05Z</time>
      </trkpt>
      <trkpt lat="49.64415" lon="5.9571">
        <ele>335.3</ele>
        <time>2020-06-26T08:55:06Z</time>
      </trkpt>
      <trkpt lat="49.64413" lon="5.95712">
        <ele>335.4</ele>
        <time>2020-06-26T08:55:07Z</time>
      </trkpt>
      <trkpt lat="49.64409" lon="5.95714">
        <ele>335.4</ele>
        <time>2020-06-26T08:55:08Z</time>
      </trkpt>
      <trkpt lat="49.64408" lon="5.95715">
        <ele>335.5</ele>
        <time>2020-06-26T08:55:09Z</time>
      </trkpt>
      <trkpt lat="49.64406" lon="5.95717">
        <ele>335.5</ele>
        <time>2020-06-26T08:55:10Z</time>
      </trkpt>
      <trkpt lat="49.64403" lon="5.95721">
        <ele>335.6</ele>
        <time>2020-06-26T08:55:11Z</time>
      </trkpt>
      <trkpt lat="49.64401" lon="5.95724">
        <ele>335.7</ele>
        <time>2020-06-26T08:55:12Z</time>
      </trkpt>
      <trkpt lat="49.64398" lon="5.95728">
        <ele>335.8</ele>
        <time>2020-06-26T08:55:13Z</time>
      </trkpt>
      <trkpt lat="49.64395" lon="5.95732">
        <ele>335.9</ele>
        <time>2020-06-26T08:55:14Z</time>
      </trkpt>
      <trkpt lat="49.64393" lon="5.95734">
        <ele>335.9</ele>
        <time>2020-06-26T08:55:15Z</time>
      </trkpt>
      <trkpt lat="49.6439" lon="5.95736">
        <ele>335.9</ele>
        <time>2020-06-26T08:55:16Z</time>
      </trkpt>
      <trkpt lat="49.64388" lon="5.95739">
        <ele>336</ele>
        <time>2020-06-26T08:55:17Z</time>
      </trkpt>
      <trkpt lat="49.64385" lon="5.95742">
        <ele>336</ele>
        <time>2020-06-26T08:55:18Z</time>
      </trkpt>
      <trkpt lat="49.64383" lon="5.95744">
        <ele>336</ele>
        <time>2020-06-26T08:55:19Z</time>
      </trkpt>
      <trkpt lat="49.6438" lon="5.95746">
        <ele>336</ele>
        <time>2020-06-26T08:55:20Z</time>
      </trkpt>
      <trkpt lat="49.64378" lon="5.95747">
        <ele>336.1</ele>
        <time>2020-06-26T08:55:21Z</time>
      </trkpt>
      <trkpt lat="49.64375" lon="5.9575">
        <ele>336.1</ele>
        <time>2020-06-26T08:55:22Z</time>
      </trkpt>
      <trkpt lat="49.64372" lon="5.95753">
        <ele>336.2</ele>
        <time>2020-06-26T08:55:23Z</time>
      </trkpt>
      <trkpt lat="49.6437" lon="5.95755">
        <ele>336.2</ele>
        <time>2020-06-26T08:55:24Z</time>
      </trkpt>
      <trkpt lat="49.64367" lon="5.95759">
        <ele>336.2</ele>
        <time>2020-06-26T08:55:25Z</time>
      </trkpt>
      <trkpt lat="49.64366" lon="5.9576">
        <ele>336.2</ele>
        <time>2020-06-26T08:55:26Z</time>
      </trkpt>
      <trkpt lat="49.64364" lon="5.95764">
        <ele>336.2</ele>
        <time>2020-06-26T08:55:27Z</time>
      </trkpt>
      <trkpt lat="49.64363" lon="5.95765">
        <ele>336.2</ele>
        <time>2020-06-26T08:55:28Z</time>
      </trkpt>
      <trkpt lat="49.64361" lon="5.95769">
        <ele>336.2</ele>
        <time>2020-06-26T08:55:29Z</time>
      </trkpt>
      <trkpt lat="49.6436" lon="5.9577">
        <ele>336.2</ele>
        <time>2020-06-26T08:55:30Z</time>
      </trkpt>
      <trkpt lat="49.64357" lon="5.95772">
        <ele>336.1</ele>
        <time>2020-06-26T08:55:31Z</time>
      </trkpt>
      <trkpt lat="49.64355" lon="5.95776">
        <ele>336</ele>
        <time>2020-06-26T08:55:32Z</time>
      </trkpt>
      <trkpt lat="49.64354" lon="5.95777">
        <ele>336</ele>
        <time>2020-06-26T08:55:33Z</time>
      </trkpt>
      <trkpt lat="49.6435" lon="5.95781">
        <ele>335.9</ele>
        <time>2020-06-26T08:55:34Z</time>
      </trkpt>
      <trkpt lat="49.64349" lon="5.95783">
        <ele>335.8</ele>
        <time>2020-06-26T08:55:35Z</time>
      </trkpt>
      <trkpt lat="49.64347" lon="5.95787">
        <ele>335.7</ele>
        <time>2020-06-26T08:55:36Z</time>
      </trkpt>
      <trkpt lat="49.64343" lon="5.95792">
        <ele>335.5</ele>
        <time>2020-06-26T08:55:37Z</time>
      </trkpt>
      <trkpt lat="49.6434" lon="5.95796">
        <ele>335.3</ele>
        <time>2020-06-26T08:55:38Z</time>
      </trkpt>
      <trkpt lat="49.64336" lon="5.958">
        <ele>335.1</ele>
        <time>2020-06-26T08:55:39Z</time>
      </trkpt>
      <trkpt lat="49.64332" lon="5.95804">
        <ele>334.9</ele>
        <time>2020-06-26T08:55:40Z</time>
      </trkpt>
      <trkpt lat="49.64328" lon="5.95809">
        <ele>334.7</ele>
        <time>2020-06-26T08:55:41Z</time>
      </trkpt>
      <trkpt lat="49.64324" lon="5.95814">
        <ele>334.4</ele>
        <time>2020-06-26T08:55:42Z</time>
      </trkpt>
      <trkpt lat="49.64319" lon="5.95819">
        <ele>334.2</ele>
        <time>2020-06-26T08:55:43Z</time>
      </trkpt>
      <trkpt lat="49.64314" lon="5.95825">
        <ele>333.9</ele>
        <time>2020-06-26T08:55:44Z</time>
      </trkpt>
      <trkpt lat="49.6431" lon="5.9583">
        <ele>333.7</ele>
        <time>2020-06-26T08:55:45Z</time>
      </trkpt>
      <trkpt lat="49.64306" lon="5.95835">
        <ele>333.5</ele>
        <time>2020-06-26T08:55:46Z</time>
      </trkpt>
      <trkpt lat="49.643" lon="5.95842">
        <ele>333.2</ele>
        <time>2020-06-26T08:55:47Z</time>
      </trkpt>
      <trkpt lat="49.64295" lon="5.95848">
        <ele>333</ele>
        <time>2020-06-26T08:55:48Z</time>
      </trkpt>
      <trkpt lat="49.6429" lon="5.95854">
        <ele>332.9</ele>
        <time>2020-06-26T08:55:49Z</time>
      </trkpt>
      <trkpt lat="49.64284" lon="5.95861">
        <ele>332.7</ele>
        <time>2020-06-26T08:55:50Z</time>
      </trkpt>
      <trkpt lat="49.64278" lon="5.95868">
        <ele>332.6</ele>
        <time>2020-06-26T08:55:51Z</time>
      </trkpt>
      <trkpt lat="49.64273" lon="5.95875">
        <ele>332.3</ele>
        <time>2020-06-26T08:55:52Z</time>
      </trkpt>
      <trkpt lat="49.64269" lon="5.95882">
        <ele>332.1</ele>
        <time>2020-06-26T08:55:53Z</time>
      </trkpt>
      <trkpt lat="49.64264" lon="5.9589">
        <ele>331.9</ele>
        <time>2020-06-26T08:55:54Z</time>
      </trkpt>
      <trkpt lat="49.64261" lon="5.95898">
        <ele>331.8</ele>
        <time>2020-06-26T08:55:55Z</time>
      </trkpt>
      <trkpt lat="49.64257" lon="5.95906">
        <ele>331.7</ele>
        <time>2020-06-26T08:55:56Z</time>
      </trkpt>
      <trkpt lat="49.64253" lon="5.95913">
        <ele>331.5</ele>
        <time>2020-06-26T08:55:57Z</time>
      </trkpt>
      <trkpt lat="49.6425" lon="5.95921">
        <ele>331.4</ele>
        <time>2020-06-26T08:55:58Z</time>
      </trkpt>
      <trkpt lat="49.64246" lon="5.95929">
        <ele>331.3</ele>
        <time>2020-06-26T08:55:59Z</time>
      </trkpt>
      <trkpt lat="49.64242" lon="5.95937">
        <ele>331.2</ele>
        <time>2020-06-26T08:56:00Z</time>
      </trkpt>
      <trkpt lat="49.64239" lon="5.95945">
        <ele>331.1</ele>
        <time>2020-06-26T08:56:01Z</time>
      </trkpt>
      <trkpt lat="49.64236" lon="5.95953">
        <ele>331</ele>
        <time>2020-06-26T08:56:02Z</time>
      </trkpt>
      <trkpt lat="49.64233" lon="5.95962">
        <ele>330.9</ele>
        <time>2020-06-26T08:56:03Z</time>
      </trkpt>
      <trkpt lat="49.6423" lon="5.9597">
        <ele>330.9</ele>
        <time>2020-06-26T08:56:04Z</time>
      </trkpt>
      <trkpt lat="49.64228" lon="5.95979">
        <ele>330.8</ele>
        <time>2020-06-26T08:56:05Z</time>
      </trkpt>
      <trkpt lat="49.64226" lon="5.95988">
        <ele>330.7</ele>
        <time>2020-06-26T08:56:06Z</time>
      </trkpt>
      <trkpt lat="49.64224" lon="5.95997">
        <ele>330.7</ele>
        <time>2020-06-26T08:56:07Z</time>
      </trkpt>
      <trkpt lat="49.64223" lon="5.96005">
        <ele>330.7</ele>
        <time>2020-06-26T08:56:08Z</time>
      </trkpt>
      <trkpt lat="49.64223" lon="5.96014">
        <ele>330.6</ele>
        <time>2020-06-26T08:56:09Z</time>
      </trkpt>
      <trkpt lat="49.64222" lon="5.96022">
        <ele>330.6</ele>
        <time>2020-06-26T08:56:10Z</time>
      </trkpt>
      <trkpt lat="49.64221" lon="5.96031">
        <ele>330.5</ele>
        <time>2020-06-26T08:56:11Z</time>
      </trkpt>
      <trkpt lat="49.64221" lon="5.9604">
        <ele>330.5</ele>
        <time>2020-06-26T08:56:12Z</time>
      </trkpt>
      <trkpt lat="49.64221" lon="5.96048">
        <ele>330.4</ele>
        <time>2020-06-26T08:56:13Z</time>
      </trkpt>
      <trkpt lat="49.64222" lon="5.96057">
        <ele>330.4</ele>
        <time>2020-06-26T08:56:14Z</time>
      </trkpt>
      <trkpt lat="49.64222" lon="5.96065">
        <ele>330.4</ele>
        <time>2020-06-26T08:56:15Z</time>
      </trkpt>
      <trkpt lat="49.64222" lon="5.96074">
        <ele>330.4</ele>
        <time>2020-06-26T08:56:16Z</time>
      </trkpt>
      <trkpt lat="49.64222" lon="5.96083">
        <ele>330.4</ele>
        <time>2020-06-26T08:56:17Z</time>
      </trkpt>
      <trkpt lat="49.64222" lon="5.96091">
        <ele>330.3</ele>
        <time>2020-06-26T08:56:18Z</time>
      </trkpt>
      <trkpt lat="49.64222" lon="5.96098">
        <ele>330.3</ele>
        <time>2020-06-26T08:56:19Z</time>
      </trkpt>
      <trkpt lat="49.64222" lon="5.96106">
        <ele>330.3</ele>
        <time>2020-06-26T08:56:20Z</time>
      </trkpt>
      <trkpt lat="49.64222" lon="5.96113">
        <ele>330.3</ele>
        <time>2020-06-26T08:56:21Z</time>
      </trkpt>
      <trkpt lat="49.64222" lon="5.9612">
        <ele>330.3</ele>
        <time>2020-06-26T08:56:22Z</time>
      </trkpt>
      <trkpt lat="49.64222" lon="5.96127">
        <ele>330.4</ele>
        <time>2020-06-26T08:56:23Z</time>
      </trkpt>
      <trkpt lat="49.64221" lon="5.96134">
        <ele>330.4</ele>
        <time>2020-06-26T08:56:24Z</time>
      </trkpt>
      <trkpt lat="49.64221" lon="5.96141">
        <ele>330.4</ele>
        <time>2020-06-26T08:56:25Z</time>
      </trkpt>
      <trkpt lat="49.64221" lon="5.96148">
        <ele>330.4</ele>
        <time>2020-06-26T08:56:26Z</time>
      </trkpt>
      <trkpt lat="49.64221" lon="5.96155">
        <ele>330.4</ele>
        <time>2020-06-26T08:56:27Z</time>
      </trkpt>
      <trkpt lat="49.6422" lon="5.96162">
        <ele>330.4</ele>
        <time>2020-06-26T08:56:28Z</time>
      </trkpt>
      <trkpt lat="49.6422" lon="5.96169">
        <ele>330.4</ele>
        <time>2020-06-26T08:56:29Z</time>
      </trkpt>
      <trkpt lat="49.6422" lon="5.96176">
        <ele>330.4</ele>
        <time>2020-06-26T08:56:30Z</time>
      </trkpt>
      <trkpt lat="49.6422" lon="5.96184">
        <ele>330.3</ele>
        <time>2020-06-26T08:56:31Z</time>
      </trkpt>
      <trkpt lat="49.6422" lon="5.96191">
        <ele>330.3</ele>
        <time>2020-06-26T08:56:32Z</time>
      </trkpt>
      <trkpt lat="49.6422" lon="5.96198">
        <ele>330.3</ele>
        <time>2020-06-26T08:56:33Z</time>
      </trkpt>
      <trkpt lat="49.6422" lon="5.96205">
        <ele>330.3</ele>
        <time>2020-06-26T08:56:34Z</time>
      </trkpt>
      <trkpt lat="49.64221" lon="5.96212">
        <ele>330.3</ele>
        <time>2020-06-26T08:56:35Z</time>
      </trkpt>
      <trkpt lat="49.64221" lon="5.96219">
        <ele>330.3</ele>
        <time>2020-06-26T08:56:36Z</time>
      </trkpt>
      <trkpt lat="49.64221" lon="5.96227">
        <ele>330.3</ele>
        <time>2020-06-26T08:56:37Z</time>
      </trkpt>
      <trkpt lat="49.64221" lon="5.96234">
        <ele>330.3</ele>
        <time>2020-06-26T08:56:38Z</time>
      </trkpt>
      <trkpt lat="49.64222" lon="5.96241">
        <ele>330.3</ele>
        <time>2020-06-26T08:56:39Z</time>
      </trkpt>
      <trkpt lat="49.64222" lon="5.96248">
        <ele>330.3</ele>
        <time>2020-06-26T08:56:40Z</time>
      </trkpt>
      <trkpt lat="49.64222" lon="5.96256">
        <ele>330.3</ele>
        <time>2020-06-26T08:56:41Z</time>
      </trkpt>
      <trkpt lat="49.64222" lon="5.96263">
        <ele>330.3</ele>
        <time>2020-06-26T08:56:42Z</time>
      </trkpt>
      <trkpt lat="49.64223" lon="5.9627">
        <ele>330.3</ele>
        <time>2020-06-26T08:56:43Z</time>
      </trkpt>
      <trkpt lat="49.64223" lon="5.96277">
        <ele>330.3</ele>
        <time>2020-06-26T08:56:44Z</time>
      </trkpt>
      <trkpt lat="49.64223" lon="5.96285">
        <ele>330.3</ele>
        <time>2020-06-26T08:56:45Z</time>
      </trkpt>
      <trkpt lat="49.64224" lon="5.96292">
        <ele>330.2</ele>
        <time>2020-06-26T08:56:46Z</time>
      </trkpt>
      <trkpt lat="49.64224" lon="5.963">
        <ele>330.2</ele>
        <time>2020-06-26T08:56:47Z</time>
      </trkpt>
      <trkpt lat="49.64224" lon="5.96307">
        <ele>330.1</ele>
        <time>2020-06-26T08:56:48Z</time>
      </trkpt>
      <trkpt lat="49.64225" lon="5.96315">
        <ele>330</ele>
        <time>2020-06-26T08:56:49Z</time>
      </trkpt>
      <trkpt lat="49.64225" lon="5.96322">
        <ele>330</ele>
        <time>2020-06-26T08:56:50Z</time>
      </trkpt>
      <trkpt lat="49.64226" lon="5.96329">
        <ele>329.9</ele>
        <time>2020-06-26T08:56:51Z</time>
      </trkpt>
      <trkpt lat="49.64226" lon="5.96336">
        <ele>329.9</ele>
        <time>2020-06-26T08:56:52Z</time>
      </trkpt>
      <trkpt lat="49.64227" lon="5.96343">
        <ele>329.9</ele>
        <time>2020-06-26T08:56:53Z</time>
      </trkpt>
      <trkpt lat="49.64228" lon="5.9635">
        <ele>329.8</ele>
        <time>2020-06-26T08:56:54Z</time>
      </trkpt>
      <trkpt lat="49.64228" lon="5.96357">
        <ele>329.7</ele>
        <time>2020-06-26T08:56:55Z</time>
      </trkpt>
      <trkpt lat="49.64229" lon="5.96365">
        <ele>329.7</ele>
        <time>2020-06-26T08:56:56Z</time>
      </trkpt>
      <trkpt lat="49.6423" lon="5.96372">
        <ele>329.6</ele>
        <time>2020-06-26T08:56:57Z</time>
      </trkpt>
      <trkpt lat="49.6423" lon="5.9638">
        <ele>329.5</ele>
        <time>2020-06-26T08:56:58Z</time>
      </trkpt>
      <trkpt lat="49.64231" lon="5.96388">
        <ele>329.4</ele>
        <time>2020-06-26T08:56:59Z</time>
      </trkpt>
      <trkpt lat="49.64232" lon="5.96396">
        <ele>329.3</ele>
        <time>2020-06-26T08:57:00Z</time>
      </trkpt>
      <trkpt lat="49.64232" lon="5.96404">
        <ele>329.2</ele>
        <time>2020-06-26T08:57:01Z</time>
      </trkpt>
      <trkpt lat="49.64232" lon="5.96411">
        <ele>329.1</ele>
        <time>2020-06-26T08:57:02Z</time>
      </trkpt>
      <trkpt lat="49.64232" lon="5.9642">
        <ele>329</ele>
        <time>2020-06-26T08:57:03Z</time>
      </trkpt>
      <trkpt lat="49.64233" lon="5.96428">
        <ele>328.9</ele>
        <time>2020-06-26T08:57:04Z</time>
      </trkpt>
      <trkpt lat="49.64234" lon="5.96436">
        <ele>328.8</ele>
        <time>2020-06-26T08:57:05Z</time>
      </trkpt>
      <trkpt lat="49.64235" lon="5.96444">
        <ele>328.6</ele>
        <time>2020-06-26T08:57:06Z</time>
      </trkpt>
      <trkpt lat="49.64235" lon="5.96452">
        <ele>328.5</ele>
        <time>2020-06-26T08:57:07Z</time>
      </trkpt>
      <trkpt lat="49.64236" lon="5.96461">
        <ele>328.4</ele>
        <time>2020-06-26T08:57:08Z</time>
      </trkpt>
      <trkpt lat="49.64236" lon="5.96469">
        <ele>328.2</ele>
        <time>2020-06-26T08:57:09Z</time>
      </trkpt>
      <trkpt lat="49.64237" lon="5.96477">
        <ele>328.1</ele>
        <time>2020-06-26T08:57:10Z</time>
      </trkpt>
      <trkpt lat="49.64238" lon="5.96485">
        <ele>328</ele>
        <time>2020-06-26T08:57:11Z</time>
      </trkpt>
      <trkpt lat="49.64238" lon="5.96493">
        <ele>327.9</ele>
        <time>2020-06-26T08:57:12Z</time>
      </trkpt>
      <trkpt lat="49.64239" lon="5.96501">
        <ele>327.8</ele>
        <time>2020-06-26T08:57:13Z</time>
      </trkpt>
      <trkpt lat="49.6424" lon="5.96509">
        <ele>327.7</ele>
        <time>2020-06-26T08:57:14Z</time>
      </trkpt>
      <trkpt lat="49.64241" lon="5.96517">
        <ele>327.6</ele>
        <time>2020-06-26T08:57:15Z</time>
      </trkpt>
      <trkpt lat="49.64241" lon="5.96525">
        <ele>327.6</ele>
        <time>2020-06-26T08:57:16Z</time>
      </trkpt>
      <trkpt lat="49.64242" lon="5.96533">
        <ele>327.5</ele>
        <time>2020-06-26T08:57:17Z</time>
      </trkpt>
      <trkpt lat="49.64243" lon="5.9654">
        <ele>327.5</ele>
        <time>2020-06-26T08:57:18Z</time>
      </trkpt>
      <trkpt lat="49.64243" lon="5.96548">
        <ele>327.4</ele>
        <time>2020-06-26T08:57:19Z</time>
      </trkpt>
      <trkpt lat="49.64244" lon="5.96556">
        <ele>327.3</ele>
        <time>2020-06-26T08:57:20Z</time>
      </trkpt>
      <trkpt lat="49.64244" lon="5.96563">
        <ele>327.1</ele>
        <time>2020-06-26T08:57:21Z</time>
      </trkpt>
      <trkpt lat="49.64244" lon="5.96571">
        <ele>327</ele>
        <time>2020-06-26T08:57:22Z</time>
      </trkpt>
      <trkpt lat="49.64245" lon="5.96579">
        <ele>326.8</ele>
        <time>2020-06-26T08:57:23Z</time>
      </trkpt>
      <trkpt lat="49.64246" lon="5.96587">
        <ele>326.7</ele>
        <time>2020-06-26T08:57:24Z</time>
      </trkpt>
      <trkpt lat="49.64246" lon="5.96595">
        <ele>326.5</ele>
        <time>2020-06-26T08:57:25Z</time>
      </trkpt>
      <trkpt lat="49.64247" lon="5.96603">
        <ele>326.4</ele>
        <time>2020-06-26T08:57:26Z</time>
      </trkpt>
      <trkpt lat="49.64248" lon="5.96612">
        <ele>326.3</ele>
        <time>2020-06-26T08:57:27Z</time>
      </trkpt>
      <trkpt lat="49.64249" lon="5.9662">
        <ele>326.2</ele>
        <time>2020-06-26T08:57:28Z</time>
      </trkpt>
      <trkpt lat="49.6425" lon="5.96628">
        <ele>326.1</ele>
        <time>2020-06-26T08:57:29Z</time>
      </trkpt>
      <trkpt lat="49.64251" lon="5.96636">
        <ele>326</ele>
        <time>2020-06-26T08:57:30Z</time>
      </trkpt>
      <trkpt lat="49.64251" lon="5.96645">
        <ele>325.9</ele>
        <time>2020-06-26T08:57:31Z</time>
      </trkpt>
      <trkpt lat="49.64252" lon="5.96654">
        <ele>325.7</ele>
        <time>2020-06-26T08:57:32Z</time>
      </trkpt>
      <trkpt lat="49.64253" lon="5.96662">
        <ele>325.6</ele>
        <time>2020-06-26T08:57:33Z</time>
      </trkpt>
      <trkpt lat="49.64254" lon="5.9667">
        <ele>325.5</ele>
        <time>2020-06-26T08:57:34Z</time>
      </trkpt>
      <trkpt lat="49.64255" lon="5.96679">
        <ele>325.4</ele>
        <time>2020-06-26T08:57:35Z</time>
      </trkpt>
      <trkpt lat="49.64255" lon="5.96688">
        <ele>325.3</ele>
        <time>2020-06-26T08:57:36Z</time>
      </trkpt>
      <trkpt lat="49.64255" lon="5.96696">
        <ele>325.2</ele>
        <time>2020-06-26T08:57:37Z</time>
      </trkpt>
      <trkpt lat="49.64256" lon="5.96705">
        <ele>325.1</ele>
        <time>2020-06-26T08:57:38Z</time>
      </trkpt>
      <trkpt lat="49.64256" lon="5.96714">
        <ele>325</ele>
        <time>2020-06-26T08:57:39Z</time>
      </trkpt>
      <trkpt lat="49.64257" lon="5.96723">
        <ele>324.9</ele>
        <time>2020-06-26T08:57:40Z</time>
      </trkpt>
      <trkpt lat="49.64257" lon="5.96732">
        <ele>324.8</ele>
        <time>2020-06-26T08:57:41Z</time>
      </trkpt>
      <trkpt lat="49.64258" lon="5.9674">
        <ele>324.7</ele>
        <time>2020-06-26T08:57:42Z</time>
      </trkpt>
      <trkpt lat="49.64258" lon="5.96749">
        <ele>324.6</ele>
        <time>2020-06-26T08:57:43Z</time>
      </trkpt>
      <trkpt lat="49.64259" lon="5.96757">
        <ele>324.4</ele>
        <time>2020-06-26T08:57:44Z</time>
      </trkpt>
      <trkpt lat="49.64259" lon="5.96765">
        <ele>324.3</ele>
        <time>2020-06-26T08:57:45Z</time>
      </trkpt>
      <trkpt lat="49.64259" lon="5.96773">
        <ele>324.2</ele>
        <time>2020-06-26T08:57:46Z</time>
      </trkpt>
      <trkpt lat="49.6426" lon="5.96781">
        <ele>324.2</ele>
        <time>2020-06-26T08:57:47Z</time>
      </trkpt>
      <trkpt lat="49.64261" lon="5.96789">
        <ele>324.1</ele>
        <time>2020-06-26T08:57:48Z</time>
      </trkpt>
      <trkpt lat="49.64261" lon="5.96797">
        <ele>324</ele>
        <time>2020-06-26T08:57:49Z</time>
      </trkpt>
      <trkpt lat="49.64262" lon="5.96804">
        <ele>324</ele>
        <time>2020-06-26T08:57:50Z</time>
      </trkpt>
      <trkpt lat="49.64262" lon="5.96812">
        <ele>323.9</ele>
        <time>2020-06-26T08:57:51Z</time>
      </trkpt>
      <trkpt lat="49.64263" lon="5.96819">
        <ele>323.8</ele>
        <time>2020-06-26T08:57:52Z</time>
      </trkpt>
      <trkpt lat="49.64264" lon="5.96827">
        <ele>323.8</ele>
        <time>2020-06-26T08:57:53Z</time>
      </trkpt>
      <trkpt lat="49.64264" lon="5.96835">
        <ele>323.7</ele>
        <time>2020-06-26T08:57:54Z</time>
      </trkpt>
      <trkpt lat="49.64264" lon="5.96843">
        <ele>323.7</ele>
        <time>2020-06-26T08:57:55Z</time>
      </trkpt>
      <trkpt lat="49.64265" lon="5.96851">
        <ele>323.6</ele>
        <time>2020-06-26T08:57:56Z</time>
      </trkpt>
      <trkpt lat="49.64265" lon="5.96859">
        <ele>323.6</ele>
        <time>2020-06-26T08:57:57Z</time>
      </trkpt>
      <trkpt lat="49.64265" lon="5.96867">
        <ele>323.5</ele>
        <time>2020-06-26T08:57:58Z</time>
      </trkpt>
      <trkpt lat="49.64265" lon="5.96876">
        <ele>323.4</ele>
        <time>2020-06-26T08:57:59Z</time>
      </trkpt>
      <trkpt lat="49.64266" lon="5.96884">
        <ele>323.4</ele>
        <time>2020-06-26T08:58:00Z</time>
      </trkpt>
      <trkpt lat="49.64266" lon="5.96893">
        <ele>323.3</ele>
        <time>2020-06-26T08:58:01Z</time>
      </trkpt>
      <trkpt lat="49.64267" lon="5.96901">
        <ele>323.2</ele>
        <time>2020-06-26T08:58:02Z</time>
      </trkpt>
      <trkpt lat="49.64268" lon="5.9691">
        <ele>323.2</ele>
        <time>2020-06-26T08:58:03Z</time>
      </trkpt>
      <trkpt lat="49.64268" lon="5.96919">
        <ele>323.1</ele>
        <time>2020-06-26T08:58:04Z</time>
      </trkpt>
      <trkpt lat="49.64269" lon="5.96928">
        <ele>323</ele>
        <time>2020-06-26T08:58:05Z</time>
      </trkpt>
      <trkpt lat="49.64269" lon="5.96936">
        <ele>322.9</ele>
        <time>2020-06-26T08:58:06Z</time>
      </trkpt>
      <trkpt lat="49.6427" lon="5.96944">
        <ele>322.8</ele>
        <time>2020-06-26T08:58:07Z</time>
      </trkpt>
      <trkpt lat="49.6427" lon="5.96952">
        <ele>322.8</ele>
        <time>2020-06-26T08:58:08Z</time>
      </trkpt>
      <trkpt lat="49.6427" lon="5.9696">
        <ele>322.7</ele>
        <time>2020-06-26T08:58:09Z</time>
      </trkpt>
      <trkpt lat="49.64271" lon="5.96968">
        <ele>322.6</ele>
        <time>2020-06-26T08:58:10Z</time>
      </trkpt>
      <trkpt lat="49.64271" lon="5.96976">
        <ele>322.5</ele>
        <time>2020-06-26T08:58:11Z</time>
      </trkpt>
      <trkpt lat="49.64272" lon="5.96985">
        <ele>322.4</ele>
        <time>2020-06-26T08:58:12Z</time>
      </trkpt>
      <trkpt lat="49.64273" lon="5.96993">
        <ele>322.3</ele>
        <time>2020-06-26T08:58:13Z</time>
      </trkpt>
      <trkpt lat="49.64274" lon="5.97002">
        <ele>322.1</ele>
        <time>2020-06-26T08:58:14Z</time>
      </trkpt>
      <trkpt lat="49.64275" lon="5.97011">
        <ele>321.8</ele>
        <time>2020-06-26T08:58:15Z</time>
      </trkpt>
      <trkpt lat="49.64275" lon="5.9702">
        <ele>321.6</ele>
        <time>2020-06-26T08:58:16Z</time>
      </trkpt>
      <trkpt lat="49.64276" lon="5.97029">
        <ele>321.3</ele>
        <time>2020-06-26T08:58:17Z</time>
      </trkpt>
      <trkpt lat="49.64277" lon="5.97038">
        <ele>321.1</ele>
        <time>2020-06-26T08:58:18Z</time>
      </trkpt>
      <trkpt lat="49.64277" lon="5.97047">
        <ele>320.8</ele>
        <time>2020-06-26T08:58:19Z</time>
      </trkpt>
      <trkpt lat="49.64278" lon="5.97056">
        <ele>320.5</ele>
        <time>2020-06-26T08:58:20Z</time>
      </trkpt>
      <trkpt lat="49.6428" lon="5.97065">
        <ele>320.2</ele>
        <time>2020-06-26T08:58:21Z</time>
      </trkpt>
      <trkpt lat="49.64281" lon="5.97075">
        <ele>319.8</ele>
        <time>2020-06-26T08:58:22Z</time>
      </trkpt>
      <trkpt lat="49.64283" lon="5.97084">
        <ele>319.5</ele>
        <time>2020-06-26T08:58:23Z</time>
      </trkpt>
      <trkpt lat="49.64285" lon="5.97094">
        <ele>319.1</ele>
        <time>2020-06-26T08:58:24Z</time>
      </trkpt>
      <trkpt lat="49.64286" lon="5.97104">
        <ele>318.6</ele>
        <time>2020-06-26T08:58:25Z</time>
      </trkpt>
      <trkpt lat="49.64288" lon="5.97116">
        <ele>317.9</ele>
        <time>2020-06-26T08:58:26Z</time>
      </trkpt>
      <trkpt lat="49.6429" lon="5.97128">
        <ele>317.4</ele>
        <time>2020-06-26T08:58:27Z</time>
      </trkpt>
      <trkpt lat="49.64292" lon="5.9714">
        <ele>317</ele>
        <time>2020-06-26T08:58:28Z</time>
      </trkpt>
      <trkpt lat="49.64294" lon="5.97153">
        <ele>316.5</ele>
        <time>2020-06-26T08:58:29Z</time>
      </trkpt>
      <trkpt lat="49.64296" lon="5.97166">
        <ele>316</ele>
        <time>2020-06-26T08:58:30Z</time>
      </trkpt>
      <trkpt lat="49.64299" lon="5.9718">
        <ele>315.5</ele>
        <time>2020-06-26T08:58:31Z</time>
      </trkpt>
      <trkpt lat="49.64301" lon="5.97192">
        <ele>315</ele>
        <time>2020-06-26T08:58:32Z</time>
      </trkpt>
      <trkpt lat="49.64303" lon="5.97206">
        <ele>314.5</ele>
        <time>2020-06-26T08:58:33Z</time>
      </trkpt>
      <trkpt lat="49.64306" lon="5.97219">
        <ele>314</ele>
        <time>2020-06-26T08:58:34Z</time>
      </trkpt>
      <trkpt lat="49.64308" lon="5.97232">
        <ele>313.5</ele>
        <time>2020-06-26T08:58:35Z</time>
      </trkpt>
      <trkpt lat="49.64309" lon="5.97246">
        <ele>313.1</ele>
        <time>2020-06-26T08:58:36Z</time>
      </trkpt>
      <trkpt lat="49.64311" lon="5.9726">
        <ele>312.6</ele>
        <time>2020-06-26T08:58:37Z</time>
      </trkpt>
      <trkpt lat="49.64313" lon="5.97273">
        <ele>312.3</ele>
        <time>2020-06-26T08:58:38Z</time>
      </trkpt>
      <trkpt lat="49.64316" lon="5.97287">
        <ele>312</ele>
        <time>2020-06-26T08:58:39Z</time>
      </trkpt>
      <trkpt lat="49.64318" lon="5.97301">
        <ele>311.7</ele>
        <time>2020-06-26T08:58:40Z</time>
      </trkpt>
      <trkpt lat="49.6432" lon="5.97314">
        <ele>311.5</ele>
        <time>2020-06-26T08:58:41Z</time>
      </trkpt>
      <trkpt lat="49.64323" lon="5.97328">
        <ele>311.3</ele>
        <time>2020-06-26T08:58:42Z</time>
      </trkpt>
      <trkpt lat="49.64325" lon="5.9734">
        <ele>311.1</ele>
        <time>2020-06-26T08:58:43Z</time>
      </trkpt>
      <trkpt lat="49.64327" lon="5.97352">
        <ele>311</ele>
        <time>2020-06-26T08:58:44Z</time>
      </trkpt>
      <trkpt lat="49.64329" lon="5.97364">
        <ele>311</ele>
        <time>2020-06-26T08:58:45Z</time>
      </trkpt>
      <trkpt lat="49.64331" lon="5.97376">
        <ele>311</ele>
        <time>2020-06-26T08:58:46Z</time>
      </trkpt>
      <trkpt lat="49.64333" lon="5.97387">
        <ele>311</ele>
        <time>2020-06-26T08:58:47Z</time>
      </trkpt>
      <trkpt lat="49.64335" lon="5.97398">
        <ele>311</ele>
        <time>2020-06-26T08:58:48Z</time>
      </trkpt>
      <trkpt lat="49.64337" lon="5.97409">
        <ele>311</ele>
        <time>2020-06-26T08:58:49Z</time>
      </trkpt>
      <trkpt lat="49.64339" lon="5.97419">
        <ele>311</ele>
        <time>2020-06-26T08:58:50Z</time>
      </trkpt>
      <trkpt lat="49.6434" lon="5.9743">
        <ele>311</ele>
        <time>2020-06-26T08:58:51Z</time>
      </trkpt>
      <trkpt lat="49.64343" lon="5.97439">
        <ele>311</ele>
        <time>2020-06-26T08:58:52Z</time>
      </trkpt>
      <trkpt lat="49.64344" lon="5.97449">
        <ele>311.1</ele>
        <time>2020-06-26T08:58:53Z</time>
      </trkpt>
      <trkpt lat="49.64346" lon="5.97459">
        <ele>311.1</ele>
        <time>2020-06-26T08:58:54Z</time>
      </trkpt>
      <trkpt lat="49.64347" lon="5.97469">
        <ele>311.1</ele>
        <time>2020-06-26T08:58:55Z</time>
      </trkpt>
      <trkpt lat="49.64348" lon="5.97478">
        <ele>311.2</ele>
        <time>2020-06-26T08:58:56Z</time>
      </trkpt>
      <trkpt lat="49.64349" lon="5.97488">
        <ele>311.2</ele>
        <time>2020-06-26T08:58:57Z</time>
      </trkpt>
      <trkpt lat="49.6435" lon="5.97498">
        <ele>311.2</ele>
        <time>2020-06-26T08:58:58Z</time>
      </trkpt>
      <trkpt lat="49.64351" lon="5.97507">
        <ele>311.3</ele>
        <time>2020-06-26T08:58:59Z</time>
      </trkpt>
      <trkpt lat="49.64352" lon="5.97516">
        <ele>311.3</ele>
        <time>2020-06-26T08:59:00Z</time>
      </trkpt>
      <trkpt lat="49.64353" lon="5.97525">
        <ele>311.4</ele>
        <time>2020-06-26T08:59:01Z</time>
      </trkpt>
      <trkpt lat="49.64354" lon="5.97533">
        <ele>311.4</ele>
        <time>2020-06-26T08:59:02Z</time>
      </trkpt>
      <trkpt lat="49.64354" lon="5.97542">
        <ele>311.5</ele>
        <time>2020-06-26T08:59:03Z</time>
      </trkpt>
      <trkpt lat="49.64355" lon="5.9755">
        <ele>311.6</ele>
        <time>2020-06-26T08:59:04Z</time>
      </trkpt>
      <trkpt lat="49.64356" lon="5.97558">
        <ele>311.7</ele>
        <time>2020-06-26T08:59:05Z</time>
      </trkpt>
      <trkpt lat="49.64356" lon="5.97565">
        <ele>311.7</ele>
        <time>2020-06-26T08:59:06Z</time>
      </trkpt>
      <trkpt lat="49.64357" lon="5.97573">
        <ele>311.8</ele>
        <time>2020-06-26T08:59:07Z</time>
      </trkpt>
      <trkpt lat="49.64358" lon="5.9758">
        <ele>311.9</ele>
        <time>2020-06-26T08:59:08Z</time>
      </trkpt>
      <trkpt lat="49.64359" lon="5.97588">
        <ele>312</ele>
        <time>2020-06-26T08:59:09Z</time>
      </trkpt>
      <trkpt lat="49.64359" lon="5.97595">
        <ele>312.1</ele>
        <time>2020-06-26T08:59:10Z</time>
      </trkpt>
      <trkpt lat="49.6436" lon="5.97602">
        <ele>312.3</ele>
        <time>2020-06-26T08:59:11Z</time>
      </trkpt>
      <trkpt lat="49.64361" lon="5.97609">
        <ele>312.4</ele>
        <time>2020-06-26T08:59:12Z</time>
      </trkpt>
      <trkpt lat="49.64362" lon="5.97615">
        <ele>312.5</ele>
        <time>2020-06-26T08:59:13Z</time>
      </trkpt>
      <trkpt lat="49.64362" lon="5.97622">
        <ele>312.6</ele>
        <time>2020-06-26T08:59:14Z</time>
      </trkpt>
      <trkpt lat="49.64363" lon="5.97629">
        <ele>312.7</ele>
        <time>2020-06-26T08:59:15Z</time>
      </trkpt>
      <trkpt lat="49.64363" lon="5.97636">
        <ele>312.8</ele>
        <time>2020-06-26T08:59:16Z</time>
      </trkpt>
      <trkpt lat="49.64364" lon="5.97642">
        <ele>312.9</ele>
        <time>2020-06-26T08:59:17Z</time>
      </trkpt>
      <trkpt lat="49.64364" lon="5.97649">
        <ele>312.9</ele>
        <time>2020-06-26T08:59:18Z</time>
      </trkpt>
      <trkpt lat="49.64365" lon="5.97656">
        <ele>313</ele>
        <time>2020-06-26T08:59:19Z</time>
      </trkpt>
      <trkpt lat="49.64365" lon="5.97664">
        <ele>313.1</ele>
        <time>2020-06-26T08:59:20Z</time>
      </trkpt>
      <trkpt lat="49.64366" lon="5.97671">
        <ele>313.2</ele>
        <time>2020-06-26T08:59:21Z</time>
      </trkpt>
      <trkpt lat="49.64366" lon="5.97678">
        <ele>313.3</ele>
        <time>2020-06-26T08:59:22Z</time>
      </trkpt>
      <trkpt lat="49.64366" lon="5.97685">
        <ele>313.4</ele>
        <time>2020-06-26T08:59:23Z</time>
      </trkpt>
      <trkpt lat="49.64367" lon="5.97692">
        <ele>313.5</ele>
        <time>2020-06-26T08:59:24Z</time>
      </trkpt>
      <trkpt lat="49.64367" lon="5.97699">
        <ele>313.6</ele>
        <time>2020-06-26T08:59:25Z</time>
      </trkpt>
      <trkpt lat="49.64368" lon="5.97707">
        <ele>313.7</ele>
        <time>2020-06-26T08:59:26Z</time>
      </trkpt>
      <trkpt lat="49.64369" lon="5.97714">
        <ele>313.8</ele>
        <time>2020-06-26T08:59:27Z</time>
      </trkpt>
      <trkpt lat="49.6437" lon="5.97721">
        <ele>313.9</ele>
        <time>2020-06-26T08:59:28Z</time>
      </trkpt>
      <trkpt lat="49.6437" lon="5.97728">
        <ele>314</ele>
        <time>2020-06-26T08:59:29Z</time>
      </trkpt>
      <trkpt lat="49.6437" lon="5.97735">
        <ele>314.1</ele>
        <time>2020-06-26T08:59:30Z</time>
      </trkpt>
      <trkpt lat="49.64371" lon="5.97741">
        <ele>314.3</ele>
        <time>2020-06-26T08:59:31Z</time>
      </trkpt>
      <trkpt lat="49.64372" lon="5.97748">
        <ele>314.4</ele>
        <time>2020-06-26T08:59:32Z</time>
      </trkpt>
      <trkpt lat="49.64372" lon="5.97754">
        <ele>314.5</ele>
        <time>2020-06-26T08:59:33Z</time>
      </trkpt>
      <trkpt lat="49.64373" lon="5.97761">
        <ele>314.6</ele>
        <time>2020-06-26T08:59:34Z</time>
      </trkpt>
      <trkpt lat="49.64373" lon="5.97767">
        <ele>314.7</ele>
        <time>2020-06-26T08:59:35Z</time>
      </trkpt>
      <trkpt lat="49.64374" lon="5.97775">
        <ele>314.9</ele>
        <time>2020-06-26T08:59:36Z</time>
      </trkpt>
      <trkpt lat="49.64374" lon="5.97782">
        <ele>315</ele>
        <time>2020-06-26T08:59:37Z</time>
      </trkpt>
      <trkpt lat="49.64375" lon="5.97788">
        <ele>315.2</ele>
        <time>2020-06-26T08:59:38Z</time>
      </trkpt>
      <trkpt lat="49.64375" lon="5.97795">
        <ele>315.4</ele>
        <time>2020-06-26T08:59:39Z</time>
      </trkpt>
      <trkpt lat="49.64376" lon="5.97803">
        <ele>315.6</ele>
        <time>2020-06-26T08:59:40Z</time>
      </trkpt>
      <trkpt lat="49.64376" lon="5.9781">
        <ele>315.8</ele>
        <time>2020-06-26T08:59:41Z</time>
      </trkpt>
      <trkpt lat="49.64377" lon="5.97817">
        <ele>316</ele>
        <time>2020-06-26T08:59:42Z</time>
      </trkpt>
      <trkpt lat="49.64377" lon="5.97823">
        <ele>316.2</ele>
        <time>2020-06-26T08:59:43Z</time>
      </trkpt>
      <trkpt lat="49.64378" lon="5.97828">
        <ele>316.4</ele>
        <time>2020-06-26T08:59:44Z</time>
      </trkpt>
      <trkpt lat="49.64378" lon="5.97834">
        <ele>316.5</ele>
        <time>2020-06-26T08:59:45Z</time>
      </trkpt>
      <trkpt lat="49.64379" lon="5.97839">
        <ele>316.7</ele>
        <time>2020-06-26T08:59:46Z</time>
      </trkpt>
      <trkpt lat="49.6438" lon="5.97845">
        <ele>316.9</ele>
        <time>2020-06-26T08:59:47Z</time>
      </trkpt>
      <trkpt lat="49.64381" lon="5.97852">
        <ele>317.2</ele>
        <time>2020-06-26T08:59:48Z</time>
      </trkpt>
      <trkpt lat="49.64381" lon="5.97857">
        <ele>317.3</ele>
        <time>2020-06-26T08:59:49Z</time>
      </trkpt>
      <trkpt lat="49.64382" lon="5.97862">
        <ele>317.5</ele>
        <time>2020-06-26T08:59:50Z</time>
      </trkpt>
      <trkpt lat="49.64382" lon="5.97868">
        <ele>317.7</ele>
        <time>2020-06-26T08:59:51Z</time>
      </trkpt>
      <trkpt lat="49.64383" lon="5.97874">
        <ele>317.9</ele>
        <time>2020-06-26T08:59:52Z</time>
      </trkpt>
      <trkpt lat="49.64383" lon="5.9788">
        <ele>318.1</ele>
        <time>2020-06-26T08:59:53Z</time>
      </trkpt>
      <trkpt lat="49.64383" lon="5.97886">
        <ele>318.3</ele>
        <time>2020-06-26T08:59:54Z</time>
      </trkpt>
      <trkpt lat="49.64384" lon="5.97892">
        <ele>318.6</ele>
        <time>2020-06-26T08:59:55Z</time>
      </trkpt>
      <trkpt lat="49.64384" lon="5.97899">
        <ele>318.8</ele>
        <time>2020-06-26T08:59:56Z</time>
      </trkpt>
      <trkpt lat="49.64385" lon="5.97905">
        <ele>319.1</ele>
        <time>2020-06-26T08:59:57Z</time>
      </trkpt>
      <trkpt lat="49.64385" lon="5.97911">
        <ele>319.3</ele>
        <time>2020-06-26T08:59:58Z</time>
      </trkpt>
      <trkpt lat="49.64385" lon="5.97916">
        <ele>319.5</ele>
        <time>2020-06-26T08:59:59Z</time>
      </trkpt>
      <trkpt lat="49.64385" lon="5.97918">
        <ele>319.5</ele>
        <time>2020-06-26T09:00:00Z</time>
      </trkpt>
      <trkpt lat="49.64386" lon="5.97924">
        <ele>319.7</ele>
        <time>2020-06-26T09:00:01Z</time>
      </trkpt>
      <trkpt lat="49.64386" lon="5.97926">
        <ele>319.8</ele>
        <time>2020-06-26T09:00:02Z</time>
      </trkpt>
      <trkpt lat="49.64386" lon="5.97931">
        <ele>319.9</ele>
        <time>2020-06-26T09:00:03Z</time>
      </trkpt>
      <trkpt lat="49.64386" lon="5.97936">
        <ele>320.1</ele>
        <time>2020-06-26T09:00:04Z</time>
      </trkpt>
      <trkpt lat="49.64387" lon="5.97941">
        <ele>320.2</ele>
        <time>2020-06-26T09:00:05Z</time>
      </trkpt>
      <trkpt lat="49.64386" lon="5.97946">
        <ele>320.3</ele>
        <time>2020-06-26T09:00:06Z</time>
      </trkpt>
      <trkpt lat="49.64386" lon="5.97953">
        <ele>320.4</ele>
        <time>2020-06-26T09:00:07Z</time>
      </trkpt>
      <trkpt lat="49.64387" lon="5.97958">
        <ele>320.5</ele>
        <time>2020-06-26T09:00:08Z</time>
      </trkpt>
      <trkpt lat="49.64387" lon="5.97964">
        <ele>320.6</ele>
        <time>2020-06-26T09:00:09Z</time>
      </trkpt>
      <trkpt lat="49.64387" lon="5.97972">
        <ele>320.7</ele>
        <time>2020-06-26T09:00:10Z</time>
      </trkpt>
      <trkpt lat="49.64388" lon="5.97977">
        <ele>320.8</ele>
        <time>2020-06-26T09:00:11Z</time>
      </trkpt>
      <trkpt lat="49.64388" lon="5.97983">
        <ele>320.8</ele>
        <time>2020-06-26T09:00:12Z</time>
      </trkpt>
      <trkpt lat="49.64389" lon="5.97989">
        <ele>320.8</ele>
        <time>2020-06-26T09:00:13Z</time>
      </trkpt>
      <trkpt lat="49.6439" lon="5.97994">
        <ele>320.9</ele>
        <time>2020-06-26T09:00:14Z</time>
      </trkpt>
      <trkpt lat="49.6439" lon="5.98">
        <ele>320.9</ele>
        <time>2020-06-26T09:00:15Z</time>
      </trkpt>
      <trkpt lat="49.6439" lon="5.98007">
        <ele>321</ele>
        <time>2020-06-26T09:00:16Z</time>
      </trkpt>
      <trkpt lat="49.6439" lon="5.9801">
        <ele>321</ele>
        <time>2020-06-26T09:00:17Z</time>
      </trkpt>
      <trkpt lat="49.6439" lon="5.98015">
        <ele>321</ele>
        <time>2020-06-26T09:00:18Z</time>
      </trkpt>
      <trkpt lat="49.6439" lon="5.98021">
        <ele>321</ele>
        <time>2020-06-26T09:00:19Z</time>
      </trkpt>
      <trkpt lat="49.6439" lon="5.98028">
        <ele>321</ele>
        <time>2020-06-26T09:00:20Z</time>
      </trkpt>
      <trkpt lat="49.6439" lon="5.98035">
        <ele>321</ele>
        <time>2020-06-26T09:00:21Z</time>
      </trkpt>
      <trkpt lat="49.6439" lon="5.98043">
        <ele>321</ele>
        <time>2020-06-26T09:00:22Z</time>
      </trkpt>
      <trkpt lat="49.64391" lon="5.98049">
        <ele>321</ele>
        <time>2020-06-26T09:00:23Z</time>
      </trkpt>
      <trkpt lat="49.6439" lon="5.98056">
        <ele>321</ele>
        <time>2020-06-26T09:00:24Z</time>
      </trkpt>
      <trkpt lat="49.6439" lon="5.98063">
        <ele>320.9</ele>
        <time>2020-06-26T09:00:25Z</time>
      </trkpt>
      <trkpt lat="49.6439" lon="5.98071">
        <ele>320.9</ele>
        <time>2020-06-26T09:00:26Z</time>
      </trkpt>
      <trkpt lat="49.6439" lon="5.98079">
        <ele>320.9</ele>
        <time>2020-06-26T09:00:27Z</time>
      </trkpt>
      <trkpt lat="49.64389" lon="5.98086">
        <ele>320.8</ele>
        <time>2020-06-26T09:00:28Z</time>
      </trkpt>
      <trkpt lat="49.64388" lon="5.98094">
        <ele>320.8</ele>
        <time>2020-06-26T09:00:29Z</time>
      </trkpt>
      <trkpt lat="49.64387" lon="5.98101">
        <ele>320.7</ele>
        <time>2020-06-26T09:00:30Z</time>
      </trkpt>
      <trkpt lat="49.64387" lon="5.98108">
        <ele>320.7</ele>
        <time>2020-06-26T09:00:31Z</time>
      </trkpt>
      <trkpt lat="49.64387" lon="5.98115">
        <ele>320.7</ele>
        <time>2020-06-26T09:00:32Z</time>
      </trkpt>
      <trkpt lat="49.64386" lon="5.98122">
        <ele>320.6</ele>
        <time>2020-06-26T09:00:33Z</time>
      </trkpt>
      <trkpt lat="49.64386" lon="5.98129">
        <ele>320.6</ele>
        <time>2020-06-26T09:00:34Z</time>
      </trkpt>
      <trkpt lat="49.64385" lon="5.98137">
        <ele>320.6</ele>
        <time>2020-06-26T09:00:35Z</time>
      </trkpt>
      <trkpt lat="49.64385" lon="5.98143">
        <ele>320.7</ele>
        <time>2020-06-26T09:00:36Z</time>
      </trkpt>
      <trkpt lat="49.64384" lon="5.9815">
        <ele>320.7</ele>
        <time>2020-06-26T09:00:37Z</time>
      </trkpt>
      <trkpt lat="49.64383" lon="5.98158">
        <ele>320.7</ele>
        <time>2020-06-26T09:00:38Z</time>
      </trkpt>
      <trkpt lat="49.64383" lon="5.98166">
        <ele>320.7</ele>
        <time>2020-06-26T09:00:39Z</time>
      </trkpt>
      <trkpt lat="49.64383" lon="5.98173">
        <ele>320.7</ele>
        <time>2020-06-26T09:00:40Z</time>
      </trkpt>
      <trkpt lat="49.64382" lon="5.98181">
        <ele>320.6</ele>
        <time>2020-06-26T09:00:41Z</time>
      </trkpt>
      <trkpt lat="49.64382" lon="5.98189">
        <ele>320.5</ele>
        <time>2020-06-26T09:00:42Z</time>
      </trkpt>
      <trkpt lat="49.64382" lon="5.98197">
        <ele>320.4</ele>
        <time>2020-06-26T09:00:43Z</time>
      </trkpt>
      <trkpt lat="49.64381" lon="5.98205">
        <ele>320.4</ele>
        <time>2020-06-26T09:00:44Z</time>
      </trkpt>
      <trkpt lat="49.64381" lon="5.98212">
        <ele>320.3</ele>
        <time>2020-06-26T09:00:45Z</time>
      </trkpt>
      <trkpt lat="49.64381" lon="5.98221">
        <ele>320.2</ele>
        <time>2020-06-26T09:00:46Z</time>
      </trkpt>
      <trkpt lat="49.64381" lon="5.98229">
        <ele>320.1</ele>
        <time>2020-06-26T09:00:47Z</time>
      </trkpt>
      <trkpt lat="49.64381" lon="5.98236">
        <ele>320.1</ele>
        <time>2020-06-26T09:00:48Z</time>
      </trkpt>
      <trkpt lat="49.64381" lon="5.98244">
        <ele>320</ele>
        <time>2020-06-26T09:00:49Z</time>
      </trkpt>
      <trkpt lat="49.64381" lon="5.98253">
        <ele>319.9</ele>
        <time>2020-06-26T09:00:50Z</time>
      </trkpt>
      <trkpt lat="49.6438" lon="5.98261">
        <ele>319.8</ele>
        <time>2020-06-26T09:00:51Z</time>
      </trkpt>
      <trkpt lat="49.6438" lon="5.98269">
        <ele>319.7</ele>
        <time>2020-06-26T09:00:52Z</time>
      </trkpt>
      <trkpt lat="49.6438" lon="5.98277">
        <ele>319.7</ele>
        <time>2020-06-26T09:00:53Z</time>
      </trkpt>
      <trkpt lat="49.6438" lon="5.98284">
        <ele>319.6</ele>
        <time>2020-06-26T09:00:54Z</time>
      </trkpt>
      <trkpt lat="49.64379" lon="5.98293">
        <ele>319.5</ele>
        <time>2020-06-26T09:00:55Z</time>
      </trkpt>
      <trkpt lat="49.64378" lon="5.98301">
        <ele>319.4</ele>
        <time>2020-06-26T09:00:56Z</time>
      </trkpt>
      <trkpt lat="49.64378" lon="5.98308">
        <ele>319.4</ele>
        <time>2020-06-26T09:00:57Z</time>
      </trkpt>
      <trkpt lat="49.64378" lon="5.98316">
        <ele>319.3</ele>
        <time>2020-06-26T09:00:58Z</time>
      </trkpt>
      <trkpt lat="49.64378" lon="5.98323">
        <ele>319.3</ele>
        <time>2020-06-26T09:00:59Z</time>
      </trkpt>
      <trkpt lat="49.64378" lon="5.98331">
        <ele>319.2</ele>
        <time>2020-06-26T09:01:00Z</time>
      </trkpt>
      <trkpt lat="49.64377" lon="5.98339">
        <ele>319.1</ele>
        <time>2020-06-26T09:01:01Z</time>
      </trkpt>
      <trkpt lat="49.64377" lon="5.98348">
        <ele>319.1</ele>
        <time>2020-06-26T09:01:02Z</time>
      </trkpt>
      <trkpt lat="49.64377" lon="5.98356">
        <ele>319</ele>
        <time>2020-06-26T09:01:03Z</time>
      </trkpt>
      <trkpt lat="49.64377" lon="5.98364">
        <ele>319</ele>
        <time>2020-06-26T09:01:04Z</time>
      </trkpt>
      <trkpt lat="49.64377" lon="5.98372">
        <ele>318.9</ele>
        <time>2020-06-26T09:01:05Z</time>
      </trkpt>
      <trkpt lat="49.64378" lon="5.98379">
        <ele>318.9</ele>
        <time>2020-06-26T09:01:06Z</time>
      </trkpt>
      <trkpt lat="49.64378" lon="5.98386">
        <ele>318.9</ele>
        <time>2020-06-26T09:01:07Z</time>
      </trkpt>
      <trkpt lat="49.64378" lon="5.98393">
        <ele>318.9</ele>
        <time>2020-06-26T09:01:08Z</time>
      </trkpt>
      <trkpt lat="49.64378" lon="5.98399">
        <ele>318.9</ele>
        <time>2020-06-26T09:01:09Z</time>
      </trkpt>
      <trkpt lat="49.64377" lon="5.98404">
        <ele>318.9</ele>
        <time>2020-06-26T09:01:10Z</time>
      </trkpt>
      <trkpt lat="49.64377" lon="5.98408">
        <ele>318.9</ele>
        <time>2020-06-26T09:01:11Z</time>
      </trkpt>
      <trkpt lat="49.64377" lon="5.98413">
        <ele>318.9</ele>
        <time>2020-06-26T09:01:12Z</time>
      </trkpt>
      <trkpt lat="49.64376" lon="5.98418">
        <ele>318.9</ele>
        <time>2020-06-26T09:01:13Z</time>
      </trkpt>
      <trkpt lat="49.64376" lon="5.98425">
        <ele>318.8</ele>
        <time>2020-06-26T09:01:14Z</time>
      </trkpt>
      <trkpt lat="49.64376" lon="5.98431">
        <ele>318.8</ele>
        <time>2020-06-26T09:01:15Z</time>
      </trkpt>
      <trkpt lat="49.64376" lon="5.98437">
        <ele>318.7</ele>
        <time>2020-06-26T09:01:16Z</time>
      </trkpt>
      <trkpt lat="49.64376" lon="5.98444">
        <ele>318.7</ele>
        <time>2020-06-26T09:01:17Z</time>
      </trkpt>
      <trkpt lat="49.64377" lon="5.98451">
        <ele>318.6</ele>
        <time>2020-06-26T09:01:18Z</time>
      </trkpt>
      <trkpt lat="49.64378" lon="5.98457">
        <ele>318.5</ele>
        <time>2020-06-26T09:01:19Z</time>
      </trkpt>
      <trkpt lat="49.64378" lon="5.98463">
        <ele>318.5</ele>
        <time>2020-06-26T09:01:20Z</time>
      </trkpt>
      <trkpt lat="49.64378" lon="5.9847">
        <ele>318.3</ele>
        <time>2020-06-26T09:01:21Z</time>
      </trkpt>
      <trkpt lat="49.64378" lon="5.98478">
        <ele>318.2</ele>
        <time>2020-06-26T09:01:22Z</time>
      </trkpt>
      <trkpt lat="49.64378" lon="5.98487">
        <ele>318.1</ele>
        <time>2020-06-26T09:01:23Z</time>
      </trkpt>
      <trkpt lat="49.64378" lon="5.98494">
        <ele>318</ele>
        <time>2020-06-26T09:01:24Z</time>
      </trkpt>
      <trkpt lat="49.64378" lon="5.98503">
        <ele>317.8</ele>
        <time>2020-06-26T09:01:25Z</time>
      </trkpt>
      <trkpt lat="49.64378" lon="5.9851">
        <ele>317.7</ele>
        <time>2020-06-26T09:01:26Z</time>
      </trkpt>
      <trkpt lat="49.64378" lon="5.98518">
        <ele>317.6</ele>
        <time>2020-06-26T09:01:27Z</time>
      </trkpt>
      <trkpt lat="49.64378" lon="5.98527">
        <ele>317.4</ele>
        <time>2020-06-26T09:01:28Z</time>
      </trkpt>
      <trkpt lat="49.64377" lon="5.98535">
        <ele>317.3</ele>
        <time>2020-06-26T09:01:29Z</time>
      </trkpt>
      <trkpt lat="49.64377" lon="5.98544">
        <ele>317.2</ele>
        <time>2020-06-26T09:01:30Z</time>
      </trkpt>
      <trkpt lat="49.64377" lon="5.98554">
        <ele>317</ele>
        <time>2020-06-26T09:01:31Z</time>
      </trkpt>
      <trkpt lat="49.64377" lon="5.98563">
        <ele>316.9</ele>
        <time>2020-06-26T09:01:32Z</time>
      </trkpt>
      <trkpt lat="49.64377" lon="5.9857">
        <ele>316.8</ele>
        <time>2020-06-26T09:01:33Z</time>
      </trkpt>
      <trkpt lat="49.64377" lon="5.98578">
        <ele>316.7</ele>
        <time>2020-06-26T09:01:34Z</time>
      </trkpt>
      <trkpt lat="49.64377" lon="5.98587">
        <ele>316.6</ele>
        <time>2020-06-26T09:01:35Z</time>
      </trkpt>
      <trkpt lat="49.64377" lon="5.98595">
        <ele>316.4</ele>
        <time>2020-06-26T09:01:36Z</time>
      </trkpt>
      <trkpt lat="49.64377" lon="5.98605">
        <ele>316.2</ele>
        <time>2020-06-26T09:01:37Z</time>
      </trkpt>
      <trkpt lat="49.64377" lon="5.98614">
        <ele>316.1</ele>
        <time>2020-06-26T09:01:38Z</time>
      </trkpt>
      <trkpt lat="49.64377" lon="5.98622">
        <ele>316</ele>
        <time>2020-06-26T09:01:39Z</time>
      </trkpt>
      <trkpt lat="49.64377" lon="5.9863">
        <ele>315.8</ele>
        <time>2020-06-26T09:01:40Z</time>
      </trkpt>
      <trkpt lat="49.64376" lon="5.98638">
        <ele>315.7</ele>
        <time>2020-06-26T09:01:41Z</time>
      </trkpt>
      <trkpt lat="49.64376" lon="5.98644">
        <ele>315.6</ele>
        <time>2020-06-26T09:01:42Z</time>
      </trkpt>
      <trkpt lat="49.64376" lon="5.98652">
        <ele>315.5</ele>
        <time>2020-06-26T09:01:43Z</time>
      </trkpt>
      <trkpt lat="49.64376" lon="5.9866">
        <ele>315.4</ele>
        <time>2020-06-26T09:01:44Z</time>
      </trkpt>
      <trkpt lat="49.64377" lon="5.98669">
        <ele>315.3</ele>
        <time>2020-06-26T09:01:45Z</time>
      </trkpt>
      <trkpt lat="49.64377" lon="5.98678">
        <ele>315.2</ele>
        <time>2020-06-26T09:01:46Z</time>
      </trkpt>
      <trkpt lat="49.64377" lon="5.98688">
        <ele>315</ele>
        <time>2020-06-26T09:01:47Z</time>
      </trkpt>
      <trkpt lat="49.64377" lon="5.98697">
        <ele>314.9</ele>
        <time>2020-06-26T09:01:48Z</time>
      </trkpt>
      <trkpt lat="49.64377" lon="5.98706">
        <ele>314.8</ele>
        <time>2020-06-26T09:01:49Z</time>
      </trkpt>
      <trkpt lat="49.64377" lon="5.98716">
        <ele>314.6</ele>
        <time>2020-06-26T09:01:50Z</time>
      </trkpt>
      <trkpt lat="49.64377" lon="5.98724">
        <ele>314.5</ele>
        <time>2020-06-26T09:01:51Z</time>
      </trkpt>
      <trkpt lat="49.64378" lon="5.98735">
        <ele>314.3</ele>
        <time>2020-06-26T09:01:52Z</time>
      </trkpt>
      <trkpt lat="49.64379" lon="5.98746">
        <ele>314.2</ele>
        <time>2020-06-26T09:01:53Z</time>
      </trkpt>
      <trkpt lat="49.64379" lon="5.98755">
        <ele>314</ele>
        <time>2020-06-26T09:01:54Z</time>
      </trkpt>
      <trkpt lat="49.64379" lon="5.98766">
        <ele>313.9</ele>
        <time>2020-06-26T09:01:55Z</time>
      </trkpt>
      <trkpt lat="49.6438" lon="5.98777">
        <ele>313.7</ele>
        <time>2020-06-26T09:01:56Z</time>
      </trkpt>
      <trkpt lat="49.6438" lon="5.98787">
        <ele>313.6</ele>
        <time>2020-06-26T09:01:57Z</time>
      </trkpt>
      <trkpt lat="49.6438" lon="5.98797">
        <ele>313.5</ele>
        <time>2020-06-26T09:01:58Z</time>
      </trkpt>
      <trkpt lat="49.6438" lon="5.98807">
        <ele>313.3</ele>
        <time>2020-06-26T09:01:59Z</time>
      </trkpt>
      <trkpt lat="49.64381" lon="5.98817">
        <ele>313.2</ele>
        <time>2020-06-26T09:02:00Z</time>
      </trkpt>
      <trkpt lat="49.64381" lon="5.98826">
        <ele>313.2</ele>
        <time>2020-06-26T09:02:01Z</time>
      </trkpt>
      <trkpt lat="49.64381" lon="5.98835">
        <ele>313.2</ele>
        <time>2020-06-26T09:02:02Z</time>
      </trkpt>
      <trkpt lat="49.64381" lon="5.98845">
        <ele>313.1</ele>
        <time>2020-06-26T09:02:03Z</time>
      </trkpt>
      <trkpt lat="49.64381" lon="5.98854">
        <ele>313.1</ele>
        <time>2020-06-26T09:02:04Z</time>
      </trkpt>
      <trkpt lat="49.64381" lon="5.98863">
        <ele>313</ele>
        <time>2020-06-26T09:02:05Z</time>
      </trkpt>
      <trkpt lat="49.64381" lon="5.98871">
        <ele>313</ele>
        <time>2020-06-26T09:02:06Z</time>
      </trkpt>
      <trkpt lat="49.64381" lon="5.98879">
        <ele>313</ele>
        <time>2020-06-26T09:02:07Z</time>
      </trkpt>
      <trkpt lat="49.64381" lon="5.98887">
        <ele>312.9</ele>
        <time>2020-06-26T09:02:08Z</time>
      </trkpt>
      <trkpt lat="49.6438" lon="5.98895">
        <ele>312.9</ele>
        <time>2020-06-26T09:02:09Z</time>
      </trkpt>
      <trkpt lat="49.6438" lon="5.98905">
        <ele>312.9</ele>
        <time>2020-06-26T09:02:10Z</time>
      </trkpt>
      <trkpt lat="49.6438" lon="5.98913">
        <ele>312.8</ele>
        <time>2020-06-26T09:02:11Z</time>
      </trkpt>
      <trkpt lat="49.6438" lon="5.9892">
        <ele>312.8</ele>
        <time>2020-06-26T09:02:12Z</time>
      </trkpt>
      <trkpt lat="49.64379" lon="5.98929">
        <ele>312.7</ele>
        <time>2020-06-26T09:02:13Z</time>
      </trkpt>
      <trkpt lat="49.64379" lon="5.98937">
        <ele>312.7</ele>
        <time>2020-06-26T09:02:14Z</time>
      </trkpt>
      <trkpt lat="49.64379" lon="5.98944">
        <ele>312.6</ele>
        <time>2020-06-26T09:02:15Z</time>
      </trkpt>
      <trkpt lat="49.64379" lon="5.98957">
        <ele>312.6</ele>
        <time>2020-06-26T09:02:16Z</time>
      </trkpt>
      <trkpt lat="49.64379" lon="5.98966">
        <ele>312.6</ele>
        <time>2020-06-26T09:02:17Z</time>
      </trkpt>
      <trkpt lat="49.64379" lon="5.98972">
        <ele>312.6</ele>
        <time>2020-06-26T09:02:18Z</time>
      </trkpt>
      <trkpt lat="49.64379" lon="5.98981">
        <ele>312.6</ele>
        <time>2020-06-26T09:02:19Z</time>
      </trkpt>
      <trkpt lat="49.64379" lon="5.98988">
        <ele>312.6</ele>
        <time>2020-06-26T09:02:20Z</time>
      </trkpt>
      <trkpt lat="49.64378" lon="5.98996">
        <ele>312.6</ele>
        <time>2020-06-26T09:02:21Z</time>
      </trkpt>
      <trkpt lat="49.64379" lon="5.99004">
        <ele>312.7</ele>
        <time>2020-06-26T09:02:22Z</time>
      </trkpt>
      <trkpt lat="49.64379" lon="5.99011">
        <ele>312.7</ele>
        <time>2020-06-26T09:02:23Z</time>
      </trkpt>
      <trkpt lat="49.6438" lon="5.99019">
        <ele>312.7</ele>
        <time>2020-06-26T09:02:24Z</time>
      </trkpt>
      <trkpt lat="49.6438" lon="5.99026">
        <ele>312.7</ele>
        <time>2020-06-26T09:02:25Z</time>
      </trkpt>
      <trkpt lat="49.6438" lon="5.99036">
        <ele>312.7</ele>
        <time>2020-06-26T09:02:26Z</time>
      </trkpt>
      <trkpt lat="49.6438" lon="5.99043">
        <ele>312.8</ele>
        <time>2020-06-26T09:02:27Z</time>
      </trkpt>
      <trkpt lat="49.6438" lon="5.99049">
        <ele>312.8</ele>
        <time>2020-06-26T09:02:28Z</time>
      </trkpt>
      <trkpt lat="49.64379" lon="5.99056">
        <ele>312.8</ele>
        <time>2020-06-26T09:02:29Z</time>
      </trkpt>
      <trkpt lat="49.64379" lon="5.99063">
        <ele>312.9</ele>
        <time>2020-06-26T09:02:30Z</time>
      </trkpt>
      <trkpt lat="49.64379" lon="5.99069">
        <ele>312.9</ele>
        <time>2020-06-26T09:02:31Z</time>
      </trkpt>
      <trkpt lat="49.64378" lon="5.99076">
        <ele>312.9</ele>
        <time>2020-06-26T09:02:32Z</time>
      </trkpt>
      <trkpt lat="49.64379" lon="5.99082">
        <ele>313</ele>
        <time>2020-06-26T09:02:33Z</time>
      </trkpt>
      <trkpt lat="49.64378" lon="5.99089">
        <ele>313.2</ele>
        <time>2020-06-26T09:02:34Z</time>
      </trkpt>
      <trkpt lat="49.64378" lon="5.99096">
        <ele>313.3</ele>
        <time>2020-06-26T09:02:35Z</time>
      </trkpt>
      <trkpt lat="49.64378" lon="5.99101">
        <ele>313.3</ele>
        <time>2020-06-26T09:02:36Z</time>
      </trkpt>
      <trkpt lat="49.64378" lon="5.99105">
        <ele>313.3</ele>
        <time>2020-06-26T09:02:37Z</time>
      </trkpt>
      <trkpt lat="49.64378" lon="5.99107">
        <ele>313.3</ele>
        <time>2020-06-26T09:02:38Z</time>
      </trkpt>
      <trkpt lat="49.64379" lon="5.99112">
        <ele>313.3</ele>
        <time>2020-06-26T09:02:39Z</time>
      </trkpt>
      <trkpt lat="49.6438" lon="5.99114">
        <ele>313.3</ele>
        <time>2020-06-26T09:02:40Z</time>
      </trkpt>
      <trkpt lat="49.64381" lon="5.99118">
        <ele>313.3</ele>
        <time>2020-06-26T09:02:41Z</time>
      </trkpt>
      <trkpt lat="49.64381" lon="5.99119">
        <ele>313.3</ele>
        <time>2020-06-26T09:02:42Z</time>
      </trkpt>
      <trkpt lat="49.64382" lon="5.99118">
        <ele>313.3</ele>
        <time>2020-06-26T09:02:43Z</time>
      </trkpt>
      <trkpt lat="49.64382" lon="5.99118">
        <ele>313.3</ele>
        <time>2020-06-26T09:02:44Z</time>
      </trkpt>
      <trkpt lat="49.64383" lon="5.99115">
        <ele>313.3</ele>
        <time>2020-06-26T09:02:45Z</time>
      </trkpt>
      <trkpt lat="49.64383" lon="5.99109">
        <ele>313.3</ele>
        <time>2020-06-26T09:02:46Z</time>
      </trkpt>
      <trkpt lat="49.64383" lon="5.991">
        <ele>313.3</ele>
        <time>2020-06-26T09:02:47Z</time>
      </trkpt>
      <trkpt lat="49.64382" lon="5.99093">
        <ele>312.8</ele>
        <time>2020-06-26T09:02:48Z</time>
      </trkpt>
      <trkpt lat="49.64379" lon="5.99089">
        <ele>312.6</ele>
        <time>2020-06-26T09:02:49Z</time>
      </trkpt>
      <trkpt lat="49.64374" lon="5.99089">
        <ele>312.3</ele>
        <time>2020-06-26T09:02:50Z</time>
      </trkpt>
      <trkpt lat="49.64369" lon="5.99089">
        <ele>311.9</ele>
        <time>2020-06-26T09:02:51Z</time>
      </trkpt>
      <trkpt lat="49.64364" lon="5.9909">
        <ele>311.6</ele>
        <time>2020-06-26T09:02:52Z</time>
      </trkpt>
      <trkpt lat="49.64358" lon="5.99091">
        <ele>311.2</ele>
        <time>2020-06-26T09:02:53Z</time>
      </trkpt>
      <trkpt lat="49.64352" lon="5.99092">
        <ele>310.9</ele>
        <time>2020-06-26T09:02:54Z</time>
      </trkpt>
      <trkpt lat="49.64347" lon="5.99094">
        <ele>310.7</ele>
        <time>2020-06-26T09:02:55Z</time>
      </trkpt>
      <trkpt lat="49.6434" lon="5.99097">
        <ele>310.4</ele>
        <time>2020-06-26T09:02:56Z</time>
      </trkpt>
      <trkpt lat="49.64333" lon="5.99099">
        <ele>310.1</ele>
        <time>2020-06-26T09:02:57Z</time>
      </trkpt>
      <trkpt lat="49.64326" lon="5.991">
        <ele>309.8</ele>
        <time>2020-06-26T09:02:58Z</time>
      </trkpt>
      <trkpt lat="49.6432" lon="5.99102">
        <ele>309.6</ele>
        <time>2020-06-26T09:02:59Z</time>
      </trkpt>
      <trkpt lat="49.64314" lon="5.99104">
        <ele>309.4</ele>
        <time>2020-06-26T09:03:00Z</time>
      </trkpt>
      <trkpt lat="49.64308" lon="5.99106">
        <ele>309.2</ele>
        <time>2020-06-26T09:03:01Z</time>
      </trkpt>
      <trkpt lat="49.64301" lon="5.99109">
        <ele>309</ele>
        <time>2020-06-26T09:03:02Z</time>
      </trkpt>
      <trkpt lat="49.64295" lon="5.99112">
        <ele>308.7</ele>
        <time>2020-06-26T09:03:03Z</time>
      </trkpt>
      <trkpt lat="49.64289" lon="5.99115">
        <ele>308.5</ele>
        <time>2020-06-26T09:03:04Z</time>
      </trkpt>
      <trkpt lat="49.64283" lon="5.99117">
        <ele>308.3</ele>
        <time>2020-06-26T09:03:05Z</time>
      </trkpt>
      <trkpt lat="49.64277" lon="5.99119">
        <ele>308.1</ele>
        <time>2020-06-26T09:03:06Z</time>
      </trkpt>
      <trkpt lat="49.64271" lon="5.99123">
        <ele>307.9</ele>
        <time>2020-06-26T09:03:07Z</time>
      </trkpt>
      <trkpt lat="49.64266" lon="5.99127">
        <ele>307.6</ele>
        <time>2020-06-26T09:03:08Z</time>
      </trkpt>
      <trkpt lat="49.6426" lon="5.99133">
        <ele>307.2</ele>
        <time>2020-06-26T09:03:09Z</time>
      </trkpt>
      <trkpt lat="49.64255" lon="5.99139">
        <ele>306.9</ele>
        <time>2020-06-26T09:03:10Z</time>
      </trkpt>
      <trkpt lat="49.64251" lon="5.99147">
        <ele>306.7</ele>
        <time>2020-06-26T09:03:11Z</time>
      </trkpt>
      <trkpt lat="49.64248" lon="5.99155">
        <ele>306.4</ele>
        <time>2020-06-26T09:03:12Z</time>
      </trkpt>
      <trkpt lat="49.64245" lon="5.99165">
        <ele>306.2</ele>
        <time>2020-06-26T09:03:13Z</time>
      </trkpt>
      <trkpt lat="49.64243" lon="5.99175">
        <ele>305.9</ele>
        <time>2020-06-26T09:03:14Z</time>
      </trkpt>
      <trkpt lat="49.6424" lon="5.99184">
        <ele>305.7</ele>
        <time>2020-06-26T09:03:15Z</time>
      </trkpt>
      <trkpt lat="49.64237" lon="5.99193">
        <ele>305.4</ele>
        <time>2020-06-26T09:03:16Z</time>
      </trkpt>
      <trkpt lat="49.64234" lon="5.99202">
        <ele>305.2</ele>
        <time>2020-06-26T09:03:17Z</time>
      </trkpt>
      <trkpt lat="49.64231" lon="5.99211">
        <ele>305</ele>
        <time>2020-06-26T09:03:18Z</time>
      </trkpt>
      <trkpt lat="49.64228" lon="5.99219">
        <ele>304.8</ele>
        <time>2020-06-26T09:03:19Z</time>
      </trkpt>
      <trkpt lat="49.64224" lon="5.99227">
        <ele>304.6</ele>
        <time>2020-06-26T09:03:20Z</time>
      </trkpt>
      <trkpt lat="49.64219" lon="5.99233">
        <ele>304.5</ele>
        <time>2020-06-26T09:03:21Z</time>
      </trkpt>
      <trkpt lat="49.64213" lon="5.99237">
        <ele>304.2</ele>
        <time>2020-06-26T09:03:22Z</time>
      </trkpt>
      <trkpt lat="49.64207" lon="5.9924">
        <ele>303.9</ele>
        <time>2020-06-26T09:03:23Z</time>
      </trkpt>
      <trkpt lat="49.642" lon="5.99243">
        <ele>303.7</ele>
        <time>2020-06-26T09:03:24Z</time>
      </trkpt>
      <trkpt lat="49.64193" lon="5.99246">
        <ele>303.4</ele>
        <time>2020-06-26T09:03:25Z</time>
      </trkpt>
      <trkpt lat="49.64186" lon="5.99248">
        <ele>303.1</ele>
        <time>2020-06-26T09:03:26Z</time>
      </trkpt>
      <trkpt lat="49.6418" lon="5.99251">
        <ele>302.8</ele>
        <time>2020-06-26T09:03:27Z</time>
      </trkpt>
      <trkpt lat="49.64172" lon="5.99254">
        <ele>302.2</ele>
        <time>2020-06-26T09:03:28Z</time>
      </trkpt>
      <trkpt lat="49.64165" lon="5.99256">
        <ele>302.1</ele>
        <time>2020-06-26T09:03:29Z</time>
      </trkpt>
      <trkpt lat="49.64158" lon="5.99259">
        <ele>301.9</ele>
        <time>2020-06-26T09:03:30Z</time>
      </trkpt>
      <trkpt lat="49.64151" lon="5.99262">
        <ele>301.7</ele>
        <time>2020-06-26T09:03:31Z</time>
      </trkpt>
      <trkpt lat="49.64144" lon="5.99266">
        <ele>301.5</ele>
        <time>2020-06-26T09:03:32Z</time>
      </trkpt>
      <trkpt lat="49.64137" lon="5.9927">
        <ele>301.3</ele>
        <time>2020-06-26T09:03:33Z</time>
      </trkpt>
      <trkpt lat="49.6413" lon="5.99274">
        <ele>301.1</ele>
        <time>2020-06-26T09:03:34Z</time>
      </trkpt>
      <trkpt lat="49.64124" lon="5.99279">
        <ele>301</ele>
        <time>2020-06-26T09:03:35Z</time>
      </trkpt>
      <trkpt lat="49.64118" lon="5.99285">
        <ele>300.9</ele>
        <time>2020-06-26T09:03:36Z</time>
      </trkpt>
      <trkpt lat="49.64112" lon="5.99291">
        <ele>300.8</ele>
        <time>2020-06-26T09:03:37Z</time>
      </trkpt>
      <trkpt lat="49.64106" lon="5.99296">
        <ele>300.7</ele>
        <time>2020-06-26T09:03:38Z</time>
      </trkpt>
      <trkpt lat="49.641" lon="5.99302">
        <ele>300.5</ele>
        <time>2020-06-26T09:03:39Z</time>
      </trkpt>
      <trkpt lat="49.64093" lon="5.99307">
        <ele>300.4</ele>
        <time>2020-06-26T09:03:40Z</time>
      </trkpt>
      <trkpt lat="49.64087" lon="5.99312">
        <ele>300.2</ele>
        <time>2020-06-26T09:03:41Z</time>
      </trkpt>
      <trkpt lat="49.64081" lon="5.99315">
        <ele>300.1</ele>
        <time>2020-06-26T09:03:42Z</time>
      </trkpt>
      <trkpt lat="49.64075" lon="5.99319">
        <ele>300</ele>
        <time>2020-06-26T09:03:43Z</time>
      </trkpt>
      <trkpt lat="49.64069" lon="5.99325">
        <ele>300</ele>
        <time>2020-06-26T09:03:44Z</time>
      </trkpt>
      <trkpt lat="49.64064" lon="5.9933">
        <ele>299.9</ele>
        <time>2020-06-26T09:03:45Z</time>
      </trkpt>
      <trkpt lat="49.64058" lon="5.99336">
        <ele>299.8</ele>
        <time>2020-06-26T09:03:46Z</time>
      </trkpt>
      <trkpt lat="49.64052" lon="5.99339">
        <ele>299.7</ele>
        <time>2020-06-26T09:03:47Z</time>
      </trkpt>
      <trkpt lat="49.64046" lon="5.99342">
        <ele>299.6</ele>
        <time>2020-06-26T09:03:48Z</time>
      </trkpt>
      <trkpt lat="49.6404" lon="5.99347">
        <ele>299.4</ele>
        <time>2020-06-26T09:03:49Z</time>
      </trkpt>
      <trkpt lat="49.64035" lon="5.99352">
        <ele>299.2</ele>
        <time>2020-06-26T09:03:50Z</time>
      </trkpt>
      <trkpt lat="49.64029" lon="5.99359">
        <ele>299</ele>
        <time>2020-06-26T09:03:51Z</time>
      </trkpt>
      <trkpt lat="49.64024" lon="5.99366">
        <ele>298.9</ele>
        <time>2020-06-26T09:03:52Z</time>
      </trkpt>
      <trkpt lat="49.6402" lon="5.99374">
        <ele>298.7</ele>
        <time>2020-06-26T09:03:53Z</time>
      </trkpt>
      <trkpt lat="49.64016" lon="5.99382">
        <ele>298.6</ele>
        <time>2020-06-26T09:03:54Z</time>
      </trkpt>
      <trkpt lat="49.64012" lon="5.9939">
        <ele>298.6</ele>
        <time>2020-06-26T09:03:55Z</time>
      </trkpt>
      <trkpt lat="49.64009" lon="5.99398">
        <ele>298.5</ele>
        <time>2020-06-26T09:03:56Z</time>
      </trkpt>
      <trkpt lat="49.64005" lon="5.99407">
        <ele>298.4</ele>
        <time>2020-06-26T09:03:57Z</time>
      </trkpt>
      <trkpt lat="49.64002" lon="5.99417">
        <ele>298.4</ele>
        <time>2020-06-26T09:03:58Z</time>
      </trkpt>
      <trkpt lat="49.64" lon="5.99426">
        <ele>298.4</ele>
        <time>2020-06-26T09:03:59Z</time>
      </trkpt>
      <trkpt lat="49.63998" lon="5.99435">
        <ele>298.4</ele>
        <time>2020-06-26T09:04:00Z</time>
      </trkpt>
      <trkpt lat="49.63996" lon="5.99444">
        <ele>298.4</ele>
        <time>2020-06-26T09:04:01Z</time>
      </trkpt>
      <trkpt lat="49.63995" lon="5.99453">
        <ele>298.4</ele>
        <time>2020-06-26T09:04:02Z</time>
      </trkpt>
      <trkpt lat="49.63993" lon="5.99462">
        <ele>298.4</ele>
        <time>2020-06-26T09:04:03Z</time>
      </trkpt>
      <trkpt lat="49.63992" lon="5.9947">
        <ele>298.4</ele>
        <time>2020-06-26T09:04:04Z</time>
      </trkpt>
      <trkpt lat="49.63991" lon="5.99477">
        <ele>298.3</ele>
        <time>2020-06-26T09:04:05Z</time>
      </trkpt>
      <trkpt lat="49.63989" lon="5.99485">
        <ele>298.3</ele>
        <time>2020-06-26T09:04:06Z</time>
      </trkpt>
      <trkpt lat="49.63988" lon="5.99492">
        <ele>298.3</ele>
        <time>2020-06-26T09:04:07Z</time>
      </trkpt>
      <trkpt lat="49.63987" lon="5.99499">
        <ele>298.3</ele>
        <time>2020-06-26T09:04:08Z</time>
      </trkpt>
      <trkpt lat="49.63987" lon="5.99506">
        <ele>298.3</ele>
        <time>2020-06-26T09:04:09Z</time>
      </trkpt>
      <trkpt lat="49.63985" lon="5.99513">
        <ele>298.3</ele>
        <time>2020-06-26T09:04:10Z</time>
      </trkpt>
      <trkpt lat="49.63985" lon="5.99521">
        <ele>298.3</ele>
        <time>2020-06-26T09:04:11Z</time>
      </trkpt>
      <trkpt lat="49.63984" lon="5.99527">
        <ele>298.3</ele>
        <time>2020-06-26T09:04:12Z</time>
      </trkpt>
      <trkpt lat="49.63982" lon="5.99533">
        <ele>298.3</ele>
        <time>2020-06-26T09:04:13Z</time>
      </trkpt>
      <trkpt lat="49.63981" lon="5.99541">
        <ele>298.4</ele>
        <time>2020-06-26T09:04:14Z</time>
      </trkpt>
      <trkpt lat="49.63979" lon="5.99549">
        <ele>298.4</ele>
        <time>2020-06-26T09:04:15Z</time>
      </trkpt>
      <trkpt lat="49.63977" lon="5.99557">
        <ele>298.4</ele>
        <time>2020-06-26T09:04:16Z</time>
      </trkpt>
      <trkpt lat="49.63976" lon="5.99565">
        <ele>298.5</ele>
        <time>2020-06-26T09:04:17Z</time>
      </trkpt>
      <trkpt lat="49.63975" lon="5.99574">
        <ele>298.6</ele>
        <time>2020-06-26T09:04:18Z</time>
      </trkpt>
      <trkpt lat="49.63974" lon="5.99582">
        <ele>298.6</ele>
        <time>2020-06-26T09:04:19Z</time>
      </trkpt>
      <trkpt lat="49.63973" lon="5.99589">
        <ele>298.7</ele>
        <time>2020-06-26T09:04:20Z</time>
      </trkpt>
      <trkpt lat="49.63972" lon="5.99597">
        <ele>298.7</ele>
        <time>2020-06-26T09:04:21Z</time>
      </trkpt>
      <trkpt lat="49.63972" lon="5.99604">
        <ele>298.8</ele>
        <time>2020-06-26T09:04:22Z</time>
      </trkpt>
      <trkpt lat="49.63972" lon="5.9961">
        <ele>298.9</ele>
        <time>2020-06-26T09:04:23Z</time>
      </trkpt>
      <trkpt lat="49.63972" lon="5.99616">
        <ele>298.9</ele>
        <time>2020-06-26T09:04:24Z</time>
      </trkpt>
      <trkpt lat="49.63972" lon="5.99622">
        <ele>299</ele>
        <time>2020-06-26T09:04:25Z</time>
      </trkpt>
      <trkpt lat="49.63971" lon="5.99628">
        <ele>299.1</ele>
        <time>2020-06-26T09:04:26Z</time>
      </trkpt>
      <trkpt lat="49.63972" lon="5.99633">
        <ele>299.2</ele>
        <time>2020-06-26T09:04:27Z</time>
      </trkpt>
      <trkpt lat="49.63971" lon="5.99639">
        <ele>299.4</ele>
        <time>2020-06-26T09:04:28Z</time>
      </trkpt>
      <trkpt lat="49.6397" lon="5.99641">
        <ele>299.4</ele>
        <time>2020-06-26T09:04:29Z</time>
      </trkpt>
      <trkpt lat="49.63968" lon="5.99646">
        <ele>299.5</ele>
        <time>2020-06-26T09:04:30Z</time>
      </trkpt>
      <trkpt lat="49.63965" lon="5.99648">
        <ele>299.6</ele>
        <time>2020-06-26T09:04:31Z</time>
      </trkpt>
      <trkpt lat="49.63962" lon="5.99649">
        <ele>300.1</ele>
        <time>2020-06-26T09:04:32Z</time>
      </trkpt>
      <trkpt lat="49.63958" lon="5.99649">
        <ele>300.1</ele>
        <time>2020-06-26T09:04:33Z</time>
      </trkpt>
      <trkpt lat="49.63953" lon="5.99649">
        <ele>300.1</ele>
        <time>2020-06-26T09:04:34Z</time>
      </trkpt>
      <trkpt lat="49.63949" lon="5.99651">
        <ele>300.1</ele>
        <time>2020-06-26T09:04:35Z</time>
      </trkpt>
      <trkpt lat="49.63944" lon="5.99652">
        <ele>300.1</ele>
        <time>2020-06-26T09:04:36Z</time>
      </trkpt>
      <trkpt lat="49.6394" lon="5.99652">
        <ele>300.1</ele>
        <time>2020-06-26T09:04:37Z</time>
      </trkpt>
      <trkpt lat="49.63935" lon="5.99652">
        <ele>300.1</ele>
        <time>2020-06-26T09:04:38Z</time>
      </trkpt>
      <trkpt lat="49.6393" lon="5.99652">
        <ele>300.1</ele>
        <time>2020-06-26T09:04:39Z</time>
      </trkpt>
      <trkpt lat="49.63926" lon="5.99651">
        <ele>300.1</ele>
        <time>2020-06-26T09:04:40Z</time>
      </trkpt>
      <trkpt lat="49.63921" lon="5.99651">
        <ele>300.1</ele>
        <time>2020-06-26T09:04:41Z</time>
      </trkpt>
      <trkpt lat="49.63916" lon="5.99651">
        <ele>300.1</ele>
        <time>2020-06-26T09:04:42Z</time>
      </trkpt>
      <trkpt lat="49.63911" lon="5.99651">
        <ele>300.1</ele>
        <time>2020-06-26T09:04:43Z</time>
      </trkpt>
      <trkpt lat="49.63907" lon="5.99649">
        <ele>300.1</ele>
        <time>2020-06-26T09:04:44Z</time>
      </trkpt>
      <trkpt lat="49.63902" lon="5.99649">
        <ele>300.1</ele>
        <time>2020-06-26T09:04:45Z</time>
      </trkpt>
      <trkpt lat="49.63898" lon="5.99649">
        <ele>300.1</ele>
        <time>2020-06-26T09:04:46Z</time>
      </trkpt>
      <trkpt lat="49.63893" lon="5.99648">
        <ele>300</ele>
        <time>2020-06-26T09:04:47Z</time>
      </trkpt>
      <trkpt lat="49.63889" lon="5.99647">
        <ele>300</ele>
        <time>2020-06-26T09:04:48Z</time>
      </trkpt>
      <trkpt lat="49.63884" lon="5.99646">
        <ele>299.9</ele>
        <time>2020-06-26T09:04:49Z</time>
      </trkpt>
      <trkpt lat="49.63879" lon="5.99645">
        <ele>299.9</ele>
        <time>2020-06-26T09:04:50Z</time>
      </trkpt>
      <trkpt lat="49.63875" lon="5.99643">
        <ele>299.8</ele>
        <time>2020-06-26T09:04:51Z</time>
      </trkpt>
      <trkpt lat="49.6387" lon="5.99642">
        <ele>299.7</ele>
        <time>2020-06-26T09:04:52Z</time>
      </trkpt>
      <trkpt lat="49.63865" lon="5.9964">
        <ele>299.7</ele>
        <time>2020-06-26T09:04:53Z</time>
      </trkpt>
      <trkpt lat="49.63859" lon="5.9964">
        <ele>299.5</ele>
        <time>2020-06-26T09:04:54Z</time>
      </trkpt>
      <trkpt lat="49.63853" lon="5.99637">
        <ele>299.4</ele>
        <time>2020-06-26T09:04:55Z</time>
      </trkpt>
      <trkpt lat="49.63847" lon="5.99635">
        <ele>299.3</ele>
        <time>2020-06-26T09:04:56Z</time>
      </trkpt>
      <trkpt lat="49.6384" lon="5.99631">
        <ele>299.1</ele>
        <time>2020-06-26T09:04:57Z</time>
      </trkpt>
      <trkpt lat="49.63833" lon="5.99629">
        <ele>298.9</ele>
        <time>2020-06-26T09:04:58Z</time>
      </trkpt>
      <trkpt lat="49.63825" lon="5.99629">
        <ele>298.9</ele>
        <time>2020-06-26T09:04:59Z</time>
      </trkpt>
      <trkpt lat="49.63819" lon="5.99631">
        <ele>298.8</ele>
        <time>2020-06-26T09:05:00Z</time>
      </trkpt>
      <trkpt lat="49.63813" lon="5.99637">
        <ele>298.7</ele>
        <time>2020-06-26T09:05:01Z</time>
      </trkpt>
      <trkpt lat="49.63809" lon="5.99645">
        <ele>298.6</ele>
        <time>2020-06-26T09:05:02Z</time>
      </trkpt>
      <trkpt lat="49.63805" lon="5.99652">
        <ele>298.5</ele>
        <time>2020-06-26T09:05:03Z</time>
      </trkpt>
      <trkpt lat="49.63802" lon="5.9966">
        <ele>298.5</ele>
        <time>2020-06-26T09:05:04Z</time>
      </trkpt>
      <trkpt lat="49.63797" lon="5.99669">
        <ele>298.4</ele>
        <time>2020-06-26T09:05:05Z</time>
      </trkpt>
      <trkpt lat="49.63793" lon="5.99676">
        <ele>298.4</ele>
        <time>2020-06-26T09:05:06Z</time>
      </trkpt>
      <trkpt lat="49.6379" lon="5.99681">
        <ele>298.4</ele>
        <time>2020-06-26T09:05:07Z</time>
      </trkpt>
      <trkpt lat="49.63787" lon="5.99688">
        <ele>298.3</ele>
        <time>2020-06-26T09:05:08Z</time>
      </trkpt>
      <trkpt lat="49.63784" lon="5.99695">
        <ele>298.3</ele>
        <time>2020-06-26T09:05:09Z</time>
      </trkpt>
      <trkpt lat="49.6378" lon="5.99701">
        <ele>298.3</ele>
        <time>2020-06-26T09:05:10Z</time>
      </trkpt>
      <trkpt lat="49.63778" lon="5.99708">
        <ele>298.3</ele>
        <time>2020-06-26T09:05:11Z</time>
      </trkpt>
      <trkpt lat="49.63774" lon="5.99716">
        <ele>298.2</ele>
        <time>2020-06-26T09:05:12Z</time>
      </trkpt>
      <trkpt lat="49.63771" lon="5.99723">
        <ele>298.2</ele>
        <time>2020-06-26T09:05:13Z</time>
      </trkpt>
      <trkpt lat="49.63768" lon="5.99731">
        <ele>298.2</ele>
        <time>2020-06-26T09:05:14Z</time>
      </trkpt>
      <trkpt lat="49.63765" lon="5.99737">
        <ele>298.2</ele>
        <time>2020-06-26T09:05:15Z</time>
      </trkpt>
      <trkpt lat="49.63762" lon="5.99745">
        <ele>298.3</ele>
        <time>2020-06-26T09:05:16Z</time>
      </trkpt>
      <trkpt lat="49.63759" lon="5.99751">
        <ele>298.3</ele>
        <time>2020-06-26T09:05:17Z</time>
      </trkpt>
      <trkpt lat="49.63757" lon="5.99757">
        <ele>298.4</ele>
        <time>2020-06-26T09:05:18Z</time>
      </trkpt>
      <trkpt lat="49.63753" lon="5.99764">
        <ele>298.4</ele>
        <time>2020-06-26T09:05:19Z</time>
      </trkpt>
      <trkpt lat="49.63747" lon="5.99768">
        <ele>298.5</ele>
        <time>2020-06-26T09:05:20Z</time>
      </trkpt>
      <trkpt lat="49.63743" lon="5.9977">
        <ele>298.5</ele>
        <time>2020-06-26T09:05:21Z</time>
      </trkpt>
      <trkpt lat="49.63738" lon="5.99771">
        <ele>298.4</ele>
        <time>2020-06-26T09:05:22Z</time>
      </trkpt>
      <trkpt lat="49.63734" lon="5.99774">
        <ele>298.4</ele>
        <time>2020-06-26T09:05:23Z</time>
      </trkpt>
      <trkpt lat="49.63731" lon="5.99777">
        <ele>298.5</ele>
        <time>2020-06-26T09:05:24Z</time>
      </trkpt>
      <trkpt lat="49.63728" lon="5.9978">
        <ele>298.5</ele>
        <time>2020-06-26T09:05:25Z</time>
      </trkpt>
      <trkpt lat="49.63725" lon="5.99782">
        <ele>298.6</ele>
        <time>2020-06-26T09:05:26Z</time>
      </trkpt>
      <trkpt lat="49.6372" lon="5.99785">
        <ele>298.6</ele>
        <time>2020-06-26T09:05:27Z</time>
      </trkpt>
      <trkpt lat="49.63716" lon="5.99786">
        <ele>298.6</ele>
        <time>2020-06-26T09:05:28Z</time>
      </trkpt>
      <trkpt lat="49.63712" lon="5.99783">
        <ele>298.6</ele>
        <time>2020-06-26T09:05:29Z</time>
      </trkpt>
      <trkpt lat="49.6371" lon="5.99778">
        <ele>298.6</ele>
        <time>2020-06-26T09:05:30Z</time>
      </trkpt>
      <trkpt lat="49.63707" lon="5.99772">
        <ele>298.5</ele>
        <time>2020-06-26T09:05:31Z</time>
      </trkpt>
      <trkpt lat="49.63704" lon="5.99764">
        <ele>298.4</ele>
        <time>2020-06-26T09:05:32Z</time>
      </trkpt>
      <trkpt lat="49.63701" lon="5.99757">
        <ele>298.4</ele>
        <time>2020-06-26T09:05:33Z</time>
      </trkpt>
      <trkpt lat="49.63699" lon="5.99751">
        <ele>298.4</ele>
        <time>2020-06-26T09:05:34Z</time>
      </trkpt>
      <trkpt lat="49.63697" lon="5.99744">
        <ele>298.4</ele>
        <time>2020-06-26T09:05:35Z</time>
      </trkpt>
      <trkpt lat="49.63695" lon="5.99738">
        <ele>298.4</ele>
        <time>2020-06-26T09:05:36Z</time>
      </trkpt>
      <trkpt lat="49.63693" lon="5.99732">
        <ele>298.4</ele>
        <time>2020-06-26T09:05:37Z</time>
      </trkpt>
      <trkpt lat="49.63692" lon="5.99725">
        <ele>298.5</ele>
        <time>2020-06-26T09:05:38Z</time>
      </trkpt>
      <trkpt lat="49.6369" lon="5.99718">
        <ele>298.6</ele>
        <time>2020-06-26T09:05:39Z</time>
      </trkpt>
      <trkpt lat="49.63688" lon="5.9971">
        <ele>298.8</ele>
        <time>2020-06-26T09:05:40Z</time>
      </trkpt>
      <trkpt lat="49.63685" lon="5.99704">
        <ele>298.9</ele>
        <time>2020-06-26T09:05:41Z</time>
      </trkpt>
      <trkpt lat="49.63682" lon="5.997">
        <ele>299</ele>
        <time>2020-06-26T09:05:42Z</time>
      </trkpt>
      <trkpt lat="49.63676" lon="5.99698">
        <ele>299.1</ele>
        <time>2020-06-26T09:05:43Z</time>
      </trkpt>
      <trkpt lat="49.63671" lon="5.99701">
        <ele>299.2</ele>
        <time>2020-06-26T09:05:44Z</time>
      </trkpt>
      <trkpt lat="49.63668" lon="5.99703">
        <ele>299.2</ele>
        <time>2020-06-26T09:05:45Z</time>
      </trkpt>
      <trkpt lat="49.63664" lon="5.99705">
        <ele>299.3</ele>
        <time>2020-06-26T09:05:46Z</time>
      </trkpt>
      <trkpt lat="49.63661" lon="5.9971">
        <ele>299.3</ele>
        <time>2020-06-26T09:05:47Z</time>
      </trkpt>
      <trkpt lat="49.63659" lon="5.99716">
        <ele>299.3</ele>
        <time>2020-06-26T09:05:48Z</time>
      </trkpt>
      <trkpt lat="49.63656" lon="5.99721">
        <ele>299.3</ele>
        <time>2020-06-26T09:05:49Z</time>
      </trkpt>
      <trkpt lat="49.63653" lon="5.99727">
        <ele>299.3</ele>
        <time>2020-06-26T09:05:50Z</time>
      </trkpt>
      <trkpt lat="49.6365" lon="5.99733">
        <ele>299.3</ele>
        <time>2020-06-26T09:05:51Z</time>
      </trkpt>
      <trkpt lat="49.63646" lon="5.99737">
        <ele>299.2</ele>
        <time>2020-06-26T09:05:52Z</time>
      </trkpt>
      <trkpt lat="49.63643" lon="5.99743">
        <ele>299.1</ele>
        <time>2020-06-26T09:05:53Z</time>
      </trkpt>
      <trkpt lat="49.63641" lon="5.99749">
        <ele>299.1</ele>
        <time>2020-06-26T09:05:54Z</time>
      </trkpt>
      <trkpt lat="49.63639" lon="5.99756">
        <ele>299</ele>
        <time>2020-06-26T09:05:55Z</time>
      </trkpt>
      <trkpt lat="49.63636" lon="5.99763">
        <ele>298.9</ele>
        <time>2020-06-26T09:05:56Z</time>
      </trkpt>
      <trkpt lat="49.63635" lon="5.99771">
        <ele>298.9</ele>
        <time>2020-06-26T09:05:57Z</time>
      </trkpt>
      <trkpt lat="49.63634" lon="5.99779">
        <ele>298.8</ele>
        <time>2020-06-26T09:05:58Z</time>
      </trkpt>
      <trkpt lat="49.63632" lon="5.99787">
        <ele>298.8</ele>
        <time>2020-06-26T09:05:59Z</time>
      </trkpt>
      <trkpt lat="49.63631" lon="5.99797">
        <ele>298.7</ele>
        <time>2020-06-26T09:06:00Z</time>
      </trkpt>
      <trkpt lat="49.63628" lon="5.99805">
        <ele>298.7</ele>
        <time>2020-06-26T09:06:01Z</time>
      </trkpt>
      <trkpt lat="49.63626" lon="5.99813">
        <ele>298.6</ele>
        <time>2020-06-26T09:06:02Z</time>
      </trkpt>
      <trkpt lat="49.63623" lon="5.9982">
        <ele>298.6</ele>
        <time>2020-06-26T09:06:03Z</time>
      </trkpt>
      <trkpt lat="49.63619" lon="5.99827">
        <ele>298.5</ele>
        <time>2020-06-26T09:06:04Z</time>
      </trkpt>
      <trkpt lat="49.63617" lon="5.99835">
        <ele>298.5</ele>
        <time>2020-06-26T09:06:05Z</time>
      </trkpt>
      <trkpt lat="49.63614" lon="5.99843">
        <ele>298.5</ele>
        <time>2020-06-26T09:06:06Z</time>
      </trkpt>
      <trkpt lat="49.63611" lon="5.99851">
        <ele>298.5</ele>
        <time>2020-06-26T09:06:07Z</time>
      </trkpt>
      <trkpt lat="49.63609" lon="5.9986">
        <ele>298.5</ele>
        <time>2020-06-26T09:06:08Z</time>
      </trkpt>
      <trkpt lat="49.63605" lon="5.9987">
        <ele>298.5</ele>
        <time>2020-06-26T09:06:09Z</time>
      </trkpt>
      <trkpt lat="49.63603" lon="5.99877">
        <ele>298.5</ele>
        <time>2020-06-26T09:06:10Z</time>
      </trkpt>
      <trkpt lat="49.63601" lon="5.99884">
        <ele>298.5</ele>
        <time>2020-06-26T09:06:11Z</time>
      </trkpt>
      <trkpt lat="49.63598" lon="5.99892">
        <ele>298.7</ele>
        <time>2020-06-26T09:06:12Z</time>
      </trkpt>
      <trkpt lat="49.63595" lon="5.999">
        <ele>298.8</ele>
        <time>2020-06-26T09:06:13Z</time>
      </trkpt>
      <trkpt lat="49.63592" lon="5.99907">
        <ele>298.9</ele>
        <time>2020-06-26T09:06:14Z</time>
      </trkpt>
      <trkpt lat="49.63589" lon="5.99913">
        <ele>299</ele>
        <time>2020-06-26T09:06:15Z</time>
      </trkpt>
      <trkpt lat="49.63587" lon="5.99919">
        <ele>299.2</ele>
        <time>2020-06-26T09:06:16Z</time>
      </trkpt>
      <trkpt lat="49.63585" lon="5.99925">
        <ele>299.3</ele>
        <time>2020-06-26T09:06:17Z</time>
      </trkpt>
      <trkpt lat="49.63583" lon="5.99932">
        <ele>299.4</ele>
        <time>2020-06-26T09:06:18Z</time>
      </trkpt>
      <trkpt lat="49.63581" lon="5.99937">
        <ele>299.5</ele>
        <time>2020-06-26T09:06:19Z</time>
      </trkpt>
      <trkpt lat="49.63579" lon="5.99942">
        <ele>299.7</ele>
        <time>2020-06-26T09:06:20Z</time>
      </trkpt>
      <trkpt lat="49.63577" lon="5.99949">
        <ele>299.8</ele>
        <time>2020-06-26T09:06:21Z</time>
      </trkpt>
      <trkpt lat="49.63575" lon="5.99955">
        <ele>300</ele>
        <time>2020-06-26T09:06:22Z</time>
      </trkpt>
      <trkpt lat="49.63573" lon="5.99961">
        <ele>300.1</ele>
        <time>2020-06-26T09:06:23Z</time>
      </trkpt>
      <trkpt lat="49.63571" lon="5.99968">
        <ele>300.3</ele>
        <time>2020-06-26T09:06:24Z</time>
      </trkpt>
      <trkpt lat="49.63569" lon="5.99973">
        <ele>300.4</ele>
        <time>2020-06-26T09:06:25Z</time>
      </trkpt>
      <trkpt lat="49.63566" lon="5.99981">
        <ele>300.5</ele>
        <time>2020-06-26T09:06:26Z</time>
      </trkpt>
      <trkpt lat="49.63563" lon="5.99987">
        <ele>300.7</ele>
        <time>2020-06-26T09:06:27Z</time>
      </trkpt>
      <trkpt lat="49.6356" lon="5.99994">
        <ele>300.9</ele>
        <time>2020-06-26T09:06:28Z</time>
      </trkpt>
      <trkpt lat="49.63557" lon="5.99999">
        <ele>301</ele>
        <time>2020-06-26T09:06:29Z</time>
      </trkpt>
      <trkpt lat="49.63555" lon="6.00005">
        <ele>301.1</ele>
        <time>2020-06-26T09:06:30Z</time>
      </trkpt>
      <trkpt lat="49.63552" lon="6.0001">
        <ele>301.2</ele>
        <time>2020-06-26T09:06:31Z</time>
      </trkpt>
      <trkpt lat="49.6355" lon="6.00016">
        <ele>301.4</ele>
        <time>2020-06-26T09:06:32Z</time>
      </trkpt>
      <trkpt lat="49.63547" lon="6.00022">
        <ele>301.5</ele>
        <time>2020-06-26T09:06:33Z</time>
      </trkpt>
      <trkpt lat="49.63544" lon="6.00028">
        <ele>301.6</ele>
        <time>2020-06-26T09:06:34Z</time>
      </trkpt>
      <trkpt lat="49.63542" lon="6.00033">
        <ele>301.7</ele>
        <time>2020-06-26T09:06:35Z</time>
      </trkpt>
      <trkpt lat="49.6354" lon="6.00038">
        <ele>301.8</ele>
        <time>2020-06-26T09:06:36Z</time>
      </trkpt>
      <trkpt lat="49.63538" lon="6.00043">
        <ele>301.9</ele>
        <time>2020-06-26T09:06:37Z</time>
      </trkpt>
      <trkpt lat="49.63536" lon="6.00048">
        <ele>302</ele>
        <time>2020-06-26T09:06:38Z</time>
      </trkpt>
      <trkpt lat="49.63535" lon="6.00053">
        <ele>302.1</ele>
        <time>2020-06-26T09:06:39Z</time>
      </trkpt>
      <trkpt lat="49.63534" lon="6.00058">
        <ele>302.2</ele>
        <time>2020-06-26T09:06:40Z</time>
      </trkpt>
      <trkpt lat="49.63532" lon="6.00063">
        <ele>302.2</ele>
        <time>2020-06-26T09:06:41Z</time>
      </trkpt>
      <trkpt lat="49.63531" lon="6.00068">
        <ele>302.3</ele>
        <time>2020-06-26T09:06:42Z</time>
      </trkpt>
      <trkpt lat="49.63529" lon="6.00073">
        <ele>302.4</ele>
        <time>2020-06-26T09:06:43Z</time>
      </trkpt>
      <trkpt lat="49.63528" lon="6.00079">
        <ele>302.6</ele>
        <time>2020-06-26T09:06:44Z</time>
      </trkpt>
      <trkpt lat="49.63525" lon="6.00085">
        <ele>302.7</ele>
        <time>2020-06-26T09:06:45Z</time>
      </trkpt>
      <trkpt lat="49.63523" lon="6.00092">
        <ele>302.8</ele>
        <time>2020-06-26T09:06:46Z</time>
      </trkpt>
      <trkpt lat="49.63521" lon="6.00099">
        <ele>303</ele>
        <time>2020-06-26T09:06:47Z</time>
      </trkpt>
      <trkpt lat="49.63519" lon="6.00105">
        <ele>303.1</ele>
        <time>2020-06-26T09:06:48Z</time>
      </trkpt>
      <trkpt lat="49.63517" lon="6.00111">
        <ele>303.3</ele>
        <time>2020-06-26T09:06:49Z</time>
      </trkpt>
      <trkpt lat="49.63515" lon="6.00117">
        <ele>303.4</ele>
        <time>2020-06-26T09:06:50Z</time>
      </trkpt>
      <trkpt lat="49.63513" lon="6.00123">
        <ele>303.5</ele>
        <time>2020-06-26T09:06:51Z</time>
      </trkpt>
      <trkpt lat="49.63511" lon="6.00128">
        <ele>303.6</ele>
        <time>2020-06-26T09:06:52Z</time>
      </trkpt>
      <trkpt lat="49.63509" lon="6.00134">
        <ele>303.8</ele>
        <time>2020-06-26T09:06:53Z</time>
      </trkpt>
      <trkpt lat="49.63506" lon="6.00139">
        <ele>303.9</ele>
        <time>2020-06-26T09:06:54Z</time>
      </trkpt>
      <trkpt lat="49.63505" lon="6.00143">
        <ele>304</ele>
        <time>2020-06-26T09:06:55Z</time>
      </trkpt>
      <trkpt lat="49.63504" lon="6.00145">
        <ele>304</ele>
        <time>2020-06-26T09:06:56Z</time>
      </trkpt>
      <trkpt lat="49.63503" lon="6.00148">
        <ele>304.1</ele>
        <time>2020-06-26T09:06:57Z</time>
      </trkpt>
      <trkpt lat="49.63502" lon="6.0015">
        <ele>304.1</ele>
        <time>2020-06-26T09:06:58Z</time>
      </trkpt>
      <trkpt lat="49.635" lon="6.00155">
        <ele>304.3</ele>
        <time>2020-06-26T09:06:59Z</time>
      </trkpt>
      <trkpt lat="49.63499" lon="6.0016">
        <ele>304.4</ele>
        <time>2020-06-26T09:07:00Z</time>
      </trkpt>
      <trkpt lat="49.63496" lon="6.00167">
        <ele>304.5</ele>
        <time>2020-06-26T09:07:01Z</time>
      </trkpt>
      <trkpt lat="49.63493" lon="6.00174">
        <ele>304.6</ele>
        <time>2020-06-26T09:07:02Z</time>
      </trkpt>
      <trkpt lat="49.63489" lon="6.00179">
        <ele>304.7</ele>
        <time>2020-06-26T09:07:03Z</time>
      </trkpt>
      <trkpt lat="49.63486" lon="6.00185">
        <ele>304.8</ele>
        <time>2020-06-26T09:07:04Z</time>
      </trkpt>
      <trkpt lat="49.63484" lon="6.00191">
        <ele>304.9</ele>
        <time>2020-06-26T09:07:05Z</time>
      </trkpt>
      <trkpt lat="49.63481" lon="6.00197">
        <ele>304.9</ele>
        <time>2020-06-26T09:07:06Z</time>
      </trkpt>
      <trkpt lat="49.63479" lon="6.00203">
        <ele>304.9</ele>
        <time>2020-06-26T09:07:07Z</time>
      </trkpt>
      <trkpt lat="49.63476" lon="6.0021">
        <ele>304.9</ele>
        <time>2020-06-26T09:07:08Z</time>
      </trkpt>
      <trkpt lat="49.63473" lon="6.00216">
        <ele>304.9</ele>
        <time>2020-06-26T09:07:09Z</time>
      </trkpt>
      <trkpt lat="49.63471" lon="6.00223">
        <ele>304.8</ele>
        <time>2020-06-26T09:07:10Z</time>
      </trkpt>
      <trkpt lat="49.63468" lon="6.00229">
        <ele>304.7</ele>
        <time>2020-06-26T09:07:11Z</time>
      </trkpt>
      <trkpt lat="49.63465" lon="6.00235">
        <ele>304.6</ele>
        <time>2020-06-26T09:07:12Z</time>
      </trkpt>
      <trkpt lat="49.63463" lon="6.00241">
        <ele>304.4</ele>
        <time>2020-06-26T09:07:13Z</time>
      </trkpt>
      <trkpt lat="49.6346" lon="6.00246">
        <ele>304.2</ele>
        <time>2020-06-26T09:07:14Z</time>
      </trkpt>
      <trkpt lat="49.63458" lon="6.00253">
        <ele>303.9</ele>
        <time>2020-06-26T09:07:15Z</time>
      </trkpt>
      <trkpt lat="49.63455" lon="6.0026">
        <ele>303.7</ele>
        <time>2020-06-26T09:07:16Z</time>
      </trkpt>
      <trkpt lat="49.63452" lon="6.00266">
        <ele>303.3</ele>
        <time>2020-06-26T09:07:17Z</time>
      </trkpt>
      <trkpt lat="49.63448" lon="6.00274">
        <ele>302.9</ele>
        <time>2020-06-26T09:07:18Z</time>
      </trkpt>
      <trkpt lat="49.63445" lon="6.00282">
        <ele>302.6</ele>
        <time>2020-06-26T09:07:19Z</time>
      </trkpt>
      <trkpt lat="49.6344" lon="6.00292">
        <ele>302.1</ele>
        <time>2020-06-26T09:07:20Z</time>
      </trkpt>
      <trkpt lat="49.63436" lon="6.003">
        <ele>301.6</ele>
        <time>2020-06-26T09:07:21Z</time>
      </trkpt>
      <trkpt lat="49.63432" lon="6.00309">
        <ele>301.2</ele>
        <time>2020-06-26T09:07:22Z</time>
      </trkpt>
      <trkpt lat="49.63427" lon="6.00317">
        <ele>300.8</ele>
        <time>2020-06-26T09:07:23Z</time>
      </trkpt>
      <trkpt lat="49.63422" lon="6.00326">
        <ele>300.5</ele>
        <time>2020-06-26T09:07:24Z</time>
      </trkpt>
      <trkpt lat="49.63416" lon="6.00336">
        <ele>300.1</ele>
        <time>2020-06-26T09:07:25Z</time>
      </trkpt>
      <trkpt lat="49.63411" lon="6.00346">
        <ele>299.9</ele>
        <time>2020-06-26T09:07:26Z</time>
      </trkpt>
      <trkpt lat="49.63406" lon="6.00357">
        <ele>299.6</ele>
        <time>2020-06-26T09:07:27Z</time>
      </trkpt>
      <trkpt lat="49.63401" lon="6.00367">
        <ele>299.5</ele>
        <time>2020-06-26T09:07:28Z</time>
      </trkpt>
      <trkpt lat="49.63397" lon="6.00377">
        <ele>299.3</ele>
        <time>2020-06-26T09:07:29Z</time>
      </trkpt>
      <trkpt lat="49.63392" lon="6.00386">
        <ele>299.3</ele>
        <time>2020-06-26T09:07:30Z</time>
      </trkpt>
      <trkpt lat="49.63388" lon="6.00395">
        <ele>299.2</ele>
        <time>2020-06-26T09:07:31Z</time>
      </trkpt>
      <trkpt lat="49.63383" lon="6.00404">
        <ele>299.1</ele>
        <time>2020-06-26T09:07:32Z</time>
      </trkpt>
      <trkpt lat="49.63379" lon="6.00412">
        <ele>299.1</ele>
        <time>2020-06-26T09:07:33Z</time>
      </trkpt>
      <trkpt lat="49.63376" lon="6.00421">
        <ele>299</ele>
        <time>2020-06-26T09:07:34Z</time>
      </trkpt>
      <trkpt lat="49.63372" lon="6.0043">
        <ele>298.9</ele>
        <time>2020-06-26T09:07:35Z</time>
      </trkpt>
      <trkpt lat="49.63368" lon="6.00438">
        <ele>298.8</ele>
        <time>2020-06-26T09:07:36Z</time>
      </trkpt>
      <trkpt lat="49.63365" lon="6.00446">
        <ele>298.8</ele>
        <time>2020-06-26T09:07:37Z</time>
      </trkpt>
      <trkpt lat="49.63361" lon="6.00455">
        <ele>298.7</ele>
        <time>2020-06-26T09:07:38Z</time>
      </trkpt>
      <trkpt lat="49.63358" lon="6.00463">
        <ele>298.7</ele>
        <time>2020-06-26T09:07:39Z</time>
      </trkpt>
      <trkpt lat="49.63355" lon="6.0047">
        <ele>298.7</ele>
        <time>2020-06-26T09:07:40Z</time>
      </trkpt>
      <trkpt lat="49.63351" lon="6.00479">
        <ele>298.7</ele>
        <time>2020-06-26T09:07:41Z</time>
      </trkpt>
      <trkpt lat="49.63348" lon="6.00486">
        <ele>298.7</ele>
        <time>2020-06-26T09:07:42Z</time>
      </trkpt>
      <trkpt lat="49.63344" lon="6.00494">
        <ele>298.7</ele>
        <time>2020-06-26T09:07:43Z</time>
      </trkpt>
      <trkpt lat="49.63341" lon="6.00502">
        <ele>298.7</ele>
        <time>2020-06-26T09:07:44Z</time>
      </trkpt>
      <trkpt lat="49.63338" lon="6.00509">
        <ele>298.7</ele>
        <time>2020-06-26T09:07:45Z</time>
      </trkpt>
      <trkpt lat="49.63335" lon="6.00517">
        <ele>298.7</ele>
        <time>2020-06-26T09:07:46Z</time>
      </trkpt>
      <trkpt lat="49.63331" lon="6.00524">
        <ele>298.6</ele>
        <time>2020-06-26T09:07:47Z</time>
      </trkpt>
      <trkpt lat="49.63329" lon="6.00531">
        <ele>298.6</ele>
        <time>2020-06-26T09:07:48Z</time>
      </trkpt>
      <trkpt lat="49.63325" lon="6.00538">
        <ele>298.6</ele>
        <time>2020-06-26T09:07:49Z</time>
      </trkpt>
      <trkpt lat="49.63323" lon="6.00546">
        <ele>298.5</ele>
        <time>2020-06-26T09:07:50Z</time>
      </trkpt>
      <trkpt lat="49.6332" lon="6.00554">
        <ele>298.5</ele>
        <time>2020-06-26T09:07:51Z</time>
      </trkpt>
      <trkpt lat="49.63316" lon="6.00561">
        <ele>298.4</ele>
        <time>2020-06-26T09:07:52Z</time>
      </trkpt>
      <trkpt lat="49.63313" lon="6.00568">
        <ele>298.3</ele>
        <time>2020-06-26T09:07:53Z</time>
      </trkpt>
      <trkpt lat="49.6331" lon="6.00577">
        <ele>298.2</ele>
        <time>2020-06-26T09:07:54Z</time>
      </trkpt>
      <trkpt lat="49.63307" lon="6.00585">
        <ele>298.2</ele>
        <time>2020-06-26T09:07:55Z</time>
      </trkpt>
      <trkpt lat="49.63304" lon="6.00593">
        <ele>298.1</ele>
        <time>2020-06-26T09:07:56Z</time>
      </trkpt>
      <trkpt lat="49.63301" lon="6.00601">
        <ele>298</ele>
        <time>2020-06-26T09:07:57Z</time>
      </trkpt>
      <trkpt lat="49.63298" lon="6.00609">
        <ele>297.9</ele>
        <time>2020-06-26T09:07:58Z</time>
      </trkpt>
      <trkpt lat="49.63295" lon="6.00616">
        <ele>297.8</ele>
        <time>2020-06-26T09:07:59Z</time>
      </trkpt>
      <trkpt lat="49.63291" lon="6.00624">
        <ele>297.7</ele>
        <time>2020-06-26T09:08:00Z</time>
      </trkpt>
      <trkpt lat="49.63288" lon="6.00631">
        <ele>297.6</ele>
        <time>2020-06-26T09:08:01Z</time>
      </trkpt>
      <trkpt lat="49.63285" lon="6.00639">
        <ele>297.5</ele>
        <time>2020-06-26T09:08:02Z</time>
      </trkpt>
      <trkpt lat="49.63282" lon="6.00647">
        <ele>297.4</ele>
        <time>2020-06-26T09:08:03Z</time>
      </trkpt>
      <trkpt lat="49.63279" lon="6.00655">
        <ele>297.3</ele>
        <time>2020-06-26T09:08:04Z</time>
      </trkpt>
      <trkpt lat="49.63275" lon="6.00663">
        <ele>297.2</ele>
        <time>2020-06-26T09:08:05Z</time>
      </trkpt>
      <trkpt lat="49.63272" lon="6.00671">
        <ele>297</ele>
        <time>2020-06-26T09:08:06Z</time>
      </trkpt>
      <trkpt lat="49.63268" lon="6.00679">
        <ele>296.9</ele>
        <time>2020-06-26T09:08:07Z</time>
      </trkpt>
      <trkpt lat="49.63266" lon="6.00688">
        <ele>296.9</ele>
        <time>2020-06-26T09:08:08Z</time>
      </trkpt>
      <trkpt lat="49.63262" lon="6.00696">
        <ele>296.8</ele>
        <time>2020-06-26T09:08:09Z</time>
      </trkpt>
      <trkpt lat="49.63259" lon="6.00705">
        <ele>296.7</ele>
        <time>2020-06-26T09:08:10Z</time>
      </trkpt>
      <trkpt lat="49.63255" lon="6.00713">
        <ele>296.6</ele>
        <time>2020-06-26T09:08:11Z</time>
      </trkpt>
      <trkpt lat="49.63252" lon="6.00721">
        <ele>296.4</ele>
        <time>2020-06-26T09:08:12Z</time>
      </trkpt>
      <trkpt lat="49.63248" lon="6.00729">
        <ele>296.2</ele>
        <time>2020-06-26T09:08:13Z</time>
      </trkpt>
      <trkpt lat="49.63245" lon="6.00738">
        <ele>296.1</ele>
        <time>2020-06-26T09:08:14Z</time>
      </trkpt>
      <trkpt lat="49.63241" lon="6.00747">
        <ele>296</ele>
        <time>2020-06-26T09:08:15Z</time>
      </trkpt>
      <trkpt lat="49.63238" lon="6.00756">
        <ele>296</ele>
        <time>2020-06-26T09:08:16Z</time>
      </trkpt>
      <trkpt lat="49.63234" lon="6.00764">
        <ele>295.8</ele>
        <time>2020-06-26T09:08:17Z</time>
      </trkpt>
      <trkpt lat="49.6323" lon="6.00773">
        <ele>295.6</ele>
        <time>2020-06-26T09:08:18Z</time>
      </trkpt>
      <trkpt lat="49.63227" lon="6.00782">
        <ele>295.5</ele>
        <time>2020-06-26T09:08:19Z</time>
      </trkpt>
      <trkpt lat="49.63224" lon="6.0079">
        <ele>295.5</ele>
        <time>2020-06-26T09:08:20Z</time>
      </trkpt>
      <trkpt lat="49.6322" lon="6.00799">
        <ele>295.5</ele>
        <time>2020-06-26T09:08:21Z</time>
      </trkpt>
      <trkpt lat="49.63216" lon="6.00806">
        <ele>295.5</ele>
        <time>2020-06-26T09:08:22Z</time>
      </trkpt>
      <trkpt lat="49.63212" lon="6.00814">
        <ele>295.5</ele>
        <time>2020-06-26T09:08:23Z</time>
      </trkpt>
      <trkpt lat="49.63208" lon="6.00822">
        <ele>295.6</ele>
        <time>2020-06-26T09:08:24Z</time>
      </trkpt>
      <trkpt lat="49.63205" lon="6.00831">
        <ele>295.6</ele>
        <time>2020-06-26T09:08:25Z</time>
      </trkpt>
      <trkpt lat="49.63202" lon="6.00838">
        <ele>295.7</ele>
        <time>2020-06-26T09:08:26Z</time>
      </trkpt>
      <trkpt lat="49.63199" lon="6.00846">
        <ele>295.8</ele>
        <time>2020-06-26T09:08:27Z</time>
      </trkpt>
      <trkpt lat="49.63195" lon="6.00853">
        <ele>295.9</ele>
        <time>2020-06-26T09:08:28Z</time>
      </trkpt>
      <trkpt lat="49.63192" lon="6.0086">
        <ele>296</ele>
        <time>2020-06-26T09:08:29Z</time>
      </trkpt>
      <trkpt lat="49.63189" lon="6.00868">
        <ele>296.1</ele>
        <time>2020-06-26T09:08:30Z</time>
      </trkpt>
      <trkpt lat="49.63186" lon="6.00875">
        <ele>296.1</ele>
        <time>2020-06-26T09:08:31Z</time>
      </trkpt>
      <trkpt lat="49.63182" lon="6.00882">
        <ele>296.2</ele>
        <time>2020-06-26T09:08:32Z</time>
      </trkpt>
      <trkpt lat="49.63179" lon="6.00889">
        <ele>296.3</ele>
        <time>2020-06-26T09:08:33Z</time>
      </trkpt>
      <trkpt lat="49.63176" lon="6.00897">
        <ele>296.4</ele>
        <time>2020-06-26T09:08:34Z</time>
      </trkpt>
      <trkpt lat="49.63173" lon="6.00904">
        <ele>296.4</ele>
        <time>2020-06-26T09:08:35Z</time>
      </trkpt>
      <trkpt lat="49.63171" lon="6.00912">
        <ele>296.4</ele>
        <time>2020-06-26T09:08:36Z</time>
      </trkpt>
      <trkpt lat="49.63168" lon="6.00919">
        <ele>296.5</ele>
        <time>2020-06-26T09:08:37Z</time>
      </trkpt>
      <trkpt lat="49.63164" lon="6.00926">
        <ele>296.5</ele>
        <time>2020-06-26T09:08:38Z</time>
      </trkpt>
      <trkpt lat="49.63161" lon="6.00933">
        <ele>296.5</ele>
        <time>2020-06-26T09:08:39Z</time>
      </trkpt>
      <trkpt lat="49.63159" lon="6.0094">
        <ele>296.5</ele>
        <time>2020-06-26T09:08:40Z</time>
      </trkpt>
      <trkpt lat="49.63156" lon="6.00947">
        <ele>296.5</ele>
        <time>2020-06-26T09:08:41Z</time>
      </trkpt>
      <trkpt lat="49.63153" lon="6.00954">
        <ele>296.4</ele>
        <time>2020-06-26T09:08:42Z</time>
      </trkpt>
      <trkpt lat="49.63151" lon="6.00962">
        <ele>296.4</ele>
        <time>2020-06-26T09:08:43Z</time>
      </trkpt>
      <trkpt lat="49.63148" lon="6.00969">
        <ele>296.3</ele>
        <time>2020-06-26T09:08:44Z</time>
      </trkpt>
      <trkpt lat="49.63146" lon="6.00976">
        <ele>296.3</ele>
        <time>2020-06-26T09:08:45Z</time>
      </trkpt>
      <trkpt lat="49.63143" lon="6.00984">
        <ele>296.2</ele>
        <time>2020-06-26T09:08:46Z</time>
      </trkpt>
      <trkpt lat="49.63139" lon="6.00992">
        <ele>296.2</ele>
        <time>2020-06-26T09:08:47Z</time>
      </trkpt>
      <trkpt lat="49.63135" lon="6.01001">
        <ele>296.1</ele>
        <time>2020-06-26T09:08:48Z</time>
      </trkpt>
      <trkpt lat="49.63132" lon="6.01009">
        <ele>296</ele>
        <time>2020-06-26T09:08:49Z</time>
      </trkpt>
      <trkpt lat="49.63128" lon="6.01017">
        <ele>295.8</ele>
        <time>2020-06-26T09:08:50Z</time>
      </trkpt>
      <trkpt lat="49.63125" lon="6.01025">
        <ele>295.8</ele>
        <time>2020-06-26T09:08:51Z</time>
      </trkpt>
      <trkpt lat="49.63121" lon="6.01032">
        <ele>295.7</ele>
        <time>2020-06-26T09:08:52Z</time>
      </trkpt>
      <trkpt lat="49.63118" lon="6.01039">
        <ele>295.6</ele>
        <time>2020-06-26T09:08:53Z</time>
      </trkpt>
      <trkpt lat="49.63115" lon="6.01047">
        <ele>295.5</ele>
        <time>2020-06-26T09:08:54Z</time>
      </trkpt>
      <trkpt lat="49.63111" lon="6.01055">
        <ele>295.5</ele>
        <time>2020-06-26T09:08:55Z</time>
      </trkpt>
      <trkpt lat="49.63108" lon="6.01062">
        <ele>295.4</ele>
        <time>2020-06-26T09:08:56Z</time>
      </trkpt>
      <trkpt lat="49.63105" lon="6.0107">
        <ele>295.3</ele>
        <time>2020-06-26T09:08:57Z</time>
      </trkpt>
      <trkpt lat="49.63101" lon="6.01079">
        <ele>295.3</ele>
        <time>2020-06-26T09:08:58Z</time>
      </trkpt>
      <trkpt lat="49.63098" lon="6.01086">
        <ele>295.3</ele>
        <time>2020-06-26T09:08:59Z</time>
      </trkpt>
      <trkpt lat="49.63095" lon="6.01093">
        <ele>295.2</ele>
        <time>2020-06-26T09:09:00Z</time>
      </trkpt>
      <trkpt lat="49.63093" lon="6.011">
        <ele>295.2</ele>
        <time>2020-06-26T09:09:01Z</time>
      </trkpt>
      <trkpt lat="49.6309" lon="6.01106">
        <ele>295.1</ele>
        <time>2020-06-26T09:09:02Z</time>
      </trkpt>
      <trkpt lat="49.63088" lon="6.01112">
        <ele>295.1</ele>
        <time>2020-06-26T09:09:03Z</time>
      </trkpt>
      <trkpt lat="49.63085" lon="6.01121">
        <ele>295</ele>
        <time>2020-06-26T09:09:04Z</time>
      </trkpt>
      <trkpt lat="49.63081" lon="6.01128">
        <ele>295</ele>
        <time>2020-06-26T09:09:05Z</time>
      </trkpt>
      <trkpt lat="49.63078" lon="6.01136">
        <ele>294.9</ele>
        <time>2020-06-26T09:09:06Z</time>
      </trkpt>
      <trkpt lat="49.63075" lon="6.01143">
        <ele>294.8</ele>
        <time>2020-06-26T09:09:07Z</time>
      </trkpt>
      <trkpt lat="49.63072" lon="6.01152">
        <ele>294.8</ele>
        <time>2020-06-26T09:09:08Z</time>
      </trkpt>
      <trkpt lat="49.63069" lon="6.0116">
        <ele>294.7</ele>
        <time>2020-06-26T09:09:09Z</time>
      </trkpt>
      <trkpt lat="49.63065" lon="6.01168">
        <ele>294.7</ele>
        <time>2020-06-26T09:09:10Z</time>
      </trkpt>
      <trkpt lat="49.63062" lon="6.01178">
        <ele>294.7</ele>
        <time>2020-06-26T09:09:11Z</time>
      </trkpt>
      <trkpt lat="49.63058" lon="6.01186">
        <ele>294.6</ele>
        <time>2020-06-26T09:09:12Z</time>
      </trkpt>
      <trkpt lat="49.63056" lon="6.01193">
        <ele>294.6</ele>
        <time>2020-06-26T09:09:13Z</time>
      </trkpt>
      <trkpt lat="49.63053" lon="6.01199">
        <ele>294.5</ele>
        <time>2020-06-26T09:09:14Z</time>
      </trkpt>
      <trkpt lat="49.63051" lon="6.01204">
        <ele>294.4</ele>
        <time>2020-06-26T09:09:15Z</time>
      </trkpt>
      <trkpt lat="49.63049" lon="6.01208">
        <ele>294.4</ele>
        <time>2020-06-26T09:09:16Z</time>
      </trkpt>
      <trkpt lat="49.63046" lon="6.0121">
        <ele>294.5</ele>
        <time>2020-06-26T09:09:17Z</time>
      </trkpt>
      <trkpt lat="49.63043" lon="6.0121">
        <ele>294.5</ele>
        <time>2020-06-26T09:09:18Z</time>
      </trkpt>
      <trkpt lat="49.6304" lon="6.01209">
        <ele>294.5</ele>
        <time>2020-06-26T09:09:19Z</time>
      </trkpt>
      <trkpt lat="49.63038" lon="6.01207">
        <ele>294.5</ele>
        <time>2020-06-26T09:09:20Z</time>
      </trkpt>
      <trkpt lat="49.63036" lon="6.01204">
        <ele>294.6</ele>
        <time>2020-06-26T09:09:21Z</time>
      </trkpt>
      <trkpt lat="49.63033" lon="6.012">
        <ele>294.6</ele>
        <time>2020-06-26T09:09:22Z</time>
      </trkpt>
      <trkpt lat="49.6303" lon="6.01197">
        <ele>294.6</ele>
        <time>2020-06-26T09:09:23Z</time>
      </trkpt>
      <trkpt lat="49.63027" lon="6.01192">
        <ele>294.7</ele>
        <time>2020-06-26T09:09:24Z</time>
      </trkpt>
      <trkpt lat="49.63025" lon="6.01189">
        <ele>294.7</ele>
        <time>2020-06-26T09:09:25Z</time>
      </trkpt>
      <trkpt lat="49.63021" lon="6.01184">
        <ele>294.7</ele>
        <time>2020-06-26T09:09:26Z</time>
      </trkpt>
      <trkpt lat="49.63017" lon="6.01181">
        <ele>294.8</ele>
        <time>2020-06-26T09:09:27Z</time>
      </trkpt>
      <trkpt lat="49.63013" lon="6.01178">
        <ele>294.9</ele>
        <time>2020-06-26T09:09:28Z</time>
      </trkpt>
      <trkpt lat="49.63009" lon="6.01175">
        <ele>294.9</ele>
        <time>2020-06-26T09:09:29Z</time>
      </trkpt>
      <trkpt lat="49.63006" lon="6.01173">
        <ele>295</ele>
        <time>2020-06-26T09:09:30Z</time>
      </trkpt>
      <trkpt lat="49.63003" lon="6.0117">
        <ele>295</ele>
        <time>2020-06-26T09:09:31Z</time>
      </trkpt>
      <trkpt lat="49.62999" lon="6.01167">
        <ele>295</ele>
        <time>2020-06-26T09:09:32Z</time>
      </trkpt>
      <trkpt lat="49.62996" lon="6.01164">
        <ele>295.1</ele>
        <time>2020-06-26T09:09:33Z</time>
      </trkpt>
      <trkpt lat="49.62993" lon="6.01162">
        <ele>295.1</ele>
        <time>2020-06-26T09:09:34Z</time>
      </trkpt>
      <trkpt lat="49.62989" lon="6.01159">
        <ele>295.1</ele>
        <time>2020-06-26T09:09:35Z</time>
      </trkpt>
      <trkpt lat="49.62986" lon="6.01157">
        <ele>295.2</ele>
        <time>2020-06-26T09:09:36Z</time>
      </trkpt>
      <trkpt lat="49.62983" lon="6.01158">
        <ele>295.2</ele>
        <time>2020-06-26T09:09:37Z</time>
      </trkpt>
      <trkpt lat="49.62981" lon="6.01162">
        <ele>295.2</ele>
        <time>2020-06-26T09:09:38Z</time>
      </trkpt>
      <trkpt lat="49.62979" lon="6.01166">
        <ele>295.2</ele>
        <time>2020-06-26T09:09:39Z</time>
      </trkpt>
      <trkpt lat="49.62976" lon="6.01171">
        <ele>295.2</ele>
        <time>2020-06-26T09:09:40Z</time>
      </trkpt>
      <trkpt lat="49.62975" lon="6.01173">
        <ele>295.2</ele>
        <time>2020-06-26T09:09:41Z</time>
      </trkpt>
      <trkpt lat="49.62973" lon="6.01177">
        <ele>295.2</ele>
        <time>2020-06-26T09:09:42Z</time>
      </trkpt>
      <trkpt lat="49.6297" lon="6.01181">
        <ele>295.2</ele>
        <time>2020-06-26T09:09:43Z</time>
      </trkpt>
      <trkpt lat="49.62968" lon="6.01184">
        <ele>295.2</ele>
        <time>2020-06-26T09:09:44Z</time>
      </trkpt>
      <trkpt lat="49.62965" lon="6.01189">
        <ele>295.2</ele>
        <time>2020-06-26T09:09:45Z</time>
      </trkpt>
      <trkpt lat="49.62964" lon="6.0119">
        <ele>295.2</ele>
        <time>2020-06-26T09:09:46Z</time>
      </trkpt>
      <trkpt lat="49.62961" lon="6.01194">
        <ele>295.2</ele>
        <time>2020-06-26T09:09:47Z</time>
      </trkpt>
      <trkpt lat="49.62959" lon="6.01197">
        <ele>295.2</ele>
        <time>2020-06-26T09:09:48Z</time>
      </trkpt>
      <trkpt lat="49.62956" lon="6.012">
        <ele>295.2</ele>
        <time>2020-06-26T09:09:49Z</time>
      </trkpt>
      <trkpt lat="49.62953" lon="6.01205">
        <ele>295.2</ele>
        <time>2020-06-26T09:09:50Z</time>
      </trkpt>
      <trkpt lat="49.6295" lon="6.01209">
        <ele>295.2</ele>
        <time>2020-06-26T09:09:51Z</time>
      </trkpt>
      <trkpt lat="49.62947" lon="6.01214">
        <ele>295.2</ele>
        <time>2020-06-26T09:09:52Z</time>
      </trkpt>
      <trkpt lat="49.62944" lon="6.01219">
        <ele>295.3</ele>
        <time>2020-06-26T09:09:53Z</time>
      </trkpt>
      <trkpt lat="49.6294" lon="6.01223">
        <ele>295.3</ele>
        <time>2020-06-26T09:09:54Z</time>
      </trkpt>
      <trkpt lat="49.62937" lon="6.01226">
        <ele>295.4</ele>
        <time>2020-06-26T09:09:55Z</time>
      </trkpt>
      <trkpt lat="49.62934" lon="6.0123">
        <ele>295.4</ele>
        <time>2020-06-26T09:09:56Z</time>
      </trkpt>
      <trkpt lat="49.6293" lon="6.01233">
        <ele>295.5</ele>
        <time>2020-06-26T09:09:57Z</time>
      </trkpt>
      <trkpt lat="49.62926" lon="6.01237">
        <ele>295.5</ele>
        <time>2020-06-26T09:09:58Z</time>
      </trkpt>
      <trkpt lat="49.62923" lon="6.01241">
        <ele>295.6</ele>
        <time>2020-06-26T09:09:59Z</time>
      </trkpt>
      <trkpt lat="49.6292" lon="6.01245">
        <ele>295.6</ele>
        <time>2020-06-26T09:10:00Z</time>
      </trkpt>
      <trkpt lat="49.62917" lon="6.01249">
        <ele>295.7</ele>
        <time>2020-06-26T09:10:01Z</time>
      </trkpt>
      <trkpt lat="49.62914" lon="6.01253">
        <ele>295.7</ele>
        <time>2020-06-26T09:10:02Z</time>
      </trkpt>
      <trkpt lat="49.6291" lon="6.01256">
        <ele>295.8</ele>
        <time>2020-06-26T09:10:03Z</time>
      </trkpt>
      <trkpt lat="49.62906" lon="6.0126">
        <ele>295.9</ele>
        <time>2020-06-26T09:10:04Z</time>
      </trkpt>
      <trkpt lat="49.62902" lon="6.01264">
        <ele>296</ele>
        <time>2020-06-26T09:10:05Z</time>
      </trkpt>
      <trkpt lat="49.62898" lon="6.01269">
        <ele>296.1</ele>
        <time>2020-06-26T09:10:06Z</time>
      </trkpt>
      <trkpt lat="49.62894" lon="6.01274">
        <ele>296.2</ele>
        <time>2020-06-26T09:10:07Z</time>
      </trkpt>
      <trkpt lat="49.6289" lon="6.01278">
        <ele>296.4</ele>
        <time>2020-06-26T09:10:08Z</time>
      </trkpt>
      <trkpt lat="49.62887" lon="6.01282">
        <ele>296.5</ele>
        <time>2020-06-26T09:10:09Z</time>
      </trkpt>
      <trkpt lat="49.62883" lon="6.01285">
        <ele>296.7</ele>
        <time>2020-06-26T09:10:10Z</time>
      </trkpt>
      <trkpt lat="49.6288" lon="6.01288">
        <ele>296.9</ele>
        <time>2020-06-26T09:10:11Z</time>
      </trkpt>
      <trkpt lat="49.62878" lon="6.01291">
        <ele>297</ele>
        <time>2020-06-26T09:10:12Z</time>
      </trkpt>
      <trkpt lat="49.62874" lon="6.01293">
        <ele>297.2</ele>
        <time>2020-06-26T09:10:13Z</time>
      </trkpt>
      <trkpt lat="49.62871" lon="6.01295">
        <ele>297.3</ele>
        <time>2020-06-26T09:10:14Z</time>
      </trkpt>
      <trkpt lat="49.62869" lon="6.01299">
        <ele>297.4</ele>
        <time>2020-06-26T09:10:15Z</time>
      </trkpt>
      <trkpt lat="49.62866" lon="6.01304">
        <ele>297.6</ele>
        <time>2020-06-26T09:10:16Z</time>
      </trkpt>
      <trkpt lat="49.62864" lon="6.01309">
        <ele>297.8</ele>
        <time>2020-06-26T09:10:17Z</time>
      </trkpt>
      <trkpt lat="49.62861" lon="6.01315">
        <ele>298.1</ele>
        <time>2020-06-26T09:10:18Z</time>
      </trkpt>
      <trkpt lat="49.62859" lon="6.01322">
        <ele>298.3</ele>
        <time>2020-06-26T09:10:19Z</time>
      </trkpt>
      <trkpt lat="49.62857" lon="6.01329">
        <ele>298.5</ele>
        <time>2020-06-26T09:10:20Z</time>
      </trkpt>
      <trkpt lat="49.62855" lon="6.01335">
        <ele>298.7</ele>
        <time>2020-06-26T09:10:21Z</time>
      </trkpt>
      <trkpt lat="49.62853" lon="6.01339">
        <ele>298.9</ele>
        <time>2020-06-26T09:10:22Z</time>
      </trkpt>
      <trkpt lat="49.6285" lon="6.01343">
        <ele>299</ele>
        <time>2020-06-26T09:10:23Z</time>
      </trkpt>
      <trkpt lat="49.62849" lon="6.01347">
        <ele>299.2</ele>
        <time>2020-06-26T09:10:24Z</time>
      </trkpt>
      <trkpt lat="49.62848" lon="6.01353">
        <ele>299.3</ele>
        <time>2020-06-26T09:10:25Z</time>
      </trkpt>
      <trkpt lat="49.62846" lon="6.01359">
        <ele>299.6</ele>
        <time>2020-06-26T09:10:26Z</time>
      </trkpt>
      <trkpt lat="49.62845" lon="6.01364">
        <ele>299.7</ele>
        <time>2020-06-26T09:10:27Z</time>
      </trkpt>
      <trkpt lat="49.62844" lon="6.01369">
        <ele>299.9</ele>
        <time>2020-06-26T09:10:28Z</time>
      </trkpt>
      <trkpt lat="49.62843" lon="6.01371">
        <ele>299.9</ele>
        <time>2020-06-26T09:10:29Z</time>
      </trkpt>
      <trkpt lat="49.62841" lon="6.01375">
        <ele>300.1</ele>
        <time>2020-06-26T09:10:30Z</time>
      </trkpt>
      <trkpt lat="49.6284" lon="6.01377">
        <ele>300.1</ele>
        <time>2020-06-26T09:10:31Z</time>
      </trkpt>
      <trkpt lat="49.62838" lon="6.01382">
        <ele>300.3</ele>
        <time>2020-06-26T09:10:32Z</time>
      </trkpt>
      <trkpt lat="49.62836" lon="6.01387">
        <ele>300.5</ele>
        <time>2020-06-26T09:10:33Z</time>
      </trkpt>
      <trkpt lat="49.62834" lon="6.01392">
        <ele>300.7</ele>
        <time>2020-06-26T09:10:34Z</time>
      </trkpt>
      <trkpt lat="49.62832" lon="6.01398">
        <ele>300.9</ele>
        <time>2020-06-26T09:10:35Z</time>
      </trkpt>
      <trkpt lat="49.62831" lon="6.014">
        <ele>301</ele>
        <time>2020-06-26T09:10:36Z</time>
      </trkpt>
      <trkpt lat="49.62829" lon="6.01403">
        <ele>301.1</ele>
        <time>2020-06-26T09:10:37Z</time>
      </trkpt>
      <trkpt lat="49.62826" lon="6.01407">
        <ele>301.3</ele>
        <time>2020-06-26T09:10:38Z</time>
      </trkpt>
      <trkpt lat="49.62824" lon="6.01411">
        <ele>301.4</ele>
        <time>2020-06-26T09:10:39Z</time>
      </trkpt>
      <trkpt lat="49.62821" lon="6.01416">
        <ele>301.6</ele>
        <time>2020-06-26T09:10:40Z</time>
      </trkpt>
      <trkpt lat="49.62819" lon="6.0142">
        <ele>301.8</ele>
        <time>2020-06-26T09:10:41Z</time>
      </trkpt>
      <trkpt lat="49.62818" lon="6.01424">
        <ele>302</ele>
        <time>2020-06-26T09:10:42Z</time>
      </trkpt>
      <trkpt lat="49.62816" lon="6.01429">
        <ele>302.2</ele>
        <time>2020-06-26T09:10:43Z</time>
      </trkpt>
      <trkpt lat="49.62813" lon="6.01435">
        <ele>302.5</ele>
        <time>2020-06-26T09:10:44Z</time>
      </trkpt>
      <trkpt lat="49.62811" lon="6.01439">
        <ele>302.6</ele>
        <time>2020-06-26T09:10:45Z</time>
      </trkpt>
      <trkpt lat="49.62809" lon="6.01442">
        <ele>302.8</ele>
        <time>2020-06-26T09:10:46Z</time>
      </trkpt>
      <trkpt lat="49.62807" lon="6.01447">
        <ele>303</ele>
        <time>2020-06-26T09:10:47Z</time>
      </trkpt>
      <trkpt lat="49.62805" lon="6.01452">
        <ele>303.2</ele>
        <time>2020-06-26T09:10:48Z</time>
      </trkpt>
      <trkpt lat="49.62804" lon="6.01456">
        <ele>303.3</ele>
        <time>2020-06-26T09:10:49Z</time>
      </trkpt>
      <trkpt lat="49.62802" lon="6.0146">
        <ele>303.5</ele>
        <time>2020-06-26T09:10:50Z</time>
      </trkpt>
      <trkpt lat="49.628" lon="6.01464">
        <ele>303.6</ele>
        <time>2020-06-26T09:10:51Z</time>
      </trkpt>
      <trkpt lat="49.62798" lon="6.01469">
        <ele>303.9</ele>
        <time>2020-06-26T09:10:52Z</time>
      </trkpt>
      <trkpt lat="49.62796" lon="6.01474">
        <ele>304.1</ele>
        <time>2020-06-26T09:10:53Z</time>
      </trkpt>
      <trkpt lat="49.62795" lon="6.01478">
        <ele>304.3</ele>
        <time>2020-06-26T09:10:54Z</time>
      </trkpt>
      <trkpt lat="49.62793" lon="6.01483">
        <ele>304.5</ele>
        <time>2020-06-26T09:10:55Z</time>
      </trkpt>
      <trkpt lat="49.62792" lon="6.01486">
        <ele>304.6</ele>
        <time>2020-06-26T09:10:56Z</time>
      </trkpt>
      <trkpt lat="49.62791" lon="6.0149">
        <ele>304.8</ele>
        <time>2020-06-26T09:10:57Z</time>
      </trkpt>
      <trkpt lat="49.62789" lon="6.01494">
        <ele>305</ele>
        <time>2020-06-26T09:10:58Z</time>
      </trkpt>
      <trkpt lat="49.62787" lon="6.015">
        <ele>305.2</ele>
        <time>2020-06-26T09:10:59Z</time>
      </trkpt>
      <trkpt lat="49.62786" lon="6.01504">
        <ele>305.4</ele>
        <time>2020-06-26T09:11:00Z</time>
      </trkpt>
      <trkpt lat="49.62784" lon="6.01509">
        <ele>305.7</ele>
        <time>2020-06-26T09:11:01Z</time>
      </trkpt>
      <trkpt lat="49.62782" lon="6.01513">
        <ele>305.9</ele>
        <time>2020-06-26T09:11:02Z</time>
      </trkpt>
      <trkpt lat="49.6278" lon="6.01517">
        <ele>306.1</ele>
        <time>2020-06-26T09:11:03Z</time>
      </trkpt>
      <trkpt lat="49.62778" lon="6.01521">
        <ele>306.3</ele>
        <time>2020-06-26T09:11:04Z</time>
      </trkpt>
      <trkpt lat="49.62776" lon="6.01525">
        <ele>306.4</ele>
        <time>2020-06-26T09:11:05Z</time>
      </trkpt>
      <trkpt lat="49.62774" lon="6.01528">
        <ele>306.6</ele>
        <time>2020-06-26T09:11:06Z</time>
      </trkpt>
      <trkpt lat="49.62772" lon="6.01532">
        <ele>306.7</ele>
        <time>2020-06-26T09:11:07Z</time>
      </trkpt>
      <trkpt lat="49.62769" lon="6.01538">
        <ele>306.9</ele>
        <time>2020-06-26T09:11:08Z</time>
      </trkpt>
      <trkpt lat="49.62766" lon="6.01544">
        <ele>307.2</ele>
        <time>2020-06-26T09:11:09Z</time>
      </trkpt>
      <trkpt lat="49.62764" lon="6.01549">
        <ele>307.4</ele>
        <time>2020-06-26T09:11:10Z</time>
      </trkpt>
      <trkpt lat="49.62762" lon="6.01553">
        <ele>307.6</ele>
        <time>2020-06-26T09:11:11Z</time>
      </trkpt>
      <trkpt lat="49.62759" lon="6.01558">
        <ele>307.8</ele>
        <time>2020-06-26T09:11:12Z</time>
      </trkpt>
      <trkpt lat="49.62757" lon="6.01562">
        <ele>307.9</ele>
        <time>2020-06-26T09:11:13Z</time>
      </trkpt>
      <trkpt lat="49.62756" lon="6.01563">
        <ele>308</ele>
        <time>2020-06-26T09:11:14Z</time>
      </trkpt>
      <trkpt lat="49.62753" lon="6.01568">
        <ele>308.1</ele>
        <time>2020-06-26T09:11:15Z</time>
      </trkpt>
      <trkpt lat="49.62751" lon="6.01572">
        <ele>308.2</ele>
        <time>2020-06-26T09:11:16Z</time>
      </trkpt>
      <trkpt lat="49.62748" lon="6.01575">
        <ele>308.3</ele>
        <time>2020-06-26T09:11:17Z</time>
      </trkpt>
      <trkpt lat="49.62745" lon="6.01579">
        <ele>308.4</ele>
        <time>2020-06-26T09:11:18Z</time>
      </trkpt>
      <trkpt lat="49.62742" lon="6.01582">
        <ele>308.4</ele>
        <time>2020-06-26T09:11:19Z</time>
      </trkpt>
      <trkpt lat="49.62739" lon="6.01586">
        <ele>308.5</ele>
        <time>2020-06-26T09:11:20Z</time>
      </trkpt>
      <trkpt lat="49.62736" lon="6.01591">
        <ele>308.5</ele>
        <time>2020-06-26T09:11:21Z</time>
      </trkpt>
      <trkpt lat="49.62735" lon="6.01593">
        <ele>308.5</ele>
        <time>2020-06-26T09:11:22Z</time>
      </trkpt>
      <trkpt lat="49.62731" lon="6.01597">
        <ele>308.5</ele>
        <time>2020-06-26T09:11:23Z</time>
      </trkpt>
      <trkpt lat="49.62728" lon="6.01601">
        <ele>308.4</ele>
        <time>2020-06-26T09:11:24Z</time>
      </trkpt>
      <trkpt lat="49.62726" lon="6.01604">
        <ele>308.4</ele>
        <time>2020-06-26T09:11:25Z</time>
      </trkpt>
      <trkpt lat="49.62722" lon="6.01608">
        <ele>308.3</ele>
        <time>2020-06-26T09:11:26Z</time>
      </trkpt>
      <trkpt lat="49.62718" lon="6.01611">
        <ele>308.3</ele>
        <time>2020-06-26T09:11:27Z</time>
      </trkpt>
      <trkpt lat="49.62715" lon="6.01615">
        <ele>308.2</ele>
        <time>2020-06-26T09:11:28Z</time>
      </trkpt>
      <trkpt lat="49.62713" lon="6.01619">
        <ele>308.1</ele>
        <time>2020-06-26T09:11:29Z</time>
      </trkpt>
      <trkpt lat="49.6271" lon="6.01622">
        <ele>308</ele>
        <time>2020-06-26T09:11:30Z</time>
      </trkpt>
      <trkpt lat="49.62708" lon="6.01627">
        <ele>308</ele>
        <time>2020-06-26T09:11:31Z</time>
      </trkpt>
      <trkpt lat="49.62706" lon="6.01633">
        <ele>307.9</ele>
        <time>2020-06-26T09:11:32Z</time>
      </trkpt>
      <trkpt lat="49.62703" lon="6.0164">
        <ele>307.7</ele>
        <time>2020-06-26T09:11:33Z</time>
      </trkpt>
      <trkpt lat="49.62702" lon="6.01647">
        <ele>307.6</ele>
        <time>2020-06-26T09:11:34Z</time>
      </trkpt>
      <trkpt lat="49.62701" lon="6.01654">
        <ele>307.5</ele>
        <time>2020-06-26T09:11:35Z</time>
      </trkpt>
      <trkpt lat="49.627" lon="6.01661">
        <ele>307.4</ele>
        <time>2020-06-26T09:11:36Z</time>
      </trkpt>
      <trkpt lat="49.627" lon="6.01671">
        <ele>307.2</ele>
        <time>2020-06-26T09:11:37Z</time>
      </trkpt>
      <trkpt lat="49.62699" lon="6.01678">
        <ele>307.1</ele>
        <time>2020-06-26T09:11:38Z</time>
      </trkpt>
      <trkpt lat="49.62699" lon="6.01684">
        <ele>306.9</ele>
        <time>2020-06-26T09:11:39Z</time>
      </trkpt>
      <trkpt lat="49.62698" lon="6.01693">
        <ele>306.8</ele>
        <time>2020-06-26T09:11:40Z</time>
      </trkpt>
      <trkpt lat="49.62698" lon="6.01699">
        <ele>306.8</ele>
        <time>2020-06-26T09:11:41Z</time>
      </trkpt>
      <trkpt lat="49.62698" lon="6.01708">
        <ele>306.7</ele>
        <time>2020-06-26T09:11:42Z</time>
      </trkpt>
      <trkpt lat="49.62698" lon="6.01715">
        <ele>306.6</ele>
        <time>2020-06-26T09:11:43Z</time>
      </trkpt>
      <trkpt lat="49.62699" lon="6.01724">
        <ele>306.5</ele>
        <time>2020-06-26T09:11:44Z</time>
      </trkpt>
      <trkpt lat="49.62699" lon="6.01733">
        <ele>306.4</ele>
        <time>2020-06-26T09:11:45Z</time>
      </trkpt>
      <trkpt lat="49.62699" lon="6.0174">
        <ele>306.4</ele>
        <time>2020-06-26T09:11:46Z</time>
      </trkpt>
      <trkpt lat="49.627" lon="6.01748">
        <ele>306.3</ele>
        <time>2020-06-26T09:11:47Z</time>
      </trkpt>
      <trkpt lat="49.627" lon="6.01756">
        <ele>306.2</ele>
        <time>2020-06-26T09:11:48Z</time>
      </trkpt>
      <trkpt lat="49.62701" lon="6.01762">
        <ele>306.1</ele>
        <time>2020-06-26T09:11:49Z</time>
      </trkpt>
      <trkpt lat="49.62701" lon="6.01768">
        <ele>306.1</ele>
        <time>2020-06-26T09:11:50Z</time>
      </trkpt>
      <trkpt lat="49.62699" lon="6.01773">
        <ele>306.1</ele>
        <time>2020-06-26T09:11:51Z</time>
      </trkpt>
      <trkpt lat="49.62697" lon="6.01778">
        <ele>306</ele>
        <time>2020-06-26T09:11:52Z</time>
      </trkpt>
      <trkpt lat="49.62697" lon="6.01779">
        <ele>305.4</ele>
        <time>2020-06-26T09:11:53Z</time>
      </trkpt>
      <trkpt lat="49.62696" lon="6.01782">
        <ele>305.4</ele>
        <time>2020-06-26T09:11:54Z</time>
      </trkpt>
      <trkpt lat="49.62696" lon="6.01785">
        <ele>305.4</ele>
        <time>2020-06-26T09:11:55Z</time>
      </trkpt>
      <trkpt lat="49.62696" lon="6.01784">
        <ele>305.4</ele>
        <time>2020-06-26T09:11:56Z</time>
      </trkpt>
      <trkpt lat="49.62696" lon="6.01785">
        <ele>305.4</ele>
        <time>2020-06-26T09:11:57Z</time>
      </trkpt>
      <trkpt lat="49.62696" lon="6.01787">
        <ele>305.4</ele>
        <time>2020-06-26T09:11:58Z</time>
      </trkpt>
      <trkpt lat="49.62696" lon="6.01786">
        <ele>305.4</ele>
        <time>2020-06-26T09:11:59Z</time>
      </trkpt>
      <trkpt lat="49.62696" lon="6.01787">
        <ele>305.4</ele>
        <time>2020-06-26T09:12:00Z</time>
      </trkpt>
      <trkpt lat="49.62696" lon="6.01788">
        <ele>305.4</ele>
        <time>2020-06-26T09:12:01Z</time>
      </trkpt>
      <trkpt lat="49.62696" lon="6.01789">
        <ele>305.4</ele>
        <time>2020-06-26T09:12:02Z</time>
      </trkpt>
      <trkpt lat="49.62698" lon="6.01794">
        <ele>305.4</ele>
        <time>2020-06-26T09:12:03Z</time>
      </trkpt>
      <trkpt lat="49.62699" lon="6.01797">
        <ele>305.4</ele>
        <time>2020-06-26T09:12:04Z</time>
      </trkpt>
      <trkpt lat="49.62701" lon="6.018">
        <ele>305.4</ele>
        <time>2020-06-26T09:12:05Z</time>
      </trkpt>
      <trkpt lat="49.62702" lon="6.01803">
        <ele>305.4</ele>
        <time>2020-06-26T09:12:06Z</time>
      </trkpt>
      <trkpt lat="49.62705" lon="6.01808">
        <ele>305.4</ele>
        <time>2020-06-26T09:12:07Z</time>
      </trkpt>
      <trkpt lat="49.62705" lon="6.0181">
        <ele>305.4</ele>
        <time>2020-06-26T09:12:08Z</time>
      </trkpt>
      <trkpt lat="49.62707" lon="6.01813">
        <ele>305.4</ele>
        <time>2020-06-26T09:12:09Z</time>
      </trkpt>
      <trkpt lat="49.6271" lon="6.01818">
        <ele>305.4</ele>
        <time>2020-06-26T09:12:10Z</time>
      </trkpt>
      <trkpt lat="49.62713" lon="6.01821">
        <ele>305.6</ele>
        <time>2020-06-26T09:12:11Z</time>
      </trkpt>
      <trkpt lat="49.62716" lon="6.01824">
        <ele>305.6</ele>
        <time>2020-06-26T09:12:12Z</time>
      </trkpt>
      <trkpt lat="49.62716" lon="6.01825">
        <ele>305.6</ele>
        <time>2020-06-26T09:12:13Z</time>
      </trkpt>
      <trkpt lat="49.62718" lon="6.0183">
        <ele>305.7</ele>
        <time>2020-06-26T09:12:14Z</time>
      </trkpt>
      <trkpt lat="49.62719" lon="6.01831">
        <ele>305.7</ele>
        <time>2020-06-26T09:12:15Z</time>
      </trkpt>
      <trkpt lat="49.6272" lon="6.01837">
        <ele>305.7</ele>
        <time>2020-06-26T09:12:16Z</time>
      </trkpt>
      <trkpt lat="49.6272" lon="6.01839">
        <ele>305.8</ele>
        <time>2020-06-26T09:12:17Z</time>
      </trkpt>
      <trkpt lat="49.62722" lon="6.01844">
        <ele>305.8</ele>
        <time>2020-06-26T09:12:18Z</time>
      </trkpt>
      <trkpt lat="49.62725" lon="6.0185">
        <ele>305.9</ele>
        <time>2020-06-26T09:12:19Z</time>
      </trkpt>
      <trkpt lat="49.62726" lon="6.01854">
        <ele>305.9</ele>
        <time>2020-06-26T09:12:20Z</time>
      </trkpt>
      <trkpt lat="49.62729" lon="6.0186">
        <ele>306.1</ele>
        <time>2020-06-26T09:12:21Z</time>
      </trkpt>
      <trkpt lat="49.62732" lon="6.01866">
        <ele>305.8</ele>
        <time>2020-06-26T09:12:22Z</time>
      </trkpt>
      <trkpt lat="49.62736" lon="6.01874">
        <ele>305.3</ele>
        <time>2020-06-26T09:12:23Z</time>
      </trkpt>
      <trkpt lat="49.62739" lon="6.01881">
        <ele>304.9</ele>
        <time>2020-06-26T09:12:24Z</time>
      </trkpt>
      <trkpt lat="49.62743" lon="6.01889">
        <ele>304.5</ele>
        <time>2020-06-26T09:12:25Z</time>
      </trkpt>
      <trkpt lat="49.62745" lon="6.01895">
        <ele>304.1</ele>
        <time>2020-06-26T09:12:26Z</time>
      </trkpt>
      <trkpt lat="49.62749" lon="6.01903">
        <ele>303.7</ele>
        <time>2020-06-26T09:12:27Z</time>
      </trkpt>
      <trkpt lat="49.62753" lon="6.01911">
        <ele>303.3</ele>
        <time>2020-06-26T09:12:28Z</time>
      </trkpt>
      <trkpt lat="49.62758" lon="6.0192">
        <ele>302.8</ele>
        <time>2020-06-26T09:12:29Z</time>
      </trkpt>
      <trkpt lat="49.62763" lon="6.01928">
        <ele>302.3</ele>
        <time>2020-06-26T09:12:30Z</time>
      </trkpt>
      <trkpt lat="49.62768" lon="6.01936">
        <ele>301.9</ele>
        <time>2020-06-26T09:12:31Z</time>
      </trkpt>
      <trkpt lat="49.62775" lon="6.01943">
        <ele>301.4</ele>
        <time>2020-06-26T09:12:32Z</time>
      </trkpt>
      <trkpt lat="49.62781" lon="6.01951">
        <ele>300.9</ele>
        <time>2020-06-26T09:12:33Z</time>
      </trkpt>
      <trkpt lat="49.62787" lon="6.01959">
        <ele>300.5</ele>
        <time>2020-06-26T09:12:34Z</time>
      </trkpt>
      <trkpt lat="49.62793" lon="6.01971">
        <ele>299.9</ele>
        <time>2020-06-26T09:12:35Z</time>
      </trkpt>
      <trkpt lat="49.62797" lon="6.01983">
        <ele>299.4</ele>
        <time>2020-06-26T09:12:36Z</time>
      </trkpt>
      <trkpt lat="49.62801" lon="6.01999">
        <ele>298.4</ele>
        <time>2020-06-26T09:12:37Z</time>
      </trkpt>
      <trkpt lat="49.62805" lon="6.02012">
        <ele>297.9</ele>
        <time>2020-06-26T09:12:38Z</time>
      </trkpt>
      <trkpt lat="49.62808" lon="6.02026">
        <ele>297.4</ele>
        <time>2020-06-26T09:12:39Z</time>
      </trkpt>
      <trkpt lat="49.62811" lon="6.02039">
        <ele>297</ele>
        <time>2020-06-26T09:12:40Z</time>
      </trkpt>
      <trkpt lat="49.62814" lon="6.02051">
        <ele>296.6</ele>
        <time>2020-06-26T09:12:41Z</time>
      </trkpt>
      <trkpt lat="49.62816" lon="6.02062">
        <ele>296.3</ele>
        <time>2020-06-26T09:12:42Z</time>
      </trkpt>
      <trkpt lat="49.62818" lon="6.02071">
        <ele>296</ele>
        <time>2020-06-26T09:12:43Z</time>
      </trkpt>
      <trkpt lat="49.62819" lon="6.02078">
        <ele>295.9</ele>
        <time>2020-06-26T09:12:44Z</time>
      </trkpt>
      <trkpt lat="49.62822" lon="6.02084">
        <ele>295.7</ele>
        <time>2020-06-26T09:12:45Z</time>
      </trkpt>
      <trkpt lat="49.62823" lon="6.0209">
        <ele>295.6</ele>
        <time>2020-06-26T09:12:46Z</time>
      </trkpt>
      <trkpt lat="49.62824" lon="6.02096">
        <ele>295.3</ele>
        <time>2020-06-26T09:12:47Z</time>
      </trkpt>
      <trkpt lat="49.62828" lon="6.02097">
        <ele>295.1</ele>
        <time>2020-06-26T09:12:48Z</time>
      </trkpt>
      <trkpt lat="49.6283" lon="6.02098">
        <ele>294.9</ele>
        <time>2020-06-26T09:12:49Z</time>
      </trkpt>
      <trkpt lat="49.62835" lon="6.02101">
        <ele>294.7</ele>
        <time>2020-06-26T09:12:50Z</time>
      </trkpt>
      <trkpt lat="49.6284" lon="6.02104">
        <ele>294.4</ele>
        <time>2020-06-26T09:12:51Z</time>
      </trkpt>
      <trkpt lat="49.62845" lon="6.02106">
        <ele>294.1</ele>
        <time>2020-06-26T09:12:52Z</time>
      </trkpt>
      <trkpt lat="49.62851" lon="6.02108">
        <ele>293.5</ele>
        <time>2020-06-26T09:12:53Z</time>
      </trkpt>
      <trkpt lat="49.62856" lon="6.0211">
        <ele>293.5</ele>
        <time>2020-06-26T09:12:54Z</time>
      </trkpt>
      <trkpt lat="49.62862" lon="6.0211">
        <ele>293.4</ele>
        <time>2020-06-26T09:12:55Z</time>
      </trkpt>
      <trkpt lat="49.62867" lon="6.0211">
        <ele>293.3</ele>
        <time>2020-06-26T09:12:56Z</time>
      </trkpt>
      <trkpt lat="49.62873" lon="6.02109">
        <ele>293.3</ele>
        <time>2020-06-26T09:12:57Z</time>
      </trkpt>
      <trkpt lat="49.62878" lon="6.0211">
        <ele>293.2</ele>
        <time>2020-06-26T09:12:58Z</time>
      </trkpt>
      <trkpt lat="49.62884" lon="6.02113">
        <ele>293.2</ele>
        <time>2020-06-26T09:12:59Z</time>
      </trkpt>
      <trkpt lat="49.6289" lon="6.02114">
        <ele>293.2</ele>
        <time>2020-06-26T09:13:00Z</time>
      </trkpt>
      <trkpt lat="49.62895" lon="6.02115">
        <ele>293.1</ele>
        <time>2020-06-26T09:13:01Z</time>
      </trkpt>
      <trkpt lat="49.629" lon="6.02115">
        <ele>293.1</ele>
        <time>2020-06-26T09:13:02Z</time>
      </trkpt>
      <trkpt lat="49.62906" lon="6.02115">
        <ele>293.1</ele>
        <time>2020-06-26T09:13:03Z</time>
      </trkpt>
      <trkpt lat="49.62911" lon="6.02114">
        <ele>292.9</ele>
        <time>2020-06-26T09:13:04Z</time>
      </trkpt>
      <trkpt lat="49.62916" lon="6.02116">
        <ele>292.8</ele>
        <time>2020-06-26T09:13:05Z</time>
      </trkpt>
      <trkpt lat="49.62922" lon="6.02115">
        <ele>292.7</ele>
        <time>2020-06-26T09:13:06Z</time>
      </trkpt>
      <trkpt lat="49.62927" lon="6.02116">
        <ele>292.6</ele>
        <time>2020-06-26T09:13:07Z</time>
      </trkpt>
      <trkpt lat="49.62932" lon="6.02114">
        <ele>292.5</ele>
        <time>2020-06-26T09:13:08Z</time>
      </trkpt>
      <trkpt lat="49.62938" lon="6.02112">
        <ele>292.6</ele>
        <time>2020-06-26T09:13:09Z</time>
      </trkpt>
      <trkpt lat="49.62943" lon="6.02109">
        <ele>292.6</ele>
        <time>2020-06-26T09:13:10Z</time>
      </trkpt>
      <trkpt lat="49.62947" lon="6.02107">
        <ele>292.7</ele>
        <time>2020-06-26T09:13:11Z</time>
      </trkpt>
      <trkpt lat="49.62951" lon="6.02104">
        <ele>292.7</ele>
        <time>2020-06-26T09:13:12Z</time>
      </trkpt>
      <trkpt lat="49.62955" lon="6.02103">
        <ele>292.8</ele>
        <time>2020-06-26T09:13:13Z</time>
      </trkpt>
      <trkpt lat="49.6296" lon="6.02102">
        <ele>292.9</ele>
        <time>2020-06-26T09:13:14Z</time>
      </trkpt>
      <trkpt lat="49.62964" lon="6.02103">
        <ele>293</ele>
        <time>2020-06-26T09:13:15Z</time>
      </trkpt>
      <trkpt lat="49.62968" lon="6.02102">
        <ele>293.1</ele>
        <time>2020-06-26T09:13:16Z</time>
      </trkpt>
      <trkpt lat="49.6297" lon="6.021">
        <ele>293.2</ele>
        <time>2020-06-26T09:13:17Z</time>
      </trkpt>
      <trkpt lat="49.62973" lon="6.02098">
        <ele>293.2</ele>
        <time>2020-06-26T09:13:18Z</time>
      </trkpt>
      <trkpt lat="49.62976" lon="6.02097">
        <ele>293.3</ele>
        <time>2020-06-26T09:13:19Z</time>
      </trkpt>
      <trkpt lat="49.6298" lon="6.02096">
        <ele>293.4</ele>
        <time>2020-06-26T09:13:20Z</time>
      </trkpt>
      <trkpt lat="49.62983" lon="6.02096">
        <ele>293.5</ele>
        <time>2020-06-26T09:13:21Z</time>
      </trkpt>
      <trkpt lat="49.62986" lon="6.02094">
        <ele>293.6</ele>
        <time>2020-06-26T09:13:22Z</time>
      </trkpt>
      <trkpt lat="49.62989" lon="6.02094">
        <ele>293.7</ele>
        <time>2020-06-26T09:13:23Z</time>
      </trkpt>
      <trkpt lat="49.62993" lon="6.02093">
        <ele>293.8</ele>
        <time>2020-06-26T09:13:24Z</time>
      </trkpt>
      <trkpt lat="49.62996" lon="6.02093">
        <ele>293.9</ele>
        <time>2020-06-26T09:13:25Z</time>
      </trkpt>
      <trkpt lat="49.63" lon="6.02093">
        <ele>294</ele>
        <time>2020-06-26T09:13:26Z</time>
      </trkpt>
      <trkpt lat="49.63003" lon="6.02092">
        <ele>294.3</ele>
        <time>2020-06-26T09:13:27Z</time>
      </trkpt>
      <trkpt lat="49.63006" lon="6.02094">
        <ele>294.4</ele>
        <time>2020-06-26T09:13:28Z</time>
      </trkpt>
      <trkpt lat="49.6301" lon="6.02094">
        <ele>294.6</ele>
        <time>2020-06-26T09:13:29Z</time>
      </trkpt>
      <trkpt lat="49.63014" lon="6.02095">
        <ele>294.9</ele>
        <time>2020-06-26T09:13:30Z</time>
      </trkpt>
      <trkpt lat="49.63018" lon="6.02095">
        <ele>295.2</ele>
        <time>2020-06-26T09:13:31Z</time>
      </trkpt>
      <trkpt lat="49.6302" lon="6.02096">
        <ele>295.4</ele>
        <time>2020-06-26T09:13:32Z</time>
      </trkpt>
      <trkpt lat="49.63026" lon="6.02098">
        <ele>295.8</ele>
        <time>2020-06-26T09:13:33Z</time>
      </trkpt>
      <trkpt lat="49.63029" lon="6.021">
        <ele>296.1</ele>
        <time>2020-06-26T09:13:34Z</time>
      </trkpt>
      <trkpt lat="49.63033" lon="6.02099">
        <ele>296.8</ele>
        <time>2020-06-26T09:13:35Z</time>
      </trkpt>
      <trkpt lat="49.63038" lon="6.02102">
        <ele>297.2</ele>
        <time>2020-06-26T09:13:36Z</time>
      </trkpt>
      <trkpt lat="49.63042" lon="6.02103">
        <ele>297.5</ele>
        <time>2020-06-26T09:13:37Z</time>
      </trkpt>
      <trkpt lat="49.63045" lon="6.02103">
        <ele>297.8</ele>
        <time>2020-06-26T09:13:38Z</time>
      </trkpt>
      <trkpt lat="49.63049" lon="6.02102">
        <ele>298.1</ele>
        <time>2020-06-26T09:13:39Z</time>
      </trkpt>
      <trkpt lat="49.63053" lon="6.02102">
        <ele>298.4</ele>
        <time>2020-06-26T09:13:40Z</time>
      </trkpt>
      <trkpt lat="49.63057" lon="6.02102">
        <ele>298.6</ele>
        <time>2020-06-26T09:13:41Z</time>
      </trkpt>
      <trkpt lat="49.63058" lon="6.02102">
        <ele>298.7</ele>
        <time>2020-06-26T09:13:42Z</time>
      </trkpt>
      <trkpt lat="49.63062" lon="6.02103">
        <ele>298.9</ele>
        <time>2020-06-26T09:13:43Z</time>
      </trkpt>
      <trkpt lat="49.63065" lon="6.02101">
        <ele>299.1</ele>
        <time>2020-06-26T09:13:44Z</time>
      </trkpt>
      <trkpt lat="49.63069" lon="6.02101">
        <ele>299.4</ele>
        <time>2020-06-26T09:13:45Z</time>
      </trkpt>
      <trkpt lat="49.63072" lon="6.02102">
        <ele>299.6</ele>
        <time>2020-06-26T09:13:46Z</time>
      </trkpt>
      <trkpt lat="49.63076" lon="6.02102">
        <ele>299.8</ele>
        <time>2020-06-26T09:13:47Z</time>
      </trkpt>
      <trkpt lat="49.63078" lon="6.02102">
        <ele>299.9</ele>
        <time>2020-06-26T09:13:48Z</time>
      </trkpt>
      <trkpt lat="49.63081" lon="6.021">
        <ele>300.1</ele>
        <time>2020-06-26T09:13:49Z</time>
      </trkpt>
      <trkpt lat="49.63084" lon="6.02099">
        <ele>300.3</ele>
        <time>2020-06-26T09:13:50Z</time>
      </trkpt>
      <trkpt lat="49.63087" lon="6.02098">
        <ele>300.5</ele>
        <time>2020-06-26T09:13:51Z</time>
      </trkpt>
      <trkpt lat="49.63091" lon="6.02097">
        <ele>300.8</ele>
        <time>2020-06-26T09:13:52Z</time>
      </trkpt>
      <trkpt lat="49.63094" lon="6.02096">
        <ele>301</ele>
        <time>2020-06-26T09:13:53Z</time>
      </trkpt>
      <trkpt lat="49.63097" lon="6.02093">
        <ele>301.2</ele>
        <time>2020-06-26T09:13:54Z</time>
      </trkpt>
      <trkpt lat="49.63101" lon="6.02092">
        <ele>301.5</ele>
        <time>2020-06-26T09:13:55Z</time>
      </trkpt>
      <trkpt lat="49.63104" lon="6.02092">
        <ele>301.7</ele>
        <time>2020-06-26T09:13:56Z</time>
      </trkpt>
      <trkpt lat="49.63108" lon="6.02091">
        <ele>302</ele>
        <time>2020-06-26T09:13:57Z</time>
      </trkpt>
      <trkpt lat="49.6311" lon="6.0209">
        <ele>302.4</ele>
        <time>2020-06-26T09:13:58Z</time>
      </trkpt>
      <trkpt lat="49.63114" lon="6.02091">
        <ele>302.6</ele>
        <time>2020-06-26T09:13:59Z</time>
      </trkpt>
      <trkpt lat="49.63118" lon="6.02092">
        <ele>302.8</ele>
        <time>2020-06-26T09:14:00Z</time>
      </trkpt>
      <trkpt lat="49.63122" lon="6.02093">
        <ele>303</ele>
        <time>2020-06-26T09:14:01Z</time>
      </trkpt>
      <trkpt lat="49.63126" lon="6.02095">
        <ele>303.2</ele>
        <time>2020-06-26T09:14:02Z</time>
      </trkpt>
      <trkpt lat="49.6313" lon="6.02098">
        <ele>303.4</ele>
        <time>2020-06-26T09:14:03Z</time>
      </trkpt>
      <trkpt lat="49.63131" lon="6.02099">
        <ele>303.5</ele>
        <time>2020-06-26T09:14:04Z</time>
      </trkpt>
      <trkpt lat="49.63135" lon="6.021">
        <ele>303.7</ele>
        <time>2020-06-26T09:14:05Z</time>
      </trkpt>
      <trkpt lat="49.63137" lon="6.02102">
        <ele>303.8</ele>
        <time>2020-06-26T09:14:06Z</time>
      </trkpt>
      <trkpt lat="49.63141" lon="6.02102">
        <ele>304</ele>
        <time>2020-06-26T09:14:07Z</time>
      </trkpt>
      <trkpt lat="49.63145" lon="6.02104">
        <ele>304.2</ele>
        <time>2020-06-26T09:14:08Z</time>
      </trkpt>
      <trkpt lat="49.63148" lon="6.02105">
        <ele>304.4</ele>
        <time>2020-06-26T09:14:09Z</time>
      </trkpt>
      <trkpt lat="49.63151" lon="6.02106">
        <ele>304.6</ele>
        <time>2020-06-26T09:14:10Z</time>
      </trkpt>
      <trkpt lat="49.63154" lon="6.02106">
        <ele>304.8</ele>
        <time>2020-06-26T09:14:11Z</time>
      </trkpt>
      <trkpt lat="49.63157" lon="6.02107">
        <ele>305</ele>
        <time>2020-06-26T09:14:12Z</time>
      </trkpt>
      <trkpt lat="49.6316" lon="6.02106">
        <ele>305.2</ele>
        <time>2020-06-26T09:14:13Z</time>
      </trkpt>
      <trkpt lat="49.63162" lon="6.02107">
        <ele>305.4</ele>
        <time>2020-06-26T09:14:14Z</time>
      </trkpt>
      <trkpt lat="49.63166" lon="6.02106">
        <ele>305.6</ele>
        <time>2020-06-26T09:14:15Z</time>
      </trkpt>
      <trkpt lat="49.63171" lon="6.02108">
        <ele>306</ele>
        <time>2020-06-26T09:14:16Z</time>
      </trkpt>
      <trkpt lat="49.63173" lon="6.02108">
        <ele>306.1</ele>
        <time>2020-06-26T09:14:17Z</time>
      </trkpt>
      <trkpt lat="49.63177" lon="6.02111">
        <ele>306.4</ele>
        <time>2020-06-26T09:14:18Z</time>
      </trkpt>
      <trkpt lat="49.6318" lon="6.02113">
        <ele>306.7</ele>
        <time>2020-06-26T09:14:19Z</time>
      </trkpt>
      <trkpt lat="49.63182" lon="6.02118">
        <ele>306.9</ele>
        <time>2020-06-26T09:14:20Z</time>
      </trkpt>
      <trkpt lat="49.63183" lon="6.0212">
        <ele>307.1</ele>
        <time>2020-06-26T09:14:21Z</time>
      </trkpt>
      <trkpt lat="49.63182" lon="6.02121">
        <ele>307.1</ele>
        <time>2020-06-26T09:14:22Z</time>
      </trkpt>
      <trkpt lat="49.6318" lon="6.02123">
        <ele>307.1</ele>
        <time>2020-06-26T09:14:23Z</time>
      </trkpt>
      <trkpt lat="49.63178" lon="6.02129">
        <ele>307</ele>
        <time>2020-06-26T09:14:24Z</time>
      </trkpt>
      <trkpt lat="49.63177" lon="6.02131">
        <ele>307</ele>
        <time>2020-06-26T09:14:25Z</time>
      </trkpt>
      <trkpt lat="49.63174" lon="6.02135">
        <ele>307</ele>
        <time>2020-06-26T09:14:26Z</time>
      </trkpt>
      <trkpt lat="49.63172" lon="6.02141">
        <ele>306.9</ele>
        <time>2020-06-26T09:14:27Z</time>
      </trkpt>
      <trkpt lat="49.63171" lon="6.02143">
        <ele>306.9</ele>
        <time>2020-06-26T09:14:28Z</time>
      </trkpt>
      <trkpt lat="49.63169" lon="6.02149">
        <ele>306.9</ele>
        <time>2020-06-26T09:14:29Z</time>
      </trkpt>
      <trkpt lat="49.63168" lon="6.02151">
        <ele>306.8</ele>
        <time>2020-06-26T09:14:30Z</time>
      </trkpt>
      <trkpt lat="49.63166" lon="6.02158">
        <ele>307</ele>
        <time>2020-06-26T09:14:31Z</time>
      </trkpt>
      <trkpt lat="49.63165" lon="6.02161">
        <ele>307.1</ele>
        <time>2020-06-26T09:14:32Z</time>
      </trkpt>
      <trkpt lat="49.63162" lon="6.02167">
        <ele>307.1</ele>
        <time>2020-06-26T09:14:33Z</time>
      </trkpt>
      <trkpt lat="49.63159" lon="6.02174">
        <ele>306.8</ele>
        <time>2020-06-26T09:14:34Z</time>
      </trkpt>
      <trkpt lat="49.63156" lon="6.0218">
        <ele>306.5</ele>
        <time>2020-06-26T09:14:35Z</time>
      </trkpt>
      <trkpt lat="49.63154" lon="6.02185">
        <ele>306.3</ele>
        <time>2020-06-26T09:14:36Z</time>
      </trkpt>
      <trkpt lat="49.6315" lon="6.02192">
        <ele>306</ele>
        <time>2020-06-26T09:14:37Z</time>
      </trkpt>
      <trkpt lat="49.63147" lon="6.02199">
        <ele>305.8</ele>
        <time>2020-06-26T09:14:38Z</time>
      </trkpt>
      <trkpt lat="49.63145" lon="6.02204">
        <ele>305.8</ele>
        <time>2020-06-26T09:14:39Z</time>
      </trkpt>
      <trkpt lat="49.63143" lon="6.0221">
        <ele>305.8</ele>
        <time>2020-06-26T09:14:40Z</time>
      </trkpt>
      <trkpt lat="49.6314" lon="6.02218">
        <ele>305.8</ele>
        <time>2020-06-26T09:14:41Z</time>
      </trkpt>
      <trkpt lat="49.63137" lon="6.02224">
        <ele>305.8</ele>
        <time>2020-06-26T09:14:42Z</time>
      </trkpt>
      <trkpt lat="49.63134" lon="6.0223">
        <ele>305.8</ele>
        <time>2020-06-26T09:14:43Z</time>
      </trkpt>
      <trkpt lat="49.6313" lon="6.02236">
        <ele>305.8</ele>
        <time>2020-06-26T09:14:44Z</time>
      </trkpt>
      <trkpt lat="49.63127" lon="6.02242">
        <ele>305.8</ele>
        <time>2020-06-26T09:14:45Z</time>
      </trkpt>
      <trkpt lat="49.63125" lon="6.02249">
        <ele>305.8</ele>
        <time>2020-06-26T09:14:46Z</time>
      </trkpt>
      <trkpt lat="49.63122" lon="6.02255">
        <ele>305.9</ele>
        <time>2020-06-26T09:14:47Z</time>
      </trkpt>
      <trkpt lat="49.63119" lon="6.0226">
        <ele>305.9</ele>
        <time>2020-06-26T09:14:48Z</time>
      </trkpt>
      <trkpt lat="49.63115" lon="6.02267">
        <ele>306</ele>
        <time>2020-06-26T09:14:49Z</time>
      </trkpt>
      <trkpt lat="49.63112" lon="6.02273">
        <ele>306</ele>
        <time>2020-06-26T09:14:50Z</time>
      </trkpt>
      <trkpt lat="49.63109" lon="6.02279">
        <ele>306</ele>
        <time>2020-06-26T09:14:51Z</time>
      </trkpt>
      <trkpt lat="49.63105" lon="6.02285">
        <ele>306</ele>
        <time>2020-06-26T09:14:52Z</time>
      </trkpt>
      <trkpt lat="49.63103" lon="6.0229">
        <ele>306</ele>
        <time>2020-06-26T09:14:53Z</time>
      </trkpt>
      <trkpt lat="49.63101" lon="6.02296">
        <ele>306</ele>
        <time>2020-06-26T09:14:54Z</time>
      </trkpt>
      <trkpt lat="49.631" lon="6.02301">
        <ele>306</ele>
        <time>2020-06-26T09:14:55Z</time>
      </trkpt>
      <trkpt lat="49.63097" lon="6.02306">
        <ele>306</ele>
        <time>2020-06-26T09:14:56Z</time>
      </trkpt>
      <trkpt lat="49.63096" lon="6.02312">
        <ele>305.9</ele>
        <time>2020-06-26T09:14:57Z</time>
      </trkpt>
      <trkpt lat="49.63094" lon="6.02317">
        <ele>305.9</ele>
        <time>2020-06-26T09:14:58Z</time>
      </trkpt>
      <trkpt lat="49.63092" lon="6.02321">
        <ele>305.8</ele>
        <time>2020-06-26T09:14:59Z</time>
      </trkpt>
      <trkpt lat="49.6309" lon="6.02325">
        <ele>305.8</ele>
        <time>2020-06-26T09:15:00Z</time>
      </trkpt>
      <trkpt lat="49.63088" lon="6.02331">
        <ele>305.7</ele>
        <time>2020-06-26T09:15:01Z</time>
      </trkpt>
      <trkpt lat="49.63085" lon="6.02337">
        <ele>305.7</ele>
        <time>2020-06-26T09:15:02Z</time>
      </trkpt>
      <trkpt lat="49.63082" lon="6.02343">
        <ele>305.6</ele>
        <time>2020-06-26T09:15:03Z</time>
      </trkpt>
      <trkpt lat="49.6308" lon="6.02348">
        <ele>305.5</ele>
        <time>2020-06-26T09:15:04Z</time>
      </trkpt>
      <trkpt lat="49.63077" lon="6.02352">
        <ele>305.4</ele>
        <time>2020-06-26T09:15:05Z</time>
      </trkpt>
      <trkpt lat="49.63075" lon="6.02359">
        <ele>305.3</ele>
        <time>2020-06-26T09:15:06Z</time>
      </trkpt>
      <trkpt lat="49.63072" lon="6.02365">
        <ele>305.2</ele>
        <time>2020-06-26T09:15:07Z</time>
      </trkpt>
      <trkpt lat="49.6307" lon="6.02372">
        <ele>305.1</ele>
        <time>2020-06-26T09:15:08Z</time>
      </trkpt>
      <trkpt lat="49.63067" lon="6.02378">
        <ele>305</ele>
        <time>2020-06-26T09:15:09Z</time>
      </trkpt>
      <trkpt lat="49.63065" lon="6.02385">
        <ele>304.8</ele>
        <time>2020-06-26T09:15:10Z</time>
      </trkpt>
      <trkpt lat="49.63062" lon="6.02392">
        <ele>304.7</ele>
        <time>2020-06-26T09:15:11Z</time>
      </trkpt>
      <trkpt lat="49.6306" lon="6.02399">
        <ele>304.5</ele>
        <time>2020-06-26T09:15:12Z</time>
      </trkpt>
      <trkpt lat="49.63056" lon="6.02407">
        <ele>304.3</ele>
        <time>2020-06-26T09:15:13Z</time>
      </trkpt>
      <trkpt lat="49.63053" lon="6.02416">
        <ele>304.2</ele>
        <time>2020-06-26T09:15:14Z</time>
      </trkpt>
      <trkpt lat="49.6305" lon="6.02424">
        <ele>304</ele>
        <time>2020-06-26T09:15:15Z</time>
      </trkpt>
      <trkpt lat="49.63046" lon="6.02433">
        <ele>303.9</ele>
        <time>2020-06-26T09:15:16Z</time>
      </trkpt>
      <trkpt lat="49.63043" lon="6.02444">
        <ele>303.7</ele>
        <time>2020-06-26T09:15:17Z</time>
      </trkpt>
      <trkpt lat="49.6304" lon="6.02452">
        <ele>303.6</ele>
        <time>2020-06-26T09:15:18Z</time>
      </trkpt>
      <trkpt lat="49.63036" lon="6.0246">
        <ele>303.4</ele>
        <time>2020-06-26T09:15:19Z</time>
      </trkpt>
      <trkpt lat="49.63033" lon="6.02466">
        <ele>303.3</ele>
        <time>2020-06-26T09:15:20Z</time>
      </trkpt>
      <trkpt lat="49.6303" lon="6.02475">
        <ele>303.1</ele>
        <time>2020-06-26T09:15:21Z</time>
      </trkpt>
      <trkpt lat="49.63027" lon="6.02484">
        <ele>302.9</ele>
        <time>2020-06-26T09:15:22Z</time>
      </trkpt>
      <trkpt lat="49.63025" lon="6.0249">
        <ele>302.8</ele>
        <time>2020-06-26T09:15:23Z</time>
      </trkpt>
      <trkpt lat="49.63023" lon="6.02496">
        <ele>302.7</ele>
        <time>2020-06-26T09:15:24Z</time>
      </trkpt>
      <trkpt lat="49.63021" lon="6.02502">
        <ele>302.5</ele>
        <time>2020-06-26T09:15:25Z</time>
      </trkpt>
      <trkpt lat="49.63017" lon="6.0251">
        <ele>302.4</ele>
        <time>2020-06-26T09:15:26Z</time>
      </trkpt>
      <trkpt lat="49.63013" lon="6.02517">
        <ele>302.3</ele>
        <time>2020-06-26T09:15:27Z</time>
      </trkpt>
      <trkpt lat="49.63011" lon="6.02526">
        <ele>302.1</ele>
        <time>2020-06-26T09:15:28Z</time>
      </trkpt>
      <trkpt lat="49.63008" lon="6.02533">
        <ele>302</ele>
        <time>2020-06-26T09:15:29Z</time>
      </trkpt>
      <trkpt lat="49.63004" lon="6.02541">
        <ele>301.8</ele>
        <time>2020-06-26T09:15:30Z</time>
      </trkpt>
      <trkpt lat="49.62999" lon="6.02548">
        <ele>301.6</ele>
        <time>2020-06-26T09:15:31Z</time>
      </trkpt>
      <trkpt lat="49.62995" lon="6.02557">
        <ele>301.3</ele>
        <time>2020-06-26T09:15:32Z</time>
      </trkpt>
      <trkpt lat="49.62992" lon="6.02564">
        <ele>301.1</ele>
        <time>2020-06-26T09:15:33Z</time>
      </trkpt>
      <trkpt lat="49.6299" lon="6.02571">
        <ele>301.2</ele>
        <time>2020-06-26T09:15:34Z</time>
      </trkpt>
      <trkpt lat="49.62987" lon="6.02581">
        <ele>301.1</ele>
        <time>2020-06-26T09:15:35Z</time>
      </trkpt>
      <trkpt lat="49.62984" lon="6.02589">
        <ele>300.9</ele>
        <time>2020-06-26T09:15:36Z</time>
      </trkpt>
      <trkpt lat="49.62982" lon="6.02595">
        <ele>300.7</ele>
        <time>2020-06-26T09:15:37Z</time>
      </trkpt>
      <trkpt lat="49.6298" lon="6.02602">
        <ele>300.5</ele>
        <time>2020-06-26T09:15:38Z</time>
      </trkpt>
      <trkpt lat="49.62977" lon="6.02609">
        <ele>300.3</ele>
        <time>2020-06-26T09:15:39Z</time>
      </trkpt>
      <trkpt lat="49.62974" lon="6.02615">
        <ele>300.1</ele>
        <time>2020-06-26T09:15:40Z</time>
      </trkpt>
      <trkpt lat="49.6297" lon="6.02625">
        <ele>299.8</ele>
        <time>2020-06-26T09:15:41Z</time>
      </trkpt>
      <trkpt lat="49.62966" lon="6.02636">
        <ele>299.4</ele>
        <time>2020-06-26T09:15:42Z</time>
      </trkpt>
      <trkpt lat="49.6296" lon="6.02644">
        <ele>299.1</ele>
        <time>2020-06-26T09:15:43Z</time>
      </trkpt>
      <trkpt lat="49.62956" lon="6.02653">
        <ele>298.9</ele>
        <time>2020-06-26T09:15:44Z</time>
      </trkpt>
      <trkpt lat="49.62953" lon="6.02662">
        <ele>298.7</ele>
        <time>2020-06-26T09:15:45Z</time>
      </trkpt>
      <trkpt lat="49.6295" lon="6.0267">
        <ele>298.5</ele>
        <time>2020-06-26T09:15:46Z</time>
      </trkpt>
      <trkpt lat="49.62947" lon="6.02678">
        <ele>298.3</ele>
        <time>2020-06-26T09:15:47Z</time>
      </trkpt>
      <trkpt lat="49.62943" lon="6.02687">
        <ele>298</ele>
        <time>2020-06-26T09:15:48Z</time>
      </trkpt>
      <trkpt lat="49.6294" lon="6.02695">
        <ele>297.8</ele>
        <time>2020-06-26T09:15:49Z</time>
      </trkpt>
      <trkpt lat="49.62936" lon="6.02703">
        <ele>297.6</ele>
        <time>2020-06-26T09:15:50Z</time>
      </trkpt>
      <trkpt lat="49.62933" lon="6.02711">
        <ele>297.4</ele>
        <time>2020-06-26T09:15:51Z</time>
      </trkpt>
      <trkpt lat="49.6293" lon="6.02719">
        <ele>297.2</ele>
        <time>2020-06-26T09:15:52Z</time>
      </trkpt>
      <trkpt lat="49.62928" lon="6.02727">
        <ele>297</ele>
        <time>2020-06-26T09:15:53Z</time>
      </trkpt>
      <trkpt lat="49.62925" lon="6.02735">
        <ele>296.9</ele>
        <time>2020-06-26T09:15:54Z</time>
      </trkpt>
      <trkpt lat="49.62923" lon="6.02742">
        <ele>296.8</ele>
        <time>2020-06-26T09:15:55Z</time>
      </trkpt>
      <trkpt lat="49.62921" lon="6.02749">
        <ele>296.6</ele>
        <time>2020-06-26T09:15:56Z</time>
      </trkpt>
      <trkpt lat="49.62918" lon="6.02755">
        <ele>296.5</ele>
        <time>2020-06-26T09:15:57Z</time>
      </trkpt>
      <trkpt lat="49.62915" lon="6.02761">
        <ele>296.3</ele>
        <time>2020-06-26T09:15:58Z</time>
      </trkpt>
      <trkpt lat="49.62912" lon="6.02768">
        <ele>296.2</ele>
        <time>2020-06-26T09:15:59Z</time>
      </trkpt>
      <trkpt lat="49.62909" lon="6.02775">
        <ele>296.1</ele>
        <time>2020-06-26T09:16:00Z</time>
      </trkpt>
      <trkpt lat="49.62906" lon="6.02782">
        <ele>296</ele>
        <time>2020-06-26T09:16:01Z</time>
      </trkpt>
      <trkpt lat="49.62903" lon="6.02789">
        <ele>295.9</ele>
        <time>2020-06-26T09:16:02Z</time>
      </trkpt>
      <trkpt lat="49.62899" lon="6.02797">
        <ele>295.7</ele>
        <time>2020-06-26T09:16:03Z</time>
      </trkpt>
      <trkpt lat="49.62896" lon="6.02805">
        <ele>295.6</ele>
        <time>2020-06-26T09:16:04Z</time>
      </trkpt>
      <trkpt lat="49.62893" lon="6.02813">
        <ele>295.4</ele>
        <time>2020-06-26T09:16:05Z</time>
      </trkpt>
      <trkpt lat="49.62889" lon="6.02821">
        <ele>295.2</ele>
        <time>2020-06-26T09:16:06Z</time>
      </trkpt>
      <trkpt lat="49.62886" lon="6.0283">
        <ele>295.1</ele>
        <time>2020-06-26T09:16:07Z</time>
      </trkpt>
      <trkpt lat="49.62883" lon="6.02838">
        <ele>294.9</ele>
        <time>2020-06-26T09:16:08Z</time>
      </trkpt>
      <trkpt lat="49.62879" lon="6.02847">
        <ele>294.7</ele>
        <time>2020-06-26T09:16:09Z</time>
      </trkpt>
      <trkpt lat="49.62876" lon="6.02855">
        <ele>294.5</ele>
        <time>2020-06-26T09:16:10Z</time>
      </trkpt>
      <trkpt lat="49.62873" lon="6.02863">
        <ele>294.4</ele>
        <time>2020-06-26T09:16:11Z</time>
      </trkpt>
      <trkpt lat="49.6287" lon="6.0287">
        <ele>294.2</ele>
        <time>2020-06-26T09:16:12Z</time>
      </trkpt>
      <trkpt lat="49.62868" lon="6.02878">
        <ele>294</ele>
        <time>2020-06-26T09:16:13Z</time>
      </trkpt>
      <trkpt lat="49.62866" lon="6.02885">
        <ele>293.8</ele>
        <time>2020-06-26T09:16:14Z</time>
      </trkpt>
      <trkpt lat="49.62863" lon="6.02893">
        <ele>293.7</ele>
        <time>2020-06-26T09:16:15Z</time>
      </trkpt>
      <trkpt lat="49.62859" lon="6.029">
        <ele>293.5</ele>
        <time>2020-06-26T09:16:16Z</time>
      </trkpt>
      <trkpt lat="49.62855" lon="6.02906">
        <ele>293.2</ele>
        <time>2020-06-26T09:16:17Z</time>
      </trkpt>
      <trkpt lat="49.62852" lon="6.02912">
        <ele>293</ele>
        <time>2020-06-26T09:16:18Z</time>
      </trkpt>
      <trkpt lat="49.62849" lon="6.02918">
        <ele>292.9</ele>
        <time>2020-06-26T09:16:19Z</time>
      </trkpt>
      <trkpt lat="49.62846" lon="6.02926">
        <ele>292.7</ele>
        <time>2020-06-26T09:16:20Z</time>
      </trkpt>
      <trkpt lat="49.62844" lon="6.02934">
        <ele>292.5</ele>
        <time>2020-06-26T09:16:21Z</time>
      </trkpt>
      <trkpt lat="49.62841" lon="6.02942">
        <ele>292.3</ele>
        <time>2020-06-26T09:16:22Z</time>
      </trkpt>
      <trkpt lat="49.62837" lon="6.0295">
        <ele>292.1</ele>
        <time>2020-06-26T09:16:23Z</time>
      </trkpt>
      <trkpt lat="49.62834" lon="6.02958">
        <ele>291.8</ele>
        <time>2020-06-26T09:16:24Z</time>
      </trkpt>
      <trkpt lat="49.6283" lon="6.02966">
        <ele>291.6</ele>
        <time>2020-06-26T09:16:25Z</time>
      </trkpt>
      <trkpt lat="49.62827" lon="6.02975">
        <ele>291.4</ele>
        <time>2020-06-26T09:16:26Z</time>
      </trkpt>
      <trkpt lat="49.62824" lon="6.02985">
        <ele>291.1</ele>
        <time>2020-06-26T09:16:27Z</time>
      </trkpt>
      <trkpt lat="49.62821" lon="6.02994">
        <ele>290.9</ele>
        <time>2020-06-26T09:16:28Z</time>
      </trkpt>
      <trkpt lat="49.62818" lon="6.03003">
        <ele>290.8</ele>
        <time>2020-06-26T09:16:29Z</time>
      </trkpt>
      <trkpt lat="49.62814" lon="6.03011">
        <ele>290.6</ele>
        <time>2020-06-26T09:16:30Z</time>
      </trkpt>
      <trkpt lat="49.6281" lon="6.0302">
        <ele>290.5</ele>
        <time>2020-06-26T09:16:31Z</time>
      </trkpt>
      <trkpt lat="49.62807" lon="6.03029">
        <ele>290.4</ele>
        <time>2020-06-26T09:16:32Z</time>
      </trkpt>
      <trkpt lat="49.62804" lon="6.03037">
        <ele>290.3</ele>
        <time>2020-06-26T09:16:33Z</time>
      </trkpt>
      <trkpt lat="49.628" lon="6.03045">
        <ele>290.1</ele>
        <time>2020-06-26T09:16:34Z</time>
      </trkpt>
      <trkpt lat="49.62796" lon="6.03053">
        <ele>290</ele>
        <time>2020-06-26T09:16:35Z</time>
      </trkpt>
      <trkpt lat="49.62793" lon="6.03062">
        <ele>289.9</ele>
        <time>2020-06-26T09:16:36Z</time>
      </trkpt>
      <trkpt lat="49.62789" lon="6.0307">
        <ele>289.8</ele>
        <time>2020-06-26T09:16:37Z</time>
      </trkpt>
      <trkpt lat="49.62786" lon="6.03078">
        <ele>289.8</ele>
        <time>2020-06-26T09:16:38Z</time>
      </trkpt>
      <trkpt lat="49.62782" lon="6.03086">
        <ele>289.7</ele>
        <time>2020-06-26T09:16:39Z</time>
      </trkpt>
      <trkpt lat="49.62778" lon="6.03094">
        <ele>289.7</ele>
        <time>2020-06-26T09:16:40Z</time>
      </trkpt>
      <trkpt lat="49.62774" lon="6.03102">
        <ele>289.6</ele>
        <time>2020-06-26T09:16:41Z</time>
      </trkpt>
      <trkpt lat="49.62772" lon="6.03111">
        <ele>289.6</ele>
        <time>2020-06-26T09:16:42Z</time>
      </trkpt>
      <trkpt lat="49.62769" lon="6.03119">
        <ele>289.6</ele>
        <time>2020-06-26T09:16:43Z</time>
      </trkpt>
      <trkpt lat="49.62767" lon="6.03128">
        <ele>289.5</ele>
        <time>2020-06-26T09:16:44Z</time>
      </trkpt>
      <trkpt lat="49.62764" lon="6.03137">
        <ele>289.5</ele>
        <time>2020-06-26T09:16:45Z</time>
      </trkpt>
      <trkpt lat="49.62761" lon="6.03145">
        <ele>289.4</ele>
        <time>2020-06-26T09:16:46Z</time>
      </trkpt>
      <trkpt lat="49.62759" lon="6.03153">
        <ele>289.2</ele>
        <time>2020-06-26T09:16:47Z</time>
      </trkpt>
      <trkpt lat="49.62756" lon="6.0316">
        <ele>289.1</ele>
        <time>2020-06-26T09:16:48Z</time>
      </trkpt>
      <trkpt lat="49.62753" lon="6.03167">
        <ele>288.9</ele>
        <time>2020-06-26T09:16:49Z</time>
      </trkpt>
      <trkpt lat="49.62751" lon="6.03173">
        <ele>288.9</ele>
        <time>2020-06-26T09:16:50Z</time>
      </trkpt>
      <trkpt lat="49.62748" lon="6.03178">
        <ele>288.9</ele>
        <time>2020-06-26T09:16:51Z</time>
      </trkpt>
      <trkpt lat="49.62745" lon="6.03182">
        <ele>288.9</ele>
        <time>2020-06-26T09:16:52Z</time>
      </trkpt>
      <trkpt lat="49.62742" lon="6.03187">
        <ele>288.9</ele>
        <time>2020-06-26T09:16:53Z</time>
      </trkpt>
      <trkpt lat="49.62739" lon="6.03192">
        <ele>288.9</ele>
        <time>2020-06-26T09:16:54Z</time>
      </trkpt>
      <trkpt lat="49.62736" lon="6.03196">
        <ele>288.9</ele>
        <time>2020-06-26T09:16:55Z</time>
      </trkpt>
      <trkpt lat="49.62733" lon="6.03201">
        <ele>288.9</ele>
        <time>2020-06-26T09:16:56Z</time>
      </trkpt>
      <trkpt lat="49.62731" lon="6.03206">
        <ele>289</ele>
        <time>2020-06-26T09:16:57Z</time>
      </trkpt>
      <trkpt lat="49.62728" lon="6.03209">
        <ele>289.1</ele>
        <time>2020-06-26T09:16:58Z</time>
      </trkpt>
      <trkpt lat="49.62724" lon="6.0321">
        <ele>289.3</ele>
        <time>2020-06-26T09:16:59Z</time>
      </trkpt>
      <trkpt lat="49.62721" lon="6.03209">
        <ele>289.4</ele>
        <time>2020-06-26T09:17:00Z</time>
      </trkpt>
      <trkpt lat="49.62716" lon="6.0321">
        <ele>289.5</ele>
        <time>2020-06-26T09:17:01Z</time>
      </trkpt>
      <trkpt lat="49.62712" lon="6.03211">
        <ele>289.5</ele>
        <time>2020-06-26T09:17:02Z</time>
      </trkpt>
      <trkpt lat="49.62708" lon="6.03212">
        <ele>289.6</ele>
        <time>2020-06-26T09:17:03Z</time>
      </trkpt>
      <trkpt lat="49.62705" lon="6.03213">
        <ele>289.5</ele>
        <time>2020-06-26T09:17:04Z</time>
      </trkpt>
      <trkpt lat="49.62702" lon="6.03217">
        <ele>289.5</ele>
        <time>2020-06-26T09:17:05Z</time>
      </trkpt>
      <trkpt lat="49.62701" lon="6.03223">
        <ele>289.5</ele>
        <time>2020-06-26T09:17:06Z</time>
      </trkpt>
      <trkpt lat="49.62701" lon="6.03229">
        <ele>289.4</ele>
        <time>2020-06-26T09:17:07Z</time>
      </trkpt>
      <trkpt lat="49.62701" lon="6.03235">
        <ele>289.4</ele>
        <time>2020-06-26T09:17:08Z</time>
      </trkpt>
      <trkpt lat="49.62701" lon="6.03242">
        <ele>289.4</ele>
        <time>2020-06-26T09:17:09Z</time>
      </trkpt>
      <trkpt lat="49.627" lon="6.03247">
        <ele>289.4</ele>
        <time>2020-06-26T09:17:10Z</time>
      </trkpt>
      <trkpt lat="49.62697" lon="6.03253">
        <ele>289.4</ele>
        <time>2020-06-26T09:17:11Z</time>
      </trkpt>
      <trkpt lat="49.62695" lon="6.0326">
        <ele>289.4</ele>
        <time>2020-06-26T09:17:12Z</time>
      </trkpt>
      <trkpt lat="49.62692" lon="6.03267">
        <ele>289.7</ele>
        <time>2020-06-26T09:17:13Z</time>
      </trkpt>
      <trkpt lat="49.62689" lon="6.03274">
        <ele>289.4</ele>
        <time>2020-06-26T09:17:14Z</time>
      </trkpt>
      <trkpt lat="49.62686" lon="6.03281">
        <ele>289.2</ele>
        <time>2020-06-26T09:17:15Z</time>
      </trkpt>
      <trkpt lat="49.62684" lon="6.03288">
        <ele>289</ele>
        <time>2020-06-26T09:17:16Z</time>
      </trkpt>
      <trkpt lat="49.62681" lon="6.03293">
        <ele>288.6</ele>
        <time>2020-06-26T09:17:17Z</time>
      </trkpt>
      <trkpt lat="49.62679" lon="6.03297">
        <ele>288.6</ele>
        <time>2020-06-26T09:17:18Z</time>
      </trkpt>
      <trkpt lat="49.62678" lon="6.03301">
        <ele>288.6</ele>
        <time>2020-06-26T09:17:19Z</time>
      </trkpt>
      <trkpt lat="49.62678" lon="6.03302">
        <ele>288.6</ele>
        <time>2020-06-26T09:17:20Z</time>
      </trkpt>
      <trkpt lat="49.62674" lon="6.03305">
        <ele>288.6</ele>
        <time>2020-06-26T09:17:21Z</time>
      </trkpt>
      <trkpt lat="49.62672" lon="6.03306">
        <ele>288.6</ele>
        <time>2020-06-26T09:17:22Z</time>
      </trkpt>
      <trkpt lat="49.62671" lon="6.03311">
        <ele>288.6</ele>
        <time>2020-06-26T09:17:23Z</time>
      </trkpt>
      <trkpt lat="49.62669" lon="6.03316">
        <ele>288.6</ele>
        <time>2020-06-26T09:17:24Z</time>
      </trkpt>
      <trkpt lat="49.62667" lon="6.0332">
        <ele>288.5</ele>
        <time>2020-06-26T09:17:25Z</time>
      </trkpt>
      <trkpt lat="49.62664" lon="6.03323">
        <ele>288.5</ele>
        <time>2020-06-26T09:17:26Z</time>
      </trkpt>
      <trkpt lat="49.62662" lon="6.03328">
        <ele>288.5</ele>
        <time>2020-06-26T09:17:27Z</time>
      </trkpt>
      <trkpt lat="49.62659" lon="6.03332">
        <ele>288.5</ele>
        <time>2020-06-26T09:17:28Z</time>
      </trkpt>
      <trkpt lat="49.62657" lon="6.03335">
        <ele>288.5</ele>
        <time>2020-06-26T09:17:29Z</time>
      </trkpt>
      <trkpt lat="49.62654" lon="6.03338">
        <ele>288.5</ele>
        <time>2020-06-26T09:17:30Z</time>
      </trkpt>
      <trkpt lat="49.62652" lon="6.03341">
        <ele>288.5</ele>
        <time>2020-06-26T09:17:31Z</time>
      </trkpt>
      <trkpt lat="49.62649" lon="6.03344">
        <ele>288.5</ele>
        <time>2020-06-26T09:17:32Z</time>
      </trkpt>
      <trkpt lat="49.62647" lon="6.03347">
        <ele>288.5</ele>
        <time>2020-06-26T09:17:33Z</time>
      </trkpt>
      <trkpt lat="49.62645" lon="6.03351">
        <ele>288.5</ele>
        <time>2020-06-26T09:17:34Z</time>
      </trkpt>
      <trkpt lat="49.62645" lon="6.03353">
        <ele>288.5</ele>
        <time>2020-06-26T09:17:35Z</time>
      </trkpt>
      <trkpt lat="49.62644" lon="6.03356">
        <ele>288.5</ele>
        <time>2020-06-26T09:17:36Z</time>
      </trkpt>
      <trkpt lat="49.62643" lon="6.03357">
        <ele>288.5</ele>
        <time>2020-06-26T09:17:37Z</time>
      </trkpt>
      <trkpt lat="49.62643" lon="6.03358">
        <ele>288.5</ele>
        <time>2020-06-26T09:17:38Z</time>
      </trkpt>
      <trkpt lat="49.62643" lon="6.03358">
        <ele>288.5</ele>
        <time>2020-06-26T09:17:39Z</time>
      </trkpt>
      <trkpt lat="49.62644" lon="6.03359">
        <ele>288.5</ele>
        <time>2020-06-26T09:17:40Z</time>
      </trkpt>
      <trkpt lat="49.62645" lon="6.03359">
        <ele>288.5</ele>
        <time>2020-06-26T09:17:41Z</time>
      </trkpt>
      <trkpt lat="49.62644" lon="6.03359">
        <ele>288.5</ele>
        <time>2020-06-26T09:17:42Z</time>
      </trkpt>
      <trkpt lat="49.62643" lon="6.03359">
        <ele>288.5</ele>
        <time>2020-06-26T09:17:43Z</time>
      </trkpt>
      <trkpt lat="49.62644" lon="6.0336">
        <ele>288.5</ele>
        <time>2020-06-26T09:17:44Z</time>
      </trkpt>
      <trkpt lat="49.62643" lon="6.0336">
        <ele>288.5</ele>
        <time>2020-06-26T09:17:45Z</time>
      </trkpt>
      <trkpt lat="49.62644" lon="6.03361">
        <ele>288.5</ele>
        <time>2020-06-26T09:17:46Z</time>
      </trkpt>
      <trkpt lat="49.62644" lon="6.03363">
        <ele>288.5</ele>
        <time>2020-06-26T09:17:47Z</time>
      </trkpt>
      <trkpt lat="49.62643" lon="6.03364">
        <ele>288.5</ele>
        <time>2020-06-26T09:17:48Z</time>
      </trkpt>
      <trkpt lat="49.62642" lon="6.03366">
        <ele>288.5</ele>
        <time>2020-06-26T09:17:49Z</time>
      </trkpt>
      <trkpt lat="49.62641" lon="6.03367">
        <ele>288.5</ele>
        <time>2020-06-26T09:17:50Z</time>
      </trkpt>
      <trkpt lat="49.6264" lon="6.03368">
        <ele>288.5</ele>
        <time>2020-06-26T09:17:51Z</time>
      </trkpt>
      <trkpt lat="49.6264" lon="6.0337">
        <ele>288.5</ele>
        <time>2020-06-26T09:17:52Z</time>
      </trkpt>
      <trkpt lat="49.62639" lon="6.03371">
        <ele>288.5</ele>
        <time>2020-06-26T09:17:53Z</time>
      </trkpt>
      <trkpt lat="49.62638" lon="6.03372">
        <ele>288.7</ele>
        <time>2020-06-26T09:17:54Z</time>
      </trkpt>
      <trkpt lat="49.62637" lon="6.03374">
        <ele>288.7</ele>
        <time>2020-06-26T09:17:55Z</time>
      </trkpt>
      <trkpt lat="49.62636" lon="6.03375">
        <ele>288.7</ele>
        <time>2020-06-26T09:18:39Z</time>
      </trkpt>
      <trkpt lat="49.62636" lon="6.03376">
        <ele>288.7</ele>
        <time>2020-06-26T09:18:40Z</time>
      </trkpt>
      <trkpt lat="49.62633" lon="6.03381">
        <ele>288.7</ele>
        <time>2020-06-26T09:18:41Z</time>
      </trkpt>
      <trkpt lat="49.62632" lon="6.03386">
        <ele>288.8</ele>
        <time>2020-06-26T09:18:42Z</time>
      </trkpt>
      <trkpt lat="49.6263" lon="6.0339">
        <ele>288.8</ele>
        <time>2020-06-26T09:18:43Z</time>
      </trkpt>
      <trkpt lat="49.62627" lon="6.03393">
        <ele>288.8</ele>
        <time>2020-06-26T09:18:44Z</time>
      </trkpt>
      <trkpt lat="49.62625" lon="6.03396">
        <ele>289</ele>
        <time>2020-06-26T09:18:45Z</time>
      </trkpt>
      <trkpt lat="49.62623" lon="6.034">
        <ele>288.9</ele>
        <time>2020-06-26T09:18:46Z</time>
      </trkpt>
      <trkpt lat="49.62621" lon="6.03403">
        <ele>288.8</ele>
        <time>2020-06-26T09:18:47Z</time>
      </trkpt>
      <trkpt lat="49.62619" lon="6.03408">
        <ele>288.8</ele>
        <time>2020-06-26T09:18:48Z</time>
      </trkpt>
      <trkpt lat="49.62617" lon="6.03413">
        <ele>288.7</ele>
        <time>2020-06-26T09:18:49Z</time>
      </trkpt>
      <trkpt lat="49.62614" lon="6.03418">
        <ele>288.6</ele>
        <time>2020-06-26T09:18:50Z</time>
      </trkpt>
      <trkpt lat="49.62611" lon="6.03422">
        <ele>288.6</ele>
        <time>2020-06-26T09:18:51Z</time>
      </trkpt>
      <trkpt lat="49.62608" lon="6.03427">
        <ele>288.5</ele>
        <time>2020-06-26T09:18:52Z</time>
      </trkpt>
      <trkpt lat="49.62605" lon="6.03433">
        <ele>288.4</ele>
        <time>2020-06-26T09:18:53Z</time>
      </trkpt>
      <trkpt lat="49.62602" lon="6.03439">
        <ele>288.4</ele>
        <time>2020-06-26T09:18:54Z</time>
      </trkpt>
      <trkpt lat="49.62598" lon="6.03444">
        <ele>288.3</ele>
        <time>2020-06-26T09:18:55Z</time>
      </trkpt>
      <trkpt lat="49.62594" lon="6.03448">
        <ele>288.2</ele>
        <time>2020-06-26T09:18:56Z</time>
      </trkpt>
      <trkpt lat="49.62591" lon="6.03455">
        <ele>288.1</ele>
        <time>2020-06-26T09:18:57Z</time>
      </trkpt>
      <trkpt lat="49.62588" lon="6.03461">
        <ele>288.1</ele>
        <time>2020-06-26T09:18:58Z</time>
      </trkpt>
      <trkpt lat="49.62584" lon="6.03468">
        <ele>288</ele>
        <time>2020-06-26T09:18:59Z</time>
      </trkpt>
      <trkpt lat="49.6258" lon="6.03474">
        <ele>288</ele>
        <time>2020-06-26T09:19:00Z</time>
      </trkpt>
      <trkpt lat="49.62577" lon="6.03481">
        <ele>288</ele>
        <time>2020-06-26T09:19:01Z</time>
      </trkpt>
      <trkpt lat="49.62574" lon="6.03486">
        <ele>288</ele>
        <time>2020-06-26T09:19:02Z</time>
      </trkpt>
      <trkpt lat="49.6257" lon="6.03491">
        <ele>288</ele>
        <time>2020-06-26T09:19:03Z</time>
      </trkpt>
      <trkpt lat="49.62566" lon="6.03496">
        <ele>288</ele>
        <time>2020-06-26T09:19:04Z</time>
      </trkpt>
      <trkpt lat="49.62563" lon="6.035">
        <ele>288</ele>
        <time>2020-06-26T09:19:05Z</time>
      </trkpt>
      <trkpt lat="49.6256" lon="6.03504">
        <ele>288</ele>
        <time>2020-06-26T09:19:06Z</time>
      </trkpt>
      <trkpt lat="49.62557" lon="6.03509">
        <ele>288</ele>
        <time>2020-06-26T09:19:07Z</time>
      </trkpt>
      <trkpt lat="49.62554" lon="6.03514">
        <ele>288.1</ele>
        <time>2020-06-26T09:19:08Z</time>
      </trkpt>
      <trkpt lat="49.62551" lon="6.03519">
        <ele>288.1</ele>
        <time>2020-06-26T09:19:09Z</time>
      </trkpt>
      <trkpt lat="49.62548" lon="6.03524">
        <ele>288.1</ele>
        <time>2020-06-26T09:19:10Z</time>
      </trkpt>
      <trkpt lat="49.62545" lon="6.03529">
        <ele>288.1</ele>
        <time>2020-06-26T09:19:11Z</time>
      </trkpt>
      <trkpt lat="49.62542" lon="6.03535">
        <ele>288.1</ele>
        <time>2020-06-26T09:19:12Z</time>
      </trkpt>
      <trkpt lat="49.62539" lon="6.0354">
        <ele>288.1</ele>
        <time>2020-06-26T09:19:13Z</time>
      </trkpt>
      <trkpt lat="49.62536" lon="6.03545">
        <ele>288.1</ele>
        <time>2020-06-26T09:19:14Z</time>
      </trkpt>
      <trkpt lat="49.62533" lon="6.03551">
        <ele>288.1</ele>
        <time>2020-06-26T09:19:15Z</time>
      </trkpt>
      <trkpt lat="49.62529" lon="6.03557">
        <ele>288.1</ele>
        <time>2020-06-26T09:19:16Z</time>
      </trkpt>
      <trkpt lat="49.62525" lon="6.03561">
        <ele>288.1</ele>
        <time>2020-06-26T09:19:17Z</time>
      </trkpt>
      <trkpt lat="49.62522" lon="6.03567">
        <ele>288.1</ele>
        <time>2020-06-26T09:19:18Z</time>
      </trkpt>
      <trkpt lat="49.62518" lon="6.03573">
        <ele>288.1</ele>
        <time>2020-06-26T09:19:19Z</time>
      </trkpt>
      <trkpt lat="49.62514" lon="6.03578">
        <ele>288.1</ele>
        <time>2020-06-26T09:19:20Z</time>
      </trkpt>
      <trkpt lat="49.6251" lon="6.03582">
        <ele>288.1</ele>
        <time>2020-06-26T09:19:21Z</time>
      </trkpt>
      <trkpt lat="49.62506" lon="6.03585">
        <ele>288.1</ele>
        <time>2020-06-26T09:19:22Z</time>
      </trkpt>
      <trkpt lat="49.62502" lon="6.03588">
        <ele>288.1</ele>
        <time>2020-06-26T09:19:23Z</time>
      </trkpt>
      <trkpt lat="49.62499" lon="6.03591">
        <ele>288.1</ele>
        <time>2020-06-26T09:19:24Z</time>
      </trkpt>
      <trkpt lat="49.62497" lon="6.03594">
        <ele>288.2</ele>
        <time>2020-06-26T09:19:25Z</time>
      </trkpt>
      <trkpt lat="49.62495" lon="6.03596">
        <ele>288.2</ele>
        <time>2020-06-26T09:19:26Z</time>
      </trkpt>
      <trkpt lat="49.62495" lon="6.03597">
        <ele>288.2</ele>
        <time>2020-06-26T09:19:27Z</time>
      </trkpt>
      <trkpt lat="49.62494" lon="6.03598">
        <ele>288.2</ele>
        <time>2020-06-26T09:19:28Z</time>
      </trkpt>
      <trkpt lat="49.62493" lon="6.036">
        <ele>288.2</ele>
        <time>2020-06-26T09:19:29Z</time>
      </trkpt>
      <trkpt lat="49.62492" lon="6.03601">
        <ele>288.2</ele>
        <time>2020-06-26T09:19:30Z</time>
      </trkpt>
      <trkpt lat="49.62491" lon="6.03601">
        <ele>288.2</ele>
        <time>2020-06-26T09:19:31Z</time>
      </trkpt>
      <trkpt lat="49.6249" lon="6.03602">
        <ele>288.2</ele>
        <time>2020-06-26T09:19:32Z</time>
      </trkpt>
      <trkpt lat="49.62489" lon="6.03602">
        <ele>288.3</ele>
        <time>2020-06-26T09:19:33Z</time>
      </trkpt>
      <trkpt lat="49.62488" lon="6.03603">
        <ele>288.3</ele>
        <time>2020-06-26T09:19:34Z</time>
      </trkpt>
      <trkpt lat="49.62487" lon="6.03603">
        <ele>288.3</ele>
        <time>2020-06-26T09:19:35Z</time>
      </trkpt>
      <trkpt lat="49.62487" lon="6.03604">
        <ele>288.3</ele>
        <time>2020-06-26T09:19:36Z</time>
      </trkpt>
      <trkpt lat="49.62489" lon="6.03605">
        <ele>288.3</ele>
        <time>2020-06-26T09:19:37Z</time>
      </trkpt>
      <trkpt lat="49.6249" lon="6.03606">
        <ele>288.3</ele>
        <time>2020-06-26T09:19:38Z</time>
      </trkpt>
      <trkpt lat="49.62489" lon="6.03614">
        <ele>288.4</ele>
        <time>2020-06-26T09:19:45Z</time>
      </trkpt>
      <trkpt lat="49.62487" lon="6.03617">
        <ele>288.4</ele>
        <time>2020-06-26T09:19:46Z</time>
      </trkpt>
      <trkpt lat="49.62485" lon="6.0362">
        <ele>288.5</ele>
        <time>2020-06-26T09:19:47Z</time>
      </trkpt>
      <trkpt lat="49.62484" lon="6.03622">
        <ele>288.5</ele>
        <time>2020-06-26T09:19:48Z</time>
      </trkpt>
      <trkpt lat="49.62481" lon="6.03624">
        <ele>288.6</ele>
        <time>2020-06-26T09:19:49Z</time>
      </trkpt>
      <trkpt lat="49.62478" lon="6.03626">
        <ele>288.7</ele>
        <time>2020-06-26T09:19:50Z</time>
      </trkpt>
      <trkpt lat="49.62474" lon="6.03628">
        <ele>288.7</ele>
        <time>2020-06-26T09:19:51Z</time>
      </trkpt>
      <trkpt lat="49.6247" lon="6.0363">
        <ele>288.8</ele>
        <time>2020-06-26T09:19:52Z</time>
      </trkpt>
      <trkpt lat="49.62466" lon="6.03633">
        <ele>288.9</ele>
        <time>2020-06-26T09:19:53Z</time>
      </trkpt>
      <trkpt lat="49.62463" lon="6.03636">
        <ele>289</ele>
        <time>2020-06-26T09:19:54Z</time>
      </trkpt>
      <trkpt lat="49.62459" lon="6.03639">
        <ele>289.1</ele>
        <time>2020-06-26T09:19:55Z</time>
      </trkpt>
      <trkpt lat="49.62455" lon="6.03641">
        <ele>289.2</ele>
        <time>2020-06-26T09:19:56Z</time>
      </trkpt>
      <trkpt lat="49.62451" lon="6.03644">
        <ele>289.3</ele>
        <time>2020-06-26T09:19:57Z</time>
      </trkpt>
      <trkpt lat="49.62447" lon="6.03647">
        <ele>289.4</ele>
        <time>2020-06-26T09:19:58Z</time>
      </trkpt>
      <trkpt lat="49.62443" lon="6.0365">
        <ele>289.5</ele>
        <time>2020-06-26T09:19:59Z</time>
      </trkpt>
      <trkpt lat="49.62438" lon="6.03651">
        <ele>289.6</ele>
        <time>2020-06-26T09:20:00Z</time>
      </trkpt>
      <trkpt lat="49.62434" lon="6.03653">
        <ele>289.7</ele>
        <time>2020-06-26T09:20:01Z</time>
      </trkpt>
      <trkpt lat="49.6243" lon="6.03655">
        <ele>289.8</ele>
        <time>2020-06-26T09:20:02Z</time>
      </trkpt>
      <trkpt lat="49.62426" lon="6.03656">
        <ele>289.9</ele>
        <time>2020-06-26T09:20:03Z</time>
      </trkpt>
      <trkpt lat="49.62423" lon="6.03659">
        <ele>290.1</ele>
        <time>2020-06-26T09:20:04Z</time>
      </trkpt>
      <trkpt lat="49.62419" lon="6.03662">
        <ele>290.2</ele>
        <time>2020-06-26T09:20:05Z</time>
      </trkpt>
      <trkpt lat="49.62416" lon="6.03664">
        <ele>290.4</ele>
        <time>2020-06-26T09:20:06Z</time>
      </trkpt>
      <trkpt lat="49.62413" lon="6.03667">
        <ele>290.5</ele>
        <time>2020-06-26T09:20:07Z</time>
      </trkpt>
      <trkpt lat="49.62409" lon="6.03668">
        <ele>290.7</ele>
        <time>2020-06-26T09:20:08Z</time>
      </trkpt>
      <trkpt lat="49.62404" lon="6.0367">
        <ele>290.8</ele>
        <time>2020-06-26T09:20:09Z</time>
      </trkpt>
      <trkpt lat="49.624" lon="6.03671">
        <ele>291</ele>
        <time>2020-06-26T09:20:10Z</time>
      </trkpt>
      <trkpt lat="49.62397" lon="6.03672">
        <ele>291.2</ele>
        <time>2020-06-26T09:20:11Z</time>
      </trkpt>
      <trkpt lat="49.62393" lon="6.03673">
        <ele>291.3</ele>
        <time>2020-06-26T09:20:12Z</time>
      </trkpt>
      <trkpt lat="49.6239" lon="6.03676">
        <ele>291.4</ele>
        <time>2020-06-26T09:20:13Z</time>
      </trkpt>
      <trkpt lat="49.62386" lon="6.03677">
        <ele>291.5</ele>
        <time>2020-06-26T09:20:14Z</time>
      </trkpt>
      <trkpt lat="49.62383" lon="6.03677">
        <ele>291.6</ele>
        <time>2020-06-26T09:20:15Z</time>
      </trkpt>
      <trkpt lat="49.6238" lon="6.03675">
        <ele>291.7</ele>
        <time>2020-06-26T09:20:16Z</time>
      </trkpt>
      <trkpt lat="49.62377" lon="6.03674">
        <ele>292</ele>
        <time>2020-06-26T09:20:17Z</time>
      </trkpt>
      <trkpt lat="49.62374" lon="6.03672">
        <ele>292.1</ele>
        <time>2020-06-26T09:20:18Z</time>
      </trkpt>
      <trkpt lat="49.6237" lon="6.0367">
        <ele>292.2</ele>
        <time>2020-06-26T09:20:19Z</time>
      </trkpt>
      <trkpt lat="49.62366" lon="6.03668">
        <ele>292.5</ele>
        <time>2020-06-26T09:20:20Z</time>
      </trkpt>
      <trkpt lat="49.62363" lon="6.03666">
        <ele>292.6</ele>
        <time>2020-06-26T09:20:21Z</time>
      </trkpt>
      <trkpt lat="49.6236" lon="6.03663">
        <ele>292.7</ele>
        <time>2020-06-26T09:20:22Z</time>
      </trkpt>
      <trkpt lat="49.62358" lon="6.0366">
        <ele>292.7</ele>
        <time>2020-06-26T09:20:23Z</time>
      </trkpt>
      <trkpt lat="49.62354" lon="6.0366">
        <ele>292.7</ele>
        <time>2020-06-26T09:20:24Z</time>
      </trkpt>
      <trkpt lat="49.62353" lon="6.03661">
        <ele>292.7</ele>
        <time>2020-06-26T09:20:25Z</time>
      </trkpt>
      <trkpt lat="49.6235" lon="6.03665">
        <ele>292.8</ele>
        <time>2020-06-26T09:20:26Z</time>
      </trkpt>
      <trkpt lat="49.62349" lon="6.03666">
        <ele>292.9</ele>
        <time>2020-06-26T09:20:27Z</time>
      </trkpt>
      <trkpt lat="49.62346" lon="6.03669">
        <ele>293</ele>
        <time>2020-06-26T09:20:28Z</time>
      </trkpt>
      <trkpt lat="49.62343" lon="6.03672">
        <ele>293.4</ele>
        <time>2020-06-26T09:20:29Z</time>
      </trkpt>
      <trkpt lat="49.62342" lon="6.03672">
        <ele>293.4</ele>
        <time>2020-06-26T09:20:30Z</time>
      </trkpt>
      <trkpt lat="49.62338" lon="6.03671">
        <ele>293.4</ele>
        <time>2020-06-26T09:20:31Z</time>
      </trkpt>
      <trkpt lat="49.62337" lon="6.0367">
        <ele>293.4</ele>
        <time>2020-06-26T09:20:32Z</time>
      </trkpt>
      <trkpt lat="49.62334" lon="6.03669">
        <ele>293.4</ele>
        <time>2020-06-26T09:20:33Z</time>
      </trkpt>
      <trkpt lat="49.62331" lon="6.0367">
        <ele>293.4</ele>
        <time>2020-06-26T09:20:34Z</time>
      </trkpt>
      <trkpt lat="49.62328" lon="6.0367">
        <ele>293.5</ele>
        <time>2020-06-26T09:20:35Z</time>
      </trkpt>
      <trkpt lat="49.62324" lon="6.0367">
        <ele>293.5</ele>
        <time>2020-06-26T09:20:36Z</time>
      </trkpt>
      <trkpt lat="49.62321" lon="6.03669">
        <ele>293.5</ele>
        <time>2020-06-26T09:20:37Z</time>
      </trkpt>
      <trkpt lat="49.62317" lon="6.03669">
        <ele>293.5</ele>
        <time>2020-06-26T09:20:38Z</time>
      </trkpt>
      <trkpt lat="49.62314" lon="6.03669">
        <ele>293.5</ele>
        <time>2020-06-26T09:20:39Z</time>
      </trkpt>
      <trkpt lat="49.62309" lon="6.0367">
        <ele>293.6</ele>
        <time>2020-06-26T09:20:40Z</time>
      </trkpt>
      <trkpt lat="49.62305" lon="6.03671">
        <ele>293.6</ele>
        <time>2020-06-26T09:20:41Z</time>
      </trkpt>
      <trkpt lat="49.623" lon="6.03672">
        <ele>293.6</ele>
        <time>2020-06-26T09:20:42Z</time>
      </trkpt>
      <trkpt lat="49.62296" lon="6.03673">
        <ele>293.7</ele>
        <time>2020-06-26T09:20:43Z</time>
      </trkpt>
      <trkpt lat="49.62292" lon="6.03673">
        <ele>293.7</ele>
        <time>2020-06-26T09:20:44Z</time>
      </trkpt>
      <trkpt lat="49.62289" lon="6.03673">
        <ele>293.7</ele>
        <time>2020-06-26T09:20:45Z</time>
      </trkpt>
      <trkpt lat="49.62285" lon="6.03673">
        <ele>293.7</ele>
        <time>2020-06-26T09:20:46Z</time>
      </trkpt>
      <trkpt lat="49.62281" lon="6.03673">
        <ele>293.8</ele>
        <time>2020-06-26T09:20:47Z</time>
      </trkpt>
      <trkpt lat="49.62278" lon="6.03672">
        <ele>293.8</ele>
        <time>2020-06-26T09:20:48Z</time>
      </trkpt>
      <trkpt lat="49.62275" lon="6.03672">
        <ele>293.9</ele>
        <time>2020-06-26T09:20:49Z</time>
      </trkpt>
      <trkpt lat="49.62271" lon="6.03671">
        <ele>294</ele>
        <time>2020-06-26T09:20:50Z</time>
      </trkpt>
      <trkpt lat="49.62268" lon="6.03671">
        <ele>294</ele>
        <time>2020-06-26T09:20:51Z</time>
      </trkpt>
      <trkpt lat="49.62265" lon="6.0367">
        <ele>294.1</ele>
        <time>2020-06-26T09:20:52Z</time>
      </trkpt>
      <trkpt lat="49.62261" lon="6.03669">
        <ele>294.2</ele>
        <time>2020-06-26T09:20:53Z</time>
      </trkpt>
      <trkpt lat="49.62258" lon="6.03669">
        <ele>294.3</ele>
        <time>2020-06-26T09:20:54Z</time>
      </trkpt>
      <trkpt lat="49.62255" lon="6.03669">
        <ele>294.4</ele>
        <time>2020-06-26T09:20:55Z</time>
      </trkpt>
      <trkpt lat="49.62251" lon="6.03669">
        <ele>294.5</ele>
        <time>2020-06-26T09:20:56Z</time>
      </trkpt>
      <trkpt lat="49.62248" lon="6.03669">
        <ele>294.7</ele>
        <time>2020-06-26T09:20:57Z</time>
      </trkpt>
      <trkpt lat="49.62244" lon="6.03669">
        <ele>294.9</ele>
        <time>2020-06-26T09:20:58Z</time>
      </trkpt>
      <trkpt lat="49.6224" lon="6.0367">
        <ele>295.1</ele>
        <time>2020-06-26T09:20:59Z</time>
      </trkpt>
      <trkpt lat="49.62239" lon="6.0367">
        <ele>295.2</ele>
        <time>2020-06-26T09:21:00Z</time>
      </trkpt>
      <trkpt lat="49.62235" lon="6.03671">
        <ele>295.4</ele>
        <time>2020-06-26T09:21:01Z</time>
      </trkpt>
      <trkpt lat="49.62234" lon="6.03671">
        <ele>295.4</ele>
        <time>2020-06-26T09:21:02Z</time>
      </trkpt>
      <trkpt lat="49.62231" lon="6.03672">
        <ele>295.6</ele>
        <time>2020-06-26T09:21:03Z</time>
      </trkpt>
      <trkpt lat="49.62228" lon="6.03673">
        <ele>295.8</ele>
        <time>2020-06-26T09:21:04Z</time>
      </trkpt>
      <trkpt lat="49.62225" lon="6.03673">
        <ele>295.9</ele>
        <time>2020-06-26T09:21:05Z</time>
      </trkpt>
      <trkpt lat="49.62221" lon="6.03674">
        <ele>296.1</ele>
        <time>2020-06-26T09:21:06Z</time>
      </trkpt>
      <trkpt lat="49.62219" lon="6.03674">
        <ele>296.2</ele>
        <time>2020-06-26T09:21:07Z</time>
      </trkpt>
      <trkpt lat="49.62216" lon="6.03675">
        <ele>296.4</ele>
        <time>2020-06-26T09:21:08Z</time>
      </trkpt>
      <trkpt lat="49.62212" lon="6.03676">
        <ele>296.5</ele>
        <time>2020-06-26T09:21:09Z</time>
      </trkpt>
      <trkpt lat="49.62209" lon="6.03677">
        <ele>296.5</ele>
        <time>2020-06-26T09:21:10Z</time>
      </trkpt>
      <trkpt lat="49.62206" lon="6.03678">
        <ele>296.6</ele>
        <time>2020-06-26T09:21:11Z</time>
      </trkpt>
      <trkpt lat="49.62203" lon="6.03679">
        <ele>296.6</ele>
        <time>2020-06-26T09:21:12Z</time>
      </trkpt>
      <trkpt lat="49.622" lon="6.0368">
        <ele>296.7</ele>
        <time>2020-06-26T09:21:13Z</time>
      </trkpt>
      <trkpt lat="49.62197" lon="6.03681">
        <ele>297.2</ele>
        <time>2020-06-26T09:21:14Z</time>
      </trkpt>
      <trkpt lat="49.62193" lon="6.03682">
        <ele>297.5</ele>
        <time>2020-06-26T09:21:15Z</time>
      </trkpt>
      <trkpt lat="49.62189" lon="6.03683">
        <ele>297.7</ele>
        <time>2020-06-26T09:21:16Z</time>
      </trkpt>
      <trkpt lat="49.62186" lon="6.03685">
        <ele>297.9</ele>
        <time>2020-06-26T09:21:17Z</time>
      </trkpt>
      <trkpt lat="49.62183" lon="6.03687">
        <ele>298.2</ele>
        <time>2020-06-26T09:21:18Z</time>
      </trkpt>
      <trkpt lat="49.62182" lon="6.03687">
        <ele>298.3</ele>
        <time>2020-06-26T09:21:19Z</time>
      </trkpt>
      <trkpt lat="49.62179" lon="6.03688">
        <ele>298.5</ele>
        <time>2020-06-26T09:21:20Z</time>
      </trkpt>
      <trkpt lat="49.62177" lon="6.03689">
        <ele>298.7</ele>
        <time>2020-06-26T09:21:21Z</time>
      </trkpt>
      <trkpt lat="49.62174" lon="6.03691">
        <ele>298.9</ele>
        <time>2020-06-26T09:21:22Z</time>
      </trkpt>
      <trkpt lat="49.62173" lon="6.03691">
        <ele>299</ele>
        <time>2020-06-26T09:21:23Z</time>
      </trkpt>
      <trkpt lat="49.62169" lon="6.03692">
        <ele>299.2</ele>
        <time>2020-06-26T09:21:24Z</time>
      </trkpt>
      <trkpt lat="49.62166" lon="6.03693">
        <ele>299.5</ele>
        <time>2020-06-26T09:21:25Z</time>
      </trkpt>
      <trkpt lat="49.62163" lon="6.03694">
        <ele>299.7</ele>
        <time>2020-06-26T09:21:26Z</time>
      </trkpt>
      <trkpt lat="49.6216" lon="6.03696">
        <ele>299.9</ele>
        <time>2020-06-26T09:21:27Z</time>
      </trkpt>
      <trkpt lat="49.62156" lon="6.03697">
        <ele>300.2</ele>
        <time>2020-06-26T09:21:28Z</time>
      </trkpt>
      <trkpt lat="49.62154" lon="6.03698">
        <ele>300.3</ele>
        <time>2020-06-26T09:21:29Z</time>
      </trkpt>
      <trkpt lat="49.62151" lon="6.03699">
        <ele>300.5</ele>
        <time>2020-06-26T09:21:30Z</time>
      </trkpt>
      <trkpt lat="49.62148" lon="6.037">
        <ele>300.7</ele>
        <time>2020-06-26T09:21:31Z</time>
      </trkpt>
      <trkpt lat="49.62145" lon="6.03701">
        <ele>300.8</ele>
        <time>2020-06-26T09:21:32Z</time>
      </trkpt>
      <trkpt lat="49.62142" lon="6.03702">
        <ele>301</ele>
        <time>2020-06-26T09:21:33Z</time>
      </trkpt>
      <trkpt lat="49.62139" lon="6.03702">
        <ele>301.2</ele>
        <time>2020-06-26T09:21:34Z</time>
      </trkpt>
      <trkpt lat="49.62135" lon="6.03703">
        <ele>301.4</ele>
        <time>2020-06-26T09:21:35Z</time>
      </trkpt>
      <trkpt lat="49.62132" lon="6.03703">
        <ele>301.6</ele>
        <time>2020-06-26T09:21:36Z</time>
      </trkpt>
      <trkpt lat="49.62129" lon="6.03703">
        <ele>301.7</ele>
        <time>2020-06-26T09:21:37Z</time>
      </trkpt>
      <trkpt lat="49.62126" lon="6.03703">
        <ele>301.9</ele>
        <time>2020-06-26T09:21:38Z</time>
      </trkpt>
      <trkpt lat="49.62125" lon="6.03703">
        <ele>301.9</ele>
        <time>2020-06-26T09:21:39Z</time>
      </trkpt>
      <trkpt lat="49.62122" lon="6.03703">
        <ele>302</ele>
        <time>2020-06-26T09:21:40Z</time>
      </trkpt>
      <trkpt lat="49.62119" lon="6.03704">
        <ele>302.2</ele>
        <time>2020-06-26T09:21:41Z</time>
      </trkpt>
      <trkpt lat="49.62115" lon="6.03705">
        <ele>302.4</ele>
        <time>2020-06-26T09:21:42Z</time>
      </trkpt>
      <trkpt lat="49.62111" lon="6.03706">
        <ele>302.6</ele>
        <time>2020-06-26T09:21:43Z</time>
      </trkpt>
      <trkpt lat="49.62107" lon="6.03708">
        <ele>302.8</ele>
        <time>2020-06-26T09:21:44Z</time>
      </trkpt>
      <trkpt lat="49.62104" lon="6.03709">
        <ele>302.9</ele>
        <time>2020-06-26T09:21:45Z</time>
      </trkpt>
      <trkpt lat="49.621" lon="6.0371">
        <ele>303</ele>
        <time>2020-06-26T09:21:46Z</time>
      </trkpt>
      <trkpt lat="49.62096" lon="6.03711">
        <ele>303.2</ele>
        <time>2020-06-26T09:21:47Z</time>
      </trkpt>
      <trkpt lat="49.62093" lon="6.03713">
        <ele>303.4</ele>
        <time>2020-06-26T09:21:48Z</time>
      </trkpt>
      <trkpt lat="49.6209" lon="6.03714">
        <ele>303.5</ele>
        <time>2020-06-26T09:21:49Z</time>
      </trkpt>
      <trkpt lat="49.62086" lon="6.03715">
        <ele>303.6</ele>
        <time>2020-06-26T09:21:50Z</time>
      </trkpt>
      <trkpt lat="49.62084" lon="6.03715">
        <ele>303.7</ele>
        <time>2020-06-26T09:21:51Z</time>
      </trkpt>
      <trkpt lat="49.62081" lon="6.03717">
        <ele>303.8</ele>
        <time>2020-06-26T09:21:52Z</time>
      </trkpt>
      <trkpt lat="49.6208" lon="6.03717">
        <ele>303.8</ele>
        <time>2020-06-26T09:21:53Z</time>
      </trkpt>
      <trkpt lat="49.62078" lon="6.03718">
        <ele>303.9</ele>
        <time>2020-06-26T09:21:54Z</time>
      </trkpt>
      <trkpt lat="49.62075" lon="6.0372">
        <ele>304.1</ele>
        <time>2020-06-26T09:21:55Z</time>
      </trkpt>
      <trkpt lat="49.62072" lon="6.03721">
        <ele>304.1</ele>
        <time>2020-06-26T09:21:56Z</time>
      </trkpt>
      <trkpt lat="49.62071" lon="6.03722">
        <ele>304</ele>
        <time>2020-06-26T09:21:57Z</time>
      </trkpt>
      <trkpt lat="49.62068" lon="6.03725">
        <ele>304</ele>
        <time>2020-06-26T09:21:58Z</time>
      </trkpt>
      <trkpt lat="49.62067" lon="6.03726">
        <ele>304</ele>
        <time>2020-06-26T09:21:59Z</time>
      </trkpt>
      <trkpt lat="49.62065" lon="6.03727">
        <ele>303.9</ele>
        <time>2020-06-26T09:22:00Z</time>
      </trkpt>
      <trkpt lat="49.62064" lon="6.03728">
        <ele>303.9</ele>
        <time>2020-06-26T09:22:01Z</time>
      </trkpt>
      <trkpt lat="49.62062" lon="6.03731">
        <ele>303.8</ele>
        <time>2020-06-26T09:22:02Z</time>
      </trkpt>
      <trkpt lat="49.6206" lon="6.03736">
        <ele>303.7</ele>
        <time>2020-06-26T09:22:03Z</time>
      </trkpt>
      <trkpt lat="49.62059" lon="6.03738">
        <ele>303.7</ele>
        <time>2020-06-26T09:22:04Z</time>
      </trkpt>
      <trkpt lat="49.62059" lon="6.03744">
        <ele>303.6</ele>
        <time>2020-06-26T09:22:05Z</time>
      </trkpt>
      <trkpt lat="49.62059" lon="6.0375">
        <ele>303.4</ele>
        <time>2020-06-26T09:22:06Z</time>
      </trkpt>
      <trkpt lat="49.62059" lon="6.03755">
        <ele>303.3</ele>
        <time>2020-06-26T09:22:07Z</time>
      </trkpt>
      <trkpt lat="49.6206" lon="6.03761">
        <ele>303.2</ele>
        <time>2020-06-26T09:22:08Z</time>
      </trkpt>
      <trkpt lat="49.6206" lon="6.03767">
        <ele>303</ele>
        <time>2020-06-26T09:22:09Z</time>
      </trkpt>
      <trkpt lat="49.62061" lon="6.03773">
        <ele>302.8</ele>
        <time>2020-06-26T09:22:10Z</time>
      </trkpt>
      <trkpt lat="49.62062" lon="6.03781">
        <ele>302.6</ele>
        <time>2020-06-26T09:22:11Z</time>
      </trkpt>
      <trkpt lat="49.62063" lon="6.03792">
        <ele>302.3</ele>
        <time>2020-06-26T09:22:12Z</time>
      </trkpt>
      <trkpt lat="49.62063" lon="6.038">
        <ele>302.2</ele>
        <time>2020-06-26T09:22:13Z</time>
      </trkpt>
      <trkpt lat="49.62063" lon="6.03809">
        <ele>302.1</ele>
        <time>2020-06-26T09:22:14Z</time>
      </trkpt>
      <trkpt lat="49.62063" lon="6.03817">
        <ele>302</ele>
        <time>2020-06-26T09:22:15Z</time>
      </trkpt>
      <trkpt lat="49.62063" lon="6.03827">
        <ele>301.9</ele>
        <time>2020-06-26T09:22:16Z</time>
      </trkpt>
      <trkpt lat="49.62063" lon="6.03836">
        <ele>302</ele>
        <time>2020-06-26T09:22:17Z</time>
      </trkpt>
      <trkpt lat="49.62063" lon="6.03845">
        <ele>302.1</ele>
        <time>2020-06-26T09:22:18Z</time>
      </trkpt>
      <trkpt lat="49.62063" lon="6.03852">
        <ele>302.2</ele>
        <time>2020-06-26T09:22:19Z</time>
      </trkpt>
      <trkpt lat="49.62062" lon="6.03858">
        <ele>302.3</ele>
        <time>2020-06-26T09:22:20Z</time>
      </trkpt>
      <trkpt lat="49.62061" lon="6.03864">
        <ele>302.4</ele>
        <time>2020-06-26T09:22:21Z</time>
      </trkpt>
      <trkpt lat="49.62061" lon="6.03869">
        <ele>302.6</ele>
        <time>2020-06-26T09:22:22Z</time>
      </trkpt>
      <trkpt lat="49.6206" lon="6.03875">
        <ele>302.7</ele>
        <time>2020-06-26T09:22:23Z</time>
      </trkpt>
      <trkpt lat="49.62059" lon="6.03879">
        <ele>302.8</ele>
        <time>2020-06-26T09:22:24Z</time>
      </trkpt>
      <trkpt lat="49.62058" lon="6.03883">
        <ele>303</ele>
        <time>2020-06-26T09:22:25Z</time>
      </trkpt>
      <trkpt lat="49.62058" lon="6.03889">
        <ele>303.1</ele>
        <time>2020-06-26T09:22:26Z</time>
      </trkpt>
      <trkpt lat="49.62057" lon="6.03894">
        <ele>303.3</ele>
        <time>2020-06-26T09:22:27Z</time>
      </trkpt>
      <trkpt lat="49.62056" lon="6.03901">
        <ele>303.6</ele>
        <time>2020-06-26T09:22:28Z</time>
      </trkpt>
      <trkpt lat="49.62055" lon="6.03907">
        <ele>303.9</ele>
        <time>2020-06-26T09:22:29Z</time>
      </trkpt>
      <trkpt lat="49.62053" lon="6.03913">
        <ele>304.1</ele>
        <time>2020-06-26T09:22:30Z</time>
      </trkpt>
      <trkpt lat="49.62052" lon="6.03918">
        <ele>304.3</ele>
        <time>2020-06-26T09:22:31Z</time>
      </trkpt>
      <trkpt lat="49.62051" lon="6.03924">
        <ele>304.5</ele>
        <time>2020-06-26T09:22:32Z</time>
      </trkpt>
      <trkpt lat="49.62051" lon="6.03929">
        <ele>304.7</ele>
        <time>2020-06-26T09:22:33Z</time>
      </trkpt>
      <trkpt lat="49.6205" lon="6.03934">
        <ele>305</ele>
        <time>2020-06-26T09:22:34Z</time>
      </trkpt>
      <trkpt lat="49.62049" lon="6.03939">
        <ele>305.2</ele>
        <time>2020-06-26T09:22:35Z</time>
      </trkpt>
      <trkpt lat="49.62047" lon="6.03943">
        <ele>305.4</ele>
        <time>2020-06-26T09:22:36Z</time>
      </trkpt>
      <trkpt lat="49.62046" lon="6.03948">
        <ele>305.6</ele>
        <time>2020-06-26T09:22:37Z</time>
      </trkpt>
      <trkpt lat="49.62046" lon="6.03953">
        <ele>305.9</ele>
        <time>2020-06-26T09:22:38Z</time>
      </trkpt>
      <trkpt lat="49.62045" lon="6.03959">
        <ele>306.1</ele>
        <time>2020-06-26T09:22:39Z</time>
      </trkpt>
      <trkpt lat="49.62044" lon="6.03966">
        <ele>306.4</ele>
        <time>2020-06-26T09:22:40Z</time>
      </trkpt>
      <trkpt lat="49.62043" lon="6.03972">
        <ele>306.7</ele>
        <time>2020-06-26T09:22:41Z</time>
      </trkpt>
      <trkpt lat="49.62042" lon="6.03978">
        <ele>307</ele>
        <time>2020-06-26T09:22:42Z</time>
      </trkpt>
      <trkpt lat="49.62041" lon="6.03983">
        <ele>307.3</ele>
        <time>2020-06-26T09:22:43Z</time>
      </trkpt>
      <trkpt lat="49.6204" lon="6.03989">
        <ele>307.6</ele>
        <time>2020-06-26T09:22:44Z</time>
      </trkpt>
      <trkpt lat="49.6204" lon="6.03995">
        <ele>307.9</ele>
        <time>2020-06-26T09:22:45Z</time>
      </trkpt>
      <trkpt lat="49.62039" lon="6.04001">
        <ele>308.3</ele>
        <time>2020-06-26T09:22:46Z</time>
      </trkpt>
      <trkpt lat="49.62038" lon="6.04008">
        <ele>308.6</ele>
        <time>2020-06-26T09:22:47Z</time>
      </trkpt>
      <trkpt lat="49.62037" lon="6.04013">
        <ele>308.9</ele>
        <time>2020-06-26T09:22:48Z</time>
      </trkpt>
      <trkpt lat="49.62036" lon="6.04018">
        <ele>309.2</ele>
        <time>2020-06-26T09:22:49Z</time>
      </trkpt>
      <trkpt lat="49.62035" lon="6.04024">
        <ele>309.5</ele>
        <time>2020-06-26T09:22:50Z</time>
      </trkpt>
      <trkpt lat="49.62035" lon="6.04026">
        <ele>309.7</ele>
        <time>2020-06-26T09:22:51Z</time>
      </trkpt>
      <trkpt lat="49.62034" lon="6.04031">
        <ele>309.9</ele>
        <time>2020-06-26T09:22:52Z</time>
      </trkpt>
      <trkpt lat="49.62032" lon="6.04037">
        <ele>310.3</ele>
        <time>2020-06-26T09:22:53Z</time>
      </trkpt>
      <trkpt lat="49.62031" lon="6.04042">
        <ele>310.6</ele>
        <time>2020-06-26T09:22:54Z</time>
      </trkpt>
      <trkpt lat="49.6203" lon="6.04049">
        <ele>311</ele>
        <time>2020-06-26T09:22:55Z</time>
      </trkpt>
      <trkpt lat="49.62029" lon="6.04054">
        <ele>311.3</ele>
        <time>2020-06-26T09:22:56Z</time>
      </trkpt>
      <trkpt lat="49.62029" lon="6.04059">
        <ele>311.5</ele>
        <time>2020-06-26T09:22:57Z</time>
      </trkpt>
      <trkpt lat="49.62028" lon="6.04063">
        <ele>311.8</ele>
        <time>2020-06-26T09:22:58Z</time>
      </trkpt>
      <trkpt lat="49.62027" lon="6.04068">
        <ele>312</ele>
        <time>2020-06-26T09:22:59Z</time>
      </trkpt>
      <trkpt lat="49.62026" lon="6.04073">
        <ele>312.3</ele>
        <time>2020-06-26T09:23:00Z</time>
      </trkpt>
      <trkpt lat="49.62024" lon="6.04079">
        <ele>312.6</ele>
        <time>2020-06-26T09:23:01Z</time>
      </trkpt>
      <trkpt lat="49.62023" lon="6.04085">
        <ele>312.9</ele>
        <time>2020-06-26T09:23:02Z</time>
      </trkpt>
      <trkpt lat="49.62021" lon="6.04091">
        <ele>313.2</ele>
        <time>2020-06-26T09:23:03Z</time>
      </trkpt>
      <trkpt lat="49.6202" lon="6.04097">
        <ele>313.4</ele>
        <time>2020-06-26T09:23:04Z</time>
      </trkpt>
      <trkpt lat="49.62019" lon="6.04102">
        <ele>313.7</ele>
        <time>2020-06-26T09:23:05Z</time>
      </trkpt>
      <trkpt lat="49.62017" lon="6.04108">
        <ele>313.9</ele>
        <time>2020-06-26T09:23:06Z</time>
      </trkpt>
      <trkpt lat="49.62015" lon="6.04115">
        <ele>314.2</ele>
        <time>2020-06-26T09:23:07Z</time>
      </trkpt>
      <trkpt lat="49.62014" lon="6.04121">
        <ele>314.5</ele>
        <time>2020-06-26T09:23:08Z</time>
      </trkpt>
      <trkpt lat="49.62012" lon="6.04127">
        <ele>314.7</ele>
        <time>2020-06-26T09:23:09Z</time>
      </trkpt>
      <trkpt lat="49.62011" lon="6.04132">
        <ele>315</ele>
        <time>2020-06-26T09:23:10Z</time>
      </trkpt>
      <trkpt lat="49.6201" lon="6.04137">
        <ele>315.1</ele>
        <time>2020-06-26T09:23:11Z</time>
      </trkpt>
      <trkpt lat="49.62008" lon="6.04141">
        <ele>315.3</ele>
        <time>2020-06-26T09:23:12Z</time>
      </trkpt>
      <trkpt lat="49.62007" lon="6.04145">
        <ele>315.5</ele>
        <time>2020-06-26T09:23:13Z</time>
      </trkpt>
      <trkpt lat="49.62005" lon="6.0415">
        <ele>315.7</ele>
        <time>2020-06-26T09:23:14Z</time>
      </trkpt>
      <trkpt lat="49.62004" lon="6.04156">
        <ele>315.8</ele>
        <time>2020-06-26T09:23:15Z</time>
      </trkpt>
      <trkpt lat="49.62003" lon="6.0416">
        <ele>316</ele>
        <time>2020-06-26T09:23:16Z</time>
      </trkpt>
      <trkpt lat="49.62001" lon="6.04165">
        <ele>316.1</ele>
        <time>2020-06-26T09:23:17Z</time>
      </trkpt>
      <trkpt lat="49.61999" lon="6.04169">
        <ele>316.3</ele>
        <time>2020-06-26T09:23:18Z</time>
      </trkpt>
      <trkpt lat="49.61998" lon="6.04174">
        <ele>316.4</ele>
        <time>2020-06-26T09:23:19Z</time>
      </trkpt>
      <trkpt lat="49.61996" lon="6.04179">
        <ele>316.5</ele>
        <time>2020-06-26T09:23:20Z</time>
      </trkpt>
      <trkpt lat="49.61994" lon="6.04184">
        <ele>316.6</ele>
        <time>2020-06-26T09:23:21Z</time>
      </trkpt>
      <trkpt lat="49.61992" lon="6.04189">
        <ele>316.7</ele>
        <time>2020-06-26T09:23:22Z</time>
      </trkpt>
      <trkpt lat="49.61989" lon="6.04194">
        <ele>316.8</ele>
        <time>2020-06-26T09:23:23Z</time>
      </trkpt>
      <trkpt lat="49.61986" lon="6.04199">
        <ele>316.9</ele>
        <time>2020-06-26T09:23:24Z</time>
      </trkpt>
      <trkpt lat="49.61984" lon="6.04204">
        <ele>316.9</ele>
        <time>2020-06-26T09:23:25Z</time>
      </trkpt>
      <trkpt lat="49.61982" lon="6.04209">
        <ele>316.9</ele>
        <time>2020-06-26T09:23:26Z</time>
      </trkpt>
      <trkpt lat="49.61979" lon="6.04215">
        <ele>316.9</ele>
        <time>2020-06-26T09:23:27Z</time>
      </trkpt>
      <trkpt lat="49.61977" lon="6.0422">
        <ele>317</ele>
        <time>2020-06-26T09:23:28Z</time>
      </trkpt>
      <trkpt lat="49.61974" lon="6.04227">
        <ele>317</ele>
        <time>2020-06-26T09:23:29Z</time>
      </trkpt>
      <trkpt lat="49.61971" lon="6.04232">
        <ele>317</ele>
        <time>2020-06-26T09:23:30Z</time>
      </trkpt>
      <trkpt lat="49.61969" lon="6.04236">
        <ele>317</ele>
        <time>2020-06-26T09:23:31Z</time>
      </trkpt>
      <trkpt lat="49.61966" lon="6.04242">
        <ele>317</ele>
        <time>2020-06-26T09:23:32Z</time>
      </trkpt>
      <trkpt lat="49.61964" lon="6.04246">
        <ele>317</ele>
        <time>2020-06-26T09:23:33Z</time>
      </trkpt>
      <trkpt lat="49.61961" lon="6.04252">
        <ele>316.9</ele>
        <time>2020-06-26T09:23:34Z</time>
      </trkpt>
      <trkpt lat="49.61958" lon="6.04257">
        <ele>316.9</ele>
        <time>2020-06-26T09:23:35Z</time>
      </trkpt>
      <trkpt lat="49.61955" lon="6.04263">
        <ele>316.9</ele>
        <time>2020-06-26T09:23:36Z</time>
      </trkpt>
      <trkpt lat="49.61953" lon="6.04268">
        <ele>316.9</ele>
        <time>2020-06-26T09:23:37Z</time>
      </trkpt>
      <trkpt lat="49.6195" lon="6.04275">
        <ele>316.8</ele>
        <time>2020-06-26T09:23:38Z</time>
      </trkpt>
      <trkpt lat="49.61947" lon="6.04281">
        <ele>316.8</ele>
        <time>2020-06-26T09:23:39Z</time>
      </trkpt>
      <trkpt lat="49.61944" lon="6.04287">
        <ele>316.7</ele>
        <time>2020-06-26T09:23:40Z</time>
      </trkpt>
      <trkpt lat="49.61941" lon="6.04292">
        <ele>316.6</ele>
        <time>2020-06-26T09:23:41Z</time>
      </trkpt>
      <trkpt lat="49.61939" lon="6.04297">
        <ele>316.6</ele>
        <time>2020-06-26T09:23:42Z</time>
      </trkpt>
      <trkpt lat="49.61936" lon="6.04302">
        <ele>316.5</ele>
        <time>2020-06-26T09:23:43Z</time>
      </trkpt>
      <trkpt lat="49.61933" lon="6.04307">
        <ele>316.5</ele>
        <time>2020-06-26T09:23:44Z</time>
      </trkpt>
      <trkpt lat="49.6193" lon="6.04314">
        <ele>316.4</ele>
        <time>2020-06-26T09:23:45Z</time>
      </trkpt>
      <trkpt lat="49.61927" lon="6.04321">
        <ele>316.3</ele>
        <time>2020-06-26T09:23:46Z</time>
      </trkpt>
      <trkpt lat="49.61924" lon="6.04327">
        <ele>316.2</ele>
        <time>2020-06-26T09:23:47Z</time>
      </trkpt>
      <trkpt lat="49.61921" lon="6.04334">
        <ele>316.2</ele>
        <time>2020-06-26T09:23:48Z</time>
      </trkpt>
      <trkpt lat="49.61919" lon="6.04339">
        <ele>316.1</ele>
        <time>2020-06-26T09:23:49Z</time>
      </trkpt>
      <trkpt lat="49.61916" lon="6.04344">
        <ele>316</ele>
        <time>2020-06-26T09:23:50Z</time>
      </trkpt>
      <trkpt lat="49.61914" lon="6.04349">
        <ele>315.9</ele>
        <time>2020-06-26T09:23:51Z</time>
      </trkpt>
      <trkpt lat="49.61912" lon="6.04354">
        <ele>315.9</ele>
        <time>2020-06-26T09:23:52Z</time>
      </trkpt>
      <trkpt lat="49.61909" lon="6.0436">
        <ele>315.8</ele>
        <time>2020-06-26T09:23:53Z</time>
      </trkpt>
      <trkpt lat="49.61906" lon="6.04366">
        <ele>315.7</ele>
        <time>2020-06-26T09:23:54Z</time>
      </trkpt>
      <trkpt lat="49.61903" lon="6.04372">
        <ele>315.6</ele>
        <time>2020-06-26T09:23:55Z</time>
      </trkpt>
      <trkpt lat="49.619" lon="6.0438">
        <ele>315.4</ele>
        <time>2020-06-26T09:23:56Z</time>
      </trkpt>
      <trkpt lat="49.61896" lon="6.04388">
        <ele>315.3</ele>
        <time>2020-06-26T09:23:57Z</time>
      </trkpt>
      <trkpt lat="49.61893" lon="6.04395">
        <ele>315.2</ele>
        <time>2020-06-26T09:23:58Z</time>
      </trkpt>
      <trkpt lat="49.6189" lon="6.04401">
        <ele>315</ele>
        <time>2020-06-26T09:23:59Z</time>
      </trkpt>
      <trkpt lat="49.61887" lon="6.04409">
        <ele>314.9</ele>
        <time>2020-06-26T09:24:00Z</time>
      </trkpt>
      <trkpt lat="49.61884" lon="6.04415">
        <ele>314.8</ele>
        <time>2020-06-26T09:24:01Z</time>
      </trkpt>
      <trkpt lat="49.61881" lon="6.04422">
        <ele>314.7</ele>
        <time>2020-06-26T09:24:02Z</time>
      </trkpt>
      <trkpt lat="49.61878" lon="6.04429">
        <ele>314.5</ele>
        <time>2020-06-26T09:24:03Z</time>
      </trkpt>
      <trkpt lat="49.61873" lon="6.04436">
        <ele>314.4</ele>
        <time>2020-06-26T09:24:04Z</time>
      </trkpt>
      <trkpt lat="49.6187" lon="6.04443">
        <ele>314.2</ele>
        <time>2020-06-26T09:24:05Z</time>
      </trkpt>
      <trkpt lat="49.61866" lon="6.0445">
        <ele>314.1</ele>
        <time>2020-06-26T09:24:06Z</time>
      </trkpt>
      <trkpt lat="49.61863" lon="6.04457">
        <ele>314</ele>
        <time>2020-06-26T09:24:07Z</time>
      </trkpt>
      <trkpt lat="49.6186" lon="6.04463">
        <ele>313.9</ele>
        <time>2020-06-26T09:24:08Z</time>
      </trkpt>
      <trkpt lat="49.61858" lon="6.04468">
        <ele>313.8</ele>
        <time>2020-06-26T09:24:09Z</time>
      </trkpt>
      <trkpt lat="49.61855" lon="6.04474">
        <ele>313.7</ele>
        <time>2020-06-26T09:24:10Z</time>
      </trkpt>
      <trkpt lat="49.61852" lon="6.04481">
        <ele>313.6</ele>
        <time>2020-06-26T09:24:11Z</time>
      </trkpt>
      <trkpt lat="49.61849" lon="6.04487">
        <ele>313.5</ele>
        <time>2020-06-26T09:24:12Z</time>
      </trkpt>
      <trkpt lat="49.61847" lon="6.04492">
        <ele>313.5</ele>
        <time>2020-06-26T09:24:13Z</time>
      </trkpt>
      <trkpt lat="49.61843" lon="6.04499">
        <ele>313.4</ele>
        <time>2020-06-26T09:24:14Z</time>
      </trkpt>
      <trkpt lat="49.6184" lon="6.04506">
        <ele>313.4</ele>
        <time>2020-06-26T09:24:15Z</time>
      </trkpt>
      <trkpt lat="49.61837" lon="6.04513">
        <ele>313.4</ele>
        <time>2020-06-26T09:24:16Z</time>
      </trkpt>
      <trkpt lat="49.61833" lon="6.0452">
        <ele>313.3</ele>
        <time>2020-06-26T09:24:17Z</time>
      </trkpt>
      <trkpt lat="49.6183" lon="6.04527">
        <ele>313.2</ele>
        <time>2020-06-26T09:24:18Z</time>
      </trkpt>
      <trkpt lat="49.61827" lon="6.04534">
        <ele>313.2</ele>
        <time>2020-06-26T09:24:19Z</time>
      </trkpt>
      <trkpt lat="49.61824" lon="6.04541">
        <ele>313.2</ele>
        <time>2020-06-26T09:24:20Z</time>
      </trkpt>
      <trkpt lat="49.6182" lon="6.04548">
        <ele>313.2</ele>
        <time>2020-06-26T09:24:21Z</time>
      </trkpt>
      <trkpt lat="49.61816" lon="6.04557">
        <ele>313.2</ele>
        <time>2020-06-26T09:24:22Z</time>
      </trkpt>
      <trkpt lat="49.61813" lon="6.04565">
        <ele>313.2</ele>
        <time>2020-06-26T09:24:23Z</time>
      </trkpt>
      <trkpt lat="49.6181" lon="6.04572">
        <ele>313.3</ele>
        <time>2020-06-26T09:24:24Z</time>
      </trkpt>
      <trkpt lat="49.61806" lon="6.04578">
        <ele>313.3</ele>
        <time>2020-06-26T09:24:25Z</time>
      </trkpt>
      <trkpt lat="49.61804" lon="6.04586">
        <ele>313.3</ele>
        <time>2020-06-26T09:24:26Z</time>
      </trkpt>
      <trkpt lat="49.61801" lon="6.04594">
        <ele>313.3</ele>
        <time>2020-06-26T09:24:27Z</time>
      </trkpt>
      <trkpt lat="49.61798" lon="6.04601">
        <ele>313.4</ele>
        <time>2020-06-26T09:24:28Z</time>
      </trkpt>
      <trkpt lat="49.61795" lon="6.04608">
        <ele>313.4</ele>
        <time>2020-06-26T09:24:29Z</time>
      </trkpt>
      <trkpt lat="49.61792" lon="6.04616">
        <ele>313.4</ele>
        <time>2020-06-26T09:24:30Z</time>
      </trkpt>
      <trkpt lat="49.61788" lon="6.04624">
        <ele>313.4</ele>
        <time>2020-06-26T09:24:31Z</time>
      </trkpt>
      <trkpt lat="49.61784" lon="6.04631">
        <ele>313.5</ele>
        <time>2020-06-26T09:24:32Z</time>
      </trkpt>
      <trkpt lat="49.61781" lon="6.04638">
        <ele>313.5</ele>
        <time>2020-06-26T09:24:33Z</time>
      </trkpt>
      <trkpt lat="49.61778" lon="6.04644">
        <ele>313.6</ele>
        <time>2020-06-26T09:24:34Z</time>
      </trkpt>
      <trkpt lat="49.61776" lon="6.04649">
        <ele>313.6</ele>
        <time>2020-06-26T09:24:35Z</time>
      </trkpt>
      <trkpt lat="49.61773" lon="6.04655">
        <ele>313.6</ele>
        <time>2020-06-26T09:24:36Z</time>
      </trkpt>
      <trkpt lat="49.61771" lon="6.04661">
        <ele>313.7</ele>
        <time>2020-06-26T09:24:37Z</time>
      </trkpt>
      <trkpt lat="49.61769" lon="6.04665">
        <ele>313.7</ele>
        <time>2020-06-26T09:24:38Z</time>
      </trkpt>
      <trkpt lat="49.61765" lon="6.04671">
        <ele>313.8</ele>
        <time>2020-06-26T09:24:39Z</time>
      </trkpt>
      <trkpt lat="49.61762" lon="6.04678">
        <ele>313.8</ele>
        <time>2020-06-26T09:24:40Z</time>
      </trkpt>
      <trkpt lat="49.61759" lon="6.04685">
        <ele>313.9</ele>
        <time>2020-06-26T09:24:41Z</time>
      </trkpt>
      <trkpt lat="49.61756" lon="6.0469">
        <ele>313.9</ele>
        <time>2020-06-26T09:24:42Z</time>
      </trkpt>
      <trkpt lat="49.61754" lon="6.04696">
        <ele>314</ele>
        <time>2020-06-26T09:24:43Z</time>
      </trkpt>
      <trkpt lat="49.61752" lon="6.04703">
        <ele>314</ele>
        <time>2020-06-26T09:24:44Z</time>
      </trkpt>
      <trkpt lat="49.6175" lon="6.0471">
        <ele>314.1</ele>
        <time>2020-06-26T09:24:45Z</time>
      </trkpt>
      <trkpt lat="49.61748" lon="6.04718">
        <ele>314.1</ele>
        <time>2020-06-26T09:24:46Z</time>
      </trkpt>
      <trkpt lat="49.61746" lon="6.04725">
        <ele>314.2</ele>
        <time>2020-06-26T09:24:47Z</time>
      </trkpt>
      <trkpt lat="49.61745" lon="6.04733">
        <ele>314.3</ele>
        <time>2020-06-26T09:24:48Z</time>
      </trkpt>
      <trkpt lat="49.61744" lon="6.04738">
        <ele>314.3</ele>
        <time>2020-06-26T09:24:49Z</time>
      </trkpt>
      <trkpt lat="49.61744" lon="6.04745">
        <ele>314.3</ele>
        <time>2020-06-26T09:24:50Z</time>
      </trkpt>
      <trkpt lat="49.61743" lon="6.04753">
        <ele>314.4</ele>
        <time>2020-06-26T09:24:51Z</time>
      </trkpt>
      <trkpt lat="49.61743" lon="6.0476">
        <ele>314.4</ele>
        <time>2020-06-26T09:24:52Z</time>
      </trkpt>
      <trkpt lat="49.61741" lon="6.04768">
        <ele>314.4</ele>
        <time>2020-06-26T09:24:53Z</time>
      </trkpt>
      <trkpt lat="49.61741" lon="6.04775">
        <ele>314.5</ele>
        <time>2020-06-26T09:24:54Z</time>
      </trkpt>
      <trkpt lat="49.61741" lon="6.04782">
        <ele>314.5</ele>
        <time>2020-06-26T09:24:55Z</time>
      </trkpt>
      <trkpt lat="49.61741" lon="6.04788">
        <ele>314.5</ele>
        <time>2020-06-26T09:24:56Z</time>
      </trkpt>
      <trkpt lat="49.61741" lon="6.04795">
        <ele>314.6</ele>
        <time>2020-06-26T09:24:57Z</time>
      </trkpt>
      <trkpt lat="49.61741" lon="6.048">
        <ele>314.6</ele>
        <time>2020-06-26T09:24:58Z</time>
      </trkpt>
      <trkpt lat="49.6174" lon="6.04806">
        <ele>314.5</ele>
        <time>2020-06-26T09:24:59Z</time>
      </trkpt>
      <trkpt lat="49.61739" lon="6.04812">
        <ele>314.5</ele>
        <time>2020-06-26T09:25:00Z</time>
      </trkpt>
      <trkpt lat="49.61739" lon="6.04815">
        <ele>314.4</ele>
        <time>2020-06-26T09:25:01Z</time>
      </trkpt>
      <trkpt lat="49.61739" lon="6.0482">
        <ele>314.4</ele>
        <time>2020-06-26T09:25:02Z</time>
      </trkpt>
      <trkpt lat="49.61739" lon="6.04822">
        <ele>314.3</ele>
        <time>2020-06-26T09:25:03Z</time>
      </trkpt>
      <trkpt lat="49.61739" lon="6.04828">
        <ele>314.2</ele>
        <time>2020-06-26T09:25:04Z</time>
      </trkpt>
      <trkpt lat="49.6174" lon="6.04836">
        <ele>314.1</ele>
        <time>2020-06-26T09:25:05Z</time>
      </trkpt>
      <trkpt lat="49.6174" lon="6.0484">
        <ele>314</ele>
        <time>2020-06-26T09:25:06Z</time>
      </trkpt>
      <trkpt lat="49.61741" lon="6.04846">
        <ele>314</ele>
        <time>2020-06-26T09:25:07Z</time>
      </trkpt>
      <trkpt lat="49.61741" lon="6.04851">
        <ele>313.9</ele>
        <time>2020-06-26T09:25:08Z</time>
      </trkpt>
      <trkpt lat="49.61741" lon="6.04858">
        <ele>313.8</ele>
        <time>2020-06-26T09:25:09Z</time>
      </trkpt>
      <trkpt lat="49.61741" lon="6.04868">
        <ele>313.8</ele>
        <time>2020-06-26T09:25:10Z</time>
      </trkpt>
      <trkpt lat="49.61741" lon="6.04877">
        <ele>313.7</ele>
        <time>2020-06-26T09:25:11Z</time>
      </trkpt>
      <trkpt lat="49.61742" lon="6.04883">
        <ele>313.6</ele>
        <time>2020-06-26T09:25:12Z</time>
      </trkpt>
      <trkpt lat="49.61742" lon="6.04892">
        <ele>313.5</ele>
        <time>2020-06-26T09:25:13Z</time>
      </trkpt>
      <trkpt lat="49.61742" lon="6.04899">
        <ele>313.5</ele>
        <time>2020-06-26T09:25:14Z</time>
      </trkpt>
      <trkpt lat="49.61742" lon="6.04907">
        <ele>313.4</ele>
        <time>2020-06-26T09:25:15Z</time>
      </trkpt>
      <trkpt lat="49.61742" lon="6.04915">
        <ele>313.3</ele>
        <time>2020-06-26T09:25:16Z</time>
      </trkpt>
      <trkpt lat="49.61743" lon="6.04922">
        <ele>313.3</ele>
        <time>2020-06-26T09:25:17Z</time>
      </trkpt>
      <trkpt lat="49.61743" lon="6.04934">
        <ele>313.2</ele>
        <time>2020-06-26T09:25:18Z</time>
      </trkpt>
      <trkpt lat="49.61744" lon="6.04941">
        <ele>313.1</ele>
        <time>2020-06-26T09:25:19Z</time>
      </trkpt>
      <trkpt lat="49.61744" lon="6.0495">
        <ele>313.1</ele>
        <time>2020-06-26T09:25:20Z</time>
      </trkpt>
      <trkpt lat="49.61744" lon="6.04956">
        <ele>313</ele>
        <time>2020-06-26T09:25:21Z</time>
      </trkpt>
      <trkpt lat="49.61744" lon="6.04962">
        <ele>313</ele>
        <time>2020-06-26T09:25:22Z</time>
      </trkpt>
      <trkpt lat="49.61745" lon="6.0497">
        <ele>312.9</ele>
        <time>2020-06-26T09:25:23Z</time>
      </trkpt>
      <trkpt lat="49.61744" lon="6.04976">
        <ele>312.9</ele>
        <time>2020-06-26T09:25:24Z</time>
      </trkpt>
      <trkpt lat="49.61744" lon="6.04984">
        <ele>312.8</ele>
        <time>2020-06-26T09:25:25Z</time>
      </trkpt>
      <trkpt lat="49.61745" lon="6.04992">
        <ele>312.7</ele>
        <time>2020-06-26T09:25:26Z</time>
      </trkpt>
      <trkpt lat="49.61745" lon="6.05001">
        <ele>312.5</ele>
        <time>2020-06-26T09:25:27Z</time>
      </trkpt>
      <trkpt lat="49.61745" lon="6.0501">
        <ele>312.4</ele>
        <time>2020-06-26T09:25:28Z</time>
      </trkpt>
      <trkpt lat="49.61744" lon="6.05019">
        <ele>312.2</ele>
        <time>2020-06-26T09:25:29Z</time>
      </trkpt>
      <trkpt lat="49.61745" lon="6.05027">
        <ele>312</ele>
        <time>2020-06-26T09:25:30Z</time>
      </trkpt>
      <trkpt lat="49.61745" lon="6.05035">
        <ele>311.9</ele>
        <time>2020-06-26T09:25:31Z</time>
      </trkpt>
      <trkpt lat="49.61745" lon="6.05042">
        <ele>311.8</ele>
        <time>2020-06-26T09:25:32Z</time>
      </trkpt>
      <trkpt lat="49.61745" lon="6.05052">
        <ele>311.6</ele>
        <time>2020-06-26T09:25:33Z</time>
      </trkpt>
      <trkpt lat="49.61745" lon="6.0506">
        <ele>311.4</ele>
        <time>2020-06-26T09:25:34Z</time>
      </trkpt>
      <trkpt lat="49.61745" lon="6.05068">
        <ele>311.2</ele>
        <time>2020-06-26T09:25:35Z</time>
      </trkpt>
      <trkpt lat="49.61745" lon="6.05077">
        <ele>310.9</ele>
        <time>2020-06-26T09:25:36Z</time>
      </trkpt>
      <trkpt lat="49.61745" lon="6.05086">
        <ele>310.7</ele>
        <time>2020-06-26T09:25:37Z</time>
      </trkpt>
      <trkpt lat="49.61745" lon="6.05096">
        <ele>310.5</ele>
        <time>2020-06-26T09:25:38Z</time>
      </trkpt>
      <trkpt lat="49.61744" lon="6.05105">
        <ele>310.2</ele>
        <time>2020-06-26T09:25:39Z</time>
      </trkpt>
      <trkpt lat="49.61744" lon="6.05115">
        <ele>310</ele>
        <time>2020-06-26T09:25:40Z</time>
      </trkpt>
      <trkpt lat="49.61744" lon="6.05124">
        <ele>309.6</ele>
        <time>2020-06-26T09:25:41Z</time>
      </trkpt>
      <trkpt lat="49.61743" lon="6.05132">
        <ele>309.5</ele>
        <time>2020-06-26T09:25:42Z</time>
      </trkpt>
      <trkpt lat="49.61743" lon="6.05141">
        <ele>309.4</ele>
        <time>2020-06-26T09:25:43Z</time>
      </trkpt>
      <trkpt lat="49.61742" lon="6.05151">
        <ele>309.2</ele>
        <time>2020-06-26T09:25:44Z</time>
      </trkpt>
      <trkpt lat="49.61742" lon="6.05162">
        <ele>309</ele>
        <time>2020-06-26T09:25:45Z</time>
      </trkpt>
      <trkpt lat="49.61742" lon="6.05172">
        <ele>308.8</ele>
        <time>2020-06-26T09:25:46Z</time>
      </trkpt>
      <trkpt lat="49.61742" lon="6.05182">
        <ele>308.7</ele>
        <time>2020-06-26T09:25:47Z</time>
      </trkpt>
      <trkpt lat="49.61743" lon="6.05192">
        <ele>308.5</ele>
        <time>2020-06-26T09:25:48Z</time>
      </trkpt>
      <trkpt lat="49.61743" lon="6.05201">
        <ele>308.4</ele>
        <time>2020-06-26T09:25:49Z</time>
      </trkpt>
      <trkpt lat="49.61744" lon="6.05211">
        <ele>308.3</ele>
        <time>2020-06-26T09:25:50Z</time>
      </trkpt>
      <trkpt lat="49.61744" lon="6.05222">
        <ele>308.2</ele>
        <time>2020-06-26T09:25:51Z</time>
      </trkpt>
      <trkpt lat="49.61745" lon="6.05232">
        <ele>308.1</ele>
        <time>2020-06-26T09:25:52Z</time>
      </trkpt>
      <trkpt lat="49.61745" lon="6.05242">
        <ele>307.9</ele>
        <time>2020-06-26T09:25:53Z</time>
      </trkpt>
      <trkpt lat="49.61746" lon="6.05252">
        <ele>307.8</ele>
        <time>2020-06-26T09:25:54Z</time>
      </trkpt>
      <trkpt lat="49.61747" lon="6.05261">
        <ele>307.7</ele>
        <time>2020-06-26T09:25:55Z</time>
      </trkpt>
      <trkpt lat="49.61748" lon="6.05271">
        <ele>307.6</ele>
        <time>2020-06-26T09:25:56Z</time>
      </trkpt>
      <trkpt lat="49.61749" lon="6.0528">
        <ele>307.4</ele>
        <time>2020-06-26T09:25:57Z</time>
      </trkpt>
      <trkpt lat="49.61751" lon="6.05291">
        <ele>307.3</ele>
        <time>2020-06-26T09:25:58Z</time>
      </trkpt>
      <trkpt lat="49.61752" lon="6.05302">
        <ele>307.1</ele>
        <time>2020-06-26T09:25:59Z</time>
      </trkpt>
      <trkpt lat="49.61754" lon="6.05311">
        <ele>307</ele>
        <time>2020-06-26T09:26:00Z</time>
      </trkpt>
      <trkpt lat="49.61755" lon="6.05321">
        <ele>306.9</ele>
        <time>2020-06-26T09:26:01Z</time>
      </trkpt>
      <trkpt lat="49.61757" lon="6.05331">
        <ele>306.8</ele>
        <time>2020-06-26T09:26:02Z</time>
      </trkpt>
      <trkpt lat="49.61759" lon="6.05341">
        <ele>306.8</ele>
        <time>2020-06-26T09:26:03Z</time>
      </trkpt>
      <trkpt lat="49.61762" lon="6.0535">
        <ele>306.7</ele>
        <time>2020-06-26T09:26:04Z</time>
      </trkpt>
      <trkpt lat="49.61763" lon="6.0536">
        <ele>306.6</ele>
        <time>2020-06-26T09:26:05Z</time>
      </trkpt>
      <trkpt lat="49.61765" lon="6.05368">
        <ele>306.6</ele>
        <time>2020-06-26T09:26:06Z</time>
      </trkpt>
      <trkpt lat="49.61766" lon="6.05377">
        <ele>306.5</ele>
        <time>2020-06-26T09:26:07Z</time>
      </trkpt>
      <trkpt lat="49.61767" lon="6.05387">
        <ele>306.5</ele>
        <time>2020-06-26T09:26:08Z</time>
      </trkpt>
      <trkpt lat="49.61768" lon="6.05395">
        <ele>306.4</ele>
        <time>2020-06-26T09:26:09Z</time>
      </trkpt>
      <trkpt lat="49.6177" lon="6.05402">
        <ele>306.4</ele>
        <time>2020-06-26T09:26:10Z</time>
      </trkpt>
      <trkpt lat="49.61771" lon="6.0541">
        <ele>306.4</ele>
        <time>2020-06-26T09:26:11Z</time>
      </trkpt>
      <trkpt lat="49.61773" lon="6.05419">
        <ele>306.4</ele>
        <time>2020-06-26T09:26:12Z</time>
      </trkpt>
      <trkpt lat="49.61774" lon="6.05427">
        <ele>306.4</ele>
        <time>2020-06-26T09:26:13Z</time>
      </trkpt>
      <trkpt lat="49.61775" lon="6.05436">
        <ele>306.4</ele>
        <time>2020-06-26T09:26:14Z</time>
      </trkpt>
      <trkpt lat="49.61776" lon="6.05447">
        <ele>306.3</ele>
        <time>2020-06-26T09:26:15Z</time>
      </trkpt>
      <trkpt lat="49.61777" lon="6.05458">
        <ele>306.4</ele>
        <time>2020-06-26T09:26:16Z</time>
      </trkpt>
      <trkpt lat="49.61779" lon="6.05468">
        <ele>306.4</ele>
        <time>2020-06-26T09:26:17Z</time>
      </trkpt>
      <trkpt lat="49.6178" lon="6.05476">
        <ele>306.5</ele>
        <time>2020-06-26T09:26:18Z</time>
      </trkpt>
      <trkpt lat="49.61781" lon="6.05484">
        <ele>306.5</ele>
        <time>2020-06-26T09:26:19Z</time>
      </trkpt>
      <trkpt lat="49.61782" lon="6.05493">
        <ele>306.6</ele>
        <time>2020-06-26T09:26:20Z</time>
      </trkpt>
      <trkpt lat="49.61783" lon="6.05502">
        <ele>306.7</ele>
        <time>2020-06-26T09:26:21Z</time>
      </trkpt>
      <trkpt lat="49.61784" lon="6.05511">
        <ele>306.6</ele>
        <time>2020-06-26T09:26:22Z</time>
      </trkpt>
      <trkpt lat="49.61786" lon="6.05519">
        <ele>306.6</ele>
        <time>2020-06-26T09:26:23Z</time>
      </trkpt>
      <trkpt lat="49.61787" lon="6.05528">
        <ele>306.6</ele>
        <time>2020-06-26T09:26:24Z</time>
      </trkpt>
      <trkpt lat="49.61788" lon="6.05535">
        <ele>306.6</ele>
        <time>2020-06-26T09:26:25Z</time>
      </trkpt>
      <trkpt lat="49.6179" lon="6.05543">
        <ele>306.6</ele>
        <time>2020-06-26T09:26:26Z</time>
      </trkpt>
      <trkpt lat="49.61791" lon="6.05551">
        <ele>306.6</ele>
        <time>2020-06-26T09:26:27Z</time>
      </trkpt>
      <trkpt lat="49.61791" lon="6.05557">
        <ele>306.7</ele>
        <time>2020-06-26T09:26:28Z</time>
      </trkpt>
      <trkpt lat="49.61791" lon="6.05564">
        <ele>306.7</ele>
        <time>2020-06-26T09:26:29Z</time>
      </trkpt>
      <trkpt lat="49.61792" lon="6.05572">
        <ele>306.7</ele>
        <time>2020-06-26T09:26:30Z</time>
      </trkpt>
      <trkpt lat="49.61792" lon="6.0558">
        <ele>306.7</ele>
        <time>2020-06-26T09:26:31Z</time>
      </trkpt>
      <trkpt lat="49.61793" lon="6.05587">
        <ele>306.7</ele>
        <time>2020-06-26T09:26:32Z</time>
      </trkpt>
      <trkpt lat="49.61794" lon="6.05595">
        <ele>306.7</ele>
        <time>2020-06-26T09:26:33Z</time>
      </trkpt>
      <trkpt lat="49.61795" lon="6.05603">
        <ele>306.7</ele>
        <time>2020-06-26T09:26:34Z</time>
      </trkpt>
      <trkpt lat="49.61795" lon="6.05611">
        <ele>306.7</ele>
        <time>2020-06-26T09:26:35Z</time>
      </trkpt>
      <trkpt lat="49.61796" lon="6.05618">
        <ele>306.7</ele>
        <time>2020-06-26T09:26:36Z</time>
      </trkpt>
      <trkpt lat="49.61796" lon="6.05625">
        <ele>306.7</ele>
        <time>2020-06-26T09:26:37Z</time>
      </trkpt>
      <trkpt lat="49.61797" lon="6.05633">
        <ele>306.7</ele>
        <time>2020-06-26T09:26:38Z</time>
      </trkpt>
      <trkpt lat="49.61797" lon="6.05641">
        <ele>306.7</ele>
        <time>2020-06-26T09:26:39Z</time>
      </trkpt>
      <trkpt lat="49.61798" lon="6.05649">
        <ele>306.8</ele>
        <time>2020-06-26T09:26:40Z</time>
      </trkpt>
      <trkpt lat="49.61799" lon="6.05658">
        <ele>306.8</ele>
        <time>2020-06-26T09:26:41Z</time>
      </trkpt>
      <trkpt lat="49.61799" lon="6.05664">
        <ele>306.8</ele>
        <time>2020-06-26T09:26:42Z</time>
      </trkpt>
      <trkpt lat="49.618" lon="6.05671">
        <ele>306.9</ele>
        <time>2020-06-26T09:26:43Z</time>
      </trkpt>
      <trkpt lat="49.618" lon="6.05679">
        <ele>306.9</ele>
        <time>2020-06-26T09:26:44Z</time>
      </trkpt>
      <trkpt lat="49.61801" lon="6.05689">
        <ele>306.9</ele>
        <time>2020-06-26T09:26:45Z</time>
      </trkpt>
      <trkpt lat="49.61802" lon="6.05698">
        <ele>306.9</ele>
        <time>2020-06-26T09:26:46Z</time>
      </trkpt>
      <trkpt lat="49.61803" lon="6.05707">
        <ele>306.9</ele>
        <time>2020-06-26T09:26:47Z</time>
      </trkpt>
      <trkpt lat="49.61804" lon="6.05715">
        <ele>307</ele>
        <time>2020-06-26T09:26:48Z</time>
      </trkpt>
      <trkpt lat="49.61804" lon="6.05723">
        <ele>307</ele>
        <time>2020-06-26T09:26:49Z</time>
      </trkpt>
      <trkpt lat="49.61805" lon="6.05729">
        <ele>307</ele>
        <time>2020-06-26T09:26:50Z</time>
      </trkpt>
      <trkpt lat="49.61806" lon="6.05737">
        <ele>307</ele>
        <time>2020-06-26T09:26:51Z</time>
      </trkpt>
      <trkpt lat="49.61807" lon="6.05746">
        <ele>307</ele>
        <time>2020-06-26T09:26:52Z</time>
      </trkpt>
      <trkpt lat="49.61809" lon="6.05757">
        <ele>307.1</ele>
        <time>2020-06-26T09:26:53Z</time>
      </trkpt>
      <trkpt lat="49.6181" lon="6.05767">
        <ele>307.1</ele>
        <time>2020-06-26T09:26:54Z</time>
      </trkpt>
      <trkpt lat="49.61811" lon="6.05774">
        <ele>307.2</ele>
        <time>2020-06-26T09:26:55Z</time>
      </trkpt>
      <trkpt lat="49.61812" lon="6.05781">
        <ele>307.2</ele>
        <time>2020-06-26T09:26:56Z</time>
      </trkpt>
      <trkpt lat="49.61813" lon="6.05787">
        <ele>307.2</ele>
        <time>2020-06-26T09:26:57Z</time>
      </trkpt>
      <trkpt lat="49.61814" lon="6.05794">
        <ele>307.3</ele>
        <time>2020-06-26T09:26:58Z</time>
      </trkpt>
      <trkpt lat="49.61814" lon="6.058">
        <ele>307.3</ele>
        <time>2020-06-26T09:26:59Z</time>
      </trkpt>
      <trkpt lat="49.61815" lon="6.05807">
        <ele>307.4</ele>
        <time>2020-06-26T09:27:00Z</time>
      </trkpt>
      <trkpt lat="49.61816" lon="6.05812">
        <ele>307.4</ele>
        <time>2020-06-26T09:27:01Z</time>
      </trkpt>
      <trkpt lat="49.61817" lon="6.05817">
        <ele>307.4</ele>
        <time>2020-06-26T09:27:02Z</time>
      </trkpt>
      <trkpt lat="49.61817" lon="6.05822">
        <ele>307.4</ele>
        <time>2020-06-26T09:27:03Z</time>
      </trkpt>
      <trkpt lat="49.61818" lon="6.05828">
        <ele>307.3</ele>
        <time>2020-06-26T09:27:04Z</time>
      </trkpt>
      <trkpt lat="49.61818" lon="6.0583">
        <ele>307.3</ele>
        <time>2020-06-26T09:27:05Z</time>
      </trkpt>
      <trkpt lat="49.6182" lon="6.05835">
        <ele>307.3</ele>
        <time>2020-06-26T09:27:06Z</time>
      </trkpt>
      <trkpt lat="49.61821" lon="6.05841">
        <ele>307.3</ele>
        <time>2020-06-26T09:27:07Z</time>
      </trkpt>
      <trkpt lat="49.61822" lon="6.05847">
        <ele>307.3</ele>
        <time>2020-06-26T09:27:08Z</time>
      </trkpt>
      <trkpt lat="49.61823" lon="6.05852">
        <ele>307.3</ele>
        <time>2020-06-26T09:27:09Z</time>
      </trkpt>
      <trkpt lat="49.61823" lon="6.05858">
        <ele>307.3</ele>
        <time>2020-06-26T09:27:10Z</time>
      </trkpt>
      <trkpt lat="49.61823" lon="6.05865">
        <ele>307.3</ele>
        <time>2020-06-26T09:27:11Z</time>
      </trkpt>
      <trkpt lat="49.61824" lon="6.05872">
        <ele>307.3</ele>
        <time>2020-06-26T09:27:12Z</time>
      </trkpt>
      <trkpt lat="49.61825" lon="6.05879">
        <ele>307.3</ele>
        <time>2020-06-26T09:27:13Z</time>
      </trkpt>
      <trkpt lat="49.61826" lon="6.05886">
        <ele>307.3</ele>
        <time>2020-06-26T09:27:14Z</time>
      </trkpt>
      <trkpt lat="49.61827" lon="6.05894">
        <ele>307.3</ele>
        <time>2020-06-26T09:27:15Z</time>
      </trkpt>
      <trkpt lat="49.61828" lon="6.05902">
        <ele>307.3</ele>
        <time>2020-06-26T09:27:16Z</time>
      </trkpt>
      <trkpt lat="49.61829" lon="6.05909">
        <ele>307.3</ele>
        <time>2020-06-26T09:27:17Z</time>
      </trkpt>
      <trkpt lat="49.61829" lon="6.05916">
        <ele>307.4</ele>
        <time>2020-06-26T09:27:18Z</time>
      </trkpt>
      <trkpt lat="49.6183" lon="6.05925">
        <ele>307.4</ele>
        <time>2020-06-26T09:27:19Z</time>
      </trkpt>
      <trkpt lat="49.61831" lon="6.05931">
        <ele>307.4</ele>
        <time>2020-06-26T09:27:20Z</time>
      </trkpt>
      <trkpt lat="49.61831" lon="6.05937">
        <ele>307.4</ele>
        <time>2020-06-26T09:27:21Z</time>
      </trkpt>
      <trkpt lat="49.61831" lon="6.05943">
        <ele>307.5</ele>
        <time>2020-06-26T09:27:22Z</time>
      </trkpt>
      <trkpt lat="49.61832" lon="6.05948">
        <ele>307.5</ele>
        <time>2020-06-26T09:27:23Z</time>
      </trkpt>
      <trkpt lat="49.61833" lon="6.05954">
        <ele>307.5</ele>
        <time>2020-06-26T09:27:24Z</time>
      </trkpt>
      <trkpt lat="49.61834" lon="6.05961">
        <ele>307.5</ele>
        <time>2020-06-26T09:27:25Z</time>
      </trkpt>
      <trkpt lat="49.61834" lon="6.05968">
        <ele>307.5</ele>
        <time>2020-06-26T09:27:26Z</time>
      </trkpt>
      <trkpt lat="49.61834" lon="6.05975">
        <ele>307.5</ele>
        <time>2020-06-26T09:27:27Z</time>
      </trkpt>
      <trkpt lat="49.61834" lon="6.05983">
        <ele>307.5</ele>
        <time>2020-06-26T09:27:28Z</time>
      </trkpt>
      <trkpt lat="49.61835" lon="6.05989">
        <ele>307.5</ele>
        <time>2020-06-26T09:27:29Z</time>
      </trkpt>
      <trkpt lat="49.61836" lon="6.05996">
        <ele>307.5</ele>
        <time>2020-06-26T09:27:30Z</time>
      </trkpt>
      <trkpt lat="49.61836" lon="6.06004">
        <ele>307.4</ele>
        <time>2020-06-26T09:27:31Z</time>
      </trkpt>
      <trkpt lat="49.61837" lon="6.0601">
        <ele>307.4</ele>
        <time>2020-06-26T09:27:32Z</time>
      </trkpt>
      <trkpt lat="49.61837" lon="6.06017">
        <ele>307.3</ele>
        <time>2020-06-26T09:27:33Z</time>
      </trkpt>
      <trkpt lat="49.61838" lon="6.06025">
        <ele>307.3</ele>
        <time>2020-06-26T09:27:34Z</time>
      </trkpt>
      <trkpt lat="49.61838" lon="6.06032">
        <ele>307.2</ele>
        <time>2020-06-26T09:27:35Z</time>
      </trkpt>
      <trkpt lat="49.61838" lon="6.06039">
        <ele>307.2</ele>
        <time>2020-06-26T09:27:36Z</time>
      </trkpt>
      <trkpt lat="49.61838" lon="6.06047">
        <ele>307.1</ele>
        <time>2020-06-26T09:27:37Z</time>
      </trkpt>
      <trkpt lat="49.61839" lon="6.06056">
        <ele>307.1</ele>
        <time>2020-06-26T09:27:38Z</time>
      </trkpt>
      <trkpt lat="49.6184" lon="6.06065">
        <ele>307</ele>
        <time>2020-06-26T09:27:39Z</time>
      </trkpt>
      <trkpt lat="49.6184" lon="6.06073">
        <ele>306.9</ele>
        <time>2020-06-26T09:27:40Z</time>
      </trkpt>
      <trkpt lat="49.6184" lon="6.06079">
        <ele>306.9</ele>
        <time>2020-06-26T09:27:41Z</time>
      </trkpt>
      <trkpt lat="49.6184" lon="6.06088">
        <ele>306.8</ele>
        <time>2020-06-26T09:27:42Z</time>
      </trkpt>
      <trkpt lat="49.61841" lon="6.06097">
        <ele>306.8</ele>
        <time>2020-06-26T09:27:43Z</time>
      </trkpt>
      <trkpt lat="49.61841" lon="6.06107">
        <ele>306.7</ele>
        <time>2020-06-26T09:27:44Z</time>
      </trkpt>
      <trkpt lat="49.61841" lon="6.06116">
        <ele>306.6</ele>
        <time>2020-06-26T09:27:45Z</time>
      </trkpt>
      <trkpt lat="49.61842" lon="6.06124">
        <ele>306.6</ele>
        <time>2020-06-26T09:27:46Z</time>
      </trkpt>
      <trkpt lat="49.61842" lon="6.06133">
        <ele>306.5</ele>
        <time>2020-06-26T09:27:47Z</time>
      </trkpt>
      <trkpt lat="49.61843" lon="6.0614">
        <ele>306.5</ele>
        <time>2020-06-26T09:27:48Z</time>
      </trkpt>
      <trkpt lat="49.61843" lon="6.06146">
        <ele>306.5</ele>
        <time>2020-06-26T09:27:49Z</time>
      </trkpt>
      <trkpt lat="49.61843" lon="6.06155">
        <ele>306.5</ele>
        <time>2020-06-26T09:27:50Z</time>
      </trkpt>
      <trkpt lat="49.61843" lon="6.06162">
        <ele>306.5</ele>
        <time>2020-06-26T09:27:51Z</time>
      </trkpt>
      <trkpt lat="49.61843" lon="6.0617">
        <ele>306.4</ele>
        <time>2020-06-26T09:27:52Z</time>
      </trkpt>
      <trkpt lat="49.61844" lon="6.06178">
        <ele>306.4</ele>
        <time>2020-06-26T09:27:53Z</time>
      </trkpt>
      <trkpt lat="49.61844" lon="6.06185">
        <ele>306.4</ele>
        <time>2020-06-26T09:27:54Z</time>
      </trkpt>
      <trkpt lat="49.61844" lon="6.06192">
        <ele>306.4</ele>
        <time>2020-06-26T09:27:55Z</time>
      </trkpt>
      <trkpt lat="49.61844" lon="6.06199">
        <ele>306.4</ele>
        <time>2020-06-26T09:27:56Z</time>
      </trkpt>
      <trkpt lat="49.61844" lon="6.06209">
        <ele>306.4</ele>
        <time>2020-06-26T09:27:57Z</time>
      </trkpt>
      <trkpt lat="49.61845" lon="6.06219">
        <ele>306.3</ele>
        <time>2020-06-26T09:27:58Z</time>
      </trkpt>
      <trkpt lat="49.61846" lon="6.06228">
        <ele>306.3</ele>
        <time>2020-06-26T09:27:59Z</time>
      </trkpt>
      <trkpt lat="49.61846" lon="6.06237">
        <ele>306.2</ele>
        <time>2020-06-26T09:28:00Z</time>
      </trkpt>
      <trkpt lat="49.61847" lon="6.06244">
        <ele>306.2</ele>
        <time>2020-06-26T09:28:01Z</time>
      </trkpt>
      <trkpt lat="49.61847" lon="6.06249">
        <ele>306.1</ele>
        <time>2020-06-26T09:28:02Z</time>
      </trkpt>
      <trkpt lat="49.61847" lon="6.06254">
        <ele>306.1</ele>
        <time>2020-06-26T09:28:03Z</time>
      </trkpt>
      <trkpt lat="49.61846" lon="6.06259">
        <ele>306</ele>
        <time>2020-06-26T09:28:04Z</time>
      </trkpt>
      <trkpt lat="49.61845" lon="6.06264">
        <ele>306</ele>
        <time>2020-06-26T09:28:05Z</time>
      </trkpt>
      <trkpt lat="49.61844" lon="6.0627">
        <ele>305.9</ele>
        <time>2020-06-26T09:28:06Z</time>
      </trkpt>
      <trkpt lat="49.61844" lon="6.06277">
        <ele>305.9</ele>
        <time>2020-06-26T09:28:07Z</time>
      </trkpt>
      <trkpt lat="49.61845" lon="6.06283">
        <ele>305.9</ele>
        <time>2020-06-26T09:28:08Z</time>
      </trkpt>
      <trkpt lat="49.61846" lon="6.06289">
        <ele>305.9</ele>
        <time>2020-06-26T09:28:09Z</time>
      </trkpt>
      <trkpt lat="49.61848" lon="6.06294">
        <ele>305.9</ele>
        <time>2020-06-26T09:28:10Z</time>
      </trkpt>
      <trkpt lat="49.61849" lon="6.063">
        <ele>306</ele>
        <time>2020-06-26T09:28:11Z</time>
      </trkpt>
      <trkpt lat="49.61851" lon="6.06306">
        <ele>306</ele>
        <time>2020-06-26T09:28:12Z</time>
      </trkpt>
      <trkpt lat="49.61852" lon="6.06313">
        <ele>306.1</ele>
        <time>2020-06-26T09:28:13Z</time>
      </trkpt>
      <trkpt lat="49.61853" lon="6.06319">
        <ele>306.2</ele>
        <time>2020-06-26T09:28:14Z</time>
      </trkpt>
      <trkpt lat="49.61853" lon="6.06326">
        <ele>306.2</ele>
        <time>2020-06-26T09:28:15Z</time>
      </trkpt>
      <trkpt lat="49.61853" lon="6.06328">
        <ele>306.2</ele>
        <time>2020-06-26T09:28:16Z</time>
      </trkpt>
      <trkpt lat="49.61853" lon="6.06335">
        <ele>306.3</ele>
        <time>2020-06-26T09:28:17Z</time>
      </trkpt>
      <trkpt lat="49.61854" lon="6.06341">
        <ele>306.3</ele>
        <time>2020-06-26T09:28:18Z</time>
      </trkpt>
      <trkpt lat="49.61855" lon="6.06348">
        <ele>306.4</ele>
        <time>2020-06-26T09:28:19Z</time>
      </trkpt>
      <trkpt lat="49.61855" lon="6.06355">
        <ele>306.5</ele>
        <time>2020-06-26T09:28:20Z</time>
      </trkpt>
      <trkpt lat="49.61855" lon="6.06362">
        <ele>306.6</ele>
        <time>2020-06-26T09:28:21Z</time>
      </trkpt>
      <trkpt lat="49.61855" lon="6.06368">
        <ele>306.7</ele>
        <time>2020-06-26T09:28:22Z</time>
      </trkpt>
      <trkpt lat="49.61855" lon="6.06375">
        <ele>306.7</ele>
        <time>2020-06-26T09:28:23Z</time>
      </trkpt>
      <trkpt lat="49.61856" lon="6.0638">
        <ele>306.8</ele>
        <time>2020-06-26T09:28:24Z</time>
      </trkpt>
      <trkpt lat="49.61855" lon="6.06386">
        <ele>306.9</ele>
        <time>2020-06-26T09:28:25Z</time>
      </trkpt>
      <trkpt lat="49.61855" lon="6.06392">
        <ele>306.9</ele>
        <time>2020-06-26T09:28:26Z</time>
      </trkpt>
      <trkpt lat="49.61856" lon="6.06401">
        <ele>306.9</ele>
        <time>2020-06-26T09:28:27Z</time>
      </trkpt>
      <trkpt lat="49.61856" lon="6.06408">
        <ele>306.8</ele>
        <time>2020-06-26T09:28:28Z</time>
      </trkpt>
      <trkpt lat="49.61856" lon="6.06413">
        <ele>306.8</ele>
        <time>2020-06-26T09:28:29Z</time>
      </trkpt>
      <trkpt lat="49.61857" lon="6.06419">
        <ele>306.8</ele>
        <time>2020-06-26T09:28:30Z</time>
      </trkpt>
      <trkpt lat="49.61858" lon="6.06425">
        <ele>306.8</ele>
        <time>2020-06-26T09:28:31Z</time>
      </trkpt>
      <trkpt lat="49.61858" lon="6.0643">
        <ele>306.8</ele>
        <time>2020-06-26T09:28:32Z</time>
      </trkpt>
      <trkpt lat="49.61859" lon="6.06437">
        <ele>306.8</ele>
        <time>2020-06-26T09:28:33Z</time>
      </trkpt>
      <trkpt lat="49.61861" lon="6.06444">
        <ele>306.8</ele>
        <time>2020-06-26T09:28:34Z</time>
      </trkpt>
      <trkpt lat="49.61862" lon="6.06452">
        <ele>306.8</ele>
        <time>2020-06-26T09:28:35Z</time>
      </trkpt>
      <trkpt lat="49.61863" lon="6.0646">
        <ele>306.8</ele>
        <time>2020-06-26T09:28:36Z</time>
      </trkpt>
      <trkpt lat="49.61864" lon="6.06467">
        <ele>306.8</ele>
        <time>2020-06-26T09:28:37Z</time>
      </trkpt>
      <trkpt lat="49.61864" lon="6.06474">
        <ele>306.8</ele>
        <time>2020-06-26T09:28:38Z</time>
      </trkpt>
      <trkpt lat="49.61865" lon="6.06481">
        <ele>306.8</ele>
        <time>2020-06-26T09:28:39Z</time>
      </trkpt>
      <trkpt lat="49.61866" lon="6.06488">
        <ele>306.8</ele>
        <time>2020-06-26T09:28:40Z</time>
      </trkpt>
      <trkpt lat="49.61868" lon="6.06494">
        <ele>306.8</ele>
        <time>2020-06-26T09:28:41Z</time>
      </trkpt>
      <trkpt lat="49.61869" lon="6.06498">
        <ele>306.8</ele>
        <time>2020-06-26T09:28:42Z</time>
      </trkpt>
      <trkpt lat="49.61868" lon="6.06503">
        <ele>306.8</ele>
        <time>2020-06-26T09:28:43Z</time>
      </trkpt>
      <trkpt lat="49.61868" lon="6.06505">
        <ele>306.8</ele>
        <time>2020-06-26T09:28:44Z</time>
      </trkpt>
      <trkpt lat="49.6187" lon="6.06507">
        <ele>306.8</ele>
        <time>2020-06-26T09:28:45Z</time>
      </trkpt>
      <trkpt lat="49.61871" lon="6.06508">
        <ele>306.8</ele>
        <time>2020-06-26T09:28:46Z</time>
      </trkpt>
      <trkpt lat="49.61871" lon="6.06509">
        <ele>306.8</ele>
        <time>2020-06-26T09:28:47Z</time>
      </trkpt>
      <trkpt lat="49.61873" lon="6.0651">
        <ele>306.8</ele>
        <time>2020-06-26T09:28:48Z</time>
      </trkpt>
      <trkpt lat="49.61874" lon="6.06509">
        <ele>306.8</ele>
        <time>2020-06-26T09:28:49Z</time>
      </trkpt>
      <trkpt lat="49.61875" lon="6.06509">
        <ele>306.8</ele>
        <time>2020-06-26T09:28:50Z</time>
      </trkpt>
      <trkpt lat="49.61879" lon="6.06508">
        <ele>306.8</ele>
        <time>2020-06-26T09:28:51Z</time>
      </trkpt>
      <trkpt lat="49.6188" lon="6.06507">
        <ele>306.8</ele>
        <time>2020-06-26T09:28:52Z</time>
      </trkpt>
      <trkpt lat="49.61883" lon="6.06509">
        <ele>306.8</ele>
        <time>2020-06-26T09:28:53Z</time>
      </trkpt>
      <trkpt lat="49.61886" lon="6.06509">
        <ele>306.8</ele>
        <time>2020-06-26T09:28:54Z</time>
      </trkpt>
      <trkpt lat="49.61889" lon="6.06511">
        <ele>306.9</ele>
        <time>2020-06-26T09:28:55Z</time>
      </trkpt>
      <trkpt lat="49.61893" lon="6.0651">
        <ele>306.9</ele>
        <time>2020-06-26T09:28:56Z</time>
      </trkpt>
      <trkpt lat="49.61895" lon="6.0651">
        <ele>307</ele>
        <time>2020-06-26T09:28:57Z</time>
      </trkpt>
      <trkpt lat="49.61898" lon="6.06509">
        <ele>307</ele>
        <time>2020-06-26T09:28:58Z</time>
      </trkpt>
      <trkpt lat="49.619" lon="6.06508">
        <ele>307</ele>
        <time>2020-06-26T09:28:59Z</time>
      </trkpt>
      <trkpt lat="49.61903" lon="6.06507">
        <ele>307.1</ele>
        <time>2020-06-26T09:29:00Z</time>
      </trkpt>
      <trkpt lat="49.61905" lon="6.06507">
        <ele>307.1</ele>
        <time>2020-06-26T09:29:01Z</time>
      </trkpt>
      <trkpt lat="49.61908" lon="6.06506">
        <ele>307.2</ele>
        <time>2020-06-26T09:29:02Z</time>
      </trkpt>
      <trkpt lat="49.61909" lon="6.06506">
        <ele>307.2</ele>
        <time>2020-06-26T09:29:03Z</time>
      </trkpt>
      <trkpt lat="49.61913" lon="6.06505">
        <ele>307.2</ele>
        <time>2020-06-26T09:29:04Z</time>
      </trkpt>
      <trkpt lat="49.61914" lon="6.06505">
        <ele>307.3</ele>
        <time>2020-06-26T09:29:05Z</time>
      </trkpt>
      <trkpt lat="49.61918" lon="6.06505">
        <ele>307.4</ele>
        <time>2020-06-26T09:29:06Z</time>
      </trkpt>
      <trkpt lat="49.61921" lon="6.06504">
        <ele>307.4</ele>
        <time>2020-06-26T09:29:07Z</time>
      </trkpt>
      <trkpt lat="49.61924" lon="6.06503">
        <ele>307.5</ele>
        <time>2020-06-26T09:29:08Z</time>
      </trkpt>
      <trkpt lat="49.61929" lon="6.06504">
        <ele>307.6</ele>
        <time>2020-06-26T09:29:09Z</time>
      </trkpt>
      <trkpt lat="49.61932" lon="6.06503">
        <ele>307.7</ele>
        <time>2020-06-26T09:29:10Z</time>
      </trkpt>
      <trkpt lat="49.61936" lon="6.06503">
        <ele>307.8</ele>
        <time>2020-06-26T09:29:11Z</time>
      </trkpt>
      <trkpt lat="49.61939" lon="6.06503">
        <ele>307.8</ele>
        <time>2020-06-26T09:29:12Z</time>
      </trkpt>
      <trkpt lat="49.61943" lon="6.06502">
        <ele>307.9</ele>
        <time>2020-06-26T09:29:13Z</time>
      </trkpt>
      <trkpt lat="49.61947" lon="6.065">
        <ele>308.1</ele>
        <time>2020-06-26T09:29:14Z</time>
      </trkpt>
      <trkpt lat="49.61951" lon="6.06498">
        <ele>308.2</ele>
        <time>2020-06-26T09:29:15Z</time>
      </trkpt>
      <trkpt lat="49.61955" lon="6.06497">
        <ele>308.3</ele>
        <time>2020-06-26T09:29:16Z</time>
      </trkpt>
      <trkpt lat="49.61959" lon="6.06495">
        <ele>308.4</ele>
        <time>2020-06-26T09:29:17Z</time>
      </trkpt>
      <trkpt lat="49.61961" lon="6.06495">
        <ele>308.5</ele>
        <time>2020-06-26T09:29:18Z</time>
      </trkpt>
      <trkpt lat="49.61965" lon="6.06493">
        <ele>308.6</ele>
        <time>2020-06-26T09:29:19Z</time>
      </trkpt>
      <trkpt lat="49.6197" lon="6.0649">
        <ele>308.8</ele>
        <time>2020-06-26T09:29:20Z</time>
      </trkpt>
      <trkpt lat="49.61974" lon="6.06488">
        <ele>308.9</ele>
        <time>2020-06-26T09:29:21Z</time>
      </trkpt>
      <trkpt lat="49.61979" lon="6.0649">
        <ele>309.2</ele>
        <time>2020-06-26T09:29:22Z</time>
      </trkpt>
      <trkpt lat="49.61983" lon="6.06487">
        <ele>309.4</ele>
        <time>2020-06-26T09:29:23Z</time>
      </trkpt>
      <trkpt lat="49.61987" lon="6.06487">
        <ele>309.5</ele>
        <time>2020-06-26T09:29:24Z</time>
      </trkpt>
      <trkpt lat="49.61991" lon="6.06487">
        <ele>309.7</ele>
        <time>2020-06-26T09:29:25Z</time>
      </trkpt>
      <trkpt lat="49.61994" lon="6.06486">
        <ele>309.8</ele>
        <time>2020-06-26T09:29:26Z</time>
      </trkpt>
      <trkpt lat="49.61998" lon="6.06486">
        <ele>310</ele>
        <time>2020-06-26T09:29:27Z</time>
      </trkpt>
      <trkpt lat="49.62002" lon="6.06485">
        <ele>310.1</ele>
        <time>2020-06-26T09:29:28Z</time>
      </trkpt>
      <trkpt lat="49.62005" lon="6.06484">
        <ele>310.2</ele>
        <time>2020-06-26T09:29:29Z</time>
      </trkpt>
      <trkpt lat="49.62008" lon="6.06482">
        <ele>310.4</ele>
        <time>2020-06-26T09:29:30Z</time>
      </trkpt>
      <trkpt lat="49.62012" lon="6.0648">
        <ele>310.5</ele>
        <time>2020-06-26T09:29:31Z</time>
      </trkpt>
      <trkpt lat="49.62015" lon="6.06479">
        <ele>310.7</ele>
        <time>2020-06-26T09:29:32Z</time>
      </trkpt>
      <trkpt lat="49.62019" lon="6.06479">
        <ele>310.8</ele>
        <time>2020-06-26T09:29:33Z</time>
      </trkpt>
      <trkpt lat="49.62022" lon="6.06478">
        <ele>310.9</ele>
        <time>2020-06-26T09:29:34Z</time>
      </trkpt>
      <trkpt lat="49.62025" lon="6.06478">
        <ele>311.1</ele>
        <time>2020-06-26T09:29:35Z</time>
      </trkpt>
      <trkpt lat="49.62028" lon="6.06478">
        <ele>311.2</ele>
        <time>2020-06-26T09:29:36Z</time>
      </trkpt>
      <trkpt lat="49.62031" lon="6.06477">
        <ele>311.4</ele>
        <time>2020-06-26T09:29:37Z</time>
      </trkpt>
      <trkpt lat="49.62034" lon="6.06477">
        <ele>311.5</ele>
        <time>2020-06-26T09:29:38Z</time>
      </trkpt>
      <trkpt lat="49.62038" lon="6.06475">
        <ele>311.7</ele>
        <time>2020-06-26T09:29:39Z</time>
      </trkpt>
      <trkpt lat="49.62042" lon="6.06477">
        <ele>312</ele>
        <time>2020-06-26T09:29:40Z</time>
      </trkpt>
      <trkpt lat="49.62043" lon="6.06477">
        <ele>312</ele>
        <time>2020-06-26T09:29:41Z</time>
      </trkpt>
      <trkpt lat="49.62046" lon="6.06478">
        <ele>312.2</ele>
        <time>2020-06-26T09:29:42Z</time>
      </trkpt>
      <trkpt lat="49.6205" lon="6.06478">
        <ele>312.5</ele>
        <time>2020-06-26T09:29:43Z</time>
      </trkpt>
      <trkpt lat="49.62055" lon="6.06475">
        <ele>312.8</ele>
        <time>2020-06-26T09:29:44Z</time>
      </trkpt>
      <trkpt lat="49.62058" lon="6.06474">
        <ele>313</ele>
        <time>2020-06-26T09:29:45Z</time>
      </trkpt>
      <trkpt lat="49.62062" lon="6.06474">
        <ele>313.2</ele>
        <time>2020-06-26T09:29:46Z</time>
      </trkpt>
      <trkpt lat="49.62066" lon="6.06472">
        <ele>313.5</ele>
        <time>2020-06-26T09:29:47Z</time>
      </trkpt>
      <trkpt lat="49.62071" lon="6.06472">
        <ele>313.7</ele>
        <time>2020-06-26T09:29:48Z</time>
      </trkpt>
      <trkpt lat="49.62075" lon="6.06473">
        <ele>314.1</ele>
        <time>2020-06-26T09:29:49Z</time>
      </trkpt>
      <trkpt lat="49.62079" lon="6.06474">
        <ele>314.4</ele>
        <time>2020-06-26T09:29:50Z</time>
      </trkpt>
      <trkpt lat="49.62081" lon="6.06474">
        <ele>314.6</ele>
        <time>2020-06-26T09:29:51Z</time>
      </trkpt>
      <trkpt lat="49.62084" lon="6.06474">
        <ele>314.9</ele>
        <time>2020-06-26T09:29:52Z</time>
      </trkpt>
      <trkpt lat="49.62087" lon="6.06475">
        <ele>315.1</ele>
        <time>2020-06-26T09:29:53Z</time>
      </trkpt>
      <trkpt lat="49.62091" lon="6.06474">
        <ele>315.5</ele>
        <time>2020-06-26T09:29:54Z</time>
      </trkpt>
      <trkpt lat="49.62095" lon="6.06474">
        <ele>315.8</ele>
        <time>2020-06-26T09:29:55Z</time>
      </trkpt>
      <trkpt lat="49.62099" lon="6.06475">
        <ele>316.1</ele>
        <time>2020-06-26T09:29:56Z</time>
      </trkpt>
      <trkpt lat="49.62104" lon="6.06478">
        <ele>316.6</ele>
        <time>2020-06-26T09:29:57Z</time>
      </trkpt>
      <trkpt lat="49.62109" lon="6.06478">
        <ele>316.9</ele>
        <time>2020-06-26T09:29:58Z</time>
      </trkpt>
      <trkpt lat="49.62111" lon="6.06479">
        <ele>317.1</ele>
        <time>2020-06-26T09:29:59Z</time>
      </trkpt>
      <trkpt lat="49.62113" lon="6.0648">
        <ele>317.3</ele>
        <time>2020-06-26T09:30:00Z</time>
      </trkpt>
      <trkpt lat="49.62114" lon="6.06482">
        <ele>317.4</ele>
        <time>2020-06-26T09:30:01Z</time>
      </trkpt>
      <trkpt lat="49.62116" lon="6.06485">
        <ele>317.7</ele>
        <time>2020-06-26T09:30:02Z</time>
      </trkpt>
      <trkpt lat="49.62117" lon="6.06486">
        <ele>317.7</ele>
        <time>2020-06-26T09:30:03Z</time>
      </trkpt>
      <trkpt lat="49.62117" lon="6.06491">
        <ele>317.6</ele>
        <time>2020-06-26T09:30:04Z</time>
      </trkpt>
      <trkpt lat="49.62117" lon="6.06493">
        <ele>317.6</ele>
        <time>2020-06-26T09:30:05Z</time>
      </trkpt>
      <trkpt lat="49.62117" lon="6.06497">
        <ele>317.5</ele>
        <time>2020-06-26T09:30:06Z</time>
      </trkpt>
      <trkpt lat="49.62117" lon="6.06502">
        <ele>317.4</ele>
        <time>2020-06-26T09:30:07Z</time>
      </trkpt>
      <trkpt lat="49.62117" lon="6.06507">
        <ele>317.3</ele>
        <time>2020-06-26T09:30:08Z</time>
      </trkpt>
      <trkpt lat="49.62117" lon="6.06514">
        <ele>317.2</ele>
        <time>2020-06-26T09:30:09Z</time>
      </trkpt>
      <trkpt lat="49.62119" lon="6.06522">
        <ele>317.1</ele>
        <time>2020-06-26T09:30:10Z</time>
      </trkpt>
      <trkpt lat="49.6212" lon="6.06529">
        <ele>317</ele>
        <time>2020-06-26T09:30:11Z</time>
      </trkpt>
      <trkpt lat="49.62117" lon="6.06533">
        <ele>316.9</ele>
        <time>2020-06-26T09:30:12Z</time>
      </trkpt>
      <trkpt lat="49.62116" lon="6.06538">
        <ele>316.9</ele>
        <time>2020-06-26T09:30:13Z</time>
      </trkpt>
      <trkpt lat="49.62116" lon="6.06544">
        <ele>316.8</ele>
        <time>2020-06-26T09:30:14Z</time>
      </trkpt>
      <trkpt lat="49.62114" lon="6.0655">
        <ele>316.7</ele>
        <time>2020-06-26T09:30:15Z</time>
      </trkpt>
      <trkpt lat="49.62112" lon="6.06556">
        <ele>316.6</ele>
        <time>2020-06-26T09:30:16Z</time>
      </trkpt>
      <trkpt lat="49.6211" lon="6.06563">
        <ele>316.5</ele>
        <time>2020-06-26T09:30:17Z</time>
      </trkpt>
      <trkpt lat="49.62109" lon="6.06571">
        <ele>316.4</ele>
        <time>2020-06-26T09:30:18Z</time>
      </trkpt>
      <trkpt lat="49.62108" lon="6.06579">
        <ele>316.3</ele>
        <time>2020-06-26T09:30:19Z</time>
      </trkpt>
      <trkpt lat="49.62108" lon="6.06586">
        <ele>316.2</ele>
        <time>2020-06-26T09:30:20Z</time>
      </trkpt>
      <trkpt lat="49.62107" lon="6.06594">
        <ele>316</ele>
        <time>2020-06-26T09:30:21Z</time>
      </trkpt>
      <trkpt lat="49.62105" lon="6.06601">
        <ele>315.9</ele>
        <time>2020-06-26T09:30:22Z</time>
      </trkpt>
      <trkpt lat="49.62103" lon="6.06608">
        <ele>315.7</ele>
        <time>2020-06-26T09:30:23Z</time>
      </trkpt>
      <trkpt lat="49.62102" lon="6.06617">
        <ele>315.6</ele>
        <time>2020-06-26T09:30:24Z</time>
      </trkpt>
      <trkpt lat="49.62101" lon="6.06624">
        <ele>315.4</ele>
        <time>2020-06-26T09:30:25Z</time>
      </trkpt>
      <trkpt lat="49.621" lon="6.06632">
        <ele>315.2</ele>
        <time>2020-06-26T09:30:26Z</time>
      </trkpt>
      <trkpt lat="49.62099" lon="6.06639">
        <ele>315.1</ele>
        <time>2020-06-26T09:30:27Z</time>
      </trkpt>
      <trkpt lat="49.62098" lon="6.06646">
        <ele>315</ele>
        <time>2020-06-26T09:30:28Z</time>
      </trkpt>
      <trkpt lat="49.62097" lon="6.06653">
        <ele>314.9</ele>
        <time>2020-06-26T09:30:29Z</time>
      </trkpt>
      <trkpt lat="49.62096" lon="6.06661">
        <ele>314.8</ele>
        <time>2020-06-26T09:30:30Z</time>
      </trkpt>
      <trkpt lat="49.62095" lon="6.06669">
        <ele>314.7</ele>
        <time>2020-06-26T09:30:31Z</time>
      </trkpt>
      <trkpt lat="49.62095" lon="6.06677">
        <ele>314.6</ele>
        <time>2020-06-26T09:30:32Z</time>
      </trkpt>
      <trkpt lat="49.62093" lon="6.06685">
        <ele>314.5</ele>
        <time>2020-06-26T09:30:33Z</time>
      </trkpt>
      <trkpt lat="49.62093" lon="6.06694">
        <ele>314.4</ele>
        <time>2020-06-26T09:30:34Z</time>
      </trkpt>
      <trkpt lat="49.62091" lon="6.06702">
        <ele>314.3</ele>
        <time>2020-06-26T09:30:35Z</time>
      </trkpt>
      <trkpt lat="49.62091" lon="6.0671">
        <ele>314.3</ele>
        <time>2020-06-26T09:30:36Z</time>
      </trkpt>
      <trkpt lat="49.6209" lon="6.06717">
        <ele>314.2</ele>
        <time>2020-06-26T09:30:37Z</time>
      </trkpt>
      <trkpt lat="49.62089" lon="6.06727">
        <ele>314.3</ele>
        <time>2020-06-26T09:30:38Z</time>
      </trkpt>
      <trkpt lat="49.62087" lon="6.06734">
        <ele>314.3</ele>
        <time>2020-06-26T09:30:39Z</time>
      </trkpt>
      <trkpt lat="49.62086" lon="6.06742">
        <ele>314.2</ele>
        <time>2020-06-26T09:30:40Z</time>
      </trkpt>
      <trkpt lat="49.62085" lon="6.06748">
        <ele>314.1</ele>
        <time>2020-06-26T09:30:41Z</time>
      </trkpt>
      <trkpt lat="49.62084" lon="6.06756">
        <ele>313.9</ele>
        <time>2020-06-26T09:30:42Z</time>
      </trkpt>
      <trkpt lat="49.62083" lon="6.06764">
        <ele>313.7</ele>
        <time>2020-06-26T09:30:43Z</time>
      </trkpt>
      <trkpt lat="49.62082" lon="6.06772">
        <ele>313.6</ele>
        <time>2020-06-26T09:30:44Z</time>
      </trkpt>
      <trkpt lat="49.62081" lon="6.06781">
        <ele>313.4</ele>
        <time>2020-06-26T09:30:45Z</time>
      </trkpt>
      <trkpt lat="49.6208" lon="6.0679">
        <ele>313.3</ele>
        <time>2020-06-26T09:30:46Z</time>
      </trkpt>
      <trkpt lat="49.62079" lon="6.06798">
        <ele>313.1</ele>
        <time>2020-06-26T09:30:47Z</time>
      </trkpt>
      <trkpt lat="49.62078" lon="6.06807">
        <ele>313</ele>
        <time>2020-06-26T09:30:48Z</time>
      </trkpt>
      <trkpt lat="49.62077" lon="6.06816">
        <ele>312.7</ele>
        <time>2020-06-26T09:30:49Z</time>
      </trkpt>
      <trkpt lat="49.62075" lon="6.06824">
        <ele>312.6</ele>
        <time>2020-06-26T09:30:50Z</time>
      </trkpt>
      <trkpt lat="49.62072" lon="6.06834">
        <ele>312.5</ele>
        <time>2020-06-26T09:30:51Z</time>
      </trkpt>
      <trkpt lat="49.62071" lon="6.06844">
        <ele>312.5</ele>
        <time>2020-06-26T09:30:52Z</time>
      </trkpt>
      <trkpt lat="49.62069" lon="6.06853">
        <ele>312.4</ele>
        <time>2020-06-26T09:30:53Z</time>
      </trkpt>
      <trkpt lat="49.62067" lon="6.06862">
        <ele>312.3</ele>
        <time>2020-06-26T09:30:54Z</time>
      </trkpt>
      <trkpt lat="49.62064" lon="6.06871">
        <ele>312.2</ele>
        <time>2020-06-26T09:30:55Z</time>
      </trkpt>
      <trkpt lat="49.62063" lon="6.0688">
        <ele>312.2</ele>
        <time>2020-06-26T09:30:56Z</time>
      </trkpt>
      <trkpt lat="49.62061" lon="6.06889">
        <ele>312.1</ele>
        <time>2020-06-26T09:30:57Z</time>
      </trkpt>
      <trkpt lat="49.62061" lon="6.069">
        <ele>312</ele>
        <time>2020-06-26T09:30:58Z</time>
      </trkpt>
      <trkpt lat="49.6206" lon="6.06909">
        <ele>312</ele>
        <time>2020-06-26T09:30:59Z</time>
      </trkpt>
      <trkpt lat="49.62058" lon="6.0692">
        <ele>312</ele>
        <time>2020-06-26T09:31:00Z</time>
      </trkpt>
      <trkpt lat="49.62056" lon="6.0693">
        <ele>311.9</ele>
        <time>2020-06-26T09:31:01Z</time>
      </trkpt>
      <trkpt lat="49.62056" lon="6.06939">
        <ele>311.9</ele>
        <time>2020-06-26T09:31:02Z</time>
      </trkpt>
      <trkpt lat="49.62055" lon="6.06948">
        <ele>311.9</ele>
        <time>2020-06-26T09:31:03Z</time>
      </trkpt>
      <trkpt lat="49.62053" lon="6.06957">
        <ele>311.9</ele>
        <time>2020-06-26T09:31:04Z</time>
      </trkpt>
      <trkpt lat="49.62052" lon="6.06966">
        <ele>311.8</ele>
        <time>2020-06-26T09:31:05Z</time>
      </trkpt>
      <trkpt lat="49.62051" lon="6.06977">
        <ele>311.8</ele>
        <time>2020-06-26T09:31:06Z</time>
      </trkpt>
      <trkpt lat="49.6205" lon="6.06986">
        <ele>311.8</ele>
        <time>2020-06-26T09:31:07Z</time>
      </trkpt>
      <trkpt lat="49.62048" lon="6.06996">
        <ele>311.8</ele>
        <time>2020-06-26T09:31:08Z</time>
      </trkpt>
      <trkpt lat="49.62047" lon="6.07006">
        <ele>311.7</ele>
        <time>2020-06-26T09:31:09Z</time>
      </trkpt>
      <trkpt lat="49.62046" lon="6.07015">
        <ele>311.7</ele>
        <time>2020-06-26T09:31:10Z</time>
      </trkpt>
      <trkpt lat="49.62046" lon="6.07024">
        <ele>311.6</ele>
        <time>2020-06-26T09:31:11Z</time>
      </trkpt>
      <trkpt lat="49.62045" lon="6.07033">
        <ele>311.4</ele>
        <time>2020-06-26T09:31:12Z</time>
      </trkpt>
      <trkpt lat="49.62043" lon="6.07042">
        <ele>311.3</ele>
        <time>2020-06-26T09:31:13Z</time>
      </trkpt>
      <trkpt lat="49.62042" lon="6.07052">
        <ele>311.1</ele>
        <time>2020-06-26T09:31:14Z</time>
      </trkpt>
      <trkpt lat="49.62041" lon="6.07061">
        <ele>310.9</ele>
        <time>2020-06-26T09:31:15Z</time>
      </trkpt>
      <trkpt lat="49.6204" lon="6.0707">
        <ele>310.8</ele>
        <time>2020-06-26T09:31:16Z</time>
      </trkpt>
      <trkpt lat="49.62039" lon="6.07079">
        <ele>310.6</ele>
        <time>2020-06-26T09:31:17Z</time>
      </trkpt>
      <trkpt lat="49.62038" lon="6.07091">
        <ele>310.5</ele>
        <time>2020-06-26T09:31:18Z</time>
      </trkpt>
      <trkpt lat="49.62036" lon="6.07104">
        <ele>310.3</ele>
        <time>2020-06-26T09:31:19Z</time>
      </trkpt>
      <trkpt lat="49.62033" lon="6.07115">
        <ele>310.3</ele>
        <time>2020-06-26T09:31:20Z</time>
      </trkpt>
      <trkpt lat="49.62031" lon="6.07125">
        <ele>310.2</ele>
        <time>2020-06-26T09:31:21Z</time>
      </trkpt>
      <trkpt lat="49.62029" lon="6.07136">
        <ele>310.1</ele>
        <time>2020-06-26T09:31:22Z</time>
      </trkpt>
      <trkpt lat="49.62027" lon="6.07145">
        <ele>310.1</ele>
        <time>2020-06-26T09:31:23Z</time>
      </trkpt>
      <trkpt lat="49.62026" lon="6.07154">
        <ele>310</ele>
        <time>2020-06-26T09:31:24Z</time>
      </trkpt>
      <trkpt lat="49.62024" lon="6.07163">
        <ele>309.9</ele>
        <time>2020-06-26T09:31:25Z</time>
      </trkpt>
      <trkpt lat="49.62023" lon="6.07173">
        <ele>309.9</ele>
        <time>2020-06-26T09:31:26Z</time>
      </trkpt>
      <trkpt lat="49.62022" lon="6.07183">
        <ele>309.8</ele>
        <time>2020-06-26T09:31:27Z</time>
      </trkpt>
      <trkpt lat="49.6202" lon="6.07193">
        <ele>309.8</ele>
        <time>2020-06-26T09:31:28Z</time>
      </trkpt>
      <trkpt lat="49.62018" lon="6.07204">
        <ele>309.8</ele>
        <time>2020-06-26T09:31:29Z</time>
      </trkpt>
      <trkpt lat="49.62016" lon="6.07215">
        <ele>309.7</ele>
        <time>2020-06-26T09:31:30Z</time>
      </trkpt>
      <trkpt lat="49.62014" lon="6.07225">
        <ele>309.6</ele>
        <time>2020-06-26T09:31:31Z</time>
      </trkpt>
      <trkpt lat="49.62013" lon="6.07234">
        <ele>309.5</ele>
        <time>2020-06-26T09:31:32Z</time>
      </trkpt>
      <trkpt lat="49.62011" lon="6.07243">
        <ele>309.5</ele>
        <time>2020-06-26T09:31:33Z</time>
      </trkpt>
      <trkpt lat="49.6201" lon="6.07252">
        <ele>309.4</ele>
        <time>2020-06-26T09:31:34Z</time>
      </trkpt>
      <trkpt lat="49.6201" lon="6.0726">
        <ele>309.4</ele>
        <time>2020-06-26T09:31:35Z</time>
      </trkpt>
      <trkpt lat="49.62009" lon="6.07268">
        <ele>309.4</ele>
        <time>2020-06-26T09:31:36Z</time>
      </trkpt>
      <trkpt lat="49.62009" lon="6.07276">
        <ele>309.3</ele>
        <time>2020-06-26T09:31:37Z</time>
      </trkpt>
      <trkpt lat="49.62008" lon="6.07284">
        <ele>309.3</ele>
        <time>2020-06-26T09:31:38Z</time>
      </trkpt>
      <trkpt lat="49.62006" lon="6.07293">
        <ele>309.3</ele>
        <time>2020-06-26T09:31:39Z</time>
      </trkpt>
      <trkpt lat="49.62006" lon="6.07304">
        <ele>309.3</ele>
        <time>2020-06-26T09:31:40Z</time>
      </trkpt>
      <trkpt lat="49.62005" lon="6.07315">
        <ele>309.2</ele>
        <time>2020-06-26T09:31:41Z</time>
      </trkpt>
      <trkpt lat="49.62004" lon="6.07324">
        <ele>309.2</ele>
        <time>2020-06-26T09:31:42Z</time>
      </trkpt>
      <trkpt lat="49.62004" lon="6.07334">
        <ele>309.1</ele>
        <time>2020-06-26T09:31:43Z</time>
      </trkpt>
      <trkpt lat="49.62003" lon="6.07345">
        <ele>309</ele>
        <time>2020-06-26T09:31:44Z</time>
      </trkpt>
      <trkpt lat="49.62002" lon="6.07359">
        <ele>308.9</ele>
        <time>2020-06-26T09:31:45Z</time>
      </trkpt>
      <trkpt lat="49.62" lon="6.07372">
        <ele>308.8</ele>
        <time>2020-06-26T09:31:46Z</time>
      </trkpt>
      <trkpt lat="49.61997" lon="6.07384">
        <ele>308.7</ele>
        <time>2020-06-26T09:31:47Z</time>
      </trkpt>
      <trkpt lat="49.61994" lon="6.07391">
        <ele>308.6</ele>
        <time>2020-06-26T09:31:48Z</time>
      </trkpt>
      <trkpt lat="49.61992" lon="6.07398">
        <ele>308.5</ele>
        <time>2020-06-26T09:31:49Z</time>
      </trkpt>
      <trkpt lat="49.6199" lon="6.07406">
        <ele>308.4</ele>
        <time>2020-06-26T09:31:50Z</time>
      </trkpt>
      <trkpt lat="49.61988" lon="6.07414">
        <ele>308.4</ele>
        <time>2020-06-26T09:31:51Z</time>
      </trkpt>
      <trkpt lat="49.61988" lon="6.07423">
        <ele>308.3</ele>
        <time>2020-06-26T09:31:52Z</time>
      </trkpt>
      <trkpt lat="49.61987" lon="6.07432">
        <ele>308.3</ele>
        <time>2020-06-26T09:31:53Z</time>
      </trkpt>
      <trkpt lat="49.61983" lon="6.07438">
        <ele>308.2</ele>
        <time>2020-06-26T09:31:54Z</time>
      </trkpt>
      <trkpt lat="49.61984" lon="6.0745">
        <ele>308.2</ele>
        <time>2020-06-26T09:31:55Z</time>
      </trkpt>
      <trkpt lat="49.61981" lon="6.0746">
        <ele>308.2</ele>
        <time>2020-06-26T09:31:56Z</time>
      </trkpt>
      <trkpt lat="49.6198" lon="6.07471">
        <ele>308.1</ele>
        <time>2020-06-26T09:31:57Z</time>
      </trkpt>
      <trkpt lat="49.61978" lon="6.07482">
        <ele>308.1</ele>
        <time>2020-06-26T09:31:58Z</time>
      </trkpt>
      <trkpt lat="49.61977" lon="6.07492">
        <ele>308.1</ele>
        <time>2020-06-26T09:31:59Z</time>
      </trkpt>
      <trkpt lat="49.61976" lon="6.07502">
        <ele>308.2</ele>
        <time>2020-06-26T09:32:00Z</time>
      </trkpt>
      <trkpt lat="49.61976" lon="6.07513">
        <ele>308.3</ele>
        <time>2020-06-26T09:32:01Z</time>
      </trkpt>
      <trkpt lat="49.61974" lon="6.07524">
        <ele>308.4</ele>
        <time>2020-06-26T09:32:02Z</time>
      </trkpt>
      <trkpt lat="49.61973" lon="6.07534">
        <ele>308.5</ele>
        <time>2020-06-26T09:32:03Z</time>
      </trkpt>
      <trkpt lat="49.61971" lon="6.07544">
        <ele>308.7</ele>
        <time>2020-06-26T09:32:04Z</time>
      </trkpt>
      <trkpt lat="49.6197" lon="6.07554">
        <ele>308.9</ele>
        <time>2020-06-26T09:32:05Z</time>
      </trkpt>
      <trkpt lat="49.61968" lon="6.07565">
        <ele>308.7</ele>
        <time>2020-06-26T09:32:06Z</time>
      </trkpt>
      <trkpt lat="49.61967" lon="6.07574">
        <ele>308.4</ele>
        <time>2020-06-26T09:32:07Z</time>
      </trkpt>
      <trkpt lat="49.61965" lon="6.07583">
        <ele>308.2</ele>
        <time>2020-06-26T09:32:08Z</time>
      </trkpt>
      <trkpt lat="49.61964" lon="6.07593">
        <ele>308</ele>
        <time>2020-06-26T09:32:09Z</time>
      </trkpt>
      <trkpt lat="49.61962" lon="6.07602">
        <ele>308</ele>
        <time>2020-06-26T09:32:10Z</time>
      </trkpt>
      <trkpt lat="49.6196" lon="6.07613">
        <ele>308</ele>
        <time>2020-06-26T09:32:11Z</time>
      </trkpt>
      <trkpt lat="49.61958" lon="6.07623">
        <ele>308</ele>
        <time>2020-06-26T09:32:12Z</time>
      </trkpt>
      <trkpt lat="49.61956" lon="6.07633">
        <ele>308</ele>
        <time>2020-06-26T09:32:13Z</time>
      </trkpt>
      <trkpt lat="49.61954" lon="6.07643">
        <ele>308</ele>
        <time>2020-06-26T09:32:14Z</time>
      </trkpt>
      <trkpt lat="49.61953" lon="6.07652">
        <ele>308</ele>
        <time>2020-06-26T09:32:15Z</time>
      </trkpt>
      <trkpt lat="49.61953" lon="6.0766">
        <ele>308</ele>
        <time>2020-06-26T09:32:16Z</time>
      </trkpt>
      <trkpt lat="49.61953" lon="6.07668">
        <ele>308</ele>
        <time>2020-06-26T09:32:17Z</time>
      </trkpt>
      <trkpt lat="49.61952" lon="6.07677">
        <ele>308.2</ele>
        <time>2020-06-26T09:32:18Z</time>
      </trkpt>
      <trkpt lat="49.61951" lon="6.07687">
        <ele>308.3</ele>
        <time>2020-06-26T09:32:19Z</time>
      </trkpt>
      <trkpt lat="49.6195" lon="6.07697">
        <ele>308.4</ele>
        <time>2020-06-26T09:32:20Z</time>
      </trkpt>
      <trkpt lat="49.61948" lon="6.07706">
        <ele>308.5</ele>
        <time>2020-06-26T09:32:21Z</time>
      </trkpt>
      <trkpt lat="49.61947" lon="6.07714">
        <ele>308.5</ele>
        <time>2020-06-26T09:32:22Z</time>
      </trkpt>
      <trkpt lat="49.61947" lon="6.07722">
        <ele>308.6</ele>
        <time>2020-06-26T09:32:23Z</time>
      </trkpt>
      <trkpt lat="49.61946" lon="6.07729">
        <ele>308.7</ele>
        <time>2020-06-26T09:32:24Z</time>
      </trkpt>
      <trkpt lat="49.61946" lon="6.07736">
        <ele>308.8</ele>
        <time>2020-06-26T09:32:25Z</time>
      </trkpt>
      <trkpt lat="49.61946" lon="6.07741">
        <ele>308.8</ele>
        <time>2020-06-26T09:32:26Z</time>
      </trkpt>
      <trkpt lat="49.61945" lon="6.07746">
        <ele>308.9</ele>
        <time>2020-06-26T09:32:27Z</time>
      </trkpt>
      <trkpt lat="49.61944" lon="6.07751">
        <ele>309</ele>
        <time>2020-06-26T09:32:28Z</time>
      </trkpt>
      <trkpt lat="49.61945" lon="6.07756">
        <ele>309.1</ele>
        <time>2020-06-26T09:32:29Z</time>
      </trkpt>
      <trkpt lat="49.61945" lon="6.07757">
        <ele>309.1</ele>
        <time>2020-06-26T09:32:30Z</time>
      </trkpt>
      <trkpt lat="49.61943" lon="6.0776">
        <ele>309.1</ele>
        <time>2020-06-26T09:32:31Z</time>
      </trkpt>
      <trkpt lat="49.61942" lon="6.07762">
        <ele>309.2</ele>
        <time>2020-06-26T09:32:32Z</time>
      </trkpt>
      <trkpt lat="49.61941" lon="6.07767">
        <ele>309.3</ele>
        <time>2020-06-26T09:32:33Z</time>
      </trkpt>
      <trkpt lat="49.6194" lon="6.0777">
        <ele>309.3</ele>
        <time>2020-06-26T09:32:34Z</time>
      </trkpt>
      <trkpt lat="49.61939" lon="6.07774">
        <ele>309.4</ele>
        <time>2020-06-26T09:32:35Z</time>
      </trkpt>
      <trkpt lat="49.61936" lon="6.07778">
        <ele>309.5</ele>
        <time>2020-06-26T09:32:36Z</time>
      </trkpt>
      <trkpt lat="49.61934" lon="6.07784">
        <ele>309.6</ele>
        <time>2020-06-26T09:32:37Z</time>
      </trkpt>
      <trkpt lat="49.61932" lon="6.07793">
        <ele>309.6</ele>
        <time>2020-06-26T09:32:38Z</time>
      </trkpt>
      <trkpt lat="49.6193" lon="6.07802">
        <ele>309.7</ele>
        <time>2020-06-26T09:32:39Z</time>
      </trkpt>
      <trkpt lat="49.6193" lon="6.0781">
        <ele>309.7</ele>
        <time>2020-06-26T09:32:40Z</time>
      </trkpt>
      <trkpt lat="49.6193" lon="6.07818">
        <ele>309.7</ele>
        <time>2020-06-26T09:32:41Z</time>
      </trkpt>
      <trkpt lat="49.61928" lon="6.07828">
        <ele>309.8</ele>
        <time>2020-06-26T09:32:42Z</time>
      </trkpt>
      <trkpt lat="49.61925" lon="6.07836">
        <ele>309.8</ele>
        <time>2020-06-26T09:32:43Z</time>
      </trkpt>
      <trkpt lat="49.61924" lon="6.07845">
        <ele>309.8</ele>
        <time>2020-06-26T09:32:44Z</time>
      </trkpt>
      <trkpt lat="49.61922" lon="6.07855">
        <ele>309.9</ele>
        <time>2020-06-26T09:32:45Z</time>
      </trkpt>
      <trkpt lat="49.6192" lon="6.07864">
        <ele>309.9</ele>
        <time>2020-06-26T09:32:46Z</time>
      </trkpt>
      <trkpt lat="49.61918" lon="6.07873">
        <ele>309.9</ele>
        <time>2020-06-26T09:32:47Z</time>
      </trkpt>
      <trkpt lat="49.61916" lon="6.07882">
        <ele>309.9</ele>
        <time>2020-06-26T09:32:48Z</time>
      </trkpt>
      <trkpt lat="49.61914" lon="6.0789">
        <ele>309.9</ele>
        <time>2020-06-26T09:32:49Z</time>
      </trkpt>
      <trkpt lat="49.61913" lon="6.07899">
        <ele>309.9</ele>
        <time>2020-06-26T09:32:50Z</time>
      </trkpt>
      <trkpt lat="49.61912" lon="6.07907">
        <ele>309.9</ele>
        <time>2020-06-26T09:32:51Z</time>
      </trkpt>
      <trkpt lat="49.61911" lon="6.07915">
        <ele>309.9</ele>
        <time>2020-06-26T09:32:52Z</time>
      </trkpt>
      <trkpt lat="49.6191" lon="6.0792">
        <ele>309.9</ele>
        <time>2020-06-26T09:32:53Z</time>
      </trkpt>
      <trkpt lat="49.61908" lon="6.07928">
        <ele>310</ele>
        <time>2020-06-26T09:32:54Z</time>
      </trkpt>
      <trkpt lat="49.61907" lon="6.07937">
        <ele>310.1</ele>
        <time>2020-06-26T09:32:55Z</time>
      </trkpt>
      <trkpt lat="49.61906" lon="6.07946">
        <ele>310.2</ele>
        <time>2020-06-26T09:32:56Z</time>
      </trkpt>
      <trkpt lat="49.61905" lon="6.07954">
        <ele>310.2</ele>
        <time>2020-06-26T09:32:57Z</time>
      </trkpt>
      <trkpt lat="49.61903" lon="6.07962">
        <ele>310.3</ele>
        <time>2020-06-26T09:32:58Z</time>
      </trkpt>
      <trkpt lat="49.61902" lon="6.07971">
        <ele>310.4</ele>
        <time>2020-06-26T09:32:59Z</time>
      </trkpt>
      <trkpt lat="49.61901" lon="6.07978">
        <ele>310.5</ele>
        <time>2020-06-26T09:33:00Z</time>
      </trkpt>
      <trkpt lat="49.61899" lon="6.0799">
        <ele>310.6</ele>
        <time>2020-06-26T09:33:01Z</time>
      </trkpt>
      <trkpt lat="49.61898" lon="6.07998">
        <ele>310.7</ele>
        <time>2020-06-26T09:33:02Z</time>
      </trkpt>
      <trkpt lat="49.61898" lon="6.08005">
        <ele>310.8</ele>
        <time>2020-06-26T09:33:03Z</time>
      </trkpt>
      <trkpt lat="49.61897" lon="6.08012">
        <ele>310.9</ele>
        <time>2020-06-26T09:33:04Z</time>
      </trkpt>
      <trkpt lat="49.61897" lon="6.08022">
        <ele>310.9</ele>
        <time>2020-06-26T09:33:05Z</time>
      </trkpt>
      <trkpt lat="49.61896" lon="6.08031">
        <ele>311</ele>
        <time>2020-06-26T09:33:06Z</time>
      </trkpt>
      <trkpt lat="49.61895" lon="6.0804">
        <ele>311.1</ele>
        <time>2020-06-26T09:33:07Z</time>
      </trkpt>
      <trkpt lat="49.61893" lon="6.08048">
        <ele>311.2</ele>
        <time>2020-06-26T09:33:08Z</time>
      </trkpt>
      <trkpt lat="49.61892" lon="6.08056">
        <ele>311.3</ele>
        <time>2020-06-26T09:33:09Z</time>
      </trkpt>
      <trkpt lat="49.61891" lon="6.08063">
        <ele>311.4</ele>
        <time>2020-06-26T09:33:10Z</time>
      </trkpt>
      <trkpt lat="49.6189" lon="6.08072">
        <ele>311.4</ele>
        <time>2020-06-26T09:33:11Z</time>
      </trkpt>
      <trkpt lat="49.61889" lon="6.08081">
        <ele>311.5</ele>
        <time>2020-06-26T09:33:12Z</time>
      </trkpt>
      <trkpt lat="49.61889" lon="6.08087">
        <ele>311.5</ele>
        <time>2020-06-26T09:33:13Z</time>
      </trkpt>
      <trkpt lat="49.61889" lon="6.08095">
        <ele>311.6</ele>
        <time>2020-06-26T09:33:14Z</time>
      </trkpt>
      <trkpt lat="49.61888" lon="6.08104">
        <ele>311.6</ele>
        <time>2020-06-26T09:33:15Z</time>
      </trkpt>
      <trkpt lat="49.61888" lon="6.08112">
        <ele>311.7</ele>
        <time>2020-06-26T09:33:16Z</time>
      </trkpt>
      <trkpt lat="49.61886" lon="6.08119">
        <ele>311.7</ele>
        <time>2020-06-26T09:33:17Z</time>
      </trkpt>
      <trkpt lat="49.61885" lon="6.08127">
        <ele>311.8</ele>
        <time>2020-06-26T09:33:18Z</time>
      </trkpt>
      <trkpt lat="49.61883" lon="6.08134">
        <ele>311.9</ele>
        <time>2020-06-26T09:33:19Z</time>
      </trkpt>
      <trkpt lat="49.61882" lon="6.08141">
        <ele>311.9</ele>
        <time>2020-06-26T09:33:20Z</time>
      </trkpt>
      <trkpt lat="49.6188" lon="6.0815">
        <ele>312</ele>
        <time>2020-06-26T09:33:21Z</time>
      </trkpt>
      <trkpt lat="49.61878" lon="6.0816">
        <ele>312.1</ele>
        <time>2020-06-26T09:33:22Z</time>
      </trkpt>
      <trkpt lat="49.61877" lon="6.08168">
        <ele>312.1</ele>
        <time>2020-06-26T09:33:23Z</time>
      </trkpt>
      <trkpt lat="49.61876" lon="6.08174">
        <ele>312.1</ele>
        <time>2020-06-26T09:33:24Z</time>
      </trkpt>
      <trkpt lat="49.61876" lon="6.0818">
        <ele>312.2</ele>
        <time>2020-06-26T09:33:25Z</time>
      </trkpt>
      <trkpt lat="49.61875" lon="6.08185">
        <ele>312.2</ele>
        <time>2020-06-26T09:33:26Z</time>
      </trkpt>
      <trkpt lat="49.61874" lon="6.08191">
        <ele>312.2</ele>
        <time>2020-06-26T09:33:27Z</time>
      </trkpt>
      <trkpt lat="49.61873" lon="6.08194">
        <ele>312.2</ele>
        <time>2020-06-26T09:33:28Z</time>
      </trkpt>
      <trkpt lat="49.61873" lon="6.08196">
        <ele>312.3</ele>
        <time>2020-06-26T09:33:29Z</time>
      </trkpt>
      <trkpt lat="49.61873" lon="6.08198">
        <ele>312.3</ele>
        <time>2020-06-26T09:33:30Z</time>
      </trkpt>
      <trkpt lat="49.61874" lon="6.08201">
        <ele>312.3</ele>
        <time>2020-06-26T09:33:31Z</time>
      </trkpt>
      <trkpt lat="49.61874" lon="6.08203">
        <ele>312.3</ele>
        <time>2020-06-26T09:33:32Z</time>
      </trkpt>
      <trkpt lat="49.61874" lon="6.08203">
        <ele>312.3</ele>
        <time>2020-06-26T09:33:33Z</time>
      </trkpt>
      <trkpt lat="49.61874" lon="6.08205">
        <ele>312.3</ele>
        <time>2020-06-26T09:33:34Z</time>
      </trkpt>
      <trkpt lat="49.61874" lon="6.08205">
        <ele>312.3</ele>
        <time>2020-06-26T09:33:35Z</time>
      </trkpt>
      <trkpt lat="49.61874" lon="6.08205">
        <ele>312.3</ele>
        <time>2020-06-26T09:33:36Z</time>
      </trkpt>
      <trkpt lat="49.61875" lon="6.08205">
        <ele>312.3</ele>
        <time>2020-06-26T09:33:37Z</time>
      </trkpt>
      <trkpt lat="49.61875" lon="6.08204">
        <ele>312.3</ele>
        <time>2020-06-26T09:33:38Z</time>
      </trkpt>
      <trkpt lat="49.61875" lon="6.08203">
        <ele>312.3</ele>
        <time>2020-06-26T09:33:39Z</time>
      </trkpt>
      <trkpt lat="49.61875" lon="6.08203">
        <ele>312.3</ele>
        <time>2020-06-26T09:33:40Z</time>
      </trkpt>
      <trkpt lat="49.61875" lon="6.08202">
        <ele>312.3</ele>
        <time>2020-06-26T09:33:41Z</time>
      </trkpt>
      <trkpt lat="49.61875" lon="6.08201">
        <ele>312.4</ele>
        <time>2020-06-26T09:33:42Z</time>
      </trkpt>
      <trkpt lat="49.61875" lon="6.08201">
        <ele>312.4</ele>
        <time>2020-06-26T09:33:43Z</time>
      </trkpt>
      <trkpt lat="49.61876" lon="6.082">
        <ele>312.4</ele>
        <time>2020-06-26T09:33:44Z</time>
      </trkpt>
      <trkpt lat="49.61876" lon="6.082">
        <ele>312.4</ele>
        <time>2020-06-26T09:33:45Z</time>
      </trkpt>
      <trkpt lat="49.61874" lon="6.08209">
        <ele>312.4</ele>
        <time>2020-06-26T09:33:52Z</time>
      </trkpt>
      <trkpt lat="49.61873" lon="6.08212">
        <ele>312.5</ele>
        <time>2020-06-26T09:33:53Z</time>
      </trkpt>
      <trkpt lat="49.61873" lon="6.08214">
        <ele>312.5</ele>
        <time>2020-06-26T09:33:54Z</time>
      </trkpt>
      <trkpt lat="49.61872" lon="6.08219">
        <ele>312.6</ele>
        <time>2020-06-26T09:33:55Z</time>
      </trkpt>
      <trkpt lat="49.61872" lon="6.08224">
        <ele>312.6</ele>
        <time>2020-06-26T09:33:56Z</time>
      </trkpt>
      <trkpt lat="49.61871" lon="6.0823">
        <ele>312.7</ele>
        <time>2020-06-26T09:33:57Z</time>
      </trkpt>
      <trkpt lat="49.61869" lon="6.08237">
        <ele>312.7</ele>
        <time>2020-06-26T09:33:58Z</time>
      </trkpt>
      <trkpt lat="49.61868" lon="6.08245">
        <ele>312.6</ele>
        <time>2020-06-26T09:33:59Z</time>
      </trkpt>
      <trkpt lat="49.61866" lon="6.08252">
        <ele>312.6</ele>
        <time>2020-06-26T09:34:00Z</time>
      </trkpt>
      <trkpt lat="49.61865" lon="6.0826">
        <ele>312.6</ele>
        <time>2020-06-26T09:34:01Z</time>
      </trkpt>
      <trkpt lat="49.61865" lon="6.08267">
        <ele>312.6</ele>
        <time>2020-06-26T09:34:02Z</time>
      </trkpt>
      <trkpt lat="49.61864" lon="6.08273">
        <ele>312.5</ele>
        <time>2020-06-26T09:34:03Z</time>
      </trkpt>
      <trkpt lat="49.61863" lon="6.0828">
        <ele>312.5</ele>
        <time>2020-06-26T09:34:04Z</time>
      </trkpt>
      <trkpt lat="49.61862" lon="6.08288">
        <ele>312.5</ele>
        <time>2020-06-26T09:34:05Z</time>
      </trkpt>
      <trkpt lat="49.61861" lon="6.08295">
        <ele>312.5</ele>
        <time>2020-06-26T09:34:06Z</time>
      </trkpt>
      <trkpt lat="49.6186" lon="6.08302">
        <ele>312.5</ele>
        <time>2020-06-26T09:34:07Z</time>
      </trkpt>
      <trkpt lat="49.61859" lon="6.08309">
        <ele>312.5</ele>
        <time>2020-06-26T09:34:08Z</time>
      </trkpt>
      <trkpt lat="49.61858" lon="6.08315">
        <ele>312.5</ele>
        <time>2020-06-26T09:34:09Z</time>
      </trkpt>
      <trkpt lat="49.61857" lon="6.08323">
        <ele>312.5</ele>
        <time>2020-06-26T09:34:10Z</time>
      </trkpt>
      <trkpt lat="49.61855" lon="6.0833">
        <ele>312.5</ele>
        <time>2020-06-26T09:34:11Z</time>
      </trkpt>
      <trkpt lat="49.61853" lon="6.08339">
        <ele>312.5</ele>
        <time>2020-06-26T09:34:12Z</time>
      </trkpt>
      <trkpt lat="49.61854" lon="6.08346">
        <ele>312.5</ele>
        <time>2020-06-26T09:34:13Z</time>
      </trkpt>
      <trkpt lat="49.61854" lon="6.08353">
        <ele>312.5</ele>
        <time>2020-06-26T09:34:14Z</time>
      </trkpt>
      <trkpt lat="49.61853" lon="6.08359">
        <ele>312.5</ele>
        <time>2020-06-26T09:34:15Z</time>
      </trkpt>
      <trkpt lat="49.61854" lon="6.08367">
        <ele>312.5</ele>
        <time>2020-06-26T09:34:16Z</time>
      </trkpt>
      <trkpt lat="49.61853" lon="6.08374">
        <ele>312.5</ele>
        <time>2020-06-26T09:34:17Z</time>
      </trkpt>
      <trkpt lat="49.61853" lon="6.08383">
        <ele>312.5</ele>
        <time>2020-06-26T09:34:18Z</time>
      </trkpt>
      <trkpt lat="49.61851" lon="6.08391">
        <ele>312.5</ele>
        <time>2020-06-26T09:34:19Z</time>
      </trkpt>
      <trkpt lat="49.61849" lon="6.08398">
        <ele>312.4</ele>
        <time>2020-06-26T09:34:20Z</time>
      </trkpt>
      <trkpt lat="49.61848" lon="6.08406">
        <ele>312.4</ele>
        <time>2020-06-26T09:34:21Z</time>
      </trkpt>
      <trkpt lat="49.61846" lon="6.08414">
        <ele>312.4</ele>
        <time>2020-06-26T09:34:22Z</time>
      </trkpt>
      <trkpt lat="49.61845" lon="6.08422">
        <ele>312.4</ele>
        <time>2020-06-26T09:34:23Z</time>
      </trkpt>
      <trkpt lat="49.61844" lon="6.08429">
        <ele>312.4</ele>
        <time>2020-06-26T09:34:24Z</time>
      </trkpt>
      <trkpt lat="49.61842" lon="6.08435">
        <ele>312.4</ele>
        <time>2020-06-26T09:34:25Z</time>
      </trkpt>
      <trkpt lat="49.61842" lon="6.08442">
        <ele>312.4</ele>
        <time>2020-06-26T09:34:26Z</time>
      </trkpt>
      <trkpt lat="49.61841" lon="6.0845">
        <ele>312.4</ele>
        <time>2020-06-26T09:34:27Z</time>
      </trkpt>
      <trkpt lat="49.61839" lon="6.08459">
        <ele>312.4</ele>
        <time>2020-06-26T09:34:28Z</time>
      </trkpt>
      <trkpt lat="49.61838" lon="6.08467">
        <ele>312.4</ele>
        <time>2020-06-26T09:34:29Z</time>
      </trkpt>
      <trkpt lat="49.61837" lon="6.08477">
        <ele>312.4</ele>
        <time>2020-06-26T09:34:30Z</time>
      </trkpt>
      <trkpt lat="49.61837" lon="6.08485">
        <ele>312.4</ele>
        <time>2020-06-26T09:34:31Z</time>
      </trkpt>
      <trkpt lat="49.61835" lon="6.08493">
        <ele>312.4</ele>
        <time>2020-06-26T09:34:32Z</time>
      </trkpt>
      <trkpt lat="49.61834" lon="6.08501">
        <ele>312.4</ele>
        <time>2020-06-26T09:34:33Z</time>
      </trkpt>
      <trkpt lat="49.61832" lon="6.0851">
        <ele>312.4</ele>
        <time>2020-06-26T09:34:34Z</time>
      </trkpt>
      <trkpt lat="49.6183" lon="6.08518">
        <ele>312.5</ele>
        <time>2020-06-26T09:34:35Z</time>
      </trkpt>
      <trkpt lat="49.61828" lon="6.08527">
        <ele>312.5</ele>
        <time>2020-06-26T09:34:36Z</time>
      </trkpt>
      <trkpt lat="49.61826" lon="6.08536">
        <ele>312.5</ele>
        <time>2020-06-26T09:34:37Z</time>
      </trkpt>
      <trkpt lat="49.61824" lon="6.08544">
        <ele>312.5</ele>
        <time>2020-06-26T09:34:38Z</time>
      </trkpt>
      <trkpt lat="49.61822" lon="6.08552">
        <ele>312.5</ele>
        <time>2020-06-26T09:34:39Z</time>
      </trkpt>
      <trkpt lat="49.61821" lon="6.0856">
        <ele>312.6</ele>
        <time>2020-06-26T09:34:40Z</time>
      </trkpt>
      <trkpt lat="49.61819" lon="6.08569">
        <ele>312.6</ele>
        <time>2020-06-26T09:34:41Z</time>
      </trkpt>
      <trkpt lat="49.61818" lon="6.08577">
        <ele>312.6</ele>
        <time>2020-06-26T09:34:42Z</time>
      </trkpt>
      <trkpt lat="49.61817" lon="6.08586">
        <ele>312.7</ele>
        <time>2020-06-26T09:34:43Z</time>
      </trkpt>
      <trkpt lat="49.61816" lon="6.08596">
        <ele>312.7</ele>
        <time>2020-06-26T09:34:44Z</time>
      </trkpt>
      <trkpt lat="49.61815" lon="6.08604">
        <ele>312.7</ele>
        <time>2020-06-26T09:34:45Z</time>
      </trkpt>
      <trkpt lat="49.61813" lon="6.08612">
        <ele>312.7</ele>
        <time>2020-06-26T09:34:46Z</time>
      </trkpt>
      <trkpt lat="49.61811" lon="6.08621">
        <ele>312.7</ele>
        <time>2020-06-26T09:34:47Z</time>
      </trkpt>
      <trkpt lat="49.6181" lon="6.0863">
        <ele>312.7</ele>
        <time>2020-06-26T09:34:48Z</time>
      </trkpt>
      <trkpt lat="49.61809" lon="6.08638">
        <ele>312.8</ele>
        <time>2020-06-26T09:34:49Z</time>
      </trkpt>
      <trkpt lat="49.61808" lon="6.08647">
        <ele>312.8</ele>
        <time>2020-06-26T09:34:50Z</time>
      </trkpt>
      <trkpt lat="49.61809" lon="6.08656">
        <ele>312.8</ele>
        <time>2020-06-26T09:34:51Z</time>
      </trkpt>
      <trkpt lat="49.61809" lon="6.08665">
        <ele>312.8</ele>
        <time>2020-06-26T09:34:52Z</time>
      </trkpt>
      <trkpt lat="49.61809" lon="6.08674">
        <ele>312.8</ele>
        <time>2020-06-26T09:34:53Z</time>
      </trkpt>
      <trkpt lat="49.61808" lon="6.08683">
        <ele>312.9</ele>
        <time>2020-06-26T09:34:54Z</time>
      </trkpt>
      <trkpt lat="49.61807" lon="6.08693">
        <ele>312.9</ele>
        <time>2020-06-26T09:34:55Z</time>
      </trkpt>
      <trkpt lat="49.61806" lon="6.08702">
        <ele>312.9</ele>
        <time>2020-06-26T09:34:56Z</time>
      </trkpt>
      <trkpt lat="49.61804" lon="6.08711">
        <ele>313</ele>
        <time>2020-06-26T09:34:57Z</time>
      </trkpt>
      <trkpt lat="49.61803" lon="6.08721">
        <ele>313</ele>
        <time>2020-06-26T09:34:58Z</time>
      </trkpt>
      <trkpt lat="49.61801" lon="6.0873">
        <ele>313</ele>
        <time>2020-06-26T09:34:59Z</time>
      </trkpt>
      <trkpt lat="49.61799" lon="6.08739">
        <ele>313</ele>
        <time>2020-06-26T09:35:00Z</time>
      </trkpt>
      <trkpt lat="49.61798" lon="6.08747">
        <ele>313</ele>
        <time>2020-06-26T09:35:01Z</time>
      </trkpt>
      <trkpt lat="49.61796" lon="6.08754">
        <ele>313.1</ele>
        <time>2020-06-26T09:35:02Z</time>
      </trkpt>
      <trkpt lat="49.61794" lon="6.08761">
        <ele>313.1</ele>
        <time>2020-06-26T09:35:03Z</time>
      </trkpt>
      <trkpt lat="49.61793" lon="6.08768">
        <ele>313.1</ele>
        <time>2020-06-26T09:35:04Z</time>
      </trkpt>
      <trkpt lat="49.61792" lon="6.08775">
        <ele>313.2</ele>
        <time>2020-06-26T09:35:05Z</time>
      </trkpt>
      <trkpt lat="49.61791" lon="6.08783">
        <ele>313.2</ele>
        <time>2020-06-26T09:35:06Z</time>
      </trkpt>
      <trkpt lat="49.6179" lon="6.08791">
        <ele>313.3</ele>
        <time>2020-06-26T09:35:07Z</time>
      </trkpt>
      <trkpt lat="49.61789" lon="6.08799">
        <ele>313.4</ele>
        <time>2020-06-26T09:35:08Z</time>
      </trkpt>
      <trkpt lat="49.61788" lon="6.08807">
        <ele>313.5</ele>
        <time>2020-06-26T09:35:09Z</time>
      </trkpt>
      <trkpt lat="49.61787" lon="6.08815">
        <ele>313.6</ele>
        <time>2020-06-26T09:35:10Z</time>
      </trkpt>
      <trkpt lat="49.61785" lon="6.08822">
        <ele>313.7</ele>
        <time>2020-06-26T09:35:11Z</time>
      </trkpt>
      <trkpt lat="49.61783" lon="6.08831">
        <ele>313.8</ele>
        <time>2020-06-26T09:35:12Z</time>
      </trkpt>
      <trkpt lat="49.61781" lon="6.08839">
        <ele>313.9</ele>
        <time>2020-06-26T09:35:13Z</time>
      </trkpt>
      <trkpt lat="49.6178" lon="6.08847">
        <ele>314</ele>
        <time>2020-06-26T09:35:14Z</time>
      </trkpt>
      <trkpt lat="49.61779" lon="6.08856">
        <ele>314.1</ele>
        <time>2020-06-26T09:35:15Z</time>
      </trkpt>
      <trkpt lat="49.61778" lon="6.08865">
        <ele>314.2</ele>
        <time>2020-06-26T09:35:16Z</time>
      </trkpt>
      <trkpt lat="49.61778" lon="6.08874">
        <ele>314.4</ele>
        <time>2020-06-26T09:35:17Z</time>
      </trkpt>
      <trkpt lat="49.61778" lon="6.08883">
        <ele>314.6</ele>
        <time>2020-06-26T09:35:18Z</time>
      </trkpt>
      <trkpt lat="49.61776" lon="6.08891">
        <ele>314.7</ele>
        <time>2020-06-26T09:35:19Z</time>
      </trkpt>
      <trkpt lat="49.61775" lon="6.089">
        <ele>314.8</ele>
        <time>2020-06-26T09:35:20Z</time>
      </trkpt>
      <trkpt lat="49.61774" lon="6.08907">
        <ele>314.9</ele>
        <time>2020-06-26T09:35:21Z</time>
      </trkpt>
      <trkpt lat="49.61772" lon="6.08915">
        <ele>315</ele>
        <time>2020-06-26T09:35:22Z</time>
      </trkpt>
      <trkpt lat="49.61772" lon="6.08924">
        <ele>315.1</ele>
        <time>2020-06-26T09:35:23Z</time>
      </trkpt>
      <trkpt lat="49.6177" lon="6.08931">
        <ele>315.2</ele>
        <time>2020-06-26T09:35:24Z</time>
      </trkpt>
      <trkpt lat="49.61768" lon="6.08937">
        <ele>315.3</ele>
        <time>2020-06-26T09:35:25Z</time>
      </trkpt>
      <trkpt lat="49.61767" lon="6.08945">
        <ele>315.4</ele>
        <time>2020-06-26T09:35:26Z</time>
      </trkpt>
      <trkpt lat="49.61766" lon="6.08954">
        <ele>315.6</ele>
        <time>2020-06-26T09:35:27Z</time>
      </trkpt>
      <trkpt lat="49.61766" lon="6.08962">
        <ele>315.7</ele>
        <time>2020-06-26T09:35:28Z</time>
      </trkpt>
      <trkpt lat="49.61765" lon="6.0897">
        <ele>315.8</ele>
        <time>2020-06-26T09:35:29Z</time>
      </trkpt>
      <trkpt lat="49.61764" lon="6.08978">
        <ele>316</ele>
        <time>2020-06-26T09:35:30Z</time>
      </trkpt>
      <trkpt lat="49.61762" lon="6.08986">
        <ele>316.1</ele>
        <time>2020-06-26T09:35:31Z</time>
      </trkpt>
      <trkpt lat="49.61761" lon="6.08994">
        <ele>316.3</ele>
        <time>2020-06-26T09:35:32Z</time>
      </trkpt>
      <trkpt lat="49.61759" lon="6.09002">
        <ele>316.4</ele>
        <time>2020-06-26T09:35:33Z</time>
      </trkpt>
      <trkpt lat="49.61758" lon="6.09011">
        <ele>316.6</ele>
        <time>2020-06-26T09:35:34Z</time>
      </trkpt>
      <trkpt lat="49.61756" lon="6.09019">
        <ele>316.7</ele>
        <time>2020-06-26T09:35:35Z</time>
      </trkpt>
      <trkpt lat="49.61755" lon="6.09028">
        <ele>316.8</ele>
        <time>2020-06-26T09:35:36Z</time>
      </trkpt>
      <trkpt lat="49.61754" lon="6.09036">
        <ele>316.9</ele>
        <time>2020-06-26T09:35:37Z</time>
      </trkpt>
      <trkpt lat="49.61753" lon="6.09044">
        <ele>317</ele>
        <time>2020-06-26T09:35:38Z</time>
      </trkpt>
      <trkpt lat="49.61752" lon="6.09052">
        <ele>317.1</ele>
        <time>2020-06-26T09:35:39Z</time>
      </trkpt>
      <trkpt lat="49.61751" lon="6.09061">
        <ele>317.2</ele>
        <time>2020-06-26T09:35:40Z</time>
      </trkpt>
      <trkpt lat="49.6175" lon="6.0907">
        <ele>317.4</ele>
        <time>2020-06-26T09:35:41Z</time>
      </trkpt>
      <trkpt lat="49.61749" lon="6.09077">
        <ele>317.5</ele>
        <time>2020-06-26T09:35:42Z</time>
      </trkpt>
      <trkpt lat="49.61748" lon="6.09086">
        <ele>317.6</ele>
        <time>2020-06-26T09:35:43Z</time>
      </trkpt>
      <trkpt lat="49.61746" lon="6.09094">
        <ele>317.7</ele>
        <time>2020-06-26T09:35:44Z</time>
      </trkpt>
      <trkpt lat="49.61745" lon="6.09101">
        <ele>317.8</ele>
        <time>2020-06-26T09:35:45Z</time>
      </trkpt>
      <trkpt lat="49.61743" lon="6.09109">
        <ele>318</ele>
        <time>2020-06-26T09:35:46Z</time>
      </trkpt>
      <trkpt lat="49.61742" lon="6.09117">
        <ele>318.1</ele>
        <time>2020-06-26T09:35:47Z</time>
      </trkpt>
      <trkpt lat="49.6174" lon="6.09125">
        <ele>318.3</ele>
        <time>2020-06-26T09:35:48Z</time>
      </trkpt>
      <trkpt lat="49.61739" lon="6.09132">
        <ele>318.4</ele>
        <time>2020-06-26T09:35:49Z</time>
      </trkpt>
      <trkpt lat="49.61738" lon="6.0914">
        <ele>318.6</ele>
        <time>2020-06-26T09:35:50Z</time>
      </trkpt>
      <trkpt lat="49.61737" lon="6.09148">
        <ele>318.8</ele>
        <time>2020-06-26T09:35:51Z</time>
      </trkpt>
      <trkpt lat="49.61737" lon="6.09155">
        <ele>318.9</ele>
        <time>2020-06-26T09:35:52Z</time>
      </trkpt>
      <trkpt lat="49.61736" lon="6.09165">
        <ele>319.1</ele>
        <time>2020-06-26T09:35:53Z</time>
      </trkpt>
      <trkpt lat="49.61735" lon="6.09173">
        <ele>319.2</ele>
        <time>2020-06-26T09:35:54Z</time>
      </trkpt>
      <trkpt lat="49.61735" lon="6.09182">
        <ele>319.3</ele>
        <time>2020-06-26T09:35:55Z</time>
      </trkpt>
      <trkpt lat="49.61734" lon="6.09189">
        <ele>319.4</ele>
        <time>2020-06-26T09:35:56Z</time>
      </trkpt>
      <trkpt lat="49.61734" lon="6.09197">
        <ele>319.5</ele>
        <time>2020-06-26T09:35:57Z</time>
      </trkpt>
      <trkpt lat="49.61733" lon="6.09205">
        <ele>319.7</ele>
        <time>2020-06-26T09:35:58Z</time>
      </trkpt>
      <trkpt lat="49.61732" lon="6.09212">
        <ele>319.8</ele>
        <time>2020-06-26T09:35:59Z</time>
      </trkpt>
      <trkpt lat="49.6173" lon="6.09219">
        <ele>319.8</ele>
        <time>2020-06-26T09:36:00Z</time>
      </trkpt>
      <trkpt lat="49.61728" lon="6.09226">
        <ele>319.9</ele>
        <time>2020-06-26T09:36:01Z</time>
      </trkpt>
      <trkpt lat="49.61728" lon="6.09234">
        <ele>320</ele>
        <time>2020-06-26T09:36:02Z</time>
      </trkpt>
      <trkpt lat="49.61726" lon="6.0924">
        <ele>320.1</ele>
        <time>2020-06-26T09:36:03Z</time>
      </trkpt>
      <trkpt lat="49.61726" lon="6.09247">
        <ele>320.1</ele>
        <time>2020-06-26T09:36:04Z</time>
      </trkpt>
      <trkpt lat="49.61724" lon="6.09254">
        <ele>320.3</ele>
        <time>2020-06-26T09:36:05Z</time>
      </trkpt>
      <trkpt lat="49.61722" lon="6.09261">
        <ele>320.4</ele>
        <time>2020-06-26T09:36:06Z</time>
      </trkpt>
      <trkpt lat="49.61721" lon="6.09267">
        <ele>320.5</ele>
        <time>2020-06-26T09:36:07Z</time>
      </trkpt>
      <trkpt lat="49.61719" lon="6.09273">
        <ele>320.6</ele>
        <time>2020-06-26T09:36:08Z</time>
      </trkpt>
      <trkpt lat="49.61717" lon="6.0928">
        <ele>320.7</ele>
        <time>2020-06-26T09:36:09Z</time>
      </trkpt>
      <trkpt lat="49.61715" lon="6.09288">
        <ele>320.9</ele>
        <time>2020-06-26T09:36:10Z</time>
      </trkpt>
      <trkpt lat="49.61714" lon="6.09296">
        <ele>320.9</ele>
        <time>2020-06-26T09:36:11Z</time>
      </trkpt>
      <trkpt lat="49.61713" lon="6.09306">
        <ele>321</ele>
        <time>2020-06-26T09:36:12Z</time>
      </trkpt>
      <trkpt lat="49.61713" lon="6.09315">
        <ele>321.1</ele>
        <time>2020-06-26T09:36:13Z</time>
      </trkpt>
      <trkpt lat="49.61713" lon="6.09323">
        <ele>321.2</ele>
        <time>2020-06-26T09:36:14Z</time>
      </trkpt>
      <trkpt lat="49.61711" lon="6.0933">
        <ele>321.2</ele>
        <time>2020-06-26T09:36:15Z</time>
      </trkpt>
      <trkpt lat="49.61709" lon="6.09338">
        <ele>321.3</ele>
        <time>2020-06-26T09:36:16Z</time>
      </trkpt>
      <trkpt lat="49.61709" lon="6.09346">
        <ele>321.4</ele>
        <time>2020-06-26T09:36:17Z</time>
      </trkpt>
      <trkpt lat="49.61707" lon="6.09355">
        <ele>321.5</ele>
        <time>2020-06-26T09:36:18Z</time>
      </trkpt>
      <trkpt lat="49.61707" lon="6.09365">
        <ele>321.6</ele>
        <time>2020-06-26T09:36:19Z</time>
      </trkpt>
      <trkpt lat="49.61706" lon="6.09372">
        <ele>321.6</ele>
        <time>2020-06-26T09:36:20Z</time>
      </trkpt>
      <trkpt lat="49.61705" lon="6.0938">
        <ele>321.7</ele>
        <time>2020-06-26T09:36:21Z</time>
      </trkpt>
      <trkpt lat="49.61704" lon="6.09389">
        <ele>321.8</ele>
        <time>2020-06-26T09:36:22Z</time>
      </trkpt>
      <trkpt lat="49.61702" lon="6.09395">
        <ele>321.8</ele>
        <time>2020-06-26T09:36:23Z</time>
      </trkpt>
      <trkpt lat="49.617" lon="6.09403">
        <ele>321.9</ele>
        <time>2020-06-26T09:36:24Z</time>
      </trkpt>
      <trkpt lat="49.61699" lon="6.09411">
        <ele>321.9</ele>
        <time>2020-06-26T09:36:25Z</time>
      </trkpt>
      <trkpt lat="49.61698" lon="6.09419">
        <ele>322</ele>
        <time>2020-06-26T09:36:26Z</time>
      </trkpt>
      <trkpt lat="49.61697" lon="6.09427">
        <ele>322.1</ele>
        <time>2020-06-26T09:36:27Z</time>
      </trkpt>
      <trkpt lat="49.61696" lon="6.09434">
        <ele>322.1</ele>
        <time>2020-06-26T09:36:28Z</time>
      </trkpt>
      <trkpt lat="49.61695" lon="6.09441">
        <ele>322.2</ele>
        <time>2020-06-26T09:36:29Z</time>
      </trkpt>
      <trkpt lat="49.61694" lon="6.09449">
        <ele>322.2</ele>
        <time>2020-06-26T09:36:30Z</time>
      </trkpt>
      <trkpt lat="49.61693" lon="6.09457">
        <ele>322.3</ele>
        <time>2020-06-26T09:36:31Z</time>
      </trkpt>
      <trkpt lat="49.61692" lon="6.09465">
        <ele>322.4</ele>
        <time>2020-06-26T09:36:32Z</time>
      </trkpt>
      <trkpt lat="49.61691" lon="6.09472">
        <ele>322.4</ele>
        <time>2020-06-26T09:36:33Z</time>
      </trkpt>
      <trkpt lat="49.6169" lon="6.0948">
        <ele>322.5</ele>
        <time>2020-06-26T09:36:34Z</time>
      </trkpt>
      <trkpt lat="49.61689" lon="6.09487">
        <ele>322.5</ele>
        <time>2020-06-26T09:36:35Z</time>
      </trkpt>
      <trkpt lat="49.61688" lon="6.09495">
        <ele>322.6</ele>
        <time>2020-06-26T09:36:36Z</time>
      </trkpt>
      <trkpt lat="49.61687" lon="6.09503">
        <ele>322.6</ele>
        <time>2020-06-26T09:36:37Z</time>
      </trkpt>
      <trkpt lat="49.61686" lon="6.09511">
        <ele>322.7</ele>
        <time>2020-06-26T09:36:38Z</time>
      </trkpt>
      <trkpt lat="49.61685" lon="6.09518">
        <ele>322.8</ele>
        <time>2020-06-26T09:36:39Z</time>
      </trkpt>
      <trkpt lat="49.61684" lon="6.09526">
        <ele>322.8</ele>
        <time>2020-06-26T09:36:40Z</time>
      </trkpt>
      <trkpt lat="49.61683" lon="6.09534">
        <ele>322.9</ele>
        <time>2020-06-26T09:36:41Z</time>
      </trkpt>
      <trkpt lat="49.61682" lon="6.09541">
        <ele>323</ele>
        <time>2020-06-26T09:36:42Z</time>
      </trkpt>
      <trkpt lat="49.6168" lon="6.09548">
        <ele>323</ele>
        <time>2020-06-26T09:36:43Z</time>
      </trkpt>
      <trkpt lat="49.6168" lon="6.09555">
        <ele>323</ele>
        <time>2020-06-26T09:36:44Z</time>
      </trkpt>
      <trkpt lat="49.6168" lon="6.09563">
        <ele>323.1</ele>
        <time>2020-06-26T09:36:45Z</time>
      </trkpt>
      <trkpt lat="49.61679" lon="6.0957">
        <ele>323.1</ele>
        <time>2020-06-26T09:36:46Z</time>
      </trkpt>
      <trkpt lat="49.61678" lon="6.09578">
        <ele>323.1</ele>
        <time>2020-06-26T09:36:47Z</time>
      </trkpt>
      <trkpt lat="49.61677" lon="6.09586">
        <ele>323.2</ele>
        <time>2020-06-26T09:36:48Z</time>
      </trkpt>
      <trkpt lat="49.61675" lon="6.09593">
        <ele>323.3</ele>
        <time>2020-06-26T09:36:49Z</time>
      </trkpt>
      <trkpt lat="49.61674" lon="6.09601">
        <ele>323.4</ele>
        <time>2020-06-26T09:36:50Z</time>
      </trkpt>
      <trkpt lat="49.61674" lon="6.09607">
        <ele>323.4</ele>
        <time>2020-06-26T09:36:51Z</time>
      </trkpt>
      <trkpt lat="49.61674" lon="6.09615">
        <ele>323.5</ele>
        <time>2020-06-26T09:36:52Z</time>
      </trkpt>
      <trkpt lat="49.61673" lon="6.09623">
        <ele>323.6</ele>
        <time>2020-06-26T09:36:53Z</time>
      </trkpt>
      <trkpt lat="49.61673" lon="6.09632">
        <ele>323.7</ele>
        <time>2020-06-26T09:36:54Z</time>
      </trkpt>
      <trkpt lat="49.61671" lon="6.09641">
        <ele>323.8</ele>
        <time>2020-06-26T09:36:55Z</time>
      </trkpt>
      <trkpt lat="49.6167" lon="6.0965">
        <ele>323.9</ele>
        <time>2020-06-26T09:36:56Z</time>
      </trkpt>
      <trkpt lat="49.61668" lon="6.09658">
        <ele>323.9</ele>
        <time>2020-06-26T09:36:57Z</time>
      </trkpt>
      <trkpt lat="49.61666" lon="6.09665">
        <ele>324</ele>
        <time>2020-06-26T09:36:58Z</time>
      </trkpt>
      <trkpt lat="49.61664" lon="6.09671">
        <ele>324.1</ele>
        <time>2020-06-26T09:36:59Z</time>
      </trkpt>
      <trkpt lat="49.61663" lon="6.09679">
        <ele>324.2</ele>
        <time>2020-06-26T09:37:00Z</time>
      </trkpt>
      <trkpt lat="49.61661" lon="6.09689">
        <ele>324.3</ele>
        <time>2020-06-26T09:37:01Z</time>
      </trkpt>
      <trkpt lat="49.61659" lon="6.09698">
        <ele>324.4</ele>
        <time>2020-06-26T09:37:02Z</time>
      </trkpt>
      <trkpt lat="49.61659" lon="6.09708">
        <ele>324.5</ele>
        <time>2020-06-26T09:37:03Z</time>
      </trkpt>
      <trkpt lat="49.61657" lon="6.09716">
        <ele>324.6</ele>
        <time>2020-06-26T09:37:04Z</time>
      </trkpt>
      <trkpt lat="49.61657" lon="6.09725">
        <ele>324.7</ele>
        <time>2020-06-26T09:37:05Z</time>
      </trkpt>
      <trkpt lat="49.61656" lon="6.09732">
        <ele>324.8</ele>
        <time>2020-06-26T09:37:06Z</time>
      </trkpt>
      <trkpt lat="49.61654" lon="6.0974">
        <ele>324.9</ele>
        <time>2020-06-26T09:37:07Z</time>
      </trkpt>
      <trkpt lat="49.61653" lon="6.09748">
        <ele>325</ele>
        <time>2020-06-26T09:37:08Z</time>
      </trkpt>
      <trkpt lat="49.61652" lon="6.09756">
        <ele>325.1</ele>
        <time>2020-06-26T09:37:09Z</time>
      </trkpt>
      <trkpt lat="49.61651" lon="6.09765">
        <ele>325.2</ele>
        <time>2020-06-26T09:37:10Z</time>
      </trkpt>
      <trkpt lat="49.61651" lon="6.09773">
        <ele>325.3</ele>
        <time>2020-06-26T09:37:11Z</time>
      </trkpt>
      <trkpt lat="49.61649" lon="6.09779">
        <ele>325.4</ele>
        <time>2020-06-26T09:37:12Z</time>
      </trkpt>
      <trkpt lat="49.61648" lon="6.09786">
        <ele>325.5</ele>
        <time>2020-06-26T09:37:13Z</time>
      </trkpt>
      <trkpt lat="49.61648" lon="6.09792">
        <ele>325.5</ele>
        <time>2020-06-26T09:37:14Z</time>
      </trkpt>
      <trkpt lat="49.61647" lon="6.09797">
        <ele>325.6</ele>
        <time>2020-06-26T09:37:15Z</time>
      </trkpt>
      <trkpt lat="49.61648" lon="6.09803">
        <ele>325.7</ele>
        <time>2020-06-26T09:37:16Z</time>
      </trkpt>
      <trkpt lat="49.61648" lon="6.09809">
        <ele>325.7</ele>
        <time>2020-06-26T09:37:17Z</time>
      </trkpt>
      <trkpt lat="49.61647" lon="6.09813">
        <ele>325.8</ele>
        <time>2020-06-26T09:37:18Z</time>
      </trkpt>
      <trkpt lat="49.61646" lon="6.09814">
        <ele>325.8</ele>
        <time>2020-06-26T09:37:19Z</time>
      </trkpt>
      <trkpt lat="49.61645" lon="6.09816">
        <ele>325.9</ele>
        <time>2020-06-26T09:37:20Z</time>
      </trkpt>
      <trkpt lat="49.61645" lon="6.09818">
        <ele>325.9</ele>
        <time>2020-06-26T09:37:21Z</time>
      </trkpt>
      <trkpt lat="49.61645" lon="6.09819">
        <ele>325.9</ele>
        <time>2020-06-26T09:37:22Z</time>
      </trkpt>
      <trkpt lat="49.61645" lon="6.0982">
        <ele>325.9</ele>
        <time>2020-06-26T09:37:23Z</time>
      </trkpt>
      <trkpt lat="49.61645" lon="6.09821">
        <ele>325.9</ele>
        <time>2020-06-26T09:37:24Z</time>
      </trkpt>
      <trkpt lat="49.61645" lon="6.09822">
        <ele>325.9</ele>
        <time>2020-06-26T09:37:25Z</time>
      </trkpt>
      <trkpt lat="49.61645" lon="6.09823">
        <ele>325.9</ele>
        <time>2020-06-26T09:37:26Z</time>
      </trkpt>
      <trkpt lat="49.61645" lon="6.09824">
        <ele>326</ele>
        <time>2020-06-26T09:37:27Z</time>
      </trkpt>
      <trkpt lat="49.61645" lon="6.09825">
        <ele>326</ele>
        <time>2020-06-26T09:37:28Z</time>
      </trkpt>
      <trkpt lat="49.61645" lon="6.09826">
        <ele>326</ele>
        <time>2020-06-26T09:37:29Z</time>
      </trkpt>
      <trkpt lat="49.61645" lon="6.09827">
        <ele>326</ele>
        <time>2020-06-26T09:37:30Z</time>
      </trkpt>
      <trkpt lat="49.61645" lon="6.09828">
        <ele>326</ele>
        <time>2020-06-26T09:37:31Z</time>
      </trkpt>
      <trkpt lat="49.61645" lon="6.0983">
        <ele>326</ele>
        <time>2020-06-26T09:37:32Z</time>
      </trkpt>
      <trkpt lat="49.61645" lon="6.09831">
        <ele>326</ele>
        <time>2020-06-26T09:37:43Z</time>
      </trkpt>
      <trkpt lat="49.61645" lon="6.09832">
        <ele>326</ele>
        <time>2020-06-26T09:37:44Z</time>
      </trkpt>
      <trkpt lat="49.61644" lon="6.09838">
        <ele>326.1</ele>
        <time>2020-06-26T09:37:45Z</time>
      </trkpt>
      <trkpt lat="49.61642" lon="6.09844">
        <ele>326.2</ele>
        <time>2020-06-26T09:37:46Z</time>
      </trkpt>
      <trkpt lat="49.6164" lon="6.09851">
        <ele>326.2</ele>
        <time>2020-06-26T09:37:47Z</time>
      </trkpt>
      <trkpt lat="49.61638" lon="6.09859">
        <ele>326.2</ele>
        <time>2020-06-26T09:37:48Z</time>
      </trkpt>
      <trkpt lat="49.61638" lon="6.09867">
        <ele>326.2</ele>
        <time>2020-06-26T09:37:49Z</time>
      </trkpt>
      <trkpt lat="49.61637" lon="6.09875">
        <ele>326.2</ele>
        <time>2020-06-26T09:37:50Z</time>
      </trkpt>
      <trkpt lat="49.61635" lon="6.09883">
        <ele>326.2</ele>
        <time>2020-06-26T09:37:51Z</time>
      </trkpt>
      <trkpt lat="49.61633" lon="6.09892">
        <ele>326.1</ele>
        <time>2020-06-26T09:37:52Z</time>
      </trkpt>
      <trkpt lat="49.61632" lon="6.099">
        <ele>326.1</ele>
        <time>2020-06-26T09:37:53Z</time>
      </trkpt>
      <trkpt lat="49.6163" lon="6.09909">
        <ele>326.1</ele>
        <time>2020-06-26T09:37:54Z</time>
      </trkpt>
      <trkpt lat="49.61629" lon="6.09915">
        <ele>326.2</ele>
        <time>2020-06-26T09:37:55Z</time>
      </trkpt>
      <trkpt lat="49.61628" lon="6.09923">
        <ele>326.2</ele>
        <time>2020-06-26T09:37:56Z</time>
      </trkpt>
      <trkpt lat="49.61627" lon="6.09931">
        <ele>326.2</ele>
        <time>2020-06-26T09:37:57Z</time>
      </trkpt>
      <trkpt lat="49.61625" lon="6.09939">
        <ele>326.3</ele>
        <time>2020-06-26T09:37:58Z</time>
      </trkpt>
      <trkpt lat="49.61624" lon="6.09947">
        <ele>326.3</ele>
        <time>2020-06-26T09:37:59Z</time>
      </trkpt>
      <trkpt lat="49.61623" lon="6.09956">
        <ele>326.4</ele>
        <time>2020-06-26T09:38:00Z</time>
      </trkpt>
      <trkpt lat="49.61622" lon="6.09963">
        <ele>326.4</ele>
        <time>2020-06-26T09:38:01Z</time>
      </trkpt>
      <trkpt lat="49.6162" lon="6.09971">
        <ele>326.4</ele>
        <time>2020-06-26T09:38:02Z</time>
      </trkpt>
      <trkpt lat="49.61619" lon="6.09979">
        <ele>326.4</ele>
        <time>2020-06-26T09:38:03Z</time>
      </trkpt>
      <trkpt lat="49.61618" lon="6.09988">
        <ele>326.5</ele>
        <time>2020-06-26T09:38:04Z</time>
      </trkpt>
      <trkpt lat="49.61617" lon="6.09997">
        <ele>326.6</ele>
        <time>2020-06-26T09:38:05Z</time>
      </trkpt>
      <trkpt lat="49.61615" lon="6.10005">
        <ele>326.7</ele>
        <time>2020-06-26T09:38:06Z</time>
      </trkpt>
      <trkpt lat="49.61614" lon="6.10013">
        <ele>326.8</ele>
        <time>2020-06-26T09:38:07Z</time>
      </trkpt>
      <trkpt lat="49.61612" lon="6.10021">
        <ele>326.9</ele>
        <time>2020-06-26T09:38:08Z</time>
      </trkpt>
      <trkpt lat="49.6161" lon="6.10029">
        <ele>327</ele>
        <time>2020-06-26T09:38:09Z</time>
      </trkpt>
      <trkpt lat="49.61608" lon="6.10038">
        <ele>327.1</ele>
        <time>2020-06-26T09:38:10Z</time>
      </trkpt>
      <trkpt lat="49.61606" lon="6.10045">
        <ele>327.1</ele>
        <time>2020-06-26T09:38:11Z</time>
      </trkpt>
      <trkpt lat="49.61605" lon="6.10054">
        <ele>327.2</ele>
        <time>2020-06-26T09:38:12Z</time>
      </trkpt>
      <trkpt lat="49.61605" lon="6.10064">
        <ele>327.3</ele>
        <time>2020-06-26T09:38:13Z</time>
      </trkpt>
      <trkpt lat="49.61604" lon="6.10074">
        <ele>327.3</ele>
        <time>2020-06-26T09:38:14Z</time>
      </trkpt>
      <trkpt lat="49.61603" lon="6.10085">
        <ele>327.3</ele>
        <time>2020-06-26T09:38:15Z</time>
      </trkpt>
      <trkpt lat="49.61602" lon="6.10094">
        <ele>327.3</ele>
        <time>2020-06-26T09:38:16Z</time>
      </trkpt>
      <trkpt lat="49.61602" lon="6.10104">
        <ele>327.4</ele>
        <time>2020-06-26T09:38:17Z</time>
      </trkpt>
      <trkpt lat="49.61602" lon="6.10114">
        <ele>327.4</ele>
        <time>2020-06-26T09:38:18Z</time>
      </trkpt>
      <trkpt lat="49.61602" lon="6.10124">
        <ele>327.5</ele>
        <time>2020-06-26T09:38:19Z</time>
      </trkpt>
      <trkpt lat="49.61601" lon="6.10135">
        <ele>327.5</ele>
        <time>2020-06-26T09:38:20Z</time>
      </trkpt>
      <trkpt lat="49.61601" lon="6.10145">
        <ele>327.6</ele>
        <time>2020-06-26T09:38:21Z</time>
      </trkpt>
      <trkpt lat="49.61601" lon="6.10155">
        <ele>327.8</ele>
        <time>2020-06-26T09:38:22Z</time>
      </trkpt>
      <trkpt lat="49.61601" lon="6.10165">
        <ele>327.8</ele>
        <time>2020-06-26T09:38:23Z</time>
      </trkpt>
      <trkpt lat="49.616" lon="6.10174">
        <ele>327.9</ele>
        <time>2020-06-26T09:38:24Z</time>
      </trkpt>
      <trkpt lat="49.61598" lon="6.10182">
        <ele>328</ele>
        <time>2020-06-26T09:38:25Z</time>
      </trkpt>
      <trkpt lat="49.61596" lon="6.10189">
        <ele>328</ele>
        <time>2020-06-26T09:38:26Z</time>
      </trkpt>
      <trkpt lat="49.61594" lon="6.10197">
        <ele>328.1</ele>
        <time>2020-06-26T09:38:27Z</time>
      </trkpt>
      <trkpt lat="49.6159" lon="6.10203">
        <ele>328.1</ele>
        <time>2020-06-26T09:38:28Z</time>
      </trkpt>
      <trkpt lat="49.61588" lon="6.10211">
        <ele>328.2</ele>
        <time>2020-06-26T09:38:29Z</time>
      </trkpt>
      <trkpt lat="49.61587" lon="6.1022">
        <ele>328.2</ele>
        <time>2020-06-26T09:38:30Z</time>
      </trkpt>
      <trkpt lat="49.61585" lon="6.10229">
        <ele>328.3</ele>
        <time>2020-06-26T09:38:31Z</time>
      </trkpt>
      <trkpt lat="49.61583" lon="6.10238">
        <ele>328.3</ele>
        <time>2020-06-26T09:38:32Z</time>
      </trkpt>
      <trkpt lat="49.61581" lon="6.10247">
        <ele>328.4</ele>
        <time>2020-06-26T09:38:33Z</time>
      </trkpt>
      <trkpt lat="49.6158" lon="6.10256">
        <ele>328.5</ele>
        <time>2020-06-26T09:38:34Z</time>
      </trkpt>
      <trkpt lat="49.6158" lon="6.10267">
        <ele>328.5</ele>
        <time>2020-06-26T09:38:35Z</time>
      </trkpt>
      <trkpt lat="49.61579" lon="6.10277">
        <ele>328.6</ele>
        <time>2020-06-26T09:38:36Z</time>
      </trkpt>
      <trkpt lat="49.61578" lon="6.10286">
        <ele>328.6</ele>
        <time>2020-06-26T09:38:37Z</time>
      </trkpt>
      <trkpt lat="49.61577" lon="6.10295">
        <ele>328.5</ele>
        <time>2020-06-26T09:38:38Z</time>
      </trkpt>
      <trkpt lat="49.61575" lon="6.10304">
        <ele>328.5</ele>
        <time>2020-06-26T09:38:39Z</time>
      </trkpt>
      <trkpt lat="49.61572" lon="6.10312">
        <ele>328.5</ele>
        <time>2020-06-26T09:38:40Z</time>
      </trkpt>
      <trkpt lat="49.61571" lon="6.10321">
        <ele>328.4</ele>
        <time>2020-06-26T09:38:41Z</time>
      </trkpt>
      <trkpt lat="49.6157" lon="6.10329">
        <ele>328.4</ele>
        <time>2020-06-26T09:38:42Z</time>
      </trkpt>
      <trkpt lat="49.61568" lon="6.10337">
        <ele>328.3</ele>
        <time>2020-06-26T09:38:43Z</time>
      </trkpt>
      <trkpt lat="49.61568" lon="6.10346">
        <ele>328.3</ele>
        <time>2020-06-26T09:38:44Z</time>
      </trkpt>
      <trkpt lat="49.61566" lon="6.10356">
        <ele>328.2</ele>
        <time>2020-06-26T09:38:45Z</time>
      </trkpt>
      <trkpt lat="49.61564" lon="6.10365">
        <ele>328.2</ele>
        <time>2020-06-26T09:38:46Z</time>
      </trkpt>
      <trkpt lat="49.61564" lon="6.10374">
        <ele>328.2</ele>
        <time>2020-06-26T09:38:47Z</time>
      </trkpt>
      <trkpt lat="49.61562" lon="6.10382">
        <ele>328.1</ele>
        <time>2020-06-26T09:38:48Z</time>
      </trkpt>
      <trkpt lat="49.61561" lon="6.1039">
        <ele>328</ele>
        <time>2020-06-26T09:38:49Z</time>
      </trkpt>
      <trkpt lat="49.61559" lon="6.104">
        <ele>327.9</ele>
        <time>2020-06-26T09:38:50Z</time>
      </trkpt>
      <trkpt lat="49.61558" lon="6.10409">
        <ele>327.8</ele>
        <time>2020-06-26T09:38:51Z</time>
      </trkpt>
      <trkpt lat="49.61557" lon="6.1042">
        <ele>327.6</ele>
        <time>2020-06-26T09:38:52Z</time>
      </trkpt>
      <trkpt lat="49.61556" lon="6.10431">
        <ele>327.4</ele>
        <time>2020-06-26T09:38:53Z</time>
      </trkpt>
      <trkpt lat="49.61555" lon="6.10441">
        <ele>327.3</ele>
        <time>2020-06-26T09:38:54Z</time>
      </trkpt>
      <trkpt lat="49.61553" lon="6.10451">
        <ele>327.1</ele>
        <time>2020-06-26T09:38:55Z</time>
      </trkpt>
      <trkpt lat="49.61551" lon="6.10461">
        <ele>326.9</ele>
        <time>2020-06-26T09:38:56Z</time>
      </trkpt>
      <trkpt lat="49.6155" lon="6.1047">
        <ele>326.7</ele>
        <time>2020-06-26T09:38:57Z</time>
      </trkpt>
      <trkpt lat="49.61548" lon="6.10479">
        <ele>326.5</ele>
        <time>2020-06-26T09:38:58Z</time>
      </trkpt>
      <trkpt lat="49.61547" lon="6.10489">
        <ele>326.3</ele>
        <time>2020-06-26T09:38:59Z</time>
      </trkpt>
      <trkpt lat="49.61546" lon="6.10499">
        <ele>326.1</ele>
        <time>2020-06-26T09:39:00Z</time>
      </trkpt>
      <trkpt lat="49.61545" lon="6.10509">
        <ele>325.8</ele>
        <time>2020-06-26T09:39:01Z</time>
      </trkpt>
      <trkpt lat="49.61543" lon="6.1052">
        <ele>325.6</ele>
        <time>2020-06-26T09:39:02Z</time>
      </trkpt>
      <trkpt lat="49.61542" lon="6.1053">
        <ele>325.5</ele>
        <time>2020-06-26T09:39:03Z</time>
      </trkpt>
      <trkpt lat="49.6154" lon="6.10541">
        <ele>325.3</ele>
        <time>2020-06-26T09:39:04Z</time>
      </trkpt>
      <trkpt lat="49.61539" lon="6.10552">
        <ele>325</ele>
        <time>2020-06-26T09:39:05Z</time>
      </trkpt>
      <trkpt lat="49.61537" lon="6.10563">
        <ele>324.7</ele>
        <time>2020-06-26T09:39:06Z</time>
      </trkpt>
      <trkpt lat="49.61536" lon="6.10576">
        <ele>324.3</ele>
        <time>2020-06-26T09:39:07Z</time>
      </trkpt>
      <trkpt lat="49.61534" lon="6.10588">
        <ele>323.9</ele>
        <time>2020-06-26T09:39:08Z</time>
      </trkpt>
      <trkpt lat="49.61532" lon="6.106">
        <ele>323.5</ele>
        <time>2020-06-26T09:39:09Z</time>
      </trkpt>
      <trkpt lat="49.61531" lon="6.10611">
        <ele>323.2</ele>
        <time>2020-06-26T09:39:10Z</time>
      </trkpt>
      <trkpt lat="49.61529" lon="6.10623">
        <ele>322.9</ele>
        <time>2020-06-26T09:39:11Z</time>
      </trkpt>
      <trkpt lat="49.61527" lon="6.10635">
        <ele>322.7</ele>
        <time>2020-06-26T09:39:12Z</time>
      </trkpt>
      <trkpt lat="49.61526" lon="6.10647">
        <ele>322.4</ele>
        <time>2020-06-26T09:39:13Z</time>
      </trkpt>
      <trkpt lat="49.61524" lon="6.10658">
        <ele>322.1</ele>
        <time>2020-06-26T09:39:14Z</time>
      </trkpt>
      <trkpt lat="49.61522" lon="6.1067">
        <ele>321.9</ele>
        <time>2020-06-26T09:39:15Z</time>
      </trkpt>
      <trkpt lat="49.6152" lon="6.10682">
        <ele>321.6</ele>
        <time>2020-06-26T09:39:16Z</time>
      </trkpt>
      <trkpt lat="49.61519" lon="6.10695">
        <ele>321.3</ele>
        <time>2020-06-26T09:39:17Z</time>
      </trkpt>
      <trkpt lat="49.61517" lon="6.10707">
        <ele>321</ele>
        <time>2020-06-26T09:39:18Z</time>
      </trkpt>
      <trkpt lat="49.61515" lon="6.10719">
        <ele>320.7</ele>
        <time>2020-06-26T09:39:19Z</time>
      </trkpt>
      <trkpt lat="49.61513" lon="6.10731">
        <ele>320.5</ele>
        <time>2020-06-26T09:39:20Z</time>
      </trkpt>
      <trkpt lat="49.61511" lon="6.10742">
        <ele>320.2</ele>
        <time>2020-06-26T09:39:21Z</time>
      </trkpt>
      <trkpt lat="49.61509" lon="6.10753">
        <ele>320</ele>
        <time>2020-06-26T09:39:22Z</time>
      </trkpt>
      <trkpt lat="49.61508" lon="6.10765">
        <ele>319.8</ele>
        <time>2020-06-26T09:39:23Z</time>
      </trkpt>
      <trkpt lat="49.61507" lon="6.10776">
        <ele>319.8</ele>
        <time>2020-06-26T09:39:24Z</time>
      </trkpt>
      <trkpt lat="49.61506" lon="6.10788">
        <ele>319.2</ele>
        <time>2020-06-26T09:39:25Z</time>
      </trkpt>
      <trkpt lat="49.61505" lon="6.10799">
        <ele>319</ele>
        <time>2020-06-26T09:39:26Z</time>
      </trkpt>
      <trkpt lat="49.61503" lon="6.1081">
        <ele>318.6</ele>
        <time>2020-06-26T09:39:27Z</time>
      </trkpt>
      <trkpt lat="49.61501" lon="6.10821">
        <ele>318.3</ele>
        <time>2020-06-26T09:39:28Z</time>
      </trkpt>
      <trkpt lat="49.615" lon="6.1083">
        <ele>318</ele>
        <time>2020-06-26T09:39:29Z</time>
      </trkpt>
      <trkpt lat="49.61499" lon="6.10839">
        <ele>317.8</ele>
        <time>2020-06-26T09:39:30Z</time>
      </trkpt>
      <trkpt lat="49.61497" lon="6.10848">
        <ele>317.5</ele>
        <time>2020-06-26T09:39:31Z</time>
      </trkpt>
      <trkpt lat="49.61496" lon="6.10856">
        <ele>317.3</ele>
        <time>2020-06-26T09:39:32Z</time>
      </trkpt>
      <trkpt lat="49.61495" lon="6.10863">
        <ele>317.1</ele>
        <time>2020-06-26T09:39:33Z</time>
      </trkpt>
      <trkpt lat="49.61493" lon="6.1087">
        <ele>316.9</ele>
        <time>2020-06-26T09:39:34Z</time>
      </trkpt>
      <trkpt lat="49.61492" lon="6.10878">
        <ele>316.8</ele>
        <time>2020-06-26T09:39:35Z</time>
      </trkpt>
      <trkpt lat="49.61489" lon="6.10885">
        <ele>316.6</ele>
        <time>2020-06-26T09:39:36Z</time>
      </trkpt>
      <trkpt lat="49.61489" lon="6.10892">
        <ele>316.5</ele>
        <time>2020-06-26T09:39:37Z</time>
      </trkpt>
      <trkpt lat="49.61488" lon="6.10899">
        <ele>316.4</ele>
        <time>2020-06-26T09:39:38Z</time>
      </trkpt>
      <trkpt lat="49.61487" lon="6.10906">
        <ele>316.3</ele>
        <time>2020-06-26T09:39:39Z</time>
      </trkpt>
      <trkpt lat="49.61487" lon="6.10912">
        <ele>316.2</ele>
        <time>2020-06-26T09:39:40Z</time>
      </trkpt>
      <trkpt lat="49.61486" lon="6.10919">
        <ele>316.2</ele>
        <time>2020-06-26T09:39:41Z</time>
      </trkpt>
      <trkpt lat="49.61485" lon="6.10926">
        <ele>316</ele>
        <time>2020-06-26T09:39:42Z</time>
      </trkpt>
      <trkpt lat="49.61483" lon="6.10933">
        <ele>315.9</ele>
        <time>2020-06-26T09:39:43Z</time>
      </trkpt>
      <trkpt lat="49.61481" lon="6.1094">
        <ele>315.8</ele>
        <time>2020-06-26T09:39:44Z</time>
      </trkpt>
      <trkpt lat="49.6148" lon="6.10948">
        <ele>315.7</ele>
        <time>2020-06-26T09:39:45Z</time>
      </trkpt>
      <trkpt lat="49.61478" lon="6.10955">
        <ele>315.5</ele>
        <time>2020-06-26T09:39:46Z</time>
      </trkpt>
      <trkpt lat="49.61479" lon="6.10964">
        <ele>315.3</ele>
        <time>2020-06-26T09:39:47Z</time>
      </trkpt>
      <trkpt lat="49.61479" lon="6.10971">
        <ele>315.1</ele>
        <time>2020-06-26T09:39:48Z</time>
      </trkpt>
      <trkpt lat="49.61478" lon="6.10979">
        <ele>314.9</ele>
        <time>2020-06-26T09:39:49Z</time>
      </trkpt>
      <trkpt lat="49.61477" lon="6.10987">
        <ele>314.7</ele>
        <time>2020-06-26T09:39:50Z</time>
      </trkpt>
      <trkpt lat="49.61476" lon="6.10995">
        <ele>314.5</ele>
        <time>2020-06-26T09:39:51Z</time>
      </trkpt>
      <trkpt lat="49.61474" lon="6.11003">
        <ele>314.4</ele>
        <time>2020-06-26T09:39:52Z</time>
      </trkpt>
      <trkpt lat="49.61474" lon="6.11011">
        <ele>314.3</ele>
        <time>2020-06-26T09:39:53Z</time>
      </trkpt>
      <trkpt lat="49.61473" lon="6.11019">
        <ele>314.2</ele>
        <time>2020-06-26T09:39:54Z</time>
      </trkpt>
      <trkpt lat="49.61473" lon="6.11027">
        <ele>314.1</ele>
        <time>2020-06-26T09:39:55Z</time>
      </trkpt>
      <trkpt lat="49.61473" lon="6.11035">
        <ele>314</ele>
        <time>2020-06-26T09:39:56Z</time>
      </trkpt>
      <trkpt lat="49.61472" lon="6.11043">
        <ele>313.9</ele>
        <time>2020-06-26T09:39:57Z</time>
      </trkpt>
      <trkpt lat="49.61472" lon="6.11051">
        <ele>313.8</ele>
        <time>2020-06-26T09:39:58Z</time>
      </trkpt>
      <trkpt lat="49.6147" lon="6.11059">
        <ele>313.7</ele>
        <time>2020-06-26T09:39:59Z</time>
      </trkpt>
      <trkpt lat="49.61469" lon="6.11067">
        <ele>313.6</ele>
        <time>2020-06-26T09:40:00Z</time>
      </trkpt>
      <trkpt lat="49.61468" lon="6.11075">
        <ele>313.5</ele>
        <time>2020-06-26T09:40:01Z</time>
      </trkpt>
      <trkpt lat="49.61465" lon="6.11083">
        <ele>313.5</ele>
        <time>2020-06-26T09:40:02Z</time>
      </trkpt>
      <trkpt lat="49.61462" lon="6.11092">
        <ele>313.5</ele>
        <time>2020-06-26T09:40:03Z</time>
      </trkpt>
      <trkpt lat="49.61459" lon="6.11101">
        <ele>313.3</ele>
        <time>2020-06-26T09:40:04Z</time>
      </trkpt>
      <trkpt lat="49.61458" lon="6.11111">
        <ele>313.1</ele>
        <time>2020-06-26T09:40:05Z</time>
      </trkpt>
      <trkpt lat="49.61456" lon="6.11122">
        <ele>312.8</ele>
        <time>2020-06-26T09:40:06Z</time>
      </trkpt>
      <trkpt lat="49.61454" lon="6.11132">
        <ele>312.5</ele>
        <time>2020-06-26T09:40:07Z</time>
      </trkpt>
      <trkpt lat="49.61452" lon="6.11142">
        <ele>312.2</ele>
        <time>2020-06-26T09:40:08Z</time>
      </trkpt>
      <trkpt lat="49.6145" lon="6.11152">
        <ele>312</ele>
        <time>2020-06-26T09:40:09Z</time>
      </trkpt>
      <trkpt lat="49.61448" lon="6.11162">
        <ele>311.8</ele>
        <time>2020-06-26T09:40:10Z</time>
      </trkpt>
      <trkpt lat="49.61447" lon="6.11173">
        <ele>311.6</ele>
        <time>2020-06-26T09:40:11Z</time>
      </trkpt>
      <trkpt lat="49.61444" lon="6.11183">
        <ele>311.5</ele>
        <time>2020-06-26T09:40:12Z</time>
      </trkpt>
      <trkpt lat="49.61442" lon="6.11193">
        <ele>311.3</ele>
        <time>2020-06-26T09:40:13Z</time>
      </trkpt>
      <trkpt lat="49.6144" lon="6.11204">
        <ele>311.1</ele>
        <time>2020-06-26T09:40:14Z</time>
      </trkpt>
      <trkpt lat="49.61439" lon="6.11214">
        <ele>310.9</ele>
        <time>2020-06-26T09:40:15Z</time>
      </trkpt>
      <trkpt lat="49.61437" lon="6.11225">
        <ele>310.7</ele>
        <time>2020-06-26T09:40:16Z</time>
      </trkpt>
      <trkpt lat="49.61436" lon="6.11236">
        <ele>310.6</ele>
        <time>2020-06-26T09:40:17Z</time>
      </trkpt>
      <trkpt lat="49.61435" lon="6.11247">
        <ele>310.4</ele>
        <time>2020-06-26T09:40:18Z</time>
      </trkpt>
      <trkpt lat="49.61433" lon="6.11258">
        <ele>310.2</ele>
        <time>2020-06-26T09:40:19Z</time>
      </trkpt>
      <trkpt lat="49.61431" lon="6.11268">
        <ele>310.1</ele>
        <time>2020-06-26T09:40:20Z</time>
      </trkpt>
      <trkpt lat="49.61429" lon="6.11279">
        <ele>310</ele>
        <time>2020-06-26T09:40:21Z</time>
      </trkpt>
      <trkpt lat="49.61427" lon="6.11289">
        <ele>309.8</ele>
        <time>2020-06-26T09:40:22Z</time>
      </trkpt>
      <trkpt lat="49.61426" lon="6.113">
        <ele>309.5</ele>
        <time>2020-06-26T09:40:23Z</time>
      </trkpt>
      <trkpt lat="49.61425" lon="6.1131">
        <ele>309.3</ele>
        <time>2020-06-26T09:40:24Z</time>
      </trkpt>
      <trkpt lat="49.61423" lon="6.1132">
        <ele>309.1</ele>
        <time>2020-06-26T09:40:25Z</time>
      </trkpt>
      <trkpt lat="49.61422" lon="6.11331">
        <ele>308.9</ele>
        <time>2020-06-26T09:40:26Z</time>
      </trkpt>
      <trkpt lat="49.61421" lon="6.1134">
        <ele>308.7</ele>
        <time>2020-06-26T09:40:27Z</time>
      </trkpt>
      <trkpt lat="49.6142" lon="6.1135">
        <ele>308.5</ele>
        <time>2020-06-26T09:40:28Z</time>
      </trkpt>
      <trkpt lat="49.61418" lon="6.1136">
        <ele>308.3</ele>
        <time>2020-06-26T09:40:29Z</time>
      </trkpt>
      <trkpt lat="49.61417" lon="6.1137">
        <ele>308.2</ele>
        <time>2020-06-26T09:40:30Z</time>
      </trkpt>
      <trkpt lat="49.61415" lon="6.1138">
        <ele>308</ele>
        <time>2020-06-26T09:40:31Z</time>
      </trkpt>
      <trkpt lat="49.61414" lon="6.11391">
        <ele>307.9</ele>
        <time>2020-06-26T09:40:32Z</time>
      </trkpt>
      <trkpt lat="49.61414" lon="6.11401">
        <ele>307.7</ele>
        <time>2020-06-26T09:40:33Z</time>
      </trkpt>
      <trkpt lat="49.61413" lon="6.11412">
        <ele>307.5</ele>
        <time>2020-06-26T09:40:34Z</time>
      </trkpt>
      <trkpt lat="49.61411" lon="6.11423">
        <ele>307.3</ele>
        <time>2020-06-26T09:40:35Z</time>
      </trkpt>
      <trkpt lat="49.61409" lon="6.11434">
        <ele>307.1</ele>
        <time>2020-06-26T09:40:36Z</time>
      </trkpt>
      <trkpt lat="49.61406" lon="6.11445">
        <ele>306.9</ele>
        <time>2020-06-26T09:40:37Z</time>
      </trkpt>
      <trkpt lat="49.61403" lon="6.11457">
        <ele>306.6</ele>
        <time>2020-06-26T09:40:38Z</time>
      </trkpt>
      <trkpt lat="49.61402" lon="6.11469">
        <ele>306.3</ele>
        <time>2020-06-26T09:40:39Z</time>
      </trkpt>
      <trkpt lat="49.61401" lon="6.1148">
        <ele>305.9</ele>
        <time>2020-06-26T09:40:40Z</time>
      </trkpt>
      <trkpt lat="49.61399" lon="6.11492">
        <ele>305.4</ele>
        <time>2020-06-26T09:40:41Z</time>
      </trkpt>
      <trkpt lat="49.61396" lon="6.11504">
        <ele>304.9</ele>
        <time>2020-06-26T09:40:42Z</time>
      </trkpt>
      <trkpt lat="49.61394" lon="6.11515">
        <ele>304.5</ele>
        <time>2020-06-26T09:40:43Z</time>
      </trkpt>
      <trkpt lat="49.61392" lon="6.11525">
        <ele>304</ele>
        <time>2020-06-26T09:40:44Z</time>
      </trkpt>
      <trkpt lat="49.6139" lon="6.11536">
        <ele>303.6</ele>
        <time>2020-06-26T09:40:45Z</time>
      </trkpt>
      <trkpt lat="49.61389" lon="6.11545">
        <ele>303.3</ele>
        <time>2020-06-26T09:40:46Z</time>
      </trkpt>
      <trkpt lat="49.61388" lon="6.11554">
        <ele>302.9</ele>
        <time>2020-06-26T09:40:47Z</time>
      </trkpt>
      <trkpt lat="49.61388" lon="6.11563">
        <ele>302.6</ele>
        <time>2020-06-26T09:40:48Z</time>
      </trkpt>
      <trkpt lat="49.61388" lon="6.11571">
        <ele>302.3</ele>
        <time>2020-06-26T09:40:49Z</time>
      </trkpt>
      <trkpt lat="49.61387" lon="6.11578">
        <ele>302</ele>
        <time>2020-06-26T09:40:50Z</time>
      </trkpt>
      <trkpt lat="49.61384" lon="6.11585">
        <ele>301.6</ele>
        <time>2020-06-26T09:40:51Z</time>
      </trkpt>
      <trkpt lat="49.61383" lon="6.11593">
        <ele>301.3</ele>
        <time>2020-06-26T09:40:52Z</time>
      </trkpt>
      <trkpt lat="49.61381" lon="6.11602">
        <ele>300.9</ele>
        <time>2020-06-26T09:40:53Z</time>
      </trkpt>
      <trkpt lat="49.61379" lon="6.11612">
        <ele>300.5</ele>
        <time>2020-06-26T09:40:54Z</time>
      </trkpt>
      <trkpt lat="49.61378" lon="6.11621">
        <ele>300.1</ele>
        <time>2020-06-26T09:40:55Z</time>
      </trkpt>
      <trkpt lat="49.61379" lon="6.11633">
        <ele>299.6</ele>
        <time>2020-06-26T09:40:56Z</time>
      </trkpt>
      <trkpt lat="49.61377" lon="6.11643">
        <ele>299.4</ele>
        <time>2020-06-26T09:40:57Z</time>
      </trkpt>
      <trkpt lat="49.61375" lon="6.11653">
        <ele>299.2</ele>
        <time>2020-06-26T09:40:58Z</time>
      </trkpt>
      <trkpt lat="49.61372" lon="6.11663">
        <ele>298.9</ele>
        <time>2020-06-26T09:40:59Z</time>
      </trkpt>
      <trkpt lat="49.6137" lon="6.11674">
        <ele>298.7</ele>
        <time>2020-06-26T09:41:00Z</time>
      </trkpt>
      <trkpt lat="49.6137" lon="6.11686">
        <ele>298.4</ele>
        <time>2020-06-26T09:41:01Z</time>
      </trkpt>
      <trkpt lat="49.61368" lon="6.11697">
        <ele>298.1</ele>
        <time>2020-06-26T09:41:02Z</time>
      </trkpt>
      <trkpt lat="49.61366" lon="6.11708">
        <ele>297.8</ele>
        <time>2020-06-26T09:41:03Z</time>
      </trkpt>
      <trkpt lat="49.61364" lon="6.11719">
        <ele>297.4</ele>
        <time>2020-06-26T09:41:04Z</time>
      </trkpt>
      <trkpt lat="49.61362" lon="6.11732">
        <ele>297</ele>
        <time>2020-06-26T09:41:05Z</time>
      </trkpt>
      <trkpt lat="49.6136" lon="6.11744">
        <ele>296.7</ele>
        <time>2020-06-26T09:41:06Z</time>
      </trkpt>
      <trkpt lat="49.61358" lon="6.11756">
        <ele>296.5</ele>
        <time>2020-06-26T09:41:07Z</time>
      </trkpt>
      <trkpt lat="49.61356" lon="6.11768">
        <ele>296.4</ele>
        <time>2020-06-26T09:41:08Z</time>
      </trkpt>
      <trkpt lat="49.61354" lon="6.1178">
        <ele>296.1</ele>
        <time>2020-06-26T09:41:09Z</time>
      </trkpt>
      <trkpt lat="49.61353" lon="6.11792">
        <ele>296.1</ele>
        <time>2020-06-26T09:41:10Z</time>
      </trkpt>
      <trkpt lat="49.61351" lon="6.11804">
        <ele>296.1</ele>
        <time>2020-06-26T09:41:11Z</time>
      </trkpt>
      <trkpt lat="49.61348" lon="6.11815">
        <ele>296.1</ele>
        <time>2020-06-26T09:41:12Z</time>
      </trkpt>
      <trkpt lat="49.61346" lon="6.11826">
        <ele>296.2</ele>
        <time>2020-06-26T09:41:13Z</time>
      </trkpt>
      <trkpt lat="49.61343" lon="6.11836">
        <ele>296.3</ele>
        <time>2020-06-26T09:41:14Z</time>
      </trkpt>
      <trkpt lat="49.61341" lon="6.11846">
        <ele>296.4</ele>
        <time>2020-06-26T09:41:15Z</time>
      </trkpt>
      <trkpt lat="49.61339" lon="6.11855">
        <ele>296.5</ele>
        <time>2020-06-26T09:41:16Z</time>
      </trkpt>
      <trkpt lat="49.61337" lon="6.11864">
        <ele>296.7</ele>
        <time>2020-06-26T09:41:17Z</time>
      </trkpt>
      <trkpt lat="49.61336" lon="6.11872">
        <ele>296.9</ele>
        <time>2020-06-26T09:41:18Z</time>
      </trkpt>
      <trkpt lat="49.61334" lon="6.1188">
        <ele>297</ele>
        <time>2020-06-26T09:41:19Z</time>
      </trkpt>
      <trkpt lat="49.61333" lon="6.11887">
        <ele>297.2</ele>
        <time>2020-06-26T09:41:20Z</time>
      </trkpt>
      <trkpt lat="49.61332" lon="6.11893">
        <ele>297.4</ele>
        <time>2020-06-26T09:41:21Z</time>
      </trkpt>
      <trkpt lat="49.61332" lon="6.119">
        <ele>297.6</ele>
        <time>2020-06-26T09:41:22Z</time>
      </trkpt>
      <trkpt lat="49.61331" lon="6.11906">
        <ele>297.8</ele>
        <time>2020-06-26T09:41:23Z</time>
      </trkpt>
      <trkpt lat="49.6133" lon="6.11911">
        <ele>298.1</ele>
        <time>2020-06-26T09:41:24Z</time>
      </trkpt>
      <trkpt lat="49.6133" lon="6.11916">
        <ele>298.3</ele>
        <time>2020-06-26T09:41:25Z</time>
      </trkpt>
      <trkpt lat="49.61329" lon="6.1192">
        <ele>298.5</ele>
        <time>2020-06-26T09:41:26Z</time>
      </trkpt>
      <trkpt lat="49.61328" lon="6.11926">
        <ele>298.8</ele>
        <time>2020-06-26T09:41:27Z</time>
      </trkpt>
      <trkpt lat="49.61328" lon="6.11927">
        <ele>298.8</ele>
        <time>2020-06-26T09:41:28Z</time>
      </trkpt>
      <trkpt lat="49.61328" lon="6.11932">
        <ele>299.1</ele>
        <time>2020-06-26T09:41:29Z</time>
      </trkpt>
      <trkpt lat="49.61328" lon="6.11934">
        <ele>299.2</ele>
        <time>2020-06-26T09:41:30Z</time>
      </trkpt>
      <trkpt lat="49.61328" lon="6.11937">
        <ele>299.3</ele>
        <time>2020-06-26T09:41:31Z</time>
      </trkpt>
      <trkpt lat="49.61328" lon="6.1194">
        <ele>299.4</ele>
        <time>2020-06-26T09:41:32Z</time>
      </trkpt>
      <trkpt lat="49.61326" lon="6.11942">
        <ele>299.5</ele>
        <time>2020-06-26T09:41:33Z</time>
      </trkpt>
      <trkpt lat="49.61325" lon="6.11944">
        <ele>299.6</ele>
        <time>2020-06-26T09:41:34Z</time>
      </trkpt>
      <trkpt lat="49.61326" lon="6.11949">
        <ele>299.8</ele>
        <time>2020-06-26T09:41:35Z</time>
      </trkpt>
      <trkpt lat="49.61326" lon="6.1195">
        <ele>299.8</ele>
        <time>2020-06-26T09:41:36Z</time>
      </trkpt>
      <trkpt lat="49.61323" lon="6.11953">
        <ele>300</ele>
        <time>2020-06-26T09:41:37Z</time>
      </trkpt>
      <trkpt lat="49.61322" lon="6.11953">
        <ele>300.1</ele>
        <time>2020-06-26T09:41:38Z</time>
      </trkpt>
      <trkpt lat="49.61321" lon="6.11954">
        <ele>300.1</ele>
        <time>2020-06-26T09:41:39Z</time>
      </trkpt>
      <trkpt lat="49.6132" lon="6.11955">
        <ele>300.2</ele>
        <time>2020-06-26T09:41:40Z</time>
      </trkpt>
      <trkpt lat="49.6132" lon="6.11956">
        <ele>300.2</ele>
        <time>2020-06-26T09:41:41Z</time>
      </trkpt>
      <trkpt lat="49.61321" lon="6.11957">
        <ele>300.2</ele>
        <time>2020-06-26T09:41:42Z</time>
      </trkpt>
      <trkpt lat="49.61321" lon="6.11959">
        <ele>300.3</ele>
        <time>2020-06-26T09:41:43Z</time>
      </trkpt>
      <trkpt lat="49.6132" lon="6.11961">
        <ele>300.4</ele>
        <time>2020-06-26T09:41:44Z</time>
      </trkpt>
      <trkpt lat="49.6132" lon="6.11961">
        <ele>300.4</ele>
        <time>2020-06-26T09:41:45Z</time>
      </trkpt>
      <trkpt lat="49.61319" lon="6.11963">
        <ele>300.5</ele>
        <time>2020-06-26T09:41:46Z</time>
      </trkpt>
      <trkpt lat="49.61318" lon="6.11964">
        <ele>300.5</ele>
        <time>2020-06-26T09:41:47Z</time>
      </trkpt>
      <trkpt lat="49.61317" lon="6.11966">
        <ele>300.6</ele>
        <time>2020-06-26T09:41:48Z</time>
      </trkpt>
      <trkpt lat="49.61316" lon="6.11967">
        <ele>300.6</ele>
        <time>2020-06-26T09:41:49Z</time>
      </trkpt>
      <trkpt lat="49.61315" lon="6.11967">
        <ele>300.7</ele>
        <time>2020-06-26T09:41:50Z</time>
      </trkpt>
      <trkpt lat="49.61315" lon="6.11967">
        <ele>300.7</ele>
        <time>2020-06-26T09:41:51Z</time>
      </trkpt>
      <trkpt lat="49.61315" lon="6.11967">
        <ele>300.7</ele>
        <time>2020-06-26T09:41:52Z</time>
      </trkpt>
      <trkpt lat="49.61315" lon="6.11968">
        <ele>300.7</ele>
        <time>2020-06-26T09:41:53Z</time>
      </trkpt>
      <trkpt lat="49.61316" lon="6.11968">
        <ele>300.7</ele>
        <time>2020-06-26T09:41:54Z</time>
      </trkpt>
      <trkpt lat="49.61312" lon="6.11974">
        <ele>301</ele>
        <time>2020-06-26T09:41:58Z</time>
      </trkpt>
      <trkpt lat="49.61313" lon="6.11977">
        <ele>301.1</ele>
        <time>2020-06-26T09:41:59Z</time>
      </trkpt>
      <trkpt lat="49.61312" lon="6.1198">
        <ele>301.4</ele>
        <time>2020-06-26T09:42:00Z</time>
      </trkpt>
      <trkpt lat="49.61312" lon="6.11982">
        <ele>301.4</ele>
        <time>2020-06-26T09:42:01Z</time>
      </trkpt>
      <trkpt lat="49.61312" lon="6.11983">
        <ele>301.4</ele>
        <time>2020-06-26T09:42:02Z</time>
      </trkpt>
      <trkpt lat="49.61312" lon="6.11983">
        <ele>301.4</ele>
        <time>2020-06-26T09:42:03Z</time>
      </trkpt>
      <trkpt lat="49.61312" lon="6.11983">
        <ele>301.4</ele>
        <time>2020-06-26T09:42:04Z</time>
      </trkpt>
      <trkpt lat="49.61312" lon="6.11983">
        <ele>301.4</ele>
        <time>2020-06-26T09:42:05Z</time>
      </trkpt>
      <trkpt lat="49.61312" lon="6.11983">
        <ele>301.4</ele>
        <time>2020-06-26T09:42:06Z</time>
      </trkpt>
      <trkpt lat="49.61313" lon="6.11983">
        <ele>301.4</ele>
        <time>2020-06-26T09:42:07Z</time>
      </trkpt>
      <trkpt lat="49.61312" lon="6.11983">
        <ele>301.4</ele>
        <time>2020-06-26T09:42:08Z</time>
      </trkpt>
      <trkpt lat="49.61312" lon="6.11984">
        <ele>301.4</ele>
        <time>2020-06-26T09:42:09Z</time>
      </trkpt>
      <trkpt lat="49.61313" lon="6.11985">
        <ele>301.4</ele>
        <time>2020-06-26T09:42:10Z</time>
      </trkpt>
      <trkpt lat="49.61314" lon="6.11986">
        <ele>301.4</ele>
        <time>2020-06-26T09:42:11Z</time>
      </trkpt>
      <trkpt lat="49.61315" lon="6.11986">
        <ele>301.4</ele>
        <time>2020-06-26T09:42:12Z</time>
      </trkpt>
      <trkpt lat="49.61316" lon="6.11986">
        <ele>301.4</ele>
        <time>2020-06-26T09:42:13Z</time>
      </trkpt>
      <trkpt lat="49.61317" lon="6.11987">
        <ele>301.4</ele>
        <time>2020-06-26T09:42:14Z</time>
      </trkpt>
      <trkpt lat="49.61317" lon="6.11987">
        <ele>301.4</ele>
        <time>2020-06-26T09:42:15Z</time>
      </trkpt>
      <trkpt lat="49.61317" lon="6.11987">
        <ele>301.4</ele>
        <time>2020-06-26T09:42:16Z</time>
      </trkpt>
      <trkpt lat="49.61317" lon="6.11987">
        <ele>301.4</ele>
        <time>2020-06-26T09:42:17Z</time>
      </trkpt>
      <trkpt lat="49.61317" lon="6.11987">
        <ele>301.4</ele>
        <time>2020-06-26T09:42:18Z</time>
      </trkpt>
      <trkpt lat="49.61317" lon="6.11987">
        <ele>301.4</ele>
        <time>2020-06-26T09:42:19Z</time>
      </trkpt>
      <trkpt lat="49.61315" lon="6.11995">
        <ele>301.8</ele>
        <time>2020-06-26T09:44:37Z</time>
      </trkpt>
      <trkpt lat="49.61315" lon="6.11997">
        <ele>301.8</ele>
        <time>2020-06-26T09:44:38Z</time>
      </trkpt>
      <trkpt lat="49.61314" lon="6.11999">
        <ele>301.8</ele>
        <time>2020-06-26T09:44:39Z</time>
      </trkpt>
      <trkpt lat="49.61314" lon="6.12">
        <ele>301.9</ele>
        <time>2020-06-26T09:44:40Z</time>
      </trkpt>
      <trkpt lat="49.61314" lon="6.12002">
        <ele>301.9</ele>
        <time>2020-06-26T09:44:41Z</time>
      </trkpt>
      <trkpt lat="49.61313" lon="6.12004">
        <ele>301.9</ele>
        <time>2020-06-26T09:44:42Z</time>
      </trkpt>
      <trkpt lat="49.61312" lon="6.12006">
        <ele>302</ele>
        <time>2020-06-26T09:44:43Z</time>
      </trkpt>
      <trkpt lat="49.61311" lon="6.12008">
        <ele>302</ele>
        <time>2020-06-26T09:44:44Z</time>
      </trkpt>
      <trkpt lat="49.6131" lon="6.12009">
        <ele>302</ele>
        <time>2020-06-26T09:44:45Z</time>
      </trkpt>
      <trkpt lat="49.6131" lon="6.12012">
        <ele>302.1</ele>
        <time>2020-06-26T09:44:46Z</time>
      </trkpt>
      <trkpt lat="49.6131" lon="6.12017">
        <ele>302.2</ele>
        <time>2020-06-26T09:44:47Z</time>
      </trkpt>
      <trkpt lat="49.6131" lon="6.12018">
        <ele>302.2</ele>
        <time>2020-06-26T09:44:48Z</time>
      </trkpt>
      <trkpt lat="49.61309" lon="6.12023">
        <ele>302.3</ele>
        <time>2020-06-26T09:44:49Z</time>
      </trkpt>
      <trkpt lat="49.61309" lon="6.12024">
        <ele>302.3</ele>
        <time>2020-06-26T09:44:50Z</time>
      </trkpt>
      <trkpt lat="49.6131" lon="6.12028">
        <ele>302.4</ele>
        <time>2020-06-26T09:44:51Z</time>
      </trkpt>
      <trkpt lat="49.6131" lon="6.12033">
        <ele>302.4</ele>
        <time>2020-06-26T09:44:52Z</time>
      </trkpt>
      <trkpt lat="49.6131" lon="6.12035">
        <ele>302.5</ele>
        <time>2020-06-26T09:44:53Z</time>
      </trkpt>
      <trkpt lat="49.61311" lon="6.1204">
        <ele>302.6</ele>
        <time>2020-06-26T09:44:54Z</time>
      </trkpt>
      <trkpt lat="49.61311" lon="6.12042">
        <ele>302.6</ele>
        <time>2020-06-26T09:44:55Z</time>
      </trkpt>
      <trkpt lat="49.6131" lon="6.12046">
        <ele>302.7</ele>
        <time>2020-06-26T09:44:56Z</time>
      </trkpt>
      <trkpt lat="49.6131" lon="6.12047">
        <ele>302.7</ele>
        <time>2020-06-26T09:44:57Z</time>
      </trkpt>
      <trkpt lat="49.61305" lon="6.12046">
        <ele>302.9</ele>
        <time>2020-06-26T09:44:58Z</time>
      </trkpt>
      <trkpt lat="49.61301" lon="6.12047">
        <ele>303</ele>
        <time>2020-06-26T09:44:59Z</time>
      </trkpt>
      <trkpt lat="49.613" lon="6.12048">
        <ele>303.1</ele>
        <time>2020-06-26T09:45:00Z</time>
      </trkpt>
      <trkpt lat="49.613" lon="6.1205">
        <ele>303.1</ele>
        <time>2020-06-26T09:45:01Z</time>
      </trkpt>
      <trkpt lat="49.613" lon="6.12052">
        <ele>303.2</ele>
        <time>2020-06-26T09:45:02Z</time>
      </trkpt>
      <trkpt lat="49.613" lon="6.12053">
        <ele>303.2</ele>
        <time>2020-06-26T09:45:03Z</time>
      </trkpt>
      <trkpt lat="49.613" lon="6.12056">
        <ele>303.3</ele>
        <time>2020-06-26T09:45:04Z</time>
      </trkpt>
      <trkpt lat="49.61299" lon="6.12061">
        <ele>303.4</ele>
        <time>2020-06-26T09:45:05Z</time>
      </trkpt>
      <trkpt lat="49.61299" lon="6.12063">
        <ele>303.4</ele>
        <time>2020-06-26T09:45:06Z</time>
      </trkpt>
      <trkpt lat="49.61298" lon="6.12067">
        <ele>303.5</ele>
        <time>2020-06-26T09:45:07Z</time>
      </trkpt>
      <trkpt lat="49.61296" lon="6.1207">
        <ele>303.6</ele>
        <time>2020-06-26T09:45:08Z</time>
      </trkpt>
      <trkpt lat="49.61294" lon="6.12074">
        <ele>303.7</ele>
        <time>2020-06-26T09:45:09Z</time>
      </trkpt>
      <trkpt lat="49.61293" lon="6.1208">
        <ele>303.8</ele>
        <time>2020-06-26T09:45:10Z</time>
      </trkpt>
      <trkpt lat="49.61291" lon="6.12087">
        <ele>303.9</ele>
        <time>2020-06-26T09:45:11Z</time>
      </trkpt>
      <trkpt lat="49.61288" lon="6.12098">
        <ele>304.3</ele>
        <time>2020-06-26T09:45:12Z</time>
      </trkpt>
      <trkpt lat="49.61286" lon="6.12105">
        <ele>304.5</ele>
        <time>2020-06-26T09:45:13Z</time>
      </trkpt>
      <trkpt lat="49.61284" lon="6.12112">
        <ele>304.7</ele>
        <time>2020-06-26T09:45:14Z</time>
      </trkpt>
      <trkpt lat="49.61282" lon="6.12118">
        <ele>304.9</ele>
        <time>2020-06-26T09:45:15Z</time>
      </trkpt>
      <trkpt lat="49.6128" lon="6.12123">
        <ele>305</ele>
        <time>2020-06-26T09:45:16Z</time>
      </trkpt>
      <trkpt lat="49.61277" lon="6.12129">
        <ele>305.2</ele>
        <time>2020-06-26T09:45:17Z</time>
      </trkpt>
      <trkpt lat="49.61274" lon="6.12135">
        <ele>305.4</ele>
        <time>2020-06-26T09:45:18Z</time>
      </trkpt>
      <trkpt lat="49.61271" lon="6.12143">
        <ele>305.6</ele>
        <time>2020-06-26T09:45:19Z</time>
      </trkpt>
      <trkpt lat="49.61268" lon="6.12148">
        <ele>305.7</ele>
        <time>2020-06-26T09:45:20Z</time>
      </trkpt>
      <trkpt lat="49.61266" lon="6.12152">
        <ele>305.8</ele>
        <time>2020-06-26T09:45:21Z</time>
      </trkpt>
      <trkpt lat="49.61265" lon="6.12152">
        <ele>305.9</ele>
        <time>2020-06-26T09:45:22Z</time>
      </trkpt>
      <trkpt lat="49.61262" lon="6.12152">
        <ele>306</ele>
        <time>2020-06-26T09:45:23Z</time>
      </trkpt>
      <trkpt lat="49.61258" lon="6.12151">
        <ele>306.2</ele>
        <time>2020-06-26T09:45:24Z</time>
      </trkpt>
      <trkpt lat="49.61255" lon="6.1215">
        <ele>306.3</ele>
        <time>2020-06-26T09:45:25Z</time>
      </trkpt>
      <trkpt lat="49.61254" lon="6.1215">
        <ele>306.3</ele>
        <time>2020-06-26T09:45:26Z</time>
      </trkpt>
      <trkpt lat="49.61253" lon="6.12149">
        <ele>306.3</ele>
        <time>2020-06-26T09:45:27Z</time>
      </trkpt>
      <trkpt lat="49.61253" lon="6.12149">
        <ele>306.4</ele>
        <time>2020-06-26T09:45:28Z</time>
      </trkpt>
      <trkpt lat="49.61251" lon="6.1215">
        <ele>306.4</ele>
        <time>2020-06-26T09:45:29Z</time>
      </trkpt>
      <trkpt lat="49.61249" lon="6.12153">
        <ele>306.4</ele>
        <time>2020-06-26T09:45:30Z</time>
      </trkpt>
      <trkpt lat="49.61248" lon="6.12155">
        <ele>306.5</ele>
        <time>2020-06-26T09:45:31Z</time>
      </trkpt>
      <trkpt lat="49.61247" lon="6.12159">
        <ele>306.5</ele>
        <time>2020-06-26T09:45:32Z</time>
      </trkpt>
      <trkpt lat="49.61245" lon="6.12164">
        <ele>306.6</ele>
        <time>2020-06-26T09:45:33Z</time>
      </trkpt>
      <trkpt lat="49.61243" lon="6.12169">
        <ele>306.6</ele>
        <time>2020-06-26T09:45:34Z</time>
      </trkpt>
      <trkpt lat="49.61241" lon="6.12177">
        <ele>306.6</ele>
        <time>2020-06-26T09:45:35Z</time>
      </trkpt>
      <trkpt lat="49.61239" lon="6.12184">
        <ele>306.6</ele>
        <time>2020-06-26T09:45:36Z</time>
      </trkpt>
      <trkpt lat="49.61239" lon="6.1219">
        <ele>306.6</ele>
        <time>2020-06-26T09:45:37Z</time>
      </trkpt>
      <trkpt lat="49.61238" lon="6.12198">
        <ele>306.5</ele>
        <time>2020-06-26T09:45:38Z</time>
      </trkpt>
      <trkpt lat="49.61237" lon="6.12203">
        <ele>306.5</ele>
        <time>2020-06-26T09:45:39Z</time>
      </trkpt>
      <trkpt lat="49.61236" lon="6.12207">
        <ele>306.4</ele>
        <time>2020-06-26T09:45:40Z</time>
      </trkpt>
      <trkpt lat="49.61235" lon="6.12213">
        <ele>306.3</ele>
        <time>2020-06-26T09:45:41Z</time>
      </trkpt>
      <trkpt lat="49.61235" lon="6.12215">
        <ele>306.3</ele>
        <time>2020-06-26T09:45:42Z</time>
      </trkpt>
      <trkpt lat="49.61234" lon="6.1222">
        <ele>306.2</ele>
        <time>2020-06-26T09:45:43Z</time>
      </trkpt>
      <trkpt lat="49.61234" lon="6.12226">
        <ele>306</ele>
        <time>2020-06-26T09:45:44Z</time>
      </trkpt>
      <trkpt lat="49.61234" lon="6.12233">
        <ele>305.9</ele>
        <time>2020-06-26T09:45:45Z</time>
      </trkpt>
      <trkpt lat="49.61235" lon="6.12239">
        <ele>305.9</ele>
        <time>2020-06-26T09:45:46Z</time>
      </trkpt>
      <trkpt lat="49.61234" lon="6.12243">
        <ele>305.9</ele>
        <time>2020-06-26T09:45:47Z</time>
      </trkpt>
      <trkpt lat="49.61233" lon="6.12247">
        <ele>305.9</ele>
        <time>2020-06-26T09:45:48Z</time>
      </trkpt>
      <trkpt lat="49.61233" lon="6.12249">
        <ele>305.8</ele>
        <time>2020-06-26T09:45:49Z</time>
      </trkpt>
      <trkpt lat="49.61232" lon="6.12254">
        <ele>305.8</ele>
        <time>2020-06-26T09:45:50Z</time>
      </trkpt>
      <trkpt lat="49.61231" lon="6.12258">
        <ele>305.8</ele>
        <time>2020-06-26T09:45:51Z</time>
      </trkpt>
      <trkpt lat="49.6123" lon="6.12263">
        <ele>305.8</ele>
        <time>2020-06-26T09:45:52Z</time>
      </trkpt>
      <trkpt lat="49.61228" lon="6.12268">
        <ele>305.8</ele>
        <time>2020-06-26T09:45:53Z</time>
      </trkpt>
      <trkpt lat="49.61227" lon="6.12274">
        <ele>305.8</ele>
        <time>2020-06-26T09:45:54Z</time>
      </trkpt>
      <trkpt lat="49.61226" lon="6.12279">
        <ele>305.8</ele>
        <time>2020-06-26T09:45:55Z</time>
      </trkpt>
      <trkpt lat="49.61225" lon="6.12285">
        <ele>305.8</ele>
        <time>2020-06-26T09:45:56Z</time>
      </trkpt>
      <trkpt lat="49.61224" lon="6.1229">
        <ele>305.8</ele>
        <time>2020-06-26T09:45:57Z</time>
      </trkpt>
      <trkpt lat="49.61224" lon="6.12295">
        <ele>305.8</ele>
        <time>2020-06-26T09:45:58Z</time>
      </trkpt>
      <trkpt lat="49.61225" lon="6.12304">
        <ele>305.8</ele>
        <time>2020-06-26T09:45:59Z</time>
      </trkpt>
      <trkpt lat="49.61224" lon="6.12311">
        <ele>305.9</ele>
        <time>2020-06-26T09:46:00Z</time>
      </trkpt>
      <trkpt lat="49.61223" lon="6.12318">
        <ele>306.1</ele>
        <time>2020-06-26T09:46:01Z</time>
      </trkpt>
      <trkpt lat="49.61223" lon="6.12324">
        <ele>306.2</ele>
        <time>2020-06-26T09:46:02Z</time>
      </trkpt>
      <trkpt lat="49.61223" lon="6.1233">
        <ele>306.3</ele>
        <time>2020-06-26T09:46:03Z</time>
      </trkpt>
      <trkpt lat="49.61222" lon="6.12335">
        <ele>306.4</ele>
        <time>2020-06-26T09:46:04Z</time>
      </trkpt>
      <trkpt lat="49.61221" lon="6.12342">
        <ele>306.6</ele>
        <time>2020-06-26T09:46:05Z</time>
      </trkpt>
      <trkpt lat="49.61221" lon="6.12344">
        <ele>306.6</ele>
        <time>2020-06-26T09:46:06Z</time>
      </trkpt>
      <trkpt lat="49.6122" lon="6.1235">
        <ele>306.7</ele>
        <time>2020-06-26T09:46:07Z</time>
      </trkpt>
      <trkpt lat="49.6122" lon="6.12353">
        <ele>306.8</ele>
        <time>2020-06-26T09:46:08Z</time>
      </trkpt>
      <trkpt lat="49.6122" lon="6.12359">
        <ele>306.9</ele>
        <time>2020-06-26T09:46:09Z</time>
      </trkpt>
      <trkpt lat="49.6122" lon="6.12361">
        <ele>306.9</ele>
        <time>2020-06-26T09:46:10Z</time>
      </trkpt>
      <trkpt lat="49.61219" lon="6.12366">
        <ele>307</ele>
        <time>2020-06-26T09:46:11Z</time>
      </trkpt>
      <trkpt lat="49.61219" lon="6.12371">
        <ele>307.1</ele>
        <time>2020-06-26T09:46:12Z</time>
      </trkpt>
      <trkpt lat="49.61219" lon="6.12376">
        <ele>307.2</ele>
        <time>2020-06-26T09:46:13Z</time>
      </trkpt>
      <trkpt lat="49.61219" lon="6.12381">
        <ele>307.2</ele>
        <time>2020-06-26T09:46:14Z</time>
      </trkpt>
      <trkpt lat="49.61217" lon="6.12384">
        <ele>307.2</ele>
        <time>2020-06-26T09:46:15Z</time>
      </trkpt>
      <trkpt lat="49.61216" lon="6.12384">
        <ele>307.3</ele>
        <time>2020-06-26T09:46:16Z</time>
      </trkpt>
      <trkpt lat="49.61215" lon="6.12385">
        <ele>307.3</ele>
        <time>2020-06-26T09:46:17Z</time>
      </trkpt>
      <trkpt lat="49.61211" lon="6.12385">
        <ele>307.3</ele>
        <time>2020-06-26T09:46:18Z</time>
      </trkpt>
      <trkpt lat="49.6121" lon="6.12385">
        <ele>307.3</ele>
        <time>2020-06-26T09:46:19Z</time>
      </trkpt>
      <trkpt lat="49.61205" lon="6.12386">
        <ele>307.2</ele>
        <time>2020-06-26T09:46:20Z</time>
      </trkpt>
      <trkpt lat="49.61202" lon="6.12387">
        <ele>307.2</ele>
        <time>2020-06-26T09:46:21Z</time>
      </trkpt>
      <trkpt lat="49.61199" lon="6.12387">
        <ele>307.1</ele>
        <time>2020-06-26T09:46:22Z</time>
      </trkpt>
      <trkpt lat="49.61195" lon="6.12388">
        <ele>307.1</ele>
        <time>2020-06-26T09:46:23Z</time>
      </trkpt>
      <trkpt lat="49.61191" lon="6.12389">
        <ele>307</ele>
        <time>2020-06-26T09:46:24Z</time>
      </trkpt>
      <trkpt lat="49.6119" lon="6.12389">
        <ele>307</ele>
        <time>2020-06-26T09:46:25Z</time>
      </trkpt>
      <trkpt lat="49.61187" lon="6.1239">
        <ele>306.9</ele>
        <time>2020-06-26T09:46:26Z</time>
      </trkpt>
      <trkpt lat="49.61184" lon="6.12391">
        <ele>306.9</ele>
        <time>2020-06-26T09:46:27Z</time>
      </trkpt>
      <trkpt lat="49.61181" lon="6.12392">
        <ele>306.8</ele>
        <time>2020-06-26T09:46:28Z</time>
      </trkpt>
      <trkpt lat="49.61178" lon="6.12391">
        <ele>306.7</ele>
        <time>2020-06-26T09:46:29Z</time>
      </trkpt>
      <trkpt lat="49.61173" lon="6.12389">
        <ele>306.6</ele>
        <time>2020-06-26T09:46:30Z</time>
      </trkpt>
      <trkpt lat="49.6117" lon="6.12388">
        <ele>306.6</ele>
        <time>2020-06-26T09:46:31Z</time>
      </trkpt>
      <trkpt lat="49.61166" lon="6.12386">
        <ele>306.5</ele>
        <time>2020-06-26T09:46:32Z</time>
      </trkpt>
      <trkpt lat="49.61163" lon="6.12385">
        <ele>306.5</ele>
        <time>2020-06-26T09:46:33Z</time>
      </trkpt>
      <trkpt lat="49.6116" lon="6.12384">
        <ele>306.4</ele>
        <time>2020-06-26T09:46:34Z</time>
      </trkpt>
      <trkpt lat="49.61156" lon="6.12382">
        <ele>306.4</ele>
        <time>2020-06-26T09:46:35Z</time>
      </trkpt>
      <trkpt lat="49.61154" lon="6.12381">
        <ele>306.2</ele>
        <time>2020-06-26T09:46:36Z</time>
      </trkpt>
      <trkpt lat="49.61151" lon="6.1238">
        <ele>306.1</ele>
        <time>2020-06-26T09:46:37Z</time>
      </trkpt>
      <trkpt lat="49.61147" lon="6.12379">
        <ele>306.1</ele>
        <time>2020-06-26T09:46:38Z</time>
      </trkpt>
      <trkpt lat="49.61141" lon="6.12378">
        <ele>305.9</ele>
        <time>2020-06-26T09:46:39Z</time>
      </trkpt>
      <trkpt lat="49.61135" lon="6.12378">
        <ele>305.8</ele>
        <time>2020-06-26T09:46:40Z</time>
      </trkpt>
      <trkpt lat="49.61129" lon="6.12378">
        <ele>305.5</ele>
        <time>2020-06-26T09:46:41Z</time>
      </trkpt>
      <trkpt lat="49.61121" lon="6.12381">
        <ele>305.2</ele>
        <time>2020-06-26T09:46:42Z</time>
      </trkpt>
      <trkpt lat="49.61114" lon="6.12383">
        <ele>305.1</ele>
        <time>2020-06-26T09:46:43Z</time>
      </trkpt>
      <trkpt lat="49.61111" lon="6.12385">
        <ele>305</ele>
        <time>2020-06-26T09:46:44Z</time>
      </trkpt>
      <trkpt lat="49.61107" lon="6.12389">
        <ele>304.9</ele>
        <time>2020-06-26T09:46:45Z</time>
      </trkpt>
      <trkpt lat="49.61104" lon="6.12393">
        <ele>304.7</ele>
        <time>2020-06-26T09:46:46Z</time>
      </trkpt>
      <trkpt lat="49.611" lon="6.12397">
        <ele>304.6</ele>
        <time>2020-06-26T09:46:47Z</time>
      </trkpt>
      <trkpt lat="49.61095" lon="6.12399">
        <ele>304.4</ele>
        <time>2020-06-26T09:46:48Z</time>
      </trkpt>
      <trkpt lat="49.6109" lon="6.124">
        <ele>304.1</ele>
        <time>2020-06-26T09:46:49Z</time>
      </trkpt>
      <trkpt lat="49.61082" lon="6.12401">
        <ele>303.7</ele>
        <time>2020-06-26T09:46:50Z</time>
      </trkpt>
      <trkpt lat="49.61077" lon="6.124">
        <ele>303.4</ele>
        <time>2020-06-26T09:46:51Z</time>
      </trkpt>
      <trkpt lat="49.61072" lon="6.12399">
        <ele>303.2</ele>
        <time>2020-06-26T09:46:52Z</time>
      </trkpt>
      <trkpt lat="49.61067" lon="6.124">
        <ele>303</ele>
        <time>2020-06-26T09:46:53Z</time>
      </trkpt>
      <trkpt lat="49.61063" lon="6.124">
        <ele>302.9</ele>
        <time>2020-06-26T09:46:54Z</time>
      </trkpt>
      <trkpt lat="49.6106" lon="6.12398">
        <ele>302.8</ele>
        <time>2020-06-26T09:46:55Z</time>
      </trkpt>
      <trkpt lat="49.61058" lon="6.12397">
        <ele>302.7</ele>
        <time>2020-06-26T09:46:56Z</time>
      </trkpt>
      <trkpt lat="49.61055" lon="6.12399">
        <ele>302.6</ele>
        <time>2020-06-26T09:46:57Z</time>
      </trkpt>
      <trkpt lat="49.61052" lon="6.12401">
        <ele>302.5</ele>
        <time>2020-06-26T09:46:58Z</time>
      </trkpt>
      <trkpt lat="49.61049" lon="6.12404">
        <ele>302.4</ele>
        <time>2020-06-26T09:46:59Z</time>
      </trkpt>
      <trkpt lat="49.61047" lon="6.12408">
        <ele>302.3</ele>
        <time>2020-06-26T09:47:00Z</time>
      </trkpt>
      <trkpt lat="49.61046" lon="6.12409">
        <ele>302.2</ele>
        <time>2020-06-26T09:47:01Z</time>
      </trkpt>
      <trkpt lat="49.61044" lon="6.12412">
        <ele>302.1</ele>
        <time>2020-06-26T09:47:02Z</time>
      </trkpt>
      <trkpt lat="49.61041" lon="6.12414">
        <ele>302</ele>
        <time>2020-06-26T09:47:03Z</time>
      </trkpt>
      <trkpt lat="49.6104" lon="6.12415">
        <ele>301.9</ele>
        <time>2020-06-26T09:47:04Z</time>
      </trkpt>
      <trkpt lat="49.61037" lon="6.12414">
        <ele>301.8</ele>
        <time>2020-06-26T09:47:05Z</time>
      </trkpt>
      <trkpt lat="49.61036" lon="6.12414">
        <ele>301.8</ele>
        <time>2020-06-26T09:47:06Z</time>
      </trkpt>
      <trkpt lat="49.61033" lon="6.12415">
        <ele>301.8</ele>
        <time>2020-06-26T09:47:07Z</time>
      </trkpt>
      <trkpt lat="49.61031" lon="6.12415">
        <ele>301.8</ele>
        <time>2020-06-26T09:47:08Z</time>
      </trkpt>
      <trkpt lat="49.61029" lon="6.12417">
        <ele>301.7</ele>
        <time>2020-06-26T09:47:09Z</time>
      </trkpt>
      <trkpt lat="49.61027" lon="6.12419">
        <ele>301.7</ele>
        <time>2020-06-26T09:47:10Z</time>
      </trkpt>
      <trkpt lat="49.61026" lon="6.12419">
        <ele>301.7</ele>
        <time>2020-06-26T09:47:11Z</time>
      </trkpt>
      <trkpt lat="49.61025" lon="6.12421">
        <ele>301.7</ele>
        <time>2020-06-26T09:47:12Z</time>
      </trkpt>
      <trkpt lat="49.61025" lon="6.12421">
        <ele>301.7</ele>
        <time>2020-06-26T09:47:13Z</time>
      </trkpt>
      <trkpt lat="49.61025" lon="6.12422">
        <ele>301.7</ele>
        <time>2020-06-26T09:47:14Z</time>
      </trkpt>
      <trkpt lat="49.61026" lon="6.12424">
        <ele>301.7</ele>
        <time>2020-06-26T09:47:15Z</time>
      </trkpt>
      <trkpt lat="49.61026" lon="6.12427">
        <ele>301.7</ele>
        <time>2020-06-26T09:47:16Z</time>
      </trkpt>
      <trkpt lat="49.61027" lon="6.12429">
        <ele>301.7</ele>
        <time>2020-06-26T09:47:17Z</time>
      </trkpt>
      <trkpt lat="49.61027" lon="6.1243">
        <ele>301.7</ele>
        <time>2020-06-26T09:47:18Z</time>
      </trkpt>
      <trkpt lat="49.61027" lon="6.1243">
        <ele>301.7</ele>
        <time>2020-06-26T09:47:19Z</time>
      </trkpt>
      <trkpt lat="49.61028" lon="6.12431">
        <ele>301.7</ele>
        <time>2020-06-26T09:47:20Z</time>
      </trkpt>
      <trkpt lat="49.61028" lon="6.12431">
        <ele>301.7</ele>
        <time>2020-06-26T09:47:21Z</time>
      </trkpt>
      <trkpt lat="49.61028" lon="6.1243">
        <ele>301.7</ele>
        <time>2020-06-26T09:47:22Z</time>
      </trkpt>
      <trkpt lat="49.61028" lon="6.1243">
        <ele>301.7</ele>
        <time>2020-06-26T09:47:23Z</time>
      </trkpt>
      <trkpt lat="49.61027" lon="6.12431">
        <ele>301.7</ele>
        <time>2020-06-26T09:47:24Z</time>
      </trkpt>
      <trkpt lat="49.61027" lon="6.12433">
        <ele>301.7</ele>
        <time>2020-06-26T09:47:25Z</time>
      </trkpt>
      <trkpt lat="49.61027" lon="6.12435">
        <ele>301.7</ele>
        <time>2020-06-26T09:47:26Z</time>
      </trkpt>
      <trkpt lat="49.61027" lon="6.12437">
        <ele>301.7</ele>
        <time>2020-06-26T09:47:27Z</time>
      </trkpt>
      <trkpt lat="49.61026" lon="6.1244">
        <ele>301.8</ele>
        <time>2020-06-26T09:47:28Z</time>
      </trkpt>
      <trkpt lat="49.61026" lon="6.12443">
        <ele>301.8</ele>
        <time>2020-06-26T09:47:29Z</time>
      </trkpt>
      <trkpt lat="49.61026" lon="6.12445">
        <ele>301.8</ele>
        <time>2020-06-26T09:47:30Z</time>
      </trkpt>
      <trkpt lat="49.61025" lon="6.12446">
        <ele>301.8</ele>
        <time>2020-06-26T09:47:31Z</time>
      </trkpt>
      <trkpt lat="49.61025" lon="6.12448">
        <ele>301.8</ele>
        <time>2020-06-26T09:47:32Z</time>
      </trkpt>
      <trkpt lat="49.61026" lon="6.12449">
        <ele>301.8</ele>
        <time>2020-06-26T09:47:33Z</time>
      </trkpt>
      <trkpt lat="49.61026" lon="6.12452">
        <ele>301.8</ele>
        <time>2020-06-26T09:47:34Z</time>
      </trkpt>
      <trkpt lat="49.61027" lon="6.12456">
        <ele>301.9</ele>
        <time>2020-06-26T09:47:35Z</time>
      </trkpt>
      <trkpt lat="49.61028" lon="6.12457">
        <ele>301.9</ele>
        <time>2020-06-26T09:47:36Z</time>
      </trkpt>
      <trkpt lat="49.61027" lon="6.12462">
        <ele>302</ele>
        <time>2020-06-26T09:47:37Z</time>
      </trkpt>
      <trkpt lat="49.61027" lon="6.12468">
        <ele>302</ele>
        <time>2020-06-26T09:47:38Z</time>
      </trkpt>
      <trkpt lat="49.61026" lon="6.12471">
        <ele>302.1</ele>
        <time>2020-06-26T09:47:39Z</time>
      </trkpt>
      <trkpt lat="49.61026" lon="6.12475">
        <ele>302.1</ele>
        <time>2020-06-26T09:47:40Z</time>
      </trkpt>
      <trkpt lat="49.61027" lon="6.12479">
        <ele>302.1</ele>
        <time>2020-06-26T09:47:41Z</time>
      </trkpt>
      <trkpt lat="49.61028" lon="6.12484">
        <ele>302.2</ele>
        <time>2020-06-26T09:47:42Z</time>
      </trkpt>
      <trkpt lat="49.61028" lon="6.1249">
        <ele>302.2</ele>
        <time>2020-06-26T09:47:43Z</time>
      </trkpt>
      <trkpt lat="49.61029" lon="6.12494">
        <ele>302.2</ele>
        <time>2020-06-26T09:47:44Z</time>
      </trkpt>
      <trkpt lat="49.61029" lon="6.12498">
        <ele>302.2</ele>
        <time>2020-06-26T09:47:45Z</time>
      </trkpt>
      <trkpt lat="49.6103" lon="6.12503">
        <ele>302.2</ele>
        <time>2020-06-26T09:47:46Z</time>
      </trkpt>
      <trkpt lat="49.6103" lon="6.12507">
        <ele>302.2</ele>
        <time>2020-06-26T09:47:47Z</time>
      </trkpt>
      <trkpt lat="49.61031" lon="6.12511">
        <ele>302.2</ele>
        <time>2020-06-26T09:47:48Z</time>
      </trkpt>
      <trkpt lat="49.61031" lon="6.12516">
        <ele>302.2</ele>
        <time>2020-06-26T09:47:49Z</time>
      </trkpt>
      <trkpt lat="49.61031" lon="6.12521">
        <ele>302.2</ele>
        <time>2020-06-26T09:47:50Z</time>
      </trkpt>
      <trkpt lat="49.61031" lon="6.12526">
        <ele>302.3</ele>
        <time>2020-06-26T09:47:51Z</time>
      </trkpt>
      <trkpt lat="49.61031" lon="6.1253">
        <ele>302.3</ele>
        <time>2020-06-26T09:47:52Z</time>
      </trkpt>
      <trkpt lat="49.61031" lon="6.12535">
        <ele>302.3</ele>
        <time>2020-06-26T09:47:53Z</time>
      </trkpt>
      <trkpt lat="49.61031" lon="6.1254">
        <ele>302.3</ele>
        <time>2020-06-26T09:47:54Z</time>
      </trkpt>
      <trkpt lat="49.61032" lon="6.12545">
        <ele>302.3</ele>
        <time>2020-06-26T09:47:55Z</time>
      </trkpt>
      <trkpt lat="49.61032" lon="6.12547">
        <ele>302.3</ele>
        <time>2020-06-26T09:47:56Z</time>
      </trkpt>
      <trkpt lat="49.61034" lon="6.12552">
        <ele>302.3</ele>
        <time>2020-06-26T09:47:57Z</time>
      </trkpt>
      <trkpt lat="49.61035" lon="6.12553">
        <ele>302.2</ele>
        <time>2020-06-26T09:47:58Z</time>
      </trkpt>
      <trkpt lat="49.61036" lon="6.12556">
        <ele>302.2</ele>
        <time>2020-06-26T09:47:59Z</time>
      </trkpt>
      <trkpt lat="49.61037" lon="6.12558">
        <ele>302.2</ele>
        <time>2020-06-26T09:48:00Z</time>
      </trkpt>
      <trkpt lat="49.61039" lon="6.12559">
        <ele>302.2</ele>
        <time>2020-06-26T09:48:01Z</time>
      </trkpt>
      <trkpt lat="49.61041" lon="6.12559">
        <ele>302.2</ele>
        <time>2020-06-26T09:48:02Z</time>
      </trkpt>
      <trkpt lat="49.61043" lon="6.12565">
        <ele>302.2</ele>
        <time>2020-06-26T09:48:03Z</time>
      </trkpt>
      <trkpt lat="49.61044" lon="6.12568">
        <ele>302.1</ele>
        <time>2020-06-26T09:48:04Z</time>
      </trkpt>
      <trkpt lat="49.61045" lon="6.12573">
        <ele>302.1</ele>
        <time>2020-06-26T09:48:05Z</time>
      </trkpt>
      <trkpt lat="49.61046" lon="6.12575">
        <ele>302.1</ele>
        <time>2020-06-26T09:48:06Z</time>
      </trkpt>
      <trkpt lat="49.61046" lon="6.12578">
        <ele>302.1</ele>
        <time>2020-06-26T09:48:07Z</time>
      </trkpt>
      <trkpt lat="49.61046" lon="6.1258">
        <ele>302.1</ele>
        <time>2020-06-26T09:48:08Z</time>
      </trkpt>
      <trkpt lat="49.61046" lon="6.12582">
        <ele>302.1</ele>
        <time>2020-06-26T09:48:09Z</time>
      </trkpt>
      <trkpt lat="49.61047" lon="6.12584">
        <ele>302.1</ele>
        <time>2020-06-26T09:48:10Z</time>
      </trkpt>
      <trkpt lat="49.61047" lon="6.12585">
        <ele>302.1</ele>
        <time>2020-06-26T09:48:11Z</time>
      </trkpt>
      <trkpt lat="49.61048" lon="6.12587">
        <ele>302.1</ele>
        <time>2020-06-26T09:48:12Z</time>
      </trkpt>
      <trkpt lat="49.61049" lon="6.12589">
        <ele>302</ele>
        <time>2020-06-26T09:48:13Z</time>
      </trkpt>
      <trkpt lat="49.61048" lon="6.126">
        <ele>302</ele>
        <time>2020-06-26T09:48:14Z</time>
      </trkpt>
      <trkpt lat="49.61046" lon="6.1261">
        <ele>301.5</ele>
        <time>2020-06-26T09:48:31Z</time>
      </trkpt>
      <trkpt lat="49.61044" lon="6.12619">
        <ele>301.3</ele>
        <time>2020-06-26T09:48:32Z</time>
      </trkpt>
      <trkpt lat="49.61043" lon="6.12629">
        <ele>301.1</ele>
        <time>2020-06-26T09:48:33Z</time>
      </trkpt>
      <trkpt lat="49.61038" lon="6.1263">
        <ele>300.9</ele>
        <time>2020-06-26T09:48:34Z</time>
      </trkpt>
      <trkpt lat="49.61033" lon="6.12631">
        <ele>300.8</ele>
        <time>2020-06-26T09:48:35Z</time>
      </trkpt>
      <trkpt lat="49.61028" lon="6.12629">
        <ele>300.6</ele>
        <time>2020-06-26T09:48:36Z</time>
      </trkpt>
      <trkpt lat="49.61023" lon="6.12628">
        <ele>300.4</ele>
        <time>2020-06-26T09:48:37Z</time>
      </trkpt>
      <trkpt lat="49.61018" lon="6.12629">
        <ele>300.3</ele>
        <time>2020-06-26T09:48:38Z</time>
      </trkpt>
      <trkpt lat="49.61015" lon="6.12629">
        <ele>300.2</ele>
        <time>2020-06-26T09:48:39Z</time>
      </trkpt>
      <trkpt lat="49.61012" lon="6.12628">
        <ele>300.1</ele>
        <time>2020-06-26T09:48:40Z</time>
      </trkpt>
      <trkpt lat="49.61011" lon="6.12627">
        <ele>300.1</ele>
        <time>2020-06-26T09:48:41Z</time>
      </trkpt>
      <trkpt lat="49.61009" lon="6.12628">
        <ele>300.1</ele>
        <time>2020-06-26T09:48:42Z</time>
      </trkpt>
      <trkpt lat="49.61008" lon="6.12628">
        <ele>300</ele>
        <time>2020-06-26T09:48:43Z</time>
      </trkpt>
      <trkpt lat="49.61005" lon="6.12628">
        <ele>300</ele>
        <time>2020-06-26T09:48:44Z</time>
      </trkpt>
      <trkpt lat="49.61004" lon="6.12628">
        <ele>299.9</ele>
        <time>2020-06-26T09:48:45Z</time>
      </trkpt>
      <trkpt lat="49.61002" lon="6.12629">
        <ele>299.9</ele>
        <time>2020-06-26T09:48:46Z</time>
      </trkpt>
      <trkpt lat="49.61001" lon="6.12629">
        <ele>299.9</ele>
        <time>2020-06-26T09:48:47Z</time>
      </trkpt>
      <trkpt lat="49.61" lon="6.12629">
        <ele>299.9</ele>
        <time>2020-06-26T09:48:48Z</time>
      </trkpt>
      <trkpt lat="49.61" lon="6.12629">
        <ele>299.8</ele>
        <time>2020-06-26T09:48:49Z</time>
      </trkpt>
      <trkpt lat="49.60998" lon="6.12629">
        <ele>299.8</ele>
        <time>2020-06-26T09:48:50Z</time>
      </trkpt>
      <trkpt lat="49.60997" lon="6.1263">
        <ele>299.8</ele>
        <time>2020-06-26T09:48:51Z</time>
      </trkpt>
      <trkpt lat="49.60993" lon="6.12631">
        <ele>299.6</ele>
        <time>2020-06-26T09:48:52Z</time>
      </trkpt>
      <trkpt lat="49.60992" lon="6.12631">
        <ele>299.6</ele>
        <time>2020-06-26T09:48:53Z</time>
      </trkpt>
      <trkpt lat="49.60989" lon="6.12631">
        <ele>299.6</ele>
        <time>2020-06-26T09:48:54Z</time>
      </trkpt>
      <trkpt lat="49.60988" lon="6.12631">
        <ele>299.6</ele>
        <time>2020-06-26T09:48:55Z</time>
      </trkpt>
      <trkpt lat="49.60985" lon="6.12631">
        <ele>299.6</ele>
        <time>2020-06-26T09:48:56Z</time>
      </trkpt>
      <trkpt lat="49.60983" lon="6.12631">
        <ele>299.6</ele>
        <time>2020-06-26T09:48:57Z</time>
      </trkpt>
      <trkpt lat="49.6098" lon="6.12631">
        <ele>299.6</ele>
        <time>2020-06-26T09:48:58Z</time>
      </trkpt>
      <trkpt lat="49.60977" lon="6.1263">
        <ele>299.6</ele>
        <time>2020-06-26T09:48:59Z</time>
      </trkpt>
      <trkpt lat="49.60973" lon="6.12631">
        <ele>299.6</ele>
        <time>2020-06-26T09:49:00Z</time>
      </trkpt>
      <trkpt lat="49.60971" lon="6.1263">
        <ele>299.6</ele>
        <time>2020-06-26T09:49:01Z</time>
      </trkpt>
      <trkpt lat="49.6097" lon="6.12629">
        <ele>299.5</ele>
        <time>2020-06-26T09:49:02Z</time>
      </trkpt>
      <trkpt lat="49.60969" lon="6.12628">
        <ele>299.5</ele>
        <time>2020-06-26T09:49:03Z</time>
      </trkpt>
      <trkpt lat="49.60968" lon="6.12628">
        <ele>299.5</ele>
        <time>2020-06-26T09:49:04Z</time>
      </trkpt>
      <trkpt lat="49.60968" lon="6.12628">
        <ele>299.5</ele>
        <time>2020-06-26T09:49:05Z</time>
      </trkpt>
      <trkpt lat="49.60967" lon="6.12628">
        <ele>299.5</ele>
        <time>2020-06-26T09:49:06Z</time>
      </trkpt>
      <trkpt lat="49.60967" lon="6.12627">
        <ele>299.5</ele>
        <time>2020-06-26T09:49:07Z</time>
      </trkpt>
      <trkpt lat="49.60967" lon="6.12627">
        <ele>299.5</ele>
        <time>2020-06-26T09:49:08Z</time>
      </trkpt>
      <trkpt lat="49.60967" lon="6.12628">
        <ele>299.5</ele>
        <time>2020-06-26T09:49:09Z</time>
      </trkpt>
      <trkpt lat="49.60967" lon="6.12628">
        <ele>299.5</ele>
        <time>2020-06-26T09:49:10Z</time>
      </trkpt>
      <trkpt lat="49.60961" lon="6.12627">
        <ele>299.3</ele>
        <time>2020-06-26T09:49:15Z</time>
      </trkpt>
      <trkpt lat="49.60958" lon="6.12625">
        <ele>299.2</ele>
        <time>2020-06-26T09:49:16Z</time>
      </trkpt>
      <trkpt lat="49.60955" lon="6.12624">
        <ele>299.1</ele>
        <time>2020-06-26T09:49:17Z</time>
      </trkpt>
      <trkpt lat="49.60952" lon="6.12624">
        <ele>299</ele>
        <time>2020-06-26T09:49:18Z</time>
      </trkpt>
      <trkpt lat="49.60948" lon="6.12624">
        <ele>298.9</ele>
        <time>2020-06-26T09:49:19Z</time>
      </trkpt>
      <trkpt lat="49.60943" lon="6.12625">
        <ele>298.7</ele>
        <time>2020-06-26T09:49:20Z</time>
      </trkpt>
      <trkpt lat="49.60939" lon="6.12627">
        <ele>298.5</ele>
        <time>2020-06-26T09:49:21Z</time>
      </trkpt>
      <trkpt lat="49.60936" lon="6.12629">
        <ele>298.3</ele>
        <time>2020-06-26T09:49:22Z</time>
      </trkpt>
      <trkpt lat="49.60932" lon="6.12632">
        <ele>298.3</ele>
        <time>2020-06-26T09:49:23Z</time>
      </trkpt>
      <trkpt lat="49.6093" lon="6.12635">
        <ele>298.2</ele>
        <time>2020-06-26T09:49:24Z</time>
      </trkpt>
      <trkpt lat="49.60929" lon="6.12643">
        <ele>298.1</ele>
        <time>2020-06-26T09:49:25Z</time>
      </trkpt>
      <trkpt lat="49.60929" lon="6.1265">
        <ele>298.8</ele>
        <time>2020-06-26T09:49:26Z</time>
      </trkpt>
      <trkpt lat="49.60929" lon="6.12661">
        <ele>299.3</ele>
        <time>2020-06-26T09:49:27Z</time>
      </trkpt>
      <trkpt lat="49.60929" lon="6.12668">
        <ele>299.5</ele>
        <time>2020-06-26T09:49:28Z</time>
      </trkpt>
      <trkpt lat="49.60929" lon="6.12676">
        <ele>299.9</ele>
        <time>2020-06-26T09:49:29Z</time>
      </trkpt>
      <trkpt lat="49.60929" lon="6.12682">
        <ele>299.9</ele>
        <time>2020-06-26T09:49:30Z</time>
      </trkpt>
      <trkpt lat="49.6093" lon="6.12689">
        <ele>299.9</ele>
        <time>2020-06-26T09:49:31Z</time>
      </trkpt>
      <trkpt lat="49.60931" lon="6.12694">
        <ele>299.9</ele>
        <time>2020-06-26T09:49:32Z</time>
      </trkpt>
      <trkpt lat="49.60932" lon="6.127">
        <ele>300</ele>
        <time>2020-06-26T09:49:33Z</time>
      </trkpt>
      <trkpt lat="49.60933" lon="6.12706">
        <ele>300</ele>
        <time>2020-06-26T09:49:34Z</time>
      </trkpt>
      <trkpt lat="49.60935" lon="6.12713">
        <ele>300</ele>
        <time>2020-06-26T09:49:35Z</time>
      </trkpt>
      <trkpt lat="49.60937" lon="6.12719">
        <ele>300.1</ele>
        <time>2020-06-26T09:49:36Z</time>
      </trkpt>
      <trkpt lat="49.60938" lon="6.12726">
        <ele>300.1</ele>
        <time>2020-06-26T09:49:37Z</time>
      </trkpt>
      <trkpt lat="49.6094" lon="6.12735">
        <ele>300.2</ele>
        <time>2020-06-26T09:49:38Z</time>
      </trkpt>
      <trkpt lat="49.60942" lon="6.1274">
        <ele>300.3</ele>
        <time>2020-06-26T09:49:39Z</time>
      </trkpt>
      <trkpt lat="49.60943" lon="6.12743">
        <ele>300.3</ele>
        <time>2020-06-26T09:49:40Z</time>
      </trkpt>
      <trkpt lat="49.60943" lon="6.12748">
        <ele>300.3</ele>
        <time>2020-06-26T09:49:41Z</time>
      </trkpt>
      <trkpt lat="49.60944" lon="6.12753">
        <ele>300.4</ele>
        <time>2020-06-26T09:49:42Z</time>
      </trkpt>
      <trkpt lat="49.60944" lon="6.12757">
        <ele>300.5</ele>
        <time>2020-06-26T09:49:43Z</time>
      </trkpt>
      <trkpt lat="49.60944" lon="6.12764">
        <ele>300.5</ele>
        <time>2020-06-26T09:49:44Z</time>
      </trkpt>
      <trkpt lat="49.60945" lon="6.12772">
        <ele>300.6</ele>
        <time>2020-06-26T09:49:45Z</time>
      </trkpt>
      <trkpt lat="49.60945" lon="6.12779">
        <ele>300.7</ele>
        <time>2020-06-26T09:49:46Z</time>
      </trkpt>
      <trkpt lat="49.60945" lon="6.12785">
        <ele>300.8</ele>
        <time>2020-06-26T09:49:47Z</time>
      </trkpt>
      <trkpt lat="49.60945" lon="6.12791">
        <ele>300.8</ele>
        <time>2020-06-26T09:49:48Z</time>
      </trkpt>
      <trkpt lat="49.60945" lon="6.12796">
        <ele>300.9</ele>
        <time>2020-06-26T09:49:49Z</time>
      </trkpt>
      <trkpt lat="49.60945" lon="6.12801">
        <ele>300.9</ele>
        <time>2020-06-26T09:49:50Z</time>
      </trkpt>
      <trkpt lat="49.60946" lon="6.12806">
        <ele>301</ele>
        <time>2020-06-26T09:49:51Z</time>
      </trkpt>
      <trkpt lat="49.60946" lon="6.12808">
        <ele>301</ele>
        <time>2020-06-26T09:49:52Z</time>
      </trkpt>
      <trkpt lat="49.60946" lon="6.12811">
        <ele>301</ele>
        <time>2020-06-26T09:49:53Z</time>
      </trkpt>
      <trkpt lat="49.60946" lon="6.12812">
        <ele>301</ele>
        <time>2020-06-26T09:49:54Z</time>
      </trkpt>
      <trkpt lat="49.60946" lon="6.12814">
        <ele>301.1</ele>
        <time>2020-06-26T09:49:55Z</time>
      </trkpt>
      <trkpt lat="49.60946" lon="6.12814">
        <ele>301.1</ele>
        <time>2020-06-26T09:49:56Z</time>
      </trkpt>
      <trkpt lat="49.60947" lon="6.12815">
        <ele>301.1</ele>
        <time>2020-06-26T09:49:57Z</time>
      </trkpt>
      <trkpt lat="49.60947" lon="6.12815">
        <ele>301</ele>
        <time>2020-06-26T09:49:58Z</time>
      </trkpt>
      <trkpt lat="49.60947" lon="6.12815">
        <ele>301</ele>
        <time>2020-06-26T09:49:59Z</time>
      </trkpt>
      <trkpt lat="49.60947" lon="6.12815">
        <ele>301</ele>
        <time>2020-06-26T09:50:00Z</time>
      </trkpt>
      <trkpt lat="49.60948" lon="6.12816">
        <ele>301</ele>
        <time>2020-06-26T09:50:01Z</time>
      </trkpt>
      <trkpt lat="49.60947" lon="6.12817">
        <ele>301</ele>
        <time>2020-06-26T09:50:02Z</time>
      </trkpt>
      <trkpt lat="49.60947" lon="6.12818">
        <ele>300.9</ele>
        <time>2020-06-26T09:50:03Z</time>
      </trkpt>
      <trkpt lat="49.60947" lon="6.12819">
        <ele>300.9</ele>
        <time>2020-06-26T09:50:04Z</time>
      </trkpt>
      <trkpt lat="49.60947" lon="6.1282">
        <ele>300.8</ele>
        <time>2020-06-26T09:50:05Z</time>
      </trkpt>
      <trkpt lat="49.60948" lon="6.12821">
        <ele>300.8</ele>
        <time>2020-06-26T09:50:06Z</time>
      </trkpt>
      <trkpt lat="49.60947" lon="6.12823">
        <ele>300.8</ele>
        <time>2020-06-26T09:50:07Z</time>
      </trkpt>
      <trkpt lat="49.60948" lon="6.12823">
        <ele>300.7</ele>
        <time>2020-06-26T09:50:08Z</time>
      </trkpt>
      <trkpt lat="49.60947" lon="6.12823">
        <ele>300.7</ele>
        <time>2020-06-26T09:50:09Z</time>
      </trkpt>
      <trkpt lat="49.60947" lon="6.12823">
        <ele>300.7</ele>
        <time>2020-06-26T09:50:10Z</time>
      </trkpt>
      <trkpt lat="49.60947" lon="6.12823">
        <ele>300.7</ele>
        <time>2020-06-26T09:50:11Z</time>
      </trkpt>
      <trkpt lat="49.60949" lon="6.12823">
        <ele>300.7</ele>
        <time>2020-06-26T09:50:12Z</time>
      </trkpt>
      <trkpt lat="49.60949" lon="6.12822">
        <ele>300.7</ele>
        <time>2020-06-26T09:50:13Z</time>
      </trkpt>
      <trkpt lat="49.6095" lon="6.12821">
        <ele>300.6</ele>
        <time>2020-06-26T09:50:14Z</time>
      </trkpt>
      <trkpt lat="49.60952" lon="6.1282">
        <ele>300.5</ele>
        <time>2020-06-26T09:50:15Z</time>
      </trkpt>
      <trkpt lat="49.60952" lon="6.12821">
        <ele>300.5</ele>
        <time>2020-06-26T09:50:16Z</time>
      </trkpt>
      <trkpt lat="49.60953" lon="6.12821">
        <ele>300.4</ele>
        <time>2020-06-26T09:50:17Z</time>
      </trkpt>
      <trkpt lat="49.60955" lon="6.12822">
        <ele>300.4</ele>
        <time>2020-06-26T09:50:18Z</time>
      </trkpt>
      <trkpt lat="49.60956" lon="6.12823">
        <ele>300.4</ele>
        <time>2020-06-26T09:50:19Z</time>
      </trkpt>
      <trkpt lat="49.60958" lon="6.12823">
        <ele>300.4</ele>
        <time>2020-06-26T09:50:20Z</time>
      </trkpt>
      <trkpt lat="49.60959" lon="6.12821">
        <ele>300.4</ele>
        <time>2020-06-26T09:50:21Z</time>
      </trkpt>
      <trkpt lat="49.60962" lon="6.12818">
        <ele>300.5</ele>
        <time>2020-06-26T09:50:22Z</time>
      </trkpt>
      <trkpt lat="49.60962" lon="6.12817">
        <ele>300.5</ele>
        <time>2020-06-26T09:50:23Z</time>
      </trkpt>
      <trkpt lat="49.60965" lon="6.12814">
        <ele>300.5</ele>
        <time>2020-06-26T09:50:24Z</time>
      </trkpt>
      <trkpt lat="49.60966" lon="6.12814">
        <ele>300.5</ele>
        <time>2020-06-26T09:50:25Z</time>
      </trkpt>
      <trkpt lat="49.60969" lon="6.12814">
        <ele>300.6</ele>
        <time>2020-06-26T09:50:26Z</time>
      </trkpt>
      <trkpt lat="49.6097" lon="6.12814">
        <ele>300.6</ele>
        <time>2020-06-26T09:50:27Z</time>
      </trkpt>
      <trkpt lat="49.60973" lon="6.12813">
        <ele>300.6</ele>
        <time>2020-06-26T09:50:28Z</time>
      </trkpt>
      <trkpt lat="49.60974" lon="6.12813">
        <ele>300.6</ele>
        <time>2020-06-26T09:50:29Z</time>
      </trkpt>
      <trkpt lat="49.60977" lon="6.12813">
        <ele>300.6</ele>
        <time>2020-06-26T09:50:30Z</time>
      </trkpt>
      <trkpt lat="49.60978" lon="6.12814">
        <ele>300.6</ele>
        <time>2020-06-26T09:50:31Z</time>
      </trkpt>
      <trkpt lat="49.6098" lon="6.12815">
        <ele>300.6</ele>
        <time>2020-06-26T09:50:32Z</time>
      </trkpt>
      <trkpt lat="49.60981" lon="6.12816">
        <ele>300.7</ele>
        <time>2020-06-26T09:50:33Z</time>
      </trkpt>
      <trkpt lat="49.60981" lon="6.12817">
        <ele>300.7</ele>
        <time>2020-06-26T09:50:34Z</time>
      </trkpt>
      <trkpt lat="49.60982" lon="6.12817">
        <ele>300.7</ele>
        <time>2020-06-26T09:50:35Z</time>
      </trkpt>
      <trkpt lat="49.60982" lon="6.12817">
        <ele>300.7</ele>
        <time>2020-06-26T09:50:36Z</time>
      </trkpt>
      <trkpt lat="49.60982" lon="6.12817">
        <ele>300.7</ele>
        <time>2020-06-26T09:50:37Z</time>
      </trkpt>
      <trkpt lat="49.60983" lon="6.12817">
        <ele>300.7</ele>
        <time>2020-06-26T09:50:38Z</time>
      </trkpt>
      <trkpt lat="49.60984" lon="6.12817">
        <ele>300.7</ele>
        <time>2020-06-26T09:50:39Z</time>
      </trkpt>
      <trkpt lat="49.60985" lon="6.12817">
        <ele>300.7</ele>
        <time>2020-06-26T09:50:40Z</time>
      </trkpt>
      <trkpt lat="49.60986" lon="6.12817">
        <ele>300.7</ele>
        <time>2020-06-26T09:50:41Z</time>
      </trkpt>
      <trkpt lat="49.60987" lon="6.12816">
        <ele>300.7</ele>
        <time>2020-06-26T09:50:42Z</time>
      </trkpt>
      <trkpt lat="49.6099" lon="6.12816">
        <ele>300.7</ele>
        <time>2020-06-26T09:50:43Z</time>
      </trkpt>
      <trkpt lat="49.60991" lon="6.12816">
        <ele>300.7</ele>
        <time>2020-06-26T09:50:44Z</time>
      </trkpt>
      <trkpt lat="49.60992" lon="6.12816">
        <ele>300.7</ele>
        <time>2020-06-26T09:50:45Z</time>
      </trkpt>
      <trkpt lat="49.60994" lon="6.12815">
        <ele>300.8</ele>
        <time>2020-06-26T09:50:46Z</time>
      </trkpt>
      <trkpt lat="49.60995" lon="6.12815">
        <ele>300.8</ele>
        <time>2020-06-26T09:50:47Z</time>
      </trkpt>
      <trkpt lat="49.60996" lon="6.12815">
        <ele>300.8</ele>
        <time>2020-06-26T09:50:48Z</time>
      </trkpt>
      <trkpt lat="49.60997" lon="6.12815">
        <ele>300.9</ele>
        <time>2020-06-26T09:50:49Z</time>
      </trkpt>
      <trkpt lat="49.60998" lon="6.12815">
        <ele>300.9</ele>
        <time>2020-06-26T09:50:50Z</time>
      </trkpt>
      <trkpt lat="49.60999" lon="6.12815">
        <ele>300.9</ele>
        <time>2020-06-26T09:50:51Z</time>
      </trkpt>
      <trkpt lat="49.61" lon="6.12815">
        <ele>300.9</ele>
        <time>2020-06-26T09:50:52Z</time>
      </trkpt>
      <trkpt lat="49.61001" lon="6.12815">
        <ele>300.9</ele>
        <time>2020-06-26T09:50:53Z</time>
      </trkpt>
      <trkpt lat="49.61005" lon="6.12819">
        <ele>301</ele>
        <time>2020-06-26T09:50:54Z</time>
      </trkpt>
      <trkpt lat="49.61006" lon="6.1282">
        <ele>301.1</ele>
        <time>2020-06-26T09:50:55Z</time>
      </trkpt>
      <trkpt lat="49.61007" lon="6.12821">
        <ele>301.1</ele>
        <time>2020-06-26T09:50:56Z</time>
      </trkpt>
      <trkpt lat="49.61008" lon="6.12822">
        <ele>301.1</ele>
        <time>2020-06-26T09:50:57Z</time>
      </trkpt>
      <trkpt lat="49.61009" lon="6.12823">
        <ele>301.1</ele>
        <time>2020-06-26T09:50:58Z</time>
      </trkpt>
      <trkpt lat="49.61011" lon="6.12823">
        <ele>301.2</ele>
        <time>2020-06-26T09:50:59Z</time>
      </trkpt>
      <trkpt lat="49.61012" lon="6.12823">
        <ele>301.2</ele>
        <time>2020-06-26T09:51:00Z</time>
      </trkpt>
      <trkpt lat="49.61013" lon="6.12823">
        <ele>301.2</ele>
        <time>2020-06-26T09:51:01Z</time>
      </trkpt>
      <trkpt lat="49.61016" lon="6.12824">
        <ele>301.3</ele>
        <time>2020-06-26T09:51:02Z</time>
      </trkpt>
      <trkpt lat="49.61017" lon="6.12824">
        <ele>301.3</ele>
        <time>2020-06-26T09:51:03Z</time>
      </trkpt>
      <trkpt lat="49.61018" lon="6.12824">
        <ele>301.4</ele>
        <time>2020-06-26T09:51:04Z</time>
      </trkpt>
      <trkpt lat="49.6102" lon="6.12824">
        <ele>301.4</ele>
        <time>2020-06-26T09:51:05Z</time>
      </trkpt>
      <trkpt lat="49.61021" lon="6.12824">
        <ele>301.5</ele>
        <time>2020-06-26T09:51:06Z</time>
      </trkpt>
      <trkpt lat="49.61023" lon="6.12824">
        <ele>301.5</ele>
        <time>2020-06-26T09:51:07Z</time>
      </trkpt>
      <trkpt lat="49.61026" lon="6.12824">
        <ele>301.6</ele>
        <time>2020-06-26T09:51:08Z</time>
      </trkpt>
      <trkpt lat="49.61029" lon="6.12824">
        <ele>301.7</ele>
        <time>2020-06-26T09:51:09Z</time>
      </trkpt>
      <trkpt lat="49.6103" lon="6.12824">
        <ele>301.8</ele>
        <time>2020-06-26T09:51:10Z</time>
      </trkpt>
      <trkpt lat="49.61034" lon="6.12824">
        <ele>301.9</ele>
        <time>2020-06-26T09:51:11Z</time>
      </trkpt>
      <trkpt lat="49.61035" lon="6.12824">
        <ele>302</ele>
        <time>2020-06-26T09:51:12Z</time>
      </trkpt>
      <trkpt lat="49.61038" lon="6.12825">
        <ele>302.1</ele>
        <time>2020-06-26T09:51:13Z</time>
      </trkpt>
      <trkpt lat="49.6104" lon="6.12824">
        <ele>302.2</ele>
        <time>2020-06-26T09:51:14Z</time>
      </trkpt>
      <trkpt lat="49.61041" lon="6.12823">
        <ele>302.2</ele>
        <time>2020-06-26T09:51:15Z</time>
      </trkpt>
      <trkpt lat="49.61044" lon="6.12822">
        <ele>302.3</ele>
        <time>2020-06-26T09:51:16Z</time>
      </trkpt>
      <trkpt lat="49.61045" lon="6.12822">
        <ele>302.4</ele>
        <time>2020-06-26T09:51:17Z</time>
      </trkpt>
      <trkpt lat="49.61049" lon="6.12823">
        <ele>302.5</ele>
        <time>2020-06-26T09:51:18Z</time>
      </trkpt>
      <trkpt lat="49.61051" lon="6.12824">
        <ele>302.7</ele>
        <time>2020-06-26T09:51:19Z</time>
      </trkpt>
      <trkpt lat="49.61053" lon="6.12825">
        <ele>302.7</ele>
        <time>2020-06-26T09:51:20Z</time>
      </trkpt>
      <trkpt lat="49.61053" lon="6.12826">
        <ele>302.8</ele>
        <time>2020-06-26T09:51:21Z</time>
      </trkpt>
      <trkpt lat="49.61055" lon="6.12827">
        <ele>302.8</ele>
        <time>2020-06-26T09:51:22Z</time>
      </trkpt>
      <trkpt lat="49.61056" lon="6.12827">
        <ele>302.9</ele>
        <time>2020-06-26T09:51:23Z</time>
      </trkpt>
      <trkpt lat="49.61056" lon="6.12827">
        <ele>302.9</ele>
        <time>2020-06-26T09:51:24Z</time>
      </trkpt>
      <trkpt lat="49.61057" lon="6.12827">
        <ele>302.9</ele>
        <time>2020-06-26T09:51:25Z</time>
      </trkpt>
      <trkpt lat="49.61058" lon="6.12826">
        <ele>302.9</ele>
        <time>2020-06-26T09:51:26Z</time>
      </trkpt>
      <trkpt lat="49.61058" lon="6.12826">
        <ele>302.9</ele>
        <time>2020-06-26T09:51:27Z</time>
      </trkpt>
      <trkpt lat="49.61058" lon="6.12826">
        <ele>302.9</ele>
        <time>2020-06-26T09:51:28Z</time>
      </trkpt>
      <trkpt lat="49.61059" lon="6.12826">
        <ele>303</ele>
        <time>2020-06-26T09:51:29Z</time>
      </trkpt>
      <trkpt lat="49.61062" lon="6.12825">
        <ele>303.1</ele>
        <time>2020-06-26T09:51:30Z</time>
      </trkpt>
      <trkpt lat="49.61063" lon="6.12825">
        <ele>303.1</ele>
        <time>2020-06-26T09:51:31Z</time>
      </trkpt>
      <trkpt lat="49.61067" lon="6.12825">
        <ele>303.3</ele>
        <time>2020-06-26T09:51:32Z</time>
      </trkpt>
      <trkpt lat="49.61068" lon="6.12825">
        <ele>303.3</ele>
        <time>2020-06-26T09:51:33Z</time>
      </trkpt>
      <trkpt lat="49.61072" lon="6.12825">
        <ele>303.5</ele>
        <time>2020-06-26T09:51:34Z</time>
      </trkpt>
      <trkpt lat="49.61073" lon="6.12825">
        <ele>303.5</ele>
        <time>2020-06-26T09:51:35Z</time>
      </trkpt>
      <trkpt lat="49.61076" lon="6.12825">
        <ele>303.6</ele>
        <time>2020-06-26T09:51:36Z</time>
      </trkpt>
      <trkpt lat="49.6108" lon="6.12825">
        <ele>303.8</ele>
        <time>2020-06-26T09:51:37Z</time>
      </trkpt>
      <trkpt lat="49.61082" lon="6.12824">
        <ele>303.9</ele>
        <time>2020-06-26T09:51:38Z</time>
      </trkpt>
      <trkpt lat="49.61086" lon="6.12824">
        <ele>304.1</ele>
        <time>2020-06-26T09:51:39Z</time>
      </trkpt>
      <trkpt lat="49.6109" lon="6.12824">
        <ele>304.3</ele>
        <time>2020-06-26T09:51:40Z</time>
      </trkpt>
      <trkpt lat="49.61093" lon="6.12824">
        <ele>304.4</ele>
        <time>2020-06-26T09:51:41Z</time>
      </trkpt>
      <trkpt lat="49.61097" lon="6.12823">
        <ele>304.6</ele>
        <time>2020-06-26T09:51:42Z</time>
      </trkpt>
      <trkpt lat="49.61099" lon="6.12823">
        <ele>304.7</ele>
        <time>2020-06-26T09:51:43Z</time>
      </trkpt>
      <trkpt lat="49.61102" lon="6.12822">
        <ele>304.8</ele>
        <time>2020-06-26T09:51:44Z</time>
      </trkpt>
      <trkpt lat="49.61103" lon="6.12822">
        <ele>304.9</ele>
        <time>2020-06-26T09:51:45Z</time>
      </trkpt>
      <trkpt lat="49.61105" lon="6.12822">
        <ele>305</ele>
        <time>2020-06-26T09:51:46Z</time>
      </trkpt>
      <trkpt lat="49.61107" lon="6.12821">
        <ele>305.1</ele>
        <time>2020-06-26T09:51:47Z</time>
      </trkpt>
      <trkpt lat="49.6111" lon="6.12819">
        <ele>305.2</ele>
        <time>2020-06-26T09:51:48Z</time>
      </trkpt>
      <trkpt lat="49.61115" lon="6.12822">
        <ele>305.5</ele>
        <time>2020-06-26T09:51:49Z</time>
      </trkpt>
      <trkpt lat="49.61119" lon="6.12825">
        <ele>307</ele>
        <time>2020-06-26T09:51:50Z</time>
      </trkpt>
      <trkpt lat="49.61121" lon="6.12828">
        <ele>307.1</ele>
        <time>2020-06-26T09:51:51Z</time>
      </trkpt>
      <trkpt lat="49.61123" lon="6.12832">
        <ele>307.2</ele>
        <time>2020-06-26T09:51:52Z</time>
      </trkpt>
      <trkpt lat="49.61123" lon="6.12834">
        <ele>307.3</ele>
        <time>2020-06-26T09:51:53Z</time>
      </trkpt>
      <trkpt lat="49.61124" lon="6.12838">
        <ele>307.4</ele>
        <time>2020-06-26T09:51:54Z</time>
      </trkpt>
      <trkpt lat="49.61124" lon="6.1284">
        <ele>307.4</ele>
        <time>2020-06-26T09:51:55Z</time>
      </trkpt>
      <trkpt lat="49.61124" lon="6.12843">
        <ele>307.6</ele>
        <time>2020-06-26T09:51:56Z</time>
      </trkpt>
      <trkpt lat="49.61124" lon="6.12845">
        <ele>307.6</ele>
        <time>2020-06-26T09:51:57Z</time>
      </trkpt>
      <trkpt lat="49.61124" lon="6.12846">
        <ele>307.7</ele>
        <time>2020-06-26T09:51:58Z</time>
      </trkpt>
      <trkpt lat="49.61124" lon="6.12849">
        <ele>307.7</ele>
        <time>2020-06-26T09:51:59Z</time>
      </trkpt>
      <trkpt lat="49.61125" lon="6.1285">
        <ele>307.8</ele>
        <time>2020-06-26T09:52:00Z</time>
      </trkpt>
      <trkpt lat="49.61126" lon="6.1285">
        <ele>307.8</ele>
        <time>2020-06-26T09:52:01Z</time>
      </trkpt>
      <trkpt lat="49.61127" lon="6.12854">
        <ele>308</ele>
        <time>2020-06-26T09:52:02Z</time>
      </trkpt>
      <trkpt lat="49.61127" lon="6.12856">
        <ele>308</ele>
        <time>2020-06-26T09:52:03Z</time>
      </trkpt>
      <trkpt lat="49.61129" lon="6.12862">
        <ele>308.2</ele>
        <time>2020-06-26T09:52:04Z</time>
      </trkpt>
      <trkpt lat="49.6113" lon="6.12868">
        <ele>308.2</ele>
        <time>2020-06-26T09:52:05Z</time>
      </trkpt>
      <trkpt lat="49.61131" lon="6.12875">
        <ele>308.2</ele>
        <time>2020-06-26T09:52:06Z</time>
      </trkpt>
      <trkpt lat="49.61133" lon="6.12881">
        <ele>308.2</ele>
        <time>2020-06-26T09:52:07Z</time>
      </trkpt>
      <trkpt lat="49.61133" lon="6.12882">
        <ele>308.2</ele>
        <time>2020-06-26T09:52:08Z</time>
      </trkpt>
      <trkpt lat="49.61134" lon="6.12879">
        <ele>308.2</ele>
        <time>2020-06-26T09:52:09Z</time>
      </trkpt>
      <trkpt lat="49.61135" lon="6.1288">
        <ele>308.2</ele>
        <time>2020-06-26T09:52:10Z</time>
      </trkpt>
      <trkpt lat="49.61135" lon="6.12881">
        <ele>308.2</ele>
        <time>2020-06-26T09:52:11Z</time>
      </trkpt>
      <trkpt lat="49.61135" lon="6.12881">
        <ele>308.2</ele>
        <time>2020-06-26T09:52:12Z</time>
      </trkpt>
      <trkpt lat="49.61136" lon="6.12881">
        <ele>308.2</ele>
        <time>2020-06-26T09:52:13Z</time>
      </trkpt>
      <trkpt lat="49.61135" lon="6.12882">
        <ele>308.2</ele>
        <time>2020-06-26T09:52:14Z</time>
      </trkpt>
      <trkpt lat="49.61135" lon="6.12885">
        <ele>308.2</ele>
        <time>2020-06-26T09:52:15Z</time>
      </trkpt>
      <trkpt lat="49.61135" lon="6.12887">
        <ele>308.2</ele>
        <time>2020-06-26T09:52:16Z</time>
      </trkpt>
      <trkpt lat="49.61134" lon="6.12892">
        <ele>308.2</ele>
        <time>2020-06-26T09:52:17Z</time>
      </trkpt>
      <trkpt lat="49.61133" lon="6.12894">
        <ele>308.2</ele>
        <time>2020-06-26T09:52:18Z</time>
      </trkpt>
      <trkpt lat="49.61133" lon="6.129">
        <ele>308.2</ele>
        <time>2020-06-26T09:52:19Z</time>
      </trkpt>
      <trkpt lat="49.61133" lon="6.12902">
        <ele>308.2</ele>
        <time>2020-06-26T09:52:20Z</time>
      </trkpt>
      <trkpt lat="49.61133" lon="6.12908">
        <ele>308.2</ele>
        <time>2020-06-26T09:52:21Z</time>
      </trkpt>
      <trkpt lat="49.61133" lon="6.1291">
        <ele>308.3</ele>
        <time>2020-06-26T09:52:22Z</time>
      </trkpt>
      <trkpt lat="49.61133" lon="6.12915">
        <ele>308.3</ele>
        <time>2020-06-26T09:52:23Z</time>
      </trkpt>
      <trkpt lat="49.61133" lon="6.12916">
        <ele>308.3</ele>
        <time>2020-06-26T09:52:24Z</time>
      </trkpt>
      <trkpt lat="49.61134" lon="6.12923">
        <ele>308.3</ele>
        <time>2020-06-26T09:52:25Z</time>
      </trkpt>
      <trkpt lat="49.61134" lon="6.12926">
        <ele>308.4</ele>
        <time>2020-06-26T09:52:26Z</time>
      </trkpt>
      <trkpt lat="49.61135" lon="6.12931">
        <ele>308.4</ele>
        <time>2020-06-26T09:52:27Z</time>
      </trkpt>
      <trkpt lat="49.61136" lon="6.12937">
        <ele>308.4</ele>
        <time>2020-06-26T09:52:28Z</time>
      </trkpt>
      <trkpt lat="49.61136" lon="6.12939">
        <ele>308.5</ele>
        <time>2020-06-26T09:52:29Z</time>
      </trkpt>
      <trkpt lat="49.61137" lon="6.12943">
        <ele>308.5</ele>
        <time>2020-06-26T09:52:30Z</time>
      </trkpt>
      <trkpt lat="49.61137" lon="6.12948">
        <ele>308.5</ele>
        <time>2020-06-26T09:52:31Z</time>
      </trkpt>
      <trkpt lat="49.61138" lon="6.12949">
        <ele>308.5</ele>
        <time>2020-06-26T09:52:32Z</time>
      </trkpt>
      <trkpt lat="49.61138" lon="6.1295">
        <ele>308.5</ele>
        <time>2020-06-26T09:52:33Z</time>
      </trkpt>
      <trkpt lat="49.61138" lon="6.12951">
        <ele>308.6</ele>
        <time>2020-06-26T09:52:34Z</time>
      </trkpt>
      <trkpt lat="49.61138" lon="6.12953">
        <ele>308.6</ele>
        <time>2020-06-26T09:52:35Z</time>
      </trkpt>
      <trkpt lat="49.61138" lon="6.12955">
        <ele>308.6</ele>
        <time>2020-06-26T09:52:36Z</time>
      </trkpt>
      <trkpt lat="49.61138" lon="6.12955">
        <ele>308.6</ele>
        <time>2020-06-26T09:52:37Z</time>
      </trkpt>
      <trkpt lat="49.61138" lon="6.12956">
        <ele>308.6</ele>
        <time>2020-06-26T09:52:38Z</time>
      </trkpt>
      <trkpt lat="49.61138" lon="6.12956">
        <ele>308.6</ele>
        <time>2020-06-26T09:52:39Z</time>
      </trkpt>
      <trkpt lat="49.61138" lon="6.12956">
        <ele>308.6</ele>
        <time>2020-06-26T09:52:40Z</time>
      </trkpt>
      <trkpt lat="49.61137" lon="6.12958">
        <ele>308.6</ele>
        <time>2020-06-26T09:52:41Z</time>
      </trkpt>
      <trkpt lat="49.61137" lon="6.1296">
        <ele>308.6</ele>
        <time>2020-06-26T09:52:42Z</time>
      </trkpt>
      <trkpt lat="49.61136" lon="6.12962">
        <ele>308.6</ele>
        <time>2020-06-26T09:52:43Z</time>
      </trkpt>
      <trkpt lat="49.61135" lon="6.12964">
        <ele>307.8</ele>
        <time>2020-06-26T09:52:44Z</time>
      </trkpt>
      <trkpt lat="49.61134" lon="6.12966">
        <ele>307.8</ele>
        <time>2020-06-26T09:52:45Z</time>
      </trkpt>
      <trkpt lat="49.61134" lon="6.12969">
        <ele>307.8</ele>
        <time>2020-06-26T09:52:46Z</time>
      </trkpt>
      <trkpt lat="49.61134" lon="6.1297">
        <ele>307.7</ele>
        <time>2020-06-26T09:52:47Z</time>
      </trkpt>
      <trkpt lat="49.61132" lon="6.12972">
        <ele>307.7</ele>
        <time>2020-06-26T09:52:48Z</time>
      </trkpt>
      <trkpt lat="49.61131" lon="6.12974">
        <ele>307.7</ele>
        <time>2020-06-26T09:52:49Z</time>
      </trkpt>
      <trkpt lat="49.6113" lon="6.12974">
        <ele>307.7</ele>
        <time>2020-06-26T09:52:50Z</time>
      </trkpt>
      <trkpt lat="49.61131" lon="6.12974">
        <ele>307.7</ele>
        <time>2020-06-26T09:52:51Z</time>
      </trkpt>
      <trkpt lat="49.6113" lon="6.12974">
        <ele>307.7</ele>
        <time>2020-06-26T09:52:52Z</time>
      </trkpt>
      <trkpt lat="49.61131" lon="6.12974">
        <ele>307.6</ele>
        <time>2020-06-26T09:52:53Z</time>
      </trkpt>
      <trkpt lat="49.61131" lon="6.12974">
        <ele>307.6</ele>
        <time>2020-06-26T09:52:54Z</time>
      </trkpt>
      <trkpt lat="49.61131" lon="6.12974">
        <ele>307.6</ele>
        <time>2020-06-26T09:52:55Z</time>
      </trkpt>
      <trkpt lat="49.61131" lon="6.12974">
        <ele>307.6</ele>
        <time>2020-06-26T09:52:56Z</time>
      </trkpt>
      <trkpt lat="49.61131" lon="6.12974">
        <ele>307.6</ele>
        <time>2020-06-26T09:52:57Z</time>
      </trkpt>
      <trkpt lat="49.61131" lon="6.12974">
        <ele>307.6</ele>
        <time>2020-06-26T09:52:58Z</time>
      </trkpt>
      <trkpt lat="49.61131" lon="6.12974">
        <ele>307.6</ele>
        <time>2020-06-26T09:52:59Z</time>
      </trkpt>
      <trkpt lat="49.6113" lon="6.12974">
        <ele>307.6</ele>
        <time>2020-06-26T09:53:00Z</time>
      </trkpt>
      <trkpt lat="49.61131" lon="6.12974">
        <ele>307.6</ele>
        <time>2020-06-26T09:53:01Z</time>
      </trkpt>
      <trkpt lat="49.61131" lon="6.12974">
        <ele>307.6</ele>
        <time>2020-06-26T09:53:02Z</time>
      </trkpt>
      <trkpt lat="49.61131" lon="6.12974">
        <ele>307.6</ele>
        <time>2020-06-26T09:53:03Z</time>
      </trkpt>
      <trkpt lat="49.61131" lon="6.12974">
        <ele>307.6</ele>
        <time>2020-06-26T09:53:04Z</time>
      </trkpt>
      <trkpt lat="49.61131" lon="6.12974">
        <ele>307.6</ele>
        <time>2020-06-26T09:53:05Z</time>
      </trkpt>
      <trkpt lat="49.6113" lon="6.12968">
        <ele>307.5</ele>
        <time>2020-06-26T09:54:41Z</time>
      </trkpt>
      <trkpt lat="49.6113" lon="6.12967">
        <ele>307.5</ele>
        <time>2020-06-26T09:54:42Z</time>
      </trkpt>
      <trkpt lat="49.61129" lon="6.12966">
        <ele>307.5</ele>
        <time>2020-06-26T09:54:43Z</time>
      </trkpt>
      <trkpt lat="49.61129" lon="6.12965">
        <ele>307.5</ele>
        <time>2020-06-26T09:54:44Z</time>
      </trkpt>
      <trkpt lat="49.61128" lon="6.12964">
        <ele>307.5</ele>
        <time>2020-06-26T09:54:45Z</time>
      </trkpt>
      <trkpt lat="49.61128" lon="6.12963">
        <ele>307.5</ele>
        <time>2020-06-26T09:54:46Z</time>
      </trkpt>
      <trkpt lat="49.61127" lon="6.12962">
        <ele>307.5</ele>
        <time>2020-06-26T09:54:47Z</time>
      </trkpt>
      <trkpt lat="49.61127" lon="6.12962">
        <ele>307.5</ele>
        <time>2020-06-26T09:54:48Z</time>
      </trkpt>
      <trkpt lat="49.61126" lon="6.12961">
        <ele>307.5</ele>
        <time>2020-06-26T09:54:49Z</time>
      </trkpt>
      <trkpt lat="49.61126" lon="6.12961">
        <ele>307.5</ele>
        <time>2020-06-26T09:54:50Z</time>
      </trkpt>
      <trkpt lat="49.61125" lon="6.12961">
        <ele>307.4</ele>
        <time>2020-06-26T09:54:51Z</time>
      </trkpt>
      <trkpt lat="49.61125" lon="6.12962">
        <ele>307.4</ele>
        <time>2020-06-26T09:54:52Z</time>
      </trkpt>
      <trkpt lat="49.61125" lon="6.12962">
        <ele>307.4</ele>
        <time>2020-06-26T09:54:53Z</time>
      </trkpt>
      <trkpt lat="49.61125" lon="6.12961">
        <ele>307.4</ele>
        <time>2020-06-26T09:54:54Z</time>
      </trkpt>
      <trkpt lat="49.61125" lon="6.1296">
        <ele>307.4</ele>
        <time>2020-06-26T09:54:55Z</time>
      </trkpt>
      <trkpt lat="49.61125" lon="6.12959">
        <ele>307.4</ele>
        <time>2020-06-26T09:54:56Z</time>
      </trkpt>
      <trkpt lat="49.61124" lon="6.12959">
        <ele>307.4</ele>
        <time>2020-06-26T09:54:57Z</time>
      </trkpt>
      <trkpt lat="49.61125" lon="6.12957">
        <ele>307.4</ele>
        <time>2020-06-26T09:54:58Z</time>
      </trkpt>
      <trkpt lat="49.61125" lon="6.12957">
        <ele>307.4</ele>
        <time>2020-06-26T09:54:59Z</time>
      </trkpt>
      <trkpt lat="49.61125" lon="6.12957">
        <ele>307.4</ele>
        <time>2020-06-26T09:55:00Z</time>
      </trkpt>
      <trkpt lat="49.61125" lon="6.12958">
        <ele>307.3</ele>
        <time>2020-06-26T09:55:01Z</time>
      </trkpt>
      <trkpt lat="49.61126" lon="6.12959">
        <ele>307.3</ele>
        <time>2020-06-26T09:55:02Z</time>
      </trkpt>
      <trkpt lat="49.61126" lon="6.12959">
        <ele>307.3</ele>
        <time>2020-06-26T09:55:03Z</time>
      </trkpt>
      <trkpt lat="49.61126" lon="6.1296">
        <ele>307.3</ele>
        <time>2020-06-26T09:55:04Z</time>
      </trkpt>
      <trkpt lat="49.61127" lon="6.12961">
        <ele>307.3</ele>
        <time>2020-06-26T09:55:05Z</time>
      </trkpt>
      <trkpt lat="49.61127" lon="6.12961">
        <ele>307.3</ele>
        <time>2020-06-26T09:55:06Z</time>
      </trkpt>
      <trkpt lat="49.61127" lon="6.12962">
        <ele>307.3</ele>
        <time>2020-06-26T09:55:07Z</time>
      </trkpt>
      <trkpt lat="49.61127" lon="6.12961">
        <ele>307.3</ele>
        <time>2020-06-26T09:55:08Z</time>
      </trkpt>
      <trkpt lat="49.61126" lon="6.1296">
        <ele>307.3</ele>
        <time>2020-06-26T09:55:09Z</time>
      </trkpt>
      <trkpt lat="49.61126" lon="6.12959">
        <ele>307.3</ele>
        <time>2020-06-26T09:55:10Z</time>
      </trkpt>
      <trkpt lat="49.61125" lon="6.12958">
        <ele>307.2</ele>
        <time>2020-06-26T09:55:11Z</time>
      </trkpt>
      <trkpt lat="49.61125" lon="6.12956">
        <ele>307.2</ele>
        <time>2020-06-26T09:55:12Z</time>
      </trkpt>
      <trkpt lat="49.61124" lon="6.12956">
        <ele>307.2</ele>
        <time>2020-06-26T09:55:13Z</time>
      </trkpt>
      <trkpt lat="49.61124" lon="6.12956">
        <ele>307.2</ele>
        <time>2020-06-26T09:55:14Z</time>
      </trkpt>
      <trkpt lat="49.61123" lon="6.12957">
        <ele>307.2</ele>
        <time>2020-06-26T09:55:15Z</time>
      </trkpt>
      <trkpt lat="49.61123" lon="6.12957">
        <ele>307.2</ele>
        <time>2020-06-26T09:55:16Z</time>
      </trkpt>
      <trkpt lat="49.61123" lon="6.12957">
        <ele>307.2</ele>
        <time>2020-06-26T09:55:17Z</time>
      </trkpt>
      <trkpt lat="49.61121" lon="6.12955">
        <ele>307.2</ele>
        <time>2020-06-26T09:55:18Z</time>
      </trkpt>
      <trkpt lat="49.61121" lon="6.12954">
        <ele>307.2</ele>
        <time>2020-06-26T09:55:19Z</time>
      </trkpt>
      <trkpt lat="49.6112" lon="6.12954">
        <ele>307.2</ele>
        <time>2020-06-26T09:55:20Z</time>
      </trkpt>
      <trkpt lat="49.61119" lon="6.12953">
        <ele>307.2</ele>
        <time>2020-06-26T09:55:21Z</time>
      </trkpt>
      <trkpt lat="49.61118" lon="6.12952">
        <ele>306.6</ele>
        <time>2020-06-26T09:55:22Z</time>
      </trkpt>
      <trkpt lat="49.61118" lon="6.12951">
        <ele>306.6</ele>
        <time>2020-06-26T09:55:23Z</time>
      </trkpt>
      <trkpt lat="49.61118" lon="6.1295">
        <ele>306.5</ele>
        <time>2020-06-26T09:55:24Z</time>
      </trkpt>
      <trkpt lat="49.61119" lon="6.1295">
        <ele>306.5</ele>
        <time>2020-06-26T09:55:25Z</time>
      </trkpt>
      <trkpt lat="49.61118" lon="6.12949">
        <ele>306.5</ele>
        <time>2020-06-26T09:55:26Z</time>
      </trkpt>
      <trkpt lat="49.61118" lon="6.12947">
        <ele>306.5</ele>
        <time>2020-06-26T09:55:27Z</time>
      </trkpt>
      <trkpt lat="49.61119" lon="6.12949">
        <ele>306.4</ele>
        <time>2020-06-26T09:55:28Z</time>
      </trkpt>
      <trkpt lat="49.61119" lon="6.12947">
        <ele>306.4</ele>
        <time>2020-06-26T09:55:29Z</time>
      </trkpt>
      <trkpt lat="49.61119" lon="6.12947">
        <ele>306.4</ele>
        <time>2020-06-26T09:55:30Z</time>
      </trkpt>
      <trkpt lat="49.6112" lon="6.12945">
        <ele>306.4</ele>
        <time>2020-06-26T09:55:31Z</time>
      </trkpt>
      <trkpt lat="49.6112" lon="6.12939">
        <ele>306.3</ele>
        <time>2020-06-26T09:55:32Z</time>
      </trkpt>
      <trkpt lat="49.6112" lon="6.12937">
        <ele>306.3</ele>
        <time>2020-06-26T09:55:33Z</time>
      </trkpt>
      <trkpt lat="49.61119" lon="6.12936">
        <ele>306.2</ele>
        <time>2020-06-26T09:55:34Z</time>
      </trkpt>
      <trkpt lat="49.61117" lon="6.12935">
        <ele>306.2</ele>
        <time>2020-06-26T09:55:35Z</time>
      </trkpt>
      <trkpt lat="49.61115" lon="6.12935">
        <ele>306.2</ele>
        <time>2020-06-26T09:55:36Z</time>
      </trkpt>
      <trkpt lat="49.61114" lon="6.12935">
        <ele>306.3</ele>
        <time>2020-06-26T09:55:37Z</time>
      </trkpt>
      <trkpt lat="49.61113" lon="6.12935">
        <ele>306.3</ele>
        <time>2020-06-26T09:55:38Z</time>
      </trkpt>
      <trkpt lat="49.61111" lon="6.12934">
        <ele>306.3</ele>
        <time>2020-06-26T09:55:39Z</time>
      </trkpt>
      <trkpt lat="49.61111" lon="6.12934">
        <ele>306.3</ele>
        <time>2020-06-26T09:55:40Z</time>
      </trkpt>
      <trkpt lat="49.61109" lon="6.12933">
        <ele>306.3</ele>
        <time>2020-06-26T09:55:41Z</time>
      </trkpt>
      <trkpt lat="49.61108" lon="6.12933">
        <ele>306.3</ele>
        <time>2020-06-26T09:55:42Z</time>
      </trkpt>
      <trkpt lat="49.61107" lon="6.12933">
        <ele>306.3</ele>
        <time>2020-06-26T09:55:43Z</time>
      </trkpt>
      <trkpt lat="49.61104" lon="6.12936">
        <ele>306.3</ele>
        <time>2020-06-26T09:55:44Z</time>
      </trkpt>
      <trkpt lat="49.61104" lon="6.12936">
        <ele>306.4</ele>
        <time>2020-06-26T09:55:45Z</time>
      </trkpt>
      <trkpt lat="49.61102" lon="6.12938">
        <ele>306.4</ele>
        <time>2020-06-26T09:55:46Z</time>
      </trkpt>
      <trkpt lat="49.61101" lon="6.12939">
        <ele>306.4</ele>
        <time>2020-06-26T09:55:47Z</time>
      </trkpt>
      <trkpt lat="49.611" lon="6.12941">
        <ele>306.4</ele>
        <time>2020-06-26T09:55:48Z</time>
      </trkpt>
      <trkpt lat="49.61101" lon="6.12946">
        <ele>306.4</ele>
        <time>2020-06-26T09:55:49Z</time>
      </trkpt>
      <trkpt lat="49.61103" lon="6.12952">
        <ele>306.5</ele>
        <time>2020-06-26T09:55:50Z</time>
      </trkpt>
      <trkpt lat="49.61106" lon="6.12963">
        <ele>306.8</ele>
        <time>2020-06-26T09:55:51Z</time>
      </trkpt>
      <trkpt lat="49.61108" lon="6.12971">
        <ele>306.9</ele>
        <time>2020-06-26T09:55:52Z</time>
      </trkpt>
      <trkpt lat="49.6111" lon="6.12976">
        <ele>307</ele>
        <time>2020-06-26T09:55:53Z</time>
      </trkpt>
      <trkpt lat="49.61111" lon="6.12979">
        <ele>307</ele>
        <time>2020-06-26T09:55:54Z</time>
      </trkpt>
      <trkpt lat="49.61113" lon="6.12983">
        <ele>307</ele>
        <time>2020-06-26T09:55:55Z</time>
      </trkpt>
      <trkpt lat="49.61113" lon="6.12984">
        <ele>307.1</ele>
        <time>2020-06-26T09:55:56Z</time>
      </trkpt>
      <trkpt lat="49.61114" lon="6.12985">
        <ele>307.1</ele>
        <time>2020-06-26T09:55:57Z</time>
      </trkpt>
      <trkpt lat="49.61115" lon="6.12984">
        <ele>307.1</ele>
        <time>2020-06-26T09:55:58Z</time>
      </trkpt>
      <trkpt lat="49.61115" lon="6.12984">
        <ele>307.1</ele>
        <time>2020-06-26T09:55:59Z</time>
      </trkpt>
      <trkpt lat="49.61116" lon="6.12984">
        <ele>307.1</ele>
        <time>2020-06-26T09:56:00Z</time>
      </trkpt>
      <trkpt lat="49.61116" lon="6.12984">
        <ele>307.1</ele>
        <time>2020-06-26T09:56:01Z</time>
      </trkpt>
      <trkpt lat="49.61117" lon="6.12985">
        <ele>307.1</ele>
        <time>2020-06-26T09:56:02Z</time>
      </trkpt>
      <trkpt lat="49.61117" lon="6.12985">
        <ele>307.1</ele>
        <time>2020-06-26T09:56:03Z</time>
      </trkpt>
      <trkpt lat="49.61117" lon="6.12985">
        <ele>307.1</ele>
        <time>2020-06-26T09:56:04Z</time>
      </trkpt>
      <trkpt lat="49.61117" lon="6.12986">
        <ele>307.1</ele>
        <time>2020-06-26T09:56:05Z</time>
      </trkpt>
      <trkpt lat="49.61117" lon="6.12986">
        <ele>307.1</ele>
        <time>2020-06-26T09:56:06Z</time>
      </trkpt>
      <trkpt lat="49.61117" lon="6.12984">
        <ele>307.2</ele>
        <time>2020-06-26T09:56:07Z</time>
      </trkpt>
      <trkpt lat="49.61117" lon="6.12984">
        <ele>307.2</ele>
        <time>2020-06-26T09:56:08Z</time>
      </trkpt>
      <trkpt lat="49.61117" lon="6.12994">
        <ele>307.3</ele>
        <time>2020-06-26T09:56:14Z</time>
      </trkpt>
      <trkpt lat="49.61117" lon="6.12996">
        <ele>307.4</ele>
        <time>2020-06-26T09:56:15Z</time>
      </trkpt>
      <trkpt lat="49.61117" lon="6.12997">
        <ele>307.4</ele>
        <time>2020-06-26T09:56:16Z</time>
      </trkpt>
      <trkpt lat="49.61118" lon="6.12999">
        <ele>307.4</ele>
        <time>2020-06-26T09:56:17Z</time>
      </trkpt>
      <trkpt lat="49.61118" lon="6.13001">
        <ele>307.4</ele>
        <time>2020-06-26T09:56:18Z</time>
      </trkpt>
      <trkpt lat="49.6112" lon="6.13006">
        <ele>307.5</ele>
        <time>2020-06-26T09:56:19Z</time>
      </trkpt>
      <trkpt lat="49.6112" lon="6.13008">
        <ele>307.6</ele>
        <time>2020-06-26T09:56:20Z</time>
      </trkpt>
      <trkpt lat="49.61121" lon="6.13014">
        <ele>307.7</ele>
        <time>2020-06-26T09:56:21Z</time>
      </trkpt>
      <trkpt lat="49.61121" lon="6.1302">
        <ele>307.8</ele>
        <time>2020-06-26T09:56:22Z</time>
      </trkpt>
      <trkpt lat="49.61121" lon="6.13025">
        <ele>308</ele>
        <time>2020-06-26T09:56:23Z</time>
      </trkpt>
      <trkpt lat="49.61121" lon="6.13029">
        <ele>308</ele>
        <time>2020-06-26T09:56:24Z</time>
      </trkpt>
      <trkpt lat="49.61121" lon="6.13032">
        <ele>308</ele>
        <time>2020-06-26T09:56:25Z</time>
      </trkpt>
      <trkpt lat="49.61121" lon="6.13035">
        <ele>308</ele>
        <time>2020-06-26T09:56:26Z</time>
      </trkpt>
      <trkpt lat="49.61122" lon="6.13041">
        <ele>308.1</ele>
        <time>2020-06-26T09:56:27Z</time>
      </trkpt>
      <trkpt lat="49.61122" lon="6.13043">
        <ele>308.1</ele>
        <time>2020-06-26T09:56:28Z</time>
      </trkpt>
      <trkpt lat="49.61122" lon="6.13049">
        <ele>308.2</ele>
        <time>2020-06-26T09:56:29Z</time>
      </trkpt>
      <trkpt lat="49.61122" lon="6.13051">
        <ele>308.2</ele>
        <time>2020-06-26T09:56:30Z</time>
      </trkpt>
      <trkpt lat="49.61122" lon="6.13057">
        <ele>308.3</ele>
        <time>2020-06-26T09:56:31Z</time>
      </trkpt>
      <trkpt lat="49.61122" lon="6.13059">
        <ele>308.3</ele>
        <time>2020-06-26T09:56:32Z</time>
      </trkpt>
      <trkpt lat="49.61122" lon="6.13064">
        <ele>308.4</ele>
        <time>2020-06-26T09:56:33Z</time>
      </trkpt>
      <trkpt lat="49.61124" lon="6.13069">
        <ele>308.5</ele>
        <time>2020-06-26T09:56:34Z</time>
      </trkpt>
      <trkpt lat="49.61124" lon="6.13072">
        <ele>308.5</ele>
        <time>2020-06-26T09:56:35Z</time>
      </trkpt>
      <trkpt lat="49.61124" lon="6.13076">
        <ele>308.6</ele>
        <time>2020-06-26T09:56:36Z</time>
      </trkpt>
      <trkpt lat="49.61125" lon="6.1308">
        <ele>308.6</ele>
        <time>2020-06-26T09:56:37Z</time>
      </trkpt>
      <trkpt lat="49.61125" lon="6.13087">
        <ele>308.7</ele>
        <time>2020-06-26T09:56:38Z</time>
      </trkpt>
      <trkpt lat="49.61125" lon="6.13089">
        <ele>308.7</ele>
        <time>2020-06-26T09:56:39Z</time>
      </trkpt>
      <trkpt lat="49.61125" lon="6.13093">
        <ele>308.8</ele>
        <time>2020-06-26T09:56:40Z</time>
      </trkpt>
      <trkpt lat="49.61125" lon="6.13099">
        <ele>308.9</ele>
        <time>2020-06-26T09:56:41Z</time>
      </trkpt>
      <trkpt lat="49.61126" lon="6.13104">
        <ele>308.9</ele>
        <time>2020-06-26T09:56:42Z</time>
      </trkpt>
      <trkpt lat="49.61126" lon="6.13105">
        <ele>308.9</ele>
        <time>2020-06-26T09:56:43Z</time>
      </trkpt>
      <trkpt lat="49.61127" lon="6.1311">
        <ele>309</ele>
        <time>2020-06-26T09:56:44Z</time>
      </trkpt>
      <trkpt lat="49.61127" lon="6.13112">
        <ele>309</ele>
        <time>2020-06-26T09:56:45Z</time>
      </trkpt>
      <trkpt lat="49.61128" lon="6.13117">
        <ele>309.1</ele>
        <time>2020-06-26T09:56:46Z</time>
      </trkpt>
      <trkpt lat="49.61128" lon="6.13119">
        <ele>309.1</ele>
        <time>2020-06-26T09:56:47Z</time>
      </trkpt>
      <trkpt lat="49.61128" lon="6.13125">
        <ele>309.1</ele>
        <time>2020-06-26T09:56:48Z</time>
      </trkpt>
      <trkpt lat="49.61128" lon="6.13127">
        <ele>309.1</ele>
        <time>2020-06-26T09:56:49Z</time>
      </trkpt>
      <trkpt lat="49.61128" lon="6.13132">
        <ele>309.2</ele>
        <time>2020-06-26T09:56:50Z</time>
      </trkpt>
      <trkpt lat="49.61128" lon="6.13133">
        <ele>309.2</ele>
        <time>2020-06-26T09:56:51Z</time>
      </trkpt>
      <trkpt lat="49.6113" lon="6.13138">
        <ele>309.2</ele>
        <time>2020-06-26T09:56:52Z</time>
      </trkpt>
      <trkpt lat="49.6113" lon="6.13139">
        <ele>309.2</ele>
        <time>2020-06-26T09:56:53Z</time>
      </trkpt>
      <trkpt lat="49.6113" lon="6.13142">
        <ele>309.3</ele>
        <time>2020-06-26T09:56:54Z</time>
      </trkpt>
      <trkpt lat="49.61131" lon="6.13143">
        <ele>309.3</ele>
        <time>2020-06-26T09:56:55Z</time>
      </trkpt>
      <trkpt lat="49.61132" lon="6.13143">
        <ele>309.3</ele>
        <time>2020-06-26T09:56:56Z</time>
      </trkpt>
      <trkpt lat="49.61132" lon="6.13144">
        <ele>309.3</ele>
        <time>2020-06-26T09:56:57Z</time>
      </trkpt>
      <trkpt lat="49.61132" lon="6.13143">
        <ele>309.3</ele>
        <time>2020-06-26T09:56:58Z</time>
      </trkpt>
      <trkpt lat="49.61132" lon="6.13143">
        <ele>309.3</ele>
        <time>2020-06-26T09:56:59Z</time>
      </trkpt>
      <trkpt lat="49.61132" lon="6.13143">
        <ele>309.3</ele>
        <time>2020-06-26T09:57:00Z</time>
      </trkpt>
      <trkpt lat="49.61132" lon="6.13143">
        <ele>309.3</ele>
        <time>2020-06-26T09:57:01Z</time>
      </trkpt>
      <trkpt lat="49.61132" lon="6.13143">
        <ele>309.3</ele>
        <time>2020-06-26T09:57:02Z</time>
      </trkpt>
      <trkpt lat="49.61132" lon="6.13143">
        <ele>309.3</ele>
        <time>2020-06-26T09:57:03Z</time>
      </trkpt>
      <trkpt lat="49.61132" lon="6.13142">
        <ele>309.3</ele>
        <time>2020-06-26T09:57:04Z</time>
      </trkpt>
      <trkpt lat="49.61132" lon="6.13142">
        <ele>309.3</ele>
        <time>2020-06-26T09:57:05Z</time>
      </trkpt>
      <trkpt lat="49.61127" lon="6.13146">
        <ele>309.4</ele>
        <time>2020-06-26T09:58:06Z</time>
      </trkpt>
      <trkpt lat="49.61127" lon="6.13147">
        <ele>309.4</ele>
        <time>2020-06-26T09:58:07Z</time>
      </trkpt>
      <trkpt lat="49.61127" lon="6.13149">
        <ele>309.4</ele>
        <time>2020-06-26T09:58:08Z</time>
      </trkpt>
      <trkpt lat="49.61127" lon="6.13152">
        <ele>309.4</ele>
        <time>2020-06-26T09:58:09Z</time>
      </trkpt>
      <trkpt lat="49.61127" lon="6.13155">
        <ele>309.4</ele>
        <time>2020-06-26T09:58:10Z</time>
      </trkpt>
      <trkpt lat="49.61128" lon="6.13157">
        <ele>309.5</ele>
        <time>2020-06-26T09:58:11Z</time>
      </trkpt>
      <trkpt lat="49.61128" lon="6.1316">
        <ele>309.5</ele>
        <time>2020-06-26T09:58:12Z</time>
      </trkpt>
      <trkpt lat="49.61128" lon="6.13162">
        <ele>309.5</ele>
        <time>2020-06-26T09:58:13Z</time>
      </trkpt>
      <trkpt lat="49.61128" lon="6.13167">
        <ele>309.2</ele>
        <time>2020-06-26T09:58:14Z</time>
      </trkpt>
      <trkpt lat="49.61128" lon="6.13168">
        <ele>309.2</ele>
        <time>2020-06-26T09:58:15Z</time>
      </trkpt>
      <trkpt lat="49.61128" lon="6.13169">
        <ele>309.2</ele>
        <time>2020-06-26T09:58:16Z</time>
      </trkpt>
      <trkpt lat="49.61128" lon="6.13169">
        <ele>309.2</ele>
        <time>2020-06-26T09:58:17Z</time>
      </trkpt>
      <trkpt lat="49.61129" lon="6.13168">
        <ele>309.2</ele>
        <time>2020-06-26T09:58:18Z</time>
      </trkpt>
      <trkpt lat="49.61129" lon="6.13168">
        <ele>309.5</ele>
        <time>2020-06-26T09:58:19Z</time>
      </trkpt>
      <trkpt lat="49.61129" lon="6.13169">
        <ele>309.2</ele>
        <time>2020-06-26T09:58:20Z</time>
      </trkpt>
      <trkpt lat="49.61129" lon="6.13169">
        <ele>309.5</ele>
        <time>2020-06-26T09:58:21Z</time>
      </trkpt>
      <trkpt lat="49.6113" lon="6.1317">
        <ele>309.5</ele>
        <time>2020-06-26T09:58:22Z</time>
      </trkpt>
      <trkpt lat="49.6113" lon="6.1317">
        <ele>309.5</ele>
        <time>2020-06-26T09:58:23Z</time>
      </trkpt>
      <trkpt lat="49.6113" lon="6.1317">
        <ele>309.5</ele>
        <time>2020-06-26T09:58:24Z</time>
      </trkpt>
      <trkpt lat="49.61129" lon="6.1317">
        <ele>309.2</ele>
        <time>2020-06-26T09:58:25Z</time>
      </trkpt>
      <trkpt lat="49.61128" lon="6.13171">
        <ele>309.2</ele>
        <time>2020-06-26T09:58:26Z</time>
      </trkpt>
      <trkpt lat="49.61127" lon="6.13172">
        <ele>309.1</ele>
        <time>2020-06-26T09:58:27Z</time>
      </trkpt>
      <trkpt lat="49.61126" lon="6.13172">
        <ele>309.1</ele>
        <time>2020-06-26T09:58:28Z</time>
      </trkpt>
      <trkpt lat="49.61122" lon="6.13172">
        <ele>308.9</ele>
        <time>2020-06-26T09:58:29Z</time>
      </trkpt>
      <trkpt lat="49.61121" lon="6.13172">
        <ele>308.9</ele>
        <time>2020-06-26T09:58:30Z</time>
      </trkpt>
      <trkpt lat="49.61117" lon="6.13174">
        <ele>308.7</ele>
        <time>2020-06-26T09:58:31Z</time>
      </trkpt>
      <trkpt lat="49.61115" lon="6.13176">
        <ele>308.6</ele>
        <time>2020-06-26T09:58:32Z</time>
      </trkpt>
      <trkpt lat="49.61112" lon="6.1318">
        <ele>308.5</ele>
        <time>2020-06-26T09:58:33Z</time>
      </trkpt>
      <trkpt lat="49.6111" lon="6.13181">
        <ele>308.4</ele>
        <time>2020-06-26T09:58:34Z</time>
      </trkpt>
      <trkpt lat="49.61103" lon="6.13181">
        <ele>308.1</ele>
        <time>2020-06-26T09:58:35Z</time>
      </trkpt>
      <trkpt lat="49.61096" lon="6.13181">
        <ele>307.9</ele>
        <time>2020-06-26T09:58:36Z</time>
      </trkpt>
      <trkpt lat="49.61091" lon="6.13178">
        <ele>307.5</ele>
        <time>2020-06-26T09:58:37Z</time>
      </trkpt>
      <trkpt lat="49.61087" lon="6.13177">
        <ele>307.4</ele>
        <time>2020-06-26T09:58:38Z</time>
      </trkpt>
      <trkpt lat="49.61084" lon="6.13176">
        <ele>307.4</ele>
        <time>2020-06-26T09:58:39Z</time>
      </trkpt>
      <trkpt lat="49.61083" lon="6.13176">
        <ele>307.2</ele>
        <time>2020-06-26T09:58:40Z</time>
      </trkpt>
      <trkpt lat="49.61081" lon="6.13176">
        <ele>307.2</ele>
        <time>2020-06-26T09:58:41Z</time>
      </trkpt>
      <trkpt lat="49.61079" lon="6.13175">
        <ele>307.1</ele>
        <time>2020-06-26T09:58:42Z</time>
      </trkpt>
      <trkpt lat="49.61076" lon="6.13174">
        <ele>307.1</ele>
        <time>2020-06-26T09:58:43Z</time>
      </trkpt>
      <trkpt lat="49.61076" lon="6.13174">
        <ele>307.1</ele>
        <time>2020-06-26T09:58:44Z</time>
      </trkpt>
      <trkpt lat="49.61075" lon="6.13173">
        <ele>307.1</ele>
        <time>2020-06-26T09:58:45Z</time>
      </trkpt>
      <trkpt lat="49.61073" lon="6.13173">
        <ele>307</ele>
        <time>2020-06-26T09:58:46Z</time>
      </trkpt>
      <trkpt lat="49.61071" lon="6.13173">
        <ele>306.8</ele>
        <time>2020-06-26T09:58:47Z</time>
      </trkpt>
      <trkpt lat="49.6107" lon="6.13173">
        <ele>306.8</ele>
        <time>2020-06-26T09:58:48Z</time>
      </trkpt>
      <trkpt lat="49.61067" lon="6.13176">
        <ele>306.7</ele>
        <time>2020-06-26T09:58:49Z</time>
      </trkpt>
      <trkpt lat="49.61066" lon="6.13177">
        <ele>306.7</ele>
        <time>2020-06-26T09:58:50Z</time>
      </trkpt>
      <trkpt lat="49.61064" lon="6.13179">
        <ele>306.7</ele>
        <time>2020-06-26T09:58:51Z</time>
      </trkpt>
      <trkpt lat="49.61063" lon="6.1318">
        <ele>306.7</ele>
        <time>2020-06-26T09:58:52Z</time>
      </trkpt>
      <trkpt lat="49.6106" lon="6.1318">
        <ele>306.4</ele>
        <time>2020-06-26T09:58:53Z</time>
      </trkpt>
      <trkpt lat="49.61059" lon="6.1318">
        <ele>306.3</ele>
        <time>2020-06-26T09:58:54Z</time>
      </trkpt>
      <trkpt lat="49.61056" lon="6.13181">
        <ele>306.2</ele>
        <time>2020-06-26T09:58:55Z</time>
      </trkpt>
      <trkpt lat="49.61056" lon="6.13181">
        <ele>306.1</ele>
        <time>2020-06-26T09:58:56Z</time>
      </trkpt>
      <trkpt lat="49.61055" lon="6.13181">
        <ele>306.1</ele>
        <time>2020-06-26T09:58:57Z</time>
      </trkpt>
      <trkpt lat="49.61054" lon="6.1318">
        <ele>306</ele>
        <time>2020-06-26T09:58:58Z</time>
      </trkpt>
      <trkpt lat="49.61054" lon="6.1318">
        <ele>306</ele>
        <time>2020-06-26T09:58:59Z</time>
      </trkpt>
      <trkpt lat="49.61054" lon="6.13179">
        <ele>306</ele>
        <time>2020-06-26T09:59:00Z</time>
      </trkpt>
      <trkpt lat="49.61054" lon="6.13178">
        <ele>306</ele>
        <time>2020-06-26T09:59:01Z</time>
      </trkpt>
      <trkpt lat="49.61054" lon="6.13178">
        <ele>305.9</ele>
        <time>2020-06-26T09:59:02Z</time>
      </trkpt>
      <trkpt lat="49.61054" lon="6.13177">
        <ele>305.9</ele>
        <time>2020-06-26T09:59:03Z</time>
      </trkpt>
      <trkpt lat="49.61054" lon="6.13177">
        <ele>305.9</ele>
        <time>2020-06-26T09:59:04Z</time>
      </trkpt>
      <trkpt lat="49.61052" lon="6.13178">
        <ele>305.8</ele>
        <time>2020-06-26T09:59:05Z</time>
      </trkpt>
      <trkpt lat="49.6105" lon="6.1318">
        <ele>305.7</ele>
        <time>2020-06-26T09:59:06Z</time>
      </trkpt>
      <trkpt lat="49.61047" lon="6.13184">
        <ele>305.5</ele>
        <time>2020-06-26T09:59:07Z</time>
      </trkpt>
      <trkpt lat="49.61046" lon="6.13186">
        <ele>305.4</ele>
        <time>2020-06-26T09:59:08Z</time>
      </trkpt>
      <trkpt lat="49.61044" lon="6.1319">
        <ele>305.3</ele>
        <time>2020-06-26T09:59:09Z</time>
      </trkpt>
      <trkpt lat="49.61041" lon="6.13194">
        <ele>305.1</ele>
        <time>2020-06-26T09:59:10Z</time>
      </trkpt>
      <trkpt lat="49.61039" lon="6.13196">
        <ele>305</ele>
        <time>2020-06-26T09:59:11Z</time>
      </trkpt>
      <trkpt lat="49.61035" lon="6.13197">
        <ele>304.8</ele>
        <time>2020-06-26T09:59:12Z</time>
      </trkpt>
      <trkpt lat="49.61032" lon="6.132">
        <ele>304.7</ele>
        <time>2020-06-26T09:59:13Z</time>
      </trkpt>
      <trkpt lat="49.61029" lon="6.13203">
        <ele>304.6</ele>
        <time>2020-06-26T09:59:14Z</time>
      </trkpt>
      <trkpt lat="49.61026" lon="6.13206">
        <ele>304.5</ele>
        <time>2020-06-26T09:59:15Z</time>
      </trkpt>
      <trkpt lat="49.61022" lon="6.13208">
        <ele>304.4</ele>
        <time>2020-06-26T09:59:16Z</time>
      </trkpt>
      <trkpt lat="49.61019" lon="6.1321">
        <ele>304.3</ele>
        <time>2020-06-26T09:59:17Z</time>
      </trkpt>
      <trkpt lat="49.61016" lon="6.13213">
        <ele>304.3</ele>
        <time>2020-06-26T09:59:18Z</time>
      </trkpt>
      <trkpt lat="49.61016" lon="6.13214">
        <ele>304.3</ele>
        <time>2020-06-26T09:59:19Z</time>
      </trkpt>
      <trkpt lat="49.61013" lon="6.13219">
        <ele>304.3</ele>
        <time>2020-06-26T09:59:20Z</time>
      </trkpt>
      <trkpt lat="49.61012" lon="6.1322">
        <ele>304.3</ele>
        <time>2020-06-26T09:59:21Z</time>
      </trkpt>
      <trkpt lat="49.6101" lon="6.13224">
        <ele>304.2</ele>
        <time>2020-06-26T09:59:22Z</time>
      </trkpt>
      <trkpt lat="49.61009" lon="6.13229">
        <ele>304.5</ele>
        <time>2020-06-26T09:59:23Z</time>
      </trkpt>
      <trkpt lat="49.61008" lon="6.1323">
        <ele>304.5</ele>
        <time>2020-06-26T09:59:24Z</time>
      </trkpt>
      <trkpt lat="49.61008" lon="6.13233">
        <ele>304.6</ele>
        <time>2020-06-26T09:59:25Z</time>
      </trkpt>
      <trkpt lat="49.61009" lon="6.13235">
        <ele>304.6</ele>
        <time>2020-06-26T09:59:26Z</time>
      </trkpt>
      <trkpt lat="49.6101" lon="6.1324">
        <ele>304.8</ele>
        <time>2020-06-26T09:59:27Z</time>
      </trkpt>
      <trkpt lat="49.6101" lon="6.13242">
        <ele>304.8</ele>
        <time>2020-06-26T09:59:28Z</time>
      </trkpt>
      <trkpt lat="49.61011" lon="6.13247">
        <ele>304.8</ele>
        <time>2020-06-26T09:59:29Z</time>
      </trkpt>
      <trkpt lat="49.61012" lon="6.13247">
        <ele>304.8</ele>
        <time>2020-06-26T09:59:30Z</time>
      </trkpt>
      <trkpt lat="49.61012" lon="6.13246">
        <ele>304.8</ele>
        <time>2020-06-26T09:59:31Z</time>
      </trkpt>
      <trkpt lat="49.61012" lon="6.13245">
        <ele>304.8</ele>
        <time>2020-06-26T09:59:32Z</time>
      </trkpt>
      <trkpt lat="49.61012" lon="6.13245">
        <ele>304.8</ele>
        <time>2020-06-26T09:59:33Z</time>
      </trkpt>
      <trkpt lat="49.61013" lon="6.13244">
        <ele>304.8</ele>
        <time>2020-06-26T09:59:34Z</time>
      </trkpt>
      <trkpt lat="49.61012" lon="6.13244">
        <ele>304.8</ele>
        <time>2020-06-26T09:59:35Z</time>
      </trkpt>
      <trkpt lat="49.61013" lon="6.13243">
        <ele>304.8</ele>
        <time>2020-06-26T09:59:36Z</time>
      </trkpt>
      <trkpt lat="49.61018" lon="6.1324">
        <ele>304.7</ele>
        <time>2020-06-26T09:59:37Z</time>
      </trkpt>
      <trkpt lat="49.61021" lon="6.13237">
        <ele>304.7</ele>
        <time>2020-06-26T09:59:38Z</time>
      </trkpt>
      <trkpt lat="49.61023" lon="6.13235">
        <ele>304.7</ele>
        <time>2020-06-26T09:59:39Z</time>
      </trkpt>
      <trkpt lat="49.61024" lon="6.13234">
        <ele>304.7</ele>
        <time>2020-06-26T09:59:40Z</time>
      </trkpt>
      <trkpt lat="49.6102" lon="6.13231">
        <ele>304.7</ele>
        <time>2020-06-26T09:59:41Z</time>
      </trkpt>
      <trkpt lat="49.61017" lon="6.13228">
        <ele>304.7</ele>
        <time>2020-06-26T10:01:10Z</time>
      </trkpt>
      <trkpt lat="49.61015" lon="6.13226">
        <ele>304.2</ele>
        <time>2020-06-26T10:01:11Z</time>
      </trkpt>
      <trkpt lat="49.61012" lon="6.13223">
        <ele>304.3</ele>
        <time>2020-06-26T10:01:12Z</time>
      </trkpt>
      <trkpt lat="49.6101" lon="6.13222">
        <ele>304.3</ele>
        <time>2020-06-26T10:01:13Z</time>
      </trkpt>
      <trkpt lat="49.61009" lon="6.13223">
        <ele>304.3</ele>
        <time>2020-06-26T10:01:14Z</time>
      </trkpt>
      <trkpt lat="49.61007" lon="6.13222">
        <ele>304.3</ele>
        <time>2020-06-26T10:01:15Z</time>
      </trkpt>
      <trkpt lat="49.61005" lon="6.13222">
        <ele>304.3</ele>
        <time>2020-06-26T10:01:16Z</time>
      </trkpt>
      <trkpt lat="49.61002" lon="6.13224">
        <ele>304.3</ele>
        <time>2020-06-26T10:01:17Z</time>
      </trkpt>
      <trkpt lat="49.61" lon="6.13225">
        <ele>304.3</ele>
        <time>2020-06-26T10:01:18Z</time>
      </trkpt>
      <trkpt lat="49.60997" lon="6.13225">
        <ele>304.2</ele>
        <time>2020-06-26T10:01:19Z</time>
      </trkpt>
      <trkpt lat="49.60994" lon="6.13228">
        <ele>304.2</ele>
        <time>2020-06-26T10:01:20Z</time>
      </trkpt>
      <trkpt lat="49.6099" lon="6.13231">
        <ele>304.2</ele>
        <time>2020-06-26T10:01:21Z</time>
      </trkpt>
      <trkpt lat="49.60988" lon="6.13235">
        <ele>304.1</ele>
        <time>2020-06-26T10:01:22Z</time>
      </trkpt>
      <trkpt lat="49.60986" lon="6.13238">
        <ele>304</ele>
        <time>2020-06-26T10:01:23Z</time>
      </trkpt>
      <trkpt lat="49.60983" lon="6.13241">
        <ele>304</ele>
        <time>2020-06-26T10:01:24Z</time>
      </trkpt>
      <trkpt lat="49.60982" lon="6.13242">
        <ele>303.9</ele>
        <time>2020-06-26T10:01:25Z</time>
      </trkpt>
      <trkpt lat="49.60981" lon="6.13243">
        <ele>303.9</ele>
        <time>2020-06-26T10:01:26Z</time>
      </trkpt>
      <trkpt lat="49.6098" lon="6.13243">
        <ele>303.9</ele>
        <time>2020-06-26T10:01:27Z</time>
      </trkpt>
      <trkpt lat="49.6098" lon="6.13244">
        <ele>303.9</ele>
        <time>2020-06-26T10:01:28Z</time>
      </trkpt>
      <trkpt lat="49.6098" lon="6.13245">
        <ele>303.9</ele>
        <time>2020-06-26T10:01:29Z</time>
      </trkpt>
      <trkpt lat="49.60979" lon="6.13247">
        <ele>303.9</ele>
        <time>2020-06-26T10:01:30Z</time>
      </trkpt>
      <trkpt lat="49.60978" lon="6.1325">
        <ele>303.8</ele>
        <time>2020-06-26T10:01:31Z</time>
      </trkpt>
      <trkpt lat="49.60976" lon="6.13253">
        <ele>303.8</ele>
        <time>2020-06-26T10:01:32Z</time>
      </trkpt>
      <trkpt lat="49.60975" lon="6.13254">
        <ele>303.7</ele>
        <time>2020-06-26T10:01:33Z</time>
      </trkpt>
      <trkpt lat="49.60973" lon="6.13256">
        <ele>303.7</ele>
        <time>2020-06-26T10:01:34Z</time>
      </trkpt>
      <trkpt lat="49.60973" lon="6.13257">
        <ele>303.7</ele>
        <time>2020-06-26T10:01:35Z</time>
      </trkpt>
      <trkpt lat="49.60972" lon="6.13258">
        <ele>303.7</ele>
        <time>2020-06-26T10:01:36Z</time>
      </trkpt>
      <trkpt lat="49.6097" lon="6.13257">
        <ele>303.6</ele>
        <time>2020-06-26T10:01:37Z</time>
      </trkpt>
      <trkpt lat="49.60969" lon="6.13257">
        <ele>303.6</ele>
        <time>2020-06-26T10:01:38Z</time>
      </trkpt>
      <trkpt lat="49.60966" lon="6.13257">
        <ele>303.5</ele>
        <time>2020-06-26T10:01:39Z</time>
      </trkpt>
      <trkpt lat="49.60965" lon="6.13257">
        <ele>303.5</ele>
        <time>2020-06-26T10:01:40Z</time>
      </trkpt>
      <trkpt lat="49.60964" lon="6.13256">
        <ele>303.5</ele>
        <time>2020-06-26T10:01:41Z</time>
      </trkpt>
      <trkpt lat="49.60963" lon="6.13256">
        <ele>303.2</ele>
        <time>2020-06-26T10:01:42Z</time>
      </trkpt>
      <trkpt lat="49.60961" lon="6.13256">
        <ele>303.2</ele>
        <time>2020-06-26T10:01:43Z</time>
      </trkpt>
      <trkpt lat="49.60959" lon="6.13255">
        <ele>303.2</ele>
        <time>2020-06-26T10:01:44Z</time>
      </trkpt>
      <trkpt lat="49.60958" lon="6.13255">
        <ele>303.2</ele>
        <time>2020-06-26T10:01:45Z</time>
      </trkpt>
      <trkpt lat="49.60957" lon="6.13254">
        <ele>303.2</ele>
        <time>2020-06-26T10:01:46Z</time>
      </trkpt>
      <trkpt lat="49.60956" lon="6.13254">
        <ele>303.2</ele>
        <time>2020-06-26T10:01:47Z</time>
      </trkpt>
      <trkpt lat="49.60954" lon="6.13255">
        <ele>303.2</ele>
        <time>2020-06-26T10:01:48Z</time>
      </trkpt>
      <trkpt lat="49.60953" lon="6.13255">
        <ele>303.2</ele>
        <time>2020-06-26T10:01:49Z</time>
      </trkpt>
      <trkpt lat="49.60951" lon="6.13255">
        <ele>303.2</ele>
        <time>2020-06-26T10:01:50Z</time>
      </trkpt>
      <trkpt lat="49.60949" lon="6.13255">
        <ele>303.1</ele>
        <time>2020-06-26T10:01:51Z</time>
      </trkpt>
      <trkpt lat="49.60948" lon="6.13255">
        <ele>303.1</ele>
        <time>2020-06-26T10:01:52Z</time>
      </trkpt>
      <trkpt lat="49.60946" lon="6.13254">
        <ele>303.1</ele>
        <time>2020-06-26T10:01:53Z</time>
      </trkpt>
      <trkpt lat="49.60945" lon="6.13253">
        <ele>303.1</ele>
        <time>2020-06-26T10:01:54Z</time>
      </trkpt>
      <trkpt lat="49.60942" lon="6.13253">
        <ele>303.1</ele>
        <time>2020-06-26T10:01:55Z</time>
      </trkpt>
      <trkpt lat="49.60941" lon="6.13253">
        <ele>303.1</ele>
        <time>2020-06-26T10:01:56Z</time>
      </trkpt>
      <trkpt lat="49.6094" lon="6.13252">
        <ele>303</ele>
        <time>2020-06-26T10:01:57Z</time>
      </trkpt>
      <trkpt lat="49.60938" lon="6.13252">
        <ele>303</ele>
        <time>2020-06-26T10:01:58Z</time>
      </trkpt>
      <trkpt lat="49.60937" lon="6.13251">
        <ele>303</ele>
        <time>2020-06-26T10:01:59Z</time>
      </trkpt>
      <trkpt lat="49.60936" lon="6.1325">
        <ele>303</ele>
        <time>2020-06-26T10:02:00Z</time>
      </trkpt>
      <trkpt lat="49.60936" lon="6.13249">
        <ele>303</ele>
        <time>2020-06-26T10:02:01Z</time>
      </trkpt>
      <trkpt lat="49.60934" lon="6.13249">
        <ele>303</ele>
        <time>2020-06-26T10:02:02Z</time>
      </trkpt>
      <trkpt lat="49.60933" lon="6.13249">
        <ele>303</ele>
        <time>2020-06-26T10:02:03Z</time>
      </trkpt>
      <trkpt lat="49.60932" lon="6.13249">
        <ele>302.9</ele>
        <time>2020-06-26T10:02:04Z</time>
      </trkpt>
      <trkpt lat="49.60931" lon="6.13248">
        <ele>302.9</ele>
        <time>2020-06-26T10:02:05Z</time>
      </trkpt>
      <trkpt lat="49.6093" lon="6.13247">
        <ele>302.9</ele>
        <time>2020-06-26T10:02:06Z</time>
      </trkpt>
      <trkpt lat="49.60929" lon="6.13248">
        <ele>302.9</ele>
        <time>2020-06-26T10:02:07Z</time>
      </trkpt>
      <trkpt lat="49.60928" lon="6.13246">
        <ele>302.9</ele>
        <time>2020-06-26T10:02:08Z</time>
      </trkpt>
      <trkpt lat="49.60927" lon="6.13245">
        <ele>302.7</ele>
        <time>2020-06-26T10:02:09Z</time>
      </trkpt>
      <trkpt lat="49.60926" lon="6.13244">
        <ele>302.7</ele>
        <time>2020-06-26T10:02:10Z</time>
      </trkpt>
      <trkpt lat="49.60925" lon="6.13243">
        <ele>302.6</ele>
        <time>2020-06-26T10:02:11Z</time>
      </trkpt>
      <trkpt lat="49.60924" lon="6.13241">
        <ele>302.6</ele>
        <time>2020-06-26T10:02:12Z</time>
      </trkpt>
      <trkpt lat="49.60922" lon="6.13237">
        <ele>302.4</ele>
        <time>2020-06-26T10:02:13Z</time>
      </trkpt>
      <trkpt lat="49.60921" lon="6.13236">
        <ele>302.4</ele>
        <time>2020-06-26T10:02:14Z</time>
      </trkpt>
      <trkpt lat="49.6092" lon="6.13232">
        <ele>302.3</ele>
        <time>2020-06-26T10:02:15Z</time>
      </trkpt>
      <trkpt lat="49.60919" lon="6.1323">
        <ele>302.2</ele>
        <time>2020-06-26T10:02:16Z</time>
      </trkpt>
      <trkpt lat="49.60917" lon="6.13226">
        <ele>302.1</ele>
        <time>2020-06-26T10:02:17Z</time>
      </trkpt>
      <trkpt lat="49.60916" lon="6.13225">
        <ele>302</ele>
        <time>2020-06-26T10:02:18Z</time>
      </trkpt>
      <trkpt lat="49.60913" lon="6.13223">
        <ele>301.9</ele>
        <time>2020-06-26T10:02:19Z</time>
      </trkpt>
      <trkpt lat="49.60912" lon="6.13222">
        <ele>301.9</ele>
        <time>2020-06-26T10:02:20Z</time>
      </trkpt>
      <trkpt lat="49.60909" lon="6.13221">
        <ele>301.7</ele>
        <time>2020-06-26T10:02:21Z</time>
      </trkpt>
      <trkpt lat="49.60906" lon="6.1322">
        <ele>301.6</ele>
        <time>2020-06-26T10:02:22Z</time>
      </trkpt>
      <trkpt lat="49.60903" lon="6.13221">
        <ele>301.5</ele>
        <time>2020-06-26T10:02:23Z</time>
      </trkpt>
      <trkpt lat="49.609" lon="6.13222">
        <ele>301.4</ele>
        <time>2020-06-26T10:02:24Z</time>
      </trkpt>
      <trkpt lat="49.60898" lon="6.1322">
        <ele>301.1</ele>
        <time>2020-06-26T10:02:25Z</time>
      </trkpt>
      <trkpt lat="49.60895" lon="6.13214">
        <ele>300.9</ele>
        <time>2020-06-26T10:02:26Z</time>
      </trkpt>
      <trkpt lat="49.60895" lon="6.13212">
        <ele>300.8</ele>
        <time>2020-06-26T10:02:27Z</time>
      </trkpt>
      <trkpt lat="49.60892" lon="6.13209">
        <ele>300.6</ele>
        <time>2020-06-26T10:02:28Z</time>
      </trkpt>
      <trkpt lat="49.60889" lon="6.13206">
        <ele>300.4</ele>
        <time>2020-06-26T10:02:29Z</time>
      </trkpt>
      <trkpt lat="49.60887" lon="6.13202">
        <ele>300.2</ele>
        <time>2020-06-26T10:02:30Z</time>
      </trkpt>
      <trkpt lat="49.60885" lon="6.13199">
        <ele>300.1</ele>
        <time>2020-06-26T10:02:31Z</time>
      </trkpt>
      <trkpt lat="49.60884" lon="6.13198">
        <ele>300</ele>
        <time>2020-06-26T10:02:32Z</time>
      </trkpt>
      <trkpt lat="49.60882" lon="6.13198">
        <ele>299.9</ele>
        <time>2020-06-26T10:02:33Z</time>
      </trkpt>
      <trkpt lat="49.6088" lon="6.13198">
        <ele>299.3</ele>
        <time>2020-06-26T10:02:34Z</time>
      </trkpt>
      <trkpt lat="49.6088" lon="6.13199">
        <ele>299.3</ele>
        <time>2020-06-26T10:02:35Z</time>
      </trkpt>
      <trkpt lat="49.60879" lon="6.13199">
        <ele>299.3</ele>
        <time>2020-06-26T10:02:36Z</time>
      </trkpt>
      <trkpt lat="49.60879" lon="6.13199">
        <ele>299.3</ele>
        <time>2020-06-26T10:02:37Z</time>
      </trkpt>
      <trkpt lat="49.60878" lon="6.13198">
        <ele>299.3</ele>
        <time>2020-06-26T10:02:38Z</time>
      </trkpt>
      <trkpt lat="49.60878" lon="6.13198">
        <ele>299.3</ele>
        <time>2020-06-26T10:02:39Z</time>
      </trkpt>
      <trkpt lat="49.60878" lon="6.13198">
        <ele>299.3</ele>
        <time>2020-06-26T10:02:40Z</time>
      </trkpt>
      <trkpt lat="49.60877" lon="6.13198">
        <ele>299.3</ele>
        <time>2020-06-26T10:02:41Z</time>
      </trkpt>
      <trkpt lat="49.60877" lon="6.13198">
        <ele>299.3</ele>
        <time>2020-06-26T10:02:42Z</time>
      </trkpt>
      <trkpt lat="49.60884" lon="6.13184">
        <ele>299.2</ele>
        <time>2020-06-26T10:02:55Z</time>
      </trkpt>
      <trkpt lat="49.60884" lon="6.13183">
        <ele>299.3</ele>
        <time>2020-06-26T10:02:56Z</time>
      </trkpt>
      <trkpt lat="49.60885" lon="6.13182">
        <ele>299.3</ele>
        <time>2020-06-26T10:02:57Z</time>
      </trkpt>
      <trkpt lat="49.60884" lon="6.13182">
        <ele>299.3</ele>
        <time>2020-06-26T10:02:58Z</time>
      </trkpt>
      <trkpt lat="49.60884" lon="6.13181">
        <ele>299.3</ele>
        <time>2020-06-26T10:02:59Z</time>
      </trkpt>
      <trkpt lat="49.60883" lon="6.13182">
        <ele>299.3</ele>
        <time>2020-06-26T10:03:00Z</time>
      </trkpt>
      <trkpt lat="49.60883" lon="6.13181">
        <ele>299.3</ele>
        <time>2020-06-26T10:03:01Z</time>
      </trkpt>
      <trkpt lat="49.60883" lon="6.13181">
        <ele>299.3</ele>
        <time>2020-06-26T10:03:02Z</time>
      </trkpt>
      <trkpt lat="49.60883" lon="6.13181">
        <ele>299.3</ele>
        <time>2020-06-26T10:03:03Z</time>
      </trkpt>
      <trkpt lat="49.60884" lon="6.13181">
        <ele>299.3</ele>
        <time>2020-06-26T10:03:04Z</time>
      </trkpt>
      <trkpt lat="49.60884" lon="6.13182">
        <ele>299.3</ele>
        <time>2020-06-26T10:03:05Z</time>
      </trkpt>
      <trkpt lat="49.60884" lon="6.13182">
        <ele>299.3</ele>
        <time>2020-06-26T10:03:06Z</time>
      </trkpt>
      <trkpt lat="49.60884" lon="6.13182">
        <ele>299.3</ele>
        <time>2020-06-26T10:03:07Z</time>
      </trkpt>
      <trkpt lat="49.60885" lon="6.13184">
        <ele>299.3</ele>
        <time>2020-06-26T10:03:08Z</time>
      </trkpt>
      <trkpt lat="49.60885" lon="6.13184">
        <ele>299.3</ele>
        <time>2020-06-26T10:03:09Z</time>
      </trkpt>
      <trkpt lat="49.60886" lon="6.13184">
        <ele>299.3</ele>
        <time>2020-06-26T10:03:10Z</time>
      </trkpt>
      <trkpt lat="49.60886" lon="6.13184">
        <ele>299.3</ele>
        <time>2020-06-26T10:03:11Z</time>
      </trkpt>
      <trkpt lat="49.60887" lon="6.13185">
        <ele>299.3</ele>
        <time>2020-06-26T10:03:12Z</time>
      </trkpt>
      <trkpt lat="49.60887" lon="6.13185">
        <ele>299.3</ele>
        <time>2020-06-26T10:03:13Z</time>
      </trkpt>
      <trkpt lat="49.60887" lon="6.13186">
        <ele>299.3</ele>
        <time>2020-06-26T10:03:14Z</time>
      </trkpt>
      <trkpt lat="49.60887" lon="6.13186">
        <ele>299.3</ele>
        <time>2020-06-26T10:03:15Z</time>
      </trkpt>
      <trkpt lat="49.60887" lon="6.13186">
        <ele>299.3</ele>
        <time>2020-06-26T10:03:16Z</time>
      </trkpt>
      <trkpt lat="49.60886" lon="6.13182">
        <ele>299.3</ele>
        <time>2020-06-26T10:03:17Z</time>
      </trkpt>
      <trkpt lat="49.60888" lon="6.13181">
        <ele>299.3</ele>
        <time>2020-06-26T10:03:18Z</time>
      </trkpt>
      <trkpt lat="49.60889" lon="6.1318">
        <ele>299.3</ele>
        <time>2020-06-26T10:03:19Z</time>
      </trkpt>
      <trkpt lat="49.6089" lon="6.13177">
        <ele>299.3</ele>
        <time>2020-06-26T10:03:20Z</time>
      </trkpt>
      <trkpt lat="49.6089" lon="6.13174">
        <ele>299.3</ele>
        <time>2020-06-26T10:03:21Z</time>
      </trkpt>
      <trkpt lat="49.60889" lon="6.13172">
        <ele>299.3</ele>
        <time>2020-06-26T10:03:22Z</time>
      </trkpt>
      <trkpt lat="49.60889" lon="6.13172">
        <ele>299.3</ele>
        <time>2020-06-26T10:03:23Z</time>
      </trkpt>
      <trkpt lat="49.60888" lon="6.13171">
        <ele>299.3</ele>
        <time>2020-06-26T10:03:24Z</time>
      </trkpt>
      <trkpt lat="49.60888" lon="6.13171">
        <ele>299.3</ele>
        <time>2020-06-26T10:03:25Z</time>
      </trkpt>
      <trkpt lat="49.60888" lon="6.1317">
        <ele>299.3</ele>
        <time>2020-06-26T10:03:26Z</time>
      </trkpt>
      <trkpt lat="49.60887" lon="6.1317">
        <ele>299.3</ele>
        <time>2020-06-26T10:03:27Z</time>
      </trkpt>
      <trkpt lat="49.60887" lon="6.13169">
        <ele>299.3</ele>
        <time>2020-06-26T10:03:28Z</time>
      </trkpt>
      <trkpt lat="49.60887" lon="6.13169">
        <ele>299.3</ele>
        <time>2020-06-26T10:03:29Z</time>
      </trkpt>
      <trkpt lat="49.60886" lon="6.13169">
        <ele>299.3</ele>
        <time>2020-06-26T10:03:30Z</time>
      </trkpt>
      <trkpt lat="49.60886" lon="6.13169">
        <ele>299.3</ele>
        <time>2020-06-26T10:03:31Z</time>
      </trkpt>
      <trkpt lat="49.60885" lon="6.13169">
        <ele>299.3</ele>
        <time>2020-06-26T10:03:32Z</time>
      </trkpt>
      <trkpt lat="49.60885" lon="6.13169">
        <ele>299.3</ele>
        <time>2020-06-26T10:03:33Z</time>
      </trkpt>
      <trkpt lat="49.60885" lon="6.13169">
        <ele>299.3</ele>
        <time>2020-06-26T10:03:34Z</time>
      </trkpt>
      <trkpt lat="49.60885" lon="6.13169">
        <ele>299.3</ele>
        <time>2020-06-26T10:03:35Z</time>
      </trkpt>
      <trkpt lat="49.60885" lon="6.13169">
        <ele>299.3</ele>
        <time>2020-06-26T10:03:36Z</time>
      </trkpt>
      <trkpt lat="49.60884" lon="6.13169">
        <ele>299.3</ele>
        <time>2020-06-26T10:03:37Z</time>
      </trkpt>
      <trkpt lat="49.60884" lon="6.13169">
        <ele>299.3</ele>
        <time>2020-06-26T10:03:38Z</time>
      </trkpt>
      <trkpt lat="49.60883" lon="6.13171">
        <ele>299.3</ele>
        <time>2020-06-26T10:03:39Z</time>
      </trkpt>
      <trkpt lat="49.60882" lon="6.13172">
        <ele>299.3</ele>
        <time>2020-06-26T10:03:40Z</time>
      </trkpt>
      <trkpt lat="49.60882" lon="6.13171">
        <ele>299.3</ele>
        <time>2020-06-26T10:03:41Z</time>
      </trkpt>
      <trkpt lat="49.60882" lon="6.13172">
        <ele>299.3</ele>
        <time>2020-06-26T10:03:42Z</time>
      </trkpt>
      <trkpt lat="49.60881" lon="6.13173">
        <ele>299.3</ele>
        <time>2020-06-26T10:03:43Z</time>
      </trkpt>
      <trkpt lat="49.6088" lon="6.13175">
        <ele>298.9</ele>
        <time>2020-06-26T10:03:44Z</time>
      </trkpt>
      <trkpt lat="49.6088" lon="6.13176">
        <ele>298.9</ele>
        <time>2020-06-26T10:03:45Z</time>
      </trkpt>
      <trkpt lat="49.6088" lon="6.13178">
        <ele>298.9</ele>
        <time>2020-06-26T10:03:46Z</time>
      </trkpt>
      <trkpt lat="49.60879" lon="6.13178">
        <ele>298.9</ele>
        <time>2020-06-26T10:03:47Z</time>
      </trkpt>
      <trkpt lat="49.60878" lon="6.13178">
        <ele>298.9</ele>
        <time>2020-06-26T10:03:48Z</time>
      </trkpt>
      <trkpt lat="49.60878" lon="6.13178">
        <ele>298.9</ele>
        <time>2020-06-26T10:03:49Z</time>
      </trkpt>
      <trkpt lat="49.60877" lon="6.13179">
        <ele>298.9</ele>
        <time>2020-06-26T10:03:50Z</time>
      </trkpt>
      <trkpt lat="49.60877" lon="6.13179">
        <ele>298.9</ele>
        <time>2020-06-26T10:03:51Z</time>
      </trkpt>
      <trkpt lat="49.60877" lon="6.13179">
        <ele>298.9</ele>
        <time>2020-06-26T10:03:52Z</time>
      </trkpt>
      <trkpt lat="49.60876" lon="6.13179">
        <ele>298.9</ele>
        <time>2020-06-26T10:03:53Z</time>
      </trkpt>
      <trkpt lat="49.60876" lon="6.1318">
        <ele>298.9</ele>
        <time>2020-06-26T10:03:54Z</time>
      </trkpt>
      <trkpt lat="49.60876" lon="6.1318">
        <ele>298.9</ele>
        <time>2020-06-26T10:03:55Z</time>
      </trkpt>
      <trkpt lat="49.60875" lon="6.1318">
        <ele>298.9</ele>
        <time>2020-06-26T10:03:56Z</time>
      </trkpt>
      <trkpt lat="49.60875" lon="6.1318">
        <ele>298.9</ele>
        <time>2020-06-26T10:03:57Z</time>
      </trkpt>
      <trkpt lat="49.60875" lon="6.1318">
        <ele>298.9</ele>
        <time>2020-06-26T10:03:58Z</time>
      </trkpt>
      <trkpt lat="49.60874" lon="6.13181">
        <ele>298.9</ele>
        <time>2020-06-26T10:03:59Z</time>
      </trkpt>
      <trkpt lat="49.60874" lon="6.13181">
        <ele>298.9</ele>
        <time>2020-06-26T10:04:00Z</time>
      </trkpt>
      <trkpt lat="49.60873" lon="6.13182">
        <ele>298.9</ele>
        <time>2020-06-26T10:04:01Z</time>
      </trkpt>
      <trkpt lat="49.60874" lon="6.13182">
        <ele>298.9</ele>
        <time>2020-06-26T10:04:02Z</time>
      </trkpt>
      <trkpt lat="49.60874" lon="6.13181">
        <ele>298.9</ele>
        <time>2020-06-26T10:04:03Z</time>
      </trkpt>
      <trkpt lat="49.60875" lon="6.1318">
        <ele>298.8</ele>
        <time>2020-06-26T10:04:04Z</time>
      </trkpt>
      <trkpt lat="49.60875" lon="6.1318">
        <ele>298.8</ele>
        <time>2020-06-26T10:04:05Z</time>
      </trkpt>
      <trkpt lat="49.60875" lon="6.1318">
        <ele>298.8</ele>
        <time>2020-06-26T10:04:06Z</time>
      </trkpt>
      <trkpt lat="49.60876" lon="6.1318">
        <ele>298.8</ele>
        <time>2020-06-26T10:04:07Z</time>
      </trkpt>
      <trkpt lat="49.60875" lon="6.1318">
        <ele>298.8</ele>
        <time>2020-06-26T10:04:08Z</time>
      </trkpt>
      <trkpt lat="49.60875" lon="6.13181">
        <ele>298.8</ele>
        <time>2020-06-26T10:04:09Z</time>
      </trkpt>
      <trkpt lat="49.60875" lon="6.13181">
        <ele>298.8</ele>
        <time>2020-06-26T10:04:10Z</time>
      </trkpt>
      <trkpt lat="49.60875" lon="6.13179">
        <ele>298.8</ele>
        <time>2020-06-26T10:04:11Z</time>
      </trkpt>
      <trkpt lat="49.60874" lon="6.13177">
        <ele>298.8</ele>
        <time>2020-06-26T10:04:12Z</time>
      </trkpt>
      <trkpt lat="49.60871" lon="6.13182">
        <ele>298.8</ele>
        <time>2020-06-26T10:04:36Z</time>
      </trkpt>
      <trkpt lat="49.6087" lon="6.13182">
        <ele>298.8</ele>
        <time>2020-06-26T10:04:37Z</time>
      </trkpt>
      <trkpt lat="49.60871" lon="6.13181">
        <ele>298.8</ele>
        <time>2020-06-26T10:04:38Z</time>
      </trkpt>
      <trkpt lat="49.60871" lon="6.13181">
        <ele>298.8</ele>
        <time>2020-06-26T10:04:39Z</time>
      </trkpt>
      <trkpt lat="49.60872" lon="6.13181">
        <ele>298.8</ele>
        <time>2020-06-26T10:04:40Z</time>
      </trkpt>
      <trkpt lat="49.60872" lon="6.1318">
        <ele>298.8</ele>
        <time>2020-06-26T10:04:41Z</time>
      </trkpt>
      <trkpt lat="49.60872" lon="6.13181">
        <ele>298.8</ele>
        <time>2020-06-26T10:04:42Z</time>
      </trkpt>
      <trkpt lat="49.60872" lon="6.13181">
        <ele>298.8</ele>
        <time>2020-06-26T10:04:43Z</time>
      </trkpt>
      <trkpt lat="49.60872" lon="6.13181">
        <ele>298.8</ele>
        <time>2020-06-26T10:04:44Z</time>
      </trkpt>
      <trkpt lat="49.60871" lon="6.13181">
        <ele>298.8</ele>
        <time>2020-06-26T10:04:45Z</time>
      </trkpt>
      <trkpt lat="49.6087" lon="6.13183">
        <ele>298.8</ele>
        <time>2020-06-26T10:04:46Z</time>
      </trkpt>
      <trkpt lat="49.6087" lon="6.13183">
        <ele>298.8</ele>
        <time>2020-06-26T10:04:47Z</time>
      </trkpt>
      <trkpt lat="49.60869" lon="6.13184">
        <ele>298.8</ele>
        <time>2020-06-26T10:04:48Z</time>
      </trkpt>
      <trkpt lat="49.60866" lon="6.13188">
        <ele>298.7</ele>
        <time>2020-06-26T10:04:49Z</time>
      </trkpt>
      <trkpt lat="49.60865" lon="6.1319">
        <ele>298.6</ele>
        <time>2020-06-26T10:04:50Z</time>
      </trkpt>
      <trkpt lat="49.60863" lon="6.13194">
        <ele>298.5</ele>
        <time>2020-06-26T10:04:51Z</time>
      </trkpt>
      <trkpt lat="49.60861" lon="6.13198">
        <ele>298.4</ele>
        <time>2020-06-26T10:04:52Z</time>
      </trkpt>
      <trkpt lat="49.60859" lon="6.13201">
        <ele>298.3</ele>
        <time>2020-06-26T10:04:53Z</time>
      </trkpt>
      <trkpt lat="49.60857" lon="6.13205">
        <ele>298.2</ele>
        <time>2020-06-26T10:04:54Z</time>
      </trkpt>
      <trkpt lat="49.60855" lon="6.1321">
        <ele>298.1</ele>
        <time>2020-06-26T10:04:55Z</time>
      </trkpt>
      <trkpt lat="49.60853" lon="6.13215">
        <ele>297.8</ele>
        <time>2020-06-26T10:04:56Z</time>
      </trkpt>
      <trkpt lat="49.60851" lon="6.1322">
        <ele>297.7</ele>
        <time>2020-06-26T10:04:57Z</time>
      </trkpt>
      <trkpt lat="49.60849" lon="6.13225">
        <ele>297.6</ele>
        <time>2020-06-26T10:04:58Z</time>
      </trkpt>
      <trkpt lat="49.60846" lon="6.13231">
        <ele>297.4</ele>
        <time>2020-06-26T10:04:59Z</time>
      </trkpt>
      <trkpt lat="49.60843" lon="6.13235">
        <ele>297.2</ele>
        <time>2020-06-26T10:05:00Z</time>
      </trkpt>
      <trkpt lat="49.60841" lon="6.13238">
        <ele>297.1</ele>
        <time>2020-06-26T10:05:01Z</time>
      </trkpt>
      <trkpt lat="49.60838" lon="6.13243">
        <ele>296.9</ele>
        <time>2020-06-26T10:05:02Z</time>
      </trkpt>
      <trkpt lat="49.60835" lon="6.13246">
        <ele>296.7</ele>
        <time>2020-06-26T10:05:03Z</time>
      </trkpt>
      <trkpt lat="49.60834" lon="6.1325">
        <ele>296.6</ele>
        <time>2020-06-26T10:05:04Z</time>
      </trkpt>
      <trkpt lat="49.6083" lon="6.13251">
        <ele>296.5</ele>
        <time>2020-06-26T10:05:05Z</time>
      </trkpt>
      <trkpt lat="49.60826" lon="6.13255">
        <ele>296.4</ele>
        <time>2020-06-26T10:05:06Z</time>
      </trkpt>
      <trkpt lat="49.60823" lon="6.13259">
        <ele>296.3</ele>
        <time>2020-06-26T10:05:07Z</time>
      </trkpt>
      <trkpt lat="49.60818" lon="6.13261">
        <ele>296.1</ele>
        <time>2020-06-26T10:05:08Z</time>
      </trkpt>
      <trkpt lat="49.60813" lon="6.13263">
        <ele>296</ele>
        <time>2020-06-26T10:05:09Z</time>
      </trkpt>
      <trkpt lat="49.60809" lon="6.13265">
        <ele>295.8</ele>
        <time>2020-06-26T10:05:10Z</time>
      </trkpt>
      <trkpt lat="49.60806" lon="6.13267">
        <ele>295.7</ele>
        <time>2020-06-26T10:05:11Z</time>
      </trkpt>
      <trkpt lat="49.60802" lon="6.13269">
        <ele>295.6</ele>
        <time>2020-06-26T10:05:12Z</time>
      </trkpt>
      <trkpt lat="49.60798" lon="6.13271">
        <ele>295.5</ele>
        <time>2020-06-26T10:05:13Z</time>
      </trkpt>
      <trkpt lat="49.60794" lon="6.13273">
        <ele>295.3</ele>
        <time>2020-06-26T10:05:14Z</time>
      </trkpt>
      <trkpt lat="49.6079" lon="6.13276">
        <ele>295.2</ele>
        <time>2020-06-26T10:05:15Z</time>
      </trkpt>
      <trkpt lat="49.60785" lon="6.13275">
        <ele>295</ele>
        <time>2020-06-26T10:05:16Z</time>
      </trkpt>
      <trkpt lat="49.6078" lon="6.13277">
        <ele>294.9</ele>
        <time>2020-06-26T10:05:17Z</time>
      </trkpt>
      <trkpt lat="49.60775" lon="6.1328">
        <ele>294.7</ele>
        <time>2020-06-26T10:05:18Z</time>
      </trkpt>
      <trkpt lat="49.60771" lon="6.13283">
        <ele>294.6</ele>
        <time>2020-06-26T10:05:19Z</time>
      </trkpt>
      <trkpt lat="49.60767" lon="6.13287">
        <ele>294.4</ele>
        <time>2020-06-26T10:05:20Z</time>
      </trkpt>
      <trkpt lat="49.60762" lon="6.13291">
        <ele>294.3</ele>
        <time>2020-06-26T10:05:21Z</time>
      </trkpt>
      <trkpt lat="49.60757" lon="6.13294">
        <ele>294.2</ele>
        <time>2020-06-26T10:05:22Z</time>
      </trkpt>
      <trkpt lat="49.60753" lon="6.13297">
        <ele>294.1</ele>
        <time>2020-06-26T10:05:23Z</time>
      </trkpt>
      <trkpt lat="49.60749" lon="6.13299">
        <ele>294.4</ele>
        <time>2020-06-26T10:05:24Z</time>
      </trkpt>
      <trkpt lat="49.60746" lon="6.13303">
        <ele>294.2</ele>
        <time>2020-06-26T10:05:25Z</time>
      </trkpt>
      <trkpt lat="49.60742" lon="6.13305">
        <ele>294</ele>
        <time>2020-06-26T10:05:26Z</time>
      </trkpt>
      <trkpt lat="49.6074" lon="6.13309">
        <ele>293.8</ele>
        <time>2020-06-26T10:05:27Z</time>
      </trkpt>
      <trkpt lat="49.60736" lon="6.13312">
        <ele>293.6</ele>
        <time>2020-06-26T10:05:28Z</time>
      </trkpt>
      <trkpt lat="49.60732" lon="6.13315">
        <ele>293.5</ele>
        <time>2020-06-26T10:05:29Z</time>
      </trkpt>
      <trkpt lat="49.60728" lon="6.13318">
        <ele>293</ele>
        <time>2020-06-26T10:05:30Z</time>
      </trkpt>
      <trkpt lat="49.60724" lon="6.13321">
        <ele>293</ele>
        <time>2020-06-26T10:05:31Z</time>
      </trkpt>
      <trkpt lat="49.6072" lon="6.13324">
        <ele>292.9</ele>
        <time>2020-06-26T10:05:32Z</time>
      </trkpt>
      <trkpt lat="49.60715" lon="6.13328">
        <ele>292.8</ele>
        <time>2020-06-26T10:05:33Z</time>
      </trkpt>
      <trkpt lat="49.6071" lon="6.13332">
        <ele>292.8</ele>
        <time>2020-06-26T10:05:34Z</time>
      </trkpt>
      <trkpt lat="49.60705" lon="6.13336">
        <ele>292.1</ele>
        <time>2020-06-26T10:05:35Z</time>
      </trkpt>
      <trkpt lat="49.607" lon="6.1334">
        <ele>291.8</ele>
        <time>2020-06-26T10:05:36Z</time>
      </trkpt>
      <trkpt lat="49.60694" lon="6.13345">
        <ele>291.6</ele>
        <time>2020-06-26T10:05:37Z</time>
      </trkpt>
      <trkpt lat="49.60688" lon="6.13349">
        <ele>291.3</ele>
        <time>2020-06-26T10:05:38Z</time>
      </trkpt>
      <trkpt lat="49.60681" lon="6.13353">
        <ele>290.9</ele>
        <time>2020-06-26T10:05:39Z</time>
      </trkpt>
      <trkpt lat="49.60675" lon="6.13357">
        <ele>290.8</ele>
        <time>2020-06-26T10:05:40Z</time>
      </trkpt>
      <trkpt lat="49.60668" lon="6.13359">
        <ele>290.7</ele>
        <time>2020-06-26T10:05:41Z</time>
      </trkpt>
      <trkpt lat="49.60661" lon="6.1336">
        <ele>290.6</ele>
        <time>2020-06-26T10:05:42Z</time>
      </trkpt>
      <trkpt lat="49.60653" lon="6.13361">
        <ele>290.5</ele>
        <time>2020-06-26T10:05:43Z</time>
      </trkpt>
      <trkpt lat="49.60646" lon="6.13359">
        <ele>290.3</ele>
        <time>2020-06-26T10:05:44Z</time>
      </trkpt>
      <trkpt lat="49.60638" lon="6.13359">
        <ele>290.2</ele>
        <time>2020-06-26T10:05:45Z</time>
      </trkpt>
      <trkpt lat="49.6063" lon="6.13359">
        <ele>290</ele>
        <time>2020-06-26T10:05:46Z</time>
      </trkpt>
      <trkpt lat="49.60622" lon="6.13359">
        <ele>289.9</ele>
        <time>2020-06-26T10:05:47Z</time>
      </trkpt>
      <trkpt lat="49.60615" lon="6.13359">
        <ele>289.8</ele>
        <time>2020-06-26T10:05:48Z</time>
      </trkpt>
      <trkpt lat="49.60607" lon="6.13359">
        <ele>289.6</ele>
        <time>2020-06-26T10:05:49Z</time>
      </trkpt>
      <trkpt lat="49.606" lon="6.13359">
        <ele>289.5</ele>
        <time>2020-06-26T10:05:50Z</time>
      </trkpt>
      <trkpt lat="49.60593" lon="6.13359">
        <ele>289.4</ele>
        <time>2020-06-26T10:05:51Z</time>
      </trkpt>
      <trkpt lat="49.60585" lon="6.13359">
        <ele>289.4</ele>
        <time>2020-06-26T10:05:52Z</time>
      </trkpt>
      <trkpt lat="49.60578" lon="6.13359">
        <ele>289.3</ele>
        <time>2020-06-26T10:05:53Z</time>
      </trkpt>
      <trkpt lat="49.60571" lon="6.13359">
        <ele>289.3</ele>
        <time>2020-06-26T10:05:54Z</time>
      </trkpt>
      <trkpt lat="49.60563" lon="6.13358">
        <ele>289.3</ele>
        <time>2020-06-26T10:05:55Z</time>
      </trkpt>
      <trkpt lat="49.60556" lon="6.13358">
        <ele>289.3</ele>
        <time>2020-06-26T10:05:56Z</time>
      </trkpt>
      <trkpt lat="49.60549" lon="6.13358">
        <ele>289.3</ele>
        <time>2020-06-26T10:05:57Z</time>
      </trkpt>
      <trkpt lat="49.60542" lon="6.13358">
        <ele>289.3</ele>
        <time>2020-06-26T10:05:58Z</time>
      </trkpt>
      <trkpt lat="49.60535" lon="6.13358">
        <ele>289.3</ele>
        <time>2020-06-26T10:05:59Z</time>
      </trkpt>
      <trkpt lat="49.60528" lon="6.13358">
        <ele>289.3</ele>
        <time>2020-06-26T10:06:00Z</time>
      </trkpt>
      <trkpt lat="49.60522" lon="6.13358">
        <ele>289.4</ele>
        <time>2020-06-26T10:06:01Z</time>
      </trkpt>
      <trkpt lat="49.60517" lon="6.13357">
        <ele>289.4</ele>
        <time>2020-06-26T10:06:02Z</time>
      </trkpt>
      <trkpt lat="49.60512" lon="6.13357">
        <ele>289.5</ele>
        <time>2020-06-26T10:06:03Z</time>
      </trkpt>
      <trkpt lat="49.60508" lon="6.13356">
        <ele>289.5</ele>
        <time>2020-06-26T10:06:04Z</time>
      </trkpt>
      <trkpt lat="49.60503" lon="6.13356">
        <ele>289.6</ele>
        <time>2020-06-26T10:06:05Z</time>
      </trkpt>
      <trkpt lat="49.60499" lon="6.13356">
        <ele>289.6</ele>
        <time>2020-06-26T10:06:06Z</time>
      </trkpt>
      <trkpt lat="49.60496" lon="6.13357">
        <ele>289.8</ele>
        <time>2020-06-26T10:06:07Z</time>
      </trkpt>
      <trkpt lat="49.60493" lon="6.13356">
        <ele>290</ele>
        <time>2020-06-26T10:06:08Z</time>
      </trkpt>
      <trkpt lat="49.60489" lon="6.13356">
        <ele>290.2</ele>
        <time>2020-06-26T10:06:09Z</time>
      </trkpt>
      <trkpt lat="49.60489" lon="6.13356">
        <ele>290.3</ele>
        <time>2020-06-26T10:06:10Z</time>
      </trkpt>
      <trkpt lat="49.60487" lon="6.13356">
        <ele>290.4</ele>
        <time>2020-06-26T10:06:11Z</time>
      </trkpt>
      <trkpt lat="49.60485" lon="6.13356">
        <ele>290.5</ele>
        <time>2020-06-26T10:06:12Z</time>
      </trkpt>
      <trkpt lat="49.60483" lon="6.13355">
        <ele>290.6</ele>
        <time>2020-06-26T10:06:13Z</time>
      </trkpt>
      <trkpt lat="49.60481" lon="6.13354">
        <ele>290.7</ele>
        <time>2020-06-26T10:06:14Z</time>
      </trkpt>
      <trkpt lat="49.60478" lon="6.13351">
        <ele>290.9</ele>
        <time>2020-06-26T10:06:15Z</time>
      </trkpt>
      <trkpt lat="49.60478" lon="6.13349">
        <ele>290.9</ele>
        <time>2020-06-26T10:06:16Z</time>
      </trkpt>
      <trkpt lat="49.60475" lon="6.13345">
        <ele>290.9</ele>
        <time>2020-06-26T10:06:17Z</time>
      </trkpt>
      <trkpt lat="49.60474" lon="6.13344">
        <ele>291</ele>
        <time>2020-06-26T10:06:18Z</time>
      </trkpt>
      <trkpt lat="49.60471" lon="6.13342">
        <ele>291</ele>
        <time>2020-06-26T10:06:19Z</time>
      </trkpt>
      <trkpt lat="49.6047" lon="6.13342">
        <ele>291.1</ele>
        <time>2020-06-26T10:06:20Z</time>
      </trkpt>
      <trkpt lat="49.60469" lon="6.1334">
        <ele>291.1</ele>
        <time>2020-06-26T10:06:21Z</time>
      </trkpt>
      <trkpt lat="49.60469" lon="6.1334">
        <ele>291.1</ele>
        <time>2020-06-26T10:06:22Z</time>
      </trkpt>
      <trkpt lat="49.60469" lon="6.1334">
        <ele>291.1</ele>
        <time>2020-06-26T10:06:23Z</time>
      </trkpt>
      <trkpt lat="49.60468" lon="6.1334">
        <ele>291.1</ele>
        <time>2020-06-26T10:06:24Z</time>
      </trkpt>
      <trkpt lat="49.60468" lon="6.1334">
        <ele>291.1</ele>
        <time>2020-06-26T10:06:25Z</time>
      </trkpt>
      <trkpt lat="49.60468" lon="6.1334">
        <ele>291.1</ele>
        <time>2020-06-26T10:06:26Z</time>
      </trkpt>
      <trkpt lat="49.60467" lon="6.1334">
        <ele>291.1</ele>
        <time>2020-06-26T10:06:27Z</time>
      </trkpt>
      <trkpt lat="49.60467" lon="6.1334">
        <ele>291.1</ele>
        <time>2020-06-26T10:06:28Z</time>
      </trkpt>
      <trkpt lat="49.60467" lon="6.1334">
        <ele>291.1</ele>
        <time>2020-06-26T10:06:29Z</time>
      </trkpt>
      <trkpt lat="49.60467" lon="6.1334">
        <ele>291.1</ele>
        <time>2020-06-26T10:06:30Z</time>
      </trkpt>
      <trkpt lat="49.60466" lon="6.13341">
        <ele>291.1</ele>
        <time>2020-06-26T10:06:31Z</time>
      </trkpt>
      <trkpt lat="49.60466" lon="6.13342">
        <ele>291.1</ele>
        <time>2020-06-26T10:06:32Z</time>
      </trkpt>
      <trkpt lat="49.60466" lon="6.13343">
        <ele>291.1</ele>
        <time>2020-06-26T10:06:33Z</time>
      </trkpt>
      <trkpt lat="49.60464" lon="6.13343">
        <ele>291.1</ele>
        <time>2020-06-26T10:06:34Z</time>
      </trkpt>
      <trkpt lat="49.60463" lon="6.13341">
        <ele>291.1</ele>
        <time>2020-06-26T10:06:35Z</time>
      </trkpt>
      <trkpt lat="49.60462" lon="6.13339">
        <ele>291.2</ele>
        <time>2020-06-26T10:06:36Z</time>
      </trkpt>
      <trkpt lat="49.60461" lon="6.13338">
        <ele>291.2</ele>
        <time>2020-06-26T10:06:37Z</time>
      </trkpt>
      <trkpt lat="49.60459" lon="6.13336">
        <ele>291.2</ele>
        <time>2020-06-26T10:06:57Z</time>
      </trkpt>
      <trkpt lat="49.60458" lon="6.13334">
        <ele>291.2</ele>
        <time>2020-06-26T10:06:58Z</time>
      </trkpt>
      <trkpt lat="49.60457" lon="6.13334">
        <ele>291.3</ele>
        <time>2020-06-26T10:06:59Z</time>
      </trkpt>
      <trkpt lat="49.60455" lon="6.13334">
        <ele>291.3</ele>
        <time>2020-06-26T10:07:00Z</time>
      </trkpt>
      <trkpt lat="49.60454" lon="6.13334">
        <ele>291.3</ele>
        <time>2020-06-26T10:07:01Z</time>
      </trkpt>
      <trkpt lat="49.60452" lon="6.13333">
        <ele>291.4</ele>
        <time>2020-06-26T10:07:02Z</time>
      </trkpt>
      <trkpt lat="49.6045" lon="6.13333">
        <ele>291.4</ele>
        <time>2020-06-26T10:07:03Z</time>
      </trkpt>
      <trkpt lat="49.60449" lon="6.13332">
        <ele>291.4</ele>
        <time>2020-06-26T10:07:04Z</time>
      </trkpt>
      <trkpt lat="49.60447" lon="6.13332">
        <ele>291.4</ele>
        <time>2020-06-26T10:07:05Z</time>
      </trkpt>
      <trkpt lat="49.60445" lon="6.13332">
        <ele>291.4</ele>
        <time>2020-06-26T10:07:06Z</time>
      </trkpt>
      <trkpt lat="49.60442" lon="6.13331">
        <ele>291.4</ele>
        <time>2020-06-26T10:07:07Z</time>
      </trkpt>
      <trkpt lat="49.60441" lon="6.1333">
        <ele>291.4</ele>
        <time>2020-06-26T10:07:08Z</time>
      </trkpt>
      <trkpt lat="49.60438" lon="6.1333">
        <ele>291.4</ele>
        <time>2020-06-26T10:07:09Z</time>
      </trkpt>
      <trkpt lat="49.60436" lon="6.13332">
        <ele>291.4</ele>
        <time>2020-06-26T10:07:10Z</time>
      </trkpt>
      <trkpt lat="49.60432" lon="6.13332">
        <ele>291.4</ele>
        <time>2020-06-26T10:07:11Z</time>
      </trkpt>
      <trkpt lat="49.60431" lon="6.13332">
        <ele>291.4</ele>
        <time>2020-06-26T10:07:12Z</time>
      </trkpt>
      <trkpt lat="49.60427" lon="6.1333">
        <ele>291.4</ele>
        <time>2020-06-26T10:07:13Z</time>
      </trkpt>
      <trkpt lat="49.60426" lon="6.1333">
        <ele>291.4</ele>
        <time>2020-06-26T10:07:14Z</time>
      </trkpt>
      <trkpt lat="49.60423" lon="6.13328">
        <ele>291.4</ele>
        <time>2020-06-26T10:07:15Z</time>
      </trkpt>
      <trkpt lat="49.60422" lon="6.13328">
        <ele>291.4</ele>
        <time>2020-06-26T10:07:16Z</time>
      </trkpt>
      <trkpt lat="49.60419" lon="6.13331">
        <ele>291.4</ele>
        <time>2020-06-26T10:07:17Z</time>
      </trkpt>
      <trkpt lat="49.60418" lon="6.13332">
        <ele>291.4</ele>
        <time>2020-06-26T10:07:18Z</time>
      </trkpt>
      <trkpt lat="49.60415" lon="6.13334">
        <ele>291.4</ele>
        <time>2020-06-26T10:07:19Z</time>
      </trkpt>
      <trkpt lat="49.60414" lon="6.13334">
        <ele>291.4</ele>
        <time>2020-06-26T10:07:20Z</time>
      </trkpt>
      <trkpt lat="49.60411" lon="6.13337">
        <ele>291.5</ele>
        <time>2020-06-26T10:07:21Z</time>
      </trkpt>
      <trkpt lat="49.6041" lon="6.13338">
        <ele>291.5</ele>
        <time>2020-06-26T10:07:22Z</time>
      </trkpt>
      <trkpt lat="49.60408" lon="6.1334">
        <ele>291.5</ele>
        <time>2020-06-26T10:07:23Z</time>
      </trkpt>
      <trkpt lat="49.60407" lon="6.13341">
        <ele>291.5</ele>
        <time>2020-06-26T10:07:24Z</time>
      </trkpt>
      <trkpt lat="49.60406" lon="6.13343">
        <ele>291.5</ele>
        <time>2020-06-26T10:07:25Z</time>
      </trkpt>
      <trkpt lat="49.60405" lon="6.13343">
        <ele>291.5</ele>
        <time>2020-06-26T10:07:26Z</time>
      </trkpt>
      <trkpt lat="49.60405" lon="6.13344">
        <ele>291.5</ele>
        <time>2020-06-26T10:07:27Z</time>
      </trkpt>
      <trkpt lat="49.60403" lon="6.13344">
        <ele>291.5</ele>
        <time>2020-06-26T10:07:28Z</time>
      </trkpt>
      <trkpt lat="49.60401" lon="6.13344">
        <ele>291.5</ele>
        <time>2020-06-26T10:07:29Z</time>
      </trkpt>
      <trkpt lat="49.604" lon="6.13344">
        <ele>291.5</ele>
        <time>2020-06-26T10:07:30Z</time>
      </trkpt>
      <trkpt lat="49.60396" lon="6.13341">
        <ele>291.5</ele>
        <time>2020-06-26T10:07:31Z</time>
      </trkpt>
      <trkpt lat="49.60393" lon="6.1334">
        <ele>291.5</ele>
        <time>2020-06-26T10:07:32Z</time>
      </trkpt>
      <trkpt lat="49.6039" lon="6.13338">
        <ele>291.5</ele>
        <time>2020-06-26T10:07:33Z</time>
      </trkpt>
      <trkpt lat="49.60387" lon="6.13337">
        <ele>291.5</ele>
        <time>2020-06-26T10:07:34Z</time>
      </trkpt>
      <trkpt lat="49.60385" lon="6.13332">
        <ele>291.5</ele>
        <time>2020-06-26T10:07:35Z</time>
      </trkpt>
      <trkpt lat="49.60383" lon="6.13328">
        <ele>291.5</ele>
        <time>2020-06-26T10:07:36Z</time>
      </trkpt>
      <trkpt lat="49.6038" lon="6.13321">
        <ele>291.6</ele>
        <time>2020-06-26T10:07:37Z</time>
      </trkpt>
      <trkpt lat="49.60378" lon="6.13318">
        <ele>291.6</ele>
        <time>2020-06-26T10:07:38Z</time>
      </trkpt>
      <trkpt lat="49.60375" lon="6.13316">
        <ele>291.6</ele>
        <time>2020-06-26T10:07:39Z</time>
      </trkpt>
      <trkpt lat="49.60373" lon="6.13313">
        <ele>291.6</ele>
        <time>2020-06-26T10:07:40Z</time>
      </trkpt>
      <trkpt lat="49.60372" lon="6.13313">
        <ele>291.6</ele>
        <time>2020-06-26T10:07:41Z</time>
      </trkpt>
      <trkpt lat="49.60368" lon="6.13312">
        <ele>291.6</ele>
        <time>2020-06-26T10:07:42Z</time>
      </trkpt>
      <trkpt lat="49.60367" lon="6.13312">
        <ele>291.6</ele>
        <time>2020-06-26T10:07:43Z</time>
      </trkpt>
      <trkpt lat="49.60364" lon="6.13312">
        <ele>291.6</ele>
        <time>2020-06-26T10:07:44Z</time>
      </trkpt>
      <trkpt lat="49.60362" lon="6.13312">
        <ele>291.6</ele>
        <time>2020-06-26T10:07:45Z</time>
      </trkpt>
      <trkpt lat="49.60359" lon="6.1331">
        <ele>291.7</ele>
        <time>2020-06-26T10:07:46Z</time>
      </trkpt>
      <trkpt lat="49.60356" lon="6.1331">
        <ele>291.7</ele>
        <time>2020-06-26T10:07:47Z</time>
      </trkpt>
      <trkpt lat="49.6035" lon="6.13309">
        <ele>291.8</ele>
        <time>2020-06-26T10:07:48Z</time>
      </trkpt>
      <trkpt lat="49.60344" lon="6.13309">
        <ele>291.8</ele>
        <time>2020-06-26T10:07:49Z</time>
      </trkpt>
      <trkpt lat="49.60339" lon="6.13309">
        <ele>291.9</ele>
        <time>2020-06-26T10:07:50Z</time>
      </trkpt>
      <trkpt lat="49.60334" lon="6.13309">
        <ele>291.9</ele>
        <time>2020-06-26T10:07:51Z</time>
      </trkpt>
      <trkpt lat="49.60328" lon="6.1331">
        <ele>292</ele>
        <time>2020-06-26T10:07:52Z</time>
      </trkpt>
      <trkpt lat="49.60323" lon="6.1331">
        <ele>292</ele>
        <time>2020-06-26T10:07:53Z</time>
      </trkpt>
      <trkpt lat="49.60319" lon="6.1331">
        <ele>292.1</ele>
        <time>2020-06-26T10:07:54Z</time>
      </trkpt>
      <trkpt lat="49.60317" lon="6.13311">
        <ele>292.1</ele>
        <time>2020-06-26T10:07:55Z</time>
      </trkpt>
      <trkpt lat="49.60315" lon="6.1331">
        <ele>292.1</ele>
        <time>2020-06-26T10:07:56Z</time>
      </trkpt>
      <trkpt lat="49.60314" lon="6.1331">
        <ele>292.1</ele>
        <time>2020-06-26T10:07:57Z</time>
      </trkpt>
      <trkpt lat="49.60312" lon="6.13309">
        <ele>292.2</ele>
        <time>2020-06-26T10:07:58Z</time>
      </trkpt>
      <trkpt lat="49.60308" lon="6.13311">
        <ele>292.2</ele>
        <time>2020-06-26T10:07:59Z</time>
      </trkpt>
      <trkpt lat="49.60306" lon="6.13312">
        <ele>292.2</ele>
        <time>2020-06-26T10:08:00Z</time>
      </trkpt>
      <trkpt lat="49.60304" lon="6.13311">
        <ele>292.2</ele>
        <time>2020-06-26T10:08:01Z</time>
      </trkpt>
      <trkpt lat="49.60302" lon="6.13311">
        <ele>292.2</ele>
        <time>2020-06-26T10:08:02Z</time>
      </trkpt>
      <trkpt lat="49.603" lon="6.13311">
        <ele>292.2</ele>
        <time>2020-06-26T10:08:03Z</time>
      </trkpt>
      <trkpt lat="49.60299" lon="6.1331">
        <ele>292.2</ele>
        <time>2020-06-26T10:08:04Z</time>
      </trkpt>
      <trkpt lat="49.60298" lon="6.13311">
        <ele>292.2</ele>
        <time>2020-06-26T10:08:05Z</time>
      </trkpt>
      <trkpt lat="49.60298" lon="6.13313">
        <ele>292.3</ele>
        <time>2020-06-26T10:08:06Z</time>
      </trkpt>
      <trkpt lat="49.60298" lon="6.13313">
        <ele>292.3</ele>
        <time>2020-06-26T10:08:07Z</time>
      </trkpt>
      <trkpt lat="49.60299" lon="6.13314">
        <ele>292.3</ele>
        <time>2020-06-26T10:08:08Z</time>
      </trkpt>
      <trkpt lat="49.60298" lon="6.13315">
        <ele>292.2</ele>
        <time>2020-06-26T10:08:09Z</time>
      </trkpt>
      <trkpt lat="49.60299" lon="6.13318">
        <ele>292.2</ele>
        <time>2020-06-26T10:08:10Z</time>
      </trkpt>
      <trkpt lat="49.60301" lon="6.13322">
        <ele>292.2</ele>
        <time>2020-06-26T10:08:11Z</time>
      </trkpt>
      <trkpt lat="49.60301" lon="6.13327">
        <ele>292.3</ele>
        <time>2020-06-26T10:08:12Z</time>
      </trkpt>
      <trkpt lat="49.60302" lon="6.13333">
        <ele>292.3</ele>
        <time>2020-06-26T10:08:13Z</time>
      </trkpt>
      <trkpt lat="49.60302" lon="6.13338">
        <ele>292.3</ele>
        <time>2020-06-26T10:08:14Z</time>
      </trkpt>
      <trkpt lat="49.60302" lon="6.13344">
        <ele>292.4</ele>
        <time>2020-06-26T10:08:15Z</time>
      </trkpt>
      <trkpt lat="49.60304" lon="6.1335">
        <ele>292.4</ele>
        <time>2020-06-26T10:08:16Z</time>
      </trkpt>
      <trkpt lat="49.60306" lon="6.13356">
        <ele>292.4</ele>
        <time>2020-06-26T10:08:17Z</time>
      </trkpt>
      <trkpt lat="49.60307" lon="6.13361">
        <ele>292.4</ele>
        <time>2020-06-26T10:08:18Z</time>
      </trkpt>
      <trkpt lat="49.60308" lon="6.13365">
        <ele>292.4</ele>
        <time>2020-06-26T10:08:19Z</time>
      </trkpt>
      <trkpt lat="49.60309" lon="6.1337">
        <ele>292.5</ele>
        <time>2020-06-26T10:08:20Z</time>
      </trkpt>
      <trkpt lat="49.60311" lon="6.13375">
        <ele>292.5</ele>
        <time>2020-06-26T10:08:21Z</time>
      </trkpt>
      <trkpt lat="49.60312" lon="6.1338">
        <ele>292.6</ele>
        <time>2020-06-26T10:08:22Z</time>
      </trkpt>
      <trkpt lat="49.60314" lon="6.13385">
        <ele>292.6</ele>
        <time>2020-06-26T10:08:23Z</time>
      </trkpt>
      <trkpt lat="49.60315" lon="6.1339">
        <ele>292.7</ele>
        <time>2020-06-26T10:08:24Z</time>
      </trkpt>
      <trkpt lat="49.60316" lon="6.13394">
        <ele>292.7</ele>
        <time>2020-06-26T10:08:25Z</time>
      </trkpt>
      <trkpt lat="49.60316" lon="6.134">
        <ele>292.7</ele>
        <time>2020-06-26T10:08:26Z</time>
      </trkpt>
      <trkpt lat="49.60316" lon="6.13404">
        <ele>292.8</ele>
        <time>2020-06-26T10:08:27Z</time>
      </trkpt>
      <trkpt lat="49.60316" lon="6.13408">
        <ele>292.8</ele>
        <time>2020-06-26T10:08:28Z</time>
      </trkpt>
      <trkpt lat="49.60316" lon="6.13409">
        <ele>292.8</ele>
        <time>2020-06-26T10:08:29Z</time>
      </trkpt>
      <trkpt lat="49.60316" lon="6.13412">
        <ele>292.8</ele>
        <time>2020-06-26T10:08:30Z</time>
      </trkpt>
      <trkpt lat="49.60316" lon="6.13414">
        <ele>292.8</ele>
        <time>2020-06-26T10:08:31Z</time>
      </trkpt>
      <trkpt lat="49.60316" lon="6.13417">
        <ele>292.8</ele>
        <time>2020-06-26T10:08:32Z</time>
      </trkpt>
      <trkpt lat="49.60314" lon="6.13421">
        <ele>292.9</ele>
        <time>2020-06-26T10:08:33Z</time>
      </trkpt>
      <trkpt lat="49.60313" lon="6.13423">
        <ele>292.9</ele>
        <time>2020-06-26T10:08:34Z</time>
      </trkpt>
      <trkpt lat="49.60311" lon="6.13429">
        <ele>293</ele>
        <time>2020-06-26T10:08:35Z</time>
      </trkpt>
      <trkpt lat="49.6031" lon="6.13431">
        <ele>293</ele>
        <time>2020-06-26T10:08:36Z</time>
      </trkpt>
      <trkpt lat="49.60308" lon="6.13435">
        <ele>293.1</ele>
        <time>2020-06-26T10:08:37Z</time>
      </trkpt>
      <trkpt lat="49.60306" lon="6.13438">
        <ele>293.1</ele>
        <time>2020-06-26T10:08:38Z</time>
      </trkpt>
      <trkpt lat="49.60305" lon="6.1344">
        <ele>293.1</ele>
        <time>2020-06-26T10:08:39Z</time>
      </trkpt>
      <trkpt lat="49.60303" lon="6.13443">
        <ele>293.1</ele>
        <time>2020-06-26T10:08:40Z</time>
      </trkpt>
      <trkpt lat="49.60302" lon="6.13448">
        <ele>293.1</ele>
        <time>2020-06-26T10:08:41Z</time>
      </trkpt>
      <trkpt lat="49.60302" lon="6.13449">
        <ele>293.1</ele>
        <time>2020-06-26T10:08:42Z</time>
      </trkpt>
      <trkpt lat="49.60302" lon="6.1345">
        <ele>293.1</ele>
        <time>2020-06-26T10:08:43Z</time>
      </trkpt>
      <trkpt lat="49.60301" lon="6.13452">
        <ele>293.1</ele>
        <time>2020-06-26T10:08:44Z</time>
      </trkpt>
      <trkpt lat="49.603" lon="6.13455">
        <ele>293.1</ele>
        <time>2020-06-26T10:08:45Z</time>
      </trkpt>
      <trkpt lat="49.60299" lon="6.13457">
        <ele>293.1</ele>
        <time>2020-06-26T10:08:46Z</time>
      </trkpt>
      <trkpt lat="49.60299" lon="6.13458">
        <ele>293.1</ele>
        <time>2020-06-26T10:08:47Z</time>
      </trkpt>
      <trkpt lat="49.60299" lon="6.13462">
        <ele>293.1</ele>
        <time>2020-06-26T10:08:48Z</time>
      </trkpt>
      <trkpt lat="49.60296" lon="6.13467">
        <ele>293.1</ele>
        <time>2020-06-26T10:08:49Z</time>
      </trkpt>
      <trkpt lat="49.60294" lon="6.1347">
        <ele>293.1</ele>
        <time>2020-06-26T10:08:50Z</time>
      </trkpt>
      <trkpt lat="49.60294" lon="6.13471">
        <ele>293.1</ele>
        <time>2020-06-26T10:08:51Z</time>
      </trkpt>
      <trkpt lat="49.60293" lon="6.13474">
        <ele>293.1</ele>
        <time>2020-06-26T10:08:52Z</time>
      </trkpt>
      <trkpt lat="49.60291" lon="6.13475">
        <ele>293.1</ele>
        <time>2020-06-26T10:08:53Z</time>
      </trkpt>
      <trkpt lat="49.60289" lon="6.13477">
        <ele>293.2</ele>
        <time>2020-06-26T10:08:54Z</time>
      </trkpt>
      <trkpt lat="49.60287" lon="6.1348">
        <ele>293.2</ele>
        <time>2020-06-26T10:08:55Z</time>
      </trkpt>
      <trkpt lat="49.60287" lon="6.13481">
        <ele>293.2</ele>
        <time>2020-06-26T10:08:56Z</time>
      </trkpt>
      <trkpt lat="49.60285" lon="6.13482">
        <ele>293.3</ele>
        <time>2020-06-26T10:08:57Z</time>
      </trkpt>
      <trkpt lat="49.60284" lon="6.13484">
        <ele>293.3</ele>
        <time>2020-06-26T10:08:58Z</time>
      </trkpt>
      <trkpt lat="49.60284" lon="6.13485">
        <ele>293.3</ele>
        <time>2020-06-26T10:08:59Z</time>
      </trkpt>
      <trkpt lat="49.60285" lon="6.13488">
        <ele>293.3</ele>
        <time>2020-06-26T10:09:00Z</time>
      </trkpt>
      <trkpt lat="49.60287" lon="6.13487">
        <ele>293.3</ele>
        <time>2020-06-26T10:09:01Z</time>
      </trkpt>
      <trkpt lat="49.60288" lon="6.13487">
        <ele>293.3</ele>
        <time>2020-06-26T10:09:02Z</time>
      </trkpt>
      <trkpt lat="49.60291" lon="6.13487">
        <ele>293.3</ele>
        <time>2020-06-26T10:09:03Z</time>
      </trkpt>
      <trkpt lat="49.60292" lon="6.13487">
        <ele>293.3</ele>
        <time>2020-06-26T10:09:04Z</time>
      </trkpt>
      <trkpt lat="49.60296" lon="6.13489">
        <ele>293.3</ele>
        <time>2020-06-26T10:09:05Z</time>
      </trkpt>
      <trkpt lat="49.60297" lon="6.1349">
        <ele>293.4</ele>
        <time>2020-06-26T10:09:06Z</time>
      </trkpt>
      <trkpt lat="49.60301" lon="6.13495">
        <ele>293.4</ele>
        <time>2020-06-26T10:09:07Z</time>
      </trkpt>
      <trkpt lat="49.60305" lon="6.135">
        <ele>293.4</ele>
        <time>2020-06-26T10:09:08Z</time>
      </trkpt>
      <trkpt lat="49.60308" lon="6.13505">
        <ele>293.4</ele>
        <time>2020-06-26T10:09:09Z</time>
      </trkpt>
      <trkpt lat="49.60311" lon="6.1351">
        <ele>293.5</ele>
        <time>2020-06-26T10:09:10Z</time>
      </trkpt>
      <trkpt lat="49.60315" lon="6.13514">
        <ele>293.5</ele>
        <time>2020-06-26T10:09:11Z</time>
      </trkpt>
      <trkpt lat="49.60319" lon="6.13518">
        <ele>293.6</ele>
        <time>2020-06-26T10:09:12Z</time>
      </trkpt>
      <trkpt lat="49.60323" lon="6.13521">
        <ele>293.6</ele>
        <time>2020-06-26T10:09:13Z</time>
      </trkpt>
      <trkpt lat="49.60327" lon="6.13525">
        <ele>293.7</ele>
        <time>2020-06-26T10:09:14Z</time>
      </trkpt>
      <trkpt lat="49.6033" lon="6.13527">
        <ele>293.8</ele>
        <time>2020-06-26T10:09:15Z</time>
      </trkpt>
      <trkpt lat="49.60335" lon="6.13531">
        <ele>293.9</ele>
        <time>2020-06-26T10:09:16Z</time>
      </trkpt>
      <trkpt lat="49.60337" lon="6.13533">
        <ele>294</ele>
        <time>2020-06-26T10:09:17Z</time>
      </trkpt>
      <trkpt lat="49.60338" lon="6.13536">
        <ele>294</ele>
        <time>2020-06-26T10:09:18Z</time>
      </trkpt>
      <trkpt lat="49.60339" lon="6.13537">
        <ele>294.1</ele>
        <time>2020-06-26T10:09:19Z</time>
      </trkpt>
      <trkpt lat="49.60341" lon="6.13537">
        <ele>294.1</ele>
        <time>2020-06-26T10:09:20Z</time>
      </trkpt>
      <trkpt lat="49.60342" lon="6.13537">
        <ele>294.2</ele>
        <time>2020-06-26T10:09:21Z</time>
      </trkpt>
      <trkpt lat="49.60343" lon="6.13537">
        <ele>294.2</ele>
        <time>2020-06-26T10:09:22Z</time>
      </trkpt>
      <trkpt lat="49.60347" lon="6.13536">
        <ele>294.3</ele>
        <time>2020-06-26T10:09:23Z</time>
      </trkpt>
      <trkpt lat="49.60348" lon="6.13535">
        <ele>294.3</ele>
        <time>2020-06-26T10:09:24Z</time>
      </trkpt>
      <trkpt lat="49.60351" lon="6.13536">
        <ele>294.4</ele>
        <time>2020-06-26T10:09:25Z</time>
      </trkpt>
      <trkpt lat="49.60354" lon="6.13536">
        <ele>294.5</ele>
        <time>2020-06-26T10:09:26Z</time>
      </trkpt>
      <trkpt lat="49.60358" lon="6.13535">
        <ele>294.6</ele>
        <time>2020-06-26T10:09:27Z</time>
      </trkpt>
      <trkpt lat="49.60359" lon="6.13535">
        <ele>294.6</ele>
        <time>2020-06-26T10:09:28Z</time>
      </trkpt>
      <trkpt lat="49.60361" lon="6.13535">
        <ele>294.7</ele>
        <time>2020-06-26T10:09:29Z</time>
      </trkpt>
      <trkpt lat="49.60362" lon="6.13536">
        <ele>294.7</ele>
        <time>2020-06-26T10:09:30Z</time>
      </trkpt>
      <trkpt lat="49.60365" lon="6.13538">
        <ele>294.8</ele>
        <time>2020-06-26T10:09:31Z</time>
      </trkpt>
      <trkpt lat="49.60365" lon="6.13539">
        <ele>294.8</ele>
        <time>2020-06-26T10:09:32Z</time>
      </trkpt>
      <trkpt lat="49.60367" lon="6.1354">
        <ele>294.9</ele>
        <time>2020-06-26T10:09:33Z</time>
      </trkpt>
      <trkpt lat="49.60368" lon="6.13541">
        <ele>294.9</ele>
        <time>2020-06-26T10:09:34Z</time>
      </trkpt>
      <trkpt lat="49.60368" lon="6.13542">
        <ele>294.9</ele>
        <time>2020-06-26T10:09:35Z</time>
      </trkpt>
      <trkpt lat="49.6037" lon="6.13544">
        <ele>294.9</ele>
        <time>2020-06-26T10:09:36Z</time>
      </trkpt>
      <trkpt lat="49.6037" lon="6.13545">
        <ele>295</ele>
        <time>2020-06-26T10:09:37Z</time>
      </trkpt>
      <trkpt lat="49.60371" lon="6.13545">
        <ele>295</ele>
        <time>2020-06-26T10:09:38Z</time>
      </trkpt>
      <trkpt lat="49.60372" lon="6.13546">
        <ele>295</ele>
        <time>2020-06-26T10:09:39Z</time>
      </trkpt>
      <trkpt lat="49.60372" lon="6.13546">
        <ele>295</ele>
        <time>2020-06-26T10:09:40Z</time>
      </trkpt>
      <trkpt lat="49.60373" lon="6.13546">
        <ele>295.1</ele>
        <time>2020-06-26T10:09:41Z</time>
      </trkpt>
      <trkpt lat="49.60381" lon="6.1355">
        <ele>295.3</ele>
        <time>2020-06-26T10:10:07Z</time>
      </trkpt>
      <trkpt lat="49.60383" lon="6.13551">
        <ele>295.3</ele>
        <time>2020-06-26T10:10:08Z</time>
      </trkpt>
      <trkpt lat="49.60385" lon="6.13555">
        <ele>295.3</ele>
        <time>2020-06-26T10:10:09Z</time>
      </trkpt>
      <trkpt lat="49.60385" lon="6.13556">
        <ele>295.4</ele>
        <time>2020-06-26T10:10:10Z</time>
      </trkpt>
      <trkpt lat="49.60387" lon="6.13559">
        <ele>295.4</ele>
        <time>2020-06-26T10:10:11Z</time>
      </trkpt>
      <trkpt lat="49.60387" lon="6.13561">
        <ele>295.4</ele>
        <time>2020-06-26T10:10:12Z</time>
      </trkpt>
      <trkpt lat="49.60388" lon="6.13566">
        <ele>295.5</ele>
        <time>2020-06-26T10:10:13Z</time>
      </trkpt>
      <trkpt lat="49.60388" lon="6.13568">
        <ele>295.5</ele>
        <time>2020-06-26T10:10:14Z</time>
      </trkpt>
      <trkpt lat="49.60389" lon="6.13577">
        <ele>295.6</ele>
        <time>2020-06-26T10:10:15Z</time>
      </trkpt>
      <trkpt lat="49.60388" lon="6.13584">
        <ele>295.7</ele>
        <time>2020-06-26T10:10:16Z</time>
      </trkpt>
      <trkpt lat="49.60387" lon="6.13588">
        <ele>295.7</ele>
        <time>2020-06-26T10:10:17Z</time>
      </trkpt>
      <trkpt lat="49.60387" lon="6.13594">
        <ele>295.8</ele>
        <time>2020-06-26T10:10:18Z</time>
      </trkpt>
      <trkpt lat="49.60388" lon="6.13596">
        <ele>295.8</ele>
        <time>2020-06-26T10:10:19Z</time>
      </trkpt>
      <trkpt lat="49.6039" lon="6.13599">
        <ele>295.9</ele>
        <time>2020-06-26T10:10:20Z</time>
      </trkpt>
      <trkpt lat="49.60394" lon="6.13601">
        <ele>295.9</ele>
        <time>2020-06-26T10:10:21Z</time>
      </trkpt>
      <trkpt lat="49.60399" lon="6.13605">
        <ele>296.1</ele>
        <time>2020-06-26T10:10:22Z</time>
      </trkpt>
      <trkpt lat="49.60401" lon="6.13606">
        <ele>296.2</ele>
        <time>2020-06-26T10:10:23Z</time>
      </trkpt>
      <trkpt lat="49.60404" lon="6.13608">
        <ele>296.3</ele>
        <time>2020-06-26T10:10:24Z</time>
      </trkpt>
      <trkpt lat="49.60407" lon="6.1361">
        <ele>296.4</ele>
        <time>2020-06-26T10:10:25Z</time>
      </trkpt>
      <trkpt lat="49.60408" lon="6.1361">
        <ele>296.5</ele>
        <time>2020-06-26T10:10:26Z</time>
      </trkpt>
      <trkpt lat="49.6041" lon="6.13612">
        <ele>296.6</ele>
        <time>2020-06-26T10:10:27Z</time>
      </trkpt>
      <trkpt lat="49.60412" lon="6.13611">
        <ele>296.6</ele>
        <time>2020-06-26T10:10:28Z</time>
      </trkpt>
      <trkpt lat="49.60413" lon="6.13613">
        <ele>296.7</ele>
        <time>2020-06-26T10:10:29Z</time>
      </trkpt>
      <trkpt lat="49.60414" lon="6.13614">
        <ele>296.7</ele>
        <time>2020-06-26T10:10:30Z</time>
      </trkpt>
      <trkpt lat="49.60414" lon="6.13615">
        <ele>296.7</ele>
        <time>2020-06-26T10:10:31Z</time>
      </trkpt>
      <trkpt lat="49.60415" lon="6.13615">
        <ele>296.8</ele>
        <time>2020-06-26T10:10:32Z</time>
      </trkpt>
      <trkpt lat="49.60415" lon="6.13616">
        <ele>296.8</ele>
        <time>2020-06-26T10:10:33Z</time>
      </trkpt>
      <trkpt lat="49.60416" lon="6.13617">
        <ele>296.8</ele>
        <time>2020-06-26T10:10:34Z</time>
      </trkpt>
      <trkpt lat="49.60417" lon="6.13618">
        <ele>296.9</ele>
        <time>2020-06-26T10:10:35Z</time>
      </trkpt>
      <trkpt lat="49.60417" lon="6.13618">
        <ele>296.9</ele>
        <time>2020-06-26T10:10:36Z</time>
      </trkpt>
      <trkpt lat="49.60416" lon="6.13617">
        <ele>296.9</ele>
        <time>2020-06-26T10:10:37Z</time>
      </trkpt>
      <trkpt lat="49.60416" lon="6.13617">
        <ele>296.9</ele>
        <time>2020-06-26T10:10:38Z</time>
      </trkpt>
      <trkpt lat="49.60416" lon="6.13616">
        <ele>296.9</ele>
        <time>2020-06-26T10:10:39Z</time>
      </trkpt>
      <trkpt lat="49.60416" lon="6.13615">
        <ele>296.9</ele>
        <time>2020-06-26T10:10:40Z</time>
      </trkpt>
      <trkpt lat="49.60417" lon="6.13616">
        <ele>297</ele>
        <time>2020-06-26T10:10:41Z</time>
      </trkpt>
      <trkpt lat="49.60418" lon="6.13617">
        <ele>297</ele>
        <time>2020-06-26T10:10:42Z</time>
      </trkpt>
      <trkpt lat="49.6042" lon="6.13621">
        <ele>297.1</ele>
        <time>2020-06-26T10:10:43Z</time>
      </trkpt>
      <trkpt lat="49.60421" lon="6.13623">
        <ele>297.2</ele>
        <time>2020-06-26T10:10:44Z</time>
      </trkpt>
      <trkpt lat="49.60421" lon="6.13625">
        <ele>297.2</ele>
        <time>2020-06-26T10:10:45Z</time>
      </trkpt>
      <trkpt lat="49.6042" lon="6.13631">
        <ele>297.4</ele>
        <time>2020-06-26T10:10:46Z</time>
      </trkpt>
      <trkpt lat="49.60419" lon="6.13635">
        <ele>297.4</ele>
        <time>2020-06-26T10:10:47Z</time>
      </trkpt>
      <trkpt lat="49.60417" lon="6.13639">
        <ele>297.5</ele>
        <time>2020-06-26T10:10:48Z</time>
      </trkpt>
      <trkpt lat="49.60415" lon="6.13642">
        <ele>297.6</ele>
        <time>2020-06-26T10:10:49Z</time>
      </trkpt>
      <trkpt lat="49.60412" lon="6.13646">
        <ele>297.7</ele>
        <time>2020-06-26T10:10:50Z</time>
      </trkpt>
      <trkpt lat="49.6041" lon="6.13653">
        <ele>297.8</ele>
        <time>2020-06-26T10:10:51Z</time>
      </trkpt>
      <trkpt lat="49.60407" lon="6.13659">
        <ele>297.9</ele>
        <time>2020-06-26T10:10:52Z</time>
      </trkpt>
      <trkpt lat="49.60405" lon="6.13664">
        <ele>298</ele>
        <time>2020-06-26T10:10:53Z</time>
      </trkpt>
      <trkpt lat="49.60403" lon="6.1367">
        <ele>298</ele>
        <time>2020-06-26T10:10:54Z</time>
      </trkpt>
      <trkpt lat="49.604" lon="6.13676">
        <ele>297.9</ele>
        <time>2020-06-26T10:10:55Z</time>
      </trkpt>
      <trkpt lat="49.60397" lon="6.13683">
        <ele>297.9</ele>
        <time>2020-06-26T10:10:56Z</time>
      </trkpt>
      <trkpt lat="49.60395" lon="6.1369">
        <ele>297.9</ele>
        <time>2020-06-26T10:10:57Z</time>
      </trkpt>
      <trkpt lat="49.60391" lon="6.13695">
        <ele>297.8</ele>
        <time>2020-06-26T10:10:58Z</time>
      </trkpt>
      <trkpt lat="49.60388" lon="6.137">
        <ele>297.7</ele>
        <time>2020-06-26T10:10:59Z</time>
      </trkpt>
      <trkpt lat="49.60384" lon="6.13705">
        <ele>297.6</ele>
        <time>2020-06-26T10:11:00Z</time>
      </trkpt>
      <trkpt lat="49.6038" lon="6.13712">
        <ele>297.5</ele>
        <time>2020-06-26T10:11:01Z</time>
      </trkpt>
      <trkpt lat="49.60378" lon="6.13714">
        <ele>297.4</ele>
        <time>2020-06-26T10:11:02Z</time>
      </trkpt>
      <trkpt lat="49.60374" lon="6.13718">
        <ele>297.3</ele>
        <time>2020-06-26T10:11:03Z</time>
      </trkpt>
      <trkpt lat="49.60369" lon="6.13724">
        <ele>297.2</ele>
        <time>2020-06-26T10:11:04Z</time>
      </trkpt>
      <trkpt lat="49.60363" lon="6.13729">
        <ele>297.1</ele>
        <time>2020-06-26T10:11:05Z</time>
      </trkpt>
      <trkpt lat="49.60359" lon="6.13735">
        <ele>297</ele>
        <time>2020-06-26T10:11:06Z</time>
      </trkpt>
      <trkpt lat="49.60355" lon="6.1374">
        <ele>296.9</ele>
        <time>2020-06-26T10:11:07Z</time>
      </trkpt>
      <trkpt lat="49.6035" lon="6.13746">
        <ele>296.8</ele>
        <time>2020-06-26T10:11:08Z</time>
      </trkpt>
      <trkpt lat="49.60345" lon="6.13753">
        <ele>296.7</ele>
        <time>2020-06-26T10:11:09Z</time>
      </trkpt>
      <trkpt lat="49.60341" lon="6.13759">
        <ele>296.6</ele>
        <time>2020-06-26T10:11:10Z</time>
      </trkpt>
      <trkpt lat="49.60337" lon="6.13765">
        <ele>296.5</ele>
        <time>2020-06-26T10:11:11Z</time>
      </trkpt>
      <trkpt lat="49.60333" lon="6.13771">
        <ele>296.3</ele>
        <time>2020-06-26T10:11:12Z</time>
      </trkpt>
      <trkpt lat="49.60328" lon="6.13777">
        <ele>296.2</ele>
        <time>2020-06-26T10:11:13Z</time>
      </trkpt>
      <trkpt lat="49.60323" lon="6.13783">
        <ele>296</ele>
        <time>2020-06-26T10:11:14Z</time>
      </trkpt>
      <trkpt lat="49.60318" lon="6.13789">
        <ele>295.7</ele>
        <time>2020-06-26T10:11:15Z</time>
      </trkpt>
      <trkpt lat="49.60313" lon="6.13794">
        <ele>295.3</ele>
        <time>2020-06-26T10:11:16Z</time>
      </trkpt>
      <trkpt lat="49.60309" lon="6.13799">
        <ele>295.1</ele>
        <time>2020-06-26T10:11:17Z</time>
      </trkpt>
      <trkpt lat="49.60305" lon="6.13804">
        <ele>294.8</ele>
        <time>2020-06-26T10:11:18Z</time>
      </trkpt>
      <trkpt lat="49.603" lon="6.13809">
        <ele>294.5</ele>
        <time>2020-06-26T10:11:19Z</time>
      </trkpt>
      <trkpt lat="49.60295" lon="6.13814">
        <ele>294.1</ele>
        <time>2020-06-26T10:11:20Z</time>
      </trkpt>
      <trkpt lat="49.60291" lon="6.13819">
        <ele>293.8</ele>
        <time>2020-06-26T10:11:21Z</time>
      </trkpt>
      <trkpt lat="49.60286" lon="6.13826">
        <ele>293.4</ele>
        <time>2020-06-26T10:11:22Z</time>
      </trkpt>
      <trkpt lat="49.60282" lon="6.1383">
        <ele>293.1</ele>
        <time>2020-06-26T10:11:23Z</time>
      </trkpt>
      <trkpt lat="49.60276" lon="6.13837">
        <ele>292.7</ele>
        <time>2020-06-26T10:11:24Z</time>
      </trkpt>
      <trkpt lat="49.60271" lon="6.13845">
        <ele>292.2</ele>
        <time>2020-06-26T10:11:25Z</time>
      </trkpt>
      <trkpt lat="49.60266" lon="6.13852">
        <ele>291.9</ele>
        <time>2020-06-26T10:11:26Z</time>
      </trkpt>
      <trkpt lat="49.60262" lon="6.13857">
        <ele>291.5</ele>
        <time>2020-06-26T10:11:27Z</time>
      </trkpt>
      <trkpt lat="49.60258" lon="6.13862">
        <ele>291.2</ele>
        <time>2020-06-26T10:11:28Z</time>
      </trkpt>
      <trkpt lat="49.60254" lon="6.13866">
        <ele>291</ele>
        <time>2020-06-26T10:11:29Z</time>
      </trkpt>
      <trkpt lat="49.6025" lon="6.13871">
        <ele>290.7</ele>
        <time>2020-06-26T10:11:30Z</time>
      </trkpt>
      <trkpt lat="49.60246" lon="6.13875">
        <ele>290.4</ele>
        <time>2020-06-26T10:11:31Z</time>
      </trkpt>
      <trkpt lat="49.60242" lon="6.13881">
        <ele>290.2</ele>
        <time>2020-06-26T10:11:32Z</time>
      </trkpt>
      <trkpt lat="49.60239" lon="6.13887">
        <ele>289.9</ele>
        <time>2020-06-26T10:11:33Z</time>
      </trkpt>
      <trkpt lat="49.60235" lon="6.13892">
        <ele>289.7</ele>
        <time>2020-06-26T10:11:34Z</time>
      </trkpt>
      <trkpt lat="49.60232" lon="6.13897">
        <ele>289.5</ele>
        <time>2020-06-26T10:11:35Z</time>
      </trkpt>
      <trkpt lat="49.60228" lon="6.13901">
        <ele>289.3</ele>
        <time>2020-06-26T10:11:36Z</time>
      </trkpt>
      <trkpt lat="49.60221" lon="6.13906">
        <ele>289</ele>
        <time>2020-06-26T10:11:37Z</time>
      </trkpt>
      <trkpt lat="49.60217" lon="6.13909">
        <ele>288.8</ele>
        <time>2020-06-26T10:11:38Z</time>
      </trkpt>
      <trkpt lat="49.60213" lon="6.13913">
        <ele>288.6</ele>
        <time>2020-06-26T10:11:39Z</time>
      </trkpt>
      <trkpt lat="49.60209" lon="6.13918">
        <ele>288.4</ele>
        <time>2020-06-26T10:11:40Z</time>
      </trkpt>
      <trkpt lat="49.60205" lon="6.13924">
        <ele>288.2</ele>
        <time>2020-06-26T10:11:41Z</time>
      </trkpt>
      <trkpt lat="49.60198" lon="6.1393">
        <ele>288</ele>
        <time>2020-06-26T10:11:42Z</time>
      </trkpt>
      <trkpt lat="49.60192" lon="6.13935">
        <ele>287.7</ele>
        <time>2020-06-26T10:11:43Z</time>
      </trkpt>
      <trkpt lat="49.60185" lon="6.13942">
        <ele>287.4</ele>
        <time>2020-06-26T10:11:44Z</time>
      </trkpt>
      <trkpt lat="49.60181" lon="6.13946">
        <ele>287.2</ele>
        <time>2020-06-26T10:11:45Z</time>
      </trkpt>
      <trkpt lat="49.60176" lon="6.13951">
        <ele>287</ele>
        <time>2020-06-26T10:11:46Z</time>
      </trkpt>
      <trkpt lat="49.60172" lon="6.13956">
        <ele>286.8</ele>
        <time>2020-06-26T10:11:47Z</time>
      </trkpt>
      <trkpt lat="49.60168" lon="6.13961">
        <ele>286.6</ele>
        <time>2020-06-26T10:11:48Z</time>
      </trkpt>
      <trkpt lat="49.60163" lon="6.13965">
        <ele>286.4</ele>
        <time>2020-06-26T10:11:49Z</time>
      </trkpt>
      <trkpt lat="49.60158" lon="6.13969">
        <ele>286.2</ele>
        <time>2020-06-26T10:11:50Z</time>
      </trkpt>
      <trkpt lat="49.60152" lon="6.13972">
        <ele>285.9</ele>
        <time>2020-06-26T10:11:51Z</time>
      </trkpt>
      <trkpt lat="49.60147" lon="6.13974">
        <ele>285.8</ele>
        <time>2020-06-26T10:11:52Z</time>
      </trkpt>
      <trkpt lat="49.60144" lon="6.13973">
        <ele>285.7</ele>
        <time>2020-06-26T10:11:53Z</time>
      </trkpt>
      <trkpt lat="49.60138" lon="6.13972">
        <ele>285.5</ele>
        <time>2020-06-26T10:11:54Z</time>
      </trkpt>
      <trkpt lat="49.60135" lon="6.13972">
        <ele>285.4</ele>
        <time>2020-06-26T10:11:55Z</time>
      </trkpt>
      <trkpt lat="49.60133" lon="6.13973">
        <ele>285.4</ele>
        <time>2020-06-26T10:11:56Z</time>
      </trkpt>
      <trkpt lat="49.60133" lon="6.13973">
        <ele>285.4</ele>
        <time>2020-06-26T10:11:57Z</time>
      </trkpt>
      <trkpt lat="49.60132" lon="6.13972">
        <ele>285.3</ele>
        <time>2020-06-26T10:11:58Z</time>
      </trkpt>
      <trkpt lat="49.60132" lon="6.13972">
        <ele>285.3</ele>
        <time>2020-06-26T10:11:59Z</time>
      </trkpt>
      <trkpt lat="49.60131" lon="6.13971">
        <ele>285.3</ele>
        <time>2020-06-26T10:12:00Z</time>
      </trkpt>
      <trkpt lat="49.60131" lon="6.13971">
        <ele>285.3</ele>
        <time>2020-06-26T10:12:01Z</time>
      </trkpt>
      <trkpt lat="49.60131" lon="6.13971">
        <ele>285.3</ele>
        <time>2020-06-26T10:12:02Z</time>
      </trkpt>
      <trkpt lat="49.6013" lon="6.13972">
        <ele>285.3</ele>
        <time>2020-06-26T10:12:03Z</time>
      </trkpt>
      <trkpt lat="49.6013" lon="6.13972">
        <ele>285.3</ele>
        <time>2020-06-26T10:12:04Z</time>
      </trkpt>
      <trkpt lat="49.6013" lon="6.13971">
        <ele>285.2</ele>
        <time>2020-06-26T10:12:05Z</time>
      </trkpt>
      <trkpt lat="49.6013" lon="6.13972">
        <ele>285.2</ele>
        <time>2020-06-26T10:12:06Z</time>
      </trkpt>
      <trkpt lat="49.60129" lon="6.13972">
        <ele>285.2</ele>
        <time>2020-06-26T10:12:07Z</time>
      </trkpt>
      <trkpt lat="49.60129" lon="6.13972">
        <ele>285.2</ele>
        <time>2020-06-26T10:12:08Z</time>
      </trkpt>
      <trkpt lat="49.60128" lon="6.13972">
        <ele>285.2</ele>
        <time>2020-06-26T10:12:09Z</time>
      </trkpt>
      <trkpt lat="49.60128" lon="6.13972">
        <ele>285.2</ele>
        <time>2020-06-26T10:12:10Z</time>
      </trkpt>
      <trkpt lat="49.60128" lon="6.13972">
        <ele>285.2</ele>
        <time>2020-06-26T10:12:11Z</time>
      </trkpt>
      <trkpt lat="49.60127" lon="6.13973">
        <ele>285.2</ele>
        <time>2020-06-26T10:12:12Z</time>
      </trkpt>
      <trkpt lat="49.60128" lon="6.13973">
        <ele>285.2</ele>
        <time>2020-06-26T10:12:13Z</time>
      </trkpt>
      <trkpt lat="49.60128" lon="6.13973">
        <ele>285.2</ele>
        <time>2020-06-26T10:12:14Z</time>
      </trkpt>
      <trkpt lat="49.60127" lon="6.13972">
        <ele>285.1</ele>
        <time>2020-06-26T10:12:15Z</time>
      </trkpt>
      <trkpt lat="49.60127" lon="6.13972">
        <ele>285.1</ele>
        <time>2020-06-26T10:12:16Z</time>
      </trkpt>
      <trkpt lat="49.60126" lon="6.13972">
        <ele>285.1</ele>
        <time>2020-06-26T10:12:17Z</time>
      </trkpt>
      <trkpt lat="49.60126" lon="6.13972">
        <ele>285.1</ele>
        <time>2020-06-26T10:12:18Z</time>
      </trkpt>
      <trkpt lat="49.60126" lon="6.13972">
        <ele>285.1</ele>
        <time>2020-06-26T10:12:19Z</time>
      </trkpt>
      <trkpt lat="49.60126" lon="6.13972">
        <ele>285.1</ele>
        <time>2020-06-26T10:12:20Z</time>
      </trkpt>
      <trkpt lat="49.60125" lon="6.13973">
        <ele>285.1</ele>
        <time>2020-06-26T10:12:21Z</time>
      </trkpt>
      <trkpt lat="49.60125" lon="6.13973">
        <ele>285.1</ele>
        <time>2020-06-26T10:12:22Z</time>
      </trkpt>
      <trkpt lat="49.60124" lon="6.13973">
        <ele>285.1</ele>
        <time>2020-06-26T10:12:23Z</time>
      </trkpt>
      <trkpt lat="49.60124" lon="6.13973">
        <ele>285</ele>
        <time>2020-06-26T10:12:24Z</time>
      </trkpt>
      <trkpt lat="49.60124" lon="6.13973">
        <ele>285</ele>
        <time>2020-06-26T10:12:25Z</time>
      </trkpt>
      <trkpt lat="49.60123" lon="6.13974">
        <ele>285</ele>
        <time>2020-06-26T10:12:26Z</time>
      </trkpt>
      <trkpt lat="49.60123" lon="6.13974">
        <ele>285</ele>
        <time>2020-06-26T10:12:27Z</time>
      </trkpt>
      <trkpt lat="49.60122" lon="6.13974">
        <ele>285</ele>
        <time>2020-06-26T10:12:28Z</time>
      </trkpt>
      <trkpt lat="49.60122" lon="6.13974">
        <ele>285</ele>
        <time>2020-06-26T10:12:29Z</time>
      </trkpt>
      <trkpt lat="49.60121" lon="6.1398">
        <ele>284.8</ele>
        <time>2020-06-26T10:12:30Z</time>
      </trkpt>
      <trkpt lat="49.60121" lon="6.13982">
        <ele>284.8</ele>
        <time>2020-06-26T10:12:31Z</time>
      </trkpt>
      <trkpt lat="49.6012" lon="6.13984">
        <ele>284.8</ele>
        <time>2020-06-26T10:12:32Z</time>
      </trkpt>
      <trkpt lat="49.60119" lon="6.13984">
        <ele>284.7</ele>
        <time>2020-06-26T10:12:33Z</time>
      </trkpt>
      <trkpt lat="49.60119" lon="6.13985">
        <ele>284.7</ele>
        <time>2020-06-26T10:12:34Z</time>
      </trkpt>
      <trkpt lat="49.60118" lon="6.13985">
        <ele>284.7</ele>
        <time>2020-06-26T10:12:35Z</time>
      </trkpt>
      <trkpt lat="49.60117" lon="6.13985">
        <ele>284.7</ele>
        <time>2020-06-26T10:12:36Z</time>
      </trkpt>
      <trkpt lat="49.60115" lon="6.13987">
        <ele>284.6</ele>
        <time>2020-06-26T10:12:37Z</time>
      </trkpt>
      <trkpt lat="49.60111" lon="6.13989">
        <ele>284.5</ele>
        <time>2020-06-26T10:12:38Z</time>
      </trkpt>
      <trkpt lat="49.60108" lon="6.13991">
        <ele>284.4</ele>
        <time>2020-06-26T10:12:39Z</time>
      </trkpt>
      <trkpt lat="49.60105" lon="6.13993">
        <ele>284.3</ele>
        <time>2020-06-26T10:12:40Z</time>
      </trkpt>
      <trkpt lat="49.60104" lon="6.13994">
        <ele>284.2</ele>
        <time>2020-06-26T10:12:41Z</time>
      </trkpt>
      <trkpt lat="49.601" lon="6.13997">
        <ele>284.1</ele>
        <time>2020-06-26T10:12:42Z</time>
      </trkpt>
      <trkpt lat="49.60097" lon="6.14">
        <ele>284</ele>
        <time>2020-06-26T10:12:43Z</time>
      </trkpt>
      <trkpt lat="49.60093" lon="6.14004">
        <ele>283.8</ele>
        <time>2020-06-26T10:12:44Z</time>
      </trkpt>
      <trkpt lat="49.60088" lon="6.14008">
        <ele>283.7</ele>
        <time>2020-06-26T10:12:45Z</time>
      </trkpt>
      <trkpt lat="49.60083" lon="6.14012">
        <ele>283.5</ele>
        <time>2020-06-26T10:12:46Z</time>
      </trkpt>
      <trkpt lat="49.60079" lon="6.14016">
        <ele>283.3</ele>
        <time>2020-06-26T10:12:47Z</time>
      </trkpt>
      <trkpt lat="49.60075" lon="6.1402">
        <ele>283.2</ele>
        <time>2020-06-26T10:12:48Z</time>
      </trkpt>
      <trkpt lat="49.60072" lon="6.14022">
        <ele>283.1</ele>
        <time>2020-06-26T10:12:49Z</time>
      </trkpt>
      <trkpt lat="49.60066" lon="6.14024">
        <ele>282.9</ele>
        <time>2020-06-26T10:12:50Z</time>
      </trkpt>
      <trkpt lat="49.60061" lon="6.14024">
        <ele>282.8</ele>
        <time>2020-06-26T10:12:51Z</time>
      </trkpt>
      <trkpt lat="49.60058" lon="6.14027">
        <ele>282.7</ele>
        <time>2020-06-26T10:12:52Z</time>
      </trkpt>
      <trkpt lat="49.60058" lon="6.14027">
        <ele>282.7</ele>
        <time>2020-06-26T10:12:53Z</time>
      </trkpt>
      <trkpt lat="49.60056" lon="6.14028">
        <ele>282.7</ele>
        <time>2020-06-26T10:12:54Z</time>
      </trkpt>
      <trkpt lat="49.60055" lon="6.14028">
        <ele>282.6</ele>
        <time>2020-06-26T10:12:55Z</time>
      </trkpt>
      <trkpt lat="49.60052" lon="6.1403">
        <ele>282.6</ele>
        <time>2020-06-26T10:12:56Z</time>
      </trkpt>
      <trkpt lat="49.60051" lon="6.14031">
        <ele>282.6</ele>
        <time>2020-06-26T10:12:57Z</time>
      </trkpt>
      <trkpt lat="49.60049" lon="6.14034">
        <ele>282.5</ele>
        <time>2020-06-26T10:12:58Z</time>
      </trkpt>
      <trkpt lat="49.60048" lon="6.14035">
        <ele>282.4</ele>
        <time>2020-06-26T10:12:59Z</time>
      </trkpt>
      <trkpt lat="49.60045" lon="6.14039">
        <ele>282.3</ele>
        <time>2020-06-26T10:13:00Z</time>
      </trkpt>
      <trkpt lat="49.60045" lon="6.1404">
        <ele>282.3</ele>
        <time>2020-06-26T10:13:01Z</time>
      </trkpt>
      <trkpt lat="49.60041" lon="6.14043">
        <ele>282.2</ele>
        <time>2020-06-26T10:13:02Z</time>
      </trkpt>
      <trkpt lat="49.60036" lon="6.14046">
        <ele>282.1</ele>
        <time>2020-06-26T10:13:03Z</time>
      </trkpt>
      <trkpt lat="49.60031" lon="6.14047">
        <ele>282</ele>
        <time>2020-06-26T10:13:04Z</time>
      </trkpt>
      <trkpt lat="49.60027" lon="6.14048">
        <ele>281.9</ele>
        <time>2020-06-26T10:13:05Z</time>
      </trkpt>
      <trkpt lat="49.60022" lon="6.14049">
        <ele>281.8</ele>
        <time>2020-06-26T10:13:06Z</time>
      </trkpt>
      <trkpt lat="49.60018" lon="6.1405">
        <ele>281.7</ele>
        <time>2020-06-26T10:13:07Z</time>
      </trkpt>
      <trkpt lat="49.60013" lon="6.1405">
        <ele>281.6</ele>
        <time>2020-06-26T10:13:08Z</time>
      </trkpt>
      <trkpt lat="49.60009" lon="6.14051">
        <ele>281.5</ele>
        <time>2020-06-26T10:13:09Z</time>
      </trkpt>
      <trkpt lat="49.60004" lon="6.1405">
        <ele>281.4</ele>
        <time>2020-06-26T10:13:10Z</time>
      </trkpt>
      <trkpt lat="49.59999" lon="6.14048">
        <ele>281.3</ele>
        <time>2020-06-26T10:13:11Z</time>
      </trkpt>
      <trkpt lat="49.59994" lon="6.14046">
        <ele>281.2</ele>
        <time>2020-06-26T10:13:12Z</time>
      </trkpt>
      <trkpt lat="49.5999" lon="6.14044">
        <ele>281.1</ele>
        <time>2020-06-26T10:13:13Z</time>
      </trkpt>
      <trkpt lat="49.59986" lon="6.14042">
        <ele>281</ele>
        <time>2020-06-26T10:13:14Z</time>
      </trkpt>
      <trkpt lat="49.59981" lon="6.14039">
        <ele>280.9</ele>
        <time>2020-06-26T10:13:15Z</time>
      </trkpt>
      <trkpt lat="49.59975" lon="6.14036">
        <ele>280.8</ele>
        <time>2020-06-26T10:13:16Z</time>
      </trkpt>
      <trkpt lat="49.59969" lon="6.14033">
        <ele>280.6</ele>
        <time>2020-06-26T10:13:17Z</time>
      </trkpt>
      <trkpt lat="49.59963" lon="6.1403">
        <ele>280.5</ele>
        <time>2020-06-26T10:13:18Z</time>
      </trkpt>
      <trkpt lat="49.59958" lon="6.14028">
        <ele>280.4</ele>
        <time>2020-06-26T10:13:19Z</time>
      </trkpt>
      <trkpt lat="49.59953" lon="6.14024">
        <ele>280.3</ele>
        <time>2020-06-26T10:13:20Z</time>
      </trkpt>
      <trkpt lat="49.59947" lon="6.14021">
        <ele>280.2</ele>
        <time>2020-06-26T10:13:21Z</time>
      </trkpt>
      <trkpt lat="49.59942" lon="6.14019">
        <ele>280.1</ele>
        <time>2020-06-26T10:13:22Z</time>
      </trkpt>
      <trkpt lat="49.59938" lon="6.14017">
        <ele>280.1</ele>
        <time>2020-06-26T10:13:23Z</time>
      </trkpt>
      <trkpt lat="49.59933" lon="6.14015">
        <ele>280</ele>
        <time>2020-06-26T10:13:24Z</time>
      </trkpt>
      <trkpt lat="49.59928" lon="6.14011">
        <ele>279.8</ele>
        <time>2020-06-26T10:13:25Z</time>
      </trkpt>
      <trkpt lat="49.59924" lon="6.14009">
        <ele>279.8</ele>
        <time>2020-06-26T10:13:26Z</time>
      </trkpt>
      <trkpt lat="49.5992" lon="6.14007">
        <ele>279.7</ele>
        <time>2020-06-26T10:13:27Z</time>
      </trkpt>
      <trkpt lat="49.59917" lon="6.14006">
        <ele>279.6</ele>
        <time>2020-06-26T10:13:28Z</time>
      </trkpt>
      <trkpt lat="49.59914" lon="6.14004">
        <ele>279.6</ele>
        <time>2020-06-26T10:13:29Z</time>
      </trkpt>
      <trkpt lat="49.59914" lon="6.14003">
        <ele>279.5</ele>
        <time>2020-06-26T10:13:30Z</time>
      </trkpt>
      <trkpt lat="49.59913" lon="6.14002">
        <ele>279.5</ele>
        <time>2020-06-26T10:13:31Z</time>
      </trkpt>
      <trkpt lat="49.59912" lon="6.14">
        <ele>279.5</ele>
        <time>2020-06-26T10:13:32Z</time>
      </trkpt>
      <trkpt lat="49.59911" lon="6.14">
        <ele>279.5</ele>
        <time>2020-06-26T10:13:33Z</time>
      </trkpt>
      <trkpt lat="49.5991" lon="6.14">
        <ele>279.5</ele>
        <time>2020-06-26T10:13:34Z</time>
      </trkpt>
      <trkpt lat="49.59909" lon="6.14">
        <ele>279.5</ele>
        <time>2020-06-26T10:13:35Z</time>
      </trkpt>
      <trkpt lat="49.59908" lon="6.14001">
        <ele>279.4</ele>
        <time>2020-06-26T10:13:36Z</time>
      </trkpt>
      <trkpt lat="49.59904" lon="6.14002">
        <ele>279.4</ele>
        <time>2020-06-26T10:13:37Z</time>
      </trkpt>
      <trkpt lat="49.59903" lon="6.14003">
        <ele>279.3</ele>
        <time>2020-06-26T10:13:38Z</time>
      </trkpt>
      <trkpt lat="49.59899" lon="6.14003">
        <ele>279.2</ele>
        <time>2020-06-26T10:13:39Z</time>
      </trkpt>
      <trkpt lat="49.59895" lon="6.14003">
        <ele>279.2</ele>
        <time>2020-06-26T10:13:40Z</time>
      </trkpt>
      <trkpt lat="49.59892" lon="6.14002">
        <ele>279.1</ele>
        <time>2020-06-26T10:13:41Z</time>
      </trkpt>
      <trkpt lat="49.59888" lon="6.14002">
        <ele>279</ele>
        <time>2020-06-26T10:13:42Z</time>
      </trkpt>
      <trkpt lat="49.59883" lon="6.14002">
        <ele>278.9</ele>
        <time>2020-06-26T10:13:43Z</time>
      </trkpt>
      <trkpt lat="49.59879" lon="6.14003">
        <ele>278.8</ele>
        <time>2020-06-26T10:13:44Z</time>
      </trkpt>
      <trkpt lat="49.59874" lon="6.14003">
        <ele>278.7</ele>
        <time>2020-06-26T10:13:45Z</time>
      </trkpt>
      <trkpt lat="49.59869" lon="6.14003">
        <ele>278.5</ele>
        <time>2020-06-26T10:13:46Z</time>
      </trkpt>
      <trkpt lat="49.59866" lon="6.14005">
        <ele>278.4</ele>
        <time>2020-06-26T10:13:47Z</time>
      </trkpt>
      <trkpt lat="49.59863" lon="6.14006">
        <ele>278.3</ele>
        <time>2020-06-26T10:13:48Z</time>
      </trkpt>
      <trkpt lat="49.5986" lon="6.14007">
        <ele>278.2</ele>
        <time>2020-06-26T10:13:49Z</time>
      </trkpt>
      <trkpt lat="49.59857" lon="6.14008">
        <ele>278.1</ele>
        <time>2020-06-26T10:13:50Z</time>
      </trkpt>
      <trkpt lat="49.59853" lon="6.14009">
        <ele>278</ele>
        <time>2020-06-26T10:13:51Z</time>
      </trkpt>
      <trkpt lat="49.59848" lon="6.1401">
        <ele>277.8</ele>
        <time>2020-06-26T10:13:52Z</time>
      </trkpt>
      <trkpt lat="49.59843" lon="6.14011">
        <ele>277.5</ele>
        <time>2020-06-26T10:13:53Z</time>
      </trkpt>
      <trkpt lat="49.59838" lon="6.14013">
        <ele>277.3</ele>
        <time>2020-06-26T10:13:54Z</time>
      </trkpt>
      <trkpt lat="49.59833" lon="6.14013">
        <ele>277</ele>
        <time>2020-06-26T10:13:55Z</time>
      </trkpt>
      <trkpt lat="49.59826" lon="6.14013">
        <ele>276.7</ele>
        <time>2020-06-26T10:13:56Z</time>
      </trkpt>
      <trkpt lat="49.5982" lon="6.14013">
        <ele>276.6</ele>
        <time>2020-06-26T10:13:57Z</time>
      </trkpt>
      <trkpt lat="49.59814" lon="6.14013">
        <ele>276.6</ele>
        <time>2020-06-26T10:13:58Z</time>
      </trkpt>
      <trkpt lat="49.59808" lon="6.14013">
        <ele>276.6</ele>
        <time>2020-06-26T10:13:59Z</time>
      </trkpt>
      <trkpt lat="49.59802" lon="6.14013">
        <ele>276.5</ele>
        <time>2020-06-26T10:14:00Z</time>
      </trkpt>
      <trkpt lat="49.59796" lon="6.14014">
        <ele>276.5</ele>
        <time>2020-06-26T10:14:01Z</time>
      </trkpt>
      <trkpt lat="49.59791" lon="6.14014">
        <ele>276.6</ele>
        <time>2020-06-26T10:14:02Z</time>
      </trkpt>
      <trkpt lat="49.59786" lon="6.14015">
        <ele>276.7</ele>
        <time>2020-06-26T10:14:03Z</time>
      </trkpt>
      <trkpt lat="49.59782" lon="6.14016">
        <ele>276.8</ele>
        <time>2020-06-26T10:14:04Z</time>
      </trkpt>
      <trkpt lat="49.59778" lon="6.14016">
        <ele>276.9</ele>
        <time>2020-06-26T10:14:05Z</time>
      </trkpt>
      <trkpt lat="49.59775" lon="6.14017">
        <ele>277</ele>
        <time>2020-06-26T10:14:06Z</time>
      </trkpt>
      <trkpt lat="49.59772" lon="6.14016">
        <ele>277.1</ele>
        <time>2020-06-26T10:14:07Z</time>
      </trkpt>
      <trkpt lat="49.59769" lon="6.14016">
        <ele>277.1</ele>
        <time>2020-06-26T10:14:08Z</time>
      </trkpt>
      <trkpt lat="49.59767" lon="6.14016">
        <ele>277.2</ele>
        <time>2020-06-26T10:14:09Z</time>
      </trkpt>
      <trkpt lat="49.59766" lon="6.14015">
        <ele>277.2</ele>
        <time>2020-06-26T10:14:10Z</time>
      </trkpt>
      <trkpt lat="49.59764" lon="6.14015">
        <ele>277.3</ele>
        <time>2020-06-26T10:14:11Z</time>
      </trkpt>
      <trkpt lat="49.59763" lon="6.14014">
        <ele>277.3</ele>
        <time>2020-06-26T10:14:12Z</time>
      </trkpt>
      <trkpt lat="49.59761" lon="6.14012">
        <ele>277.4</ele>
        <time>2020-06-26T10:14:13Z</time>
      </trkpt>
      <trkpt lat="49.59761" lon="6.1401">
        <ele>277.4</ele>
        <time>2020-06-26T10:14:14Z</time>
      </trkpt>
      <trkpt lat="49.5976" lon="6.14009">
        <ele>277.4</ele>
        <time>2020-06-26T10:14:15Z</time>
      </trkpt>
      <trkpt lat="49.59759" lon="6.14008">
        <ele>277.4</ele>
        <time>2020-06-26T10:14:16Z</time>
      </trkpt>
      <trkpt lat="49.59759" lon="6.14007">
        <ele>277.5</ele>
        <time>2020-06-26T10:14:17Z</time>
      </trkpt>
      <trkpt lat="49.59758" lon="6.14006">
        <ele>277.5</ele>
        <time>2020-06-26T10:14:18Z</time>
      </trkpt>
      <trkpt lat="49.59757" lon="6.14006">
        <ele>277.5</ele>
        <time>2020-06-26T10:14:19Z</time>
      </trkpt>
      <trkpt lat="49.59756" lon="6.14006">
        <ele>277.5</ele>
        <time>2020-06-26T10:14:20Z</time>
      </trkpt>
      <trkpt lat="49.59755" lon="6.14006">
        <ele>277.6</ele>
        <time>2020-06-26T10:14:21Z</time>
      </trkpt>
      <trkpt lat="49.59755" lon="6.14006">
        <ele>277.6</ele>
        <time>2020-06-26T10:14:22Z</time>
      </trkpt>
      <trkpt lat="49.59756" lon="6.14006">
        <ele>277.6</ele>
        <time>2020-06-26T10:14:23Z</time>
      </trkpt>
      <trkpt lat="49.59756" lon="6.14006">
        <ele>277.6</ele>
        <time>2020-06-26T10:14:24Z</time>
      </trkpt>
      <trkpt lat="49.59755" lon="6.14005">
        <ele>277.6</ele>
        <time>2020-06-26T10:14:25Z</time>
      </trkpt>
      <trkpt lat="49.59755" lon="6.14005">
        <ele>277.6</ele>
        <time>2020-06-26T10:14:26Z</time>
      </trkpt>
      <trkpt lat="49.59756" lon="6.14006">
        <ele>277.6</ele>
        <time>2020-06-26T10:14:27Z</time>
      </trkpt>
      <trkpt lat="49.59757" lon="6.14006">
        <ele>277.7</ele>
        <time>2020-06-26T10:14:28Z</time>
      </trkpt>
      <trkpt lat="49.59757" lon="6.14007">
        <ele>277.7</ele>
        <time>2020-06-26T10:14:29Z</time>
      </trkpt>
      <trkpt lat="49.59757" lon="6.14007">
        <ele>277.7</ele>
        <time>2020-06-26T10:14:30Z</time>
      </trkpt>
      <trkpt lat="49.59758" lon="6.14008">
        <ele>277.7</ele>
        <time>2020-06-26T10:14:31Z</time>
      </trkpt>
      <trkpt lat="49.59758" lon="6.14008">
        <ele>277.7</ele>
        <time>2020-06-26T10:14:32Z</time>
      </trkpt>
      <trkpt lat="49.59758" lon="6.14009">
        <ele>277.7</ele>
        <time>2020-06-26T10:14:33Z</time>
      </trkpt>
      <trkpt lat="49.59758" lon="6.14009">
        <ele>277.7</ele>
        <time>2020-06-26T10:14:34Z</time>
      </trkpt>
      <trkpt lat="49.59758" lon="6.1401">
        <ele>277.7</ele>
        <time>2020-06-26T10:14:35Z</time>
      </trkpt>
      <trkpt lat="49.59758" lon="6.14009">
        <ele>277.8</ele>
        <time>2020-06-26T10:14:36Z</time>
      </trkpt>
      <trkpt lat="49.59759" lon="6.14009">
        <ele>277.8</ele>
        <time>2020-06-26T10:14:37Z</time>
      </trkpt>
      <trkpt lat="49.59758" lon="6.1401">
        <ele>277.8</ele>
        <time>2020-06-26T10:14:38Z</time>
      </trkpt>
      <trkpt lat="49.59757" lon="6.1401">
        <ele>277.8</ele>
        <time>2020-06-26T10:14:39Z</time>
      </trkpt>
      <trkpt lat="49.59755" lon="6.14009">
        <ele>277.9</ele>
        <time>2020-06-26T10:14:40Z</time>
      </trkpt>
      <trkpt lat="49.59752" lon="6.1401">
        <ele>277.9</ele>
        <time>2020-06-26T10:14:41Z</time>
      </trkpt>
      <trkpt lat="49.59751" lon="6.1401">
        <ele>278</ele>
        <time>2020-06-26T10:14:42Z</time>
      </trkpt>
      <trkpt lat="49.59747" lon="6.1401">
        <ele>278.1</ele>
        <time>2020-06-26T10:14:43Z</time>
      </trkpt>
      <trkpt lat="49.59746" lon="6.1401">
        <ele>278.1</ele>
        <time>2020-06-26T10:14:44Z</time>
      </trkpt>
      <trkpt lat="49.59742" lon="6.14011">
        <ele>278.3</ele>
        <time>2020-06-26T10:14:45Z</time>
      </trkpt>
      <trkpt lat="49.5974" lon="6.14012">
        <ele>278.3</ele>
        <time>2020-06-26T10:14:46Z</time>
      </trkpt>
      <trkpt lat="49.59737" lon="6.14015">
        <ele>278.4</ele>
        <time>2020-06-26T10:14:47Z</time>
      </trkpt>
      <trkpt lat="49.59734" lon="6.14017">
        <ele>278.4</ele>
        <time>2020-06-26T10:14:48Z</time>
      </trkpt>
      <trkpt lat="49.59731" lon="6.14019">
        <ele>278.4</ele>
        <time>2020-06-26T10:14:49Z</time>
      </trkpt>
      <trkpt lat="49.59728" lon="6.14021">
        <ele>278.5</ele>
        <time>2020-06-26T10:14:50Z</time>
      </trkpt>
      <trkpt lat="49.59726" lon="6.14024">
        <ele>278.5</ele>
        <time>2020-06-26T10:14:51Z</time>
      </trkpt>
      <trkpt lat="49.59723" lon="6.14028">
        <ele>278.6</ele>
        <time>2020-06-26T10:14:52Z</time>
      </trkpt>
      <trkpt lat="49.59722" lon="6.14029">
        <ele>278.6</ele>
        <time>2020-06-26T10:14:53Z</time>
      </trkpt>
      <trkpt lat="49.59719" lon="6.14032">
        <ele>278.7</ele>
        <time>2020-06-26T10:14:54Z</time>
      </trkpt>
      <trkpt lat="49.59717" lon="6.14034">
        <ele>278.7</ele>
        <time>2020-06-26T10:14:55Z</time>
      </trkpt>
      <trkpt lat="49.59714" lon="6.14037">
        <ele>278.8</ele>
        <time>2020-06-26T10:14:56Z</time>
      </trkpt>
      <trkpt lat="49.59711" lon="6.14039">
        <ele>278.8</ele>
        <time>2020-06-26T10:14:57Z</time>
      </trkpt>
      <trkpt lat="49.59709" lon="6.14042">
        <ele>278.9</ele>
        <time>2020-06-26T10:14:58Z</time>
      </trkpt>
      <trkpt lat="49.59706" lon="6.14045">
        <ele>278.9</ele>
        <time>2020-06-26T10:14:59Z</time>
      </trkpt>
      <trkpt lat="49.59703" lon="6.14049">
        <ele>279</ele>
        <time>2020-06-26T10:15:00Z</time>
      </trkpt>
      <trkpt lat="49.597" lon="6.14052">
        <ele>279</ele>
        <time>2020-06-26T10:15:01Z</time>
      </trkpt>
      <trkpt lat="49.59697" lon="6.14055">
        <ele>279.1</ele>
        <time>2020-06-26T10:15:02Z</time>
      </trkpt>
      <trkpt lat="49.59697" lon="6.14056">
        <ele>279.1</ele>
        <time>2020-06-26T10:15:03Z</time>
      </trkpt>
      <trkpt lat="49.59694" lon="6.14059">
        <ele>279.2</ele>
        <time>2020-06-26T10:15:04Z</time>
      </trkpt>
      <trkpt lat="49.59691" lon="6.14062">
        <ele>279.3</ele>
        <time>2020-06-26T10:15:05Z</time>
      </trkpt>
      <trkpt lat="49.59688" lon="6.14066">
        <ele>279.4</ele>
        <time>2020-06-26T10:15:06Z</time>
      </trkpt>
      <trkpt lat="49.59686" lon="6.14069">
        <ele>279.4</ele>
        <time>2020-06-26T10:15:07Z</time>
      </trkpt>
      <trkpt lat="49.59684" lon="6.14071">
        <ele>279.5</ele>
        <time>2020-06-26T10:15:08Z</time>
      </trkpt>
      <trkpt lat="49.59682" lon="6.14074">
        <ele>279.6</ele>
        <time>2020-06-26T10:15:09Z</time>
      </trkpt>
      <trkpt lat="49.59679" lon="6.14077">
        <ele>279.6</ele>
        <time>2020-06-26T10:15:10Z</time>
      </trkpt>
      <trkpt lat="49.59676" lon="6.1408">
        <ele>279.7</ele>
        <time>2020-06-26T10:15:11Z</time>
      </trkpt>
      <trkpt lat="49.59673" lon="6.14082">
        <ele>279.8</ele>
        <time>2020-06-26T10:15:12Z</time>
      </trkpt>
      <trkpt lat="49.59669" lon="6.14085">
        <ele>279.9</ele>
        <time>2020-06-26T10:15:13Z</time>
      </trkpt>
      <trkpt lat="49.59668" lon="6.14086">
        <ele>279.9</ele>
        <time>2020-06-26T10:15:14Z</time>
      </trkpt>
      <trkpt lat="49.59665" lon="6.14088">
        <ele>279.9</ele>
        <time>2020-06-26T10:15:15Z</time>
      </trkpt>
      <trkpt lat="49.59663" lon="6.14091">
        <ele>280</ele>
        <time>2020-06-26T10:15:16Z</time>
      </trkpt>
      <trkpt lat="49.59659" lon="6.14094">
        <ele>280</ele>
        <time>2020-06-26T10:15:17Z</time>
      </trkpt>
      <trkpt lat="49.59655" lon="6.14097">
        <ele>280.1</ele>
        <time>2020-06-26T10:15:18Z</time>
      </trkpt>
      <trkpt lat="49.59651" lon="6.14102">
        <ele>280.2</ele>
        <time>2020-06-26T10:15:19Z</time>
      </trkpt>
      <trkpt lat="49.59649" lon="6.14105">
        <ele>280.3</ele>
        <time>2020-06-26T10:15:20Z</time>
      </trkpt>
      <trkpt lat="49.59646" lon="6.14108">
        <ele>280.3</ele>
        <time>2020-06-26T10:15:21Z</time>
      </trkpt>
      <trkpt lat="49.59643" lon="6.14111">
        <ele>280.4</ele>
        <time>2020-06-26T10:15:22Z</time>
      </trkpt>
      <trkpt lat="49.59639" lon="6.14114">
        <ele>280.5</ele>
        <time>2020-06-26T10:15:23Z</time>
      </trkpt>
      <trkpt lat="49.59635" lon="6.14116">
        <ele>280.5</ele>
        <time>2020-06-26T10:15:24Z</time>
      </trkpt>
      <trkpt lat="49.59632" lon="6.14119">
        <ele>280.6</ele>
        <time>2020-06-26T10:15:25Z</time>
      </trkpt>
      <trkpt lat="49.59629" lon="6.14121">
        <ele>280.6</ele>
        <time>2020-06-26T10:15:26Z</time>
      </trkpt>
      <trkpt lat="49.59625" lon="6.14122">
        <ele>280.7</ele>
        <time>2020-06-26T10:15:27Z</time>
      </trkpt>
      <trkpt lat="49.59624" lon="6.14123">
        <ele>280.7</ele>
        <time>2020-06-26T10:15:28Z</time>
      </trkpt>
      <trkpt lat="49.59621" lon="6.14125">
        <ele>280.8</ele>
        <time>2020-06-26T10:15:29Z</time>
      </trkpt>
      <trkpt lat="49.59617" lon="6.14124">
        <ele>280.9</ele>
        <time>2020-06-26T10:15:30Z</time>
      </trkpt>
      <trkpt lat="49.59616" lon="6.14124">
        <ele>280.9</ele>
        <time>2020-06-26T10:15:31Z</time>
      </trkpt>
      <trkpt lat="49.59612" lon="6.14124">
        <ele>281</ele>
        <time>2020-06-26T10:15:32Z</time>
      </trkpt>
      <trkpt lat="49.59611" lon="6.14123">
        <ele>281</ele>
        <time>2020-06-26T10:15:33Z</time>
      </trkpt>
      <trkpt lat="49.5961" lon="6.14124">
        <ele>281</ele>
        <time>2020-06-26T10:15:34Z</time>
      </trkpt>
      <trkpt lat="49.59609" lon="6.14124">
        <ele>281</ele>
        <time>2020-06-26T10:15:35Z</time>
      </trkpt>
      <trkpt lat="49.59608" lon="6.14124">
        <ele>281.1</ele>
        <time>2020-06-26T10:15:36Z</time>
      </trkpt>
      <trkpt lat="49.59605" lon="6.14126">
        <ele>281.1</ele>
        <time>2020-06-26T10:15:37Z</time>
      </trkpt>
      <trkpt lat="49.59605" lon="6.14126">
        <ele>281.1</ele>
        <time>2020-06-26T10:15:38Z</time>
      </trkpt>
      <trkpt lat="49.59604" lon="6.14127">
        <ele>281.1</ele>
        <time>2020-06-26T10:15:39Z</time>
      </trkpt>
      <trkpt lat="49.59604" lon="6.14128">
        <ele>281.2</ele>
        <time>2020-06-26T10:15:40Z</time>
      </trkpt>
      <trkpt lat="49.59604" lon="6.14128">
        <ele>281.2</ele>
        <time>2020-06-26T10:15:41Z</time>
      </trkpt>
      <trkpt lat="49.59605" lon="6.14129">
        <ele>281.2</ele>
        <time>2020-06-26T10:15:42Z</time>
      </trkpt>
      <trkpt lat="49.59605" lon="6.14129">
        <ele>281.2</ele>
        <time>2020-06-26T10:15:43Z</time>
      </trkpt>
      <trkpt lat="49.59606" lon="6.14129">
        <ele>281.2</ele>
        <time>2020-06-26T10:15:44Z</time>
      </trkpt>
      <trkpt lat="49.59606" lon="6.14128">
        <ele>281.2</ele>
        <time>2020-06-26T10:15:45Z</time>
      </trkpt>
      <trkpt lat="49.59606" lon="6.14128">
        <ele>281.2</ele>
        <time>2020-06-26T10:15:46Z</time>
      </trkpt>
      <trkpt lat="49.59606" lon="6.14129">
        <ele>281.2</ele>
        <time>2020-06-26T10:15:47Z</time>
      </trkpt>
      <trkpt lat="49.59607" lon="6.14127">
        <ele>281.2</ele>
        <time>2020-06-26T10:15:48Z</time>
      </trkpt>
      <trkpt lat="49.59608" lon="6.14126">
        <ele>281.3</ele>
        <time>2020-06-26T10:15:49Z</time>
      </trkpt>
      <trkpt lat="49.59609" lon="6.14125">
        <ele>281.3</ele>
        <time>2020-06-26T10:15:50Z</time>
      </trkpt>
      <trkpt lat="49.5961" lon="6.14124">
        <ele>281.3</ele>
        <time>2020-06-26T10:15:51Z</time>
      </trkpt>
      <trkpt lat="49.59609" lon="6.14125">
        <ele>281.3</ele>
        <time>2020-06-26T10:15:52Z</time>
      </trkpt>
      <trkpt lat="49.59608" lon="6.14125">
        <ele>281.3</ele>
        <time>2020-06-26T10:15:53Z</time>
      </trkpt>
      <trkpt lat="49.59606" lon="6.14126">
        <ele>281.4</ele>
        <time>2020-06-26T10:15:54Z</time>
      </trkpt>
      <trkpt lat="49.59605" lon="6.14126">
        <ele>281.4</ele>
        <time>2020-06-26T10:15:55Z</time>
      </trkpt>
      <trkpt lat="49.59604" lon="6.14127">
        <ele>281.4</ele>
        <time>2020-06-26T10:15:56Z</time>
      </trkpt>
      <trkpt lat="49.59603" lon="6.14127">
        <ele>281.4</ele>
        <time>2020-06-26T10:15:57Z</time>
      </trkpt>
      <trkpt lat="49.59601" lon="6.14127">
        <ele>281.4</ele>
        <time>2020-06-26T10:15:58Z</time>
      </trkpt>
      <trkpt lat="49.596" lon="6.14128">
        <ele>281.4</ele>
        <time>2020-06-26T10:15:59Z</time>
      </trkpt>
      <trkpt lat="49.59599" lon="6.14128">
        <ele>281.4</ele>
        <time>2020-06-26T10:16:33Z</time>
      </trkpt>
      <trkpt lat="49.59598" lon="6.14129">
        <ele>281.5</ele>
        <time>2020-06-26T10:16:34Z</time>
      </trkpt>
      <trkpt lat="49.59596" lon="6.14129">
        <ele>281.5</ele>
        <time>2020-06-26T10:16:35Z</time>
      </trkpt>
      <trkpt lat="49.59595" lon="6.14128">
        <ele>281.5</ele>
        <time>2020-06-26T10:16:36Z</time>
      </trkpt>
      <trkpt lat="49.59593" lon="6.14127">
        <ele>281.5</ele>
        <time>2020-06-26T10:16:37Z</time>
      </trkpt>
      <trkpt lat="49.59591" lon="6.14124">
        <ele>281.5</ele>
        <time>2020-06-26T10:16:38Z</time>
      </trkpt>
      <trkpt lat="49.5959" lon="6.14123">
        <ele>281.5</ele>
        <time>2020-06-26T10:16:39Z</time>
      </trkpt>
      <trkpt lat="49.59588" lon="6.1412">
        <ele>281.5</ele>
        <time>2020-06-26T10:16:40Z</time>
      </trkpt>
      <trkpt lat="49.59588" lon="6.14118">
        <ele>281.5</ele>
        <time>2020-06-26T10:16:41Z</time>
      </trkpt>
      <trkpt lat="49.59586" lon="6.14115">
        <ele>281.5</ele>
        <time>2020-06-26T10:16:42Z</time>
      </trkpt>
      <trkpt lat="49.59585" lon="6.14114">
        <ele>281.5</ele>
        <time>2020-06-26T10:16:43Z</time>
      </trkpt>
      <trkpt lat="49.59581" lon="6.14111">
        <ele>281.5</ele>
        <time>2020-06-26T10:16:44Z</time>
      </trkpt>
      <trkpt lat="49.59577" lon="6.14107">
        <ele>281.5</ele>
        <time>2020-06-26T10:16:45Z</time>
      </trkpt>
      <trkpt lat="49.59574" lon="6.14103">
        <ele>281.5</ele>
        <time>2020-06-26T10:16:46Z</time>
      </trkpt>
      <trkpt lat="49.59571" lon="6.141">
        <ele>281.6</ele>
        <time>2020-06-26T10:16:47Z</time>
      </trkpt>
      <trkpt lat="49.59568" lon="6.14096">
        <ele>281.6</ele>
        <time>2020-06-26T10:16:48Z</time>
      </trkpt>
      <trkpt lat="49.59565" lon="6.14093">
        <ele>281.6</ele>
        <time>2020-06-26T10:16:49Z</time>
      </trkpt>
      <trkpt lat="49.59563" lon="6.1409">
        <ele>281.6</ele>
        <time>2020-06-26T10:16:50Z</time>
      </trkpt>
      <trkpt lat="49.59561" lon="6.14085">
        <ele>281.6</ele>
        <time>2020-06-26T10:16:51Z</time>
      </trkpt>
      <trkpt lat="49.5956" lon="6.14083">
        <ele>281.7</ele>
        <time>2020-06-26T10:16:52Z</time>
      </trkpt>
      <trkpt lat="49.59557" lon="6.14078">
        <ele>281.7</ele>
        <time>2020-06-26T10:16:53Z</time>
      </trkpt>
      <trkpt lat="49.59556" lon="6.14072">
        <ele>281.7</ele>
        <time>2020-06-26T10:16:54Z</time>
      </trkpt>
      <trkpt lat="49.59555" lon="6.14067">
        <ele>281.8</ele>
        <time>2020-06-26T10:16:55Z</time>
      </trkpt>
      <trkpt lat="49.59553" lon="6.14062">
        <ele>281.8</ele>
        <time>2020-06-26T10:16:56Z</time>
      </trkpt>
      <trkpt lat="49.59552" lon="6.14057">
        <ele>281.9</ele>
        <time>2020-06-26T10:16:57Z</time>
      </trkpt>
      <trkpt lat="49.59551" lon="6.1405">
        <ele>281.9</ele>
        <time>2020-06-26T10:16:58Z</time>
      </trkpt>
      <trkpt lat="49.5955" lon="6.14046">
        <ele>282</ele>
        <time>2020-06-26T10:16:59Z</time>
      </trkpt>
      <trkpt lat="49.59548" lon="6.14041">
        <ele>282.1</ele>
        <time>2020-06-26T10:17:00Z</time>
      </trkpt>
      <trkpt lat="49.59547" lon="6.14037">
        <ele>282.1</ele>
        <time>2020-06-26T10:17:01Z</time>
      </trkpt>
      <trkpt lat="49.59545" lon="6.14033">
        <ele>282.2</ele>
        <time>2020-06-26T10:17:02Z</time>
      </trkpt>
      <trkpt lat="49.59544" lon="6.14029">
        <ele>282.2</ele>
        <time>2020-06-26T10:17:03Z</time>
      </trkpt>
      <trkpt lat="49.59543" lon="6.14024">
        <ele>282.2</ele>
        <time>2020-06-26T10:17:04Z</time>
      </trkpt>
      <trkpt lat="49.59542" lon="6.14022">
        <ele>282.3</ele>
        <time>2020-06-26T10:17:05Z</time>
      </trkpt>
      <trkpt lat="49.5954" lon="6.14019">
        <ele>282.3</ele>
        <time>2020-06-26T10:17:06Z</time>
      </trkpt>
      <trkpt lat="49.59539" lon="6.14018">
        <ele>282.3</ele>
        <time>2020-06-26T10:17:07Z</time>
      </trkpt>
      <trkpt lat="49.59538" lon="6.14018">
        <ele>282.4</ele>
        <time>2020-06-26T10:17:08Z</time>
      </trkpt>
      <trkpt lat="49.59537" lon="6.14018">
        <ele>282.4</ele>
        <time>2020-06-26T10:17:09Z</time>
      </trkpt>
      <trkpt lat="49.59536" lon="6.14019">
        <ele>282.4</ele>
        <time>2020-06-26T10:17:10Z</time>
      </trkpt>
      <trkpt lat="49.59534" lon="6.14023">
        <ele>282.5</ele>
        <time>2020-06-26T10:17:11Z</time>
      </trkpt>
      <trkpt lat="49.59533" lon="6.14025">
        <ele>282.5</ele>
        <time>2020-06-26T10:17:12Z</time>
      </trkpt>
      <trkpt lat="49.5953" lon="6.14026">
        <ele>282.5</ele>
        <time>2020-06-26T10:17:13Z</time>
      </trkpt>
      <trkpt lat="49.59527" lon="6.14028">
        <ele>282.6</ele>
        <time>2020-06-26T10:17:14Z</time>
      </trkpt>
      <trkpt lat="49.59523" lon="6.14029">
        <ele>282.6</ele>
        <time>2020-06-26T10:17:15Z</time>
      </trkpt>
      <trkpt lat="49.59519" lon="6.14031">
        <ele>282.6</ele>
        <time>2020-06-26T10:17:16Z</time>
      </trkpt>
      <trkpt lat="49.59515" lon="6.14033">
        <ele>282.7</ele>
        <time>2020-06-26T10:17:17Z</time>
      </trkpt>
      <trkpt lat="49.59511" lon="6.14035">
        <ele>282.7</ele>
        <time>2020-06-26T10:17:18Z</time>
      </trkpt>
      <trkpt lat="49.59508" lon="6.14037">
        <ele>282.8</ele>
        <time>2020-06-26T10:17:19Z</time>
      </trkpt>
      <trkpt lat="49.59505" lon="6.14037">
        <ele>282.8</ele>
        <time>2020-06-26T10:17:20Z</time>
      </trkpt>
      <trkpt lat="49.59501" lon="6.14037">
        <ele>282.8</ele>
        <time>2020-06-26T10:17:21Z</time>
      </trkpt>
      <trkpt lat="49.595" lon="6.14038">
        <ele>282.8</ele>
        <time>2020-06-26T10:17:22Z</time>
      </trkpt>
      <trkpt lat="49.59498" lon="6.14037">
        <ele>282.9</ele>
        <time>2020-06-26T10:17:23Z</time>
      </trkpt>
      <trkpt lat="49.59494" lon="6.14037">
        <ele>282.9</ele>
        <time>2020-06-26T10:17:24Z</time>
      </trkpt>
      <trkpt lat="49.59491" lon="6.14037">
        <ele>282.9</ele>
        <time>2020-06-26T10:17:25Z</time>
      </trkpt>
      <trkpt lat="49.59487" lon="6.14039">
        <ele>283</ele>
        <time>2020-06-26T10:17:26Z</time>
      </trkpt>
      <trkpt lat="49.59482" lon="6.14043">
        <ele>283</ele>
        <time>2020-06-26T10:17:27Z</time>
      </trkpt>
      <trkpt lat="49.59477" lon="6.14044">
        <ele>283.1</ele>
        <time>2020-06-26T10:17:28Z</time>
      </trkpt>
      <trkpt lat="49.5947" lon="6.14046">
        <ele>283.2</ele>
        <time>2020-06-26T10:17:29Z</time>
      </trkpt>
      <trkpt lat="49.59462" lon="6.1405">
        <ele>283.3</ele>
        <time>2020-06-26T10:17:30Z</time>
      </trkpt>
      <trkpt lat="49.59457" lon="6.14052">
        <ele>283.3</ele>
        <time>2020-06-26T10:17:31Z</time>
      </trkpt>
      <trkpt lat="49.59452" lon="6.14054">
        <ele>283.4</ele>
        <time>2020-06-26T10:17:32Z</time>
      </trkpt>
      <trkpt lat="49.59448" lon="6.14056">
        <ele>283.4</ele>
        <time>2020-06-26T10:17:33Z</time>
      </trkpt>
      <trkpt lat="49.59443" lon="6.14057">
        <ele>283.5</ele>
        <time>2020-06-26T10:17:34Z</time>
      </trkpt>
      <trkpt lat="49.59438" lon="6.14059">
        <ele>283.6</ele>
        <time>2020-06-26T10:17:35Z</time>
      </trkpt>
      <trkpt lat="49.59434" lon="6.14061">
        <ele>283.6</ele>
        <time>2020-06-26T10:17:36Z</time>
      </trkpt>
      <trkpt lat="49.5943" lon="6.14062">
        <ele>283.7</ele>
        <time>2020-06-26T10:17:37Z</time>
      </trkpt>
      <trkpt lat="49.59426" lon="6.14064">
        <ele>283.8</ele>
        <time>2020-06-26T10:17:38Z</time>
      </trkpt>
      <trkpt lat="49.59422" lon="6.14065">
        <ele>283.8</ele>
        <time>2020-06-26T10:17:39Z</time>
      </trkpt>
      <trkpt lat="49.59416" lon="6.14067">
        <ele>283.9</ele>
        <time>2020-06-26T10:17:40Z</time>
      </trkpt>
      <trkpt lat="49.59412" lon="6.14069">
        <ele>284</ele>
        <time>2020-06-26T10:17:41Z</time>
      </trkpt>
      <trkpt lat="49.59407" lon="6.14071">
        <ele>284</ele>
        <time>2020-06-26T10:17:42Z</time>
      </trkpt>
      <trkpt lat="49.59403" lon="6.14072">
        <ele>284</ele>
        <time>2020-06-26T10:17:43Z</time>
      </trkpt>
      <trkpt lat="49.59399" lon="6.14074">
        <ele>284</ele>
        <time>2020-06-26T10:17:44Z</time>
      </trkpt>
      <trkpt lat="49.59396" lon="6.14076">
        <ele>284.1</ele>
        <time>2020-06-26T10:17:45Z</time>
      </trkpt>
      <trkpt lat="49.59392" lon="6.14078">
        <ele>284.2</ele>
        <time>2020-06-26T10:17:46Z</time>
      </trkpt>
      <trkpt lat="49.59388" lon="6.1408">
        <ele>284.3</ele>
        <time>2020-06-26T10:17:47Z</time>
      </trkpt>
      <trkpt lat="49.59384" lon="6.14081">
        <ele>284.4</ele>
        <time>2020-06-26T10:17:48Z</time>
      </trkpt>
      <trkpt lat="49.59381" lon="6.14084">
        <ele>284.5</ele>
        <time>2020-06-26T10:17:49Z</time>
      </trkpt>
      <trkpt lat="49.59378" lon="6.14085">
        <ele>284.7</ele>
        <time>2020-06-26T10:17:50Z</time>
      </trkpt>
      <trkpt lat="49.59374" lon="6.14087">
        <ele>284.9</ele>
        <time>2020-06-26T10:17:51Z</time>
      </trkpt>
      <trkpt lat="49.5937" lon="6.14089">
        <ele>284.9</ele>
        <time>2020-06-26T10:17:52Z</time>
      </trkpt>
      <trkpt lat="49.59367" lon="6.14092">
        <ele>285</ele>
        <time>2020-06-26T10:17:53Z</time>
      </trkpt>
      <trkpt lat="49.59364" lon="6.14094">
        <ele>285.1</ele>
        <time>2020-06-26T10:17:54Z</time>
      </trkpt>
      <trkpt lat="49.59361" lon="6.14096">
        <ele>285.2</ele>
        <time>2020-06-26T10:17:55Z</time>
      </trkpt>
      <trkpt lat="49.59357" lon="6.14098">
        <ele>285.3</ele>
        <time>2020-06-26T10:17:56Z</time>
      </trkpt>
      <trkpt lat="49.59355" lon="6.14099">
        <ele>285.4</ele>
        <time>2020-06-26T10:17:57Z</time>
      </trkpt>
      <trkpt lat="49.59351" lon="6.14101">
        <ele>285.5</ele>
        <time>2020-06-26T10:17:58Z</time>
      </trkpt>
      <trkpt lat="49.59347" lon="6.14104">
        <ele>285.6</ele>
        <time>2020-06-26T10:17:59Z</time>
      </trkpt>
      <trkpt lat="49.59346" lon="6.14104">
        <ele>285.7</ele>
        <time>2020-06-26T10:18:00Z</time>
      </trkpt>
      <trkpt lat="49.59342" lon="6.14105">
        <ele>285.8</ele>
        <time>2020-06-26T10:18:01Z</time>
      </trkpt>
      <trkpt lat="49.59338" lon="6.14106">
        <ele>285.9</ele>
        <time>2020-06-26T10:18:02Z</time>
      </trkpt>
      <trkpt lat="49.59334" lon="6.14108">
        <ele>286.1</ele>
        <time>2020-06-26T10:18:03Z</time>
      </trkpt>
      <trkpt lat="49.59331" lon="6.14109">
        <ele>286.2</ele>
        <time>2020-06-26T10:18:04Z</time>
      </trkpt>
      <trkpt lat="49.59327" lon="6.14111">
        <ele>286.3</ele>
        <time>2020-06-26T10:18:05Z</time>
      </trkpt>
      <trkpt lat="49.59326" lon="6.14112">
        <ele>286.4</ele>
        <time>2020-06-26T10:18:06Z</time>
      </trkpt>
      <trkpt lat="49.59322" lon="6.14114">
        <ele>286.5</ele>
        <time>2020-06-26T10:18:07Z</time>
      </trkpt>
      <trkpt lat="49.59319" lon="6.14114">
        <ele>286.6</ele>
        <time>2020-06-26T10:18:08Z</time>
      </trkpt>
      <trkpt lat="49.59316" lon="6.14116">
        <ele>286.7</ele>
        <time>2020-06-26T10:18:09Z</time>
      </trkpt>
      <trkpt lat="49.59313" lon="6.14118">
        <ele>286.8</ele>
        <time>2020-06-26T10:18:10Z</time>
      </trkpt>
      <trkpt lat="49.5931" lon="6.14121">
        <ele>286.9</ele>
        <time>2020-06-26T10:18:11Z</time>
      </trkpt>
      <trkpt lat="49.59306" lon="6.14124">
        <ele>287</ele>
        <time>2020-06-26T10:18:12Z</time>
      </trkpt>
      <trkpt lat="49.59303" lon="6.14126">
        <ele>287.1</ele>
        <time>2020-06-26T10:18:13Z</time>
      </trkpt>
      <trkpt lat="49.593" lon="6.1413">
        <ele>287.2</ele>
        <time>2020-06-26T10:18:14Z</time>
      </trkpt>
      <trkpt lat="49.59297" lon="6.14131">
        <ele>287.3</ele>
        <time>2020-06-26T10:18:15Z</time>
      </trkpt>
      <trkpt lat="49.59293" lon="6.14132">
        <ele>287.4</ele>
        <time>2020-06-26T10:18:16Z</time>
      </trkpt>
      <trkpt lat="49.5929" lon="6.14133">
        <ele>287.5</ele>
        <time>2020-06-26T10:18:17Z</time>
      </trkpt>
      <trkpt lat="49.59286" lon="6.14134">
        <ele>287.7</ele>
        <time>2020-06-26T10:18:18Z</time>
      </trkpt>
      <trkpt lat="49.59282" lon="6.14138">
        <ele>287.8</ele>
        <time>2020-06-26T10:18:19Z</time>
      </trkpt>
      <trkpt lat="49.59281" lon="6.14139">
        <ele>287.9</ele>
        <time>2020-06-26T10:18:20Z</time>
      </trkpt>
      <trkpt lat="49.59277" lon="6.1414">
        <ele>288</ele>
        <time>2020-06-26T10:18:21Z</time>
      </trkpt>
      <trkpt lat="49.59273" lon="6.14141">
        <ele>288.2</ele>
        <time>2020-06-26T10:18:22Z</time>
      </trkpt>
      <trkpt lat="49.5927" lon="6.14142">
        <ele>288.3</ele>
        <time>2020-06-26T10:18:23Z</time>
      </trkpt>
      <trkpt lat="49.59267" lon="6.14143">
        <ele>288.4</ele>
        <time>2020-06-26T10:18:24Z</time>
      </trkpt>
      <trkpt lat="49.59264" lon="6.14141">
        <ele>288.5</ele>
        <time>2020-06-26T10:18:25Z</time>
      </trkpt>
      <trkpt lat="49.5926" lon="6.14142">
        <ele>288.6</ele>
        <time>2020-06-26T10:18:26Z</time>
      </trkpt>
      <trkpt lat="49.59256" lon="6.14144">
        <ele>288.8</ele>
        <time>2020-06-26T10:18:27Z</time>
      </trkpt>
      <trkpt lat="49.59253" lon="6.14146">
        <ele>288.9</ele>
        <time>2020-06-26T10:18:28Z</time>
      </trkpt>
      <trkpt lat="49.59249" lon="6.14147">
        <ele>289</ele>
        <time>2020-06-26T10:18:29Z</time>
      </trkpt>
      <trkpt lat="49.59246" lon="6.14148">
        <ele>289.1</ele>
        <time>2020-06-26T10:18:30Z</time>
      </trkpt>
      <trkpt lat="49.59242" lon="6.14148">
        <ele>289.2</ele>
        <time>2020-06-26T10:18:31Z</time>
      </trkpt>
      <trkpt lat="49.59238" lon="6.14149">
        <ele>289.4</ele>
        <time>2020-06-26T10:18:32Z</time>
      </trkpt>
      <trkpt lat="49.59235" lon="6.1415">
        <ele>289.5</ele>
        <time>2020-06-26T10:18:33Z</time>
      </trkpt>
      <trkpt lat="49.59232" lon="6.1415">
        <ele>289.6</ele>
        <time>2020-06-26T10:18:34Z</time>
      </trkpt>
      <trkpt lat="49.59228" lon="6.1415">
        <ele>289.7</ele>
        <time>2020-06-26T10:18:35Z</time>
      </trkpt>
      <trkpt lat="49.59225" lon="6.14149">
        <ele>289.8</ele>
        <time>2020-06-26T10:18:36Z</time>
      </trkpt>
      <trkpt lat="49.59222" lon="6.14149">
        <ele>289.9</ele>
        <time>2020-06-26T10:18:37Z</time>
      </trkpt>
      <trkpt lat="49.59219" lon="6.14149">
        <ele>290</ele>
        <time>2020-06-26T10:18:38Z</time>
      </trkpt>
      <trkpt lat="49.59216" lon="6.14149">
        <ele>290.1</ele>
        <time>2020-06-26T10:18:39Z</time>
      </trkpt>
      <trkpt lat="49.59212" lon="6.1415">
        <ele>290.2</ele>
        <time>2020-06-26T10:18:40Z</time>
      </trkpt>
      <trkpt lat="49.59209" lon="6.1415">
        <ele>290.3</ele>
        <time>2020-06-26T10:18:41Z</time>
      </trkpt>
      <trkpt lat="49.59206" lon="6.1415">
        <ele>290.3</ele>
        <time>2020-06-26T10:18:42Z</time>
      </trkpt>
      <trkpt lat="49.59202" lon="6.1415">
        <ele>290.4</ele>
        <time>2020-06-26T10:18:43Z</time>
      </trkpt>
      <trkpt lat="49.59198" lon="6.1415">
        <ele>290.5</ele>
        <time>2020-06-26T10:18:44Z</time>
      </trkpt>
      <trkpt lat="49.59194" lon="6.1415">
        <ele>290.6</ele>
        <time>2020-06-26T10:18:45Z</time>
      </trkpt>
      <trkpt lat="49.5919" lon="6.1415">
        <ele>290.7</ele>
        <time>2020-06-26T10:18:46Z</time>
      </trkpt>
      <trkpt lat="49.59187" lon="6.1415">
        <ele>290.8</ele>
        <time>2020-06-26T10:18:47Z</time>
      </trkpt>
      <trkpt lat="49.59183" lon="6.1415">
        <ele>290.9</ele>
        <time>2020-06-26T10:18:48Z</time>
      </trkpt>
      <trkpt lat="49.59179" lon="6.1415">
        <ele>291</ele>
        <time>2020-06-26T10:18:49Z</time>
      </trkpt>
      <trkpt lat="49.59176" lon="6.1415">
        <ele>291.1</ele>
        <time>2020-06-26T10:18:50Z</time>
      </trkpt>
      <trkpt lat="49.59173" lon="6.1415">
        <ele>291.1</ele>
        <time>2020-06-26T10:18:51Z</time>
      </trkpt>
      <trkpt lat="49.5917" lon="6.1415">
        <ele>291.1</ele>
        <time>2020-06-26T10:18:52Z</time>
      </trkpt>
      <trkpt lat="49.59167" lon="6.14149">
        <ele>291.1</ele>
        <time>2020-06-26T10:18:53Z</time>
      </trkpt>
      <trkpt lat="49.59164" lon="6.14149">
        <ele>291.1</ele>
        <time>2020-06-26T10:18:54Z</time>
      </trkpt>
      <trkpt lat="49.59163" lon="6.14149">
        <ele>291.1</ele>
        <time>2020-06-26T10:18:55Z</time>
      </trkpt>
      <trkpt lat="49.59162" lon="6.14148">
        <ele>291.1</ele>
        <time>2020-06-26T10:18:56Z</time>
      </trkpt>
      <trkpt lat="49.59161" lon="6.14148">
        <ele>291.1</ele>
        <time>2020-06-26T10:18:57Z</time>
      </trkpt>
      <trkpt lat="49.5916" lon="6.14148">
        <ele>291.1</ele>
        <time>2020-06-26T10:18:58Z</time>
      </trkpt>
      <trkpt lat="49.59159" lon="6.14148">
        <ele>291.1</ele>
        <time>2020-06-26T10:18:59Z</time>
      </trkpt>
      <trkpt lat="49.59158" lon="6.14147">
        <ele>291.1</ele>
        <time>2020-06-26T10:19:00Z</time>
      </trkpt>
      <trkpt lat="49.59158" lon="6.14147">
        <ele>291.1</ele>
        <time>2020-06-26T10:19:01Z</time>
      </trkpt>
      <trkpt lat="49.59157" lon="6.14148">
        <ele>291.1</ele>
        <time>2020-06-26T10:19:02Z</time>
      </trkpt>
      <trkpt lat="49.59157" lon="6.14148">
        <ele>291.1</ele>
        <time>2020-06-26T10:19:03Z</time>
      </trkpt>
      <trkpt lat="49.59156" lon="6.14148">
        <ele>291.1</ele>
        <time>2020-06-26T10:19:04Z</time>
      </trkpt>
      <trkpt lat="49.59156" lon="6.14149">
        <ele>291.1</ele>
        <time>2020-06-26T10:19:05Z</time>
      </trkpt>
      <trkpt lat="49.59155" lon="6.14149">
        <ele>291.1</ele>
        <time>2020-06-26T10:19:06Z</time>
      </trkpt>
      <trkpt lat="49.59155" lon="6.1415">
        <ele>291.1</ele>
        <time>2020-06-26T10:19:07Z</time>
      </trkpt>
      <trkpt lat="49.59155" lon="6.1415">
        <ele>291.1</ele>
        <time>2020-06-26T10:19:29Z</time>
      </trkpt>
      <trkpt lat="49.59154" lon="6.14151">
        <ele>291.1</ele>
        <time>2020-06-26T10:19:30Z</time>
      </trkpt>
      <trkpt lat="49.59154" lon="6.14151">
        <ele>291.1</ele>
        <time>2020-06-26T10:19:31Z</time>
      </trkpt>
      <trkpt lat="49.59154" lon="6.14152">
        <ele>291.1</ele>
        <time>2020-06-26T10:19:32Z</time>
      </trkpt>
      <trkpt lat="49.59153" lon="6.14152">
        <ele>291.1</ele>
        <time>2020-06-26T10:19:33Z</time>
      </trkpt>
      <trkpt lat="49.59153" lon="6.14153">
        <ele>291.1</ele>
        <time>2020-06-26T10:19:34Z</time>
      </trkpt>
      <trkpt lat="49.59153" lon="6.14154">
        <ele>291.1</ele>
        <time>2020-06-26T10:19:35Z</time>
      </trkpt>
      <trkpt lat="49.59152" lon="6.14154">
        <ele>291.1</ele>
        <time>2020-06-26T10:19:36Z</time>
      </trkpt>
      <trkpt lat="49.59152" lon="6.14155">
        <ele>291.1</ele>
        <time>2020-06-26T10:19:37Z</time>
      </trkpt>
      <trkpt lat="49.59152" lon="6.14155">
        <ele>291.1</ele>
        <time>2020-06-26T10:19:38Z</time>
      </trkpt>
      <trkpt lat="49.59151" lon="6.14156">
        <ele>291.2</ele>
        <time>2020-06-26T10:19:39Z</time>
      </trkpt>
      <trkpt lat="49.59151" lon="6.14156">
        <ele>291.2</ele>
        <time>2020-06-26T10:19:40Z</time>
      </trkpt>
      <trkpt lat="49.59151" lon="6.14157">
        <ele>291.2</ele>
        <time>2020-06-26T10:19:41Z</time>
      </trkpt>
      <trkpt lat="49.5915" lon="6.14157">
        <ele>291.2</ele>
        <time>2020-06-26T11:19:47Z</time>
      </trkpt>
      <trkpt lat="49.5915" lon="6.14158">
        <ele>291.2</ele>
        <time>2020-06-26T11:19:48Z</time>
      </trkpt>
      <trkpt lat="49.5915" lon="6.14158">
        <ele>291.2</ele>
        <time>2020-06-26T11:19:49Z</time>
      </trkpt>
      <trkpt lat="49.59149" lon="6.14159">
        <ele>291.2</ele>
        <time>2020-06-26T11:19:50Z</time>
      </trkpt>
      <trkpt lat="49.59149" lon="6.1416">
        <ele>291.2</ele>
        <time>2020-06-26T11:19:51Z</time>
      </trkpt>
      <trkpt lat="49.59149" lon="6.1416">
        <ele>291.2</ele>
        <time>2020-06-26T11:19:52Z</time>
      </trkpt>
      <trkpt lat="49.59148" lon="6.14161">
        <ele>291.2</ele>
        <time>2020-06-26T11:19:53Z</time>
      </trkpt>
      <trkpt lat="49.59148" lon="6.14161">
        <ele>291.2</ele>
        <time>2020-06-26T11:19:54Z</time>
      </trkpt>
      <trkpt lat="49.59148" lon="6.14162">
        <ele>291.2</ele>
        <time>2020-06-26T11:19:55Z</time>
      </trkpt>
      <trkpt lat="49.59147" lon="6.14162">
        <ele>291.2</ele>
        <time>2020-06-26T11:19:56Z</time>
      </trkpt>
      <trkpt lat="49.59147" lon="6.14163">
        <ele>291.2</ele>
        <time>2020-06-26T11:19:57Z</time>
      </trkpt>
      <trkpt lat="49.59147" lon="6.14163">
        <ele>291.2</ele>
        <time>2020-06-26T11:19:58Z</time>
      </trkpt>
      <trkpt lat="49.59146" lon="6.14164">
        <ele>291.2</ele>
        <time>2020-06-26T11:19:59Z</time>
      </trkpt>
      <trkpt lat="49.59146" lon="6.14164">
        <ele>291.2</ele>
        <time>2020-06-26T11:40:37Z</time>
      </trkpt>
      <trkpt lat="49.59146" lon="6.14165">
        <ele>291.2</ele>
        <time>2020-06-26T11:40:38Z</time>
      </trkpt>
      <trkpt lat="49.59145" lon="6.14165">
        <ele>291.2</ele>
        <time>2020-06-26T11:40:39Z</time>
      </trkpt>
      <trkpt lat="49.59145" lon="6.14166">
        <ele>291.2</ele>
        <time>2020-06-26T11:40:40Z</time>
      </trkpt>
      <trkpt lat="49.59145" lon="6.14167">
        <ele>291.2</ele>
        <time>2020-06-26T11:40:41Z</time>
      </trkpt>
      <trkpt lat="49.59144" lon="6.14169">
        <ele>291.2</ele>
        <time>2020-06-26T11:40:42Z</time>
      </trkpt>
      <trkpt lat="49.59144" lon="6.14171">
        <ele>291.2</ele>
        <time>2020-06-26T11:40:43Z</time>
      </trkpt>
      <trkpt lat="49.59145" lon="6.14173">
        <ele>291.2</ele>
        <time>2020-06-26T11:40:44Z</time>
      </trkpt>
      <trkpt lat="49.59145" lon="6.14174">
        <ele>291.2</ele>
        <time>2020-06-26T11:40:45Z</time>
      </trkpt>
      <trkpt lat="49.59144" lon="6.14176">
        <ele>291.2</ele>
        <time>2020-06-26T11:40:46Z</time>
      </trkpt>
      <trkpt lat="49.59143" lon="6.14177">
        <ele>291.2</ele>
        <time>2020-06-26T11:40:47Z</time>
      </trkpt>
      <trkpt lat="49.59142" lon="6.14178">
        <ele>289.7</ele>
        <time>2020-06-26T11:40:48Z</time>
      </trkpt>
      <trkpt lat="49.5914" lon="6.14178">
        <ele>289.7</ele>
        <time>2020-06-26T11:40:49Z</time>
      </trkpt>
      <trkpt lat="49.59139" lon="6.14178">
        <ele>289.7</ele>
        <time>2020-06-26T11:40:50Z</time>
      </trkpt>
      <trkpt lat="49.59138" lon="6.14178">
        <ele>289.7</ele>
        <time>2020-06-26T11:40:51Z</time>
      </trkpt>
      <trkpt lat="49.59137" lon="6.14181">
        <ele>289.7</ele>
        <time>2020-06-26T11:40:52Z</time>
      </trkpt>
      <trkpt lat="49.59137" lon="6.14184">
        <ele>289.7</ele>
        <time>2020-06-26T11:40:53Z</time>
      </trkpt>
      <trkpt lat="49.59137" lon="6.14187">
        <ele>289.7</ele>
        <time>2020-06-26T11:40:54Z</time>
      </trkpt>
      <trkpt lat="49.59136" lon="6.14191">
        <ele>289.7</ele>
        <time>2020-06-26T11:40:55Z</time>
      </trkpt>
      <trkpt lat="49.59136" lon="6.14194">
        <ele>289.7</ele>
        <time>2020-06-26T11:40:56Z</time>
      </trkpt>
      <trkpt lat="49.59135" lon="6.14197">
        <ele>289.7</ele>
        <time>2020-06-26T11:40:57Z</time>
      </trkpt>
      <trkpt lat="49.59135" lon="6.14197">
        <ele>289.7</ele>
        <time>2020-06-26T11:41:07Z</time>
      </trkpt>
      <trkpt lat="49.59148" lon="6.14233">
        <ele>289.7</ele>
        <time>2020-06-26T11:42:07Z</time>
      </trkpt>
      <trkpt lat="49.59149" lon="6.14231">
        <ele>289.7</ele>
        <time>2020-06-26T11:42:08Z</time>
      </trkpt>
      <trkpt lat="49.5915" lon="6.14229">
        <ele>289.7</ele>
        <time>2020-06-26T11:42:09Z</time>
      </trkpt>
      <trkpt lat="49.5915" lon="6.14226">
        <ele>289.7</ele>
        <time>2020-06-26T11:42:10Z</time>
      </trkpt>
      <trkpt lat="49.5915" lon="6.14223">
        <ele>289.7</ele>
        <time>2020-06-26T11:42:11Z</time>
      </trkpt>
      <trkpt lat="49.59152" lon="6.14223">
        <ele>289.7</ele>
        <time>2020-06-26T11:42:12Z</time>
      </trkpt>
      <trkpt lat="49.59152" lon="6.14222">
        <ele>289.7</ele>
        <time>2020-06-26T11:42:13Z</time>
      </trkpt>
      <trkpt lat="49.59153" lon="6.14221">
        <ele>289.7</ele>
        <time>2020-06-26T11:42:14Z</time>
      </trkpt>
      <trkpt lat="49.59154" lon="6.14219">
        <ele>289.7</ele>
        <time>2020-06-26T11:42:15Z</time>
      </trkpt>
      <trkpt lat="49.59155" lon="6.14219">
        <ele>289.7</ele>
        <time>2020-06-26T11:42:16Z</time>
      </trkpt>
      <trkpt lat="49.59156" lon="6.1422">
        <ele>289.7</ele>
        <time>2020-06-26T11:42:17Z</time>
      </trkpt>
      <trkpt lat="49.59156" lon="6.14218">
        <ele>289.7</ele>
        <time>2020-06-26T11:42:18Z</time>
      </trkpt>
      <trkpt lat="49.59157" lon="6.14217">
        <ele>289.7</ele>
        <time>2020-06-26T11:42:19Z</time>
      </trkpt>
      <trkpt lat="49.59157" lon="6.14215">
        <ele>289.7</ele>
        <time>2020-06-26T11:42:20Z</time>
      </trkpt>
      <trkpt lat="49.59157" lon="6.14213">
        <ele>289.7</ele>
        <time>2020-06-26T11:42:21Z</time>
      </trkpt>
      <trkpt lat="49.59157" lon="6.14212">
        <ele>289.7</ele>
        <time>2020-06-26T11:42:22Z</time>
      </trkpt>
      <trkpt lat="49.59156" lon="6.14206">
        <ele>289.7</ele>
        <time>2020-06-26T11:42:23Z</time>
      </trkpt>
      <trkpt lat="49.59156" lon="6.14205">
        <ele>289.7</ele>
        <time>2020-06-26T11:42:24Z</time>
      </trkpt>
      <trkpt lat="49.59156" lon="6.14204">
        <ele>289.7</ele>
        <time>2020-06-26T11:42:25Z</time>
      </trkpt>
      <trkpt lat="49.59155" lon="6.14204">
        <ele>289.7</ele>
        <time>2020-06-26T11:42:26Z</time>
      </trkpt>
      <trkpt lat="49.59155" lon="6.14204">
        <ele>289.7</ele>
        <time>2020-06-26T11:42:27Z</time>
      </trkpt>
      <trkpt lat="49.59155" lon="6.14204">
        <ele>289.7</ele>
        <time>2020-06-26T11:42:28Z</time>
      </trkpt>
      <trkpt lat="49.59155" lon="6.14204">
        <ele>289.7</ele>
        <time>2020-06-26T11:42:29Z</time>
      </trkpt>
      <trkpt lat="49.59155" lon="6.14204">
        <ele>289.7</ele>
        <time>2020-06-26T11:42:30Z</time>
      </trkpt>
      <trkpt lat="49.59155" lon="6.14204">
        <ele>289.7</ele>
        <time>2020-06-26T11:42:31Z</time>
      </trkpt>
      <trkpt lat="49.59154" lon="6.14203">
        <ele>289.7</ele>
        <time>2020-06-26T11:42:32Z</time>
      </trkpt>
      <trkpt lat="49.59153" lon="6.14203">
        <ele>289.7</ele>
        <time>2020-06-26T11:42:33Z</time>
      </trkpt>
      <trkpt lat="49.59153" lon="6.14203">
        <ele>289.7</ele>
        <time>2020-06-26T11:42:34Z</time>
      </trkpt>
      <trkpt lat="49.5915" lon="6.14182">
        <ele>289.5</ele>
        <time>2020-06-26T11:43:06Z</time>
      </trkpt>
      <trkpt lat="49.5915" lon="6.14181">
        <ele>289.5</ele>
        <time>2020-06-26T11:43:07Z</time>
      </trkpt>
      <trkpt lat="49.59149" lon="6.14181">
        <ele>289.5</ele>
        <time>2020-06-26T11:43:08Z</time>
      </trkpt>
      <trkpt lat="49.59149" lon="6.1418">
        <ele>289.5</ele>
        <time>2020-06-26T11:43:09Z</time>
      </trkpt>
      <trkpt lat="49.59148" lon="6.14178">
        <ele>289.5</ele>
        <time>2020-06-26T11:43:10Z</time>
      </trkpt>
      <trkpt lat="49.59147" lon="6.14176">
        <ele>289.5</ele>
        <time>2020-06-26T11:43:11Z</time>
      </trkpt>
      <trkpt lat="49.59145" lon="6.14175">
        <ele>289.5</ele>
        <time>2020-06-26T11:43:12Z</time>
      </trkpt>
      <trkpt lat="49.59144" lon="6.14174">
        <ele>289.5</ele>
        <time>2020-06-26T11:43:13Z</time>
      </trkpt>
      <trkpt lat="49.59142" lon="6.14173">
        <ele>289.5</ele>
        <time>2020-06-26T11:43:14Z</time>
      </trkpt>
      <trkpt lat="49.59141" lon="6.14173">
        <ele>289.5</ele>
        <time>2020-06-26T11:43:15Z</time>
      </trkpt>
      <trkpt lat="49.59139" lon="6.14172">
        <ele>289.5</ele>
        <time>2020-06-26T11:43:16Z</time>
      </trkpt>
      <trkpt lat="49.59138" lon="6.14172">
        <ele>289.5</ele>
        <time>2020-06-26T11:43:17Z</time>
      </trkpt>
      <trkpt lat="49.59137" lon="6.14173">
        <ele>289.5</ele>
        <time>2020-06-26T11:43:18Z</time>
      </trkpt>
      <trkpt lat="49.59136" lon="6.14173">
        <ele>289.5</ele>
        <time>2020-06-26T11:43:19Z</time>
      </trkpt>
      <trkpt lat="49.59134" lon="6.14172">
        <ele>289.5</ele>
        <time>2020-06-26T11:43:20Z</time>
      </trkpt>
      <trkpt lat="49.59132" lon="6.14172">
        <ele>289.7</ele>
        <time>2020-06-26T11:43:21Z</time>
      </trkpt>
      <trkpt lat="49.59129" lon="6.14167">
        <ele>289.7</ele>
        <time>2020-06-26T11:43:22Z</time>
      </trkpt>
      <trkpt lat="49.59128" lon="6.14166">
        <ele>289.7</ele>
        <time>2020-06-26T11:43:23Z</time>
      </trkpt>
      <trkpt lat="49.59125" lon="6.14164">
        <ele>289.7</ele>
        <time>2020-06-26T11:43:24Z</time>
      </trkpt>
      <trkpt lat="49.59123" lon="6.14161">
        <ele>291.4</ele>
        <time>2020-06-26T11:43:25Z</time>
      </trkpt>
      <trkpt lat="49.59124" lon="6.14157">
        <ele>291.4</ele>
        <time>2020-06-26T11:43:26Z</time>
      </trkpt>
      <trkpt lat="49.5912" lon="6.14156">
        <ele>291.4</ele>
        <time>2020-06-26T11:43:27Z</time>
      </trkpt>
      <trkpt lat="49.59117" lon="6.14155">
        <ele>291.4</ele>
        <time>2020-06-26T11:43:28Z</time>
      </trkpt>
      <trkpt lat="49.59114" lon="6.14155">
        <ele>291.5</ele>
        <time>2020-06-26T11:43:29Z</time>
      </trkpt>
      <trkpt lat="49.5911" lon="6.14153">
        <ele>291.5</ele>
        <time>2020-06-26T11:43:30Z</time>
      </trkpt>
      <trkpt lat="49.59106" lon="6.14151">
        <ele>291.5</ele>
        <time>2020-06-26T11:43:31Z</time>
      </trkpt>
      <trkpt lat="49.59103" lon="6.14149">
        <ele>291.6</ele>
        <time>2020-06-26T11:43:32Z</time>
      </trkpt>
      <trkpt lat="49.59099" lon="6.14146">
        <ele>291.6</ele>
        <time>2020-06-26T11:43:33Z</time>
      </trkpt>
      <trkpt lat="49.59095" lon="6.14145">
        <ele>291.7</ele>
        <time>2020-06-26T11:43:34Z</time>
      </trkpt>
      <trkpt lat="49.59092" lon="6.14144">
        <ele>291.7</ele>
        <time>2020-06-26T11:43:35Z</time>
      </trkpt>
      <trkpt lat="49.59088" lon="6.14142">
        <ele>291.7</ele>
        <time>2020-06-26T11:43:36Z</time>
      </trkpt>
      <trkpt lat="49.59084" lon="6.1414">
        <ele>291.8</ele>
        <time>2020-06-26T11:43:37Z</time>
      </trkpt>
      <trkpt lat="49.5908" lon="6.14139">
        <ele>291.8</ele>
        <time>2020-06-26T11:43:38Z</time>
      </trkpt>
      <trkpt lat="49.59077" lon="6.14135">
        <ele>291.9</ele>
        <time>2020-06-26T11:43:39Z</time>
      </trkpt>
      <trkpt lat="49.59074" lon="6.14134">
        <ele>291.9</ele>
        <time>2020-06-26T11:43:40Z</time>
      </trkpt>
      <trkpt lat="49.59072" lon="6.14133">
        <ele>291.9</ele>
        <time>2020-06-26T11:43:41Z</time>
      </trkpt>
      <trkpt lat="49.59071" lon="6.14132">
        <ele>291.9</ele>
        <time>2020-06-26T11:43:42Z</time>
      </trkpt>
      <trkpt lat="49.59069" lon="6.14132">
        <ele>291.9</ele>
        <time>2020-06-26T11:43:43Z</time>
      </trkpt>
      <trkpt lat="49.59068" lon="6.1413">
        <ele>291.9</ele>
        <time>2020-06-26T11:43:44Z</time>
      </trkpt>
      <trkpt lat="49.59066" lon="6.14129">
        <ele>291.9</ele>
        <time>2020-06-26T11:43:45Z</time>
      </trkpt>
      <trkpt lat="49.59065" lon="6.14128">
        <ele>291.9</ele>
        <time>2020-06-26T11:43:46Z</time>
      </trkpt>
      <trkpt lat="49.59065" lon="6.14125">
        <ele>291.9</ele>
        <time>2020-06-26T11:43:47Z</time>
      </trkpt>
      <trkpt lat="49.59065" lon="6.14125">
        <ele>291.9</ele>
        <time>2020-06-26T11:43:48Z</time>
      </trkpt>
      <trkpt lat="49.59065" lon="6.14125">
        <ele>291.9</ele>
        <time>2020-06-26T11:43:49Z</time>
      </trkpt>
      <trkpt lat="49.59065" lon="6.14125">
        <ele>291.9</ele>
        <time>2020-06-26T11:43:50Z</time>
      </trkpt>
      <trkpt lat="49.59065" lon="6.14124">
        <ele>292</ele>
        <time>2020-06-26T11:43:51Z</time>
      </trkpt>
      <trkpt lat="49.59064" lon="6.14124">
        <ele>292</ele>
        <time>2020-06-26T11:43:52Z</time>
      </trkpt>
      <trkpt lat="49.59065" lon="6.14124">
        <ele>292</ele>
        <time>2020-06-26T11:43:53Z</time>
      </trkpt>
      <trkpt lat="49.59065" lon="6.14124">
        <ele>292</ele>
        <time>2020-06-26T11:43:54Z</time>
      </trkpt>
      <trkpt lat="49.59064" lon="6.14123">
        <ele>292</ele>
        <time>2020-06-26T11:43:55Z</time>
      </trkpt>
      <trkpt lat="49.59064" lon="6.14122">
        <ele>292</ele>
        <time>2020-06-26T11:43:56Z</time>
      </trkpt>
      <trkpt lat="49.59063" lon="6.14122">
        <ele>292</ele>
        <time>2020-06-26T11:43:57Z</time>
      </trkpt>
      <trkpt lat="49.59062" lon="6.14121">
        <ele>292</ele>
        <time>2020-06-26T11:43:58Z</time>
      </trkpt>
      <trkpt lat="49.5905" lon="6.14117">
        <ele>292.1</ele>
        <time>2020-06-26T11:44:15Z</time>
      </trkpt>
      <trkpt lat="49.59047" lon="6.14115">
        <ele>292</ele>
        <time>2020-06-26T11:44:16Z</time>
      </trkpt>
      <trkpt lat="49.59044" lon="6.14113">
        <ele>292</ele>
        <time>2020-06-26T11:44:17Z</time>
      </trkpt>
      <trkpt lat="49.59041" lon="6.14111">
        <ele>292</ele>
        <time>2020-06-26T11:44:18Z</time>
      </trkpt>
      <trkpt lat="49.59038" lon="6.14109">
        <ele>291.9</ele>
        <time>2020-06-26T11:44:19Z</time>
      </trkpt>
      <trkpt lat="49.59037" lon="6.14108">
        <ele>291.9</ele>
        <time>2020-06-26T11:44:20Z</time>
      </trkpt>
      <trkpt lat="49.59034" lon="6.14107">
        <ele>291.7</ele>
        <time>2020-06-26T11:44:21Z</time>
      </trkpt>
      <trkpt lat="49.59033" lon="6.14106">
        <ele>291.7</ele>
        <time>2020-06-26T11:44:22Z</time>
      </trkpt>
      <trkpt lat="49.59032" lon="6.14108">
        <ele>291.7</ele>
        <time>2020-06-26T11:44:23Z</time>
      </trkpt>
      <trkpt lat="49.5903" lon="6.14107">
        <ele>291.7</ele>
        <time>2020-06-26T11:44:24Z</time>
      </trkpt>
      <trkpt lat="49.59029" lon="6.14107">
        <ele>291.7</ele>
        <time>2020-06-26T11:44:25Z</time>
      </trkpt>
      <trkpt lat="49.59028" lon="6.14107">
        <ele>291.6</ele>
        <time>2020-06-26T11:44:26Z</time>
      </trkpt>
      <trkpt lat="49.59026" lon="6.14106">
        <ele>291.6</ele>
        <time>2020-06-26T11:44:27Z</time>
      </trkpt>
      <trkpt lat="49.59027" lon="6.14105">
        <ele>291.6</ele>
        <time>2020-06-26T11:44:28Z</time>
      </trkpt>
      <trkpt lat="49.59027" lon="6.14104">
        <ele>291.6</ele>
        <time>2020-06-26T11:44:29Z</time>
      </trkpt>
      <trkpt lat="49.59027" lon="6.14103">
        <ele>291.6</ele>
        <time>2020-06-26T11:44:30Z</time>
      </trkpt>
      <trkpt lat="49.59027" lon="6.14103">
        <ele>291.5</ele>
        <time>2020-06-26T11:44:31Z</time>
      </trkpt>
      <trkpt lat="49.59027" lon="6.14102">
        <ele>291.5</ele>
        <time>2020-06-26T11:44:32Z</time>
      </trkpt>
      <trkpt lat="49.59028" lon="6.14101">
        <ele>291.5</ele>
        <time>2020-06-26T11:44:33Z</time>
      </trkpt>
      <trkpt lat="49.59028" lon="6.141">
        <ele>291.5</ele>
        <time>2020-06-26T11:44:34Z</time>
      </trkpt>
      <trkpt lat="49.59028" lon="6.14099">
        <ele>291.5</ele>
        <time>2020-06-26T11:44:35Z</time>
      </trkpt>
      <trkpt lat="49.59028" lon="6.14098">
        <ele>291.5</ele>
        <time>2020-06-26T11:44:36Z</time>
      </trkpt>
      <trkpt lat="49.59029" lon="6.14097">
        <ele>291.5</ele>
        <time>2020-06-26T11:44:37Z</time>
      </trkpt>
      <trkpt lat="49.59029" lon="6.14097">
        <ele>291.5</ele>
        <time>2020-06-26T11:44:38Z</time>
      </trkpt>
      <trkpt lat="49.59029" lon="6.14096">
        <ele>291.5</ele>
        <time>2020-06-26T11:44:39Z</time>
      </trkpt>
      <trkpt lat="49.59029" lon="6.14095">
        <ele>291.5</ele>
        <time>2020-06-26T11:44:40Z</time>
      </trkpt>
      <trkpt lat="49.5903" lon="6.14094">
        <ele>291.5</ele>
        <time>2020-06-26T11:47:52Z</time>
      </trkpt>
      <trkpt lat="49.5903" lon="6.14093">
        <ele>291.5</ele>
        <time>2020-06-26T11:47:53Z</time>
      </trkpt>
      <trkpt lat="49.5903" lon="6.14092">
        <ele>291.4</ele>
        <time>2020-06-26T11:47:54Z</time>
      </trkpt>
      <trkpt lat="49.5903" lon="6.14091">
        <ele>291.4</ele>
        <time>2020-06-26T11:47:55Z</time>
      </trkpt>
      <trkpt lat="49.59031" lon="6.1409">
        <ele>291.4</ele>
        <time>2020-06-26T11:47:56Z</time>
      </trkpt>
      <trkpt lat="49.59031" lon="6.1409">
        <ele>291.4</ele>
        <time>2020-06-26T11:47:57Z</time>
      </trkpt>
      <trkpt lat="49.59031" lon="6.14089">
        <ele>291.4</ele>
        <time>2020-06-26T11:47:58Z</time>
      </trkpt>
      <trkpt lat="49.59031" lon="6.14088">
        <ele>291.4</ele>
        <time>2020-06-26T11:47:59Z</time>
      </trkpt>
      <trkpt lat="49.59031" lon="6.14087">
        <ele>291.4</ele>
        <time>2020-06-26T11:48:00Z</time>
      </trkpt>
      <trkpt lat="49.59032" lon="6.14086">
        <ele>291.4</ele>
        <time>2020-06-26T11:48:01Z</time>
      </trkpt>
      <trkpt lat="49.59032" lon="6.14085">
        <ele>291.4</ele>
        <time>2020-06-26T11:48:02Z</time>
      </trkpt>
      <trkpt lat="49.59032" lon="6.14084">
        <ele>291.4</ele>
        <time>2020-06-26T11:48:03Z</time>
      </trkpt>
      <trkpt lat="49.59032" lon="6.14084">
        <ele>291.4</ele>
        <time>2020-06-26T11:48:04Z</time>
      </trkpt>
      <trkpt lat="49.59033" lon="6.14083">
        <ele>291.4</ele>
        <time>2020-06-26T11:48:12Z</time>
      </trkpt>
      <trkpt lat="49.59033" lon="6.14082">
        <ele>291.4</ele>
        <time>2020-06-26T11:48:13Z</time>
      </trkpt>
      <trkpt lat="49.59033" lon="6.14081">
        <ele>291.4</ele>
        <time>2020-06-26T11:48:14Z</time>
      </trkpt>
      <trkpt lat="49.59033" lon="6.1408">
        <ele>291.4</ele>
        <time>2020-06-26T11:48:15Z</time>
      </trkpt>
      <trkpt lat="49.59034" lon="6.14076">
        <ele>291.4</ele>
        <time>2020-06-26T11:48:16Z</time>
      </trkpt>
      <trkpt lat="49.59034" lon="6.14075">
        <ele>291.3</ele>
        <time>2020-06-26T11:48:17Z</time>
      </trkpt>
      <trkpt lat="49.59034" lon="6.14075">
        <ele>291.3</ele>
        <time>2020-06-26T11:48:18Z</time>
      </trkpt>
      <trkpt lat="49.59035" lon="6.14074">
        <ele>291.3</ele>
        <time>2020-06-26T11:48:19Z</time>
      </trkpt>
      <trkpt lat="49.59035" lon="6.14074">
        <ele>291.3</ele>
        <time>2020-06-26T11:48:20Z</time>
      </trkpt>
      <trkpt lat="49.59035" lon="6.14073">
        <ele>291.3</ele>
        <time>2020-06-26T11:48:21Z</time>
      </trkpt>
      <trkpt lat="49.59035" lon="6.14073">
        <ele>291.3</ele>
        <time>2020-06-26T11:48:22Z</time>
      </trkpt>
      <trkpt lat="49.59035" lon="6.14072">
        <ele>291.3</ele>
        <time>2020-06-26T11:48:23Z</time>
      </trkpt>
      <trkpt lat="49.59035" lon="6.14072">
        <ele>291.3</ele>
        <time>2020-06-26T11:48:24Z</time>
      </trkpt>
      <trkpt lat="49.59035" lon="6.14072">
        <ele>291.3</ele>
        <time>2020-06-26T11:48:25Z</time>
      </trkpt>
      <trkpt lat="49.59035" lon="6.14072">
        <ele>291.3</ele>
        <time>2020-06-26T11:48:26Z</time>
      </trkpt>
      <trkpt lat="49.59035" lon="6.14072">
        <ele>291.3</ele>
        <time>2020-06-26T11:48:27Z</time>
      </trkpt>
      <trkpt lat="49.59038" lon="6.14066">
        <ele>291.3</ele>
        <time>2020-06-26T11:48:37Z</time>
      </trkpt>
      <trkpt lat="49.59038" lon="6.14066">
        <ele>291.3</ele>
        <time>2020-06-26T11:48:38Z</time>
      </trkpt>
      <trkpt lat="49.59038" lon="6.14065">
        <ele>291.3</ele>
        <time>2020-06-26T11:48:39Z</time>
      </trkpt>
      <trkpt lat="49.59037" lon="6.14066">
        <ele>291.3</ele>
        <time>2020-06-26T11:48:40Z</time>
      </trkpt>
      <trkpt lat="49.59037" lon="6.14066">
        <ele>291.3</ele>
        <time>2020-06-26T11:48:41Z</time>
      </trkpt>
      <trkpt lat="49.59037" lon="6.14066">
        <ele>291.3</ele>
        <time>2020-06-26T11:48:42Z</time>
      </trkpt>
      <trkpt lat="49.59037" lon="6.14067">
        <ele>291.3</ele>
        <time>2020-06-26T11:48:43Z</time>
      </trkpt>
      <trkpt lat="49.59037" lon="6.14066">
        <ele>291.3</ele>
        <time>2020-06-26T11:48:44Z</time>
      </trkpt>
      <trkpt lat="49.59037" lon="6.14066">
        <ele>291.3</ele>
        <time>2020-06-26T11:48:45Z</time>
      </trkpt>
      <trkpt lat="49.59037" lon="6.14067">
        <ele>291.3</ele>
        <time>2020-06-26T11:48:46Z</time>
      </trkpt>
      <trkpt lat="49.59037" lon="6.14068">
        <ele>291.3</ele>
        <time>2020-06-26T11:48:47Z</time>
      </trkpt>
      <trkpt lat="49.59037" lon="6.14067">
        <ele>291.2</ele>
        <time>2020-06-26T11:48:48Z</time>
      </trkpt>
      <trkpt lat="49.59037" lon="6.14067">
        <ele>291.2</ele>
        <time>2020-06-26T11:48:49Z</time>
      </trkpt>
      <trkpt lat="49.59037" lon="6.14067">
        <ele>291.2</ele>
        <time>2020-06-26T11:48:50Z</time>
      </trkpt>
      <trkpt lat="49.59037" lon="6.14066">
        <ele>291.2</ele>
        <time>2020-06-26T11:48:51Z</time>
      </trkpt>
      <trkpt lat="49.59037" lon="6.14066">
        <ele>291.2</ele>
        <time>2020-06-26T11:48:52Z</time>
      </trkpt>
      <trkpt lat="49.59037" lon="6.14066">
        <ele>291.2</ele>
        <time>2020-06-26T11:48:53Z</time>
      </trkpt>
      <trkpt lat="49.59037" lon="6.14067">
        <ele>291.2</ele>
        <time>2020-06-26T11:48:54Z</time>
      </trkpt>
      <trkpt lat="49.59036" lon="6.14067">
        <ele>291.2</ele>
        <time>2020-06-26T11:48:55Z</time>
      </trkpt>
      <trkpt lat="49.59036" lon="6.14068">
        <ele>291.2</ele>
        <time>2020-06-26T11:48:56Z</time>
      </trkpt>
      <trkpt lat="49.59036" lon="6.14068">
        <ele>291.2</ele>
        <time>2020-06-26T11:48:57Z</time>
      </trkpt>
      <trkpt lat="49.59042" lon="6.1406">
        <ele>291.1</ele>
        <time>2020-06-26T11:50:33Z</time>
      </trkpt>
      <trkpt lat="49.59041" lon="6.14057">
        <ele>291.1</ele>
        <time>2020-06-26T11:50:34Z</time>
      </trkpt>
      <trkpt lat="49.59041" lon="6.14055">
        <ele>291.1</ele>
        <time>2020-06-26T11:50:35Z</time>
      </trkpt>
      <trkpt lat="49.5904" lon="6.14054">
        <ele>291.1</ele>
        <time>2020-06-26T11:50:36Z</time>
      </trkpt>
      <trkpt lat="49.5904" lon="6.14054">
        <ele>291.1</ele>
        <time>2020-06-26T11:50:37Z</time>
      </trkpt>
      <trkpt lat="49.5904" lon="6.14054">
        <ele>291.1</ele>
        <time>2020-06-26T11:50:38Z</time>
      </trkpt>
      <trkpt lat="49.5904" lon="6.14052">
        <ele>291.1</ele>
        <time>2020-06-26T11:50:39Z</time>
      </trkpt>
      <trkpt lat="49.59039" lon="6.14054">
        <ele>291.1</ele>
        <time>2020-06-26T11:50:40Z</time>
      </trkpt>
      <trkpt lat="49.59038" lon="6.14055">
        <ele>291.1</ele>
        <time>2020-06-26T11:50:41Z</time>
      </trkpt>
      <trkpt lat="49.59038" lon="6.14055">
        <ele>291.1</ele>
        <time>2020-06-26T11:50:42Z</time>
      </trkpt>
      <trkpt lat="49.59037" lon="6.14055">
        <ele>291.1</ele>
        <time>2020-06-26T11:50:43Z</time>
      </trkpt>
      <trkpt lat="49.59037" lon="6.14055">
        <ele>291.1</ele>
        <time>2020-06-26T11:50:44Z</time>
      </trkpt>
      <trkpt lat="49.59036" lon="6.14055">
        <ele>291.1</ele>
        <time>2020-06-26T11:50:45Z</time>
      </trkpt>
      <trkpt lat="49.59036" lon="6.14055">
        <ele>291</ele>
        <time>2020-06-26T11:50:46Z</time>
      </trkpt>
      <trkpt lat="49.59036" lon="6.14055">
        <ele>291</ele>
        <time>2020-06-26T11:50:47Z</time>
      </trkpt>
      <trkpt lat="49.59036" lon="6.14055">
        <ele>291</ele>
        <time>2020-06-26T11:50:48Z</time>
      </trkpt>
      <trkpt lat="49.59036" lon="6.14055">
        <ele>291</ele>
        <time>2020-06-26T11:50:49Z</time>
      </trkpt>
      <trkpt lat="49.59036" lon="6.14055">
        <ele>291</ele>
        <time>2020-06-26T11:50:50Z</time>
      </trkpt>
      <trkpt lat="49.59036" lon="6.14055">
        <ele>291</ele>
        <time>2020-06-26T11:50:51Z</time>
      </trkpt>
      <trkpt lat="49.59036" lon="6.14055">
        <ele>291</ele>
        <time>2020-06-26T11:50:52Z</time>
      </trkpt>
      <trkpt lat="49.59036" lon="6.14055">
        <ele>291</ele>
        <time>2020-06-26T11:50:53Z</time>
      </trkpt>
      <trkpt lat="49.59036" lon="6.14055">
        <ele>291</ele>
        <time>2020-06-26T11:50:54Z</time>
      </trkpt>
      <trkpt lat="49.59036" lon="6.14054">
        <ele>291</ele>
        <time>2020-06-26T11:50:55Z</time>
      </trkpt>
      <trkpt lat="49.59036" lon="6.14055">
        <ele>291</ele>
        <time>2020-06-26T11:50:56Z</time>
      </trkpt>
      <trkpt lat="49.59036" lon="6.14055">
        <ele>291</ele>
        <time>2020-06-26T11:50:57Z</time>
      </trkpt>
      <trkpt lat="49.59036" lon="6.14057">
        <ele>291</ele>
        <time>2020-06-26T11:50:58Z</time>
      </trkpt>
      <trkpt lat="49.59034" lon="6.14069">
        <ele>291.2</ele>
        <time>2020-06-26T11:51:45Z</time>
      </trkpt>
      <trkpt lat="49.59034" lon="6.14069">
        <ele>291.2</ele>
        <time>2020-06-26T11:51:46Z</time>
      </trkpt>
      <trkpt lat="49.59034" lon="6.14069">
        <ele>291.2</ele>
        <time>2020-06-26T11:51:47Z</time>
      </trkpt>
      <trkpt lat="49.59034" lon="6.14069">
        <ele>291.2</ele>
        <time>2020-06-26T11:51:48Z</time>
      </trkpt>
      <trkpt lat="49.59034" lon="6.14069">
        <ele>291.2</ele>
        <time>2020-06-26T11:51:49Z</time>
      </trkpt>
      <trkpt lat="49.59034" lon="6.14069">
        <ele>291.2</ele>
        <time>2020-06-26T11:51:50Z</time>
      </trkpt>
      <trkpt lat="49.59034" lon="6.14069">
        <ele>291.2</ele>
        <time>2020-06-26T11:51:51Z</time>
      </trkpt>
      <trkpt lat="49.59034" lon="6.14069">
        <ele>291.2</ele>
        <time>2020-06-26T11:51:52Z</time>
      </trkpt>
      <trkpt lat="49.59034" lon="6.14069">
        <ele>291.2</ele>
        <time>2020-06-26T11:51:53Z</time>
      </trkpt>
      <trkpt lat="49.59034" lon="6.14069">
        <ele>291.2</ele>
        <time>2020-06-26T11:51:54Z</time>
      </trkpt>
      <trkpt lat="49.59034" lon="6.14069">
        <ele>291.2</ele>
        <time>2020-06-26T11:51:55Z</time>
      </trkpt>
      <trkpt lat="49.59034" lon="6.14069">
        <ele>291.2</ele>
        <time>2020-06-26T11:51:56Z</time>
      </trkpt>
      <trkpt lat="49.59035" lon="6.14059">
        <ele>291.2</ele>
        <time>2020-06-26T11:52:10Z</time>
      </trkpt>
      <trkpt lat="49.59036" lon="6.14057">
        <ele>291.2</ele>
        <time>2020-06-26T11:52:11Z</time>
      </trkpt>
      <trkpt lat="49.59036" lon="6.14057">
        <ele>291.2</ele>
        <time>2020-06-26T11:52:12Z</time>
      </trkpt>
      <trkpt lat="49.59036" lon="6.14057">
        <ele>291.2</ele>
        <time>2020-06-26T11:52:13Z</time>
      </trkpt>
      <trkpt lat="49.59036" lon="6.14057">
        <ele>291.2</ele>
        <time>2020-06-26T11:52:14Z</time>
      </trkpt>
      <trkpt lat="49.59036" lon="6.14057">
        <ele>291.2</ele>
        <time>2020-06-26T11:52:15Z</time>
      </trkpt>
      <trkpt lat="49.59036" lon="6.14057">
        <ele>291.2</ele>
        <time>2020-06-26T11:52:16Z</time>
      </trkpt>
      <trkpt lat="49.59036" lon="6.14057">
        <ele>291.2</ele>
        <time>2020-06-26T11:52:17Z</time>
      </trkpt>
      <trkpt lat="49.59036" lon="6.14057">
        <ele>291.2</ele>
        <time>2020-06-26T11:52:18Z</time>
      </trkpt>
      <trkpt lat="49.59036" lon="6.14057">
        <ele>291.2</ele>
        <time>2020-06-26T11:52:19Z</time>
      </trkpt>
      <trkpt lat="49.59036" lon="6.14057">
        <ele>291.2</ele>
        <time>2020-06-26T11:52:20Z</time>
      </trkpt>
      <trkpt lat="49.59038" lon="6.14068">
        <ele>291.3</ele>
        <time>2020-06-26T11:58:34Z</time>
      </trkpt>
      <trkpt lat="49.59038" lon="6.14066">
        <ele>291.3</ele>
        <time>2020-06-26T11:58:35Z</time>
      </trkpt>
      <trkpt lat="49.59038" lon="6.14066">
        <ele>291.3</ele>
        <time>2020-06-26T11:58:36Z</time>
      </trkpt>
      <trkpt lat="49.59038" lon="6.14066">
        <ele>291.3</ele>
        <time>2020-06-26T11:58:37Z</time>
      </trkpt>
      <trkpt lat="49.59037" lon="6.14066">
        <ele>291.3</ele>
        <time>2020-06-26T11:58:38Z</time>
      </trkpt>
      <trkpt lat="49.59037" lon="6.14066">
        <ele>291.3</ele>
        <time>2020-06-26T11:58:39Z</time>
      </trkpt>
      <trkpt lat="49.59037" lon="6.14065">
        <ele>291.3</ele>
        <time>2020-06-26T11:58:40Z</time>
      </trkpt>
      <trkpt lat="49.59036" lon="6.14064">
        <ele>291.3</ele>
        <time>2020-06-26T11:58:41Z</time>
      </trkpt>
      <trkpt lat="49.59036" lon="6.14064">
        <ele>291.3</ele>
        <time>2020-06-26T11:58:42Z</time>
      </trkpt>
      <trkpt lat="49.59036" lon="6.14064">
        <ele>291.3</ele>
        <time>2020-06-26T11:58:43Z</time>
      </trkpt>
      <trkpt lat="49.59036" lon="6.14063">
        <ele>291.3</ele>
        <time>2020-06-26T11:58:44Z</time>
      </trkpt>
      <trkpt lat="49.59037" lon="6.14062">
        <ele>291.3</ele>
        <time>2020-06-26T11:58:45Z</time>
      </trkpt>
      <trkpt lat="49.59037" lon="6.14061">
        <ele>291.3</ele>
        <time>2020-06-26T11:58:46Z</time>
      </trkpt>
      <trkpt lat="49.59036" lon="6.14061">
        <ele>291.3</ele>
        <time>2020-06-26T11:58:47Z</time>
      </trkpt>
      <trkpt lat="49.59036" lon="6.14061">
        <ele>291.3</ele>
        <time>2020-06-26T11:58:48Z</time>
      </trkpt>
      <trkpt lat="49.59035" lon="6.14061">
        <ele>291.3</ele>
        <time>2020-06-26T11:58:49Z</time>
      </trkpt>
      <trkpt lat="49.59035" lon="6.1406">
        <ele>291.3</ele>
        <time>2020-06-26T11:58:50Z</time>
      </trkpt>
      <trkpt lat="49.59035" lon="6.14061">
        <ele>291.3</ele>
        <time>2020-06-26T11:58:51Z</time>
      </trkpt>
      <trkpt lat="49.59035" lon="6.14061">
        <ele>291.3</ele>
        <time>2020-06-26T11:58:52Z</time>
      </trkpt>
      <trkpt lat="49.59034" lon="6.14062">
        <ele>291.3</ele>
        <time>2020-06-26T11:58:53Z</time>
      </trkpt>
      <trkpt lat="49.59034" lon="6.14063">
        <ele>291.3</ele>
        <time>2020-06-26T11:58:54Z</time>
      </trkpt>
      <trkpt lat="49.59034" lon="6.14063">
        <ele>291.3</ele>
        <time>2020-06-26T11:58:55Z</time>
      </trkpt>
      <trkpt lat="49.59033" lon="6.14064">
        <ele>291.3</ele>
        <time>2020-06-26T11:58:56Z</time>
      </trkpt>
      <trkpt lat="49.59033" lon="6.14065">
        <ele>291.3</ele>
        <time>2020-06-26T11:58:57Z</time>
      </trkpt>
      <trkpt lat="49.59033" lon="6.14065">
        <ele>291.3</ele>
        <time>2020-06-26T11:58:58Z</time>
      </trkpt>
      <trkpt lat="49.59033" lon="6.14066">
        <ele>291.3</ele>
        <time>2020-06-26T11:58:59Z</time>
      </trkpt>
      <trkpt lat="49.59032" lon="6.14067">
        <ele>291.3</ele>
        <time>2020-06-26T11:59:00Z</time>
      </trkpt>
      <trkpt lat="49.59032" lon="6.14068">
        <ele>291.3</ele>
        <time>2020-06-26T11:59:01Z</time>
      </trkpt>
      <trkpt lat="49.59032" lon="6.14068">
        <ele>291.3</ele>
        <time>2020-06-26T11:59:02Z</time>
      </trkpt>
      <trkpt lat="49.59032" lon="6.14069">
        <ele>291.3</ele>
        <time>2020-06-26T11:59:09Z</time>
      </trkpt>
      <trkpt lat="49.59031" lon="6.1407">
        <ele>291.4</ele>
        <time>2020-06-26T11:59:10Z</time>
      </trkpt>
      <trkpt lat="49.59031" lon="6.14071">
        <ele>291.4</ele>
        <time>2020-06-26T11:59:11Z</time>
      </trkpt>
      <trkpt lat="49.5903" lon="6.14073">
        <ele>291.4</ele>
        <time>2020-06-26T11:59:12Z</time>
      </trkpt>
      <trkpt lat="49.5903" lon="6.14074">
        <ele>291.4</ele>
        <time>2020-06-26T11:59:13Z</time>
      </trkpt>
      <trkpt lat="49.59031" lon="6.14074">
        <ele>291.4</ele>
        <time>2020-06-26T11:59:14Z</time>
      </trkpt>
      <trkpt lat="49.5903" lon="6.14075">
        <ele>291.4</ele>
        <time>2020-06-26T11:59:15Z</time>
      </trkpt>
      <trkpt lat="49.5903" lon="6.14076">
        <ele>291.4</ele>
        <time>2020-06-26T11:59:16Z</time>
      </trkpt>
      <trkpt lat="49.5903" lon="6.14076">
        <ele>291.4</ele>
        <time>2020-06-26T11:59:17Z</time>
      </trkpt>
      <trkpt lat="49.5903" lon="6.14077">
        <ele>291.4</ele>
        <time>2020-06-26T11:59:18Z</time>
      </trkpt>
      <trkpt lat="49.5903" lon="6.14078">
        <ele>291.4</ele>
        <time>2020-06-26T11:59:19Z</time>
      </trkpt>
      <trkpt lat="49.5903" lon="6.14078">
        <ele>291.4</ele>
        <time>2020-06-26T11:59:20Z</time>
      </trkpt>
      <trkpt lat="49.5903" lon="6.14079">
        <ele>291.4</ele>
        <time>2020-06-26T11:59:21Z</time>
      </trkpt>
      <trkpt lat="49.5903" lon="6.1408">
        <ele>291.4</ele>
        <time>2020-06-26T11:59:22Z</time>
      </trkpt>
      <trkpt lat="49.5903" lon="6.14081">
        <ele>291.4</ele>
        <time>2020-06-26T11:59:23Z</time>
      </trkpt>
      <trkpt lat="49.5903" lon="6.14081">
        <ele>291.4</ele>
        <time>2020-06-26T11:59:24Z</time>
      </trkpt>
      <trkpt lat="49.5903" lon="6.14082">
        <ele>291.4</ele>
        <time>2020-06-26T11:59:25Z</time>
      </trkpt>
      <trkpt lat="49.5903" lon="6.14084">
        <ele>291.4</ele>
        <time>2020-06-26T11:59:26Z</time>
      </trkpt>
      <trkpt lat="49.5903" lon="6.14084">
        <ele>291.4</ele>
        <time>2020-06-26T11:59:27Z</time>
      </trkpt>
      <trkpt lat="49.5903" lon="6.14085">
        <ele>291.4</ele>
        <time>2020-06-26T11:59:28Z</time>
      </trkpt>
      <trkpt lat="49.5903" lon="6.14085">
        <ele>291.4</ele>
        <time>2020-06-26T11:59:29Z</time>
      </trkpt>
      <trkpt lat="49.59031" lon="6.14085">
        <ele>291.4</ele>
        <time>2020-06-26T11:59:30Z</time>
      </trkpt>
      <trkpt lat="49.59032" lon="6.14086">
        <ele>291.4</ele>
        <time>2020-06-26T11:59:31Z</time>
      </trkpt>
      <trkpt lat="49.59032" lon="6.14086">
        <ele>291.4</ele>
        <time>2020-06-26T11:59:32Z</time>
      </trkpt>
      <trkpt lat="49.59032" lon="6.14086">
        <ele>291.4</ele>
        <time>2020-06-26T11:59:33Z</time>
      </trkpt>
      <trkpt lat="49.59033" lon="6.14085">
        <ele>291.4</ele>
        <time>2020-06-26T11:59:34Z</time>
      </trkpt>
      <trkpt lat="49.59035" lon="6.14084">
        <ele>291.4</ele>
        <time>2020-06-26T11:59:35Z</time>
      </trkpt>
      <trkpt lat="49.59035" lon="6.14085">
        <ele>291.4</ele>
        <time>2020-06-26T11:59:36Z</time>
      </trkpt>
      <trkpt lat="49.59034" lon="6.14097">
        <ele>291.5</ele>
        <time>2020-06-26T12:00:00Z</time>
      </trkpt>
      <trkpt lat="49.59034" lon="6.14098">
        <ele>291.5</ele>
        <time>2020-06-26T12:00:01Z</time>
      </trkpt>
      <trkpt lat="49.59035" lon="6.141">
        <ele>291.5</ele>
        <time>2020-06-26T12:00:02Z</time>
      </trkpt>
      <trkpt lat="49.59034" lon="6.14099">
        <ele>291.5</ele>
        <time>2020-06-26T12:00:03Z</time>
      </trkpt>
      <trkpt lat="49.59034" lon="6.14099">
        <ele>291.5</ele>
        <time>2020-06-26T12:00:04Z</time>
      </trkpt>
      <trkpt lat="49.59034" lon="6.14099">
        <ele>291.5</ele>
        <time>2020-06-26T12:00:05Z</time>
      </trkpt>
      <trkpt lat="49.59033" lon="6.14099">
        <ele>291.5</ele>
        <time>2020-06-26T12:00:06Z</time>
      </trkpt>
      <trkpt lat="49.59033" lon="6.14099">
        <ele>291.5</ele>
        <time>2020-06-26T12:00:07Z</time>
      </trkpt>
      <trkpt lat="49.59033" lon="6.14099">
        <ele>291.5</ele>
        <time>2020-06-26T12:00:08Z</time>
      </trkpt>
      <trkpt lat="49.59033" lon="6.141">
        <ele>291.5</ele>
        <time>2020-06-26T12:00:09Z</time>
      </trkpt>
      <trkpt lat="49.59033" lon="6.141">
        <ele>291.5</ele>
        <time>2020-06-26T12:00:10Z</time>
      </trkpt>
      <trkpt lat="49.59033" lon="6.14101">
        <ele>291.5</ele>
        <time>2020-06-26T12:00:11Z</time>
      </trkpt>
      <trkpt lat="49.59033" lon="6.14101">
        <ele>291.5</ele>
        <time>2020-06-26T12:00:12Z</time>
      </trkpt>
      <trkpt lat="49.59033" lon="6.14101">
        <ele>291.5</ele>
        <time>2020-06-26T12:00:13Z</time>
      </trkpt>
      <trkpt lat="49.59032" lon="6.14102">
        <ele>291.5</ele>
        <time>2020-06-26T12:00:14Z</time>
      </trkpt>
      <trkpt lat="49.59033" lon="6.14102">
        <ele>291.5</ele>
        <time>2020-06-26T12:00:15Z</time>
      </trkpt>
      <trkpt lat="49.59032" lon="6.14102">
        <ele>291.5</ele>
        <time>2020-06-26T12:00:16Z</time>
      </trkpt>
      <trkpt lat="49.59032" lon="6.14102">
        <ele>291.5</ele>
        <time>2020-06-26T12:00:17Z</time>
      </trkpt>
      <trkpt lat="49.59032" lon="6.14102">
        <ele>291.5</ele>
        <time>2020-06-26T12:00:18Z</time>
      </trkpt>
      <trkpt lat="49.59032" lon="6.14102">
        <ele>291.5</ele>
        <time>2020-06-26T12:00:19Z</time>
      </trkpt>
      <trkpt lat="49.59032" lon="6.14102">
        <ele>291.5</ele>
        <time>2020-06-26T12:00:20Z</time>
      </trkpt>
      <trkpt lat="49.59032" lon="6.14102">
        <ele>291.5</ele>
        <time>2020-06-26T12:00:21Z</time>
      </trkpt>
      <trkpt lat="49.59032" lon="6.14102">
        <ele>291.5</ele>
        <time>2020-06-26T12:00:22Z</time>
      </trkpt>
      <trkpt lat="49.59031" lon="6.14102">
        <ele>291.5</ele>
        <time>2020-06-26T12:00:23Z</time>
      </trkpt>
      <trkpt lat="49.59031" lon="6.14101">
        <ele>291.5</ele>
        <time>2020-06-26T12:00:24Z</time>
      </trkpt>
      <trkpt lat="49.5902" lon="6.14095">
        <ele>292.3</ele>
        <time>2020-06-26T12:07:45Z</time>
      </trkpt>
      <trkpt lat="49.5902" lon="6.14095">
        <ele>292.3</ele>
        <time>2020-06-26T12:07:46Z</time>
      </trkpt>
      <trkpt lat="49.59019" lon="6.14094">
        <ele>292.3</ele>
        <time>2020-06-26T12:07:47Z</time>
      </trkpt>
      <trkpt lat="49.59019" lon="6.14093">
        <ele>292.3</ele>
        <time>2020-06-26T12:07:48Z</time>
      </trkpt>
      <trkpt lat="49.59019" lon="6.14093">
        <ele>292.3</ele>
        <time>2020-06-26T12:07:49Z</time>
      </trkpt>
      <trkpt lat="49.5902" lon="6.14094">
        <ele>292.3</ele>
        <time>2020-06-26T12:07:50Z</time>
      </trkpt>
      <trkpt lat="49.59021" lon="6.14095">
        <ele>292.3</ele>
        <time>2020-06-26T12:07:51Z</time>
      </trkpt>
      <trkpt lat="49.59021" lon="6.14095">
        <ele>292.3</ele>
        <time>2020-06-26T12:07:52Z</time>
      </trkpt>
      <trkpt lat="49.59021" lon="6.14094">
        <ele>292.3</ele>
        <time>2020-06-26T12:07:53Z</time>
      </trkpt>
      <trkpt lat="49.59022" lon="6.14094">
        <ele>292.3</ele>
        <time>2020-06-26T12:07:54Z</time>
      </trkpt>
      <trkpt lat="49.59022" lon="6.14094">
        <ele>292.3</ele>
        <time>2020-06-26T12:07:55Z</time>
      </trkpt>
      <trkpt lat="49.59022" lon="6.14094">
        <ele>292.3</ele>
        <time>2020-06-26T12:07:56Z</time>
      </trkpt>
      <trkpt lat="49.59022" lon="6.14094">
        <ele>292.3</ele>
        <time>2020-06-26T12:07:57Z</time>
      </trkpt>
      <trkpt lat="49.59022" lon="6.14094">
        <ele>292.3</ele>
        <time>2020-06-26T12:07:58Z</time>
      </trkpt>
      <trkpt lat="49.59022" lon="6.14094">
        <ele>292.3</ele>
        <time>2020-06-26T12:07:59Z</time>
      </trkpt>
      <trkpt lat="49.59023" lon="6.14094">
        <ele>292.3</ele>
        <time>2020-06-26T12:08:00Z</time>
      </trkpt>
      <trkpt lat="49.59023" lon="6.14094">
        <ele>292.3</ele>
        <time>2020-06-26T12:08:01Z</time>
      </trkpt>
      <trkpt lat="49.59023" lon="6.14094">
        <ele>292.3</ele>
        <time>2020-06-26T12:08:02Z</time>
      </trkpt>
      <trkpt lat="49.59023" lon="6.14094">
        <ele>292.3</ele>
        <time>2020-06-26T12:08:03Z</time>
      </trkpt>
      <trkpt lat="49.59024" lon="6.14094">
        <ele>292.4</ele>
        <time>2020-06-26T12:08:04Z</time>
      </trkpt>
      <trkpt lat="49.59032" lon="6.14089">
        <ele>292.5</ele>
        <time>2020-06-26T12:09:02Z</time>
      </trkpt>
      <trkpt lat="49.59033" lon="6.1409">
        <ele>292.5</ele>
        <time>2020-06-26T12:09:03Z</time>
      </trkpt>
      <trkpt lat="49.59034" lon="6.1409">
        <ele>292.5</ele>
        <time>2020-06-26T12:09:04Z</time>
      </trkpt>
      <trkpt lat="49.59033" lon="6.14089">
        <ele>292.5</ele>
        <time>2020-06-26T12:09:05Z</time>
      </trkpt>
      <trkpt lat="49.59034" lon="6.14089">
        <ele>292.5</ele>
        <time>2020-06-26T12:09:06Z</time>
      </trkpt>
      <trkpt lat="49.59035" lon="6.14089">
        <ele>292.5</ele>
        <time>2020-06-26T12:09:07Z</time>
      </trkpt>
      <trkpt lat="49.59035" lon="6.14089">
        <ele>292.5</ele>
        <time>2020-06-26T12:09:08Z</time>
      </trkpt>
      <trkpt lat="49.59035" lon="6.14089">
        <ele>292.5</ele>
        <time>2020-06-26T12:09:09Z</time>
      </trkpt>
      <trkpt lat="49.59035" lon="6.14089">
        <ele>292.5</ele>
        <time>2020-06-26T12:09:10Z</time>
      </trkpt>
      <trkpt lat="49.59035" lon="6.14089">
        <ele>292.5</ele>
        <time>2020-06-26T12:09:11Z</time>
      </trkpt>
      <trkpt lat="49.59035" lon="6.14089">
        <ele>292.6</ele>
        <time>2020-06-26T12:09:12Z</time>
      </trkpt>
      <trkpt lat="49.59035" lon="6.14089">
        <ele>292.6</ele>
        <time>2020-06-26T12:09:13Z</time>
      </trkpt>
      <trkpt lat="49.59035" lon="6.1409">
        <ele>292.6</ele>
        <time>2020-06-26T12:09:14Z</time>
      </trkpt>
      <trkpt lat="49.59034" lon="6.1409">
        <ele>292.6</ele>
        <time>2020-06-26T12:09:15Z</time>
      </trkpt>
      <trkpt lat="49.59034" lon="6.14091">
        <ele>292.6</ele>
        <time>2020-06-26T12:09:16Z</time>
      </trkpt>
      <trkpt lat="49.59034" lon="6.14092">
        <ele>292.6</ele>
        <time>2020-06-26T12:09:17Z</time>
      </trkpt>
      <trkpt lat="49.59034" lon="6.14093">
        <ele>292.6</ele>
        <time>2020-06-26T12:09:18Z</time>
      </trkpt>
      <trkpt lat="49.59034" lon="6.14092">
        <ele>292.6</ele>
        <time>2020-06-26T12:09:19Z</time>
      </trkpt>
      <trkpt lat="49.59027" lon="6.14083">
        <ele>292.7</ele>
        <time>2020-06-26T12:09:45Z</time>
      </trkpt>
      <trkpt lat="49.59025" lon="6.14084">
        <ele>292.8</ele>
        <time>2020-06-26T12:09:46Z</time>
      </trkpt>
      <trkpt lat="49.59021" lon="6.14084">
        <ele>292.8</ele>
        <time>2020-06-26T12:09:47Z</time>
      </trkpt>
      <trkpt lat="49.5902" lon="6.14084">
        <ele>292.8</ele>
        <time>2020-06-26T12:09:48Z</time>
      </trkpt>
      <trkpt lat="49.59017" lon="6.14085">
        <ele>292.9</ele>
        <time>2020-06-26T12:09:49Z</time>
      </trkpt>
      <trkpt lat="49.59014" lon="6.14087">
        <ele>292.9</ele>
        <time>2020-06-26T12:09:50Z</time>
      </trkpt>
      <trkpt lat="49.5901" lon="6.14087">
        <ele>293</ele>
        <time>2020-06-26T12:09:51Z</time>
      </trkpt>
      <trkpt lat="49.59007" lon="6.14088">
        <ele>293.1</ele>
        <time>2020-06-26T12:09:52Z</time>
      </trkpt>
      <trkpt lat="49.59003" lon="6.1409">
        <ele>293.1</ele>
        <time>2020-06-26T12:09:53Z</time>
      </trkpt>
      <trkpt lat="49.59002" lon="6.14091">
        <ele>293.2</ele>
        <time>2020-06-26T12:09:54Z</time>
      </trkpt>
      <trkpt lat="49.58999" lon="6.14092">
        <ele>293.2</ele>
        <time>2020-06-26T12:09:55Z</time>
      </trkpt>
      <trkpt lat="49.58996" lon="6.14093">
        <ele>293.3</ele>
        <time>2020-06-26T12:09:56Z</time>
      </trkpt>
      <trkpt lat="49.58993" lon="6.14094">
        <ele>293.4</ele>
        <time>2020-06-26T12:09:57Z</time>
      </trkpt>
      <trkpt lat="49.58989" lon="6.14097">
        <ele>293.4</ele>
        <time>2020-06-26T12:09:58Z</time>
      </trkpt>
      <trkpt lat="49.58988" lon="6.14098">
        <ele>293.5</ele>
        <time>2020-06-26T12:09:59Z</time>
      </trkpt>
      <trkpt lat="49.58985" lon="6.14099">
        <ele>293.5</ele>
        <time>2020-06-26T12:10:00Z</time>
      </trkpt>
      <trkpt lat="49.58982" lon="6.14101">
        <ele>293.6</ele>
        <time>2020-06-26T12:10:01Z</time>
      </trkpt>
      <trkpt lat="49.58978" lon="6.14102">
        <ele>293.6</ele>
        <time>2020-06-26T12:10:02Z</time>
      </trkpt>
      <trkpt lat="49.58975" lon="6.14104">
        <ele>293.7</ele>
        <time>2020-06-26T12:10:03Z</time>
      </trkpt>
      <trkpt lat="49.58968" lon="6.14115">
        <ele>293.8</ele>
        <time>2020-06-26T12:10:04Z</time>
      </trkpt>
      <trkpt lat="49.58964" lon="6.14117">
        <ele>293.9</ele>
        <time>2020-06-26T12:10:05Z</time>
      </trkpt>
      <trkpt lat="49.5896" lon="6.1412">
        <ele>293.9</ele>
        <time>2020-06-26T12:10:06Z</time>
      </trkpt>
      <trkpt lat="49.58956" lon="6.14122">
        <ele>294</ele>
        <time>2020-06-26T12:10:07Z</time>
      </trkpt>
      <trkpt lat="49.58952" lon="6.14123">
        <ele>294.1</ele>
        <time>2020-06-26T12:10:08Z</time>
      </trkpt>
      <trkpt lat="49.58949" lon="6.14125">
        <ele>294.2</ele>
        <time>2020-06-26T12:10:09Z</time>
      </trkpt>
      <trkpt lat="49.58945" lon="6.14127">
        <ele>294.2</ele>
        <time>2020-06-26T12:10:10Z</time>
      </trkpt>
      <trkpt lat="49.58938" lon="6.14138">
        <ele>294.5</ele>
        <time>2020-06-26T12:10:11Z</time>
      </trkpt>
      <trkpt lat="49.58935" lon="6.14141">
        <ele>294.6</ele>
        <time>2020-06-26T12:10:12Z</time>
      </trkpt>
      <trkpt lat="49.58931" lon="6.14144">
        <ele>294.7</ele>
        <time>2020-06-26T12:10:13Z</time>
      </trkpt>
      <trkpt lat="49.58927" lon="6.14147">
        <ele>294.8</ele>
        <time>2020-06-26T12:10:14Z</time>
      </trkpt>
      <trkpt lat="49.58923" lon="6.14149">
        <ele>294.9</ele>
        <time>2020-06-26T12:10:15Z</time>
      </trkpt>
      <trkpt lat="49.58921" lon="6.14152">
        <ele>294.9</ele>
        <time>2020-06-26T12:10:16Z</time>
      </trkpt>
      <trkpt lat="49.58918" lon="6.1416">
        <ele>295.1</ele>
        <time>2020-06-26T12:10:17Z</time>
      </trkpt>
      <trkpt lat="49.58917" lon="6.1416">
        <ele>295.1</ele>
        <time>2020-06-26T12:10:18Z</time>
      </trkpt>
      <trkpt lat="49.58917" lon="6.1416">
        <ele>295.1</ele>
        <time>2020-06-26T12:10:19Z</time>
      </trkpt>
      <trkpt lat="49.58917" lon="6.14162">
        <ele>295.1</ele>
        <time>2020-06-26T12:10:20Z</time>
      </trkpt>
      <trkpt lat="49.58917" lon="6.14163">
        <ele>295.1</ele>
        <time>2020-06-26T12:10:21Z</time>
      </trkpt>
      <trkpt lat="49.58917" lon="6.14163">
        <ele>295.1</ele>
        <time>2020-06-26T12:10:22Z</time>
      </trkpt>
      <trkpt lat="49.58916" lon="6.14164">
        <ele>295.1</ele>
        <time>2020-06-26T12:10:23Z</time>
      </trkpt>
      <trkpt lat="49.58916" lon="6.14164">
        <ele>295.1</ele>
        <time>2020-06-26T12:10:24Z</time>
      </trkpt>
      <trkpt lat="49.58916" lon="6.14164">
        <ele>295.1</ele>
        <time>2020-06-26T12:10:25Z</time>
      </trkpt>
      <trkpt lat="49.58917" lon="6.14165">
        <ele>295.1</ele>
        <time>2020-06-26T12:10:26Z</time>
      </trkpt>
      <trkpt lat="49.58917" lon="6.14166">
        <ele>295.1</ele>
        <time>2020-06-26T12:10:27Z</time>
      </trkpt>
      <trkpt lat="49.58917" lon="6.14166">
        <ele>295.2</ele>
        <time>2020-06-26T12:10:28Z</time>
      </trkpt>
      <trkpt lat="49.58916" lon="6.14167">
        <ele>295.2</ele>
        <time>2020-06-26T12:10:29Z</time>
      </trkpt>
      <trkpt lat="49.58916" lon="6.14167">
        <ele>295.2</ele>
        <time>2020-06-26T12:10:30Z</time>
      </trkpt>
      <trkpt lat="49.58914" lon="6.14168">
        <ele>295.2</ele>
        <time>2020-06-26T12:10:38Z</time>
      </trkpt>
      <trkpt lat="49.58912" lon="6.14168">
        <ele>295.3</ele>
        <time>2020-06-26T12:10:39Z</time>
      </trkpt>
      <trkpt lat="49.58908" lon="6.14167">
        <ele>295.3</ele>
        <time>2020-06-26T12:10:40Z</time>
      </trkpt>
      <trkpt lat="49.58907" lon="6.14167">
        <ele>295.3</ele>
        <time>2020-06-26T12:10:41Z</time>
      </trkpt>
      <trkpt lat="49.58903" lon="6.14168">
        <ele>295.4</ele>
        <time>2020-06-26T12:10:42Z</time>
      </trkpt>
      <trkpt lat="49.58899" lon="6.14169">
        <ele>295.5</ele>
        <time>2020-06-26T12:10:43Z</time>
      </trkpt>
      <trkpt lat="49.58895" lon="6.14169">
        <ele>296.1</ele>
        <time>2020-06-26T12:10:44Z</time>
      </trkpt>
      <trkpt lat="49.58891" lon="6.14172">
        <ele>296.1</ele>
        <time>2020-06-26T12:10:45Z</time>
      </trkpt>
      <trkpt lat="49.58886" lon="6.14174">
        <ele>296.3</ele>
        <time>2020-06-26T12:10:46Z</time>
      </trkpt>
      <trkpt lat="49.58882" lon="6.14175">
        <ele>296.4</ele>
        <time>2020-06-26T12:10:47Z</time>
      </trkpt>
      <trkpt lat="49.58878" lon="6.1418">
        <ele>296.5</ele>
        <time>2020-06-26T12:10:48Z</time>
      </trkpt>
      <trkpt lat="49.58875" lon="6.14182">
        <ele>296.6</ele>
        <time>2020-06-26T12:10:49Z</time>
      </trkpt>
      <trkpt lat="49.58871" lon="6.14184">
        <ele>296.7</ele>
        <time>2020-06-26T12:10:50Z</time>
      </trkpt>
      <trkpt lat="49.58867" lon="6.14186">
        <ele>296.8</ele>
        <time>2020-06-26T12:10:51Z</time>
      </trkpt>
      <trkpt lat="49.58864" lon="6.14188">
        <ele>296.9</ele>
        <time>2020-06-26T12:10:52Z</time>
      </trkpt>
      <trkpt lat="49.58861" lon="6.1419">
        <ele>297</ele>
        <time>2020-06-26T12:10:53Z</time>
      </trkpt>
      <trkpt lat="49.58858" lon="6.14192">
        <ele>297.1</ele>
        <time>2020-06-26T12:10:54Z</time>
      </trkpt>
      <trkpt lat="49.58854" lon="6.14197">
        <ele>297.2</ele>
        <time>2020-06-26T12:10:55Z</time>
      </trkpt>
      <trkpt lat="49.5885" lon="6.14198">
        <ele>297.3</ele>
        <time>2020-06-26T12:10:56Z</time>
      </trkpt>
      <trkpt lat="49.58846" lon="6.142">
        <ele>297.4</ele>
        <time>2020-06-26T12:10:57Z</time>
      </trkpt>
      <trkpt lat="49.58842" lon="6.14202">
        <ele>297.5</ele>
        <time>2020-06-26T12:10:58Z</time>
      </trkpt>
      <trkpt lat="49.58838" lon="6.14203">
        <ele>297.6</ele>
        <time>2020-06-26T12:10:59Z</time>
      </trkpt>
      <trkpt lat="49.58835" lon="6.14203">
        <ele>297.6</ele>
        <time>2020-06-26T12:11:00Z</time>
      </trkpt>
      <trkpt lat="49.58833" lon="6.14201">
        <ele>297.5</ele>
        <time>2020-06-26T12:11:01Z</time>
      </trkpt>
      <trkpt lat="49.58832" lon="6.142">
        <ele>297.5</ele>
        <time>2020-06-26T12:11:02Z</time>
      </trkpt>
      <trkpt lat="49.58829" lon="6.14194">
        <ele>297.3</ele>
        <time>2020-06-26T12:11:03Z</time>
      </trkpt>
      <trkpt lat="49.58827" lon="6.14192">
        <ele>297.2</ele>
        <time>2020-06-26T12:11:04Z</time>
      </trkpt>
      <trkpt lat="49.58826" lon="6.14187">
        <ele>297.1</ele>
        <time>2020-06-26T12:11:05Z</time>
      </trkpt>
      <trkpt lat="49.58825" lon="6.14182">
        <ele>297</ele>
        <time>2020-06-26T12:11:06Z</time>
      </trkpt>
      <trkpt lat="49.58824" lon="6.14178">
        <ele>296.9</ele>
        <time>2020-06-26T12:11:07Z</time>
      </trkpt>
      <trkpt lat="49.58823" lon="6.14173">
        <ele>296.8</ele>
        <time>2020-06-26T12:11:08Z</time>
      </trkpt>
      <trkpt lat="49.58822" lon="6.14167">
        <ele>296.6</ele>
        <time>2020-06-26T12:11:09Z</time>
      </trkpt>
      <trkpt lat="49.5882" lon="6.1416">
        <ele>296.5</ele>
        <time>2020-06-26T12:11:10Z</time>
      </trkpt>
      <trkpt lat="49.58818" lon="6.14153">
        <ele>296.3</ele>
        <time>2020-06-26T12:11:11Z</time>
      </trkpt>
      <trkpt lat="49.58807" lon="6.1415">
        <ele>296</ele>
        <time>2020-06-26T12:11:12Z</time>
      </trkpt>
      <trkpt lat="49.58805" lon="6.14144">
        <ele>295.9</ele>
        <time>2020-06-26T12:11:13Z</time>
      </trkpt>
      <trkpt lat="49.58803" lon="6.14138">
        <ele>295.9</ele>
        <time>2020-06-26T12:11:14Z</time>
      </trkpt>
      <trkpt lat="49.588" lon="6.14132">
        <ele>295.8</ele>
        <time>2020-06-26T12:11:15Z</time>
      </trkpt>
      <trkpt lat="49.58798" lon="6.14127">
        <ele>295.8</ele>
        <time>2020-06-26T12:11:16Z</time>
      </trkpt>
      <trkpt lat="49.58795" lon="6.14121">
        <ele>295.7</ele>
        <time>2020-06-26T12:11:17Z</time>
      </trkpt>
      <trkpt lat="49.58793" lon="6.14115">
        <ele>295.6</ele>
        <time>2020-06-26T12:11:18Z</time>
      </trkpt>
      <trkpt lat="49.5879" lon="6.1411">
        <ele>295.5</ele>
        <time>2020-06-26T12:11:19Z</time>
      </trkpt>
      <trkpt lat="49.58787" lon="6.14106">
        <ele>295.4</ele>
        <time>2020-06-26T12:11:20Z</time>
      </trkpt>
      <trkpt lat="49.58785" lon="6.14101">
        <ele>295.4</ele>
        <time>2020-06-26T12:11:21Z</time>
      </trkpt>
      <trkpt lat="49.58782" lon="6.14096">
        <ele>295.3</ele>
        <time>2020-06-26T12:11:22Z</time>
      </trkpt>
      <trkpt lat="49.58779" lon="6.1409">
        <ele>295.2</ele>
        <time>2020-06-26T12:11:23Z</time>
      </trkpt>
      <trkpt lat="49.58777" lon="6.14084">
        <ele>295</ele>
        <time>2020-06-26T12:11:24Z</time>
      </trkpt>
      <trkpt lat="49.58774" lon="6.14078">
        <ele>294.9</ele>
        <time>2020-06-26T12:11:25Z</time>
      </trkpt>
      <trkpt lat="49.58771" lon="6.14072">
        <ele>294.8</ele>
        <time>2020-06-26T12:11:26Z</time>
      </trkpt>
      <trkpt lat="49.58768" lon="6.14065">
        <ele>294.7</ele>
        <time>2020-06-26T12:11:27Z</time>
      </trkpt>
      <trkpt lat="49.58763" lon="6.1406">
        <ele>294.5</ele>
        <time>2020-06-26T12:11:28Z</time>
      </trkpt>
      <trkpt lat="49.5876" lon="6.14052">
        <ele>294.4</ele>
        <time>2020-06-26T12:11:29Z</time>
      </trkpt>
      <trkpt lat="49.58756" lon="6.14044">
        <ele>294.2</ele>
        <time>2020-06-26T12:11:30Z</time>
      </trkpt>
      <trkpt lat="49.58754" lon="6.14037">
        <ele>294.1</ele>
        <time>2020-06-26T12:11:31Z</time>
      </trkpt>
      <trkpt lat="49.58751" lon="6.14029">
        <ele>294</ele>
        <time>2020-06-26T12:11:32Z</time>
      </trkpt>
      <trkpt lat="49.58748" lon="6.14021">
        <ele>293.8</ele>
        <time>2020-06-26T12:11:33Z</time>
      </trkpt>
      <trkpt lat="49.58745" lon="6.14013">
        <ele>293.7</ele>
        <time>2020-06-26T12:11:34Z</time>
      </trkpt>
      <trkpt lat="49.58739" lon="6.14008">
        <ele>293.6</ele>
        <time>2020-06-26T12:11:35Z</time>
      </trkpt>
      <trkpt lat="49.58737" lon="6.14">
        <ele>293.5</ele>
        <time>2020-06-26T12:11:36Z</time>
      </trkpt>
      <trkpt lat="49.58734" lon="6.13993">
        <ele>293.4</ele>
        <time>2020-06-26T12:11:37Z</time>
      </trkpt>
      <trkpt lat="49.58732" lon="6.13986">
        <ele>293.3</ele>
        <time>2020-06-26T12:11:38Z</time>
      </trkpt>
      <trkpt lat="49.58729" lon="6.13978">
        <ele>293.2</ele>
        <time>2020-06-26T12:11:39Z</time>
      </trkpt>
      <trkpt lat="49.58727" lon="6.13971">
        <ele>293.1</ele>
        <time>2020-06-26T12:11:40Z</time>
      </trkpt>
      <trkpt lat="49.58724" lon="6.13965">
        <ele>293</ele>
        <time>2020-06-26T12:11:41Z</time>
      </trkpt>
      <trkpt lat="49.58713" lon="6.13962">
        <ele>292.8</ele>
        <time>2020-06-26T12:11:42Z</time>
      </trkpt>
      <trkpt lat="49.58711" lon="6.13956">
        <ele>292.7</ele>
        <time>2020-06-26T12:11:43Z</time>
      </trkpt>
      <trkpt lat="49.58708" lon="6.1395">
        <ele>292.6</ele>
        <time>2020-06-26T12:11:44Z</time>
      </trkpt>
      <trkpt lat="49.58706" lon="6.13944">
        <ele>292.4</ele>
        <time>2020-06-26T12:11:45Z</time>
      </trkpt>
      <trkpt lat="49.58704" lon="6.13939">
        <ele>292.3</ele>
        <time>2020-06-26T12:11:46Z</time>
      </trkpt>
      <trkpt lat="49.58702" lon="6.13934">
        <ele>292.2</ele>
        <time>2020-06-26T12:11:47Z</time>
      </trkpt>
      <trkpt lat="49.587" lon="6.13928">
        <ele>292.1</ele>
        <time>2020-06-26T12:11:48Z</time>
      </trkpt>
      <trkpt lat="49.58699" lon="6.13921">
        <ele>292</ele>
        <time>2020-06-26T12:11:49Z</time>
      </trkpt>
      <trkpt lat="49.58698" lon="6.13916">
        <ele>291.8</ele>
        <time>2020-06-26T12:11:50Z</time>
      </trkpt>
      <trkpt lat="49.58697" lon="6.1391">
        <ele>291.7</ele>
        <time>2020-06-26T12:11:51Z</time>
      </trkpt>
      <trkpt lat="49.58695" lon="6.13904">
        <ele>291.6</ele>
        <time>2020-06-26T12:11:52Z</time>
      </trkpt>
      <trkpt lat="49.58694" lon="6.13898">
        <ele>291.5</ele>
        <time>2020-06-26T12:11:53Z</time>
      </trkpt>
      <trkpt lat="49.58693" lon="6.1389">
        <ele>291.3</ele>
        <time>2020-06-26T12:11:54Z</time>
      </trkpt>
      <trkpt lat="49.58691" lon="6.13882">
        <ele>291.1</ele>
        <time>2020-06-26T12:11:55Z</time>
      </trkpt>
      <trkpt lat="49.5869" lon="6.13874">
        <ele>291</ele>
        <time>2020-06-26T12:11:56Z</time>
      </trkpt>
      <trkpt lat="49.58687" lon="6.13866">
        <ele>290.8</ele>
        <time>2020-06-26T12:11:57Z</time>
      </trkpt>
      <trkpt lat="49.58685" lon="6.13858">
        <ele>290.7</ele>
        <time>2020-06-26T12:11:58Z</time>
      </trkpt>
      <trkpt lat="49.58682" lon="6.1385">
        <ele>290.5</ele>
        <time>2020-06-26T12:11:59Z</time>
      </trkpt>
      <trkpt lat="49.5868" lon="6.13843">
        <ele>290.3</ele>
        <time>2020-06-26T12:12:00Z</time>
      </trkpt>
      <trkpt lat="49.58677" lon="6.13835">
        <ele>290.1</ele>
        <time>2020-06-26T12:12:01Z</time>
      </trkpt>
      <trkpt lat="49.58675" lon="6.13829">
        <ele>290</ele>
        <time>2020-06-26T12:12:02Z</time>
      </trkpt>
      <trkpt lat="49.58678" lon="6.13824">
        <ele>289.8</ele>
        <time>2020-06-26T12:12:03Z</time>
      </trkpt>
      <trkpt lat="49.58677" lon="6.13819">
        <ele>289.7</ele>
        <time>2020-06-26T12:12:04Z</time>
      </trkpt>
      <trkpt lat="49.58676" lon="6.13817">
        <ele>289.7</ele>
        <time>2020-06-26T12:12:05Z</time>
      </trkpt>
      <trkpt lat="49.58675" lon="6.13813">
        <ele>289.6</ele>
        <time>2020-06-26T12:12:06Z</time>
      </trkpt>
      <trkpt lat="49.58675" lon="6.13812">
        <ele>289.6</ele>
        <time>2020-06-26T12:12:07Z</time>
      </trkpt>
      <trkpt lat="49.58674" lon="6.13807">
        <ele>289.5</ele>
        <time>2020-06-26T12:12:08Z</time>
      </trkpt>
      <trkpt lat="49.58675" lon="6.13806">
        <ele>289.5</ele>
        <time>2020-06-26T12:12:09Z</time>
      </trkpt>
      <trkpt lat="49.58673" lon="6.13801">
        <ele>289.4</ele>
        <time>2020-06-26T12:12:10Z</time>
      </trkpt>
      <trkpt lat="49.58672" lon="6.138">
        <ele>289.4</ele>
        <time>2020-06-26T12:12:11Z</time>
      </trkpt>
      <trkpt lat="49.5867" lon="6.13795">
        <ele>289.3</ele>
        <time>2020-06-26T12:12:12Z</time>
      </trkpt>
      <trkpt lat="49.5867" lon="6.13793">
        <ele>289.2</ele>
        <time>2020-06-26T12:12:13Z</time>
      </trkpt>
      <trkpt lat="49.58668" lon="6.13789">
        <ele>289.1</ele>
        <time>2020-06-26T12:12:14Z</time>
      </trkpt>
      <trkpt lat="49.58667" lon="6.13785">
        <ele>289</ele>
        <time>2020-06-26T12:12:15Z</time>
      </trkpt>
      <trkpt lat="49.58664" lon="6.13779">
        <ele>288.9</ele>
        <time>2020-06-26T12:12:16Z</time>
      </trkpt>
      <trkpt lat="49.58663" lon="6.13775">
        <ele>288.8</ele>
        <time>2020-06-26T12:12:17Z</time>
      </trkpt>
      <trkpt lat="49.58661" lon="6.1377">
        <ele>288.7</ele>
        <time>2020-06-26T12:12:18Z</time>
      </trkpt>
      <trkpt lat="49.5866" lon="6.13766">
        <ele>288.6</ele>
        <time>2020-06-26T12:12:19Z</time>
      </trkpt>
      <trkpt lat="49.58658" lon="6.13762">
        <ele>288.5</ele>
        <time>2020-06-26T12:12:20Z</time>
      </trkpt>
      <trkpt lat="49.58656" lon="6.13758">
        <ele>288.3</ele>
        <time>2020-06-26T12:12:21Z</time>
      </trkpt>
      <trkpt lat="49.58654" lon="6.13753">
        <ele>288.2</ele>
        <time>2020-06-26T12:12:22Z</time>
      </trkpt>
      <trkpt lat="49.58651" lon="6.1375">
        <ele>288.1</ele>
        <time>2020-06-26T12:12:23Z</time>
      </trkpt>
      <trkpt lat="49.58649" lon="6.13746">
        <ele>288</ele>
        <time>2020-06-26T12:12:24Z</time>
      </trkpt>
      <trkpt lat="49.58646" lon="6.13742">
        <ele>287.9</ele>
        <time>2020-06-26T12:12:25Z</time>
      </trkpt>
      <trkpt lat="49.58644" lon="6.13736">
        <ele>287.7</ele>
        <time>2020-06-26T12:12:26Z</time>
      </trkpt>
      <trkpt lat="49.58641" lon="6.1373">
        <ele>287.6</ele>
        <time>2020-06-26T12:12:27Z</time>
      </trkpt>
      <trkpt lat="49.58638" lon="6.13725">
        <ele>287.4</ele>
        <time>2020-06-26T12:12:28Z</time>
      </trkpt>
      <trkpt lat="49.58636" lon="6.13719">
        <ele>287.3</ele>
        <time>2020-06-26T12:12:29Z</time>
      </trkpt>
      <trkpt lat="49.58632" lon="6.13714">
        <ele>287.1</ele>
        <time>2020-06-26T12:12:30Z</time>
      </trkpt>
      <trkpt lat="49.5863" lon="6.13708">
        <ele>287</ele>
        <time>2020-06-26T12:12:31Z</time>
      </trkpt>
      <trkpt lat="49.58627" lon="6.13701">
        <ele>286.8</ele>
        <time>2020-06-26T12:12:32Z</time>
      </trkpt>
      <trkpt lat="49.58624" lon="6.13694">
        <ele>286.6</ele>
        <time>2020-06-26T12:12:33Z</time>
      </trkpt>
      <trkpt lat="49.58621" lon="6.13688">
        <ele>286.5</ele>
        <time>2020-06-26T12:12:34Z</time>
      </trkpt>
      <trkpt lat="49.58619" lon="6.13682">
        <ele>286.3</ele>
        <time>2020-06-26T12:12:35Z</time>
      </trkpt>
      <trkpt lat="49.58616" lon="6.13678">
        <ele>286.2</ele>
        <time>2020-06-26T12:12:36Z</time>
      </trkpt>
      <trkpt lat="49.58614" lon="6.13673">
        <ele>286</ele>
        <time>2020-06-26T12:12:37Z</time>
      </trkpt>
      <trkpt lat="49.58611" lon="6.13667">
        <ele>285.9</ele>
        <time>2020-06-26T12:12:38Z</time>
      </trkpt>
      <trkpt lat="49.58609" lon="6.13663">
        <ele>285.7</ele>
        <time>2020-06-26T12:12:39Z</time>
      </trkpt>
      <trkpt lat="49.58608" lon="6.13658">
        <ele>285.6</ele>
        <time>2020-06-26T12:12:40Z</time>
      </trkpt>
      <trkpt lat="49.58607" lon="6.13654">
        <ele>285.5</ele>
        <time>2020-06-26T12:12:41Z</time>
      </trkpt>
      <trkpt lat="49.58606" lon="6.13649">
        <ele>285.4</ele>
        <time>2020-06-26T12:12:42Z</time>
      </trkpt>
      <trkpt lat="49.58606" lon="6.13647">
        <ele>285.3</ele>
        <time>2020-06-26T12:12:43Z</time>
      </trkpt>
      <trkpt lat="49.58605" lon="6.13645">
        <ele>285.2</ele>
        <time>2020-06-26T12:12:44Z</time>
      </trkpt>
      <trkpt lat="49.58606" lon="6.13643">
        <ele>285.2</ele>
        <time>2020-06-26T12:12:45Z</time>
      </trkpt>
      <trkpt lat="49.58605" lon="6.1364">
        <ele>285.1</ele>
        <time>2020-06-26T12:12:46Z</time>
      </trkpt>
      <trkpt lat="49.58605" lon="6.13636">
        <ele>285</ele>
        <time>2020-06-26T12:12:47Z</time>
      </trkpt>
      <trkpt lat="49.58605" lon="6.13634">
        <ele>284.9</ele>
        <time>2020-06-26T12:12:48Z</time>
      </trkpt>
      <trkpt lat="49.58604" lon="6.13632">
        <ele>284.8</ele>
        <time>2020-06-26T12:12:49Z</time>
      </trkpt>
      <trkpt lat="49.58604" lon="6.1363">
        <ele>284.8</ele>
        <time>2020-06-26T12:12:50Z</time>
      </trkpt>
      <trkpt lat="49.58603" lon="6.13629">
        <ele>283.9</ele>
        <time>2020-06-26T12:12:51Z</time>
      </trkpt>
      <trkpt lat="49.58601" lon="6.13625">
        <ele>283.9</ele>
        <time>2020-06-26T12:12:52Z</time>
      </trkpt>
      <trkpt lat="49.58601" lon="6.13623">
        <ele>283.9</ele>
        <time>2020-06-26T12:12:53Z</time>
      </trkpt>
      <trkpt lat="49.586" lon="6.13622">
        <ele>283.9</ele>
        <time>2020-06-26T12:12:54Z</time>
      </trkpt>
      <trkpt lat="49.586" lon="6.13622">
        <ele>283.9</ele>
        <time>2020-06-26T12:12:55Z</time>
      </trkpt>
      <trkpt lat="49.586" lon="6.13621">
        <ele>283.9</ele>
        <time>2020-06-26T12:12:56Z</time>
      </trkpt>
      <trkpt lat="49.586" lon="6.13621">
        <ele>283.9</ele>
        <time>2020-06-26T12:12:57Z</time>
      </trkpt>
      <trkpt lat="49.586" lon="6.13621">
        <ele>283.9</ele>
        <time>2020-06-26T12:12:58Z</time>
      </trkpt>
      <trkpt lat="49.58599" lon="6.13619">
        <ele>283.9</ele>
        <time>2020-06-26T12:12:59Z</time>
      </trkpt>
      <trkpt lat="49.58599" lon="6.13617">
        <ele>283.9</ele>
        <time>2020-06-26T12:13:00Z</time>
      </trkpt>
      <trkpt lat="49.58598" lon="6.13615">
        <ele>283</ele>
        <time>2020-06-26T12:13:01Z</time>
      </trkpt>
      <trkpt lat="49.58597" lon="6.13614">
        <ele>283</ele>
        <time>2020-06-26T12:13:02Z</time>
      </trkpt>
      <trkpt lat="49.58597" lon="6.13612">
        <ele>283</ele>
        <time>2020-06-26T12:13:03Z</time>
      </trkpt>
      <trkpt lat="49.58596" lon="6.13611">
        <ele>283</ele>
        <time>2020-06-26T12:13:04Z</time>
      </trkpt>
      <trkpt lat="49.58589" lon="6.13605">
        <ele>283</ele>
        <time>2020-06-26T12:13:10Z</time>
      </trkpt>
      <trkpt lat="49.58585" lon="6.13603">
        <ele>282.8</ele>
        <time>2020-06-26T12:13:11Z</time>
      </trkpt>
      <trkpt lat="49.58582" lon="6.13603">
        <ele>282.7</ele>
        <time>2020-06-26T12:13:12Z</time>
      </trkpt>
      <trkpt lat="49.58578" lon="6.13604">
        <ele>282.6</ele>
        <time>2020-06-26T12:13:13Z</time>
      </trkpt>
      <trkpt lat="49.58574" lon="6.13605">
        <ele>282.4</ele>
        <time>2020-06-26T12:13:14Z</time>
      </trkpt>
      <trkpt lat="49.5857" lon="6.13607">
        <ele>282.3</ele>
        <time>2020-06-26T12:13:15Z</time>
      </trkpt>
      <trkpt lat="49.58566" lon="6.13608">
        <ele>282.2</ele>
        <time>2020-06-26T12:13:16Z</time>
      </trkpt>
      <trkpt lat="49.58563" lon="6.1361">
        <ele>282.2</ele>
        <time>2020-06-26T12:13:17Z</time>
      </trkpt>
      <trkpt lat="49.5856" lon="6.13614">
        <ele>282.1</ele>
        <time>2020-06-26T12:13:18Z</time>
      </trkpt>
      <trkpt lat="49.58558" lon="6.13616">
        <ele>282.1</ele>
        <time>2020-06-26T12:13:19Z</time>
      </trkpt>
      <trkpt lat="49.58556" lon="6.13619">
        <ele>282</ele>
        <time>2020-06-26T12:13:20Z</time>
      </trkpt>
      <trkpt lat="49.58555" lon="6.1362">
        <ele>282</ele>
        <time>2020-06-26T12:13:21Z</time>
      </trkpt>
      <trkpt lat="49.58553" lon="6.13621">
        <ele>281.9</ele>
        <time>2020-06-26T12:13:22Z</time>
      </trkpt>
      <trkpt lat="49.58553" lon="6.13622">
        <ele>281.9</ele>
        <time>2020-06-26T12:13:23Z</time>
      </trkpt>
      <trkpt lat="49.58552" lon="6.13622">
        <ele>281.9</ele>
        <time>2020-06-26T12:13:24Z</time>
      </trkpt>
      <trkpt lat="49.5855" lon="6.13621">
        <ele>281.9</ele>
        <time>2020-06-26T12:13:25Z</time>
      </trkpt>
      <trkpt lat="49.5855" lon="6.1362">
        <ele>281.9</ele>
        <time>2020-06-26T12:13:26Z</time>
      </trkpt>
      <trkpt lat="49.58549" lon="6.1362">
        <ele>281.9</ele>
        <time>2020-06-26T12:13:27Z</time>
      </trkpt>
      <trkpt lat="49.58549" lon="6.13619">
        <ele>281.9</ele>
        <time>2020-06-26T12:13:28Z</time>
      </trkpt>
      <trkpt lat="49.58549" lon="6.13618">
        <ele>281.8</ele>
        <time>2020-06-26T12:13:29Z</time>
      </trkpt>
      <trkpt lat="49.58544" lon="6.13619">
        <ele>281.8</ele>
        <time>2020-06-26T12:13:30Z</time>
      </trkpt>
      <trkpt lat="49.58543" lon="6.13619">
        <ele>281.7</ele>
        <time>2020-06-26T12:13:31Z</time>
      </trkpt>
      <trkpt lat="49.5854" lon="6.1362">
        <ele>281.7</ele>
        <time>2020-06-26T12:13:32Z</time>
      </trkpt>
      <trkpt lat="49.58535" lon="6.13619">
        <ele>281.6</ele>
        <time>2020-06-26T12:13:33Z</time>
      </trkpt>
      <trkpt lat="49.58533" lon="6.13617">
        <ele>281.6</ele>
        <time>2020-06-26T12:13:34Z</time>
      </trkpt>
      <trkpt lat="49.5853" lon="6.13612">
        <ele>281.5</ele>
        <time>2020-06-26T12:13:35Z</time>
      </trkpt>
      <trkpt lat="49.58528" lon="6.13608">
        <ele>281.5</ele>
        <time>2020-06-26T12:13:36Z</time>
      </trkpt>
      <trkpt lat="49.58525" lon="6.13606">
        <ele>281.4</ele>
        <time>2020-06-26T12:13:37Z</time>
      </trkpt>
      <trkpt lat="49.58523" lon="6.13603">
        <ele>281.3</ele>
        <time>2020-06-26T12:13:38Z</time>
      </trkpt>
      <trkpt lat="49.58522" lon="6.13602">
        <ele>281.3</ele>
        <time>2020-06-26T12:13:39Z</time>
      </trkpt>
      <trkpt lat="49.58521" lon="6.136">
        <ele>281.3</ele>
        <time>2020-06-26T12:13:40Z</time>
      </trkpt>
      <trkpt lat="49.58521" lon="6.13597">
        <ele>281.2</ele>
        <time>2020-06-26T12:13:41Z</time>
      </trkpt>
      <trkpt lat="49.58522" lon="6.13591">
        <ele>281.1</ele>
        <time>2020-06-26T12:13:42Z</time>
      </trkpt>
      <trkpt lat="49.58522" lon="6.13589">
        <ele>281.1</ele>
        <time>2020-06-26T12:13:43Z</time>
      </trkpt>
      <trkpt lat="49.58526" lon="6.13573">
        <ele>280.9</ele>
        <time>2020-06-26T12:13:44Z</time>
      </trkpt>
      <trkpt lat="49.58529" lon="6.13562">
        <ele>280.7</ele>
        <time>2020-06-26T12:13:45Z</time>
      </trkpt>
      <trkpt lat="49.58532" lon="6.1355">
        <ele>280.5</ele>
        <time>2020-06-26T12:13:46Z</time>
      </trkpt>
      <trkpt lat="49.58535" lon="6.13538">
        <ele>280.3</ele>
        <time>2020-06-26T12:13:47Z</time>
      </trkpt>
      <trkpt lat="49.58538" lon="6.13526">
        <ele>280.2</ele>
        <time>2020-06-26T12:13:48Z</time>
      </trkpt>
      <trkpt lat="49.58541" lon="6.13514">
        <ele>280</ele>
        <time>2020-06-26T12:13:59Z</time>
      </trkpt>
      <trkpt lat="49.58544" lon="6.13502">
        <ele>279.8</ele>
        <time>2020-06-26T12:14:02Z</time>
      </trkpt>
      <trkpt lat="49.58545" lon="6.13505">
        <ele>279.9</ele>
        <time>2020-06-26T12:14:03Z</time>
      </trkpt>
      <trkpt lat="49.58543" lon="6.13498">
        <ele>279.8</ele>
        <time>2020-06-26T12:14:04Z</time>
      </trkpt>
      <trkpt lat="49.58543" lon="6.13491">
        <ele>279.8</ele>
        <time>2020-06-26T12:14:05Z</time>
      </trkpt>
      <trkpt lat="49.58538" lon="6.13484">
        <ele>279.9</ele>
        <time>2020-06-26T12:14:06Z</time>
      </trkpt>
      <trkpt lat="49.58536" lon="6.1348">
        <ele>279.9</ele>
        <time>2020-06-26T12:14:07Z</time>
      </trkpt>
      <trkpt lat="49.58534" lon="6.13475">
        <ele>279.9</ele>
        <time>2020-06-26T12:14:08Z</time>
      </trkpt>
      <trkpt lat="49.58535" lon="6.1347">
        <ele>279.8</ele>
        <time>2020-06-26T12:14:09Z</time>
      </trkpt>
      <trkpt lat="49.58534" lon="6.13463">
        <ele>279.9</ele>
        <time>2020-06-26T12:14:10Z</time>
      </trkpt>
      <trkpt lat="49.58534" lon="6.13458">
        <ele>279.8</ele>
        <time>2020-06-26T12:14:11Z</time>
      </trkpt>
      <trkpt lat="49.58534" lon="6.13456">
        <ele>279.9</ele>
        <time>2020-06-26T12:14:12Z</time>
      </trkpt>
      <trkpt lat="49.58532" lon="6.13453">
        <ele>279.8</ele>
        <time>2020-06-26T12:14:13Z</time>
      </trkpt>
      <trkpt lat="49.58529" lon="6.13449">
        <ele>280</ele>
        <time>2020-06-26T12:14:14Z</time>
      </trkpt>
      <trkpt lat="49.58526" lon="6.13446">
        <ele>280.1</ele>
        <time>2020-06-26T12:14:15Z</time>
      </trkpt>
      <trkpt lat="49.58524" lon="6.13443">
        <ele>280.2</ele>
        <time>2020-06-26T12:14:16Z</time>
      </trkpt>
      <trkpt lat="49.58523" lon="6.13442">
        <ele>280.4</ele>
        <time>2020-06-26T12:14:17Z</time>
      </trkpt>
      <trkpt lat="49.5852" lon="6.1344">
        <ele>280.6</ele>
        <time>2020-06-26T12:14:18Z</time>
      </trkpt>
      <trkpt lat="49.58519" lon="6.13439">
        <ele>280.6</ele>
        <time>2020-06-26T12:14:19Z</time>
      </trkpt>
      <trkpt lat="49.58516" lon="6.13436">
        <ele>280.7</ele>
        <time>2020-06-26T12:14:20Z</time>
      </trkpt>
      <trkpt lat="49.58512" lon="6.13433">
        <ele>280.9</ele>
        <time>2020-06-26T12:14:21Z</time>
      </trkpt>
      <trkpt lat="49.58511" lon="6.13432">
        <ele>281.1</ele>
        <time>2020-06-26T12:14:22Z</time>
      </trkpt>
      <trkpt lat="49.58508" lon="6.1343">
        <ele>281.3</ele>
        <time>2020-06-26T12:14:23Z</time>
      </trkpt>
      <trkpt lat="49.58507" lon="6.1343">
        <ele>281.3</ele>
        <time>2020-06-26T12:14:24Z</time>
      </trkpt>
      <trkpt lat="49.58503" lon="6.13428">
        <ele>281.6</ele>
        <time>2020-06-26T12:14:25Z</time>
      </trkpt>
      <trkpt lat="49.58502" lon="6.13427">
        <ele>281.6</ele>
        <time>2020-06-26T12:14:26Z</time>
      </trkpt>
      <trkpt lat="49.58499" lon="6.13425">
        <ele>281.8</ele>
        <time>2020-06-26T12:14:27Z</time>
      </trkpt>
      <trkpt lat="49.58498" lon="6.13424">
        <ele>281.8</ele>
        <time>2020-06-26T12:14:28Z</time>
      </trkpt>
      <trkpt lat="49.58496" lon="6.13423">
        <ele>282</ele>
        <time>2020-06-26T12:14:29Z</time>
      </trkpt>
      <trkpt lat="49.58493" lon="6.13421">
        <ele>282.2</ele>
        <time>2020-06-26T12:14:30Z</time>
      </trkpt>
      <trkpt lat="49.58492" lon="6.1342">
        <ele>282.4</ele>
        <time>2020-06-26T12:14:31Z</time>
      </trkpt>
      <trkpt lat="49.58489" lon="6.13417">
        <ele>282.6</ele>
        <time>2020-06-26T12:14:32Z</time>
      </trkpt>
      <trkpt lat="49.58487" lon="6.13414">
        <ele>282.6</ele>
        <time>2020-06-26T12:14:33Z</time>
      </trkpt>
      <trkpt lat="49.58486" lon="6.13413">
        <ele>282.8</ele>
        <time>2020-06-26T12:14:34Z</time>
      </trkpt>
      <trkpt lat="49.58485" lon="6.13412">
        <ele>282.8</ele>
        <time>2020-06-26T12:14:35Z</time>
      </trkpt>
      <trkpt lat="49.58484" lon="6.13411">
        <ele>283</ele>
        <time>2020-06-26T12:14:36Z</time>
      </trkpt>
      <trkpt lat="49.58482" lon="6.13409">
        <ele>283.1</ele>
        <time>2020-06-26T12:14:37Z</time>
      </trkpt>
      <trkpt lat="49.5848" lon="6.13407">
        <ele>283.2</ele>
        <time>2020-06-26T12:14:38Z</time>
      </trkpt>
      <trkpt lat="49.58479" lon="6.13406">
        <ele>283.3</ele>
        <time>2020-06-26T12:14:39Z</time>
      </trkpt>
      <trkpt lat="49.58478" lon="6.13405">
        <ele>283.5</ele>
        <time>2020-06-26T12:14:40Z</time>
      </trkpt>
      <trkpt lat="49.58476" lon="6.13404">
        <ele>283.5</ele>
        <time>2020-06-26T12:14:41Z</time>
      </trkpt>
      <trkpt lat="49.58474" lon="6.13401">
        <ele>283.7</ele>
        <time>2020-06-26T12:14:42Z</time>
      </trkpt>
      <trkpt lat="49.58473" lon="6.134">
        <ele>283.9</ele>
        <time>2020-06-26T12:14:43Z</time>
      </trkpt>
      <trkpt lat="49.5847" lon="6.13398">
        <ele>284</ele>
        <time>2020-06-26T12:14:44Z</time>
      </trkpt>
      <trkpt lat="49.58468" lon="6.13398">
        <ele>284.1</ele>
        <time>2020-06-26T12:14:45Z</time>
      </trkpt>
      <trkpt lat="49.58465" lon="6.13396">
        <ele>284.2</ele>
        <time>2020-06-26T12:14:46Z</time>
      </trkpt>
      <trkpt lat="49.58462" lon="6.13395">
        <ele>284.4</ele>
        <time>2020-06-26T12:14:47Z</time>
      </trkpt>
      <trkpt lat="49.58458" lon="6.1339">
        <ele>284.6</ele>
        <time>2020-06-26T12:14:48Z</time>
      </trkpt>
      <trkpt lat="49.58457" lon="6.13388">
        <ele>284.6</ele>
        <time>2020-06-26T12:14:49Z</time>
      </trkpt>
      <trkpt lat="49.58454" lon="6.13384">
        <ele>284.7</ele>
        <time>2020-06-26T12:14:50Z</time>
      </trkpt>
      <trkpt lat="49.58451" lon="6.13382">
        <ele>284.8</ele>
        <time>2020-06-26T12:14:51Z</time>
      </trkpt>
      <trkpt lat="49.58449" lon="6.13379">
        <ele>284.9</ele>
        <time>2020-06-26T12:14:52Z</time>
      </trkpt>
      <trkpt lat="49.58445" lon="6.13375">
        <ele>285</ele>
        <time>2020-06-26T12:14:53Z</time>
      </trkpt>
      <trkpt lat="49.58443" lon="6.13372">
        <ele>285.2</ele>
        <time>2020-06-26T12:14:54Z</time>
      </trkpt>
      <trkpt lat="49.5844" lon="6.13369">
        <ele>285.3</ele>
        <time>2020-06-26T12:14:55Z</time>
      </trkpt>
      <trkpt lat="49.58436" lon="6.13364">
        <ele>285.4</ele>
        <time>2020-06-26T12:14:56Z</time>
      </trkpt>
      <trkpt lat="49.58432" lon="6.13358">
        <ele>285.5</ele>
        <time>2020-06-26T12:14:57Z</time>
      </trkpt>
      <trkpt lat="49.58428" lon="6.13353">
        <ele>285.7</ele>
        <time>2020-06-26T12:14:58Z</time>
      </trkpt>
      <trkpt lat="49.58423" lon="6.13347">
        <ele>285.8</ele>
        <time>2020-06-26T12:14:59Z</time>
      </trkpt>
      <trkpt lat="49.58419" lon="6.1334">
        <ele>286</ele>
        <time>2020-06-26T12:15:00Z</time>
      </trkpt>
      <trkpt lat="49.58414" lon="6.13335">
        <ele>286.2</ele>
        <time>2020-06-26T12:15:01Z</time>
      </trkpt>
      <trkpt lat="49.58411" lon="6.13331">
        <ele>286.4</ele>
        <time>2020-06-26T12:15:02Z</time>
      </trkpt>
      <trkpt lat="49.58408" lon="6.13327">
        <ele>286.6</ele>
        <time>2020-06-26T12:15:03Z</time>
      </trkpt>
      <trkpt lat="49.58406" lon="6.13324">
        <ele>286.7</ele>
        <time>2020-06-26T12:15:04Z</time>
      </trkpt>
      <trkpt lat="49.58405" lon="6.13323">
        <ele>286.8</ele>
        <time>2020-06-26T12:15:05Z</time>
      </trkpt>
      <trkpt lat="49.58405" lon="6.13322">
        <ele>286.8</ele>
        <time>2020-06-26T12:15:06Z</time>
      </trkpt>
      <trkpt lat="49.58404" lon="6.13319">
        <ele>286.8</ele>
        <time>2020-06-26T12:15:07Z</time>
      </trkpt>
      <trkpt lat="49.58406" lon="6.13315">
        <ele>286.8</ele>
        <time>2020-06-26T12:15:08Z</time>
      </trkpt>
      <trkpt lat="49.58408" lon="6.13311">
        <ele>286.7</ele>
        <time>2020-06-26T12:15:09Z</time>
      </trkpt>
      <trkpt lat="49.5841" lon="6.13308">
        <ele>286.5</ele>
        <time>2020-06-26T12:15:10Z</time>
      </trkpt>
      <trkpt lat="49.58413" lon="6.13304">
        <ele>286.2</ele>
        <time>2020-06-26T12:15:11Z</time>
      </trkpt>
      <trkpt lat="49.58414" lon="6.13302">
        <ele>286.2</ele>
        <time>2020-06-26T12:15:12Z</time>
      </trkpt>
      <trkpt lat="49.58416" lon="6.13297">
        <ele>285.9</ele>
        <time>2020-06-26T12:15:13Z</time>
      </trkpt>
      <trkpt lat="49.58417" lon="6.13296">
        <ele>285.9</ele>
        <time>2020-06-26T12:15:14Z</time>
      </trkpt>
      <trkpt lat="49.58419" lon="6.13291">
        <ele>285.6</ele>
        <time>2020-06-26T12:15:15Z</time>
      </trkpt>
      <trkpt lat="49.5842" lon="6.13289">
        <ele>285.5</ele>
        <time>2020-06-26T12:15:16Z</time>
      </trkpt>
      <trkpt lat="49.58422" lon="6.13285">
        <ele>285.3</ele>
        <time>2020-06-26T12:15:17Z</time>
      </trkpt>
      <trkpt lat="49.58423" lon="6.13282">
        <ele>285.1</ele>
        <time>2020-06-26T12:15:18Z</time>
      </trkpt>
      <trkpt lat="49.58425" lon="6.13278">
        <ele>285.1</ele>
        <time>2020-06-26T12:15:19Z</time>
      </trkpt>
      <trkpt lat="49.58428" lon="6.13274">
        <ele>285</ele>
        <time>2020-06-26T12:15:20Z</time>
      </trkpt>
      <trkpt lat="49.5843" lon="6.1327">
        <ele>284.9</ele>
        <time>2020-06-26T12:15:21Z</time>
      </trkpt>
      <trkpt lat="49.58432" lon="6.13265">
        <ele>284.9</ele>
        <time>2020-06-26T12:15:22Z</time>
      </trkpt>
      <trkpt lat="49.58433" lon="6.1326">
        <ele>285</ele>
        <time>2020-06-26T12:15:23Z</time>
      </trkpt>
      <trkpt lat="49.58435" lon="6.13255">
        <ele>285</ele>
        <time>2020-06-26T12:15:24Z</time>
      </trkpt>
      <trkpt lat="49.58434" lon="6.1325">
        <ele>285.1</ele>
        <time>2020-06-26T12:15:25Z</time>
      </trkpt>
      <trkpt lat="49.58434" lon="6.13249">
        <ele>285.2</ele>
        <time>2020-06-26T12:15:26Z</time>
      </trkpt>
      <trkpt lat="49.5843" lon="6.13247">
        <ele>285.4</ele>
        <time>2020-06-26T12:15:27Z</time>
      </trkpt>
      <trkpt lat="49.58428" lon="6.13246">
        <ele>285.5</ele>
        <time>2020-06-26T12:15:28Z</time>
      </trkpt>
      <trkpt lat="49.58426" lon="6.13244">
        <ele>285.7</ele>
        <time>2020-06-26T12:15:29Z</time>
      </trkpt>
      <trkpt lat="49.58423" lon="6.1324">
        <ele>285.9</ele>
        <time>2020-06-26T12:15:30Z</time>
      </trkpt>
      <trkpt lat="49.58421" lon="6.13235">
        <ele>286.1</ele>
        <time>2020-06-26T12:15:31Z</time>
      </trkpt>
      <trkpt lat="49.58418" lon="6.13232">
        <ele>286.3</ele>
        <time>2020-06-26T12:15:32Z</time>
      </trkpt>
      <trkpt lat="49.58415" lon="6.13228">
        <ele>286.6</ele>
        <time>2020-06-26T12:15:33Z</time>
      </trkpt>
      <trkpt lat="49.58413" lon="6.13225">
        <ele>286.9</ele>
        <time>2020-06-26T12:15:34Z</time>
      </trkpt>
      <trkpt lat="49.5841" lon="6.13221">
        <ele>287.1</ele>
        <time>2020-06-26T12:15:35Z</time>
      </trkpt>
      <trkpt lat="49.58407" lon="6.13218">
        <ele>287.3</ele>
        <time>2020-06-26T12:15:36Z</time>
      </trkpt>
      <trkpt lat="49.58404" lon="6.13214">
        <ele>287.5</ele>
        <time>2020-06-26T12:15:37Z</time>
      </trkpt>
      <trkpt lat="49.58401" lon="6.1321">
        <ele>287.6</ele>
        <time>2020-06-26T12:15:38Z</time>
      </trkpt>
      <trkpt lat="49.58399" lon="6.13207">
        <ele>287.8</ele>
        <time>2020-06-26T12:15:39Z</time>
      </trkpt>
      <trkpt lat="49.58397" lon="6.13204">
        <ele>287.9</ele>
        <time>2020-06-26T12:15:40Z</time>
      </trkpt>
      <trkpt lat="49.58394" lon="6.132">
        <ele>288.1</ele>
        <time>2020-06-26T12:15:41Z</time>
      </trkpt>
      <trkpt lat="49.58393" lon="6.13199">
        <ele>288.1</ele>
        <time>2020-06-26T12:15:42Z</time>
      </trkpt>
      <trkpt lat="49.5839" lon="6.13195">
        <ele>288.2</ele>
        <time>2020-06-26T12:15:43Z</time>
      </trkpt>
      <trkpt lat="49.58389" lon="6.13194">
        <ele>288.4</ele>
        <time>2020-06-26T12:15:44Z</time>
      </trkpt>
      <trkpt lat="49.58387" lon="6.13191">
        <ele>288.5</ele>
        <time>2020-06-26T12:15:45Z</time>
      </trkpt>
      <trkpt lat="49.58384" lon="6.13186">
        <ele>288.4</ele>
        <time>2020-06-26T12:15:46Z</time>
      </trkpt>
      <trkpt lat="49.58381" lon="6.13181">
        <ele>288.6</ele>
        <time>2020-06-26T12:15:47Z</time>
      </trkpt>
      <trkpt lat="49.58379" lon="6.13175">
        <ele>288.6</ele>
        <time>2020-06-26T12:15:48Z</time>
      </trkpt>
      <trkpt lat="49.58376" lon="6.1317">
        <ele>288.5</ele>
        <time>2020-06-26T12:15:49Z</time>
      </trkpt>
      <trkpt lat="49.58373" lon="6.13165">
        <ele>288.5</ele>
        <time>2020-06-26T12:15:50Z</time>
      </trkpt>
      <trkpt lat="49.58371" lon="6.13159">
        <ele>288.5</ele>
        <time>2020-06-26T12:15:51Z</time>
      </trkpt>
      <trkpt lat="49.58368" lon="6.13153">
        <ele>288.5</ele>
        <time>2020-06-26T12:15:52Z</time>
      </trkpt>
      <trkpt lat="49.58366" lon="6.13147">
        <ele>288.5</ele>
        <time>2020-06-26T12:15:53Z</time>
      </trkpt>
      <trkpt lat="49.58364" lon="6.1314">
        <ele>288.5</ele>
        <time>2020-06-26T12:15:54Z</time>
      </trkpt>
      <trkpt lat="49.58361" lon="6.13133">
        <ele>288.4</ele>
        <time>2020-06-26T12:15:55Z</time>
      </trkpt>
      <trkpt lat="49.58358" lon="6.13127">
        <ele>288.4</ele>
        <time>2020-06-26T12:15:56Z</time>
      </trkpt>
      <trkpt lat="49.58356" lon="6.13122">
        <ele>288.3</ele>
        <time>2020-06-26T12:15:57Z</time>
      </trkpt>
      <trkpt lat="49.58355" lon="6.13112">
        <ele>288.3</ele>
        <time>2020-06-26T12:15:58Z</time>
      </trkpt>
      <trkpt lat="49.58355" lon="6.13102">
        <ele>288.2</ele>
        <time>2020-06-26T12:15:59Z</time>
      </trkpt>
      <trkpt lat="49.58356" lon="6.13098">
        <ele>288.2</ele>
        <time>2020-06-26T12:16:00Z</time>
      </trkpt>
      <trkpt lat="49.58357" lon="6.13097">
        <ele>288.2</ele>
        <time>2020-06-26T12:16:01Z</time>
      </trkpt>
      <trkpt lat="49.58358" lon="6.13094">
        <ele>288.3</ele>
        <time>2020-06-26T12:16:02Z</time>
      </trkpt>
      <trkpt lat="49.5836" lon="6.13089">
        <ele>288.3</ele>
        <time>2020-06-26T12:16:03Z</time>
      </trkpt>
      <trkpt lat="49.58361" lon="6.13087">
        <ele>288.3</ele>
        <time>2020-06-26T12:16:04Z</time>
      </trkpt>
      <trkpt lat="49.58363" lon="6.13083">
        <ele>288.3</ele>
        <time>2020-06-26T12:16:05Z</time>
      </trkpt>
      <trkpt lat="49.58365" lon="6.13078">
        <ele>288.3</ele>
        <time>2020-06-26T12:16:06Z</time>
      </trkpt>
      <trkpt lat="49.58366" lon="6.13074">
        <ele>288.3</ele>
        <time>2020-06-26T12:16:07Z</time>
      </trkpt>
      <trkpt lat="49.58367" lon="6.13071">
        <ele>288.3</ele>
        <time>2020-06-26T12:16:08Z</time>
      </trkpt>
      <trkpt lat="49.58367" lon="6.13069">
        <ele>288.3</ele>
        <time>2020-06-26T12:16:09Z</time>
      </trkpt>
      <trkpt lat="49.58367" lon="6.13068">
        <ele>288.3</ele>
        <time>2020-06-26T12:16:10Z</time>
      </trkpt>
      <trkpt lat="49.58366" lon="6.13066">
        <ele>288.3</ele>
        <time>2020-06-26T12:16:11Z</time>
      </trkpt>
      <trkpt lat="49.58366" lon="6.13063">
        <ele>288.3</ele>
        <time>2020-06-26T12:16:12Z</time>
      </trkpt>
      <trkpt lat="49.58365" lon="6.13061">
        <ele>288.3</ele>
        <time>2020-06-26T12:16:13Z</time>
      </trkpt>
      <trkpt lat="49.58365" lon="6.13058">
        <ele>288.3</ele>
        <time>2020-06-26T12:16:14Z</time>
      </trkpt>
      <trkpt lat="49.58365" lon="6.13054">
        <ele>288.3</ele>
        <time>2020-06-26T12:16:15Z</time>
      </trkpt>
      <trkpt lat="49.58364" lon="6.13051">
        <ele>288.3</ele>
        <time>2020-06-26T12:16:16Z</time>
      </trkpt>
      <trkpt lat="49.58365" lon="6.13047">
        <ele>288.3</ele>
        <time>2020-06-26T12:16:17Z</time>
      </trkpt>
      <trkpt lat="49.58363" lon="6.13042">
        <ele>288.3</ele>
        <time>2020-06-26T12:16:18Z</time>
      </trkpt>
      <trkpt lat="49.58362" lon="6.1304">
        <ele>288.3</ele>
        <time>2020-06-26T12:16:19Z</time>
      </trkpt>
      <trkpt lat="49.58361" lon="6.13036">
        <ele>288.3</ele>
        <time>2020-06-26T12:16:20Z</time>
      </trkpt>
      <trkpt lat="49.5836" lon="6.13032">
        <ele>288.3</ele>
        <time>2020-06-26T12:16:21Z</time>
      </trkpt>
      <trkpt lat="49.58359" lon="6.13027">
        <ele>288.3</ele>
        <time>2020-06-26T12:16:22Z</time>
      </trkpt>
      <trkpt lat="49.58359" lon="6.13025">
        <ele>288.3</ele>
        <time>2020-06-26T12:16:23Z</time>
      </trkpt>
      <trkpt lat="49.58358" lon="6.1302">
        <ele>288.4</ele>
        <time>2020-06-26T12:16:24Z</time>
      </trkpt>
      <trkpt lat="49.58356" lon="6.13016">
        <ele>288.4</ele>
        <time>2020-06-26T12:16:25Z</time>
      </trkpt>
      <trkpt lat="49.58355" lon="6.13012">
        <ele>288.5</ele>
        <time>2020-06-26T12:16:26Z</time>
      </trkpt>
      <trkpt lat="49.58354" lon="6.13007">
        <ele>288.6</ele>
        <time>2020-06-26T12:16:27Z</time>
      </trkpt>
      <trkpt lat="49.58353" lon="6.13005">
        <ele>288.8</ele>
        <time>2020-06-26T12:16:28Z</time>
      </trkpt>
      <trkpt lat="49.58352" lon="6.13001">
        <ele>288.8</ele>
        <time>2020-06-26T12:16:29Z</time>
      </trkpt>
      <trkpt lat="49.5835" lon="6.12994">
        <ele>289</ele>
        <time>2020-06-26T12:16:30Z</time>
      </trkpt>
      <trkpt lat="49.58349" lon="6.12991">
        <ele>289.1</ele>
        <time>2020-06-26T12:16:31Z</time>
      </trkpt>
      <trkpt lat="49.58349" lon="6.12989">
        <ele>289.2</ele>
        <time>2020-06-26T12:16:32Z</time>
      </trkpt>
      <trkpt lat="49.58348" lon="6.12986">
        <ele>289.2</ele>
        <time>2020-06-26T12:16:33Z</time>
      </trkpt>
      <trkpt lat="49.58348" lon="6.12983">
        <ele>289.3</ele>
        <time>2020-06-26T12:16:34Z</time>
      </trkpt>
      <trkpt lat="49.58348" lon="6.12981">
        <ele>289.5</ele>
        <time>2020-06-26T12:16:35Z</time>
      </trkpt>
      <trkpt lat="49.58347" lon="6.12975">
        <ele>289.6</ele>
        <time>2020-06-26T12:16:36Z</time>
      </trkpt>
      <trkpt lat="49.58346" lon="6.12973">
        <ele>289.6</ele>
        <time>2020-06-26T12:16:37Z</time>
      </trkpt>
      <trkpt lat="49.58346" lon="6.12969">
        <ele>289.8</ele>
        <time>2020-06-26T12:16:38Z</time>
      </trkpt>
      <trkpt lat="49.58346" lon="6.12963">
        <ele>290</ele>
        <time>2020-06-26T12:16:39Z</time>
      </trkpt>
      <trkpt lat="49.58346" lon="6.12962">
        <ele>290</ele>
        <time>2020-06-26T12:16:40Z</time>
      </trkpt>
      <trkpt lat="49.58347" lon="6.12957">
        <ele>290.1</ele>
        <time>2020-06-26T12:16:41Z</time>
      </trkpt>
      <trkpt lat="49.58337" lon="6.12906">
        <ele>291.1</ele>
        <time>2020-06-26T12:16:42Z</time>
      </trkpt>
      <trkpt lat="49.58338" lon="6.12903">
        <ele>291.1</ele>
        <time>2020-06-26T12:16:43Z</time>
      </trkpt>
      <trkpt lat="49.58337" lon="6.12898">
        <ele>291.1</ele>
        <time>2020-06-26T12:16:44Z</time>
      </trkpt>
      <trkpt lat="49.58338" lon="6.12893">
        <ele>291.1</ele>
        <time>2020-06-26T12:16:45Z</time>
      </trkpt>
      <trkpt lat="49.58338" lon="6.12886">
        <ele>291</ele>
        <time>2020-06-26T12:16:46Z</time>
      </trkpt>
      <trkpt lat="49.58336" lon="6.12865">
        <ele>290.8</ele>
        <time>2020-06-26T12:16:47Z</time>
      </trkpt>
      <trkpt lat="49.58333" lon="6.12849">
        <ele>290.7</ele>
        <time>2020-06-26T12:16:48Z</time>
      </trkpt>
      <trkpt lat="49.58335" lon="6.12842">
        <ele>290.5</ele>
        <time>2020-06-26T12:16:49Z</time>
      </trkpt>
      <trkpt lat="49.58337" lon="6.12835">
        <ele>290.3</ele>
        <time>2020-06-26T12:16:50Z</time>
      </trkpt>
      <trkpt lat="49.5834" lon="6.12827">
        <ele>290.2</ele>
        <time>2020-06-26T12:16:51Z</time>
      </trkpt>
      <trkpt lat="49.58342" lon="6.12822">
        <ele>290.1</ele>
        <time>2020-06-26T12:16:52Z</time>
      </trkpt>
      <trkpt lat="49.58344" lon="6.12817">
        <ele>290</ele>
        <time>2020-06-26T12:16:53Z</time>
      </trkpt>
      <trkpt lat="49.58346" lon="6.12812">
        <ele>289.9</ele>
        <time>2020-06-26T12:16:54Z</time>
      </trkpt>
      <trkpt lat="49.58338" lon="6.12779">
        <ele>289.6</ele>
        <time>2020-06-26T12:16:55Z</time>
      </trkpt>
      <trkpt lat="49.58338" lon="6.12775">
        <ele>289.6</ele>
        <time>2020-06-26T12:16:56Z</time>
      </trkpt>
      <trkpt lat="49.58339" lon="6.12767">
        <ele>289.6</ele>
        <time>2020-06-26T12:16:57Z</time>
      </trkpt>
      <trkpt lat="49.58342" lon="6.12759">
        <ele>289.5</ele>
        <time>2020-06-26T12:16:58Z</time>
      </trkpt>
      <trkpt lat="49.58345" lon="6.1275">
        <ele>289.4</ele>
        <time>2020-06-26T12:16:59Z</time>
      </trkpt>
      <trkpt lat="49.58348" lon="6.12742">
        <ele>289.3</ele>
        <time>2020-06-26T12:17:00Z</time>
      </trkpt>
      <trkpt lat="49.58351" lon="6.12736">
        <ele>289.3</ele>
        <time>2020-06-26T12:17:01Z</time>
      </trkpt>
      <trkpt lat="49.58353" lon="6.12726">
        <ele>289.5</ele>
        <time>2020-06-26T12:17:02Z</time>
      </trkpt>
      <trkpt lat="49.58355" lon="6.12719">
        <ele>289.5</ele>
        <time>2020-06-26T12:17:03Z</time>
      </trkpt>
      <trkpt lat="49.58356" lon="6.12709">
        <ele>289.7</ele>
        <time>2020-06-26T12:17:04Z</time>
      </trkpt>
      <trkpt lat="49.58357" lon="6.12702">
        <ele>289.7</ele>
        <time>2020-06-26T12:17:05Z</time>
      </trkpt>
      <trkpt lat="49.58358" lon="6.12697">
        <ele>289.7</ele>
        <time>2020-06-26T12:17:06Z</time>
      </trkpt>
      <trkpt lat="49.58359" lon="6.12693">
        <ele>289.8</ele>
        <time>2020-06-26T12:17:07Z</time>
      </trkpt>
      <trkpt lat="49.58359" lon="6.12692">
        <ele>289.7</ele>
        <time>2020-06-26T12:17:08Z</time>
      </trkpt>
      <trkpt lat="49.5836" lon="6.12687">
        <ele>289.7</ele>
        <time>2020-06-26T12:17:09Z</time>
      </trkpt>
      <trkpt lat="49.58361" lon="6.12686">
        <ele>289.8</ele>
        <time>2020-06-26T12:17:10Z</time>
      </trkpt>
      <trkpt lat="49.58362" lon="6.12681">
        <ele>289.8</ele>
        <time>2020-06-26T12:17:11Z</time>
      </trkpt>
      <trkpt lat="49.58362" lon="6.12679">
        <ele>289.8</ele>
        <time>2020-06-26T12:17:12Z</time>
      </trkpt>
      <trkpt lat="49.58363" lon="6.12674">
        <ele>289.8</ele>
        <time>2020-06-26T12:17:13Z</time>
      </trkpt>
      <trkpt lat="49.58363" lon="6.12673">
        <ele>289.8</ele>
        <time>2020-06-26T12:17:14Z</time>
      </trkpt>
      <trkpt lat="49.58364" lon="6.12668">
        <ele>290</ele>
        <time>2020-06-26T12:17:15Z</time>
      </trkpt>
      <trkpt lat="49.58365" lon="6.12666">
        <ele>289.9</ele>
        <time>2020-06-26T12:17:16Z</time>
      </trkpt>
      <trkpt lat="49.58366" lon="6.1266">
        <ele>289.9</ele>
        <time>2020-06-26T12:17:17Z</time>
      </trkpt>
      <trkpt lat="49.58367" lon="6.12656">
        <ele>290</ele>
        <time>2020-06-26T12:17:18Z</time>
      </trkpt>
      <trkpt lat="49.58369" lon="6.12652">
        <ele>290</ele>
        <time>2020-06-26T12:17:19Z</time>
      </trkpt>
      <trkpt lat="49.58371" lon="6.12648">
        <ele>289.9</ele>
        <time>2020-06-26T12:17:20Z</time>
      </trkpt>
      <trkpt lat="49.58369" lon="6.12638">
        <ele>290.1</ele>
        <time>2020-06-26T12:17:21Z</time>
      </trkpt>
      <trkpt lat="49.5837" lon="6.12633">
        <ele>290</ele>
        <time>2020-06-26T12:17:22Z</time>
      </trkpt>
      <trkpt lat="49.58372" lon="6.12627">
        <ele>290</ele>
        <time>2020-06-26T12:17:23Z</time>
      </trkpt>
      <trkpt lat="49.58374" lon="6.12621">
        <ele>290</ele>
        <time>2020-06-26T12:17:24Z</time>
      </trkpt>
      <trkpt lat="49.58376" lon="6.12614">
        <ele>290</ele>
        <time>2020-06-26T12:17:25Z</time>
      </trkpt>
      <trkpt lat="49.58378" lon="6.12609">
        <ele>290.1</ele>
        <time>2020-06-26T12:17:26Z</time>
      </trkpt>
      <trkpt lat="49.5838" lon="6.12603">
        <ele>290.1</ele>
        <time>2020-06-26T12:17:27Z</time>
      </trkpt>
      <trkpt lat="49.58383" lon="6.12598">
        <ele>290.1</ele>
        <time>2020-06-26T12:17:28Z</time>
      </trkpt>
      <trkpt lat="49.58385" lon="6.12593">
        <ele>290.1</ele>
        <time>2020-06-26T12:17:29Z</time>
      </trkpt>
      <trkpt lat="49.58388" lon="6.12588">
        <ele>290.1</ele>
        <time>2020-06-26T12:17:30Z</time>
      </trkpt>
      <trkpt lat="49.58391" lon="6.12584">
        <ele>290.1</ele>
        <time>2020-06-26T12:17:31Z</time>
      </trkpt>
      <trkpt lat="49.58393" lon="6.12579">
        <ele>290.1</ele>
        <time>2020-06-26T12:17:32Z</time>
      </trkpt>
      <trkpt lat="49.58391" lon="6.12567">
        <ele>290.8</ele>
        <time>2020-06-26T12:17:33Z</time>
      </trkpt>
      <trkpt lat="49.58394" lon="6.12562">
        <ele>290.7</ele>
        <time>2020-06-26T12:17:34Z</time>
      </trkpt>
      <trkpt lat="49.58397" lon="6.12559">
        <ele>290.7</ele>
        <time>2020-06-26T12:17:35Z</time>
      </trkpt>
      <trkpt lat="49.58399" lon="6.12556">
        <ele>290.6</ele>
        <time>2020-06-26T12:17:36Z</time>
      </trkpt>
      <trkpt lat="49.58401" lon="6.12551">
        <ele>290.6</ele>
        <time>2020-06-26T12:17:37Z</time>
      </trkpt>
      <trkpt lat="49.58403" lon="6.12545">
        <ele>290.7</ele>
        <time>2020-06-26T12:17:38Z</time>
      </trkpt>
      <trkpt lat="49.584" lon="6.12529">
        <ele>291.3</ele>
        <time>2020-06-26T12:17:39Z</time>
      </trkpt>
      <trkpt lat="49.58402" lon="6.12525">
        <ele>291.2</ele>
        <time>2020-06-26T12:17:40Z</time>
      </trkpt>
      <trkpt lat="49.58405" lon="6.12522">
        <ele>291.2</ele>
        <time>2020-06-26T12:17:41Z</time>
      </trkpt>
      <trkpt lat="49.58406" lon="6.12521">
        <ele>291.2</ele>
        <time>2020-06-26T12:17:42Z</time>
      </trkpt>
      <trkpt lat="49.58408" lon="6.12518">
        <ele>291.1</ele>
        <time>2020-06-26T12:17:43Z</time>
      </trkpt>
      <trkpt lat="49.58409" lon="6.12517">
        <ele>291.2</ele>
        <time>2020-06-26T12:17:44Z</time>
      </trkpt>
      <trkpt lat="49.58406" lon="6.12509">
        <ele>291.5</ele>
        <time>2020-06-26T12:17:45Z</time>
      </trkpt>
      <trkpt lat="49.58408" lon="6.12505">
        <ele>291.4</ele>
        <time>2020-06-26T12:17:46Z</time>
      </trkpt>
      <trkpt lat="49.58408" lon="6.12504">
        <ele>291.5</ele>
        <time>2020-06-26T12:17:47Z</time>
      </trkpt>
      <trkpt lat="49.5841" lon="6.125">
        <ele>291.4</ele>
        <time>2020-06-26T12:17:48Z</time>
      </trkpt>
      <trkpt lat="49.58411" lon="6.12497">
        <ele>291.4</ele>
        <time>2020-06-26T12:17:49Z</time>
      </trkpt>
      <trkpt lat="49.58412" lon="6.12493">
        <ele>291.4</ele>
        <time>2020-06-26T12:17:50Z</time>
      </trkpt>
      <trkpt lat="49.58411" lon="6.12492">
        <ele>291.5</ele>
        <time>2020-06-26T12:17:51Z</time>
      </trkpt>
      <trkpt lat="49.58411" lon="6.12492">
        <ele>291.5</ele>
        <time>2020-06-26T12:17:52Z</time>
      </trkpt>
      <trkpt lat="49.5841" lon="6.12493">
        <ele>291.5</ele>
        <time>2020-06-26T12:17:53Z</time>
      </trkpt>
      <trkpt lat="49.5841" lon="6.12493">
        <ele>291.5</ele>
        <time>2020-06-26T12:17:54Z</time>
      </trkpt>
      <trkpt lat="49.58409" lon="6.12493">
        <ele>291.5</ele>
        <time>2020-06-26T12:17:55Z</time>
      </trkpt>
      <trkpt lat="49.58409" lon="6.12493">
        <ele>291.7</ele>
        <time>2020-06-26T12:17:56Z</time>
      </trkpt>
      <trkpt lat="49.58408" lon="6.12495">
        <ele>291.7</ele>
        <time>2020-06-26T12:17:57Z</time>
      </trkpt>
      <trkpt lat="49.58406" lon="6.12495">
        <ele>291.7</ele>
        <time>2020-06-26T12:17:58Z</time>
      </trkpt>
      <trkpt lat="49.58405" lon="6.12496">
        <ele>291.9</ele>
        <time>2020-06-26T12:17:59Z</time>
      </trkpt>
      <trkpt lat="49.58402" lon="6.12496">
        <ele>292</ele>
        <time>2020-06-26T12:18:00Z</time>
      </trkpt>
      <trkpt lat="49.58401" lon="6.12497">
        <ele>292.1</ele>
        <time>2020-06-26T12:18:01Z</time>
      </trkpt>
      <trkpt lat="49.58397" lon="6.12496">
        <ele>292.3</ele>
        <time>2020-06-26T12:18:02Z</time>
      </trkpt>
      <trkpt lat="49.58396" lon="6.12496">
        <ele>292.3</ele>
        <time>2020-06-26T12:18:03Z</time>
      </trkpt>
      <trkpt lat="49.58391" lon="6.1249">
        <ele>292.8</ele>
        <time>2020-06-26T12:18:04Z</time>
      </trkpt>
      <trkpt lat="49.58386" lon="6.12484">
        <ele>293.4</ele>
        <time>2020-06-26T12:18:05Z</time>
      </trkpt>
      <trkpt lat="49.58382" lon="6.12477">
        <ele>293.7</ele>
        <time>2020-06-26T12:18:06Z</time>
      </trkpt>
      <trkpt lat="49.5838" lon="6.12477">
        <ele>294</ele>
        <time>2020-06-26T12:18:07Z</time>
      </trkpt>
      <trkpt lat="49.58379" lon="6.12477">
        <ele>294</ele>
        <time>2020-06-26T12:18:08Z</time>
      </trkpt>
      <trkpt lat="49.58376" lon="6.12478">
        <ele>294.2</ele>
        <time>2020-06-26T12:18:09Z</time>
      </trkpt>
      <trkpt lat="49.58375" lon="6.12478">
        <ele>294.5</ele>
        <time>2020-06-26T12:18:10Z</time>
      </trkpt>
      <trkpt lat="49.58373" lon="6.12479">
        <ele>294.7</ele>
        <time>2020-06-26T12:18:11Z</time>
      </trkpt>
      <trkpt lat="49.58371" lon="6.12479">
        <ele>294.7</ele>
        <time>2020-06-26T12:18:12Z</time>
      </trkpt>
      <trkpt lat="49.5837" lon="6.12479">
        <ele>295</ele>
        <time>2020-06-26T12:18:13Z</time>
      </trkpt>
      <trkpt lat="49.58368" lon="6.12479">
        <ele>294.9</ele>
        <time>2020-06-26T12:18:14Z</time>
      </trkpt>
      <trkpt lat="49.58366" lon="6.12479">
        <ele>295.2</ele>
        <time>2020-06-26T12:18:15Z</time>
      </trkpt>
      <trkpt lat="49.58365" lon="6.12479">
        <ele>295.2</ele>
        <time>2020-06-26T12:18:16Z</time>
      </trkpt>
      <trkpt lat="49.58346" lon="6.12445">
        <ele>296.9</ele>
        <time>2020-06-26T12:18:17Z</time>
      </trkpt>
      <trkpt lat="49.58345" lon="6.12445">
        <ele>297</ele>
        <time>2020-06-26T12:18:18Z</time>
      </trkpt>
      <trkpt lat="49.58343" lon="6.12445">
        <ele>297</ele>
        <time>2020-06-26T12:18:19Z</time>
      </trkpt>
      <trkpt lat="49.58342" lon="6.12444">
        <ele>297.2</ele>
        <time>2020-06-26T12:18:20Z</time>
      </trkpt>
      <trkpt lat="49.58341" lon="6.12442">
        <ele>297.2</ele>
        <time>2020-06-26T12:18:21Z</time>
      </trkpt>
      <trkpt lat="49.58341" lon="6.12441">
        <ele>297.2</ele>
        <time>2020-06-26T12:18:22Z</time>
      </trkpt>
      <trkpt lat="49.5834" lon="6.1244">
        <ele>297.2</ele>
        <time>2020-06-26T12:18:23Z</time>
      </trkpt>
      <trkpt lat="49.5834" lon="6.1244">
        <ele>297.2</ele>
        <time>2020-06-26T12:18:24Z</time>
      </trkpt>
      <trkpt lat="49.5834" lon="6.1244">
        <ele>297.2</ele>
        <time>2020-06-26T12:18:25Z</time>
      </trkpt>
      <trkpt lat="49.58338" lon="6.12441">
        <ele>297.4</ele>
        <time>2020-06-26T12:18:26Z</time>
      </trkpt>
      <trkpt lat="49.58337" lon="6.1244">
        <ele>297.4</ele>
        <time>2020-06-26T12:18:27Z</time>
      </trkpt>
      <trkpt lat="49.58336" lon="6.1244">
        <ele>297.5</ele>
        <time>2020-06-26T12:18:28Z</time>
      </trkpt>
      <trkpt lat="49.58336" lon="6.1244">
        <ele>297.5</ele>
        <time>2020-06-26T12:18:29Z</time>
      </trkpt>
      <trkpt lat="49.58335" lon="6.12439">
        <ele>297.5</ele>
        <time>2020-06-26T12:18:30Z</time>
      </trkpt>
      <trkpt lat="49.58335" lon="6.12439">
        <ele>297.5</ele>
        <time>2020-06-26T12:18:31Z</time>
      </trkpt>
      <trkpt lat="49.58334" lon="6.1244">
        <ele>297.7</ele>
        <time>2020-06-26T12:18:32Z</time>
      </trkpt>
      <trkpt lat="49.58333" lon="6.1244">
        <ele>297.7</ele>
        <time>2020-06-26T12:18:33Z</time>
      </trkpt>
      <trkpt lat="49.58332" lon="6.1244">
        <ele>297.7</ele>
        <time>2020-06-26T12:18:34Z</time>
      </trkpt>
      <trkpt lat="49.58331" lon="6.12439">
        <ele>297.7</ele>
        <time>2020-06-26T12:18:35Z</time>
      </trkpt>
      <trkpt lat="49.58331" lon="6.1244">
        <ele>297.9</ele>
        <time>2020-06-26T12:18:36Z</time>
      </trkpt>
      <trkpt lat="49.5833" lon="6.1244">
        <ele>297.9</ele>
        <time>2020-06-26T12:18:37Z</time>
      </trkpt>
      <trkpt lat="49.5833" lon="6.1244">
        <ele>297.9</ele>
        <time>2020-06-26T12:18:38Z</time>
      </trkpt>
      <trkpt lat="49.5833" lon="6.12439">
        <ele>297.9</ele>
        <time>2020-06-26T12:18:39Z</time>
      </trkpt>
      <trkpt lat="49.5833" lon="6.12438">
        <ele>297.9</ele>
        <time>2020-06-26T12:18:40Z</time>
      </trkpt>
      <trkpt lat="49.58331" lon="6.12438">
        <ele>297.9</ele>
        <time>2020-06-26T12:18:41Z</time>
      </trkpt>
      <trkpt lat="49.58331" lon="6.12439">
        <ele>297.9</ele>
        <time>2020-06-26T12:18:42Z</time>
      </trkpt>
      <trkpt lat="49.58335" lon="6.1245">
        <ele>297.7</ele>
        <time>2020-06-26T12:19:02Z</time>
      </trkpt>
      <trkpt lat="49.58336" lon="6.12449">
        <ele>297.7</ele>
        <time>2020-06-26T12:19:03Z</time>
      </trkpt>
      <trkpt lat="49.58336" lon="6.12449">
        <ele>297.8</ele>
        <time>2020-06-26T12:19:04Z</time>
      </trkpt>
      <trkpt lat="49.58337" lon="6.12447">
        <ele>297.8</ele>
        <time>2020-06-26T12:19:05Z</time>
      </trkpt>
      <trkpt lat="49.58337" lon="6.12448">
        <ele>297.7</ele>
        <time>2020-06-26T12:19:06Z</time>
      </trkpt>
      <trkpt lat="49.58338" lon="6.12448">
        <ele>297.7</ele>
        <time>2020-06-26T12:19:07Z</time>
      </trkpt>
      <trkpt lat="49.58339" lon="6.12448">
        <ele>297.7</ele>
        <time>2020-06-26T12:19:08Z</time>
      </trkpt>
      <trkpt lat="49.58339" lon="6.1245">
        <ele>297.7</ele>
        <time>2020-06-26T12:19:09Z</time>
      </trkpt>
      <trkpt lat="49.5834" lon="6.1245">
        <ele>297.6</ele>
        <time>2020-06-26T12:19:10Z</time>
      </trkpt>
      <trkpt lat="49.5834" lon="6.1245">
        <ele>297.7</ele>
        <time>2020-06-26T12:19:11Z</time>
      </trkpt>
      <trkpt lat="49.5834" lon="6.1245">
        <ele>297.7</ele>
        <time>2020-06-26T12:19:12Z</time>
      </trkpt>
      <trkpt lat="49.58341" lon="6.1245">
        <ele>297.7</ele>
        <time>2020-06-26T12:19:13Z</time>
      </trkpt>
      <trkpt lat="49.58341" lon="6.12449">
        <ele>297.7</ele>
        <time>2020-06-26T12:19:14Z</time>
      </trkpt>
      <trkpt lat="49.58341" lon="6.12449">
        <ele>297.7</ele>
        <time>2020-06-26T12:19:15Z</time>
      </trkpt>
      <trkpt lat="49.58341" lon="6.12449">
        <ele>297.7</ele>
        <time>2020-06-26T12:19:16Z</time>
      </trkpt>
      <trkpt lat="49.58342" lon="6.12448">
        <ele>297.7</ele>
        <time>2020-06-26T12:19:17Z</time>
      </trkpt>
      <trkpt lat="49.58342" lon="6.12448">
        <ele>297.8</ele>
        <time>2020-06-26T12:19:18Z</time>
      </trkpt>
      <trkpt lat="49.58342" lon="6.12448">
        <ele>297.8</ele>
        <time>2020-06-26T12:19:19Z</time>
      </trkpt>
      <trkpt lat="49.58343" lon="6.12448">
        <ele>297.7</ele>
        <time>2020-06-26T12:19:20Z</time>
      </trkpt>
      <trkpt lat="49.58343" lon="6.12451">
        <ele>297.7</ele>
        <time>2020-06-26T12:19:21Z</time>
      </trkpt>
      <trkpt lat="49.58344" lon="6.12454">
        <ele>297.7</ele>
        <time>2020-06-26T12:19:22Z</time>
      </trkpt>
      <trkpt lat="49.58344" lon="6.12456">
        <ele>297.7</ele>
        <time>2020-06-26T12:19:23Z</time>
      </trkpt>
      <trkpt lat="49.58345" lon="6.12459">
        <ele>297.7</ele>
        <time>2020-06-26T12:19:24Z</time>
      </trkpt>
      <trkpt lat="49.58336" lon="6.12419">
        <ele>298</ele>
        <time>2020-06-26T12:19:25Z</time>
      </trkpt>
      <trkpt lat="49.58336" lon="6.1242">
        <ele>298</ele>
        <time>2020-06-26T12:19:26Z</time>
      </trkpt>
      <trkpt lat="49.58337" lon="6.1242">
        <ele>298.1</ele>
        <time>2020-06-26T12:19:27Z</time>
      </trkpt>
      <trkpt lat="49.58337" lon="6.12421">
        <ele>298.1</ele>
        <time>2020-06-26T12:19:28Z</time>
      </trkpt>
      <trkpt lat="49.58337" lon="6.12421">
        <ele>298</ele>
        <time>2020-06-26T12:19:29Z</time>
      </trkpt>
      <trkpt lat="49.58314" lon="6.12325">
        <ele>297.1</ele>
        <time>2020-06-26T13:18:10Z</time>
      </trkpt>
      <trkpt lat="49.58311" lon="6.12328">
        <ele>297.2</ele>
        <time>2020-06-26T13:18:11Z</time>
      </trkpt>
      <trkpt lat="49.58308" lon="6.1233">
        <ele>297.4</ele>
        <time>2020-06-26T13:18:12Z</time>
      </trkpt>
      <trkpt lat="49.58305" lon="6.12331">
        <ele>297.5</ele>
        <time>2020-06-26T13:18:13Z</time>
      </trkpt>
      <trkpt lat="49.58304" lon="6.12331">
        <ele>297.5</ele>
        <time>2020-06-26T13:18:14Z</time>
      </trkpt>
      <trkpt lat="49.58302" lon="6.12332">
        <ele>297.6</ele>
        <time>2020-06-26T13:18:15Z</time>
      </trkpt>
      <trkpt lat="49.583" lon="6.12332">
        <ele>297.8</ele>
        <time>2020-06-26T13:18:16Z</time>
      </trkpt>
      <trkpt lat="49.58299" lon="6.12332">
        <ele>297.8</ele>
        <time>2020-06-26T13:18:17Z</time>
      </trkpt>
      <trkpt lat="49.58297" lon="6.12332">
        <ele>297.8</ele>
        <time>2020-06-26T13:18:18Z</time>
      </trkpt>
      <trkpt lat="49.58295" lon="6.12333">
        <ele>297.8</ele>
        <time>2020-06-26T13:18:19Z</time>
      </trkpt>
      <trkpt lat="49.58294" lon="6.12333">
        <ele>297.8</ele>
        <time>2020-06-26T13:18:20Z</time>
      </trkpt>
      <trkpt lat="49.58293" lon="6.12334">
        <ele>297.8</ele>
        <time>2020-06-26T13:18:21Z</time>
      </trkpt>
      <trkpt lat="49.58292" lon="6.12334">
        <ele>297.8</ele>
        <time>2020-06-26T13:18:22Z</time>
      </trkpt>
      <trkpt lat="49.58291" lon="6.12335">
        <ele>297.8</ele>
        <time>2020-06-26T13:18:23Z</time>
      </trkpt>
      <trkpt lat="49.58292" lon="6.12334">
        <ele>297.8</ele>
        <time>2020-06-26T13:18:24Z</time>
      </trkpt>
      <trkpt lat="49.58292" lon="6.12335">
        <ele>297.8</ele>
        <time>2020-06-26T13:18:25Z</time>
      </trkpt>
      <trkpt lat="49.58292" lon="6.12336">
        <ele>297.8</ele>
        <time>2020-06-26T13:18:26Z</time>
      </trkpt>
      <trkpt lat="49.58292" lon="6.12334">
        <ele>297.8</ele>
        <time>2020-06-26T13:18:27Z</time>
      </trkpt>
      <trkpt lat="49.58293" lon="6.12332">
        <ele>297.8</ele>
        <time>2020-06-26T13:18:28Z</time>
      </trkpt>
      <trkpt lat="49.58293" lon="6.1233">
        <ele>297.8</ele>
        <time>2020-06-26T13:18:29Z</time>
      </trkpt>
      <trkpt lat="49.58293" lon="6.1233">
        <ele>297.8</ele>
        <time>2020-06-26T13:18:30Z</time>
      </trkpt>
      <trkpt lat="49.58292" lon="6.12328">
        <ele>297.8</ele>
        <time>2020-06-26T13:18:31Z</time>
      </trkpt>
      <trkpt lat="49.58292" lon="6.12327">
        <ele>297.7</ele>
        <time>2020-06-26T13:18:32Z</time>
      </trkpt>
      <trkpt lat="49.58292" lon="6.12325">
        <ele>297.6</ele>
        <time>2020-06-26T13:18:33Z</time>
      </trkpt>
      <trkpt lat="49.58292" lon="6.12325">
        <ele>297.6</ele>
        <time>2020-06-26T13:18:34Z</time>
      </trkpt>
      <trkpt lat="49.58293" lon="6.12324">
        <ele>297.6</ele>
        <time>2020-06-26T13:18:35Z</time>
      </trkpt>
      <trkpt lat="49.58293" lon="6.12324">
        <ele>297.6</ele>
        <time>2020-06-26T13:18:36Z</time>
      </trkpt>
      <trkpt lat="49.58293" lon="6.12323">
        <ele>297.6</ele>
        <time>2020-06-26T13:18:37Z</time>
      </trkpt>
      <trkpt lat="49.58293" lon="6.12321">
        <ele>297.5</ele>
        <time>2020-06-26T13:18:38Z</time>
      </trkpt>
      <trkpt lat="49.58292" lon="6.1232">
        <ele>297.5</ele>
        <time>2020-06-26T13:18:39Z</time>
      </trkpt>
      <trkpt lat="49.58292" lon="6.12318">
        <ele>297.5</ele>
        <time>2020-06-26T13:18:40Z</time>
      </trkpt>
      <trkpt lat="49.58291" lon="6.12316">
        <ele>297.4</ele>
        <time>2020-06-26T13:18:41Z</time>
      </trkpt>
      <trkpt lat="49.5829" lon="6.12315">
        <ele>297.4</ele>
        <time>2020-06-26T13:18:42Z</time>
      </trkpt>
      <trkpt lat="49.5829" lon="6.12313">
        <ele>297.4</ele>
        <time>2020-06-26T13:19:10Z</time>
      </trkpt>
      <trkpt lat="49.58289" lon="6.12312">
        <ele>297.3</ele>
        <time>2020-06-26T13:19:11Z</time>
      </trkpt>
      <trkpt lat="49.58288" lon="6.12311">
        <ele>297.4</ele>
        <time>2020-06-26T13:19:12Z</time>
      </trkpt>
      <trkpt lat="49.58286" lon="6.1231">
        <ele>297.4</ele>
        <time>2020-06-26T13:19:13Z</time>
      </trkpt>
      <trkpt lat="49.58283" lon="6.12307">
        <ele>297.4</ele>
        <time>2020-06-26T13:19:14Z</time>
      </trkpt>
      <trkpt lat="49.58282" lon="6.12306">
        <ele>297.5</ele>
        <time>2020-06-26T13:19:15Z</time>
      </trkpt>
      <trkpt lat="49.58279" lon="6.12303">
        <ele>297.5</ele>
        <time>2020-06-26T13:19:16Z</time>
      </trkpt>
      <trkpt lat="49.58278" lon="6.12302">
        <ele>297.5</ele>
        <time>2020-06-26T13:19:17Z</time>
      </trkpt>
      <trkpt lat="49.58277" lon="6.123">
        <ele>297.5</ele>
        <time>2020-06-26T13:19:18Z</time>
      </trkpt>
      <trkpt lat="49.58275" lon="6.12301">
        <ele>297.5</ele>
        <time>2020-06-26T13:19:19Z</time>
      </trkpt>
      <trkpt lat="49.58274" lon="6.123">
        <ele>297.5</ele>
        <time>2020-06-26T13:19:20Z</time>
      </trkpt>
      <trkpt lat="49.58273" lon="6.123">
        <ele>297.5</ele>
        <time>2020-06-26T13:19:21Z</time>
      </trkpt>
      <trkpt lat="49.58272" lon="6.12302">
        <ele>297.5</ele>
        <time>2020-06-26T13:19:22Z</time>
      </trkpt>
      <trkpt lat="49.58271" lon="6.12306">
        <ele>297.5</ele>
        <time>2020-06-26T13:19:23Z</time>
      </trkpt>
      <trkpt lat="49.58269" lon="6.1231">
        <ele>297.6</ele>
        <time>2020-06-26T13:19:24Z</time>
      </trkpt>
      <trkpt lat="49.58267" lon="6.12314">
        <ele>297.6</ele>
        <time>2020-06-26T13:19:25Z</time>
      </trkpt>
      <trkpt lat="49.58264" lon="6.12318">
        <ele>297.6</ele>
        <time>2020-06-26T13:19:26Z</time>
      </trkpt>
      <trkpt lat="49.58262" lon="6.12323">
        <ele>297.6</ele>
        <time>2020-06-26T13:19:27Z</time>
      </trkpt>
      <trkpt lat="49.5826" lon="6.12327">
        <ele>297.7</ele>
        <time>2020-06-26T13:19:28Z</time>
      </trkpt>
      <trkpt lat="49.58258" lon="6.12331">
        <ele>297.7</ele>
        <time>2020-06-26T13:19:29Z</time>
      </trkpt>
      <trkpt lat="49.58256" lon="6.12336">
        <ele>297.7</ele>
        <time>2020-06-26T13:19:30Z</time>
      </trkpt>
      <trkpt lat="49.58256" lon="6.12338">
        <ele>297.8</ele>
        <time>2020-06-26T13:19:31Z</time>
      </trkpt>
      <trkpt lat="49.58254" lon="6.1234">
        <ele>297.8</ele>
        <time>2020-06-26T13:19:32Z</time>
      </trkpt>
      <trkpt lat="49.58252" lon="6.12346">
        <ele>297.8</ele>
        <time>2020-06-26T13:19:33Z</time>
      </trkpt>
      <trkpt lat="49.5825" lon="6.12351">
        <ele>297.9</ele>
        <time>2020-06-26T13:19:34Z</time>
      </trkpt>
      <trkpt lat="49.58248" lon="6.12355">
        <ele>297.9</ele>
        <time>2020-06-26T13:19:35Z</time>
      </trkpt>
      <trkpt lat="49.58246" lon="6.12359">
        <ele>297.9</ele>
        <time>2020-06-26T13:19:36Z</time>
      </trkpt>
      <trkpt lat="49.58244" lon="6.12363">
        <ele>298</ele>
        <time>2020-06-26T13:19:37Z</time>
      </trkpt>
      <trkpt lat="49.58241" lon="6.12366">
        <ele>298</ele>
        <time>2020-06-26T13:19:38Z</time>
      </trkpt>
      <trkpt lat="49.58239" lon="6.1237">
        <ele>298.1</ele>
        <time>2020-06-26T13:19:39Z</time>
      </trkpt>
      <trkpt lat="49.58237" lon="6.12374">
        <ele>298.1</ele>
        <time>2020-06-26T13:19:40Z</time>
      </trkpt>
      <trkpt lat="49.58234" lon="6.12377">
        <ele>298.2</ele>
        <time>2020-06-26T13:19:41Z</time>
      </trkpt>
      <trkpt lat="49.58232" lon="6.12381">
        <ele>298.3</ele>
        <time>2020-06-26T13:19:42Z</time>
      </trkpt>
      <trkpt lat="49.58229" lon="6.12385">
        <ele>298.4</ele>
        <time>2020-06-26T13:19:43Z</time>
      </trkpt>
      <trkpt lat="49.58227" lon="6.12389">
        <ele>298.5</ele>
        <time>2020-06-26T13:19:44Z</time>
      </trkpt>
      <trkpt lat="49.58225" lon="6.12395">
        <ele>298.5</ele>
        <time>2020-06-26T13:19:45Z</time>
      </trkpt>
      <trkpt lat="49.58222" lon="6.12399">
        <ele>298.5</ele>
        <time>2020-06-26T13:19:46Z</time>
      </trkpt>
      <trkpt lat="49.5822" lon="6.12402">
        <ele>298.5</ele>
        <time>2020-06-26T13:19:47Z</time>
      </trkpt>
      <trkpt lat="49.58217" lon="6.12406">
        <ele>298.5</ele>
        <time>2020-06-26T13:19:48Z</time>
      </trkpt>
      <trkpt lat="49.58214" lon="6.12411">
        <ele>298.5</ele>
        <time>2020-06-26T13:19:49Z</time>
      </trkpt>
      <trkpt lat="49.58211" lon="6.12416">
        <ele>298.5</ele>
        <time>2020-06-26T13:19:50Z</time>
      </trkpt>
      <trkpt lat="49.58209" lon="6.1242">
        <ele>298.5</ele>
        <time>2020-06-26T13:19:51Z</time>
      </trkpt>
      <trkpt lat="49.58207" lon="6.12423">
        <ele>298.5</ele>
        <time>2020-06-26T13:19:52Z</time>
      </trkpt>
      <trkpt lat="49.58204" lon="6.12428">
        <ele>298.6</ele>
        <time>2020-06-26T13:19:53Z</time>
      </trkpt>
      <trkpt lat="49.58202" lon="6.1243">
        <ele>298.6</ele>
        <time>2020-06-26T13:19:54Z</time>
      </trkpt>
      <trkpt lat="49.58199" lon="6.12433">
        <ele>298.7</ele>
        <time>2020-06-26T13:19:55Z</time>
      </trkpt>
      <trkpt lat="49.58197" lon="6.12437">
        <ele>298.7</ele>
        <time>2020-06-26T13:19:56Z</time>
      </trkpt>
      <trkpt lat="49.58194" lon="6.12441">
        <ele>298.8</ele>
        <time>2020-06-26T13:19:57Z</time>
      </trkpt>
      <trkpt lat="49.58191" lon="6.12446">
        <ele>298.8</ele>
        <time>2020-06-26T13:19:58Z</time>
      </trkpt>
      <trkpt lat="49.58187" lon="6.12454">
        <ele>299</ele>
        <time>2020-06-26T13:19:59Z</time>
      </trkpt>
      <trkpt lat="49.58184" lon="6.12459">
        <ele>299.1</ele>
        <time>2020-06-26T13:20:00Z</time>
      </trkpt>
      <trkpt lat="49.58181" lon="6.12464">
        <ele>299.2</ele>
        <time>2020-06-26T13:20:01Z</time>
      </trkpt>
      <trkpt lat="49.58178" lon="6.1247">
        <ele>299.3</ele>
        <time>2020-06-26T13:20:02Z</time>
      </trkpt>
      <trkpt lat="49.58175" lon="6.12475">
        <ele>299.3</ele>
        <time>2020-06-26T13:20:03Z</time>
      </trkpt>
      <trkpt lat="49.58172" lon="6.1248">
        <ele>299.2</ele>
        <time>2020-06-26T13:20:04Z</time>
      </trkpt>
      <trkpt lat="49.58169" lon="6.12485">
        <ele>298.9</ele>
        <time>2020-06-26T13:20:05Z</time>
      </trkpt>
      <trkpt lat="49.58166" lon="6.1249">
        <ele>298.6</ele>
        <time>2020-06-26T13:20:06Z</time>
      </trkpt>
      <trkpt lat="49.58163" lon="6.12495">
        <ele>298.4</ele>
        <time>2020-06-26T13:20:07Z</time>
      </trkpt>
      <trkpt lat="49.5816" lon="6.12499">
        <ele>298.4</ele>
        <time>2020-06-26T13:20:08Z</time>
      </trkpt>
      <trkpt lat="49.58158" lon="6.12504">
        <ele>298.4</ele>
        <time>2020-06-26T13:20:09Z</time>
      </trkpt>
      <trkpt lat="49.58156" lon="6.12508">
        <ele>298.4</ele>
        <time>2020-06-26T13:20:10Z</time>
      </trkpt>
      <trkpt lat="49.58153" lon="6.12512">
        <ele>298.4</ele>
        <time>2020-06-26T13:20:11Z</time>
      </trkpt>
      <trkpt lat="49.58151" lon="6.12516">
        <ele>298.5</ele>
        <time>2020-06-26T13:20:12Z</time>
      </trkpt>
      <trkpt lat="49.5815" lon="6.1252">
        <ele>298.6</ele>
        <time>2020-06-26T13:20:13Z</time>
      </trkpt>
      <trkpt lat="49.58148" lon="6.12523">
        <ele>298.6</ele>
        <time>2020-06-26T13:20:14Z</time>
      </trkpt>
      <trkpt lat="49.58146" lon="6.12528">
        <ele>298.6</ele>
        <time>2020-06-26T13:20:15Z</time>
      </trkpt>
      <trkpt lat="49.58144" lon="6.12533">
        <ele>298.6</ele>
        <time>2020-06-26T13:20:16Z</time>
      </trkpt>
      <trkpt lat="49.58142" lon="6.12534">
        <ele>298.6</ele>
        <time>2020-06-26T13:20:17Z</time>
      </trkpt>
      <trkpt lat="49.58141" lon="6.12537">
        <ele>299.1</ele>
        <time>2020-06-26T13:20:18Z</time>
      </trkpt>
      <trkpt lat="49.58139" lon="6.12542">
        <ele>299</ele>
        <time>2020-06-26T13:20:19Z</time>
      </trkpt>
      <trkpt lat="49.58136" lon="6.12546">
        <ele>299</ele>
        <time>2020-06-26T13:20:20Z</time>
      </trkpt>
      <trkpt lat="49.58134" lon="6.1255">
        <ele>298.9</ele>
        <time>2020-06-26T13:20:21Z</time>
      </trkpt>
      <trkpt lat="49.58131" lon="6.12553">
        <ele>298.9</ele>
        <time>2020-06-26T13:20:22Z</time>
      </trkpt>
      <trkpt lat="49.58128" lon="6.12555">
        <ele>298.8</ele>
        <time>2020-06-26T13:20:23Z</time>
      </trkpt>
      <trkpt lat="49.58125" lon="6.12559">
        <ele>298.8</ele>
        <time>2020-06-26T13:20:24Z</time>
      </trkpt>
      <trkpt lat="49.58122" lon="6.12562">
        <ele>298.7</ele>
        <time>2020-06-26T13:20:25Z</time>
      </trkpt>
      <trkpt lat="49.58119" lon="6.12564">
        <ele>298.7</ele>
        <time>2020-06-26T13:20:26Z</time>
      </trkpt>
      <trkpt lat="49.58116" lon="6.12566">
        <ele>298.6</ele>
        <time>2020-06-26T13:20:27Z</time>
      </trkpt>
      <trkpt lat="49.58115" lon="6.12567">
        <ele>298.6</ele>
        <time>2020-06-26T13:20:28Z</time>
      </trkpt>
      <trkpt lat="49.58115" lon="6.12567">
        <ele>298.6</ele>
        <time>2020-06-26T13:20:29Z</time>
      </trkpt>
      <trkpt lat="49.58115" lon="6.12566">
        <ele>298.6</ele>
        <time>2020-06-26T13:20:30Z</time>
      </trkpt>
      <trkpt lat="49.58116" lon="6.12566">
        <ele>298.6</ele>
        <time>2020-06-26T13:20:31Z</time>
      </trkpt>
      <trkpt lat="49.58116" lon="6.12566">
        <ele>298.5</ele>
        <time>2020-06-26T13:20:32Z</time>
      </trkpt>
      <trkpt lat="49.58117" lon="6.12566">
        <ele>298.5</ele>
        <time>2020-06-26T13:20:33Z</time>
      </trkpt>
      <trkpt lat="49.58118" lon="6.12567">
        <ele>298.5</ele>
        <time>2020-06-26T13:20:34Z</time>
      </trkpt>
      <trkpt lat="49.58118" lon="6.12567">
        <ele>298.5</ele>
        <time>2020-06-26T13:20:35Z</time>
      </trkpt>
      <trkpt lat="49.58118" lon="6.12567">
        <ele>298.5</ele>
        <time>2020-06-26T13:20:36Z</time>
      </trkpt>
      <trkpt lat="49.58118" lon="6.12567">
        <ele>298.5</ele>
        <time>2020-06-26T13:20:37Z</time>
      </trkpt>
      <trkpt lat="49.58118" lon="6.12567">
        <ele>298.5</ele>
        <time>2020-06-26T13:20:38Z</time>
      </trkpt>
      <trkpt lat="49.58118" lon="6.12567">
        <ele>298.5</ele>
        <time>2020-06-26T13:20:39Z</time>
      </trkpt>
      <trkpt lat="49.58118" lon="6.12566">
        <ele>298.5</ele>
        <time>2020-06-26T13:20:40Z</time>
      </trkpt>
      <trkpt lat="49.58118" lon="6.12566">
        <ele>298.5</ele>
        <time>2020-06-26T13:20:41Z</time>
      </trkpt>
      <trkpt lat="49.58124" lon="6.12558">
        <ele>298.3</ele>
        <time>2020-06-26T13:20:53Z</time>
      </trkpt>
      <trkpt lat="49.58126" lon="6.12558">
        <ele>298.3</ele>
        <time>2020-06-26T13:20:54Z</time>
      </trkpt>
      <trkpt lat="49.58128" lon="6.12562">
        <ele>298.2</ele>
        <time>2020-06-26T13:20:55Z</time>
      </trkpt>
      <trkpt lat="49.5813" lon="6.12563">
        <ele>298.2</ele>
        <time>2020-06-26T13:20:56Z</time>
      </trkpt>
      <trkpt lat="49.5813" lon="6.12566">
        <ele>298.2</ele>
        <time>2020-06-26T13:20:57Z</time>
      </trkpt>
      <trkpt lat="49.58128" lon="6.12569">
        <ele>298.1</ele>
        <time>2020-06-26T13:20:58Z</time>
      </trkpt>
      <trkpt lat="49.58126" lon="6.12569">
        <ele>298.1</ele>
        <time>2020-06-26T13:20:59Z</time>
      </trkpt>
      <trkpt lat="49.58123" lon="6.12571">
        <ele>298</ele>
        <time>2020-06-26T13:21:00Z</time>
      </trkpt>
      <trkpt lat="49.58122" lon="6.12572">
        <ele>298</ele>
        <time>2020-06-26T13:21:01Z</time>
      </trkpt>
      <trkpt lat="49.58119" lon="6.12575">
        <ele>297.9</ele>
        <time>2020-06-26T13:21:02Z</time>
      </trkpt>
      <trkpt lat="49.58116" lon="6.12579">
        <ele>297.9</ele>
        <time>2020-06-26T13:21:03Z</time>
      </trkpt>
      <trkpt lat="49.58113" lon="6.12581">
        <ele>297.8</ele>
        <time>2020-06-26T13:21:04Z</time>
      </trkpt>
      <trkpt lat="49.58109" lon="6.12585">
        <ele>297.8</ele>
        <time>2020-06-26T13:21:05Z</time>
      </trkpt>
      <trkpt lat="49.58106" lon="6.12587">
        <ele>297.7</ele>
        <time>2020-06-26T13:21:06Z</time>
      </trkpt>
      <trkpt lat="49.58103" lon="6.12591">
        <ele>297.7</ele>
        <time>2020-06-26T13:21:07Z</time>
      </trkpt>
      <trkpt lat="49.58099" lon="6.12595">
        <ele>297.6</ele>
        <time>2020-06-26T13:21:08Z</time>
      </trkpt>
      <trkpt lat="49.58095" lon="6.12599">
        <ele>297.6</ele>
        <time>2020-06-26T13:21:09Z</time>
      </trkpt>
      <trkpt lat="49.58092" lon="6.12604">
        <ele>297.5</ele>
        <time>2020-06-26T13:21:10Z</time>
      </trkpt>
      <trkpt lat="49.58089" lon="6.1261">
        <ele>297.4</ele>
        <time>2020-06-26T13:21:11Z</time>
      </trkpt>
      <trkpt lat="49.58085" lon="6.12615">
        <ele>297.3</ele>
        <time>2020-06-26T13:21:12Z</time>
      </trkpt>
      <trkpt lat="49.58082" lon="6.1262">
        <ele>297.3</ele>
        <time>2020-06-26T13:21:13Z</time>
      </trkpt>
      <trkpt lat="49.58079" lon="6.12627">
        <ele>297.2</ele>
        <time>2020-06-26T13:21:14Z</time>
      </trkpt>
      <trkpt lat="49.58078" lon="6.12633">
        <ele>297.1</ele>
        <time>2020-06-26T13:21:15Z</time>
      </trkpt>
      <trkpt lat="49.58076" lon="6.1264">
        <ele>297.1</ele>
        <time>2020-06-26T13:21:16Z</time>
      </trkpt>
      <trkpt lat="49.58073" lon="6.12644">
        <ele>297.1</ele>
        <time>2020-06-26T13:21:17Z</time>
      </trkpt>
      <trkpt lat="49.58069" lon="6.12647">
        <ele>297</ele>
        <time>2020-06-26T13:21:18Z</time>
      </trkpt>
      <trkpt lat="49.58066" lon="6.12651">
        <ele>297</ele>
        <time>2020-06-26T13:21:19Z</time>
      </trkpt>
      <trkpt lat="49.58063" lon="6.12656">
        <ele>297</ele>
        <time>2020-06-26T13:21:20Z</time>
      </trkpt>
      <trkpt lat="49.58061" lon="6.12659">
        <ele>296.9</ele>
        <time>2020-06-26T13:21:21Z</time>
      </trkpt>
      <trkpt lat="49.58059" lon="6.12664">
        <ele>296.9</ele>
        <time>2020-06-26T13:21:22Z</time>
      </trkpt>
      <trkpt lat="49.58059" lon="6.12665">
        <ele>296.9</ele>
        <time>2020-06-26T13:21:23Z</time>
      </trkpt>
      <trkpt lat="49.58058" lon="6.12667">
        <ele>296.9</ele>
        <time>2020-06-26T13:21:24Z</time>
      </trkpt>
      <trkpt lat="49.58057" lon="6.12669">
        <ele>296.9</ele>
        <time>2020-06-26T13:21:25Z</time>
      </trkpt>
      <trkpt lat="49.58056" lon="6.12671">
        <ele>296.9</ele>
        <time>2020-06-26T13:21:26Z</time>
      </trkpt>
      <trkpt lat="49.58054" lon="6.12674">
        <ele>296.9</ele>
        <time>2020-06-26T13:21:27Z</time>
      </trkpt>
      <trkpt lat="49.58051" lon="6.12679">
        <ele>296.9</ele>
        <time>2020-06-26T13:21:28Z</time>
      </trkpt>
      <trkpt lat="49.58048" lon="6.12685">
        <ele>296.9</ele>
        <time>2020-06-26T13:21:29Z</time>
      </trkpt>
      <trkpt lat="49.58044" lon="6.12692">
        <ele>296.8</ele>
        <time>2020-06-26T13:21:30Z</time>
      </trkpt>
      <trkpt lat="49.5804" lon="6.12697">
        <ele>296.8</ele>
        <time>2020-06-26T13:21:31Z</time>
      </trkpt>
      <trkpt lat="49.58037" lon="6.12704">
        <ele>296.8</ele>
        <time>2020-06-26T13:21:32Z</time>
      </trkpt>
      <trkpt lat="49.58033" lon="6.1271">
        <ele>296.8</ele>
        <time>2020-06-26T13:21:33Z</time>
      </trkpt>
      <trkpt lat="49.58029" lon="6.12717">
        <ele>296.8</ele>
        <time>2020-06-26T13:21:34Z</time>
      </trkpt>
      <trkpt lat="49.58025" lon="6.12723">
        <ele>296.8</ele>
        <time>2020-06-26T13:21:35Z</time>
      </trkpt>
      <trkpt lat="49.58021" lon="6.12727">
        <ele>296.8</ele>
        <time>2020-06-26T13:21:36Z</time>
      </trkpt>
      <trkpt lat="49.58018" lon="6.12732">
        <ele>296.8</ele>
        <time>2020-06-26T13:21:37Z</time>
      </trkpt>
      <trkpt lat="49.58014" lon="6.12736">
        <ele>296.8</ele>
        <time>2020-06-26T13:21:38Z</time>
      </trkpt>
      <trkpt lat="49.58011" lon="6.12741">
        <ele>296.8</ele>
        <time>2020-06-26T13:21:39Z</time>
      </trkpt>
      <trkpt lat="49.58008" lon="6.12747">
        <ele>296.8</ele>
        <time>2020-06-26T13:21:40Z</time>
      </trkpt>
      <trkpt lat="49.58006" lon="6.12752">
        <ele>296.8</ele>
        <time>2020-06-26T13:21:41Z</time>
      </trkpt>
      <trkpt lat="49.58003" lon="6.12757">
        <ele>296.7</ele>
        <time>2020-06-26T13:21:42Z</time>
      </trkpt>
      <trkpt lat="49.57999" lon="6.12762">
        <ele>296.7</ele>
        <time>2020-06-26T13:21:43Z</time>
      </trkpt>
      <trkpt lat="49.57997" lon="6.12766">
        <ele>296.7</ele>
        <time>2020-06-26T13:21:44Z</time>
      </trkpt>
      <trkpt lat="49.57994" lon="6.12771">
        <ele>296.7</ele>
        <time>2020-06-26T13:21:45Z</time>
      </trkpt>
      <trkpt lat="49.57992" lon="6.12777">
        <ele>296.6</ele>
        <time>2020-06-26T13:21:46Z</time>
      </trkpt>
      <trkpt lat="49.57989" lon="6.12784">
        <ele>296.6</ele>
        <time>2020-06-26T13:21:47Z</time>
      </trkpt>
      <trkpt lat="49.57986" lon="6.1279">
        <ele>296.7</ele>
        <time>2020-06-26T13:21:48Z</time>
      </trkpt>
      <trkpt lat="49.57983" lon="6.12796">
        <ele>296.7</ele>
        <time>2020-06-26T13:21:49Z</time>
      </trkpt>
      <trkpt lat="49.57981" lon="6.12802">
        <ele>296.7</ele>
        <time>2020-06-26T13:21:50Z</time>
      </trkpt>
      <trkpt lat="49.57978" lon="6.12808">
        <ele>296.7</ele>
        <time>2020-06-26T13:21:51Z</time>
      </trkpt>
      <trkpt lat="49.57974" lon="6.12814">
        <ele>296.7</ele>
        <time>2020-06-26T13:21:52Z</time>
      </trkpt>
      <trkpt lat="49.57972" lon="6.12821">
        <ele>296.7</ele>
        <time>2020-06-26T13:21:53Z</time>
      </trkpt>
      <trkpt lat="49.57969" lon="6.12827">
        <ele>296.7</ele>
        <time>2020-06-26T13:21:54Z</time>
      </trkpt>
      <trkpt lat="49.57965" lon="6.12833">
        <ele>296.8</ele>
        <time>2020-06-26T13:21:55Z</time>
      </trkpt>
      <trkpt lat="49.57963" lon="6.12839">
        <ele>296.8</ele>
        <time>2020-06-26T13:21:56Z</time>
      </trkpt>
      <trkpt lat="49.5796" lon="6.12845">
        <ele>296.8</ele>
        <time>2020-06-26T13:21:57Z</time>
      </trkpt>
      <trkpt lat="49.57957" lon="6.12851">
        <ele>296.8</ele>
        <time>2020-06-26T13:21:58Z</time>
      </trkpt>
      <trkpt lat="49.57954" lon="6.12858">
        <ele>296.9</ele>
        <time>2020-06-26T13:21:59Z</time>
      </trkpt>
      <trkpt lat="49.57951" lon="6.12865">
        <ele>296.9</ele>
        <time>2020-06-26T13:22:00Z</time>
      </trkpt>
      <trkpt lat="49.57947" lon="6.12871">
        <ele>296.9</ele>
        <time>2020-06-26T13:22:01Z</time>
      </trkpt>
      <trkpt lat="49.57944" lon="6.12877">
        <ele>296.9</ele>
        <time>2020-06-26T13:22:02Z</time>
      </trkpt>
      <trkpt lat="49.57942" lon="6.12884">
        <ele>297</ele>
        <time>2020-06-26T13:22:03Z</time>
      </trkpt>
      <trkpt lat="49.5794" lon="6.12891">
        <ele>297.1</ele>
        <time>2020-06-26T13:22:04Z</time>
      </trkpt>
      <trkpt lat="49.57937" lon="6.12897">
        <ele>297.2</ele>
        <time>2020-06-26T13:22:05Z</time>
      </trkpt>
      <trkpt lat="49.57935" lon="6.12902">
        <ele>297.3</ele>
        <time>2020-06-26T13:22:06Z</time>
      </trkpt>
      <trkpt lat="49.57932" lon="6.12909">
        <ele>297.4</ele>
        <time>2020-06-26T13:22:07Z</time>
      </trkpt>
      <trkpt lat="49.5793" lon="6.12916">
        <ele>298</ele>
        <time>2020-06-26T13:22:08Z</time>
      </trkpt>
      <trkpt lat="49.57927" lon="6.12921">
        <ele>297.9</ele>
        <time>2020-06-26T13:22:09Z</time>
      </trkpt>
      <trkpt lat="49.57924" lon="6.12927">
        <ele>297.8</ele>
        <time>2020-06-26T13:22:10Z</time>
      </trkpt>
      <trkpt lat="49.5792" lon="6.12933">
        <ele>297.7</ele>
        <time>2020-06-26T13:22:11Z</time>
      </trkpt>
      <trkpt lat="49.57917" lon="6.12938">
        <ele>297.6</ele>
        <time>2020-06-26T13:22:12Z</time>
      </trkpt>
      <trkpt lat="49.57914" lon="6.12942">
        <ele>297.5</ele>
        <time>2020-06-26T13:22:13Z</time>
      </trkpt>
      <trkpt lat="49.57912" lon="6.12948">
        <ele>297.4</ele>
        <time>2020-06-26T13:22:14Z</time>
      </trkpt>
      <trkpt lat="49.5791" lon="6.12952">
        <ele>297.3</ele>
        <time>2020-06-26T13:22:15Z</time>
      </trkpt>
      <trkpt lat="49.57909" lon="6.12957">
        <ele>297.2</ele>
        <time>2020-06-26T13:22:16Z</time>
      </trkpt>
      <trkpt lat="49.57908" lon="6.12962">
        <ele>297.1</ele>
        <time>2020-06-26T13:22:17Z</time>
      </trkpt>
      <trkpt lat="49.57907" lon="6.12964">
        <ele>297.1</ele>
        <time>2020-06-26T13:22:18Z</time>
      </trkpt>
      <trkpt lat="49.57906" lon="6.12965">
        <ele>297.1</ele>
        <time>2020-06-26T13:22:19Z</time>
      </trkpt>
      <trkpt lat="49.57906" lon="6.12966">
        <ele>297.1</ele>
        <time>2020-06-26T13:22:20Z</time>
      </trkpt>
      <trkpt lat="49.57906" lon="6.12966">
        <ele>297.1</ele>
        <time>2020-06-26T13:22:21Z</time>
      </trkpt>
      <trkpt lat="49.57906" lon="6.12966">
        <ele>297.1</ele>
        <time>2020-06-26T13:22:22Z</time>
      </trkpt>
      <trkpt lat="49.57906" lon="6.12967">
        <ele>297</ele>
        <time>2020-06-26T13:22:23Z</time>
      </trkpt>
      <trkpt lat="49.57905" lon="6.12968">
        <ele>297</ele>
        <time>2020-06-26T13:22:24Z</time>
      </trkpt>
      <trkpt lat="49.57905" lon="6.12968">
        <ele>297</ele>
        <time>2020-06-26T13:22:25Z</time>
      </trkpt>
      <trkpt lat="49.57905" lon="6.12969">
        <ele>297</ele>
        <time>2020-06-26T13:22:26Z</time>
      </trkpt>
      <trkpt lat="49.57905" lon="6.1297">
        <ele>297</ele>
        <time>2020-06-26T13:22:27Z</time>
      </trkpt>
      <trkpt lat="49.57905" lon="6.12971">
        <ele>297</ele>
        <time>2020-06-26T13:22:28Z</time>
      </trkpt>
      <trkpt lat="49.57904" lon="6.12971">
        <ele>297</ele>
        <time>2020-06-26T13:22:29Z</time>
      </trkpt>
      <trkpt lat="49.57904" lon="6.12976">
        <ele>296.9</ele>
        <time>2020-06-26T13:22:30Z</time>
      </trkpt>
      <trkpt lat="49.57904" lon="6.12982">
        <ele>296.9</ele>
        <time>2020-06-26T13:22:31Z</time>
      </trkpt>
      <trkpt lat="49.57904" lon="6.12985">
        <ele>296.8</ele>
        <time>2020-06-26T13:22:32Z</time>
      </trkpt>
      <trkpt lat="49.57904" lon="6.1299">
        <ele>296.8</ele>
        <time>2020-06-26T13:22:33Z</time>
      </trkpt>
      <trkpt lat="49.57902" lon="6.12996">
        <ele>296.7</ele>
        <time>2020-06-26T13:22:34Z</time>
      </trkpt>
      <trkpt lat="49.57901" lon="6.13001">
        <ele>296.7</ele>
        <time>2020-06-26T13:22:35Z</time>
      </trkpt>
      <trkpt lat="49.579" lon="6.13006">
        <ele>296.6</ele>
        <time>2020-06-26T13:22:36Z</time>
      </trkpt>
      <trkpt lat="49.57898" lon="6.13011">
        <ele>296.5</ele>
        <time>2020-06-26T13:22:37Z</time>
      </trkpt>
      <trkpt lat="49.57896" lon="6.13018">
        <ele>296.5</ele>
        <time>2020-06-26T13:22:38Z</time>
      </trkpt>
      <trkpt lat="49.57895" lon="6.13022">
        <ele>296.4</ele>
        <time>2020-06-26T13:22:39Z</time>
      </trkpt>
      <trkpt lat="49.57893" lon="6.13028">
        <ele>296.4</ele>
        <time>2020-06-26T13:22:40Z</time>
      </trkpt>
      <trkpt lat="49.57891" lon="6.13033">
        <ele>296.4</ele>
        <time>2020-06-26T13:22:41Z</time>
      </trkpt>
      <trkpt lat="49.5789" lon="6.13038">
        <ele>296.3</ele>
        <time>2020-06-26T13:22:42Z</time>
      </trkpt>
      <trkpt lat="49.57888" lon="6.13043">
        <ele>296.3</ele>
        <time>2020-06-26T13:22:43Z</time>
      </trkpt>
      <trkpt lat="49.57886" lon="6.13048">
        <ele>296.3</ele>
        <time>2020-06-26T13:22:44Z</time>
      </trkpt>
      <trkpt lat="49.57885" lon="6.13052">
        <ele>296.3</ele>
        <time>2020-06-26T13:22:45Z</time>
      </trkpt>
      <trkpt lat="49.57884" lon="6.13053">
        <ele>296.3</ele>
        <time>2020-06-26T13:22:46Z</time>
      </trkpt>
      <trkpt lat="49.57883" lon="6.13055">
        <ele>296.3</ele>
        <time>2020-06-26T13:22:47Z</time>
      </trkpt>
      <trkpt lat="49.57883" lon="6.13056">
        <ele>296.3</ele>
        <time>2020-06-26T13:22:48Z</time>
      </trkpt>
      <trkpt lat="49.57883" lon="6.13056">
        <ele>296.3</ele>
        <time>2020-06-26T13:22:49Z</time>
      </trkpt>
      <trkpt lat="49.57883" lon="6.13056">
        <ele>296.3</ele>
        <time>2020-06-26T13:22:50Z</time>
      </trkpt>
      <trkpt lat="49.57883" lon="6.13057">
        <ele>296.3</ele>
        <time>2020-06-26T13:22:51Z</time>
      </trkpt>
      <trkpt lat="49.57882" lon="6.13057">
        <ele>296.3</ele>
        <time>2020-06-26T13:22:52Z</time>
      </trkpt>
      <trkpt lat="49.57882" lon="6.13057">
        <ele>296.3</ele>
        <time>2020-06-26T13:22:53Z</time>
      </trkpt>
      <trkpt lat="49.57882" lon="6.13058">
        <ele>296.3</ele>
        <time>2020-06-26T13:22:54Z</time>
      </trkpt>
      <trkpt lat="49.57882" lon="6.13058">
        <ele>296.3</ele>
        <time>2020-06-26T13:22:55Z</time>
      </trkpt>
      <trkpt lat="49.5788" lon="6.13061">
        <ele>296.2</ele>
        <time>2020-06-26T13:22:56Z</time>
      </trkpt>
      <trkpt lat="49.5788" lon="6.13063">
        <ele>296.2</ele>
        <time>2020-06-26T13:22:57Z</time>
      </trkpt>
      <trkpt lat="49.57878" lon="6.13067">
        <ele>296.2</ele>
        <time>2020-06-26T13:22:58Z</time>
      </trkpt>
      <trkpt lat="49.57877" lon="6.13071">
        <ele>296.2</ele>
        <time>2020-06-26T13:22:59Z</time>
      </trkpt>
      <trkpt lat="49.57875" lon="6.13076">
        <ele>296.2</ele>
        <time>2020-06-26T13:23:00Z</time>
      </trkpt>
      <trkpt lat="49.57873" lon="6.13082">
        <ele>296.2</ele>
        <time>2020-06-26T13:23:01Z</time>
      </trkpt>
      <trkpt lat="49.57872" lon="6.13087">
        <ele>296.1</ele>
        <time>2020-06-26T13:23:02Z</time>
      </trkpt>
      <trkpt lat="49.57869" lon="6.13092">
        <ele>296.1</ele>
        <time>2020-06-26T13:23:03Z</time>
      </trkpt>
      <trkpt lat="49.57867" lon="6.13097">
        <ele>296.1</ele>
        <time>2020-06-26T13:23:04Z</time>
      </trkpt>
      <trkpt lat="49.57865" lon="6.13102">
        <ele>296.1</ele>
        <time>2020-06-26T13:23:05Z</time>
      </trkpt>
      <trkpt lat="49.57863" lon="6.13108">
        <ele>296.1</ele>
        <time>2020-06-26T13:23:06Z</time>
      </trkpt>
      <trkpt lat="49.57861" lon="6.13113">
        <ele>296.1</ele>
        <time>2020-06-26T13:23:07Z</time>
      </trkpt>
      <trkpt lat="49.5786" lon="6.13119">
        <ele>296.1</ele>
        <time>2020-06-26T13:23:08Z</time>
      </trkpt>
      <trkpt lat="49.57857" lon="6.13124">
        <ele>296.1</ele>
        <time>2020-06-26T13:23:09Z</time>
      </trkpt>
      <trkpt lat="49.57857" lon="6.13129">
        <ele>296.2</ele>
        <time>2020-06-26T13:23:10Z</time>
      </trkpt>
      <trkpt lat="49.57855" lon="6.13134">
        <ele>296.2</ele>
        <time>2020-06-26T13:23:11Z</time>
      </trkpt>
      <trkpt lat="49.57853" lon="6.1314">
        <ele>296.2</ele>
        <time>2020-06-26T13:23:12Z</time>
      </trkpt>
      <trkpt lat="49.57851" lon="6.13146">
        <ele>296.1</ele>
        <time>2020-06-26T13:23:13Z</time>
      </trkpt>
      <trkpt lat="49.5785" lon="6.13152">
        <ele>296</ele>
        <time>2020-06-26T13:23:14Z</time>
      </trkpt>
      <trkpt lat="49.57848" lon="6.13158">
        <ele>295.9</ele>
        <time>2020-06-26T13:23:15Z</time>
      </trkpt>
      <trkpt lat="49.57847" lon="6.13164">
        <ele>295.8</ele>
        <time>2020-06-26T13:23:16Z</time>
      </trkpt>
      <trkpt lat="49.57845" lon="6.1317">
        <ele>295.8</ele>
        <time>2020-06-26T13:23:17Z</time>
      </trkpt>
      <trkpt lat="49.57843" lon="6.13176">
        <ele>295.7</ele>
        <time>2020-06-26T13:23:18Z</time>
      </trkpt>
      <trkpt lat="49.57841" lon="6.13181">
        <ele>295.7</ele>
        <time>2020-06-26T13:23:19Z</time>
      </trkpt>
      <trkpt lat="49.5784" lon="6.13186">
        <ele>295.7</ele>
        <time>2020-06-26T13:23:20Z</time>
      </trkpt>
      <trkpt lat="49.57839" lon="6.1319">
        <ele>295.7</ele>
        <time>2020-06-26T13:23:21Z</time>
      </trkpt>
      <trkpt lat="49.57839" lon="6.13192">
        <ele>295.7</ele>
        <time>2020-06-26T13:23:22Z</time>
      </trkpt>
      <trkpt lat="49.57839" lon="6.13192">
        <ele>295.7</ele>
        <time>2020-06-26T13:23:23Z</time>
      </trkpt>
      <trkpt lat="49.5784" lon="6.13193">
        <ele>295.7</ele>
        <time>2020-06-26T13:23:24Z</time>
      </trkpt>
      <trkpt lat="49.57839" lon="6.13191">
        <ele>295.7</ele>
        <time>2020-06-26T13:23:25Z</time>
      </trkpt>
      <trkpt lat="49.57839" lon="6.13193">
        <ele>295.7</ele>
        <time>2020-06-26T13:23:26Z</time>
      </trkpt>
      <trkpt lat="49.57838" lon="6.13196">
        <ele>295.7</ele>
        <time>2020-06-26T13:23:27Z</time>
      </trkpt>
      <trkpt lat="49.57836" lon="6.13201">
        <ele>295.7</ele>
        <time>2020-06-26T13:23:28Z</time>
      </trkpt>
      <trkpt lat="49.57834" lon="6.13206">
        <ele>295.7</ele>
        <time>2020-06-26T13:23:29Z</time>
      </trkpt>
      <trkpt lat="49.57833" lon="6.13211">
        <ele>295.7</ele>
        <time>2020-06-26T13:23:30Z</time>
      </trkpt>
      <trkpt lat="49.5783" lon="6.13216">
        <ele>295.7</ele>
        <time>2020-06-26T13:23:31Z</time>
      </trkpt>
      <trkpt lat="49.57828" lon="6.13221">
        <ele>295.8</ele>
        <time>2020-06-26T13:23:32Z</time>
      </trkpt>
      <trkpt lat="49.57826" lon="6.13226">
        <ele>295.8</ele>
        <time>2020-06-26T13:23:33Z</time>
      </trkpt>
      <trkpt lat="49.57824" lon="6.13233">
        <ele>295.9</ele>
        <time>2020-06-26T13:23:34Z</time>
      </trkpt>
      <trkpt lat="49.57822" lon="6.13239">
        <ele>296</ele>
        <time>2020-06-26T13:23:35Z</time>
      </trkpt>
      <trkpt lat="49.5782" lon="6.13243">
        <ele>296</ele>
        <time>2020-06-26T13:23:36Z</time>
      </trkpt>
      <trkpt lat="49.57819" lon="6.13249">
        <ele>296.1</ele>
        <time>2020-06-26T13:23:37Z</time>
      </trkpt>
      <trkpt lat="49.57818" lon="6.13254">
        <ele>296.2</ele>
        <time>2020-06-26T13:23:38Z</time>
      </trkpt>
      <trkpt lat="49.57816" lon="6.1326">
        <ele>296.3</ele>
        <time>2020-06-26T13:23:39Z</time>
      </trkpt>
      <trkpt lat="49.57815" lon="6.13266">
        <ele>296.4</ele>
        <time>2020-06-26T13:23:40Z</time>
      </trkpt>
      <trkpt lat="49.57814" lon="6.13272">
        <ele>296.5</ele>
        <time>2020-06-26T13:23:41Z</time>
      </trkpt>
      <trkpt lat="49.57812" lon="6.13278">
        <ele>296.6</ele>
        <time>2020-06-26T13:23:42Z</time>
      </trkpt>
      <trkpt lat="49.57811" lon="6.13284">
        <ele>296.7</ele>
        <time>2020-06-26T13:23:43Z</time>
      </trkpt>
      <trkpt lat="49.57809" lon="6.1329">
        <ele>296.7</ele>
        <time>2020-06-26T13:23:44Z</time>
      </trkpt>
      <trkpt lat="49.57807" lon="6.13296">
        <ele>296.7</ele>
        <time>2020-06-26T13:23:45Z</time>
      </trkpt>
      <trkpt lat="49.57805" lon="6.13301">
        <ele>296.7</ele>
        <time>2020-06-26T13:23:46Z</time>
      </trkpt>
      <trkpt lat="49.57802" lon="6.13305">
        <ele>296.6</ele>
        <time>2020-06-26T13:23:47Z</time>
      </trkpt>
      <trkpt lat="49.57799" lon="6.1331">
        <ele>296.5</ele>
        <time>2020-06-26T13:23:48Z</time>
      </trkpt>
      <trkpt lat="49.57797" lon="6.13315">
        <ele>296.4</ele>
        <time>2020-06-26T13:23:49Z</time>
      </trkpt>
      <trkpt lat="49.57794" lon="6.13321">
        <ele>296.4</ele>
        <time>2020-06-26T13:23:50Z</time>
      </trkpt>
      <trkpt lat="49.57792" lon="6.13326">
        <ele>296.3</ele>
        <time>2020-06-26T13:23:51Z</time>
      </trkpt>
      <trkpt lat="49.5779" lon="6.13332">
        <ele>296.3</ele>
        <time>2020-06-26T13:23:52Z</time>
      </trkpt>
      <trkpt lat="49.57789" lon="6.13338">
        <ele>296.3</ele>
        <time>2020-06-26T13:23:53Z</time>
      </trkpt>
      <trkpt lat="49.57788" lon="6.13343">
        <ele>296.3</ele>
        <time>2020-06-26T13:23:54Z</time>
      </trkpt>
      <trkpt lat="49.57787" lon="6.13349">
        <ele>296.5</ele>
        <time>2020-06-26T13:23:55Z</time>
      </trkpt>
      <trkpt lat="49.57786" lon="6.13357">
        <ele>296.6</ele>
        <time>2020-06-26T13:23:56Z</time>
      </trkpt>
      <trkpt lat="49.57785" lon="6.13363">
        <ele>296.6</ele>
        <time>2020-06-26T13:23:57Z</time>
      </trkpt>
      <trkpt lat="49.57783" lon="6.13368">
        <ele>296.7</ele>
        <time>2020-06-26T13:23:58Z</time>
      </trkpt>
      <trkpt lat="49.57781" lon="6.13372">
        <ele>296.7</ele>
        <time>2020-06-26T13:23:59Z</time>
      </trkpt>
      <trkpt lat="49.57778" lon="6.13375">
        <ele>296.7</ele>
        <time>2020-06-26T13:24:00Z</time>
      </trkpt>
      <trkpt lat="49.57774" lon="6.13378">
        <ele>296.7</ele>
        <time>2020-06-26T13:24:01Z</time>
      </trkpt>
      <trkpt lat="49.57771" lon="6.13383">
        <ele>296.7</ele>
        <time>2020-06-26T13:24:02Z</time>
      </trkpt>
      <trkpt lat="49.57767" lon="6.13388">
        <ele>296.7</ele>
        <time>2020-06-26T13:24:03Z</time>
      </trkpt>
      <trkpt lat="49.57764" lon="6.13394">
        <ele>296.7</ele>
        <time>2020-06-26T13:24:04Z</time>
      </trkpt>
      <trkpt lat="49.57761" lon="6.13398">
        <ele>296.7</ele>
        <time>2020-06-26T13:24:05Z</time>
      </trkpt>
      <trkpt lat="49.57757" lon="6.13404">
        <ele>296.9</ele>
        <time>2020-06-26T13:24:06Z</time>
      </trkpt>
      <trkpt lat="49.57752" lon="6.13409">
        <ele>297</ele>
        <time>2020-06-26T13:24:07Z</time>
      </trkpt>
      <trkpt lat="49.57749" lon="6.13414">
        <ele>297.1</ele>
        <time>2020-06-26T13:24:08Z</time>
      </trkpt>
      <trkpt lat="49.57746" lon="6.13418">
        <ele>297.2</ele>
        <time>2020-06-26T13:24:09Z</time>
      </trkpt>
      <trkpt lat="49.57742" lon="6.13422">
        <ele>297.3</ele>
        <time>2020-06-26T13:24:10Z</time>
      </trkpt>
      <trkpt lat="49.57739" lon="6.13426">
        <ele>297.3</ele>
        <time>2020-06-26T13:24:11Z</time>
      </trkpt>
      <trkpt lat="49.57735" lon="6.13431">
        <ele>297.4</ele>
        <time>2020-06-26T13:24:12Z</time>
      </trkpt>
      <trkpt lat="49.57732" lon="6.13436">
        <ele>297.3</ele>
        <time>2020-06-26T13:24:13Z</time>
      </trkpt>
      <trkpt lat="49.57728" lon="6.13442">
        <ele>297.3</ele>
        <time>2020-06-26T13:24:14Z</time>
      </trkpt>
      <trkpt lat="49.57724" lon="6.1345">
        <ele>297.3</ele>
        <time>2020-06-26T13:24:15Z</time>
      </trkpt>
      <trkpt lat="49.5772" lon="6.13458">
        <ele>297.3</ele>
        <time>2020-06-26T13:24:16Z</time>
      </trkpt>
      <trkpt lat="49.57717" lon="6.13464">
        <ele>297.3</ele>
        <time>2020-06-26T13:24:17Z</time>
      </trkpt>
      <trkpt lat="49.57714" lon="6.13469">
        <ele>297.4</ele>
        <time>2020-06-26T13:24:18Z</time>
      </trkpt>
      <trkpt lat="49.57712" lon="6.13474">
        <ele>297.4</ele>
        <time>2020-06-26T13:24:19Z</time>
      </trkpt>
      <trkpt lat="49.57708" lon="6.1348">
        <ele>297.4</ele>
        <time>2020-06-26T13:24:20Z</time>
      </trkpt>
      <trkpt lat="49.57703" lon="6.13485">
        <ele>297.4</ele>
        <time>2020-06-26T13:24:21Z</time>
      </trkpt>
      <trkpt lat="49.57699" lon="6.1349">
        <ele>297.5</ele>
        <time>2020-06-26T13:24:22Z</time>
      </trkpt>
      <trkpt lat="49.57695" lon="6.13495">
        <ele>297.6</ele>
        <time>2020-06-26T13:24:23Z</time>
      </trkpt>
      <trkpt lat="49.57692" lon="6.13499">
        <ele>297.6</ele>
        <time>2020-06-26T13:24:24Z</time>
      </trkpt>
      <trkpt lat="49.57688" lon="6.13505">
        <ele>297.7</ele>
        <time>2020-06-26T13:24:25Z</time>
      </trkpt>
      <trkpt lat="49.57685" lon="6.13512">
        <ele>297.8</ele>
        <time>2020-06-26T13:24:26Z</time>
      </trkpt>
      <trkpt lat="49.57683" lon="6.13518">
        <ele>297.8</ele>
        <time>2020-06-26T13:24:27Z</time>
      </trkpt>
      <trkpt lat="49.57681" lon="6.13524">
        <ele>297.8</ele>
        <time>2020-06-26T13:24:28Z</time>
      </trkpt>
      <trkpt lat="49.57679" lon="6.1353">
        <ele>297.8</ele>
        <time>2020-06-26T13:24:29Z</time>
      </trkpt>
      <trkpt lat="49.57677" lon="6.13535">
        <ele>297.8</ele>
        <time>2020-06-26T13:24:30Z</time>
      </trkpt>
      <trkpt lat="49.57674" lon="6.13541">
        <ele>297.8</ele>
        <time>2020-06-26T13:24:31Z</time>
      </trkpt>
      <trkpt lat="49.57671" lon="6.13547">
        <ele>297.9</ele>
        <time>2020-06-26T13:24:32Z</time>
      </trkpt>
      <trkpt lat="49.57669" lon="6.13554">
        <ele>297.9</ele>
        <time>2020-06-26T13:24:33Z</time>
      </trkpt>
      <trkpt lat="49.57665" lon="6.1356">
        <ele>298</ele>
        <time>2020-06-26T13:24:34Z</time>
      </trkpt>
      <trkpt lat="49.57663" lon="6.13565">
        <ele>298.1</ele>
        <time>2020-06-26T13:24:35Z</time>
      </trkpt>
      <trkpt lat="49.57661" lon="6.1357">
        <ele>298.2</ele>
        <time>2020-06-26T13:24:36Z</time>
      </trkpt>
      <trkpt lat="49.57659" lon="6.13576">
        <ele>298.3</ele>
        <time>2020-06-26T13:24:37Z</time>
      </trkpt>
      <trkpt lat="49.57657" lon="6.13581">
        <ele>298.3</ele>
        <time>2020-06-26T13:24:38Z</time>
      </trkpt>
      <trkpt lat="49.57655" lon="6.13585">
        <ele>298.4</ele>
        <time>2020-06-26T13:24:39Z</time>
      </trkpt>
      <trkpt lat="49.57653" lon="6.13589">
        <ele>298.4</ele>
        <time>2020-06-26T13:24:40Z</time>
      </trkpt>
      <trkpt lat="49.5765" lon="6.13594">
        <ele>298.5</ele>
        <time>2020-06-26T13:24:41Z</time>
      </trkpt>
      <trkpt lat="49.57647" lon="6.13597">
        <ele>298.7</ele>
        <time>2020-06-26T13:24:42Z</time>
      </trkpt>
      <trkpt lat="49.57644" lon="6.13599">
        <ele>298.9</ele>
        <time>2020-06-26T13:24:43Z</time>
      </trkpt>
      <trkpt lat="49.57639" lon="6.136">
        <ele>299</ele>
        <time>2020-06-26T13:24:44Z</time>
      </trkpt>
      <trkpt lat="49.57634" lon="6.13603">
        <ele>299.7</ele>
        <time>2020-06-26T13:24:45Z</time>
      </trkpt>
      <trkpt lat="49.57631" lon="6.13608">
        <ele>299.7</ele>
        <time>2020-06-26T13:24:46Z</time>
      </trkpt>
      <trkpt lat="49.57628" lon="6.13614">
        <ele>299.6</ele>
        <time>2020-06-26T13:24:47Z</time>
      </trkpt>
      <trkpt lat="49.57627" lon="6.1362">
        <ele>299.6</ele>
        <time>2020-06-26T13:24:48Z</time>
      </trkpt>
      <trkpt lat="49.57626" lon="6.13627">
        <ele>299.7</ele>
        <time>2020-06-26T13:24:49Z</time>
      </trkpt>
      <trkpt lat="49.57625" lon="6.13634">
        <ele>299.7</ele>
        <time>2020-06-26T13:24:50Z</time>
      </trkpt>
      <trkpt lat="49.57625" lon="6.13641">
        <ele>299.8</ele>
        <time>2020-06-26T13:24:51Z</time>
      </trkpt>
      <trkpt lat="49.57626" lon="6.13648">
        <ele>299.8</ele>
        <time>2020-06-26T13:24:52Z</time>
      </trkpt>
      <trkpt lat="49.57626" lon="6.13654">
        <ele>299.9</ele>
        <time>2020-06-26T13:24:53Z</time>
      </trkpt>
      <trkpt lat="49.57625" lon="6.1366">
        <ele>299.9</ele>
        <time>2020-06-26T13:24:54Z</time>
      </trkpt>
      <trkpt lat="49.57624" lon="6.13667">
        <ele>300</ele>
        <time>2020-06-26T13:24:55Z</time>
      </trkpt>
      <trkpt lat="49.5762" lon="6.13672">
        <ele>300</ele>
        <time>2020-06-26T13:24:56Z</time>
      </trkpt>
      <trkpt lat="49.57618" lon="6.13679">
        <ele>300.1</ele>
        <time>2020-06-26T13:24:57Z</time>
      </trkpt>
      <trkpt lat="49.57616" lon="6.13685">
        <ele>300.2</ele>
        <time>2020-06-26T13:24:58Z</time>
      </trkpt>
      <trkpt lat="49.57614" lon="6.1369">
        <ele>300.3</ele>
        <time>2020-06-26T13:24:59Z</time>
      </trkpt>
      <trkpt lat="49.57612" lon="6.13695">
        <ele>300.3</ele>
        <time>2020-06-26T13:25:00Z</time>
      </trkpt>
      <trkpt lat="49.57611" lon="6.137">
        <ele>300.4</ele>
        <time>2020-06-26T13:25:01Z</time>
      </trkpt>
      <trkpt lat="49.57609" lon="6.13706">
        <ele>300.5</ele>
        <time>2020-06-26T13:25:02Z</time>
      </trkpt>
      <trkpt lat="49.57606" lon="6.13711">
        <ele>300.6</ele>
        <time>2020-06-26T13:25:03Z</time>
      </trkpt>
      <trkpt lat="49.57602" lon="6.13717">
        <ele>300.6</ele>
        <time>2020-06-26T13:25:04Z</time>
      </trkpt>
      <trkpt lat="49.57599" lon="6.13722">
        <ele>300.8</ele>
        <time>2020-06-26T13:25:05Z</time>
      </trkpt>
      <trkpt lat="49.57596" lon="6.13727">
        <ele>300.9</ele>
        <time>2020-06-26T13:25:06Z</time>
      </trkpt>
      <trkpt lat="49.57593" lon="6.13731">
        <ele>301.1</ele>
        <time>2020-06-26T13:25:07Z</time>
      </trkpt>
      <trkpt lat="49.5759" lon="6.13737">
        <ele>301.2</ele>
        <time>2020-06-26T13:25:08Z</time>
      </trkpt>
      <trkpt lat="49.57588" lon="6.13743">
        <ele>301.3</ele>
        <time>2020-06-26T13:25:09Z</time>
      </trkpt>
      <trkpt lat="49.57586" lon="6.13748">
        <ele>301.5</ele>
        <time>2020-06-26T13:25:10Z</time>
      </trkpt>
      <trkpt lat="49.57584" lon="6.13753">
        <ele>301.6</ele>
        <time>2020-06-26T13:25:11Z</time>
      </trkpt>
      <trkpt lat="49.57581" lon="6.1376">
        <ele>301.7</ele>
        <time>2020-06-26T13:25:12Z</time>
      </trkpt>
      <trkpt lat="49.57578" lon="6.13766">
        <ele>301.9</ele>
        <time>2020-06-26T13:25:13Z</time>
      </trkpt>
      <trkpt lat="49.57575" lon="6.13774">
        <ele>302</ele>
        <time>2020-06-26T13:25:14Z</time>
      </trkpt>
      <trkpt lat="49.57571" lon="6.1378">
        <ele>302.1</ele>
        <time>2020-06-26T13:25:15Z</time>
      </trkpt>
      <trkpt lat="49.57568" lon="6.13786">
        <ele>302.2</ele>
        <time>2020-06-26T13:25:16Z</time>
      </trkpt>
      <trkpt lat="49.57563" lon="6.13791">
        <ele>302.4</ele>
        <time>2020-06-26T13:25:17Z</time>
      </trkpt>
      <trkpt lat="49.5756" lon="6.13797">
        <ele>302.5</ele>
        <time>2020-06-26T13:25:18Z</time>
      </trkpt>
      <trkpt lat="49.57556" lon="6.13803">
        <ele>302.6</ele>
        <time>2020-06-26T13:25:19Z</time>
      </trkpt>
      <trkpt lat="49.57553" lon="6.1381">
        <ele>302.7</ele>
        <time>2020-06-26T13:25:20Z</time>
      </trkpt>
      <trkpt lat="49.5755" lon="6.13818">
        <ele>302.8</ele>
        <time>2020-06-26T13:25:21Z</time>
      </trkpt>
      <trkpt lat="49.57547" lon="6.13824">
        <ele>303</ele>
        <time>2020-06-26T13:25:22Z</time>
      </trkpt>
      <trkpt lat="49.57544" lon="6.1383">
        <ele>303.1</ele>
        <time>2020-06-26T13:25:23Z</time>
      </trkpt>
      <trkpt lat="49.5754" lon="6.13835">
        <ele>303.3</ele>
        <time>2020-06-26T13:25:24Z</time>
      </trkpt>
      <trkpt lat="49.57537" lon="6.1384">
        <ele>303.4</ele>
        <time>2020-06-26T13:25:25Z</time>
      </trkpt>
      <trkpt lat="49.57534" lon="6.13845">
        <ele>303.5</ele>
        <time>2020-06-26T13:25:26Z</time>
      </trkpt>
      <trkpt lat="49.57531" lon="6.1385">
        <ele>303.7</ele>
        <time>2020-06-26T13:25:27Z</time>
      </trkpt>
      <trkpt lat="49.57528" lon="6.13855">
        <ele>303.8</ele>
        <time>2020-06-26T13:25:28Z</time>
      </trkpt>
      <trkpt lat="49.57524" lon="6.1386">
        <ele>303.9</ele>
        <time>2020-06-26T13:25:29Z</time>
      </trkpt>
      <trkpt lat="49.57521" lon="6.13865">
        <ele>304.1</ele>
        <time>2020-06-26T13:25:30Z</time>
      </trkpt>
      <trkpt lat="49.57518" lon="6.1387">
        <ele>304.2</ele>
        <time>2020-06-26T13:25:31Z</time>
      </trkpt>
      <trkpt lat="49.57515" lon="6.13874">
        <ele>304.4</ele>
        <time>2020-06-26T13:25:32Z</time>
      </trkpt>
      <trkpt lat="49.57511" lon="6.13878">
        <ele>304.5</ele>
        <time>2020-06-26T13:25:33Z</time>
      </trkpt>
      <trkpt lat="49.57509" lon="6.13883">
        <ele>304.7</ele>
        <time>2020-06-26T13:25:34Z</time>
      </trkpt>
      <trkpt lat="49.57504" lon="6.13888">
        <ele>304.9</ele>
        <time>2020-06-26T13:25:35Z</time>
      </trkpt>
      <trkpt lat="49.57502" lon="6.13892">
        <ele>305</ele>
        <time>2020-06-26T13:25:36Z</time>
      </trkpt>
      <trkpt lat="49.57498" lon="6.13895">
        <ele>305.1</ele>
        <time>2020-06-26T13:25:37Z</time>
      </trkpt>
      <trkpt lat="49.57495" lon="6.139">
        <ele>305.2</ele>
        <time>2020-06-26T13:25:38Z</time>
      </trkpt>
      <trkpt lat="49.57491" lon="6.13904">
        <ele>305.4</ele>
        <time>2020-06-26T13:25:39Z</time>
      </trkpt>
      <trkpt lat="49.57487" lon="6.13909">
        <ele>305.5</ele>
        <time>2020-06-26T13:25:40Z</time>
      </trkpt>
      <trkpt lat="49.57483" lon="6.13914">
        <ele>305.7</ele>
        <time>2020-06-26T13:25:41Z</time>
      </trkpt>
      <trkpt lat="49.5748" lon="6.13918">
        <ele>305.8</ele>
        <time>2020-06-26T13:25:42Z</time>
      </trkpt>
      <trkpt lat="49.57477" lon="6.13922">
        <ele>305.9</ele>
        <time>2020-06-26T13:25:43Z</time>
      </trkpt>
      <trkpt lat="49.57473" lon="6.13926">
        <ele>306.1</ele>
        <time>2020-06-26T13:25:44Z</time>
      </trkpt>
      <trkpt lat="49.5747" lon="6.13931">
        <ele>306.2</ele>
        <time>2020-06-26T13:25:45Z</time>
      </trkpt>
      <trkpt lat="49.57467" lon="6.13935">
        <ele>306.3</ele>
        <time>2020-06-26T13:25:46Z</time>
      </trkpt>
      <trkpt lat="49.57463" lon="6.13939">
        <ele>306.4</ele>
        <time>2020-06-26T13:25:47Z</time>
      </trkpt>
      <trkpt lat="49.57459" lon="6.13943">
        <ele>306.5</ele>
        <time>2020-06-26T13:25:48Z</time>
      </trkpt>
      <trkpt lat="49.57455" lon="6.13947">
        <ele>306.6</ele>
        <time>2020-06-26T13:25:49Z</time>
      </trkpt>
      <trkpt lat="49.57451" lon="6.13952">
        <ele>306.7</ele>
        <time>2020-06-26T13:25:50Z</time>
      </trkpt>
      <trkpt lat="49.57448" lon="6.13956">
        <ele>306.8</ele>
        <time>2020-06-26T13:25:51Z</time>
      </trkpt>
      <trkpt lat="49.57444" lon="6.13961">
        <ele>307</ele>
        <time>2020-06-26T13:25:52Z</time>
      </trkpt>
      <trkpt lat="49.5744" lon="6.13966">
        <ele>307.2</ele>
        <time>2020-06-26T13:25:53Z</time>
      </trkpt>
      <trkpt lat="49.57437" lon="6.1397">
        <ele>307.3</ele>
        <time>2020-06-26T13:25:54Z</time>
      </trkpt>
      <trkpt lat="49.57433" lon="6.13975">
        <ele>307.4</ele>
        <time>2020-06-26T13:25:55Z</time>
      </trkpt>
      <trkpt lat="49.5743" lon="6.1398">
        <ele>307.5</ele>
        <time>2020-06-26T13:25:56Z</time>
      </trkpt>
      <trkpt lat="49.57426" lon="6.13984">
        <ele>307.5</ele>
        <time>2020-06-26T13:25:57Z</time>
      </trkpt>
      <trkpt lat="49.57423" lon="6.13989">
        <ele>307.6</ele>
        <time>2020-06-26T13:25:58Z</time>
      </trkpt>
      <trkpt lat="49.5742" lon="6.13993">
        <ele>307.7</ele>
        <time>2020-06-26T13:25:59Z</time>
      </trkpt>
      <trkpt lat="49.57417" lon="6.13998">
        <ele>307.7</ele>
        <time>2020-06-26T13:26:00Z</time>
      </trkpt>
      <trkpt lat="49.57414" lon="6.14004">
        <ele>307.8</ele>
        <time>2020-06-26T13:26:01Z</time>
      </trkpt>
      <trkpt lat="49.57411" lon="6.14009">
        <ele>307.9</ele>
        <time>2020-06-26T13:26:02Z</time>
      </trkpt>
      <trkpt lat="49.57408" lon="6.14014">
        <ele>308</ele>
        <time>2020-06-26T13:26:03Z</time>
      </trkpt>
      <trkpt lat="49.57405" lon="6.14019">
        <ele>308</ele>
        <time>2020-06-26T13:26:04Z</time>
      </trkpt>
      <trkpt lat="49.57402" lon="6.14026">
        <ele>308.1</ele>
        <time>2020-06-26T13:26:05Z</time>
      </trkpt>
      <trkpt lat="49.57398" lon="6.14032">
        <ele>308.2</ele>
        <time>2020-06-26T13:26:06Z</time>
      </trkpt>
      <trkpt lat="49.57395" lon="6.14037">
        <ele>308.3</ele>
        <time>2020-06-26T13:26:07Z</time>
      </trkpt>
      <trkpt lat="49.57392" lon="6.14042">
        <ele>308.3</ele>
        <time>2020-06-26T13:26:08Z</time>
      </trkpt>
      <trkpt lat="49.57388" lon="6.14047">
        <ele>308.4</ele>
        <time>2020-06-26T13:26:09Z</time>
      </trkpt>
      <trkpt lat="49.57385" lon="6.14052">
        <ele>308.5</ele>
        <time>2020-06-26T13:26:10Z</time>
      </trkpt>
      <trkpt lat="49.57383" lon="6.14059">
        <ele>308.6</ele>
        <time>2020-06-26T13:26:11Z</time>
      </trkpt>
      <trkpt lat="49.5738" lon="6.14065">
        <ele>308.6</ele>
        <time>2020-06-26T13:26:12Z</time>
      </trkpt>
      <trkpt lat="49.57376" lon="6.14071">
        <ele>308.7</ele>
        <time>2020-06-26T13:26:13Z</time>
      </trkpt>
      <trkpt lat="49.57373" lon="6.14077">
        <ele>308.8</ele>
        <time>2020-06-26T13:26:14Z</time>
      </trkpt>
      <trkpt lat="49.5737" lon="6.14084">
        <ele>308.9</ele>
        <time>2020-06-26T13:26:15Z</time>
      </trkpt>
      <trkpt lat="49.57367" lon="6.14089">
        <ele>308.9</ele>
        <time>2020-06-26T13:26:16Z</time>
      </trkpt>
      <trkpt lat="49.57363" lon="6.14094">
        <ele>309</ele>
        <time>2020-06-26T13:26:17Z</time>
      </trkpt>
      <trkpt lat="49.5736" lon="6.14098">
        <ele>309.1</ele>
        <time>2020-06-26T13:26:18Z</time>
      </trkpt>
      <trkpt lat="49.57358" lon="6.14105">
        <ele>309.1</ele>
        <time>2020-06-26T13:26:19Z</time>
      </trkpt>
      <trkpt lat="49.57355" lon="6.14111">
        <ele>309.2</ele>
        <time>2020-06-26T13:26:20Z</time>
      </trkpt>
      <trkpt lat="49.57351" lon="6.14117">
        <ele>309.3</ele>
        <time>2020-06-26T13:26:21Z</time>
      </trkpt>
      <trkpt lat="49.57347" lon="6.14122">
        <ele>309.3</ele>
        <time>2020-06-26T13:26:22Z</time>
      </trkpt>
      <trkpt lat="49.57344" lon="6.14128">
        <ele>309.4</ele>
        <time>2020-06-26T13:26:23Z</time>
      </trkpt>
      <trkpt lat="49.57341" lon="6.14134">
        <ele>309.4</ele>
        <time>2020-06-26T13:26:24Z</time>
      </trkpt>
      <trkpt lat="49.5734" lon="6.14139">
        <ele>309.4</ele>
        <time>2020-06-26T13:26:25Z</time>
      </trkpt>
      <trkpt lat="49.57338" lon="6.14145">
        <ele>309.5</ele>
        <time>2020-06-26T13:26:26Z</time>
      </trkpt>
      <trkpt lat="49.57336" lon="6.14152">
        <ele>309.5</ele>
        <time>2020-06-26T13:26:27Z</time>
      </trkpt>
      <trkpt lat="49.57334" lon="6.14159">
        <ele>309.6</ele>
        <time>2020-06-26T13:26:28Z</time>
      </trkpt>
      <trkpt lat="49.57331" lon="6.14166">
        <ele>309.7</ele>
        <time>2020-06-26T13:26:29Z</time>
      </trkpt>
      <trkpt lat="49.57328" lon="6.14173">
        <ele>309.7</ele>
        <time>2020-06-26T13:26:30Z</time>
      </trkpt>
      <trkpt lat="49.57325" lon="6.14181">
        <ele>309.8</ele>
        <time>2020-06-26T13:26:31Z</time>
      </trkpt>
      <trkpt lat="49.57322" lon="6.14188">
        <ele>309.8</ele>
        <time>2020-06-26T13:26:32Z</time>
      </trkpt>
      <trkpt lat="49.57319" lon="6.14195">
        <ele>309.8</ele>
        <time>2020-06-26T13:26:33Z</time>
      </trkpt>
      <trkpt lat="49.57316" lon="6.14203">
        <ele>309.9</ele>
        <time>2020-06-26T13:26:34Z</time>
      </trkpt>
      <trkpt lat="49.57313" lon="6.14208">
        <ele>309.9</ele>
        <time>2020-06-26T13:26:35Z</time>
      </trkpt>
      <trkpt lat="49.57311" lon="6.14214">
        <ele>309.9</ele>
        <time>2020-06-26T13:26:36Z</time>
      </trkpt>
      <trkpt lat="49.57307" lon="6.1422">
        <ele>309.9</ele>
        <time>2020-06-26T13:26:37Z</time>
      </trkpt>
      <trkpt lat="49.57305" lon="6.14226">
        <ele>309.9</ele>
        <time>2020-06-26T13:26:38Z</time>
      </trkpt>
      <trkpt lat="49.57302" lon="6.14234">
        <ele>309.9</ele>
        <time>2020-06-26T13:26:39Z</time>
      </trkpt>
      <trkpt lat="49.57299" lon="6.14241">
        <ele>309.9</ele>
        <time>2020-06-26T13:26:40Z</time>
      </trkpt>
      <trkpt lat="49.57296" lon="6.14249">
        <ele>309.9</ele>
        <time>2020-06-26T13:26:41Z</time>
      </trkpt>
      <trkpt lat="49.57293" lon="6.14257">
        <ele>309.9</ele>
        <time>2020-06-26T13:26:42Z</time>
      </trkpt>
      <trkpt lat="49.57291" lon="6.14265">
        <ele>309.8</ele>
        <time>2020-06-26T13:26:43Z</time>
      </trkpt>
      <trkpt lat="49.57288" lon="6.14273">
        <ele>309.8</ele>
        <time>2020-06-26T13:26:44Z</time>
      </trkpt>
      <trkpt lat="49.57285" lon="6.1428">
        <ele>309.8</ele>
        <time>2020-06-26T13:26:45Z</time>
      </trkpt>
      <trkpt lat="49.57282" lon="6.14287">
        <ele>309.7</ele>
        <time>2020-06-26T13:26:46Z</time>
      </trkpt>
      <trkpt lat="49.57279" lon="6.14294">
        <ele>309.6</ele>
        <time>2020-06-26T13:26:47Z</time>
      </trkpt>
      <trkpt lat="49.57276" lon="6.14302">
        <ele>309.5</ele>
        <time>2020-06-26T13:26:48Z</time>
      </trkpt>
      <trkpt lat="49.57274" lon="6.1431">
        <ele>309.4</ele>
        <time>2020-06-26T13:26:49Z</time>
      </trkpt>
      <trkpt lat="49.57271" lon="6.14319">
        <ele>309.3</ele>
        <time>2020-06-26T13:26:50Z</time>
      </trkpt>
      <trkpt lat="49.57268" lon="6.14326">
        <ele>309.2</ele>
        <time>2020-06-26T13:26:51Z</time>
      </trkpt>
      <trkpt lat="49.57266" lon="6.14335">
        <ele>309.1</ele>
        <time>2020-06-26T13:26:52Z</time>
      </trkpt>
      <trkpt lat="49.57263" lon="6.14343">
        <ele>309</ele>
        <time>2020-06-26T13:26:53Z</time>
      </trkpt>
      <trkpt lat="49.5726" lon="6.14352">
        <ele>308.8</ele>
        <time>2020-06-26T13:26:54Z</time>
      </trkpt>
      <trkpt lat="49.57256" lon="6.14361">
        <ele>308.5</ele>
        <time>2020-06-26T13:26:55Z</time>
      </trkpt>
      <trkpt lat="49.57253" lon="6.1437">
        <ele>308.3</ele>
        <time>2020-06-26T13:26:56Z</time>
      </trkpt>
      <trkpt lat="49.57249" lon="6.14379">
        <ele>308.1</ele>
        <time>2020-06-26T13:26:57Z</time>
      </trkpt>
      <trkpt lat="49.57245" lon="6.14389">
        <ele>307.7</ele>
        <time>2020-06-26T13:26:58Z</time>
      </trkpt>
      <trkpt lat="49.57241" lon="6.14399">
        <ele>307.4</ele>
        <time>2020-06-26T13:26:59Z</time>
      </trkpt>
      <trkpt lat="49.57237" lon="6.14411">
        <ele>306.9</ele>
        <time>2020-06-26T13:27:00Z</time>
      </trkpt>
      <trkpt lat="49.57233" lon="6.14422">
        <ele>306.3</ele>
        <time>2020-06-26T13:27:01Z</time>
      </trkpt>
      <trkpt lat="49.57229" lon="6.14433">
        <ele>305.7</ele>
        <time>2020-06-26T13:27:02Z</time>
      </trkpt>
      <trkpt lat="49.57225" lon="6.14443">
        <ele>305.1</ele>
        <time>2020-06-26T13:27:03Z</time>
      </trkpt>
      <trkpt lat="49.5722" lon="6.14454">
        <ele>304.4</ele>
        <time>2020-06-26T13:27:04Z</time>
      </trkpt>
      <trkpt lat="49.57217" lon="6.14463">
        <ele>303.9</ele>
        <time>2020-06-26T13:27:05Z</time>
      </trkpt>
      <trkpt lat="49.57212" lon="6.14471">
        <ele>303.3</ele>
        <time>2020-06-26T13:27:06Z</time>
      </trkpt>
      <trkpt lat="49.57209" lon="6.14478">
        <ele>302.9</ele>
        <time>2020-06-26T13:27:07Z</time>
      </trkpt>
      <trkpt lat="49.57205" lon="6.14485">
        <ele>302.4</ele>
        <time>2020-06-26T13:27:08Z</time>
      </trkpt>
      <trkpt lat="49.57202" lon="6.14492">
        <ele>302</ele>
        <time>2020-06-26T13:27:09Z</time>
      </trkpt>
      <trkpt lat="49.572" lon="6.14498">
        <ele>301.6</ele>
        <time>2020-06-26T13:27:10Z</time>
      </trkpt>
      <trkpt lat="49.57198" lon="6.14504">
        <ele>301.3</ele>
        <time>2020-06-26T13:27:11Z</time>
      </trkpt>
      <trkpt lat="49.57195" lon="6.14509">
        <ele>301</ele>
        <time>2020-06-26T13:27:12Z</time>
      </trkpt>
      <trkpt lat="49.57193" lon="6.14516">
        <ele>300.6</ele>
        <time>2020-06-26T13:27:13Z</time>
      </trkpt>
      <trkpt lat="49.5719" lon="6.14524">
        <ele>300.3</ele>
        <time>2020-06-26T13:27:14Z</time>
      </trkpt>
      <trkpt lat="49.57187" lon="6.14532">
        <ele>300</ele>
        <time>2020-06-26T13:27:15Z</time>
      </trkpt>
      <trkpt lat="49.57183" lon="6.14541">
        <ele>299.6</ele>
        <time>2020-06-26T13:27:16Z</time>
      </trkpt>
      <trkpt lat="49.57179" lon="6.1455">
        <ele>299.2</ele>
        <time>2020-06-26T13:27:17Z</time>
      </trkpt>
      <trkpt lat="49.57176" lon="6.1456">
        <ele>298.7</ele>
        <time>2020-06-26T13:27:18Z</time>
      </trkpt>
      <trkpt lat="49.57172" lon="6.14569">
        <ele>298.2</ele>
        <time>2020-06-26T13:27:19Z</time>
      </trkpt>
      <trkpt lat="49.57167" lon="6.14579">
        <ele>297.7</ele>
        <time>2020-06-26T13:27:20Z</time>
      </trkpt>
      <trkpt lat="49.57163" lon="6.14587">
        <ele>297.2</ele>
        <time>2020-06-26T13:27:21Z</time>
      </trkpt>
      <trkpt lat="49.5716" lon="6.14595">
        <ele>296.7</ele>
        <time>2020-06-26T13:27:22Z</time>
      </trkpt>
      <trkpt lat="49.57157" lon="6.14602">
        <ele>296</ele>
        <time>2020-06-26T13:27:23Z</time>
      </trkpt>
      <trkpt lat="49.57154" lon="6.14609">
        <ele>295.7</ele>
        <time>2020-06-26T13:27:24Z</time>
      </trkpt>
      <trkpt lat="49.57152" lon="6.14616">
        <ele>295.3</ele>
        <time>2020-06-26T13:27:25Z</time>
      </trkpt>
      <trkpt lat="49.5715" lon="6.14621">
        <ele>295</ele>
        <time>2020-06-26T13:27:26Z</time>
      </trkpt>
      <trkpt lat="49.57147" lon="6.14625">
        <ele>294.7</ele>
        <time>2020-06-26T13:27:27Z</time>
      </trkpt>
      <trkpt lat="49.57145" lon="6.14629">
        <ele>294.4</ele>
        <time>2020-06-26T13:27:28Z</time>
      </trkpt>
      <trkpt lat="49.57144" lon="6.14629">
        <ele>294.3</ele>
        <time>2020-06-26T13:27:29Z</time>
      </trkpt>
      <trkpt lat="49.57144" lon="6.14631">
        <ele>294.2</ele>
        <time>2020-06-26T13:27:30Z</time>
      </trkpt>
      <trkpt lat="49.57143" lon="6.14632">
        <ele>294.1</ele>
        <time>2020-06-26T13:27:31Z</time>
      </trkpt>
      <trkpt lat="49.57142" lon="6.14632">
        <ele>294</ele>
        <time>2020-06-26T13:27:32Z</time>
      </trkpt>
      <trkpt lat="49.57141" lon="6.14633">
        <ele>293.9</ele>
        <time>2020-06-26T13:27:33Z</time>
      </trkpt>
      <trkpt lat="49.57141" lon="6.14633">
        <ele>293.9</ele>
        <time>2020-06-26T13:27:34Z</time>
      </trkpt>
      <trkpt lat="49.57142" lon="6.14633">
        <ele>293.8</ele>
        <time>2020-06-26T13:27:35Z</time>
      </trkpt>
      <trkpt lat="49.5714" lon="6.14632">
        <ele>293.7</ele>
        <time>2020-06-26T13:27:36Z</time>
      </trkpt>
      <trkpt lat="49.57141" lon="6.14632">
        <ele>293.6</ele>
        <time>2020-06-26T13:27:37Z</time>
      </trkpt>
      <trkpt lat="49.5714" lon="6.14632">
        <ele>293.6</ele>
        <time>2020-06-26T13:27:38Z</time>
      </trkpt>
      <trkpt lat="49.57139" lon="6.14632">
        <ele>293.5</ele>
        <time>2020-06-26T13:27:39Z</time>
      </trkpt>
      <trkpt lat="49.57139" lon="6.14632">
        <ele>293.5</ele>
        <time>2020-06-26T13:27:40Z</time>
      </trkpt>
      <trkpt lat="49.57139" lon="6.14633">
        <ele>293.4</ele>
        <time>2020-06-26T13:27:41Z</time>
      </trkpt>
      <trkpt lat="49.57138" lon="6.14634">
        <ele>293.3</ele>
        <time>2020-06-26T13:27:42Z</time>
      </trkpt>
      <trkpt lat="49.57138" lon="6.14638">
        <ele>293.1</ele>
        <time>2020-06-26T13:27:43Z</time>
      </trkpt>
      <trkpt lat="49.57136" lon="6.14642">
        <ele>292.7</ele>
        <time>2020-06-26T13:27:44Z</time>
      </trkpt>
      <trkpt lat="49.57135" lon="6.14644">
        <ele>292.5</ele>
        <time>2020-06-26T13:27:45Z</time>
      </trkpt>
      <trkpt lat="49.57132" lon="6.14647">
        <ele>292.1</ele>
        <time>2020-06-26T13:27:46Z</time>
      </trkpt>
      <trkpt lat="49.57132" lon="6.14648">
        <ele>292</ele>
        <time>2020-06-26T13:27:47Z</time>
      </trkpt>
      <trkpt lat="49.5713" lon="6.14652">
        <ele>291.7</ele>
        <time>2020-06-26T13:27:48Z</time>
      </trkpt>
      <trkpt lat="49.5713" lon="6.14654">
        <ele>291.5</ele>
        <time>2020-06-26T13:27:49Z</time>
      </trkpt>
      <trkpt lat="49.57128" lon="6.14657">
        <ele>291.2</ele>
        <time>2020-06-26T13:27:50Z</time>
      </trkpt>
      <trkpt lat="49.57127" lon="6.14661">
        <ele>290.9</ele>
        <time>2020-06-26T13:27:51Z</time>
      </trkpt>
      <trkpt lat="49.57125" lon="6.14665">
        <ele>290.5</ele>
        <time>2020-06-26T13:27:52Z</time>
      </trkpt>
      <trkpt lat="49.57123" lon="6.14669">
        <ele>290.1</ele>
        <time>2020-06-26T13:27:53Z</time>
      </trkpt>
      <trkpt lat="49.57121" lon="6.14674">
        <ele>289.7</ele>
        <time>2020-06-26T13:27:54Z</time>
      </trkpt>
      <trkpt lat="49.57119" lon="6.14679">
        <ele>289.3</ele>
        <time>2020-06-26T13:27:55Z</time>
      </trkpt>
      <trkpt lat="49.57117" lon="6.14683">
        <ele>288.9</ele>
        <time>2020-06-26T13:27:56Z</time>
      </trkpt>
      <trkpt lat="49.57115" lon="6.14688">
        <ele>288.5</ele>
        <time>2020-06-26T13:27:57Z</time>
      </trkpt>
      <trkpt lat="49.57113" lon="6.14693">
        <ele>288.1</ele>
        <time>2020-06-26T13:27:58Z</time>
      </trkpt>
      <trkpt lat="49.57111" lon="6.147">
        <ele>287.6</ele>
        <time>2020-06-26T13:27:59Z</time>
      </trkpt>
      <trkpt lat="49.57108" lon="6.14706">
        <ele>287.1</ele>
        <time>2020-06-26T13:28:00Z</time>
      </trkpt>
      <trkpt lat="49.57107" lon="6.14712">
        <ele>286.7</ele>
        <time>2020-06-26T13:28:01Z</time>
      </trkpt>
      <trkpt lat="49.57106" lon="6.14719">
        <ele>286.2</ele>
        <time>2020-06-26T13:28:02Z</time>
      </trkpt>
      <trkpt lat="49.57105" lon="6.14726">
        <ele>285.7</ele>
        <time>2020-06-26T13:28:03Z</time>
      </trkpt>
      <trkpt lat="49.57106" lon="6.14734">
        <ele>285.1</ele>
        <time>2020-06-26T13:28:04Z</time>
      </trkpt>
      <trkpt lat="49.57106" lon="6.14742">
        <ele>284.6</ele>
        <time>2020-06-26T13:28:05Z</time>
      </trkpt>
      <trkpt lat="49.57108" lon="6.14748">
        <ele>284.1</ele>
        <time>2020-06-26T13:28:06Z</time>
      </trkpt>
      <trkpt lat="49.57108" lon="6.14754">
        <ele>283.7</ele>
        <time>2020-06-26T13:28:07Z</time>
      </trkpt>
      <trkpt lat="49.57108" lon="6.14759">
        <ele>283.4</ele>
        <time>2020-06-26T13:28:08Z</time>
      </trkpt>
      <trkpt lat="49.57108" lon="6.14764">
        <ele>283</ele>
        <time>2020-06-26T13:28:09Z</time>
      </trkpt>
      <trkpt lat="49.57109" lon="6.14769">
        <ele>282.6</ele>
        <time>2020-06-26T13:28:10Z</time>
      </trkpt>
      <trkpt lat="49.57109" lon="6.14775">
        <ele>282.2</ele>
        <time>2020-06-26T13:28:11Z</time>
      </trkpt>
      <trkpt lat="49.57109" lon="6.14783">
        <ele>281.7</ele>
        <time>2020-06-26T13:28:12Z</time>
      </trkpt>
      <trkpt lat="49.57109" lon="6.14792">
        <ele>281.1</ele>
        <time>2020-06-26T13:28:13Z</time>
      </trkpt>
      <trkpt lat="49.5711" lon="6.148">
        <ele>280.6</ele>
        <time>2020-06-26T13:28:14Z</time>
      </trkpt>
      <trkpt lat="49.5711" lon="6.14808">
        <ele>280.2</ele>
        <time>2020-06-26T13:28:15Z</time>
      </trkpt>
      <trkpt lat="49.57109" lon="6.14816">
        <ele>279.7</ele>
        <time>2020-06-26T13:28:16Z</time>
      </trkpt>
      <trkpt lat="49.57109" lon="6.14824">
        <ele>279.3</ele>
        <time>2020-06-26T13:28:17Z</time>
      </trkpt>
      <trkpt lat="49.57109" lon="6.14831">
        <ele>278.9</ele>
        <time>2020-06-26T13:28:18Z</time>
      </trkpt>
      <trkpt lat="49.57109" lon="6.14837">
        <ele>278.6</ele>
        <time>2020-06-26T13:28:19Z</time>
      </trkpt>
      <trkpt lat="49.57108" lon="6.14842">
        <ele>278.3</ele>
        <time>2020-06-26T13:28:20Z</time>
      </trkpt>
      <trkpt lat="49.57108" lon="6.14847">
        <ele>278.1</ele>
        <time>2020-06-26T13:28:21Z</time>
      </trkpt>
      <trkpt lat="49.57107" lon="6.14852">
        <ele>277.8</ele>
        <time>2020-06-26T13:28:22Z</time>
      </trkpt>
      <trkpt lat="49.57107" lon="6.14857">
        <ele>277.6</ele>
        <time>2020-06-26T13:28:23Z</time>
      </trkpt>
      <trkpt lat="49.57106" lon="6.14862">
        <ele>277.4</ele>
        <time>2020-06-26T13:28:24Z</time>
      </trkpt>
      <trkpt lat="49.57106" lon="6.14867">
        <ele>277.1</ele>
        <time>2020-06-26T13:28:25Z</time>
      </trkpt>
      <trkpt lat="49.57106" lon="6.14871">
        <ele>276.9</ele>
        <time>2020-06-26T13:28:26Z</time>
      </trkpt>
      <trkpt lat="49.57105" lon="6.14876">
        <ele>276.7</ele>
        <time>2020-06-26T13:28:27Z</time>
      </trkpt>
      <trkpt lat="49.57105" lon="6.14877">
        <ele>276.6</ele>
        <time>2020-06-26T13:28:28Z</time>
      </trkpt>
      <trkpt lat="49.57104" lon="6.14883">
        <ele>276.3</ele>
        <time>2020-06-26T13:28:29Z</time>
      </trkpt>
      <trkpt lat="49.57103" lon="6.14885">
        <ele>276.1</ele>
        <time>2020-06-26T13:28:30Z</time>
      </trkpt>
      <trkpt lat="49.57104" lon="6.1489">
        <ele>275.9</ele>
        <time>2020-06-26T13:28:31Z</time>
      </trkpt>
      <trkpt lat="49.57105" lon="6.14895">
        <ele>275.7</ele>
        <time>2020-06-26T13:28:32Z</time>
      </trkpt>
      <trkpt lat="49.57105" lon="6.14899">
        <ele>275.5</ele>
        <time>2020-06-26T13:28:33Z</time>
      </trkpt>
      <trkpt lat="49.57105" lon="6.14903">
        <ele>275.4</ele>
        <time>2020-06-26T13:28:34Z</time>
      </trkpt>
      <trkpt lat="49.57104" lon="6.14909">
        <ele>275.2</ele>
        <time>2020-06-26T13:28:35Z</time>
      </trkpt>
      <trkpt lat="49.57103" lon="6.14911">
        <ele>275.1</ele>
        <time>2020-06-26T13:28:36Z</time>
      </trkpt>
      <trkpt lat="49.57103" lon="6.14913">
        <ele>275</ele>
        <time>2020-06-26T13:28:37Z</time>
      </trkpt>
      <trkpt lat="49.57104" lon="6.14914">
        <ele>275</ele>
        <time>2020-06-26T13:28:38Z</time>
      </trkpt>
      <trkpt lat="49.57104" lon="6.14915">
        <ele>275</ele>
        <time>2020-06-26T13:28:39Z</time>
      </trkpt>
      <trkpt lat="49.57104" lon="6.14915">
        <ele>274.9</ele>
        <time>2020-06-26T13:28:40Z</time>
      </trkpt>
      <trkpt lat="49.57105" lon="6.14915">
        <ele>274.9</ele>
        <time>2020-06-26T13:28:41Z</time>
      </trkpt>
      <trkpt lat="49.57106" lon="6.14916">
        <ele>274.8</ele>
        <time>2020-06-26T13:28:42Z</time>
      </trkpt>
      <trkpt lat="49.57107" lon="6.14917">
        <ele>274.8</ele>
        <time>2020-06-26T13:28:43Z</time>
      </trkpt>
      <trkpt lat="49.57107" lon="6.14918">
        <ele>274.8</ele>
        <time>2020-06-26T13:28:44Z</time>
      </trkpt>
      <trkpt lat="49.57108" lon="6.14918">
        <ele>274.7</ele>
        <time>2020-06-26T13:28:45Z</time>
      </trkpt>
      <trkpt lat="49.57108" lon="6.14918">
        <ele>274.7</ele>
        <time>2020-06-26T13:28:46Z</time>
      </trkpt>
      <trkpt lat="49.57108" lon="6.14918">
        <ele>274.7</ele>
        <time>2020-06-26T13:28:47Z</time>
      </trkpt>
      <trkpt lat="49.57108" lon="6.14918">
        <ele>274.7</ele>
        <time>2020-06-26T13:28:48Z</time>
      </trkpt>
      <trkpt lat="49.57108" lon="6.14919">
        <ele>274.7</ele>
        <time>2020-06-26T13:28:49Z</time>
      </trkpt>
      <trkpt lat="49.57106" lon="6.14928">
        <ele>274.4</ele>
        <time>2020-06-26T13:28:53Z</time>
      </trkpt>
      <trkpt lat="49.57103" lon="6.14931">
        <ele>274.3</ele>
        <time>2020-06-26T13:28:54Z</time>
      </trkpt>
      <trkpt lat="49.57102" lon="6.14936">
        <ele>273.1</ele>
        <time>2020-06-26T13:28:55Z</time>
      </trkpt>
      <trkpt lat="49.57102" lon="6.14943">
        <ele>272.9</ele>
        <time>2020-06-26T13:28:56Z</time>
      </trkpt>
      <trkpt lat="49.57103" lon="6.1495">
        <ele>272.6</ele>
        <time>2020-06-26T13:28:57Z</time>
      </trkpt>
      <trkpt lat="49.57104" lon="6.14957">
        <ele>272.3</ele>
        <time>2020-06-26T13:28:58Z</time>
      </trkpt>
      <trkpt lat="49.57105" lon="6.14965">
        <ele>272</ele>
        <time>2020-06-26T13:28:59Z</time>
      </trkpt>
      <trkpt lat="49.57105" lon="6.14972">
        <ele>271.9</ele>
        <time>2020-06-26T13:29:00Z</time>
      </trkpt>
      <trkpt lat="49.57105" lon="6.1498">
        <ele>271.7</ele>
        <time>2020-06-26T13:29:01Z</time>
      </trkpt>
      <trkpt lat="49.57104" lon="6.14987">
        <ele>271.5</ele>
        <time>2020-06-26T13:29:02Z</time>
      </trkpt>
      <trkpt lat="49.57104" lon="6.14994">
        <ele>271.3</ele>
        <time>2020-06-26T13:29:03Z</time>
      </trkpt>
      <trkpt lat="49.57103" lon="6.15002">
        <ele>271</ele>
        <time>2020-06-26T13:29:04Z</time>
      </trkpt>
      <trkpt lat="49.57101" lon="6.15008">
        <ele>270.8</ele>
        <time>2020-06-26T13:29:05Z</time>
      </trkpt>
      <trkpt lat="49.57098" lon="6.15013">
        <ele>270.5</ele>
        <time>2020-06-26T13:29:06Z</time>
      </trkpt>
      <trkpt lat="49.57096" lon="6.15018">
        <ele>270.2</ele>
        <time>2020-06-26T13:29:07Z</time>
      </trkpt>
      <trkpt lat="49.57095" lon="6.15022">
        <ele>269.9</ele>
        <time>2020-06-26T13:29:08Z</time>
      </trkpt>
      <trkpt lat="49.57093" lon="6.15027">
        <ele>269.6</ele>
        <time>2020-06-26T13:29:09Z</time>
      </trkpt>
      <trkpt lat="49.57091" lon="6.1503">
        <ele>268.5</ele>
        <time>2020-06-26T13:29:10Z</time>
      </trkpt>
      <trkpt lat="49.57088" lon="6.15032">
        <ele>268.5</ele>
        <time>2020-06-26T13:29:11Z</time>
      </trkpt>
      <trkpt lat="49.57084" lon="6.15032">
        <ele>268.4</ele>
        <time>2020-06-26T13:29:12Z</time>
      </trkpt>
      <trkpt lat="49.57078" lon="6.1503">
        <ele>268.3</ele>
        <time>2020-06-26T13:29:13Z</time>
      </trkpt>
      <trkpt lat="49.57073" lon="6.15031">
        <ele>268.2</ele>
        <time>2020-06-26T13:29:14Z</time>
      </trkpt>
      <trkpt lat="49.57068" lon="6.15034">
        <ele>268</ele>
        <time>2020-06-26T13:29:15Z</time>
      </trkpt>
      <trkpt lat="49.57063" lon="6.15037">
        <ele>267.9</ele>
        <time>2020-06-26T13:29:16Z</time>
      </trkpt>
      <trkpt lat="49.57058" lon="6.15041">
        <ele>267.8</ele>
        <time>2020-06-26T13:29:17Z</time>
      </trkpt>
      <trkpt lat="49.57053" lon="6.15045">
        <ele>267.6</ele>
        <time>2020-06-26T13:29:18Z</time>
      </trkpt>
      <trkpt lat="49.57048" lon="6.1505">
        <ele>267.5</ele>
        <time>2020-06-26T13:29:19Z</time>
      </trkpt>
      <trkpt lat="49.57043" lon="6.15055">
        <ele>267.4</ele>
        <time>2020-06-26T13:29:20Z</time>
      </trkpt>
      <trkpt lat="49.57038" lon="6.1506">
        <ele>267.3</ele>
        <time>2020-06-26T13:29:21Z</time>
      </trkpt>
      <trkpt lat="49.57033" lon="6.15066">
        <ele>267.3</ele>
        <time>2020-06-26T13:29:22Z</time>
      </trkpt>
      <trkpt lat="49.57028" lon="6.15072">
        <ele>267.2</ele>
        <time>2020-06-26T13:29:23Z</time>
      </trkpt>
      <trkpt lat="49.57024" lon="6.15077">
        <ele>267.2</ele>
        <time>2020-06-26T13:29:24Z</time>
      </trkpt>
      <trkpt lat="49.5702" lon="6.15081">
        <ele>267.2</ele>
        <time>2020-06-26T13:29:25Z</time>
      </trkpt>
      <trkpt lat="49.57017" lon="6.15086">
        <ele>267.2</ele>
        <time>2020-06-26T13:29:26Z</time>
      </trkpt>
      <trkpt lat="49.57013" lon="6.15091">
        <ele>267.2</ele>
        <time>2020-06-26T13:29:27Z</time>
      </trkpt>
      <trkpt lat="49.57009" lon="6.15097">
        <ele>267.2</ele>
        <time>2020-06-26T13:29:28Z</time>
      </trkpt>
      <trkpt lat="49.57005" lon="6.15104">
        <ele>267.3</ele>
        <time>2020-06-26T13:29:29Z</time>
      </trkpt>
      <trkpt lat="49.57002" lon="6.1511">
        <ele>267.4</ele>
        <time>2020-06-26T13:29:30Z</time>
      </trkpt>
      <trkpt lat="49.56998" lon="6.15117">
        <ele>267.4</ele>
        <time>2020-06-26T13:29:31Z</time>
      </trkpt>
      <trkpt lat="49.56993" lon="6.15122">
        <ele>267.4</ele>
        <time>2020-06-26T13:29:32Z</time>
      </trkpt>
      <trkpt lat="49.56988" lon="6.15126">
        <ele>267.4</ele>
        <time>2020-06-26T13:29:33Z</time>
      </trkpt>
      <trkpt lat="49.56983" lon="6.15132">
        <ele>267.4</ele>
        <time>2020-06-26T13:29:34Z</time>
      </trkpt>
      <trkpt lat="49.56979" lon="6.15137">
        <ele>267.4</ele>
        <time>2020-06-26T13:29:35Z</time>
      </trkpt>
      <trkpt lat="49.56974" lon="6.15142">
        <ele>267.4</ele>
        <time>2020-06-26T13:29:36Z</time>
      </trkpt>
      <trkpt lat="49.5697" lon="6.15146">
        <ele>267.4</ele>
        <time>2020-06-26T13:29:37Z</time>
      </trkpt>
      <trkpt lat="49.56965" lon="6.1515">
        <ele>267.5</ele>
        <time>2020-06-26T13:29:38Z</time>
      </trkpt>
      <trkpt lat="49.5696" lon="6.15154">
        <ele>267.5</ele>
        <time>2020-06-26T13:29:39Z</time>
      </trkpt>
      <trkpt lat="49.56955" lon="6.15158">
        <ele>267.5</ele>
        <time>2020-06-26T13:29:40Z</time>
      </trkpt>
      <trkpt lat="49.56949" lon="6.15162">
        <ele>267.5</ele>
        <time>2020-06-26T13:29:41Z</time>
      </trkpt>
      <trkpt lat="49.56944" lon="6.15165">
        <ele>267.5</ele>
        <time>2020-06-26T13:29:42Z</time>
      </trkpt>
      <trkpt lat="49.56938" lon="6.15169">
        <ele>267.5</ele>
        <time>2020-06-26T13:29:43Z</time>
      </trkpt>
      <trkpt lat="49.56933" lon="6.15171">
        <ele>267.6</ele>
        <time>2020-06-26T13:29:44Z</time>
      </trkpt>
      <trkpt lat="49.56926" lon="6.15173">
        <ele>267.7</ele>
        <time>2020-06-26T13:29:45Z</time>
      </trkpt>
      <trkpt lat="49.56921" lon="6.15175">
        <ele>267.8</ele>
        <time>2020-06-26T13:29:46Z</time>
      </trkpt>
      <trkpt lat="49.56915" lon="6.15178">
        <ele>267.8</ele>
        <time>2020-06-26T13:29:47Z</time>
      </trkpt>
      <trkpt lat="49.56909" lon="6.1518">
        <ele>267.9</ele>
        <time>2020-06-26T13:29:48Z</time>
      </trkpt>
      <trkpt lat="49.56903" lon="6.15182">
        <ele>268</ele>
        <time>2020-06-26T13:29:49Z</time>
      </trkpt>
      <trkpt lat="49.56898" lon="6.15183">
        <ele>268.1</ele>
        <time>2020-06-26T13:29:50Z</time>
      </trkpt>
      <trkpt lat="49.56892" lon="6.15185">
        <ele>268.1</ele>
        <time>2020-06-26T13:29:51Z</time>
      </trkpt>
      <trkpt lat="49.56886" lon="6.15187">
        <ele>268.2</ele>
        <time>2020-06-26T13:29:52Z</time>
      </trkpt>
      <trkpt lat="49.56881" lon="6.15188">
        <ele>268.3</ele>
        <time>2020-06-26T13:29:53Z</time>
      </trkpt>
      <trkpt lat="49.56875" lon="6.1519">
        <ele>268.4</ele>
        <time>2020-06-26T13:29:54Z</time>
      </trkpt>
      <trkpt lat="49.5687" lon="6.15191">
        <ele>268.4</ele>
        <time>2020-06-26T13:29:55Z</time>
      </trkpt>
      <trkpt lat="49.56864" lon="6.15193">
        <ele>268.5</ele>
        <time>2020-06-26T13:29:56Z</time>
      </trkpt>
      <trkpt lat="49.56859" lon="6.15195">
        <ele>268.6</ele>
        <time>2020-06-26T13:29:57Z</time>
      </trkpt>
      <trkpt lat="49.56854" lon="6.15198">
        <ele>268.6</ele>
        <time>2020-06-26T13:29:58Z</time>
      </trkpt>
      <trkpt lat="49.5685" lon="6.152">
        <ele>268.7</ele>
        <time>2020-06-26T13:29:59Z</time>
      </trkpt>
      <trkpt lat="49.56846" lon="6.15203">
        <ele>268.7</ele>
        <time>2020-06-26T13:30:00Z</time>
      </trkpt>
      <trkpt lat="49.56842" lon="6.15205">
        <ele>268.8</ele>
        <time>2020-06-26T13:30:01Z</time>
      </trkpt>
      <trkpt lat="49.56841" lon="6.15209">
        <ele>268.9</ele>
        <time>2020-06-26T13:30:02Z</time>
      </trkpt>
      <trkpt lat="49.56838" lon="6.15213">
        <ele>268.7</ele>
        <time>2020-06-26T13:30:03Z</time>
      </trkpt>
      <trkpt lat="49.56838" lon="6.15219">
        <ele>268.5</ele>
        <time>2020-06-26T13:30:04Z</time>
      </trkpt>
      <trkpt lat="49.56839" lon="6.15226">
        <ele>268.3</ele>
        <time>2020-06-26T13:30:05Z</time>
      </trkpt>
      <trkpt lat="49.56841" lon="6.15232">
        <ele>268</ele>
        <time>2020-06-26T13:30:06Z</time>
      </trkpt>
      <trkpt lat="49.56842" lon="6.1524">
        <ele>267.7</ele>
        <time>2020-06-26T13:30:07Z</time>
      </trkpt>
      <trkpt lat="49.56843" lon="6.15247">
        <ele>267.5</ele>
        <time>2020-06-26T13:30:08Z</time>
      </trkpt>
      <trkpt lat="49.56845" lon="6.15256">
        <ele>267.2</ele>
        <time>2020-06-26T13:30:09Z</time>
      </trkpt>
      <trkpt lat="49.56846" lon="6.15264">
        <ele>266.9</ele>
        <time>2020-06-26T13:30:10Z</time>
      </trkpt>
      <trkpt lat="49.56848" lon="6.15272">
        <ele>266.7</ele>
        <time>2020-06-26T13:30:11Z</time>
      </trkpt>
      <trkpt lat="49.5685" lon="6.1528">
        <ele>266.5</ele>
        <time>2020-06-26T13:30:12Z</time>
      </trkpt>
      <trkpt lat="49.56852" lon="6.15289">
        <ele>266.2</ele>
        <time>2020-06-26T13:30:13Z</time>
      </trkpt>
      <trkpt lat="49.56854" lon="6.15298">
        <ele>266</ele>
        <time>2020-06-26T13:30:14Z</time>
      </trkpt>
      <trkpt lat="49.56856" lon="6.15307">
        <ele>265.7</ele>
        <time>2020-06-26T13:30:15Z</time>
      </trkpt>
      <trkpt lat="49.56857" lon="6.15317">
        <ele>265.4</ele>
        <time>2020-06-26T13:30:16Z</time>
      </trkpt>
      <trkpt lat="49.56858" lon="6.15327">
        <ele>265.2</ele>
        <time>2020-06-26T13:30:17Z</time>
      </trkpt>
      <trkpt lat="49.5686" lon="6.15338">
        <ele>264.9</ele>
        <time>2020-06-26T13:30:18Z</time>
      </trkpt>
      <trkpt lat="49.56862" lon="6.15349">
        <ele>264.7</ele>
        <time>2020-06-26T13:30:19Z</time>
      </trkpt>
      <trkpt lat="49.56864" lon="6.15361">
        <ele>264.5</ele>
        <time>2020-06-26T13:30:20Z</time>
      </trkpt>
      <trkpt lat="49.56865" lon="6.15373">
        <ele>264.3</ele>
        <time>2020-06-26T13:30:21Z</time>
      </trkpt>
      <trkpt lat="49.56866" lon="6.15384">
        <ele>264.1</ele>
        <time>2020-06-26T13:30:22Z</time>
      </trkpt>
      <trkpt lat="49.56866" lon="6.15394">
        <ele>264</ele>
        <time>2020-06-26T13:30:23Z</time>
      </trkpt>
      <trkpt lat="49.56866" lon="6.15404">
        <ele>264</ele>
        <time>2020-06-26T13:30:24Z</time>
      </trkpt>
      <trkpt lat="49.56867" lon="6.15412">
        <ele>264</ele>
        <time>2020-06-26T13:30:25Z</time>
      </trkpt>
      <trkpt lat="49.56869" lon="6.1542">
        <ele>263.9</ele>
        <time>2020-06-26T13:30:26Z</time>
      </trkpt>
      <trkpt lat="49.56871" lon="6.15426">
        <ele>263.9</ele>
        <time>2020-06-26T13:30:27Z</time>
      </trkpt>
      <trkpt lat="49.56874" lon="6.1543">
        <ele>264</ele>
        <time>2020-06-26T13:30:28Z</time>
      </trkpt>
      <trkpt lat="49.56877" lon="6.15431">
        <ele>264</ele>
        <time>2020-06-26T13:30:29Z</time>
      </trkpt>
      <trkpt lat="49.56879" lon="6.15435">
        <ele>263.9</ele>
        <time>2020-06-26T13:30:30Z</time>
      </trkpt>
      <trkpt lat="49.5688" lon="6.15436">
        <ele>263.9</ele>
        <time>2020-06-26T13:30:31Z</time>
      </trkpt>
      <trkpt lat="49.56881" lon="6.15439">
        <ele>263.9</ele>
        <time>2020-06-26T13:30:32Z</time>
      </trkpt>
      <trkpt lat="49.56881" lon="6.15441">
        <ele>263.8</ele>
        <time>2020-06-26T13:30:33Z</time>
      </trkpt>
      <trkpt lat="49.56881" lon="6.15443">
        <ele>263.8</ele>
        <time>2020-06-26T13:30:34Z</time>
      </trkpt>
      <trkpt lat="49.56882" lon="6.15445">
        <ele>263.8</ele>
        <time>2020-06-26T13:30:35Z</time>
      </trkpt>
      <trkpt lat="49.56882" lon="6.15449">
        <ele>263.7</ele>
        <time>2020-06-26T13:30:36Z</time>
      </trkpt>
      <trkpt lat="49.56882" lon="6.15451">
        <ele>263.7</ele>
        <time>2020-06-26T13:30:37Z</time>
      </trkpt>
      <trkpt lat="49.56882" lon="6.15457">
        <ele>263.6</ele>
        <time>2020-06-26T13:30:38Z</time>
      </trkpt>
      <trkpt lat="49.56882" lon="6.15459">
        <ele>263.6</ele>
        <time>2020-06-26T13:30:39Z</time>
      </trkpt>
      <trkpt lat="49.56883" lon="6.15464">
        <ele>263.5</ele>
        <time>2020-06-26T13:30:40Z</time>
      </trkpt>
      <trkpt lat="49.56883" lon="6.1547">
        <ele>263.4</ele>
        <time>2020-06-26T13:30:41Z</time>
      </trkpt>
      <trkpt lat="49.56883" lon="6.15476">
        <ele>263.3</ele>
        <time>2020-06-26T13:30:42Z</time>
      </trkpt>
      <trkpt lat="49.56884" lon="6.15482">
        <ele>263.2</ele>
        <time>2020-06-26T13:30:43Z</time>
      </trkpt>
      <trkpt lat="49.56885" lon="6.15489">
        <ele>263.1</ele>
        <time>2020-06-26T13:30:44Z</time>
      </trkpt>
      <trkpt lat="49.56886" lon="6.15494">
        <ele>263</ele>
        <time>2020-06-26T13:30:45Z</time>
      </trkpt>
      <trkpt lat="49.56887" lon="6.15501">
        <ele>262.9</ele>
        <time>2020-06-26T13:30:46Z</time>
      </trkpt>
      <trkpt lat="49.56887" lon="6.15508">
        <ele>262.7</ele>
        <time>2020-06-26T13:30:47Z</time>
      </trkpt>
      <trkpt lat="49.56888" lon="6.15515">
        <ele>262.5</ele>
        <time>2020-06-26T13:30:48Z</time>
      </trkpt>
      <trkpt lat="49.56889" lon="6.15523">
        <ele>262.4</ele>
        <time>2020-06-26T13:30:49Z</time>
      </trkpt>
      <trkpt lat="49.5689" lon="6.15532">
        <ele>262.2</ele>
        <time>2020-06-26T13:30:50Z</time>
      </trkpt>
      <trkpt lat="49.56892" lon="6.1554">
        <ele>262</ele>
        <time>2020-06-26T13:30:51Z</time>
      </trkpt>
      <trkpt lat="49.56894" lon="6.15548">
        <ele>261.9</ele>
        <time>2020-06-26T13:30:52Z</time>
      </trkpt>
      <trkpt lat="49.56898" lon="6.15555">
        <ele>261.8</ele>
        <time>2020-06-26T13:30:53Z</time>
      </trkpt>
      <trkpt lat="49.56901" lon="6.15562">
        <ele>261.8</ele>
        <time>2020-06-26T13:30:54Z</time>
      </trkpt>
      <trkpt lat="49.56904" lon="6.1557">
        <ele>261.7</ele>
        <time>2020-06-26T13:30:55Z</time>
      </trkpt>
      <trkpt lat="49.56906" lon="6.15578">
        <ele>261.7</ele>
        <time>2020-06-26T13:30:56Z</time>
      </trkpt>
      <trkpt lat="49.56908" lon="6.15585">
        <ele>261.6</ele>
        <time>2020-06-26T13:30:57Z</time>
      </trkpt>
      <trkpt lat="49.5691" lon="6.15592">
        <ele>261.5</ele>
        <time>2020-06-26T13:30:58Z</time>
      </trkpt>
      <trkpt lat="49.56912" lon="6.15599">
        <ele>261.5</ele>
        <time>2020-06-26T13:30:59Z</time>
      </trkpt>
      <trkpt lat="49.56915" lon="6.15605">
        <ele>261.5</ele>
        <time>2020-06-26T13:31:00Z</time>
      </trkpt>
      <trkpt lat="49.56917" lon="6.15611">
        <ele>261.4</ele>
        <time>2020-06-26T13:31:01Z</time>
      </trkpt>
      <trkpt lat="49.56919" lon="6.15618">
        <ele>261.4</ele>
        <time>2020-06-26T13:31:02Z</time>
      </trkpt>
      <trkpt lat="49.56922" lon="6.15624">
        <ele>261.4</ele>
        <time>2020-06-26T13:31:03Z</time>
      </trkpt>
      <trkpt lat="49.56924" lon="6.15631">
        <ele>261.4</ele>
        <time>2020-06-26T13:31:04Z</time>
      </trkpt>
      <trkpt lat="49.56927" lon="6.15637">
        <ele>261.4</ele>
        <time>2020-06-26T13:31:05Z</time>
      </trkpt>
      <trkpt lat="49.56929" lon="6.15643">
        <ele>261.4</ele>
        <time>2020-06-26T13:31:06Z</time>
      </trkpt>
      <trkpt lat="49.56932" lon="6.1565">
        <ele>261.4</ele>
        <time>2020-06-26T13:31:07Z</time>
      </trkpt>
      <trkpt lat="49.56933" lon="6.15657">
        <ele>261.4</ele>
        <time>2020-06-26T13:31:08Z</time>
      </trkpt>
      <trkpt lat="49.56936" lon="6.15664">
        <ele>261.4</ele>
        <time>2020-06-26T13:31:09Z</time>
      </trkpt>
      <trkpt lat="49.56937" lon="6.15671">
        <ele>261.5</ele>
        <time>2020-06-26T13:31:10Z</time>
      </trkpt>
      <trkpt lat="49.5694" lon="6.15678">
        <ele>261.6</ele>
        <time>2020-06-26T13:31:11Z</time>
      </trkpt>
      <trkpt lat="49.56941" lon="6.15685">
        <ele>261.7</ele>
        <time>2020-06-26T13:31:12Z</time>
      </trkpt>
      <trkpt lat="49.56942" lon="6.15693">
        <ele>261.9</ele>
        <time>2020-06-26T13:31:13Z</time>
      </trkpt>
      <trkpt lat="49.56942" lon="6.157">
        <ele>262</ele>
        <time>2020-06-26T13:31:14Z</time>
      </trkpt>
      <trkpt lat="49.56942" lon="6.15705">
        <ele>262.1</ele>
        <time>2020-06-26T13:31:15Z</time>
      </trkpt>
      <trkpt lat="49.56943" lon="6.1571">
        <ele>262.4</ele>
        <time>2020-06-26T13:31:16Z</time>
      </trkpt>
      <trkpt lat="49.56943" lon="6.15712">
        <ele>262.4</ele>
        <time>2020-06-26T13:31:17Z</time>
      </trkpt>
      <trkpt lat="49.56944" lon="6.15716">
        <ele>262.4</ele>
        <time>2020-06-26T13:31:18Z</time>
      </trkpt>
      <trkpt lat="49.56944" lon="6.15718">
        <ele>262.4</ele>
        <time>2020-06-26T13:31:19Z</time>
      </trkpt>
      <trkpt lat="49.56944" lon="6.15723">
        <ele>262.4</ele>
        <time>2020-06-26T13:31:20Z</time>
      </trkpt>
      <trkpt lat="49.56944" lon="6.15725">
        <ele>262.4</ele>
        <time>2020-06-26T13:31:21Z</time>
      </trkpt>
      <trkpt lat="49.56945" lon="6.15731">
        <ele>262.5</ele>
        <time>2020-06-26T13:31:22Z</time>
      </trkpt>
      <trkpt lat="49.56945" lon="6.15733">
        <ele>262.5</ele>
        <time>2020-06-26T13:31:23Z</time>
      </trkpt>
      <trkpt lat="49.56945" lon="6.15739">
        <ele>262.5</ele>
        <time>2020-06-26T13:31:24Z</time>
      </trkpt>
      <trkpt lat="49.56945" lon="6.15741">
        <ele>262.5</ele>
        <time>2020-06-26T13:31:25Z</time>
      </trkpt>
      <trkpt lat="49.56945" lon="6.15745">
        <ele>262.5</ele>
        <time>2020-06-26T13:31:26Z</time>
      </trkpt>
      <trkpt lat="49.56945" lon="6.15751">
        <ele>262.5</ele>
        <time>2020-06-26T13:31:27Z</time>
      </trkpt>
      <trkpt lat="49.56945" lon="6.15759">
        <ele>262.4</ele>
        <time>2020-06-26T13:31:28Z</time>
      </trkpt>
      <trkpt lat="49.56944" lon="6.15768">
        <ele>262.3</ele>
        <time>2020-06-26T13:31:29Z</time>
      </trkpt>
      <trkpt lat="49.56942" lon="6.15776">
        <ele>262.3</ele>
        <time>2020-06-26T13:31:30Z</time>
      </trkpt>
      <trkpt lat="49.56941" lon="6.15784">
        <ele>262.1</ele>
        <time>2020-06-26T13:31:31Z</time>
      </trkpt>
      <trkpt lat="49.5694" lon="6.15792">
        <ele>262.1</ele>
        <time>2020-06-26T13:31:32Z</time>
      </trkpt>
      <trkpt lat="49.56939" lon="6.15799">
        <ele>262.1</ele>
        <time>2020-06-26T13:31:33Z</time>
      </trkpt>
      <trkpt lat="49.56939" lon="6.15807">
        <ele>262</ele>
        <time>2020-06-26T13:31:34Z</time>
      </trkpt>
      <trkpt lat="49.56939" lon="6.15816">
        <ele>262</ele>
        <time>2020-06-26T13:31:35Z</time>
      </trkpt>
      <trkpt lat="49.56938" lon="6.15824">
        <ele>261.9</ele>
        <time>2020-06-26T13:31:36Z</time>
      </trkpt>
      <trkpt lat="49.56938" lon="6.15832">
        <ele>261.9</ele>
        <time>2020-06-26T13:31:37Z</time>
      </trkpt>
      <trkpt lat="49.56936" lon="6.1584">
        <ele>261.9</ele>
        <time>2020-06-26T13:31:38Z</time>
      </trkpt>
      <trkpt lat="49.56935" lon="6.15848">
        <ele>261.9</ele>
        <time>2020-06-26T13:31:39Z</time>
      </trkpt>
      <trkpt lat="49.56934" lon="6.15856">
        <ele>261.9</ele>
        <time>2020-06-26T13:31:40Z</time>
      </trkpt>
      <trkpt lat="49.56934" lon="6.15864">
        <ele>261.9</ele>
        <time>2020-06-26T13:31:41Z</time>
      </trkpt>
      <trkpt lat="49.56933" lon="6.15872">
        <ele>261.9</ele>
        <time>2020-06-26T13:31:42Z</time>
      </trkpt>
      <trkpt lat="49.56932" lon="6.1588">
        <ele>261.9</ele>
        <time>2020-06-26T13:31:43Z</time>
      </trkpt>
      <trkpt lat="49.56931" lon="6.15887">
        <ele>261.9</ele>
        <time>2020-06-26T13:31:44Z</time>
      </trkpt>
      <trkpt lat="49.5693" lon="6.15894">
        <ele>261.9</ele>
        <time>2020-06-26T13:31:45Z</time>
      </trkpt>
      <trkpt lat="49.5693" lon="6.159">
        <ele>261.9</ele>
        <time>2020-06-26T13:31:46Z</time>
      </trkpt>
      <trkpt lat="49.56929" lon="6.15907">
        <ele>261.9</ele>
        <time>2020-06-26T13:31:47Z</time>
      </trkpt>
      <trkpt lat="49.56928" lon="6.15913">
        <ele>261.9</ele>
        <time>2020-06-26T13:31:48Z</time>
      </trkpt>
      <trkpt lat="49.56928" lon="6.15919">
        <ele>261.9</ele>
        <time>2020-06-26T13:31:49Z</time>
      </trkpt>
      <trkpt lat="49.56927" lon="6.15925">
        <ele>262</ele>
        <time>2020-06-26T13:31:50Z</time>
      </trkpt>
      <trkpt lat="49.56926" lon="6.15932">
        <ele>262</ele>
        <time>2020-06-26T13:31:51Z</time>
      </trkpt>
      <trkpt lat="49.56924" lon="6.15938">
        <ele>262</ele>
        <time>2020-06-26T13:31:52Z</time>
      </trkpt>
      <trkpt lat="49.56923" lon="6.15945">
        <ele>262.1</ele>
        <time>2020-06-26T13:31:53Z</time>
      </trkpt>
      <trkpt lat="49.5692" lon="6.1595">
        <ele>262.1</ele>
        <time>2020-06-26T13:31:54Z</time>
      </trkpt>
      <trkpt lat="49.56915" lon="6.15953">
        <ele>262.2</ele>
        <time>2020-06-26T13:31:55Z</time>
      </trkpt>
      <trkpt lat="49.5691" lon="6.15955">
        <ele>262.2</ele>
        <time>2020-06-26T13:31:56Z</time>
      </trkpt>
      <trkpt lat="49.56906" lon="6.15958">
        <ele>262.2</ele>
        <time>2020-06-26T13:31:57Z</time>
      </trkpt>
      <trkpt lat="49.56902" lon="6.15961">
        <ele>262.3</ele>
        <time>2020-06-26T13:31:58Z</time>
      </trkpt>
      <trkpt lat="49.56898" lon="6.15964">
        <ele>262.3</ele>
        <time>2020-06-26T13:31:59Z</time>
      </trkpt>
      <trkpt lat="49.56895" lon="6.15968">
        <ele>262.4</ele>
        <time>2020-06-26T13:32:00Z</time>
      </trkpt>
      <trkpt lat="49.56894" lon="6.15974">
        <ele>262.4</ele>
        <time>2020-06-26T13:32:01Z</time>
      </trkpt>
      <trkpt lat="49.56894" lon="6.1598">
        <ele>262.5</ele>
        <time>2020-06-26T13:32:02Z</time>
      </trkpt>
      <trkpt lat="49.56895" lon="6.15988">
        <ele>262.5</ele>
        <time>2020-06-26T13:32:03Z</time>
      </trkpt>
      <trkpt lat="49.56895" lon="6.15995">
        <ele>262.6</ele>
        <time>2020-06-26T13:32:04Z</time>
      </trkpt>
      <trkpt lat="49.56896" lon="6.16002">
        <ele>262.6</ele>
        <time>2020-06-26T13:32:05Z</time>
      </trkpt>
      <trkpt lat="49.56896" lon="6.16009">
        <ele>262.7</ele>
        <time>2020-06-26T13:32:06Z</time>
      </trkpt>
      <trkpt lat="49.56897" lon="6.16016">
        <ele>262.7</ele>
        <time>2020-06-26T13:32:07Z</time>
      </trkpt>
      <trkpt lat="49.56898" lon="6.16023">
        <ele>262.7</ele>
        <time>2020-06-26T13:32:08Z</time>
      </trkpt>
      <trkpt lat="49.56898" lon="6.1603">
        <ele>263</ele>
        <time>2020-06-26T13:32:09Z</time>
      </trkpt>
      <trkpt lat="49.56899" lon="6.16037">
        <ele>263.2</ele>
        <time>2020-06-26T13:32:10Z</time>
      </trkpt>
      <trkpt lat="49.56899" lon="6.16043">
        <ele>263.4</ele>
        <time>2020-06-26T13:32:11Z</time>
      </trkpt>
      <trkpt lat="49.569" lon="6.16049">
        <ele>263.5</ele>
        <time>2020-06-26T13:32:12Z</time>
      </trkpt>
      <trkpt lat="49.56901" lon="6.16055">
        <ele>263.7</ele>
        <time>2020-06-26T13:32:13Z</time>
      </trkpt>
      <trkpt lat="49.56902" lon="6.16061">
        <ele>263.9</ele>
        <time>2020-06-26T13:32:14Z</time>
      </trkpt>
      <trkpt lat="49.56902" lon="6.16067">
        <ele>264</ele>
        <time>2020-06-26T13:32:15Z</time>
      </trkpt>
      <trkpt lat="49.56903" lon="6.16072">
        <ele>264.2</ele>
        <time>2020-06-26T13:32:16Z</time>
      </trkpt>
      <trkpt lat="49.56904" lon="6.16077">
        <ele>264.4</ele>
        <time>2020-06-26T13:32:17Z</time>
      </trkpt>
      <trkpt lat="49.56904" lon="6.16082">
        <ele>264.9</ele>
        <time>2020-06-26T13:32:18Z</time>
      </trkpt>
      <trkpt lat="49.56903" lon="6.16084">
        <ele>264.9</ele>
        <time>2020-06-26T13:32:19Z</time>
      </trkpt>
      <trkpt lat="49.56902" lon="6.16086">
        <ele>264.9</ele>
        <time>2020-06-26T13:32:20Z</time>
      </trkpt>
      <trkpt lat="49.56901" lon="6.16088">
        <ele>264.9</ele>
        <time>2020-06-26T13:32:21Z</time>
      </trkpt>
      <trkpt lat="49.56901" lon="6.16089">
        <ele>264.9</ele>
        <time>2020-06-26T13:32:22Z</time>
      </trkpt>
      <trkpt lat="49.569" lon="6.1609">
        <ele>264.9</ele>
        <time>2020-06-26T13:32:23Z</time>
      </trkpt>
      <trkpt lat="49.569" lon="6.16092">
        <ele>265</ele>
        <time>2020-06-26T13:32:24Z</time>
      </trkpt>
      <trkpt lat="49.56898" lon="6.16092">
        <ele>265</ele>
        <time>2020-06-26T13:32:25Z</time>
      </trkpt>
      <trkpt lat="49.56897" lon="6.16093">
        <ele>265.4</ele>
        <time>2020-06-26T13:32:26Z</time>
      </trkpt>
      <trkpt lat="49.56893" lon="6.16094">
        <ele>265.5</ele>
        <time>2020-06-26T13:32:27Z</time>
      </trkpt>
      <trkpt lat="49.56892" lon="6.16094">
        <ele>265.5</ele>
        <time>2020-06-26T13:32:28Z</time>
      </trkpt>
      <trkpt lat="49.56888" lon="6.16095">
        <ele>265.7</ele>
        <time>2020-06-26T13:32:29Z</time>
      </trkpt>
      <trkpt lat="49.56885" lon="6.16096">
        <ele>265.7</ele>
        <time>2020-06-26T13:32:30Z</time>
      </trkpt>
      <trkpt lat="49.56881" lon="6.16097">
        <ele>265.7</ele>
        <time>2020-06-26T13:32:31Z</time>
      </trkpt>
      <trkpt lat="49.56877" lon="6.16097">
        <ele>265.7</ele>
        <time>2020-06-26T13:32:32Z</time>
      </trkpt>
      <trkpt lat="49.56872" lon="6.16097">
        <ele>265.7</ele>
        <time>2020-06-26T13:32:33Z</time>
      </trkpt>
      <trkpt lat="49.56868" lon="6.16097">
        <ele>265.7</ele>
        <time>2020-06-26T13:32:34Z</time>
      </trkpt>
      <trkpt lat="49.56863" lon="6.16098">
        <ele>265.7</ele>
        <time>2020-06-26T13:32:35Z</time>
      </trkpt>
      <trkpt lat="49.56859" lon="6.16099">
        <ele>265.7</ele>
        <time>2020-06-26T13:32:36Z</time>
      </trkpt>
      <trkpt lat="49.56854" lon="6.16098">
        <ele>265.8</ele>
        <time>2020-06-26T13:32:37Z</time>
      </trkpt>
      <trkpt lat="49.56849" lon="6.16098">
        <ele>265.8</ele>
        <time>2020-06-26T13:32:38Z</time>
      </trkpt>
      <trkpt lat="49.56845" lon="6.16099">
        <ele>265.8</ele>
        <time>2020-06-26T13:32:39Z</time>
      </trkpt>
      <trkpt lat="49.5684" lon="6.161">
        <ele>265.9</ele>
        <time>2020-06-26T13:32:40Z</time>
      </trkpt>
      <trkpt lat="49.56836" lon="6.161">
        <ele>265.9</ele>
        <time>2020-06-26T13:32:41Z</time>
      </trkpt>
      <trkpt lat="49.56832" lon="6.161">
        <ele>266</ele>
        <time>2020-06-26T13:32:42Z</time>
      </trkpt>
      <trkpt lat="49.56828" lon="6.161">
        <ele>266</ele>
        <time>2020-06-26T13:32:43Z</time>
      </trkpt>
      <trkpt lat="49.56825" lon="6.161">
        <ele>266.1</ele>
        <time>2020-06-26T13:32:44Z</time>
      </trkpt>
      <trkpt lat="49.56821" lon="6.16101">
        <ele>266.1</ele>
        <time>2020-06-26T13:32:45Z</time>
      </trkpt>
      <trkpt lat="49.5682" lon="6.16101">
        <ele>266.1</ele>
        <time>2020-06-26T13:32:46Z</time>
      </trkpt>
      <trkpt lat="49.56816" lon="6.16101">
        <ele>266.1</ele>
        <time>2020-06-26T13:32:47Z</time>
      </trkpt>
      <trkpt lat="49.56813" lon="6.16101">
        <ele>266.1</ele>
        <time>2020-06-26T13:32:48Z</time>
      </trkpt>
      <trkpt lat="49.56809" lon="6.16101">
        <ele>266.1</ele>
        <time>2020-06-26T13:32:49Z</time>
      </trkpt>
      <trkpt lat="49.56804" lon="6.16101">
        <ele>266.1</ele>
        <time>2020-06-26T13:32:50Z</time>
      </trkpt>
      <trkpt lat="49.56799" lon="6.161">
        <ele>266</ele>
        <time>2020-06-26T13:32:51Z</time>
      </trkpt>
      <trkpt lat="49.56792" lon="6.161">
        <ele>266</ele>
        <time>2020-06-26T13:32:52Z</time>
      </trkpt>
      <trkpt lat="49.56787" lon="6.161">
        <ele>266</ele>
        <time>2020-06-26T13:32:53Z</time>
      </trkpt>
      <trkpt lat="49.56783" lon="6.161">
        <ele>266</ele>
        <time>2020-06-26T13:32:54Z</time>
      </trkpt>
      <trkpt lat="49.56779" lon="6.161">
        <ele>266</ele>
        <time>2020-06-26T13:32:55Z</time>
      </trkpt>
      <trkpt lat="49.56774" lon="6.161">
        <ele>266</ele>
        <time>2020-06-26T13:32:56Z</time>
      </trkpt>
      <trkpt lat="49.56768" lon="6.161">
        <ele>266</ele>
        <time>2020-06-26T13:32:57Z</time>
      </trkpt>
      <trkpt lat="49.56762" lon="6.161">
        <ele>266</ele>
        <time>2020-06-26T13:32:58Z</time>
      </trkpt>
      <trkpt lat="49.56758" lon="6.16101">
        <ele>266</ele>
        <time>2020-06-26T13:32:59Z</time>
      </trkpt>
      <trkpt lat="49.56752" lon="6.16101">
        <ele>265.9</ele>
        <time>2020-06-26T13:33:00Z</time>
      </trkpt>
      <trkpt lat="49.56747" lon="6.161">
        <ele>265.9</ele>
        <time>2020-06-26T13:33:01Z</time>
      </trkpt>
      <trkpt lat="49.56742" lon="6.16101">
        <ele>265.9</ele>
        <time>2020-06-26T13:33:02Z</time>
      </trkpt>
      <trkpt lat="49.56736" lon="6.16101">
        <ele>265.8</ele>
        <time>2020-06-26T13:33:03Z</time>
      </trkpt>
      <trkpt lat="49.5673" lon="6.16102">
        <ele>265.8</ele>
        <time>2020-06-26T13:33:04Z</time>
      </trkpt>
      <trkpt lat="49.56724" lon="6.16102">
        <ele>265.8</ele>
        <time>2020-06-26T13:33:05Z</time>
      </trkpt>
      <trkpt lat="49.56718" lon="6.16102">
        <ele>265.8</ele>
        <time>2020-06-26T13:33:06Z</time>
      </trkpt>
      <trkpt lat="49.56713" lon="6.16102">
        <ele>265.7</ele>
        <time>2020-06-26T13:33:07Z</time>
      </trkpt>
      <trkpt lat="49.56708" lon="6.16102">
        <ele>265.6</ele>
        <time>2020-06-26T13:33:08Z</time>
      </trkpt>
      <trkpt lat="49.56702" lon="6.16103">
        <ele>265.5</ele>
        <time>2020-06-26T13:33:09Z</time>
      </trkpt>
      <trkpt lat="49.56696" lon="6.16104">
        <ele>265.5</ele>
        <time>2020-06-26T13:33:10Z</time>
      </trkpt>
      <trkpt lat="49.56691" lon="6.16105">
        <ele>265.4</ele>
        <time>2020-06-26T13:33:11Z</time>
      </trkpt>
      <trkpt lat="49.56686" lon="6.16106">
        <ele>265.3</ele>
        <time>2020-06-26T13:33:12Z</time>
      </trkpt>
      <trkpt lat="49.5668" lon="6.16107">
        <ele>265.3</ele>
        <time>2020-06-26T13:33:13Z</time>
      </trkpt>
      <trkpt lat="49.56675" lon="6.16108">
        <ele>265.3</ele>
        <time>2020-06-26T13:33:14Z</time>
      </trkpt>
      <trkpt lat="49.5667" lon="6.16108">
        <ele>265.2</ele>
        <time>2020-06-26T13:33:15Z</time>
      </trkpt>
      <trkpt lat="49.56664" lon="6.1611">
        <ele>265.2</ele>
        <time>2020-06-26T13:33:16Z</time>
      </trkpt>
      <trkpt lat="49.56659" lon="6.16112">
        <ele>265.2</ele>
        <time>2020-06-26T13:33:17Z</time>
      </trkpt>
      <trkpt lat="49.56652" lon="6.16114">
        <ele>265.2</ele>
        <time>2020-06-26T13:33:18Z</time>
      </trkpt>
      <trkpt lat="49.56646" lon="6.16116">
        <ele>265.2</ele>
        <time>2020-06-26T13:33:19Z</time>
      </trkpt>
      <trkpt lat="49.56639" lon="6.16118">
        <ele>265.2</ele>
        <time>2020-06-26T13:33:20Z</time>
      </trkpt>
      <trkpt lat="49.56632" lon="6.1612">
        <ele>265.1</ele>
        <time>2020-06-26T13:33:21Z</time>
      </trkpt>
      <trkpt lat="49.56626" lon="6.16123">
        <ele>265.1</ele>
        <time>2020-06-26T13:33:22Z</time>
      </trkpt>
      <trkpt lat="49.56619" lon="6.16125">
        <ele>265</ele>
        <time>2020-06-26T13:33:23Z</time>
      </trkpt>
      <trkpt lat="49.56612" lon="6.16127">
        <ele>264.9</ele>
        <time>2020-06-26T13:33:24Z</time>
      </trkpt>
      <trkpt lat="49.56606" lon="6.16129">
        <ele>264.9</ele>
        <time>2020-06-26T13:33:25Z</time>
      </trkpt>
      <trkpt lat="49.56601" lon="6.16132">
        <ele>264.8</ele>
        <time>2020-06-26T13:33:26Z</time>
      </trkpt>
      <trkpt lat="49.56595" lon="6.16135">
        <ele>264.8</ele>
        <time>2020-06-26T13:33:27Z</time>
      </trkpt>
      <trkpt lat="49.56588" lon="6.16138">
        <ele>264.8</ele>
        <time>2020-06-26T13:33:28Z</time>
      </trkpt>
      <trkpt lat="49.56582" lon="6.16141">
        <ele>264.7</ele>
        <time>2020-06-26T13:33:29Z</time>
      </trkpt>
      <trkpt lat="49.56576" lon="6.16144">
        <ele>264.7</ele>
        <time>2020-06-26T13:33:30Z</time>
      </trkpt>
      <trkpt lat="49.5657" lon="6.16147">
        <ele>264.6</ele>
        <time>2020-06-26T13:33:31Z</time>
      </trkpt>
      <trkpt lat="49.56565" lon="6.1615">
        <ele>264.6</ele>
        <time>2020-06-26T13:33:32Z</time>
      </trkpt>
      <trkpt lat="49.56558" lon="6.16153">
        <ele>264.6</ele>
        <time>2020-06-26T13:33:33Z</time>
      </trkpt>
      <trkpt lat="49.56552" lon="6.16157">
        <ele>264.7</ele>
        <time>2020-06-26T13:33:34Z</time>
      </trkpt>
      <trkpt lat="49.56546" lon="6.16161">
        <ele>264.7</ele>
        <time>2020-06-26T13:33:35Z</time>
      </trkpt>
      <trkpt lat="49.5654" lon="6.16164">
        <ele>264.7</ele>
        <time>2020-06-26T13:33:36Z</time>
      </trkpt>
      <trkpt lat="49.56534" lon="6.16168">
        <ele>264.7</ele>
        <time>2020-06-26T13:33:37Z</time>
      </trkpt>
      <trkpt lat="49.56528" lon="6.16172">
        <ele>264.7</ele>
        <time>2020-06-26T13:33:38Z</time>
      </trkpt>
      <trkpt lat="49.56522" lon="6.16176">
        <ele>264.7</ele>
        <time>2020-06-26T13:33:39Z</time>
      </trkpt>
      <trkpt lat="49.56517" lon="6.16179">
        <ele>264.8</ele>
        <time>2020-06-26T13:33:40Z</time>
      </trkpt>
      <trkpt lat="49.56511" lon="6.16183">
        <ele>264.8</ele>
        <time>2020-06-26T13:33:41Z</time>
      </trkpt>
      <trkpt lat="49.56506" lon="6.16186">
        <ele>264.8</ele>
        <time>2020-06-26T13:33:42Z</time>
      </trkpt>
      <trkpt lat="49.56499" lon="6.16191">
        <ele>264.9</ele>
        <time>2020-06-26T13:33:43Z</time>
      </trkpt>
      <trkpt lat="49.56493" lon="6.16195">
        <ele>264.9</ele>
        <time>2020-06-26T13:33:44Z</time>
      </trkpt>
      <trkpt lat="49.56489" lon="6.16199">
        <ele>265</ele>
        <time>2020-06-26T13:33:45Z</time>
      </trkpt>
      <trkpt lat="49.56484" lon="6.16203">
        <ele>265</ele>
        <time>2020-06-26T13:33:46Z</time>
      </trkpt>
      <trkpt lat="49.5648" lon="6.16207">
        <ele>265.1</ele>
        <time>2020-06-26T13:33:47Z</time>
      </trkpt>
      <trkpt lat="49.56475" lon="6.16213">
        <ele>265.1</ele>
        <time>2020-06-26T13:33:48Z</time>
      </trkpt>
      <trkpt lat="49.5647" lon="6.16217">
        <ele>265.2</ele>
        <time>2020-06-26T13:33:49Z</time>
      </trkpt>
      <trkpt lat="49.56465" lon="6.16221">
        <ele>265.3</ele>
        <time>2020-06-26T13:33:50Z</time>
      </trkpt>
      <trkpt lat="49.56461" lon="6.16226">
        <ele>265.3</ele>
        <time>2020-06-26T13:33:51Z</time>
      </trkpt>
      <trkpt lat="49.56456" lon="6.16229">
        <ele>265.4</ele>
        <time>2020-06-26T13:33:52Z</time>
      </trkpt>
      <trkpt lat="49.56452" lon="6.16232">
        <ele>265.6</ele>
        <time>2020-06-26T13:33:53Z</time>
      </trkpt>
      <trkpt lat="49.56448" lon="6.16236">
        <ele>265.7</ele>
        <time>2020-06-26T13:33:54Z</time>
      </trkpt>
      <trkpt lat="49.56443" lon="6.1624">
        <ele>265.8</ele>
        <time>2020-06-26T13:33:55Z</time>
      </trkpt>
      <trkpt lat="49.56439" lon="6.16244">
        <ele>265.8</ele>
        <time>2020-06-26T13:33:56Z</time>
      </trkpt>
      <trkpt lat="49.56434" lon="6.16249">
        <ele>265.9</ele>
        <time>2020-06-26T13:33:57Z</time>
      </trkpt>
      <trkpt lat="49.5643" lon="6.16252">
        <ele>266</ele>
        <time>2020-06-26T13:33:58Z</time>
      </trkpt>
      <trkpt lat="49.56425" lon="6.16256">
        <ele>266.1</ele>
        <time>2020-06-26T13:33:59Z</time>
      </trkpt>
      <trkpt lat="49.56421" lon="6.1626">
        <ele>266.2</ele>
        <time>2020-06-26T13:34:00Z</time>
      </trkpt>
      <trkpt lat="49.56416" lon="6.16265">
        <ele>266.3</ele>
        <time>2020-06-26T13:34:01Z</time>
      </trkpt>
      <trkpt lat="49.56412" lon="6.16269">
        <ele>266.5</ele>
        <time>2020-06-26T13:34:02Z</time>
      </trkpt>
      <trkpt lat="49.56408" lon="6.16273">
        <ele>266.6</ele>
        <time>2020-06-26T13:34:03Z</time>
      </trkpt>
      <trkpt lat="49.56404" lon="6.16277">
        <ele>266.7</ele>
        <time>2020-06-26T13:34:04Z</time>
      </trkpt>
      <trkpt lat="49.564" lon="6.1628">
        <ele>266.9</ele>
        <time>2020-06-26T13:34:05Z</time>
      </trkpt>
      <trkpt lat="49.56395" lon="6.16285">
        <ele>267</ele>
        <time>2020-06-26T13:34:06Z</time>
      </trkpt>
      <trkpt lat="49.5639" lon="6.1629">
        <ele>267.2</ele>
        <time>2020-06-26T13:34:07Z</time>
      </trkpt>
      <trkpt lat="49.56386" lon="6.16295">
        <ele>267.4</ele>
        <time>2020-06-26T13:34:08Z</time>
      </trkpt>
      <trkpt lat="49.56381" lon="6.16299">
        <ele>267.6</ele>
        <time>2020-06-26T13:34:09Z</time>
      </trkpt>
      <trkpt lat="49.56377" lon="6.16303">
        <ele>267.8</ele>
        <time>2020-06-26T13:34:10Z</time>
      </trkpt>
      <trkpt lat="49.56373" lon="6.16306">
        <ele>267.8</ele>
        <time>2020-06-26T13:34:11Z</time>
      </trkpt>
      <trkpt lat="49.56369" lon="6.1631">
        <ele>267.9</ele>
        <time>2020-06-26T13:34:12Z</time>
      </trkpt>
      <trkpt lat="49.56365" lon="6.16314">
        <ele>267.9</ele>
        <time>2020-06-26T13:34:13Z</time>
      </trkpt>
      <trkpt lat="49.56361" lon="6.16318">
        <ele>268</ele>
        <time>2020-06-26T13:34:14Z</time>
      </trkpt>
      <trkpt lat="49.56356" lon="6.16322">
        <ele>268.1</ele>
        <time>2020-06-26T13:34:15Z</time>
      </trkpt>
      <trkpt lat="49.56352" lon="6.16326">
        <ele>268.2</ele>
        <time>2020-06-26T13:34:16Z</time>
      </trkpt>
      <trkpt lat="49.56348" lon="6.16329">
        <ele>268.3</ele>
        <time>2020-06-26T13:34:17Z</time>
      </trkpt>
      <trkpt lat="49.56344" lon="6.16333">
        <ele>268.4</ele>
        <time>2020-06-26T13:34:18Z</time>
      </trkpt>
      <trkpt lat="49.5634" lon="6.16336">
        <ele>268.5</ele>
        <time>2020-06-26T13:34:19Z</time>
      </trkpt>
      <trkpt lat="49.56335" lon="6.1634">
        <ele>268.7</ele>
        <time>2020-06-26T13:34:20Z</time>
      </trkpt>
      <trkpt lat="49.56331" lon="6.16344">
        <ele>268.8</ele>
        <time>2020-06-26T13:34:21Z</time>
      </trkpt>
      <trkpt lat="49.56327" lon="6.16347">
        <ele>268.9</ele>
        <time>2020-06-26T13:34:22Z</time>
      </trkpt>
      <trkpt lat="49.56324" lon="6.16349">
        <ele>269</ele>
        <time>2020-06-26T13:34:23Z</time>
      </trkpt>
      <trkpt lat="49.5632" lon="6.16351">
        <ele>269</ele>
        <time>2020-06-26T13:34:24Z</time>
      </trkpt>
      <trkpt lat="49.56317" lon="6.16352">
        <ele>269.1</ele>
        <time>2020-06-26T13:34:25Z</time>
      </trkpt>
      <trkpt lat="49.56314" lon="6.16351">
        <ele>269.2</ele>
        <time>2020-06-26T13:34:26Z</time>
      </trkpt>
      <trkpt lat="49.56311" lon="6.1635">
        <ele>269.3</ele>
        <time>2020-06-26T13:34:27Z</time>
      </trkpt>
      <trkpt lat="49.5631" lon="6.16351">
        <ele>269.4</ele>
        <time>2020-06-26T13:34:28Z</time>
      </trkpt>
      <trkpt lat="49.56309" lon="6.16351">
        <ele>269.4</ele>
        <time>2020-06-26T13:34:29Z</time>
      </trkpt>
      <trkpt lat="49.56307" lon="6.16353">
        <ele>269.5</ele>
        <time>2020-06-26T13:34:30Z</time>
      </trkpt>
      <trkpt lat="49.56305" lon="6.16358">
        <ele>269.7</ele>
        <time>2020-06-26T13:34:31Z</time>
      </trkpt>
      <trkpt lat="49.56304" lon="6.1636">
        <ele>269.7</ele>
        <time>2020-06-26T13:34:32Z</time>
      </trkpt>
      <trkpt lat="49.563" lon="6.16363">
        <ele>269.9</ele>
        <time>2020-06-26T13:34:33Z</time>
      </trkpt>
      <trkpt lat="49.56299" lon="6.16364">
        <ele>269.9</ele>
        <time>2020-06-26T13:34:34Z</time>
      </trkpt>
      <trkpt lat="49.56296" lon="6.16366">
        <ele>270.1</ele>
        <time>2020-06-26T13:34:35Z</time>
      </trkpt>
      <trkpt lat="49.56293" lon="6.16369">
        <ele>270.2</ele>
        <time>2020-06-26T13:34:36Z</time>
      </trkpt>
      <trkpt lat="49.56289" lon="6.16372">
        <ele>270.3</ele>
        <time>2020-06-26T13:34:37Z</time>
      </trkpt>
      <trkpt lat="49.56285" lon="6.16375">
        <ele>270.5</ele>
        <time>2020-06-26T13:34:38Z</time>
      </trkpt>
      <trkpt lat="49.56284" lon="6.16377">
        <ele>270.6</ele>
        <time>2020-06-26T13:34:39Z</time>
      </trkpt>
      <trkpt lat="49.5628" lon="6.1638">
        <ele>270.7</ele>
        <time>2020-06-26T13:34:40Z</time>
      </trkpt>
      <trkpt lat="49.56279" lon="6.16382">
        <ele>270.8</ele>
        <time>2020-06-26T13:34:41Z</time>
      </trkpt>
      <trkpt lat="49.56276" lon="6.16384">
        <ele>270.9</ele>
        <time>2020-06-26T13:34:42Z</time>
      </trkpt>
      <trkpt lat="49.56272" lon="6.16387">
        <ele>271</ele>
        <time>2020-06-26T13:34:43Z</time>
      </trkpt>
      <trkpt lat="49.5627" lon="6.16389">
        <ele>271.2</ele>
        <time>2020-06-26T13:34:44Z</time>
      </trkpt>
      <trkpt lat="49.56266" lon="6.16392">
        <ele>271.3</ele>
        <time>2020-06-26T13:34:45Z</time>
      </trkpt>
      <trkpt lat="49.56263" lon="6.16395">
        <ele>271.5</ele>
        <time>2020-06-26T13:34:46Z</time>
      </trkpt>
      <trkpt lat="49.5626" lon="6.164">
        <ele>271.7</ele>
        <time>2020-06-26T13:34:47Z</time>
      </trkpt>
      <trkpt lat="49.56255" lon="6.16404">
        <ele>271.9</ele>
        <time>2020-06-26T13:34:48Z</time>
      </trkpt>
      <trkpt lat="49.5625" lon="6.16408">
        <ele>272.1</ele>
        <time>2020-06-26T13:34:49Z</time>
      </trkpt>
      <trkpt lat="49.56245" lon="6.16412">
        <ele>272.3</ele>
        <time>2020-06-26T13:34:50Z</time>
      </trkpt>
      <trkpt lat="49.56239" lon="6.16416">
        <ele>272.6</ele>
        <time>2020-06-26T13:34:51Z</time>
      </trkpt>
      <trkpt lat="49.56235" lon="6.1642">
        <ele>272.8</ele>
        <time>2020-06-26T13:34:52Z</time>
      </trkpt>
      <trkpt lat="49.56231" lon="6.16425">
        <ele>273.1</ele>
        <time>2020-06-26T13:34:53Z</time>
      </trkpt>
      <trkpt lat="49.56228" lon="6.16428">
        <ele>273.2</ele>
        <time>2020-06-26T13:34:54Z</time>
      </trkpt>
      <trkpt lat="49.56225" lon="6.16431">
        <ele>273.4</ele>
        <time>2020-06-26T13:34:55Z</time>
      </trkpt>
      <trkpt lat="49.56222" lon="6.16435">
        <ele>273.6</ele>
        <time>2020-06-26T13:34:56Z</time>
      </trkpt>
      <trkpt lat="49.56219" lon="6.16438">
        <ele>273.7</ele>
        <time>2020-06-26T13:34:57Z</time>
      </trkpt>
      <trkpt lat="49.56216" lon="6.16441">
        <ele>273.9</ele>
        <time>2020-06-26T13:34:58Z</time>
      </trkpt>
      <trkpt lat="49.56213" lon="6.16443">
        <ele>274</ele>
        <time>2020-06-26T13:34:59Z</time>
      </trkpt>
      <trkpt lat="49.56209" lon="6.16446">
        <ele>274.2</ele>
        <time>2020-06-26T13:35:00Z</time>
      </trkpt>
      <trkpt lat="49.56205" lon="6.16451">
        <ele>274.4</ele>
        <time>2020-06-26T13:35:01Z</time>
      </trkpt>
      <trkpt lat="49.56202" lon="6.16454">
        <ele>274.6</ele>
        <time>2020-06-26T13:35:02Z</time>
      </trkpt>
      <trkpt lat="49.56197" lon="6.16458">
        <ele>274.8</ele>
        <time>2020-06-26T13:35:03Z</time>
      </trkpt>
      <trkpt lat="49.56193" lon="6.16461">
        <ele>274.9</ele>
        <time>2020-06-26T13:35:04Z</time>
      </trkpt>
      <trkpt lat="49.5619" lon="6.16465">
        <ele>275.1</ele>
        <time>2020-06-26T13:35:05Z</time>
      </trkpt>
      <trkpt lat="49.56185" lon="6.16468">
        <ele>275.3</ele>
        <time>2020-06-26T13:35:06Z</time>
      </trkpt>
      <trkpt lat="49.56182" lon="6.16471">
        <ele>275.4</ele>
        <time>2020-06-26T13:35:07Z</time>
      </trkpt>
      <trkpt lat="49.56179" lon="6.16474">
        <ele>275.6</ele>
        <time>2020-06-26T13:35:08Z</time>
      </trkpt>
      <trkpt lat="49.56177" lon="6.16477">
        <ele>275.7</ele>
        <time>2020-06-26T13:35:09Z</time>
      </trkpt>
      <trkpt lat="49.56174" lon="6.1648">
        <ele>275.8</ele>
        <time>2020-06-26T13:35:10Z</time>
      </trkpt>
      <trkpt lat="49.56171" lon="6.16482">
        <ele>276</ele>
        <time>2020-06-26T13:35:11Z</time>
      </trkpt>
      <trkpt lat="49.56167" lon="6.16485">
        <ele>276.1</ele>
        <time>2020-06-26T13:35:12Z</time>
      </trkpt>
      <trkpt lat="49.56165" lon="6.16487">
        <ele>276.2</ele>
        <time>2020-06-26T13:35:13Z</time>
      </trkpt>
      <trkpt lat="49.56164" lon="6.16488">
        <ele>276.3</ele>
        <time>2020-06-26T13:35:14Z</time>
      </trkpt>
      <trkpt lat="49.56162" lon="6.16489">
        <ele>276.3</ele>
        <time>2020-06-26T13:35:15Z</time>
      </trkpt>
      <trkpt lat="49.56162" lon="6.1649">
        <ele>276.4</ele>
        <time>2020-06-26T13:35:16Z</time>
      </trkpt>
      <trkpt lat="49.56161" lon="6.1649">
        <ele>276.4</ele>
        <time>2020-06-26T13:35:17Z</time>
      </trkpt>
      <trkpt lat="49.56158" lon="6.16492">
        <ele>276.6</ele>
        <time>2020-06-26T13:35:18Z</time>
      </trkpt>
      <trkpt lat="49.56157" lon="6.16493">
        <ele>276.6</ele>
        <time>2020-06-26T13:35:19Z</time>
      </trkpt>
      <trkpt lat="49.56155" lon="6.16496">
        <ele>276.8</ele>
        <time>2020-06-26T13:35:20Z</time>
      </trkpt>
      <trkpt lat="49.5615" lon="6.16499">
        <ele>277</ele>
        <time>2020-06-26T13:35:21Z</time>
      </trkpt>
      <trkpt lat="49.56146" lon="6.16503">
        <ele>277.3</ele>
        <time>2020-06-26T13:35:22Z</time>
      </trkpt>
      <trkpt lat="49.56141" lon="6.16507">
        <ele>277.5</ele>
        <time>2020-06-26T13:35:23Z</time>
      </trkpt>
      <trkpt lat="49.56136" lon="6.16511">
        <ele>277.7</ele>
        <time>2020-06-26T13:35:24Z</time>
      </trkpt>
      <trkpt lat="49.56134" lon="6.16515">
        <ele>277.8</ele>
        <time>2020-06-26T13:35:25Z</time>
      </trkpt>
      <trkpt lat="49.56131" lon="6.16519">
        <ele>278</ele>
        <time>2020-06-26T13:35:26Z</time>
      </trkpt>
      <trkpt lat="49.56129" lon="6.16522">
        <ele>278.1</ele>
        <time>2020-06-26T13:35:27Z</time>
      </trkpt>
      <trkpt lat="49.56126" lon="6.16525">
        <ele>278.2</ele>
        <time>2020-06-26T13:35:28Z</time>
      </trkpt>
      <trkpt lat="49.56123" lon="6.16529">
        <ele>278.3</ele>
        <time>2020-06-26T13:35:29Z</time>
      </trkpt>
      <trkpt lat="49.5612" lon="6.16531">
        <ele>278.4</ele>
        <time>2020-06-26T13:35:30Z</time>
      </trkpt>
      <trkpt lat="49.56116" lon="6.16535">
        <ele>278.5</ele>
        <time>2020-06-26T13:35:31Z</time>
      </trkpt>
      <trkpt lat="49.56112" lon="6.16539">
        <ele>278.7</ele>
        <time>2020-06-26T13:35:32Z</time>
      </trkpt>
      <trkpt lat="49.56111" lon="6.1654">
        <ele>278.8</ele>
        <time>2020-06-26T13:35:33Z</time>
      </trkpt>
      <trkpt lat="49.56108" lon="6.16543">
        <ele>278.9</ele>
        <time>2020-06-26T13:35:34Z</time>
      </trkpt>
      <trkpt lat="49.56104" lon="6.16546">
        <ele>279.1</ele>
        <time>2020-06-26T13:35:35Z</time>
      </trkpt>
      <trkpt lat="49.56101" lon="6.16549">
        <ele>279.2</ele>
        <time>2020-06-26T13:35:36Z</time>
      </trkpt>
      <trkpt lat="49.56096" lon="6.16553">
        <ele>279.4</ele>
        <time>2020-06-26T13:35:37Z</time>
      </trkpt>
      <trkpt lat="49.56093" lon="6.16556">
        <ele>279.6</ele>
        <time>2020-06-26T13:35:38Z</time>
      </trkpt>
      <trkpt lat="49.56089" lon="6.16559">
        <ele>279.7</ele>
        <time>2020-06-26T13:35:39Z</time>
      </trkpt>
      <trkpt lat="49.56086" lon="6.16562">
        <ele>279.9</ele>
        <time>2020-06-26T13:35:40Z</time>
      </trkpt>
      <trkpt lat="49.56083" lon="6.16564">
        <ele>280</ele>
        <time>2020-06-26T13:35:41Z</time>
      </trkpt>
      <trkpt lat="49.5608" lon="6.16567">
        <ele>280.2</ele>
        <time>2020-06-26T13:35:42Z</time>
      </trkpt>
      <trkpt lat="49.56078" lon="6.16569">
        <ele>280.3</ele>
        <time>2020-06-26T13:35:43Z</time>
      </trkpt>
      <trkpt lat="49.56074" lon="6.16573">
        <ele>280.5</ele>
        <time>2020-06-26T13:35:44Z</time>
      </trkpt>
      <trkpt lat="49.56072" lon="6.16574">
        <ele>280.6</ele>
        <time>2020-06-26T13:35:45Z</time>
      </trkpt>
      <trkpt lat="49.56069" lon="6.16577">
        <ele>280.8</ele>
        <time>2020-06-26T13:35:46Z</time>
      </trkpt>
      <trkpt lat="49.56065" lon="6.1658">
        <ele>280.9</ele>
        <time>2020-06-26T13:35:47Z</time>
      </trkpt>
      <trkpt lat="49.56062" lon="6.16583">
        <ele>281.1</ele>
        <time>2020-06-26T13:35:48Z</time>
      </trkpt>
      <trkpt lat="49.56058" lon="6.16587">
        <ele>281.4</ele>
        <time>2020-06-26T13:35:49Z</time>
      </trkpt>
      <trkpt lat="49.56052" lon="6.16591">
        <ele>281.7</ele>
        <time>2020-06-26T13:35:50Z</time>
      </trkpt>
      <trkpt lat="49.56048" lon="6.16594">
        <ele>281.9</ele>
        <time>2020-06-26T13:35:51Z</time>
      </trkpt>
      <trkpt lat="49.56044" lon="6.16598">
        <ele>282.1</ele>
        <time>2020-06-26T13:35:52Z</time>
      </trkpt>
      <trkpt lat="49.56039" lon="6.16603">
        <ele>282.3</ele>
        <time>2020-06-26T13:35:53Z</time>
      </trkpt>
      <trkpt lat="49.56035" lon="6.16607">
        <ele>282.5</ele>
        <time>2020-06-26T13:35:54Z</time>
      </trkpt>
      <trkpt lat="49.56032" lon="6.1661">
        <ele>282.7</ele>
        <time>2020-06-26T13:35:55Z</time>
      </trkpt>
      <trkpt lat="49.56028" lon="6.16614">
        <ele>283</ele>
        <time>2020-06-26T13:35:56Z</time>
      </trkpt>
      <trkpt lat="49.56024" lon="6.16617">
        <ele>283.1</ele>
        <time>2020-06-26T13:35:57Z</time>
      </trkpt>
      <trkpt lat="49.56021" lon="6.1662">
        <ele>283.3</ele>
        <time>2020-06-26T13:35:58Z</time>
      </trkpt>
      <trkpt lat="49.56017" lon="6.16623">
        <ele>283.5</ele>
        <time>2020-06-26T13:35:59Z</time>
      </trkpt>
      <trkpt lat="49.56013" lon="6.16626">
        <ele>283.7</ele>
        <time>2020-06-26T13:36:00Z</time>
      </trkpt>
      <trkpt lat="49.56009" lon="6.16629">
        <ele>283.9</ele>
        <time>2020-06-26T13:36:01Z</time>
      </trkpt>
      <trkpt lat="49.56005" lon="6.16632">
        <ele>284.1</ele>
        <time>2020-06-26T13:36:02Z</time>
      </trkpt>
      <trkpt lat="49.56001" lon="6.16636">
        <ele>284.3</ele>
        <time>2020-06-26T13:36:03Z</time>
      </trkpt>
      <trkpt lat="49.55998" lon="6.16639">
        <ele>284.5</ele>
        <time>2020-06-26T13:36:04Z</time>
      </trkpt>
      <trkpt lat="49.55995" lon="6.16642">
        <ele>284.5</ele>
        <time>2020-06-26T13:36:05Z</time>
      </trkpt>
      <trkpt lat="49.55991" lon="6.16645">
        <ele>284.6</ele>
        <time>2020-06-26T13:36:06Z</time>
      </trkpt>
      <trkpt lat="49.55987" lon="6.16648">
        <ele>284.7</ele>
        <time>2020-06-26T13:36:07Z</time>
      </trkpt>
      <trkpt lat="49.55984" lon="6.16651">
        <ele>284.8</ele>
        <time>2020-06-26T13:36:08Z</time>
      </trkpt>
      <trkpt lat="49.55982" lon="6.16654">
        <ele>284.9</ele>
        <time>2020-06-26T13:36:09Z</time>
      </trkpt>
      <trkpt lat="49.55979" lon="6.16656">
        <ele>284.9</ele>
        <time>2020-06-26T13:36:10Z</time>
      </trkpt>
      <trkpt lat="49.55977" lon="6.1666">
        <ele>285</ele>
        <time>2020-06-26T13:36:11Z</time>
      </trkpt>
      <trkpt lat="49.55974" lon="6.16664">
        <ele>285.1</ele>
        <time>2020-06-26T13:36:12Z</time>
      </trkpt>
      <trkpt lat="49.55971" lon="6.16668">
        <ele>285.2</ele>
        <time>2020-06-26T13:36:13Z</time>
      </trkpt>
      <trkpt lat="49.55969" lon="6.16671">
        <ele>285.3</ele>
        <time>2020-06-26T13:36:14Z</time>
      </trkpt>
      <trkpt lat="49.55965" lon="6.16675">
        <ele>285.3</ele>
        <time>2020-06-26T13:36:15Z</time>
      </trkpt>
      <trkpt lat="49.5596" lon="6.1668">
        <ele>285.4</ele>
        <time>2020-06-26T13:36:16Z</time>
      </trkpt>
      <trkpt lat="49.55956" lon="6.16683">
        <ele>285.5</ele>
        <time>2020-06-26T13:36:17Z</time>
      </trkpt>
      <trkpt lat="49.55952" lon="6.16687">
        <ele>285.6</ele>
        <time>2020-06-26T13:36:18Z</time>
      </trkpt>
      <trkpt lat="49.55947" lon="6.16691">
        <ele>286</ele>
        <time>2020-06-26T13:36:19Z</time>
      </trkpt>
      <trkpt lat="49.55943" lon="6.16695">
        <ele>286.2</ele>
        <time>2020-06-26T13:36:20Z</time>
      </trkpt>
      <trkpt lat="49.55939" lon="6.16698">
        <ele>286.3</ele>
        <time>2020-06-26T13:36:21Z</time>
      </trkpt>
      <trkpt lat="49.55935" lon="6.16701">
        <ele>286.5</ele>
        <time>2020-06-26T13:36:22Z</time>
      </trkpt>
      <trkpt lat="49.55932" lon="6.16705">
        <ele>286.6</ele>
        <time>2020-06-26T13:36:23Z</time>
      </trkpt>
      <trkpt lat="49.55929" lon="6.16709">
        <ele>286.7</ele>
        <time>2020-06-26T13:36:24Z</time>
      </trkpt>
      <trkpt lat="49.55925" lon="6.16712">
        <ele>286.9</ele>
        <time>2020-06-26T13:36:25Z</time>
      </trkpt>
      <trkpt lat="49.55922" lon="6.16716">
        <ele>287</ele>
        <time>2020-06-26T13:36:26Z</time>
      </trkpt>
      <trkpt lat="49.55919" lon="6.16719">
        <ele>287.1</ele>
        <time>2020-06-26T13:36:27Z</time>
      </trkpt>
      <trkpt lat="49.55916" lon="6.16724">
        <ele>287.2</ele>
        <time>2020-06-26T13:36:28Z</time>
      </trkpt>
      <trkpt lat="49.55913" lon="6.16729">
        <ele>287.2</ele>
        <time>2020-06-26T13:36:29Z</time>
      </trkpt>
      <trkpt lat="49.55911" lon="6.16733">
        <ele>287.2</ele>
        <time>2020-06-26T13:36:30Z</time>
      </trkpt>
      <trkpt lat="49.55909" lon="6.1674">
        <ele>287.1</ele>
        <time>2020-06-26T13:36:31Z</time>
      </trkpt>
      <trkpt lat="49.5591" lon="6.16748">
        <ele>287</ele>
        <time>2020-06-26T13:36:32Z</time>
      </trkpt>
      <trkpt lat="49.5591" lon="6.16757">
        <ele>286.9</ele>
        <time>2020-06-26T13:36:33Z</time>
      </trkpt>
      <trkpt lat="49.5591" lon="6.16767">
        <ele>286.9</ele>
        <time>2020-06-26T13:36:34Z</time>
      </trkpt>
      <trkpt lat="49.55911" lon="6.16777">
        <ele>286.8</ele>
        <time>2020-06-26T13:36:35Z</time>
      </trkpt>
      <trkpt lat="49.55911" lon="6.16786">
        <ele>286.8</ele>
        <time>2020-06-26T13:36:36Z</time>
      </trkpt>
      <trkpt lat="49.55911" lon="6.16795">
        <ele>286.9</ele>
        <time>2020-06-26T13:36:37Z</time>
      </trkpt>
      <trkpt lat="49.55911" lon="6.16802">
        <ele>286.9</ele>
        <time>2020-06-26T13:36:38Z</time>
      </trkpt>
      <trkpt lat="49.5591" lon="6.16808">
        <ele>287</ele>
        <time>2020-06-26T13:36:39Z</time>
      </trkpt>
      <trkpt lat="49.55909" lon="6.16814">
        <ele>287.1</ele>
        <time>2020-06-26T13:36:40Z</time>
      </trkpt>
      <trkpt lat="49.55906" lon="6.16821">
        <ele>287.2</ele>
        <time>2020-06-26T13:36:41Z</time>
      </trkpt>
      <trkpt lat="49.55904" lon="6.16827">
        <ele>287.3</ele>
        <time>2020-06-26T13:36:42Z</time>
      </trkpt>
      <trkpt lat="49.55902" lon="6.16832">
        <ele>287.4</ele>
        <time>2020-06-26T13:36:43Z</time>
      </trkpt>
      <trkpt lat="49.559" lon="6.16837">
        <ele>287.5</ele>
        <time>2020-06-26T13:36:44Z</time>
      </trkpt>
      <trkpt lat="49.55898" lon="6.16842">
        <ele>287.6</ele>
        <time>2020-06-26T13:36:45Z</time>
      </trkpt>
      <trkpt lat="49.55896" lon="6.16847">
        <ele>287.7</ele>
        <time>2020-06-26T13:36:46Z</time>
      </trkpt>
      <trkpt lat="49.55894" lon="6.16854">
        <ele>287.8</ele>
        <time>2020-06-26T13:36:47Z</time>
      </trkpt>
      <trkpt lat="49.55892" lon="6.1686">
        <ele>288</ele>
        <time>2020-06-26T13:36:48Z</time>
      </trkpt>
      <trkpt lat="49.5589" lon="6.16866">
        <ele>288.1</ele>
        <time>2020-06-26T13:36:49Z</time>
      </trkpt>
      <trkpt lat="49.55888" lon="6.16872">
        <ele>288.2</ele>
        <time>2020-06-26T13:36:50Z</time>
      </trkpt>
      <trkpt lat="49.55886" lon="6.16877">
        <ele>288.3</ele>
        <time>2020-06-26T13:36:51Z</time>
      </trkpt>
      <trkpt lat="49.55883" lon="6.16885">
        <ele>288.4</ele>
        <time>2020-06-26T13:36:52Z</time>
      </trkpt>
      <trkpt lat="49.55881" lon="6.16891">
        <ele>288.5</ele>
        <time>2020-06-26T13:36:53Z</time>
      </trkpt>
      <trkpt lat="49.55879" lon="6.16897">
        <ele>288.6</ele>
        <time>2020-06-26T13:36:54Z</time>
      </trkpt>
      <trkpt lat="49.55877" lon="6.16903">
        <ele>288.6</ele>
        <time>2020-06-26T13:36:55Z</time>
      </trkpt>
      <trkpt lat="49.55875" lon="6.1691">
        <ele>288.7</ele>
        <time>2020-06-26T13:36:56Z</time>
      </trkpt>
      <trkpt lat="49.55873" lon="6.16916">
        <ele>288.8</ele>
        <time>2020-06-26T13:36:57Z</time>
      </trkpt>
      <trkpt lat="49.55872" lon="6.16923">
        <ele>288.9</ele>
        <time>2020-06-26T13:36:58Z</time>
      </trkpt>
      <trkpt lat="49.5587" lon="6.1693">
        <ele>289</ele>
        <time>2020-06-26T13:36:59Z</time>
      </trkpt>
      <trkpt lat="49.55867" lon="6.16937">
        <ele>289.1</ele>
        <time>2020-06-26T13:37:00Z</time>
      </trkpt>
      <trkpt lat="49.55865" lon="6.16944">
        <ele>289.2</ele>
        <time>2020-06-26T13:37:01Z</time>
      </trkpt>
      <trkpt lat="49.55862" lon="6.1695">
        <ele>289.3</ele>
        <time>2020-06-26T13:37:02Z</time>
      </trkpt>
      <trkpt lat="49.5586" lon="6.16958">
        <ele>289.4</ele>
        <time>2020-06-26T13:37:03Z</time>
      </trkpt>
      <trkpt lat="49.55858" lon="6.16966">
        <ele>289.4</ele>
        <time>2020-06-26T13:37:04Z</time>
      </trkpt>
      <trkpt lat="49.55857" lon="6.16973">
        <ele>289.5</ele>
        <time>2020-06-26T13:37:05Z</time>
      </trkpt>
      <trkpt lat="49.55855" lon="6.1698">
        <ele>289.6</ele>
        <time>2020-06-26T13:37:06Z</time>
      </trkpt>
      <trkpt lat="49.55853" lon="6.16988">
        <ele>289.7</ele>
        <time>2020-06-26T13:37:07Z</time>
      </trkpt>
      <trkpt lat="49.55852" lon="6.16996">
        <ele>289.7</ele>
        <time>2020-06-26T13:37:08Z</time>
      </trkpt>
      <trkpt lat="49.5585" lon="6.17004">
        <ele>289.8</ele>
        <time>2020-06-26T13:37:09Z</time>
      </trkpt>
      <trkpt lat="49.55849" lon="6.17012">
        <ele>290</ele>
        <time>2020-06-26T13:37:10Z</time>
      </trkpt>
      <trkpt lat="49.55848" lon="6.1702">
        <ele>290.1</ele>
        <time>2020-06-26T13:37:11Z</time>
      </trkpt>
      <trkpt lat="49.55847" lon="6.17027">
        <ele>290.2</ele>
        <time>2020-06-26T13:37:12Z</time>
      </trkpt>
      <trkpt lat="49.55845" lon="6.17035">
        <ele>290.3</ele>
        <time>2020-06-26T13:37:13Z</time>
      </trkpt>
      <trkpt lat="49.55844" lon="6.17043">
        <ele>290.4</ele>
        <time>2020-06-26T13:37:14Z</time>
      </trkpt>
      <trkpt lat="49.55842" lon="6.17051">
        <ele>290.5</ele>
        <time>2020-06-26T13:37:15Z</time>
      </trkpt>
      <trkpt lat="49.55841" lon="6.17059">
        <ele>290.6</ele>
        <time>2020-06-26T13:37:16Z</time>
      </trkpt>
      <trkpt lat="49.5584" lon="6.17067">
        <ele>290.8</ele>
        <time>2020-06-26T13:37:17Z</time>
      </trkpt>
      <trkpt lat="49.55839" lon="6.17075">
        <ele>290.9</ele>
        <time>2020-06-26T13:37:18Z</time>
      </trkpt>
      <trkpt lat="49.55838" lon="6.17084">
        <ele>291</ele>
        <time>2020-06-26T13:37:19Z</time>
      </trkpt>
      <trkpt lat="49.55836" lon="6.17093">
        <ele>291.2</ele>
        <time>2020-06-26T13:37:20Z</time>
      </trkpt>
      <trkpt lat="49.55835" lon="6.17101">
        <ele>291.4</ele>
        <time>2020-06-26T13:37:21Z</time>
      </trkpt>
      <trkpt lat="49.55833" lon="6.17111">
        <ele>291.6</ele>
        <time>2020-06-26T13:37:22Z</time>
      </trkpt>
      <trkpt lat="49.55832" lon="6.17121">
        <ele>291.8</ele>
        <time>2020-06-26T13:37:23Z</time>
      </trkpt>
      <trkpt lat="49.5583" lon="6.17128">
        <ele>292</ele>
        <time>2020-06-26T13:37:24Z</time>
      </trkpt>
      <trkpt lat="49.55828" lon="6.17136">
        <ele>292.1</ele>
        <time>2020-06-26T13:37:25Z</time>
      </trkpt>
      <trkpt lat="49.55827" lon="6.17144">
        <ele>292.3</ele>
        <time>2020-06-26T13:37:26Z</time>
      </trkpt>
      <trkpt lat="49.55824" lon="6.17152">
        <ele>292.5</ele>
        <time>2020-06-26T13:37:27Z</time>
      </trkpt>
      <trkpt lat="49.55822" lon="6.17159">
        <ele>292.7</ele>
        <time>2020-06-26T13:37:28Z</time>
      </trkpt>
      <trkpt lat="49.55819" lon="6.17167">
        <ele>292.8</ele>
        <time>2020-06-26T13:37:29Z</time>
      </trkpt>
      <trkpt lat="49.55816" lon="6.17175">
        <ele>293</ele>
        <time>2020-06-26T13:37:30Z</time>
      </trkpt>
      <trkpt lat="49.55813" lon="6.17181">
        <ele>293.2</ele>
        <time>2020-06-26T13:37:31Z</time>
      </trkpt>
      <trkpt lat="49.55809" lon="6.17188">
        <ele>293.3</ele>
        <time>2020-06-26T13:37:32Z</time>
      </trkpt>
      <trkpt lat="49.55806" lon="6.17195">
        <ele>293.4</ele>
        <time>2020-06-26T13:37:33Z</time>
      </trkpt>
      <trkpt lat="49.55803" lon="6.17202">
        <ele>293.5</ele>
        <time>2020-06-26T13:37:34Z</time>
      </trkpt>
      <trkpt lat="49.55799" lon="6.17208">
        <ele>293.6</ele>
        <time>2020-06-26T13:37:35Z</time>
      </trkpt>
      <trkpt lat="49.55796" lon="6.17215">
        <ele>293.7</ele>
        <time>2020-06-26T13:37:36Z</time>
      </trkpt>
      <trkpt lat="49.55792" lon="6.17221">
        <ele>293.8</ele>
        <time>2020-06-26T13:37:37Z</time>
      </trkpt>
      <trkpt lat="49.5579" lon="6.17227">
        <ele>293.9</ele>
        <time>2020-06-26T13:37:38Z</time>
      </trkpt>
      <trkpt lat="49.55786" lon="6.17233">
        <ele>293.9</ele>
        <time>2020-06-26T13:37:39Z</time>
      </trkpt>
      <trkpt lat="49.55783" lon="6.17239">
        <ele>294</ele>
        <time>2020-06-26T13:37:40Z</time>
      </trkpt>
      <trkpt lat="49.5578" lon="6.17245">
        <ele>294.1</ele>
        <time>2020-06-26T13:37:41Z</time>
      </trkpt>
      <trkpt lat="49.55778" lon="6.1725">
        <ele>294.1</ele>
        <time>2020-06-26T13:37:42Z</time>
      </trkpt>
      <trkpt lat="49.55774" lon="6.17256">
        <ele>294.2</ele>
        <time>2020-06-26T13:37:43Z</time>
      </trkpt>
      <trkpt lat="49.55771" lon="6.17262">
        <ele>294.2</ele>
        <time>2020-06-26T13:37:44Z</time>
      </trkpt>
      <trkpt lat="49.55768" lon="6.17269">
        <ele>294.3</ele>
        <time>2020-06-26T13:37:45Z</time>
      </trkpt>
      <trkpt lat="49.55765" lon="6.17274">
        <ele>294.3</ele>
        <time>2020-06-26T13:37:46Z</time>
      </trkpt>
      <trkpt lat="49.55763" lon="6.17279">
        <ele>294.3</ele>
        <time>2020-06-26T13:37:47Z</time>
      </trkpt>
      <trkpt lat="49.5576" lon="6.17286">
        <ele>294.3</ele>
        <time>2020-06-26T13:37:48Z</time>
      </trkpt>
      <trkpt lat="49.55756" lon="6.17292">
        <ele>294.2</ele>
        <time>2020-06-26T13:37:49Z</time>
      </trkpt>
      <trkpt lat="49.55753" lon="6.17299">
        <ele>294.2</ele>
        <time>2020-06-26T13:37:50Z</time>
      </trkpt>
      <trkpt lat="49.5575" lon="6.17304">
        <ele>294.2</ele>
        <time>2020-06-26T13:37:51Z</time>
      </trkpt>
      <trkpt lat="49.55747" lon="6.17311">
        <ele>294.1</ele>
        <time>2020-06-26T13:37:52Z</time>
      </trkpt>
      <trkpt lat="49.55743" lon="6.17318">
        <ele>294.1</ele>
        <time>2020-06-26T13:37:53Z</time>
      </trkpt>
      <trkpt lat="49.5574" lon="6.17325">
        <ele>294</ele>
        <time>2020-06-26T13:37:54Z</time>
      </trkpt>
      <trkpt lat="49.55736" lon="6.17332">
        <ele>294</ele>
        <time>2020-06-26T13:37:55Z</time>
      </trkpt>
      <trkpt lat="49.55733" lon="6.17339">
        <ele>293.9</ele>
        <time>2020-06-26T13:37:56Z</time>
      </trkpt>
      <trkpt lat="49.55729" lon="6.17347">
        <ele>293.9</ele>
        <time>2020-06-26T13:37:57Z</time>
      </trkpt>
      <trkpt lat="49.55725" lon="6.17355">
        <ele>293.8</ele>
        <time>2020-06-26T13:37:58Z</time>
      </trkpt>
      <trkpt lat="49.55721" lon="6.17362">
        <ele>293.8</ele>
        <time>2020-06-26T13:37:59Z</time>
      </trkpt>
      <trkpt lat="49.55718" lon="6.1737">
        <ele>293.7</ele>
        <time>2020-06-26T13:38:00Z</time>
      </trkpt>
      <trkpt lat="49.55713" lon="6.17379">
        <ele>293.7</ele>
        <time>2020-06-26T13:38:01Z</time>
      </trkpt>
      <trkpt lat="49.55709" lon="6.17387">
        <ele>293.7</ele>
        <time>2020-06-26T13:38:02Z</time>
      </trkpt>
      <trkpt lat="49.55706" lon="6.17394">
        <ele>293.6</ele>
        <time>2020-06-26T13:38:03Z</time>
      </trkpt>
      <trkpt lat="49.55702" lon="6.17401">
        <ele>293.6</ele>
        <time>2020-06-26T13:38:04Z</time>
      </trkpt>
      <trkpt lat="49.55698" lon="6.1741">
        <ele>293.6</ele>
        <time>2020-06-26T13:38:05Z</time>
      </trkpt>
      <trkpt lat="49.55694" lon="6.17417">
        <ele>293.6</ele>
        <time>2020-06-26T13:38:06Z</time>
      </trkpt>
      <trkpt lat="49.5569" lon="6.17424">
        <ele>293.6</ele>
        <time>2020-06-26T13:38:07Z</time>
      </trkpt>
      <trkpt lat="49.55687" lon="6.17431">
        <ele>293.6</ele>
        <time>2020-06-26T13:38:08Z</time>
      </trkpt>
      <trkpt lat="49.55683" lon="6.17439">
        <ele>293.6</ele>
        <time>2020-06-26T13:38:09Z</time>
      </trkpt>
      <trkpt lat="49.5568" lon="6.17446">
        <ele>293.6</ele>
        <time>2020-06-26T13:38:10Z</time>
      </trkpt>
      <trkpt lat="49.55676" lon="6.17454">
        <ele>293.6</ele>
        <time>2020-06-26T13:38:11Z</time>
      </trkpt>
      <trkpt lat="49.55673" lon="6.17461">
        <ele>293.6</ele>
        <time>2020-06-26T13:38:12Z</time>
      </trkpt>
      <trkpt lat="49.5567" lon="6.17467">
        <ele>293.6</ele>
        <time>2020-06-26T13:38:13Z</time>
      </trkpt>
      <trkpt lat="49.55666" lon="6.17474">
        <ele>293.6</ele>
        <time>2020-06-26T13:38:14Z</time>
      </trkpt>
      <trkpt lat="49.55662" lon="6.1748">
        <ele>293.6</ele>
        <time>2020-06-26T13:38:15Z</time>
      </trkpt>
      <trkpt lat="49.55658" lon="6.17487">
        <ele>293.7</ele>
        <time>2020-06-26T13:38:16Z</time>
      </trkpt>
      <trkpt lat="49.55655" lon="6.17494">
        <ele>293.7</ele>
        <time>2020-06-26T13:38:17Z</time>
      </trkpt>
      <trkpt lat="49.55652" lon="6.175">
        <ele>293.7</ele>
        <time>2020-06-26T13:38:18Z</time>
      </trkpt>
      <trkpt lat="49.55648" lon="6.17507">
        <ele>293.7</ele>
        <time>2020-06-26T13:38:19Z</time>
      </trkpt>
      <trkpt lat="49.55645" lon="6.17514">
        <ele>293.7</ele>
        <time>2020-06-26T13:38:20Z</time>
      </trkpt>
      <trkpt lat="49.55641" lon="6.1752">
        <ele>293.7</ele>
        <time>2020-06-26T13:38:21Z</time>
      </trkpt>
      <trkpt lat="49.55638" lon="6.17527">
        <ele>293.7</ele>
        <time>2020-06-26T13:38:22Z</time>
      </trkpt>
      <trkpt lat="49.55634" lon="6.17534">
        <ele>293.7</ele>
        <time>2020-06-26T13:38:23Z</time>
      </trkpt>
      <trkpt lat="49.5563" lon="6.17542">
        <ele>293.7</ele>
        <time>2020-06-26T13:38:24Z</time>
      </trkpt>
      <trkpt lat="49.55627" lon="6.1755">
        <ele>293.7</ele>
        <time>2020-06-26T13:38:25Z</time>
      </trkpt>
      <trkpt lat="49.55623" lon="6.17559">
        <ele>293.7</ele>
        <time>2020-06-26T13:38:26Z</time>
      </trkpt>
      <trkpt lat="49.55619" lon="6.17567">
        <ele>293.7</ele>
        <time>2020-06-26T13:38:27Z</time>
      </trkpt>
      <trkpt lat="49.55617" lon="6.17573">
        <ele>293.7</ele>
        <time>2020-06-26T13:38:28Z</time>
      </trkpt>
      <trkpt lat="49.55613" lon="6.17581">
        <ele>293.7</ele>
        <time>2020-06-26T13:38:29Z</time>
      </trkpt>
      <trkpt lat="49.5561" lon="6.17589">
        <ele>293.7</ele>
        <time>2020-06-26T13:38:30Z</time>
      </trkpt>
      <trkpt lat="49.55607" lon="6.17597">
        <ele>293.8</ele>
        <time>2020-06-26T13:38:31Z</time>
      </trkpt>
      <trkpt lat="49.55605" lon="6.17604">
        <ele>293.8</ele>
        <time>2020-06-26T13:38:32Z</time>
      </trkpt>
      <trkpt lat="49.55602" lon="6.17611">
        <ele>293.8</ele>
        <time>2020-06-26T13:38:33Z</time>
      </trkpt>
      <trkpt lat="49.55599" lon="6.17618">
        <ele>293.8</ele>
        <time>2020-06-26T13:38:34Z</time>
      </trkpt>
      <trkpt lat="49.55596" lon="6.17627">
        <ele>293.8</ele>
        <time>2020-06-26T13:38:35Z</time>
      </trkpt>
      <trkpt lat="49.55593" lon="6.17636">
        <ele>293.7</ele>
        <time>2020-06-26T13:38:36Z</time>
      </trkpt>
      <trkpt lat="49.5559" lon="6.17645">
        <ele>293.5</ele>
        <time>2020-06-26T13:38:37Z</time>
      </trkpt>
      <trkpt lat="49.55587" lon="6.17655">
        <ele>293.3</ele>
        <time>2020-06-26T13:38:38Z</time>
      </trkpt>
      <trkpt lat="49.55584" lon="6.17666">
        <ele>293.2</ele>
        <time>2020-06-26T13:38:39Z</time>
      </trkpt>
      <trkpt lat="49.55581" lon="6.17676">
        <ele>293.1</ele>
        <time>2020-06-26T13:38:40Z</time>
      </trkpt>
      <trkpt lat="49.55577" lon="6.17686">
        <ele>293.1</ele>
        <time>2020-06-26T13:38:41Z</time>
      </trkpt>
      <trkpt lat="49.55575" lon="6.17695">
        <ele>293</ele>
        <time>2020-06-26T13:38:42Z</time>
      </trkpt>
      <trkpt lat="49.55572" lon="6.17704">
        <ele>293</ele>
        <time>2020-06-26T13:38:43Z</time>
      </trkpt>
      <trkpt lat="49.55569" lon="6.17712">
        <ele>292.9</ele>
        <time>2020-06-26T13:38:44Z</time>
      </trkpt>
      <trkpt lat="49.55567" lon="6.17721">
        <ele>292.9</ele>
        <time>2020-06-26T13:38:45Z</time>
      </trkpt>
      <trkpt lat="49.55564" lon="6.17729">
        <ele>292.9</ele>
        <time>2020-06-26T13:38:46Z</time>
      </trkpt>
      <trkpt lat="49.55562" lon="6.17738">
        <ele>292.9</ele>
        <time>2020-06-26T13:38:47Z</time>
      </trkpt>
      <trkpt lat="49.55559" lon="6.17748">
        <ele>292.8</ele>
        <time>2020-06-26T13:38:48Z</time>
      </trkpt>
      <trkpt lat="49.55556" lon="6.17757">
        <ele>292.8</ele>
        <time>2020-06-26T13:38:49Z</time>
      </trkpt>
      <trkpt lat="49.55553" lon="6.17766">
        <ele>292.8</ele>
        <time>2020-06-26T13:38:50Z</time>
      </trkpt>
      <trkpt lat="49.5555" lon="6.17775">
        <ele>292.8</ele>
        <time>2020-06-26T13:38:51Z</time>
      </trkpt>
      <trkpt lat="49.55547" lon="6.17784">
        <ele>292.8</ele>
        <time>2020-06-26T13:38:52Z</time>
      </trkpt>
      <trkpt lat="49.55545" lon="6.17793">
        <ele>292.8</ele>
        <time>2020-06-26T13:38:53Z</time>
      </trkpt>
      <trkpt lat="49.55542" lon="6.17802">
        <ele>292.7</ele>
        <time>2020-06-26T13:38:54Z</time>
      </trkpt>
      <trkpt lat="49.55539" lon="6.17811">
        <ele>292.7</ele>
        <time>2020-06-26T13:38:55Z</time>
      </trkpt>
      <trkpt lat="49.55536" lon="6.1782">
        <ele>292.7</ele>
        <time>2020-06-26T13:38:56Z</time>
      </trkpt>
      <trkpt lat="49.55533" lon="6.17829">
        <ele>292.7</ele>
        <time>2020-06-26T13:38:57Z</time>
      </trkpt>
      <trkpt lat="49.55531" lon="6.17838">
        <ele>292.7</ele>
        <time>2020-06-26T13:38:58Z</time>
      </trkpt>
      <trkpt lat="49.55528" lon="6.17846">
        <ele>292.7</ele>
        <time>2020-06-26T13:38:59Z</time>
      </trkpt>
      <trkpt lat="49.55526" lon="6.17855">
        <ele>292.8</ele>
        <time>2020-06-26T13:39:00Z</time>
      </trkpt>
      <trkpt lat="49.55523" lon="6.17864">
        <ele>292.8</ele>
        <time>2020-06-26T13:39:01Z</time>
      </trkpt>
      <trkpt lat="49.5552" lon="6.17872">
        <ele>292.9</ele>
        <time>2020-06-26T13:39:02Z</time>
      </trkpt>
      <trkpt lat="49.55518" lon="6.17881">
        <ele>293</ele>
        <time>2020-06-26T13:39:03Z</time>
      </trkpt>
      <trkpt lat="49.55515" lon="6.17889">
        <ele>293</ele>
        <time>2020-06-26T13:39:04Z</time>
      </trkpt>
      <trkpt lat="49.55512" lon="6.17898">
        <ele>293.1</ele>
        <time>2020-06-26T13:39:05Z</time>
      </trkpt>
      <trkpt lat="49.5551" lon="6.17907">
        <ele>293.2</ele>
        <time>2020-06-26T13:39:06Z</time>
      </trkpt>
      <trkpt lat="49.55508" lon="6.17914">
        <ele>293.2</ele>
        <time>2020-06-26T13:39:07Z</time>
      </trkpt>
      <trkpt lat="49.55506" lon="6.17921">
        <ele>293.3</ele>
        <time>2020-06-26T13:39:08Z</time>
      </trkpt>
      <trkpt lat="49.55504" lon="6.17928">
        <ele>293.3</ele>
        <time>2020-06-26T13:39:09Z</time>
      </trkpt>
      <trkpt lat="49.55502" lon="6.17936">
        <ele>293.4</ele>
        <time>2020-06-26T13:39:10Z</time>
      </trkpt>
      <trkpt lat="49.555" lon="6.17944">
        <ele>293.5</ele>
        <time>2020-06-26T13:39:11Z</time>
      </trkpt>
      <trkpt lat="49.55498" lon="6.17951">
        <ele>293.5</ele>
        <time>2020-06-26T13:39:12Z</time>
      </trkpt>
      <trkpt lat="49.55495" lon="6.17958">
        <ele>293.6</ele>
        <time>2020-06-26T13:39:13Z</time>
      </trkpt>
      <trkpt lat="49.55493" lon="6.17965">
        <ele>293.7</ele>
        <time>2020-06-26T13:39:14Z</time>
      </trkpt>
      <trkpt lat="49.55491" lon="6.17973">
        <ele>293.7</ele>
        <time>2020-06-26T13:39:15Z</time>
      </trkpt>
      <trkpt lat="49.55489" lon="6.17981">
        <ele>293.8</ele>
        <time>2020-06-26T13:39:16Z</time>
      </trkpt>
      <trkpt lat="49.55486" lon="6.17989">
        <ele>293.9</ele>
        <time>2020-06-26T13:39:17Z</time>
      </trkpt>
      <trkpt lat="49.55484" lon="6.17997">
        <ele>294</ele>
        <time>2020-06-26T13:39:18Z</time>
      </trkpt>
      <trkpt lat="49.55481" lon="6.18004">
        <ele>294</ele>
        <time>2020-06-26T13:39:19Z</time>
      </trkpt>
      <trkpt lat="49.55478" lon="6.18012">
        <ele>294</ele>
        <time>2020-06-26T13:39:20Z</time>
      </trkpt>
      <trkpt lat="49.55476" lon="6.18019">
        <ele>294.1</ele>
        <time>2020-06-26T13:39:21Z</time>
      </trkpt>
      <trkpt lat="49.55474" lon="6.18027">
        <ele>294.1</ele>
        <time>2020-06-26T13:39:22Z</time>
      </trkpt>
      <trkpt lat="49.55471" lon="6.18034">
        <ele>294.1</ele>
        <time>2020-06-26T13:39:23Z</time>
      </trkpt>
      <trkpt lat="49.55469" lon="6.18041">
        <ele>294</ele>
        <time>2020-06-26T13:39:24Z</time>
      </trkpt>
      <trkpt lat="49.55467" lon="6.18049">
        <ele>294</ele>
        <time>2020-06-26T13:39:25Z</time>
      </trkpt>
      <trkpt lat="49.55465" lon="6.18055">
        <ele>294</ele>
        <time>2020-06-26T13:39:26Z</time>
      </trkpt>
      <trkpt lat="49.55463" lon="6.18062">
        <ele>293.9</ele>
        <time>2020-06-26T13:39:27Z</time>
      </trkpt>
      <trkpt lat="49.55461" lon="6.18069">
        <ele>293.9</ele>
        <time>2020-06-26T13:39:28Z</time>
      </trkpt>
      <trkpt lat="49.55459" lon="6.18078">
        <ele>293.7</ele>
        <time>2020-06-26T13:39:29Z</time>
      </trkpt>
      <trkpt lat="49.55457" lon="6.18086">
        <ele>293.6</ele>
        <time>2020-06-26T13:39:30Z</time>
      </trkpt>
      <trkpt lat="49.55455" lon="6.18094">
        <ele>293.5</ele>
        <time>2020-06-26T13:39:31Z</time>
      </trkpt>
      <trkpt lat="49.55453" lon="6.18102">
        <ele>293.2</ele>
        <time>2020-06-26T13:39:32Z</time>
      </trkpt>
      <trkpt lat="49.55451" lon="6.18109">
        <ele>293</ele>
        <time>2020-06-26T13:39:33Z</time>
      </trkpt>
      <trkpt lat="49.55449" lon="6.18118">
        <ele>292.8</ele>
        <time>2020-06-26T13:39:34Z</time>
      </trkpt>
      <trkpt lat="49.55447" lon="6.18125">
        <ele>292.7</ele>
        <time>2020-06-26T13:39:35Z</time>
      </trkpt>
      <trkpt lat="49.55444" lon="6.18133">
        <ele>292.5</ele>
        <time>2020-06-26T13:39:36Z</time>
      </trkpt>
      <trkpt lat="49.55442" lon="6.1814">
        <ele>292.4</ele>
        <time>2020-06-26T13:39:37Z</time>
      </trkpt>
      <trkpt lat="49.5544" lon="6.18149">
        <ele>292.3</ele>
        <time>2020-06-26T13:39:38Z</time>
      </trkpt>
      <trkpt lat="49.55437" lon="6.18157">
        <ele>292.1</ele>
        <time>2020-06-26T13:39:39Z</time>
      </trkpt>
      <trkpt lat="49.55435" lon="6.18165">
        <ele>292</ele>
        <time>2020-06-26T13:39:40Z</time>
      </trkpt>
      <trkpt lat="49.55432" lon="6.18173">
        <ele>291.9</ele>
        <time>2020-06-26T13:39:41Z</time>
      </trkpt>
      <trkpt lat="49.55429" lon="6.18183">
        <ele>291.7</ele>
        <time>2020-06-26T13:39:42Z</time>
      </trkpt>
      <trkpt lat="49.55426" lon="6.18192">
        <ele>291.6</ele>
        <time>2020-06-26T13:39:43Z</time>
      </trkpt>
      <trkpt lat="49.55423" lon="6.18201">
        <ele>291.4</ele>
        <time>2020-06-26T13:39:44Z</time>
      </trkpt>
      <trkpt lat="49.5542" lon="6.18211">
        <ele>291.3</ele>
        <time>2020-06-26T13:39:45Z</time>
      </trkpt>
      <trkpt lat="49.55417" lon="6.18219">
        <ele>291.2</ele>
        <time>2020-06-26T13:39:46Z</time>
      </trkpt>
      <trkpt lat="49.55414" lon="6.18228">
        <ele>291.1</ele>
        <time>2020-06-26T13:39:47Z</time>
      </trkpt>
      <trkpt lat="49.5541" lon="6.18238">
        <ele>290.9</ele>
        <time>2020-06-26T13:39:48Z</time>
      </trkpt>
      <trkpt lat="49.55407" lon="6.18246">
        <ele>290.8</ele>
        <time>2020-06-26T13:39:49Z</time>
      </trkpt>
      <trkpt lat="49.55402" lon="6.18256">
        <ele>290.7</ele>
        <time>2020-06-26T13:39:50Z</time>
      </trkpt>
      <trkpt lat="49.55397" lon="6.18264">
        <ele>290.7</ele>
        <time>2020-06-26T13:39:51Z</time>
      </trkpt>
      <trkpt lat="49.55391" lon="6.18273">
        <ele>290.7</ele>
        <time>2020-06-26T13:39:52Z</time>
      </trkpt>
      <trkpt lat="49.55387" lon="6.18281">
        <ele>290.7</ele>
        <time>2020-06-26T13:39:53Z</time>
      </trkpt>
      <trkpt lat="49.55383" lon="6.18287">
        <ele>290.8</ele>
        <time>2020-06-26T13:39:54Z</time>
      </trkpt>
      <trkpt lat="49.55377" lon="6.18294">
        <ele>290.9</ele>
        <time>2020-06-26T13:39:55Z</time>
      </trkpt>
      <trkpt lat="49.55371" lon="6.18301">
        <ele>291</ele>
        <time>2020-06-26T13:39:56Z</time>
      </trkpt>
      <trkpt lat="49.55366" lon="6.18308">
        <ele>291.2</ele>
        <time>2020-06-26T13:39:57Z</time>
      </trkpt>
      <trkpt lat="49.5536" lon="6.18316">
        <ele>291.4</ele>
        <time>2020-06-26T13:39:58Z</time>
      </trkpt>
      <trkpt lat="49.55355" lon="6.18322">
        <ele>291.7</ele>
        <time>2020-06-26T13:39:59Z</time>
      </trkpt>
      <trkpt lat="49.55349" lon="6.18329">
        <ele>291.8</ele>
        <time>2020-06-26T13:40:00Z</time>
      </trkpt>
      <trkpt lat="49.55345" lon="6.18335">
        <ele>291.9</ele>
        <time>2020-06-26T13:40:01Z</time>
      </trkpt>
      <trkpt lat="49.55341" lon="6.1834">
        <ele>291.9</ele>
        <time>2020-06-26T13:40:02Z</time>
      </trkpt>
      <trkpt lat="49.55337" lon="6.18346">
        <ele>292</ele>
        <time>2020-06-26T13:40:03Z</time>
      </trkpt>
      <trkpt lat="49.55333" lon="6.1835">
        <ele>292.1</ele>
        <time>2020-06-26T13:40:04Z</time>
      </trkpt>
      <trkpt lat="49.5533" lon="6.18354">
        <ele>292.2</ele>
        <time>2020-06-26T13:40:05Z</time>
      </trkpt>
      <trkpt lat="49.55327" lon="6.18359">
        <ele>292.3</ele>
        <time>2020-06-26T13:40:06Z</time>
      </trkpt>
      <trkpt lat="49.55324" lon="6.18364">
        <ele>292.5</ele>
        <time>2020-06-26T13:40:07Z</time>
      </trkpt>
      <trkpt lat="49.5532" lon="6.18369">
        <ele>292.6</ele>
        <time>2020-06-26T13:40:08Z</time>
      </trkpt>
      <trkpt lat="49.55315" lon="6.18376">
        <ele>292.8</ele>
        <time>2020-06-26T13:40:09Z</time>
      </trkpt>
      <trkpt lat="49.55311" lon="6.18382">
        <ele>293</ele>
        <time>2020-06-26T13:40:10Z</time>
      </trkpt>
      <trkpt lat="49.55307" lon="6.18388">
        <ele>293.1</ele>
        <time>2020-06-26T13:40:11Z</time>
      </trkpt>
      <trkpt lat="49.55303" lon="6.18393">
        <ele>293.3</ele>
        <time>2020-06-26T13:40:12Z</time>
      </trkpt>
      <trkpt lat="49.553" lon="6.18398">
        <ele>293.5</ele>
        <time>2020-06-26T13:40:13Z</time>
      </trkpt>
      <trkpt lat="49.55295" lon="6.18404">
        <ele>293.7</ele>
        <time>2020-06-26T13:40:14Z</time>
      </trkpt>
      <trkpt lat="49.55292" lon="6.1841">
        <ele>293.9</ele>
        <time>2020-06-26T13:40:15Z</time>
      </trkpt>
      <trkpt lat="49.55288" lon="6.18416">
        <ele>294.1</ele>
        <time>2020-06-26T13:40:16Z</time>
      </trkpt>
      <trkpt lat="49.55285" lon="6.18421">
        <ele>294.2</ele>
        <time>2020-06-26T13:40:17Z</time>
      </trkpt>
      <trkpt lat="49.55283" lon="6.18427">
        <ele>294.4</ele>
        <time>2020-06-26T13:40:18Z</time>
      </trkpt>
      <trkpt lat="49.5528" lon="6.18433">
        <ele>294.6</ele>
        <time>2020-06-26T13:40:19Z</time>
      </trkpt>
      <trkpt lat="49.55279" lon="6.18439">
        <ele>294.9</ele>
        <time>2020-06-26T13:40:20Z</time>
      </trkpt>
      <trkpt lat="49.55277" lon="6.18446">
        <ele>295.1</ele>
        <time>2020-06-26T13:40:21Z</time>
      </trkpt>
      <trkpt lat="49.55277" lon="6.18452">
        <ele>295.3</ele>
        <time>2020-06-26T13:40:22Z</time>
      </trkpt>
      <trkpt lat="49.55276" lon="6.18459">
        <ele>295.5</ele>
        <time>2020-06-26T13:40:23Z</time>
      </trkpt>
      <trkpt lat="49.55275" lon="6.18467">
        <ele>295.8</ele>
        <time>2020-06-26T13:40:24Z</time>
      </trkpt>
      <trkpt lat="49.55275" lon="6.18473">
        <ele>296</ele>
        <time>2020-06-26T13:40:25Z</time>
      </trkpt>
      <trkpt lat="49.55275" lon="6.18479">
        <ele>296.2</ele>
        <time>2020-06-26T13:40:26Z</time>
      </trkpt>
      <trkpt lat="49.55275" lon="6.18487">
        <ele>296.4</ele>
        <time>2020-06-26T13:40:27Z</time>
      </trkpt>
      <trkpt lat="49.55274" lon="6.18495">
        <ele>296.7</ele>
        <time>2020-06-26T13:40:28Z</time>
      </trkpt>
      <trkpt lat="49.55274" lon="6.18502">
        <ele>296.9</ele>
        <time>2020-06-26T13:40:29Z</time>
      </trkpt>
      <trkpt lat="49.55274" lon="6.18508">
        <ele>297.1</ele>
        <time>2020-06-26T13:40:30Z</time>
      </trkpt>
      <trkpt lat="49.55275" lon="6.18515">
        <ele>297.3</ele>
        <time>2020-06-26T13:40:31Z</time>
      </trkpt>
      <trkpt lat="49.55275" lon="6.1852">
        <ele>297.5</ele>
        <time>2020-06-26T13:40:32Z</time>
      </trkpt>
      <trkpt lat="49.55276" lon="6.18526">
        <ele>297.7</ele>
        <time>2020-06-26T13:40:33Z</time>
      </trkpt>
      <trkpt lat="49.55276" lon="6.18531">
        <ele>297.9</ele>
        <time>2020-06-26T13:40:34Z</time>
      </trkpt>
      <trkpt lat="49.55276" lon="6.18538">
        <ele>298.1</ele>
        <time>2020-06-26T13:40:35Z</time>
      </trkpt>
      <trkpt lat="49.55276" lon="6.18543">
        <ele>298.3</ele>
        <time>2020-06-26T13:40:36Z</time>
      </trkpt>
      <trkpt lat="49.55277" lon="6.1855">
        <ele>298.5</ele>
        <time>2020-06-26T13:40:37Z</time>
      </trkpt>
      <trkpt lat="49.55278" lon="6.18557">
        <ele>298.7</ele>
        <time>2020-06-26T13:40:38Z</time>
      </trkpt>
      <trkpt lat="49.55278" lon="6.18564">
        <ele>299</ele>
        <time>2020-06-26T13:40:39Z</time>
      </trkpt>
      <trkpt lat="49.55279" lon="6.1857">
        <ele>299.2</ele>
        <time>2020-06-26T13:40:40Z</time>
      </trkpt>
      <trkpt lat="49.55279" lon="6.18577">
        <ele>299.4</ele>
        <time>2020-06-26T13:40:41Z</time>
      </trkpt>
      <trkpt lat="49.5528" lon="6.18583">
        <ele>299.7</ele>
        <time>2020-06-26T13:40:42Z</time>
      </trkpt>
      <trkpt lat="49.55281" lon="6.18589">
        <ele>299.9</ele>
        <time>2020-06-26T13:40:43Z</time>
      </trkpt>
      <trkpt lat="49.55281" lon="6.18597">
        <ele>300.2</ele>
        <time>2020-06-26T13:40:44Z</time>
      </trkpt>
      <trkpt lat="49.55282" lon="6.18603">
        <ele>300.4</ele>
        <time>2020-06-26T13:40:45Z</time>
      </trkpt>
      <trkpt lat="49.55283" lon="6.1861">
        <ele>300.6</ele>
        <time>2020-06-26T13:40:46Z</time>
      </trkpt>
      <trkpt lat="49.55284" lon="6.18616">
        <ele>300.8</ele>
        <time>2020-06-26T13:40:47Z</time>
      </trkpt>
      <trkpt lat="49.55284" lon="6.18622">
        <ele>301</ele>
        <time>2020-06-26T13:40:48Z</time>
      </trkpt>
      <trkpt lat="49.55285" lon="6.18629">
        <ele>301.3</ele>
        <time>2020-06-26T13:40:49Z</time>
      </trkpt>
      <trkpt lat="49.55286" lon="6.18635">
        <ele>301.5</ele>
        <time>2020-06-26T13:40:50Z</time>
      </trkpt>
      <trkpt lat="49.55287" lon="6.18645">
        <ele>301.8</ele>
        <time>2020-06-26T13:40:51Z</time>
      </trkpt>
      <trkpt lat="49.55287" lon="6.18653">
        <ele>302.1</ele>
        <time>2020-06-26T13:40:52Z</time>
      </trkpt>
      <trkpt lat="49.55287" lon="6.1866">
        <ele>302.4</ele>
        <time>2020-06-26T13:40:53Z</time>
      </trkpt>
      <trkpt lat="49.55288" lon="6.18667">
        <ele>302.6</ele>
        <time>2020-06-26T13:40:54Z</time>
      </trkpt>
      <trkpt lat="49.55288" lon="6.18673">
        <ele>302.8</ele>
        <time>2020-06-26T13:40:55Z</time>
      </trkpt>
      <trkpt lat="49.55288" lon="6.1868">
        <ele>303.1</ele>
        <time>2020-06-26T13:40:56Z</time>
      </trkpt>
      <trkpt lat="49.55289" lon="6.18686">
        <ele>303.3</ele>
        <time>2020-06-26T13:40:57Z</time>
      </trkpt>
      <trkpt lat="49.55289" lon="6.18693">
        <ele>303.6</ele>
        <time>2020-06-26T13:40:58Z</time>
      </trkpt>
      <trkpt lat="49.5529" lon="6.187">
        <ele>303.8</ele>
        <time>2020-06-26T13:40:59Z</time>
      </trkpt>
      <trkpt lat="49.5529" lon="6.18707">
        <ele>304.1</ele>
        <time>2020-06-26T13:41:00Z</time>
      </trkpt>
      <trkpt lat="49.55291" lon="6.18715">
        <ele>304.4</ele>
        <time>2020-06-26T13:41:01Z</time>
      </trkpt>
      <trkpt lat="49.55292" lon="6.18723">
        <ele>304.7</ele>
        <time>2020-06-26T13:41:02Z</time>
      </trkpt>
      <trkpt lat="49.55292" lon="6.1873">
        <ele>305</ele>
        <time>2020-06-26T13:41:03Z</time>
      </trkpt>
      <trkpt lat="49.55293" lon="6.18737">
        <ele>305.3</ele>
        <time>2020-06-26T13:41:04Z</time>
      </trkpt>
      <trkpt lat="49.55293" lon="6.18743">
        <ele>305.5</ele>
        <time>2020-06-26T13:41:05Z</time>
      </trkpt>
      <trkpt lat="49.55294" lon="6.1875">
        <ele>305.8</ele>
        <time>2020-06-26T13:41:06Z</time>
      </trkpt>
      <trkpt lat="49.55294" lon="6.18757">
        <ele>306</ele>
        <time>2020-06-26T13:41:07Z</time>
      </trkpt>
      <trkpt lat="49.55294" lon="6.18765">
        <ele>306.3</ele>
        <time>2020-06-26T13:41:08Z</time>
      </trkpt>
      <trkpt lat="49.55295" lon="6.18769">
        <ele>306.5</ele>
        <time>2020-06-26T13:41:09Z</time>
      </trkpt>
      <trkpt lat="49.55295" lon="6.18775">
        <ele>306.7</ele>
        <time>2020-06-26T13:41:10Z</time>
      </trkpt>
      <trkpt lat="49.55296" lon="6.1878">
        <ele>306.9</ele>
        <time>2020-06-26T13:41:11Z</time>
      </trkpt>
      <trkpt lat="49.55297" lon="6.18786">
        <ele>307</ele>
        <time>2020-06-26T13:41:12Z</time>
      </trkpt>
      <trkpt lat="49.55297" lon="6.18791">
        <ele>307.2</ele>
        <time>2020-06-26T13:41:13Z</time>
      </trkpt>
      <trkpt lat="49.55298" lon="6.18794">
        <ele>307.3</ele>
        <time>2020-06-26T13:41:14Z</time>
      </trkpt>
      <trkpt lat="49.55299" lon="6.18802">
        <ele>307.5</ele>
        <time>2020-06-26T13:41:15Z</time>
      </trkpt>
      <trkpt lat="49.55299" lon="6.18807">
        <ele>307.7</ele>
        <time>2020-06-26T13:41:16Z</time>
      </trkpt>
      <trkpt lat="49.553" lon="6.18814">
        <ele>307.9</ele>
        <time>2020-06-26T13:41:17Z</time>
      </trkpt>
      <trkpt lat="49.55301" lon="6.18821">
        <ele>308.1</ele>
        <time>2020-06-26T13:41:18Z</time>
      </trkpt>
      <trkpt lat="49.55301" lon="6.18827">
        <ele>308.3</ele>
        <time>2020-06-26T13:41:19Z</time>
      </trkpt>
      <trkpt lat="49.55302" lon="6.18835">
        <ele>308.5</ele>
        <time>2020-06-26T13:41:20Z</time>
      </trkpt>
      <trkpt lat="49.55303" lon="6.18842">
        <ele>308.7</ele>
        <time>2020-06-26T13:41:21Z</time>
      </trkpt>
      <trkpt lat="49.55303" lon="6.1885">
        <ele>308.9</ele>
        <time>2020-06-26T13:41:22Z</time>
      </trkpt>
      <trkpt lat="49.55303" lon="6.18856">
        <ele>309</ele>
        <time>2020-06-26T13:41:23Z</time>
      </trkpt>
      <trkpt lat="49.55303" lon="6.18862">
        <ele>309.1</ele>
        <time>2020-06-26T13:41:24Z</time>
      </trkpt>
      <trkpt lat="49.55304" lon="6.18869">
        <ele>309.2</ele>
        <time>2020-06-26T13:41:25Z</time>
      </trkpt>
      <trkpt lat="49.55305" lon="6.18878">
        <ele>309.3</ele>
        <time>2020-06-26T13:41:26Z</time>
      </trkpt>
      <trkpt lat="49.55306" lon="6.18885">
        <ele>309.4</ele>
        <time>2020-06-26T13:41:27Z</time>
      </trkpt>
      <trkpt lat="49.55306" lon="6.1889">
        <ele>309.4</ele>
        <time>2020-06-26T13:41:28Z</time>
      </trkpt>
      <trkpt lat="49.55307" lon="6.18898">
        <ele>309.5</ele>
        <time>2020-06-26T13:41:29Z</time>
      </trkpt>
      <trkpt lat="49.55307" lon="6.18907">
        <ele>309.5</ele>
        <time>2020-06-26T13:41:30Z</time>
      </trkpt>
      <trkpt lat="49.55308" lon="6.18914">
        <ele>309.6</ele>
        <time>2020-06-26T13:41:31Z</time>
      </trkpt>
      <trkpt lat="49.55308" lon="6.18921">
        <ele>309.6</ele>
        <time>2020-06-26T13:41:32Z</time>
      </trkpt>
      <trkpt lat="49.55309" lon="6.18928">
        <ele>309.7</ele>
        <time>2020-06-26T13:41:33Z</time>
      </trkpt>
      <trkpt lat="49.55309" lon="6.18935">
        <ele>309.7</ele>
        <time>2020-06-26T13:41:34Z</time>
      </trkpt>
      <trkpt lat="49.55309" lon="6.18944">
        <ele>309.8</ele>
        <time>2020-06-26T13:41:35Z</time>
      </trkpt>
      <trkpt lat="49.5531" lon="6.18952">
        <ele>309.9</ele>
        <time>2020-06-26T13:41:36Z</time>
      </trkpt>
      <trkpt lat="49.55311" lon="6.18959">
        <ele>310</ele>
        <time>2020-06-26T13:41:37Z</time>
      </trkpt>
      <trkpt lat="49.55312" lon="6.18967">
        <ele>309.9</ele>
        <time>2020-06-26T13:41:38Z</time>
      </trkpt>
      <trkpt lat="49.55313" lon="6.18975">
        <ele>309.8</ele>
        <time>2020-06-26T13:41:39Z</time>
      </trkpt>
      <trkpt lat="49.55313" lon="6.18982">
        <ele>309.7</ele>
        <time>2020-06-26T13:41:40Z</time>
      </trkpt>
      <trkpt lat="49.55313" lon="6.18988">
        <ele>309.7</ele>
        <time>2020-06-26T13:41:41Z</time>
      </trkpt>
      <trkpt lat="49.55313" lon="6.18995">
        <ele>309.7</ele>
        <time>2020-06-26T13:41:42Z</time>
      </trkpt>
      <trkpt lat="49.55313" lon="6.19002">
        <ele>309.7</ele>
        <time>2020-06-26T13:41:43Z</time>
      </trkpt>
      <trkpt lat="49.55313" lon="6.1901">
        <ele>309.7</ele>
        <time>2020-06-26T13:41:44Z</time>
      </trkpt>
      <trkpt lat="49.55314" lon="6.19017">
        <ele>309.7</ele>
        <time>2020-06-26T13:41:45Z</time>
      </trkpt>
      <trkpt lat="49.55314" lon="6.19023">
        <ele>309.7</ele>
        <time>2020-06-26T13:41:46Z</time>
      </trkpt>
      <trkpt lat="49.55315" lon="6.19031">
        <ele>309.6</ele>
        <time>2020-06-26T13:41:47Z</time>
      </trkpt>
      <trkpt lat="49.55315" lon="6.19037">
        <ele>309.6</ele>
        <time>2020-06-26T13:41:48Z</time>
      </trkpt>
      <trkpt lat="49.55315" lon="6.19045">
        <ele>309.6</ele>
        <time>2020-06-26T13:41:49Z</time>
      </trkpt>
      <trkpt lat="49.55316" lon="6.19053">
        <ele>309.6</ele>
        <time>2020-06-26T13:41:50Z</time>
      </trkpt>
      <trkpt lat="49.55316" lon="6.19061">
        <ele>309.6</ele>
        <time>2020-06-26T13:41:51Z</time>
      </trkpt>
      <trkpt lat="49.55316" lon="6.19069">
        <ele>309.6</ele>
        <time>2020-06-26T13:41:52Z</time>
      </trkpt>
      <trkpt lat="49.55316" lon="6.19076">
        <ele>309.6</ele>
        <time>2020-06-26T13:41:53Z</time>
      </trkpt>
      <trkpt lat="49.55315" lon="6.19085">
        <ele>309.5</ele>
        <time>2020-06-26T13:41:54Z</time>
      </trkpt>
      <trkpt lat="49.55315" lon="6.19094">
        <ele>309.5</ele>
        <time>2020-06-26T13:41:55Z</time>
      </trkpt>
      <trkpt lat="49.55314" lon="6.19102">
        <ele>309.4</ele>
        <time>2020-06-26T13:41:56Z</time>
      </trkpt>
      <trkpt lat="49.55314" lon="6.1911">
        <ele>309.3</ele>
        <time>2020-06-26T13:41:57Z</time>
      </trkpt>
      <trkpt lat="49.55313" lon="6.19119">
        <ele>309.2</ele>
        <time>2020-06-26T13:41:58Z</time>
      </trkpt>
      <trkpt lat="49.55312" lon="6.19128">
        <ele>309.1</ele>
        <time>2020-06-26T13:41:59Z</time>
      </trkpt>
      <trkpt lat="49.5531" lon="6.19137">
        <ele>309</ele>
        <time>2020-06-26T13:42:00Z</time>
      </trkpt>
      <trkpt lat="49.55309" lon="6.19145">
        <ele>309</ele>
        <time>2020-06-26T13:42:01Z</time>
      </trkpt>
      <trkpt lat="49.55307" lon="6.19154">
        <ele>308.9</ele>
        <time>2020-06-26T13:42:02Z</time>
      </trkpt>
      <trkpt lat="49.55304" lon="6.19163">
        <ele>308.9</ele>
        <time>2020-06-26T13:42:03Z</time>
      </trkpt>
      <trkpt lat="49.55301" lon="6.19174">
        <ele>308.8</ele>
        <time>2020-06-26T13:42:04Z</time>
      </trkpt>
      <trkpt lat="49.55297" lon="6.19184">
        <ele>308.8</ele>
        <time>2020-06-26T13:42:05Z</time>
      </trkpt>
      <trkpt lat="49.55293" lon="6.19192">
        <ele>308.7</ele>
        <time>2020-06-26T13:42:06Z</time>
      </trkpt>
      <trkpt lat="49.55288" lon="6.19202">
        <ele>308.7</ele>
        <time>2020-06-26T13:42:07Z</time>
      </trkpt>
      <trkpt lat="49.55283" lon="6.1921">
        <ele>308.7</ele>
        <time>2020-06-26T13:42:08Z</time>
      </trkpt>
      <trkpt lat="49.55278" lon="6.19216">
        <ele>308.7</ele>
        <time>2020-06-26T13:42:09Z</time>
      </trkpt>
      <trkpt lat="49.55273" lon="6.19224">
        <ele>308.7</ele>
        <time>2020-06-26T13:42:10Z</time>
      </trkpt>
      <trkpt lat="49.55268" lon="6.1923">
        <ele>308.8</ele>
        <time>2020-06-26T13:42:11Z</time>
      </trkpt>
      <trkpt lat="49.55263" lon="6.19236">
        <ele>308.9</ele>
        <time>2020-06-26T13:42:12Z</time>
      </trkpt>
      <trkpt lat="49.55258" lon="6.19243">
        <ele>309</ele>
        <time>2020-06-26T13:42:13Z</time>
      </trkpt>
      <trkpt lat="49.55253" lon="6.19249">
        <ele>309.2</ele>
        <time>2020-06-26T13:42:14Z</time>
      </trkpt>
      <trkpt lat="49.55248" lon="6.19256">
        <ele>309.3</ele>
        <time>2020-06-26T13:42:15Z</time>
      </trkpt>
      <trkpt lat="49.55243" lon="6.19262">
        <ele>309.4</ele>
        <time>2020-06-26T13:42:16Z</time>
      </trkpt>
      <trkpt lat="49.55239" lon="6.19268">
        <ele>309.6</ele>
        <time>2020-06-26T13:42:17Z</time>
      </trkpt>
      <trkpt lat="49.55234" lon="6.19274">
        <ele>309.7</ele>
        <time>2020-06-26T13:42:18Z</time>
      </trkpt>
      <trkpt lat="49.5523" lon="6.19281">
        <ele>309.9</ele>
        <time>2020-06-26T13:42:19Z</time>
      </trkpt>
      <trkpt lat="49.55226" lon="6.19287">
        <ele>310.1</ele>
        <time>2020-06-26T13:42:20Z</time>
      </trkpt>
      <trkpt lat="49.55222" lon="6.19293">
        <ele>310.2</ele>
        <time>2020-06-26T13:42:21Z</time>
      </trkpt>
      <trkpt lat="49.55219" lon="6.19298">
        <ele>310.3</ele>
        <time>2020-06-26T13:42:22Z</time>
      </trkpt>
      <trkpt lat="49.55215" lon="6.19305">
        <ele>310.3</ele>
        <time>2020-06-26T13:42:23Z</time>
      </trkpt>
      <trkpt lat="49.55211" lon="6.1931">
        <ele>310.4</ele>
        <time>2020-06-26T13:42:24Z</time>
      </trkpt>
      <trkpt lat="49.55207" lon="6.19316">
        <ele>310.4</ele>
        <time>2020-06-26T13:42:25Z</time>
      </trkpt>
      <trkpt lat="49.55204" lon="6.19323">
        <ele>310.4</ele>
        <time>2020-06-26T13:42:26Z</time>
      </trkpt>
      <trkpt lat="49.55201" lon="6.19329">
        <ele>310.3</ele>
        <time>2020-06-26T13:42:27Z</time>
      </trkpt>
      <trkpt lat="49.55198" lon="6.19335">
        <ele>310.2</ele>
        <time>2020-06-26T13:42:28Z</time>
      </trkpt>
      <trkpt lat="49.55195" lon="6.19342">
        <ele>310.1</ele>
        <time>2020-06-26T13:42:29Z</time>
      </trkpt>
      <trkpt lat="49.55192" lon="6.19348">
        <ele>309.9</ele>
        <time>2020-06-26T13:42:30Z</time>
      </trkpt>
      <trkpt lat="49.55189" lon="6.19355">
        <ele>309.7</ele>
        <time>2020-06-26T13:42:31Z</time>
      </trkpt>
      <trkpt lat="49.55186" lon="6.19362">
        <ele>309.5</ele>
        <time>2020-06-26T13:42:32Z</time>
      </trkpt>
      <trkpt lat="49.55183" lon="6.19371">
        <ele>309.3</ele>
        <time>2020-06-26T13:42:33Z</time>
      </trkpt>
      <trkpt lat="49.5518" lon="6.19381">
        <ele>309.1</ele>
        <time>2020-06-26T13:42:34Z</time>
      </trkpt>
      <trkpt lat="49.55177" lon="6.19391">
        <ele>308.8</ele>
        <time>2020-06-26T13:42:35Z</time>
      </trkpt>
      <trkpt lat="49.55175" lon="6.19403">
        <ele>308.5</ele>
        <time>2020-06-26T13:42:36Z</time>
      </trkpt>
      <trkpt lat="49.55173" lon="6.19414">
        <ele>308.2</ele>
        <time>2020-06-26T13:42:37Z</time>
      </trkpt>
      <trkpt lat="49.55172" lon="6.19426">
        <ele>307.8</ele>
        <time>2020-06-26T13:42:38Z</time>
      </trkpt>
      <trkpt lat="49.55171" lon="6.19438">
        <ele>307.5</ele>
        <time>2020-06-26T13:42:39Z</time>
      </trkpt>
      <trkpt lat="49.5517" lon="6.1945">
        <ele>307.2</ele>
        <time>2020-06-26T13:42:40Z</time>
      </trkpt>
      <trkpt lat="49.55169" lon="6.19463">
        <ele>307</ele>
        <time>2020-06-26T13:42:41Z</time>
      </trkpt>
      <trkpt lat="49.55168" lon="6.19476">
        <ele>306.7</ele>
        <time>2020-06-26T13:42:42Z</time>
      </trkpt>
      <trkpt lat="49.55167" lon="6.19488">
        <ele>306.4</ele>
        <time>2020-06-26T13:42:43Z</time>
      </trkpt>
      <trkpt lat="49.55167" lon="6.19501">
        <ele>306.1</ele>
        <time>2020-06-26T13:42:44Z</time>
      </trkpt>
      <trkpt lat="49.55166" lon="6.19515">
        <ele>305.8</ele>
        <time>2020-06-26T13:42:45Z</time>
      </trkpt>
      <trkpt lat="49.55165" lon="6.19528">
        <ele>305.5</ele>
        <time>2020-06-26T13:42:46Z</time>
      </trkpt>
      <trkpt lat="49.55164" lon="6.1954">
        <ele>305.1</ele>
        <time>2020-06-26T13:42:47Z</time>
      </trkpt>
      <trkpt lat="49.55164" lon="6.19553">
        <ele>304.8</ele>
        <time>2020-06-26T13:42:48Z</time>
      </trkpt>
      <trkpt lat="49.55163" lon="6.19565">
        <ele>304.5</ele>
        <time>2020-06-26T13:42:49Z</time>
      </trkpt>
      <trkpt lat="49.55162" lon="6.19578">
        <ele>304.1</ele>
        <time>2020-06-26T13:42:50Z</time>
      </trkpt>
      <trkpt lat="49.55161" lon="6.19591">
        <ele>303.7</ele>
        <time>2020-06-26T13:42:51Z</time>
      </trkpt>
      <trkpt lat="49.55161" lon="6.19604">
        <ele>303.3</ele>
        <time>2020-06-26T13:42:52Z</time>
      </trkpt>
      <trkpt lat="49.5516" lon="6.19616">
        <ele>302.8</ele>
        <time>2020-06-26T13:42:53Z</time>
      </trkpt>
      <trkpt lat="49.5516" lon="6.19629">
        <ele>302.3</ele>
        <time>2020-06-26T13:42:54Z</time>
      </trkpt>
      <trkpt lat="49.5516" lon="6.19643">
        <ele>301.8</ele>
        <time>2020-06-26T13:42:55Z</time>
      </trkpt>
      <trkpt lat="49.55161" lon="6.19656">
        <ele>301.3</ele>
        <time>2020-06-26T13:42:56Z</time>
      </trkpt>
      <trkpt lat="49.55162" lon="6.19669">
        <ele>300.7</ele>
        <time>2020-06-26T13:42:57Z</time>
      </trkpt>
      <trkpt lat="49.55163" lon="6.19682">
        <ele>300.2</ele>
        <time>2020-06-26T13:42:58Z</time>
      </trkpt>
      <trkpt lat="49.55164" lon="6.19694">
        <ele>299.6</ele>
        <time>2020-06-26T13:42:59Z</time>
      </trkpt>
      <trkpt lat="49.55165" lon="6.19706">
        <ele>299.1</ele>
        <time>2020-06-26T13:43:00Z</time>
      </trkpt>
      <trkpt lat="49.55166" lon="6.19719">
        <ele>298.5</ele>
        <time>2020-06-26T13:43:01Z</time>
      </trkpt>
      <trkpt lat="49.55168" lon="6.19733">
        <ele>298</ele>
        <time>2020-06-26T13:43:02Z</time>
      </trkpt>
      <trkpt lat="49.5517" lon="6.19746">
        <ele>297.5</ele>
        <time>2020-06-26T13:43:03Z</time>
      </trkpt>
      <trkpt lat="49.55172" lon="6.1976">
        <ele>297.1</ele>
        <time>2020-06-26T13:43:04Z</time>
      </trkpt>
      <trkpt lat="49.55174" lon="6.19775">
        <ele>296.7</ele>
        <time>2020-06-26T13:43:05Z</time>
      </trkpt>
      <trkpt lat="49.55177" lon="6.1979">
        <ele>296.3</ele>
        <time>2020-06-26T13:43:06Z</time>
      </trkpt>
      <trkpt lat="49.55179" lon="6.19805">
        <ele>296</ele>
        <time>2020-06-26T13:43:07Z</time>
      </trkpt>
      <trkpt lat="49.55181" lon="6.19821">
        <ele>295.7</ele>
        <time>2020-06-26T13:43:08Z</time>
      </trkpt>
      <trkpt lat="49.55182" lon="6.19836">
        <ele>295.5</ele>
        <time>2020-06-26T13:43:09Z</time>
      </trkpt>
      <trkpt lat="49.55183" lon="6.19851">
        <ele>295.5</ele>
        <time>2020-06-26T13:43:10Z</time>
      </trkpt>
      <trkpt lat="49.55183" lon="6.19866">
        <ele>295.5</ele>
        <time>2020-06-26T13:43:11Z</time>
      </trkpt>
      <trkpt lat="49.55183" lon="6.1988">
        <ele>295.7</ele>
        <time>2020-06-26T13:43:12Z</time>
      </trkpt>
      <trkpt lat="49.55183" lon="6.19894">
        <ele>295.8</ele>
        <time>2020-06-26T13:43:13Z</time>
      </trkpt>
      <trkpt lat="49.55182" lon="6.19907">
        <ele>296</ele>
        <time>2020-06-26T13:43:14Z</time>
      </trkpt>
      <trkpt lat="49.55181" lon="6.1992">
        <ele>296.2</ele>
        <time>2020-06-26T13:43:15Z</time>
      </trkpt>
      <trkpt lat="49.55179" lon="6.19933">
        <ele>296.3</ele>
        <time>2020-06-26T13:43:16Z</time>
      </trkpt>
      <trkpt lat="49.55177" lon="6.19946">
        <ele>296.6</ele>
        <time>2020-06-26T13:43:17Z</time>
      </trkpt>
      <trkpt lat="49.55175" lon="6.19959">
        <ele>296.8</ele>
        <time>2020-06-26T13:43:18Z</time>
      </trkpt>
      <trkpt lat="49.55173" lon="6.19971">
        <ele>297.1</ele>
        <time>2020-06-26T13:43:19Z</time>
      </trkpt>
      <trkpt lat="49.5517" lon="6.19983">
        <ele>297.4</ele>
        <time>2020-06-26T13:43:20Z</time>
      </trkpt>
      <trkpt lat="49.55167" lon="6.19993">
        <ele>297.7</ele>
        <time>2020-06-26T13:43:21Z</time>
      </trkpt>
      <trkpt lat="49.55164" lon="6.20004">
        <ele>298.1</ele>
        <time>2020-06-26T13:43:22Z</time>
      </trkpt>
      <trkpt lat="49.55162" lon="6.20013">
        <ele>298.3</ele>
        <time>2020-06-26T13:43:23Z</time>
      </trkpt>
      <trkpt lat="49.55161" lon="6.20023">
        <ele>298.6</ele>
        <time>2020-06-26T13:43:24Z</time>
      </trkpt>
      <trkpt lat="49.55159" lon="6.20032">
        <ele>298.9</ele>
        <time>2020-06-26T13:43:25Z</time>
      </trkpt>
      <trkpt lat="49.55157" lon="6.20041">
        <ele>299.1</ele>
        <time>2020-06-26T13:43:26Z</time>
      </trkpt>
      <trkpt lat="49.55156" lon="6.20049">
        <ele>299.4</ele>
        <time>2020-06-26T13:43:27Z</time>
      </trkpt>
      <trkpt lat="49.55155" lon="6.20057">
        <ele>299.6</ele>
        <time>2020-06-26T13:43:28Z</time>
      </trkpt>
      <trkpt lat="49.55154" lon="6.20065">
        <ele>299.8</ele>
        <time>2020-06-26T13:43:29Z</time>
      </trkpt>
      <trkpt lat="49.55152" lon="6.20073">
        <ele>299.9</ele>
        <time>2020-06-26T13:43:30Z</time>
      </trkpt>
      <trkpt lat="49.55151" lon="6.20081">
        <ele>300</ele>
        <time>2020-06-26T13:43:31Z</time>
      </trkpt>
      <trkpt lat="49.5515" lon="6.20088">
        <ele>300</ele>
        <time>2020-06-26T13:43:32Z</time>
      </trkpt>
      <trkpt lat="49.55149" lon="6.20096">
        <ele>300</ele>
        <time>2020-06-26T13:43:33Z</time>
      </trkpt>
      <trkpt lat="49.55147" lon="6.20103">
        <ele>300</ele>
        <time>2020-06-26T13:43:34Z</time>
      </trkpt>
      <trkpt lat="49.55146" lon="6.20111">
        <ele>300</ele>
        <time>2020-06-26T13:43:35Z</time>
      </trkpt>
      <trkpt lat="49.55145" lon="6.20119">
        <ele>300</ele>
        <time>2020-06-26T13:43:36Z</time>
      </trkpt>
      <trkpt lat="49.55143" lon="6.20126">
        <ele>300</ele>
        <time>2020-06-26T13:43:37Z</time>
      </trkpt>
      <trkpt lat="49.55142" lon="6.20134">
        <ele>300</ele>
        <time>2020-06-26T13:43:38Z</time>
      </trkpt>
      <trkpt lat="49.5514" lon="6.20141">
        <ele>299.9</ele>
        <time>2020-06-26T13:43:39Z</time>
      </trkpt>
      <trkpt lat="49.55139" lon="6.20148">
        <ele>299.9</ele>
        <time>2020-06-26T13:43:40Z</time>
      </trkpt>
      <trkpt lat="49.55137" lon="6.20155">
        <ele>299.9</ele>
        <time>2020-06-26T13:43:41Z</time>
      </trkpt>
      <trkpt lat="49.55136" lon="6.20161">
        <ele>299.8</ele>
        <time>2020-06-26T13:43:42Z</time>
      </trkpt>
      <trkpt lat="49.55135" lon="6.20167">
        <ele>299.8</ele>
        <time>2020-06-26T13:43:43Z</time>
      </trkpt>
      <trkpt lat="49.55134" lon="6.20173">
        <ele>299.7</ele>
        <time>2020-06-26T13:43:44Z</time>
      </trkpt>
      <trkpt lat="49.55133" lon="6.20178">
        <ele>299.7</ele>
        <time>2020-06-26T13:43:45Z</time>
      </trkpt>
      <trkpt lat="49.55132" lon="6.20184">
        <ele>299.6</ele>
        <time>2020-06-26T13:43:46Z</time>
      </trkpt>
      <trkpt lat="49.55131" lon="6.20191">
        <ele>299.6</ele>
        <time>2020-06-26T13:43:47Z</time>
      </trkpt>
      <trkpt lat="49.5513" lon="6.20198">
        <ele>299.5</ele>
        <time>2020-06-26T13:43:48Z</time>
      </trkpt>
      <trkpt lat="49.5513" lon="6.20206">
        <ele>299.4</ele>
        <time>2020-06-26T13:43:49Z</time>
      </trkpt>
      <trkpt lat="49.55129" lon="6.20214">
        <ele>299.3</ele>
        <time>2020-06-26T13:43:50Z</time>
      </trkpt>
      <trkpt lat="49.55128" lon="6.20223">
        <ele>299.2</ele>
        <time>2020-06-26T13:43:51Z</time>
      </trkpt>
      <trkpt lat="49.55128" lon="6.20233">
        <ele>299.1</ele>
        <time>2020-06-26T13:43:52Z</time>
      </trkpt>
      <trkpt lat="49.55128" lon="6.20242">
        <ele>298.9</ele>
        <time>2020-06-26T13:43:53Z</time>
      </trkpt>
      <trkpt lat="49.55128" lon="6.20251">
        <ele>298.7</ele>
        <time>2020-06-26T13:43:54Z</time>
      </trkpt>
      <trkpt lat="49.55128" lon="6.20263">
        <ele>298.5</ele>
        <time>2020-06-26T13:43:55Z</time>
      </trkpt>
      <trkpt lat="49.55129" lon="6.20274">
        <ele>298.2</ele>
        <time>2020-06-26T13:43:56Z</time>
      </trkpt>
      <trkpt lat="49.5513" lon="6.20285">
        <ele>298</ele>
        <time>2020-06-26T13:43:57Z</time>
      </trkpt>
      <trkpt lat="49.55131" lon="6.20296">
        <ele>297.9</ele>
        <time>2020-06-26T13:43:58Z</time>
      </trkpt>
      <trkpt lat="49.55132" lon="6.20309">
        <ele>297.7</ele>
        <time>2020-06-26T13:43:59Z</time>
      </trkpt>
      <trkpt lat="49.55133" lon="6.20323">
        <ele>297.6</ele>
        <time>2020-06-26T13:44:00Z</time>
      </trkpt>
      <trkpt lat="49.55134" lon="6.20336">
        <ele>297.5</ele>
        <time>2020-06-26T13:44:01Z</time>
      </trkpt>
      <trkpt lat="49.55134" lon="6.20347">
        <ele>297.5</ele>
        <time>2020-06-26T13:44:02Z</time>
      </trkpt>
      <trkpt lat="49.55133" lon="6.2036">
        <ele>297.5</ele>
        <time>2020-06-26T13:44:03Z</time>
      </trkpt>
      <trkpt lat="49.55132" lon="6.20373">
        <ele>297.5</ele>
        <time>2020-06-26T13:44:04Z</time>
      </trkpt>
      <trkpt lat="49.5513" lon="6.20384">
        <ele>297.6</ele>
        <time>2020-06-26T13:44:05Z</time>
      </trkpt>
      <trkpt lat="49.55128" lon="6.20396">
        <ele>297.6</ele>
        <time>2020-06-26T13:44:06Z</time>
      </trkpt>
      <trkpt lat="49.55125" lon="6.20407">
        <ele>297.7</ele>
        <time>2020-06-26T13:44:07Z</time>
      </trkpt>
      <trkpt lat="49.55123" lon="6.20419">
        <ele>297.8</ele>
        <time>2020-06-26T13:44:08Z</time>
      </trkpt>
      <trkpt lat="49.5512" lon="6.2043">
        <ele>297.9</ele>
        <time>2020-06-26T13:44:09Z</time>
      </trkpt>
      <trkpt lat="49.55118" lon="6.20441">
        <ele>298</ele>
        <time>2020-06-26T13:44:10Z</time>
      </trkpt>
      <trkpt lat="49.55116" lon="6.20451">
        <ele>298.2</ele>
        <time>2020-06-26T13:44:11Z</time>
      </trkpt>
      <trkpt lat="49.55113" lon="6.2046">
        <ele>298.3</ele>
        <time>2020-06-26T13:44:12Z</time>
      </trkpt>
      <trkpt lat="49.55111" lon="6.2047">
        <ele>298.3</ele>
        <time>2020-06-26T13:44:13Z</time>
      </trkpt>
      <trkpt lat="49.55109" lon="6.2048">
        <ele>298.2</ele>
        <time>2020-06-26T13:44:14Z</time>
      </trkpt>
      <trkpt lat="49.55107" lon="6.20491">
        <ele>298.2</ele>
        <time>2020-06-26T13:44:15Z</time>
      </trkpt>
      <trkpt lat="49.55105" lon="6.20501">
        <ele>298.1</ele>
        <time>2020-06-26T13:44:16Z</time>
      </trkpt>
      <trkpt lat="49.55103" lon="6.20511">
        <ele>298.1</ele>
        <time>2020-06-26T13:44:17Z</time>
      </trkpt>
      <trkpt lat="49.55101" lon="6.20521">
        <ele>298</ele>
        <time>2020-06-26T13:44:18Z</time>
      </trkpt>
      <trkpt lat="49.55099" lon="6.20531">
        <ele>297.9</ele>
        <time>2020-06-26T13:44:19Z</time>
      </trkpt>
      <trkpt lat="49.55098" lon="6.20542">
        <ele>297.8</ele>
        <time>2020-06-26T13:44:20Z</time>
      </trkpt>
      <trkpt lat="49.55096" lon="6.20552">
        <ele>297.7</ele>
        <time>2020-06-26T13:44:21Z</time>
      </trkpt>
      <trkpt lat="49.55094" lon="6.20562">
        <ele>297.6</ele>
        <time>2020-06-26T13:44:22Z</time>
      </trkpt>
      <trkpt lat="49.55093" lon="6.20573">
        <ele>297.5</ele>
        <time>2020-06-26T13:44:23Z</time>
      </trkpt>
      <trkpt lat="49.55091" lon="6.20582">
        <ele>297.4</ele>
        <time>2020-06-26T13:44:24Z</time>
      </trkpt>
      <trkpt lat="49.55089" lon="6.20593">
        <ele>297.2</ele>
        <time>2020-06-26T13:44:25Z</time>
      </trkpt>
      <trkpt lat="49.55087" lon="6.20603">
        <ele>297.1</ele>
        <time>2020-06-26T13:44:26Z</time>
      </trkpt>
      <trkpt lat="49.55085" lon="6.20612">
        <ele>296.9</ele>
        <time>2020-06-26T13:44:27Z</time>
      </trkpt>
      <trkpt lat="49.55083" lon="6.20622">
        <ele>296.7</ele>
        <time>2020-06-26T13:44:28Z</time>
      </trkpt>
      <trkpt lat="49.55081" lon="6.20632">
        <ele>296.5</ele>
        <time>2020-06-26T13:44:29Z</time>
      </trkpt>
      <trkpt lat="49.5508" lon="6.20642">
        <ele>296.2</ele>
        <time>2020-06-26T13:44:30Z</time>
      </trkpt>
      <trkpt lat="49.55078" lon="6.20652">
        <ele>296</ele>
        <time>2020-06-26T13:44:31Z</time>
      </trkpt>
      <trkpt lat="49.55076" lon="6.20662">
        <ele>295.7</ele>
        <time>2020-06-26T13:44:32Z</time>
      </trkpt>
      <trkpt lat="49.55075" lon="6.20673">
        <ele>295.4</ele>
        <time>2020-06-26T13:44:33Z</time>
      </trkpt>
      <trkpt lat="49.55074" lon="6.20683">
        <ele>295.1</ele>
        <time>2020-06-26T13:44:34Z</time>
      </trkpt>
      <trkpt lat="49.55073" lon="6.20694">
        <ele>294.8</ele>
        <time>2020-06-26T13:44:35Z</time>
      </trkpt>
      <trkpt lat="49.55072" lon="6.20705">
        <ele>294.4</ele>
        <time>2020-06-26T13:44:36Z</time>
      </trkpt>
      <trkpt lat="49.55071" lon="6.20716">
        <ele>293.9</ele>
        <time>2020-06-26T13:44:37Z</time>
      </trkpt>
      <trkpt lat="49.5507" lon="6.20727">
        <ele>293.5</ele>
        <time>2020-06-26T13:44:38Z</time>
      </trkpt>
      <trkpt lat="49.55069" lon="6.20738">
        <ele>293</ele>
        <time>2020-06-26T13:44:39Z</time>
      </trkpt>
      <trkpt lat="49.55068" lon="6.2075">
        <ele>292.5</ele>
        <time>2020-06-26T13:44:40Z</time>
      </trkpt>
      <trkpt lat="49.55067" lon="6.20762">
        <ele>292.2</ele>
        <time>2020-06-26T13:44:41Z</time>
      </trkpt>
      <trkpt lat="49.55065" lon="6.20773">
        <ele>291.8</ele>
        <time>2020-06-26T13:44:42Z</time>
      </trkpt>
      <trkpt lat="49.55062" lon="6.20784">
        <ele>291.4</ele>
        <time>2020-06-26T13:44:43Z</time>
      </trkpt>
      <trkpt lat="49.55059" lon="6.20795">
        <ele>291.1</ele>
        <time>2020-06-26T13:44:44Z</time>
      </trkpt>
      <trkpt lat="49.55055" lon="6.20806">
        <ele>290.5</ele>
        <time>2020-06-26T13:44:45Z</time>
      </trkpt>
      <trkpt lat="49.5505" lon="6.20817">
        <ele>290.1</ele>
        <time>2020-06-26T13:44:46Z</time>
      </trkpt>
      <trkpt lat="49.55044" lon="6.20827">
        <ele>289.7</ele>
        <time>2020-06-26T13:44:47Z</time>
      </trkpt>
      <trkpt lat="49.55037" lon="6.20837">
        <ele>289.2</ele>
        <time>2020-06-26T13:44:48Z</time>
      </trkpt>
      <trkpt lat="49.5503" lon="6.20846">
        <ele>288.7</ele>
        <time>2020-06-26T13:44:49Z</time>
      </trkpt>
      <trkpt lat="49.55023" lon="6.20855">
        <ele>288.3</ele>
        <time>2020-06-26T13:44:50Z</time>
      </trkpt>
      <trkpt lat="49.55016" lon="6.20864">
        <ele>287.9</ele>
        <time>2020-06-26T13:44:51Z</time>
      </trkpt>
      <trkpt lat="49.5501" lon="6.20872">
        <ele>287.6</ele>
        <time>2020-06-26T13:44:52Z</time>
      </trkpt>
      <trkpt lat="49.55003" lon="6.20881">
        <ele>287.4</ele>
        <time>2020-06-26T13:44:53Z</time>
      </trkpt>
      <trkpt lat="49.54997" lon="6.2089">
        <ele>287.2</ele>
        <time>2020-06-26T13:44:54Z</time>
      </trkpt>
      <trkpt lat="49.54991" lon="6.20899">
        <ele>287.2</ele>
        <time>2020-06-26T13:44:55Z</time>
      </trkpt>
      <trkpt lat="49.54986" lon="6.20909">
        <ele>286.9</ele>
        <time>2020-06-26T13:44:56Z</time>
      </trkpt>
      <trkpt lat="49.54981" lon="6.20919">
        <ele>286.6</ele>
        <time>2020-06-26T13:44:57Z</time>
      </trkpt>
      <trkpt lat="49.54976" lon="6.20929">
        <ele>286.3</ele>
        <time>2020-06-26T13:44:58Z</time>
      </trkpt>
      <trkpt lat="49.54972" lon="6.2094">
        <ele>286.1</ele>
        <time>2020-06-26T13:44:59Z</time>
      </trkpt>
      <trkpt lat="49.54969" lon="6.20951">
        <ele>286</ele>
        <time>2020-06-26T13:45:00Z</time>
      </trkpt>
      <trkpt lat="49.54965" lon="6.20961">
        <ele>285.8</ele>
        <time>2020-06-26T13:45:01Z</time>
      </trkpt>
      <trkpt lat="49.5496" lon="6.20971">
        <ele>285.7</ele>
        <time>2020-06-26T13:45:02Z</time>
      </trkpt>
      <trkpt lat="49.54955" lon="6.2098">
        <ele>285.7</ele>
        <time>2020-06-26T13:45:03Z</time>
      </trkpt>
      <trkpt lat="49.5495" lon="6.20989">
        <ele>285.7</ele>
        <time>2020-06-26T13:45:04Z</time>
      </trkpt>
      <trkpt lat="49.54943" lon="6.20996">
        <ele>285.8</ele>
        <time>2020-06-26T13:45:05Z</time>
      </trkpt>
      <trkpt lat="49.54938" lon="6.21006">
        <ele>286</ele>
        <time>2020-06-26T13:45:06Z</time>
      </trkpt>
      <trkpt lat="49.54933" lon="6.21016">
        <ele>286.2</ele>
        <time>2020-06-26T13:45:07Z</time>
      </trkpt>
      <trkpt lat="49.54928" lon="6.21025">
        <ele>286.3</ele>
        <time>2020-06-26T13:45:08Z</time>
      </trkpt>
      <trkpt lat="49.54924" lon="6.21034">
        <ele>286.3</ele>
        <time>2020-06-26T13:45:09Z</time>
      </trkpt>
      <trkpt lat="49.54918" lon="6.21043">
        <ele>286.3</ele>
        <time>2020-06-26T13:45:10Z</time>
      </trkpt>
      <trkpt lat="49.54915" lon="6.21053">
        <ele>286.4</ele>
        <time>2020-06-26T13:45:11Z</time>
      </trkpt>
      <trkpt lat="49.54912" lon="6.21063">
        <ele>286.5</ele>
        <time>2020-06-26T13:45:12Z</time>
      </trkpt>
      <trkpt lat="49.54909" lon="6.21073">
        <ele>286.7</ele>
        <time>2020-06-26T13:45:13Z</time>
      </trkpt>
      <trkpt lat="49.54906" lon="6.21082">
        <ele>286.9</ele>
        <time>2020-06-26T13:45:14Z</time>
      </trkpt>
      <trkpt lat="49.54903" lon="6.21092">
        <ele>287.1</ele>
        <time>2020-06-26T13:45:15Z</time>
      </trkpt>
      <trkpt lat="49.54899" lon="6.211">
        <ele>287.4</ele>
        <time>2020-06-26T13:45:16Z</time>
      </trkpt>
      <trkpt lat="49.54896" lon="6.21108">
        <ele>287.6</ele>
        <time>2020-06-26T13:45:17Z</time>
      </trkpt>
      <trkpt lat="49.54893" lon="6.21117">
        <ele>287.8</ele>
        <time>2020-06-26T13:45:18Z</time>
      </trkpt>
      <trkpt lat="49.54891" lon="6.21125">
        <ele>288</ele>
        <time>2020-06-26T13:45:19Z</time>
      </trkpt>
      <trkpt lat="49.54889" lon="6.21132">
        <ele>288.2</ele>
        <time>2020-06-26T13:45:20Z</time>
      </trkpt>
      <trkpt lat="49.54887" lon="6.2114">
        <ele>288.5</ele>
        <time>2020-06-26T13:45:21Z</time>
      </trkpt>
      <trkpt lat="49.54885" lon="6.21148">
        <ele>288.8</ele>
        <time>2020-06-26T13:45:22Z</time>
      </trkpt>
      <trkpt lat="49.54884" lon="6.21156">
        <ele>289.1</ele>
        <time>2020-06-26T13:45:23Z</time>
      </trkpt>
      <trkpt lat="49.54883" lon="6.21164">
        <ele>289.5</ele>
        <time>2020-06-26T13:45:24Z</time>
      </trkpt>
      <trkpt lat="49.54881" lon="6.21171">
        <ele>289.8</ele>
        <time>2020-06-26T13:45:25Z</time>
      </trkpt>
      <trkpt lat="49.54879" lon="6.21177">
        <ele>290.1</ele>
        <time>2020-06-26T13:45:26Z</time>
      </trkpt>
      <trkpt lat="49.54878" lon="6.21184">
        <ele>290.4</ele>
        <time>2020-06-26T13:45:27Z</time>
      </trkpt>
      <trkpt lat="49.54877" lon="6.21191">
        <ele>290.7</ele>
        <time>2020-06-26T13:45:28Z</time>
      </trkpt>
      <trkpt lat="49.54876" lon="6.21199">
        <ele>291</ele>
        <time>2020-06-26T13:45:29Z</time>
      </trkpt>
      <trkpt lat="49.54876" lon="6.21206">
        <ele>291.4</ele>
        <time>2020-06-26T13:45:30Z</time>
      </trkpt>
      <trkpt lat="49.54876" lon="6.21214">
        <ele>291.8</ele>
        <time>2020-06-26T13:45:31Z</time>
      </trkpt>
      <trkpt lat="49.54875" lon="6.21221">
        <ele>292.2</ele>
        <time>2020-06-26T13:45:32Z</time>
      </trkpt>
      <trkpt lat="49.54874" lon="6.21229">
        <ele>292.6</ele>
        <time>2020-06-26T13:45:33Z</time>
      </trkpt>
      <trkpt lat="49.54873" lon="6.21236">
        <ele>293</ele>
        <time>2020-06-26T13:45:34Z</time>
      </trkpt>
      <trkpt lat="49.54873" lon="6.21244">
        <ele>293.5</ele>
        <time>2020-06-26T13:45:35Z</time>
      </trkpt>
      <trkpt lat="49.54873" lon="6.21252">
        <ele>293.9</ele>
        <time>2020-06-26T13:45:36Z</time>
      </trkpt>
      <trkpt lat="49.54873" lon="6.2126">
        <ele>294.3</ele>
        <time>2020-06-26T13:45:37Z</time>
      </trkpt>
      <trkpt lat="49.54873" lon="6.21268">
        <ele>294.7</ele>
        <time>2020-06-26T13:45:38Z</time>
      </trkpt>
      <trkpt lat="49.54872" lon="6.21275">
        <ele>295.1</ele>
        <time>2020-06-26T13:45:39Z</time>
      </trkpt>
      <trkpt lat="49.54871" lon="6.21283">
        <ele>295.7</ele>
        <time>2020-06-26T13:45:40Z</time>
      </trkpt>
      <trkpt lat="49.54871" lon="6.2129">
        <ele>296</ele>
        <time>2020-06-26T13:45:41Z</time>
      </trkpt>
      <trkpt lat="49.5487" lon="6.21296">
        <ele>296.3</ele>
        <time>2020-06-26T13:45:42Z</time>
      </trkpt>
      <trkpt lat="49.5487" lon="6.21301">
        <ele>296.5</ele>
        <time>2020-06-26T13:45:43Z</time>
      </trkpt>
      <trkpt lat="49.5487" lon="6.21306">
        <ele>296.7</ele>
        <time>2020-06-26T13:45:44Z</time>
      </trkpt>
      <trkpt lat="49.5487" lon="6.21311">
        <ele>296.9</ele>
        <time>2020-06-26T13:45:45Z</time>
      </trkpt>
      <trkpt lat="49.5487" lon="6.21315">
        <ele>297.1</ele>
        <time>2020-06-26T13:45:46Z</time>
      </trkpt>
      <trkpt lat="49.54869" lon="6.21319">
        <ele>297.3</ele>
        <time>2020-06-26T13:45:47Z</time>
      </trkpt>
      <trkpt lat="49.54867" lon="6.21324">
        <ele>297.5</ele>
        <time>2020-06-26T13:45:48Z</time>
      </trkpt>
      <trkpt lat="49.54865" lon="6.21329">
        <ele>297.8</ele>
        <time>2020-06-26T13:45:49Z</time>
      </trkpt>
      <trkpt lat="49.54864" lon="6.21334">
        <ele>298</ele>
        <time>2020-06-26T13:45:50Z</time>
      </trkpt>
      <trkpt lat="49.54863" lon="6.21339">
        <ele>298.2</ele>
        <time>2020-06-26T13:45:51Z</time>
      </trkpt>
      <trkpt lat="49.54862" lon="6.21346">
        <ele>298.5</ele>
        <time>2020-06-26T13:45:52Z</time>
      </trkpt>
      <trkpt lat="49.54861" lon="6.21351">
        <ele>298.8</ele>
        <time>2020-06-26T13:45:53Z</time>
      </trkpt>
      <trkpt lat="49.54859" lon="6.21357">
        <ele>299</ele>
        <time>2020-06-26T13:45:54Z</time>
      </trkpt>
      <trkpt lat="49.54859" lon="6.21362">
        <ele>299.2</ele>
        <time>2020-06-26T13:45:55Z</time>
      </trkpt>
      <trkpt lat="49.54859" lon="6.21367">
        <ele>299.4</ele>
        <time>2020-06-26T13:45:56Z</time>
      </trkpt>
      <trkpt lat="49.54859" lon="6.21373">
        <ele>299.7</ele>
        <time>2020-06-26T13:45:57Z</time>
      </trkpt>
      <trkpt lat="49.54859" lon="6.21379">
        <ele>299.9</ele>
        <time>2020-06-26T13:45:58Z</time>
      </trkpt>
      <trkpt lat="49.54858" lon="6.21385">
        <ele>300.1</ele>
        <time>2020-06-26T13:45:59Z</time>
      </trkpt>
      <trkpt lat="49.54858" lon="6.2139">
        <ele>300.3</ele>
        <time>2020-06-26T13:46:00Z</time>
      </trkpt>
      <trkpt lat="49.54858" lon="6.21393">
        <ele>300.4</ele>
        <time>2020-06-26T13:46:01Z</time>
      </trkpt>
      <trkpt lat="49.54857" lon="6.21398">
        <ele>300.6</ele>
        <time>2020-06-26T13:46:02Z</time>
      </trkpt>
      <trkpt lat="49.54855" lon="6.21404">
        <ele>300.7</ele>
        <time>2020-06-26T13:46:03Z</time>
      </trkpt>
      <trkpt lat="49.54855" lon="6.21409">
        <ele>300.9</ele>
        <time>2020-06-26T13:46:04Z</time>
      </trkpt>
      <trkpt lat="49.54854" lon="6.21414">
        <ele>301</ele>
        <time>2020-06-26T13:46:05Z</time>
      </trkpt>
      <trkpt lat="49.54853" lon="6.21419">
        <ele>301.2</ele>
        <time>2020-06-26T13:46:06Z</time>
      </trkpt>
      <trkpt lat="49.54852" lon="6.21424">
        <ele>301.3</ele>
        <time>2020-06-26T13:46:07Z</time>
      </trkpt>
      <trkpt lat="49.54852" lon="6.2143">
        <ele>301.5</ele>
        <time>2020-06-26T13:46:08Z</time>
      </trkpt>
      <trkpt lat="49.54851" lon="6.21435">
        <ele>301.6</ele>
        <time>2020-06-26T13:46:09Z</time>
      </trkpt>
      <trkpt lat="49.5485" lon="6.21441">
        <ele>301.8</ele>
        <time>2020-06-26T13:46:10Z</time>
      </trkpt>
      <trkpt lat="49.5485" lon="6.21447">
        <ele>301.9</ele>
        <time>2020-06-26T13:46:11Z</time>
      </trkpt>
      <trkpt lat="49.5485" lon="6.21453">
        <ele>302.1</ele>
        <time>2020-06-26T13:46:12Z</time>
      </trkpt>
      <trkpt lat="49.54849" lon="6.21458">
        <ele>302.2</ele>
        <time>2020-06-26T13:46:13Z</time>
      </trkpt>
      <trkpt lat="49.54849" lon="6.21464">
        <ele>302.3</ele>
        <time>2020-06-26T13:46:14Z</time>
      </trkpt>
      <trkpt lat="49.5485" lon="6.21468">
        <ele>302.4</ele>
        <time>2020-06-26T13:46:15Z</time>
      </trkpt>
      <trkpt lat="49.5485" lon="6.21473">
        <ele>302.5</ele>
        <time>2020-06-26T13:46:16Z</time>
      </trkpt>
      <trkpt lat="49.5485" lon="6.21479">
        <ele>302.8</ele>
        <time>2020-06-26T13:46:17Z</time>
      </trkpt>
      <trkpt lat="49.5485" lon="6.21485">
        <ele>303</ele>
        <time>2020-06-26T13:46:18Z</time>
      </trkpt>
      <trkpt lat="49.54851" lon="6.21492">
        <ele>303.3</ele>
        <time>2020-06-26T13:46:19Z</time>
      </trkpt>
      <trkpt lat="49.54851" lon="6.21498">
        <ele>303.5</ele>
        <time>2020-06-26T13:46:20Z</time>
      </trkpt>
      <trkpt lat="49.54851" lon="6.21505">
        <ele>303.7</ele>
        <time>2020-06-26T13:46:21Z</time>
      </trkpt>
      <trkpt lat="49.54852" lon="6.21512">
        <ele>304</ele>
        <time>2020-06-26T13:46:22Z</time>
      </trkpt>
      <trkpt lat="49.54852" lon="6.21518">
        <ele>304.2</ele>
        <time>2020-06-26T13:46:23Z</time>
      </trkpt>
      <trkpt lat="49.54852" lon="6.21525">
        <ele>304.4</ele>
        <time>2020-06-26T13:46:24Z</time>
      </trkpt>
      <trkpt lat="49.54853" lon="6.21531">
        <ele>304.6</ele>
        <time>2020-06-26T13:46:25Z</time>
      </trkpt>
      <trkpt lat="49.54854" lon="6.21537">
        <ele>304.8</ele>
        <time>2020-06-26T13:46:26Z</time>
      </trkpt>
      <trkpt lat="49.54854" lon="6.21542">
        <ele>305</ele>
        <time>2020-06-26T13:46:27Z</time>
      </trkpt>
      <trkpt lat="49.54854" lon="6.21548">
        <ele>305.1</ele>
        <time>2020-06-26T13:46:28Z</time>
      </trkpt>
      <trkpt lat="49.54854" lon="6.21553">
        <ele>305.3</ele>
        <time>2020-06-26T13:46:29Z</time>
      </trkpt>
      <trkpt lat="49.54855" lon="6.21558">
        <ele>305.4</ele>
        <time>2020-06-26T13:46:30Z</time>
      </trkpt>
      <trkpt lat="49.54855" lon="6.21563">
        <ele>305.6</ele>
        <time>2020-06-26T13:46:31Z</time>
      </trkpt>
      <trkpt lat="49.54855" lon="6.21569">
        <ele>305.8</ele>
        <time>2020-06-26T13:46:32Z</time>
      </trkpt>
      <trkpt lat="49.54855" lon="6.21574">
        <ele>305.9</ele>
        <time>2020-06-26T13:46:33Z</time>
      </trkpt>
      <trkpt lat="49.54855" lon="6.21578">
        <ele>306.1</ele>
        <time>2020-06-26T13:46:34Z</time>
      </trkpt>
      <trkpt lat="49.54855" lon="6.21584">
        <ele>306.3</ele>
        <time>2020-06-26T13:46:35Z</time>
      </trkpt>
      <trkpt lat="49.54855" lon="6.21586">
        <ele>306.4</ele>
        <time>2020-06-26T13:46:36Z</time>
      </trkpt>
      <trkpt lat="49.54855" lon="6.21592">
        <ele>306.4</ele>
        <time>2020-06-26T13:46:37Z</time>
      </trkpt>
      <trkpt lat="49.54854" lon="6.21598">
        <ele>306.5</ele>
        <time>2020-06-26T13:46:38Z</time>
      </trkpt>
      <trkpt lat="49.54854" lon="6.216">
        <ele>306.6</ele>
        <time>2020-06-26T13:46:39Z</time>
      </trkpt>
      <trkpt lat="49.54852" lon="6.21603">
        <ele>306.6</ele>
        <time>2020-06-26T13:46:40Z</time>
      </trkpt>
      <trkpt lat="49.5485" lon="6.21608">
        <ele>306.7</ele>
        <time>2020-06-26T13:46:41Z</time>
      </trkpt>
      <trkpt lat="49.54848" lon="6.21612">
        <ele>306.7</ele>
        <time>2020-06-26T13:46:42Z</time>
      </trkpt>
      <trkpt lat="49.54846" lon="6.21616">
        <ele>306.7</ele>
        <time>2020-06-26T13:46:43Z</time>
      </trkpt>
      <trkpt lat="49.54843" lon="6.21619">
        <ele>306.7</ele>
        <time>2020-06-26T13:46:44Z</time>
      </trkpt>
      <trkpt lat="49.54839" lon="6.21623">
        <ele>306.8</ele>
        <time>2020-06-26T13:46:45Z</time>
      </trkpt>
      <trkpt lat="49.54834" lon="6.2163">
        <ele>306.8</ele>
        <time>2020-06-26T13:46:46Z</time>
      </trkpt>
      <trkpt lat="49.5483" lon="6.21635">
        <ele>306.8</ele>
        <time>2020-06-26T13:46:47Z</time>
      </trkpt>
      <trkpt lat="49.54827" lon="6.21639">
        <ele>306.8</ele>
        <time>2020-06-26T13:46:48Z</time>
      </trkpt>
      <trkpt lat="49.54824" lon="6.21643">
        <ele>306.8</ele>
        <time>2020-06-26T13:46:49Z</time>
      </trkpt>
      <trkpt lat="49.5482" lon="6.21645">
        <ele>306.8</ele>
        <time>2020-06-26T13:46:50Z</time>
      </trkpt>
      <trkpt lat="49.54817" lon="6.21647">
        <ele>306.9</ele>
        <time>2020-06-26T13:46:51Z</time>
      </trkpt>
      <trkpt lat="49.54813" lon="6.21649">
        <ele>306.9</ele>
        <time>2020-06-26T13:46:52Z</time>
      </trkpt>
      <trkpt lat="49.54809" lon="6.21651">
        <ele>307</ele>
        <time>2020-06-26T13:46:53Z</time>
      </trkpt>
      <trkpt lat="49.54805" lon="6.21652">
        <ele>307</ele>
        <time>2020-06-26T13:46:54Z</time>
      </trkpt>
      <trkpt lat="49.548" lon="6.21653">
        <ele>307.1</ele>
        <time>2020-06-26T13:46:55Z</time>
      </trkpt>
      <trkpt lat="49.54797" lon="6.21654">
        <ele>307.2</ele>
        <time>2020-06-26T13:46:56Z</time>
      </trkpt>
      <trkpt lat="49.54793" lon="6.21656">
        <ele>307.4</ele>
        <time>2020-06-26T13:46:57Z</time>
      </trkpt>
      <trkpt lat="49.5479" lon="6.21657">
        <ele>307.5</ele>
        <time>2020-06-26T13:46:58Z</time>
      </trkpt>
      <trkpt lat="49.54786" lon="6.21659">
        <ele>307.6</ele>
        <time>2020-06-26T13:46:59Z</time>
      </trkpt>
      <trkpt lat="49.54782" lon="6.2166">
        <ele>307.8</ele>
        <time>2020-06-26T13:47:00Z</time>
      </trkpt>
      <trkpt lat="49.54778" lon="6.21662">
        <ele>307.9</ele>
        <time>2020-06-26T13:47:01Z</time>
      </trkpt>
      <trkpt lat="49.54775" lon="6.21663">
        <ele>308.1</ele>
        <time>2020-06-26T13:47:02Z</time>
      </trkpt>
      <trkpt lat="49.54771" lon="6.21665">
        <ele>308.3</ele>
        <time>2020-06-26T13:47:03Z</time>
      </trkpt>
      <trkpt lat="49.54768" lon="6.21666">
        <ele>308.4</ele>
        <time>2020-06-26T13:47:04Z</time>
      </trkpt>
      <trkpt lat="49.54765" lon="6.21667">
        <ele>308.6</ele>
        <time>2020-06-26T13:47:05Z</time>
      </trkpt>
      <trkpt lat="49.54762" lon="6.21668">
        <ele>308.7</ele>
        <time>2020-06-26T13:47:06Z</time>
      </trkpt>
      <trkpt lat="49.54759" lon="6.21668">
        <ele>308.8</ele>
        <time>2020-06-26T13:47:07Z</time>
      </trkpt>
      <trkpt lat="49.54756" lon="6.2167">
        <ele>309</ele>
        <time>2020-06-26T13:47:08Z</time>
      </trkpt>
      <trkpt lat="49.54752" lon="6.21672">
        <ele>309.1</ele>
        <time>2020-06-26T13:47:09Z</time>
      </trkpt>
      <trkpt lat="49.54748" lon="6.21673">
        <ele>309.3</ele>
        <time>2020-06-26T13:47:10Z</time>
      </trkpt>
      <trkpt lat="49.54745" lon="6.21675">
        <ele>309.5</ele>
        <time>2020-06-26T13:47:11Z</time>
      </trkpt>
      <trkpt lat="49.54742" lon="6.21676">
        <ele>309.6</ele>
        <time>2020-06-26T13:47:12Z</time>
      </trkpt>
      <trkpt lat="49.54739" lon="6.21679">
        <ele>309.8</ele>
        <time>2020-06-26T13:47:13Z</time>
      </trkpt>
      <trkpt lat="49.54736" lon="6.2168">
        <ele>310</ele>
        <time>2020-06-26T13:47:14Z</time>
      </trkpt>
      <trkpt lat="49.54733" lon="6.21682">
        <ele>310.1</ele>
        <time>2020-06-26T13:47:15Z</time>
      </trkpt>
      <trkpt lat="49.5473" lon="6.21683">
        <ele>310.3</ele>
        <time>2020-06-26T13:47:16Z</time>
      </trkpt>
      <trkpt lat="49.54727" lon="6.21685">
        <ele>310.4</ele>
        <time>2020-06-26T13:47:17Z</time>
      </trkpt>
      <trkpt lat="49.54724" lon="6.21687">
        <ele>310.6</ele>
        <time>2020-06-26T13:47:18Z</time>
      </trkpt>
      <trkpt lat="49.54721" lon="6.21689">
        <ele>310.7</ele>
        <time>2020-06-26T13:47:19Z</time>
      </trkpt>
      <trkpt lat="49.54717" lon="6.21691">
        <ele>310.9</ele>
        <time>2020-06-26T13:47:20Z</time>
      </trkpt>
      <trkpt lat="49.54714" lon="6.21692">
        <ele>311.1</ele>
        <time>2020-06-26T13:47:21Z</time>
      </trkpt>
      <trkpt lat="49.5471" lon="6.21694">
        <ele>311.3</ele>
        <time>2020-06-26T13:47:22Z</time>
      </trkpt>
      <trkpt lat="49.54707" lon="6.21695">
        <ele>311.4</ele>
        <time>2020-06-26T13:47:23Z</time>
      </trkpt>
      <trkpt lat="49.54703" lon="6.21698">
        <ele>311.6</ele>
        <time>2020-06-26T13:47:24Z</time>
      </trkpt>
      <trkpt lat="49.54699" lon="6.21702">
        <ele>311.8</ele>
        <time>2020-06-26T13:47:25Z</time>
      </trkpt>
      <trkpt lat="49.54695" lon="6.21705">
        <ele>312</ele>
        <time>2020-06-26T13:47:26Z</time>
      </trkpt>
      <trkpt lat="49.54692" lon="6.21708">
        <ele>312.1</ele>
        <time>2020-06-26T13:47:27Z</time>
      </trkpt>
      <trkpt lat="49.54689" lon="6.21713">
        <ele>312.2</ele>
        <time>2020-06-26T13:47:28Z</time>
      </trkpt>
      <trkpt lat="49.54686" lon="6.21717">
        <ele>312.3</ele>
        <time>2020-06-26T13:47:29Z</time>
      </trkpt>
      <trkpt lat="49.54683" lon="6.2172">
        <ele>312.4</ele>
        <time>2020-06-26T13:47:30Z</time>
      </trkpt>
      <trkpt lat="49.5468" lon="6.21723">
        <ele>312.4</ele>
        <time>2020-06-26T13:47:31Z</time>
      </trkpt>
      <trkpt lat="49.54676" lon="6.21727">
        <ele>312.5</ele>
        <time>2020-06-26T13:47:32Z</time>
      </trkpt>
      <trkpt lat="49.54673" lon="6.21731">
        <ele>312.6</ele>
        <time>2020-06-26T13:47:33Z</time>
      </trkpt>
      <trkpt lat="49.54669" lon="6.21737">
        <ele>312.6</ele>
        <time>2020-06-26T13:47:34Z</time>
      </trkpt>
      <trkpt lat="49.54665" lon="6.21742">
        <ele>312.6</ele>
        <time>2020-06-26T13:47:35Z</time>
      </trkpt>
      <trkpt lat="49.54661" lon="6.21747">
        <ele>312.6</ele>
        <time>2020-06-26T13:47:36Z</time>
      </trkpt>
      <trkpt lat="49.54657" lon="6.2175">
        <ele>312.6</ele>
        <time>2020-06-26T13:47:37Z</time>
      </trkpt>
      <trkpt lat="49.54654" lon="6.21755">
        <ele>312.5</ele>
        <time>2020-06-26T13:47:38Z</time>
      </trkpt>
      <trkpt lat="49.54651" lon="6.21759">
        <ele>312.5</ele>
        <time>2020-06-26T13:47:39Z</time>
      </trkpt>
      <trkpt lat="49.54648" lon="6.21763">
        <ele>312.4</ele>
        <time>2020-06-26T13:47:40Z</time>
      </trkpt>
      <trkpt lat="49.54645" lon="6.21767">
        <ele>312.3</ele>
        <time>2020-06-26T13:47:41Z</time>
      </trkpt>
      <trkpt lat="49.54642" lon="6.21772">
        <ele>312.2</ele>
        <time>2020-06-26T13:47:42Z</time>
      </trkpt>
      <trkpt lat="49.54638" lon="6.21777">
        <ele>312</ele>
        <time>2020-06-26T13:47:43Z</time>
      </trkpt>
      <trkpt lat="49.54635" lon="6.21782">
        <ele>311.8</ele>
        <time>2020-06-26T13:47:44Z</time>
      </trkpt>
      <trkpt lat="49.54632" lon="6.21788">
        <ele>311.5</ele>
        <time>2020-06-26T13:47:45Z</time>
      </trkpt>
      <trkpt lat="49.54628" lon="6.21794">
        <ele>311.1</ele>
        <time>2020-06-26T13:47:46Z</time>
      </trkpt>
      <trkpt lat="49.54623" lon="6.21799">
        <ele>310.7</ele>
        <time>2020-06-26T13:47:47Z</time>
      </trkpt>
      <trkpt lat="49.54619" lon="6.21805">
        <ele>310.2</ele>
        <time>2020-06-26T13:47:48Z</time>
      </trkpt>
      <trkpt lat="49.54615" lon="6.21812">
        <ele>309.6</ele>
        <time>2020-06-26T13:47:49Z</time>
      </trkpt>
      <trkpt lat="49.5461" lon="6.21819">
        <ele>308.9</ele>
        <time>2020-06-26T13:47:50Z</time>
      </trkpt>
      <trkpt lat="49.54605" lon="6.21828">
        <ele>308.1</ele>
        <time>2020-06-26T13:47:51Z</time>
      </trkpt>
      <trkpt lat="49.546" lon="6.21836">
        <ele>307.3</ele>
        <time>2020-06-26T13:47:52Z</time>
      </trkpt>
      <trkpt lat="49.54595" lon="6.21846">
        <ele>306.2</ele>
        <time>2020-06-26T13:47:53Z</time>
      </trkpt>
      <trkpt lat="49.54589" lon="6.21857">
        <ele>305.2</ele>
        <time>2020-06-26T13:47:54Z</time>
      </trkpt>
      <trkpt lat="49.54582" lon="6.21869">
        <ele>304</ele>
        <time>2020-06-26T13:47:55Z</time>
      </trkpt>
      <trkpt lat="49.54576" lon="6.21882">
        <ele>302.7</ele>
        <time>2020-06-26T13:47:56Z</time>
      </trkpt>
      <trkpt lat="49.5457" lon="6.21894">
        <ele>301.4</ele>
        <time>2020-06-26T13:47:57Z</time>
      </trkpt>
      <trkpt lat="49.54563" lon="6.21907">
        <ele>300.1</ele>
        <time>2020-06-26T13:47:58Z</time>
      </trkpt>
      <trkpt lat="49.54556" lon="6.2192">
        <ele>298.8</ele>
        <time>2020-06-26T13:47:59Z</time>
      </trkpt>
      <trkpt lat="49.54549" lon="6.21934">
        <ele>297.4</ele>
        <time>2020-06-26T13:48:00Z</time>
      </trkpt>
      <trkpt lat="49.54541" lon="6.21949">
        <ele>295.9</ele>
        <time>2020-06-26T13:48:01Z</time>
      </trkpt>
      <trkpt lat="49.54533" lon="6.21964">
        <ele>294.5</ele>
        <time>2020-06-26T13:48:02Z</time>
      </trkpt>
      <trkpt lat="49.54525" lon="6.21979">
        <ele>293.1</ele>
        <time>2020-06-26T13:48:03Z</time>
      </trkpt>
      <trkpt lat="49.54518" lon="6.21996">
        <ele>291.7</ele>
        <time>2020-06-26T13:48:04Z</time>
      </trkpt>
      <trkpt lat="49.5451" lon="6.22013">
        <ele>290.3</ele>
        <time>2020-06-26T13:48:05Z</time>
      </trkpt>
      <trkpt lat="49.54502" lon="6.2203">
        <ele>289</ele>
        <time>2020-06-26T13:48:06Z</time>
      </trkpt>
      <trkpt lat="49.54494" lon="6.22048">
        <ele>287.9</ele>
        <time>2020-06-26T13:48:07Z</time>
      </trkpt>
      <trkpt lat="49.54487" lon="6.22065">
        <ele>286.7</ele>
        <time>2020-06-26T13:48:08Z</time>
      </trkpt>
      <trkpt lat="49.5448" lon="6.22083">
        <ele>285.6</ele>
        <time>2020-06-26T13:48:09Z</time>
      </trkpt>
      <trkpt lat="49.54473" lon="6.221">
        <ele>284.5</ele>
        <time>2020-06-26T13:48:10Z</time>
      </trkpt>
      <trkpt lat="49.54466" lon="6.22119">
        <ele>283.4</ele>
        <time>2020-06-26T13:48:11Z</time>
      </trkpt>
      <trkpt lat="49.5446" lon="6.22138">
        <ele>282.5</ele>
        <time>2020-06-26T13:48:12Z</time>
      </trkpt>
      <trkpt lat="49.54454" lon="6.22157">
        <ele>281.8</ele>
        <time>2020-06-26T13:48:13Z</time>
      </trkpt>
      <trkpt lat="49.54447" lon="6.22175">
        <ele>281.1</ele>
        <time>2020-06-26T13:48:14Z</time>
      </trkpt>
      <trkpt lat="49.5444" lon="6.22194">
        <ele>280.5</ele>
        <time>2020-06-26T13:48:15Z</time>
      </trkpt>
      <trkpt lat="49.54434" lon="6.22212">
        <ele>280.1</ele>
        <time>2020-06-26T13:48:16Z</time>
      </trkpt>
      <trkpt lat="49.54426" lon="6.22227">
        <ele>279.8</ele>
        <time>2020-06-26T13:48:17Z</time>
      </trkpt>
      <trkpt lat="49.54418" lon="6.22243">
        <ele>279.7</ele>
        <time>2020-06-26T13:48:18Z</time>
      </trkpt>
      <trkpt lat="49.54409" lon="6.22257">
        <ele>279.6</ele>
        <time>2020-06-26T13:48:19Z</time>
      </trkpt>
      <trkpt lat="49.54401" lon="6.2227">
        <ele>279.6</ele>
        <time>2020-06-26T13:48:20Z</time>
      </trkpt>
      <trkpt lat="49.54393" lon="6.22284">
        <ele>279.7</ele>
        <time>2020-06-26T13:48:21Z</time>
      </trkpt>
      <trkpt lat="49.54385" lon="6.22297">
        <ele>280</ele>
        <time>2020-06-26T13:48:22Z</time>
      </trkpt>
      <trkpt lat="49.54378" lon="6.2231">
        <ele>280.5</ele>
        <time>2020-06-26T13:48:23Z</time>
      </trkpt>
      <trkpt lat="49.54371" lon="6.22322">
        <ele>281</ele>
        <time>2020-06-26T13:48:24Z</time>
      </trkpt>
      <trkpt lat="49.54364" lon="6.22334">
        <ele>281.6</ele>
        <time>2020-06-26T13:48:25Z</time>
      </trkpt>
      <trkpt lat="49.54358" lon="6.22344">
        <ele>282.1</ele>
        <time>2020-06-26T13:48:26Z</time>
      </trkpt>
      <trkpt lat="49.54352" lon="6.22354">
        <ele>282.6</ele>
        <time>2020-06-26T13:48:27Z</time>
      </trkpt>
      <trkpt lat="49.54346" lon="6.22363">
        <ele>283.1</ele>
        <time>2020-06-26T13:48:28Z</time>
      </trkpt>
      <trkpt lat="49.54341" lon="6.22372">
        <ele>283.5</ele>
        <time>2020-06-26T13:48:29Z</time>
      </trkpt>
      <trkpt lat="49.54336" lon="6.22381">
        <ele>283.8</ele>
        <time>2020-06-26T13:48:30Z</time>
      </trkpt>
      <trkpt lat="49.54332" lon="6.22389">
        <ele>284.2</ele>
        <time>2020-06-26T13:48:31Z</time>
      </trkpt>
      <trkpt lat="49.54328" lon="6.22396">
        <ele>284.5</ele>
        <time>2020-06-26T13:48:32Z</time>
      </trkpt>
      <trkpt lat="49.54324" lon="6.22404">
        <ele>284.7</ele>
        <time>2020-06-26T13:48:33Z</time>
      </trkpt>
      <trkpt lat="49.5432" lon="6.22412">
        <ele>285</ele>
        <time>2020-06-26T13:48:34Z</time>
      </trkpt>
      <trkpt lat="49.54316" lon="6.22419">
        <ele>285.3</ele>
        <time>2020-06-26T13:48:35Z</time>
      </trkpt>
      <trkpt lat="49.54312" lon="6.22426">
        <ele>285.5</ele>
        <time>2020-06-26T13:48:36Z</time>
      </trkpt>
      <trkpt lat="49.54308" lon="6.22434">
        <ele>285.7</ele>
        <time>2020-06-26T13:48:37Z</time>
      </trkpt>
      <trkpt lat="49.54305" lon="6.22441">
        <ele>285.9</ele>
        <time>2020-06-26T13:48:38Z</time>
      </trkpt>
      <trkpt lat="49.54302" lon="6.22448">
        <ele>286.1</ele>
        <time>2020-06-26T13:48:39Z</time>
      </trkpt>
      <trkpt lat="49.54299" lon="6.22455">
        <ele>286.3</ele>
        <time>2020-06-26T13:48:40Z</time>
      </trkpt>
      <trkpt lat="49.54297" lon="6.22463">
        <ele>286.4</ele>
        <time>2020-06-26T13:48:41Z</time>
      </trkpt>
      <trkpt lat="49.54294" lon="6.2247">
        <ele>286.6</ele>
        <time>2020-06-26T13:48:42Z</time>
      </trkpt>
      <trkpt lat="49.54291" lon="6.22477">
        <ele>286.7</ele>
        <time>2020-06-26T13:48:43Z</time>
      </trkpt>
      <trkpt lat="49.54289" lon="6.22484">
        <ele>286.9</ele>
        <time>2020-06-26T13:48:44Z</time>
      </trkpt>
      <trkpt lat="49.54286" lon="6.22491">
        <ele>286.9</ele>
        <time>2020-06-26T13:48:45Z</time>
      </trkpt>
      <trkpt lat="49.54283" lon="6.22496">
        <ele>287</ele>
        <time>2020-06-26T13:48:46Z</time>
      </trkpt>
      <trkpt lat="49.5428" lon="6.22502">
        <ele>287.1</ele>
        <time>2020-06-26T13:48:47Z</time>
      </trkpt>
      <trkpt lat="49.54278" lon="6.22508">
        <ele>287.1</ele>
        <time>2020-06-26T13:48:48Z</time>
      </trkpt>
      <trkpt lat="49.54274" lon="6.22513">
        <ele>287.2</ele>
        <time>2020-06-26T13:48:49Z</time>
      </trkpt>
      <trkpt lat="49.54271" lon="6.22517">
        <ele>287.3</ele>
        <time>2020-06-26T13:48:50Z</time>
      </trkpt>
      <trkpt lat="49.54267" lon="6.22523">
        <ele>287.3</ele>
        <time>2020-06-26T13:48:51Z</time>
      </trkpt>
      <trkpt lat="49.54263" lon="6.22526">
        <ele>287.4</ele>
        <time>2020-06-26T13:48:52Z</time>
      </trkpt>
      <trkpt lat="49.54258" lon="6.22528">
        <ele>287.5</ele>
        <time>2020-06-26T13:48:53Z</time>
      </trkpt>
      <trkpt lat="49.54254" lon="6.22531">
        <ele>287.6</ele>
        <time>2020-06-26T13:48:54Z</time>
      </trkpt>
      <trkpt lat="49.54251" lon="6.22535">
        <ele>287.7</ele>
        <time>2020-06-26T13:48:55Z</time>
      </trkpt>
      <trkpt lat="49.54248" lon="6.22539">
        <ele>287.8</ele>
        <time>2020-06-26T13:48:56Z</time>
      </trkpt>
      <trkpt lat="49.54245" lon="6.22544">
        <ele>287.9</ele>
        <time>2020-06-26T13:48:57Z</time>
      </trkpt>
      <trkpt lat="49.54243" lon="6.22547">
        <ele>287.9</ele>
        <time>2020-06-26T13:48:58Z</time>
      </trkpt>
      <trkpt lat="49.54241" lon="6.2255">
        <ele>288</ele>
        <time>2020-06-26T13:48:59Z</time>
      </trkpt>
      <trkpt lat="49.54238" lon="6.22553">
        <ele>288.1</ele>
        <time>2020-06-26T13:49:00Z</time>
      </trkpt>
      <trkpt lat="49.54236" lon="6.22555">
        <ele>288.2</ele>
        <time>2020-06-26T13:49:01Z</time>
      </trkpt>
      <trkpt lat="49.54232" lon="6.2256">
        <ele>288.4</ele>
        <time>2020-06-26T13:49:02Z</time>
      </trkpt>
      <trkpt lat="49.54229" lon="6.22564">
        <ele>288.5</ele>
        <time>2020-06-26T13:49:03Z</time>
      </trkpt>
      <trkpt lat="49.54225" lon="6.22568">
        <ele>288.7</ele>
        <time>2020-06-26T13:49:04Z</time>
      </trkpt>
      <trkpt lat="49.54222" lon="6.22572">
        <ele>288.8</ele>
        <time>2020-06-26T13:49:05Z</time>
      </trkpt>
      <trkpt lat="49.5422" lon="6.22575">
        <ele>288.9</ele>
        <time>2020-06-26T13:49:06Z</time>
      </trkpt>
      <trkpt lat="49.54217" lon="6.22579">
        <ele>289</ele>
        <time>2020-06-26T13:49:07Z</time>
      </trkpt>
      <trkpt lat="49.54214" lon="6.22583">
        <ele>289.2</ele>
        <time>2020-06-26T13:49:08Z</time>
      </trkpt>
      <trkpt lat="49.5421" lon="6.22589">
        <ele>289.4</ele>
        <time>2020-06-26T13:49:09Z</time>
      </trkpt>
      <trkpt lat="49.54206" lon="6.22593">
        <ele>289.6</ele>
        <time>2020-06-26T13:49:10Z</time>
      </trkpt>
      <trkpt lat="49.54202" lon="6.22599">
        <ele>289.8</ele>
        <time>2020-06-26T13:49:11Z</time>
      </trkpt>
      <trkpt lat="49.54198" lon="6.22605">
        <ele>290.1</ele>
        <time>2020-06-26T13:49:12Z</time>
      </trkpt>
      <trkpt lat="49.54194" lon="6.22611">
        <ele>290.3</ele>
        <time>2020-06-26T13:49:13Z</time>
      </trkpt>
      <trkpt lat="49.5419" lon="6.22617">
        <ele>290.6</ele>
        <time>2020-06-26T13:49:14Z</time>
      </trkpt>
      <trkpt lat="49.54186" lon="6.22623">
        <ele>290.8</ele>
        <time>2020-06-26T13:49:15Z</time>
      </trkpt>
      <trkpt lat="49.54184" lon="6.22628">
        <ele>291</ele>
        <time>2020-06-26T13:49:16Z</time>
      </trkpt>
      <trkpt lat="49.54181" lon="6.22633">
        <ele>291.2</ele>
        <time>2020-06-26T13:49:17Z</time>
      </trkpt>
      <trkpt lat="49.54178" lon="6.22638">
        <ele>291.3</ele>
        <time>2020-06-26T13:49:18Z</time>
      </trkpt>
      <trkpt lat="49.54176" lon="6.22642">
        <ele>291.4</ele>
        <time>2020-06-26T13:49:19Z</time>
      </trkpt>
      <trkpt lat="49.54173" lon="6.22648">
        <ele>291.6</ele>
        <time>2020-06-26T13:49:20Z</time>
      </trkpt>
      <trkpt lat="49.54171" lon="6.22654">
        <ele>291.7</ele>
        <time>2020-06-26T13:49:21Z</time>
      </trkpt>
      <trkpt lat="49.54169" lon="6.22658">
        <ele>291.9</ele>
        <time>2020-06-26T13:49:22Z</time>
      </trkpt>
      <trkpt lat="49.54166" lon="6.22664">
        <ele>292.1</ele>
        <time>2020-06-26T13:49:23Z</time>
      </trkpt>
      <trkpt lat="49.54165" lon="6.2267">
        <ele>292.2</ele>
        <time>2020-06-26T13:49:24Z</time>
      </trkpt>
      <trkpt lat="49.54163" lon="6.22675">
        <ele>292.3</ele>
        <time>2020-06-26T13:49:25Z</time>
      </trkpt>
      <trkpt lat="49.54161" lon="6.2268">
        <ele>292.4</ele>
        <time>2020-06-26T13:49:26Z</time>
      </trkpt>
      <trkpt lat="49.54159" lon="6.22686">
        <ele>292.6</ele>
        <time>2020-06-26T13:49:27Z</time>
      </trkpt>
      <trkpt lat="49.54157" lon="6.22691">
        <ele>292.7</ele>
        <time>2020-06-26T13:49:28Z</time>
      </trkpt>
      <trkpt lat="49.54154" lon="6.22696">
        <ele>292.8</ele>
        <time>2020-06-26T13:49:29Z</time>
      </trkpt>
      <trkpt lat="49.54152" lon="6.22701">
        <ele>292.9</ele>
        <time>2020-06-26T13:49:30Z</time>
      </trkpt>
      <trkpt lat="49.5415" lon="6.22707">
        <ele>293</ele>
        <time>2020-06-26T13:49:31Z</time>
      </trkpt>
      <trkpt lat="49.54148" lon="6.22712">
        <ele>293</ele>
        <time>2020-06-26T13:49:32Z</time>
      </trkpt>
      <trkpt lat="49.54146" lon="6.22717">
        <ele>293.1</ele>
        <time>2020-06-26T13:49:33Z</time>
      </trkpt>
      <trkpt lat="49.54144" lon="6.22723">
        <ele>293.2</ele>
        <time>2020-06-26T13:49:34Z</time>
      </trkpt>
      <trkpt lat="49.54142" lon="6.22729">
        <ele>293.3</ele>
        <time>2020-06-26T13:49:35Z</time>
      </trkpt>
      <trkpt lat="49.5414" lon="6.22736">
        <ele>293.4</ele>
        <time>2020-06-26T13:49:36Z</time>
      </trkpt>
      <trkpt lat="49.54137" lon="6.22742">
        <ele>293.5</ele>
        <time>2020-06-26T13:49:37Z</time>
      </trkpt>
      <trkpt lat="49.54136" lon="6.22747">
        <ele>293.5</ele>
        <time>2020-06-26T13:49:38Z</time>
      </trkpt>
      <trkpt lat="49.54134" lon="6.22753">
        <ele>293.5</ele>
        <time>2020-06-26T13:49:39Z</time>
      </trkpt>
      <trkpt lat="49.54131" lon="6.22758">
        <ele>293.5</ele>
        <time>2020-06-26T13:49:40Z</time>
      </trkpt>
      <trkpt lat="49.54129" lon="6.22763">
        <ele>293.5</ele>
        <time>2020-06-26T13:49:41Z</time>
      </trkpt>
      <trkpt lat="49.54127" lon="6.2277">
        <ele>293.4</ele>
        <time>2020-06-26T13:49:42Z</time>
      </trkpt>
      <trkpt lat="49.54125" lon="6.22777">
        <ele>293.2</ele>
        <time>2020-06-26T13:49:43Z</time>
      </trkpt>
      <trkpt lat="49.54122" lon="6.22785">
        <ele>293</ele>
        <time>2020-06-26T13:49:44Z</time>
      </trkpt>
      <trkpt lat="49.54119" lon="6.22792">
        <ele>292.9</ele>
        <time>2020-06-26T13:49:45Z</time>
      </trkpt>
      <trkpt lat="49.54117" lon="6.22798">
        <ele>292.7</ele>
        <time>2020-06-26T13:49:46Z</time>
      </trkpt>
      <trkpt lat="49.54114" lon="6.22806">
        <ele>292.5</ele>
        <time>2020-06-26T13:49:47Z</time>
      </trkpt>
      <trkpt lat="49.54111" lon="6.22814">
        <ele>292.2</ele>
        <time>2020-06-26T13:49:48Z</time>
      </trkpt>
      <trkpt lat="49.54108" lon="6.22821">
        <ele>292</ele>
        <time>2020-06-26T13:49:49Z</time>
      </trkpt>
      <trkpt lat="49.54103" lon="6.2283">
        <ele>291.8</ele>
        <time>2020-06-26T13:49:50Z</time>
      </trkpt>
      <trkpt lat="49.541" lon="6.22837">
        <ele>291.5</ele>
        <time>2020-06-26T13:49:51Z</time>
      </trkpt>
      <trkpt lat="49.54095" lon="6.22845">
        <ele>291.3</ele>
        <time>2020-06-26T13:49:52Z</time>
      </trkpt>
      <trkpt lat="49.54091" lon="6.22854">
        <ele>291</ele>
        <time>2020-06-26T13:49:53Z</time>
      </trkpt>
      <trkpt lat="49.54086" lon="6.22861">
        <ele>290.6</ele>
        <time>2020-06-26T13:49:54Z</time>
      </trkpt>
      <trkpt lat="49.54082" lon="6.22868">
        <ele>290.2</ele>
        <time>2020-06-26T13:49:55Z</time>
      </trkpt>
      <trkpt lat="49.54076" lon="6.22877">
        <ele>289.8</ele>
        <time>2020-06-26T13:49:56Z</time>
      </trkpt>
      <trkpt lat="49.54071" lon="6.22885">
        <ele>289.4</ele>
        <time>2020-06-26T13:49:57Z</time>
      </trkpt>
      <trkpt lat="49.54066" lon="6.22895">
        <ele>289</ele>
        <time>2020-06-26T13:49:58Z</time>
      </trkpt>
      <trkpt lat="49.54061" lon="6.22906">
        <ele>288.6</ele>
        <time>2020-06-26T13:49:59Z</time>
      </trkpt>
      <trkpt lat="49.54057" lon="6.22916">
        <ele>288.4</ele>
        <time>2020-06-26T13:50:00Z</time>
      </trkpt>
      <trkpt lat="49.54052" lon="6.22928">
        <ele>288.2</ele>
        <time>2020-06-26T13:50:01Z</time>
      </trkpt>
      <trkpt lat="49.54048" lon="6.2294">
        <ele>288.1</ele>
        <time>2020-06-26T13:50:02Z</time>
      </trkpt>
      <trkpt lat="49.54044" lon="6.22952">
        <ele>288</ele>
        <time>2020-06-26T13:50:03Z</time>
      </trkpt>
      <trkpt lat="49.54041" lon="6.22964">
        <ele>288</ele>
        <time>2020-06-26T13:50:04Z</time>
      </trkpt>
      <trkpt lat="49.54037" lon="6.22975">
        <ele>288</ele>
        <time>2020-06-26T13:50:05Z</time>
      </trkpt>
      <trkpt lat="49.54034" lon="6.22985">
        <ele>288.1</ele>
        <time>2020-06-26T13:50:06Z</time>
      </trkpt>
      <trkpt lat="49.54031" lon="6.22995">
        <ele>288.1</ele>
        <time>2020-06-26T13:50:07Z</time>
      </trkpt>
      <trkpt lat="49.54028" lon="6.23005">
        <ele>288.2</ele>
        <time>2020-06-26T13:50:08Z</time>
      </trkpt>
      <trkpt lat="49.54026" lon="6.23016">
        <ele>288.3</ele>
        <time>2020-06-26T13:50:09Z</time>
      </trkpt>
      <trkpt lat="49.54024" lon="6.23026">
        <ele>288.4</ele>
        <time>2020-06-26T13:50:10Z</time>
      </trkpt>
      <trkpt lat="49.54022" lon="6.23037">
        <ele>288.5</ele>
        <time>2020-06-26T13:50:11Z</time>
      </trkpt>
      <trkpt lat="49.54019" lon="6.23047">
        <ele>288.7</ele>
        <time>2020-06-26T13:50:12Z</time>
      </trkpt>
      <trkpt lat="49.54017" lon="6.23057">
        <ele>288.9</ele>
        <time>2020-06-26T13:50:13Z</time>
      </trkpt>
      <trkpt lat="49.54015" lon="6.23067">
        <ele>289.1</ele>
        <time>2020-06-26T13:50:14Z</time>
      </trkpt>
      <trkpt lat="49.54012" lon="6.23076">
        <ele>289.2</ele>
        <time>2020-06-26T13:50:15Z</time>
      </trkpt>
      <trkpt lat="49.54009" lon="6.23084">
        <ele>289.4</ele>
        <time>2020-06-26T13:50:16Z</time>
      </trkpt>
      <trkpt lat="49.54006" lon="6.23092">
        <ele>289.6</ele>
        <time>2020-06-26T13:50:17Z</time>
      </trkpt>
      <trkpt lat="49.54004" lon="6.23099">
        <ele>289.7</ele>
        <time>2020-06-26T13:50:18Z</time>
      </trkpt>
      <trkpt lat="49.54002" lon="6.23107">
        <ele>289.8</ele>
        <time>2020-06-26T13:50:19Z</time>
      </trkpt>
      <trkpt lat="49.53999" lon="6.23115">
        <ele>289.9</ele>
        <time>2020-06-26T13:50:20Z</time>
      </trkpt>
      <trkpt lat="49.53997" lon="6.23122">
        <ele>290</ele>
        <time>2020-06-26T13:50:21Z</time>
      </trkpt>
      <trkpt lat="49.53993" lon="6.23129">
        <ele>290.1</ele>
        <time>2020-06-26T13:50:22Z</time>
      </trkpt>
      <trkpt lat="49.5399" lon="6.23136">
        <ele>290.2</ele>
        <time>2020-06-26T13:50:23Z</time>
      </trkpt>
      <trkpt lat="49.53988" lon="6.23143">
        <ele>290.3</ele>
        <time>2020-06-26T13:50:24Z</time>
      </trkpt>
      <trkpt lat="49.53985" lon="6.2315">
        <ele>290.4</ele>
        <time>2020-06-26T13:50:25Z</time>
      </trkpt>
      <trkpt lat="49.53982" lon="6.23158">
        <ele>290.5</ele>
        <time>2020-06-26T13:50:26Z</time>
      </trkpt>
      <trkpt lat="49.5398" lon="6.23166">
        <ele>290.5</ele>
        <time>2020-06-26T13:50:27Z</time>
      </trkpt>
      <trkpt lat="49.53978" lon="6.23173">
        <ele>290.5</ele>
        <time>2020-06-26T13:50:28Z</time>
      </trkpt>
      <trkpt lat="49.53976" lon="6.23182">
        <ele>290.6</ele>
        <time>2020-06-26T13:50:29Z</time>
      </trkpt>
      <trkpt lat="49.53974" lon="6.23189">
        <ele>290.6</ele>
        <time>2020-06-26T13:50:30Z</time>
      </trkpt>
      <trkpt lat="49.53972" lon="6.23198">
        <ele>290.7</ele>
        <time>2020-06-26T13:50:31Z</time>
      </trkpt>
      <trkpt lat="49.5397" lon="6.23206">
        <ele>290.8</ele>
        <time>2020-06-26T13:50:32Z</time>
      </trkpt>
      <trkpt lat="49.53968" lon="6.23214">
        <ele>290.9</ele>
        <time>2020-06-26T13:50:33Z</time>
      </trkpt>
      <trkpt lat="49.53965" lon="6.23223">
        <ele>290.9</ele>
        <time>2020-06-26T13:50:34Z</time>
      </trkpt>
      <trkpt lat="49.53963" lon="6.23231">
        <ele>291</ele>
        <time>2020-06-26T13:50:35Z</time>
      </trkpt>
      <trkpt lat="49.53961" lon="6.23238">
        <ele>291.1</ele>
        <time>2020-06-26T13:50:36Z</time>
      </trkpt>
      <trkpt lat="49.5396" lon="6.23246">
        <ele>291.2</ele>
        <time>2020-06-26T13:50:37Z</time>
      </trkpt>
      <trkpt lat="49.53957" lon="6.23254">
        <ele>291.3</ele>
        <time>2020-06-26T13:50:38Z</time>
      </trkpt>
      <trkpt lat="49.53955" lon="6.23261">
        <ele>291.4</ele>
        <time>2020-06-26T13:50:39Z</time>
      </trkpt>
      <trkpt lat="49.53954" lon="6.23267">
        <ele>291.5</ele>
        <time>2020-06-26T13:50:40Z</time>
      </trkpt>
      <trkpt lat="49.53951" lon="6.23274">
        <ele>291.5</ele>
        <time>2020-06-26T13:50:41Z</time>
      </trkpt>
      <trkpt lat="49.53949" lon="6.23281">
        <ele>291.6</ele>
        <time>2020-06-26T13:50:42Z</time>
      </trkpt>
      <trkpt lat="49.53947" lon="6.23287">
        <ele>291.7</ele>
        <time>2020-06-26T13:50:43Z</time>
      </trkpt>
      <trkpt lat="49.53945" lon="6.23295">
        <ele>291.8</ele>
        <time>2020-06-26T13:50:44Z</time>
      </trkpt>
      <trkpt lat="49.53942" lon="6.23303">
        <ele>291.8</ele>
        <time>2020-06-26T13:50:45Z</time>
      </trkpt>
      <trkpt lat="49.5394" lon="6.2331">
        <ele>292</ele>
        <time>2020-06-26T13:50:46Z</time>
      </trkpt>
      <trkpt lat="49.53938" lon="6.23317">
        <ele>292.1</ele>
        <time>2020-06-26T13:50:47Z</time>
      </trkpt>
      <trkpt lat="49.53936" lon="6.23323">
        <ele>292.2</ele>
        <time>2020-06-26T13:50:48Z</time>
      </trkpt>
      <trkpt lat="49.53934" lon="6.23329">
        <ele>292.2</ele>
        <time>2020-06-26T13:50:49Z</time>
      </trkpt>
      <trkpt lat="49.53932" lon="6.23335">
        <ele>292.3</ele>
        <time>2020-06-26T13:50:50Z</time>
      </trkpt>
      <trkpt lat="49.5393" lon="6.23341">
        <ele>292.4</ele>
        <time>2020-06-26T13:50:51Z</time>
      </trkpt>
      <trkpt lat="49.53929" lon="6.23348">
        <ele>292.4</ele>
        <time>2020-06-26T13:50:52Z</time>
      </trkpt>
      <trkpt lat="49.53927" lon="6.23355">
        <ele>292.5</ele>
        <time>2020-06-26T13:50:53Z</time>
      </trkpt>
      <trkpt lat="49.53924" lon="6.23362">
        <ele>292.5</ele>
        <time>2020-06-26T13:50:54Z</time>
      </trkpt>
      <trkpt lat="49.53922" lon="6.23369">
        <ele>292.6</ele>
        <time>2020-06-26T13:50:55Z</time>
      </trkpt>
      <trkpt lat="49.53919" lon="6.23376">
        <ele>292.7</ele>
        <time>2020-06-26T13:50:56Z</time>
      </trkpt>
      <trkpt lat="49.53917" lon="6.23383">
        <ele>292.8</ele>
        <time>2020-06-26T13:50:57Z</time>
      </trkpt>
      <trkpt lat="49.53915" lon="6.2339">
        <ele>292.8</ele>
        <time>2020-06-26T13:50:58Z</time>
      </trkpt>
      <trkpt lat="49.53913" lon="6.23397">
        <ele>292.9</ele>
        <time>2020-06-26T13:50:59Z</time>
      </trkpt>
      <trkpt lat="49.53908" lon="6.23404">
        <ele>293.1</ele>
        <time>2020-06-26T13:51:00Z</time>
      </trkpt>
      <trkpt lat="49.53905" lon="6.23411">
        <ele>293.2</ele>
        <time>2020-06-26T13:51:01Z</time>
      </trkpt>
      <trkpt lat="49.53902" lon="6.23417">
        <ele>293.2</ele>
        <time>2020-06-26T13:51:02Z</time>
      </trkpt>
      <trkpt lat="49.53899" lon="6.23424">
        <ele>293.3</ele>
        <time>2020-06-26T13:51:03Z</time>
      </trkpt>
      <trkpt lat="49.53896" lon="6.2343">
        <ele>293.3</ele>
        <time>2020-06-26T13:51:04Z</time>
      </trkpt>
      <trkpt lat="49.53893" lon="6.23436">
        <ele>293.3</ele>
        <time>2020-06-26T13:51:05Z</time>
      </trkpt>
      <trkpt lat="49.5389" lon="6.23443">
        <ele>293.3</ele>
        <time>2020-06-26T13:51:06Z</time>
      </trkpt>
      <trkpt lat="49.53887" lon="6.23449">
        <ele>293.3</ele>
        <time>2020-06-26T13:51:07Z</time>
      </trkpt>
      <trkpt lat="49.53884" lon="6.23454">
        <ele>293.3</ele>
        <time>2020-06-26T13:51:08Z</time>
      </trkpt>
      <trkpt lat="49.5388" lon="6.23459">
        <ele>293.2</ele>
        <time>2020-06-26T13:51:09Z</time>
      </trkpt>
      <trkpt lat="49.53877" lon="6.23465">
        <ele>293.2</ele>
        <time>2020-06-26T13:51:10Z</time>
      </trkpt>
      <trkpt lat="49.53872" lon="6.23471">
        <ele>293.2</ele>
        <time>2020-06-26T13:51:11Z</time>
      </trkpt>
      <trkpt lat="49.53868" lon="6.23476">
        <ele>293.1</ele>
        <time>2020-06-26T13:51:12Z</time>
      </trkpt>
      <trkpt lat="49.53864" lon="6.23483">
        <ele>293</ele>
        <time>2020-06-26T13:51:13Z</time>
      </trkpt>
      <trkpt lat="49.53859" lon="6.23488">
        <ele>293</ele>
        <time>2020-06-26T13:51:14Z</time>
      </trkpt>
      <trkpt lat="49.53853" lon="6.23493">
        <ele>292.9</ele>
        <time>2020-06-26T13:51:15Z</time>
      </trkpt>
      <trkpt lat="49.53847" lon="6.23498">
        <ele>292.9</ele>
        <time>2020-06-26T13:51:16Z</time>
      </trkpt>
      <trkpt lat="49.5384" lon="6.23503">
        <ele>292.9</ele>
        <time>2020-06-26T13:51:17Z</time>
      </trkpt>
      <trkpt lat="49.53834" lon="6.23508">
        <ele>293</ele>
        <time>2020-06-26T13:51:18Z</time>
      </trkpt>
      <trkpt lat="49.53828" lon="6.23512">
        <ele>293.1</ele>
        <time>2020-06-26T13:51:19Z</time>
      </trkpt>
      <trkpt lat="49.53823" lon="6.23517">
        <ele>293.2</ele>
        <time>2020-06-26T13:51:20Z</time>
      </trkpt>
      <trkpt lat="49.53817" lon="6.23522">
        <ele>293.3</ele>
        <time>2020-06-26T13:51:21Z</time>
      </trkpt>
      <trkpt lat="49.53812" lon="6.23527">
        <ele>293.5</ele>
        <time>2020-06-26T13:51:22Z</time>
      </trkpt>
      <trkpt lat="49.53807" lon="6.23531">
        <ele>293.6</ele>
        <time>2020-06-26T13:51:23Z</time>
      </trkpt>
      <trkpt lat="49.53802" lon="6.23535">
        <ele>293.8</ele>
        <time>2020-06-26T13:51:24Z</time>
      </trkpt>
      <trkpt lat="49.53799" lon="6.23539">
        <ele>293.9</ele>
        <time>2020-06-26T13:51:25Z</time>
      </trkpt>
      <trkpt lat="49.53795" lon="6.23544">
        <ele>294.1</ele>
        <time>2020-06-26T13:51:26Z</time>
      </trkpt>
      <trkpt lat="49.53791" lon="6.23549">
        <ele>294.3</ele>
        <time>2020-06-26T13:51:27Z</time>
      </trkpt>
      <trkpt lat="49.53787" lon="6.23555">
        <ele>294.5</ele>
        <time>2020-06-26T13:51:28Z</time>
      </trkpt>
      <trkpt lat="49.53783" lon="6.23559">
        <ele>294.6</ele>
        <time>2020-06-26T13:51:29Z</time>
      </trkpt>
      <trkpt lat="49.53779" lon="6.23564">
        <ele>294.7</ele>
        <time>2020-06-26T13:51:30Z</time>
      </trkpt>
      <trkpt lat="49.53775" lon="6.23569">
        <ele>294.8</ele>
        <time>2020-06-26T13:51:31Z</time>
      </trkpt>
      <trkpt lat="49.53773" lon="6.23574">
        <ele>294.9</ele>
        <time>2020-06-26T13:51:32Z</time>
      </trkpt>
      <trkpt lat="49.5377" lon="6.23577">
        <ele>295</ele>
        <time>2020-06-26T13:51:33Z</time>
      </trkpt>
      <trkpt lat="49.53768" lon="6.23582">
        <ele>295.1</ele>
        <time>2020-06-26T13:51:34Z</time>
      </trkpt>
      <trkpt lat="49.53765" lon="6.23587">
        <ele>295.2</ele>
        <time>2020-06-26T13:51:35Z</time>
      </trkpt>
      <trkpt lat="49.53761" lon="6.23593">
        <ele>295.3</ele>
        <time>2020-06-26T13:51:36Z</time>
      </trkpt>
      <trkpt lat="49.53757" lon="6.23599">
        <ele>295.3</ele>
        <time>2020-06-26T13:51:37Z</time>
      </trkpt>
      <trkpt lat="49.53754" lon="6.23604">
        <ele>295.4</ele>
        <time>2020-06-26T13:51:38Z</time>
      </trkpt>
      <trkpt lat="49.5375" lon="6.2361">
        <ele>295.4</ele>
        <time>2020-06-26T13:51:39Z</time>
      </trkpt>
      <trkpt lat="49.53746" lon="6.23616">
        <ele>295.5</ele>
        <time>2020-06-26T13:51:40Z</time>
      </trkpt>
      <trkpt lat="49.53743" lon="6.23622">
        <ele>295.6</ele>
        <time>2020-06-26T13:51:41Z</time>
      </trkpt>
      <trkpt lat="49.53739" lon="6.23628">
        <ele>295.6</ele>
        <time>2020-06-26T13:51:42Z</time>
      </trkpt>
      <trkpt lat="49.53736" lon="6.23632">
        <ele>295.6</ele>
        <time>2020-06-26T13:51:43Z</time>
      </trkpt>
      <trkpt lat="49.53733" lon="6.23638">
        <ele>295.7</ele>
        <time>2020-06-26T13:51:44Z</time>
      </trkpt>
      <trkpt lat="49.53729" lon="6.23644">
        <ele>295.7</ele>
        <time>2020-06-26T13:51:45Z</time>
      </trkpt>
      <trkpt lat="49.53726" lon="6.2365">
        <ele>295.7</ele>
        <time>2020-06-26T13:51:46Z</time>
      </trkpt>
      <trkpt lat="49.53722" lon="6.23655">
        <ele>295.6</ele>
        <time>2020-06-26T13:51:47Z</time>
      </trkpt>
      <trkpt lat="49.53718" lon="6.23661">
        <ele>295.6</ele>
        <time>2020-06-26T13:51:48Z</time>
      </trkpt>
      <trkpt lat="49.53714" lon="6.23667">
        <ele>295.5</ele>
        <time>2020-06-26T13:51:49Z</time>
      </trkpt>
      <trkpt lat="49.5371" lon="6.23674">
        <ele>295.5</ele>
        <time>2020-06-26T13:51:50Z</time>
      </trkpt>
      <trkpt lat="49.53706" lon="6.2368">
        <ele>295.5</ele>
        <time>2020-06-26T13:51:51Z</time>
      </trkpt>
      <trkpt lat="49.53702" lon="6.23686">
        <ele>295.4</ele>
        <time>2020-06-26T13:51:52Z</time>
      </trkpt>
      <trkpt lat="49.53698" lon="6.23693">
        <ele>295.4</ele>
        <time>2020-06-26T13:51:53Z</time>
      </trkpt>
      <trkpt lat="49.53693" lon="6.237">
        <ele>295.3</ele>
        <time>2020-06-26T13:51:54Z</time>
      </trkpt>
      <trkpt lat="49.53688" lon="6.23707">
        <ele>295.3</ele>
        <time>2020-06-26T13:51:55Z</time>
      </trkpt>
      <trkpt lat="49.53684" lon="6.23712">
        <ele>295.2</ele>
        <time>2020-06-26T13:51:56Z</time>
      </trkpt>
      <trkpt lat="49.53679" lon="6.23718">
        <ele>295.2</ele>
        <time>2020-06-26T13:51:57Z</time>
      </trkpt>
      <trkpt lat="49.53674" lon="6.23725">
        <ele>295.1</ele>
        <time>2020-06-26T13:51:58Z</time>
      </trkpt>
      <trkpt lat="49.53668" lon="6.23732">
        <ele>295.1</ele>
        <time>2020-06-26T13:51:59Z</time>
      </trkpt>
      <trkpt lat="49.53663" lon="6.2374">
        <ele>295</ele>
        <time>2020-06-26T13:52:00Z</time>
      </trkpt>
      <trkpt lat="49.53658" lon="6.23746">
        <ele>294.9</ele>
        <time>2020-06-26T13:52:01Z</time>
      </trkpt>
      <trkpt lat="49.53653" lon="6.23751">
        <ele>294.9</ele>
        <time>2020-06-26T13:52:02Z</time>
      </trkpt>
      <trkpt lat="49.53648" lon="6.23757">
        <ele>294.8</ele>
        <time>2020-06-26T13:52:03Z</time>
      </trkpt>
      <trkpt lat="49.53643" lon="6.23763">
        <ele>294.7</ele>
        <time>2020-06-26T13:52:04Z</time>
      </trkpt>
      <trkpt lat="49.53637" lon="6.23768">
        <ele>294.6</ele>
        <time>2020-06-26T13:52:05Z</time>
      </trkpt>
      <trkpt lat="49.53632" lon="6.23774">
        <ele>294.5</ele>
        <time>2020-06-26T13:52:06Z</time>
      </trkpt>
      <trkpt lat="49.53627" lon="6.23781">
        <ele>294.4</ele>
        <time>2020-06-26T13:52:07Z</time>
      </trkpt>
      <trkpt lat="49.53623" lon="6.23787">
        <ele>294.2</ele>
        <time>2020-06-26T13:52:08Z</time>
      </trkpt>
      <trkpt lat="49.53618" lon="6.23793">
        <ele>294.1</ele>
        <time>2020-06-26T13:52:09Z</time>
      </trkpt>
      <trkpt lat="49.53613" lon="6.23799">
        <ele>294</ele>
        <time>2020-06-26T13:52:10Z</time>
      </trkpt>
      <trkpt lat="49.53607" lon="6.23806">
        <ele>293.9</ele>
        <time>2020-06-26T13:52:11Z</time>
      </trkpt>
      <trkpt lat="49.53601" lon="6.23813">
        <ele>293.8</ele>
        <time>2020-06-26T13:52:12Z</time>
      </trkpt>
      <trkpt lat="49.53596" lon="6.23819">
        <ele>293.7</ele>
        <time>2020-06-26T13:52:13Z</time>
      </trkpt>
      <trkpt lat="49.5359" lon="6.23825">
        <ele>293.7</ele>
        <time>2020-06-26T13:52:14Z</time>
      </trkpt>
      <trkpt lat="49.53585" lon="6.23832">
        <ele>293.6</ele>
        <time>2020-06-26T13:52:15Z</time>
      </trkpt>
      <trkpt lat="49.5358" lon="6.23839">
        <ele>293.6</ele>
        <time>2020-06-26T13:52:16Z</time>
      </trkpt>
      <trkpt lat="49.53575" lon="6.23847">
        <ele>293.5</ele>
        <time>2020-06-26T13:52:17Z</time>
      </trkpt>
      <trkpt lat="49.53571" lon="6.23855">
        <ele>293.5</ele>
        <time>2020-06-26T13:52:18Z</time>
      </trkpt>
      <trkpt lat="49.53567" lon="6.23863">
        <ele>293.5</ele>
        <time>2020-06-26T13:52:19Z</time>
      </trkpt>
      <trkpt lat="49.53562" lon="6.23871">
        <ele>293.5</ele>
        <time>2020-06-26T13:52:20Z</time>
      </trkpt>
      <trkpt lat="49.53558" lon="6.23879">
        <ele>293.6</ele>
        <time>2020-06-26T13:52:21Z</time>
      </trkpt>
      <trkpt lat="49.53554" lon="6.23887">
        <ele>293.7</ele>
        <time>2020-06-26T13:52:22Z</time>
      </trkpt>
      <trkpt lat="49.53551" lon="6.23896">
        <ele>293.8</ele>
        <time>2020-06-26T13:52:23Z</time>
      </trkpt>
      <trkpt lat="49.53547" lon="6.23905">
        <ele>293.9</ele>
        <time>2020-06-26T13:52:24Z</time>
      </trkpt>
      <trkpt lat="49.53544" lon="6.23913">
        <ele>294</ele>
        <time>2020-06-26T13:52:25Z</time>
      </trkpt>
      <trkpt lat="49.53541" lon="6.23921">
        <ele>294.2</ele>
        <time>2020-06-26T13:52:26Z</time>
      </trkpt>
      <trkpt lat="49.53537" lon="6.23929">
        <ele>294.3</ele>
        <time>2020-06-26T13:52:27Z</time>
      </trkpt>
      <trkpt lat="49.53534" lon="6.23936">
        <ele>294.4</ele>
        <time>2020-06-26T13:52:28Z</time>
      </trkpt>
      <trkpt lat="49.5353" lon="6.23943">
        <ele>294.6</ele>
        <time>2020-06-26T13:52:29Z</time>
      </trkpt>
      <trkpt lat="49.53526" lon="6.2395">
        <ele>294.7</ele>
        <time>2020-06-26T13:52:30Z</time>
      </trkpt>
      <trkpt lat="49.53522" lon="6.23957">
        <ele>294.8</ele>
        <time>2020-06-26T13:52:31Z</time>
      </trkpt>
      <trkpt lat="49.53519" lon="6.23964">
        <ele>294.9</ele>
        <time>2020-06-26T13:52:32Z</time>
      </trkpt>
      <trkpt lat="49.53516" lon="6.23971">
        <ele>294.9</ele>
        <time>2020-06-26T13:52:33Z</time>
      </trkpt>
      <trkpt lat="49.53512" lon="6.23979">
        <ele>295</ele>
        <time>2020-06-26T13:52:34Z</time>
      </trkpt>
      <trkpt lat="49.53509" lon="6.23985">
        <ele>295.1</ele>
        <time>2020-06-26T13:52:35Z</time>
      </trkpt>
      <trkpt lat="49.53506" lon="6.23992">
        <ele>295.1</ele>
        <time>2020-06-26T13:52:36Z</time>
      </trkpt>
      <trkpt lat="49.53503" lon="6.23999">
        <ele>295.2</ele>
        <time>2020-06-26T13:52:37Z</time>
      </trkpt>
      <trkpt lat="49.535" lon="6.24006">
        <ele>295.2</ele>
        <time>2020-06-26T13:52:38Z</time>
      </trkpt>
      <trkpt lat="49.53497" lon="6.24012">
        <ele>295.3</ele>
        <time>2020-06-26T13:52:39Z</time>
      </trkpt>
      <trkpt lat="49.53493" lon="6.24019">
        <ele>295.3</ele>
        <time>2020-06-26T13:52:40Z</time>
      </trkpt>
      <trkpt lat="49.53489" lon="6.24025">
        <ele>295.4</ele>
        <time>2020-06-26T13:52:41Z</time>
      </trkpt>
      <trkpt lat="49.53486" lon="6.24031">
        <ele>295.4</ele>
        <time>2020-06-26T13:52:42Z</time>
      </trkpt>
      <trkpt lat="49.53482" lon="6.24038">
        <ele>295.5</ele>
        <time>2020-06-26T13:52:43Z</time>
      </trkpt>
      <trkpt lat="49.53479" lon="6.24045">
        <ele>295.6</ele>
        <time>2020-06-26T13:52:44Z</time>
      </trkpt>
      <trkpt lat="49.53476" lon="6.24052">
        <ele>295.6</ele>
        <time>2020-06-26T13:52:45Z</time>
      </trkpt>
      <trkpt lat="49.53473" lon="6.24059">
        <ele>295.7</ele>
        <time>2020-06-26T13:52:46Z</time>
      </trkpt>
      <trkpt lat="49.53469" lon="6.24068">
        <ele>295.9</ele>
        <time>2020-06-26T13:52:47Z</time>
      </trkpt>
      <trkpt lat="49.53468" lon="6.24076">
        <ele>296.1</ele>
        <time>2020-06-26T13:52:48Z</time>
      </trkpt>
      <trkpt lat="49.53466" lon="6.24085">
        <ele>296.2</ele>
        <time>2020-06-26T13:52:49Z</time>
      </trkpt>
      <trkpt lat="49.53465" lon="6.24094">
        <ele>296.4</ele>
        <time>2020-06-26T13:52:50Z</time>
      </trkpt>
      <trkpt lat="49.53464" lon="6.24103">
        <ele>296.5</ele>
        <time>2020-06-26T13:52:51Z</time>
      </trkpt>
      <trkpt lat="49.53463" lon="6.24112">
        <ele>296.7</ele>
        <time>2020-06-26T13:52:52Z</time>
      </trkpt>
      <trkpt lat="49.53461" lon="6.24121">
        <ele>296.8</ele>
        <time>2020-06-26T13:52:53Z</time>
      </trkpt>
      <trkpt lat="49.53459" lon="6.24129">
        <ele>296.9</ele>
        <time>2020-06-26T13:52:54Z</time>
      </trkpt>
      <trkpt lat="49.53458" lon="6.24137">
        <ele>297</ele>
        <time>2020-06-26T13:52:55Z</time>
      </trkpt>
      <trkpt lat="49.53456" lon="6.24144">
        <ele>297.1</ele>
        <time>2020-06-26T13:52:56Z</time>
      </trkpt>
      <trkpt lat="49.53454" lon="6.2415">
        <ele>297.1</ele>
        <time>2020-06-26T13:52:57Z</time>
      </trkpt>
      <trkpt lat="49.53452" lon="6.24158">
        <ele>297.1</ele>
        <time>2020-06-26T13:52:58Z</time>
      </trkpt>
      <trkpt lat="49.53449" lon="6.24167">
        <ele>297.1</ele>
        <time>2020-06-26T13:52:59Z</time>
      </trkpt>
      <trkpt lat="49.53447" lon="6.24174">
        <ele>297</ele>
        <time>2020-06-26T13:53:00Z</time>
      </trkpt>
      <trkpt lat="49.53446" lon="6.24183">
        <ele>297</ele>
        <time>2020-06-26T13:53:01Z</time>
      </trkpt>
      <trkpt lat="49.53444" lon="6.2419">
        <ele>296.9</ele>
        <time>2020-06-26T13:53:02Z</time>
      </trkpt>
      <trkpt lat="49.53442" lon="6.24199">
        <ele>296.8</ele>
        <time>2020-06-26T13:53:03Z</time>
      </trkpt>
      <trkpt lat="49.5344" lon="6.24206">
        <ele>296.7</ele>
        <time>2020-06-26T13:53:04Z</time>
      </trkpt>
      <trkpt lat="49.53438" lon="6.24212">
        <ele>296.6</ele>
        <time>2020-06-26T13:53:05Z</time>
      </trkpt>
      <trkpt lat="49.53436" lon="6.24218">
        <ele>296.5</ele>
        <time>2020-06-26T13:53:06Z</time>
      </trkpt>
      <trkpt lat="49.53434" lon="6.24224">
        <ele>296.4</ele>
        <time>2020-06-26T13:53:07Z</time>
      </trkpt>
      <trkpt lat="49.53432" lon="6.24233">
        <ele>296.3</ele>
        <time>2020-06-26T13:53:08Z</time>
      </trkpt>
      <trkpt lat="49.5343" lon="6.24242">
        <ele>296.1</ele>
        <time>2020-06-26T13:53:09Z</time>
      </trkpt>
      <trkpt lat="49.53429" lon="6.2425">
        <ele>296</ele>
        <time>2020-06-26T13:53:10Z</time>
      </trkpt>
      <trkpt lat="49.53427" lon="6.24259">
        <ele>295.9</ele>
        <time>2020-06-26T13:53:11Z</time>
      </trkpt>
      <trkpt lat="49.53424" lon="6.24268">
        <ele>295.7</ele>
        <time>2020-06-26T13:53:12Z</time>
      </trkpt>
      <trkpt lat="49.53422" lon="6.24277">
        <ele>295.5</ele>
        <time>2020-06-26T13:53:13Z</time>
      </trkpt>
      <trkpt lat="49.5342" lon="6.2429">
        <ele>295.2</ele>
        <time>2020-06-26T13:53:14Z</time>
      </trkpt>
      <trkpt lat="49.53417" lon="6.24299">
        <ele>295</ele>
        <time>2020-06-26T13:53:15Z</time>
      </trkpt>
      <trkpt lat="49.53415" lon="6.24309">
        <ele>294.7</ele>
        <time>2020-06-26T13:53:16Z</time>
      </trkpt>
      <trkpt lat="49.53412" lon="6.2432">
        <ele>294.4</ele>
        <time>2020-06-26T13:53:17Z</time>
      </trkpt>
      <trkpt lat="49.5341" lon="6.2433">
        <ele>294.1</ele>
        <time>2020-06-26T13:53:18Z</time>
      </trkpt>
      <trkpt lat="49.53407" lon="6.2434">
        <ele>293.8</ele>
        <time>2020-06-26T13:53:19Z</time>
      </trkpt>
      <trkpt lat="49.53404" lon="6.24349">
        <ele>293.6</ele>
        <time>2020-06-26T13:53:20Z</time>
      </trkpt>
      <trkpt lat="49.53401" lon="6.24359">
        <ele>293.3</ele>
        <time>2020-06-26T13:53:21Z</time>
      </trkpt>
      <trkpt lat="49.53398" lon="6.24367">
        <ele>293</ele>
        <time>2020-06-26T13:53:22Z</time>
      </trkpt>
      <trkpt lat="49.53395" lon="6.24375">
        <ele>292.7</ele>
        <time>2020-06-26T13:53:23Z</time>
      </trkpt>
      <trkpt lat="49.53392" lon="6.24384">
        <ele>292.5</ele>
        <time>2020-06-26T13:53:24Z</time>
      </trkpt>
      <trkpt lat="49.53389" lon="6.24392">
        <ele>292.2</ele>
        <time>2020-06-26T13:53:25Z</time>
      </trkpt>
      <trkpt lat="49.53387" lon="6.24402">
        <ele>291.9</ele>
        <time>2020-06-26T13:53:26Z</time>
      </trkpt>
      <trkpt lat="49.53385" lon="6.24412">
        <ele>291.6</ele>
        <time>2020-06-26T13:53:27Z</time>
      </trkpt>
      <trkpt lat="49.53383" lon="6.24424">
        <ele>291.1</ele>
        <time>2020-06-26T13:53:28Z</time>
      </trkpt>
      <trkpt lat="49.53381" lon="6.24433">
        <ele>290.5</ele>
        <time>2020-06-26T13:53:29Z</time>
      </trkpt>
      <trkpt lat="49.53379" lon="6.24442">
        <ele>290.2</ele>
        <time>2020-06-26T13:53:30Z</time>
      </trkpt>
      <trkpt lat="49.53379" lon="6.24451">
        <ele>290</ele>
        <time>2020-06-26T13:53:31Z</time>
      </trkpt>
      <trkpt lat="49.5338" lon="6.2446">
        <ele>289.7</ele>
        <time>2020-06-26T13:53:32Z</time>
      </trkpt>
      <trkpt lat="49.53381" lon="6.24471">
        <ele>289.4</ele>
        <time>2020-06-26T13:53:33Z</time>
      </trkpt>
      <trkpt lat="49.53381" lon="6.24481">
        <ele>289</ele>
        <time>2020-06-26T13:53:34Z</time>
      </trkpt>
      <trkpt lat="49.5338" lon="6.24491">
        <ele>288.7</ele>
        <time>2020-06-26T13:53:35Z</time>
      </trkpt>
      <trkpt lat="49.53378" lon="6.24501">
        <ele>288.3</ele>
        <time>2020-06-26T13:53:36Z</time>
      </trkpt>
      <trkpt lat="49.53374" lon="6.24512">
        <ele>287.9</ele>
        <time>2020-06-26T13:53:37Z</time>
      </trkpt>
      <trkpt lat="49.5337" lon="6.24523">
        <ele>287.6</ele>
        <time>2020-06-26T13:53:38Z</time>
      </trkpt>
      <trkpt lat="49.53364" lon="6.24532">
        <ele>287.3</ele>
        <time>2020-06-26T13:53:39Z</time>
      </trkpt>
      <trkpt lat="49.53358" lon="6.24541">
        <ele>287.1</ele>
        <time>2020-06-26T13:53:40Z</time>
      </trkpt>
      <trkpt lat="49.53351" lon="6.2455">
        <ele>287</ele>
        <time>2020-06-26T13:53:41Z</time>
      </trkpt>
      <trkpt lat="49.53346" lon="6.24559">
        <ele>286.9</ele>
        <time>2020-06-26T13:53:42Z</time>
      </trkpt>
      <trkpt lat="49.53341" lon="6.24569">
        <ele>286.9</ele>
        <time>2020-06-26T13:53:43Z</time>
      </trkpt>
      <trkpt lat="49.53337" lon="6.24578">
        <ele>287.1</ele>
        <time>2020-06-26T13:53:44Z</time>
      </trkpt>
      <trkpt lat="49.53334" lon="6.24584">
        <ele>287.2</ele>
        <time>2020-06-26T13:53:45Z</time>
      </trkpt>
      <trkpt lat="49.5333" lon="6.24589">
        <ele>287.3</ele>
        <time>2020-06-26T13:53:46Z</time>
      </trkpt>
      <trkpt lat="49.53328" lon="6.24592">
        <ele>287.4</ele>
        <time>2020-06-26T13:53:47Z</time>
      </trkpt>
      <trkpt lat="49.53325" lon="6.24596">
        <ele>287.4</ele>
        <time>2020-06-26T13:53:48Z</time>
      </trkpt>
      <trkpt lat="49.53324" lon="6.246">
        <ele>287.4</ele>
        <time>2020-06-26T13:53:49Z</time>
      </trkpt>
      <trkpt lat="49.53322" lon="6.24601">
        <ele>287.4</ele>
        <time>2020-06-26T13:53:50Z</time>
      </trkpt>
      <trkpt lat="49.53322" lon="6.24601">
        <ele>287.4</ele>
        <time>2020-06-26T13:53:51Z</time>
      </trkpt>
      <trkpt lat="49.53323" lon="6.24602">
        <ele>287.4</ele>
        <time>2020-06-26T13:53:52Z</time>
      </trkpt>
      <trkpt lat="49.53324" lon="6.24603">
        <ele>287.4</ele>
        <time>2020-06-26T13:53:53Z</time>
      </trkpt>
      <trkpt lat="49.53324" lon="6.24604">
        <ele>287.4</ele>
        <time>2020-06-26T13:53:54Z</time>
      </trkpt>
      <trkpt lat="49.53324" lon="6.24603">
        <ele>287.4</ele>
        <time>2020-06-26T13:53:55Z</time>
      </trkpt>
      <trkpt lat="49.53323" lon="6.24602">
        <ele>287.4</ele>
        <time>2020-06-26T13:53:56Z</time>
      </trkpt>
      <trkpt lat="49.53323" lon="6.24602">
        <ele>287.4</ele>
        <time>2020-06-26T13:53:57Z</time>
      </trkpt>
      <trkpt lat="49.53322" lon="6.24604">
        <ele>287.4</ele>
        <time>2020-06-26T13:53:58Z</time>
      </trkpt>
      <trkpt lat="49.53323" lon="6.24608">
        <ele>287.5</ele>
        <time>2020-06-26T13:53:59Z</time>
      </trkpt>
      <trkpt lat="49.53324" lon="6.2461">
        <ele>287.5</ele>
        <time>2020-06-26T13:54:00Z</time>
      </trkpt>
      <trkpt lat="49.53325" lon="6.24614">
        <ele>287.5</ele>
        <time>2020-06-26T13:54:01Z</time>
      </trkpt>
      <trkpt lat="49.53328" lon="6.24617">
        <ele>287.6</ele>
        <time>2020-06-26T13:54:02Z</time>
      </trkpt>
      <trkpt lat="49.5333" lon="6.24622">
        <ele>287.6</ele>
        <time>2020-06-26T13:54:03Z</time>
      </trkpt>
      <trkpt lat="49.53332" lon="6.24627">
        <ele>287.6</ele>
        <time>2020-06-26T13:54:04Z</time>
      </trkpt>
      <trkpt lat="49.53336" lon="6.2463">
        <ele>287.6</ele>
        <time>2020-06-26T13:54:05Z</time>
      </trkpt>
      <trkpt lat="49.53339" lon="6.24635">
        <ele>287.6</ele>
        <time>2020-06-26T13:54:06Z</time>
      </trkpt>
      <trkpt lat="49.53343" lon="6.2464">
        <ele>287.6</ele>
        <time>2020-06-26T13:54:07Z</time>
      </trkpt>
      <trkpt lat="49.53346" lon="6.24645">
        <ele>287.7</ele>
        <time>2020-06-26T13:54:08Z</time>
      </trkpt>
      <trkpt lat="49.53349" lon="6.2465">
        <ele>287.9</ele>
        <time>2020-06-26T13:54:09Z</time>
      </trkpt>
      <trkpt lat="49.53351" lon="6.24656">
        <ele>288</ele>
        <time>2020-06-26T13:54:10Z</time>
      </trkpt>
      <trkpt lat="49.53354" lon="6.24662">
        <ele>288.2</ele>
        <time>2020-06-26T13:54:11Z</time>
      </trkpt>
      <trkpt lat="49.53357" lon="6.24668">
        <ele>288.4</ele>
        <time>2020-06-26T13:54:12Z</time>
      </trkpt>
      <trkpt lat="49.53361" lon="6.24673">
        <ele>288.6</ele>
        <time>2020-06-26T13:54:13Z</time>
      </trkpt>
      <trkpt lat="49.53365" lon="6.24679">
        <ele>288.9</ele>
        <time>2020-06-26T13:54:14Z</time>
      </trkpt>
      <trkpt lat="49.53369" lon="6.24684">
        <ele>289.2</ele>
        <time>2020-06-26T13:54:15Z</time>
      </trkpt>
      <trkpt lat="49.53373" lon="6.2469">
        <ele>289.5</ele>
        <time>2020-06-26T13:54:16Z</time>
      </trkpt>
      <trkpt lat="49.53377" lon="6.24696">
        <ele>289.8</ele>
        <time>2020-06-26T13:54:17Z</time>
      </trkpt>
      <trkpt lat="49.53381" lon="6.24703">
        <ele>290.2</ele>
        <time>2020-06-26T13:54:18Z</time>
      </trkpt>
      <trkpt lat="49.53384" lon="6.24708">
        <ele>290.5</ele>
        <time>2020-06-26T13:54:19Z</time>
      </trkpt>
      <trkpt lat="49.53388" lon="6.24713">
        <ele>290.9</ele>
        <time>2020-06-26T13:54:20Z</time>
      </trkpt>
      <trkpt lat="49.53389" lon="6.24717">
        <ele>291.1</ele>
        <time>2020-06-26T13:54:21Z</time>
      </trkpt>
      <trkpt lat="49.53392" lon="6.2472">
        <ele>291.3</ele>
        <time>2020-06-26T13:54:22Z</time>
      </trkpt>
      <trkpt lat="49.53394" lon="6.24724">
        <ele>291.5</ele>
        <time>2020-06-26T13:54:23Z</time>
      </trkpt>
      <trkpt lat="49.53396" lon="6.24727">
        <ele>291.7</ele>
        <time>2020-06-26T13:54:24Z</time>
      </trkpt>
      <trkpt lat="49.534" lon="6.24731">
        <ele>292</ele>
        <time>2020-06-26T13:54:25Z</time>
      </trkpt>
      <trkpt lat="49.53402" lon="6.24736">
        <ele>292.2</ele>
        <time>2020-06-26T13:54:26Z</time>
      </trkpt>
      <trkpt lat="49.53405" lon="6.24738">
        <ele>292.7</ele>
        <time>2020-06-26T13:54:27Z</time>
      </trkpt>
      <trkpt lat="49.53408" lon="6.24743">
        <ele>292.6</ele>
        <time>2020-06-26T13:54:28Z</time>
      </trkpt>
      <trkpt lat="49.53409" lon="6.24748">
        <ele>292.6</ele>
        <time>2020-06-26T13:54:29Z</time>
      </trkpt>
      <trkpt lat="49.5341" lon="6.24751">
        <ele>292.6</ele>
        <time>2020-06-26T13:54:30Z</time>
      </trkpt>
      <trkpt lat="49.5341" lon="6.24755">
        <ele>292.5</ele>
        <time>2020-06-26T13:54:31Z</time>
      </trkpt>
      <trkpt lat="49.53408" lon="6.24762">
        <ele>292.5</ele>
        <time>2020-06-26T13:54:32Z</time>
      </trkpt>
      <trkpt lat="49.53406" lon="6.24768">
        <ele>292.4</ele>
        <time>2020-06-26T13:54:33Z</time>
      </trkpt>
      <trkpt lat="49.53404" lon="6.24774">
        <ele>292.4</ele>
        <time>2020-06-26T13:54:34Z</time>
      </trkpt>
      <trkpt lat="49.53401" lon="6.2478">
        <ele>292.3</ele>
        <time>2020-06-26T13:54:35Z</time>
      </trkpt>
      <trkpt lat="49.53399" lon="6.24786">
        <ele>292.3</ele>
        <time>2020-06-26T13:54:36Z</time>
      </trkpt>
      <trkpt lat="49.53396" lon="6.24792">
        <ele>292.2</ele>
        <time>2020-06-26T13:54:37Z</time>
      </trkpt>
      <trkpt lat="49.53393" lon="6.24799">
        <ele>292.1</ele>
        <time>2020-06-26T13:54:38Z</time>
      </trkpt>
      <trkpt lat="49.5339" lon="6.24807">
        <ele>292</ele>
        <time>2020-06-26T13:54:39Z</time>
      </trkpt>
      <trkpt lat="49.53386" lon="6.24814">
        <ele>291.9</ele>
        <time>2020-06-26T13:54:40Z</time>
      </trkpt>
      <trkpt lat="49.53383" lon="6.2482">
        <ele>291.8</ele>
        <time>2020-06-26T13:54:41Z</time>
      </trkpt>
      <trkpt lat="49.53379" lon="6.24827">
        <ele>291.7</ele>
        <time>2020-06-26T13:54:42Z</time>
      </trkpt>
      <trkpt lat="49.53377" lon="6.24832">
        <ele>291.6</ele>
        <time>2020-06-26T13:54:43Z</time>
      </trkpt>
      <trkpt lat="49.53374" lon="6.2484">
        <ele>291.5</ele>
        <time>2020-06-26T13:54:44Z</time>
      </trkpt>
      <trkpt lat="49.53372" lon="6.24847">
        <ele>291.5</ele>
        <time>2020-06-26T13:54:45Z</time>
      </trkpt>
      <trkpt lat="49.53369" lon="6.24852">
        <ele>291.4</ele>
        <time>2020-06-26T13:54:46Z</time>
      </trkpt>
      <trkpt lat="49.53367" lon="6.24859">
        <ele>291.3</ele>
        <time>2020-06-26T13:54:47Z</time>
      </trkpt>
      <trkpt lat="49.53364" lon="6.24866">
        <ele>291.3</ele>
        <time>2020-06-26T13:54:48Z</time>
      </trkpt>
      <trkpt lat="49.53361" lon="6.24872">
        <ele>291.2</ele>
        <time>2020-06-26T13:54:49Z</time>
      </trkpt>
      <trkpt lat="49.53355" lon="6.2488">
        <ele>291.1</ele>
        <time>2020-06-26T13:54:50Z</time>
      </trkpt>
      <trkpt lat="49.53351" lon="6.24888">
        <ele>291.1</ele>
        <time>2020-06-26T13:54:51Z</time>
      </trkpt>
      <trkpt lat="49.53347" lon="6.24896">
        <ele>291</ele>
        <time>2020-06-26T13:54:52Z</time>
      </trkpt>
      <trkpt lat="49.53344" lon="6.24903">
        <ele>291</ele>
        <time>2020-06-26T13:54:53Z</time>
      </trkpt>
      <trkpt lat="49.53339" lon="6.24909">
        <ele>290.9</ele>
        <time>2020-06-26T13:54:54Z</time>
      </trkpt>
      <trkpt lat="49.53336" lon="6.24917">
        <ele>290.9</ele>
        <time>2020-06-26T13:54:55Z</time>
      </trkpt>
      <trkpt lat="49.53332" lon="6.24923">
        <ele>290.8</ele>
        <time>2020-06-26T13:54:56Z</time>
      </trkpt>
      <trkpt lat="49.53329" lon="6.24928">
        <ele>290.8</ele>
        <time>2020-06-26T13:54:57Z</time>
      </trkpt>
      <trkpt lat="49.53326" lon="6.24932">
        <ele>290.7</ele>
        <time>2020-06-26T13:54:58Z</time>
      </trkpt>
      <trkpt lat="49.53324" lon="6.24936">
        <ele>290.8</ele>
        <time>2020-06-26T13:54:59Z</time>
      </trkpt>
      <trkpt lat="49.53323" lon="6.24941">
        <ele>290.9</ele>
        <time>2020-06-26T13:55:00Z</time>
      </trkpt>
      <trkpt lat="49.53323" lon="6.24946">
        <ele>291</ele>
        <time>2020-06-26T13:55:01Z</time>
      </trkpt>
      <trkpt lat="49.53324" lon="6.24951">
        <ele>291.1</ele>
        <time>2020-06-26T13:55:02Z</time>
      </trkpt>
      <trkpt lat="49.53324" lon="6.24952">
        <ele>291.1</ele>
        <time>2020-06-26T13:55:03Z</time>
      </trkpt>
      <trkpt lat="49.53324" lon="6.24952">
        <ele>291.1</ele>
        <time>2020-06-26T13:55:04Z</time>
      </trkpt>
      <trkpt lat="49.53324" lon="6.24953">
        <ele>291.1</ele>
        <time>2020-06-26T13:55:05Z</time>
      </trkpt>
      <trkpt lat="49.53324" lon="6.24953">
        <ele>291.1</ele>
        <time>2020-06-26T13:55:06Z</time>
      </trkpt>
      <trkpt lat="49.53324" lon="6.24952">
        <ele>291.1</ele>
        <time>2020-06-26T13:55:07Z</time>
      </trkpt>
      <trkpt lat="49.53324" lon="6.24951">
        <ele>291.1</ele>
        <time>2020-06-26T13:55:08Z</time>
      </trkpt>
      <trkpt lat="49.53324" lon="6.24951">
        <ele>291.1</ele>
        <time>2020-06-26T13:55:09Z</time>
      </trkpt>
      <trkpt lat="49.53324" lon="6.2495">
        <ele>291.1</ele>
        <time>2020-06-26T13:55:10Z</time>
      </trkpt>
      <trkpt lat="49.53324" lon="6.24951">
        <ele>291.1</ele>
        <time>2020-06-26T13:55:11Z</time>
      </trkpt>
      <trkpt lat="49.53324" lon="6.24951">
        <ele>291.1</ele>
        <time>2020-06-26T13:55:12Z</time>
      </trkpt>
      <trkpt lat="49.53325" lon="6.24957">
        <ele>291.2</ele>
        <time>2020-06-26T13:55:27Z</time>
      </trkpt>
      <trkpt lat="49.53326" lon="6.2496">
        <ele>291.3</ele>
        <time>2020-06-26T13:55:28Z</time>
      </trkpt>
      <trkpt lat="49.53328" lon="6.24965">
        <ele>291.4</ele>
        <time>2020-06-26T13:55:29Z</time>
      </trkpt>
      <trkpt lat="49.53328" lon="6.24967">
        <ele>291.4</ele>
        <time>2020-06-26T13:55:30Z</time>
      </trkpt>
      <trkpt lat="49.5333" lon="6.24971">
        <ele>291.5</ele>
        <time>2020-06-26T13:55:31Z</time>
      </trkpt>
      <trkpt lat="49.53331" lon="6.24975">
        <ele>291.6</ele>
        <time>2020-06-26T13:55:32Z</time>
      </trkpt>
      <trkpt lat="49.53332" lon="6.24981">
        <ele>291.7</ele>
        <time>2020-06-26T13:55:33Z</time>
      </trkpt>
      <trkpt lat="49.53332" lon="6.24983">
        <ele>291.7</ele>
        <time>2020-06-26T13:55:34Z</time>
      </trkpt>
      <trkpt lat="49.53334" lon="6.24987">
        <ele>291.8</ele>
        <time>2020-06-26T13:55:35Z</time>
      </trkpt>
      <trkpt lat="49.53335" lon="6.24992">
        <ele>291.9</ele>
        <time>2020-06-26T13:55:36Z</time>
      </trkpt>
      <trkpt lat="49.53337" lon="6.24998">
        <ele>292</ele>
        <time>2020-06-26T13:55:37Z</time>
      </trkpt>
      <trkpt lat="49.53337" lon="6.25004">
        <ele>292.1</ele>
        <time>2020-06-26T13:55:38Z</time>
      </trkpt>
      <trkpt lat="49.53338" lon="6.25011">
        <ele>292.3</ele>
        <time>2020-06-26T13:55:39Z</time>
      </trkpt>
      <trkpt lat="49.53339" lon="6.25018">
        <ele>292.4</ele>
        <time>2020-06-26T13:55:40Z</time>
      </trkpt>
      <trkpt lat="49.5334" lon="6.25025">
        <ele>292.4</ele>
        <time>2020-06-26T13:55:41Z</time>
      </trkpt>
      <trkpt lat="49.53341" lon="6.25032">
        <ele>292.4</ele>
        <time>2020-06-26T13:55:42Z</time>
      </trkpt>
      <trkpt lat="49.53342" lon="6.25038">
        <ele>292.3</ele>
        <time>2020-06-26T13:55:43Z</time>
      </trkpt>
      <trkpt lat="49.53343" lon="6.25045">
        <ele>292.3</ele>
        <time>2020-06-26T13:55:44Z</time>
      </trkpt>
      <trkpt lat="49.53344" lon="6.25053">
        <ele>292.3</ele>
        <time>2020-06-26T13:55:45Z</time>
      </trkpt>
      <trkpt lat="49.53345" lon="6.25061">
        <ele>292.3</ele>
        <time>2020-06-26T13:55:46Z</time>
      </trkpt>
      <trkpt lat="49.53346" lon="6.2507">
        <ele>292.3</ele>
        <time>2020-06-26T13:55:47Z</time>
      </trkpt>
      <trkpt lat="49.53347" lon="6.25079">
        <ele>292.3</ele>
        <time>2020-06-26T13:55:48Z</time>
      </trkpt>
      <trkpt lat="49.53348" lon="6.25087">
        <ele>292.2</ele>
        <time>2020-06-26T13:55:49Z</time>
      </trkpt>
      <trkpt lat="49.5335" lon="6.25095">
        <ele>292.2</ele>
        <time>2020-06-26T13:55:50Z</time>
      </trkpt>
      <trkpt lat="49.53351" lon="6.25104">
        <ele>292.3</ele>
        <time>2020-06-26T13:55:51Z</time>
      </trkpt>
      <trkpt lat="49.53353" lon="6.25114">
        <ele>292.3</ele>
        <time>2020-06-26T13:55:52Z</time>
      </trkpt>
      <trkpt lat="49.53356" lon="6.25124">
        <ele>292.4</ele>
        <time>2020-06-26T13:55:53Z</time>
      </trkpt>
      <trkpt lat="49.53358" lon="6.25132">
        <ele>292.5</ele>
        <time>2020-06-26T13:55:54Z</time>
      </trkpt>
      <trkpt lat="49.5336" lon="6.2514">
        <ele>292.6</ele>
        <time>2020-06-26T13:55:55Z</time>
      </trkpt>
      <trkpt lat="49.53361" lon="6.25147">
        <ele>292.7</ele>
        <time>2020-06-26T13:55:56Z</time>
      </trkpt>
      <trkpt lat="49.53363" lon="6.25155">
        <ele>292.8</ele>
        <time>2020-06-26T13:55:57Z</time>
      </trkpt>
      <trkpt lat="49.53365" lon="6.25163">
        <ele>292.9</ele>
        <time>2020-06-26T13:55:58Z</time>
      </trkpt>
      <trkpt lat="49.53366" lon="6.2517">
        <ele>292.9</ele>
        <time>2020-06-26T13:55:59Z</time>
      </trkpt>
      <trkpt lat="49.53368" lon="6.25177">
        <ele>293</ele>
        <time>2020-06-26T13:56:00Z</time>
      </trkpt>
      <trkpt lat="49.5337" lon="6.25184">
        <ele>293.1</ele>
        <time>2020-06-26T13:56:01Z</time>
      </trkpt>
      <trkpt lat="49.53373" lon="6.2519">
        <ele>293.3</ele>
        <time>2020-06-26T13:56:02Z</time>
      </trkpt>
      <trkpt lat="49.53376" lon="6.25196">
        <ele>293.5</ele>
        <time>2020-06-26T13:56:03Z</time>
      </trkpt>
      <trkpt lat="49.53379" lon="6.252">
        <ele>293.7</ele>
        <time>2020-06-26T13:56:04Z</time>
      </trkpt>
      <trkpt lat="49.53383" lon="6.25205">
        <ele>293.9</ele>
        <time>2020-06-26T13:56:05Z</time>
      </trkpt>
      <trkpt lat="49.53386" lon="6.25212">
        <ele>294.2</ele>
        <time>2020-06-26T13:56:06Z</time>
      </trkpt>
      <trkpt lat="49.5339" lon="6.25217">
        <ele>294.5</ele>
        <time>2020-06-26T13:56:07Z</time>
      </trkpt>
      <trkpt lat="49.53394" lon="6.25223">
        <ele>294.7</ele>
        <time>2020-06-26T13:56:08Z</time>
      </trkpt>
      <trkpt lat="49.53397" lon="6.25229">
        <ele>295</ele>
        <time>2020-06-26T13:56:09Z</time>
      </trkpt>
      <trkpt lat="49.534" lon="6.25235">
        <ele>295.3</ele>
        <time>2020-06-26T13:56:10Z</time>
      </trkpt>
      <trkpt lat="49.53403" lon="6.2524">
        <ele>295.5</ele>
        <time>2020-06-26T13:56:11Z</time>
      </trkpt>
      <trkpt lat="49.53406" lon="6.25246">
        <ele>295.8</ele>
        <time>2020-06-26T13:56:12Z</time>
      </trkpt>
      <trkpt lat="49.5341" lon="6.25252">
        <ele>296.1</ele>
        <time>2020-06-26T13:56:13Z</time>
      </trkpt>
      <trkpt lat="49.53414" lon="6.25258">
        <ele>296.4</ele>
        <time>2020-06-26T13:56:14Z</time>
      </trkpt>
      <trkpt lat="49.53417" lon="6.25263">
        <ele>296.6</ele>
        <time>2020-06-26T13:56:15Z</time>
      </trkpt>
      <trkpt lat="49.5342" lon="6.25268">
        <ele>296.9</ele>
        <time>2020-06-26T13:56:16Z</time>
      </trkpt>
      <trkpt lat="49.53423" lon="6.25272">
        <ele>297.1</ele>
        <time>2020-06-26T13:56:17Z</time>
      </trkpt>
      <trkpt lat="49.53425" lon="6.25276">
        <ele>297.3</ele>
        <time>2020-06-26T13:56:18Z</time>
      </trkpt>
      <trkpt lat="49.53428" lon="6.25279">
        <ele>297.5</ele>
        <time>2020-06-26T13:56:19Z</time>
      </trkpt>
      <trkpt lat="49.53431" lon="6.25282">
        <ele>297.7</ele>
        <time>2020-06-26T13:56:20Z</time>
      </trkpt>
      <trkpt lat="49.53434" lon="6.25286">
        <ele>297.9</ele>
        <time>2020-06-26T13:56:21Z</time>
      </trkpt>
      <trkpt lat="49.53437" lon="6.2529">
        <ele>298.1</ele>
        <time>2020-06-26T13:56:22Z</time>
      </trkpt>
      <trkpt lat="49.5344" lon="6.25294">
        <ele>298.3</ele>
        <time>2020-06-26T13:56:23Z</time>
      </trkpt>
      <trkpt lat="49.53442" lon="6.25298">
        <ele>298.5</ele>
        <time>2020-06-26T13:56:24Z</time>
      </trkpt>
      <trkpt lat="49.53444" lon="6.25302">
        <ele>298.7</ele>
        <time>2020-06-26T13:56:25Z</time>
      </trkpt>
      <trkpt lat="49.53446" lon="6.25306">
        <ele>298.8</ele>
        <time>2020-06-26T13:56:26Z</time>
      </trkpt>
      <trkpt lat="49.53448" lon="6.25309">
        <ele>299</ele>
        <time>2020-06-26T13:56:27Z</time>
      </trkpt>
      <trkpt lat="49.53451" lon="6.25313">
        <ele>299.1</ele>
        <time>2020-06-26T13:56:28Z</time>
      </trkpt>
      <trkpt lat="49.53454" lon="6.25316">
        <ele>299.3</ele>
        <time>2020-06-26T13:56:29Z</time>
      </trkpt>
      <trkpt lat="49.53457" lon="6.2532">
        <ele>299.5</ele>
        <time>2020-06-26T13:56:30Z</time>
      </trkpt>
      <trkpt lat="49.53459" lon="6.25325">
        <ele>299.7</ele>
        <time>2020-06-26T13:56:31Z</time>
      </trkpt>
      <trkpt lat="49.53463" lon="6.25329">
        <ele>299.9</ele>
        <time>2020-06-26T13:56:32Z</time>
      </trkpt>
      <trkpt lat="49.53466" lon="6.25333">
        <ele>300.1</ele>
        <time>2020-06-26T13:56:33Z</time>
      </trkpt>
      <trkpt lat="49.53469" lon="6.25337">
        <ele>300.3</ele>
        <time>2020-06-26T13:56:34Z</time>
      </trkpt>
      <trkpt lat="49.53472" lon="6.2534">
        <ele>300.5</ele>
        <time>2020-06-26T13:56:35Z</time>
      </trkpt>
      <trkpt lat="49.53475" lon="6.25345">
        <ele>300.7</ele>
        <time>2020-06-26T13:56:36Z</time>
      </trkpt>
      <trkpt lat="49.53478" lon="6.25349">
        <ele>300.9</ele>
        <time>2020-06-26T13:56:37Z</time>
      </trkpt>
      <trkpt lat="49.53481" lon="6.25352">
        <ele>301.1</ele>
        <time>2020-06-26T13:56:38Z</time>
      </trkpt>
      <trkpt lat="49.53484" lon="6.25356">
        <ele>301.3</ele>
        <time>2020-06-26T13:56:39Z</time>
      </trkpt>
      <trkpt lat="49.53487" lon="6.25359">
        <ele>301.5</ele>
        <time>2020-06-26T13:56:40Z</time>
      </trkpt>
      <trkpt lat="49.53489" lon="6.25363">
        <ele>301.6</ele>
        <time>2020-06-26T13:56:41Z</time>
      </trkpt>
      <trkpt lat="49.53492" lon="6.25367">
        <ele>301.8</ele>
        <time>2020-06-26T13:56:42Z</time>
      </trkpt>
      <trkpt lat="49.53495" lon="6.25371">
        <ele>302</ele>
        <time>2020-06-26T13:56:43Z</time>
      </trkpt>
      <trkpt lat="49.53498" lon="6.25376">
        <ele>302.2</ele>
        <time>2020-06-26T13:56:44Z</time>
      </trkpt>
      <trkpt lat="49.53501" lon="6.2538">
        <ele>302.3</ele>
        <time>2020-06-26T13:56:45Z</time>
      </trkpt>
      <trkpt lat="49.53504" lon="6.25385">
        <ele>302.5</ele>
        <time>2020-06-26T13:56:46Z</time>
      </trkpt>
      <trkpt lat="49.53506" lon="6.2539">
        <ele>302.6</ele>
        <time>2020-06-26T13:56:47Z</time>
      </trkpt>
      <trkpt lat="49.53508" lon="6.25395">
        <ele>302.8</ele>
        <time>2020-06-26T13:56:48Z</time>
      </trkpt>
      <trkpt lat="49.53511" lon="6.254">
        <ele>302.9</ele>
        <time>2020-06-26T13:56:49Z</time>
      </trkpt>
      <trkpt lat="49.53513" lon="6.25404">
        <ele>303.1</ele>
        <time>2020-06-26T13:56:50Z</time>
      </trkpt>
      <trkpt lat="49.53515" lon="6.25408">
        <ele>303.2</ele>
        <time>2020-06-26T13:56:51Z</time>
      </trkpt>
      <trkpt lat="49.53518" lon="6.25411">
        <ele>303.4</ele>
        <time>2020-06-26T13:56:52Z</time>
      </trkpt>
      <trkpt lat="49.5352" lon="6.25414">
        <ele>303.5</ele>
        <time>2020-06-26T13:56:53Z</time>
      </trkpt>
      <trkpt lat="49.53523" lon="6.25418">
        <ele>303.7</ele>
        <time>2020-06-26T13:56:54Z</time>
      </trkpt>
      <trkpt lat="49.53524" lon="6.2542">
        <ele>303.8</ele>
        <time>2020-06-26T13:56:55Z</time>
      </trkpt>
      <trkpt lat="49.53527" lon="6.25424">
        <ele>303.9</ele>
        <time>2020-06-26T13:56:56Z</time>
      </trkpt>
      <trkpt lat="49.5353" lon="6.25428">
        <ele>304.1</ele>
        <time>2020-06-26T13:56:57Z</time>
      </trkpt>
      <trkpt lat="49.53534" lon="6.25433">
        <ele>304.3</ele>
        <time>2020-06-26T13:56:58Z</time>
      </trkpt>
      <trkpt lat="49.53537" lon="6.25437">
        <ele>304.6</ele>
        <time>2020-06-26T13:56:59Z</time>
      </trkpt>
      <trkpt lat="49.53539" lon="6.25441">
        <ele>304.7</ele>
        <time>2020-06-26T13:57:00Z</time>
      </trkpt>
      <trkpt lat="49.53542" lon="6.25445">
        <ele>304.9</ele>
        <time>2020-06-26T13:57:01Z</time>
      </trkpt>
      <trkpt lat="49.53545" lon="6.25449">
        <ele>305.1</ele>
        <time>2020-06-26T13:57:02Z</time>
      </trkpt>
      <trkpt lat="49.53547" lon="6.25453">
        <ele>305.2</ele>
        <time>2020-06-26T13:57:03Z</time>
      </trkpt>
      <trkpt lat="49.5355" lon="6.25456">
        <ele>305.4</ele>
        <time>2020-06-26T13:57:04Z</time>
      </trkpt>
      <trkpt lat="49.53552" lon="6.2546">
        <ele>305.5</ele>
        <time>2020-06-26T13:57:05Z</time>
      </trkpt>
      <trkpt lat="49.53554" lon="6.25464">
        <ele>305.7</ele>
        <time>2020-06-26T13:57:06Z</time>
      </trkpt>
      <trkpt lat="49.53556" lon="6.25467">
        <ele>305.8</ele>
        <time>2020-06-26T13:57:07Z</time>
      </trkpt>
      <trkpt lat="49.53558" lon="6.25471">
        <ele>305.9</ele>
        <time>2020-06-26T13:57:08Z</time>
      </trkpt>
      <trkpt lat="49.5356" lon="6.25475">
        <ele>306.1</ele>
        <time>2020-06-26T13:57:09Z</time>
      </trkpt>
      <trkpt lat="49.53562" lon="6.25479">
        <ele>306.2</ele>
        <time>2020-06-26T13:57:10Z</time>
      </trkpt>
      <trkpt lat="49.53564" lon="6.25484">
        <ele>306.3</ele>
        <time>2020-06-26T13:57:11Z</time>
      </trkpt>
      <trkpt lat="49.53566" lon="6.25489">
        <ele>306.5</ele>
        <time>2020-06-26T13:57:12Z</time>
      </trkpt>
      <trkpt lat="49.53569" lon="6.25494">
        <ele>306.7</ele>
        <time>2020-06-26T13:57:13Z</time>
      </trkpt>
      <trkpt lat="49.53571" lon="6.25499">
        <ele>306.9</ele>
        <time>2020-06-26T13:57:14Z</time>
      </trkpt>
      <trkpt lat="49.53573" lon="6.25505">
        <ele>307</ele>
        <time>2020-06-26T13:57:15Z</time>
      </trkpt>
      <trkpt lat="49.53576" lon="6.2551">
        <ele>307.2</ele>
        <time>2020-06-26T13:57:16Z</time>
      </trkpt>
      <trkpt lat="49.53577" lon="6.25514">
        <ele>307.3</ele>
        <time>2020-06-26T13:57:17Z</time>
      </trkpt>
      <trkpt lat="49.53579" lon="6.25519">
        <ele>307.4</ele>
        <time>2020-06-26T13:57:18Z</time>
      </trkpt>
      <trkpt lat="49.5358" lon="6.25524">
        <ele>307.5</ele>
        <time>2020-06-26T13:57:19Z</time>
      </trkpt>
      <trkpt lat="49.53581" lon="6.25529">
        <ele>307.7</ele>
        <time>2020-06-26T13:57:20Z</time>
      </trkpt>
      <trkpt lat="49.53582" lon="6.25534">
        <ele>307.8</ele>
        <time>2020-06-26T13:57:21Z</time>
      </trkpt>
      <trkpt lat="49.53583" lon="6.2554">
        <ele>307.9</ele>
        <time>2020-06-26T13:57:22Z</time>
      </trkpt>
      <trkpt lat="49.53584" lon="6.25546">
        <ele>308</ele>
        <time>2020-06-26T13:57:23Z</time>
      </trkpt>
      <trkpt lat="49.53585" lon="6.25553">
        <ele>308.1</ele>
        <time>2020-06-26T13:57:24Z</time>
      </trkpt>
      <trkpt lat="49.53586" lon="6.25559">
        <ele>308.1</ele>
        <time>2020-06-26T13:57:25Z</time>
      </trkpt>
      <trkpt lat="49.53587" lon="6.25566">
        <ele>308.2</ele>
        <time>2020-06-26T13:57:26Z</time>
      </trkpt>
      <trkpt lat="49.53588" lon="6.25574">
        <ele>308.3</ele>
        <time>2020-06-26T13:57:27Z</time>
      </trkpt>
      <trkpt lat="49.53589" lon="6.25581">
        <ele>308.3</ele>
        <time>2020-06-26T13:57:28Z</time>
      </trkpt>
      <trkpt lat="49.5359" lon="6.25588">
        <ele>308.4</ele>
        <time>2020-06-26T13:57:29Z</time>
      </trkpt>
      <trkpt lat="49.5359" lon="6.25595">
        <ele>308.4</ele>
        <time>2020-06-26T13:57:30Z</time>
      </trkpt>
      <trkpt lat="49.53591" lon="6.25603">
        <ele>308.4</ele>
        <time>2020-06-26T13:57:31Z</time>
      </trkpt>
      <trkpt lat="49.53591" lon="6.2561">
        <ele>308.5</ele>
        <time>2020-06-26T13:57:32Z</time>
      </trkpt>
      <trkpt lat="49.5359" lon="6.25617">
        <ele>308.5</ele>
        <time>2020-06-26T13:57:33Z</time>
      </trkpt>
      <trkpt lat="49.5359" lon="6.25624">
        <ele>308.5</ele>
        <time>2020-06-26T13:57:34Z</time>
      </trkpt>
      <trkpt lat="49.5359" lon="6.25631">
        <ele>308.5</ele>
        <time>2020-06-26T13:57:35Z</time>
      </trkpt>
      <trkpt lat="49.53589" lon="6.25639">
        <ele>308.5</ele>
        <time>2020-06-26T13:57:36Z</time>
      </trkpt>
      <trkpt lat="49.53588" lon="6.25646">
        <ele>308.6</ele>
        <time>2020-06-26T13:57:37Z</time>
      </trkpt>
      <trkpt lat="49.53587" lon="6.25655">
        <ele>308.6</ele>
        <time>2020-06-26T13:57:38Z</time>
      </trkpt>
      <trkpt lat="49.53586" lon="6.25662">
        <ele>308.7</ele>
        <time>2020-06-26T13:57:39Z</time>
      </trkpt>
      <trkpt lat="49.53584" lon="6.25669">
        <ele>308.8</ele>
        <time>2020-06-26T13:57:40Z</time>
      </trkpt>
      <trkpt lat="49.53583" lon="6.25676">
        <ele>308.8</ele>
        <time>2020-06-26T13:57:41Z</time>
      </trkpt>
      <trkpt lat="49.53581" lon="6.25682">
        <ele>308.9</ele>
        <time>2020-06-26T13:57:42Z</time>
      </trkpt>
      <trkpt lat="49.5358" lon="6.25689">
        <ele>309</ele>
        <time>2020-06-26T13:57:43Z</time>
      </trkpt>
      <trkpt lat="49.53579" lon="6.25696">
        <ele>309.1</ele>
        <time>2020-06-26T13:57:44Z</time>
      </trkpt>
      <trkpt lat="49.53578" lon="6.25704">
        <ele>309.2</ele>
        <time>2020-06-26T13:57:45Z</time>
      </trkpt>
      <trkpt lat="49.53577" lon="6.25711">
        <ele>309.3</ele>
        <time>2020-06-26T13:57:46Z</time>
      </trkpt>
      <trkpt lat="49.53576" lon="6.25718">
        <ele>309.5</ele>
        <time>2020-06-26T13:57:47Z</time>
      </trkpt>
      <trkpt lat="49.53576" lon="6.25725">
        <ele>309.7</ele>
        <time>2020-06-26T13:57:48Z</time>
      </trkpt>
      <trkpt lat="49.53576" lon="6.25731">
        <ele>309.9</ele>
        <time>2020-06-26T13:57:49Z</time>
      </trkpt>
      <trkpt lat="49.53575" lon="6.25737">
        <ele>310.1</ele>
        <time>2020-06-26T13:57:50Z</time>
      </trkpt>
      <trkpt lat="49.53575" lon="6.25744">
        <ele>310.3</ele>
        <time>2020-06-26T13:57:51Z</time>
      </trkpt>
      <trkpt lat="49.53576" lon="6.2575">
        <ele>310.4</ele>
        <time>2020-06-26T13:57:52Z</time>
      </trkpt>
      <trkpt lat="49.53576" lon="6.25756">
        <ele>310.5</ele>
        <time>2020-06-26T13:57:53Z</time>
      </trkpt>
      <trkpt lat="49.53577" lon="6.25763">
        <ele>310.7</ele>
        <time>2020-06-26T13:57:54Z</time>
      </trkpt>
      <trkpt lat="49.53578" lon="6.25769">
        <ele>310.8</ele>
        <time>2020-06-26T13:57:55Z</time>
      </trkpt>
      <trkpt lat="49.5358" lon="6.25773">
        <ele>311</ele>
        <time>2020-06-26T13:57:56Z</time>
      </trkpt>
      <trkpt lat="49.53581" lon="6.25779">
        <ele>311.1</ele>
        <time>2020-06-26T13:57:57Z</time>
      </trkpt>
      <trkpt lat="49.53583" lon="6.25784">
        <ele>311.3</ele>
        <time>2020-06-26T13:57:58Z</time>
      </trkpt>
      <trkpt lat="49.53584" lon="6.2579">
        <ele>311.4</ele>
        <time>2020-06-26T13:57:59Z</time>
      </trkpt>
      <trkpt lat="49.53586" lon="6.25796">
        <ele>311.6</ele>
        <time>2020-06-26T13:58:00Z</time>
      </trkpt>
      <trkpt lat="49.53588" lon="6.25802">
        <ele>311.7</ele>
        <time>2020-06-26T13:58:01Z</time>
      </trkpt>
      <trkpt lat="49.5359" lon="6.25807">
        <ele>311.9</ele>
        <time>2020-06-26T13:58:02Z</time>
      </trkpt>
      <trkpt lat="49.53592" lon="6.25813">
        <ele>312.1</ele>
        <time>2020-06-26T13:58:03Z</time>
      </trkpt>
      <trkpt lat="49.53595" lon="6.25818">
        <ele>312.3</ele>
        <time>2020-06-26T13:58:04Z</time>
      </trkpt>
      <trkpt lat="49.53597" lon="6.25824">
        <ele>312.5</ele>
        <time>2020-06-26T13:58:05Z</time>
      </trkpt>
      <trkpt lat="49.53599" lon="6.2583">
        <ele>312.6</ele>
        <time>2020-06-26T13:58:06Z</time>
      </trkpt>
      <trkpt lat="49.53602" lon="6.25835">
        <ele>312.8</ele>
        <time>2020-06-26T13:58:07Z</time>
      </trkpt>
      <trkpt lat="49.53606" lon="6.2584">
        <ele>313.1</ele>
        <time>2020-06-26T13:58:08Z</time>
      </trkpt>
      <trkpt lat="49.53608" lon="6.25845">
        <ele>313.2</ele>
        <time>2020-06-26T13:58:09Z</time>
      </trkpt>
      <trkpt lat="49.53611" lon="6.2585">
        <ele>313.4</ele>
        <time>2020-06-26T13:58:10Z</time>
      </trkpt>
      <trkpt lat="49.53614" lon="6.25855">
        <ele>313.6</ele>
        <time>2020-06-26T13:58:11Z</time>
      </trkpt>
      <trkpt lat="49.53616" lon="6.2586">
        <ele>313.8</ele>
        <time>2020-06-26T13:58:12Z</time>
      </trkpt>
      <trkpt lat="49.53619" lon="6.25865">
        <ele>313.9</ele>
        <time>2020-06-26T13:58:13Z</time>
      </trkpt>
      <trkpt lat="49.53622" lon="6.25869">
        <ele>314.1</ele>
        <time>2020-06-26T13:58:14Z</time>
      </trkpt>
      <trkpt lat="49.53624" lon="6.25874">
        <ele>314.3</ele>
        <time>2020-06-26T13:58:15Z</time>
      </trkpt>
      <trkpt lat="49.53627" lon="6.25879">
        <ele>314.5</ele>
        <time>2020-06-26T13:58:16Z</time>
      </trkpt>
      <trkpt lat="49.5363" lon="6.25886">
        <ele>314.7</ele>
        <time>2020-06-26T13:58:17Z</time>
      </trkpt>
      <trkpt lat="49.53633" lon="6.25892">
        <ele>314.9</ele>
        <time>2020-06-26T13:58:18Z</time>
      </trkpt>
      <trkpt lat="49.53636" lon="6.25898">
        <ele>315.1</ele>
        <time>2020-06-26T13:58:19Z</time>
      </trkpt>
      <trkpt lat="49.53639" lon="6.25903">
        <ele>315.3</ele>
        <time>2020-06-26T13:58:20Z</time>
      </trkpt>
      <trkpt lat="49.53641" lon="6.25908">
        <ele>315.5</ele>
        <time>2020-06-26T13:58:21Z</time>
      </trkpt>
      <trkpt lat="49.53645" lon="6.25912">
        <ele>315.7</ele>
        <time>2020-06-26T13:58:22Z</time>
      </trkpt>
      <trkpt lat="49.53648" lon="6.25915">
        <ele>315.9</ele>
        <time>2020-06-26T13:58:23Z</time>
      </trkpt>
      <trkpt lat="49.53652" lon="6.25919">
        <ele>316.1</ele>
        <time>2020-06-26T13:58:24Z</time>
      </trkpt>
      <trkpt lat="49.53655" lon="6.25923">
        <ele>316.2</ele>
        <time>2020-06-26T13:58:25Z</time>
      </trkpt>
      <trkpt lat="49.53658" lon="6.25928">
        <ele>316.4</ele>
        <time>2020-06-26T13:58:26Z</time>
      </trkpt>
      <trkpt lat="49.53661" lon="6.25931">
        <ele>316.6</ele>
        <time>2020-06-26T13:58:27Z</time>
      </trkpt>
      <trkpt lat="49.53664" lon="6.25935">
        <ele>316.7</ele>
        <time>2020-06-26T13:58:28Z</time>
      </trkpt>
      <trkpt lat="49.53667" lon="6.25938">
        <ele>316.8</ele>
        <time>2020-06-26T13:58:29Z</time>
      </trkpt>
      <trkpt lat="49.53671" lon="6.25941">
        <ele>317</ele>
        <time>2020-06-26T13:58:30Z</time>
      </trkpt>
      <trkpt lat="49.53674" lon="6.25944">
        <ele>317.2</ele>
        <time>2020-06-26T13:58:31Z</time>
      </trkpt>
      <trkpt lat="49.53678" lon="6.25947">
        <ele>317.3</ele>
        <time>2020-06-26T13:58:32Z</time>
      </trkpt>
      <trkpt lat="49.53682" lon="6.2595">
        <ele>317.5</ele>
        <time>2020-06-26T13:58:33Z</time>
      </trkpt>
      <trkpt lat="49.53686" lon="6.25952">
        <ele>317.6</ele>
        <time>2020-06-26T13:58:34Z</time>
      </trkpt>
      <trkpt lat="49.5369" lon="6.25955">
        <ele>317.7</ele>
        <time>2020-06-26T13:58:35Z</time>
      </trkpt>
      <trkpt lat="49.53694" lon="6.25958">
        <ele>317.9</ele>
        <time>2020-06-26T13:58:36Z</time>
      </trkpt>
      <trkpt lat="49.53698" lon="6.25961">
        <ele>318</ele>
        <time>2020-06-26T13:58:37Z</time>
      </trkpt>
      <trkpt lat="49.53703" lon="6.25964">
        <ele>318.2</ele>
        <time>2020-06-26T13:58:38Z</time>
      </trkpt>
      <trkpt lat="49.53707" lon="6.25968">
        <ele>318.3</ele>
        <time>2020-06-26T13:58:39Z</time>
      </trkpt>
      <trkpt lat="49.53712" lon="6.25971">
        <ele>318.5</ele>
        <time>2020-06-26T13:58:40Z</time>
      </trkpt>
      <trkpt lat="49.53716" lon="6.25974">
        <ele>318.6</ele>
        <time>2020-06-26T13:58:41Z</time>
      </trkpt>
      <trkpt lat="49.5372" lon="6.25978">
        <ele>318.8</ele>
        <time>2020-06-26T13:58:42Z</time>
      </trkpt>
      <trkpt lat="49.53724" lon="6.25981">
        <ele>318.9</ele>
        <time>2020-06-26T13:58:43Z</time>
      </trkpt>
      <trkpt lat="49.53728" lon="6.25982">
        <ele>319</ele>
        <time>2020-06-26T13:58:44Z</time>
      </trkpt>
      <trkpt lat="49.53732" lon="6.25985">
        <ele>319.1</ele>
        <time>2020-06-26T13:58:45Z</time>
      </trkpt>
      <trkpt lat="49.53735" lon="6.25988">
        <ele>319.3</ele>
        <time>2020-06-26T13:58:46Z</time>
      </trkpt>
      <trkpt lat="49.53738" lon="6.25991">
        <ele>319.4</ele>
        <time>2020-06-26T13:58:47Z</time>
      </trkpt>
      <trkpt lat="49.53742" lon="6.25994">
        <ele>319.5</ele>
        <time>2020-06-26T13:58:48Z</time>
      </trkpt>
      <trkpt lat="49.53746" lon="6.25997">
        <ele>319.7</ele>
        <time>2020-06-26T13:58:49Z</time>
      </trkpt>
      <trkpt lat="49.5375" lon="6.26">
        <ele>319.8</ele>
        <time>2020-06-26T13:58:50Z</time>
      </trkpt>
      <trkpt lat="49.53753" lon="6.26003">
        <ele>319.9</ele>
        <time>2020-06-26T13:58:51Z</time>
      </trkpt>
      <trkpt lat="49.53757" lon="6.26007">
        <ele>320</ele>
        <time>2020-06-26T13:58:52Z</time>
      </trkpt>
      <trkpt lat="49.53761" lon="6.2601">
        <ele>320.1</ele>
        <time>2020-06-26T13:58:53Z</time>
      </trkpt>
      <trkpt lat="49.53764" lon="6.26012">
        <ele>320.2</ele>
        <time>2020-06-26T13:58:54Z</time>
      </trkpt>
      <trkpt lat="49.53768" lon="6.26014">
        <ele>320.3</ele>
        <time>2020-06-26T13:58:55Z</time>
      </trkpt>
      <trkpt lat="49.53772" lon="6.26017">
        <ele>320.5</ele>
        <time>2020-06-26T13:58:56Z</time>
      </trkpt>
      <trkpt lat="49.53776" lon="6.26021">
        <ele>320.6</ele>
        <time>2020-06-26T13:58:57Z</time>
      </trkpt>
      <trkpt lat="49.5378" lon="6.26025">
        <ele>320.8</ele>
        <time>2020-06-26T13:58:58Z</time>
      </trkpt>
      <trkpt lat="49.53784" lon="6.26028">
        <ele>320.9</ele>
        <time>2020-06-26T13:58:59Z</time>
      </trkpt>
      <trkpt lat="49.53788" lon="6.2603">
        <ele>321</ele>
        <time>2020-06-26T13:59:00Z</time>
      </trkpt>
      <trkpt lat="49.53792" lon="6.26033">
        <ele>321.1</ele>
        <time>2020-06-26T13:59:01Z</time>
      </trkpt>
      <trkpt lat="49.53796" lon="6.26036">
        <ele>321.2</ele>
        <time>2020-06-26T13:59:02Z</time>
      </trkpt>
      <trkpt lat="49.538" lon="6.26039">
        <ele>321.4</ele>
        <time>2020-06-26T13:59:03Z</time>
      </trkpt>
      <trkpt lat="49.53803" lon="6.26042">
        <ele>321.5</ele>
        <time>2020-06-26T13:59:04Z</time>
      </trkpt>
      <trkpt lat="49.53807" lon="6.26045">
        <ele>321.6</ele>
        <time>2020-06-26T13:59:05Z</time>
      </trkpt>
      <trkpt lat="49.5381" lon="6.26048">
        <ele>321.7</ele>
        <time>2020-06-26T13:59:06Z</time>
      </trkpt>
      <trkpt lat="49.53814" lon="6.2605">
        <ele>321.9</ele>
        <time>2020-06-26T13:59:07Z</time>
      </trkpt>
      <trkpt lat="49.53817" lon="6.26052">
        <ele>322</ele>
        <time>2020-06-26T13:59:08Z</time>
      </trkpt>
      <trkpt lat="49.53821" lon="6.26055">
        <ele>322.1</ele>
        <time>2020-06-26T13:59:09Z</time>
      </trkpt>
      <trkpt lat="49.53825" lon="6.26059">
        <ele>322.2</ele>
        <time>2020-06-26T13:59:10Z</time>
      </trkpt>
      <trkpt lat="49.53829" lon="6.26063">
        <ele>322.4</ele>
        <time>2020-06-26T13:59:11Z</time>
      </trkpt>
      <trkpt lat="49.53832" lon="6.26066">
        <ele>322.5</ele>
        <time>2020-06-26T13:59:12Z</time>
      </trkpt>
      <trkpt lat="49.53836" lon="6.2607">
        <ele>322.6</ele>
        <time>2020-06-26T13:59:13Z</time>
      </trkpt>
      <trkpt lat="49.5384" lon="6.26074">
        <ele>322.8</ele>
        <time>2020-06-26T13:59:14Z</time>
      </trkpt>
      <trkpt lat="49.53843" lon="6.26078">
        <ele>322.9</ele>
        <time>2020-06-26T13:59:15Z</time>
      </trkpt>
      <trkpt lat="49.53846" lon="6.26082">
        <ele>323</ele>
        <time>2020-06-26T13:59:16Z</time>
      </trkpt>
      <trkpt lat="49.5385" lon="6.26086">
        <ele>323.2</ele>
        <time>2020-06-26T13:59:17Z</time>
      </trkpt>
      <trkpt lat="49.53852" lon="6.2609">
        <ele>323.3</ele>
        <time>2020-06-26T13:59:18Z</time>
      </trkpt>
      <trkpt lat="49.53855" lon="6.26095">
        <ele>323.4</ele>
        <time>2020-06-26T13:59:19Z</time>
      </trkpt>
      <trkpt lat="49.53858" lon="6.26101">
        <ele>323.6</ele>
        <time>2020-06-26T13:59:20Z</time>
      </trkpt>
      <trkpt lat="49.53861" lon="6.26105">
        <ele>323.7</ele>
        <time>2020-06-26T13:59:21Z</time>
      </trkpt>
      <trkpt lat="49.53864" lon="6.26111">
        <ele>323.9</ele>
        <time>2020-06-26T13:59:22Z</time>
      </trkpt>
      <trkpt lat="49.53866" lon="6.26117">
        <ele>324</ele>
        <time>2020-06-26T13:59:23Z</time>
      </trkpt>
      <trkpt lat="49.53869" lon="6.26122">
        <ele>324.2</ele>
        <time>2020-06-26T13:59:24Z</time>
      </trkpt>
      <trkpt lat="49.53872" lon="6.26128">
        <ele>324.3</ele>
        <time>2020-06-26T13:59:25Z</time>
      </trkpt>
      <trkpt lat="49.53876" lon="6.26133">
        <ele>324.5</ele>
        <time>2020-06-26T13:59:26Z</time>
      </trkpt>
      <trkpt lat="49.53879" lon="6.26138">
        <ele>324.7</ele>
        <time>2020-06-26T13:59:27Z</time>
      </trkpt>
      <trkpt lat="49.53882" lon="6.26143">
        <ele>324.9</ele>
        <time>2020-06-26T13:59:28Z</time>
      </trkpt>
      <trkpt lat="49.53885" lon="6.26149">
        <ele>325</ele>
        <time>2020-06-26T13:59:29Z</time>
      </trkpt>
      <trkpt lat="49.53888" lon="6.26154">
        <ele>325.2</ele>
        <time>2020-06-26T13:59:30Z</time>
      </trkpt>
      <trkpt lat="49.53891" lon="6.26158">
        <ele>325.3</ele>
        <time>2020-06-26T13:59:31Z</time>
      </trkpt>
      <trkpt lat="49.53893" lon="6.26162">
        <ele>325.4</ele>
        <time>2020-06-26T13:59:32Z</time>
      </trkpt>
      <trkpt lat="49.53896" lon="6.26167">
        <ele>325.5</ele>
        <time>2020-06-26T13:59:33Z</time>
      </trkpt>
      <trkpt lat="49.53898" lon="6.26171">
        <ele>325.7</ele>
        <time>2020-06-26T13:59:34Z</time>
      </trkpt>
      <trkpt lat="49.53901" lon="6.26175">
        <ele>325.8</ele>
        <time>2020-06-26T13:59:35Z</time>
      </trkpt>
      <trkpt lat="49.53903" lon="6.26179">
        <ele>325.8</ele>
        <time>2020-06-26T13:59:36Z</time>
      </trkpt>
      <trkpt lat="49.53905" lon="6.26184">
        <ele>325.9</ele>
        <time>2020-06-26T13:59:37Z</time>
      </trkpt>
      <trkpt lat="49.53907" lon="6.26188">
        <ele>325.9</ele>
        <time>2020-06-26T13:59:38Z</time>
      </trkpt>
      <trkpt lat="49.53909" lon="6.26192">
        <ele>325.8</ele>
        <time>2020-06-26T13:59:39Z</time>
      </trkpt>
      <trkpt lat="49.53909" lon="6.26197">
        <ele>325.8</ele>
        <time>2020-06-26T13:59:40Z</time>
      </trkpt>
      <trkpt lat="49.5391" lon="6.26204">
        <ele>325.8</ele>
        <time>2020-06-26T13:59:41Z</time>
      </trkpt>
      <trkpt lat="49.53909" lon="6.26211">
        <ele>325.9</ele>
        <time>2020-06-26T13:59:42Z</time>
      </trkpt>
      <trkpt lat="49.5391" lon="6.26219">
        <ele>325.9</ele>
        <time>2020-06-26T13:59:43Z</time>
      </trkpt>
      <trkpt lat="49.5391" lon="6.26226">
        <ele>326</ele>
        <time>2020-06-26T13:59:44Z</time>
      </trkpt>
      <trkpt lat="49.5391" lon="6.26232">
        <ele>326</ele>
        <time>2020-06-26T13:59:45Z</time>
      </trkpt>
      <trkpt lat="49.5391" lon="6.26238">
        <ele>326.1</ele>
        <time>2020-06-26T13:59:46Z</time>
      </trkpt>
      <trkpt lat="49.53911" lon="6.26245">
        <ele>326.1</ele>
        <time>2020-06-26T13:59:47Z</time>
      </trkpt>
      <trkpt lat="49.53911" lon="6.26251">
        <ele>326.2</ele>
        <time>2020-06-26T13:59:48Z</time>
      </trkpt>
      <trkpt lat="49.53911" lon="6.26259">
        <ele>326.3</ele>
        <time>2020-06-26T13:59:49Z</time>
      </trkpt>
      <trkpt lat="49.53911" lon="6.26266">
        <ele>326.3</ele>
        <time>2020-06-26T13:59:50Z</time>
      </trkpt>
      <trkpt lat="49.53911" lon="6.26273">
        <ele>326.4</ele>
        <time>2020-06-26T13:59:51Z</time>
      </trkpt>
      <trkpt lat="49.53912" lon="6.26279">
        <ele>326.5</ele>
        <time>2020-06-26T13:59:52Z</time>
      </trkpt>
      <trkpt lat="49.53913" lon="6.26286">
        <ele>326.6</ele>
        <time>2020-06-26T13:59:53Z</time>
      </trkpt>
      <trkpt lat="49.53914" lon="6.26294">
        <ele>326.6</ele>
        <time>2020-06-26T13:59:54Z</time>
      </trkpt>
      <trkpt lat="49.53915" lon="6.26302">
        <ele>326.7</ele>
        <time>2020-06-26T13:59:55Z</time>
      </trkpt>
      <trkpt lat="49.53917" lon="6.2631">
        <ele>326.8</ele>
        <time>2020-06-26T13:59:56Z</time>
      </trkpt>
      <trkpt lat="49.53918" lon="6.26317">
        <ele>326.9</ele>
        <time>2020-06-26T13:59:57Z</time>
      </trkpt>
      <trkpt lat="49.53919" lon="6.26325">
        <ele>327</ele>
        <time>2020-06-26T13:59:58Z</time>
      </trkpt>
      <trkpt lat="49.53921" lon="6.26332">
        <ele>327.1</ele>
        <time>2020-06-26T13:59:59Z</time>
      </trkpt>
      <trkpt lat="49.53923" lon="6.26339">
        <ele>327.2</ele>
        <time>2020-06-26T14:00:00Z</time>
      </trkpt>
      <trkpt lat="49.53925" lon="6.26346">
        <ele>327.3</ele>
        <time>2020-06-26T14:00:01Z</time>
      </trkpt>
      <trkpt lat="49.53926" lon="6.26353">
        <ele>327.4</ele>
        <time>2020-06-26T14:00:02Z</time>
      </trkpt>
      <trkpt lat="49.53927" lon="6.2636">
        <ele>327.5</ele>
        <time>2020-06-26T14:00:03Z</time>
      </trkpt>
      <trkpt lat="49.53929" lon="6.26367">
        <ele>327.6</ele>
        <time>2020-06-26T14:00:04Z</time>
      </trkpt>
      <trkpt lat="49.5393" lon="6.26375">
        <ele>327.7</ele>
        <time>2020-06-26T14:00:05Z</time>
      </trkpt>
      <trkpt lat="49.53932" lon="6.26382">
        <ele>327.8</ele>
        <time>2020-06-26T14:00:06Z</time>
      </trkpt>
      <trkpt lat="49.53934" lon="6.26389">
        <ele>327.9</ele>
        <time>2020-06-26T14:00:07Z</time>
      </trkpt>
      <trkpt lat="49.53936" lon="6.26396">
        <ele>328</ele>
        <time>2020-06-26T14:00:08Z</time>
      </trkpt>
      <trkpt lat="49.53939" lon="6.26403">
        <ele>328.1</ele>
        <time>2020-06-26T14:00:09Z</time>
      </trkpt>
      <trkpt lat="49.53941" lon="6.2641">
        <ele>328.3</ele>
        <time>2020-06-26T14:00:10Z</time>
      </trkpt>
      <trkpt lat="49.53943" lon="6.26416">
        <ele>328.3</ele>
        <time>2020-06-26T14:00:11Z</time>
      </trkpt>
      <trkpt lat="49.53945" lon="6.26421">
        <ele>328.4</ele>
        <time>2020-06-26T14:00:12Z</time>
      </trkpt>
      <trkpt lat="49.53947" lon="6.26427">
        <ele>328.5</ele>
        <time>2020-06-26T14:00:13Z</time>
      </trkpt>
      <trkpt lat="49.53947" lon="6.26432">
        <ele>328.6</ele>
        <time>2020-06-26T14:00:14Z</time>
      </trkpt>
      <trkpt lat="49.53946" lon="6.26437">
        <ele>328.7</ele>
        <time>2020-06-26T14:00:15Z</time>
      </trkpt>
      <trkpt lat="49.53942" lon="6.26438">
        <ele>328.8</ele>
        <time>2020-06-26T14:00:16Z</time>
      </trkpt>
      <trkpt lat="49.53937" lon="6.26441">
        <ele>328.9</ele>
        <time>2020-06-26T14:00:17Z</time>
      </trkpt>
      <trkpt lat="49.53932" lon="6.26445">
        <ele>328.9</ele>
        <time>2020-06-26T14:00:18Z</time>
      </trkpt>
      <trkpt lat="49.53927" lon="6.2645">
        <ele>328.9</ele>
        <time>2020-06-26T14:00:19Z</time>
      </trkpt>
      <trkpt lat="49.53922" lon="6.26454">
        <ele>328.8</ele>
        <time>2020-06-26T14:00:20Z</time>
      </trkpt>
      <trkpt lat="49.53918" lon="6.2646">
        <ele>328.8</ele>
        <time>2020-06-26T14:00:21Z</time>
      </trkpt>
      <trkpt lat="49.53913" lon="6.26465">
        <ele>328.8</ele>
        <time>2020-06-26T14:00:22Z</time>
      </trkpt>
      <trkpt lat="49.53908" lon="6.26471">
        <ele>328.8</ele>
        <time>2020-06-26T14:00:23Z</time>
      </trkpt>
      <trkpt lat="49.53904" lon="6.26477">
        <ele>328.8</ele>
        <time>2020-06-26T14:00:24Z</time>
      </trkpt>
      <trkpt lat="49.53901" lon="6.26484">
        <ele>328.8</ele>
        <time>2020-06-26T14:00:25Z</time>
      </trkpt>
      <trkpt lat="49.53897" lon="6.2649">
        <ele>328.8</ele>
        <time>2020-06-26T14:00:26Z</time>
      </trkpt>
      <trkpt lat="49.53894" lon="6.26498">
        <ele>328.8</ele>
        <time>2020-06-26T14:00:27Z</time>
      </trkpt>
      <trkpt lat="49.53893" lon="6.26507">
        <ele>328.8</ele>
        <time>2020-06-26T14:00:28Z</time>
      </trkpt>
      <trkpt lat="49.53892" lon="6.26516">
        <ele>328.8</ele>
        <time>2020-06-26T14:00:29Z</time>
      </trkpt>
      <trkpt lat="49.53891" lon="6.26524">
        <ele>328.8</ele>
        <time>2020-06-26T14:00:30Z</time>
      </trkpt>
      <trkpt lat="49.53889" lon="6.26531">
        <ele>328.9</ele>
        <time>2020-06-26T14:00:31Z</time>
      </trkpt>
      <trkpt lat="49.53888" lon="6.26538">
        <ele>328.9</ele>
        <time>2020-06-26T14:00:32Z</time>
      </trkpt>
      <trkpt lat="49.53887" lon="6.26546">
        <ele>329</ele>
        <time>2020-06-26T14:00:33Z</time>
      </trkpt>
      <trkpt lat="49.53886" lon="6.26554">
        <ele>329</ele>
        <time>2020-06-26T14:00:34Z</time>
      </trkpt>
      <trkpt lat="49.53884" lon="6.26562">
        <ele>329.1</ele>
        <time>2020-06-26T14:00:35Z</time>
      </trkpt>
      <trkpt lat="49.53883" lon="6.26569">
        <ele>329.1</ele>
        <time>2020-06-26T14:00:36Z</time>
      </trkpt>
      <trkpt lat="49.53881" lon="6.26577">
        <ele>329.2</ele>
        <time>2020-06-26T14:00:37Z</time>
      </trkpt>
      <trkpt lat="49.53879" lon="6.26585">
        <ele>329.3</ele>
        <time>2020-06-26T14:00:38Z</time>
      </trkpt>
      <trkpt lat="49.53878" lon="6.26593">
        <ele>329.3</ele>
        <time>2020-06-26T14:00:39Z</time>
      </trkpt>
      <trkpt lat="49.53876" lon="6.26601">
        <ele>329.4</ele>
        <time>2020-06-26T14:00:40Z</time>
      </trkpt>
      <trkpt lat="49.53874" lon="6.26609">
        <ele>329.4</ele>
        <time>2020-06-26T14:00:41Z</time>
      </trkpt>
      <trkpt lat="49.53873" lon="6.26617">
        <ele>329.5</ele>
        <time>2020-06-26T14:00:42Z</time>
      </trkpt>
      <trkpt lat="49.53872" lon="6.26624">
        <ele>329.5</ele>
        <time>2020-06-26T14:00:43Z</time>
      </trkpt>
      <trkpt lat="49.53871" lon="6.26632">
        <ele>329.5</ele>
        <time>2020-06-26T14:00:44Z</time>
      </trkpt>
      <trkpt lat="49.5387" lon="6.26639">
        <ele>329.5</ele>
        <time>2020-06-26T14:00:45Z</time>
      </trkpt>
      <trkpt lat="49.53869" lon="6.26647">
        <ele>329.5</ele>
        <time>2020-06-26T14:00:46Z</time>
      </trkpt>
      <trkpt lat="49.53868" lon="6.26655">
        <ele>329.5</ele>
        <time>2020-06-26T14:00:47Z</time>
      </trkpt>
      <trkpt lat="49.53866" lon="6.26663">
        <ele>329.5</ele>
        <time>2020-06-26T14:00:48Z</time>
      </trkpt>
      <trkpt lat="49.53864" lon="6.26671">
        <ele>329.5</ele>
        <time>2020-06-26T14:00:49Z</time>
      </trkpt>
      <trkpt lat="49.53863" lon="6.26679">
        <ele>329.5</ele>
        <time>2020-06-26T14:00:50Z</time>
      </trkpt>
      <trkpt lat="49.53861" lon="6.26687">
        <ele>329.5</ele>
        <time>2020-06-26T14:00:51Z</time>
      </trkpt>
      <trkpt lat="49.5386" lon="6.26696">
        <ele>329.6</ele>
        <time>2020-06-26T14:00:52Z</time>
      </trkpt>
      <trkpt lat="49.53857" lon="6.26704">
        <ele>329.6</ele>
        <time>2020-06-26T14:00:53Z</time>
      </trkpt>
      <trkpt lat="49.53855" lon="6.26712">
        <ele>329.6</ele>
        <time>2020-06-26T14:00:54Z</time>
      </trkpt>
      <trkpt lat="49.53853" lon="6.26719">
        <ele>329.6</ele>
        <time>2020-06-26T14:00:55Z</time>
      </trkpt>
      <trkpt lat="49.53851" lon="6.26727">
        <ele>329.6</ele>
        <time>2020-06-26T14:00:56Z</time>
      </trkpt>
      <trkpt lat="49.53848" lon="6.26736">
        <ele>329.7</ele>
        <time>2020-06-26T14:00:57Z</time>
      </trkpt>
      <trkpt lat="49.53845" lon="6.26744">
        <ele>329.7</ele>
        <time>2020-06-26T14:00:58Z</time>
      </trkpt>
      <trkpt lat="49.53843" lon="6.26752">
        <ele>329.8</ele>
        <time>2020-06-26T14:00:59Z</time>
      </trkpt>
      <trkpt lat="49.53841" lon="6.2676">
        <ele>329.8</ele>
        <time>2020-06-26T14:01:00Z</time>
      </trkpt>
      <trkpt lat="49.53838" lon="6.26768">
        <ele>329.9</ele>
        <time>2020-06-26T14:01:01Z</time>
      </trkpt>
      <trkpt lat="49.53836" lon="6.26776">
        <ele>329.9</ele>
        <time>2020-06-26T14:01:02Z</time>
      </trkpt>
      <trkpt lat="49.53831" lon="6.26784">
        <ele>330</ele>
        <time>2020-06-26T14:01:03Z</time>
      </trkpt>
      <trkpt lat="49.53828" lon="6.26792">
        <ele>330.1</ele>
        <time>2020-06-26T14:01:04Z</time>
      </trkpt>
      <trkpt lat="49.53825" lon="6.268">
        <ele>330.1</ele>
        <time>2020-06-26T14:01:05Z</time>
      </trkpt>
      <trkpt lat="49.53823" lon="6.26808">
        <ele>330.2</ele>
        <time>2020-06-26T14:01:06Z</time>
      </trkpt>
      <trkpt lat="49.5382" lon="6.26817">
        <ele>330.3</ele>
        <time>2020-06-26T14:01:07Z</time>
      </trkpt>
      <trkpt lat="49.53817" lon="6.26825">
        <ele>330.4</ele>
        <time>2020-06-26T14:01:08Z</time>
      </trkpt>
      <trkpt lat="49.53815" lon="6.26833">
        <ele>330.6</ele>
        <time>2020-06-26T14:01:09Z</time>
      </trkpt>
      <trkpt lat="49.53812" lon="6.26842">
        <ele>330.7</ele>
        <time>2020-06-26T14:01:10Z</time>
      </trkpt>
      <trkpt lat="49.5381" lon="6.26851">
        <ele>330.8</ele>
        <time>2020-06-26T14:01:11Z</time>
      </trkpt>
      <trkpt lat="49.53808" lon="6.26859">
        <ele>331</ele>
        <time>2020-06-26T14:01:12Z</time>
      </trkpt>
      <trkpt lat="49.53807" lon="6.26866">
        <ele>331.1</ele>
        <time>2020-06-26T14:01:13Z</time>
      </trkpt>
      <trkpt lat="49.53805" lon="6.26874">
        <ele>331.3</ele>
        <time>2020-06-26T14:01:14Z</time>
      </trkpt>
      <trkpt lat="49.53803" lon="6.26881">
        <ele>331.4</ele>
        <time>2020-06-26T14:01:15Z</time>
      </trkpt>
      <trkpt lat="49.538" lon="6.26889">
        <ele>331.6</ele>
        <time>2020-06-26T14:01:16Z</time>
      </trkpt>
      <trkpt lat="49.53799" lon="6.26896">
        <ele>331.7</ele>
        <time>2020-06-26T14:01:17Z</time>
      </trkpt>
      <trkpt lat="49.53797" lon="6.26901">
        <ele>331.9</ele>
        <time>2020-06-26T14:01:18Z</time>
      </trkpt>
      <trkpt lat="49.53795" lon="6.26908">
        <ele>332</ele>
        <time>2020-06-26T14:01:19Z</time>
      </trkpt>
      <trkpt lat="49.53793" lon="6.26915">
        <ele>332.2</ele>
        <time>2020-06-26T14:01:20Z</time>
      </trkpt>
      <trkpt lat="49.53791" lon="6.26922">
        <ele>332.3</ele>
        <time>2020-06-26T14:01:21Z</time>
      </trkpt>
      <trkpt lat="49.53788" lon="6.26929">
        <ele>332.5</ele>
        <time>2020-06-26T14:01:22Z</time>
      </trkpt>
      <trkpt lat="49.53786" lon="6.26936">
        <ele>332.6</ele>
        <time>2020-06-26T14:01:23Z</time>
      </trkpt>
      <trkpt lat="49.53784" lon="6.26942">
        <ele>332.7</ele>
        <time>2020-06-26T14:01:24Z</time>
      </trkpt>
      <trkpt lat="49.53782" lon="6.26949">
        <ele>332.9</ele>
        <time>2020-06-26T14:01:25Z</time>
      </trkpt>
      <trkpt lat="49.53781" lon="6.26956">
        <ele>333</ele>
        <time>2020-06-26T14:01:26Z</time>
      </trkpt>
      <trkpt lat="49.53779" lon="6.26963">
        <ele>333.1</ele>
        <time>2020-06-26T14:01:27Z</time>
      </trkpt>
      <trkpt lat="49.53777" lon="6.2697">
        <ele>333.2</ele>
        <time>2020-06-26T14:01:28Z</time>
      </trkpt>
      <trkpt lat="49.53776" lon="6.26977">
        <ele>333.3</ele>
        <time>2020-06-26T14:01:29Z</time>
      </trkpt>
      <trkpt lat="49.53774" lon="6.26985">
        <ele>333.5</ele>
        <time>2020-06-26T14:01:30Z</time>
      </trkpt>
      <trkpt lat="49.53772" lon="6.26992">
        <ele>333.6</ele>
        <time>2020-06-26T14:01:31Z</time>
      </trkpt>
      <trkpt lat="49.53771" lon="6.27">
        <ele>333.6</ele>
        <time>2020-06-26T14:01:32Z</time>
      </trkpt>
      <trkpt lat="49.53769" lon="6.27008">
        <ele>333.7</ele>
        <time>2020-06-26T14:01:33Z</time>
      </trkpt>
      <trkpt lat="49.53767" lon="6.27018">
        <ele>333.8</ele>
        <time>2020-06-26T14:01:34Z</time>
      </trkpt>
      <trkpt lat="49.53765" lon="6.27027">
        <ele>333.9</ele>
        <time>2020-06-26T14:01:35Z</time>
      </trkpt>
      <trkpt lat="49.53764" lon="6.27035">
        <ele>334</ele>
        <time>2020-06-26T14:01:36Z</time>
      </trkpt>
      <trkpt lat="49.53761" lon="6.27043">
        <ele>334.1</ele>
        <time>2020-06-26T14:01:37Z</time>
      </trkpt>
      <trkpt lat="49.53759" lon="6.27051">
        <ele>334.2</ele>
        <time>2020-06-26T14:01:38Z</time>
      </trkpt>
      <trkpt lat="49.53757" lon="6.2706">
        <ele>334.3</ele>
        <time>2020-06-26T14:01:39Z</time>
      </trkpt>
      <trkpt lat="49.53755" lon="6.27068">
        <ele>334.4</ele>
        <time>2020-06-26T14:01:40Z</time>
      </trkpt>
      <trkpt lat="49.53753" lon="6.27075">
        <ele>334.5</ele>
        <time>2020-06-26T14:01:41Z</time>
      </trkpt>
      <trkpt lat="49.53751" lon="6.27081">
        <ele>334.6</ele>
        <time>2020-06-26T14:01:42Z</time>
      </trkpt>
      <trkpt lat="49.53749" lon="6.27089">
        <ele>334.7</ele>
        <time>2020-06-26T14:01:43Z</time>
      </trkpt>
      <trkpt lat="49.53747" lon="6.27097">
        <ele>334.9</ele>
        <time>2020-06-26T14:01:44Z</time>
      </trkpt>
      <trkpt lat="49.53745" lon="6.27105">
        <ele>335</ele>
        <time>2020-06-26T14:01:45Z</time>
      </trkpt>
      <trkpt lat="49.53742" lon="6.27112">
        <ele>335.1</ele>
        <time>2020-06-26T14:01:46Z</time>
      </trkpt>
      <trkpt lat="49.5374" lon="6.27119">
        <ele>335.2</ele>
        <time>2020-06-26T14:01:47Z</time>
      </trkpt>
      <trkpt lat="49.53737" lon="6.27127">
        <ele>335.3</ele>
        <time>2020-06-26T14:01:48Z</time>
      </trkpt>
      <trkpt lat="49.53735" lon="6.27133">
        <ele>335.5</ele>
        <time>2020-06-26T14:01:49Z</time>
      </trkpt>
      <trkpt lat="49.53733" lon="6.2714">
        <ele>335.6</ele>
        <time>2020-06-26T14:01:50Z</time>
      </trkpt>
      <trkpt lat="49.5373" lon="6.27147">
        <ele>335.7</ele>
        <time>2020-06-26T14:01:51Z</time>
      </trkpt>
      <trkpt lat="49.53727" lon="6.27154">
        <ele>335.9</ele>
        <time>2020-06-26T14:01:52Z</time>
      </trkpt>
      <trkpt lat="49.53725" lon="6.27161">
        <ele>336</ele>
        <time>2020-06-26T14:01:53Z</time>
      </trkpt>
      <trkpt lat="49.53723" lon="6.27168">
        <ele>336.2</ele>
        <time>2020-06-26T14:01:54Z</time>
      </trkpt>
      <trkpt lat="49.53721" lon="6.27176">
        <ele>336.5</ele>
        <time>2020-06-26T14:01:55Z</time>
      </trkpt>
      <trkpt lat="49.53719" lon="6.27184">
        <ele>336.7</ele>
        <time>2020-06-26T14:01:56Z</time>
      </trkpt>
      <trkpt lat="49.53717" lon="6.27191">
        <ele>336.8</ele>
        <time>2020-06-26T14:01:57Z</time>
      </trkpt>
      <trkpt lat="49.53715" lon="6.27199">
        <ele>336.8</ele>
        <time>2020-06-26T14:01:58Z</time>
      </trkpt>
      <trkpt lat="49.53713" lon="6.27205">
        <ele>336.8</ele>
        <time>2020-06-26T14:01:59Z</time>
      </trkpt>
      <trkpt lat="49.53713" lon="6.27212">
        <ele>336.7</ele>
        <time>2020-06-26T14:02:00Z</time>
      </trkpt>
      <trkpt lat="49.53712" lon="6.2722">
        <ele>336.7</ele>
        <time>2020-06-26T14:02:01Z</time>
      </trkpt>
      <trkpt lat="49.53712" lon="6.27227">
        <ele>336.6</ele>
        <time>2020-06-26T14:02:02Z</time>
      </trkpt>
      <trkpt lat="49.53712" lon="6.27234">
        <ele>336.6</ele>
        <time>2020-06-26T14:02:03Z</time>
      </trkpt>
      <trkpt lat="49.53712" lon="6.27242">
        <ele>336.5</ele>
        <time>2020-06-26T14:02:04Z</time>
      </trkpt>
      <trkpt lat="49.53712" lon="6.2725">
        <ele>336.4</ele>
        <time>2020-06-26T14:02:05Z</time>
      </trkpt>
      <trkpt lat="49.53711" lon="6.27259">
        <ele>336.3</ele>
        <time>2020-06-26T14:02:06Z</time>
      </trkpt>
      <trkpt lat="49.5371" lon="6.27267">
        <ele>336.2</ele>
        <time>2020-06-26T14:02:07Z</time>
      </trkpt>
      <trkpt lat="49.53709" lon="6.27275">
        <ele>336</ele>
        <time>2020-06-26T14:02:08Z</time>
      </trkpt>
      <trkpt lat="49.53709" lon="6.27283">
        <ele>335.9</ele>
        <time>2020-06-26T14:02:09Z</time>
      </trkpt>
      <trkpt lat="49.53709" lon="6.27291">
        <ele>335.8</ele>
        <time>2020-06-26T14:02:10Z</time>
      </trkpt>
      <trkpt lat="49.53708" lon="6.27299">
        <ele>335.6</ele>
        <time>2020-06-26T14:02:11Z</time>
      </trkpt>
      <trkpt lat="49.53708" lon="6.27308">
        <ele>335.4</ele>
        <time>2020-06-26T14:02:12Z</time>
      </trkpt>
      <trkpt lat="49.53709" lon="6.27318">
        <ele>335.2</ele>
        <time>2020-06-26T14:02:13Z</time>
      </trkpt>
      <trkpt lat="49.53709" lon="6.27328">
        <ele>335</ele>
        <time>2020-06-26T14:02:14Z</time>
      </trkpt>
      <trkpt lat="49.53708" lon="6.27338">
        <ele>334.7</ele>
        <time>2020-06-26T14:02:15Z</time>
      </trkpt>
      <trkpt lat="49.53708" lon="6.27348">
        <ele>334.4</ele>
        <time>2020-06-26T14:02:16Z</time>
      </trkpt>
      <trkpt lat="49.53707" lon="6.27359">
        <ele>334.1</ele>
        <time>2020-06-26T14:02:17Z</time>
      </trkpt>
      <trkpt lat="49.53706" lon="6.27369">
        <ele>333.8</ele>
        <time>2020-06-26T14:02:18Z</time>
      </trkpt>
      <trkpt lat="49.53705" lon="6.27379">
        <ele>333.5</ele>
        <time>2020-06-26T14:02:19Z</time>
      </trkpt>
      <trkpt lat="49.53705" lon="6.2739">
        <ele>333.1</ele>
        <time>2020-06-26T14:02:20Z</time>
      </trkpt>
      <trkpt lat="49.53705" lon="6.27403">
        <ele>332.7</ele>
        <time>2020-06-26T14:02:21Z</time>
      </trkpt>
      <trkpt lat="49.53704" lon="6.27417">
        <ele>332.4</ele>
        <time>2020-06-26T14:02:22Z</time>
      </trkpt>
      <trkpt lat="49.53703" lon="6.27432">
        <ele>332</ele>
        <time>2020-06-26T14:02:23Z</time>
      </trkpt>
      <trkpt lat="49.53702" lon="6.27445">
        <ele>331.8</ele>
        <time>2020-06-26T14:02:24Z</time>
      </trkpt>
      <trkpt lat="49.53702" lon="6.27457">
        <ele>331.6</ele>
        <time>2020-06-26T14:02:25Z</time>
      </trkpt>
      <trkpt lat="49.53702" lon="6.27467">
        <ele>331.4</ele>
        <time>2020-06-26T14:02:26Z</time>
      </trkpt>
      <trkpt lat="49.53702" lon="6.27479">
        <ele>331.2</ele>
        <time>2020-06-26T14:02:27Z</time>
      </trkpt>
      <trkpt lat="49.53702" lon="6.27492">
        <ele>331.1</ele>
        <time>2020-06-26T14:02:28Z</time>
      </trkpt>
      <trkpt lat="49.53702" lon="6.27505">
        <ele>330.9</ele>
        <time>2020-06-26T14:02:29Z</time>
      </trkpt>
      <trkpt lat="49.53702" lon="6.27517">
        <ele>330.7</ele>
        <time>2020-06-26T14:02:30Z</time>
      </trkpt>
      <trkpt lat="49.53703" lon="6.27529">
        <ele>330.6</ele>
        <time>2020-06-26T14:02:31Z</time>
      </trkpt>
      <trkpt lat="49.53704" lon="6.27541">
        <ele>330.3</ele>
        <time>2020-06-26T14:02:32Z</time>
      </trkpt>
      <trkpt lat="49.53705" lon="6.27552">
        <ele>329.9</ele>
        <time>2020-06-26T14:02:33Z</time>
      </trkpt>
      <trkpt lat="49.53705" lon="6.27562">
        <ele>329.4</ele>
        <time>2020-06-26T14:02:34Z</time>
      </trkpt>
      <trkpt lat="49.53704" lon="6.27573">
        <ele>328.8</ele>
        <time>2020-06-26T14:02:35Z</time>
      </trkpt>
      <trkpt lat="49.53704" lon="6.27583">
        <ele>328</ele>
        <time>2020-06-26T14:02:36Z</time>
      </trkpt>
      <trkpt lat="49.53702" lon="6.27595">
        <ele>327.1</ele>
        <time>2020-06-26T14:02:37Z</time>
      </trkpt>
      <trkpt lat="49.53699" lon="6.27607">
        <ele>326.1</ele>
        <time>2020-06-26T14:02:38Z</time>
      </trkpt>
      <trkpt lat="49.53695" lon="6.27617">
        <ele>325.1</ele>
        <time>2020-06-26T14:02:39Z</time>
      </trkpt>
      <trkpt lat="49.53689" lon="6.27626">
        <ele>324</ele>
        <time>2020-06-26T14:02:40Z</time>
      </trkpt>
      <trkpt lat="49.53681" lon="6.27636">
        <ele>322.7</ele>
        <time>2020-06-26T14:02:41Z</time>
      </trkpt>
      <trkpt lat="49.53672" lon="6.27639">
        <ele>321.5</ele>
        <time>2020-06-26T14:02:42Z</time>
      </trkpt>
      <trkpt lat="49.53664" lon="6.27643">
        <ele>320.5</ele>
        <time>2020-06-26T14:02:43Z</time>
      </trkpt>
      <trkpt lat="49.53655" lon="6.27644">
        <ele>319.5</ele>
        <time>2020-06-26T14:02:44Z</time>
      </trkpt>
      <trkpt lat="49.53646" lon="6.27645">
        <ele>318.5</ele>
        <time>2020-06-26T14:02:45Z</time>
      </trkpt>
      <trkpt lat="49.53637" lon="6.27646">
        <ele>317.5</ele>
        <time>2020-06-26T14:02:46Z</time>
      </trkpt>
      <trkpt lat="49.53627" lon="6.27647">
        <ele>316.3</ele>
        <time>2020-06-26T14:02:47Z</time>
      </trkpt>
      <trkpt lat="49.53617" lon="6.27651">
        <ele>315</ele>
        <time>2020-06-26T14:02:48Z</time>
      </trkpt>
      <trkpt lat="49.53607" lon="6.27654">
        <ele>313.7</ele>
        <time>2020-06-26T14:02:49Z</time>
      </trkpt>
      <trkpt lat="49.53597" lon="6.27658">
        <ele>312.2</ele>
        <time>2020-06-26T14:02:50Z</time>
      </trkpt>
      <trkpt lat="49.53587" lon="6.27663">
        <ele>310.6</ele>
        <time>2020-06-26T14:02:51Z</time>
      </trkpt>
      <trkpt lat="49.53577" lon="6.27669">
        <ele>309</ele>
        <time>2020-06-26T14:02:52Z</time>
      </trkpt>
      <trkpt lat="49.53568" lon="6.27675">
        <ele>307.5</ele>
        <time>2020-06-26T14:02:53Z</time>
      </trkpt>
      <trkpt lat="49.5356" lon="6.27686">
        <ele>306</ele>
        <time>2020-06-26T14:02:54Z</time>
      </trkpt>
      <trkpt lat="49.53554" lon="6.27702">
        <ele>304.4</ele>
        <time>2020-06-26T14:02:55Z</time>
      </trkpt>
      <trkpt lat="49.53547" lon="6.27719">
        <ele>302.8</ele>
        <time>2020-06-26T14:02:56Z</time>
      </trkpt>
      <trkpt lat="49.53541" lon="6.27736">
        <ele>301.2</ele>
        <time>2020-06-26T14:02:57Z</time>
      </trkpt>
      <trkpt lat="49.53534" lon="6.27753">
        <ele>299.7</ele>
        <time>2020-06-26T14:02:58Z</time>
      </trkpt>
      <trkpt lat="49.53526" lon="6.2777">
        <ele>298.3</ele>
        <time>2020-06-26T14:02:59Z</time>
      </trkpt>
      <trkpt lat="49.53518" lon="6.27787">
        <ele>297</ele>
        <time>2020-06-26T14:03:00Z</time>
      </trkpt>
      <trkpt lat="49.53509" lon="6.27803">
        <ele>295.9</ele>
        <time>2020-06-26T14:03:01Z</time>
      </trkpt>
      <trkpt lat="49.53501" lon="6.2782">
        <ele>294.7</ele>
        <time>2020-06-26T14:03:02Z</time>
      </trkpt>
      <trkpt lat="49.53494" lon="6.27835">
        <ele>293.7</ele>
        <time>2020-06-26T14:03:03Z</time>
      </trkpt>
      <trkpt lat="49.53486" lon="6.2785">
        <ele>292.8</ele>
        <time>2020-06-26T14:03:04Z</time>
      </trkpt>
      <trkpt lat="49.53479" lon="6.27863">
        <ele>292.1</ele>
        <time>2020-06-26T14:03:05Z</time>
      </trkpt>
      <trkpt lat="49.53474" lon="6.27876">
        <ele>291.5</ele>
        <time>2020-06-26T14:03:06Z</time>
      </trkpt>
      <trkpt lat="49.53469" lon="6.27888">
        <ele>290.9</ele>
        <time>2020-06-26T14:03:07Z</time>
      </trkpt>
      <trkpt lat="49.53465" lon="6.279">
        <ele>290.4</ele>
        <time>2020-06-26T14:03:08Z</time>
      </trkpt>
      <trkpt lat="49.53463" lon="6.2791">
        <ele>290</ele>
        <time>2020-06-26T14:03:09Z</time>
      </trkpt>
      <trkpt lat="49.53462" lon="6.27919">
        <ele>289.7</ele>
        <time>2020-06-26T14:03:10Z</time>
      </trkpt>
      <trkpt lat="49.53462" lon="6.27926">
        <ele>289.4</ele>
        <time>2020-06-26T14:03:11Z</time>
      </trkpt>
      <trkpt lat="49.53462" lon="6.27932">
        <ele>289.1</ele>
        <time>2020-06-26T14:03:12Z</time>
      </trkpt>
      <trkpt lat="49.53462" lon="6.27937">
        <ele>288.9</ele>
        <time>2020-06-26T14:03:13Z</time>
      </trkpt>
      <trkpt lat="49.53461" lon="6.27942">
        <ele>288.7</ele>
        <time>2020-06-26T14:03:14Z</time>
      </trkpt>
      <trkpt lat="49.53461" lon="6.27943">
        <ele>288.6</ele>
        <time>2020-06-26T14:03:15Z</time>
      </trkpt>
      <trkpt lat="49.53461" lon="6.27946">
        <ele>288.5</ele>
        <time>2020-06-26T14:03:16Z</time>
      </trkpt>
      <trkpt lat="49.53461" lon="6.27947">
        <ele>288.4</ele>
        <time>2020-06-26T14:03:17Z</time>
      </trkpt>
      <trkpt lat="49.53461" lon="6.27948">
        <ele>288.4</ele>
        <time>2020-06-26T14:03:18Z</time>
      </trkpt>
      <trkpt lat="49.5346" lon="6.27948">
        <ele>288.4</ele>
        <time>2020-06-26T14:03:19Z</time>
      </trkpt>
      <trkpt lat="49.5346" lon="6.27948">
        <ele>288.3</ele>
        <time>2020-06-26T14:03:20Z</time>
      </trkpt>
      <trkpt lat="49.53459" lon="6.27948">
        <ele>288.3</ele>
        <time>2020-06-26T14:03:21Z</time>
      </trkpt>
      <trkpt lat="49.53459" lon="6.27948">
        <ele>287.6</ele>
        <time>2020-06-26T14:03:22Z</time>
      </trkpt>
      <trkpt lat="49.53459" lon="6.27948">
        <ele>288.3</ele>
        <time>2020-06-26T14:03:23Z</time>
      </trkpt>
      <trkpt lat="49.53459" lon="6.27948">
        <ele>288.3</ele>
        <time>2020-06-26T14:03:24Z</time>
      </trkpt>
      <trkpt lat="49.53459" lon="6.27948">
        <ele>287.7</ele>
        <time>2020-06-26T14:03:25Z</time>
      </trkpt>
      <trkpt lat="49.53458" lon="6.27948">
        <ele>287.6</ele>
        <time>2020-06-26T14:03:26Z</time>
      </trkpt>
      <trkpt lat="49.53458" lon="6.27948">
        <ele>287.6</ele>
        <time>2020-06-26T14:03:27Z</time>
      </trkpt>
      <trkpt lat="49.53458" lon="6.27949">
        <ele>287.6</ele>
        <time>2020-06-26T14:03:28Z</time>
      </trkpt>
      <trkpt lat="49.53458" lon="6.27949">
        <ele>287.5</ele>
        <time>2020-06-26T14:03:29Z</time>
      </trkpt>
      <trkpt lat="49.53458" lon="6.27949">
        <ele>287.5</ele>
        <time>2020-06-26T14:03:30Z</time>
      </trkpt>
      <trkpt lat="49.53458" lon="6.27949">
        <ele>287.5</ele>
        <time>2020-06-26T14:03:31Z</time>
      </trkpt>
      <trkpt lat="49.53458" lon="6.27949">
        <ele>287.5</ele>
        <time>2020-06-26T14:03:32Z</time>
      </trkpt>
      <trkpt lat="49.53458" lon="6.27949">
        <ele>287.5</ele>
        <time>2020-06-26T14:03:33Z</time>
      </trkpt>
      <trkpt lat="49.53459" lon="6.2795">
        <ele>287.5</ele>
        <time>2020-06-26T14:03:34Z</time>
      </trkpt>
      <trkpt lat="49.53459" lon="6.2795">
        <ele>287.4</ele>
        <time>2020-06-26T14:03:35Z</time>
      </trkpt>
      <trkpt lat="49.53458" lon="6.27951">
        <ele>287.3</ele>
        <time>2020-06-26T14:03:36Z</time>
      </trkpt>
      <trkpt lat="49.53456" lon="6.27953">
        <ele>287.1</ele>
        <time>2020-06-26T14:03:37Z</time>
      </trkpt>
      <trkpt lat="49.53453" lon="6.27955">
        <ele>286.8</ele>
        <time>2020-06-26T14:03:38Z</time>
      </trkpt>
      <trkpt lat="49.53449" lon="6.27959">
        <ele>286.3</ele>
        <time>2020-06-26T14:03:39Z</time>
      </trkpt>
      <trkpt lat="49.53445" lon="6.27962">
        <ele>285.8</ele>
        <time>2020-06-26T14:03:40Z</time>
      </trkpt>
      <trkpt lat="49.5344" lon="6.27966">
        <ele>285.3</ele>
        <time>2020-06-26T14:03:41Z</time>
      </trkpt>
      <trkpt lat="49.53435" lon="6.2797">
        <ele>284.8</ele>
        <time>2020-06-26T14:03:42Z</time>
      </trkpt>
      <trkpt lat="49.53429" lon="6.27973">
        <ele>284.2</ele>
        <time>2020-06-26T14:03:43Z</time>
      </trkpt>
      <trkpt lat="49.53424" lon="6.27978">
        <ele>283.6</ele>
        <time>2020-06-26T14:03:44Z</time>
      </trkpt>
      <trkpt lat="49.5342" lon="6.27987">
        <ele>283</ele>
        <time>2020-06-26T14:03:45Z</time>
      </trkpt>
      <trkpt lat="49.53415" lon="6.27997">
        <ele>282.3</ele>
        <time>2020-06-26T14:03:46Z</time>
      </trkpt>
      <trkpt lat="49.5341" lon="6.28007">
        <ele>281.6</ele>
        <time>2020-06-26T14:03:47Z</time>
      </trkpt>
      <trkpt lat="49.53405" lon="6.28018">
        <ele>281</ele>
        <time>2020-06-26T14:03:48Z</time>
      </trkpt>
      <trkpt lat="49.53399" lon="6.28028">
        <ele>280.4</ele>
        <time>2020-06-26T14:03:49Z</time>
      </trkpt>
      <trkpt lat="49.53394" lon="6.28039">
        <ele>279.9</ele>
        <time>2020-06-26T14:03:50Z</time>
      </trkpt>
      <trkpt lat="49.53388" lon="6.2805">
        <ele>279.5</ele>
        <time>2020-06-26T14:03:51Z</time>
      </trkpt>
      <trkpt lat="49.53383" lon="6.28061">
        <ele>279.1</ele>
        <time>2020-06-26T14:03:52Z</time>
      </trkpt>
      <trkpt lat="49.53378" lon="6.28072">
        <ele>278.8</ele>
        <time>2020-06-26T14:03:53Z</time>
      </trkpt>
      <trkpt lat="49.53373" lon="6.28082">
        <ele>278.5</ele>
        <time>2020-06-26T14:03:54Z</time>
      </trkpt>
      <trkpt lat="49.53368" lon="6.28093">
        <ele>278.2</ele>
        <time>2020-06-26T14:03:55Z</time>
      </trkpt>
      <trkpt lat="49.53363" lon="6.28103">
        <ele>277.9</ele>
        <time>2020-06-26T14:03:56Z</time>
      </trkpt>
      <trkpt lat="49.53358" lon="6.28113">
        <ele>277.6</ele>
        <time>2020-06-26T14:03:57Z</time>
      </trkpt>
      <trkpt lat="49.53353" lon="6.28123">
        <ele>277.3</ele>
        <time>2020-06-26T14:03:58Z</time>
      </trkpt>
      <trkpt lat="49.53349" lon="6.28133">
        <ele>277.1</ele>
        <time>2020-06-26T14:03:59Z</time>
      </trkpt>
      <trkpt lat="49.53344" lon="6.28143">
        <ele>276.8</ele>
        <time>2020-06-26T14:04:00Z</time>
      </trkpt>
      <trkpt lat="49.53339" lon="6.28152">
        <ele>276.6</ele>
        <time>2020-06-26T14:04:01Z</time>
      </trkpt>
      <trkpt lat="49.53335" lon="6.28161">
        <ele>276.5</ele>
        <time>2020-06-26T14:04:02Z</time>
      </trkpt>
      <trkpt lat="49.5333" lon="6.2817">
        <ele>276.3</ele>
        <time>2020-06-26T14:04:03Z</time>
      </trkpt>
      <trkpt lat="49.53326" lon="6.28179">
        <ele>276.2</ele>
        <time>2020-06-26T14:04:04Z</time>
      </trkpt>
      <trkpt lat="49.53321" lon="6.28187">
        <ele>276.1</ele>
        <time>2020-06-26T14:04:05Z</time>
      </trkpt>
      <trkpt lat="49.53316" lon="6.28195">
        <ele>276.1</ele>
        <time>2020-06-26T14:04:06Z</time>
      </trkpt>
      <trkpt lat="49.5331" lon="6.28202">
        <ele>276</ele>
        <time>2020-06-26T14:04:07Z</time>
      </trkpt>
      <trkpt lat="49.53305" lon="6.28209">
        <ele>275.9</ele>
        <time>2020-06-26T14:04:08Z</time>
      </trkpt>
      <trkpt lat="49.53299" lon="6.28215">
        <ele>275.8</ele>
        <time>2020-06-26T14:04:09Z</time>
      </trkpt>
      <trkpt lat="49.53293" lon="6.28221">
        <ele>275.8</ele>
        <time>2020-06-26T14:04:10Z</time>
      </trkpt>
      <trkpt lat="49.53287" lon="6.28225">
        <ele>275.8</ele>
        <time>2020-06-26T14:04:11Z</time>
      </trkpt>
      <trkpt lat="49.53281" lon="6.28228">
        <ele>275.9</ele>
        <time>2020-06-26T14:04:12Z</time>
      </trkpt>
      <trkpt lat="49.53275" lon="6.28231">
        <ele>276</ele>
        <time>2020-06-26T14:04:13Z</time>
      </trkpt>
      <trkpt lat="49.53269" lon="6.28233">
        <ele>276.1</ele>
        <time>2020-06-26T14:04:14Z</time>
      </trkpt>
      <trkpt lat="49.53263" lon="6.28234">
        <ele>276.2</ele>
        <time>2020-06-26T14:04:15Z</time>
      </trkpt>
      <trkpt lat="49.53258" lon="6.28235">
        <ele>276.3</ele>
        <time>2020-06-26T14:04:16Z</time>
      </trkpt>
      <trkpt lat="49.53252" lon="6.28236">
        <ele>276.4</ele>
        <time>2020-06-26T14:04:17Z</time>
      </trkpt>
      <trkpt lat="49.53247" lon="6.28236">
        <ele>276.5</ele>
        <time>2020-06-26T14:04:18Z</time>
      </trkpt>
      <trkpt lat="49.53243" lon="6.28235">
        <ele>276.6</ele>
        <time>2020-06-26T14:04:19Z</time>
      </trkpt>
      <trkpt lat="49.53238" lon="6.28234">
        <ele>276.7</ele>
        <time>2020-06-26T14:04:20Z</time>
      </trkpt>
      <trkpt lat="49.53234" lon="6.28233">
        <ele>276.8</ele>
        <time>2020-06-26T14:04:21Z</time>
      </trkpt>
      <trkpt lat="49.53231" lon="6.28231">
        <ele>277</ele>
        <time>2020-06-26T14:04:22Z</time>
      </trkpt>
      <trkpt lat="49.53227" lon="6.2823">
        <ele>277</ele>
        <time>2020-06-26T14:04:23Z</time>
      </trkpt>
      <trkpt lat="49.53224" lon="6.28229">
        <ele>277.1</ele>
        <time>2020-06-26T14:04:24Z</time>
      </trkpt>
      <trkpt lat="49.53221" lon="6.28227">
        <ele>277.2</ele>
        <time>2020-06-26T14:04:25Z</time>
      </trkpt>
      <trkpt lat="49.53218" lon="6.28226">
        <ele>277.3</ele>
        <time>2020-06-26T14:04:26Z</time>
      </trkpt>
      <trkpt lat="49.53214" lon="6.28225">
        <ele>277.4</ele>
        <time>2020-06-26T14:04:27Z</time>
      </trkpt>
      <trkpt lat="49.53213" lon="6.28225">
        <ele>277.4</ele>
        <time>2020-06-26T14:04:28Z</time>
      </trkpt>
      <trkpt lat="49.5321" lon="6.28226">
        <ele>277.5</ele>
        <time>2020-06-26T14:04:29Z</time>
      </trkpt>
      <trkpt lat="49.53207" lon="6.28229">
        <ele>277.5</ele>
        <time>2020-06-26T14:04:30Z</time>
      </trkpt>
      <trkpt lat="49.53204" lon="6.28234">
        <ele>277.4</ele>
        <time>2020-06-26T14:04:31Z</time>
      </trkpt>
      <trkpt lat="49.53201" lon="6.2824">
        <ele>277.4</ele>
        <time>2020-06-26T14:04:32Z</time>
      </trkpt>
      <trkpt lat="49.53198" lon="6.28247">
        <ele>277.3</ele>
        <time>2020-06-26T14:04:33Z</time>
      </trkpt>
      <trkpt lat="49.53196" lon="6.28255">
        <ele>277.3</ele>
        <time>2020-06-26T14:04:34Z</time>
      </trkpt>
      <trkpt lat="49.53193" lon="6.28262">
        <ele>277.3</ele>
        <time>2020-06-26T14:04:35Z</time>
      </trkpt>
      <trkpt lat="49.5319" lon="6.2827">
        <ele>277.3</ele>
        <time>2020-06-26T14:04:36Z</time>
      </trkpt>
      <trkpt lat="49.53186" lon="6.28277">
        <ele>277.3</ele>
        <time>2020-06-26T14:04:37Z</time>
      </trkpt>
      <trkpt lat="49.53183" lon="6.28285">
        <ele>277.4</ele>
        <time>2020-06-26T14:04:38Z</time>
      </trkpt>
      <trkpt lat="49.53178" lon="6.2829">
        <ele>277.5</ele>
        <time>2020-06-26T14:04:39Z</time>
      </trkpt>
      <trkpt lat="49.53173" lon="6.28295">
        <ele>277.6</ele>
        <time>2020-06-26T14:04:40Z</time>
      </trkpt>
      <trkpt lat="49.53168" lon="6.28299">
        <ele>277.6</ele>
        <time>2020-06-26T14:04:41Z</time>
      </trkpt>
      <trkpt lat="49.53163" lon="6.28303">
        <ele>277.7</ele>
        <time>2020-06-26T14:04:42Z</time>
      </trkpt>
      <trkpt lat="49.53158" lon="6.28307">
        <ele>277.8</ele>
        <time>2020-06-26T14:04:43Z</time>
      </trkpt>
      <trkpt lat="49.53153" lon="6.28311">
        <ele>277.8</ele>
        <time>2020-06-26T14:04:44Z</time>
      </trkpt>
      <trkpt lat="49.53148" lon="6.28316">
        <ele>277.9</ele>
        <time>2020-06-26T14:04:45Z</time>
      </trkpt>
      <trkpt lat="49.53143" lon="6.28321">
        <ele>278</ele>
        <time>2020-06-26T14:04:46Z</time>
      </trkpt>
      <trkpt lat="49.53138" lon="6.28325">
        <ele>278</ele>
        <time>2020-06-26T14:04:47Z</time>
      </trkpt>
      <trkpt lat="49.53133" lon="6.2833">
        <ele>278.1</ele>
        <time>2020-06-26T14:04:48Z</time>
      </trkpt>
      <trkpt lat="49.53128" lon="6.28335">
        <ele>278.2</ele>
        <time>2020-06-26T14:04:49Z</time>
      </trkpt>
      <trkpt lat="49.53123" lon="6.2834">
        <ele>278.3</ele>
        <time>2020-06-26T14:04:50Z</time>
      </trkpt>
      <trkpt lat="49.53117" lon="6.28345">
        <ele>278.5</ele>
        <time>2020-06-26T14:04:51Z</time>
      </trkpt>
      <trkpt lat="49.53113" lon="6.2835">
        <ele>278.6</ele>
        <time>2020-06-26T14:04:52Z</time>
      </trkpt>
      <trkpt lat="49.53108" lon="6.28356">
        <ele>278.7</ele>
        <time>2020-06-26T14:04:53Z</time>
      </trkpt>
      <trkpt lat="49.53103" lon="6.28361">
        <ele>278.8</ele>
        <time>2020-06-26T14:04:54Z</time>
      </trkpt>
      <trkpt lat="49.53099" lon="6.28366">
        <ele>279</ele>
        <time>2020-06-26T14:04:55Z</time>
      </trkpt>
      <trkpt lat="49.53094" lon="6.28371">
        <ele>279.1</ele>
        <time>2020-06-26T14:04:56Z</time>
      </trkpt>
      <trkpt lat="49.53089" lon="6.28376">
        <ele>279.3</ele>
        <time>2020-06-26T14:04:57Z</time>
      </trkpt>
      <trkpt lat="49.53085" lon="6.28381">
        <ele>279.5</ele>
        <time>2020-06-26T14:04:58Z</time>
      </trkpt>
      <trkpt lat="49.53081" lon="6.28385">
        <ele>279.7</ele>
        <time>2020-06-26T14:04:59Z</time>
      </trkpt>
      <trkpt lat="49.53077" lon="6.28389">
        <ele>279.8</ele>
        <time>2020-06-26T14:05:00Z</time>
      </trkpt>
      <trkpt lat="49.53072" lon="6.28394">
        <ele>280</ele>
        <time>2020-06-26T14:05:01Z</time>
      </trkpt>
      <trkpt lat="49.53068" lon="6.28399">
        <ele>280.1</ele>
        <time>2020-06-26T14:05:02Z</time>
      </trkpt>
      <trkpt lat="49.53064" lon="6.28403">
        <ele>280.3</ele>
        <time>2020-06-26T14:05:03Z</time>
      </trkpt>
      <trkpt lat="49.5306" lon="6.28407">
        <ele>280.5</ele>
        <time>2020-06-26T14:05:04Z</time>
      </trkpt>
      <trkpt lat="49.53056" lon="6.2841">
        <ele>280.6</ele>
        <time>2020-06-26T14:05:05Z</time>
      </trkpt>
      <trkpt lat="49.53052" lon="6.28414">
        <ele>280.7</ele>
        <time>2020-06-26T14:05:06Z</time>
      </trkpt>
      <trkpt lat="49.53049" lon="6.28417">
        <ele>280.8</ele>
        <time>2020-06-26T14:05:07Z</time>
      </trkpt>
      <trkpt lat="49.53043" lon="6.28421">
        <ele>280.9</ele>
        <time>2020-06-26T14:05:08Z</time>
      </trkpt>
      <trkpt lat="49.53039" lon="6.28424">
        <ele>281</ele>
        <time>2020-06-26T14:05:09Z</time>
      </trkpt>
      <trkpt lat="49.53034" lon="6.28428">
        <ele>281.2</ele>
        <time>2020-06-26T14:05:10Z</time>
      </trkpt>
      <trkpt lat="49.53029" lon="6.28432">
        <ele>281.3</ele>
        <time>2020-06-26T14:05:11Z</time>
      </trkpt>
      <trkpt lat="49.53025" lon="6.28436">
        <ele>281.5</ele>
        <time>2020-06-26T14:05:12Z</time>
      </trkpt>
      <trkpt lat="49.5302" lon="6.2844">
        <ele>281.6</ele>
        <time>2020-06-26T14:05:13Z</time>
      </trkpt>
      <trkpt lat="49.53016" lon="6.28444">
        <ele>281.7</ele>
        <time>2020-06-26T14:05:14Z</time>
      </trkpt>
      <trkpt lat="49.53012" lon="6.28448">
        <ele>281.8</ele>
        <time>2020-06-26T14:05:15Z</time>
      </trkpt>
      <trkpt lat="49.53008" lon="6.28452">
        <ele>281.9</ele>
        <time>2020-06-26T14:05:16Z</time>
      </trkpt>
      <trkpt lat="49.53005" lon="6.28455">
        <ele>282</ele>
        <time>2020-06-26T14:05:17Z</time>
      </trkpt>
      <trkpt lat="49.53002" lon="6.2846">
        <ele>282.1</ele>
        <time>2020-06-26T14:05:18Z</time>
      </trkpt>
      <trkpt lat="49.52998" lon="6.28464">
        <ele>282.2</ele>
        <time>2020-06-26T14:05:19Z</time>
      </trkpt>
      <trkpt lat="49.52994" lon="6.28468">
        <ele>282.3</ele>
        <time>2020-06-26T14:05:20Z</time>
      </trkpt>
      <trkpt lat="49.5299" lon="6.28472">
        <ele>282.4</ele>
        <time>2020-06-26T14:05:21Z</time>
      </trkpt>
      <trkpt lat="49.52987" lon="6.28476">
        <ele>282.5</ele>
        <time>2020-06-26T14:05:22Z</time>
      </trkpt>
      <trkpt lat="49.52983" lon="6.2848">
        <ele>282.6</ele>
        <time>2020-06-26T14:05:23Z</time>
      </trkpt>
      <trkpt lat="49.52978" lon="6.28485">
        <ele>282.8</ele>
        <time>2020-06-26T14:05:24Z</time>
      </trkpt>
      <trkpt lat="49.52973" lon="6.28491">
        <ele>282.9</ele>
        <time>2020-06-26T14:05:25Z</time>
      </trkpt>
      <trkpt lat="49.52969" lon="6.28495">
        <ele>283</ele>
        <time>2020-06-26T14:05:26Z</time>
      </trkpt>
      <trkpt lat="49.52965" lon="6.285">
        <ele>283.1</ele>
        <time>2020-06-26T14:05:27Z</time>
      </trkpt>
      <trkpt lat="49.52961" lon="6.28505">
        <ele>283.2</ele>
        <time>2020-06-26T14:05:28Z</time>
      </trkpt>
      <trkpt lat="49.52955" lon="6.28511">
        <ele>283.3</ele>
        <time>2020-06-26T14:05:29Z</time>
      </trkpt>
      <trkpt lat="49.52951" lon="6.28515">
        <ele>283.4</ele>
        <time>2020-06-26T14:05:30Z</time>
      </trkpt>
      <trkpt lat="49.52947" lon="6.2852">
        <ele>283.6</ele>
        <time>2020-06-26T14:05:31Z</time>
      </trkpt>
      <trkpt lat="49.52942" lon="6.28524">
        <ele>283.7</ele>
        <time>2020-06-26T14:05:32Z</time>
      </trkpt>
      <trkpt lat="49.52938" lon="6.28529">
        <ele>283.8</ele>
        <time>2020-06-26T14:05:33Z</time>
      </trkpt>
      <trkpt lat="49.52933" lon="6.28533">
        <ele>283.9</ele>
        <time>2020-06-26T14:05:34Z</time>
      </trkpt>
      <trkpt lat="49.52929" lon="6.28536">
        <ele>284</ele>
        <time>2020-06-26T14:05:35Z</time>
      </trkpt>
      <trkpt lat="49.52926" lon="6.2854">
        <ele>284.1</ele>
        <time>2020-06-26T14:05:36Z</time>
      </trkpt>
      <trkpt lat="49.52922" lon="6.28543">
        <ele>284.2</ele>
        <time>2020-06-26T14:05:37Z</time>
      </trkpt>
      <trkpt lat="49.52919" lon="6.28546">
        <ele>284.2</ele>
        <time>2020-06-26T14:05:38Z</time>
      </trkpt>
      <trkpt lat="49.52915" lon="6.2855">
        <ele>284.3</ele>
        <time>2020-06-26T14:05:39Z</time>
      </trkpt>
      <trkpt lat="49.52911" lon="6.28553">
        <ele>284.3</ele>
        <time>2020-06-26T14:05:40Z</time>
      </trkpt>
      <trkpt lat="49.52906" lon="6.28556">
        <ele>284.4</ele>
        <time>2020-06-26T14:05:41Z</time>
      </trkpt>
      <trkpt lat="49.52901" lon="6.2856">
        <ele>284.4</ele>
        <time>2020-06-26T14:05:42Z</time>
      </trkpt>
      <trkpt lat="49.52897" lon="6.28562">
        <ele>284.4</ele>
        <time>2020-06-26T14:05:43Z</time>
      </trkpt>
      <trkpt lat="49.52893" lon="6.28566">
        <ele>284.5</ele>
        <time>2020-06-26T14:05:44Z</time>
      </trkpt>
      <trkpt lat="49.52889" lon="6.28569">
        <ele>284.5</ele>
        <time>2020-06-26T14:05:45Z</time>
      </trkpt>
      <trkpt lat="49.52884" lon="6.28573">
        <ele>284.5</ele>
        <time>2020-06-26T14:05:46Z</time>
      </trkpt>
      <trkpt lat="49.5288" lon="6.28577">
        <ele>284.6</ele>
        <time>2020-06-26T14:05:47Z</time>
      </trkpt>
      <trkpt lat="49.52877" lon="6.2858">
        <ele>284.6</ele>
        <time>2020-06-26T14:05:48Z</time>
      </trkpt>
      <trkpt lat="49.52872" lon="6.28584">
        <ele>284.6</ele>
        <time>2020-06-26T14:05:49Z</time>
      </trkpt>
      <trkpt lat="49.52868" lon="6.28587">
        <ele>284.6</ele>
        <time>2020-06-26T14:05:50Z</time>
      </trkpt>
      <trkpt lat="49.52864" lon="6.2859">
        <ele>284.6</ele>
        <time>2020-06-26T14:05:51Z</time>
      </trkpt>
      <trkpt lat="49.52859" lon="6.28594">
        <ele>284.6</ele>
        <time>2020-06-26T14:05:52Z</time>
      </trkpt>
      <trkpt lat="49.52853" lon="6.28598">
        <ele>284.7</ele>
        <time>2020-06-26T14:05:53Z</time>
      </trkpt>
      <trkpt lat="49.52848" lon="6.28601">
        <ele>284.7</ele>
        <time>2020-06-26T14:05:54Z</time>
      </trkpt>
      <trkpt lat="49.52844" lon="6.28604">
        <ele>284.7</ele>
        <time>2020-06-26T14:05:55Z</time>
      </trkpt>
      <trkpt lat="49.52839" lon="6.28608">
        <ele>284.7</ele>
        <time>2020-06-26T14:05:56Z</time>
      </trkpt>
      <trkpt lat="49.52835" lon="6.28611">
        <ele>284.6</ele>
        <time>2020-06-26T14:05:57Z</time>
      </trkpt>
      <trkpt lat="49.52831" lon="6.28615">
        <ele>284.6</ele>
        <time>2020-06-26T14:05:58Z</time>
      </trkpt>
      <trkpt lat="49.52826" lon="6.28618">
        <ele>284.6</ele>
        <time>2020-06-26T14:05:59Z</time>
      </trkpt>
      <trkpt lat="49.52821" lon="6.28622">
        <ele>284.6</ele>
        <time>2020-06-26T14:06:00Z</time>
      </trkpt>
      <trkpt lat="49.52815" lon="6.28626">
        <ele>284.5</ele>
        <time>2020-06-26T14:06:01Z</time>
      </trkpt>
      <trkpt lat="49.5281" lon="6.28631">
        <ele>284.4</ele>
        <time>2020-06-26T14:06:02Z</time>
      </trkpt>
      <trkpt lat="49.52806" lon="6.28634">
        <ele>284.3</ele>
        <time>2020-06-26T14:06:03Z</time>
      </trkpt>
      <trkpt lat="49.52801" lon="6.28638">
        <ele>284.2</ele>
        <time>2020-06-26T14:06:04Z</time>
      </trkpt>
      <trkpt lat="49.52796" lon="6.28642">
        <ele>284.1</ele>
        <time>2020-06-26T14:06:05Z</time>
      </trkpt>
      <trkpt lat="49.5279" lon="6.28646">
        <ele>284</ele>
        <time>2020-06-26T14:06:06Z</time>
      </trkpt>
      <trkpt lat="49.52784" lon="6.28651">
        <ele>283.8</ele>
        <time>2020-06-26T14:06:07Z</time>
      </trkpt>
      <trkpt lat="49.52778" lon="6.28654">
        <ele>283.6</ele>
        <time>2020-06-26T14:06:08Z</time>
      </trkpt>
      <trkpt lat="49.52772" lon="6.28656">
        <ele>283.5</ele>
        <time>2020-06-26T14:06:09Z</time>
      </trkpt>
      <trkpt lat="49.52766" lon="6.28658">
        <ele>283.3</ele>
        <time>2020-06-26T14:06:10Z</time>
      </trkpt>
      <trkpt lat="49.52758" lon="6.28658">
        <ele>283</ele>
        <time>2020-06-26T14:06:11Z</time>
      </trkpt>
      <trkpt lat="49.52751" lon="6.28658">
        <ele>282.7</ele>
        <time>2020-06-26T14:06:12Z</time>
      </trkpt>
      <trkpt lat="49.52743" lon="6.28658">
        <ele>282.5</ele>
        <time>2020-06-26T14:06:13Z</time>
      </trkpt>
      <trkpt lat="49.52735" lon="6.28658">
        <ele>282.3</ele>
        <time>2020-06-26T14:06:14Z</time>
      </trkpt>
      <trkpt lat="49.52727" lon="6.28658">
        <ele>282.1</ele>
        <time>2020-06-26T14:06:15Z</time>
      </trkpt>
      <trkpt lat="49.5272" lon="6.28658">
        <ele>281.9</ele>
        <time>2020-06-26T14:06:16Z</time>
      </trkpt>
      <trkpt lat="49.52712" lon="6.28657">
        <ele>281.6</ele>
        <time>2020-06-26T14:06:17Z</time>
      </trkpt>
      <trkpt lat="49.52703" lon="6.28656">
        <ele>281.4</ele>
        <time>2020-06-26T14:06:18Z</time>
      </trkpt>
      <trkpt lat="49.52696" lon="6.28655">
        <ele>281.2</ele>
        <time>2020-06-26T14:06:19Z</time>
      </trkpt>
      <trkpt lat="49.52687" lon="6.28653">
        <ele>280.9</ele>
        <time>2020-06-26T14:06:20Z</time>
      </trkpt>
      <trkpt lat="49.52679" lon="6.28653">
        <ele>280.7</ele>
        <time>2020-06-26T14:06:21Z</time>
      </trkpt>
      <trkpt lat="49.52671" lon="6.28652">
        <ele>280.6</ele>
        <time>2020-06-26T14:06:22Z</time>
      </trkpt>
      <trkpt lat="49.52663" lon="6.28652">
        <ele>280.4</ele>
        <time>2020-06-26T14:06:23Z</time>
      </trkpt>
      <trkpt lat="49.52655" lon="6.28651">
        <ele>280.2</ele>
        <time>2020-06-26T14:06:24Z</time>
      </trkpt>
      <trkpt lat="49.52648" lon="6.28651">
        <ele>280.1</ele>
        <time>2020-06-26T14:06:25Z</time>
      </trkpt>
      <trkpt lat="49.52641" lon="6.28651">
        <ele>279.9</ele>
        <time>2020-06-26T14:06:26Z</time>
      </trkpt>
      <trkpt lat="49.52633" lon="6.28651">
        <ele>279.8</ele>
        <time>2020-06-26T14:06:27Z</time>
      </trkpt>
      <trkpt lat="49.52626" lon="6.28651">
        <ele>279.6</ele>
        <time>2020-06-26T14:06:28Z</time>
      </trkpt>
      <trkpt lat="49.52619" lon="6.28652">
        <ele>279.4</ele>
        <time>2020-06-26T14:06:29Z</time>
      </trkpt>
      <trkpt lat="49.52612" lon="6.28653">
        <ele>279.2</ele>
        <time>2020-06-26T14:06:30Z</time>
      </trkpt>
      <trkpt lat="49.52604" lon="6.28655">
        <ele>279</ele>
        <time>2020-06-26T14:06:31Z</time>
      </trkpt>
      <trkpt lat="49.52597" lon="6.28657">
        <ele>278.9</ele>
        <time>2020-06-26T14:06:32Z</time>
      </trkpt>
      <trkpt lat="49.5259" lon="6.28659">
        <ele>278.7</ele>
        <time>2020-06-26T14:06:33Z</time>
      </trkpt>
      <trkpt lat="49.52583" lon="6.28662">
        <ele>278.6</ele>
        <time>2020-06-26T14:06:34Z</time>
      </trkpt>
      <trkpt lat="49.52575" lon="6.28664">
        <ele>278.4</ele>
        <time>2020-06-26T14:06:35Z</time>
      </trkpt>
      <trkpt lat="49.52568" lon="6.28666">
        <ele>278.3</ele>
        <time>2020-06-26T14:06:36Z</time>
      </trkpt>
      <trkpt lat="49.5256" lon="6.28669">
        <ele>278.2</ele>
        <time>2020-06-26T14:06:37Z</time>
      </trkpt>
      <trkpt lat="49.52553" lon="6.28671">
        <ele>278.1</ele>
        <time>2020-06-26T14:06:38Z</time>
      </trkpt>
      <trkpt lat="49.52546" lon="6.28675">
        <ele>278</ele>
        <time>2020-06-26T14:06:39Z</time>
      </trkpt>
      <trkpt lat="49.52539" lon="6.28678">
        <ele>277.9</ele>
        <time>2020-06-26T14:06:40Z</time>
      </trkpt>
      <trkpt lat="49.52532" lon="6.28682">
        <ele>277.8</ele>
        <time>2020-06-26T14:06:41Z</time>
      </trkpt>
      <trkpt lat="49.52525" lon="6.28686">
        <ele>277.7</ele>
        <time>2020-06-26T14:06:42Z</time>
      </trkpt>
      <trkpt lat="49.52518" lon="6.2869">
        <ele>277.7</ele>
        <time>2020-06-26T14:06:43Z</time>
      </trkpt>
      <trkpt lat="49.52511" lon="6.28695">
        <ele>277.6</ele>
        <time>2020-06-26T14:06:44Z</time>
      </trkpt>
      <trkpt lat="49.52505" lon="6.28699">
        <ele>277.5</ele>
        <time>2020-06-26T14:06:45Z</time>
      </trkpt>
      <trkpt lat="49.52498" lon="6.28703">
        <ele>277.4</ele>
        <time>2020-06-26T14:06:46Z</time>
      </trkpt>
      <trkpt lat="49.52492" lon="6.28707">
        <ele>277.3</ele>
        <time>2020-06-26T14:06:47Z</time>
      </trkpt>
      <trkpt lat="49.52486" lon="6.28712">
        <ele>277.2</ele>
        <time>2020-06-26T14:06:48Z</time>
      </trkpt>
      <trkpt lat="49.5248" lon="6.28717">
        <ele>277.1</ele>
        <time>2020-06-26T14:06:49Z</time>
      </trkpt>
      <trkpt lat="49.52474" lon="6.28723">
        <ele>277</ele>
        <time>2020-06-26T14:06:50Z</time>
      </trkpt>
      <trkpt lat="49.52468" lon="6.28728">
        <ele>276.9</ele>
        <time>2020-06-26T14:06:51Z</time>
      </trkpt>
      <trkpt lat="49.52463" lon="6.28733">
        <ele>276.9</ele>
        <time>2020-06-26T14:06:52Z</time>
      </trkpt>
      <trkpt lat="49.52457" lon="6.28738">
        <ele>276.7</ele>
        <time>2020-06-26T14:06:53Z</time>
      </trkpt>
      <trkpt lat="49.52451" lon="6.28743">
        <ele>276.6</ele>
        <time>2020-06-26T14:06:54Z</time>
      </trkpt>
      <trkpt lat="49.52445" lon="6.28748">
        <ele>276.5</ele>
        <time>2020-06-26T14:06:55Z</time>
      </trkpt>
      <trkpt lat="49.5244" lon="6.28753">
        <ele>276.4</ele>
        <time>2020-06-26T14:06:56Z</time>
      </trkpt>
      <trkpt lat="49.52434" lon="6.28757">
        <ele>276.3</ele>
        <time>2020-06-26T14:06:57Z</time>
      </trkpt>
      <trkpt lat="49.52428" lon="6.28762">
        <ele>276.1</ele>
        <time>2020-06-26T14:06:58Z</time>
      </trkpt>
      <trkpt lat="49.52423" lon="6.28767">
        <ele>276</ele>
        <time>2020-06-26T14:06:59Z</time>
      </trkpt>
      <trkpt lat="49.52417" lon="6.28772">
        <ele>275.9</ele>
        <time>2020-06-26T14:07:00Z</time>
      </trkpt>
      <trkpt lat="49.52411" lon="6.28777">
        <ele>275.7</ele>
        <time>2020-06-26T14:07:01Z</time>
      </trkpt>
      <trkpt lat="49.52405" lon="6.28783">
        <ele>275.5</ele>
        <time>2020-06-26T14:07:02Z</time>
      </trkpt>
      <trkpt lat="49.52399" lon="6.28789">
        <ele>275.4</ele>
        <time>2020-06-26T14:07:03Z</time>
      </trkpt>
      <trkpt lat="49.52395" lon="6.28797">
        <ele>275.2</ele>
        <time>2020-06-26T14:07:04Z</time>
      </trkpt>
      <trkpt lat="49.52391" lon="6.28805">
        <ele>275.1</ele>
        <time>2020-06-26T14:07:05Z</time>
      </trkpt>
      <trkpt lat="49.52388" lon="6.28814">
        <ele>274.9</ele>
        <time>2020-06-26T14:07:06Z</time>
      </trkpt>
      <trkpt lat="49.52385" lon="6.28824">
        <ele>274.6</ele>
        <time>2020-06-26T14:07:07Z</time>
      </trkpt>
      <trkpt lat="49.52382" lon="6.28833">
        <ele>274.4</ele>
        <time>2020-06-26T14:07:08Z</time>
      </trkpt>
      <trkpt lat="49.52379" lon="6.28843">
        <ele>274.2</ele>
        <time>2020-06-26T14:07:09Z</time>
      </trkpt>
      <trkpt lat="49.52377" lon="6.28853">
        <ele>273.9</ele>
        <time>2020-06-26T14:07:10Z</time>
      </trkpt>
      <trkpt lat="49.52374" lon="6.28863">
        <ele>273.6</ele>
        <time>2020-06-26T14:07:11Z</time>
      </trkpt>
      <trkpt lat="49.52371" lon="6.28874">
        <ele>273.2</ele>
        <time>2020-06-26T14:07:12Z</time>
      </trkpt>
      <trkpt lat="49.52368" lon="6.28885">
        <ele>272.9</ele>
        <time>2020-06-26T14:07:13Z</time>
      </trkpt>
      <trkpt lat="49.52365" lon="6.28896">
        <ele>272.4</ele>
        <time>2020-06-26T14:07:14Z</time>
      </trkpt>
      <trkpt lat="49.52362" lon="6.28907">
        <ele>271.8</ele>
        <time>2020-06-26T14:07:15Z</time>
      </trkpt>
      <trkpt lat="49.52359" lon="6.28919">
        <ele>271.3</ele>
        <time>2020-06-26T14:07:16Z</time>
      </trkpt>
      <trkpt lat="49.52355" lon="6.28931">
        <ele>270.6</ele>
        <time>2020-06-26T14:07:17Z</time>
      </trkpt>
      <trkpt lat="49.52351" lon="6.28944">
        <ele>270</ele>
        <time>2020-06-26T14:07:18Z</time>
      </trkpt>
      <trkpt lat="49.52348" lon="6.28957">
        <ele>269.3</ele>
        <time>2020-06-26T14:07:19Z</time>
      </trkpt>
      <trkpt lat="49.52345" lon="6.28969">
        <ele>268.6</ele>
        <time>2020-06-26T14:07:20Z</time>
      </trkpt>
      <trkpt lat="49.52341" lon="6.28982">
        <ele>267.1</ele>
        <time>2020-06-26T14:07:21Z</time>
      </trkpt>
      <trkpt lat="49.52338" lon="6.28995">
        <ele>266.3</ele>
        <time>2020-06-26T14:07:22Z</time>
      </trkpt>
      <trkpt lat="49.52335" lon="6.29007">
        <ele>265.5</ele>
        <time>2020-06-26T14:07:23Z</time>
      </trkpt>
      <trkpt lat="49.52332" lon="6.29019">
        <ele>264.7</ele>
        <time>2020-06-26T14:07:24Z</time>
      </trkpt>
      <trkpt lat="49.52329" lon="6.29031">
        <ele>263.9</ele>
        <time>2020-06-26T14:07:25Z</time>
      </trkpt>
      <trkpt lat="49.52325" lon="6.29043">
        <ele>263.1</ele>
        <time>2020-06-26T14:07:26Z</time>
      </trkpt>
      <trkpt lat="49.52321" lon="6.29056">
        <ele>262.1</ele>
        <time>2020-06-26T14:07:27Z</time>
      </trkpt>
      <trkpt lat="49.52316" lon="6.29068">
        <ele>261</ele>
        <time>2020-06-26T14:07:28Z</time>
      </trkpt>
      <trkpt lat="49.5231" lon="6.2908">
        <ele>259.9</ele>
        <time>2020-06-26T14:07:29Z</time>
      </trkpt>
      <trkpt lat="49.52303" lon="6.29089">
        <ele>258.8</ele>
        <time>2020-06-26T14:07:30Z</time>
      </trkpt>
      <trkpt lat="49.52295" lon="6.29098">
        <ele>257.7</ele>
        <time>2020-06-26T14:07:31Z</time>
      </trkpt>
      <trkpt lat="49.52288" lon="6.29107">
        <ele>256.7</ele>
        <time>2020-06-26T14:07:32Z</time>
      </trkpt>
      <trkpt lat="49.52281" lon="6.29115">
        <ele>255.7</ele>
        <time>2020-06-26T14:07:33Z</time>
      </trkpt>
      <trkpt lat="49.52275" lon="6.29124">
        <ele>254.6</ele>
        <time>2020-06-26T14:07:34Z</time>
      </trkpt>
      <trkpt lat="49.52269" lon="6.29132">
        <ele>253.6</ele>
        <time>2020-06-26T14:07:35Z</time>
      </trkpt>
      <trkpt lat="49.52263" lon="6.29142">
        <ele>252.5</ele>
        <time>2020-06-26T14:07:36Z</time>
      </trkpt>
      <trkpt lat="49.52259" lon="6.29153">
        <ele>251.5</ele>
        <time>2020-06-26T14:07:37Z</time>
      </trkpt>
      <trkpt lat="49.52256" lon="6.29166">
        <ele>250.3</ele>
        <time>2020-06-26T14:07:38Z</time>
      </trkpt>
      <trkpt lat="49.52253" lon="6.29179">
        <ele>249.2</ele>
        <time>2020-06-26T14:07:39Z</time>
      </trkpt>
      <trkpt lat="49.52252" lon="6.29193">
        <ele>248.1</ele>
        <time>2020-06-26T14:07:40Z</time>
      </trkpt>
      <trkpt lat="49.52252" lon="6.29207">
        <ele>247</ele>
        <time>2020-06-26T14:07:41Z</time>
      </trkpt>
      <trkpt lat="49.52254" lon="6.29221">
        <ele>245.8</ele>
        <time>2020-06-26T14:07:42Z</time>
      </trkpt>
      <trkpt lat="49.52255" lon="6.29235">
        <ele>244.7</ele>
        <time>2020-06-26T14:07:43Z</time>
      </trkpt>
      <trkpt lat="49.52253" lon="6.29249">
        <ele>243.5</ele>
        <time>2020-06-26T14:07:44Z</time>
      </trkpt>
      <trkpt lat="49.52249" lon="6.29261">
        <ele>242.6</ele>
        <time>2020-06-26T14:07:45Z</time>
      </trkpt>
      <trkpt lat="49.52244" lon="6.29274">
        <ele>241.5</ele>
        <time>2020-06-26T14:07:46Z</time>
      </trkpt>
      <trkpt lat="49.52238" lon="6.29286">
        <ele>240.6</ele>
        <time>2020-06-26T14:07:47Z</time>
      </trkpt>
      <trkpt lat="49.52233" lon="6.29299">
        <ele>239.6</ele>
        <time>2020-06-26T14:07:48Z</time>
      </trkpt>
      <trkpt lat="49.52228" lon="6.29312">
        <ele>238.8</ele>
        <time>2020-06-26T14:07:49Z</time>
      </trkpt>
      <trkpt lat="49.52224" lon="6.29327">
        <ele>238</ele>
        <time>2020-06-26T14:07:50Z</time>
      </trkpt>
      <trkpt lat="49.52221" lon="6.29342">
        <ele>237.2</ele>
        <time>2020-06-26T14:07:51Z</time>
      </trkpt>
      <trkpt lat="49.52218" lon="6.29358">
        <ele>236.5</ele>
        <time>2020-06-26T14:07:52Z</time>
      </trkpt>
      <trkpt lat="49.52216" lon="6.29374">
        <ele>235.8</ele>
        <time>2020-06-26T14:07:53Z</time>
      </trkpt>
      <trkpt lat="49.52213" lon="6.29391">
        <ele>235.1</ele>
        <time>2020-06-26T14:07:54Z</time>
      </trkpt>
      <trkpt lat="49.52211" lon="6.29407">
        <ele>234.6</ele>
        <time>2020-06-26T14:07:55Z</time>
      </trkpt>
      <trkpt lat="49.52211" lon="6.29424">
        <ele>234.1</ele>
        <time>2020-06-26T14:07:56Z</time>
      </trkpt>
      <trkpt lat="49.5221" lon="6.2944">
        <ele>233.7</ele>
        <time>2020-06-26T14:07:57Z</time>
      </trkpt>
      <trkpt lat="49.5221" lon="6.29456">
        <ele>233.2</ele>
        <time>2020-06-26T14:07:58Z</time>
      </trkpt>
      <trkpt lat="49.52212" lon="6.29472">
        <ele>232.9</ele>
        <time>2020-06-26T14:07:59Z</time>
      </trkpt>
      <trkpt lat="49.52215" lon="6.29487">
        <ele>232.6</ele>
        <time>2020-06-26T14:08:00Z</time>
      </trkpt>
      <trkpt lat="49.52217" lon="6.29499">
        <ele>232.4</ele>
        <time>2020-06-26T14:08:01Z</time>
      </trkpt>
      <trkpt lat="49.5222" lon="6.29508">
        <ele>232.2</ele>
        <time>2020-06-26T14:08:02Z</time>
      </trkpt>
      <trkpt lat="49.52223" lon="6.29515">
        <ele>231.9</ele>
        <time>2020-06-26T14:08:03Z</time>
      </trkpt>
      <trkpt lat="49.52224" lon="6.29523">
        <ele>231.7</ele>
        <time>2020-06-26T14:08:04Z</time>
      </trkpt>
      <trkpt lat="49.52221" lon="6.29531">
        <ele>231.6</ele>
        <time>2020-06-26T14:08:05Z</time>
      </trkpt>
      <trkpt lat="49.52217" lon="6.29537">
        <ele>231.4</ele>
        <time>2020-06-26T14:08:06Z</time>
      </trkpt>
      <trkpt lat="49.52212" lon="6.29544">
        <ele>231.2</ele>
        <time>2020-06-26T14:08:07Z</time>
      </trkpt>
      <trkpt lat="49.52208" lon="6.29551">
        <ele>231.1</ele>
        <time>2020-06-26T14:08:08Z</time>
      </trkpt>
      <trkpt lat="49.52204" lon="6.29557">
        <ele>231</ele>
        <time>2020-06-26T14:08:09Z</time>
      </trkpt>
      <trkpt lat="49.52199" lon="6.29564">
        <ele>230.8</ele>
        <time>2020-06-26T14:08:10Z</time>
      </trkpt>
      <trkpt lat="49.52195" lon="6.29571">
        <ele>230.7</ele>
        <time>2020-06-26T14:08:11Z</time>
      </trkpt>
      <trkpt lat="49.52191" lon="6.29578">
        <ele>230.6</ele>
        <time>2020-06-26T14:08:12Z</time>
      </trkpt>
      <trkpt lat="49.52186" lon="6.29585">
        <ele>230.5</ele>
        <time>2020-06-26T14:08:13Z</time>
      </trkpt>
      <trkpt lat="49.52182" lon="6.29591">
        <ele>230.4</ele>
        <time>2020-06-26T14:08:14Z</time>
      </trkpt>
      <trkpt lat="49.52179" lon="6.29598">
        <ele>230.3</ele>
        <time>2020-06-26T14:08:15Z</time>
      </trkpt>
      <trkpt lat="49.52175" lon="6.29605">
        <ele>230.2</ele>
        <time>2020-06-26T14:08:16Z</time>
      </trkpt>
      <trkpt lat="49.52171" lon="6.29612">
        <ele>230.1</ele>
        <time>2020-06-26T14:08:17Z</time>
      </trkpt>
      <trkpt lat="49.52167" lon="6.29619">
        <ele>229.9</ele>
        <time>2020-06-26T14:08:18Z</time>
      </trkpt>
      <trkpt lat="49.52163" lon="6.29626">
        <ele>229.7</ele>
        <time>2020-06-26T14:08:19Z</time>
      </trkpt>
      <trkpt lat="49.5216" lon="6.29633">
        <ele>229.5</ele>
        <time>2020-06-26T14:08:20Z</time>
      </trkpt>
      <trkpt lat="49.52156" lon="6.29639">
        <ele>229.3</ele>
        <time>2020-06-26T14:08:21Z</time>
      </trkpt>
      <trkpt lat="49.52152" lon="6.29645">
        <ele>229.1</ele>
        <time>2020-06-26T14:08:22Z</time>
      </trkpt>
      <trkpt lat="49.52148" lon="6.29651">
        <ele>228.9</ele>
        <time>2020-06-26T14:08:23Z</time>
      </trkpt>
      <trkpt lat="49.52145" lon="6.29657">
        <ele>228.7</ele>
        <time>2020-06-26T14:08:24Z</time>
      </trkpt>
      <trkpt lat="49.52142" lon="6.29663">
        <ele>228.6</ele>
        <time>2020-06-26T14:08:25Z</time>
      </trkpt>
      <trkpt lat="49.52139" lon="6.29669">
        <ele>228.4</ele>
        <time>2020-06-26T14:08:26Z</time>
      </trkpt>
      <trkpt lat="49.52136" lon="6.29675">
        <ele>228.3</ele>
        <time>2020-06-26T14:08:27Z</time>
      </trkpt>
      <trkpt lat="49.52133" lon="6.29682">
        <ele>228.1</ele>
        <time>2020-06-26T14:08:28Z</time>
      </trkpt>
      <trkpt lat="49.52131" lon="6.2969">
        <ele>227.9</ele>
        <time>2020-06-26T14:08:29Z</time>
      </trkpt>
      <trkpt lat="49.52128" lon="6.29698">
        <ele>227.8</ele>
        <time>2020-06-26T14:08:30Z</time>
      </trkpt>
      <trkpt lat="49.52124" lon="6.29706">
        <ele>227.6</ele>
        <time>2020-06-26T14:08:31Z</time>
      </trkpt>
      <trkpt lat="49.52121" lon="6.29714">
        <ele>227.5</ele>
        <time>2020-06-26T14:08:32Z</time>
      </trkpt>
      <trkpt lat="49.52117" lon="6.29721">
        <ele>227.4</ele>
        <time>2020-06-26T14:08:33Z</time>
      </trkpt>
      <trkpt lat="49.52114" lon="6.29728">
        <ele>227.3</ele>
        <time>2020-06-26T14:08:34Z</time>
      </trkpt>
      <trkpt lat="49.5211" lon="6.29734">
        <ele>227.3</ele>
        <time>2020-06-26T14:08:35Z</time>
      </trkpt>
      <trkpt lat="49.52108" lon="6.29739">
        <ele>227.2</ele>
        <time>2020-06-26T14:08:36Z</time>
      </trkpt>
      <trkpt lat="49.52106" lon="6.29743">
        <ele>227.2</ele>
        <time>2020-06-26T14:08:37Z</time>
      </trkpt>
      <trkpt lat="49.52105" lon="6.29743">
        <ele>227.2</ele>
        <time>2020-06-26T14:08:38Z</time>
      </trkpt>
      <trkpt lat="49.52103" lon="6.29744">
        <ele>227.2</ele>
        <time>2020-06-26T14:08:39Z</time>
      </trkpt>
      <trkpt lat="49.52102" lon="6.29746">
        <ele>227.2</ele>
        <time>2020-06-26T14:08:40Z</time>
      </trkpt>
      <trkpt lat="49.52102" lon="6.29748">
        <ele>227.1</ele>
        <time>2020-06-26T14:08:41Z</time>
      </trkpt>
      <trkpt lat="49.52102" lon="6.2975">
        <ele>227.1</ele>
        <time>2020-06-26T14:08:42Z</time>
      </trkpt>
      <trkpt lat="49.52105" lon="6.29755">
        <ele>226.9</ele>
        <time>2020-06-26T14:08:43Z</time>
      </trkpt>
      <trkpt lat="49.52106" lon="6.29758">
        <ele>226.8</ele>
        <time>2020-06-26T14:08:44Z</time>
      </trkpt>
      <trkpt lat="49.52108" lon="6.29761">
        <ele>226.7</ele>
        <time>2020-06-26T14:08:45Z</time>
      </trkpt>
      <trkpt lat="49.52111" lon="6.29765">
        <ele>226.5</ele>
        <time>2020-06-26T14:08:46Z</time>
      </trkpt>
      <trkpt lat="49.52114" lon="6.29769">
        <ele>226.4</ele>
        <time>2020-06-26T14:08:47Z</time>
      </trkpt>
      <trkpt lat="49.52117" lon="6.29773">
        <ele>226.2</ele>
        <time>2020-06-26T14:08:48Z</time>
      </trkpt>
      <trkpt lat="49.5212" lon="6.29777">
        <ele>226.1</ele>
        <time>2020-06-26T14:08:49Z</time>
      </trkpt>
      <trkpt lat="49.52123" lon="6.29782">
        <ele>225.9</ele>
        <time>2020-06-26T14:08:50Z</time>
      </trkpt>
      <trkpt lat="49.52126" lon="6.29787">
        <ele>225.7</ele>
        <time>2020-06-26T14:08:51Z</time>
      </trkpt>
      <trkpt lat="49.52128" lon="6.29791">
        <ele>225.5</ele>
        <time>2020-06-26T14:08:52Z</time>
      </trkpt>
      <trkpt lat="49.52129" lon="6.29791">
        <ele>225.4</ele>
        <time>2020-06-26T14:08:53Z</time>
      </trkpt>
      <trkpt lat="49.52129" lon="6.29794">
        <ele>225.3</ele>
        <time>2020-06-26T14:08:54Z</time>
      </trkpt>
      <trkpt lat="49.52128" lon="6.29795">
        <ele>225.3</ele>
        <time>2020-06-26T14:08:55Z</time>
      </trkpt>
      <trkpt lat="49.52128" lon="6.29796">
        <ele>225.2</ele>
        <time>2020-06-26T14:08:56Z</time>
      </trkpt>
      <trkpt lat="49.52128" lon="6.29797">
        <ele>225.2</ele>
        <time>2020-06-26T14:08:57Z</time>
      </trkpt>
      <trkpt lat="49.52127" lon="6.29797">
        <ele>225.2</ele>
        <time>2020-06-26T14:08:58Z</time>
      </trkpt>
      <trkpt lat="49.52127" lon="6.29797">
        <ele>225.2</ele>
        <time>2020-06-26T14:08:59Z</time>
      </trkpt>
      <trkpt lat="49.52126" lon="6.29798">
        <ele>225.2</ele>
        <time>2020-06-26T14:09:00Z</time>
      </trkpt>
      <trkpt lat="49.52126" lon="6.29798">
        <ele>225.1</ele>
        <time>2020-06-26T14:09:01Z</time>
      </trkpt>
      <trkpt lat="49.52125" lon="6.29798">
        <ele>225.1</ele>
        <time>2020-06-26T14:09:02Z</time>
      </trkpt>
      <trkpt lat="49.52125" lon="6.29798">
        <ele>225.1</ele>
        <time>2020-06-26T14:09:03Z</time>
      </trkpt>
      <trkpt lat="49.52125" lon="6.29798">
        <ele>225.1</ele>
        <time>2020-06-26T14:09:04Z</time>
      </trkpt>
      <trkpt lat="49.52125" lon="6.29798">
        <ele>225.1</ele>
        <time>2020-06-26T14:09:05Z</time>
      </trkpt>
      <trkpt lat="49.52125" lon="6.29798">
        <ele>225</ele>
        <time>2020-06-26T14:09:06Z</time>
      </trkpt>
      <trkpt lat="49.52125" lon="6.29799">
        <ele>225</ele>
        <time>2020-06-26T14:09:07Z</time>
      </trkpt>
      <trkpt lat="49.52125" lon="6.298">
        <ele>225</ele>
        <time>2020-06-26T14:09:08Z</time>
      </trkpt>
      <trkpt lat="49.52125" lon="6.298">
        <ele>225</ele>
        <time>2020-06-26T14:09:09Z</time>
      </trkpt>
      <trkpt lat="49.52125" lon="6.298">
        <ele>225</ele>
        <time>2020-06-26T14:09:10Z</time>
      </trkpt>
      <trkpt lat="49.52125" lon="6.298">
        <ele>225</ele>
        <time>2020-06-26T14:09:11Z</time>
      </trkpt>
      <trkpt lat="49.52124" lon="6.29804">
        <ele>225</ele>
        <time>2020-06-26T14:09:16Z</time>
      </trkpt>
      <trkpt lat="49.52124" lon="6.29804">
        <ele>225</ele>
        <time>2020-06-26T14:09:17Z</time>
      </trkpt>
      <trkpt lat="49.52123" lon="6.29805">
        <ele>225</ele>
        <time>2020-06-26T14:09:18Z</time>
      </trkpt>
      <trkpt lat="49.52123" lon="6.29805">
        <ele>225.1</ele>
        <time>2020-06-26T14:09:19Z</time>
      </trkpt>
      <trkpt lat="49.52123" lon="6.29804">
        <ele>225.1</ele>
        <time>2020-06-26T14:09:20Z</time>
      </trkpt>
      <trkpt lat="49.52123" lon="6.29803">
        <ele>225.1</ele>
        <time>2020-06-26T14:09:21Z</time>
      </trkpt>
      <trkpt lat="49.52123" lon="6.29802">
        <ele>225.1</ele>
        <time>2020-06-26T14:09:22Z</time>
      </trkpt>
      <trkpt lat="49.52123" lon="6.29802">
        <ele>225.1</ele>
        <time>2020-06-26T14:09:23Z</time>
      </trkpt>
      <trkpt lat="49.52123" lon="6.29801">
        <ele>225.1</ele>
        <time>2020-06-26T14:09:24Z</time>
      </trkpt>
      <trkpt lat="49.52123" lon="6.29802">
        <ele>225.1</ele>
        <time>2020-06-26T14:09:25Z</time>
      </trkpt>
      <trkpt lat="49.52123" lon="6.29802">
        <ele>225.1</ele>
        <time>2020-06-26T14:09:26Z</time>
      </trkpt>
      <trkpt lat="49.52123" lon="6.29802">
        <ele>225.1</ele>
        <time>2020-06-26T14:09:27Z</time>
      </trkpt>
      <trkpt lat="49.52123" lon="6.29801">
        <ele>225.1</ele>
        <time>2020-06-26T14:09:28Z</time>
      </trkpt>
      <trkpt lat="49.52123" lon="6.298">
        <ele>225.1</ele>
        <time>2020-06-26T14:09:29Z</time>
      </trkpt>
      <trkpt lat="49.52122" lon="6.298">
        <ele>225.1</ele>
        <time>2020-06-26T14:09:30Z</time>
      </trkpt>
      <trkpt lat="49.52122" lon="6.29799">
        <ele>225.1</ele>
        <time>2020-06-26T14:09:31Z</time>
      </trkpt>
      <trkpt lat="49.52122" lon="6.29798">
        <ele>225.1</ele>
        <time>2020-06-26T14:09:32Z</time>
      </trkpt>
      <trkpt lat="49.52123" lon="6.29798">
        <ele>225.1</ele>
        <time>2020-06-26T14:09:33Z</time>
      </trkpt>
      <trkpt lat="49.52123" lon="6.29798">
        <ele>225.1</ele>
        <time>2020-06-26T14:09:34Z</time>
      </trkpt>
      <trkpt lat="49.52123" lon="6.29798">
        <ele>225.1</ele>
        <time>2020-06-26T14:09:35Z</time>
      </trkpt>
      <trkpt lat="49.52123" lon="6.29798">
        <ele>225.1</ele>
        <time>2020-06-26T14:09:36Z</time>
      </trkpt>
      <trkpt lat="49.52123" lon="6.29798">
        <ele>225.1</ele>
        <time>2020-06-26T14:09:37Z</time>
      </trkpt>
      <trkpt lat="49.52124" lon="6.29798">
        <ele>225.1</ele>
        <time>2020-06-26T14:09:38Z</time>
      </trkpt>
      <trkpt lat="49.52125" lon="6.29797">
        <ele>225.1</ele>
        <time>2020-06-26T14:09:39Z</time>
      </trkpt>
      <trkpt lat="49.52125" lon="6.29795">
        <ele>225.6</ele>
        <time>2020-06-26T14:09:40Z</time>
      </trkpt>
      <trkpt lat="49.52125" lon="6.29793">
        <ele>225.7</ele>
        <time>2020-06-26T14:09:41Z</time>
      </trkpt>
      <trkpt lat="49.52125" lon="6.29789">
        <ele>225.8</ele>
        <time>2020-06-26T14:09:42Z</time>
      </trkpt>
      <trkpt lat="49.52124" lon="6.29787">
        <ele>225.8</ele>
        <time>2020-06-26T14:09:43Z</time>
      </trkpt>
      <trkpt lat="49.52123" lon="6.29783">
        <ele>225.9</ele>
        <time>2020-06-26T14:09:44Z</time>
      </trkpt>
      <trkpt lat="49.52121" lon="6.29779">
        <ele>226</ele>
        <time>2020-06-26T14:09:45Z</time>
      </trkpt>
      <trkpt lat="49.52119" lon="6.29775">
        <ele>226.2</ele>
        <time>2020-06-26T14:09:46Z</time>
      </trkpt>
      <trkpt lat="49.52116" lon="6.29771">
        <ele>226.3</ele>
        <time>2020-06-26T14:09:47Z</time>
      </trkpt>
      <trkpt lat="49.52114" lon="6.29767">
        <ele>226.4</ele>
        <time>2020-06-26T14:09:48Z</time>
      </trkpt>
      <trkpt lat="49.52111" lon="6.29764">
        <ele>226.6</ele>
        <time>2020-06-26T14:09:49Z</time>
      </trkpt>
      <trkpt lat="49.52108" lon="6.29761">
        <ele>226.7</ele>
        <time>2020-06-26T14:09:50Z</time>
      </trkpt>
      <trkpt lat="49.52106" lon="6.29758">
        <ele>226.8</ele>
        <time>2020-06-26T14:09:51Z</time>
      </trkpt>
      <trkpt lat="49.52103" lon="6.29755">
        <ele>227</ele>
        <time>2020-06-26T14:09:52Z</time>
      </trkpt>
      <trkpt lat="49.521" lon="6.29753">
        <ele>227.1</ele>
        <time>2020-06-26T14:09:53Z</time>
      </trkpt>
      <trkpt lat="49.52097" lon="6.2975">
        <ele>227.4</ele>
        <time>2020-06-26T14:09:54Z</time>
      </trkpt>
      <trkpt lat="49.52094" lon="6.29748">
        <ele>227.6</ele>
        <time>2020-06-26T14:09:55Z</time>
      </trkpt>
      <trkpt lat="49.52092" lon="6.29745">
        <ele>227.7</ele>
        <time>2020-06-26T14:09:56Z</time>
      </trkpt>
      <trkpt lat="49.52089" lon="6.29741">
        <ele>227.6</ele>
        <time>2020-06-26T14:09:57Z</time>
      </trkpt>
      <trkpt lat="49.52086" lon="6.29738">
        <ele>227.6</ele>
        <time>2020-06-26T14:09:58Z</time>
      </trkpt>
      <trkpt lat="49.52082" lon="6.29734">
        <ele>227.5</ele>
        <time>2020-06-26T14:09:59Z</time>
      </trkpt>
      <trkpt lat="49.52078" lon="6.2973">
        <ele>227.4</ele>
        <time>2020-06-26T14:10:00Z</time>
      </trkpt>
      <trkpt lat="49.52073" lon="6.29725">
        <ele>227.3</ele>
        <time>2020-06-26T14:10:01Z</time>
      </trkpt>
      <trkpt lat="49.52069" lon="6.29721">
        <ele>227.2</ele>
        <time>2020-06-26T14:10:02Z</time>
      </trkpt>
      <trkpt lat="49.52064" lon="6.29717">
        <ele>227.1</ele>
        <time>2020-06-26T14:10:03Z</time>
      </trkpt>
      <trkpt lat="49.5206" lon="6.29714">
        <ele>227</ele>
        <time>2020-06-26T14:10:04Z</time>
      </trkpt>
      <trkpt lat="49.52056" lon="6.29711">
        <ele>227</ele>
        <time>2020-06-26T14:10:05Z</time>
      </trkpt>
      <trkpt lat="49.52053" lon="6.2971">
        <ele>226.8</ele>
        <time>2020-06-26T14:10:06Z</time>
      </trkpt>
      <trkpt lat="49.52049" lon="6.29711">
        <ele>226.6</ele>
        <time>2020-06-26T14:10:07Z</time>
      </trkpt>
      <trkpt lat="49.52046" lon="6.29716">
        <ele>226.2</ele>
        <time>2020-06-26T14:10:08Z</time>
      </trkpt>
      <trkpt lat="49.5204" lon="6.29725">
        <ele>225.7</ele>
        <time>2020-06-26T14:10:09Z</time>
      </trkpt>
      <trkpt lat="49.52037" lon="6.29731">
        <ele>225.4</ele>
        <time>2020-06-26T14:10:10Z</time>
      </trkpt>
      <trkpt lat="49.52033" lon="6.29738">
        <ele>225.1</ele>
        <time>2020-06-26T14:10:11Z</time>
      </trkpt>
      <trkpt lat="49.52029" lon="6.29745">
        <ele>225</ele>
        <time>2020-06-26T14:10:12Z</time>
      </trkpt>
      <trkpt lat="49.52026" lon="6.29752">
        <ele>225</ele>
        <time>2020-06-26T14:10:13Z</time>
      </trkpt>
      <trkpt lat="49.52023" lon="6.29759">
        <ele>224.5</ele>
        <time>2020-06-26T14:10:14Z</time>
      </trkpt>
      <trkpt lat="49.52021" lon="6.29764">
        <ele>224.4</ele>
        <time>2020-06-26T14:10:15Z</time>
      </trkpt>
      <trkpt lat="49.52018" lon="6.29771">
        <ele>224.4</ele>
        <time>2020-06-26T14:10:16Z</time>
      </trkpt>
      <trkpt lat="49.52014" lon="6.29779">
        <ele>224.3</ele>
        <time>2020-06-26T14:10:17Z</time>
      </trkpt>
      <trkpt lat="49.5201" lon="6.29787">
        <ele>224.1</ele>
        <time>2020-06-26T14:10:18Z</time>
      </trkpt>
      <trkpt lat="49.52006" lon="6.29794">
        <ele>224.1</ele>
        <time>2020-06-26T14:10:19Z</time>
      </trkpt>
      <trkpt lat="49.52003" lon="6.29799">
        <ele>224</ele>
        <time>2020-06-26T14:10:20Z</time>
      </trkpt>
      <trkpt lat="49.52" lon="6.29806">
        <ele>224</ele>
        <time>2020-06-26T14:10:21Z</time>
      </trkpt>
      <trkpt lat="49.51997" lon="6.29813">
        <ele>224</ele>
        <time>2020-06-26T14:10:22Z</time>
      </trkpt>
      <trkpt lat="49.51993" lon="6.29819">
        <ele>224</ele>
        <time>2020-06-26T14:10:23Z</time>
      </trkpt>
      <trkpt lat="49.5199" lon="6.29825">
        <ele>224.1</ele>
        <time>2020-06-26T14:10:24Z</time>
      </trkpt>
      <trkpt lat="49.51987" lon="6.29831">
        <ele>224.2</ele>
        <time>2020-06-26T14:10:25Z</time>
      </trkpt>
      <trkpt lat="49.51983" lon="6.29837">
        <ele>224.3</ele>
        <time>2020-06-26T14:10:26Z</time>
      </trkpt>
      <trkpt lat="49.51979" lon="6.29844">
        <ele>224.7</ele>
        <time>2020-06-26T14:10:27Z</time>
      </trkpt>
      <trkpt lat="49.51976" lon="6.29848">
        <ele>224.9</ele>
        <time>2020-06-26T14:10:28Z</time>
      </trkpt>
      <trkpt lat="49.51974" lon="6.29852">
        <ele>225</ele>
        <time>2020-06-26T14:10:29Z</time>
      </trkpt>
      <trkpt lat="49.51971" lon="6.29856">
        <ele>225.3</ele>
        <time>2020-06-26T14:10:30Z</time>
      </trkpt>
      <trkpt lat="49.51969" lon="6.2986">
        <ele>225.5</ele>
        <time>2020-06-26T14:10:31Z</time>
      </trkpt>
      <trkpt lat="49.51968" lon="6.29861">
        <ele>225.6</ele>
        <time>2020-06-26T14:10:32Z</time>
      </trkpt>
      <trkpt lat="49.51966" lon="6.29865">
        <ele>225.8</ele>
        <time>2020-06-26T14:10:33Z</time>
      </trkpt>
      <trkpt lat="49.51964" lon="6.29869">
        <ele>226</ele>
        <time>2020-06-26T14:10:34Z</time>
      </trkpt>
      <trkpt lat="49.51961" lon="6.29872">
        <ele>226.3</ele>
        <time>2020-06-26T14:10:35Z</time>
      </trkpt>
      <trkpt lat="49.51959" lon="6.29876">
        <ele>226.5</ele>
        <time>2020-06-26T14:10:36Z</time>
      </trkpt>
      <trkpt lat="49.51957" lon="6.2988">
        <ele>226.8</ele>
        <time>2020-06-26T14:10:37Z</time>
      </trkpt>
      <trkpt lat="49.51955" lon="6.29884">
        <ele>227.1</ele>
        <time>2020-06-26T14:10:38Z</time>
      </trkpt>
      <trkpt lat="49.51953" lon="6.29889">
        <ele>227.3</ele>
        <time>2020-06-26T14:10:39Z</time>
      </trkpt>
      <trkpt lat="49.5195" lon="6.29894">
        <ele>227.7</ele>
        <time>2020-06-26T14:10:40Z</time>
      </trkpt>
      <trkpt lat="49.51948" lon="6.29898">
        <ele>228</ele>
        <time>2020-06-26T14:10:41Z</time>
      </trkpt>
      <trkpt lat="49.51945" lon="6.29903">
        <ele>228.3</ele>
        <time>2020-06-26T14:10:42Z</time>
      </trkpt>
      <trkpt lat="49.51943" lon="6.29906">
        <ele>228.5</ele>
        <time>2020-06-26T14:10:43Z</time>
      </trkpt>
      <trkpt lat="49.51939" lon="6.29911">
        <ele>228.9</ele>
        <time>2020-06-26T14:10:44Z</time>
      </trkpt>
      <trkpt lat="49.51936" lon="6.29915">
        <ele>229.3</ele>
        <time>2020-06-26T14:10:45Z</time>
      </trkpt>
      <trkpt lat="49.51932" lon="6.2992">
        <ele>229.7</ele>
        <time>2020-06-26T14:10:46Z</time>
      </trkpt>
      <trkpt lat="49.51929" lon="6.29924">
        <ele>230</ele>
        <time>2020-06-26T14:10:47Z</time>
      </trkpt>
      <trkpt lat="49.51926" lon="6.29928">
        <ele>230.3</ele>
        <time>2020-06-26T14:10:48Z</time>
      </trkpt>
      <trkpt lat="49.51923" lon="6.29932">
        <ele>230.6</ele>
        <time>2020-06-26T14:10:49Z</time>
      </trkpt>
      <trkpt lat="49.5192" lon="6.29936">
        <ele>230.9</ele>
        <time>2020-06-26T14:10:50Z</time>
      </trkpt>
      <trkpt lat="49.51917" lon="6.29942">
        <ele>231.3</ele>
        <time>2020-06-26T14:10:51Z</time>
      </trkpt>
      <trkpt lat="49.51914" lon="6.29948">
        <ele>231.6</ele>
        <time>2020-06-26T14:10:52Z</time>
      </trkpt>
      <trkpt lat="49.51911" lon="6.29952">
        <ele>231.9</ele>
        <time>2020-06-26T14:10:53Z</time>
      </trkpt>
      <trkpt lat="49.51909" lon="6.29955">
        <ele>232.2</ele>
        <time>2020-06-26T14:10:54Z</time>
      </trkpt>
      <trkpt lat="49.51907" lon="6.29959">
        <ele>232.4</ele>
        <time>2020-06-26T14:10:55Z</time>
      </trkpt>
      <trkpt lat="49.51906" lon="6.29961">
        <ele>232.6</ele>
        <time>2020-06-26T14:10:56Z</time>
      </trkpt>
      <trkpt lat="49.51903" lon="6.29964">
        <ele>232.8</ele>
        <time>2020-06-26T14:10:57Z</time>
      </trkpt>
      <trkpt lat="49.51901" lon="6.29968">
        <ele>233.1</ele>
        <time>2020-06-26T14:10:58Z</time>
      </trkpt>
      <trkpt lat="49.51898" lon="6.29971">
        <ele>233.3</ele>
        <time>2020-06-26T14:10:59Z</time>
      </trkpt>
      <trkpt lat="49.51896" lon="6.29974">
        <ele>233.6</ele>
        <time>2020-06-26T14:11:00Z</time>
      </trkpt>
      <trkpt lat="49.51894" lon="6.29977">
        <ele>233.8</ele>
        <time>2020-06-26T14:11:01Z</time>
      </trkpt>
      <trkpt lat="49.51891" lon="6.29981">
        <ele>234</ele>
        <time>2020-06-26T14:11:02Z</time>
      </trkpt>
      <trkpt lat="49.51888" lon="6.29985">
        <ele>234.3</ele>
        <time>2020-06-26T14:11:03Z</time>
      </trkpt>
      <trkpt lat="49.51886" lon="6.29988">
        <ele>234.7</ele>
        <time>2020-06-26T14:11:04Z</time>
      </trkpt>
      <trkpt lat="49.51884" lon="6.29992">
        <ele>234.8</ele>
        <time>2020-06-26T14:11:05Z</time>
      </trkpt>
      <trkpt lat="49.51881" lon="6.29995">
        <ele>235</ele>
        <time>2020-06-26T14:11:06Z</time>
      </trkpt>
      <trkpt lat="49.51879" lon="6.29999">
        <ele>235.1</ele>
        <time>2020-06-26T14:11:07Z</time>
      </trkpt>
      <trkpt lat="49.51877" lon="6.30002">
        <ele>235.2</ele>
        <time>2020-06-26T14:11:08Z</time>
      </trkpt>
      <trkpt lat="49.51875" lon="6.30005">
        <ele>235.4</ele>
        <time>2020-06-26T14:11:09Z</time>
      </trkpt>
      <trkpt lat="49.51873" lon="6.30009">
        <ele>235.5</ele>
        <time>2020-06-26T14:11:10Z</time>
      </trkpt>
      <trkpt lat="49.51871" lon="6.30013">
        <ele>235.7</ele>
        <time>2020-06-26T14:11:11Z</time>
      </trkpt>
      <trkpt lat="49.51867" lon="6.30018">
        <ele>235.9</ele>
        <time>2020-06-26T14:11:12Z</time>
      </trkpt>
      <trkpt lat="49.51866" lon="6.3002">
        <ele>236</ele>
        <time>2020-06-26T14:11:13Z</time>
      </trkpt>
      <trkpt lat="49.51863" lon="6.30023">
        <ele>236.1</ele>
        <time>2020-06-26T14:11:14Z</time>
      </trkpt>
      <trkpt lat="49.5186" lon="6.30028">
        <ele>236.3</ele>
        <time>2020-06-26T14:11:15Z</time>
      </trkpt>
      <trkpt lat="49.51859" lon="6.3003">
        <ele>236.4</ele>
        <time>2020-06-26T14:11:16Z</time>
      </trkpt>
      <trkpt lat="49.51857" lon="6.30034">
        <ele>236.6</ele>
        <time>2020-06-26T14:11:17Z</time>
      </trkpt>
      <trkpt lat="49.51855" lon="6.30037">
        <ele>236.7</ele>
        <time>2020-06-26T14:11:18Z</time>
      </trkpt>
      <trkpt lat="49.51852" lon="6.30041">
        <ele>236.9</ele>
        <time>2020-06-26T14:11:19Z</time>
      </trkpt>
      <trkpt lat="49.5185" lon="6.30045">
        <ele>237</ele>
        <time>2020-06-26T14:11:20Z</time>
      </trkpt>
      <trkpt lat="49.51847" lon="6.30049">
        <ele>237.1</ele>
        <time>2020-06-26T14:11:21Z</time>
      </trkpt>
      <trkpt lat="49.51844" lon="6.30052">
        <ele>237.3</ele>
        <time>2020-06-26T14:11:22Z</time>
      </trkpt>
      <trkpt lat="49.51841" lon="6.30058">
        <ele>237.5</ele>
        <time>2020-06-26T14:11:23Z</time>
      </trkpt>
      <trkpt lat="49.51838" lon="6.30063">
        <ele>237.6</ele>
        <time>2020-06-26T14:11:24Z</time>
      </trkpt>
      <trkpt lat="49.51835" lon="6.30066">
        <ele>237.7</ele>
        <time>2020-06-26T14:11:25Z</time>
      </trkpt>
      <trkpt lat="49.51833" lon="6.3007">
        <ele>237.8</ele>
        <time>2020-06-26T14:11:26Z</time>
      </trkpt>
      <trkpt lat="49.51831" lon="6.30073">
        <ele>237.8</ele>
        <time>2020-06-26T14:11:27Z</time>
      </trkpt>
      <trkpt lat="49.51829" lon="6.30077">
        <ele>237.9</ele>
        <time>2020-06-26T14:11:28Z</time>
      </trkpt>
      <trkpt lat="49.51826" lon="6.30081">
        <ele>237.9</ele>
        <time>2020-06-26T14:11:29Z</time>
      </trkpt>
      <trkpt lat="49.51823" lon="6.30087">
        <ele>238</ele>
        <time>2020-06-26T14:11:30Z</time>
      </trkpt>
      <trkpt lat="49.5182" lon="6.30092">
        <ele>238.1</ele>
        <time>2020-06-26T14:11:31Z</time>
      </trkpt>
      <trkpt lat="49.51817" lon="6.30097">
        <ele>238.1</ele>
        <time>2020-06-26T14:11:32Z</time>
      </trkpt>
      <trkpt lat="49.51814" lon="6.30101">
        <ele>238.2</ele>
        <time>2020-06-26T14:11:33Z</time>
      </trkpt>
      <trkpt lat="49.51812" lon="6.30106">
        <ele>238.2</ele>
        <time>2020-06-26T14:11:34Z</time>
      </trkpt>
      <trkpt lat="49.51809" lon="6.3011">
        <ele>238.3</ele>
        <time>2020-06-26T14:11:35Z</time>
      </trkpt>
      <trkpt lat="49.51807" lon="6.30114">
        <ele>238.3</ele>
        <time>2020-06-26T14:11:36Z</time>
      </trkpt>
      <trkpt lat="49.51804" lon="6.30118">
        <ele>238.3</ele>
        <time>2020-06-26T14:11:37Z</time>
      </trkpt>
      <trkpt lat="49.51802" lon="6.30122">
        <ele>238.4</ele>
        <time>2020-06-26T14:11:38Z</time>
      </trkpt>
      <trkpt lat="49.51799" lon="6.30126">
        <ele>238.4</ele>
        <time>2020-06-26T14:11:39Z</time>
      </trkpt>
      <trkpt lat="49.51797" lon="6.3013">
        <ele>238.3</ele>
        <time>2020-06-26T14:11:40Z</time>
      </trkpt>
      <trkpt lat="49.51794" lon="6.30135">
        <ele>238.3</ele>
        <time>2020-06-26T14:11:41Z</time>
      </trkpt>
      <trkpt lat="49.51789" lon="6.3014">
        <ele>238.2</ele>
        <time>2020-06-26T14:11:42Z</time>
      </trkpt>
      <trkpt lat="49.51786" lon="6.30143">
        <ele>238.1</ele>
        <time>2020-06-26T14:11:43Z</time>
      </trkpt>
      <trkpt lat="49.51783" lon="6.30145">
        <ele>238</ele>
        <time>2020-06-26T14:11:44Z</time>
      </trkpt>
      <trkpt lat="49.51779" lon="6.30146">
        <ele>237.9</ele>
        <time>2020-06-26T14:11:45Z</time>
      </trkpt>
      <trkpt lat="49.51774" lon="6.30146">
        <ele>237.9</ele>
        <time>2020-06-26T14:11:46Z</time>
      </trkpt>
      <trkpt lat="49.5177" lon="6.30147">
        <ele>237.8</ele>
        <time>2020-06-26T14:11:47Z</time>
      </trkpt>
      <trkpt lat="49.51767" lon="6.3015">
        <ele>237.8</ele>
        <time>2020-06-26T14:11:48Z</time>
      </trkpt>
      <trkpt lat="49.51765" lon="6.30151">
        <ele>237.8</ele>
        <time>2020-06-26T14:11:49Z</time>
      </trkpt>
      <trkpt lat="49.51763" lon="6.30159">
        <ele>237.6</ele>
        <time>2020-06-26T14:11:50Z</time>
      </trkpt>
      <trkpt lat="49.5176" lon="6.30166">
        <ele>237.5</ele>
        <time>2020-06-26T14:11:51Z</time>
      </trkpt>
      <trkpt lat="49.51758" lon="6.30172">
        <ele>237.5</ele>
        <time>2020-06-26T14:11:52Z</time>
      </trkpt>
      <trkpt lat="49.51755" lon="6.30179">
        <ele>237.4</ele>
        <time>2020-06-26T14:11:53Z</time>
      </trkpt>
      <trkpt lat="49.51752" lon="6.30188">
        <ele>237.3</ele>
        <time>2020-06-26T14:11:54Z</time>
      </trkpt>
      <trkpt lat="49.51749" lon="6.30196">
        <ele>237.3</ele>
        <time>2020-06-26T14:11:55Z</time>
      </trkpt>
      <trkpt lat="49.51746" lon="6.30203">
        <ele>237.2</ele>
        <time>2020-06-26T14:11:56Z</time>
      </trkpt>
      <trkpt lat="49.51742" lon="6.3021">
        <ele>237.1</ele>
        <time>2020-06-26T14:11:57Z</time>
      </trkpt>
      <trkpt lat="49.51739" lon="6.30217">
        <ele>237.1</ele>
        <time>2020-06-26T14:11:58Z</time>
      </trkpt>
      <trkpt lat="49.51736" lon="6.30222">
        <ele>237</ele>
        <time>2020-06-26T14:11:59Z</time>
      </trkpt>
      <trkpt lat="49.51732" lon="6.30229">
        <ele>236.9</ele>
        <time>2020-06-26T14:12:00Z</time>
      </trkpt>
      <trkpt lat="49.51728" lon="6.30236">
        <ele>236.9</ele>
        <time>2020-06-26T14:12:01Z</time>
      </trkpt>
      <trkpt lat="49.51724" lon="6.30243">
        <ele>236.8</ele>
        <time>2020-06-26T14:12:02Z</time>
      </trkpt>
      <trkpt lat="49.5172" lon="6.30251">
        <ele>236.8</ele>
        <time>2020-06-26T14:12:03Z</time>
      </trkpt>
      <trkpt lat="49.51716" lon="6.30258">
        <ele>236.7</ele>
        <time>2020-06-26T14:12:04Z</time>
      </trkpt>
      <trkpt lat="49.51711" lon="6.30266">
        <ele>236.6</ele>
        <time>2020-06-26T14:12:05Z</time>
      </trkpt>
      <trkpt lat="49.51707" lon="6.30273">
        <ele>236.6</ele>
        <time>2020-06-26T14:12:06Z</time>
      </trkpt>
      <trkpt lat="49.51702" lon="6.3028">
        <ele>236.6</ele>
        <time>2020-06-26T14:12:07Z</time>
      </trkpt>
      <trkpt lat="49.51698" lon="6.30286">
        <ele>236.6</ele>
        <time>2020-06-26T14:12:08Z</time>
      </trkpt>
      <trkpt lat="49.51695" lon="6.30293">
        <ele>236.6</ele>
        <time>2020-06-26T14:12:09Z</time>
      </trkpt>
      <trkpt lat="49.51691" lon="6.30299">
        <ele>236.6</ele>
        <time>2020-06-26T14:12:10Z</time>
      </trkpt>
      <trkpt lat="49.51687" lon="6.30306">
        <ele>236.6</ele>
        <time>2020-06-26T14:12:11Z</time>
      </trkpt>
      <trkpt lat="49.51682" lon="6.30314">
        <ele>236.6</ele>
        <time>2020-06-26T14:12:12Z</time>
      </trkpt>
      <trkpt lat="49.51678" lon="6.30319">
        <ele>236.6</ele>
        <time>2020-06-26T14:12:13Z</time>
      </trkpt>
      <trkpt lat="49.51673" lon="6.30327">
        <ele>236.7</ele>
        <time>2020-06-26T14:12:14Z</time>
      </trkpt>
      <trkpt lat="49.51669" lon="6.30333">
        <ele>236.8</ele>
        <time>2020-06-26T14:12:15Z</time>
      </trkpt>
      <trkpt lat="49.51666" lon="6.30339">
        <ele>236.8</ele>
        <time>2020-06-26T14:12:16Z</time>
      </trkpt>
      <trkpt lat="49.51662" lon="6.30346">
        <ele>236.9</ele>
        <time>2020-06-26T14:12:17Z</time>
      </trkpt>
      <trkpt lat="49.51658" lon="6.30353">
        <ele>237</ele>
        <time>2020-06-26T14:12:18Z</time>
      </trkpt>
      <trkpt lat="49.51654" lon="6.30359">
        <ele>237.1</ele>
        <time>2020-06-26T14:12:19Z</time>
      </trkpt>
      <trkpt lat="49.51651" lon="6.30364">
        <ele>237.2</ele>
        <time>2020-06-26T14:12:20Z</time>
      </trkpt>
      <trkpt lat="49.51647" lon="6.3037">
        <ele>237.4</ele>
        <time>2020-06-26T14:12:21Z</time>
      </trkpt>
      <trkpt lat="49.51644" lon="6.30375">
        <ele>237.5</ele>
        <time>2020-06-26T14:12:22Z</time>
      </trkpt>
      <trkpt lat="49.5164" lon="6.30381">
        <ele>237.6</ele>
        <time>2020-06-26T14:12:23Z</time>
      </trkpt>
      <trkpt lat="49.51636" lon="6.30389">
        <ele>237.8</ele>
        <time>2020-06-26T14:12:24Z</time>
      </trkpt>
      <trkpt lat="49.51633" lon="6.30394">
        <ele>238</ele>
        <time>2020-06-26T14:12:25Z</time>
      </trkpt>
      <trkpt lat="49.51629" lon="6.304">
        <ele>238.2</ele>
        <time>2020-06-26T14:12:26Z</time>
      </trkpt>
      <trkpt lat="49.51626" lon="6.30406">
        <ele>238.5</ele>
        <time>2020-06-26T14:12:27Z</time>
      </trkpt>
      <trkpt lat="49.51623" lon="6.30413">
        <ele>238.7</ele>
        <time>2020-06-26T14:12:28Z</time>
      </trkpt>
      <trkpt lat="49.5162" lon="6.3042">
        <ele>238.9</ele>
        <time>2020-06-26T14:12:29Z</time>
      </trkpt>
      <trkpt lat="49.51617" lon="6.30426">
        <ele>239.2</ele>
        <time>2020-06-26T14:12:30Z</time>
      </trkpt>
      <trkpt lat="49.51613" lon="6.30433">
        <ele>238.9</ele>
        <time>2020-06-26T14:12:31Z</time>
      </trkpt>
      <trkpt lat="49.5161" lon="6.3044">
        <ele>238.9</ele>
        <time>2020-06-26T14:12:32Z</time>
      </trkpt>
      <trkpt lat="49.51607" lon="6.30447">
        <ele>239.2</ele>
        <time>2020-06-26T14:12:33Z</time>
      </trkpt>
      <trkpt lat="49.51605" lon="6.30453">
        <ele>239.3</ele>
        <time>2020-06-26T14:12:34Z</time>
      </trkpt>
      <trkpt lat="49.51603" lon="6.3046">
        <ele>239.5</ele>
        <time>2020-06-26T14:12:35Z</time>
      </trkpt>
      <trkpt lat="49.51601" lon="6.30467">
        <ele>239.6</ele>
        <time>2020-06-26T14:12:36Z</time>
      </trkpt>
      <trkpt lat="49.51599" lon="6.30474">
        <ele>239.8</ele>
        <time>2020-06-26T14:12:37Z</time>
      </trkpt>
      <trkpt lat="49.51597" lon="6.30479">
        <ele>239.9</ele>
        <time>2020-06-26T14:12:38Z</time>
      </trkpt>
      <trkpt lat="49.51596" lon="6.30484">
        <ele>240</ele>
        <time>2020-06-26T14:12:39Z</time>
      </trkpt>
      <trkpt lat="49.51594" lon="6.30489">
        <ele>240.1</ele>
        <time>2020-06-26T14:12:40Z</time>
      </trkpt>
      <trkpt lat="49.51592" lon="6.30497">
        <ele>240.3</ele>
        <time>2020-06-26T14:12:41Z</time>
      </trkpt>
      <trkpt lat="49.5159" lon="6.30502">
        <ele>240.4</ele>
        <time>2020-06-26T14:12:42Z</time>
      </trkpt>
      <trkpt lat="49.51588" lon="6.30508">
        <ele>240.5</ele>
        <time>2020-06-26T14:12:43Z</time>
      </trkpt>
      <trkpt lat="49.51586" lon="6.30513">
        <ele>240.7</ele>
        <time>2020-06-26T14:12:44Z</time>
      </trkpt>
      <trkpt lat="49.51584" lon="6.30519">
        <ele>240.8</ele>
        <time>2020-06-26T14:12:45Z</time>
      </trkpt>
      <trkpt lat="49.51581" lon="6.30524">
        <ele>240.9</ele>
        <time>2020-06-26T14:12:46Z</time>
      </trkpt>
      <trkpt lat="49.51579" lon="6.30528">
        <ele>241</ele>
        <time>2020-06-26T14:12:47Z</time>
      </trkpt>
      <trkpt lat="49.51577" lon="6.30531">
        <ele>241.1</ele>
        <time>2020-06-26T14:12:48Z</time>
      </trkpt>
      <trkpt lat="49.51574" lon="6.30533">
        <ele>241.2</ele>
        <time>2020-06-26T14:12:49Z</time>
      </trkpt>
      <trkpt lat="49.51569" lon="6.30533">
        <ele>241.3</ele>
        <time>2020-06-26T14:12:50Z</time>
      </trkpt>
      <trkpt lat="49.51566" lon="6.30532">
        <ele>241.5</ele>
        <time>2020-06-26T14:12:51Z</time>
      </trkpt>
      <trkpt lat="49.51562" lon="6.30529">
        <ele>241.6</ele>
        <time>2020-06-26T14:12:52Z</time>
      </trkpt>
      <trkpt lat="49.51558" lon="6.30527">
        <ele>241.6</ele>
        <time>2020-06-26T14:12:53Z</time>
      </trkpt>
      <trkpt lat="49.51555" lon="6.30525">
        <ele>241.7</ele>
        <time>2020-06-26T14:12:54Z</time>
      </trkpt>
      <trkpt lat="49.51551" lon="6.30523">
        <ele>241.7</ele>
        <time>2020-06-26T14:12:55Z</time>
      </trkpt>
      <trkpt lat="49.51547" lon="6.30522">
        <ele>241.6</ele>
        <time>2020-06-26T14:12:56Z</time>
      </trkpt>
      <trkpt lat="49.51542" lon="6.30524">
        <ele>241.6</ele>
        <time>2020-06-26T14:12:57Z</time>
      </trkpt>
      <trkpt lat="49.51537" lon="6.30529">
        <ele>241.5</ele>
        <time>2020-06-26T14:12:58Z</time>
      </trkpt>
      <trkpt lat="49.51533" lon="6.30534">
        <ele>241.6</ele>
        <time>2020-06-26T14:12:59Z</time>
      </trkpt>
      <trkpt lat="49.5153" lon="6.3054">
        <ele>241.7</ele>
        <time>2020-06-26T14:13:00Z</time>
      </trkpt>
      <trkpt lat="49.51528" lon="6.30546">
        <ele>241.7</ele>
        <time>2020-06-26T14:13:01Z</time>
      </trkpt>
      <trkpt lat="49.51526" lon="6.3055">
        <ele>241.7</ele>
        <time>2020-06-26T14:13:02Z</time>
      </trkpt>
      <trkpt lat="49.51524" lon="6.30553">
        <ele>241.8</ele>
        <time>2020-06-26T14:13:03Z</time>
      </trkpt>
      <trkpt lat="49.51521" lon="6.30555">
        <ele>241.8</ele>
        <time>2020-06-26T14:13:04Z</time>
      </trkpt>
      <trkpt lat="49.51518" lon="6.30555">
        <ele>241.8</ele>
        <time>2020-06-26T14:13:05Z</time>
      </trkpt>
      <trkpt lat="49.51515" lon="6.30556">
        <ele>241.8</ele>
        <time>2020-06-26T14:13:06Z</time>
      </trkpt>
      <trkpt lat="49.51512" lon="6.30558">
        <ele>242</ele>
        <time>2020-06-26T14:13:07Z</time>
      </trkpt>
      <trkpt lat="49.5151" lon="6.30561">
        <ele>242.1</ele>
        <time>2020-06-26T14:13:08Z</time>
      </trkpt>
      <trkpt lat="49.51506" lon="6.30565">
        <ele>242.2</ele>
        <time>2020-06-26T14:13:09Z</time>
      </trkpt>
      <trkpt lat="49.51504" lon="6.30569">
        <ele>242.3</ele>
        <time>2020-06-26T14:13:10Z</time>
      </trkpt>
      <trkpt lat="49.51501" lon="6.30573">
        <ele>242.4</ele>
        <time>2020-06-26T14:13:11Z</time>
      </trkpt>
      <trkpt lat="49.51499" lon="6.30577">
        <ele>242.5</ele>
        <time>2020-06-26T14:13:12Z</time>
      </trkpt>
      <trkpt lat="49.51496" lon="6.30582">
        <ele>242.7</ele>
        <time>2020-06-26T14:13:13Z</time>
      </trkpt>
      <trkpt lat="49.51494" lon="6.30588">
        <ele>242.8</ele>
        <time>2020-06-26T14:13:14Z</time>
      </trkpt>
      <trkpt lat="49.51493" lon="6.30593">
        <ele>243</ele>
        <time>2020-06-26T14:13:15Z</time>
      </trkpt>
      <trkpt lat="49.51491" lon="6.30597">
        <ele>243.1</ele>
        <time>2020-06-26T14:13:16Z</time>
      </trkpt>
      <trkpt lat="49.5149" lon="6.30601">
        <ele>243.2</ele>
        <time>2020-06-26T14:13:17Z</time>
      </trkpt>
      <trkpt lat="49.51489" lon="6.30607">
        <ele>243.4</ele>
        <time>2020-06-26T14:13:18Z</time>
      </trkpt>
      <trkpt lat="49.51487" lon="6.30613">
        <ele>243.6</ele>
        <time>2020-06-26T14:13:19Z</time>
      </trkpt>
      <trkpt lat="49.51486" lon="6.30618">
        <ele>243.8</ele>
        <time>2020-06-26T14:13:20Z</time>
      </trkpt>
      <trkpt lat="49.51485" lon="6.30624">
        <ele>244</ele>
        <time>2020-06-26T14:13:21Z</time>
      </trkpt>
      <trkpt lat="49.51484" lon="6.30631">
        <ele>244.3</ele>
        <time>2020-06-26T14:13:22Z</time>
      </trkpt>
      <trkpt lat="49.51484" lon="6.30635">
        <ele>244.5</ele>
        <time>2020-06-26T14:13:23Z</time>
      </trkpt>
      <trkpt lat="49.51483" lon="6.3064">
        <ele>244.6</ele>
        <time>2020-06-26T14:13:24Z</time>
      </trkpt>
      <trkpt lat="49.51482" lon="6.30646">
        <ele>244.8</ele>
        <time>2020-06-26T14:13:25Z</time>
      </trkpt>
      <trkpt lat="49.51482" lon="6.30652">
        <ele>245.1</ele>
        <time>2020-06-26T14:13:26Z</time>
      </trkpt>
      <trkpt lat="49.51481" lon="6.30659">
        <ele>245.4</ele>
        <time>2020-06-26T14:13:27Z</time>
      </trkpt>
      <trkpt lat="49.51482" lon="6.30664">
        <ele>245.6</ele>
        <time>2020-06-26T14:13:28Z</time>
      </trkpt>
      <trkpt lat="49.51481" lon="6.30672">
        <ele>245.9</ele>
        <time>2020-06-26T14:13:29Z</time>
      </trkpt>
      <trkpt lat="49.51481" lon="6.30678">
        <ele>246.1</ele>
        <time>2020-06-26T14:13:30Z</time>
      </trkpt>
      <trkpt lat="49.51481" lon="6.30682">
        <ele>246.3</ele>
        <time>2020-06-26T14:13:31Z</time>
      </trkpt>
      <trkpt lat="49.51481" lon="6.30687">
        <ele>246.5</ele>
        <time>2020-06-26T14:13:32Z</time>
      </trkpt>
      <trkpt lat="49.51481" lon="6.30693">
        <ele>246.8</ele>
        <time>2020-06-26T14:13:33Z</time>
      </trkpt>
      <trkpt lat="49.51481" lon="6.30695">
        <ele>246.9</ele>
        <time>2020-06-26T14:13:34Z</time>
      </trkpt>
      <trkpt lat="49.5148" lon="6.30699">
        <ele>247</ele>
        <time>2020-06-26T14:13:35Z</time>
      </trkpt>
      <trkpt lat="49.51479" lon="6.30704">
        <ele>247.3</ele>
        <time>2020-06-26T14:13:36Z</time>
      </trkpt>
      <trkpt lat="49.51479" lon="6.3071">
        <ele>247.5</ele>
        <time>2020-06-26T14:13:37Z</time>
      </trkpt>
      <trkpt lat="49.51478" lon="6.30712">
        <ele>247.6</ele>
        <time>2020-06-26T14:13:38Z</time>
      </trkpt>
      <trkpt lat="49.51477" lon="6.30716">
        <ele>247.8</ele>
        <time>2020-06-26T14:13:39Z</time>
      </trkpt>
      <trkpt lat="49.51476" lon="6.3072">
        <ele>248</ele>
        <time>2020-06-26T14:13:40Z</time>
      </trkpt>
      <trkpt lat="49.51475" lon="6.30725">
        <ele>248.3</ele>
        <time>2020-06-26T14:13:41Z</time>
      </trkpt>
      <trkpt lat="49.51474" lon="6.30726">
        <ele>248.4</ele>
        <time>2020-06-26T14:13:42Z</time>
      </trkpt>
      <trkpt lat="49.51473" lon="6.30731">
        <ele>248.6</ele>
        <time>2020-06-26T14:13:43Z</time>
      </trkpt>
      <trkpt lat="49.51472" lon="6.30732">
        <ele>248.7</ele>
        <time>2020-06-26T14:13:44Z</time>
      </trkpt>
      <trkpt lat="49.5147" lon="6.30738">
        <ele>249</ele>
        <time>2020-06-26T14:13:45Z</time>
      </trkpt>
      <trkpt lat="49.5147" lon="6.3074">
        <ele>249.1</ele>
        <time>2020-06-26T14:13:46Z</time>
      </trkpt>
      <trkpt lat="49.51469" lon="6.30745">
        <ele>249.3</ele>
        <time>2020-06-26T14:13:47Z</time>
      </trkpt>
      <trkpt lat="49.51468" lon="6.30751">
        <ele>249.4</ele>
        <time>2020-06-26T14:13:48Z</time>
      </trkpt>
      <trkpt lat="49.51468" lon="6.30752">
        <ele>249.4</ele>
        <time>2020-06-26T14:13:49Z</time>
      </trkpt>
      <trkpt lat="49.51466" lon="6.30756">
        <ele>249.4</ele>
        <time>2020-06-26T14:13:50Z</time>
      </trkpt>
      <trkpt lat="49.51465" lon="6.30757">
        <ele>249.5</ele>
        <time>2020-06-26T14:13:51Z</time>
      </trkpt>
      <trkpt lat="49.51463" lon="6.30762">
        <ele>249.7</ele>
        <time>2020-06-26T14:13:52Z</time>
      </trkpt>
      <trkpt lat="49.51462" lon="6.30764">
        <ele>249.7</ele>
        <time>2020-06-26T14:13:53Z</time>
      </trkpt>
      <trkpt lat="49.5146" lon="6.30767">
        <ele>249.9</ele>
        <time>2020-06-26T14:13:54Z</time>
      </trkpt>
      <trkpt lat="49.51458" lon="6.3077">
        <ele>250</ele>
        <time>2020-06-26T14:13:55Z</time>
      </trkpt>
      <trkpt lat="49.51455" lon="6.30774">
        <ele>250.2</ele>
        <time>2020-06-26T14:13:56Z</time>
      </trkpt>
      <trkpt lat="49.51454" lon="6.30776">
        <ele>250.3</ele>
        <time>2020-06-26T14:13:57Z</time>
      </trkpt>
      <trkpt lat="49.51452" lon="6.3078">
        <ele>250.5</ele>
        <time>2020-06-26T14:13:58Z</time>
      </trkpt>
      <trkpt lat="49.51449" lon="6.30784">
        <ele>250.6</ele>
        <time>2020-06-26T14:13:59Z</time>
      </trkpt>
      <trkpt lat="49.51447" lon="6.30787">
        <ele>250.8</ele>
        <time>2020-06-26T14:14:00Z</time>
      </trkpt>
      <trkpt lat="49.51445" lon="6.3079">
        <ele>250.9</ele>
        <time>2020-06-26T14:14:01Z</time>
      </trkpt>
      <trkpt lat="49.51444" lon="6.30794">
        <ele>251.1</ele>
        <time>2020-06-26T14:14:02Z</time>
      </trkpt>
      <trkpt lat="49.51442" lon="6.30798">
        <ele>251.2</ele>
        <time>2020-06-26T14:14:03Z</time>
      </trkpt>
      <trkpt lat="49.51439" lon="6.30803">
        <ele>251.4</ele>
        <time>2020-06-26T14:14:04Z</time>
      </trkpt>
      <trkpt lat="49.51437" lon="6.30807">
        <ele>251.6</ele>
        <time>2020-06-26T14:14:05Z</time>
      </trkpt>
      <trkpt lat="49.51434" lon="6.30812">
        <ele>251.8</ele>
        <time>2020-06-26T14:14:06Z</time>
      </trkpt>
      <trkpt lat="49.51433" lon="6.30815">
        <ele>251.9</ele>
        <time>2020-06-26T14:14:07Z</time>
      </trkpt>
      <trkpt lat="49.5143" lon="6.3082">
        <ele>252.1</ele>
        <time>2020-06-26T14:14:08Z</time>
      </trkpt>
      <trkpt lat="49.51428" lon="6.30823">
        <ele>252.2</ele>
        <time>2020-06-26T14:14:09Z</time>
      </trkpt>
      <trkpt lat="49.51426" lon="6.30827">
        <ele>252.3</ele>
        <time>2020-06-26T14:14:10Z</time>
      </trkpt>
      <trkpt lat="49.51423" lon="6.30832">
        <ele>252.4</ele>
        <time>2020-06-26T14:14:11Z</time>
      </trkpt>
      <trkpt lat="49.51422" lon="6.30833">
        <ele>252.5</ele>
        <time>2020-06-26T14:14:12Z</time>
      </trkpt>
      <trkpt lat="49.5142" lon="6.30836">
        <ele>252.6</ele>
        <time>2020-06-26T14:14:13Z</time>
      </trkpt>
      <trkpt lat="49.51417" lon="6.3084">
        <ele>252.7</ele>
        <time>2020-06-26T14:14:14Z</time>
      </trkpt>
      <trkpt lat="49.51415" lon="6.30843">
        <ele>252.9</ele>
        <time>2020-06-26T14:14:15Z</time>
      </trkpt>
      <trkpt lat="49.51412" lon="6.30847">
        <ele>253</ele>
        <time>2020-06-26T14:14:16Z</time>
      </trkpt>
      <trkpt lat="49.51409" lon="6.30851">
        <ele>253.1</ele>
        <time>2020-06-26T14:14:17Z</time>
      </trkpt>
      <trkpt lat="49.51407" lon="6.30854">
        <ele>253.2</ele>
        <time>2020-06-26T14:14:18Z</time>
      </trkpt>
      <trkpt lat="49.51404" lon="6.30859">
        <ele>253.5</ele>
        <time>2020-06-26T14:14:19Z</time>
      </trkpt>
      <trkpt lat="49.51402" lon="6.30862">
        <ele>253.6</ele>
        <time>2020-06-26T14:14:20Z</time>
      </trkpt>
      <trkpt lat="49.51399" lon="6.30868">
        <ele>253.9</ele>
        <time>2020-06-26T14:14:21Z</time>
      </trkpt>
      <trkpt lat="49.51398" lon="6.3087">
        <ele>254</ele>
        <time>2020-06-26T14:14:22Z</time>
      </trkpt>
      <trkpt lat="49.51395" lon="6.30874">
        <ele>254.1</ele>
        <time>2020-06-26T14:14:23Z</time>
      </trkpt>
      <trkpt lat="49.51392" lon="6.30879">
        <ele>254.3</ele>
        <time>2020-06-26T14:14:24Z</time>
      </trkpt>
      <trkpt lat="49.51391" lon="6.30881">
        <ele>254.4</ele>
        <time>2020-06-26T14:14:25Z</time>
      </trkpt>
      <trkpt lat="49.51389" lon="6.30885">
        <ele>254.6</ele>
        <time>2020-06-26T14:14:26Z</time>
      </trkpt>
      <trkpt lat="49.51386" lon="6.30889">
        <ele>254.8</ele>
        <time>2020-06-26T14:14:27Z</time>
      </trkpt>
      <trkpt lat="49.51383" lon="6.30894">
        <ele>255</ele>
        <time>2020-06-26T14:14:28Z</time>
      </trkpt>
      <trkpt lat="49.5138" lon="6.30898">
        <ele>255.1</ele>
        <time>2020-06-26T14:14:29Z</time>
      </trkpt>
      <trkpt lat="49.51378" lon="6.30903">
        <ele>255.3</ele>
        <time>2020-06-26T14:14:30Z</time>
      </trkpt>
      <trkpt lat="49.51375" lon="6.30907">
        <ele>255.4</ele>
        <time>2020-06-26T14:14:31Z</time>
      </trkpt>
      <trkpt lat="49.51373" lon="6.30911">
        <ele>255.6</ele>
        <time>2020-06-26T14:14:32Z</time>
      </trkpt>
      <trkpt lat="49.5137" lon="6.30915">
        <ele>255.7</ele>
        <time>2020-06-26T14:14:33Z</time>
      </trkpt>
      <trkpt lat="49.51368" lon="6.3092">
        <ele>255.9</ele>
        <time>2020-06-26T14:14:34Z</time>
      </trkpt>
      <trkpt lat="49.51366" lon="6.30923">
        <ele>256</ele>
        <time>2020-06-26T14:14:35Z</time>
      </trkpt>
      <trkpt lat="49.51363" lon="6.30927">
        <ele>256.2</ele>
        <time>2020-06-26T14:14:36Z</time>
      </trkpt>
      <trkpt lat="49.51361" lon="6.30931">
        <ele>256.4</ele>
        <time>2020-06-26T14:14:37Z</time>
      </trkpt>
      <trkpt lat="49.51358" lon="6.30936">
        <ele>256.5</ele>
        <time>2020-06-26T14:14:38Z</time>
      </trkpt>
      <trkpt lat="49.51356" lon="6.3094">
        <ele>256.7</ele>
        <time>2020-06-26T14:14:39Z</time>
      </trkpt>
      <trkpt lat="49.51353" lon="6.30945">
        <ele>256.8</ele>
        <time>2020-06-26T14:14:40Z</time>
      </trkpt>
      <trkpt lat="49.5135" lon="6.3095">
        <ele>257</ele>
        <time>2020-06-26T14:14:41Z</time>
      </trkpt>
      <trkpt lat="49.51348" lon="6.30953">
        <ele>257.1</ele>
        <time>2020-06-26T14:14:42Z</time>
      </trkpt>
      <trkpt lat="49.51345" lon="6.30959">
        <ele>257.3</ele>
        <time>2020-06-26T14:14:43Z</time>
      </trkpt>
      <trkpt lat="49.51342" lon="6.30963">
        <ele>257.5</ele>
        <time>2020-06-26T14:14:44Z</time>
      </trkpt>
      <trkpt lat="49.5134" lon="6.30967">
        <ele>257.6</ele>
        <time>2020-06-26T14:14:45Z</time>
      </trkpt>
      <trkpt lat="49.51338" lon="6.30971">
        <ele>257.8</ele>
        <time>2020-06-26T14:14:46Z</time>
      </trkpt>
      <trkpt lat="49.51335" lon="6.30977">
        <ele>258</ele>
        <time>2020-06-26T14:14:47Z</time>
      </trkpt>
      <trkpt lat="49.51332" lon="6.3098">
        <ele>258.2</ele>
        <time>2020-06-26T14:14:48Z</time>
      </trkpt>
      <trkpt lat="49.51329" lon="6.30985">
        <ele>258.3</ele>
        <time>2020-06-26T14:14:49Z</time>
      </trkpt>
      <trkpt lat="49.51327" lon="6.30989">
        <ele>258.5</ele>
        <time>2020-06-26T14:14:50Z</time>
      </trkpt>
      <trkpt lat="49.51324" lon="6.30994">
        <ele>258.7</ele>
        <time>2020-06-26T14:14:51Z</time>
      </trkpt>
      <trkpt lat="49.51321" lon="6.30998">
        <ele>258.9</ele>
        <time>2020-06-26T14:14:52Z</time>
      </trkpt>
      <trkpt lat="49.51319" lon="6.31002">
        <ele>259</ele>
        <time>2020-06-26T14:14:53Z</time>
      </trkpt>
      <trkpt lat="49.51317" lon="6.31006">
        <ele>259.2</ele>
        <time>2020-06-26T14:14:54Z</time>
      </trkpt>
      <trkpt lat="49.51314" lon="6.3101">
        <ele>259.4</ele>
        <time>2020-06-26T14:14:55Z</time>
      </trkpt>
      <trkpt lat="49.51311" lon="6.31015">
        <ele>259.6</ele>
        <time>2020-06-26T14:14:56Z</time>
      </trkpt>
      <trkpt lat="49.51309" lon="6.31019">
        <ele>259.7</ele>
        <time>2020-06-26T14:14:57Z</time>
      </trkpt>
      <trkpt lat="49.51308" lon="6.31022">
        <ele>259.8</ele>
        <time>2020-06-26T14:14:58Z</time>
      </trkpt>
      <trkpt lat="49.51305" lon="6.31027">
        <ele>260</ele>
        <time>2020-06-26T14:14:59Z</time>
      </trkpt>
      <trkpt lat="49.51303" lon="6.3103">
        <ele>260.1</ele>
        <time>2020-06-26T14:15:00Z</time>
      </trkpt>
      <trkpt lat="49.51301" lon="6.31034">
        <ele>260.3</ele>
        <time>2020-06-26T14:15:01Z</time>
      </trkpt>
      <trkpt lat="49.51298" lon="6.31038">
        <ele>260.4</ele>
        <time>2020-06-26T14:15:02Z</time>
      </trkpt>
      <trkpt lat="49.51296" lon="6.31042">
        <ele>260.6</ele>
        <time>2020-06-26T14:15:03Z</time>
      </trkpt>
      <trkpt lat="49.51294" lon="6.31046">
        <ele>260.7</ele>
        <time>2020-06-26T14:15:04Z</time>
      </trkpt>
      <trkpt lat="49.51291" lon="6.31051">
        <ele>260.8</ele>
        <time>2020-06-26T14:15:05Z</time>
      </trkpt>
      <trkpt lat="49.51289" lon="6.31054">
        <ele>261</ele>
        <time>2020-06-26T14:15:06Z</time>
      </trkpt>
      <trkpt lat="49.51287" lon="6.31057">
        <ele>261.1</ele>
        <time>2020-06-26T14:15:07Z</time>
      </trkpt>
      <trkpt lat="49.51285" lon="6.31061">
        <ele>261.2</ele>
        <time>2020-06-26T14:15:08Z</time>
      </trkpt>
      <trkpt lat="49.51283" lon="6.31064">
        <ele>261.3</ele>
        <time>2020-06-26T14:15:09Z</time>
      </trkpt>
      <trkpt lat="49.51281" lon="6.31068">
        <ele>261.5</ele>
        <time>2020-06-26T14:15:10Z</time>
      </trkpt>
      <trkpt lat="49.51279" lon="6.31071">
        <ele>261.6</ele>
        <time>2020-06-26T14:15:11Z</time>
      </trkpt>
      <trkpt lat="49.51276" lon="6.31075">
        <ele>261.8</ele>
        <time>2020-06-26T14:15:12Z</time>
      </trkpt>
      <trkpt lat="49.51273" lon="6.3108">
        <ele>262</ele>
        <time>2020-06-26T14:15:13Z</time>
      </trkpt>
      <trkpt lat="49.51271" lon="6.31084">
        <ele>262.2</ele>
        <time>2020-06-26T14:15:14Z</time>
      </trkpt>
      <trkpt lat="49.51269" lon="6.31088">
        <ele>262.3</ele>
        <time>2020-06-26T14:15:15Z</time>
      </trkpt>
      <trkpt lat="49.51267" lon="6.31092">
        <ele>262.4</ele>
        <time>2020-06-26T14:15:16Z</time>
      </trkpt>
      <trkpt lat="49.51265" lon="6.31095">
        <ele>262.6</ele>
        <time>2020-06-26T14:15:17Z</time>
      </trkpt>
      <trkpt lat="49.51263" lon="6.311">
        <ele>262.7</ele>
        <time>2020-06-26T14:15:18Z</time>
      </trkpt>
      <trkpt lat="49.51261" lon="6.31103">
        <ele>262.9</ele>
        <time>2020-06-26T14:15:19Z</time>
      </trkpt>
      <trkpt lat="49.51258" lon="6.31108">
        <ele>263</ele>
        <time>2020-06-26T14:15:20Z</time>
      </trkpt>
      <trkpt lat="49.51256" lon="6.31111">
        <ele>263.2</ele>
        <time>2020-06-26T14:15:21Z</time>
      </trkpt>
      <trkpt lat="49.51254" lon="6.31115">
        <ele>263.3</ele>
        <time>2020-06-26T14:15:22Z</time>
      </trkpt>
      <trkpt lat="49.51252" lon="6.31119">
        <ele>263.5</ele>
        <time>2020-06-26T14:15:23Z</time>
      </trkpt>
      <trkpt lat="49.5125" lon="6.31122">
        <ele>263.6</ele>
        <time>2020-06-26T14:15:24Z</time>
      </trkpt>
      <trkpt lat="49.51248" lon="6.31125">
        <ele>263.7</ele>
        <time>2020-06-26T14:15:25Z</time>
      </trkpt>
      <trkpt lat="49.51246" lon="6.31129">
        <ele>263.9</ele>
        <time>2020-06-26T14:15:26Z</time>
      </trkpt>
      <trkpt lat="49.51243" lon="6.31133">
        <ele>264</ele>
        <time>2020-06-26T14:15:27Z</time>
      </trkpt>
      <trkpt lat="49.51241" lon="6.31137">
        <ele>264.2</ele>
        <time>2020-06-26T14:15:28Z</time>
      </trkpt>
      <trkpt lat="49.51238" lon="6.31142">
        <ele>264.4</ele>
        <time>2020-06-26T14:15:29Z</time>
      </trkpt>
      <trkpt lat="49.51235" lon="6.31146">
        <ele>264.5</ele>
        <time>2020-06-26T14:15:30Z</time>
      </trkpt>
      <trkpt lat="49.51233" lon="6.3115">
        <ele>264.7</ele>
        <time>2020-06-26T14:15:31Z</time>
      </trkpt>
      <trkpt lat="49.5123" lon="6.31153">
        <ele>264.8</ele>
        <time>2020-06-26T14:15:32Z</time>
      </trkpt>
      <trkpt lat="49.51228" lon="6.31156">
        <ele>264.9</ele>
        <time>2020-06-26T14:15:33Z</time>
      </trkpt>
      <trkpt lat="49.51226" lon="6.31159">
        <ele>265</ele>
        <time>2020-06-26T14:15:34Z</time>
      </trkpt>
      <trkpt lat="49.51224" lon="6.31162">
        <ele>265.1</ele>
        <time>2020-06-26T14:15:35Z</time>
      </trkpt>
      <trkpt lat="49.51222" lon="6.31166">
        <ele>265.3</ele>
        <time>2020-06-26T14:15:36Z</time>
      </trkpt>
      <trkpt lat="49.51219" lon="6.31171">
        <ele>265.4</ele>
        <time>2020-06-26T14:15:37Z</time>
      </trkpt>
      <trkpt lat="49.51216" lon="6.31175">
        <ele>265.6</ele>
        <time>2020-06-26T14:15:38Z</time>
      </trkpt>
      <trkpt lat="49.51214" lon="6.31178">
        <ele>265.7</ele>
        <time>2020-06-26T14:15:39Z</time>
      </trkpt>
      <trkpt lat="49.51212" lon="6.31181">
        <ele>265.8</ele>
        <time>2020-06-26T14:15:40Z</time>
      </trkpt>
      <trkpt lat="49.51209" lon="6.31185">
        <ele>265.9</ele>
        <time>2020-06-26T14:15:41Z</time>
      </trkpt>
      <trkpt lat="49.51206" lon="6.31189">
        <ele>266</ele>
        <time>2020-06-26T14:15:42Z</time>
      </trkpt>
      <trkpt lat="49.51203" lon="6.31192">
        <ele>266.1</ele>
        <time>2020-06-26T14:15:43Z</time>
      </trkpt>
      <trkpt lat="49.512" lon="6.31196">
        <ele>266.3</ele>
        <time>2020-06-26T14:15:44Z</time>
      </trkpt>
      <trkpt lat="49.51199" lon="6.31197">
        <ele>266.3</ele>
        <time>2020-06-26T14:15:45Z</time>
      </trkpt>
      <trkpt lat="49.51197" lon="6.312">
        <ele>266.4</ele>
        <time>2020-06-26T14:15:46Z</time>
      </trkpt>
      <trkpt lat="49.51194" lon="6.31202">
        <ele>266.5</ele>
        <time>2020-06-26T14:15:47Z</time>
      </trkpt>
      <trkpt lat="49.51191" lon="6.31205">
        <ele>266.6</ele>
        <time>2020-06-26T14:15:48Z</time>
      </trkpt>
      <trkpt lat="49.51189" lon="6.31208">
        <ele>266.7</ele>
        <time>2020-06-26T14:15:49Z</time>
      </trkpt>
      <trkpt lat="49.51185" lon="6.31211">
        <ele>266.8</ele>
        <time>2020-06-26T14:15:50Z</time>
      </trkpt>
      <trkpt lat="49.51181" lon="6.31215">
        <ele>267</ele>
        <time>2020-06-26T14:15:51Z</time>
      </trkpt>
      <trkpt lat="49.51177" lon="6.31219">
        <ele>267.1</ele>
        <time>2020-06-26T14:15:52Z</time>
      </trkpt>
      <trkpt lat="49.51173" lon="6.31222">
        <ele>267.2</ele>
        <time>2020-06-26T14:15:53Z</time>
      </trkpt>
      <trkpt lat="49.51169" lon="6.31226">
        <ele>267.3</ele>
        <time>2020-06-26T14:15:54Z</time>
      </trkpt>
      <trkpt lat="49.51165" lon="6.31229">
        <ele>267.4</ele>
        <time>2020-06-26T14:15:55Z</time>
      </trkpt>
      <trkpt lat="49.51162" lon="6.31232">
        <ele>267.5</ele>
        <time>2020-06-26T14:15:56Z</time>
      </trkpt>
      <trkpt lat="49.51159" lon="6.31235">
        <ele>267.5</ele>
        <time>2020-06-26T14:15:57Z</time>
      </trkpt>
      <trkpt lat="49.51155" lon="6.31237">
        <ele>267.6</ele>
        <time>2020-06-26T14:15:58Z</time>
      </trkpt>
      <trkpt lat="49.51152" lon="6.3124">
        <ele>267.6</ele>
        <time>2020-06-26T14:15:59Z</time>
      </trkpt>
      <trkpt lat="49.51149" lon="6.31242">
        <ele>267.6</ele>
        <time>2020-06-26T14:16:00Z</time>
      </trkpt>
      <trkpt lat="49.51146" lon="6.31244">
        <ele>267.6</ele>
        <time>2020-06-26T14:16:01Z</time>
      </trkpt>
      <trkpt lat="49.51142" lon="6.31247">
        <ele>267.6</ele>
        <time>2020-06-26T14:16:02Z</time>
      </trkpt>
      <trkpt lat="49.51139" lon="6.31249">
        <ele>267.6</ele>
        <time>2020-06-26T14:16:03Z</time>
      </trkpt>
      <trkpt lat="49.51136" lon="6.31251">
        <ele>267.6</ele>
        <time>2020-06-26T14:16:04Z</time>
      </trkpt>
      <trkpt lat="49.51133" lon="6.31254">
        <ele>267.6</ele>
        <time>2020-06-26T14:16:05Z</time>
      </trkpt>
      <trkpt lat="49.51129" lon="6.31256">
        <ele>267.7</ele>
        <time>2020-06-26T14:16:06Z</time>
      </trkpt>
      <trkpt lat="49.51124" lon="6.3126">
        <ele>267.7</ele>
        <time>2020-06-26T14:16:07Z</time>
      </trkpt>
      <trkpt lat="49.5112" lon="6.31262">
        <ele>267.7</ele>
        <time>2020-06-26T14:16:08Z</time>
      </trkpt>
      <trkpt lat="49.51116" lon="6.31265">
        <ele>267.6</ele>
        <time>2020-06-26T14:16:09Z</time>
      </trkpt>
      <trkpt lat="49.51111" lon="6.31268">
        <ele>267.6</ele>
        <time>2020-06-26T14:16:10Z</time>
      </trkpt>
      <trkpt lat="49.51107" lon="6.31271">
        <ele>267.6</ele>
        <time>2020-06-26T14:16:11Z</time>
      </trkpt>
      <trkpt lat="49.51103" lon="6.31273">
        <ele>267.6</ele>
        <time>2020-06-26T14:16:12Z</time>
      </trkpt>
      <trkpt lat="49.511" lon="6.31276">
        <ele>267.5</ele>
        <time>2020-06-26T14:16:13Z</time>
      </trkpt>
      <trkpt lat="49.51095" lon="6.3128">
        <ele>267.5</ele>
        <time>2020-06-26T14:16:14Z</time>
      </trkpt>
      <trkpt lat="49.5109" lon="6.31283">
        <ele>267.4</ele>
        <time>2020-06-26T14:16:15Z</time>
      </trkpt>
      <trkpt lat="49.51086" lon="6.31286">
        <ele>267.4</ele>
        <time>2020-06-26T14:16:16Z</time>
      </trkpt>
      <trkpt lat="49.51083" lon="6.31288">
        <ele>267.4</ele>
        <time>2020-06-26T14:16:17Z</time>
      </trkpt>
      <trkpt lat="49.51079" lon="6.31291">
        <ele>267.3</ele>
        <time>2020-06-26T14:16:18Z</time>
      </trkpt>
      <trkpt lat="49.51074" lon="6.31294">
        <ele>267.3</ele>
        <time>2020-06-26T14:16:19Z</time>
      </trkpt>
      <trkpt lat="49.5107" lon="6.31297">
        <ele>267.2</ele>
        <time>2020-06-26T14:16:20Z</time>
      </trkpt>
      <trkpt lat="49.51065" lon="6.31301">
        <ele>267.1</ele>
        <time>2020-06-26T14:16:21Z</time>
      </trkpt>
      <trkpt lat="49.51059" lon="6.31305">
        <ele>267.1</ele>
        <time>2020-06-26T14:16:22Z</time>
      </trkpt>
      <trkpt lat="49.51054" lon="6.31308">
        <ele>267</ele>
        <time>2020-06-26T14:16:23Z</time>
      </trkpt>
      <trkpt lat="49.51047" lon="6.31313">
        <ele>266.8</ele>
        <time>2020-06-26T14:16:24Z</time>
      </trkpt>
      <trkpt lat="49.51042" lon="6.31316">
        <ele>266.7</ele>
        <time>2020-06-26T14:16:25Z</time>
      </trkpt>
      <trkpt lat="49.51036" lon="6.3132">
        <ele>266.6</ele>
        <time>2020-06-26T14:16:26Z</time>
      </trkpt>
      <trkpt lat="49.5103" lon="6.31323">
        <ele>266.5</ele>
        <time>2020-06-26T14:16:27Z</time>
      </trkpt>
      <trkpt lat="49.51023" lon="6.31327">
        <ele>266.3</ele>
        <time>2020-06-26T14:16:28Z</time>
      </trkpt>
      <trkpt lat="49.51017" lon="6.31331">
        <ele>266.3</ele>
        <time>2020-06-26T14:16:29Z</time>
      </trkpt>
      <trkpt lat="49.51012" lon="6.31335">
        <ele>266.2</ele>
        <time>2020-06-26T14:16:30Z</time>
      </trkpt>
      <trkpt lat="49.51007" lon="6.31338">
        <ele>266.1</ele>
        <time>2020-06-26T14:16:31Z</time>
      </trkpt>
      <trkpt lat="49.51001" lon="6.31342">
        <ele>266.1</ele>
        <time>2020-06-26T14:16:32Z</time>
      </trkpt>
      <trkpt lat="49.50994" lon="6.31346">
        <ele>266</ele>
        <time>2020-06-26T14:16:33Z</time>
      </trkpt>
      <trkpt lat="49.50988" lon="6.3135">
        <ele>265.9</ele>
        <time>2020-06-26T14:16:34Z</time>
      </trkpt>
      <trkpt lat="49.50981" lon="6.31354">
        <ele>265.8</ele>
        <time>2020-06-26T14:16:35Z</time>
      </trkpt>
      <trkpt lat="49.50975" lon="6.31358">
        <ele>265.6</ele>
        <time>2020-06-26T14:16:36Z</time>
      </trkpt>
      <trkpt lat="49.50969" lon="6.31362">
        <ele>265.5</ele>
        <time>2020-06-26T14:16:37Z</time>
      </trkpt>
      <trkpt lat="49.50963" lon="6.31365">
        <ele>265.4</ele>
        <time>2020-06-26T14:16:38Z</time>
      </trkpt>
      <trkpt lat="49.50957" lon="6.31369">
        <ele>265.3</ele>
        <time>2020-06-26T14:16:39Z</time>
      </trkpt>
      <trkpt lat="49.5095" lon="6.31373">
        <ele>265.2</ele>
        <time>2020-06-26T14:16:40Z</time>
      </trkpt>
      <trkpt lat="49.50945" lon="6.31377">
        <ele>265.1</ele>
        <time>2020-06-26T14:16:41Z</time>
      </trkpt>
      <trkpt lat="49.50937" lon="6.31381">
        <ele>265</ele>
        <time>2020-06-26T14:16:42Z</time>
      </trkpt>
      <trkpt lat="49.50932" lon="6.31385">
        <ele>264.9</ele>
        <time>2020-06-26T14:16:43Z</time>
      </trkpt>
      <trkpt lat="49.50925" lon="6.31389">
        <ele>264.7</ele>
        <time>2020-06-26T14:16:44Z</time>
      </trkpt>
      <trkpt lat="49.50918" lon="6.31393">
        <ele>264.6</ele>
        <time>2020-06-26T14:16:45Z</time>
      </trkpt>
      <trkpt lat="49.50912" lon="6.31396">
        <ele>264.5</ele>
        <time>2020-06-26T14:16:46Z</time>
      </trkpt>
      <trkpt lat="49.50907" lon="6.31399">
        <ele>264.4</ele>
        <time>2020-06-26T14:16:47Z</time>
      </trkpt>
      <trkpt lat="49.50901" lon="6.31402">
        <ele>264.3</ele>
        <time>2020-06-26T14:16:48Z</time>
      </trkpt>
      <trkpt lat="49.50894" lon="6.31405">
        <ele>264.2</ele>
        <time>2020-06-26T14:16:49Z</time>
      </trkpt>
      <trkpt lat="49.50888" lon="6.31408">
        <ele>264.1</ele>
        <time>2020-06-26T14:16:50Z</time>
      </trkpt>
      <trkpt lat="49.50883" lon="6.31411">
        <ele>264</ele>
        <time>2020-06-26T14:16:51Z</time>
      </trkpt>
      <trkpt lat="49.50876" lon="6.31414">
        <ele>263.8</ele>
        <time>2020-06-26T14:16:52Z</time>
      </trkpt>
      <trkpt lat="49.50869" lon="6.31416">
        <ele>263.7</ele>
        <time>2020-06-26T14:16:53Z</time>
      </trkpt>
      <trkpt lat="49.50862" lon="6.31419">
        <ele>263.6</ele>
        <time>2020-06-26T14:16:54Z</time>
      </trkpt>
      <trkpt lat="49.50855" lon="6.31421">
        <ele>263.5</ele>
        <time>2020-06-26T14:16:55Z</time>
      </trkpt>
      <trkpt lat="49.50849" lon="6.31424">
        <ele>263.4</ele>
        <time>2020-06-26T14:16:56Z</time>
      </trkpt>
      <trkpt lat="49.50842" lon="6.31426">
        <ele>263.2</ele>
        <time>2020-06-26T14:16:57Z</time>
      </trkpt>
      <trkpt lat="49.50836" lon="6.31427">
        <ele>263.1</ele>
        <time>2020-06-26T14:16:58Z</time>
      </trkpt>
      <trkpt lat="49.50829" lon="6.31428">
        <ele>263</ele>
        <time>2020-06-26T14:16:59Z</time>
      </trkpt>
      <trkpt lat="49.50823" lon="6.3143">
        <ele>262.9</ele>
        <time>2020-06-26T14:17:00Z</time>
      </trkpt>
      <trkpt lat="49.50816" lon="6.31432">
        <ele>262.8</ele>
        <time>2020-06-26T14:17:01Z</time>
      </trkpt>
      <trkpt lat="49.5081" lon="6.31434">
        <ele>262.7</ele>
        <time>2020-06-26T14:17:02Z</time>
      </trkpt>
      <trkpt lat="49.50803" lon="6.31436">
        <ele>262.6</ele>
        <time>2020-06-26T14:17:03Z</time>
      </trkpt>
      <trkpt lat="49.50797" lon="6.31438">
        <ele>262.5</ele>
        <time>2020-06-26T14:17:04Z</time>
      </trkpt>
      <trkpt lat="49.5079" lon="6.3144">
        <ele>262.5</ele>
        <time>2020-06-26T14:17:05Z</time>
      </trkpt>
      <trkpt lat="49.50784" lon="6.31442">
        <ele>262.4</ele>
        <time>2020-06-26T14:17:06Z</time>
      </trkpt>
      <trkpt lat="49.50777" lon="6.31444">
        <ele>262.4</ele>
        <time>2020-06-26T14:17:07Z</time>
      </trkpt>
      <trkpt lat="49.50771" lon="6.31446">
        <ele>262.4</ele>
        <time>2020-06-26T14:17:08Z</time>
      </trkpt>
      <trkpt lat="49.50765" lon="6.31448">
        <ele>262.4</ele>
        <time>2020-06-26T14:17:09Z</time>
      </trkpt>
      <trkpt lat="49.50758" lon="6.3145">
        <ele>262.3</ele>
        <time>2020-06-26T14:17:10Z</time>
      </trkpt>
      <trkpt lat="49.50752" lon="6.31452">
        <ele>262.2</ele>
        <time>2020-06-26T14:17:11Z</time>
      </trkpt>
      <trkpt lat="49.50745" lon="6.31455">
        <ele>262.2</ele>
        <time>2020-06-26T14:17:12Z</time>
      </trkpt>
      <trkpt lat="49.50739" lon="6.31456">
        <ele>262.1</ele>
        <time>2020-06-26T14:17:13Z</time>
      </trkpt>
      <trkpt lat="49.50733" lon="6.31458">
        <ele>262.1</ele>
        <time>2020-06-26T14:17:14Z</time>
      </trkpt>
      <trkpt lat="49.50726" lon="6.3146">
        <ele>262.1</ele>
        <time>2020-06-26T14:17:15Z</time>
      </trkpt>
      <trkpt lat="49.5072" lon="6.31462">
        <ele>262</ele>
        <time>2020-06-26T14:17:16Z</time>
      </trkpt>
      <trkpt lat="49.50714" lon="6.31464">
        <ele>262</ele>
        <time>2020-06-26T14:17:17Z</time>
      </trkpt>
      <trkpt lat="49.50707" lon="6.31466">
        <ele>261.9</ele>
        <time>2020-06-26T14:17:18Z</time>
      </trkpt>
      <trkpt lat="49.50701" lon="6.31468">
        <ele>261.9</ele>
        <time>2020-06-26T14:17:19Z</time>
      </trkpt>
      <trkpt lat="49.50695" lon="6.3147">
        <ele>261.9</ele>
        <time>2020-06-26T14:17:20Z</time>
      </trkpt>
      <trkpt lat="49.5069" lon="6.31473">
        <ele>261.9</ele>
        <time>2020-06-26T14:17:21Z</time>
      </trkpt>
      <trkpt lat="49.50684" lon="6.31476">
        <ele>261.9</ele>
        <time>2020-06-26T14:17:22Z</time>
      </trkpt>
      <trkpt lat="49.50679" lon="6.31479">
        <ele>261.9</ele>
        <time>2020-06-26T14:17:23Z</time>
      </trkpt>
      <trkpt lat="49.50673" lon="6.31482">
        <ele>262</ele>
        <time>2020-06-26T14:17:24Z</time>
      </trkpt>
      <trkpt lat="49.50668" lon="6.31485">
        <ele>262.1</ele>
        <time>2020-06-26T14:17:25Z</time>
      </trkpt>
      <trkpt lat="49.50662" lon="6.31489">
        <ele>262.1</ele>
        <time>2020-06-26T14:17:26Z</time>
      </trkpt>
      <trkpt lat="49.50657" lon="6.31493">
        <ele>262.1</ele>
        <time>2020-06-26T14:17:27Z</time>
      </trkpt>
      <trkpt lat="49.50651" lon="6.31495">
        <ele>262.1</ele>
        <time>2020-06-26T14:17:28Z</time>
      </trkpt>
      <trkpt lat="49.50646" lon="6.31498">
        <ele>262.2</ele>
        <time>2020-06-26T14:17:29Z</time>
      </trkpt>
      <trkpt lat="49.50641" lon="6.31501">
        <ele>262.2</ele>
        <time>2020-06-26T14:17:30Z</time>
      </trkpt>
      <trkpt lat="49.50636" lon="6.31504">
        <ele>262.2</ele>
        <time>2020-06-26T14:17:31Z</time>
      </trkpt>
      <trkpt lat="49.50631" lon="6.31507">
        <ele>262.2</ele>
        <time>2020-06-26T14:17:32Z</time>
      </trkpt>
      <trkpt lat="49.50627" lon="6.3151">
        <ele>262.3</ele>
        <time>2020-06-26T14:17:33Z</time>
      </trkpt>
      <trkpt lat="49.50623" lon="6.31512">
        <ele>262.3</ele>
        <time>2020-06-26T14:17:34Z</time>
      </trkpt>
      <trkpt lat="49.50619" lon="6.31516">
        <ele>262.3</ele>
        <time>2020-06-26T14:17:35Z</time>
      </trkpt>
      <trkpt lat="49.50615" lon="6.31519">
        <ele>262.4</ele>
        <time>2020-06-26T14:17:36Z</time>
      </trkpt>
      <trkpt lat="49.50611" lon="6.31524">
        <ele>262.4</ele>
        <time>2020-06-26T14:17:37Z</time>
      </trkpt>
      <trkpt lat="49.50608" lon="6.31529">
        <ele>262.5</ele>
        <time>2020-06-26T14:17:38Z</time>
      </trkpt>
      <trkpt lat="49.50604" lon="6.31533">
        <ele>262.5</ele>
        <time>2020-06-26T14:17:39Z</time>
      </trkpt>
      <trkpt lat="49.50601" lon="6.31537">
        <ele>262.6</ele>
        <time>2020-06-26T14:17:40Z</time>
      </trkpt>
      <trkpt lat="49.50597" lon="6.31542">
        <ele>262.7</ele>
        <time>2020-06-26T14:17:41Z</time>
      </trkpt>
      <trkpt lat="49.50594" lon="6.31547">
        <ele>262.8</ele>
        <time>2020-06-26T14:17:42Z</time>
      </trkpt>
      <trkpt lat="49.5059" lon="6.31552">
        <ele>262.9</ele>
        <time>2020-06-26T14:17:43Z</time>
      </trkpt>
      <trkpt lat="49.50587" lon="6.31559">
        <ele>263</ele>
        <time>2020-06-26T14:17:44Z</time>
      </trkpt>
      <trkpt lat="49.50583" lon="6.31564">
        <ele>263.1</ele>
        <time>2020-06-26T14:17:45Z</time>
      </trkpt>
      <trkpt lat="49.5058" lon="6.3157">
        <ele>263.2</ele>
        <time>2020-06-26T14:17:46Z</time>
      </trkpt>
      <trkpt lat="49.50576" lon="6.31577">
        <ele>263.3</ele>
        <time>2020-06-26T14:17:47Z</time>
      </trkpt>
      <trkpt lat="49.50573" lon="6.31583">
        <ele>263.4</ele>
        <time>2020-06-26T14:17:48Z</time>
      </trkpt>
      <trkpt lat="49.5057" lon="6.31589">
        <ele>263.5</ele>
        <time>2020-06-26T14:17:49Z</time>
      </trkpt>
      <trkpt lat="49.50567" lon="6.31595">
        <ele>263.7</ele>
        <time>2020-06-26T14:17:50Z</time>
      </trkpt>
      <trkpt lat="49.50563" lon="6.316">
        <ele>263.9</ele>
        <time>2020-06-26T14:17:51Z</time>
      </trkpt>
      <trkpt lat="49.5056" lon="6.31606">
        <ele>263.9</ele>
        <time>2020-06-26T14:17:52Z</time>
      </trkpt>
      <trkpt lat="49.50555" lon="6.31609">
        <ele>263.9</ele>
        <time>2020-06-26T14:17:53Z</time>
      </trkpt>
      <trkpt lat="49.50551" lon="6.31613">
        <ele>263.9</ele>
        <time>2020-06-26T14:17:54Z</time>
      </trkpt>
      <trkpt lat="49.50547" lon="6.31617">
        <ele>263.9</ele>
        <time>2020-06-26T14:17:55Z</time>
      </trkpt>
      <trkpt lat="49.50544" lon="6.31622">
        <ele>263.9</ele>
        <time>2020-06-26T14:17:56Z</time>
      </trkpt>
      <trkpt lat="49.50539" lon="6.31626">
        <ele>263.9</ele>
        <time>2020-06-26T14:17:57Z</time>
      </trkpt>
      <trkpt lat="49.50535" lon="6.31631">
        <ele>263.9</ele>
        <time>2020-06-26T14:17:58Z</time>
      </trkpt>
      <trkpt lat="49.50531" lon="6.31636">
        <ele>264</ele>
        <time>2020-06-26T14:17:59Z</time>
      </trkpt>
      <trkpt lat="49.50527" lon="6.31641">
        <ele>264</ele>
        <time>2020-06-26T14:18:00Z</time>
      </trkpt>
      <trkpt lat="49.50522" lon="6.31646">
        <ele>264</ele>
        <time>2020-06-26T14:18:01Z</time>
      </trkpt>
      <trkpt lat="49.50518" lon="6.31652">
        <ele>264.1</ele>
        <time>2020-06-26T14:18:02Z</time>
      </trkpt>
      <trkpt lat="49.50514" lon="6.31658">
        <ele>264.1</ele>
        <time>2020-06-26T14:18:03Z</time>
      </trkpt>
      <trkpt lat="49.5051" lon="6.31664">
        <ele>264.2</ele>
        <time>2020-06-26T14:18:04Z</time>
      </trkpt>
      <trkpt lat="49.50506" lon="6.3167">
        <ele>264.3</ele>
        <time>2020-06-26T14:18:05Z</time>
      </trkpt>
      <trkpt lat="49.50502" lon="6.31676">
        <ele>264.3</ele>
        <time>2020-06-26T14:18:06Z</time>
      </trkpt>
      <trkpt lat="49.50499" lon="6.31682">
        <ele>264.2</ele>
        <time>2020-06-26T14:18:07Z</time>
      </trkpt>
      <trkpt lat="49.50495" lon="6.31689">
        <ele>264.2</ele>
        <time>2020-06-26T14:18:08Z</time>
      </trkpt>
      <trkpt lat="49.50491" lon="6.31695">
        <ele>264.2</ele>
        <time>2020-06-26T14:18:09Z</time>
      </trkpt>
      <trkpt lat="49.50489" lon="6.31703">
        <ele>264.2</ele>
        <time>2020-06-26T14:18:10Z</time>
      </trkpt>
      <trkpt lat="49.50485" lon="6.3171">
        <ele>264.3</ele>
        <time>2020-06-26T14:18:11Z</time>
      </trkpt>
      <trkpt lat="49.50482" lon="6.31717">
        <ele>264.3</ele>
        <time>2020-06-26T14:18:12Z</time>
      </trkpt>
      <trkpt lat="49.50478" lon="6.31724">
        <ele>264.4</ele>
        <time>2020-06-26T14:18:13Z</time>
      </trkpt>
      <trkpt lat="49.50474" lon="6.31732">
        <ele>264.4</ele>
        <time>2020-06-26T14:18:14Z</time>
      </trkpt>
      <trkpt lat="49.50471" lon="6.31738">
        <ele>264.5</ele>
        <time>2020-06-26T14:18:15Z</time>
      </trkpt>
      <trkpt lat="49.50468" lon="6.31745">
        <ele>264.5</ele>
        <time>2020-06-26T14:18:16Z</time>
      </trkpt>
      <trkpt lat="49.50465" lon="6.31751">
        <ele>264.6</ele>
        <time>2020-06-26T14:18:17Z</time>
      </trkpt>
      <trkpt lat="49.50462" lon="6.31758">
        <ele>264.6</ele>
        <time>2020-06-26T14:18:18Z</time>
      </trkpt>
      <trkpt lat="49.50459" lon="6.31765">
        <ele>264.7</ele>
        <time>2020-06-26T14:18:19Z</time>
      </trkpt>
      <trkpt lat="49.50456" lon="6.31771">
        <ele>264.7</ele>
        <time>2020-06-26T14:18:20Z</time>
      </trkpt>
      <trkpt lat="49.50454" lon="6.31777">
        <ele>264.8</ele>
        <time>2020-06-26T14:18:21Z</time>
      </trkpt>
      <trkpt lat="49.5045" lon="6.31785">
        <ele>264.9</ele>
        <time>2020-06-26T14:18:22Z</time>
      </trkpt>
      <trkpt lat="49.50448" lon="6.31792">
        <ele>264.9</ele>
        <time>2020-06-26T14:18:23Z</time>
      </trkpt>
      <trkpt lat="49.50445" lon="6.31798">
        <ele>265</ele>
        <time>2020-06-26T14:18:24Z</time>
      </trkpt>
      <trkpt lat="49.50442" lon="6.31805">
        <ele>265.1</ele>
        <time>2020-06-26T14:18:25Z</time>
      </trkpt>
      <trkpt lat="49.50439" lon="6.31811">
        <ele>265.2</ele>
        <time>2020-06-26T14:18:26Z</time>
      </trkpt>
      <trkpt lat="49.50436" lon="6.31818">
        <ele>265.2</ele>
        <time>2020-06-26T14:18:27Z</time>
      </trkpt>
      <trkpt lat="49.50433" lon="6.31824">
        <ele>265.4</ele>
        <time>2020-06-26T14:18:28Z</time>
      </trkpt>
      <trkpt lat="49.50431" lon="6.31829">
        <ele>265.5</ele>
        <time>2020-06-26T14:18:29Z</time>
      </trkpt>
      <trkpt lat="49.50428" lon="6.31836">
        <ele>265.6</ele>
        <time>2020-06-26T14:18:30Z</time>
      </trkpt>
      <trkpt lat="49.50425" lon="6.31842">
        <ele>265.8</ele>
        <time>2020-06-26T14:18:31Z</time>
      </trkpt>
      <trkpt lat="49.50421" lon="6.31849">
        <ele>266</ele>
        <time>2020-06-26T14:18:32Z</time>
      </trkpt>
      <trkpt lat="49.50418" lon="6.31855">
        <ele>266.1</ele>
        <time>2020-06-26T14:18:33Z</time>
      </trkpt>
      <trkpt lat="49.50415" lon="6.31861">
        <ele>266.1</ele>
        <time>2020-06-26T14:18:34Z</time>
      </trkpt>
      <trkpt lat="49.50412" lon="6.31866">
        <ele>266.2</ele>
        <time>2020-06-26T14:18:35Z</time>
      </trkpt>
      <trkpt lat="49.50409" lon="6.31873">
        <ele>266.3</ele>
        <time>2020-06-26T14:18:36Z</time>
      </trkpt>
      <trkpt lat="49.50406" lon="6.31878">
        <ele>266.4</ele>
        <time>2020-06-26T14:18:37Z</time>
      </trkpt>
      <trkpt lat="49.50403" lon="6.31887">
        <ele>266.5</ele>
        <time>2020-06-26T14:18:38Z</time>
      </trkpt>
      <trkpt lat="49.504" lon="6.31893">
        <ele>266.5</ele>
        <time>2020-06-26T14:18:39Z</time>
      </trkpt>
      <trkpt lat="49.50397" lon="6.31899">
        <ele>266.6</ele>
        <time>2020-06-26T14:18:40Z</time>
      </trkpt>
      <trkpt lat="49.50394" lon="6.31905">
        <ele>266.7</ele>
        <time>2020-06-26T14:18:41Z</time>
      </trkpt>
      <trkpt lat="49.50391" lon="6.31912">
        <ele>266.7</ele>
        <time>2020-06-26T14:18:42Z</time>
      </trkpt>
      <trkpt lat="49.50388" lon="6.31917">
        <ele>266.8</ele>
        <time>2020-06-26T14:18:43Z</time>
      </trkpt>
      <trkpt lat="49.50385" lon="6.31924">
        <ele>266.9</ele>
        <time>2020-06-26T14:18:44Z</time>
      </trkpt>
      <trkpt lat="49.50381" lon="6.31931">
        <ele>267</ele>
        <time>2020-06-26T14:18:45Z</time>
      </trkpt>
      <trkpt lat="49.50378" lon="6.31938">
        <ele>267</ele>
        <time>2020-06-26T14:18:46Z</time>
      </trkpt>
      <trkpt lat="49.50374" lon="6.31945">
        <ele>267.1</ele>
        <time>2020-06-26T14:18:47Z</time>
      </trkpt>
      <trkpt lat="49.50371" lon="6.31952">
        <ele>267.2</ele>
        <time>2020-06-26T14:18:48Z</time>
      </trkpt>
      <trkpt lat="49.50367" lon="6.31958">
        <ele>267.2</ele>
        <time>2020-06-26T14:18:49Z</time>
      </trkpt>
      <trkpt lat="49.50364" lon="6.31964">
        <ele>267.3</ele>
        <time>2020-06-26T14:18:50Z</time>
      </trkpt>
      <trkpt lat="49.5036" lon="6.31972">
        <ele>267.4</ele>
        <time>2020-06-26T14:18:51Z</time>
      </trkpt>
      <trkpt lat="49.50357" lon="6.31978">
        <ele>267.4</ele>
        <time>2020-06-26T14:18:52Z</time>
      </trkpt>
      <trkpt lat="49.50354" lon="6.31984">
        <ele>267.5</ele>
        <time>2020-06-26T14:18:53Z</time>
      </trkpt>
      <trkpt lat="49.50351" lon="6.3199">
        <ele>267.6</ele>
        <time>2020-06-26T14:18:54Z</time>
      </trkpt>
      <trkpt lat="49.50349" lon="6.31994">
        <ele>267.6</ele>
        <time>2020-06-26T14:18:55Z</time>
      </trkpt>
      <trkpt lat="49.50347" lon="6.31999">
        <ele>267.7</ele>
        <time>2020-06-26T14:18:56Z</time>
      </trkpt>
      <trkpt lat="49.50344" lon="6.32005">
        <ele>267.8</ele>
        <time>2020-06-26T14:18:57Z</time>
      </trkpt>
      <trkpt lat="49.50341" lon="6.32011">
        <ele>267.9</ele>
        <time>2020-06-26T14:18:58Z</time>
      </trkpt>
      <trkpt lat="49.50339" lon="6.32015">
        <ele>268</ele>
        <time>2020-06-26T14:18:59Z</time>
      </trkpt>
      <trkpt lat="49.50336" lon="6.32022">
        <ele>268.1</ele>
        <time>2020-06-26T14:19:00Z</time>
      </trkpt>
      <trkpt lat="49.50333" lon="6.32028">
        <ele>268.2</ele>
        <time>2020-06-26T14:19:01Z</time>
      </trkpt>
      <trkpt lat="49.5033" lon="6.32034">
        <ele>268.3</ele>
        <time>2020-06-26T14:19:02Z</time>
      </trkpt>
      <trkpt lat="49.50326" lon="6.32042">
        <ele>268.4</ele>
        <time>2020-06-26T14:19:03Z</time>
      </trkpt>
      <trkpt lat="49.50323" lon="6.32048">
        <ele>268.5</ele>
        <time>2020-06-26T14:19:04Z</time>
      </trkpt>
      <trkpt lat="49.5032" lon="6.32056">
        <ele>268.7</ele>
        <time>2020-06-26T14:19:05Z</time>
      </trkpt>
      <trkpt lat="49.50316" lon="6.32063">
        <ele>268.8</ele>
        <time>2020-06-26T14:19:06Z</time>
      </trkpt>
      <trkpt lat="49.50313" lon="6.3207">
        <ele>268.9</ele>
        <time>2020-06-26T14:19:07Z</time>
      </trkpt>
      <trkpt lat="49.5031" lon="6.32077">
        <ele>269</ele>
        <time>2020-06-26T14:19:08Z</time>
      </trkpt>
      <trkpt lat="49.50308" lon="6.32083">
        <ele>269.1</ele>
        <time>2020-06-26T14:19:09Z</time>
      </trkpt>
      <trkpt lat="49.50305" lon="6.32089">
        <ele>269.2</ele>
        <time>2020-06-26T14:19:10Z</time>
      </trkpt>
      <trkpt lat="49.50301" lon="6.32097">
        <ele>269.2</ele>
        <time>2020-06-26T14:19:11Z</time>
      </trkpt>
      <trkpt lat="49.50298" lon="6.32102">
        <ele>269.3</ele>
        <time>2020-06-26T14:19:12Z</time>
      </trkpt>
      <trkpt lat="49.50295" lon="6.32108">
        <ele>269.3</ele>
        <time>2020-06-26T14:19:13Z</time>
      </trkpt>
      <trkpt lat="49.50293" lon="6.32114">
        <ele>269.4</ele>
        <time>2020-06-26T14:19:14Z</time>
      </trkpt>
      <trkpt lat="49.5029" lon="6.3212">
        <ele>269.4</ele>
        <time>2020-06-26T14:19:15Z</time>
      </trkpt>
      <trkpt lat="49.50287" lon="6.32126">
        <ele>269.4</ele>
        <time>2020-06-26T14:19:16Z</time>
      </trkpt>
      <trkpt lat="49.50284" lon="6.32132">
        <ele>269.5</ele>
        <time>2020-06-26T14:19:17Z</time>
      </trkpt>
      <trkpt lat="49.50281" lon="6.32139">
        <ele>269.5</ele>
        <time>2020-06-26T14:19:18Z</time>
      </trkpt>
      <trkpt lat="49.50278" lon="6.32146">
        <ele>269.6</ele>
        <time>2020-06-26T14:19:19Z</time>
      </trkpt>
      <trkpt lat="49.50275" lon="6.32154">
        <ele>269.6</ele>
        <time>2020-06-26T14:19:20Z</time>
      </trkpt>
      <trkpt lat="49.50272" lon="6.32161">
        <ele>269.7</ele>
        <time>2020-06-26T14:19:21Z</time>
      </trkpt>
      <trkpt lat="49.50268" lon="6.32168">
        <ele>269.7</ele>
        <time>2020-06-26T14:19:22Z</time>
      </trkpt>
      <trkpt lat="49.50264" lon="6.32175">
        <ele>269.7</ele>
        <time>2020-06-26T14:19:23Z</time>
      </trkpt>
      <trkpt lat="49.50261" lon="6.32181">
        <ele>269.8</ele>
        <time>2020-06-26T14:19:24Z</time>
      </trkpt>
      <trkpt lat="49.50258" lon="6.32188">
        <ele>269.8</ele>
        <time>2020-06-26T14:19:25Z</time>
      </trkpt>
      <trkpt lat="49.50254" lon="6.32196">
        <ele>269.8</ele>
        <time>2020-06-26T14:19:26Z</time>
      </trkpt>
      <trkpt lat="49.50252" lon="6.32201">
        <ele>269.8</ele>
        <time>2020-06-26T14:19:27Z</time>
      </trkpt>
      <trkpt lat="49.50249" lon="6.32207">
        <ele>269.8</ele>
        <time>2020-06-26T14:19:28Z</time>
      </trkpt>
      <trkpt lat="49.50247" lon="6.32214">
        <ele>269.8</ele>
        <time>2020-06-26T14:19:29Z</time>
      </trkpt>
      <trkpt lat="49.50244" lon="6.32219">
        <ele>269.8</ele>
        <time>2020-06-26T14:19:30Z</time>
      </trkpt>
      <trkpt lat="49.5024" lon="6.32227">
        <ele>269.8</ele>
        <time>2020-06-26T14:19:31Z</time>
      </trkpt>
      <trkpt lat="49.50237" lon="6.32235">
        <ele>269.8</ele>
        <time>2020-06-26T14:19:32Z</time>
      </trkpt>
      <trkpt lat="49.50233" lon="6.32242">
        <ele>269.8</ele>
        <time>2020-06-26T14:19:33Z</time>
      </trkpt>
      <trkpt lat="49.50229" lon="6.32248">
        <ele>269.8</ele>
        <time>2020-06-26T14:19:34Z</time>
      </trkpt>
      <trkpt lat="49.50225" lon="6.32255">
        <ele>269.8</ele>
        <time>2020-06-26T14:19:35Z</time>
      </trkpt>
      <trkpt lat="49.50221" lon="6.32264">
        <ele>269.8</ele>
        <time>2020-06-26T14:19:36Z</time>
      </trkpt>
      <trkpt lat="49.50217" lon="6.3227">
        <ele>269.7</ele>
        <time>2020-06-26T14:19:37Z</time>
      </trkpt>
      <trkpt lat="49.50213" lon="6.32275">
        <ele>269.7</ele>
        <time>2020-06-26T14:19:38Z</time>
      </trkpt>
      <trkpt lat="49.50209" lon="6.32281">
        <ele>269.6</ele>
        <time>2020-06-26T14:19:39Z</time>
      </trkpt>
      <trkpt lat="49.50204" lon="6.32287">
        <ele>269.6</ele>
        <time>2020-06-26T14:19:40Z</time>
      </trkpt>
      <trkpt lat="49.50199" lon="6.32293">
        <ele>269.5</ele>
        <time>2020-06-26T14:19:41Z</time>
      </trkpt>
      <trkpt lat="49.50195" lon="6.32298">
        <ele>269.5</ele>
        <time>2020-06-26T14:19:42Z</time>
      </trkpt>
      <trkpt lat="49.50191" lon="6.32303">
        <ele>269.4</ele>
        <time>2020-06-26T14:19:43Z</time>
      </trkpt>
      <trkpt lat="49.50187" lon="6.32307">
        <ele>269.4</ele>
        <time>2020-06-26T14:19:44Z</time>
      </trkpt>
      <trkpt lat="49.50182" lon="6.32312">
        <ele>269.3</ele>
        <time>2020-06-26T14:19:45Z</time>
      </trkpt>
      <trkpt lat="49.50176" lon="6.32318">
        <ele>269.3</ele>
        <time>2020-06-26T14:19:46Z</time>
      </trkpt>
      <trkpt lat="49.50171" lon="6.32323">
        <ele>269.3</ele>
        <time>2020-06-26T14:19:47Z</time>
      </trkpt>
      <trkpt lat="49.50166" lon="6.32328">
        <ele>269.2</ele>
        <time>2020-06-26T14:19:48Z</time>
      </trkpt>
      <trkpt lat="49.50162" lon="6.32333">
        <ele>269.2</ele>
        <time>2020-06-26T14:19:49Z</time>
      </trkpt>
      <trkpt lat="49.50157" lon="6.32338">
        <ele>269.1</ele>
        <time>2020-06-26T14:19:50Z</time>
      </trkpt>
      <trkpt lat="49.50153" lon="6.32342">
        <ele>269</ele>
        <time>2020-06-26T14:19:51Z</time>
      </trkpt>
      <trkpt lat="49.50148" lon="6.32347">
        <ele>268.9</ele>
        <time>2020-06-26T14:19:52Z</time>
      </trkpt>
      <trkpt lat="49.50142" lon="6.32353">
        <ele>268.8</ele>
        <time>2020-06-26T14:19:53Z</time>
      </trkpt>
      <trkpt lat="49.50137" lon="6.32358">
        <ele>268.7</ele>
        <time>2020-06-26T14:19:54Z</time>
      </trkpt>
      <trkpt lat="49.50131" lon="6.32363">
        <ele>268.7</ele>
        <time>2020-06-26T14:19:55Z</time>
      </trkpt>
      <trkpt lat="49.50127" lon="6.32367">
        <ele>268.6</ele>
        <time>2020-06-26T14:19:56Z</time>
      </trkpt>
      <trkpt lat="49.50122" lon="6.32372">
        <ele>268.6</ele>
        <time>2020-06-26T14:19:57Z</time>
      </trkpt>
      <trkpt lat="49.50117" lon="6.32377">
        <ele>268.5</ele>
        <time>2020-06-26T14:19:58Z</time>
      </trkpt>
      <trkpt lat="49.50112" lon="6.32383">
        <ele>268.5</ele>
        <time>2020-06-26T14:19:59Z</time>
      </trkpt>
      <trkpt lat="49.50107" lon="6.32388">
        <ele>268.4</ele>
        <time>2020-06-26T14:20:00Z</time>
      </trkpt>
      <trkpt lat="49.50101" lon="6.32394">
        <ele>268.3</ele>
        <time>2020-06-26T14:20:01Z</time>
      </trkpt>
      <trkpt lat="49.50097" lon="6.32398">
        <ele>268.3</ele>
        <time>2020-06-26T14:20:02Z</time>
      </trkpt>
      <trkpt lat="49.50093" lon="6.32403">
        <ele>268.2</ele>
        <time>2020-06-26T14:20:03Z</time>
      </trkpt>
      <trkpt lat="49.50089" lon="6.32407">
        <ele>268.1</ele>
        <time>2020-06-26T14:20:04Z</time>
      </trkpt>
      <trkpt lat="49.50084" lon="6.32413">
        <ele>268</ele>
        <time>2020-06-26T14:20:05Z</time>
      </trkpt>
      <trkpt lat="49.50078" lon="6.32418">
        <ele>267.9</ele>
        <time>2020-06-26T14:20:06Z</time>
      </trkpt>
      <trkpt lat="49.50072" lon="6.32424">
        <ele>267.7</ele>
        <time>2020-06-26T14:20:07Z</time>
      </trkpt>
      <trkpt lat="49.50068" lon="6.32429">
        <ele>267.6</ele>
        <time>2020-06-26T14:20:08Z</time>
      </trkpt>
      <trkpt lat="49.50062" lon="6.32434">
        <ele>267.5</ele>
        <time>2020-06-26T14:20:09Z</time>
      </trkpt>
      <trkpt lat="49.50057" lon="6.32439">
        <ele>267.3</ele>
        <time>2020-06-26T14:20:10Z</time>
      </trkpt>
      <trkpt lat="49.50051" lon="6.32445">
        <ele>267.2</ele>
        <time>2020-06-26T14:20:11Z</time>
      </trkpt>
      <trkpt lat="49.50045" lon="6.3245">
        <ele>267</ele>
        <time>2020-06-26T14:20:12Z</time>
      </trkpt>
      <trkpt lat="49.5004" lon="6.32456">
        <ele>266.9</ele>
        <time>2020-06-26T14:20:13Z</time>
      </trkpt>
      <trkpt lat="49.50034" lon="6.32461">
        <ele>266.8</ele>
        <time>2020-06-26T14:20:14Z</time>
      </trkpt>
      <trkpt lat="49.50029" lon="6.32466">
        <ele>266.7</ele>
        <time>2020-06-26T14:20:15Z</time>
      </trkpt>
      <trkpt lat="49.50024" lon="6.32471">
        <ele>266.7</ele>
        <time>2020-06-26T14:20:16Z</time>
      </trkpt>
      <trkpt lat="49.50019" lon="6.32476">
        <ele>266.7</ele>
        <time>2020-06-26T14:20:17Z</time>
      </trkpt>
      <trkpt lat="49.50013" lon="6.32482">
        <ele>266.7</ele>
        <time>2020-06-26T14:20:18Z</time>
      </trkpt>
      <trkpt lat="49.50009" lon="6.32488">
        <ele>266.8</ele>
        <time>2020-06-26T14:20:19Z</time>
      </trkpt>
      <trkpt lat="49.50004" lon="6.32494">
        <ele>266.9</ele>
        <time>2020-06-26T14:20:20Z</time>
      </trkpt>
      <trkpt lat="49.5" lon="6.325">
        <ele>267.1</ele>
        <time>2020-06-26T14:20:21Z</time>
      </trkpt>
      <trkpt lat="49.49997" lon="6.32506">
        <ele>267</ele>
        <time>2020-06-26T14:20:22Z</time>
      </trkpt>
      <trkpt lat="49.49992" lon="6.32511">
        <ele>266.8</ele>
        <time>2020-06-26T14:20:23Z</time>
      </trkpt>
      <trkpt lat="49.49987" lon="6.32515">
        <ele>266.7</ele>
        <time>2020-06-26T14:20:24Z</time>
      </trkpt>
      <trkpt lat="49.49982" lon="6.32518">
        <ele>266.5</ele>
        <time>2020-06-26T14:20:25Z</time>
      </trkpt>
      <trkpt lat="49.49978" lon="6.32521">
        <ele>266.4</ele>
        <time>2020-06-26T14:20:26Z</time>
      </trkpt>
      <trkpt lat="49.49972" lon="6.32525">
        <ele>266.2</ele>
        <time>2020-06-26T14:20:27Z</time>
      </trkpt>
      <trkpt lat="49.49967" lon="6.32529">
        <ele>266.1</ele>
        <time>2020-06-26T14:20:28Z</time>
      </trkpt>
      <trkpt lat="49.49961" lon="6.32534">
        <ele>266</ele>
        <time>2020-06-26T14:20:29Z</time>
      </trkpt>
      <trkpt lat="49.49955" lon="6.32539">
        <ele>265.8</ele>
        <time>2020-06-26T14:20:30Z</time>
      </trkpt>
      <trkpt lat="49.4995" lon="6.32543">
        <ele>265.7</ele>
        <time>2020-06-26T14:20:31Z</time>
      </trkpt>
      <trkpt lat="49.49945" lon="6.32548">
        <ele>265.5</ele>
        <time>2020-06-26T14:20:32Z</time>
      </trkpt>
      <trkpt lat="49.4994" lon="6.32554">
        <ele>265.4</ele>
        <time>2020-06-26T14:20:33Z</time>
      </trkpt>
      <trkpt lat="49.49934" lon="6.3256">
        <ele>265.3</ele>
        <time>2020-06-26T14:20:34Z</time>
      </trkpt>
      <trkpt lat="49.49929" lon="6.32565">
        <ele>265.2</ele>
        <time>2020-06-26T14:20:35Z</time>
      </trkpt>
      <trkpt lat="49.49924" lon="6.32571">
        <ele>265.1</ele>
        <time>2020-06-26T14:20:36Z</time>
      </trkpt>
      <trkpt lat="49.49919" lon="6.32578">
        <ele>265</ele>
        <time>2020-06-26T14:20:37Z</time>
      </trkpt>
      <trkpt lat="49.49914" lon="6.32584">
        <ele>264.9</ele>
        <time>2020-06-26T14:20:38Z</time>
      </trkpt>
      <trkpt lat="49.49909" lon="6.3259">
        <ele>264.8</ele>
        <time>2020-06-26T14:20:39Z</time>
      </trkpt>
      <trkpt lat="49.49904" lon="6.32597">
        <ele>264.7</ele>
        <time>2020-06-26T14:20:40Z</time>
      </trkpt>
      <trkpt lat="49.49899" lon="6.32603">
        <ele>264.7</ele>
        <time>2020-06-26T14:20:41Z</time>
      </trkpt>
      <trkpt lat="49.49894" lon="6.32609">
        <ele>264.6</ele>
        <time>2020-06-26T14:20:42Z</time>
      </trkpt>
      <trkpt lat="49.49889" lon="6.32615">
        <ele>264.6</ele>
        <time>2020-06-26T14:20:43Z</time>
      </trkpt>
      <trkpt lat="49.49884" lon="6.32621">
        <ele>264.6</ele>
        <time>2020-06-26T14:20:44Z</time>
      </trkpt>
      <trkpt lat="49.49879" lon="6.32627">
        <ele>264.6</ele>
        <time>2020-06-26T14:20:45Z</time>
      </trkpt>
      <trkpt lat="49.49874" lon="6.32635">
        <ele>264.6</ele>
        <time>2020-06-26T14:20:46Z</time>
      </trkpt>
      <trkpt lat="49.49869" lon="6.32642">
        <ele>264.7</ele>
        <time>2020-06-26T14:20:47Z</time>
      </trkpt>
      <trkpt lat="49.49864" lon="6.32648">
        <ele>264.8</ele>
        <time>2020-06-26T14:20:48Z</time>
      </trkpt>
      <trkpt lat="49.4986" lon="6.32654">
        <ele>264.8</ele>
        <time>2020-06-26T14:20:49Z</time>
      </trkpt>
      <trkpt lat="49.49855" lon="6.32661">
        <ele>264.9</ele>
        <time>2020-06-26T14:20:50Z</time>
      </trkpt>
      <trkpt lat="49.49851" lon="6.32667">
        <ele>264.9</ele>
        <time>2020-06-26T14:20:51Z</time>
      </trkpt>
      <trkpt lat="49.49847" lon="6.32674">
        <ele>264.9</ele>
        <time>2020-06-26T14:20:52Z</time>
      </trkpt>
      <trkpt lat="49.49843" lon="6.3268">
        <ele>264.9</ele>
        <time>2020-06-26T14:20:53Z</time>
      </trkpt>
      <trkpt lat="49.49839" lon="6.32685">
        <ele>264.9</ele>
        <time>2020-06-26T14:20:54Z</time>
      </trkpt>
      <trkpt lat="49.49835" lon="6.32691">
        <ele>265</ele>
        <time>2020-06-26T14:20:55Z</time>
      </trkpt>
      <trkpt lat="49.4983" lon="6.32698">
        <ele>265</ele>
        <time>2020-06-26T14:20:56Z</time>
      </trkpt>
      <trkpt lat="49.49825" lon="6.32705">
        <ele>265.1</ele>
        <time>2020-06-26T14:20:57Z</time>
      </trkpt>
      <trkpt lat="49.49821" lon="6.3271">
        <ele>265.2</ele>
        <time>2020-06-26T14:20:58Z</time>
      </trkpt>
      <trkpt lat="49.49817" lon="6.32716">
        <ele>265.3</ele>
        <time>2020-06-26T14:20:59Z</time>
      </trkpt>
      <trkpt lat="49.49813" lon="6.32721">
        <ele>265.4</ele>
        <time>2020-06-26T14:21:00Z</time>
      </trkpt>
      <trkpt lat="49.4981" lon="6.32727">
        <ele>265.5</ele>
        <time>2020-06-26T14:21:01Z</time>
      </trkpt>
      <trkpt lat="49.49806" lon="6.32733">
        <ele>265.6</ele>
        <time>2020-06-26T14:21:02Z</time>
      </trkpt>
      <trkpt lat="49.49802" lon="6.32739">
        <ele>265.7</ele>
        <time>2020-06-26T14:21:03Z</time>
      </trkpt>
      <trkpt lat="49.49799" lon="6.32745">
        <ele>265.9</ele>
        <time>2020-06-26T14:21:04Z</time>
      </trkpt>
      <trkpt lat="49.49795" lon="6.32749">
        <ele>265.9</ele>
        <time>2020-06-26T14:21:05Z</time>
      </trkpt>
      <trkpt lat="49.49792" lon="6.32754">
        <ele>266</ele>
        <time>2020-06-26T14:21:06Z</time>
      </trkpt>
      <trkpt lat="49.49789" lon="6.32759">
        <ele>266.1</ele>
        <time>2020-06-26T14:21:07Z</time>
      </trkpt>
      <trkpt lat="49.49785" lon="6.32764">
        <ele>266.1</ele>
        <time>2020-06-26T14:21:08Z</time>
      </trkpt>
      <trkpt lat="49.49782" lon="6.32769">
        <ele>266.2</ele>
        <time>2020-06-26T14:21:09Z</time>
      </trkpt>
      <trkpt lat="49.49779" lon="6.32775">
        <ele>266.3</ele>
        <time>2020-06-26T14:21:10Z</time>
      </trkpt>
      <trkpt lat="49.49776" lon="6.3278">
        <ele>266.4</ele>
        <time>2020-06-26T14:21:11Z</time>
      </trkpt>
      <trkpt lat="49.49773" lon="6.32786">
        <ele>266.6</ele>
        <time>2020-06-26T14:21:12Z</time>
      </trkpt>
      <trkpt lat="49.4977" lon="6.32791">
        <ele>266.7</ele>
        <time>2020-06-26T14:21:13Z</time>
      </trkpt>
      <trkpt lat="49.49767" lon="6.32796">
        <ele>266.8</ele>
        <time>2020-06-26T14:21:14Z</time>
      </trkpt>
      <trkpt lat="49.49764" lon="6.32801">
        <ele>267</ele>
        <time>2020-06-26T14:21:15Z</time>
      </trkpt>
      <trkpt lat="49.49761" lon="6.32806">
        <ele>267.1</ele>
        <time>2020-06-26T14:21:16Z</time>
      </trkpt>
      <trkpt lat="49.49758" lon="6.32813">
        <ele>267.3</ele>
        <time>2020-06-26T14:21:17Z</time>
      </trkpt>
      <trkpt lat="49.49755" lon="6.32819">
        <ele>267.4</ele>
        <time>2020-06-26T14:21:18Z</time>
      </trkpt>
      <trkpt lat="49.49753" lon="6.32825">
        <ele>267.5</ele>
        <time>2020-06-26T14:21:19Z</time>
      </trkpt>
      <trkpt lat="49.4975" lon="6.32831">
        <ele>267.6</ele>
        <time>2020-06-26T14:21:20Z</time>
      </trkpt>
      <trkpt lat="49.49749" lon="6.32835">
        <ele>267.7</ele>
        <time>2020-06-26T14:21:21Z</time>
      </trkpt>
      <trkpt lat="49.49746" lon="6.3284">
        <ele>267.7</ele>
        <time>2020-06-26T14:21:22Z</time>
      </trkpt>
      <trkpt lat="49.49744" lon="6.32844">
        <ele>267.8</ele>
        <time>2020-06-26T14:21:23Z</time>
      </trkpt>
      <trkpt lat="49.49742" lon="6.32848">
        <ele>267.8</ele>
        <time>2020-06-26T14:21:24Z</time>
      </trkpt>
      <trkpt lat="49.4974" lon="6.32852">
        <ele>267.8</ele>
        <time>2020-06-26T14:21:25Z</time>
      </trkpt>
      <trkpt lat="49.49738" lon="6.32857">
        <ele>267.8</ele>
        <time>2020-06-26T14:21:26Z</time>
      </trkpt>
      <trkpt lat="49.49736" lon="6.32862">
        <ele>267.9</ele>
        <time>2020-06-26T14:21:27Z</time>
      </trkpt>
      <trkpt lat="49.49733" lon="6.32868">
        <ele>267.9</ele>
        <time>2020-06-26T14:21:28Z</time>
      </trkpt>
      <trkpt lat="49.49731" lon="6.32873">
        <ele>267.9</ele>
        <time>2020-06-26T14:21:29Z</time>
      </trkpt>
      <trkpt lat="49.49728" lon="6.32879">
        <ele>267.9</ele>
        <time>2020-06-26T14:21:30Z</time>
      </trkpt>
      <trkpt lat="49.49725" lon="6.32884">
        <ele>267.9</ele>
        <time>2020-06-26T14:21:31Z</time>
      </trkpt>
      <trkpt lat="49.49723" lon="6.3289">
        <ele>267.9</ele>
        <time>2020-06-26T14:21:32Z</time>
      </trkpt>
      <trkpt lat="49.4972" lon="6.32896">
        <ele>267.8</ele>
        <time>2020-06-26T14:21:33Z</time>
      </trkpt>
      <trkpt lat="49.49717" lon="6.32902">
        <ele>267.8</ele>
        <time>2020-06-26T14:21:34Z</time>
      </trkpt>
      <trkpt lat="49.49714" lon="6.32909">
        <ele>267.8</ele>
        <time>2020-06-26T14:21:35Z</time>
      </trkpt>
      <trkpt lat="49.49711" lon="6.32914">
        <ele>267.8</ele>
        <time>2020-06-26T14:21:36Z</time>
      </trkpt>
      <trkpt lat="49.49708" lon="6.32919">
        <ele>267.7</ele>
        <time>2020-06-26T14:21:37Z</time>
      </trkpt>
      <trkpt lat="49.49706" lon="6.32925">
        <ele>267.7</ele>
        <time>2020-06-26T14:21:38Z</time>
      </trkpt>
      <trkpt lat="49.49703" lon="6.3293">
        <ele>267.7</ele>
        <time>2020-06-26T14:21:39Z</time>
      </trkpt>
      <trkpt lat="49.497" lon="6.32935">
        <ele>267.7</ele>
        <time>2020-06-26T14:21:40Z</time>
      </trkpt>
      <trkpt lat="49.49697" lon="6.32941">
        <ele>267.6</ele>
        <time>2020-06-26T14:21:41Z</time>
      </trkpt>
      <trkpt lat="49.49694" lon="6.32946">
        <ele>267.6</ele>
        <time>2020-06-26T14:21:42Z</time>
      </trkpt>
      <trkpt lat="49.49691" lon="6.32951">
        <ele>267.5</ele>
        <time>2020-06-26T14:21:43Z</time>
      </trkpt>
      <trkpt lat="49.49688" lon="6.32957">
        <ele>267.5</ele>
        <time>2020-06-26T14:21:44Z</time>
      </trkpt>
      <trkpt lat="49.49684" lon="6.32963">
        <ele>267.4</ele>
        <time>2020-06-26T14:21:45Z</time>
      </trkpt>
      <trkpt lat="49.49681" lon="6.32969">
        <ele>267.4</ele>
        <time>2020-06-26T14:21:46Z</time>
      </trkpt>
      <trkpt lat="49.49677" lon="6.32976">
        <ele>267.3</ele>
        <time>2020-06-26T14:21:47Z</time>
      </trkpt>
      <trkpt lat="49.49673" lon="6.32982">
        <ele>267.3</ele>
        <time>2020-06-26T14:21:48Z</time>
      </trkpt>
      <trkpt lat="49.4967" lon="6.32987">
        <ele>267.2</ele>
        <time>2020-06-26T14:21:49Z</time>
      </trkpt>
      <trkpt lat="49.49667" lon="6.32993">
        <ele>267.2</ele>
        <time>2020-06-26T14:21:50Z</time>
      </trkpt>
      <trkpt lat="49.49663" lon="6.32999">
        <ele>267.1</ele>
        <time>2020-06-26T14:21:51Z</time>
      </trkpt>
      <trkpt lat="49.4966" lon="6.33004">
        <ele>267</ele>
        <time>2020-06-26T14:21:52Z</time>
      </trkpt>
      <trkpt lat="49.49657" lon="6.33009">
        <ele>267</ele>
        <time>2020-06-26T14:21:53Z</time>
      </trkpt>
      <trkpt lat="49.49653" lon="6.33014">
        <ele>266.9</ele>
        <time>2020-06-26T14:21:54Z</time>
      </trkpt>
      <trkpt lat="49.4965" lon="6.3302">
        <ele>266.8</ele>
        <time>2020-06-26T14:21:55Z</time>
      </trkpt>
      <trkpt lat="49.49646" lon="6.33026">
        <ele>266.7</ele>
        <time>2020-06-26T14:21:56Z</time>
      </trkpt>
      <trkpt lat="49.49642" lon="6.33032">
        <ele>266.6</ele>
        <time>2020-06-26T14:21:57Z</time>
      </trkpt>
      <trkpt lat="49.49638" lon="6.33038">
        <ele>266.5</ele>
        <time>2020-06-26T14:21:58Z</time>
      </trkpt>
      <trkpt lat="49.49635" lon="6.33043">
        <ele>266.4</ele>
        <time>2020-06-26T14:21:59Z</time>
      </trkpt>
      <trkpt lat="49.49631" lon="6.33049">
        <ele>266.3</ele>
        <time>2020-06-26T14:22:00Z</time>
      </trkpt>
      <trkpt lat="49.49627" lon="6.33057">
        <ele>266.3</ele>
        <time>2020-06-26T14:22:01Z</time>
      </trkpt>
      <trkpt lat="49.49624" lon="6.33063">
        <ele>266.3</ele>
        <time>2020-06-26T14:22:02Z</time>
      </trkpt>
      <trkpt lat="49.49619" lon="6.3307">
        <ele>266.3</ele>
        <time>2020-06-26T14:22:03Z</time>
      </trkpt>
      <trkpt lat="49.49615" lon="6.33076">
        <ele>266.2</ele>
        <time>2020-06-26T14:22:04Z</time>
      </trkpt>
      <trkpt lat="49.49611" lon="6.33082">
        <ele>266</ele>
        <time>2020-06-26T14:22:05Z</time>
      </trkpt>
      <trkpt lat="49.49607" lon="6.33088">
        <ele>265.9</ele>
        <time>2020-06-26T14:22:06Z</time>
      </trkpt>
      <trkpt lat="49.49603" lon="6.33094">
        <ele>265.8</ele>
        <time>2020-06-26T14:22:07Z</time>
      </trkpt>
      <trkpt lat="49.49599" lon="6.331">
        <ele>265.7</ele>
        <time>2020-06-26T14:22:08Z</time>
      </trkpt>
      <trkpt lat="49.49595" lon="6.33106">
        <ele>265.7</ele>
        <time>2020-06-26T14:22:09Z</time>
      </trkpt>
      <trkpt lat="49.4959" lon="6.33113">
        <ele>265.6</ele>
        <time>2020-06-26T14:22:10Z</time>
      </trkpt>
      <trkpt lat="49.49586" lon="6.3312">
        <ele>265.5</ele>
        <time>2020-06-26T14:22:11Z</time>
      </trkpt>
      <trkpt lat="49.49583" lon="6.33127">
        <ele>265.5</ele>
        <time>2020-06-26T14:22:12Z</time>
      </trkpt>
      <trkpt lat="49.49579" lon="6.33135">
        <ele>265.4</ele>
        <time>2020-06-26T14:22:13Z</time>
      </trkpt>
      <trkpt lat="49.49576" lon="6.33143">
        <ele>265.4</ele>
        <time>2020-06-26T14:22:14Z</time>
      </trkpt>
      <trkpt lat="49.49573" lon="6.33149">
        <ele>265.3</ele>
        <time>2020-06-26T14:22:15Z</time>
      </trkpt>
      <trkpt lat="49.4957" lon="6.33156">
        <ele>265.3</ele>
        <time>2020-06-26T14:22:16Z</time>
      </trkpt>
      <trkpt lat="49.49567" lon="6.33164">
        <ele>265.3</ele>
        <time>2020-06-26T14:22:17Z</time>
      </trkpt>
      <trkpt lat="49.49564" lon="6.33171">
        <ele>265.2</ele>
        <time>2020-06-26T14:22:18Z</time>
      </trkpt>
      <trkpt lat="49.49562" lon="6.33178">
        <ele>265.2</ele>
        <time>2020-06-26T14:22:19Z</time>
      </trkpt>
      <trkpt lat="49.4956" lon="6.33186">
        <ele>265.2</ele>
        <time>2020-06-26T14:22:20Z</time>
      </trkpt>
      <trkpt lat="49.49558" lon="6.33194">
        <ele>265.1</ele>
        <time>2020-06-26T14:22:21Z</time>
      </trkpt>
      <trkpt lat="49.49555" lon="6.33203">
        <ele>265.1</ele>
        <time>2020-06-26T14:22:22Z</time>
      </trkpt>
      <trkpt lat="49.49553" lon="6.3321">
        <ele>265.1</ele>
        <time>2020-06-26T14:22:23Z</time>
      </trkpt>
      <trkpt lat="49.49551" lon="6.33219">
        <ele>265.1</ele>
        <time>2020-06-26T14:22:24Z</time>
      </trkpt>
      <trkpt lat="49.49548" lon="6.33226">
        <ele>265.2</ele>
        <time>2020-06-26T14:22:25Z</time>
      </trkpt>
      <trkpt lat="49.49546" lon="6.33234">
        <ele>265.2</ele>
        <time>2020-06-26T14:22:26Z</time>
      </trkpt>
      <trkpt lat="49.49543" lon="6.33242">
        <ele>265.2</ele>
        <time>2020-06-26T14:22:27Z</time>
      </trkpt>
      <trkpt lat="49.49541" lon="6.3325">
        <ele>265.3</ele>
        <time>2020-06-26T14:22:28Z</time>
      </trkpt>
      <trkpt lat="49.49538" lon="6.33258">
        <ele>265.3</ele>
        <time>2020-06-26T14:22:29Z</time>
      </trkpt>
      <trkpt lat="49.49536" lon="6.33265">
        <ele>265.4</ele>
        <time>2020-06-26T14:22:30Z</time>
      </trkpt>
      <trkpt lat="49.49533" lon="6.33273">
        <ele>265.4</ele>
        <time>2020-06-26T14:22:31Z</time>
      </trkpt>
      <trkpt lat="49.49531" lon="6.3328">
        <ele>265.5</ele>
        <time>2020-06-26T14:22:32Z</time>
      </trkpt>
      <trkpt lat="49.49529" lon="6.33287">
        <ele>265.5</ele>
        <time>2020-06-26T14:22:33Z</time>
      </trkpt>
      <trkpt lat="49.49527" lon="6.33295">
        <ele>265.6</ele>
        <time>2020-06-26T14:22:34Z</time>
      </trkpt>
      <trkpt lat="49.49525" lon="6.33303">
        <ele>265.6</ele>
        <time>2020-06-26T14:22:35Z</time>
      </trkpt>
      <trkpt lat="49.49523" lon="6.33311">
        <ele>265.7</ele>
        <time>2020-06-26T14:22:36Z</time>
      </trkpt>
      <trkpt lat="49.49521" lon="6.33319">
        <ele>265.7</ele>
        <time>2020-06-26T14:22:37Z</time>
      </trkpt>
      <trkpt lat="49.49519" lon="6.33328">
        <ele>265.8</ele>
        <time>2020-06-26T14:22:38Z</time>
      </trkpt>
      <trkpt lat="49.49517" lon="6.33336">
        <ele>265.9</ele>
        <time>2020-06-26T14:22:39Z</time>
      </trkpt>
      <trkpt lat="49.49515" lon="6.33345">
        <ele>266</ele>
        <time>2020-06-26T14:22:40Z</time>
      </trkpt>
      <trkpt lat="49.49513" lon="6.33353">
        <ele>266</ele>
        <time>2020-06-26T14:22:41Z</time>
      </trkpt>
      <trkpt lat="49.49511" lon="6.33362">
        <ele>266.1</ele>
        <time>2020-06-26T14:22:42Z</time>
      </trkpt>
      <trkpt lat="49.49509" lon="6.33371">
        <ele>266.2</ele>
        <time>2020-06-26T14:22:43Z</time>
      </trkpt>
      <trkpt lat="49.49508" lon="6.3338">
        <ele>266.2</ele>
        <time>2020-06-26T14:22:44Z</time>
      </trkpt>
      <trkpt lat="49.49506" lon="6.33389">
        <ele>266.3</ele>
        <time>2020-06-26T14:22:45Z</time>
      </trkpt>
      <trkpt lat="49.49505" lon="6.33397">
        <ele>266.4</ele>
        <time>2020-06-26T14:22:46Z</time>
      </trkpt>
      <trkpt lat="49.49504" lon="6.33405">
        <ele>266.4</ele>
        <time>2020-06-26T14:22:47Z</time>
      </trkpt>
      <trkpt lat="49.49503" lon="6.33412">
        <ele>266.5</ele>
        <time>2020-06-26T14:22:48Z</time>
      </trkpt>
      <trkpt lat="49.49501" lon="6.3342">
        <ele>266.6</ele>
        <time>2020-06-26T14:22:49Z</time>
      </trkpt>
      <trkpt lat="49.495" lon="6.33429">
        <ele>266.7</ele>
        <time>2020-06-26T14:22:50Z</time>
      </trkpt>
      <trkpt lat="49.49498" lon="6.33436">
        <ele>266.9</ele>
        <time>2020-06-26T14:22:51Z</time>
      </trkpt>
      <trkpt lat="49.49497" lon="6.33443">
        <ele>266.9</ele>
        <time>2020-06-26T14:22:52Z</time>
      </trkpt>
      <trkpt lat="49.49495" lon="6.3345">
        <ele>267</ele>
        <time>2020-06-26T14:22:53Z</time>
      </trkpt>
      <trkpt lat="49.49494" lon="6.33457">
        <ele>267.1</ele>
        <time>2020-06-26T14:22:54Z</time>
      </trkpt>
      <trkpt lat="49.49492" lon="6.33465">
        <ele>267.2</ele>
        <time>2020-06-26T14:22:55Z</time>
      </trkpt>
      <trkpt lat="49.4949" lon="6.33472">
        <ele>267.3</ele>
        <time>2020-06-26T14:22:56Z</time>
      </trkpt>
      <trkpt lat="49.49489" lon="6.33479">
        <ele>267.4</ele>
        <time>2020-06-26T14:22:57Z</time>
      </trkpt>
      <trkpt lat="49.49487" lon="6.33487">
        <ele>267.5</ele>
        <time>2020-06-26T14:22:58Z</time>
      </trkpt>
      <trkpt lat="49.49485" lon="6.33494">
        <ele>267.6</ele>
        <time>2020-06-26T14:22:59Z</time>
      </trkpt>
      <trkpt lat="49.49483" lon="6.33502">
        <ele>267.6</ele>
        <time>2020-06-26T14:23:00Z</time>
      </trkpt>
      <trkpt lat="49.49481" lon="6.3351">
        <ele>267.7</ele>
        <time>2020-06-26T14:23:01Z</time>
      </trkpt>
      <trkpt lat="49.4948" lon="6.33517">
        <ele>267.8</ele>
        <time>2020-06-26T14:23:02Z</time>
      </trkpt>
      <trkpt lat="49.49478" lon="6.33524">
        <ele>267.9</ele>
        <time>2020-06-26T14:23:03Z</time>
      </trkpt>
      <trkpt lat="49.49477" lon="6.33531">
        <ele>268</ele>
        <time>2020-06-26T14:23:04Z</time>
      </trkpt>
      <trkpt lat="49.49475" lon="6.33538">
        <ele>268.1</ele>
        <time>2020-06-26T14:23:05Z</time>
      </trkpt>
      <trkpt lat="49.49474" lon="6.33544">
        <ele>268.3</ele>
        <time>2020-06-26T14:23:06Z</time>
      </trkpt>
      <trkpt lat="49.49471" lon="6.33554">
        <ele>268.5</ele>
        <time>2020-06-26T14:23:07Z</time>
      </trkpt>
      <trkpt lat="49.4947" lon="6.33562">
        <ele>268.7</ele>
        <time>2020-06-26T14:23:08Z</time>
      </trkpt>
      <trkpt lat="49.49468" lon="6.3357">
        <ele>268.9</ele>
        <time>2020-06-26T14:23:09Z</time>
      </trkpt>
      <trkpt lat="49.49466" lon="6.33577">
        <ele>269.1</ele>
        <time>2020-06-26T14:23:10Z</time>
      </trkpt>
      <trkpt lat="49.49465" lon="6.33582">
        <ele>269.1</ele>
        <time>2020-06-26T14:23:11Z</time>
      </trkpt>
      <trkpt lat="49.49464" lon="6.33588">
        <ele>269.1</ele>
        <time>2020-06-26T14:23:12Z</time>
      </trkpt>
      <trkpt lat="49.49462" lon="6.33595">
        <ele>269.1</ele>
        <time>2020-06-26T14:23:13Z</time>
      </trkpt>
      <trkpt lat="49.4946" lon="6.33601">
        <ele>269.1</ele>
        <time>2020-06-26T14:23:14Z</time>
      </trkpt>
      <trkpt lat="49.49459" lon="6.33608">
        <ele>269</ele>
        <time>2020-06-26T14:23:15Z</time>
      </trkpt>
      <trkpt lat="49.49457" lon="6.33614">
        <ele>269.1</ele>
        <time>2020-06-26T14:23:16Z</time>
      </trkpt>
      <trkpt lat="49.49456" lon="6.3362">
        <ele>269.1</ele>
        <time>2020-06-26T14:23:17Z</time>
      </trkpt>
      <trkpt lat="49.49454" lon="6.33627">
        <ele>269.1</ele>
        <time>2020-06-26T14:23:18Z</time>
      </trkpt>
      <trkpt lat="49.49453" lon="6.33634">
        <ele>269.2</ele>
        <time>2020-06-26T14:23:19Z</time>
      </trkpt>
      <trkpt lat="49.49451" lon="6.3364">
        <ele>269.3</ele>
        <time>2020-06-26T14:23:20Z</time>
      </trkpt>
      <trkpt lat="49.49449" lon="6.33647">
        <ele>269.4</ele>
        <time>2020-06-26T14:23:21Z</time>
      </trkpt>
      <trkpt lat="49.49447" lon="6.33654">
        <ele>269.4</ele>
        <time>2020-06-26T14:23:22Z</time>
      </trkpt>
      <trkpt lat="49.49446" lon="6.33659">
        <ele>269.5</ele>
        <time>2020-06-26T14:23:23Z</time>
      </trkpt>
      <trkpt lat="49.49444" lon="6.33666">
        <ele>269.6</ele>
        <time>2020-06-26T14:23:24Z</time>
      </trkpt>
      <trkpt lat="49.49442" lon="6.33672">
        <ele>269.6</ele>
        <time>2020-06-26T14:23:25Z</time>
      </trkpt>
      <trkpt lat="49.4944" lon="6.33677">
        <ele>269.7</ele>
        <time>2020-06-26T14:23:26Z</time>
      </trkpt>
      <trkpt lat="49.49439" lon="6.33682">
        <ele>269.7</ele>
        <time>2020-06-26T14:23:27Z</time>
      </trkpt>
      <trkpt lat="49.49437" lon="6.33687">
        <ele>269.8</ele>
        <time>2020-06-26T14:23:28Z</time>
      </trkpt>
      <trkpt lat="49.49436" lon="6.33693">
        <ele>269.8</ele>
        <time>2020-06-26T14:23:29Z</time>
      </trkpt>
      <trkpt lat="49.49434" lon="6.33699">
        <ele>269.8</ele>
        <time>2020-06-26T14:23:30Z</time>
      </trkpt>
      <trkpt lat="49.49432" lon="6.33706">
        <ele>269.9</ele>
        <time>2020-06-26T14:23:31Z</time>
      </trkpt>
      <trkpt lat="49.49431" lon="6.33712">
        <ele>269.9</ele>
        <time>2020-06-26T14:23:32Z</time>
      </trkpt>
      <trkpt lat="49.49429" lon="6.33719">
        <ele>270</ele>
        <time>2020-06-26T14:23:33Z</time>
      </trkpt>
      <trkpt lat="49.49427" lon="6.33726">
        <ele>270</ele>
        <time>2020-06-26T14:23:34Z</time>
      </trkpt>
      <trkpt lat="49.49425" lon="6.33732">
        <ele>270.1</ele>
        <time>2020-06-26T14:23:35Z</time>
      </trkpt>
      <trkpt lat="49.49424" lon="6.33738">
        <ele>270.2</ele>
        <time>2020-06-26T14:23:36Z</time>
      </trkpt>
      <trkpt lat="49.49422" lon="6.33744">
        <ele>270.2</ele>
        <time>2020-06-26T14:23:37Z</time>
      </trkpt>
      <trkpt lat="49.4942" lon="6.33751">
        <ele>270.3</ele>
        <time>2020-06-26T14:23:38Z</time>
      </trkpt>
      <trkpt lat="49.49418" lon="6.33757">
        <ele>270.4</ele>
        <time>2020-06-26T14:23:39Z</time>
      </trkpt>
      <trkpt lat="49.49416" lon="6.33763">
        <ele>270.4</ele>
        <time>2020-06-26T14:23:40Z</time>
      </trkpt>
      <trkpt lat="49.49413" lon="6.33769">
        <ele>270.4</ele>
        <time>2020-06-26T14:23:41Z</time>
      </trkpt>
      <trkpt lat="49.49412" lon="6.33774">
        <ele>270.5</ele>
        <time>2020-06-26T14:23:42Z</time>
      </trkpt>
      <trkpt lat="49.4941" lon="6.33779">
        <ele>270.5</ele>
        <time>2020-06-26T14:23:43Z</time>
      </trkpt>
      <trkpt lat="49.49408" lon="6.33785">
        <ele>270.5</ele>
        <time>2020-06-26T14:23:44Z</time>
      </trkpt>
      <trkpt lat="49.49406" lon="6.33791">
        <ele>270.5</ele>
        <time>2020-06-26T14:23:45Z</time>
      </trkpt>
      <trkpt lat="49.49403" lon="6.33798">
        <ele>270.6</ele>
        <time>2020-06-26T14:23:46Z</time>
      </trkpt>
      <trkpt lat="49.49401" lon="6.33805">
        <ele>270.7</ele>
        <time>2020-06-26T14:23:47Z</time>
      </trkpt>
      <trkpt lat="49.49399" lon="6.33811">
        <ele>270.7</ele>
        <time>2020-06-26T14:23:48Z</time>
      </trkpt>
      <trkpt lat="49.49397" lon="6.33817">
        <ele>270.8</ele>
        <time>2020-06-26T14:23:49Z</time>
      </trkpt>
      <trkpt lat="49.49395" lon="6.33823">
        <ele>270.8</ele>
        <time>2020-06-26T14:23:50Z</time>
      </trkpt>
      <trkpt lat="49.49392" lon="6.33829">
        <ele>270.9</ele>
        <time>2020-06-26T14:23:51Z</time>
      </trkpt>
      <trkpt lat="49.49391" lon="6.33835">
        <ele>270.9</ele>
        <time>2020-06-26T14:23:52Z</time>
      </trkpt>
      <trkpt lat="49.49389" lon="6.33842">
        <ele>271</ele>
        <time>2020-06-26T14:23:53Z</time>
      </trkpt>
      <trkpt lat="49.49387" lon="6.33848">
        <ele>271</ele>
        <time>2020-06-26T14:23:54Z</time>
      </trkpt>
      <trkpt lat="49.49385" lon="6.33854">
        <ele>271.1</ele>
        <time>2020-06-26T14:23:55Z</time>
      </trkpt>
      <trkpt lat="49.49382" lon="6.33862">
        <ele>271.1</ele>
        <time>2020-06-26T14:23:56Z</time>
      </trkpt>
      <trkpt lat="49.49379" lon="6.3387">
        <ele>271.2</ele>
        <time>2020-06-26T14:23:57Z</time>
      </trkpt>
      <trkpt lat="49.49377" lon="6.33877">
        <ele>271.2</ele>
        <time>2020-06-26T14:23:58Z</time>
      </trkpt>
      <trkpt lat="49.49375" lon="6.33882">
        <ele>271.3</ele>
        <time>2020-06-26T14:23:59Z</time>
      </trkpt>
      <trkpt lat="49.49374" lon="6.33887">
        <ele>271.3</ele>
        <time>2020-06-26T14:24:00Z</time>
      </trkpt>
      <trkpt lat="49.49371" lon="6.33894">
        <ele>271.3</ele>
        <time>2020-06-26T14:24:01Z</time>
      </trkpt>
      <trkpt lat="49.49369" lon="6.339">
        <ele>271.4</ele>
        <time>2020-06-26T14:24:02Z</time>
      </trkpt>
      <trkpt lat="49.49368" lon="6.33905">
        <ele>271.4</ele>
        <time>2020-06-26T14:24:03Z</time>
      </trkpt>
      <trkpt lat="49.49366" lon="6.3391">
        <ele>271.5</ele>
        <time>2020-06-26T14:24:04Z</time>
      </trkpt>
      <trkpt lat="49.49363" lon="6.33917">
        <ele>271.5</ele>
        <time>2020-06-26T14:24:05Z</time>
      </trkpt>
      <trkpt lat="49.49361" lon="6.33923">
        <ele>271.5</ele>
        <time>2020-06-26T14:24:06Z</time>
      </trkpt>
      <trkpt lat="49.49358" lon="6.3393">
        <ele>271.6</ele>
        <time>2020-06-26T14:24:07Z</time>
      </trkpt>
      <trkpt lat="49.49356" lon="6.33937">
        <ele>271.6</ele>
        <time>2020-06-26T14:24:08Z</time>
      </trkpt>
      <trkpt lat="49.49353" lon="6.33946">
        <ele>271.7</ele>
        <time>2020-06-26T14:24:09Z</time>
      </trkpt>
      <trkpt lat="49.49351" lon="6.33952">
        <ele>271.7</ele>
        <time>2020-06-26T14:24:10Z</time>
      </trkpt>
      <trkpt lat="49.49348" lon="6.3396">
        <ele>271.8</ele>
        <time>2020-06-26T14:24:11Z</time>
      </trkpt>
      <trkpt lat="49.49346" lon="6.33966">
        <ele>271.8</ele>
        <time>2020-06-26T14:24:12Z</time>
      </trkpt>
      <trkpt lat="49.49344" lon="6.33971">
        <ele>271.9</ele>
        <time>2020-06-26T14:24:13Z</time>
      </trkpt>
      <trkpt lat="49.49342" lon="6.33977">
        <ele>271.9</ele>
        <time>2020-06-26T14:24:14Z</time>
      </trkpt>
      <trkpt lat="49.4934" lon="6.33983">
        <ele>272</ele>
        <time>2020-06-26T14:24:15Z</time>
      </trkpt>
      <trkpt lat="49.49338" lon="6.33988">
        <ele>272</ele>
        <time>2020-06-26T14:24:16Z</time>
      </trkpt>
      <trkpt lat="49.49336" lon="6.33994">
        <ele>272.1</ele>
        <time>2020-06-26T14:24:17Z</time>
      </trkpt>
      <trkpt lat="49.49334" lon="6.34">
        <ele>272.1</ele>
        <time>2020-06-26T14:24:18Z</time>
      </trkpt>
      <trkpt lat="49.49332" lon="6.34006">
        <ele>272.2</ele>
        <time>2020-06-26T14:24:19Z</time>
      </trkpt>
      <trkpt lat="49.4933" lon="6.34013">
        <ele>272.3</ele>
        <time>2020-06-26T14:24:20Z</time>
      </trkpt>
      <trkpt lat="49.49328" lon="6.34019">
        <ele>272.3</ele>
        <time>2020-06-26T14:24:21Z</time>
      </trkpt>
      <trkpt lat="49.49326" lon="6.34025">
        <ele>272.4</ele>
        <time>2020-06-26T14:24:22Z</time>
      </trkpt>
      <trkpt lat="49.49323" lon="6.34033">
        <ele>272.4</ele>
        <time>2020-06-26T14:24:23Z</time>
      </trkpt>
      <trkpt lat="49.49322" lon="6.34039">
        <ele>272.5</ele>
        <time>2020-06-26T14:24:24Z</time>
      </trkpt>
      <trkpt lat="49.4932" lon="6.34046">
        <ele>272.5</ele>
        <time>2020-06-26T14:24:25Z</time>
      </trkpt>
      <trkpt lat="49.49318" lon="6.34052">
        <ele>272.6</ele>
        <time>2020-06-26T14:24:26Z</time>
      </trkpt>
      <trkpt lat="49.49316" lon="6.34058">
        <ele>272.6</ele>
        <time>2020-06-26T14:24:27Z</time>
      </trkpt>
      <trkpt lat="49.49314" lon="6.34064">
        <ele>272.7</ele>
        <time>2020-06-26T14:24:28Z</time>
      </trkpt>
      <trkpt lat="49.49312" lon="6.3407">
        <ele>272.7</ele>
        <time>2020-06-26T14:24:29Z</time>
      </trkpt>
      <trkpt lat="49.4931" lon="6.34075">
        <ele>272.8</ele>
        <time>2020-06-26T14:24:30Z</time>
      </trkpt>
      <trkpt lat="49.49308" lon="6.34082">
        <ele>272.8</ele>
        <time>2020-06-26T14:24:31Z</time>
      </trkpt>
      <trkpt lat="49.49305" lon="6.34089">
        <ele>272.9</ele>
        <time>2020-06-26T14:24:32Z</time>
      </trkpt>
      <trkpt lat="49.49303" lon="6.34095">
        <ele>272.9</ele>
        <time>2020-06-26T14:24:33Z</time>
      </trkpt>
      <trkpt lat="49.49302" lon="6.34102">
        <ele>273</ele>
        <time>2020-06-26T14:24:34Z</time>
      </trkpt>
      <trkpt lat="49.493" lon="6.34108">
        <ele>273</ele>
        <time>2020-06-26T14:24:35Z</time>
      </trkpt>
      <trkpt lat="49.49298" lon="6.34113">
        <ele>273.1</ele>
        <time>2020-06-26T14:24:36Z</time>
      </trkpt>
      <trkpt lat="49.49296" lon="6.34118">
        <ele>273.1</ele>
        <time>2020-06-26T14:24:37Z</time>
      </trkpt>
      <trkpt lat="49.49294" lon="6.34123">
        <ele>273.1</ele>
        <time>2020-06-26T14:24:38Z</time>
      </trkpt>
      <trkpt lat="49.49292" lon="6.34128">
        <ele>273.2</ele>
        <time>2020-06-26T14:24:39Z</time>
      </trkpt>
      <trkpt lat="49.49291" lon="6.34132">
        <ele>273.2</ele>
        <time>2020-06-26T14:24:40Z</time>
      </trkpt>
      <trkpt lat="49.49289" lon="6.34136">
        <ele>273.2</ele>
        <time>2020-06-26T14:24:41Z</time>
      </trkpt>
      <trkpt lat="49.49286" lon="6.34141">
        <ele>273.3</ele>
        <time>2020-06-26T14:24:42Z</time>
      </trkpt>
      <trkpt lat="49.49285" lon="6.34143">
        <ele>273.3</ele>
        <time>2020-06-26T14:24:43Z</time>
      </trkpt>
      <trkpt lat="49.49284" lon="6.34145">
        <ele>273.3</ele>
        <time>2020-06-26T14:24:44Z</time>
      </trkpt>
      <trkpt lat="49.49283" lon="6.34146">
        <ele>273.3</ele>
        <time>2020-06-26T14:24:45Z</time>
      </trkpt>
      <trkpt lat="49.49283" lon="6.34145">
        <ele>273.3</ele>
        <time>2020-06-26T14:24:46Z</time>
      </trkpt>
      <trkpt lat="49.49283" lon="6.34145">
        <ele>273.3</ele>
        <time>2020-06-26T14:24:47Z</time>
      </trkpt>
      <trkpt lat="49.49284" lon="6.34145">
        <ele>273.3</ele>
        <time>2020-06-26T14:24:48Z</time>
      </trkpt>
      <trkpt lat="49.49284" lon="6.34144">
        <ele>273.3</ele>
        <time>2020-06-26T14:24:49Z</time>
      </trkpt>
      <trkpt lat="49.49284" lon="6.34144">
        <ele>273.3</ele>
        <time>2020-06-26T14:24:50Z</time>
      </trkpt>
      <trkpt lat="49.49284" lon="6.34143">
        <ele>273.3</ele>
        <time>2020-06-26T14:24:51Z</time>
      </trkpt>
      <trkpt lat="49.49285" lon="6.34143">
        <ele>273.3</ele>
        <time>2020-06-26T14:24:52Z</time>
      </trkpt>
      <trkpt lat="49.49285" lon="6.34143">
        <ele>273.3</ele>
        <time>2020-06-26T14:24:53Z</time>
      </trkpt>
      <trkpt lat="49.49285" lon="6.34142">
        <ele>273.3</ele>
        <time>2020-06-26T14:24:54Z</time>
      </trkpt>
      <trkpt lat="49.49285" lon="6.34142">
        <ele>273.3</ele>
        <time>2020-06-26T14:24:55Z</time>
      </trkpt>
      <trkpt lat="49.49286" lon="6.34141">
        <ele>273.3</ele>
        <time>2020-06-26T14:24:56Z</time>
      </trkpt>
      <trkpt lat="49.49286" lon="6.34141">
        <ele>273.3</ele>
        <time>2020-06-26T14:24:57Z</time>
      </trkpt>
      <trkpt lat="49.49286" lon="6.3414">
        <ele>273.3</ele>
        <time>2020-06-26T14:24:58Z</time>
      </trkpt>
      <trkpt lat="49.49282" lon="6.34149">
        <ele>273.3</ele>
        <time>2020-06-26T14:28:50Z</time>
      </trkpt>
      <trkpt lat="49.49282" lon="6.34151">
        <ele>273.3</ele>
        <time>2020-06-26T14:28:51Z</time>
      </trkpt>
      <trkpt lat="49.49279" lon="6.34155">
        <ele>273.3</ele>
        <time>2020-06-26T14:28:52Z</time>
      </trkpt>
      <trkpt lat="49.49279" lon="6.34156">
        <ele>273.3</ele>
        <time>2020-06-26T14:28:53Z</time>
      </trkpt>
      <trkpt lat="49.49276" lon="6.34158">
        <ele>273.3</ele>
        <time>2020-06-26T14:28:54Z</time>
      </trkpt>
      <trkpt lat="49.49274" lon="6.34162">
        <ele>273.3</ele>
        <time>2020-06-26T14:28:55Z</time>
      </trkpt>
      <trkpt lat="49.49273" lon="6.34166">
        <ele>273.3</ele>
        <time>2020-06-26T14:28:56Z</time>
      </trkpt>
      <trkpt lat="49.4927" lon="6.3417">
        <ele>273.3</ele>
        <time>2020-06-26T14:28:57Z</time>
      </trkpt>
      <trkpt lat="49.49268" lon="6.34174">
        <ele>273.3</ele>
        <time>2020-06-26T14:28:58Z</time>
      </trkpt>
      <trkpt lat="49.49266" lon="6.34178">
        <ele>273.3</ele>
        <time>2020-06-26T14:28:59Z</time>
      </trkpt>
      <trkpt lat="49.49264" lon="6.34181">
        <ele>273.3</ele>
        <time>2020-06-26T14:29:00Z</time>
      </trkpt>
      <trkpt lat="49.49261" lon="6.34185">
        <ele>273.3</ele>
        <time>2020-06-26T14:29:01Z</time>
      </trkpt>
      <trkpt lat="49.49258" lon="6.34189">
        <ele>273.3</ele>
        <time>2020-06-26T14:29:02Z</time>
      </trkpt>
      <trkpt lat="49.49257" lon="6.34191">
        <ele>273.3</ele>
        <time>2020-06-26T14:29:03Z</time>
      </trkpt>
      <trkpt lat="49.49255" lon="6.34195">
        <ele>273.3</ele>
        <time>2020-06-26T14:29:04Z</time>
      </trkpt>
      <trkpt lat="49.49253" lon="6.34199">
        <ele>273.3</ele>
        <time>2020-06-26T14:29:05Z</time>
      </trkpt>
      <trkpt lat="49.4925" lon="6.34202">
        <ele>273.3</ele>
        <time>2020-06-26T14:29:06Z</time>
      </trkpt>
      <trkpt lat="49.49248" lon="6.34206">
        <ele>273.3</ele>
        <time>2020-06-26T14:29:07Z</time>
      </trkpt>
      <trkpt lat="49.49247" lon="6.34209">
        <ele>273.3</ele>
        <time>2020-06-26T14:29:08Z</time>
      </trkpt>
      <trkpt lat="49.49245" lon="6.34214">
        <ele>273.2</ele>
        <time>2020-06-26T14:29:09Z</time>
      </trkpt>
      <trkpt lat="49.49243" lon="6.34219">
        <ele>273.1</ele>
        <time>2020-06-26T14:29:10Z</time>
      </trkpt>
      <trkpt lat="49.49241" lon="6.34224">
        <ele>273</ele>
        <time>2020-06-26T14:29:11Z</time>
      </trkpt>
      <trkpt lat="49.49239" lon="6.34231">
        <ele>272.9</ele>
        <time>2020-06-26T14:29:12Z</time>
      </trkpt>
      <trkpt lat="49.49237" lon="6.34237">
        <ele>272.8</ele>
        <time>2020-06-26T14:29:13Z</time>
      </trkpt>
      <trkpt lat="49.49235" lon="6.34243">
        <ele>272.6</ele>
        <time>2020-06-26T14:29:14Z</time>
      </trkpt>
      <trkpt lat="49.49232" lon="6.34249">
        <ele>272.5</ele>
        <time>2020-06-26T14:29:15Z</time>
      </trkpt>
      <trkpt lat="49.49229" lon="6.34256">
        <ele>272.4</ele>
        <time>2020-06-26T14:29:16Z</time>
      </trkpt>
      <trkpt lat="49.49225" lon="6.34262">
        <ele>272.3</ele>
        <time>2020-06-26T14:29:17Z</time>
      </trkpt>
      <trkpt lat="49.49222" lon="6.34269">
        <ele>272.2</ele>
        <time>2020-06-26T14:29:18Z</time>
      </trkpt>
      <trkpt lat="49.49219" lon="6.34276">
        <ele>272</ele>
        <time>2020-06-26T14:29:19Z</time>
      </trkpt>
      <trkpt lat="49.49215" lon="6.34282">
        <ele>271.9</ele>
        <time>2020-06-26T14:29:20Z</time>
      </trkpt>
      <trkpt lat="49.49212" lon="6.34287">
        <ele>271.8</ele>
        <time>2020-06-26T14:29:21Z</time>
      </trkpt>
      <trkpt lat="49.49208" lon="6.34292">
        <ele>271.7</ele>
        <time>2020-06-26T14:29:22Z</time>
      </trkpt>
      <trkpt lat="49.49205" lon="6.34298">
        <ele>271.6</ele>
        <time>2020-06-26T14:29:23Z</time>
      </trkpt>
      <trkpt lat="49.49202" lon="6.34304">
        <ele>271.5</ele>
        <time>2020-06-26T14:29:24Z</time>
      </trkpt>
      <trkpt lat="49.49199" lon="6.3431">
        <ele>271.4</ele>
        <time>2020-06-26T14:29:25Z</time>
      </trkpt>
      <trkpt lat="49.49196" lon="6.34314">
        <ele>271.4</ele>
        <time>2020-06-26T14:29:26Z</time>
      </trkpt>
      <trkpt lat="49.49193" lon="6.3432">
        <ele>271.3</ele>
        <time>2020-06-26T14:29:27Z</time>
      </trkpt>
      <trkpt lat="49.4919" lon="6.34324">
        <ele>271.2</ele>
        <time>2020-06-26T14:29:28Z</time>
      </trkpt>
      <trkpt lat="49.49187" lon="6.34329">
        <ele>271.1</ele>
        <time>2020-06-26T14:29:29Z</time>
      </trkpt>
      <trkpt lat="49.49184" lon="6.34334">
        <ele>271.1</ele>
        <time>2020-06-26T14:29:30Z</time>
      </trkpt>
      <trkpt lat="49.49181" lon="6.34339">
        <ele>271</ele>
        <time>2020-06-26T14:29:31Z</time>
      </trkpt>
      <trkpt lat="49.49178" lon="6.34345">
        <ele>270.9</ele>
        <time>2020-06-26T14:29:32Z</time>
      </trkpt>
      <trkpt lat="49.49176" lon="6.3435">
        <ele>270.8</ele>
        <time>2020-06-26T14:29:33Z</time>
      </trkpt>
      <trkpt lat="49.49173" lon="6.34355">
        <ele>270.8</ele>
        <time>2020-06-26T14:29:34Z</time>
      </trkpt>
      <trkpt lat="49.4917" lon="6.3436">
        <ele>270.7</ele>
        <time>2020-06-26T14:29:35Z</time>
      </trkpt>
      <trkpt lat="49.49167" lon="6.34365">
        <ele>270.7</ele>
        <time>2020-06-26T14:29:36Z</time>
      </trkpt>
      <trkpt lat="49.49165" lon="6.34369">
        <ele>270.6</ele>
        <time>2020-06-26T14:29:37Z</time>
      </trkpt>
      <trkpt lat="49.49163" lon="6.34374">
        <ele>270.5</ele>
        <time>2020-06-26T14:29:38Z</time>
      </trkpt>
      <trkpt lat="49.4916" lon="6.34377">
        <ele>270.5</ele>
        <time>2020-06-26T14:29:39Z</time>
      </trkpt>
      <trkpt lat="49.49158" lon="6.34382">
        <ele>270.4</ele>
        <time>2020-06-26T14:29:40Z</time>
      </trkpt>
      <trkpt lat="49.49156" lon="6.34386">
        <ele>270.4</ele>
        <time>2020-06-26T14:29:41Z</time>
      </trkpt>
      <trkpt lat="49.49154" lon="6.34389">
        <ele>270.3</ele>
        <time>2020-06-26T14:29:42Z</time>
      </trkpt>
      <trkpt lat="49.49153" lon="6.34393">
        <ele>270.2</ele>
        <time>2020-06-26T14:29:43Z</time>
      </trkpt>
      <trkpt lat="49.49153" lon="6.34399">
        <ele>270.1</ele>
        <time>2020-06-26T14:29:44Z</time>
      </trkpt>
      <trkpt lat="49.49156" lon="6.34403">
        <ele>270</ele>
        <time>2020-06-26T14:29:45Z</time>
      </trkpt>
      <trkpt lat="49.49161" lon="6.34405">
        <ele>269.5</ele>
        <time>2020-06-26T14:29:46Z</time>
      </trkpt>
      <trkpt lat="49.49165" lon="6.3441">
        <ele>269.2</ele>
        <time>2020-06-26T14:29:47Z</time>
      </trkpt>
      <trkpt lat="49.49167" lon="6.34416">
        <ele>268.9</ele>
        <time>2020-06-26T14:29:48Z</time>
      </trkpt>
      <trkpt lat="49.4917" lon="6.34423">
        <ele>268.7</ele>
        <time>2020-06-26T14:29:49Z</time>
      </trkpt>
      <trkpt lat="49.4917" lon="6.34429">
        <ele>268.4</ele>
        <time>2020-06-26T14:29:50Z</time>
      </trkpt>
      <trkpt lat="49.49169" lon="6.34436">
        <ele>268.2</ele>
        <time>2020-06-26T14:29:51Z</time>
      </trkpt>
      <trkpt lat="49.49168" lon="6.34442">
        <ele>268</ele>
        <time>2020-06-26T14:29:52Z</time>
      </trkpt>
      <trkpt lat="49.49167" lon="6.34449">
        <ele>267.8</ele>
        <time>2020-06-26T14:29:53Z</time>
      </trkpt>
      <trkpt lat="49.49165" lon="6.34456">
        <ele>267.6</ele>
        <time>2020-06-26T14:29:54Z</time>
      </trkpt>
      <trkpt lat="49.49164" lon="6.34463">
        <ele>267.4</ele>
        <time>2020-06-26T14:29:55Z</time>
      </trkpt>
      <trkpt lat="49.49164" lon="6.34468">
        <ele>267.3</ele>
        <time>2020-06-26T14:29:56Z</time>
      </trkpt>
      <trkpt lat="49.49163" lon="6.34474">
        <ele>267.1</ele>
        <time>2020-06-26T14:29:57Z</time>
      </trkpt>
      <trkpt lat="49.49162" lon="6.34479">
        <ele>266.9</ele>
        <time>2020-06-26T14:29:58Z</time>
      </trkpt>
      <trkpt lat="49.49161" lon="6.34484">
        <ele>266.7</ele>
        <time>2020-06-26T14:29:59Z</time>
      </trkpt>
      <trkpt lat="49.4916" lon="6.34488">
        <ele>266.5</ele>
        <time>2020-06-26T14:30:00Z</time>
      </trkpt>
      <trkpt lat="49.49159" lon="6.34493">
        <ele>266.3</ele>
        <time>2020-06-26T14:30:01Z</time>
      </trkpt>
      <trkpt lat="49.49159" lon="6.34497">
        <ele>266</ele>
        <time>2020-06-26T14:30:02Z</time>
      </trkpt>
      <trkpt lat="49.49158" lon="6.34502">
        <ele>265.7</ele>
        <time>2020-06-26T14:30:03Z</time>
      </trkpt>
      <trkpt lat="49.49157" lon="6.34503">
        <ele>265.6</ele>
        <time>2020-06-26T14:30:04Z</time>
      </trkpt>
      <trkpt lat="49.49156" lon="6.34508">
        <ele>265.3</ele>
        <time>2020-06-26T14:30:05Z</time>
      </trkpt>
      <trkpt lat="49.49156" lon="6.3451">
        <ele>265.2</ele>
        <time>2020-06-26T14:30:06Z</time>
      </trkpt>
      <trkpt lat="49.49155" lon="6.34515">
        <ele>264.8</ele>
        <time>2020-06-26T14:30:07Z</time>
      </trkpt>
      <trkpt lat="49.49155" lon="6.34517">
        <ele>264.6</ele>
        <time>2020-06-26T14:30:08Z</time>
      </trkpt>
      <trkpt lat="49.49155" lon="6.34522">
        <ele>264.2</ele>
        <time>2020-06-26T14:30:09Z</time>
      </trkpt>
      <trkpt lat="49.49155" lon="6.34524">
        <ele>264.1</ele>
        <time>2020-06-26T14:30:10Z</time>
      </trkpt>
      <trkpt lat="49.49155" lon="6.3453">
        <ele>263.6</ele>
        <time>2020-06-26T14:30:11Z</time>
      </trkpt>
      <trkpt lat="49.49155" lon="6.34532">
        <ele>263.4</ele>
        <time>2020-06-26T14:30:12Z</time>
      </trkpt>
      <trkpt lat="49.49155" lon="6.34538">
        <ele>262.9</ele>
        <time>2020-06-26T14:30:13Z</time>
      </trkpt>
      <trkpt lat="49.49155" lon="6.3454">
        <ele>262.7</ele>
        <time>2020-06-26T14:30:14Z</time>
      </trkpt>
      <trkpt lat="49.49156" lon="6.34544">
        <ele>262.2</ele>
        <time>2020-06-26T14:30:15Z</time>
      </trkpt>
      <trkpt lat="49.49157" lon="6.3455">
        <ele>261.5</ele>
        <time>2020-06-26T14:30:16Z</time>
      </trkpt>
      <trkpt lat="49.49157" lon="6.34552">
        <ele>261.2</ele>
        <time>2020-06-26T14:30:17Z</time>
      </trkpt>
      <trkpt lat="49.49159" lon="6.34557">
        <ele>260.4</ele>
        <time>2020-06-26T14:30:18Z</time>
      </trkpt>
      <trkpt lat="49.49159" lon="6.34559">
        <ele>260.1</ele>
        <time>2020-06-26T14:30:19Z</time>
      </trkpt>
      <trkpt lat="49.4916" lon="6.34565">
        <ele>259.2</ele>
        <time>2020-06-26T14:30:20Z</time>
      </trkpt>
      <trkpt lat="49.49161" lon="6.34566">
        <ele>259</ele>
        <time>2020-06-26T14:30:21Z</time>
      </trkpt>
      <trkpt lat="49.49162" lon="6.34572">
        <ele>257.9</ele>
        <time>2020-06-26T14:30:22Z</time>
      </trkpt>
      <trkpt lat="49.49163" lon="6.34574">
        <ele>257.6</ele>
        <time>2020-06-26T14:30:23Z</time>
      </trkpt>
      <trkpt lat="49.49164" lon="6.3458">
        <ele>256.7</ele>
        <time>2020-06-26T14:30:24Z</time>
      </trkpt>
      <trkpt lat="49.49165" lon="6.34581">
        <ele>256.4</ele>
        <time>2020-06-26T14:30:25Z</time>
      </trkpt>
      <trkpt lat="49.49167" lon="6.34587">
        <ele>255.6</ele>
        <time>2020-06-26T14:30:26Z</time>
      </trkpt>
      <trkpt lat="49.49167" lon="6.34589">
        <ele>255.3</ele>
        <time>2020-06-26T14:30:27Z</time>
      </trkpt>
      <trkpt lat="49.49168" lon="6.34592">
        <ele>254.6</ele>
        <time>2020-06-26T14:30:28Z</time>
      </trkpt>
      <trkpt lat="49.49168" lon="6.34597">
        <ele>254</ele>
        <time>2020-06-26T14:30:29Z</time>
      </trkpt>
      <trkpt lat="49.4917" lon="6.34601">
        <ele>253.2</ele>
        <time>2020-06-26T14:30:30Z</time>
      </trkpt>
      <trkpt lat="49.4917" lon="6.34603">
        <ele>253</ele>
        <time>2020-06-26T14:30:31Z</time>
      </trkpt>
      <trkpt lat="49.49171" lon="6.34605">
        <ele>252.6</ele>
        <time>2020-06-26T14:30:32Z</time>
      </trkpt>
      <trkpt lat="49.49171" lon="6.34608">
        <ele>252.2</ele>
        <time>2020-06-26T14:30:33Z</time>
      </trkpt>
      <trkpt lat="49.49172" lon="6.3461">
        <ele>251.9</ele>
        <time>2020-06-26T14:30:34Z</time>
      </trkpt>
      <trkpt lat="49.49172" lon="6.34611">
        <ele>251.7</ele>
        <time>2020-06-26T14:30:35Z</time>
      </trkpt>
      <trkpt lat="49.49172" lon="6.34611">
        <ele>251.7</ele>
        <time>2020-06-26T14:30:36Z</time>
      </trkpt>
      <trkpt lat="49.49172" lon="6.34611">
        <ele>251.6</ele>
        <time>2020-06-26T14:30:37Z</time>
      </trkpt>
      <trkpt lat="49.49173" lon="6.3461">
        <ele>251.4</ele>
        <time>2020-06-26T14:30:38Z</time>
      </trkpt>
      <trkpt lat="49.49173" lon="6.34611">
        <ele>251.3</ele>
        <time>2020-06-26T14:30:39Z</time>
      </trkpt>
      <trkpt lat="49.49173" lon="6.34612">
        <ele>251.2</ele>
        <time>2020-06-26T14:30:40Z</time>
      </trkpt>
      <trkpt lat="49.49173" lon="6.34613">
        <ele>251.1</ele>
        <time>2020-06-26T14:30:41Z</time>
      </trkpt>
      <trkpt lat="49.49173" lon="6.34614">
        <ele>250.9</ele>
        <time>2020-06-26T14:30:42Z</time>
      </trkpt>
      <trkpt lat="49.49173" lon="6.34614">
        <ele>250.8</ele>
        <time>2020-06-26T14:30:43Z</time>
      </trkpt>
      <trkpt lat="49.49173" lon="6.34614">
        <ele>250.7</ele>
        <time>2020-06-26T14:30:44Z</time>
      </trkpt>
      <trkpt lat="49.49173" lon="6.34614">
        <ele>250.6</ele>
        <time>2020-06-26T14:30:45Z</time>
      </trkpt>
      <trkpt lat="49.49177" lon="6.34628">
        <ele>248.8</ele>
        <time>2020-06-26T14:39:30Z</time>
      </trkpt>
      <trkpt lat="49.49176" lon="6.34631">
        <ele>248.5</ele>
        <time>2020-06-26T14:39:31Z</time>
      </trkpt>
      <trkpt lat="49.49176" lon="6.34633">
        <ele>248.2</ele>
        <time>2020-06-26T14:39:32Z</time>
      </trkpt>
      <trkpt lat="49.49177" lon="6.34635">
        <ele>248</ele>
        <time>2020-06-26T14:39:33Z</time>
      </trkpt>
      <trkpt lat="49.49179" lon="6.34638">
        <ele>247.6</ele>
        <time>2020-06-26T14:39:34Z</time>
      </trkpt>
      <trkpt lat="49.49179" lon="6.34639">
        <ele>247.5</ele>
        <time>2020-06-26T14:39:35Z</time>
      </trkpt>
      <trkpt lat="49.49179" lon="6.34639">
        <ele>247.4</ele>
        <time>2020-06-26T14:39:36Z</time>
      </trkpt>
      <trkpt lat="49.4918" lon="6.34641">
        <ele>247.1</ele>
        <time>2020-06-26T14:39:37Z</time>
      </trkpt>
      <trkpt lat="49.49181" lon="6.34644">
        <ele>246.8</ele>
        <time>2020-06-26T14:39:38Z</time>
      </trkpt>
      <trkpt lat="49.49182" lon="6.34647">
        <ele>246.4</ele>
        <time>2020-06-26T14:39:39Z</time>
      </trkpt>
      <trkpt lat="49.49182" lon="6.34649">
        <ele>246.3</ele>
        <time>2020-06-26T14:39:40Z</time>
      </trkpt>
      <trkpt lat="49.49182" lon="6.3465">
        <ele>246.1</ele>
        <time>2020-06-26T14:39:41Z</time>
      </trkpt>
      <trkpt lat="49.49182" lon="6.34652">
        <ele>246</ele>
        <time>2020-06-26T14:39:42Z</time>
      </trkpt>
      <trkpt lat="49.49182" lon="6.34654">
        <ele>245.8</ele>
        <time>2020-06-26T14:39:43Z</time>
      </trkpt>
      <trkpt lat="49.49182" lon="6.34656">
        <ele>245.5</ele>
        <time>2020-06-26T14:39:44Z</time>
      </trkpt>
      <trkpt lat="49.49183" lon="6.34658">
        <ele>245.2</ele>
        <time>2020-06-26T14:39:45Z</time>
      </trkpt>
      <trkpt lat="49.49183" lon="6.3466">
        <ele>245</ele>
        <time>2020-06-26T14:39:46Z</time>
      </trkpt>
      <trkpt lat="49.49184" lon="6.34662">
        <ele>244.8</ele>
        <time>2020-06-26T14:39:47Z</time>
      </trkpt>
      <trkpt lat="49.49186" lon="6.34664">
        <ele>244.2</ele>
        <time>2020-06-26T14:39:48Z</time>
      </trkpt>
      <trkpt lat="49.49186" lon="6.34667">
        <ele>244</ele>
        <time>2020-06-26T14:39:49Z</time>
      </trkpt>
      <trkpt lat="49.49186" lon="6.34668">
        <ele>243.8</ele>
        <time>2020-06-26T14:39:50Z</time>
      </trkpt>
      <trkpt lat="49.49186" lon="6.3467">
        <ele>243.6</ele>
        <time>2020-06-26T14:39:51Z</time>
      </trkpt>
      <trkpt lat="49.49186" lon="6.34673">
        <ele>243.4</ele>
        <time>2020-06-26T14:39:52Z</time>
      </trkpt>
      <trkpt lat="49.49187" lon="6.34678">
        <ele>243</ele>
        <time>2020-06-26T14:39:53Z</time>
      </trkpt>
      <trkpt lat="49.49187" lon="6.34679">
        <ele>242.9</ele>
        <time>2020-06-26T14:39:54Z</time>
      </trkpt>
      <trkpt lat="49.49187" lon="6.34683">
        <ele>242.5</ele>
        <time>2020-06-26T14:39:55Z</time>
      </trkpt>
      <trkpt lat="49.49188" lon="6.34684">
        <ele>242.4</ele>
        <time>2020-06-26T14:39:56Z</time>
      </trkpt>
      <trkpt lat="49.49188" lon="6.34687">
        <ele>242.2</ele>
        <time>2020-06-26T14:39:57Z</time>
      </trkpt>
      <trkpt lat="49.49188" lon="6.3469">
        <ele>241.9</ele>
        <time>2020-06-26T14:39:58Z</time>
      </trkpt>
      <trkpt lat="49.49189" lon="6.34695">
        <ele>241.5</ele>
        <time>2020-06-26T14:39:59Z</time>
      </trkpt>
      <trkpt lat="49.4919" lon="6.34696">
        <ele>241.3</ele>
        <time>2020-06-26T14:40:00Z</time>
      </trkpt>
      <trkpt lat="49.49191" lon="6.347">
        <ele>240.9</ele>
        <time>2020-06-26T14:40:01Z</time>
      </trkpt>
      <trkpt lat="49.49192" lon="6.34702">
        <ele>240.7</ele>
        <time>2020-06-26T14:40:02Z</time>
      </trkpt>
      <trkpt lat="49.49193" lon="6.34706">
        <ele>240.3</ele>
        <time>2020-06-26T14:40:03Z</time>
      </trkpt>
      <trkpt lat="49.49194" lon="6.34707">
        <ele>240.2</ele>
        <time>2020-06-26T14:40:04Z</time>
      </trkpt>
      <trkpt lat="49.49195" lon="6.34711">
        <ele>239.8</ele>
        <time>2020-06-26T14:40:05Z</time>
      </trkpt>
      <trkpt lat="49.49196" lon="6.34712">
        <ele>239.7</ele>
        <time>2020-06-26T14:40:06Z</time>
      </trkpt>
      <trkpt lat="49.49196" lon="6.34714">
        <ele>239.5</ele>
        <time>2020-06-26T14:40:07Z</time>
      </trkpt>
      <trkpt lat="49.49196" lon="6.34717">
        <ele>239.3</ele>
        <time>2020-06-26T14:40:08Z</time>
      </trkpt>
      <trkpt lat="49.49196" lon="6.34719">
        <ele>239.1</ele>
        <time>2020-06-26T14:40:09Z</time>
      </trkpt>
      <trkpt lat="49.49197" lon="6.34721">
        <ele>238.9</ele>
        <time>2020-06-26T14:40:10Z</time>
      </trkpt>
      <trkpt lat="49.49197" lon="6.34723">
        <ele>238.7</ele>
        <time>2020-06-26T14:40:11Z</time>
      </trkpt>
      <trkpt lat="49.49198" lon="6.34725">
        <ele>238.5</ele>
        <time>2020-06-26T14:40:12Z</time>
      </trkpt>
      <trkpt lat="49.49198" lon="6.34728">
        <ele>238.3</ele>
        <time>2020-06-26T14:40:13Z</time>
      </trkpt>
      <trkpt lat="49.49198" lon="6.34731">
        <ele>238</ele>
        <time>2020-06-26T14:40:14Z</time>
      </trkpt>
      <trkpt lat="49.49199" lon="6.34732">
        <ele>237.9</ele>
        <time>2020-06-26T14:40:15Z</time>
      </trkpt>
      <trkpt lat="49.492" lon="6.34735">
        <ele>237.6</ele>
        <time>2020-06-26T14:40:16Z</time>
      </trkpt>
      <trkpt lat="49.49202" lon="6.34738">
        <ele>237.2</ele>
        <time>2020-06-26T14:40:17Z</time>
      </trkpt>
      <trkpt lat="49.49202" lon="6.3474">
        <ele>237.1</ele>
        <time>2020-06-26T14:40:18Z</time>
      </trkpt>
      <trkpt lat="49.49203" lon="6.34744">
        <ele>236.7</ele>
        <time>2020-06-26T14:40:19Z</time>
      </trkpt>
      <trkpt lat="49.49203" lon="6.34746">
        <ele>236.6</ele>
        <time>2020-06-26T14:40:20Z</time>
      </trkpt>
      <trkpt lat="49.49204" lon="6.34751">
        <ele>236.2</ele>
        <time>2020-06-26T14:40:21Z</time>
      </trkpt>
      <trkpt lat="49.49204" lon="6.34752">
        <ele>236</ele>
        <time>2020-06-26T14:40:22Z</time>
      </trkpt>
      <trkpt lat="49.49204" lon="6.34755">
        <ele>235.8</ele>
        <time>2020-06-26T14:40:23Z</time>
      </trkpt>
      <trkpt lat="49.49206" lon="6.34757">
        <ele>235.6</ele>
        <time>2020-06-26T14:40:24Z</time>
      </trkpt>
      <trkpt lat="49.49206" lon="6.3476">
        <ele>235.4</ele>
        <time>2020-06-26T14:40:25Z</time>
      </trkpt>
      <trkpt lat="49.49207" lon="6.34761">
        <ele>235.3</ele>
        <time>2020-06-26T14:40:26Z</time>
      </trkpt>
      <trkpt lat="49.49207" lon="6.34763">
        <ele>235.2</ele>
        <time>2020-06-26T14:40:27Z</time>
      </trkpt>
      <trkpt lat="49.49208" lon="6.34764">
        <ele>235</ele>
        <time>2020-06-26T14:40:28Z</time>
      </trkpt>
      <trkpt lat="49.49209" lon="6.34767">
        <ele>234.8</ele>
        <time>2020-06-26T14:40:29Z</time>
      </trkpt>
      <trkpt lat="49.4921" lon="6.34769">
        <ele>234.6</ele>
        <time>2020-06-26T14:40:30Z</time>
      </trkpt>
      <trkpt lat="49.49211" lon="6.34771">
        <ele>234.4</ele>
        <time>2020-06-26T14:40:31Z</time>
      </trkpt>
      <trkpt lat="49.49213" lon="6.34774">
        <ele>234.1</ele>
        <time>2020-06-26T14:40:32Z</time>
      </trkpt>
      <trkpt lat="49.49214" lon="6.34775">
        <ele>233.9</ele>
        <time>2020-06-26T14:40:33Z</time>
      </trkpt>
      <trkpt lat="49.49216" lon="6.34777">
        <ele>233.7</ele>
        <time>2020-06-26T14:40:34Z</time>
      </trkpt>
      <trkpt lat="49.49217" lon="6.34779">
        <ele>233.5</ele>
        <time>2020-06-26T14:40:35Z</time>
      </trkpt>
      <trkpt lat="49.49218" lon="6.3478">
        <ele>233.3</ele>
        <time>2020-06-26T14:40:36Z</time>
      </trkpt>
      <trkpt lat="49.4922" lon="6.34781">
        <ele>233.1</ele>
        <time>2020-06-26T14:40:37Z</time>
      </trkpt>
      <trkpt lat="49.49221" lon="6.34782">
        <ele>232.9</ele>
        <time>2020-06-26T14:40:38Z</time>
      </trkpt>
      <trkpt lat="49.49222" lon="6.34784">
        <ele>232.7</ele>
        <time>2020-06-26T14:40:39Z</time>
      </trkpt>
      <trkpt lat="49.49225" lon="6.34786">
        <ele>232.4</ele>
        <time>2020-06-26T14:40:40Z</time>
      </trkpt>
      <trkpt lat="49.49226" lon="6.34786">
        <ele>232.3</ele>
        <time>2020-06-26T14:40:41Z</time>
      </trkpt>
      <trkpt lat="49.49227" lon="6.34787">
        <ele>232.1</ele>
        <time>2020-06-26T14:40:42Z</time>
      </trkpt>
      <trkpt lat="49.49228" lon="6.34789">
        <ele>231.9</ele>
        <time>2020-06-26T14:40:43Z</time>
      </trkpt>
      <trkpt lat="49.49229" lon="6.34791">
        <ele>231.8</ele>
        <time>2020-06-26T14:40:44Z</time>
      </trkpt>
      <trkpt lat="49.49228" lon="6.34792">
        <ele>231.7</ele>
        <time>2020-06-26T14:40:45Z</time>
      </trkpt>
      <trkpt lat="49.49228" lon="6.34793">
        <ele>231.6</ele>
        <time>2020-06-26T14:40:46Z</time>
      </trkpt>
      <trkpt lat="49.49228" lon="6.34794">
        <ele>231.4</ele>
        <time>2020-06-26T14:40:47Z</time>
      </trkpt>
      <trkpt lat="49.49227" lon="6.34795">
        <ele>231.3</ele>
        <time>2020-06-26T14:40:48Z</time>
      </trkpt>
      <trkpt lat="49.49226" lon="6.34796">
        <ele>231.2</ele>
        <time>2020-06-26T14:40:49Z</time>
      </trkpt>
      <trkpt lat="49.49225" lon="6.34797">
        <ele>231</ele>
        <time>2020-06-26T14:40:50Z</time>
      </trkpt>
      <trkpt lat="49.49226" lon="6.34797">
        <ele>231</ele>
        <time>2020-06-26T14:40:51Z</time>
      </trkpt>
      <trkpt lat="49.49226" lon="6.34797">
        <ele>230.9</ele>
        <time>2020-06-26T14:40:52Z</time>
      </trkpt>
      <trkpt lat="49.49226" lon="6.34797">
        <ele>230.9</ele>
        <time>2020-06-26T14:40:53Z</time>
      </trkpt>
      <trkpt lat="49.49227" lon="6.34797">
        <ele>230.8</ele>
        <time>2020-06-26T14:40:54Z</time>
      </trkpt>
      <trkpt lat="49.49227" lon="6.34797">
        <ele>230.8</ele>
        <time>2020-06-26T14:40:55Z</time>
      </trkpt>
      <trkpt lat="49.49228" lon="6.34797">
        <ele>230.7</ele>
        <time>2020-06-26T14:40:56Z</time>
      </trkpt>
      <trkpt lat="49.49228" lon="6.34797">
        <ele>230.6</ele>
        <time>2020-06-26T14:40:57Z</time>
      </trkpt>
      <trkpt lat="49.49229" lon="6.34797">
        <ele>230.6</ele>
        <time>2020-06-26T14:40:58Z</time>
      </trkpt>
      <trkpt lat="49.49229" lon="6.34797">
        <ele>230.5</ele>
        <time>2020-06-26T14:40:59Z</time>
      </trkpt>
      <trkpt lat="49.4923" lon="6.34797">
        <ele>230.4</ele>
        <time>2020-06-26T14:41:00Z</time>
      </trkpt>
      <trkpt lat="49.4923" lon="6.34797">
        <ele>230.4</ele>
        <time>2020-06-26T14:41:01Z</time>
      </trkpt>
      <trkpt lat="49.49231" lon="6.34797">
        <ele>230.3</ele>
        <time>2020-06-26T14:41:02Z</time>
      </trkpt>
      <trkpt lat="49.49231" lon="6.34797">
        <ele>230.2</ele>
        <time>2020-06-26T14:41:03Z</time>
      </trkpt>
      <trkpt lat="49.49231" lon="6.34797">
        <ele>230.2</ele>
        <time>2020-06-26T14:41:04Z</time>
      </trkpt>
      <trkpt lat="49.49232" lon="6.34798">
        <ele>230.1</ele>
        <time>2020-06-26T14:41:05Z</time>
      </trkpt>
      <trkpt lat="49.49232" lon="6.34798">
        <ele>230</ele>
        <time>2020-06-26T14:41:52Z</time>
      </trkpt>
      <trkpt lat="49.49233" lon="6.34798">
        <ele>230</ele>
        <time>2020-06-26T14:41:53Z</time>
      </trkpt>
      <trkpt lat="49.49235" lon="6.34797">
        <ele>229.5</ele>
        <time>2020-06-26T14:41:54Z</time>
      </trkpt>
      <trkpt lat="49.49236" lon="6.34796">
        <ele>229.4</ele>
        <time>2020-06-26T14:41:55Z</time>
      </trkpt>
      <trkpt lat="49.49236" lon="6.34795">
        <ele>229.3</ele>
        <time>2020-06-26T14:41:56Z</time>
      </trkpt>
      <trkpt lat="49.49238" lon="6.34795">
        <ele>229.1</ele>
        <time>2020-06-26T14:41:57Z</time>
      </trkpt>
      <trkpt lat="49.49239" lon="6.34795">
        <ele>229</ele>
        <time>2020-06-26T14:41:58Z</time>
      </trkpt>
      <trkpt lat="49.4924" lon="6.34795">
        <ele>228.9</ele>
        <time>2020-06-26T14:41:59Z</time>
      </trkpt>
      <trkpt lat="49.49243" lon="6.34796">
        <ele>228.6</ele>
        <time>2020-06-26T14:42:00Z</time>
      </trkpt>
      <trkpt lat="49.49244" lon="6.34796">
        <ele>228.5</ele>
        <time>2020-06-26T14:42:01Z</time>
      </trkpt>
      <trkpt lat="49.49246" lon="6.34797">
        <ele>228.3</ele>
        <time>2020-06-26T14:42:02Z</time>
      </trkpt>
      <trkpt lat="49.49247" lon="6.34797">
        <ele>228.1</ele>
        <time>2020-06-26T14:42:03Z</time>
      </trkpt>
      <trkpt lat="49.49249" lon="6.34798">
        <ele>227.9</ele>
        <time>2020-06-26T14:42:04Z</time>
      </trkpt>
      <trkpt lat="49.49251" lon="6.34798">
        <ele>227.7</ele>
        <time>2020-06-26T14:42:05Z</time>
      </trkpt>
      <trkpt lat="49.49254" lon="6.348">
        <ele>227.3</ele>
        <time>2020-06-26T14:42:06Z</time>
      </trkpt>
      <trkpt lat="49.49255" lon="6.348">
        <ele>227.2</ele>
        <time>2020-06-26T14:42:07Z</time>
      </trkpt>
      <trkpt lat="49.49257" lon="6.34801">
        <ele>227</ele>
        <time>2020-06-26T14:42:08Z</time>
      </trkpt>
      <trkpt lat="49.49258" lon="6.34802">
        <ele>226.8</ele>
        <time>2020-06-26T14:42:09Z</time>
      </trkpt>
      <trkpt lat="49.4926" lon="6.34803">
        <ele>226.6</ele>
        <time>2020-06-26T14:42:10Z</time>
      </trkpt>
      <trkpt lat="49.49261" lon="6.34804">
        <ele>226.4</ele>
        <time>2020-06-26T14:42:11Z</time>
      </trkpt>
      <trkpt lat="49.49263" lon="6.34805">
        <ele>226.2</ele>
        <time>2020-06-26T14:42:12Z</time>
      </trkpt>
      <trkpt lat="49.49264" lon="6.34805">
        <ele>226.1</ele>
        <time>2020-06-26T14:42:13Z</time>
      </trkpt>
      <trkpt lat="49.49265" lon="6.34806">
        <ele>226.1</ele>
        <time>2020-06-26T14:42:14Z</time>
      </trkpt>
      <trkpt lat="49.49266" lon="6.34806">
        <ele>225.9</ele>
        <time>2020-06-26T14:42:15Z</time>
      </trkpt>
      <trkpt lat="49.49268" lon="6.34807">
        <ele>225.8</ele>
        <time>2020-06-26T14:42:16Z</time>
      </trkpt>
      <trkpt lat="49.4927" lon="6.34808">
        <ele>225.6</ele>
        <time>2020-06-26T14:42:17Z</time>
      </trkpt>
      <trkpt lat="49.49271" lon="6.34808">
        <ele>225.5</ele>
        <time>2020-06-26T14:42:18Z</time>
      </trkpt>
      <trkpt lat="49.49271" lon="6.34809">
        <ele>225.4</ele>
        <time>2020-06-26T14:42:19Z</time>
      </trkpt>
      <trkpt lat="49.49273" lon="6.3481">
        <ele>225.2</ele>
        <time>2020-06-26T14:42:20Z</time>
      </trkpt>
      <trkpt lat="49.49274" lon="6.34811">
        <ele>225.1</ele>
        <time>2020-06-26T14:42:21Z</time>
      </trkpt>
      <trkpt lat="49.49277" lon="6.34813">
        <ele>224.8</ele>
        <time>2020-06-26T14:42:22Z</time>
      </trkpt>
      <trkpt lat="49.49278" lon="6.34814">
        <ele>224.7</ele>
        <time>2020-06-26T14:42:23Z</time>
      </trkpt>
      <trkpt lat="49.4928" lon="6.34815">
        <ele>224.4</ele>
        <time>2020-06-26T14:42:24Z</time>
      </trkpt>
      <trkpt lat="49.49281" lon="6.34815">
        <ele>224.4</ele>
        <time>2020-06-26T14:42:25Z</time>
      </trkpt>
      <trkpt lat="49.49283" lon="6.34815">
        <ele>224.2</ele>
        <time>2020-06-26T14:42:26Z</time>
      </trkpt>
      <trkpt lat="49.49284" lon="6.34817">
        <ele>224.1</ele>
        <time>2020-06-26T14:42:27Z</time>
      </trkpt>
      <trkpt lat="49.49287" lon="6.34819">
        <ele>223.8</ele>
        <time>2020-06-26T14:42:28Z</time>
      </trkpt>
      <trkpt lat="49.49288" lon="6.34819">
        <ele>223.8</ele>
        <time>2020-06-26T14:42:29Z</time>
      </trkpt>
      <trkpt lat="49.49289" lon="6.34819">
        <ele>223.7</ele>
        <time>2020-06-26T14:42:30Z</time>
      </trkpt>
      <trkpt lat="49.4929" lon="6.3482">
        <ele>223.6</ele>
        <time>2020-06-26T14:42:31Z</time>
      </trkpt>
      <trkpt lat="49.49291" lon="6.3482">
        <ele>223.5</ele>
        <time>2020-06-26T14:42:32Z</time>
      </trkpt>
      <trkpt lat="49.49292" lon="6.34821">
        <ele>223.4</ele>
        <time>2020-06-26T14:42:33Z</time>
      </trkpt>
      <trkpt lat="49.49293" lon="6.34822">
        <ele>223.3</ele>
        <time>2020-06-26T14:42:34Z</time>
      </trkpt>
      <trkpt lat="49.49295" lon="6.34822">
        <ele>223.2</ele>
        <time>2020-06-26T14:42:35Z</time>
      </trkpt>
      <trkpt lat="49.49297" lon="6.34824">
        <ele>223</ele>
        <time>2020-06-26T14:42:36Z</time>
      </trkpt>
      <trkpt lat="49.49298" lon="6.34825">
        <ele>222.9</ele>
        <time>2020-06-26T14:42:37Z</time>
      </trkpt>
      <trkpt lat="49.493" lon="6.34826">
        <ele>222.8</ele>
        <time>2020-06-26T14:42:38Z</time>
      </trkpt>
      <trkpt lat="49.49301" lon="6.34826">
        <ele>222.6</ele>
        <time>2020-06-26T14:42:39Z</time>
      </trkpt>
      <trkpt lat="49.49303" lon="6.34827">
        <ele>222.5</ele>
        <time>2020-06-26T14:42:40Z</time>
      </trkpt>
      <trkpt lat="49.49304" lon="6.34829">
        <ele>222.4</ele>
        <time>2020-06-26T14:42:41Z</time>
      </trkpt>
      <trkpt lat="49.49305" lon="6.3483">
        <ele>222.2</ele>
        <time>2020-06-26T14:42:42Z</time>
      </trkpt>
      <trkpt lat="49.49307" lon="6.34831">
        <ele>222.1</ele>
        <time>2020-06-26T14:42:43Z</time>
      </trkpt>
      <trkpt lat="49.49308" lon="6.34832">
        <ele>222</ele>
        <time>2020-06-26T14:42:44Z</time>
      </trkpt>
      <trkpt lat="49.49309" lon="6.34833">
        <ele>221.9</ele>
        <time>2020-06-26T14:42:45Z</time>
      </trkpt>
      <trkpt lat="49.49311" lon="6.34835">
        <ele>220.9</ele>
        <time>2020-06-26T14:42:46Z</time>
      </trkpt>
      <trkpt lat="49.49311" lon="6.34837">
        <ele>220.7</ele>
        <time>2020-06-26T14:42:47Z</time>
      </trkpt>
      <trkpt lat="49.49312" lon="6.34838">
        <ele>220.6</ele>
        <time>2020-06-26T14:42:48Z</time>
      </trkpt>
      <trkpt lat="49.49313" lon="6.3484">
        <ele>220.3</ele>
        <time>2020-06-26T14:42:49Z</time>
      </trkpt>
      <trkpt lat="49.49315" lon="6.34844">
        <ele>219.9</ele>
        <time>2020-06-26T14:42:50Z</time>
      </trkpt>
      <trkpt lat="49.49315" lon="6.34845">
        <ele>219.7</ele>
        <time>2020-06-26T14:42:51Z</time>
      </trkpt>
      <trkpt lat="49.49316" lon="6.34847">
        <ele>219.5</ele>
        <time>2020-06-26T14:42:52Z</time>
      </trkpt>
      <trkpt lat="49.49316" lon="6.34849">
        <ele>219.2</ele>
        <time>2020-06-26T14:42:53Z</time>
      </trkpt>
      <trkpt lat="49.49316" lon="6.34854">
        <ele>218.8</ele>
        <time>2020-06-26T14:42:54Z</time>
      </trkpt>
      <trkpt lat="49.49316" lon="6.34855">
        <ele>218.6</ele>
        <time>2020-06-26T14:42:55Z</time>
      </trkpt>
      <trkpt lat="49.49317" lon="6.34858">
        <ele>218.3</ele>
        <time>2020-06-26T14:42:56Z</time>
      </trkpt>
      <trkpt lat="49.49317" lon="6.3486">
        <ele>217.9</ele>
        <time>2020-06-26T14:42:57Z</time>
      </trkpt>
      <trkpt lat="49.49318" lon="6.34865">
        <ele>217.4</ele>
        <time>2020-06-26T14:42:58Z</time>
      </trkpt>
      <trkpt lat="49.49318" lon="6.34866">
        <ele>217.3</ele>
        <time>2020-06-26T14:42:59Z</time>
      </trkpt>
      <trkpt lat="49.49318" lon="6.34869">
        <ele>216.9</ele>
        <time>2020-06-26T14:43:00Z</time>
      </trkpt>
      <trkpt lat="49.49318" lon="6.34872">
        <ele>216.6</ele>
        <time>2020-06-26T14:43:01Z</time>
      </trkpt>
      <trkpt lat="49.49318" lon="6.34876">
        <ele>216.1</ele>
        <time>2020-06-26T14:43:02Z</time>
      </trkpt>
      <trkpt lat="49.49318" lon="6.34878">
        <ele>215.9</ele>
        <time>2020-06-26T14:43:03Z</time>
      </trkpt>
      <trkpt lat="49.49318" lon="6.3488">
        <ele>214.6</ele>
        <time>2020-06-26T14:43:04Z</time>
      </trkpt>
      <trkpt lat="49.49318" lon="6.34882">
        <ele>214.6</ele>
        <time>2020-06-26T14:43:05Z</time>
      </trkpt>
      <trkpt lat="49.49317" lon="6.34884">
        <ele>214.6</ele>
        <time>2020-06-26T14:43:06Z</time>
      </trkpt>
      <trkpt lat="49.49316" lon="6.34886">
        <ele>214.6</ele>
        <time>2020-06-26T14:43:07Z</time>
      </trkpt>
      <trkpt lat="49.49317" lon="6.34889">
        <ele>214.6</ele>
        <time>2020-06-26T14:43:08Z</time>
      </trkpt>
      <trkpt lat="49.49318" lon="6.34891">
        <ele>214.6</ele>
        <time>2020-06-26T14:43:09Z</time>
      </trkpt>
      <trkpt lat="49.49319" lon="6.34892">
        <ele>214.1</ele>
        <time>2020-06-26T14:43:10Z</time>
      </trkpt>
      <trkpt lat="49.49321" lon="6.34893">
        <ele>214</ele>
        <time>2020-06-26T14:43:11Z</time>
      </trkpt>
      <trkpt lat="49.49323" lon="6.34896">
        <ele>213.7</ele>
        <time>2020-06-26T14:43:12Z</time>
      </trkpt>
      <trkpt lat="49.49324" lon="6.34897">
        <ele>213.6</ele>
        <time>2020-06-26T14:43:13Z</time>
      </trkpt>
      <trkpt lat="49.49325" lon="6.34897">
        <ele>213.5</ele>
        <time>2020-06-26T14:43:14Z</time>
      </trkpt>
      <trkpt lat="49.49327" lon="6.34898">
        <ele>213.4</ele>
        <time>2020-06-26T14:43:15Z</time>
      </trkpt>
      <trkpt lat="49.49328" lon="6.34898">
        <ele>213.3</ele>
        <time>2020-06-26T14:43:16Z</time>
      </trkpt>
      <trkpt lat="49.49329" lon="6.34899">
        <ele>213.2</ele>
        <time>2020-06-26T14:43:17Z</time>
      </trkpt>
      <trkpt lat="49.49331" lon="6.34899">
        <ele>213.1</ele>
        <time>2020-06-26T14:43:18Z</time>
      </trkpt>
      <trkpt lat="49.49332" lon="6.34899">
        <ele>213</ele>
        <time>2020-06-26T14:43:19Z</time>
      </trkpt>
      <trkpt lat="49.49334" lon="6.34899">
        <ele>212.8</ele>
        <time>2020-06-26T14:43:20Z</time>
      </trkpt>
      <trkpt lat="49.49335" lon="6.34898">
        <ele>212.7</ele>
        <time>2020-06-26T14:43:21Z</time>
      </trkpt>
      <trkpt lat="49.49337" lon="6.34898">
        <ele>212.6</ele>
        <time>2020-06-26T14:43:22Z</time>
      </trkpt>
      <trkpt lat="49.49338" lon="6.34898">
        <ele>212.5</ele>
        <time>2020-06-26T14:43:23Z</time>
      </trkpt>
      <trkpt lat="49.49338" lon="6.34898">
        <ele>212.5</ele>
        <time>2020-06-26T14:43:24Z</time>
      </trkpt>
      <trkpt lat="49.49338" lon="6.34898">
        <ele>212.5</ele>
        <time>2020-06-26T14:43:25Z</time>
      </trkpt>
      <trkpt lat="49.49339" lon="6.34898">
        <ele>212.4</ele>
        <time>2020-06-26T14:43:26Z</time>
      </trkpt>
      <trkpt lat="49.4934" lon="6.34898">
        <ele>212.3</ele>
        <time>2020-06-26T14:43:27Z</time>
      </trkpt>
      <trkpt lat="49.49341" lon="6.34898">
        <ele>212.2</ele>
        <time>2020-06-26T14:43:28Z</time>
      </trkpt>
      <trkpt lat="49.49342" lon="6.34898">
        <ele>212.1</ele>
        <time>2020-06-26T14:43:29Z</time>
      </trkpt>
      <trkpt lat="49.49343" lon="6.34898">
        <ele>212.1</ele>
        <time>2020-06-26T14:43:30Z</time>
      </trkpt>
      <trkpt lat="49.49343" lon="6.34898">
        <ele>212</ele>
        <time>2020-06-26T14:43:31Z</time>
      </trkpt>
      <trkpt lat="49.49343" lon="6.34899">
        <ele>212</ele>
        <time>2020-06-26T14:43:32Z</time>
      </trkpt>
      <trkpt lat="49.49343" lon="6.34899">
        <ele>212</ele>
        <time>2020-06-26T14:43:33Z</time>
      </trkpt>
      <trkpt lat="49.49343" lon="6.34899">
        <ele>211.9</ele>
        <time>2020-06-26T14:43:34Z</time>
      </trkpt>
      <trkpt lat="49.49343" lon="6.34899">
        <ele>211.9</ele>
        <time>2020-06-26T14:43:35Z</time>
      </trkpt>
      <trkpt lat="49.49343" lon="6.34899">
        <ele>211.9</ele>
        <time>2020-06-26T14:43:36Z</time>
      </trkpt>
      <trkpt lat="49.49343" lon="6.34899">
        <ele>211.9</ele>
        <time>2020-06-26T14:43:37Z</time>
      </trkpt>
      <trkpt lat="49.49343" lon="6.349">
        <ele>211.9</ele>
        <time>2020-06-26T14:43:38Z</time>
      </trkpt>
      <trkpt lat="49.49343" lon="6.349">
        <ele>211.9</ele>
        <time>2020-06-26T14:43:39Z</time>
      </trkpt>
      <trkpt lat="49.49344" lon="6.349">
        <ele>211.9</ele>
        <time>2020-06-26T14:43:40Z</time>
      </trkpt>
      <trkpt lat="49.49344" lon="6.349">
        <ele>211.9</ele>
        <time>2020-06-26T14:43:41Z</time>
      </trkpt>
      <trkpt lat="49.49347" lon="6.34901">
        <ele>211.5</ele>
        <time>2020-06-26T14:43:46Z</time>
      </trkpt>
      <trkpt lat="49.49349" lon="6.34902">
        <ele>211.3</ele>
        <time>2020-06-26T14:43:47Z</time>
      </trkpt>
      <trkpt lat="49.49351" lon="6.34904">
        <ele>210.9</ele>
        <time>2020-06-26T14:43:48Z</time>
      </trkpt>
      <trkpt lat="49.49352" lon="6.34905">
        <ele>210.7</ele>
        <time>2020-06-26T14:43:49Z</time>
      </trkpt>
      <trkpt lat="49.49355" lon="6.34908">
        <ele>210.2</ele>
        <time>2020-06-26T14:43:50Z</time>
      </trkpt>
      <trkpt lat="49.49356" lon="6.34909">
        <ele>210.1</ele>
        <time>2020-06-26T14:43:51Z</time>
      </trkpt>
      <trkpt lat="49.49358" lon="6.34911">
        <ele>209.5</ele>
        <time>2020-06-26T14:43:52Z</time>
      </trkpt>
      <trkpt lat="49.49359" lon="6.34911">
        <ele>209.4</ele>
        <time>2020-06-26T14:43:53Z</time>
      </trkpt>
      <trkpt lat="49.49361" lon="6.34912">
        <ele>209</ele>
        <time>2020-06-26T14:43:54Z</time>
      </trkpt>
      <trkpt lat="49.49362" lon="6.34913">
        <ele>208.7</ele>
        <time>2020-06-26T14:43:55Z</time>
      </trkpt>
      <trkpt lat="49.49364" lon="6.34915">
        <ele>208.3</ele>
        <time>2020-06-26T14:43:56Z</time>
      </trkpt>
      <trkpt lat="49.49365" lon="6.34916">
        <ele>208</ele>
        <time>2020-06-26T14:43:57Z</time>
      </trkpt>
      <trkpt lat="49.49366" lon="6.34919">
        <ele>207.5</ele>
        <time>2020-06-26T14:43:58Z</time>
      </trkpt>
      <trkpt lat="49.49367" lon="6.3492">
        <ele>207.3</ele>
        <time>2020-06-26T14:43:59Z</time>
      </trkpt>
      <trkpt lat="49.49368" lon="6.34921">
        <ele>207</ele>
        <time>2020-06-26T14:44:00Z</time>
      </trkpt>
      <trkpt lat="49.4937" lon="6.34922">
        <ele>206.6</ele>
        <time>2020-06-26T14:44:01Z</time>
      </trkpt>
      <trkpt lat="49.49371" lon="6.34923">
        <ele>206.3</ele>
        <time>2020-06-26T14:44:02Z</time>
      </trkpt>
      <trkpt lat="49.49374" lon="6.34924">
        <ele>205.6</ele>
        <time>2020-06-26T14:44:03Z</time>
      </trkpt>
      <trkpt lat="49.49375" lon="6.34925">
        <ele>205.4</ele>
        <time>2020-06-26T14:44:04Z</time>
      </trkpt>
      <trkpt lat="49.49378" lon="6.34927">
        <ele>204.6</ele>
        <time>2020-06-26T14:44:05Z</time>
      </trkpt>
      <trkpt lat="49.49379" lon="6.34928">
        <ele>204.4</ele>
        <time>2020-06-26T14:44:06Z</time>
      </trkpt>
      <trkpt lat="49.49379" lon="6.3493">
        <ele>204.1</ele>
        <time>2020-06-26T14:44:07Z</time>
      </trkpt>
      <trkpt lat="49.49381" lon="6.34931">
        <ele>203.7</ele>
        <time>2020-06-26T14:44:08Z</time>
      </trkpt>
      <trkpt lat="49.49381" lon="6.34931">
        <ele>203.5</ele>
        <time>2020-06-26T14:44:09Z</time>
      </trkpt>
      <trkpt lat="49.49382" lon="6.34931">
        <ele>203.3</ele>
        <time>2020-06-26T14:44:10Z</time>
      </trkpt>
      <trkpt lat="49.49383" lon="6.34931">
        <ele>203.2</ele>
        <time>2020-06-26T14:44:11Z</time>
      </trkpt>
      <trkpt lat="49.49383" lon="6.34931">
        <ele>203.2</ele>
        <time>2020-06-26T14:44:12Z</time>
      </trkpt>
      <trkpt lat="49.49383" lon="6.34931">
        <ele>203.2</ele>
        <time>2020-06-26T14:44:13Z</time>
      </trkpt>
      <trkpt lat="49.49383" lon="6.34931">
        <ele>203.2</ele>
        <time>2020-06-26T14:44:14Z</time>
      </trkpt>
      <trkpt lat="49.49383" lon="6.34931">
        <ele>203.2</ele>
        <time>2020-06-26T14:44:15Z</time>
      </trkpt>
      <trkpt lat="49.49383" lon="6.34931">
        <ele>203.1</ele>
        <time>2020-06-26T14:44:16Z</time>
      </trkpt>
      <trkpt lat="49.49383" lon="6.34931">
        <ele>203.1</ele>
        <time>2020-06-26T14:44:17Z</time>
      </trkpt>
      <trkpt lat="49.49383" lon="6.34931">
        <ele>203.1</ele>
        <time>2020-06-26T14:44:18Z</time>
      </trkpt>
      <trkpt lat="49.49383" lon="6.34931">
        <ele>203.1</ele>
        <time>2020-06-26T14:44:19Z</time>
      </trkpt>
      <trkpt lat="49.49383" lon="6.34931">
        <ele>203.1</ele>
        <time>2020-06-26T14:44:20Z</time>
      </trkpt>
      <trkpt lat="49.49383" lon="6.34931">
        <ele>203.1</ele>
        <time>2020-06-26T14:44:21Z</time>
      </trkpt>
      <trkpt lat="49.49385" lon="6.34934">
        <ele>202.4</ele>
        <time>2020-06-26T14:44:26Z</time>
      </trkpt>
      <trkpt lat="49.49387" lon="6.34935">
        <ele>201.9</ele>
        <time>2020-06-26T14:44:27Z</time>
      </trkpt>
      <trkpt lat="49.49389" lon="6.34936">
        <ele>201.6</ele>
        <time>2020-06-26T14:44:28Z</time>
      </trkpt>
      <trkpt lat="49.4939" lon="6.34938">
        <ele>201.2</ele>
        <time>2020-06-26T14:44:29Z</time>
      </trkpt>
      <trkpt lat="49.49391" lon="6.34939">
        <ele>200.8</ele>
        <time>2020-06-26T14:44:30Z</time>
      </trkpt>
      <trkpt lat="49.49393" lon="6.34941">
        <ele>200.5</ele>
        <time>2020-06-26T14:44:31Z</time>
      </trkpt>
      <trkpt lat="49.49394" lon="6.34943">
        <ele>200</ele>
        <time>2020-06-26T14:44:32Z</time>
      </trkpt>
      <trkpt lat="49.49395" lon="6.34944">
        <ele>199.7</ele>
        <time>2020-06-26T14:44:33Z</time>
      </trkpt>
      <trkpt lat="49.49397" lon="6.34947">
        <ele>199.1</ele>
        <time>2020-06-26T14:44:34Z</time>
      </trkpt>
      <trkpt lat="49.49398" lon="6.34948">
        <ele>198.9</ele>
        <time>2020-06-26T14:44:35Z</time>
      </trkpt>
      <trkpt lat="49.49401" lon="6.3495">
        <ele>198.3</ele>
        <time>2020-06-26T14:44:36Z</time>
      </trkpt>
      <trkpt lat="49.49401" lon="6.34951">
        <ele>198.1</ele>
        <time>2020-06-26T14:44:37Z</time>
      </trkpt>
      <trkpt lat="49.49403" lon="6.34952">
        <ele>197.7</ele>
        <time>2020-06-26T14:44:38Z</time>
      </trkpt>
      <trkpt lat="49.49405" lon="6.34954">
        <ele>197.3</ele>
        <time>2020-06-26T14:44:39Z</time>
      </trkpt>
      <trkpt lat="49.49408" lon="6.34956">
        <ele>196.7</ele>
        <time>2020-06-26T14:44:40Z</time>
      </trkpt>
      <trkpt lat="49.49408" lon="6.34956">
        <ele>196.6</ele>
        <time>2020-06-26T14:44:41Z</time>
      </trkpt>
      <trkpt lat="49.4941" lon="6.34957">
        <ele>196.2</ele>
        <time>2020-06-26T14:44:42Z</time>
      </trkpt>
      <trkpt lat="49.49411" lon="6.34958">
        <ele>196</ele>
        <time>2020-06-26T14:44:43Z</time>
      </trkpt>
      <trkpt lat="49.49414" lon="6.3496">
        <ele>195.5</ele>
        <time>2020-06-26T14:44:44Z</time>
      </trkpt>
      <trkpt lat="49.49415" lon="6.34961">
        <ele>195.2</ele>
        <time>2020-06-26T14:44:45Z</time>
      </trkpt>
      <trkpt lat="49.49416" lon="6.34962">
        <ele>194.9</ele>
        <time>2020-06-26T14:44:46Z</time>
      </trkpt>
      <trkpt lat="49.49418" lon="6.34964">
        <ele>194.6</ele>
        <time>2020-06-26T14:44:47Z</time>
      </trkpt>
      <trkpt lat="49.4942" lon="6.34966">
        <ele>193</ele>
        <time>2020-06-26T14:44:48Z</time>
      </trkpt>
      <trkpt lat="49.49421" lon="6.34968">
        <ele>192.9</ele>
        <time>2020-06-26T14:44:49Z</time>
      </trkpt>
      <trkpt lat="49.49424" lon="6.3497">
        <ele>192.9</ele>
        <time>2020-06-26T14:44:50Z</time>
      </trkpt>
      <trkpt lat="49.49425" lon="6.3497">
        <ele>192.8</ele>
        <time>2020-06-26T14:44:51Z</time>
      </trkpt>
      <trkpt lat="49.49425" lon="6.34972">
        <ele>192.8</ele>
        <time>2020-06-26T14:44:52Z</time>
      </trkpt>
      <trkpt lat="49.49426" lon="6.34974">
        <ele>192.8</ele>
        <time>2020-06-26T14:44:53Z</time>
      </trkpt>
      <trkpt lat="49.49426" lon="6.34975">
        <ele>192.7</ele>
        <time>2020-06-26T14:44:54Z</time>
      </trkpt>
      <trkpt lat="49.49425" lon="6.34978">
        <ele>192.7</ele>
        <time>2020-06-26T14:44:55Z</time>
      </trkpt>
      <trkpt lat="49.49424" lon="6.34979">
        <ele>192.6</ele>
        <time>2020-06-26T14:44:56Z</time>
      </trkpt>
      <trkpt lat="49.49422" lon="6.3498">
        <ele>192.6</ele>
        <time>2020-06-26T14:44:57Z</time>
      </trkpt>
      <trkpt lat="49.49421" lon="6.34981">
        <ele>192.6</ele>
        <time>2020-06-26T14:44:58Z</time>
      </trkpt>
      <trkpt lat="49.4942" lon="6.34982">
        <ele>192.5</ele>
        <time>2020-06-26T14:44:59Z</time>
      </trkpt>
      <trkpt lat="49.49419" lon="6.34982">
        <ele>192.5</ele>
        <time>2020-06-26T14:45:00Z</time>
      </trkpt>
      <trkpt lat="49.49417" lon="6.34981">
        <ele>192.5</ele>
        <time>2020-06-26T14:45:01Z</time>
      </trkpt>
      <trkpt lat="49.49413" lon="6.34982">
        <ele>192.4</ele>
        <time>2020-06-26T14:45:02Z</time>
      </trkpt>
      <trkpt lat="49.49412" lon="6.34983">
        <ele>192.3</ele>
        <time>2020-06-26T14:45:03Z</time>
      </trkpt>
      <trkpt lat="49.4941" lon="6.34984">
        <ele>192.3</ele>
        <time>2020-06-26T14:45:04Z</time>
      </trkpt>
      <trkpt lat="49.49409" lon="6.34985">
        <ele>192.2</ele>
        <time>2020-06-26T14:45:05Z</time>
      </trkpt>
      <trkpt lat="49.49408" lon="6.34986">
        <ele>192.2</ele>
        <time>2020-06-26T14:45:06Z</time>
      </trkpt>
      <trkpt lat="49.49406" lon="6.34987">
        <ele>192.1</ele>
        <time>2020-06-26T14:45:07Z</time>
      </trkpt>
      <trkpt lat="49.49404" lon="6.34988">
        <ele>192</ele>
        <time>2020-06-26T14:45:08Z</time>
      </trkpt>
      <trkpt lat="49.49403" lon="6.34988">
        <ele>192</ele>
        <time>2020-06-26T14:45:09Z</time>
      </trkpt>
      <trkpt lat="49.49402" lon="6.34988">
        <ele>191.9</ele>
        <time>2020-06-26T14:45:10Z</time>
      </trkpt>
      <trkpt lat="49.49399" lon="6.34989">
        <ele>191.8</ele>
        <time>2020-06-26T14:45:11Z</time>
      </trkpt>
      <trkpt lat="49.49398" lon="6.34989">
        <ele>191.8</ele>
        <time>2020-06-26T14:45:12Z</time>
      </trkpt>
      <trkpt lat="49.49396" lon="6.3499">
        <ele>191.7</ele>
        <time>2020-06-26T14:45:13Z</time>
      </trkpt>
      <trkpt lat="49.49394" lon="6.3499">
        <ele>191.7</ele>
        <time>2020-06-26T14:45:14Z</time>
      </trkpt>
      <trkpt lat="49.49393" lon="6.3499">
        <ele>191.6</ele>
        <time>2020-06-26T14:45:15Z</time>
      </trkpt>
      <trkpt lat="49.49391" lon="6.3499">
        <ele>191.6</ele>
        <time>2020-06-26T14:45:16Z</time>
      </trkpt>
      <trkpt lat="49.4939" lon="6.34991">
        <ele>191.6</ele>
        <time>2020-06-26T14:45:17Z</time>
      </trkpt>
      <trkpt lat="49.49388" lon="6.34991">
        <ele>191.5</ele>
        <time>2020-06-26T14:45:18Z</time>
      </trkpt>
      <trkpt lat="49.49387" lon="6.34992">
        <ele>191.5</ele>
        <time>2020-06-26T14:45:19Z</time>
      </trkpt>
      <trkpt lat="49.49386" lon="6.34991">
        <ele>191.5</ele>
        <time>2020-06-26T14:45:20Z</time>
      </trkpt>
      <trkpt lat="49.49384" lon="6.34992">
        <ele>191.5</ele>
        <time>2020-06-26T14:45:21Z</time>
      </trkpt>
      <trkpt lat="49.49382" lon="6.34992">
        <ele>191.4</ele>
        <time>2020-06-26T14:45:22Z</time>
      </trkpt>
      <trkpt lat="49.49381" lon="6.34993">
        <ele>191.4</ele>
        <time>2020-06-26T14:45:23Z</time>
      </trkpt>
      <trkpt lat="49.49379" lon="6.34993">
        <ele>191.4</ele>
        <time>2020-06-26T14:45:24Z</time>
      </trkpt>
      <trkpt lat="49.49376" lon="6.34994">
        <ele>191.3</ele>
        <time>2020-06-26T14:45:25Z</time>
      </trkpt>
      <trkpt lat="49.49375" lon="6.34994">
        <ele>191.3</ele>
        <time>2020-06-26T14:45:26Z</time>
      </trkpt>
      <trkpt lat="49.49373" lon="6.34995">
        <ele>191.3</ele>
        <time>2020-06-26T14:45:27Z</time>
      </trkpt>
      <trkpt lat="49.49372" lon="6.34995">
        <ele>191.3</ele>
        <time>2020-06-26T14:45:28Z</time>
      </trkpt>
      <trkpt lat="49.49369" lon="6.34995">
        <ele>191.2</ele>
        <time>2020-06-26T14:45:29Z</time>
      </trkpt>
      <trkpt lat="49.49368" lon="6.34995">
        <ele>191.2</ele>
        <time>2020-06-26T14:45:30Z</time>
      </trkpt>
      <trkpt lat="49.49366" lon="6.34994">
        <ele>191.1</ele>
        <time>2020-06-26T14:45:31Z</time>
      </trkpt>
      <trkpt lat="49.49364" lon="6.34995">
        <ele>191.1</ele>
        <time>2020-06-26T14:45:32Z</time>
      </trkpt>
      <trkpt lat="49.49363" lon="6.34994">
        <ele>191.1</ele>
        <time>2020-06-26T14:45:33Z</time>
      </trkpt>
      <trkpt lat="49.49361" lon="6.34994">
        <ele>191</ele>
        <time>2020-06-26T14:45:34Z</time>
      </trkpt>
      <trkpt lat="49.49359" lon="6.34994">
        <ele>191</ele>
        <time>2020-06-26T14:45:35Z</time>
      </trkpt>
      <trkpt lat="49.49358" lon="6.34993">
        <ele>190.9</ele>
        <time>2020-06-26T14:45:36Z</time>
      </trkpt>
      <trkpt lat="49.49356" lon="6.34993">
        <ele>190.9</ele>
        <time>2020-06-26T14:45:37Z</time>
      </trkpt>
      <trkpt lat="49.49354" lon="6.34993">
        <ele>190.9</ele>
        <time>2020-06-26T14:45:38Z</time>
      </trkpt>
      <trkpt lat="49.49352" lon="6.34992">
        <ele>190.8</ele>
        <time>2020-06-26T14:45:39Z</time>
      </trkpt>
      <trkpt lat="49.49351" lon="6.34992">
        <ele>190.8</ele>
        <time>2020-06-26T14:45:40Z</time>
      </trkpt>
      <trkpt lat="49.4935" lon="6.34992">
        <ele>190.8</ele>
        <time>2020-06-26T14:45:41Z</time>
      </trkpt>
      <trkpt lat="49.49348" lon="6.34992">
        <ele>190.7</ele>
        <time>2020-06-26T14:45:42Z</time>
      </trkpt>
      <trkpt lat="49.49347" lon="6.34992">
        <ele>190.7</ele>
        <time>2020-06-26T14:45:43Z</time>
      </trkpt>
      <trkpt lat="49.49346" lon="6.34992">
        <ele>190.7</ele>
        <time>2020-06-26T14:45:44Z</time>
      </trkpt>
      <trkpt lat="49.49344" lon="6.34992">
        <ele>190.7</ele>
        <time>2020-06-26T14:45:45Z</time>
      </trkpt>
      <trkpt lat="49.49342" lon="6.34991">
        <ele>190.6</ele>
        <time>2020-06-26T14:45:46Z</time>
      </trkpt>
      <trkpt lat="49.49341" lon="6.34992">
        <ele>190.6</ele>
        <time>2020-06-26T14:45:47Z</time>
      </trkpt>
      <trkpt lat="49.4934" lon="6.34992">
        <ele>190.6</ele>
        <time>2020-06-26T14:45:48Z</time>
      </trkpt>
      <trkpt lat="49.49338" lon="6.34992">
        <ele>190.6</ele>
        <time>2020-06-26T14:45:49Z</time>
      </trkpt>
      <trkpt lat="49.49337" lon="6.34992">
        <ele>190.5</ele>
        <time>2020-06-26T14:45:50Z</time>
      </trkpt>
      <trkpt lat="49.49335" lon="6.34992">
        <ele>190.5</ele>
        <time>2020-06-26T14:45:51Z</time>
      </trkpt>
      <trkpt lat="49.49332" lon="6.34991">
        <ele>190.5</ele>
        <time>2020-06-26T14:45:52Z</time>
      </trkpt>
      <trkpt lat="49.49331" lon="6.3499">
        <ele>190.5</ele>
        <time>2020-06-26T14:45:53Z</time>
      </trkpt>
      <trkpt lat="49.49329" lon="6.34989">
        <ele>190.4</ele>
        <time>2020-06-26T14:45:54Z</time>
      </trkpt>
      <trkpt lat="49.49328" lon="6.34989">
        <ele>190.4</ele>
        <time>2020-06-26T14:45:55Z</time>
      </trkpt>
      <trkpt lat="49.49326" lon="6.34988">
        <ele>190.4</ele>
        <time>2020-06-26T14:45:56Z</time>
      </trkpt>
      <trkpt lat="49.49325" lon="6.34989">
        <ele>190.4</ele>
        <time>2020-06-26T14:45:57Z</time>
      </trkpt>
      <trkpt lat="49.49323" lon="6.34989">
        <ele>190.4</ele>
        <time>2020-06-26T14:45:58Z</time>
      </trkpt>
      <trkpt lat="49.49321" lon="6.34989">
        <ele>190.4</ele>
        <time>2020-06-26T14:45:59Z</time>
      </trkpt>
      <trkpt lat="49.4932" lon="6.34989">
        <ele>190.4</ele>
        <time>2020-06-26T14:46:00Z</time>
      </trkpt>
      <trkpt lat="49.49318" lon="6.34989">
        <ele>190.3</ele>
        <time>2020-06-26T14:46:01Z</time>
      </trkpt>
      <trkpt lat="49.49317" lon="6.3499">
        <ele>190.3</ele>
        <time>2020-06-26T14:46:02Z</time>
      </trkpt>
      <trkpt lat="49.49315" lon="6.3499">
        <ele>190.3</ele>
        <time>2020-06-26T14:46:03Z</time>
      </trkpt>
      <trkpt lat="49.49313" lon="6.34989">
        <ele>190.3</ele>
        <time>2020-06-26T14:46:04Z</time>
      </trkpt>
      <trkpt lat="49.49312" lon="6.34989">
        <ele>190.3</ele>
        <time>2020-06-26T14:46:05Z</time>
      </trkpt>
      <trkpt lat="49.4931" lon="6.34989">
        <ele>190.3</ele>
        <time>2020-06-26T14:46:06Z</time>
      </trkpt>
      <trkpt lat="49.49308" lon="6.34989">
        <ele>190.3</ele>
        <time>2020-06-26T14:46:07Z</time>
      </trkpt>
      <trkpt lat="49.49307" lon="6.34988">
        <ele>190.3</ele>
        <time>2020-06-26T14:46:08Z</time>
      </trkpt>
      <trkpt lat="49.49306" lon="6.34988">
        <ele>190.2</ele>
        <time>2020-06-26T14:46:09Z</time>
      </trkpt>
      <trkpt lat="49.49304" lon="6.34987">
        <ele>190.2</ele>
        <time>2020-06-26T14:46:10Z</time>
      </trkpt>
      <trkpt lat="49.49303" lon="6.34987">
        <ele>190.2</ele>
        <time>2020-06-26T14:46:11Z</time>
      </trkpt>
      <trkpt lat="49.49302" lon="6.34986">
        <ele>190.2</ele>
        <time>2020-06-26T14:46:12Z</time>
      </trkpt>
      <trkpt lat="49.49302" lon="6.34986">
        <ele>190.3</ele>
        <time>2020-06-26T14:46:13Z</time>
      </trkpt>
      <trkpt lat="49.49301" lon="6.34986">
        <ele>190.3</ele>
        <time>2020-06-26T14:46:14Z</time>
      </trkpt>
      <trkpt lat="49.49301" lon="6.34986">
        <ele>190.3</ele>
        <time>2020-06-26T14:46:15Z</time>
      </trkpt>
      <trkpt lat="49.49301" lon="6.34986">
        <ele>190.3</ele>
        <time>2020-06-26T14:46:16Z</time>
      </trkpt>
      <trkpt lat="49.49301" lon="6.34986">
        <ele>190.3</ele>
        <time>2020-06-26T14:46:17Z</time>
      </trkpt>
      <trkpt lat="49.49301" lon="6.34986">
        <ele>190.3</ele>
        <time>2020-06-26T14:46:18Z</time>
      </trkpt>
      <trkpt lat="49.49301" lon="6.34986">
        <ele>190.3</ele>
        <time>2020-06-26T14:46:19Z</time>
      </trkpt>
      <trkpt lat="49.49301" lon="6.34986">
        <ele>190.3</ele>
        <time>2020-06-26T14:46:20Z</time>
      </trkpt>
      <trkpt lat="49.49301" lon="6.34986">
        <ele>190.3</ele>
        <time>2020-06-26T14:46:21Z</time>
      </trkpt>
      <trkpt lat="49.49301" lon="6.34986">
        <ele>190.3</ele>
        <time>2020-06-26T14:46:22Z</time>
      </trkpt>
      <trkpt lat="49.49301" lon="6.34987">
        <ele>190.3</ele>
        <time>2020-06-26T14:46:23Z</time>
      </trkpt>
      <trkpt lat="49.49301" lon="6.34988">
        <ele>190.3</ele>
        <time>2020-06-26T14:46:24Z</time>
      </trkpt>
      <trkpt lat="49.493" lon="6.34997">
        <ele>190.4</ele>
        <time>2020-06-26T14:46:36Z</time>
      </trkpt>
      <trkpt lat="49.493" lon="6.34997">
        <ele>190.4</ele>
        <time>2020-06-26T14:46:37Z</time>
      </trkpt>
      <trkpt lat="49.493" lon="6.34997">
        <ele>190.4</ele>
        <time>2020-06-26T14:46:38Z</time>
      </trkpt>
      <trkpt lat="49.493" lon="6.34997">
        <ele>190.4</ele>
        <time>2020-06-26T14:46:39Z</time>
      </trkpt>
      <trkpt lat="49.49301" lon="6.34998">
        <ele>190.4</ele>
        <time>2020-06-26T14:46:40Z</time>
      </trkpt>
      <trkpt lat="49.49301" lon="6.34998">
        <ele>190.4</ele>
        <time>2020-06-26T14:46:41Z</time>
      </trkpt>
      <trkpt lat="49.49301" lon="6.34999">
        <ele>190.4</ele>
        <time>2020-06-26T14:46:42Z</time>
      </trkpt>
      <trkpt lat="49.49301" lon="6.34999">
        <ele>190.4</ele>
        <time>2020-06-26T14:46:43Z</time>
      </trkpt>
      <trkpt lat="49.49301" lon="6.34999">
        <ele>190.4</ele>
        <time>2020-06-26T14:46:44Z</time>
      </trkpt>
      <trkpt lat="49.49301" lon="6.34999">
        <ele>190.4</ele>
        <time>2020-06-26T14:46:45Z</time>
      </trkpt>
      <trkpt lat="49.49301" lon="6.34999">
        <ele>190.4</ele>
        <time>2020-06-26T14:46:46Z</time>
      </trkpt>
      <trkpt lat="49.49298" lon="6.35023">
        <ele>184.4</ele>
        <time>2020-06-26T14:47:50Z</time>
      </trkpt>
      <trkpt lat="49.49299" lon="6.35024">
        <ele>183.2</ele>
        <time>2020-06-26T14:47:51Z</time>
      </trkpt>
      <trkpt lat="49.49299" lon="6.35026">
        <ele>183</ele>
        <time>2020-06-26T14:47:52Z</time>
      </trkpt>
      <trkpt lat="49.49299" lon="6.35029">
        <ele>181.9</ele>
        <time>2020-06-26T14:47:53Z</time>
      </trkpt>
      <trkpt lat="49.49299" lon="6.3503">
        <ele>181.6</ele>
        <time>2020-06-26T14:47:54Z</time>
      </trkpt>
      <trkpt lat="49.49299" lon="6.35029">
        <ele>181.4</ele>
        <time>2020-06-26T14:47:55Z</time>
      </trkpt>
      <trkpt lat="49.493" lon="6.35029">
        <ele>181.2</ele>
        <time>2020-06-26T14:47:56Z</time>
      </trkpt>
      <trkpt lat="49.493" lon="6.3503">
        <ele>181</ele>
        <time>2020-06-26T14:47:57Z</time>
      </trkpt>
      <trkpt lat="49.493" lon="6.35031">
        <ele>180.8</ele>
        <time>2020-06-26T14:47:58Z</time>
      </trkpt>
      <trkpt lat="49.493" lon="6.35031">
        <ele>180.5</ele>
        <time>2020-06-26T14:47:59Z</time>
      </trkpt>
      <trkpt lat="49.493" lon="6.35031">
        <ele>180.3</ele>
        <time>2020-06-26T14:48:00Z</time>
      </trkpt>
      <trkpt lat="49.493" lon="6.3503">
        <ele>180</ele>
        <time>2020-06-26T14:48:01Z</time>
      </trkpt>
      <trkpt lat="49.49299" lon="6.3503">
        <ele>179.8</ele>
        <time>2020-06-26T14:48:02Z</time>
      </trkpt>
      <trkpt lat="49.49299" lon="6.35031">
        <ele>179.6</ele>
        <time>2020-06-26T14:48:03Z</time>
      </trkpt>
      <trkpt lat="49.49299" lon="6.35031">
        <ele>179.3</ele>
        <time>2020-06-26T14:48:04Z</time>
      </trkpt>
      <trkpt lat="49.49296" lon="6.35058">
        <ele>173.6</ele>
        <time>2020-06-26T14:48:40Z</time>
      </trkpt>
      <trkpt lat="49.49296" lon="6.3506">
        <ele>173.4</ele>
        <time>2020-06-26T14:48:41Z</time>
      </trkpt>
      <trkpt lat="49.49296" lon="6.35061">
        <ele>173.1</ele>
        <time>2020-06-26T14:48:42Z</time>
      </trkpt>
      <trkpt lat="49.49295" lon="6.35062">
        <ele>172.1</ele>
        <time>2020-06-26T14:48:43Z</time>
      </trkpt>
      <trkpt lat="49.49295" lon="6.35063">
        <ele>171.9</ele>
        <time>2020-06-26T14:48:44Z</time>
      </trkpt>
      <trkpt lat="49.49295" lon="6.35064">
        <ele>171.6</ele>
        <time>2020-06-26T14:48:45Z</time>
      </trkpt>
      <trkpt lat="49.49295" lon="6.35065">
        <ele>171.4</ele>
        <time>2020-06-26T14:48:46Z</time>
      </trkpt>
      <trkpt lat="49.49294" lon="6.35065">
        <ele>171.2</ele>
        <time>2020-06-26T14:48:47Z</time>
      </trkpt>
      <trkpt lat="49.49295" lon="6.35066">
        <ele>170.2</ele>
        <time>2020-06-26T14:48:48Z</time>
      </trkpt>
      <trkpt lat="49.49295" lon="6.35067">
        <ele>170</ele>
        <time>2020-06-26T14:48:49Z</time>
      </trkpt>
      <trkpt lat="49.49295" lon="6.35068">
        <ele>169.7</ele>
        <time>2020-06-26T14:48:50Z</time>
      </trkpt>
      <trkpt lat="49.49294" lon="6.35069">
        <ele>169.5</ele>
        <time>2020-06-26T14:48:51Z</time>
      </trkpt>
      <trkpt lat="49.49294" lon="6.35071">
        <ele>168.6</ele>
        <time>2020-06-26T14:48:52Z</time>
      </trkpt>
      <trkpt lat="49.49294" lon="6.35073">
        <ele>168.3</ele>
        <time>2020-06-26T14:48:53Z</time>
      </trkpt>
      <trkpt lat="49.49294" lon="6.35074">
        <ele>167.5</ele>
        <time>2020-06-26T14:48:54Z</time>
      </trkpt>
      <trkpt lat="49.49294" lon="6.35076">
        <ele>167.1</ele>
        <time>2020-06-26T14:48:55Z</time>
      </trkpt>
      <trkpt lat="49.49294" lon="6.35078">
        <ele>166.9</ele>
        <time>2020-06-26T14:48:56Z</time>
      </trkpt>
      <trkpt lat="49.49294" lon="6.3508">
        <ele>166.2</ele>
        <time>2020-06-26T14:48:57Z</time>
      </trkpt>
      <trkpt lat="49.49294" lon="6.35082">
        <ele>165.9</ele>
        <time>2020-06-26T14:48:58Z</time>
      </trkpt>
      <trkpt lat="49.49294" lon="6.35083">
        <ele>165.1</ele>
        <time>2020-06-26T14:48:59Z</time>
      </trkpt>
      <trkpt lat="49.49293" lon="6.35085">
        <ele>164.9</ele>
        <time>2020-06-26T14:49:00Z</time>
      </trkpt>
      <trkpt lat="49.49293" lon="6.35088">
        <ele>164.2</ele>
        <time>2020-06-26T14:49:01Z</time>
      </trkpt>
      <trkpt lat="49.49294" lon="6.3509">
        <ele>164.2</ele>
        <time>2020-06-26T14:49:02Z</time>
      </trkpt>
      <trkpt lat="49.49294" lon="6.35092">
        <ele>164.2</ele>
        <time>2020-06-26T14:49:03Z</time>
      </trkpt>
      <trkpt lat="49.49295" lon="6.35095">
        <ele>164.2</ele>
        <time>2020-06-26T14:49:04Z</time>
      </trkpt>
      <trkpt lat="49.49295" lon="6.35097">
        <ele>164.2</ele>
        <time>2020-06-26T14:49:05Z</time>
      </trkpt>
      <trkpt lat="49.49295" lon="6.35098">
        <ele>164.2</ele>
        <time>2020-06-26T14:49:06Z</time>
      </trkpt>
      <trkpt lat="49.49295" lon="6.35098">
        <ele>164.2</ele>
        <time>2020-06-26T14:49:07Z</time>
      </trkpt>
      <trkpt lat="49.49295" lon="6.351">
        <ele>164.2</ele>
        <time>2020-06-26T14:49:08Z</time>
      </trkpt>
      <trkpt lat="49.49295" lon="6.35099">
        <ele>164.2</ele>
        <time>2020-06-26T14:49:09Z</time>
      </trkpt>
      <trkpt lat="49.49295" lon="6.35099">
        <ele>164.2</ele>
        <time>2020-06-26T14:49:10Z</time>
      </trkpt>
      <trkpt lat="49.49295" lon="6.351">
        <ele>164.2</ele>
        <time>2020-06-26T14:49:11Z</time>
      </trkpt>
      <trkpt lat="49.49295" lon="6.35102">
        <ele>164.2</ele>
        <time>2020-06-26T14:49:12Z</time>
      </trkpt>
      <trkpt lat="49.49296" lon="6.35103">
        <ele>164.2</ele>
        <time>2020-06-26T14:49:13Z</time>
      </trkpt>
      <trkpt lat="49.49296" lon="6.35106">
        <ele>164.3</ele>
        <time>2020-06-26T14:49:14Z</time>
      </trkpt>
      <trkpt lat="49.49296" lon="6.3511">
        <ele>164.3</ele>
        <time>2020-06-26T14:49:15Z</time>
      </trkpt>
      <trkpt lat="49.49295" lon="6.35115">
        <ele>164.2</ele>
        <time>2020-06-26T14:49:16Z</time>
      </trkpt>
      <trkpt lat="49.49295" lon="6.35119">
        <ele>164.1</ele>
        <time>2020-06-26T14:49:17Z</time>
      </trkpt>
      <trkpt lat="49.49294" lon="6.35125">
        <ele>164</ele>
        <time>2020-06-26T14:49:18Z</time>
      </trkpt>
      <trkpt lat="49.49294" lon="6.35128">
        <ele>164</ele>
        <time>2020-06-26T14:49:19Z</time>
      </trkpt>
      <trkpt lat="49.49293" lon="6.35133">
        <ele>163.9</ele>
        <time>2020-06-26T14:49:20Z</time>
      </trkpt>
      <trkpt lat="49.49293" lon="6.35137">
        <ele>163.8</ele>
        <time>2020-06-26T14:49:21Z</time>
      </trkpt>
      <trkpt lat="49.49292" lon="6.35143">
        <ele>163.6</ele>
        <time>2020-06-26T14:49:22Z</time>
      </trkpt>
      <trkpt lat="49.49292" lon="6.35145">
        <ele>163.6</ele>
        <time>2020-06-26T14:49:23Z</time>
      </trkpt>
      <trkpt lat="49.49291" lon="6.35149">
        <ele>163.5</ele>
        <time>2020-06-26T14:49:24Z</time>
      </trkpt>
      <trkpt lat="49.4929" lon="6.35154">
        <ele>163.4</ele>
        <time>2020-06-26T14:49:25Z</time>
      </trkpt>
      <trkpt lat="49.4929" lon="6.35159">
        <ele>163.3</ele>
        <time>2020-06-26T14:49:26Z</time>
      </trkpt>
      <trkpt lat="49.49289" lon="6.35163">
        <ele>163.2</ele>
        <time>2020-06-26T14:49:27Z</time>
      </trkpt>
      <trkpt lat="49.49289" lon="6.35168">
        <ele>163.2</ele>
        <time>2020-06-26T14:49:28Z</time>
      </trkpt>
      <trkpt lat="49.49289" lon="6.35173">
        <ele>163.1</ele>
        <time>2020-06-26T14:49:29Z</time>
      </trkpt>
      <trkpt lat="49.49289" lon="6.35179">
        <ele>162.5</ele>
        <time>2020-06-26T14:49:30Z</time>
      </trkpt>
      <trkpt lat="49.49288" lon="6.35184">
        <ele>161.9</ele>
        <time>2020-06-26T14:49:31Z</time>
      </trkpt>
      <trkpt lat="49.49288" lon="6.35189">
        <ele>161.4</ele>
        <time>2020-06-26T14:49:32Z</time>
      </trkpt>
      <trkpt lat="49.49288" lon="6.35194">
        <ele>160.8</ele>
        <time>2020-06-26T14:49:33Z</time>
      </trkpt>
      <trkpt lat="49.49287" lon="6.35199">
        <ele>160.3</ele>
        <time>2020-06-26T14:49:34Z</time>
      </trkpt>
      <trkpt lat="49.49286" lon="6.35205">
        <ele>159.6</ele>
        <time>2020-06-26T14:49:35Z</time>
      </trkpt>
      <trkpt lat="49.49284" lon="6.3521">
        <ele>159</ele>
        <time>2020-06-26T14:49:36Z</time>
      </trkpt>
      <trkpt lat="49.49283" lon="6.35215">
        <ele>158.4</ele>
        <time>2020-06-26T14:49:37Z</time>
      </trkpt>
      <trkpt lat="49.49283" lon="6.3522">
        <ele>157.8</ele>
        <time>2020-06-26T14:49:38Z</time>
      </trkpt>
      <trkpt lat="49.49282" lon="6.35226">
        <ele>157.2</ele>
        <time>2020-06-26T14:49:39Z</time>
      </trkpt>
      <trkpt lat="49.49282" lon="6.35231">
        <ele>156.6</ele>
        <time>2020-06-26T14:49:40Z</time>
      </trkpt>
      <trkpt lat="49.49282" lon="6.35237">
        <ele>155.9</ele>
        <time>2020-06-26T14:49:41Z</time>
      </trkpt>
      <trkpt lat="49.49282" lon="6.35243">
        <ele>155.3</ele>
        <time>2020-06-26T14:49:42Z</time>
      </trkpt>
      <trkpt lat="49.49282" lon="6.35249">
        <ele>154.5</ele>
        <time>2020-06-26T14:49:43Z</time>
      </trkpt>
      <trkpt lat="49.49281" lon="6.35253">
        <ele>154.1</ele>
        <time>2020-06-26T14:49:44Z</time>
      </trkpt>
      <trkpt lat="49.49282" lon="6.35258">
        <ele>153.6</ele>
        <time>2020-06-26T14:49:45Z</time>
      </trkpt>
      <trkpt lat="49.49282" lon="6.35259">
        <ele>153.5</ele>
        <time>2020-06-26T14:49:46Z</time>
      </trkpt>
      <trkpt lat="49.49281" lon="6.35262">
        <ele>153.2</ele>
        <time>2020-06-26T14:49:47Z</time>
      </trkpt>
      <trkpt lat="49.49281" lon="6.35263">
        <ele>153</ele>
        <time>2020-06-26T14:49:48Z</time>
      </trkpt>
      <trkpt lat="49.49281" lon="6.35265">
        <ele>152.9</ele>
        <time>2020-06-26T14:49:49Z</time>
      </trkpt>
      <trkpt lat="49.49281" lon="6.35266">
        <ele>152.7</ele>
        <time>2020-06-26T14:49:50Z</time>
      </trkpt>
      <trkpt lat="49.4928" lon="6.35267">
        <ele>152.6</ele>
        <time>2020-06-26T14:49:51Z</time>
      </trkpt>
      <trkpt lat="49.4928" lon="6.35269">
        <ele>152.5</ele>
        <time>2020-06-26T14:49:52Z</time>
      </trkpt>
      <trkpt lat="49.49277" lon="6.35273">
        <ele>151.8</ele>
        <time>2020-06-26T14:49:53Z</time>
      </trkpt>
      <trkpt lat="49.49276" lon="6.35275">
        <ele>151.6</ele>
        <time>2020-06-26T14:49:54Z</time>
      </trkpt>
      <trkpt lat="49.49271" lon="6.35274">
        <ele>151</ele>
        <time>2020-06-26T14:49:55Z</time>
      </trkpt>
      <trkpt lat="49.4927" lon="6.35273">
        <ele>151.1</ele>
        <time>2020-06-26T14:49:56Z</time>
      </trkpt>
      <trkpt lat="49.49267" lon="6.35273">
        <ele>151.2</ele>
        <time>2020-06-26T14:49:57Z</time>
      </trkpt>
      <trkpt lat="49.49264" lon="6.35272">
        <ele>151.2</ele>
        <time>2020-06-26T14:49:58Z</time>
      </trkpt>
      <trkpt lat="49.49261" lon="6.35272">
        <ele>151.3</ele>
        <time>2020-06-26T14:49:59Z</time>
      </trkpt>
      <trkpt lat="49.49258" lon="6.35274">
        <ele>151.3</ele>
        <time>2020-06-26T14:50:00Z</time>
      </trkpt>
      <trkpt lat="49.49254" lon="6.35276">
        <ele>151.4</ele>
        <time>2020-06-26T14:50:01Z</time>
      </trkpt>
      <trkpt lat="49.49252" lon="6.35277">
        <ele>151.4</ele>
        <time>2020-06-26T14:50:02Z</time>
      </trkpt>
      <trkpt lat="49.49249" lon="6.35279">
        <ele>151.6</ele>
        <time>2020-06-26T14:50:03Z</time>
      </trkpt>
      <trkpt lat="49.49247" lon="6.35279">
        <ele>151.6</ele>
        <time>2020-06-26T14:50:04Z</time>
      </trkpt>
      <trkpt lat="49.49245" lon="6.35283">
        <ele>151.6</ele>
        <time>2020-06-26T14:50:05Z</time>
      </trkpt>
      <trkpt lat="49.49242" lon="6.35287">
        <ele>151.6</ele>
        <time>2020-06-26T14:50:06Z</time>
      </trkpt>
      <trkpt lat="49.49242" lon="6.35288">
        <ele>151.6</ele>
        <time>2020-06-26T14:50:07Z</time>
      </trkpt>
      <trkpt lat="49.49239" lon="6.3529">
        <ele>151.7</ele>
        <time>2020-06-26T14:50:08Z</time>
      </trkpt>
      <trkpt lat="49.49238" lon="6.35291">
        <ele>151.7</ele>
        <time>2020-06-26T14:50:09Z</time>
      </trkpt>
      <trkpt lat="49.49237" lon="6.35293">
        <ele>151.7</ele>
        <time>2020-06-26T14:50:10Z</time>
      </trkpt>
      <trkpt lat="49.49236" lon="6.35293">
        <ele>151.7</ele>
        <time>2020-06-26T14:50:11Z</time>
      </trkpt>
      <trkpt lat="49.49235" lon="6.35294">
        <ele>151.7</ele>
        <time>2020-06-26T14:50:12Z</time>
      </trkpt>
      <trkpt lat="49.49235" lon="6.35295">
        <ele>151.7</ele>
        <time>2020-06-26T14:50:13Z</time>
      </trkpt>
      <trkpt lat="49.49234" lon="6.35297">
        <ele>151.7</ele>
        <time>2020-06-26T14:50:14Z</time>
      </trkpt>
      <trkpt lat="49.49234" lon="6.35298">
        <ele>151.7</ele>
        <time>2020-06-26T14:50:15Z</time>
      </trkpt>
      <trkpt lat="49.49234" lon="6.35298">
        <ele>151.7</ele>
        <time>2020-06-26T14:50:16Z</time>
      </trkpt>
      <trkpt lat="49.49232" lon="6.35298">
        <ele>151.7</ele>
        <time>2020-06-26T14:50:17Z</time>
      </trkpt>
      <trkpt lat="49.49231" lon="6.35298">
        <ele>151.7</ele>
        <time>2020-06-26T14:50:18Z</time>
      </trkpt>
      <trkpt lat="49.4923" lon="6.35298">
        <ele>151.7</ele>
        <time>2020-06-26T14:50:19Z</time>
      </trkpt>
      <trkpt lat="49.49229" lon="6.35298">
        <ele>151.7</ele>
        <time>2020-06-26T14:50:20Z</time>
      </trkpt>
      <trkpt lat="49.49228" lon="6.35298">
        <ele>151.8</ele>
        <time>2020-06-26T14:50:21Z</time>
      </trkpt>
      <trkpt lat="49.49228" lon="6.35297">
        <ele>151.8</ele>
        <time>2020-06-26T14:50:22Z</time>
      </trkpt>
      <trkpt lat="49.49228" lon="6.35295">
        <ele>151.8</ele>
        <time>2020-06-26T14:50:23Z</time>
      </trkpt>
      <trkpt lat="49.49228" lon="6.35293">
        <ele>151.8</ele>
        <time>2020-06-26T14:50:24Z</time>
      </trkpt>
      <trkpt lat="49.49227" lon="6.35293">
        <ele>151.8</ele>
        <time>2020-06-26T14:50:25Z</time>
      </trkpt>
      <trkpt lat="49.49226" lon="6.35292">
        <ele>151.8</ele>
        <time>2020-06-26T14:50:26Z</time>
      </trkpt>
      <trkpt lat="49.49225" lon="6.35292">
        <ele>151.8</ele>
        <time>2020-06-26T14:50:27Z</time>
      </trkpt>
      <trkpt lat="49.49224" lon="6.35292">
        <ele>151.8</ele>
        <time>2020-06-26T14:50:28Z</time>
      </trkpt>
      <trkpt lat="49.49223" lon="6.35291">
        <ele>151.8</ele>
        <time>2020-06-26T14:50:29Z</time>
      </trkpt>
      <trkpt lat="49.49223" lon="6.35291">
        <ele>151.8</ele>
        <time>2020-06-26T14:50:30Z</time>
      </trkpt>
      <trkpt lat="49.49221" lon="6.35291">
        <ele>151.8</ele>
        <time>2020-06-26T14:50:31Z</time>
      </trkpt>
      <trkpt lat="49.49221" lon="6.35291">
        <ele>151.8</ele>
        <time>2020-06-26T14:50:32Z</time>
      </trkpt>
      <trkpt lat="49.4922" lon="6.3529">
        <ele>151.8</ele>
        <time>2020-06-26T14:50:33Z</time>
      </trkpt>
      <trkpt lat="49.49219" lon="6.3529">
        <ele>151.8</ele>
        <time>2020-06-26T14:50:34Z</time>
      </trkpt>
      <trkpt lat="49.49219" lon="6.3529">
        <ele>151.8</ele>
        <time>2020-06-26T14:50:35Z</time>
      </trkpt>
      <trkpt lat="49.49219" lon="6.35289">
        <ele>151.8</ele>
        <time>2020-06-26T14:50:36Z</time>
      </trkpt>
      <trkpt lat="49.49218" lon="6.35289">
        <ele>151.8</ele>
        <time>2020-06-26T14:50:37Z</time>
      </trkpt>
      <trkpt lat="49.49218" lon="6.35288">
        <ele>151.9</ele>
        <time>2020-06-26T14:50:38Z</time>
      </trkpt>
      <trkpt lat="49.49217" lon="6.35287">
        <ele>151.9</ele>
        <time>2020-06-26T14:50:39Z</time>
      </trkpt>
      <trkpt lat="49.49217" lon="6.35288">
        <ele>151.9</ele>
        <time>2020-06-26T14:50:40Z</time>
      </trkpt>
      <trkpt lat="49.49216" lon="6.35287">
        <ele>151.9</ele>
        <time>2020-06-26T14:50:41Z</time>
      </trkpt>
      <trkpt lat="49.49216" lon="6.35287">
        <ele>151.9</ele>
        <time>2020-06-26T14:50:42Z</time>
      </trkpt>
      <trkpt lat="49.49216" lon="6.35286">
        <ele>151.9</ele>
        <time>2020-06-26T14:50:43Z</time>
      </trkpt>
      <trkpt lat="49.49215" lon="6.35286">
        <ele>151.9</ele>
        <time>2020-06-26T14:50:44Z</time>
      </trkpt>
      <trkpt lat="49.49215" lon="6.35285">
        <ele>151.9</ele>
        <time>2020-06-26T14:50:45Z</time>
      </trkpt>
      <trkpt lat="49.49214" lon="6.35285">
        <ele>151.9</ele>
        <time>2020-06-26T14:50:46Z</time>
      </trkpt>
      <trkpt lat="49.49214" lon="6.35285">
        <ele>151.9</ele>
        <time>2020-06-26T14:50:47Z</time>
      </trkpt>
      <trkpt lat="49.49214" lon="6.35284">
        <ele>151.9</ele>
        <time>2020-06-26T14:50:48Z</time>
      </trkpt>
      <trkpt lat="49.49213" lon="6.35284">
        <ele>151.9</ele>
        <time>2020-06-26T14:50:49Z</time>
      </trkpt>
      <trkpt lat="49.49213" lon="6.35283">
        <ele>151.9</ele>
        <time>2020-06-26T14:50:50Z</time>
      </trkpt>
      <trkpt lat="49.49212" lon="6.35282">
        <ele>151.9</ele>
        <time>2020-06-26T15:14:15Z</time>
      </trkpt>
      <trkpt lat="49.49212" lon="6.35281">
        <ele>151.9</ele>
        <time>2020-06-26T15:14:16Z</time>
      </trkpt>
      <trkpt lat="49.49211" lon="6.35281">
        <ele>151.9</ele>
        <time>2020-06-26T15:14:17Z</time>
      </trkpt>
      <trkpt lat="49.4921" lon="6.3528">
        <ele>151.9</ele>
        <time>2020-06-26T15:14:18Z</time>
      </trkpt>
      <trkpt lat="49.4921" lon="6.35279">
        <ele>151.9</ele>
        <time>2020-06-26T15:14:19Z</time>
      </trkpt>
      <trkpt lat="49.49209" lon="6.35278">
        <ele>151.9</ele>
        <time>2020-06-26T15:14:20Z</time>
      </trkpt>
      <trkpt lat="49.49209" lon="6.35278">
        <ele>151.9</ele>
        <time>2020-06-26T15:14:21Z</time>
      </trkpt>
      <trkpt lat="49.49208" lon="6.35277">
        <ele>151.9</ele>
        <time>2020-06-26T15:14:22Z</time>
      </trkpt>
      <trkpt lat="49.49208" lon="6.35276">
        <ele>151.9</ele>
        <time>2020-06-26T15:14:23Z</time>
      </trkpt>
      <trkpt lat="49.49207" lon="6.35275">
        <ele>152</ele>
        <time>2020-06-26T15:14:24Z</time>
      </trkpt>
      <trkpt lat="49.49207" lon="6.35275">
        <ele>152</ele>
        <time>2020-06-26T15:14:25Z</time>
      </trkpt>
      <trkpt lat="49.49206" lon="6.35274">
        <ele>152</ele>
        <time>2020-06-26T15:14:26Z</time>
      </trkpt>
      <trkpt lat="49.49205" lon="6.35273">
        <ele>152</ele>
        <time>2020-06-26T15:14:27Z</time>
      </trkpt>
      <trkpt lat="49.49205" lon="6.35272">
        <ele>152</ele>
        <time>2020-06-26T15:16:11Z</time>
      </trkpt>
      <trkpt lat="49.49204" lon="6.35272">
        <ele>152</ele>
        <time>2020-06-26T15:16:12Z</time>
      </trkpt>
      <trkpt lat="49.49204" lon="6.35271">
        <ele>152</ele>
        <time>2020-06-26T15:16:13Z</time>
      </trkpt>
      <trkpt lat="49.49203" lon="6.3527">
        <ele>152</ele>
        <time>2020-06-26T15:16:14Z</time>
      </trkpt>
      <trkpt lat="49.49203" lon="6.35269">
        <ele>152</ele>
        <time>2020-06-26T15:16:15Z</time>
      </trkpt>
      <trkpt lat="49.49202" lon="6.35269">
        <ele>152</ele>
        <time>2020-06-26T15:16:16Z</time>
      </trkpt>
      <trkpt lat="49.49202" lon="6.35268">
        <ele>152</ele>
        <time>2020-06-26T15:16:17Z</time>
      </trkpt>
      <trkpt lat="49.49201" lon="6.35269">
        <ele>152</ele>
        <time>2020-06-26T15:16:18Z</time>
      </trkpt>
      <trkpt lat="49.49202" lon="6.35269">
        <ele>152</ele>
        <time>2020-06-26T15:16:19Z</time>
      </trkpt>
      <trkpt lat="49.49203" lon="6.35271">
        <ele>152</ele>
        <time>2020-06-26T15:16:20Z</time>
      </trkpt>
      <trkpt lat="49.49203" lon="6.35271">
        <ele>152</ele>
        <time>2020-06-26T15:16:21Z</time>
      </trkpt>
      <trkpt lat="49.49203" lon="6.35271">
        <ele>152</ele>
        <time>2020-06-26T15:16:22Z</time>
      </trkpt>
      <trkpt lat="49.49202" lon="6.35271">
        <ele>152</ele>
        <time>2020-06-26T15:16:23Z</time>
      </trkpt>
      <trkpt lat="49.49203" lon="6.35271">
        <ele>152</ele>
        <time>2020-06-26T15:16:24Z</time>
      </trkpt>
      <trkpt lat="49.49203" lon="6.35271">
        <ele>152</ele>
        <time>2020-06-26T15:16:25Z</time>
      </trkpt>
      <trkpt lat="49.49203" lon="6.35271">
        <ele>152</ele>
        <time>2020-06-26T15:16:26Z</time>
      </trkpt>
      <trkpt lat="49.49202" lon="6.35271">
        <ele>152</ele>
        <time>2020-06-26T15:16:27Z</time>
      </trkpt>
      <trkpt lat="49.49203" lon="6.35271">
        <ele>152</ele>
        <time>2020-06-26T15:16:28Z</time>
      </trkpt>
      <trkpt lat="49.49203" lon="6.35271">
        <ele>152</ele>
        <time>2020-06-26T15:16:29Z</time>
      </trkpt>
      <trkpt lat="49.49203" lon="6.35271">
        <ele>152</ele>
        <time>2020-06-26T15:16:30Z</time>
      </trkpt>
      <trkpt lat="49.49203" lon="6.35271">
        <ele>152</ele>
        <time>2020-06-26T15:16:31Z</time>
      </trkpt>
      <trkpt lat="49.49203" lon="6.35271">
        <ele>152</ele>
        <time>2020-06-26T15:16:32Z</time>
      </trkpt>
      <trkpt lat="49.49203" lon="6.35271">
        <ele>152</ele>
        <time>2020-06-26T15:16:33Z</time>
      </trkpt>
      <trkpt lat="49.49203" lon="6.35271">
        <ele>152</ele>
        <time>2020-06-26T15:16:34Z</time>
      </trkpt>
      <trkpt lat="49.49203" lon="6.35272">
        <ele>152</ele>
        <time>2020-06-26T15:16:35Z</time>
      </trkpt>
      <trkpt lat="49.49204" lon="6.35273">
        <ele>152</ele>
        <time>2020-06-26T15:16:36Z</time>
      </trkpt>
      <trkpt lat="49.49211" lon="6.35274">
        <ele>152.1</ele>
        <time>2020-06-26T15:17:21Z</time>
      </trkpt>
      <trkpt lat="49.49211" lon="6.35274">
        <ele>152.1</ele>
        <time>2020-06-26T15:17:22Z</time>
      </trkpt>
      <trkpt lat="49.49211" lon="6.35274">
        <ele>152.1</ele>
        <time>2020-06-26T15:17:23Z</time>
      </trkpt>
      <trkpt lat="49.49212" lon="6.35273">
        <ele>152.1</ele>
        <time>2020-06-26T15:17:24Z</time>
      </trkpt>
      <trkpt lat="49.49212" lon="6.35272">
        <ele>152.1</ele>
        <time>2020-06-26T15:17:25Z</time>
      </trkpt>
      <trkpt lat="49.49212" lon="6.35274">
        <ele>152.1</ele>
        <time>2020-06-26T15:17:26Z</time>
      </trkpt>
      <trkpt lat="49.49212" lon="6.35274">
        <ele>152.1</ele>
        <time>2020-06-26T15:17:27Z</time>
      </trkpt>
      <trkpt lat="49.49212" lon="6.35275">
        <ele>152.1</ele>
        <time>2020-06-26T15:17:28Z</time>
      </trkpt>
      <trkpt lat="49.49212" lon="6.35276">
        <ele>152.1</ele>
        <time>2020-06-26T15:17:29Z</time>
      </trkpt>
      <trkpt lat="49.49211" lon="6.35277">
        <ele>152.1</ele>
        <time>2020-06-26T15:17:30Z</time>
      </trkpt>
      <trkpt lat="49.49211" lon="6.35278">
        <ele>152.1</ele>
        <time>2020-06-26T15:17:31Z</time>
      </trkpt>
      <trkpt lat="49.49211" lon="6.35278">
        <ele>152.1</ele>
        <time>2020-06-26T15:17:32Z</time>
      </trkpt>
      <trkpt lat="49.49211" lon="6.35279">
        <ele>152.1</ele>
        <time>2020-06-26T15:17:33Z</time>
      </trkpt>
      <trkpt lat="49.49212" lon="6.35279">
        <ele>152.1</ele>
        <time>2020-06-26T15:17:34Z</time>
      </trkpt>
      <trkpt lat="49.49212" lon="6.35279">
        <ele>152.1</ele>
        <time>2020-06-26T15:17:35Z</time>
      </trkpt>
      <trkpt lat="49.49211" lon="6.35279">
        <ele>152.1</ele>
        <time>2020-06-26T15:17:36Z</time>
      </trkpt>
      <trkpt lat="49.49212" lon="6.35279">
        <ele>152.2</ele>
        <time>2020-06-26T15:17:37Z</time>
      </trkpt>
      <trkpt lat="49.49214" lon="6.35285">
        <ele>152.2</ele>
        <time>2020-06-26T15:29:47Z</time>
      </trkpt>
      <trkpt lat="49.49215" lon="6.35286">
        <ele>152.2</ele>
        <time>2020-06-26T15:29:48Z</time>
      </trkpt>
      <trkpt lat="49.49215" lon="6.35286">
        <ele>152.2</ele>
        <time>2020-06-26T15:29:49Z</time>
      </trkpt>
      <trkpt lat="49.49215" lon="6.35287">
        <ele>152.2</ele>
        <time>2020-06-26T15:29:50Z</time>
      </trkpt>
      <trkpt lat="49.49214" lon="6.35287">
        <ele>152.2</ele>
        <time>2020-06-26T15:29:51Z</time>
      </trkpt>
      <trkpt lat="49.49214" lon="6.35288">
        <ele>152.2</ele>
        <time>2020-06-26T15:29:52Z</time>
      </trkpt>
      <trkpt lat="49.49214" lon="6.35288">
        <ele>152.2</ele>
        <time>2020-06-26T15:29:53Z</time>
      </trkpt>
      <trkpt lat="49.49214" lon="6.35289">
        <ele>152.2</ele>
        <time>2020-06-26T15:29:54Z</time>
      </trkpt>
      <trkpt lat="49.49214" lon="6.35289">
        <ele>152.2</ele>
        <time>2020-06-26T15:29:55Z</time>
      </trkpt>
      <trkpt lat="49.49213" lon="6.35288">
        <ele>152.2</ele>
        <time>2020-06-26T15:29:56Z</time>
      </trkpt>
      <trkpt lat="49.49213" lon="6.35286">
        <ele>152.2</ele>
        <time>2020-06-26T15:29:57Z</time>
      </trkpt>
      <trkpt lat="49.49212" lon="6.35285">
        <ele>152.2</ele>
        <time>2020-06-26T15:29:58Z</time>
      </trkpt>
      <trkpt lat="49.49212" lon="6.35283">
        <ele>152.2</ele>
        <time>2020-06-26T15:29:59Z</time>
      </trkpt>
      <trkpt lat="49.49211" lon="6.35282">
        <ele>152.3</ele>
        <time>2020-06-26T15:30:00Z</time>
      </trkpt>
      <trkpt lat="49.49211" lon="6.3528">
        <ele>152.3</ele>
        <time>2020-06-26T15:30:01Z</time>
      </trkpt>
      <trkpt lat="49.4921" lon="6.35278">
        <ele>152.3</ele>
        <time>2020-06-26T15:30:02Z</time>
      </trkpt>
      <trkpt lat="49.49209" lon="6.35277">
        <ele>152.3</ele>
        <time>2020-06-26T15:30:03Z</time>
      </trkpt>
      <trkpt lat="49.49209" lon="6.35275">
        <ele>152.3</ele>
        <time>2020-06-26T15:30:04Z</time>
      </trkpt>
      <trkpt lat="49.49208" lon="6.35274">
        <ele>152.3</ele>
        <time>2020-06-26T15:30:05Z</time>
      </trkpt>
      <trkpt lat="49.49208" lon="6.35272">
        <ele>152.3</ele>
        <time>2020-06-26T15:31:54Z</time>
      </trkpt>
      <trkpt lat="49.49207" lon="6.35271">
        <ele>152.3</ele>
        <time>2020-06-26T15:31:55Z</time>
      </trkpt>
      <trkpt lat="49.49206" lon="6.35269">
        <ele>152.3</ele>
        <time>2020-06-26T15:31:56Z</time>
      </trkpt>
      <trkpt lat="49.49205" lon="6.35268">
        <ele>152.3</ele>
        <time>2020-06-26T15:31:57Z</time>
      </trkpt>
      <trkpt lat="49.49204" lon="6.35266">
        <ele>152.3</ele>
        <time>2020-06-26T15:31:58Z</time>
      </trkpt>
      <trkpt lat="49.49203" lon="6.35265">
        <ele>152.3</ele>
        <time>2020-06-26T15:31:59Z</time>
      </trkpt>
      <trkpt lat="49.49203" lon="6.35265">
        <ele>152.3</ele>
        <time>2020-06-26T15:32:00Z</time>
      </trkpt>
      <trkpt lat="49.49203" lon="6.35264">
        <ele>152.3</ele>
        <time>2020-06-26T15:32:01Z</time>
      </trkpt>
      <trkpt lat="49.49203" lon="6.35264">
        <ele>152.4</ele>
        <time>2020-06-26T15:32:02Z</time>
      </trkpt>
      <trkpt lat="49.49203" lon="6.35264">
        <ele>152.4</ele>
        <time>2020-06-26T15:32:03Z</time>
      </trkpt>
      <trkpt lat="49.49203" lon="6.35264">
        <ele>152.4</ele>
        <time>2020-06-26T15:32:04Z</time>
      </trkpt>
      <trkpt lat="49.49202" lon="6.35263">
        <ele>152.4</ele>
        <time>2020-06-26T15:32:05Z</time>
      </trkpt>
      <trkpt lat="49.49201" lon="6.35262">
        <ele>152.4</ele>
        <time>2020-06-26T15:32:06Z</time>
      </trkpt>
      <trkpt lat="49.492" lon="6.35261">
        <ele>152.6</ele>
        <time>2020-06-26T15:32:07Z</time>
      </trkpt>
      <trkpt lat="49.49198" lon="6.35261">
        <ele>152.6</ele>
        <time>2020-06-26T15:32:08Z</time>
      </trkpt>
      <trkpt lat="49.49197" lon="6.35261">
        <ele>152.6</ele>
        <time>2020-06-26T15:32:09Z</time>
      </trkpt>
      <trkpt lat="49.49196" lon="6.35261">
        <ele>152.6</ele>
        <time>2020-06-26T15:32:10Z</time>
      </trkpt>
      <trkpt lat="49.49194" lon="6.35261">
        <ele>152.7</ele>
        <time>2020-06-26T15:32:11Z</time>
      </trkpt>
      <trkpt lat="49.49193" lon="6.3526">
        <ele>152.7</ele>
        <time>2020-06-26T15:32:12Z</time>
      </trkpt>
      <trkpt lat="49.49192" lon="6.3526">
        <ele>152.7</ele>
        <time>2020-06-26T15:32:13Z</time>
      </trkpt>
      <trkpt lat="49.49191" lon="6.3526">
        <ele>152.7</ele>
        <time>2020-06-26T15:32:14Z</time>
      </trkpt>
      <trkpt lat="49.49189" lon="6.3526">
        <ele>152.7</ele>
        <time>2020-06-26T15:32:15Z</time>
      </trkpt>
      <trkpt lat="49.49187" lon="6.35259">
        <ele>153.4</ele>
        <time>2020-06-26T15:32:16Z</time>
      </trkpt>
      <trkpt lat="49.49186" lon="6.35258">
        <ele>153.5</ele>
        <time>2020-06-26T15:32:17Z</time>
      </trkpt>
      <trkpt lat="49.49182" lon="6.35256">
        <ele>154.1</ele>
        <time>2020-06-26T15:32:18Z</time>
      </trkpt>
      <trkpt lat="49.49181" lon="6.35255">
        <ele>154.3</ele>
        <time>2020-06-26T15:32:19Z</time>
      </trkpt>
      <trkpt lat="49.49178" lon="6.35253">
        <ele>154.7</ele>
        <time>2020-06-26T15:32:20Z</time>
      </trkpt>
      <trkpt lat="49.49175" lon="6.35251">
        <ele>155.3</ele>
        <time>2020-06-26T15:32:21Z</time>
      </trkpt>
      <trkpt lat="49.49172" lon="6.35249">
        <ele>153.5</ele>
        <time>2020-06-26T15:32:22Z</time>
      </trkpt>
      <trkpt lat="49.4917" lon="6.35248">
        <ele>152.9</ele>
        <time>2020-06-26T15:32:23Z</time>
      </trkpt>
      <trkpt lat="49.49167" lon="6.35247">
        <ele>153</ele>
        <time>2020-06-26T15:32:24Z</time>
      </trkpt>
      <trkpt lat="49.49166" lon="6.35246">
        <ele>153</ele>
        <time>2020-06-26T15:32:25Z</time>
      </trkpt>
      <trkpt lat="49.49164" lon="6.35245">
        <ele>153.1</ele>
        <time>2020-06-26T15:32:26Z</time>
      </trkpt>
      <trkpt lat="49.49162" lon="6.35246">
        <ele>153.1</ele>
        <time>2020-06-26T15:32:27Z</time>
      </trkpt>
      <trkpt lat="49.49159" lon="6.35246">
        <ele>153.1</ele>
        <time>2020-06-26T15:32:28Z</time>
      </trkpt>
      <trkpt lat="49.49158" lon="6.35246">
        <ele>153.2</ele>
        <time>2020-06-26T15:32:29Z</time>
      </trkpt>
      <trkpt lat="49.49155" lon="6.35244">
        <ele>153.2</ele>
        <time>2020-06-26T15:32:30Z</time>
      </trkpt>
      <trkpt lat="49.49151" lon="6.35241">
        <ele>153.3</ele>
        <time>2020-06-26T15:32:31Z</time>
      </trkpt>
      <trkpt lat="49.49147" lon="6.35238">
        <ele>153.4</ele>
        <time>2020-06-26T15:32:32Z</time>
      </trkpt>
      <trkpt lat="49.49143" lon="6.35235">
        <ele>153.4</ele>
        <time>2020-06-26T15:32:33Z</time>
      </trkpt>
      <trkpt lat="49.49139" lon="6.35231">
        <ele>153.5</ele>
        <time>2020-06-26T15:32:34Z</time>
      </trkpt>
      <trkpt lat="49.49135" lon="6.35229">
        <ele>153.6</ele>
        <time>2020-06-26T15:32:35Z</time>
      </trkpt>
      <trkpt lat="49.49132" lon="6.35226">
        <ele>153.7</ele>
        <time>2020-06-26T15:32:36Z</time>
      </trkpt>
      <trkpt lat="49.49128" lon="6.35224">
        <ele>153.8</ele>
        <time>2020-06-26T15:32:37Z</time>
      </trkpt>
      <trkpt lat="49.49124" lon="6.35222">
        <ele>153.9</ele>
        <time>2020-06-26T15:32:38Z</time>
      </trkpt>
      <trkpt lat="49.4912" lon="6.35218">
        <ele>154</ele>
        <time>2020-06-26T15:32:39Z</time>
      </trkpt>
      <trkpt lat="49.49116" lon="6.35214">
        <ele>154.1</ele>
        <time>2020-06-26T15:32:40Z</time>
      </trkpt>
      <trkpt lat="49.49112" lon="6.35211">
        <ele>154.2</ele>
        <time>2020-06-26T15:32:41Z</time>
      </trkpt>
      <trkpt lat="49.49109" lon="6.35207">
        <ele>154.3</ele>
        <time>2020-06-26T15:32:42Z</time>
      </trkpt>
      <trkpt lat="49.49106" lon="6.35204">
        <ele>154.3</ele>
        <time>2020-06-26T15:32:43Z</time>
      </trkpt>
      <trkpt lat="49.49103" lon="6.35201">
        <ele>154.4</ele>
        <time>2020-06-26T15:32:44Z</time>
      </trkpt>
      <trkpt lat="49.491" lon="6.35197">
        <ele>154.4</ele>
        <time>2020-06-26T15:32:45Z</time>
      </trkpt>
      <trkpt lat="49.49096" lon="6.35193">
        <ele>154.5</ele>
        <time>2020-06-26T15:32:46Z</time>
      </trkpt>
      <trkpt lat="49.49092" lon="6.3519">
        <ele>154.6</ele>
        <time>2020-06-26T15:32:47Z</time>
      </trkpt>
      <trkpt lat="49.49088" lon="6.35187">
        <ele>154.6</ele>
        <time>2020-06-26T15:32:48Z</time>
      </trkpt>
      <trkpt lat="49.49084" lon="6.35185">
        <ele>154.6</ele>
        <time>2020-06-26T15:32:49Z</time>
      </trkpt>
      <trkpt lat="49.49081" lon="6.35181">
        <ele>154.6</ele>
        <time>2020-06-26T15:32:50Z</time>
      </trkpt>
      <trkpt lat="49.49076" lon="6.35178">
        <ele>154.6</ele>
        <time>2020-06-26T15:32:51Z</time>
      </trkpt>
      <trkpt lat="49.49072" lon="6.35176">
        <ele>154.6</ele>
        <time>2020-06-26T15:32:52Z</time>
      </trkpt>
      <trkpt lat="49.49069" lon="6.35174">
        <ele>154.6</ele>
        <time>2020-06-26T15:32:53Z</time>
      </trkpt>
      <trkpt lat="49.49066" lon="6.35172">
        <ele>154.6</ele>
        <time>2020-06-26T15:32:54Z</time>
      </trkpt>
      <trkpt lat="49.49062" lon="6.3517">
        <ele>154.7</ele>
        <time>2020-06-26T15:32:55Z</time>
      </trkpt>
      <trkpt lat="49.49057" lon="6.35168">
        <ele>154.7</ele>
        <time>2020-06-26T15:32:56Z</time>
      </trkpt>
      <trkpt lat="49.49053" lon="6.35166">
        <ele>154.7</ele>
        <time>2020-06-26T15:32:57Z</time>
      </trkpt>
      <trkpt lat="49.49049" lon="6.35163">
        <ele>154.7</ele>
        <time>2020-06-26T15:32:58Z</time>
      </trkpt>
      <trkpt lat="49.49045" lon="6.3516">
        <ele>154.8</ele>
        <time>2020-06-26T15:32:59Z</time>
      </trkpt>
      <trkpt lat="49.49041" lon="6.35157">
        <ele>154.8</ele>
        <time>2020-06-26T15:33:00Z</time>
      </trkpt>
      <trkpt lat="49.49037" lon="6.35154">
        <ele>154.8</ele>
        <time>2020-06-26T15:33:01Z</time>
      </trkpt>
      <trkpt lat="49.49034" lon="6.3515">
        <ele>154.8</ele>
        <time>2020-06-26T15:33:02Z</time>
      </trkpt>
      <trkpt lat="49.4903" lon="6.35147">
        <ele>154.8</ele>
        <time>2020-06-26T15:33:03Z</time>
      </trkpt>
      <trkpt lat="49.49027" lon="6.35145">
        <ele>154.9</ele>
        <time>2020-06-26T15:33:04Z</time>
      </trkpt>
      <trkpt lat="49.49023" lon="6.35141">
        <ele>154.9</ele>
        <time>2020-06-26T15:33:05Z</time>
      </trkpt>
      <trkpt lat="49.49019" lon="6.35138">
        <ele>154.9</ele>
        <time>2020-06-26T15:33:06Z</time>
      </trkpt>
      <trkpt lat="49.49015" lon="6.35133">
        <ele>154.9</ele>
        <time>2020-06-26T15:33:07Z</time>
      </trkpt>
      <trkpt lat="49.4901" lon="6.35131">
        <ele>154.9</ele>
        <time>2020-06-26T15:33:08Z</time>
      </trkpt>
      <trkpt lat="49.49006" lon="6.35128">
        <ele>154.9</ele>
        <time>2020-06-26T15:33:09Z</time>
      </trkpt>
      <trkpt lat="49.49002" lon="6.35124">
        <ele>154.8</ele>
        <time>2020-06-26T15:33:10Z</time>
      </trkpt>
      <trkpt lat="49.48998" lon="6.35121">
        <ele>154.8</ele>
        <time>2020-06-26T15:33:11Z</time>
      </trkpt>
      <trkpt lat="49.48994" lon="6.35117">
        <ele>154.7</ele>
        <time>2020-06-26T15:33:12Z</time>
      </trkpt>
      <trkpt lat="49.48988" lon="6.35114">
        <ele>154.6</ele>
        <time>2020-06-26T15:33:13Z</time>
      </trkpt>
      <trkpt lat="49.48983" lon="6.35112">
        <ele>154.6</ele>
        <time>2020-06-26T15:33:14Z</time>
      </trkpt>
      <trkpt lat="49.48979" lon="6.35109">
        <ele>154.6</ele>
        <time>2020-06-26T15:33:15Z</time>
      </trkpt>
      <trkpt lat="49.48975" lon="6.35106">
        <ele>154.6</ele>
        <time>2020-06-26T15:33:16Z</time>
      </trkpt>
      <trkpt lat="49.48971" lon="6.35105">
        <ele>154.6</ele>
        <time>2020-06-26T15:33:17Z</time>
      </trkpt>
      <trkpt lat="49.48967" lon="6.35102">
        <ele>154.6</ele>
        <time>2020-06-26T15:33:18Z</time>
      </trkpt>
      <trkpt lat="49.48963" lon="6.351">
        <ele>154.7</ele>
        <time>2020-06-26T15:33:19Z</time>
      </trkpt>
      <trkpt lat="49.48959" lon="6.35097">
        <ele>154.7</ele>
        <time>2020-06-26T15:33:20Z</time>
      </trkpt>
      <trkpt lat="49.48955" lon="6.35093">
        <ele>154.7</ele>
        <time>2020-06-26T15:33:21Z</time>
      </trkpt>
      <trkpt lat="49.48952" lon="6.3509">
        <ele>154.8</ele>
        <time>2020-06-26T15:33:22Z</time>
      </trkpt>
      <trkpt lat="49.48949" lon="6.35087">
        <ele>154.8</ele>
        <time>2020-06-26T15:33:23Z</time>
      </trkpt>
      <trkpt lat="49.48946" lon="6.35084">
        <ele>154.8</ele>
        <time>2020-06-26T15:33:24Z</time>
      </trkpt>
      <trkpt lat="49.48943" lon="6.3508">
        <ele>154.8</ele>
        <time>2020-06-26T15:33:25Z</time>
      </trkpt>
      <trkpt lat="49.48939" lon="6.35076">
        <ele>154.8</ele>
        <time>2020-06-26T15:33:26Z</time>
      </trkpt>
      <trkpt lat="49.48936" lon="6.35073">
        <ele>154.8</ele>
        <time>2020-06-26T15:33:27Z</time>
      </trkpt>
      <trkpt lat="49.48933" lon="6.3507">
        <ele>154.8</ele>
        <time>2020-06-26T15:33:28Z</time>
      </trkpt>
      <trkpt lat="49.48929" lon="6.35066">
        <ele>154.8</ele>
        <time>2020-06-26T15:33:29Z</time>
      </trkpt>
      <trkpt lat="49.48926" lon="6.35064">
        <ele>154.8</ele>
        <time>2020-06-26T15:33:30Z</time>
      </trkpt>
      <trkpt lat="49.48923" lon="6.3506">
        <ele>154.8</ele>
        <time>2020-06-26T15:33:31Z</time>
      </trkpt>
      <trkpt lat="49.4892" lon="6.35058">
        <ele>154.7</ele>
        <time>2020-06-26T15:33:32Z</time>
      </trkpt>
      <trkpt lat="49.48915" lon="6.35058">
        <ele>154.7</ele>
        <time>2020-06-26T15:33:33Z</time>
      </trkpt>
      <trkpt lat="49.4891" lon="6.35059">
        <ele>154.7</ele>
        <time>2020-06-26T15:33:34Z</time>
      </trkpt>
      <trkpt lat="49.48906" lon="6.35061">
        <ele>154.6</ele>
        <time>2020-06-26T15:33:35Z</time>
      </trkpt>
      <trkpt lat="49.48903" lon="6.35063">
        <ele>154.6</ele>
        <time>2020-06-26T15:33:36Z</time>
      </trkpt>
      <trkpt lat="49.48903" lon="6.35064">
        <ele>154.6</ele>
        <time>2020-06-26T15:33:37Z</time>
      </trkpt>
      <trkpt lat="49.48902" lon="6.35067">
        <ele>154.6</ele>
        <time>2020-06-26T15:33:38Z</time>
      </trkpt>
      <trkpt lat="49.48902" lon="6.35068">
        <ele>154.6</ele>
        <time>2020-06-26T15:33:39Z</time>
      </trkpt>
      <trkpt lat="49.48902" lon="6.35068">
        <ele>154.6</ele>
        <time>2020-06-26T15:33:40Z</time>
      </trkpt>
      <trkpt lat="49.48902" lon="6.35069">
        <ele>154.6</ele>
        <time>2020-06-26T15:33:41Z</time>
      </trkpt>
      <trkpt lat="49.48901" lon="6.3507">
        <ele>154.6</ele>
        <time>2020-06-26T15:33:42Z</time>
      </trkpt>
      <trkpt lat="49.48901" lon="6.3507">
        <ele>154.6</ele>
        <time>2020-06-26T15:33:43Z</time>
      </trkpt>
      <trkpt lat="49.48901" lon="6.35072">
        <ele>154.6</ele>
        <time>2020-06-26T15:33:44Z</time>
      </trkpt>
      <trkpt lat="49.48901" lon="6.35073">
        <ele>154.6</ele>
        <time>2020-06-26T15:33:45Z</time>
      </trkpt>
      <trkpt lat="49.489" lon="6.35072">
        <ele>154.6</ele>
        <time>2020-06-26T15:33:46Z</time>
      </trkpt>
      <trkpt lat="49.48901" lon="6.35073">
        <ele>154.5</ele>
        <time>2020-06-26T15:33:47Z</time>
      </trkpt>
      <trkpt lat="49.48902" lon="6.35072">
        <ele>154.5</ele>
        <time>2020-06-26T15:33:48Z</time>
      </trkpt>
      <trkpt lat="49.48902" lon="6.35072">
        <ele>154.5</ele>
        <time>2020-06-26T15:33:49Z</time>
      </trkpt>
      <trkpt lat="49.48901" lon="6.35071">
        <ele>154.5</ele>
        <time>2020-06-26T15:33:50Z</time>
      </trkpt>
      <trkpt lat="49.48893" lon="6.35076">
        <ele>154.5</ele>
        <time>2020-06-26T15:33:57Z</time>
      </trkpt>
      <trkpt lat="49.4889" lon="6.35079">
        <ele>154.5</ele>
        <time>2020-06-26T15:33:58Z</time>
      </trkpt>
      <trkpt lat="49.48886" lon="6.35082">
        <ele>154.4</ele>
        <time>2020-06-26T15:33:59Z</time>
      </trkpt>
      <trkpt lat="49.48883" lon="6.35083">
        <ele>154.4</ele>
        <time>2020-06-26T15:34:00Z</time>
      </trkpt>
      <trkpt lat="49.48878" lon="6.35087">
        <ele>154.4</ele>
        <time>2020-06-26T15:34:01Z</time>
      </trkpt>
      <trkpt lat="49.48874" lon="6.35091">
        <ele>154.4</ele>
        <time>2020-06-26T15:34:02Z</time>
      </trkpt>
      <trkpt lat="49.4887" lon="6.35093">
        <ele>154.4</ele>
        <time>2020-06-26T15:34:03Z</time>
      </trkpt>
      <trkpt lat="49.48867" lon="6.35095">
        <ele>154.4</ele>
        <time>2020-06-26T15:34:04Z</time>
      </trkpt>
      <trkpt lat="49.48863" lon="6.35099">
        <ele>154.4</ele>
        <time>2020-06-26T15:34:05Z</time>
      </trkpt>
      <trkpt lat="49.48859" lon="6.35101">
        <ele>154.4</ele>
        <time>2020-06-26T15:34:06Z</time>
      </trkpt>
      <trkpt lat="49.48855" lon="6.35102">
        <ele>154.4</ele>
        <time>2020-06-26T15:34:07Z</time>
      </trkpt>
      <trkpt lat="49.4885" lon="6.35103">
        <ele>154.4</ele>
        <time>2020-06-26T15:34:08Z</time>
      </trkpt>
      <trkpt lat="49.48845" lon="6.35105">
        <ele>154.4</ele>
        <time>2020-06-26T15:34:09Z</time>
      </trkpt>
      <trkpt lat="49.4884" lon="6.35106">
        <ele>154.4</ele>
        <time>2020-06-26T15:34:10Z</time>
      </trkpt>
      <trkpt lat="49.48836" lon="6.35108">
        <ele>154.5</ele>
        <time>2020-06-26T15:34:11Z</time>
      </trkpt>
      <trkpt lat="49.48832" lon="6.35108">
        <ele>154.5</ele>
        <time>2020-06-26T15:34:12Z</time>
      </trkpt>
      <trkpt lat="49.48827" lon="6.35109">
        <ele>154.5</ele>
        <time>2020-06-26T15:34:13Z</time>
      </trkpt>
      <trkpt lat="49.48823" lon="6.35111">
        <ele>154.5</ele>
        <time>2020-06-26T15:34:14Z</time>
      </trkpt>
      <trkpt lat="49.48819" lon="6.35111">
        <ele>154.6</ele>
        <time>2020-06-26T15:34:15Z</time>
      </trkpt>
      <trkpt lat="49.48816" lon="6.35112">
        <ele>154.6</ele>
        <time>2020-06-26T15:34:16Z</time>
      </trkpt>
      <trkpt lat="49.48812" lon="6.35113">
        <ele>154.7</ele>
        <time>2020-06-26T15:34:17Z</time>
      </trkpt>
      <trkpt lat="49.4881" lon="6.35114">
        <ele>154.7</ele>
        <time>2020-06-26T15:34:18Z</time>
      </trkpt>
      <trkpt lat="49.48807" lon="6.35115">
        <ele>154.7</ele>
        <time>2020-06-26T15:34:19Z</time>
      </trkpt>
      <trkpt lat="49.48803" lon="6.35116">
        <ele>154.7</ele>
        <time>2020-06-26T15:34:20Z</time>
      </trkpt>
      <trkpt lat="49.488" lon="6.35117">
        <ele>154.7</ele>
        <time>2020-06-26T15:34:21Z</time>
      </trkpt>
      <trkpt lat="49.48796" lon="6.35117">
        <ele>154.6</ele>
        <time>2020-06-26T15:34:22Z</time>
      </trkpt>
      <trkpt lat="49.48793" lon="6.35119">
        <ele>154.6</ele>
        <time>2020-06-26T15:34:23Z</time>
      </trkpt>
      <trkpt lat="49.48788" lon="6.3512">
        <ele>154.6</ele>
        <time>2020-06-26T15:34:24Z</time>
      </trkpt>
      <trkpt lat="49.48785" lon="6.35122">
        <ele>154.6</ele>
        <time>2020-06-26T15:34:25Z</time>
      </trkpt>
      <trkpt lat="49.48781" lon="6.35123">
        <ele>154.6</ele>
        <time>2020-06-26T15:34:26Z</time>
      </trkpt>
      <trkpt lat="49.48778" lon="6.35124">
        <ele>154.6</ele>
        <time>2020-06-26T15:34:27Z</time>
      </trkpt>
      <trkpt lat="49.48773" lon="6.35125">
        <ele>154.5</ele>
        <time>2020-06-26T15:34:28Z</time>
      </trkpt>
      <trkpt lat="49.48769" lon="6.35128">
        <ele>154.4</ele>
        <time>2020-06-26T15:34:29Z</time>
      </trkpt>
      <trkpt lat="49.48764" lon="6.35131">
        <ele>154.3</ele>
        <time>2020-06-26T15:34:30Z</time>
      </trkpt>
      <trkpt lat="49.4876" lon="6.35134">
        <ele>154.2</ele>
        <time>2020-06-26T15:34:31Z</time>
      </trkpt>
      <trkpt lat="49.48756" lon="6.35137">
        <ele>154.1</ele>
        <time>2020-06-26T15:34:32Z</time>
      </trkpt>
      <trkpt lat="49.48752" lon="6.3514">
        <ele>154.1</ele>
        <time>2020-06-26T15:34:33Z</time>
      </trkpt>
      <trkpt lat="49.48748" lon="6.35142">
        <ele>154</ele>
        <time>2020-06-26T15:34:34Z</time>
      </trkpt>
      <trkpt lat="49.48744" lon="6.35148">
        <ele>153.9</ele>
        <time>2020-06-26T15:34:35Z</time>
      </trkpt>
      <trkpt lat="49.48742" lon="6.35154">
        <ele>153.9</ele>
        <time>2020-06-26T15:34:36Z</time>
      </trkpt>
      <trkpt lat="49.48739" lon="6.3516">
        <ele>153.8</ele>
        <time>2020-06-26T15:34:37Z</time>
      </trkpt>
      <trkpt lat="49.48737" lon="6.35167">
        <ele>153.8</ele>
        <time>2020-06-26T15:34:38Z</time>
      </trkpt>
      <trkpt lat="49.48735" lon="6.35174">
        <ele>153.7</ele>
        <time>2020-06-26T15:34:39Z</time>
      </trkpt>
      <trkpt lat="49.48733" lon="6.35181">
        <ele>153.7</ele>
        <time>2020-06-26T15:34:40Z</time>
      </trkpt>
      <trkpt lat="49.48733" lon="6.35188">
        <ele>153.6</ele>
        <time>2020-06-26T15:34:41Z</time>
      </trkpt>
      <trkpt lat="49.48731" lon="6.35195">
        <ele>153.5</ele>
        <time>2020-06-26T15:34:42Z</time>
      </trkpt>
      <trkpt lat="49.4873" lon="6.35201">
        <ele>153.5</ele>
        <time>2020-06-26T15:34:43Z</time>
      </trkpt>
      <trkpt lat="49.48728" lon="6.35208">
        <ele>153.4</ele>
        <time>2020-06-26T15:34:44Z</time>
      </trkpt>
      <trkpt lat="49.48727" lon="6.35216">
        <ele>153.3</ele>
        <time>2020-06-26T15:34:45Z</time>
      </trkpt>
      <trkpt lat="49.48725" lon="6.35223">
        <ele>153.2</ele>
        <time>2020-06-26T15:34:46Z</time>
      </trkpt>
      <trkpt lat="49.48723" lon="6.35231">
        <ele>153.1</ele>
        <time>2020-06-26T15:34:47Z</time>
      </trkpt>
      <trkpt lat="49.48721" lon="6.35237">
        <ele>153</ele>
        <time>2020-06-26T15:34:48Z</time>
      </trkpt>
      <trkpt lat="49.48719" lon="6.35244">
        <ele>152.9</ele>
        <time>2020-06-26T15:34:49Z</time>
      </trkpt>
      <trkpt lat="49.48718" lon="6.35251">
        <ele>152.8</ele>
        <time>2020-06-26T15:34:50Z</time>
      </trkpt>
      <trkpt lat="49.48716" lon="6.35258">
        <ele>152.8</ele>
        <time>2020-06-26T15:34:51Z</time>
      </trkpt>
      <trkpt lat="49.48714" lon="6.35265">
        <ele>152.8</ele>
        <time>2020-06-26T15:34:52Z</time>
      </trkpt>
      <trkpt lat="49.48712" lon="6.35272">
        <ele>152.8</ele>
        <time>2020-06-26T15:34:53Z</time>
      </trkpt>
      <trkpt lat="49.4871" lon="6.35278">
        <ele>152.8</ele>
        <time>2020-06-26T15:34:54Z</time>
      </trkpt>
      <trkpt lat="49.48707" lon="6.35285">
        <ele>152.7</ele>
        <time>2020-06-26T15:34:55Z</time>
      </trkpt>
      <trkpt lat="49.48704" lon="6.35292">
        <ele>152.7</ele>
        <time>2020-06-26T15:34:56Z</time>
      </trkpt>
      <trkpt lat="49.48702" lon="6.353">
        <ele>152.6</ele>
        <time>2020-06-26T15:34:57Z</time>
      </trkpt>
      <trkpt lat="49.48699" lon="6.35307">
        <ele>152.5</ele>
        <time>2020-06-26T15:34:58Z</time>
      </trkpt>
      <trkpt lat="49.48696" lon="6.35313">
        <ele>152.5</ele>
        <time>2020-06-26T15:34:59Z</time>
      </trkpt>
      <trkpt lat="49.48694" lon="6.3532">
        <ele>152.4</ele>
        <time>2020-06-26T15:35:00Z</time>
      </trkpt>
      <trkpt lat="49.48691" lon="6.35327">
        <ele>152.3</ele>
        <time>2020-06-26T15:35:01Z</time>
      </trkpt>
      <trkpt lat="49.48688" lon="6.35333">
        <ele>152.3</ele>
        <time>2020-06-26T15:35:02Z</time>
      </trkpt>
      <trkpt lat="49.48685" lon="6.3534">
        <ele>152.2</ele>
        <time>2020-06-26T15:35:03Z</time>
      </trkpt>
      <trkpt lat="49.48681" lon="6.35347">
        <ele>152.1</ele>
        <time>2020-06-26T15:35:04Z</time>
      </trkpt>
      <trkpt lat="49.48678" lon="6.35354">
        <ele>152</ele>
        <time>2020-06-26T15:35:05Z</time>
      </trkpt>
      <trkpt lat="49.48674" lon="6.35358">
        <ele>152</ele>
        <time>2020-06-26T15:35:06Z</time>
      </trkpt>
      <trkpt lat="49.48671" lon="6.35365">
        <ele>151.9</ele>
        <time>2020-06-26T15:35:07Z</time>
      </trkpt>
      <trkpt lat="49.48668" lon="6.35372">
        <ele>151.8</ele>
        <time>2020-06-26T15:35:08Z</time>
      </trkpt>
      <trkpt lat="49.48665" lon="6.35378">
        <ele>151.8</ele>
        <time>2020-06-26T15:35:09Z</time>
      </trkpt>
      <trkpt lat="49.48661" lon="6.35385">
        <ele>151.7</ele>
        <time>2020-06-26T15:35:10Z</time>
      </trkpt>
      <trkpt lat="49.48658" lon="6.35391">
        <ele>151.6</ele>
        <time>2020-06-26T15:35:11Z</time>
      </trkpt>
      <trkpt lat="49.48654" lon="6.35397">
        <ele>151.6</ele>
        <time>2020-06-26T15:35:12Z</time>
      </trkpt>
      <trkpt lat="49.48652" lon="6.35403">
        <ele>151.5</ele>
        <time>2020-06-26T15:35:13Z</time>
      </trkpt>
      <trkpt lat="49.48649" lon="6.35409">
        <ele>151.4</ele>
        <time>2020-06-26T15:35:14Z</time>
      </trkpt>
      <trkpt lat="49.48646" lon="6.35415">
        <ele>151.4</ele>
        <time>2020-06-26T15:35:15Z</time>
      </trkpt>
      <trkpt lat="49.48644" lon="6.35421">
        <ele>151.3</ele>
        <time>2020-06-26T15:35:16Z</time>
      </trkpt>
      <trkpt lat="49.4864" lon="6.35429">
        <ele>151.3</ele>
        <time>2020-06-26T15:35:17Z</time>
      </trkpt>
      <trkpt lat="49.48638" lon="6.35435">
        <ele>151.3</ele>
        <time>2020-06-26T15:35:18Z</time>
      </trkpt>
      <trkpt lat="49.48635" lon="6.35443">
        <ele>151.3</ele>
        <time>2020-06-26T15:35:19Z</time>
      </trkpt>
      <trkpt lat="49.48632" lon="6.3545">
        <ele>151.2</ele>
        <time>2020-06-26T15:35:20Z</time>
      </trkpt>
      <trkpt lat="49.48629" lon="6.35458">
        <ele>151.2</ele>
        <time>2020-06-26T15:35:21Z</time>
      </trkpt>
      <trkpt lat="49.48628" lon="6.35464">
        <ele>151.2</ele>
        <time>2020-06-26T15:35:22Z</time>
      </trkpt>
      <trkpt lat="49.48625" lon="6.35471">
        <ele>151.1</ele>
        <time>2020-06-26T15:35:23Z</time>
      </trkpt>
      <trkpt lat="49.48623" lon="6.35476">
        <ele>151.1</ele>
        <time>2020-06-26T15:35:24Z</time>
      </trkpt>
      <trkpt lat="49.48621" lon="6.35485">
        <ele>151.1</ele>
        <time>2020-06-26T15:35:25Z</time>
      </trkpt>
      <trkpt lat="49.48619" lon="6.35492">
        <ele>151</ele>
        <time>2020-06-26T15:35:26Z</time>
      </trkpt>
      <trkpt lat="49.48616" lon="6.35498">
        <ele>151</ele>
        <time>2020-06-26T15:35:27Z</time>
      </trkpt>
      <trkpt lat="49.48614" lon="6.35506">
        <ele>150.9</ele>
        <time>2020-06-26T15:35:28Z</time>
      </trkpt>
      <trkpt lat="49.48612" lon="6.35514">
        <ele>150.9</ele>
        <time>2020-06-26T15:35:29Z</time>
      </trkpt>
      <trkpt lat="49.48609" lon="6.35522">
        <ele>150.9</ele>
        <time>2020-06-26T15:35:30Z</time>
      </trkpt>
      <trkpt lat="49.48606" lon="6.35528">
        <ele>150.8</ele>
        <time>2020-06-26T15:35:31Z</time>
      </trkpt>
      <trkpt lat="49.48604" lon="6.35535">
        <ele>150.7</ele>
        <time>2020-06-26T15:35:32Z</time>
      </trkpt>
      <trkpt lat="49.48601" lon="6.35542">
        <ele>150.6</ele>
        <time>2020-06-26T15:35:33Z</time>
      </trkpt>
      <trkpt lat="49.48598" lon="6.35549">
        <ele>150.5</ele>
        <time>2020-06-26T15:35:34Z</time>
      </trkpt>
      <trkpt lat="49.48596" lon="6.35555">
        <ele>150.4</ele>
        <time>2020-06-26T15:35:35Z</time>
      </trkpt>
      <trkpt lat="49.48593" lon="6.35563">
        <ele>150.4</ele>
        <time>2020-06-26T15:35:36Z</time>
      </trkpt>
      <trkpt lat="49.4859" lon="6.35569">
        <ele>150.3</ele>
        <time>2020-06-26T15:35:37Z</time>
      </trkpt>
      <trkpt lat="49.48588" lon="6.35577">
        <ele>150.3</ele>
        <time>2020-06-26T15:35:38Z</time>
      </trkpt>
      <trkpt lat="49.48585" lon="6.35584">
        <ele>150.2</ele>
        <time>2020-06-26T15:35:39Z</time>
      </trkpt>
      <trkpt lat="49.48582" lon="6.35592">
        <ele>150.2</ele>
        <time>2020-06-26T15:35:40Z</time>
      </trkpt>
      <trkpt lat="49.48579" lon="6.35601">
        <ele>150.1</ele>
        <time>2020-06-26T15:35:41Z</time>
      </trkpt>
      <trkpt lat="49.48577" lon="6.35609">
        <ele>150.1</ele>
        <time>2020-06-26T15:35:42Z</time>
      </trkpt>
      <trkpt lat="49.48574" lon="6.35617">
        <ele>150</ele>
        <time>2020-06-26T15:35:43Z</time>
      </trkpt>
      <trkpt lat="49.48571" lon="6.35625">
        <ele>150</ele>
        <time>2020-06-26T15:35:44Z</time>
      </trkpt>
      <trkpt lat="49.48568" lon="6.3563">
        <ele>150</ele>
        <time>2020-06-26T15:35:45Z</time>
      </trkpt>
      <trkpt lat="49.48566" lon="6.35636">
        <ele>150</ele>
        <time>2020-06-26T15:35:46Z</time>
      </trkpt>
      <trkpt lat="49.48564" lon="6.35643">
        <ele>150</ele>
        <time>2020-06-26T15:35:47Z</time>
      </trkpt>
      <trkpt lat="49.48562" lon="6.3565">
        <ele>150</ele>
        <time>2020-06-26T15:35:48Z</time>
      </trkpt>
      <trkpt lat="49.4856" lon="6.35656">
        <ele>150</ele>
        <time>2020-06-26T15:35:49Z</time>
      </trkpt>
      <trkpt lat="49.48557" lon="6.35664">
        <ele>150</ele>
        <time>2020-06-26T15:35:50Z</time>
      </trkpt>
      <trkpt lat="49.48554" lon="6.3567">
        <ele>150</ele>
        <time>2020-06-26T15:35:51Z</time>
      </trkpt>
      <trkpt lat="49.48551" lon="6.35676">
        <ele>149.9</ele>
        <time>2020-06-26T15:35:52Z</time>
      </trkpt>
      <trkpt lat="49.48549" lon="6.35682">
        <ele>149.9</ele>
        <time>2020-06-26T15:35:53Z</time>
      </trkpt>
      <trkpt lat="49.48546" lon="6.35689">
        <ele>149.9</ele>
        <time>2020-06-26T15:35:54Z</time>
      </trkpt>
      <trkpt lat="49.48542" lon="6.35696">
        <ele>149.8</ele>
        <time>2020-06-26T15:35:55Z</time>
      </trkpt>
      <trkpt lat="49.48539" lon="6.35703">
        <ele>149.8</ele>
        <time>2020-06-26T15:35:56Z</time>
      </trkpt>
      <trkpt lat="49.48537" lon="6.35711">
        <ele>149.7</ele>
        <time>2020-06-26T15:35:57Z</time>
      </trkpt>
      <trkpt lat="49.48535" lon="6.35718">
        <ele>149.7</ele>
        <time>2020-06-26T15:35:58Z</time>
      </trkpt>
      <trkpt lat="49.48532" lon="6.35725">
        <ele>149.7</ele>
        <time>2020-06-26T15:35:59Z</time>
      </trkpt>
      <trkpt lat="49.4853" lon="6.35731">
        <ele>149.6</ele>
        <time>2020-06-26T15:36:00Z</time>
      </trkpt>
      <trkpt lat="49.48527" lon="6.35737">
        <ele>149.6</ele>
        <time>2020-06-26T15:36:01Z</time>
      </trkpt>
      <trkpt lat="49.48525" lon="6.35743">
        <ele>149.6</ele>
        <time>2020-06-26T15:36:02Z</time>
      </trkpt>
      <trkpt lat="49.48522" lon="6.3575">
        <ele>149.5</ele>
        <time>2020-06-26T15:36:03Z</time>
      </trkpt>
      <trkpt lat="49.48519" lon="6.35756">
        <ele>149.5</ele>
        <time>2020-06-26T15:36:04Z</time>
      </trkpt>
      <trkpt lat="49.48516" lon="6.35763">
        <ele>149.4</ele>
        <time>2020-06-26T15:36:05Z</time>
      </trkpt>
      <trkpt lat="49.48513" lon="6.35768">
        <ele>149.4</ele>
        <time>2020-06-26T15:36:06Z</time>
      </trkpt>
      <trkpt lat="49.48511" lon="6.35773">
        <ele>149.3</ele>
        <time>2020-06-26T15:36:07Z</time>
      </trkpt>
      <trkpt lat="49.48508" lon="6.35778">
        <ele>149.3</ele>
        <time>2020-06-26T15:36:08Z</time>
      </trkpt>
      <trkpt lat="49.48506" lon="6.35783">
        <ele>149.3</ele>
        <time>2020-06-26T15:36:09Z</time>
      </trkpt>
      <trkpt lat="49.48504" lon="6.35789">
        <ele>149.2</ele>
        <time>2020-06-26T15:36:10Z</time>
      </trkpt>
      <trkpt lat="49.48501" lon="6.35793">
        <ele>149.2</ele>
        <time>2020-06-26T15:36:11Z</time>
      </trkpt>
      <trkpt lat="49.48498" lon="6.35797">
        <ele>149.2</ele>
        <time>2020-06-26T15:36:12Z</time>
      </trkpt>
      <trkpt lat="49.48495" lon="6.35802">
        <ele>149.1</ele>
        <time>2020-06-26T15:36:13Z</time>
      </trkpt>
      <trkpt lat="49.48492" lon="6.35808">
        <ele>149.1</ele>
        <time>2020-06-26T15:36:14Z</time>
      </trkpt>
      <trkpt lat="49.48488" lon="6.35814">
        <ele>149.1</ele>
        <time>2020-06-26T15:36:15Z</time>
      </trkpt>
      <trkpt lat="49.48484" lon="6.3582">
        <ele>149.1</ele>
        <time>2020-06-26T15:36:16Z</time>
      </trkpt>
      <trkpt lat="49.48479" lon="6.35823">
        <ele>149.1</ele>
        <time>2020-06-26T15:36:17Z</time>
      </trkpt>
      <trkpt lat="49.48474" lon="6.35827">
        <ele>149</ele>
        <time>2020-06-26T15:36:18Z</time>
      </trkpt>
      <trkpt lat="49.48469" lon="6.35832">
        <ele>149</ele>
        <time>2020-06-26T15:36:19Z</time>
      </trkpt>
      <trkpt lat="49.48463" lon="6.35837">
        <ele>149</ele>
        <time>2020-06-26T15:36:20Z</time>
      </trkpt>
      <trkpt lat="49.48458" lon="6.35843">
        <ele>149</ele>
        <time>2020-06-26T15:36:21Z</time>
      </trkpt>
      <trkpt lat="49.48454" lon="6.35848">
        <ele>149</ele>
        <time>2020-06-26T15:36:22Z</time>
      </trkpt>
      <trkpt lat="49.48449" lon="6.35854">
        <ele>148.9</ele>
        <time>2020-06-26T15:36:23Z</time>
      </trkpt>
      <trkpt lat="49.48444" lon="6.35859">
        <ele>148.9</ele>
        <time>2020-06-26T15:36:24Z</time>
      </trkpt>
      <trkpt lat="49.48439" lon="6.35864">
        <ele>148.8</ele>
        <time>2020-06-26T15:36:25Z</time>
      </trkpt>
      <trkpt lat="49.48434" lon="6.35869">
        <ele>148.8</ele>
        <time>2020-06-26T15:36:26Z</time>
      </trkpt>
      <trkpt lat="49.48429" lon="6.35875">
        <ele>148.7</ele>
        <time>2020-06-26T15:36:27Z</time>
      </trkpt>
      <trkpt lat="49.48424" lon="6.35881">
        <ele>148.7</ele>
        <time>2020-06-26T15:36:28Z</time>
      </trkpt>
      <trkpt lat="49.4842" lon="6.35886">
        <ele>148.7</ele>
        <time>2020-06-26T15:36:29Z</time>
      </trkpt>
      <trkpt lat="49.48415" lon="6.35892">
        <ele>148.7</ele>
        <time>2020-06-26T15:36:30Z</time>
      </trkpt>
      <trkpt lat="49.4841" lon="6.35897">
        <ele>148.6</ele>
        <time>2020-06-26T15:36:31Z</time>
      </trkpt>
      <trkpt lat="49.48405" lon="6.35902">
        <ele>148.6</ele>
        <time>2020-06-26T15:36:32Z</time>
      </trkpt>
      <trkpt lat="49.48402" lon="6.35907">
        <ele>148.6</ele>
        <time>2020-06-26T15:36:33Z</time>
      </trkpt>
      <trkpt lat="49.48397" lon="6.35912">
        <ele>148.6</ele>
        <time>2020-06-26T15:36:34Z</time>
      </trkpt>
      <trkpt lat="49.48393" lon="6.35917">
        <ele>148.6</ele>
        <time>2020-06-26T15:36:35Z</time>
      </trkpt>
      <trkpt lat="49.48389" lon="6.35921">
        <ele>148.5</ele>
        <time>2020-06-26T15:36:36Z</time>
      </trkpt>
      <trkpt lat="49.48384" lon="6.35925">
        <ele>148.5</ele>
        <time>2020-06-26T15:36:37Z</time>
      </trkpt>
      <trkpt lat="49.48379" lon="6.3593">
        <ele>148.5</ele>
        <time>2020-06-26T15:36:38Z</time>
      </trkpt>
      <trkpt lat="49.48374" lon="6.35934">
        <ele>148.5</ele>
        <time>2020-06-26T15:36:39Z</time>
      </trkpt>
      <trkpt lat="49.4837" lon="6.3594">
        <ele>148.5</ele>
        <time>2020-06-26T15:36:40Z</time>
      </trkpt>
      <trkpt lat="49.48365" lon="6.35945">
        <ele>148.5</ele>
        <time>2020-06-26T15:36:41Z</time>
      </trkpt>
      <trkpt lat="49.48361" lon="6.35949">
        <ele>148.4</ele>
        <time>2020-06-26T15:36:42Z</time>
      </trkpt>
      <trkpt lat="49.48357" lon="6.35952">
        <ele>148.3</ele>
        <time>2020-06-26T15:36:43Z</time>
      </trkpt>
      <trkpt lat="49.48351" lon="6.35957">
        <ele>148.2</ele>
        <time>2020-06-26T15:36:44Z</time>
      </trkpt>
      <trkpt lat="49.48346" lon="6.35962">
        <ele>148.2</ele>
        <time>2020-06-26T15:36:45Z</time>
      </trkpt>
      <trkpt lat="49.48341" lon="6.35967">
        <ele>148.1</ele>
        <time>2020-06-26T15:36:46Z</time>
      </trkpt>
      <trkpt lat="49.48336" lon="6.35971">
        <ele>148.1</ele>
        <time>2020-06-26T15:36:47Z</time>
      </trkpt>
      <trkpt lat="49.48331" lon="6.35976">
        <ele>148.1</ele>
        <time>2020-06-26T15:36:48Z</time>
      </trkpt>
      <trkpt lat="49.48325" lon="6.35981">
        <ele>148</ele>
        <time>2020-06-26T15:36:49Z</time>
      </trkpt>
      <trkpt lat="49.4832" lon="6.35986">
        <ele>148</ele>
        <time>2020-06-26T15:36:50Z</time>
      </trkpt>
      <trkpt lat="49.48315" lon="6.35991">
        <ele>147.9</ele>
        <time>2020-06-26T15:36:51Z</time>
      </trkpt>
      <trkpt lat="49.48311" lon="6.35996">
        <ele>147.9</ele>
        <time>2020-06-26T15:36:52Z</time>
      </trkpt>
      <trkpt lat="49.48306" lon="6.36001">
        <ele>147.8</ele>
        <time>2020-06-26T15:36:53Z</time>
      </trkpt>
      <trkpt lat="49.48301" lon="6.36005">
        <ele>147.8</ele>
        <time>2020-06-26T15:36:54Z</time>
      </trkpt>
      <trkpt lat="49.48296" lon="6.3601">
        <ele>147.8</ele>
        <time>2020-06-26T15:36:55Z</time>
      </trkpt>
      <trkpt lat="49.48291" lon="6.36016">
        <ele>147.7</ele>
        <time>2020-06-26T15:36:56Z</time>
      </trkpt>
      <trkpt lat="49.48286" lon="6.36021">
        <ele>147.7</ele>
        <time>2020-06-26T15:36:57Z</time>
      </trkpt>
      <trkpt lat="49.48281" lon="6.36027">
        <ele>147.7</ele>
        <time>2020-06-26T15:36:58Z</time>
      </trkpt>
      <trkpt lat="49.48277" lon="6.36031">
        <ele>147.7</ele>
        <time>2020-06-26T15:36:59Z</time>
      </trkpt>
      <trkpt lat="49.48272" lon="6.36037">
        <ele>147.7</ele>
        <time>2020-06-26T15:37:00Z</time>
      </trkpt>
      <trkpt lat="49.48267" lon="6.3604">
        <ele>147.7</ele>
        <time>2020-06-26T15:37:01Z</time>
      </trkpt>
      <trkpt lat="49.48262" lon="6.36047">
        <ele>147.7</ele>
        <time>2020-06-26T15:37:02Z</time>
      </trkpt>
      <trkpt lat="49.48258" lon="6.36052">
        <ele>147.7</ele>
        <time>2020-06-26T15:37:03Z</time>
      </trkpt>
      <trkpt lat="49.48255" lon="6.36058">
        <ele>147.7</ele>
        <time>2020-06-26T15:37:04Z</time>
      </trkpt>
      <trkpt lat="49.4825" lon="6.36063">
        <ele>147.8</ele>
        <time>2020-06-26T15:37:05Z</time>
      </trkpt>
      <trkpt lat="49.48246" lon="6.36069">
        <ele>147.8</ele>
        <time>2020-06-26T15:37:06Z</time>
      </trkpt>
      <trkpt lat="49.48242" lon="6.36075">
        <ele>147.9</ele>
        <time>2020-06-26T15:37:07Z</time>
      </trkpt>
      <trkpt lat="49.48239" lon="6.36081">
        <ele>148</ele>
        <time>2020-06-26T15:37:08Z</time>
      </trkpt>
      <trkpt lat="49.48236" lon="6.36088">
        <ele>148.1</ele>
        <time>2020-06-26T15:37:09Z</time>
      </trkpt>
      <trkpt lat="49.48232" lon="6.36093">
        <ele>148.1</ele>
        <time>2020-06-26T15:37:10Z</time>
      </trkpt>
      <trkpt lat="49.48228" lon="6.361">
        <ele>148.1</ele>
        <time>2020-06-26T15:37:11Z</time>
      </trkpt>
      <trkpt lat="49.48226" lon="6.36106">
        <ele>148.1</ele>
        <time>2020-06-26T15:37:12Z</time>
      </trkpt>
      <trkpt lat="49.48222" lon="6.36112">
        <ele>148.1</ele>
        <time>2020-06-26T15:37:13Z</time>
      </trkpt>
      <trkpt lat="49.48219" lon="6.36118">
        <ele>148</ele>
        <time>2020-06-26T15:37:14Z</time>
      </trkpt>
      <trkpt lat="49.48215" lon="6.36124">
        <ele>148</ele>
        <time>2020-06-26T15:37:15Z</time>
      </trkpt>
      <trkpt lat="49.48212" lon="6.36129">
        <ele>148</ele>
        <time>2020-06-26T15:37:16Z</time>
      </trkpt>
      <trkpt lat="49.48208" lon="6.36134">
        <ele>148</ele>
        <time>2020-06-26T15:37:17Z</time>
      </trkpt>
      <trkpt lat="49.48206" lon="6.36137">
        <ele>148</ele>
        <time>2020-06-26T15:37:18Z</time>
      </trkpt>
      <trkpt lat="49.48201" lon="6.36141">
        <ele>148.1</ele>
        <time>2020-06-26T15:37:19Z</time>
      </trkpt>
      <trkpt lat="49.48196" lon="6.36144">
        <ele>148.1</ele>
        <time>2020-06-26T15:37:20Z</time>
      </trkpt>
      <trkpt lat="49.48191" lon="6.36145">
        <ele>148.1</ele>
        <time>2020-06-26T15:37:21Z</time>
      </trkpt>
      <trkpt lat="49.48185" lon="6.36145">
        <ele>148.1</ele>
        <time>2020-06-26T15:37:22Z</time>
      </trkpt>
      <trkpt lat="49.4818" lon="6.36147">
        <ele>148.1</ele>
        <time>2020-06-26T15:37:23Z</time>
      </trkpt>
      <trkpt lat="49.48175" lon="6.3615">
        <ele>148.1</ele>
        <time>2020-06-26T15:37:24Z</time>
      </trkpt>
      <trkpt lat="49.48171" lon="6.36154">
        <ele>148.1</ele>
        <time>2020-06-26T15:37:25Z</time>
      </trkpt>
      <trkpt lat="49.48168" lon="6.36159">
        <ele>148.1</ele>
        <time>2020-06-26T15:37:26Z</time>
      </trkpt>
      <trkpt lat="49.48164" lon="6.36164">
        <ele>148.1</ele>
        <time>2020-06-26T15:37:27Z</time>
      </trkpt>
      <trkpt lat="49.48162" lon="6.3617">
        <ele>148.1</ele>
        <time>2020-06-26T15:37:28Z</time>
      </trkpt>
      <trkpt lat="49.4816" lon="6.36177">
        <ele>148.1</ele>
        <time>2020-06-26T15:37:29Z</time>
      </trkpt>
      <trkpt lat="49.48158" lon="6.36183">
        <ele>148</ele>
        <time>2020-06-26T15:37:30Z</time>
      </trkpt>
      <trkpt lat="49.48156" lon="6.3619">
        <ele>147.9</ele>
        <time>2020-06-26T15:37:31Z</time>
      </trkpt>
      <trkpt lat="49.48151" lon="6.36195">
        <ele>147.8</ele>
        <time>2020-06-26T15:37:32Z</time>
      </trkpt>
      <trkpt lat="49.48146" lon="6.362">
        <ele>147.7</ele>
        <time>2020-06-26T15:37:33Z</time>
      </trkpt>
      <trkpt lat="49.48141" lon="6.36203">
        <ele>147.7</ele>
        <time>2020-06-26T15:37:34Z</time>
      </trkpt>
      <trkpt lat="49.48135" lon="6.36207">
        <ele>147.7</ele>
        <time>2020-06-26T15:37:35Z</time>
      </trkpt>
      <trkpt lat="49.48129" lon="6.36212">
        <ele>147.6</ele>
        <time>2020-06-26T15:37:36Z</time>
      </trkpt>
      <trkpt lat="49.48124" lon="6.36215">
        <ele>147.6</ele>
        <time>2020-06-26T15:37:37Z</time>
      </trkpt>
      <trkpt lat="49.48118" lon="6.36218">
        <ele>147.6</ele>
        <time>2020-06-26T15:37:38Z</time>
      </trkpt>
      <trkpt lat="49.48113" lon="6.36222">
        <ele>147.7</ele>
        <time>2020-06-26T15:37:39Z</time>
      </trkpt>
      <trkpt lat="49.48107" lon="6.36227">
        <ele>147.8</ele>
        <time>2020-06-26T15:37:40Z</time>
      </trkpt>
      <trkpt lat="49.48102" lon="6.36231">
        <ele>147.9</ele>
        <time>2020-06-26T15:37:41Z</time>
      </trkpt>
      <trkpt lat="49.48097" lon="6.36235">
        <ele>148</ele>
        <time>2020-06-26T15:37:42Z</time>
      </trkpt>
      <trkpt lat="49.48092" lon="6.36239">
        <ele>148.1</ele>
        <time>2020-06-26T15:37:43Z</time>
      </trkpt>
      <trkpt lat="49.48087" lon="6.36243">
        <ele>148.2</ele>
        <time>2020-06-26T15:37:44Z</time>
      </trkpt>
      <trkpt lat="49.48083" lon="6.36248">
        <ele>148.2</ele>
        <time>2020-06-26T15:37:45Z</time>
      </trkpt>
      <trkpt lat="49.48079" lon="6.36253">
        <ele>148.2</ele>
        <time>2020-06-26T15:37:46Z</time>
      </trkpt>
      <trkpt lat="49.48074" lon="6.36259">
        <ele>148.2</ele>
        <time>2020-06-26T15:37:47Z</time>
      </trkpt>
      <trkpt lat="49.4807" lon="6.36264">
        <ele>148.2</ele>
        <time>2020-06-26T15:37:48Z</time>
      </trkpt>
      <trkpt lat="49.48066" lon="6.36269">
        <ele>148.2</ele>
        <time>2020-06-26T15:37:49Z</time>
      </trkpt>
      <trkpt lat="49.48061" lon="6.36275">
        <ele>148.2</ele>
        <time>2020-06-26T15:37:50Z</time>
      </trkpt>
      <trkpt lat="49.48057" lon="6.36282">
        <ele>148.2</ele>
        <time>2020-06-26T15:37:51Z</time>
      </trkpt>
      <trkpt lat="49.48053" lon="6.36289">
        <ele>148.2</ele>
        <time>2020-06-26T15:37:52Z</time>
      </trkpt>
      <trkpt lat="49.48049" lon="6.36295">
        <ele>148.3</ele>
        <time>2020-06-26T15:37:53Z</time>
      </trkpt>
      <trkpt lat="49.48046" lon="6.36301">
        <ele>148.3</ele>
        <time>2020-06-26T15:37:54Z</time>
      </trkpt>
      <trkpt lat="49.48042" lon="6.36308">
        <ele>148.4</ele>
        <time>2020-06-26T15:37:55Z</time>
      </trkpt>
      <trkpt lat="49.48038" lon="6.36314">
        <ele>148.4</ele>
        <time>2020-06-26T15:37:56Z</time>
      </trkpt>
      <trkpt lat="49.48034" lon="6.3632">
        <ele>148.5</ele>
        <time>2020-06-26T15:37:57Z</time>
      </trkpt>
      <trkpt lat="49.48031" lon="6.36326">
        <ele>148.5</ele>
        <time>2020-06-26T15:37:58Z</time>
      </trkpt>
      <trkpt lat="49.48028" lon="6.36331">
        <ele>148.6</ele>
        <time>2020-06-26T15:37:59Z</time>
      </trkpt>
      <trkpt lat="49.48025" lon="6.36336">
        <ele>148.6</ele>
        <time>2020-06-26T15:38:00Z</time>
      </trkpt>
      <trkpt lat="49.48023" lon="6.3634">
        <ele>148.7</ele>
        <time>2020-06-26T15:38:01Z</time>
      </trkpt>
      <trkpt lat="49.4802" lon="6.36345">
        <ele>148.7</ele>
        <time>2020-06-26T15:38:02Z</time>
      </trkpt>
      <trkpt lat="49.48018" lon="6.36349">
        <ele>148.8</ele>
        <time>2020-06-26T15:38:03Z</time>
      </trkpt>
      <trkpt lat="49.48015" lon="6.36353">
        <ele>148.8</ele>
        <time>2020-06-26T15:38:04Z</time>
      </trkpt>
      <trkpt lat="49.48013" lon="6.36356">
        <ele>148.9</ele>
        <time>2020-06-26T15:38:05Z</time>
      </trkpt>
      <trkpt lat="49.4801" lon="6.36359">
        <ele>148.9</ele>
        <time>2020-06-26T15:38:06Z</time>
      </trkpt>
      <trkpt lat="49.4801" lon="6.3636">
        <ele>148.9</ele>
        <time>2020-06-26T15:38:07Z</time>
      </trkpt>
      <trkpt lat="49.48009" lon="6.36364">
        <ele>148.9</ele>
        <time>2020-06-26T15:38:08Z</time>
      </trkpt>
      <trkpt lat="49.48009" lon="6.36366">
        <ele>148.9</ele>
        <time>2020-06-26T15:38:09Z</time>
      </trkpt>
      <trkpt lat="49.48007" lon="6.3637">
        <ele>149</ele>
        <time>2020-06-26T15:38:10Z</time>
      </trkpt>
      <trkpt lat="49.48005" lon="6.36373">
        <ele>149</ele>
        <time>2020-06-26T15:38:11Z</time>
      </trkpt>
      <trkpt lat="49.48003" lon="6.36376">
        <ele>148.9</ele>
        <time>2020-06-26T15:38:12Z</time>
      </trkpt>
      <trkpt lat="49.48001" lon="6.36381">
        <ele>148.9</ele>
        <time>2020-06-26T15:38:13Z</time>
      </trkpt>
      <trkpt lat="49.47998" lon="6.36386">
        <ele>148.8</ele>
        <time>2020-06-26T15:38:14Z</time>
      </trkpt>
      <trkpt lat="49.47995" lon="6.36391">
        <ele>148.7</ele>
        <time>2020-06-26T15:38:15Z</time>
      </trkpt>
      <trkpt lat="49.47993" lon="6.36398">
        <ele>148.6</ele>
        <time>2020-06-26T15:38:16Z</time>
      </trkpt>
      <trkpt lat="49.4799" lon="6.36405">
        <ele>148.5</ele>
        <time>2020-06-26T15:38:17Z</time>
      </trkpt>
      <trkpt lat="49.47987" lon="6.3641">
        <ele>148.4</ele>
        <time>2020-06-26T15:38:18Z</time>
      </trkpt>
      <trkpt lat="49.47983" lon="6.36415">
        <ele>148.4</ele>
        <time>2020-06-26T15:38:19Z</time>
      </trkpt>
      <trkpt lat="49.47981" lon="6.36421">
        <ele>148.3</ele>
        <time>2020-06-26T15:38:20Z</time>
      </trkpt>
      <trkpt lat="49.47977" lon="6.36427">
        <ele>148.2</ele>
        <time>2020-06-26T15:38:21Z</time>
      </trkpt>
      <trkpt lat="49.47974" lon="6.36433">
        <ele>148.1</ele>
        <time>2020-06-26T15:38:22Z</time>
      </trkpt>
      <trkpt lat="49.47971" lon="6.36438">
        <ele>148</ele>
        <time>2020-06-26T15:38:23Z</time>
      </trkpt>
      <trkpt lat="49.47968" lon="6.36444">
        <ele>147.9</ele>
        <time>2020-06-26T15:38:24Z</time>
      </trkpt>
      <trkpt lat="49.47964" lon="6.3645">
        <ele>147.7</ele>
        <time>2020-06-26T15:38:25Z</time>
      </trkpt>
      <trkpt lat="49.4796" lon="6.36456">
        <ele>147.6</ele>
        <time>2020-06-26T15:38:26Z</time>
      </trkpt>
      <trkpt lat="49.47955" lon="6.36461">
        <ele>147.5</ele>
        <time>2020-06-26T15:38:27Z</time>
      </trkpt>
      <trkpt lat="49.47952" lon="6.36467">
        <ele>147.4</ele>
        <time>2020-06-26T15:38:28Z</time>
      </trkpt>
      <trkpt lat="49.47949" lon="6.36474">
        <ele>147.3</ele>
        <time>2020-06-26T15:38:29Z</time>
      </trkpt>
      <trkpt lat="49.47946" lon="6.3648">
        <ele>147.3</ele>
        <time>2020-06-26T15:38:30Z</time>
      </trkpt>
      <trkpt lat="49.47942" lon="6.36486">
        <ele>147.2</ele>
        <time>2020-06-26T15:38:31Z</time>
      </trkpt>
      <trkpt lat="49.47938" lon="6.36493">
        <ele>147.2</ele>
        <time>2020-06-26T15:38:32Z</time>
      </trkpt>
      <trkpt lat="49.47935" lon="6.36499">
        <ele>147.1</ele>
        <time>2020-06-26T15:38:33Z</time>
      </trkpt>
      <trkpt lat="49.47932" lon="6.36506">
        <ele>147.1</ele>
        <time>2020-06-26T15:38:34Z</time>
      </trkpt>
      <trkpt lat="49.47928" lon="6.36512">
        <ele>147.1</ele>
        <time>2020-06-26T15:38:35Z</time>
      </trkpt>
      <trkpt lat="49.47925" lon="6.36518">
        <ele>147</ele>
        <time>2020-06-26T15:38:36Z</time>
      </trkpt>
      <trkpt lat="49.47921" lon="6.36524">
        <ele>147</ele>
        <time>2020-06-26T15:38:37Z</time>
      </trkpt>
      <trkpt lat="49.47917" lon="6.36531">
        <ele>146.9</ele>
        <time>2020-06-26T15:38:38Z</time>
      </trkpt>
      <trkpt lat="49.47914" lon="6.36537">
        <ele>146.9</ele>
        <time>2020-06-26T15:38:39Z</time>
      </trkpt>
      <trkpt lat="49.47912" lon="6.36542">
        <ele>146.8</ele>
        <time>2020-06-26T15:38:40Z</time>
      </trkpt>
      <trkpt lat="49.47909" lon="6.36548">
        <ele>146.8</ele>
        <time>2020-06-26T15:38:41Z</time>
      </trkpt>
      <trkpt lat="49.47907" lon="6.36553">
        <ele>146.7</ele>
        <time>2020-06-26T15:38:42Z</time>
      </trkpt>
      <trkpt lat="49.47903" lon="6.36555">
        <ele>146.7</ele>
        <time>2020-06-26T15:38:43Z</time>
      </trkpt>
      <trkpt lat="49.47897" lon="6.36557">
        <ele>147</ele>
        <time>2020-06-26T15:38:44Z</time>
      </trkpt>
      <trkpt lat="49.47891" lon="6.36557">
        <ele>147.1</ele>
        <time>2020-06-26T15:38:45Z</time>
      </trkpt>
      <trkpt lat="49.47886" lon="6.36556">
        <ele>147.4</ele>
        <time>2020-06-26T15:38:46Z</time>
      </trkpt>
      <trkpt lat="49.47881" lon="6.36556">
        <ele>147.3</ele>
        <time>2020-06-26T15:38:47Z</time>
      </trkpt>
      <trkpt lat="49.47877" lon="6.36558">
        <ele>147.3</ele>
        <time>2020-06-26T15:38:48Z</time>
      </trkpt>
      <trkpt lat="49.47873" lon="6.36559">
        <ele>147.2</ele>
        <time>2020-06-26T15:38:49Z</time>
      </trkpt>
      <trkpt lat="49.47868" lon="6.3656">
        <ele>147.2</ele>
        <time>2020-06-26T15:38:50Z</time>
      </trkpt>
      <trkpt lat="49.47863" lon="6.36563">
        <ele>147.1</ele>
        <time>2020-06-26T15:38:51Z</time>
      </trkpt>
      <trkpt lat="49.47858" lon="6.36566">
        <ele>147</ele>
        <time>2020-06-26T15:38:52Z</time>
      </trkpt>
      <trkpt lat="49.47853" lon="6.36568">
        <ele>146.9</ele>
        <time>2020-06-26T15:38:53Z</time>
      </trkpt>
      <trkpt lat="49.47849" lon="6.36572">
        <ele>146.8</ele>
        <time>2020-06-26T15:38:54Z</time>
      </trkpt>
      <trkpt lat="49.47845" lon="6.36575">
        <ele>146.7</ele>
        <time>2020-06-26T15:38:55Z</time>
      </trkpt>
      <trkpt lat="49.4784" lon="6.36578">
        <ele>146.6</ele>
        <time>2020-06-26T15:38:56Z</time>
      </trkpt>
      <trkpt lat="49.47835" lon="6.36581">
        <ele>146.5</ele>
        <time>2020-06-26T15:38:57Z</time>
      </trkpt>
      <trkpt lat="49.47831" lon="6.36583">
        <ele>146.5</ele>
        <time>2020-06-26T15:38:58Z</time>
      </trkpt>
      <trkpt lat="49.47826" lon="6.36585">
        <ele>146.6</ele>
        <time>2020-06-26T15:38:59Z</time>
      </trkpt>
      <trkpt lat="49.47821" lon="6.3659">
        <ele>146.7</ele>
        <time>2020-06-26T15:39:00Z</time>
      </trkpt>
      <trkpt lat="49.47818" lon="6.36591">
        <ele>146.7</ele>
        <time>2020-06-26T15:39:01Z</time>
      </trkpt>
      <trkpt lat="49.47813" lon="6.36593">
        <ele>146.8</ele>
        <time>2020-06-26T15:39:02Z</time>
      </trkpt>
      <trkpt lat="49.47808" lon="6.36594">
        <ele>146.8</ele>
        <time>2020-06-26T15:39:03Z</time>
      </trkpt>
      <trkpt lat="49.47805" lon="6.36594">
        <ele>146.8</ele>
        <time>2020-06-26T15:39:04Z</time>
      </trkpt>
      <trkpt lat="49.478" lon="6.36594">
        <ele>146.9</ele>
        <time>2020-06-26T15:39:05Z</time>
      </trkpt>
      <trkpt lat="49.47794" lon="6.36595">
        <ele>146.9</ele>
        <time>2020-06-26T15:39:06Z</time>
      </trkpt>
      <trkpt lat="49.47789" lon="6.36595">
        <ele>147</ele>
        <time>2020-06-26T15:39:07Z</time>
      </trkpt>
      <trkpt lat="49.47784" lon="6.36596">
        <ele>147</ele>
        <time>2020-06-26T15:39:08Z</time>
      </trkpt>
      <trkpt lat="49.47779" lon="6.36596">
        <ele>147.1</ele>
        <time>2020-06-26T15:39:09Z</time>
      </trkpt>
      <trkpt lat="49.47774" lon="6.36595">
        <ele>147.1</ele>
        <time>2020-06-26T15:39:10Z</time>
      </trkpt>
      <trkpt lat="49.4777" lon="6.36594">
        <ele>147.1</ele>
        <time>2020-06-26T15:39:11Z</time>
      </trkpt>
      <trkpt lat="49.47766" lon="6.36594">
        <ele>147.2</ele>
        <time>2020-06-26T15:39:12Z</time>
      </trkpt>
      <trkpt lat="49.47761" lon="6.36593">
        <ele>147.2</ele>
        <time>2020-06-26T15:39:13Z</time>
      </trkpt>
      <trkpt lat="49.47755" lon="6.36593">
        <ele>147.2</ele>
        <time>2020-06-26T15:39:14Z</time>
      </trkpt>
      <trkpt lat="49.4775" lon="6.36593">
        <ele>147.3</ele>
        <time>2020-06-26T15:39:15Z</time>
      </trkpt>
      <trkpt lat="49.47744" lon="6.36593">
        <ele>147.3</ele>
        <time>2020-06-26T15:39:16Z</time>
      </trkpt>
      <trkpt lat="49.4774" lon="6.36595">
        <ele>147.2</ele>
        <time>2020-06-26T15:39:17Z</time>
      </trkpt>
      <trkpt lat="49.47735" lon="6.36595">
        <ele>147.2</ele>
        <time>2020-06-26T15:39:18Z</time>
      </trkpt>
      <trkpt lat="49.47731" lon="6.36596">
        <ele>147.2</ele>
        <time>2020-06-26T15:39:19Z</time>
      </trkpt>
      <trkpt lat="49.47726" lon="6.36596">
        <ele>147.1</ele>
        <time>2020-06-26T15:39:20Z</time>
      </trkpt>
      <trkpt lat="49.47721" lon="6.36598">
        <ele>147.1</ele>
        <time>2020-06-26T15:39:21Z</time>
      </trkpt>
      <trkpt lat="49.47716" lon="6.366">
        <ele>147.1</ele>
        <time>2020-06-26T15:39:22Z</time>
      </trkpt>
      <trkpt lat="49.47711" lon="6.36601">
        <ele>147.1</ele>
        <time>2020-06-26T15:39:23Z</time>
      </trkpt>
      <trkpt lat="49.47707" lon="6.36601">
        <ele>147.1</ele>
        <time>2020-06-26T15:39:24Z</time>
      </trkpt>
      <trkpt lat="49.47702" lon="6.36601">
        <ele>147</ele>
        <time>2020-06-26T15:39:25Z</time>
      </trkpt>
      <trkpt lat="49.47698" lon="6.36602">
        <ele>147</ele>
        <time>2020-06-26T15:39:26Z</time>
      </trkpt>
      <trkpt lat="49.47693" lon="6.36602">
        <ele>147</ele>
        <time>2020-06-26T15:39:27Z</time>
      </trkpt>
      <trkpt lat="49.47688" lon="6.36603">
        <ele>147</ele>
        <time>2020-06-26T15:39:28Z</time>
      </trkpt>
      <trkpt lat="49.47684" lon="6.36603">
        <ele>147.1</ele>
        <time>2020-06-26T15:39:29Z</time>
      </trkpt>
      <trkpt lat="49.47679" lon="6.36605">
        <ele>147.1</ele>
        <time>2020-06-26T15:39:30Z</time>
      </trkpt>
      <trkpt lat="49.47674" lon="6.36605">
        <ele>147.1</ele>
        <time>2020-06-26T15:39:31Z</time>
      </trkpt>
      <trkpt lat="49.47669" lon="6.36606">
        <ele>147.1</ele>
        <time>2020-06-26T15:39:32Z</time>
      </trkpt>
      <trkpt lat="49.47664" lon="6.36607">
        <ele>147.1</ele>
        <time>2020-06-26T15:39:33Z</time>
      </trkpt>
      <trkpt lat="49.4766" lon="6.36608">
        <ele>147.1</ele>
        <time>2020-06-26T15:39:34Z</time>
      </trkpt>
      <trkpt lat="49.47654" lon="6.36609">
        <ele>147.1</ele>
        <time>2020-06-26T15:39:35Z</time>
      </trkpt>
      <trkpt lat="49.4765" lon="6.36608">
        <ele>147.1</ele>
        <time>2020-06-26T15:39:36Z</time>
      </trkpt>
      <trkpt lat="49.47645" lon="6.36608">
        <ele>147.2</ele>
        <time>2020-06-26T15:39:37Z</time>
      </trkpt>
      <trkpt lat="49.47641" lon="6.36608">
        <ele>147.2</ele>
        <time>2020-06-26T15:39:38Z</time>
      </trkpt>
      <trkpt lat="49.47636" lon="6.36608">
        <ele>147.2</ele>
        <time>2020-06-26T15:39:39Z</time>
      </trkpt>
      <trkpt lat="49.4763" lon="6.36609">
        <ele>147.3</ele>
        <time>2020-06-26T15:39:40Z</time>
      </trkpt>
      <trkpt lat="49.47624" lon="6.3661">
        <ele>147.3</ele>
        <time>2020-06-26T15:39:41Z</time>
      </trkpt>
      <trkpt lat="49.47618" lon="6.3661">
        <ele>147.4</ele>
        <time>2020-06-26T15:39:42Z</time>
      </trkpt>
      <trkpt lat="49.47612" lon="6.3661">
        <ele>147.5</ele>
        <time>2020-06-26T15:39:43Z</time>
      </trkpt>
      <trkpt lat="49.47607" lon="6.36609">
        <ele>147.6</ele>
        <time>2020-06-26T15:39:44Z</time>
      </trkpt>
      <trkpt lat="49.47602" lon="6.36608">
        <ele>147.7</ele>
        <time>2020-06-26T15:39:45Z</time>
      </trkpt>
      <trkpt lat="49.47599" lon="6.36608">
        <ele>148</ele>
        <time>2020-06-26T15:39:46Z</time>
      </trkpt>
      <trkpt lat="49.47595" lon="6.36607">
        <ele>148</ele>
        <time>2020-06-26T15:39:47Z</time>
      </trkpt>
      <trkpt lat="49.47593" lon="6.36607">
        <ele>148</ele>
        <time>2020-06-26T15:39:48Z</time>
      </trkpt>
      <trkpt lat="49.4759" lon="6.36605">
        <ele>148</ele>
        <time>2020-06-26T15:39:49Z</time>
      </trkpt>
      <trkpt lat="49.47587" lon="6.36603">
        <ele>148</ele>
        <time>2020-06-26T15:39:50Z</time>
      </trkpt>
      <trkpt lat="49.47584" lon="6.36601">
        <ele>148</ele>
        <time>2020-06-26T15:39:51Z</time>
      </trkpt>
      <trkpt lat="49.47581" lon="6.366">
        <ele>148</ele>
        <time>2020-06-26T15:39:52Z</time>
      </trkpt>
      <trkpt lat="49.47577" lon="6.36599">
        <ele>147.8</ele>
        <time>2020-06-26T15:39:53Z</time>
      </trkpt>
      <trkpt lat="49.47572" lon="6.366">
        <ele>147.7</ele>
        <time>2020-06-26T15:39:54Z</time>
      </trkpt>
      <trkpt lat="49.47567" lon="6.366">
        <ele>147.7</ele>
        <time>2020-06-26T15:39:55Z</time>
      </trkpt>
      <trkpt lat="49.47563" lon="6.36601">
        <ele>147.7</ele>
        <time>2020-06-26T15:39:56Z</time>
      </trkpt>
      <trkpt lat="49.47558" lon="6.36601">
        <ele>147.6</ele>
        <time>2020-06-26T15:39:57Z</time>
      </trkpt>
      <trkpt lat="49.47553" lon="6.366">
        <ele>147.6</ele>
        <time>2020-06-26T15:39:58Z</time>
      </trkpt>
      <trkpt lat="49.47548" lon="6.36599">
        <ele>147.6</ele>
        <time>2020-06-26T15:39:59Z</time>
      </trkpt>
      <trkpt lat="49.47544" lon="6.36599">
        <ele>147.5</ele>
        <time>2020-06-26T15:40:00Z</time>
      </trkpt>
      <trkpt lat="49.4754" lon="6.36599">
        <ele>147.6</ele>
        <time>2020-06-26T15:40:01Z</time>
      </trkpt>
      <trkpt lat="49.47536" lon="6.36599">
        <ele>147.6</ele>
        <time>2020-06-26T15:40:02Z</time>
      </trkpt>
      <trkpt lat="49.47531" lon="6.36599">
        <ele>147.6</ele>
        <time>2020-06-26T15:40:03Z</time>
      </trkpt>
      <trkpt lat="49.47526" lon="6.36599">
        <ele>147.6</ele>
        <time>2020-06-26T15:40:04Z</time>
      </trkpt>
      <trkpt lat="49.47522" lon="6.366">
        <ele>147.6</ele>
        <time>2020-06-26T15:40:05Z</time>
      </trkpt>
      <trkpt lat="49.47517" lon="6.36601">
        <ele>147.6</ele>
        <time>2020-06-26T15:40:06Z</time>
      </trkpt>
      <trkpt lat="49.47513" lon="6.36602">
        <ele>147.5</ele>
        <time>2020-06-26T15:40:07Z</time>
      </trkpt>
      <trkpt lat="49.47508" lon="6.36604">
        <ele>147.5</ele>
        <time>2020-06-26T15:40:08Z</time>
      </trkpt>
      <trkpt lat="49.47503" lon="6.36606">
        <ele>147.4</ele>
        <time>2020-06-26T15:40:09Z</time>
      </trkpt>
      <trkpt lat="49.47499" lon="6.36607">
        <ele>147.4</ele>
        <time>2020-06-26T15:40:10Z</time>
      </trkpt>
      <trkpt lat="49.47494" lon="6.36607">
        <ele>147.3</ele>
        <time>2020-06-26T15:40:11Z</time>
      </trkpt>
      <trkpt lat="49.47489" lon="6.36609">
        <ele>147.2</ele>
        <time>2020-06-26T15:40:12Z</time>
      </trkpt>
      <trkpt lat="49.47484" lon="6.36611">
        <ele>147.1</ele>
        <time>2020-06-26T15:40:13Z</time>
      </trkpt>
      <trkpt lat="49.47478" lon="6.36612">
        <ele>147.1</ele>
        <time>2020-06-26T15:40:14Z</time>
      </trkpt>
      <trkpt lat="49.47472" lon="6.36613">
        <ele>147</ele>
        <time>2020-06-26T15:40:15Z</time>
      </trkpt>
      <trkpt lat="49.47467" lon="6.36613">
        <ele>146.9</ele>
        <time>2020-06-26T15:40:16Z</time>
      </trkpt>
      <trkpt lat="49.47462" lon="6.36614">
        <ele>146.8</ele>
        <time>2020-06-26T15:40:17Z</time>
      </trkpt>
      <trkpt lat="49.47455" lon="6.36614">
        <ele>146.8</ele>
        <time>2020-06-26T15:40:18Z</time>
      </trkpt>
      <trkpt lat="49.47449" lon="6.36614">
        <ele>146.8</ele>
        <time>2020-06-26T15:40:19Z</time>
      </trkpt>
      <trkpt lat="49.47444" lon="6.36615">
        <ele>146.7</ele>
        <time>2020-06-26T15:40:20Z</time>
      </trkpt>
      <trkpt lat="49.4744" lon="6.36616">
        <ele>146.7</ele>
        <time>2020-06-26T15:40:21Z</time>
      </trkpt>
      <trkpt lat="49.47435" lon="6.36615">
        <ele>146.7</ele>
        <time>2020-06-26T15:40:22Z</time>
      </trkpt>
      <trkpt lat="49.47429" lon="6.36616">
        <ele>146.7</ele>
        <time>2020-06-26T15:40:23Z</time>
      </trkpt>
      <trkpt lat="49.47424" lon="6.36616">
        <ele>146.7</ele>
        <time>2020-06-26T15:40:24Z</time>
      </trkpt>
      <trkpt lat="49.47419" lon="6.36617">
        <ele>146.7</ele>
        <time>2020-06-26T15:40:25Z</time>
      </trkpt>
      <trkpt lat="49.47414" lon="6.36617">
        <ele>146.8</ele>
        <time>2020-06-26T15:40:26Z</time>
      </trkpt>
      <trkpt lat="49.47409" lon="6.36617">
        <ele>146.8</ele>
        <time>2020-06-26T15:40:27Z</time>
      </trkpt>
      <trkpt lat="49.47404" lon="6.36615">
        <ele>146.8</ele>
        <time>2020-06-26T15:40:28Z</time>
      </trkpt>
      <trkpt lat="49.47398" lon="6.36614">
        <ele>146.8</ele>
        <time>2020-06-26T15:40:29Z</time>
      </trkpt>
      <trkpt lat="49.47392" lon="6.36613">
        <ele>146.8</ele>
        <time>2020-06-26T15:40:30Z</time>
      </trkpt>
      <trkpt lat="49.47386" lon="6.36612">
        <ele>146.9</ele>
        <time>2020-06-26T15:40:31Z</time>
      </trkpt>
      <trkpt lat="49.47381" lon="6.3661">
        <ele>146.9</ele>
        <time>2020-06-26T15:40:32Z</time>
      </trkpt>
      <trkpt lat="49.47376" lon="6.36608">
        <ele>146.9</ele>
        <time>2020-06-26T15:40:33Z</time>
      </trkpt>
      <trkpt lat="49.47371" lon="6.36606">
        <ele>147</ele>
        <time>2020-06-26T15:40:34Z</time>
      </trkpt>
      <trkpt lat="49.47366" lon="6.36604">
        <ele>147</ele>
        <time>2020-06-26T15:40:35Z</time>
      </trkpt>
      <trkpt lat="49.4736" lon="6.36603">
        <ele>147</ele>
        <time>2020-06-26T15:40:36Z</time>
      </trkpt>
      <trkpt lat="49.47355" lon="6.36601">
        <ele>147.1</ele>
        <time>2020-06-26T15:40:37Z</time>
      </trkpt>
      <trkpt lat="49.4735" lon="6.366">
        <ele>147.1</ele>
        <time>2020-06-26T15:40:38Z</time>
      </trkpt>
      <trkpt lat="49.47346" lon="6.36599">
        <ele>147.1</ele>
        <time>2020-06-26T15:40:39Z</time>
      </trkpt>
      <trkpt lat="49.47342" lon="6.36598">
        <ele>147.2</ele>
        <time>2020-06-26T15:40:40Z</time>
      </trkpt>
      <trkpt lat="49.47337" lon="6.36598">
        <ele>147.2</ele>
        <time>2020-06-26T15:40:41Z</time>
      </trkpt>
      <trkpt lat="49.47333" lon="6.36596">
        <ele>147.2</ele>
        <time>2020-06-26T15:40:42Z</time>
      </trkpt>
      <trkpt lat="49.47329" lon="6.36595">
        <ele>147.3</ele>
        <time>2020-06-26T15:40:43Z</time>
      </trkpt>
      <trkpt lat="49.47324" lon="6.36594">
        <ele>147.3</ele>
        <time>2020-06-26T15:40:44Z</time>
      </trkpt>
      <trkpt lat="49.47319" lon="6.36592">
        <ele>147.3</ele>
        <time>2020-06-26T15:40:45Z</time>
      </trkpt>
      <trkpt lat="49.47314" lon="6.3659">
        <ele>147.3</ele>
        <time>2020-06-26T15:40:46Z</time>
      </trkpt>
      <trkpt lat="49.47309" lon="6.36588">
        <ele>147.4</ele>
        <time>2020-06-26T15:40:47Z</time>
      </trkpt>
      <trkpt lat="49.47304" lon="6.36586">
        <ele>147.4</ele>
        <time>2020-06-26T15:40:48Z</time>
      </trkpt>
      <trkpt lat="49.47299" lon="6.36585">
        <ele>147.4</ele>
        <time>2020-06-26T15:40:49Z</time>
      </trkpt>
      <trkpt lat="49.47292" lon="6.36582">
        <ele>147.4</ele>
        <time>2020-06-26T15:40:50Z</time>
      </trkpt>
      <trkpt lat="49.47287" lon="6.3658">
        <ele>147.4</ele>
        <time>2020-06-26T15:40:51Z</time>
      </trkpt>
      <trkpt lat="49.47281" lon="6.36579">
        <ele>147.3</ele>
        <time>2020-06-26T15:40:52Z</time>
      </trkpt>
      <trkpt lat="49.47276" lon="6.36579">
        <ele>147.3</ele>
        <time>2020-06-26T15:40:53Z</time>
      </trkpt>
      <trkpt lat="49.4727" lon="6.36577">
        <ele>147.2</ele>
        <time>2020-06-26T15:40:54Z</time>
      </trkpt>
      <trkpt lat="49.47265" lon="6.36577">
        <ele>147.1</ele>
        <time>2020-06-26T15:40:55Z</time>
      </trkpt>
      <trkpt lat="49.47259" lon="6.36576">
        <ele>147</ele>
        <time>2020-06-26T15:40:56Z</time>
      </trkpt>
      <trkpt lat="49.47254" lon="6.36574">
        <ele>147</ele>
        <time>2020-06-26T15:40:57Z</time>
      </trkpt>
      <trkpt lat="49.47249" lon="6.36571">
        <ele>146.9</ele>
        <time>2020-06-26T15:40:58Z</time>
      </trkpt>
      <trkpt lat="49.47244" lon="6.3657">
        <ele>146.9</ele>
        <time>2020-06-26T15:40:59Z</time>
      </trkpt>
      <trkpt lat="49.47239" lon="6.36568">
        <ele>146.8</ele>
        <time>2020-06-26T15:41:00Z</time>
      </trkpt>
      <trkpt lat="49.47234" lon="6.36567">
        <ele>146.8</ele>
        <time>2020-06-26T15:41:01Z</time>
      </trkpt>
      <trkpt lat="49.47228" lon="6.36565">
        <ele>146.8</ele>
        <time>2020-06-26T15:41:02Z</time>
      </trkpt>
      <trkpt lat="49.47223" lon="6.36564">
        <ele>146.8</ele>
        <time>2020-06-26T15:41:03Z</time>
      </trkpt>
      <trkpt lat="49.47218" lon="6.36563">
        <ele>146.8</ele>
        <time>2020-06-26T15:41:04Z</time>
      </trkpt>
      <trkpt lat="49.47213" lon="6.36563">
        <ele>146.9</ele>
        <time>2020-06-26T15:41:05Z</time>
      </trkpt>
      <trkpt lat="49.47209" lon="6.36563">
        <ele>147</ele>
        <time>2020-06-26T15:41:06Z</time>
      </trkpt>
      <trkpt lat="49.47204" lon="6.36563">
        <ele>147</ele>
        <time>2020-06-26T15:41:07Z</time>
      </trkpt>
      <trkpt lat="49.472" lon="6.36562">
        <ele>147.1</ele>
        <time>2020-06-26T15:41:08Z</time>
      </trkpt>
      <trkpt lat="49.47196" lon="6.36562">
        <ele>147.1</ele>
        <time>2020-06-26T15:41:09Z</time>
      </trkpt>
      <trkpt lat="49.47192" lon="6.36562">
        <ele>147.2</ele>
        <time>2020-06-26T15:41:10Z</time>
      </trkpt>
      <trkpt lat="49.47188" lon="6.36563">
        <ele>147.3</ele>
        <time>2020-06-26T15:41:11Z</time>
      </trkpt>
      <trkpt lat="49.47187" lon="6.36563">
        <ele>147.3</ele>
        <time>2020-06-26T15:41:12Z</time>
      </trkpt>
      <trkpt lat="49.47185" lon="6.36564">
        <ele>147.4</ele>
        <time>2020-06-26T15:41:13Z</time>
      </trkpt>
      <trkpt lat="49.47185" lon="6.36565">
        <ele>147.4</ele>
        <time>2020-06-26T15:41:14Z</time>
      </trkpt>
      <trkpt lat="49.47184" lon="6.36565">
        <ele>147.4</ele>
        <time>2020-06-26T15:41:15Z</time>
      </trkpt>
      <trkpt lat="49.47183" lon="6.36567">
        <ele>147.5</ele>
        <time>2020-06-26T15:41:16Z</time>
      </trkpt>
      <trkpt lat="49.47182" lon="6.36569">
        <ele>147.5</ele>
        <time>2020-06-26T15:41:17Z</time>
      </trkpt>
      <trkpt lat="49.47181" lon="6.36571">
        <ele>147.5</ele>
        <time>2020-06-26T15:41:18Z</time>
      </trkpt>
      <trkpt lat="49.47182" lon="6.36579">
        <ele>147.4</ele>
        <time>2020-06-26T15:41:19Z</time>
      </trkpt>
      <trkpt lat="49.47183" lon="6.36584">
        <ele>147.4</ele>
        <time>2020-06-26T15:41:20Z</time>
      </trkpt>
      <trkpt lat="49.47184" lon="6.36589">
        <ele>147.4</ele>
        <time>2020-06-26T15:41:21Z</time>
      </trkpt>
      <trkpt lat="49.47184" lon="6.36596">
        <ele>147.4</ele>
        <time>2020-06-26T15:41:22Z</time>
      </trkpt>
      <trkpt lat="49.47182" lon="6.36603">
        <ele>147.5</ele>
        <time>2020-06-26T15:41:23Z</time>
      </trkpt>
      <trkpt lat="49.47182" lon="6.36605">
        <ele>147.5</ele>
        <time>2020-06-26T15:41:24Z</time>
      </trkpt>
      <trkpt lat="49.47181" lon="6.36612">
        <ele>147.6</ele>
        <time>2020-06-26T15:41:25Z</time>
      </trkpt>
      <trkpt lat="49.47181" lon="6.36619">
        <ele>147.6</ele>
        <time>2020-06-26T15:41:26Z</time>
      </trkpt>
      <trkpt lat="49.47181" lon="6.36625">
        <ele>147.7</ele>
        <time>2020-06-26T15:41:27Z</time>
      </trkpt>
      <trkpt lat="49.47181" lon="6.3663">
        <ele>147.7</ele>
        <time>2020-06-26T15:41:28Z</time>
      </trkpt>
      <trkpt lat="49.47181" lon="6.36636">
        <ele>147.8</ele>
        <time>2020-06-26T15:41:29Z</time>
      </trkpt>
      <trkpt lat="49.47181" lon="6.3664">
        <ele>147.8</ele>
        <time>2020-06-26T15:41:30Z</time>
      </trkpt>
      <trkpt lat="49.4718" lon="6.36646">
        <ele>147.9</ele>
        <time>2020-06-26T15:41:31Z</time>
      </trkpt>
      <trkpt lat="49.4718" lon="6.36648">
        <ele>147.9</ele>
        <time>2020-06-26T15:41:32Z</time>
      </trkpt>
      <trkpt lat="49.47178" lon="6.36653">
        <ele>148.1</ele>
        <time>2020-06-26T15:41:33Z</time>
      </trkpt>
      <trkpt lat="49.47177" lon="6.36655">
        <ele>148.1</ele>
        <time>2020-06-26T15:41:34Z</time>
      </trkpt>
      <trkpt lat="49.47176" lon="6.3666">
        <ele>148.1</ele>
        <time>2020-06-26T15:41:35Z</time>
      </trkpt>
      <trkpt lat="49.47176" lon="6.36666">
        <ele>148.1</ele>
        <time>2020-06-26T15:41:36Z</time>
      </trkpt>
      <trkpt lat="49.47175" lon="6.36672">
        <ele>148.2</ele>
        <time>2020-06-26T15:41:37Z</time>
      </trkpt>
      <trkpt lat="49.47174" lon="6.36677">
        <ele>148.3</ele>
        <time>2020-06-26T15:41:38Z</time>
      </trkpt>
      <trkpt lat="49.47174" lon="6.36682">
        <ele>148.4</ele>
        <time>2020-06-26T15:41:39Z</time>
      </trkpt>
      <trkpt lat="49.47173" lon="6.36687">
        <ele>148.6</ele>
        <time>2020-06-26T15:41:40Z</time>
      </trkpt>
      <trkpt lat="49.47173" lon="6.36692">
        <ele>148.7</ele>
        <time>2020-06-26T15:41:41Z</time>
      </trkpt>
      <trkpt lat="49.47173" lon="6.36697">
        <ele>148.9</ele>
        <time>2020-06-26T15:41:42Z</time>
      </trkpt>
      <trkpt lat="49.47173" lon="6.36702">
        <ele>149</ele>
        <time>2020-06-26T15:41:43Z</time>
      </trkpt>
      <trkpt lat="49.47173" lon="6.36707">
        <ele>149.2</ele>
        <time>2020-06-26T15:41:44Z</time>
      </trkpt>
      <trkpt lat="49.47172" lon="6.36711">
        <ele>149.3</ele>
        <time>2020-06-26T15:41:45Z</time>
      </trkpt>
      <trkpt lat="49.47171" lon="6.36716">
        <ele>149.5</ele>
        <time>2020-06-26T15:41:46Z</time>
      </trkpt>
      <trkpt lat="49.47171" lon="6.36722">
        <ele>149.7</ele>
        <time>2020-06-26T15:41:47Z</time>
      </trkpt>
      <trkpt lat="49.4717" lon="6.36727">
        <ele>149.9</ele>
        <time>2020-06-26T15:41:48Z</time>
      </trkpt>
      <trkpt lat="49.4717" lon="6.36733">
        <ele>150</ele>
        <time>2020-06-26T15:41:49Z</time>
      </trkpt>
      <trkpt lat="49.47169" lon="6.36739">
        <ele>150.3</ele>
        <time>2020-06-26T15:41:50Z</time>
      </trkpt>
      <trkpt lat="49.47169" lon="6.36741">
        <ele>150.3</ele>
        <time>2020-06-26T15:41:51Z</time>
      </trkpt>
      <trkpt lat="49.47168" lon="6.36745">
        <ele>150.5</ele>
        <time>2020-06-26T15:41:52Z</time>
      </trkpt>
      <trkpt lat="49.47168" lon="6.3675">
        <ele>150.6</ele>
        <time>2020-06-26T15:41:53Z</time>
      </trkpt>
      <trkpt lat="49.47168" lon="6.36754">
        <ele>150.8</ele>
        <time>2020-06-26T15:41:54Z</time>
      </trkpt>
      <trkpt lat="49.47167" lon="6.36759">
        <ele>150.9</ele>
        <time>2020-06-26T15:41:55Z</time>
      </trkpt>
      <trkpt lat="49.47167" lon="6.36764">
        <ele>151.1</ele>
        <time>2020-06-26T15:41:56Z</time>
      </trkpt>
      <trkpt lat="49.47166" lon="6.36768">
        <ele>151.3</ele>
        <time>2020-06-26T15:41:57Z</time>
      </trkpt>
      <trkpt lat="49.47166" lon="6.36774">
        <ele>151.5</ele>
        <time>2020-06-26T15:41:58Z</time>
      </trkpt>
      <trkpt lat="49.47166" lon="6.36775">
        <ele>151.5</ele>
        <time>2020-06-26T15:41:59Z</time>
      </trkpt>
      <trkpt lat="49.47165" lon="6.3678">
        <ele>151.6</ele>
        <time>2020-06-26T15:42:00Z</time>
      </trkpt>
      <trkpt lat="49.47164" lon="6.36781">
        <ele>151.7</ele>
        <time>2020-06-26T15:42:01Z</time>
      </trkpt>
      <trkpt lat="49.47163" lon="6.36783">
        <ele>151.8</ele>
        <time>2020-06-26T15:42:02Z</time>
      </trkpt>
      <trkpt lat="49.47163" lon="6.36785">
        <ele>151.8</ele>
        <time>2020-06-26T15:42:03Z</time>
      </trkpt>
      <trkpt lat="49.47163" lon="6.36787">
        <ele>151.9</ele>
        <time>2020-06-26T15:42:04Z</time>
      </trkpt>
      <trkpt lat="49.47163" lon="6.36788">
        <ele>151.9</ele>
        <time>2020-06-26T15:42:05Z</time>
      </trkpt>
      <trkpt lat="49.47163" lon="6.36789">
        <ele>152</ele>
        <time>2020-06-26T15:42:06Z</time>
      </trkpt>
      <trkpt lat="49.47164" lon="6.36791">
        <ele>152</ele>
        <time>2020-06-26T15:42:07Z</time>
      </trkpt>
      <trkpt lat="49.47164" lon="6.36792">
        <ele>152</ele>
        <time>2020-06-26T15:42:08Z</time>
      </trkpt>
      <trkpt lat="49.47164" lon="6.36792">
        <ele>152.1</ele>
        <time>2020-06-26T15:42:09Z</time>
      </trkpt>
      <trkpt lat="49.47164" lon="6.36793">
        <ele>152.1</ele>
        <time>2020-06-26T15:42:10Z</time>
      </trkpt>
      <trkpt lat="49.47164" lon="6.36794">
        <ele>152.1</ele>
        <time>2020-06-26T15:42:11Z</time>
      </trkpt>
      <trkpt lat="49.47164" lon="6.36794">
        <ele>152.1</ele>
        <time>2020-06-26T15:42:12Z</time>
      </trkpt>
      <trkpt lat="49.47164" lon="6.36795">
        <ele>152.2</ele>
        <time>2020-06-26T15:42:13Z</time>
      </trkpt>
      <trkpt lat="49.47164" lon="6.36796">
        <ele>152.2</ele>
        <time>2020-06-26T15:42:14Z</time>
      </trkpt>
      <trkpt lat="49.47164" lon="6.36797">
        <ele>152.2</ele>
        <time>2020-06-26T15:42:15Z</time>
      </trkpt>
      <trkpt lat="49.47165" lon="6.36797">
        <ele>152.2</ele>
        <time>2020-06-26T15:42:16Z</time>
      </trkpt>
      <trkpt lat="49.47165" lon="6.36798">
        <ele>152.3</ele>
        <time>2020-06-26T15:42:56Z</time>
      </trkpt>
      <trkpt lat="49.47165" lon="6.36799">
        <ele>152.3</ele>
        <time>2020-06-26T15:42:57Z</time>
      </trkpt>
      <trkpt lat="49.47164" lon="6.36805">
        <ele>152.5</ele>
        <time>2020-06-26T15:42:58Z</time>
      </trkpt>
      <trkpt lat="49.47164" lon="6.36808">
        <ele>152.6</ele>
        <time>2020-06-26T15:42:59Z</time>
      </trkpt>
      <trkpt lat="49.47164" lon="6.36815">
        <ele>152.8</ele>
        <time>2020-06-26T15:43:00Z</time>
      </trkpt>
      <trkpt lat="49.47162" lon="6.36819">
        <ele>152.9</ele>
        <time>2020-06-26T15:43:01Z</time>
      </trkpt>
      <trkpt lat="49.47161" lon="6.36826">
        <ele>153.3</ele>
        <time>2020-06-26T15:43:02Z</time>
      </trkpt>
      <trkpt lat="49.47161" lon="6.36832">
        <ele>153.4</ele>
        <time>2020-06-26T15:43:03Z</time>
      </trkpt>
      <trkpt lat="49.47161" lon="6.36838">
        <ele>153.5</ele>
        <time>2020-06-26T15:43:04Z</time>
      </trkpt>
      <trkpt lat="49.47161" lon="6.36843">
        <ele>153.6</ele>
        <time>2020-06-26T15:43:05Z</time>
      </trkpt>
      <trkpt lat="49.4716" lon="6.36849">
        <ele>153.7</ele>
        <time>2020-06-26T15:43:06Z</time>
      </trkpt>
      <trkpt lat="49.47159" lon="6.36855">
        <ele>153.8</ele>
        <time>2020-06-26T15:43:07Z</time>
      </trkpt>
      <trkpt lat="49.47159" lon="6.36859">
        <ele>153.9</ele>
        <time>2020-06-26T15:43:08Z</time>
      </trkpt>
      <trkpt lat="49.47159" lon="6.36865">
        <ele>154</ele>
        <time>2020-06-26T15:43:09Z</time>
      </trkpt>
      <trkpt lat="49.47158" lon="6.3687">
        <ele>154.1</ele>
        <time>2020-06-26T15:43:10Z</time>
      </trkpt>
      <trkpt lat="49.47158" lon="6.36874">
        <ele>154.2</ele>
        <time>2020-06-26T15:43:11Z</time>
      </trkpt>
      <trkpt lat="49.47157" lon="6.36879">
        <ele>154.2</ele>
        <time>2020-06-26T15:43:12Z</time>
      </trkpt>
      <trkpt lat="49.47156" lon="6.36884">
        <ele>154.3</ele>
        <time>2020-06-26T15:43:13Z</time>
      </trkpt>
      <trkpt lat="49.47155" lon="6.36889">
        <ele>154.4</ele>
        <time>2020-06-26T15:43:14Z</time>
      </trkpt>
      <trkpt lat="49.47155" lon="6.36896">
        <ele>154.4</ele>
        <time>2020-06-26T15:43:15Z</time>
      </trkpt>
      <trkpt lat="49.47154" lon="6.36902">
        <ele>154.5</ele>
        <time>2020-06-26T15:43:16Z</time>
      </trkpt>
      <trkpt lat="49.47153" lon="6.36908">
        <ele>154.5</ele>
        <time>2020-06-26T15:43:17Z</time>
      </trkpt>
      <trkpt lat="49.47152" lon="6.36913">
        <ele>154.5</ele>
        <time>2020-06-26T15:43:18Z</time>
      </trkpt>
      <trkpt lat="49.47151" lon="6.36919">
        <ele>154.6</ele>
        <time>2020-06-26T15:43:19Z</time>
      </trkpt>
      <trkpt lat="49.47151" lon="6.36925">
        <ele>154.6</ele>
        <time>2020-06-26T15:43:20Z</time>
      </trkpt>
      <trkpt lat="49.47151" lon="6.36932">
        <ele>154.6</ele>
        <time>2020-06-26T15:43:21Z</time>
      </trkpt>
      <trkpt lat="49.4715" lon="6.36938">
        <ele>154.6</ele>
        <time>2020-06-26T15:43:22Z</time>
      </trkpt>
      <trkpt lat="49.47148" lon="6.36944">
        <ele>154.6</ele>
        <time>2020-06-26T15:43:23Z</time>
      </trkpt>
      <trkpt lat="49.47147" lon="6.36951">
        <ele>154.7</ele>
        <time>2020-06-26T15:43:24Z</time>
      </trkpt>
      <trkpt lat="49.47146" lon="6.36958">
        <ele>154.7</ele>
        <time>2020-06-26T15:43:25Z</time>
      </trkpt>
      <trkpt lat="49.47146" lon="6.36965">
        <ele>154.7</ele>
        <time>2020-06-26T15:43:26Z</time>
      </trkpt>
      <trkpt lat="49.47146" lon="6.3697">
        <ele>154.7</ele>
        <time>2020-06-26T15:43:27Z</time>
      </trkpt>
      <trkpt lat="49.47145" lon="6.36977">
        <ele>154.7</ele>
        <time>2020-06-26T15:43:28Z</time>
      </trkpt>
      <trkpt lat="49.47145" lon="6.36985">
        <ele>154.8</ele>
        <time>2020-06-26T15:43:29Z</time>
      </trkpt>
      <trkpt lat="49.47145" lon="6.36992">
        <ele>154.8</ele>
        <time>2020-06-26T15:43:30Z</time>
      </trkpt>
      <trkpt lat="49.47145" lon="6.36999">
        <ele>154.9</ele>
        <time>2020-06-26T15:43:31Z</time>
      </trkpt>
      <trkpt lat="49.47145" lon="6.37004">
        <ele>154.9</ele>
        <time>2020-06-26T15:43:32Z</time>
      </trkpt>
      <trkpt lat="49.47144" lon="6.3701">
        <ele>155</ele>
        <time>2020-06-26T15:43:33Z</time>
      </trkpt>
      <trkpt lat="49.47144" lon="6.37015">
        <ele>155</ele>
        <time>2020-06-26T15:43:34Z</time>
      </trkpt>
      <trkpt lat="49.47143" lon="6.37021">
        <ele>155</ele>
        <time>2020-06-26T15:43:35Z</time>
      </trkpt>
      <trkpt lat="49.47143" lon="6.37027">
        <ele>155</ele>
        <time>2020-06-26T15:43:36Z</time>
      </trkpt>
      <trkpt lat="49.47142" lon="6.37034">
        <ele>155</ele>
        <time>2020-06-26T15:43:37Z</time>
      </trkpt>
      <trkpt lat="49.47142" lon="6.3704">
        <ele>155</ele>
        <time>2020-06-26T15:43:38Z</time>
      </trkpt>
      <trkpt lat="49.47141" lon="6.37047">
        <ele>155</ele>
        <time>2020-06-26T15:43:39Z</time>
      </trkpt>
      <trkpt lat="49.4714" lon="6.37054">
        <ele>155.1</ele>
        <time>2020-06-26T15:43:40Z</time>
      </trkpt>
      <trkpt lat="49.4714" lon="6.37061">
        <ele>155.1</ele>
        <time>2020-06-26T15:43:41Z</time>
      </trkpt>
      <trkpt lat="49.47139" lon="6.37067">
        <ele>155.2</ele>
        <time>2020-06-26T15:43:42Z</time>
      </trkpt>
      <trkpt lat="49.47139" lon="6.37074">
        <ele>155.3</ele>
        <time>2020-06-26T15:43:43Z</time>
      </trkpt>
      <trkpt lat="49.47138" lon="6.37082">
        <ele>155.3</ele>
        <time>2020-06-26T15:43:44Z</time>
      </trkpt>
      <trkpt lat="49.47137" lon="6.3709">
        <ele>155.4</ele>
        <time>2020-06-26T15:43:45Z</time>
      </trkpt>
      <trkpt lat="49.47136" lon="6.371">
        <ele>155.4</ele>
        <time>2020-06-26T15:43:46Z</time>
      </trkpt>
      <trkpt lat="49.47135" lon="6.37109">
        <ele>155.5</ele>
        <time>2020-06-26T15:43:47Z</time>
      </trkpt>
      <trkpt lat="49.47134" lon="6.37117">
        <ele>155.5</ele>
        <time>2020-06-26T15:43:48Z</time>
      </trkpt>
      <trkpt lat="49.47133" lon="6.37124">
        <ele>155.6</ele>
        <time>2020-06-26T15:43:49Z</time>
      </trkpt>
      <trkpt lat="49.47132" lon="6.3713">
        <ele>155.6</ele>
        <time>2020-06-26T15:43:50Z</time>
      </trkpt>
      <trkpt lat="49.47131" lon="6.37137">
        <ele>155.7</ele>
        <time>2020-06-26T15:43:51Z</time>
      </trkpt>
      <trkpt lat="49.47131" lon="6.37144">
        <ele>155.7</ele>
        <time>2020-06-26T15:43:52Z</time>
      </trkpt>
      <trkpt lat="49.47131" lon="6.37151">
        <ele>155.8</ele>
        <time>2020-06-26T15:43:53Z</time>
      </trkpt>
      <trkpt lat="49.4713" lon="6.37158">
        <ele>155.9</ele>
        <time>2020-06-26T15:43:54Z</time>
      </trkpt>
      <trkpt lat="49.47129" lon="6.37167">
        <ele>156</ele>
        <time>2020-06-26T15:43:55Z</time>
      </trkpt>
      <trkpt lat="49.47129" lon="6.37175">
        <ele>156.1</ele>
        <time>2020-06-26T15:43:56Z</time>
      </trkpt>
      <trkpt lat="49.47128" lon="6.3718">
        <ele>156.2</ele>
        <time>2020-06-26T15:43:57Z</time>
      </trkpt>
      <trkpt lat="49.47127" lon="6.37187">
        <ele>156.3</ele>
        <time>2020-06-26T15:43:58Z</time>
      </trkpt>
      <trkpt lat="49.47126" lon="6.37194">
        <ele>156.4</ele>
        <time>2020-06-26T15:43:59Z</time>
      </trkpt>
      <trkpt lat="49.47126" lon="6.37201">
        <ele>156.5</ele>
        <time>2020-06-26T15:44:00Z</time>
      </trkpt>
      <trkpt lat="49.47125" lon="6.37207">
        <ele>156.7</ele>
        <time>2020-06-26T15:44:01Z</time>
      </trkpt>
      <trkpt lat="49.47124" lon="6.37214">
        <ele>156.8</ele>
        <time>2020-06-26T15:44:02Z</time>
      </trkpt>
      <trkpt lat="49.47123" lon="6.37218">
        <ele>156.9</ele>
        <time>2020-06-26T15:44:03Z</time>
      </trkpt>
      <trkpt lat="49.47121" lon="6.37223">
        <ele>157</ele>
        <time>2020-06-26T15:44:04Z</time>
      </trkpt>
      <trkpt lat="49.47119" lon="6.37228">
        <ele>157.1</ele>
        <time>2020-06-26T15:44:05Z</time>
      </trkpt>
      <trkpt lat="49.47118" lon="6.37234">
        <ele>157.1</ele>
        <time>2020-06-26T15:44:06Z</time>
      </trkpt>
      <trkpt lat="49.47118" lon="6.37242">
        <ele>157.4</ele>
        <time>2020-06-26T15:44:07Z</time>
      </trkpt>
      <trkpt lat="49.4712" lon="6.37248">
        <ele>157.5</ele>
        <time>2020-06-26T15:44:08Z</time>
      </trkpt>
      <trkpt lat="49.47122" lon="6.37252">
        <ele>157.5</ele>
        <time>2020-06-26T15:44:09Z</time>
      </trkpt>
      <trkpt lat="49.47125" lon="6.37255">
        <ele>157.6</ele>
        <time>2020-06-26T15:44:10Z</time>
      </trkpt>
      <trkpt lat="49.47128" lon="6.37258">
        <ele>157.6</ele>
        <time>2020-06-26T15:44:11Z</time>
      </trkpt>
      <trkpt lat="49.47132" lon="6.37259">
        <ele>157.7</ele>
        <time>2020-06-26T15:44:12Z</time>
      </trkpt>
      <trkpt lat="49.47135" lon="6.37256">
        <ele>157.7</ele>
        <time>2020-06-26T15:44:13Z</time>
      </trkpt>
      <trkpt lat="49.47139" lon="6.37252">
        <ele>157.7</ele>
        <time>2020-06-26T15:44:14Z</time>
      </trkpt>
      <trkpt lat="49.47142" lon="6.37251">
        <ele>157.9</ele>
        <time>2020-06-26T15:44:15Z</time>
      </trkpt>
      <trkpt lat="49.47146" lon="6.37249">
        <ele>157.8</ele>
        <time>2020-06-26T15:44:16Z</time>
      </trkpt>
      <trkpt lat="49.47151" lon="6.3725">
        <ele>157.8</ele>
        <time>2020-06-26T15:44:17Z</time>
      </trkpt>
      <trkpt lat="49.47155" lon="6.3725">
        <ele>157.7</ele>
        <time>2020-06-26T15:44:18Z</time>
      </trkpt>
      <trkpt lat="49.4716" lon="6.37251">
        <ele>157.7</ele>
        <time>2020-06-26T15:44:19Z</time>
      </trkpt>
      <trkpt lat="49.47165" lon="6.37253">
        <ele>157.6</ele>
        <time>2020-06-26T15:44:20Z</time>
      </trkpt>
      <trkpt lat="49.4717" lon="6.37254">
        <ele>157.6</ele>
        <time>2020-06-26T15:44:21Z</time>
      </trkpt>
      <trkpt lat="49.47175" lon="6.37254">
        <ele>157.6</ele>
        <time>2020-06-26T15:44:22Z</time>
      </trkpt>
      <trkpt lat="49.4718" lon="6.37255">
        <ele>157.6</ele>
        <time>2020-06-26T15:44:23Z</time>
      </trkpt>
      <trkpt lat="49.47185" lon="6.37255">
        <ele>157.6</ele>
        <time>2020-06-26T15:44:24Z</time>
      </trkpt>
      <trkpt lat="49.47189" lon="6.37256">
        <ele>157.7</ele>
        <time>2020-06-26T15:44:25Z</time>
      </trkpt>
      <trkpt lat="49.47194" lon="6.37256">
        <ele>157.7</ele>
        <time>2020-06-26T15:44:26Z</time>
      </trkpt>
      <trkpt lat="49.47199" lon="6.37256">
        <ele>157.8</ele>
        <time>2020-06-26T15:44:27Z</time>
      </trkpt>
      <trkpt lat="49.47203" lon="6.37257">
        <ele>157.8</ele>
        <time>2020-06-26T15:44:28Z</time>
      </trkpt>
      <trkpt lat="49.47208" lon="6.37258">
        <ele>157.9</ele>
        <time>2020-06-26T15:44:29Z</time>
      </trkpt>
      <trkpt lat="49.47212" lon="6.37259">
        <ele>157.9</ele>
        <time>2020-06-26T15:44:30Z</time>
      </trkpt>
      <trkpt lat="49.47215" lon="6.37259">
        <ele>157.9</ele>
        <time>2020-06-26T15:44:31Z</time>
      </trkpt>
      <trkpt lat="49.47219" lon="6.37259">
        <ele>158</ele>
        <time>2020-06-26T15:44:32Z</time>
      </trkpt>
      <trkpt lat="49.47223" lon="6.37261">
        <ele>158</ele>
        <time>2020-06-26T15:44:33Z</time>
      </trkpt>
      <trkpt lat="49.47227" lon="6.37264">
        <ele>158.8</ele>
        <time>2020-06-26T15:44:34Z</time>
      </trkpt>
      <trkpt lat="49.47229" lon="6.37269">
        <ele>159.1</ele>
        <time>2020-06-26T15:44:35Z</time>
      </trkpt>
      <trkpt lat="49.47231" lon="6.37274">
        <ele>159.4</ele>
        <time>2020-06-26T15:44:36Z</time>
      </trkpt>
      <trkpt lat="49.47233" lon="6.37278">
        <ele>159.6</ele>
        <time>2020-06-26T15:44:37Z</time>
      </trkpt>
      <trkpt lat="49.47234" lon="6.37282">
        <ele>159.9</ele>
        <time>2020-06-26T15:44:38Z</time>
      </trkpt>
      <trkpt lat="49.47236" lon="6.37286">
        <ele>160.1</ele>
        <time>2020-06-26T15:44:39Z</time>
      </trkpt>
      <trkpt lat="49.47238" lon="6.37291">
        <ele>160.4</ele>
        <time>2020-06-26T15:44:40Z</time>
      </trkpt>
      <trkpt lat="49.4724" lon="6.37296">
        <ele>160.7</ele>
        <time>2020-06-26T15:44:41Z</time>
      </trkpt>
      <trkpt lat="49.47241" lon="6.373">
        <ele>161</ele>
        <time>2020-06-26T15:44:42Z</time>
      </trkpt>
      <trkpt lat="49.47243" lon="6.37305">
        <ele>161.3</ele>
        <time>2020-06-26T15:44:43Z</time>
      </trkpt>
      <trkpt lat="49.47244" lon="6.37306">
        <ele>161.4</ele>
        <time>2020-06-26T15:44:44Z</time>
      </trkpt>
      <trkpt lat="49.47244" lon="6.37311">
        <ele>161.7</ele>
        <time>2020-06-26T15:44:45Z</time>
      </trkpt>
      <trkpt lat="49.47244" lon="6.37312">
        <ele>161.8</ele>
        <time>2020-06-26T15:44:46Z</time>
      </trkpt>
      <trkpt lat="49.47245" lon="6.37318">
        <ele>162.1</ele>
        <time>2020-06-26T15:44:47Z</time>
      </trkpt>
      <trkpt lat="49.47245" lon="6.3732">
        <ele>162.3</ele>
        <time>2020-06-26T15:44:48Z</time>
      </trkpt>
      <trkpt lat="49.47247" lon="6.37324">
        <ele>162.5</ele>
        <time>2020-06-26T15:44:49Z</time>
      </trkpt>
      <trkpt lat="49.47247" lon="6.37325">
        <ele>162.6</ele>
        <time>2020-06-26T15:44:50Z</time>
      </trkpt>
      <trkpt lat="49.47249" lon="6.37329">
        <ele>163</ele>
        <time>2020-06-26T15:44:51Z</time>
      </trkpt>
      <trkpt lat="49.4725" lon="6.37331">
        <ele>163.1</ele>
        <time>2020-06-26T15:44:52Z</time>
      </trkpt>
      <trkpt lat="49.47251" lon="6.37335">
        <ele>163.4</ele>
        <time>2020-06-26T15:44:53Z</time>
      </trkpt>
      <trkpt lat="49.47253" lon="6.37339">
        <ele>163.7</ele>
        <time>2020-06-26T15:44:54Z</time>
      </trkpt>
      <trkpt lat="49.47254" lon="6.37341">
        <ele>163.8</ele>
        <time>2020-06-26T15:44:55Z</time>
      </trkpt>
      <trkpt lat="49.47255" lon="6.37345">
        <ele>164.1</ele>
        <time>2020-06-26T15:44:56Z</time>
      </trkpt>
      <trkpt lat="49.47256" lon="6.37346">
        <ele>164.2</ele>
        <time>2020-06-26T15:44:57Z</time>
      </trkpt>
      <trkpt lat="49.47258" lon="6.37351">
        <ele>164.5</ele>
        <time>2020-06-26T15:44:58Z</time>
      </trkpt>
      <trkpt lat="49.47258" lon="6.37353">
        <ele>164.6</ele>
        <time>2020-06-26T15:44:59Z</time>
      </trkpt>
      <trkpt lat="49.47261" lon="6.37356">
        <ele>164.9</ele>
        <time>2020-06-26T15:45:00Z</time>
      </trkpt>
      <trkpt lat="49.47261" lon="6.37357">
        <ele>164.9</ele>
        <time>2020-06-26T15:45:01Z</time>
      </trkpt>
      <trkpt lat="49.47263" lon="6.37361">
        <ele>165.3</ele>
        <time>2020-06-26T15:45:02Z</time>
      </trkpt>
      <trkpt lat="49.47264" lon="6.37363">
        <ele>165.4</ele>
        <time>2020-06-26T15:45:03Z</time>
      </trkpt>
      <trkpt lat="49.47266" lon="6.37368">
        <ele>165.9</ele>
        <time>2020-06-26T15:45:04Z</time>
      </trkpt>
      <trkpt lat="49.47267" lon="6.3737">
        <ele>166.1</ele>
        <time>2020-06-26T15:45:05Z</time>
      </trkpt>
      <trkpt lat="49.47269" lon="6.37374">
        <ele>166.4</ele>
        <time>2020-06-26T15:45:06Z</time>
      </trkpt>
      <trkpt lat="49.4727" lon="6.37375">
        <ele>166.5</ele>
        <time>2020-06-26T15:45:07Z</time>
      </trkpt>
      <trkpt lat="49.47272" lon="6.37378">
        <ele>166.8</ele>
        <time>2020-06-26T15:45:08Z</time>
      </trkpt>
      <trkpt lat="49.47272" lon="6.3738">
        <ele>166.9</ele>
        <time>2020-06-26T15:45:09Z</time>
      </trkpt>
      <trkpt lat="49.47274" lon="6.37383">
        <ele>167.2</ele>
        <time>2020-06-26T15:45:10Z</time>
      </trkpt>
      <trkpt lat="49.47275" lon="6.37384">
        <ele>167.3</ele>
        <time>2020-06-26T15:45:11Z</time>
      </trkpt>
      <trkpt lat="49.47277" lon="6.37388">
        <ele>167.6</ele>
        <time>2020-06-26T15:45:12Z</time>
      </trkpt>
      <trkpt lat="49.47277" lon="6.3739">
        <ele>167.7</ele>
        <time>2020-06-26T15:45:13Z</time>
      </trkpt>
      <trkpt lat="49.47279" lon="6.37394">
        <ele>168</ele>
        <time>2020-06-26T15:45:14Z</time>
      </trkpt>
      <trkpt lat="49.4728" lon="6.37396">
        <ele>168.1</ele>
        <time>2020-06-26T15:45:15Z</time>
      </trkpt>
      <trkpt lat="49.47282" lon="6.37399">
        <ele>168.4</ele>
        <time>2020-06-26T15:45:16Z</time>
      </trkpt>
      <trkpt lat="49.47283" lon="6.374">
        <ele>168.5</ele>
        <time>2020-06-26T15:45:17Z</time>
      </trkpt>
      <trkpt lat="49.47285" lon="6.37405">
        <ele>168.8</ele>
        <time>2020-06-26T15:45:18Z</time>
      </trkpt>
      <trkpt lat="49.47286" lon="6.37406">
        <ele>168.9</ele>
        <time>2020-06-26T15:45:19Z</time>
      </trkpt>
      <trkpt lat="49.47288" lon="6.37409">
        <ele>169.1</ele>
        <time>2020-06-26T15:45:20Z</time>
      </trkpt>
      <trkpt lat="49.47289" lon="6.3741">
        <ele>169.2</ele>
        <time>2020-06-26T15:45:21Z</time>
      </trkpt>
      <trkpt lat="49.4729" lon="6.37411">
        <ele>169.4</ele>
        <time>2020-06-26T15:45:22Z</time>
      </trkpt>
      <trkpt lat="49.47292" lon="6.37412">
        <ele>169.5</ele>
        <time>2020-06-26T15:45:23Z</time>
      </trkpt>
      <trkpt lat="49.47294" lon="6.37416">
        <ele>169.7</ele>
        <time>2020-06-26T15:45:24Z</time>
      </trkpt>
      <trkpt lat="49.47295" lon="6.37417">
        <ele>169.8</ele>
        <time>2020-06-26T15:45:25Z</time>
      </trkpt>
      <trkpt lat="49.47297" lon="6.37421">
        <ele>170</ele>
        <time>2020-06-26T15:45:26Z</time>
      </trkpt>
      <trkpt lat="49.47298" lon="6.37422">
        <ele>170.1</ele>
        <time>2020-06-26T15:45:27Z</time>
      </trkpt>
      <trkpt lat="49.47301" lon="6.37426">
        <ele>170.3</ele>
        <time>2020-06-26T15:45:28Z</time>
      </trkpt>
      <trkpt lat="49.47302" lon="6.37427">
        <ele>170.4</ele>
        <time>2020-06-26T15:45:29Z</time>
      </trkpt>
      <trkpt lat="49.47305" lon="6.37431">
        <ele>170.6</ele>
        <time>2020-06-26T15:45:30Z</time>
      </trkpt>
      <trkpt lat="49.47306" lon="6.37432">
        <ele>170.6</ele>
        <time>2020-06-26T15:45:31Z</time>
      </trkpt>
      <trkpt lat="49.47308" lon="6.37436">
        <ele>170.8</ele>
        <time>2020-06-26T15:45:32Z</time>
      </trkpt>
      <trkpt lat="49.4731" lon="6.37439">
        <ele>170.9</ele>
        <time>2020-06-26T15:45:33Z</time>
      </trkpt>
      <trkpt lat="49.47312" lon="6.37442">
        <ele>171</ele>
        <time>2020-06-26T15:45:34Z</time>
      </trkpt>
      <trkpt lat="49.47315" lon="6.37446">
        <ele>171.2</ele>
        <time>2020-06-26T15:45:35Z</time>
      </trkpt>
      <trkpt lat="49.47316" lon="6.37448">
        <ele>171.2</ele>
        <time>2020-06-26T15:45:36Z</time>
      </trkpt>
      <trkpt lat="49.47319" lon="6.37452">
        <ele>171.4</ele>
        <time>2020-06-26T15:45:37Z</time>
      </trkpt>
      <trkpt lat="49.47319" lon="6.37454">
        <ele>171.4</ele>
        <time>2020-06-26T15:45:38Z</time>
      </trkpt>
      <trkpt lat="49.47321" lon="6.37457">
        <ele>171.5</ele>
        <time>2020-06-26T15:45:39Z</time>
      </trkpt>
      <trkpt lat="49.47323" lon="6.37462">
        <ele>171.6</ele>
        <time>2020-06-26T15:45:40Z</time>
      </trkpt>
      <trkpt lat="49.47324" lon="6.37463">
        <ele>171.7</ele>
        <time>2020-06-26T15:45:41Z</time>
      </trkpt>
      <trkpt lat="49.47325" lon="6.37469">
        <ele>171.8</ele>
        <time>2020-06-26T15:45:42Z</time>
      </trkpt>
      <trkpt lat="49.47325" lon="6.37471">
        <ele>171.9</ele>
        <time>2020-06-26T15:45:43Z</time>
      </trkpt>
      <trkpt lat="49.47326" lon="6.37476">
        <ele>172</ele>
        <time>2020-06-26T15:45:44Z</time>
      </trkpt>
      <trkpt lat="49.47326" lon="6.37482">
        <ele>172.2</ele>
        <time>2020-06-26T15:45:45Z</time>
      </trkpt>
      <trkpt lat="49.47328" lon="6.37488">
        <ele>172.3</ele>
        <time>2020-06-26T15:45:46Z</time>
      </trkpt>
      <trkpt lat="49.47329" lon="6.37492">
        <ele>172.4</ele>
        <time>2020-06-26T15:45:47Z</time>
      </trkpt>
      <trkpt lat="49.4733" lon="6.37496">
        <ele>172.5</ele>
        <time>2020-06-26T15:45:48Z</time>
      </trkpt>
      <trkpt lat="49.47331" lon="6.37501">
        <ele>172.6</ele>
        <time>2020-06-26T15:45:49Z</time>
      </trkpt>
      <trkpt lat="49.47331" lon="6.37507">
        <ele>172.8</ele>
        <time>2020-06-26T15:45:50Z</time>
      </trkpt>
      <trkpt lat="49.47331" lon="6.3751">
        <ele>172.9</ele>
        <time>2020-06-26T15:45:51Z</time>
      </trkpt>
      <trkpt lat="49.47332" lon="6.37514">
        <ele>173</ele>
        <time>2020-06-26T15:45:52Z</time>
      </trkpt>
      <trkpt lat="49.47333" lon="6.3752">
        <ele>173.2</ele>
        <time>2020-06-26T15:45:53Z</time>
      </trkpt>
      <trkpt lat="49.47333" lon="6.37521">
        <ele>173.3</ele>
        <time>2020-06-26T15:45:54Z</time>
      </trkpt>
      <trkpt lat="49.47334" lon="6.37525">
        <ele>173.4</ele>
        <time>2020-06-26T15:45:55Z</time>
      </trkpt>
      <trkpt lat="49.47335" lon="6.3753">
        <ele>173.5</ele>
        <time>2020-06-26T15:45:56Z</time>
      </trkpt>
      <trkpt lat="49.47336" lon="6.37536">
        <ele>173.8</ele>
        <time>2020-06-26T15:45:57Z</time>
      </trkpt>
      <trkpt lat="49.47336" lon="6.37538">
        <ele>173.8</ele>
        <time>2020-06-26T15:45:58Z</time>
      </trkpt>
      <trkpt lat="49.47337" lon="6.37544">
        <ele>174</ele>
        <time>2020-06-26T15:45:59Z</time>
      </trkpt>
      <trkpt lat="49.47338" lon="6.37546">
        <ele>174.1</ele>
        <time>2020-06-26T15:46:00Z</time>
      </trkpt>
      <trkpt lat="49.47338" lon="6.37552">
        <ele>174.4</ele>
        <time>2020-06-26T15:46:01Z</time>
      </trkpt>
      <trkpt lat="49.47338" lon="6.37555">
        <ele>174.5</ele>
        <time>2020-06-26T15:46:02Z</time>
      </trkpt>
      <trkpt lat="49.47339" lon="6.37559">
        <ele>174.7</ele>
        <time>2020-06-26T15:46:03Z</time>
      </trkpt>
      <trkpt lat="49.4734" lon="6.37564">
        <ele>174.8</ele>
        <time>2020-06-26T15:46:04Z</time>
      </trkpt>
      <trkpt lat="49.4734" lon="6.3757">
        <ele>175.1</ele>
        <time>2020-06-26T15:46:05Z</time>
      </trkpt>
      <trkpt lat="49.4734" lon="6.37572">
        <ele>175.2</ele>
        <time>2020-06-26T15:46:06Z</time>
      </trkpt>
      <trkpt lat="49.47341" lon="6.37577">
        <ele>175.3</ele>
        <time>2020-06-26T15:46:07Z</time>
      </trkpt>
      <trkpt lat="49.47342" lon="6.37581">
        <ele>175.5</ele>
        <time>2020-06-26T15:46:08Z</time>
      </trkpt>
      <trkpt lat="49.47342" lon="6.37586">
        <ele>175.7</ele>
        <time>2020-06-26T15:46:09Z</time>
      </trkpt>
      <trkpt lat="49.47343" lon="6.37592">
        <ele>176</ele>
        <time>2020-06-26T15:46:10Z</time>
      </trkpt>
      <trkpt lat="49.47344" lon="6.37594">
        <ele>176.1</ele>
        <time>2020-06-26T15:46:11Z</time>
      </trkpt>
      <trkpt lat="49.47344" lon="6.37599">
        <ele>176.3</ele>
        <time>2020-06-26T15:46:12Z</time>
      </trkpt>
      <trkpt lat="49.47345" lon="6.37605">
        <ele>176.5</ele>
        <time>2020-06-26T15:46:13Z</time>
      </trkpt>
      <trkpt lat="49.47345" lon="6.37607">
        <ele>176.6</ele>
        <time>2020-06-26T15:46:14Z</time>
      </trkpt>
      <trkpt lat="49.47346" lon="6.37612">
        <ele>176.9</ele>
        <time>2020-06-26T15:46:15Z</time>
      </trkpt>
      <trkpt lat="49.47346" lon="6.37615">
        <ele>177</ele>
        <time>2020-06-26T15:46:16Z</time>
      </trkpt>
      <trkpt lat="49.47346" lon="6.3762">
        <ele>177.3</ele>
        <time>2020-06-26T15:46:17Z</time>
      </trkpt>
      <trkpt lat="49.47346" lon="6.37622">
        <ele>177.3</ele>
        <time>2020-06-26T15:46:18Z</time>
      </trkpt>
      <trkpt lat="49.47347" lon="6.37626">
        <ele>177.6</ele>
        <time>2020-06-26T15:46:19Z</time>
      </trkpt>
      <trkpt lat="49.47346" lon="6.37631">
        <ele>177.8</ele>
        <time>2020-06-26T15:46:20Z</time>
      </trkpt>
      <trkpt lat="49.47346" lon="6.37636">
        <ele>178</ele>
        <time>2020-06-26T15:46:21Z</time>
      </trkpt>
      <trkpt lat="49.47346" lon="6.37638">
        <ele>178.1</ele>
        <time>2020-06-26T15:46:22Z</time>
      </trkpt>
      <trkpt lat="49.47346" lon="6.37643">
        <ele>178.4</ele>
        <time>2020-06-26T15:46:23Z</time>
      </trkpt>
      <trkpt lat="49.47346" lon="6.37645">
        <ele>178.5</ele>
        <time>2020-06-26T15:46:24Z</time>
      </trkpt>
      <trkpt lat="49.47346" lon="6.3765">
        <ele>178.7</ele>
        <time>2020-06-26T15:46:25Z</time>
      </trkpt>
      <trkpt lat="49.47346" lon="6.37652">
        <ele>178.8</ele>
        <time>2020-06-26T15:46:26Z</time>
      </trkpt>
      <trkpt lat="49.47345" lon="6.37657">
        <ele>179.1</ele>
        <time>2020-06-26T15:46:27Z</time>
      </trkpt>
      <trkpt lat="49.47344" lon="6.37658">
        <ele>179.2</ele>
        <time>2020-06-26T15:46:28Z</time>
      </trkpt>
      <trkpt lat="49.47344" lon="6.37664">
        <ele>179.4</ele>
        <time>2020-06-26T15:46:29Z</time>
      </trkpt>
      <trkpt lat="49.47344" lon="6.37665">
        <ele>179.5</ele>
        <time>2020-06-26T15:46:30Z</time>
      </trkpt>
      <trkpt lat="49.47344" lon="6.37671">
        <ele>179.8</ele>
        <time>2020-06-26T15:46:31Z</time>
      </trkpt>
      <trkpt lat="49.47344" lon="6.37673">
        <ele>179.9</ele>
        <time>2020-06-26T15:46:32Z</time>
      </trkpt>
      <trkpt lat="49.47344" lon="6.37678">
        <ele>180.2</ele>
        <time>2020-06-26T15:46:33Z</time>
      </trkpt>
      <trkpt lat="49.47343" lon="6.37682">
        <ele>180.5</ele>
        <time>2020-06-26T15:46:34Z</time>
      </trkpt>
      <trkpt lat="49.47343" lon="6.37684">
        <ele>180.6</ele>
        <time>2020-06-26T15:46:35Z</time>
      </trkpt>
      <trkpt lat="49.47343" lon="6.37689">
        <ele>180.9</ele>
        <time>2020-06-26T15:46:36Z</time>
      </trkpt>
      <trkpt lat="49.47342" lon="6.37691">
        <ele>181</ele>
        <time>2020-06-26T15:46:37Z</time>
      </trkpt>
      <trkpt lat="49.47342" lon="6.37696">
        <ele>181.3</ele>
        <time>2020-06-26T15:46:38Z</time>
      </trkpt>
      <trkpt lat="49.47341" lon="6.37697">
        <ele>181.4</ele>
        <time>2020-06-26T15:46:39Z</time>
      </trkpt>
      <trkpt lat="49.47341" lon="6.37703">
        <ele>181.7</ele>
        <time>2020-06-26T15:46:40Z</time>
      </trkpt>
      <trkpt lat="49.47341" lon="6.37705">
        <ele>181.8</ele>
        <time>2020-06-26T15:46:41Z</time>
      </trkpt>
      <trkpt lat="49.4734" lon="6.37709">
        <ele>182.1</ele>
        <time>2020-06-26T15:46:42Z</time>
      </trkpt>
      <trkpt lat="49.4734" lon="6.37711">
        <ele>182.2</ele>
        <time>2020-06-26T15:46:43Z</time>
      </trkpt>
      <trkpt lat="49.47339" lon="6.37713">
        <ele>182.4</ele>
        <time>2020-06-26T15:46:44Z</time>
      </trkpt>
      <trkpt lat="49.47339" lon="6.37716">
        <ele>182.5</ele>
        <time>2020-06-26T15:46:45Z</time>
      </trkpt>
      <trkpt lat="49.47339" lon="6.37719">
        <ele>182.7</ele>
        <time>2020-06-26T15:46:46Z</time>
      </trkpt>
      <trkpt lat="49.4734" lon="6.37721">
        <ele>182.8</ele>
        <time>2020-06-26T15:46:47Z</time>
      </trkpt>
      <trkpt lat="49.47339" lon="6.37726">
        <ele>183.1</ele>
        <time>2020-06-26T15:46:48Z</time>
      </trkpt>
      <trkpt lat="49.47339" lon="6.37728">
        <ele>183.3</ele>
        <time>2020-06-26T15:46:49Z</time>
      </trkpt>
      <trkpt lat="49.47339" lon="6.37733">
        <ele>183.5</ele>
        <time>2020-06-26T15:46:50Z</time>
      </trkpt>
      <trkpt lat="49.47339" lon="6.37734">
        <ele>183.6</ele>
        <time>2020-06-26T15:46:51Z</time>
      </trkpt>
      <trkpt lat="49.47338" lon="6.37739">
        <ele>183.9</ele>
        <time>2020-06-26T15:46:52Z</time>
      </trkpt>
      <trkpt lat="49.47338" lon="6.3774">
        <ele>184</ele>
        <time>2020-06-26T15:46:53Z</time>
      </trkpt>
      <trkpt lat="49.47338" lon="6.37743">
        <ele>184.1</ele>
        <time>2020-06-26T15:46:54Z</time>
      </trkpt>
      <trkpt lat="49.47338" lon="6.37746">
        <ele>184.3</ele>
        <time>2020-06-26T15:46:55Z</time>
      </trkpt>
      <trkpt lat="49.47338" lon="6.37749">
        <ele>184.5</ele>
        <time>2020-06-26T15:46:56Z</time>
      </trkpt>
      <trkpt lat="49.47337" lon="6.37751">
        <ele>184.6</ele>
        <time>2020-06-26T15:46:57Z</time>
      </trkpt>
      <trkpt lat="49.47338" lon="6.37756">
        <ele>184.9</ele>
        <time>2020-06-26T15:46:58Z</time>
      </trkpt>
      <trkpt lat="49.47338" lon="6.37758">
        <ele>185</ele>
        <time>2020-06-26T15:46:59Z</time>
      </trkpt>
      <trkpt lat="49.47338" lon="6.3776">
        <ele>185.1</ele>
        <time>2020-06-26T15:47:00Z</time>
      </trkpt>
      <trkpt lat="49.47337" lon="6.37762">
        <ele>185.3</ele>
        <time>2020-06-26T15:47:01Z</time>
      </trkpt>
      <trkpt lat="49.47337" lon="6.37764">
        <ele>185.4</ele>
        <time>2020-06-26T15:47:02Z</time>
      </trkpt>
      <trkpt lat="49.47337" lon="6.37767">
        <ele>185.5</ele>
        <time>2020-06-26T15:47:03Z</time>
      </trkpt>
      <trkpt lat="49.47337" lon="6.3777">
        <ele>185.7</ele>
        <time>2020-06-26T15:47:04Z</time>
      </trkpt>
      <trkpt lat="49.47337" lon="6.37772">
        <ele>185.8</ele>
        <time>2020-06-26T15:47:05Z</time>
      </trkpt>
      <trkpt lat="49.47337" lon="6.37773">
        <ele>185.9</ele>
        <time>2020-06-26T15:47:06Z</time>
      </trkpt>
      <trkpt lat="49.47336" lon="6.37776">
        <ele>186.1</ele>
        <time>2020-06-26T15:47:07Z</time>
      </trkpt>
      <trkpt lat="49.47336" lon="6.37778">
        <ele>186.2</ele>
        <time>2020-06-26T15:47:08Z</time>
      </trkpt>
      <trkpt lat="49.47335" lon="6.37779">
        <ele>186.3</ele>
        <time>2020-06-26T15:47:09Z</time>
      </trkpt>
      <trkpt lat="49.47335" lon="6.37781">
        <ele>186.4</ele>
        <time>2020-06-26T15:47:10Z</time>
      </trkpt>
      <trkpt lat="49.47335" lon="6.37783">
        <ele>186.5</ele>
        <time>2020-06-26T15:47:11Z</time>
      </trkpt>
      <trkpt lat="49.47334" lon="6.37787">
        <ele>186.7</ele>
        <time>2020-06-26T15:47:12Z</time>
      </trkpt>
      <trkpt lat="49.47334" lon="6.37788">
        <ele>186.8</ele>
        <time>2020-06-26T15:47:13Z</time>
      </trkpt>
      <trkpt lat="49.47333" lon="6.37789">
        <ele>186.9</ele>
        <time>2020-06-26T15:47:14Z</time>
      </trkpt>
      <trkpt lat="49.47332" lon="6.3779">
        <ele>187</ele>
        <time>2020-06-26T15:47:15Z</time>
      </trkpt>
      <trkpt lat="49.47331" lon="6.37793">
        <ele>187.2</ele>
        <time>2020-06-26T15:47:16Z</time>
      </trkpt>
      <trkpt lat="49.47332" lon="6.37796">
        <ele>187.4</ele>
        <time>2020-06-26T15:47:17Z</time>
      </trkpt>
      <trkpt lat="49.47331" lon="6.37797">
        <ele>187.4</ele>
        <time>2020-06-26T15:47:18Z</time>
      </trkpt>
      <trkpt lat="49.47332" lon="6.37801">
        <ele>187.7</ele>
        <time>2020-06-26T15:47:19Z</time>
      </trkpt>
      <trkpt lat="49.47332" lon="6.37803">
        <ele>187.8</ele>
        <time>2020-06-26T15:47:20Z</time>
      </trkpt>
      <trkpt lat="49.47331" lon="6.37808">
        <ele>188.1</ele>
        <time>2020-06-26T15:47:21Z</time>
      </trkpt>
      <trkpt lat="49.47331" lon="6.3781">
        <ele>188.2</ele>
        <time>2020-06-26T15:47:22Z</time>
      </trkpt>
      <trkpt lat="49.4733" lon="6.37814">
        <ele>188.5</ele>
        <time>2020-06-26T15:47:23Z</time>
      </trkpt>
      <trkpt lat="49.4733" lon="6.37816">
        <ele>188.6</ele>
        <time>2020-06-26T15:47:24Z</time>
      </trkpt>
      <trkpt lat="49.47329" lon="6.37819">
        <ele>188.8</ele>
        <time>2020-06-26T15:47:25Z</time>
      </trkpt>
      <trkpt lat="49.47328" lon="6.37821">
        <ele>189</ele>
        <time>2020-06-26T15:47:26Z</time>
      </trkpt>
      <trkpt lat="49.47328" lon="6.37822">
        <ele>189.1</ele>
        <time>2020-06-26T15:47:27Z</time>
      </trkpt>
      <trkpt lat="49.47327" lon="6.37825">
        <ele>189.2</ele>
        <time>2020-06-26T15:47:28Z</time>
      </trkpt>
      <trkpt lat="49.47326" lon="6.3783">
        <ele>189.6</ele>
        <time>2020-06-26T15:47:29Z</time>
      </trkpt>
      <trkpt lat="49.47326" lon="6.37831">
        <ele>189.7</ele>
        <time>2020-06-26T15:47:30Z</time>
      </trkpt>
      <trkpt lat="49.47325" lon="6.37836">
        <ele>190</ele>
        <time>2020-06-26T15:47:31Z</time>
      </trkpt>
      <trkpt lat="49.47325" lon="6.37838">
        <ele>190.1</ele>
        <time>2020-06-26T15:47:32Z</time>
      </trkpt>
      <trkpt lat="49.47325" lon="6.37843">
        <ele>190.4</ele>
        <time>2020-06-26T15:47:33Z</time>
      </trkpt>
      <trkpt lat="49.47324" lon="6.37844">
        <ele>190.5</ele>
        <time>2020-06-26T15:47:34Z</time>
      </trkpt>
      <trkpt lat="49.47324" lon="6.37849">
        <ele>190.8</ele>
        <time>2020-06-26T15:47:35Z</time>
      </trkpt>
      <trkpt lat="49.47324" lon="6.37851">
        <ele>190.9</ele>
        <time>2020-06-26T15:47:36Z</time>
      </trkpt>
      <trkpt lat="49.47323" lon="6.37856">
        <ele>191.2</ele>
        <time>2020-06-26T15:47:37Z</time>
      </trkpt>
      <trkpt lat="49.47323" lon="6.37858">
        <ele>191.3</ele>
        <time>2020-06-26T15:47:38Z</time>
      </trkpt>
      <trkpt lat="49.47323" lon="6.37862">
        <ele>191.6</ele>
        <time>2020-06-26T15:47:39Z</time>
      </trkpt>
      <trkpt lat="49.47323" lon="6.37864">
        <ele>191.7</ele>
        <time>2020-06-26T15:47:40Z</time>
      </trkpt>
      <trkpt lat="49.47322" lon="6.37869">
        <ele>192</ele>
        <time>2020-06-26T15:47:41Z</time>
      </trkpt>
      <trkpt lat="49.47322" lon="6.37871">
        <ele>192.1</ele>
        <time>2020-06-26T15:47:42Z</time>
      </trkpt>
      <trkpt lat="49.47322" lon="6.37875">
        <ele>192.4</ele>
        <time>2020-06-26T15:47:43Z</time>
      </trkpt>
      <trkpt lat="49.47322" lon="6.37876">
        <ele>192.5</ele>
        <time>2020-06-26T15:47:44Z</time>
      </trkpt>
      <trkpt lat="49.47322" lon="6.37878">
        <ele>192.6</ele>
        <time>2020-06-26T15:47:45Z</time>
      </trkpt>
      <trkpt lat="49.47323" lon="6.37881">
        <ele>192.7</ele>
        <time>2020-06-26T15:47:46Z</time>
      </trkpt>
      <trkpt lat="49.47322" lon="6.37883">
        <ele>192.9</ele>
        <time>2020-06-26T15:47:47Z</time>
      </trkpt>
      <trkpt lat="49.47322" lon="6.37886">
        <ele>193.1</ele>
        <time>2020-06-26T15:47:48Z</time>
      </trkpt>
      <trkpt lat="49.47321" lon="6.3789">
        <ele>193.4</ele>
        <time>2020-06-26T15:47:49Z</time>
      </trkpt>
      <trkpt lat="49.47321" lon="6.37892">
        <ele>193.5</ele>
        <time>2020-06-26T15:47:50Z</time>
      </trkpt>
      <trkpt lat="49.4732" lon="6.37897">
        <ele>193.8</ele>
        <time>2020-06-26T15:47:51Z</time>
      </trkpt>
      <trkpt lat="49.4732" lon="6.37898">
        <ele>193.9</ele>
        <time>2020-06-26T15:47:52Z</time>
      </trkpt>
      <trkpt lat="49.47319" lon="6.379">
        <ele>194.1</ele>
        <time>2020-06-26T15:47:53Z</time>
      </trkpt>
      <trkpt lat="49.47319" lon="6.37903">
        <ele>194.3</ele>
        <time>2020-06-26T15:47:54Z</time>
      </trkpt>
      <trkpt lat="49.47318" lon="6.37905">
        <ele>194.5</ele>
        <time>2020-06-26T15:47:55Z</time>
      </trkpt>
      <trkpt lat="49.47318" lon="6.37908">
        <ele>194.7</ele>
        <time>2020-06-26T15:47:56Z</time>
      </trkpt>
      <trkpt lat="49.47317" lon="6.3791">
        <ele>194.9</ele>
        <time>2020-06-26T15:47:57Z</time>
      </trkpt>
      <trkpt lat="49.47317" lon="6.37913">
        <ele>195.1</ele>
        <time>2020-06-26T15:47:58Z</time>
      </trkpt>
      <trkpt lat="49.47316" lon="6.37916">
        <ele>195.3</ele>
        <time>2020-06-26T15:47:59Z</time>
      </trkpt>
      <trkpt lat="49.47316" lon="6.37917">
        <ele>195.5</ele>
        <time>2020-06-26T15:48:00Z</time>
      </trkpt>
      <trkpt lat="49.47315" lon="6.37919">
        <ele>195.6</ele>
        <time>2020-06-26T15:48:01Z</time>
      </trkpt>
      <trkpt lat="49.47315" lon="6.37922">
        <ele>195.8</ele>
        <time>2020-06-26T15:48:02Z</time>
      </trkpt>
      <trkpt lat="49.47316" lon="6.37926">
        <ele>196.2</ele>
        <time>2020-06-26T15:48:03Z</time>
      </trkpt>
      <trkpt lat="49.47316" lon="6.37928">
        <ele>196.3</ele>
        <time>2020-06-26T15:48:04Z</time>
      </trkpt>
      <trkpt lat="49.47316" lon="6.37933">
        <ele>196.7</ele>
        <time>2020-06-26T15:48:05Z</time>
      </trkpt>
      <trkpt lat="49.47315" lon="6.37935">
        <ele>196.9</ele>
        <time>2020-06-26T15:48:06Z</time>
      </trkpt>
      <trkpt lat="49.47315" lon="6.37937">
        <ele>197</ele>
        <time>2020-06-26T15:48:07Z</time>
      </trkpt>
      <trkpt lat="49.47314" lon="6.3794">
        <ele>197.2</ele>
        <time>2020-06-26T15:48:08Z</time>
      </trkpt>
      <trkpt lat="49.47314" lon="6.37942">
        <ele>197.4</ele>
        <time>2020-06-26T15:48:09Z</time>
      </trkpt>
      <trkpt lat="49.47314" lon="6.37945">
        <ele>197.7</ele>
        <time>2020-06-26T15:48:10Z</time>
      </trkpt>
      <trkpt lat="49.47313" lon="6.3795">
        <ele>198</ele>
        <time>2020-06-26T15:48:11Z</time>
      </trkpt>
      <trkpt lat="49.47313" lon="6.37952">
        <ele>198.1</ele>
        <time>2020-06-26T15:48:12Z</time>
      </trkpt>
      <trkpt lat="49.47313" lon="6.37954">
        <ele>198.3</ele>
        <time>2020-06-26T15:48:13Z</time>
      </trkpt>
      <trkpt lat="49.47313" lon="6.37957">
        <ele>198.5</ele>
        <time>2020-06-26T15:48:14Z</time>
      </trkpt>
      <trkpt lat="49.47313" lon="6.37962">
        <ele>198.9</ele>
        <time>2020-06-26T15:48:15Z</time>
      </trkpt>
      <trkpt lat="49.47313" lon="6.37964">
        <ele>199</ele>
        <time>2020-06-26T15:48:16Z</time>
      </trkpt>
      <trkpt lat="49.47313" lon="6.37968">
        <ele>199.3</ele>
        <time>2020-06-26T15:48:17Z</time>
      </trkpt>
      <trkpt lat="49.47313" lon="6.3797">
        <ele>199.5</ele>
        <time>2020-06-26T15:48:18Z</time>
      </trkpt>
      <trkpt lat="49.47314" lon="6.37974">
        <ele>199.8</ele>
        <time>2020-06-26T15:48:19Z</time>
      </trkpt>
      <trkpt lat="49.47314" lon="6.37976">
        <ele>199.9</ele>
        <time>2020-06-26T15:48:20Z</time>
      </trkpt>
      <trkpt lat="49.47315" lon="6.37977">
        <ele>200</ele>
        <time>2020-06-26T15:48:21Z</time>
      </trkpt>
      <trkpt lat="49.47315" lon="6.37978">
        <ele>200.2</ele>
        <time>2020-06-26T15:48:22Z</time>
      </trkpt>
      <trkpt lat="49.47315" lon="6.3798">
        <ele>200.3</ele>
        <time>2020-06-26T15:48:23Z</time>
      </trkpt>
      <trkpt lat="49.47316" lon="6.37984">
        <ele>200.6</ele>
        <time>2020-06-26T15:48:24Z</time>
      </trkpt>
      <trkpt lat="49.47316" lon="6.37985">
        <ele>200.7</ele>
        <time>2020-06-26T15:48:25Z</time>
      </trkpt>
      <trkpt lat="49.47316" lon="6.37986">
        <ele>200.8</ele>
        <time>2020-06-26T15:48:26Z</time>
      </trkpt>
      <trkpt lat="49.47316" lon="6.37989">
        <ele>201</ele>
        <time>2020-06-26T15:48:27Z</time>
      </trkpt>
      <trkpt lat="49.47317" lon="6.37991">
        <ele>201.1</ele>
        <time>2020-06-26T15:48:28Z</time>
      </trkpt>
      <trkpt lat="49.47318" lon="6.37994">
        <ele>201.3</ele>
        <time>2020-06-26T15:48:29Z</time>
      </trkpt>
      <trkpt lat="49.47318" lon="6.37996">
        <ele>201.5</ele>
        <time>2020-06-26T15:48:30Z</time>
      </trkpt>
      <trkpt lat="49.47319" lon="6.37999">
        <ele>201.7</ele>
        <time>2020-06-26T15:48:31Z</time>
      </trkpt>
      <trkpt lat="49.47319" lon="6.38">
        <ele>201.8</ele>
        <time>2020-06-26T15:48:32Z</time>
      </trkpt>
      <trkpt lat="49.47319" lon="6.38001">
        <ele>201.9</ele>
        <time>2020-06-26T15:48:33Z</time>
      </trkpt>
      <trkpt lat="49.4732" lon="6.38005">
        <ele>202.2</ele>
        <time>2020-06-26T15:48:34Z</time>
      </trkpt>
      <trkpt lat="49.4732" lon="6.38007">
        <ele>202.4</ele>
        <time>2020-06-26T15:48:35Z</time>
      </trkpt>
      <trkpt lat="49.47321" lon="6.38009">
        <ele>202.5</ele>
        <time>2020-06-26T15:48:36Z</time>
      </trkpt>
      <trkpt lat="49.47321" lon="6.38012">
        <ele>202.7</ele>
        <time>2020-06-26T15:48:37Z</time>
      </trkpt>
      <trkpt lat="49.47321" lon="6.38014">
        <ele>202.9</ele>
        <time>2020-06-26T15:48:38Z</time>
      </trkpt>
      <trkpt lat="49.47322" lon="6.38017">
        <ele>203.1</ele>
        <time>2020-06-26T15:48:39Z</time>
      </trkpt>
      <trkpt lat="49.47323" lon="6.38022">
        <ele>203.4</ele>
        <time>2020-06-26T15:48:40Z</time>
      </trkpt>
      <trkpt lat="49.47323" lon="6.38023">
        <ele>203.5</ele>
        <time>2020-06-26T15:48:41Z</time>
      </trkpt>
      <trkpt lat="49.47324" lon="6.38027">
        <ele>203.8</ele>
        <time>2020-06-26T15:48:42Z</time>
      </trkpt>
      <trkpt lat="49.47324" lon="6.38029">
        <ele>203.9</ele>
        <time>2020-06-26T15:48:43Z</time>
      </trkpt>
      <trkpt lat="49.47324" lon="6.38031">
        <ele>204.1</ele>
        <time>2020-06-26T15:48:44Z</time>
      </trkpt>
      <trkpt lat="49.47324" lon="6.38033">
        <ele>204.2</ele>
        <time>2020-06-26T15:48:45Z</time>
      </trkpt>
      <trkpt lat="49.47325" lon="6.38035">
        <ele>204.3</ele>
        <time>2020-06-26T15:48:46Z</time>
      </trkpt>
      <trkpt lat="49.47325" lon="6.38037">
        <ele>204.7</ele>
        <time>2020-06-26T15:48:47Z</time>
      </trkpt>
      <trkpt lat="49.47326" lon="6.38042">
        <ele>205</ele>
        <time>2020-06-26T15:48:48Z</time>
      </trkpt>
      <trkpt lat="49.47326" lon="6.38043">
        <ele>205.1</ele>
        <time>2020-06-26T15:48:49Z</time>
      </trkpt>
      <trkpt lat="49.47327" lon="6.38046">
        <ele>205.3</ele>
        <time>2020-06-26T15:48:50Z</time>
      </trkpt>
      <trkpt lat="49.47326" lon="6.38049">
        <ele>205.5</ele>
        <time>2020-06-26T15:48:51Z</time>
      </trkpt>
      <trkpt lat="49.47328" lon="6.38051">
        <ele>205.7</ele>
        <time>2020-06-26T15:48:52Z</time>
      </trkpt>
      <trkpt lat="49.47328" lon="6.38053">
        <ele>205.8</ele>
        <time>2020-06-26T15:48:53Z</time>
      </trkpt>
      <trkpt lat="49.47329" lon="6.38054">
        <ele>206</ele>
        <time>2020-06-26T15:48:54Z</time>
      </trkpt>
      <trkpt lat="49.47329" lon="6.38058">
        <ele>206.3</ele>
        <time>2020-06-26T15:48:55Z</time>
      </trkpt>
      <trkpt lat="49.4733" lon="6.3806">
        <ele>206.4</ele>
        <time>2020-06-26T15:48:56Z</time>
      </trkpt>
      <trkpt lat="49.4733" lon="6.38064">
        <ele>206.7</ele>
        <time>2020-06-26T15:48:57Z</time>
      </trkpt>
      <trkpt lat="49.4733" lon="6.38066">
        <ele>206.8</ele>
        <time>2020-06-26T15:48:58Z</time>
      </trkpt>
      <trkpt lat="49.4733" lon="6.38068">
        <ele>207</ele>
        <time>2020-06-26T15:48:59Z</time>
      </trkpt>
      <trkpt lat="49.4733" lon="6.3807">
        <ele>207.1</ele>
        <time>2020-06-26T15:49:00Z</time>
      </trkpt>
      <trkpt lat="49.47331" lon="6.38072">
        <ele>207.3</ele>
        <time>2020-06-26T15:49:01Z</time>
      </trkpt>
      <trkpt lat="49.47331" lon="6.38075">
        <ele>207.4</ele>
        <time>2020-06-26T15:49:02Z</time>
      </trkpt>
      <trkpt lat="49.47332" lon="6.38077">
        <ele>207.6</ele>
        <time>2020-06-26T15:49:03Z</time>
      </trkpt>
      <trkpt lat="49.47332" lon="6.38079">
        <ele>207.8</ele>
        <time>2020-06-26T15:49:04Z</time>
      </trkpt>
      <trkpt lat="49.47333" lon="6.38082">
        <ele>208</ele>
        <time>2020-06-26T15:49:05Z</time>
      </trkpt>
      <trkpt lat="49.47334" lon="6.38084">
        <ele>208.1</ele>
        <time>2020-06-26T15:49:06Z</time>
      </trkpt>
      <trkpt lat="49.47334" lon="6.38086">
        <ele>208.3</ele>
        <time>2020-06-26T15:49:07Z</time>
      </trkpt>
      <trkpt lat="49.47334" lon="6.38088">
        <ele>208.4</ele>
        <time>2020-06-26T15:49:08Z</time>
      </trkpt>
      <trkpt lat="49.47334" lon="6.38091">
        <ele>208.6</ele>
        <time>2020-06-26T15:49:09Z</time>
      </trkpt>
      <trkpt lat="49.47334" lon="6.38093">
        <ele>208.7</ele>
        <time>2020-06-26T15:49:10Z</time>
      </trkpt>
      <trkpt lat="49.47333" lon="6.38096">
        <ele>208.9</ele>
        <time>2020-06-26T15:49:11Z</time>
      </trkpt>
      <trkpt lat="49.47332" lon="6.38098">
        <ele>209.1</ele>
        <time>2020-06-26T15:49:12Z</time>
      </trkpt>
      <trkpt lat="49.47332" lon="6.381">
        <ele>209.3</ele>
        <time>2020-06-26T15:49:13Z</time>
      </trkpt>
      <trkpt lat="49.47333" lon="6.38103">
        <ele>209.5</ele>
        <time>2020-06-26T15:49:14Z</time>
      </trkpt>
      <trkpt lat="49.47333" lon="6.38106">
        <ele>209.7</ele>
        <time>2020-06-26T15:49:15Z</time>
      </trkpt>
      <trkpt lat="49.47333" lon="6.38108">
        <ele>209.8</ele>
        <time>2020-06-26T15:49:16Z</time>
      </trkpt>
      <trkpt lat="49.47333" lon="6.3811">
        <ele>209.9</ele>
        <time>2020-06-26T15:49:17Z</time>
      </trkpt>
      <trkpt lat="49.47333" lon="6.38113">
        <ele>210.2</ele>
        <time>2020-06-26T15:49:18Z</time>
      </trkpt>
      <trkpt lat="49.47333" lon="6.38116">
        <ele>210.3</ele>
        <time>2020-06-26T15:49:19Z</time>
      </trkpt>
      <trkpt lat="49.47333" lon="6.38118">
        <ele>210.5</ele>
        <time>2020-06-26T15:49:20Z</time>
      </trkpt>
      <trkpt lat="49.47332" lon="6.38122">
        <ele>210.8</ele>
        <time>2020-06-26T15:49:21Z</time>
      </trkpt>
      <trkpt lat="49.47331" lon="6.38123">
        <ele>210.9</ele>
        <time>2020-06-26T15:49:22Z</time>
      </trkpt>
      <trkpt lat="49.47331" lon="6.38124">
        <ele>210.9</ele>
        <time>2020-06-26T15:49:23Z</time>
      </trkpt>
      <trkpt lat="49.4733" lon="6.38125">
        <ele>211.1</ele>
        <time>2020-06-26T15:49:24Z</time>
      </trkpt>
      <trkpt lat="49.47328" lon="6.38128">
        <ele>211.3</ele>
        <time>2020-06-26T15:49:25Z</time>
      </trkpt>
      <trkpt lat="49.47327" lon="6.38131">
        <ele>211.6</ele>
        <time>2020-06-26T15:49:26Z</time>
      </trkpt>
      <trkpt lat="49.47326" lon="6.38133">
        <ele>211.7</ele>
        <time>2020-06-26T15:49:27Z</time>
      </trkpt>
      <trkpt lat="49.47324" lon="6.38136">
        <ele>212</ele>
        <time>2020-06-26T15:49:28Z</time>
      </trkpt>
      <trkpt lat="49.47324" lon="6.38137">
        <ele>212.1</ele>
        <time>2020-06-26T15:49:29Z</time>
      </trkpt>
      <trkpt lat="49.47321" lon="6.3814">
        <ele>212.5</ele>
        <time>2020-06-26T15:49:30Z</time>
      </trkpt>
      <trkpt lat="49.4732" lon="6.38142">
        <ele>212.6</ele>
        <time>2020-06-26T15:49:31Z</time>
      </trkpt>
      <trkpt lat="49.47318" lon="6.38145">
        <ele>212.9</ele>
        <time>2020-06-26T15:49:32Z</time>
      </trkpt>
      <trkpt lat="49.47317" lon="6.38146">
        <ele>213</ele>
        <time>2020-06-26T15:49:33Z</time>
      </trkpt>
      <trkpt lat="49.47316" lon="6.3815">
        <ele>213.3</ele>
        <time>2020-06-26T15:49:34Z</time>
      </trkpt>
      <trkpt lat="49.47315" lon="6.38151">
        <ele>213.4</ele>
        <time>2020-06-26T15:49:35Z</time>
      </trkpt>
      <trkpt lat="49.47313" lon="6.38154">
        <ele>213.7</ele>
        <time>2020-06-26T15:49:36Z</time>
      </trkpt>
      <trkpt lat="49.47313" lon="6.38156">
        <ele>213.8</ele>
        <time>2020-06-26T15:49:37Z</time>
      </trkpt>
      <trkpt lat="49.47311" lon="6.3816">
        <ele>214.1</ele>
        <time>2020-06-26T15:49:38Z</time>
      </trkpt>
      <trkpt lat="49.47311" lon="6.38161">
        <ele>214.2</ele>
        <time>2020-06-26T15:49:39Z</time>
      </trkpt>
      <trkpt lat="49.47308" lon="6.38164">
        <ele>214.5</ele>
        <time>2020-06-26T15:49:40Z</time>
      </trkpt>
      <trkpt lat="49.47307" lon="6.38165">
        <ele>214.6</ele>
        <time>2020-06-26T15:49:41Z</time>
      </trkpt>
      <trkpt lat="49.47306" lon="6.38168">
        <ele>214.9</ele>
        <time>2020-06-26T15:49:42Z</time>
      </trkpt>
      <trkpt lat="49.47306" lon="6.3817">
        <ele>215</ele>
        <time>2020-06-26T15:49:43Z</time>
      </trkpt>
      <trkpt lat="49.47305" lon="6.38171">
        <ele>215.1</ele>
        <time>2020-06-26T15:49:44Z</time>
      </trkpt>
      <trkpt lat="49.47303" lon="6.38175">
        <ele>215.4</ele>
        <time>2020-06-26T15:49:45Z</time>
      </trkpt>
      <trkpt lat="49.47302" lon="6.38176">
        <ele>215.5</ele>
        <time>2020-06-26T15:49:46Z</time>
      </trkpt>
      <trkpt lat="49.47301" lon="6.38178">
        <ele>215.7</ele>
        <time>2020-06-26T15:49:47Z</time>
      </trkpt>
      <trkpt lat="49.47301" lon="6.3818">
        <ele>215.9</ele>
        <time>2020-06-26T15:49:48Z</time>
      </trkpt>
      <trkpt lat="49.47299" lon="6.38185">
        <ele>216.2</ele>
        <time>2020-06-26T15:49:49Z</time>
      </trkpt>
      <trkpt lat="49.47299" lon="6.38186">
        <ele>216.3</ele>
        <time>2020-06-26T15:49:50Z</time>
      </trkpt>
      <trkpt lat="49.47298" lon="6.38188">
        <ele>216.4</ele>
        <time>2020-06-26T15:49:51Z</time>
      </trkpt>
      <trkpt lat="49.47296" lon="6.3819">
        <ele>216.6</ele>
        <time>2020-06-26T15:49:52Z</time>
      </trkpt>
      <trkpt lat="49.47294" lon="6.38194">
        <ele>217</ele>
        <time>2020-06-26T15:49:53Z</time>
      </trkpt>
      <trkpt lat="49.47293" lon="6.38195">
        <ele>217.1</ele>
        <time>2020-06-26T15:49:54Z</time>
      </trkpt>
      <trkpt lat="49.47292" lon="6.38199">
        <ele>217.3</ele>
        <time>2020-06-26T15:49:55Z</time>
      </trkpt>
      <trkpt lat="49.47291" lon="6.382">
        <ele>217.4</ele>
        <time>2020-06-26T15:49:56Z</time>
      </trkpt>
      <trkpt lat="49.47289" lon="6.38203">
        <ele>217.7</ele>
        <time>2020-06-26T15:49:57Z</time>
      </trkpt>
      <trkpt lat="49.47289" lon="6.38205">
        <ele>217.8</ele>
        <time>2020-06-26T15:49:58Z</time>
      </trkpt>
      <trkpt lat="49.47288" lon="6.38207">
        <ele>217.9</ele>
        <time>2020-06-26T15:49:59Z</time>
      </trkpt>
      <trkpt lat="49.47286" lon="6.38208">
        <ele>218.1</ele>
        <time>2020-06-26T15:50:00Z</time>
      </trkpt>
      <trkpt lat="49.47284" lon="6.38212">
        <ele>218.3</ele>
        <time>2020-06-26T15:50:01Z</time>
      </trkpt>
      <trkpt lat="49.47284" lon="6.38213">
        <ele>218.4</ele>
        <time>2020-06-26T15:50:02Z</time>
      </trkpt>
      <trkpt lat="49.47283" lon="6.38217">
        <ele>218.7</ele>
        <time>2020-06-26T15:50:03Z</time>
      </trkpt>
      <trkpt lat="49.47282" lon="6.38219">
        <ele>218.8</ele>
        <time>2020-06-26T15:50:04Z</time>
      </trkpt>
      <trkpt lat="49.47281" lon="6.38222">
        <ele>219</ele>
        <time>2020-06-26T15:50:05Z</time>
      </trkpt>
      <trkpt lat="49.4728" lon="6.38224">
        <ele>219.1</ele>
        <time>2020-06-26T15:50:06Z</time>
      </trkpt>
      <trkpt lat="49.47278" lon="6.38229">
        <ele>219.4</ele>
        <time>2020-06-26T15:50:07Z</time>
      </trkpt>
      <trkpt lat="49.47278" lon="6.38231">
        <ele>219.5</ele>
        <time>2020-06-26T15:50:08Z</time>
      </trkpt>
      <trkpt lat="49.47276" lon="6.38235">
        <ele>219.7</ele>
        <time>2020-06-26T15:50:09Z</time>
      </trkpt>
      <trkpt lat="49.47275" lon="6.38236">
        <ele>219.8</ele>
        <time>2020-06-26T15:50:10Z</time>
      </trkpt>
      <trkpt lat="49.47273" lon="6.38241">
        <ele>220.2</ele>
        <time>2020-06-26T15:50:11Z</time>
      </trkpt>
      <trkpt lat="49.47273" lon="6.38243">
        <ele>220.3</ele>
        <time>2020-06-26T15:50:12Z</time>
      </trkpt>
      <trkpt lat="49.47271" lon="6.38246">
        <ele>220.5</ele>
        <time>2020-06-26T15:50:13Z</time>
      </trkpt>
      <trkpt lat="49.47269" lon="6.38249">
        <ele>220.7</ele>
        <time>2020-06-26T15:50:14Z</time>
      </trkpt>
      <trkpt lat="49.47267" lon="6.38254">
        <ele>220.9</ele>
        <time>2020-06-26T15:50:15Z</time>
      </trkpt>
      <trkpt lat="49.47267" lon="6.38255">
        <ele>220.9</ele>
        <time>2020-06-26T15:50:16Z</time>
      </trkpt>
      <trkpt lat="49.47265" lon="6.3826">
        <ele>221.2</ele>
        <time>2020-06-26T15:50:17Z</time>
      </trkpt>
      <trkpt lat="49.47264" lon="6.38262">
        <ele>221.2</ele>
        <time>2020-06-26T15:50:18Z</time>
      </trkpt>
      <trkpt lat="49.47263" lon="6.38267">
        <ele>221.4</ele>
        <time>2020-06-26T15:50:19Z</time>
      </trkpt>
      <trkpt lat="49.47261" lon="6.38272">
        <ele>221.6</ele>
        <time>2020-06-26T15:50:20Z</time>
      </trkpt>
      <trkpt lat="49.47261" lon="6.38274">
        <ele>221.7</ele>
        <time>2020-06-26T15:50:21Z</time>
      </trkpt>
      <trkpt lat="49.4726" lon="6.38278">
        <ele>221.9</ele>
        <time>2020-06-26T15:50:22Z</time>
      </trkpt>
      <trkpt lat="49.47258" lon="6.38282">
        <ele>222</ele>
        <time>2020-06-26T15:50:23Z</time>
      </trkpt>
      <trkpt lat="49.47257" lon="6.38286">
        <ele>222.2</ele>
        <time>2020-06-26T15:50:24Z</time>
      </trkpt>
      <trkpt lat="49.47256" lon="6.38291">
        <ele>222.3</ele>
        <time>2020-06-26T15:50:25Z</time>
      </trkpt>
      <trkpt lat="49.47255" lon="6.38296">
        <ele>222.5</ele>
        <time>2020-06-26T15:50:26Z</time>
      </trkpt>
      <trkpt lat="49.47254" lon="6.38297">
        <ele>222.6</ele>
        <time>2020-06-26T15:50:27Z</time>
      </trkpt>
      <trkpt lat="49.47252" lon="6.38301">
        <ele>222.7</ele>
        <time>2020-06-26T15:50:28Z</time>
      </trkpt>
      <trkpt lat="49.47251" lon="6.38305">
        <ele>222.9</ele>
        <time>2020-06-26T15:50:29Z</time>
      </trkpt>
      <trkpt lat="49.4725" lon="6.38309">
        <ele>223</ele>
        <time>2020-06-26T15:50:30Z</time>
      </trkpt>
      <trkpt lat="49.47249" lon="6.38313">
        <ele>223.2</ele>
        <time>2020-06-26T15:50:31Z</time>
      </trkpt>
      <trkpt lat="49.47248" lon="6.38317">
        <ele>223.3</ele>
        <time>2020-06-26T15:50:32Z</time>
      </trkpt>
      <trkpt lat="49.47247" lon="6.38321">
        <ele>223.4</ele>
        <time>2020-06-26T15:50:33Z</time>
      </trkpt>
      <trkpt lat="49.47246" lon="6.38325">
        <ele>223.6</ele>
        <time>2020-06-26T15:50:34Z</time>
      </trkpt>
      <trkpt lat="49.47244" lon="6.38331">
        <ele>223.7</ele>
        <time>2020-06-26T15:50:35Z</time>
      </trkpt>
      <trkpt lat="49.47244" lon="6.38334">
        <ele>223.8</ele>
        <time>2020-06-26T15:50:36Z</time>
      </trkpt>
      <trkpt lat="49.47242" lon="6.38338">
        <ele>224</ele>
        <time>2020-06-26T15:50:37Z</time>
      </trkpt>
      <trkpt lat="49.4724" lon="6.38342">
        <ele>224.1</ele>
        <time>2020-06-26T15:50:38Z</time>
      </trkpt>
      <trkpt lat="49.47239" lon="6.38348">
        <ele>224.3</ele>
        <time>2020-06-26T15:50:39Z</time>
      </trkpt>
      <trkpt lat="49.47239" lon="6.38349">
        <ele>224.3</ele>
        <time>2020-06-26T15:50:40Z</time>
      </trkpt>
      <trkpt lat="49.47237" lon="6.38355">
        <ele>224.5</ele>
        <time>2020-06-26T15:50:41Z</time>
      </trkpt>
      <trkpt lat="49.47237" lon="6.38357">
        <ele>224.5</ele>
        <time>2020-06-26T15:50:42Z</time>
      </trkpt>
      <trkpt lat="49.47236" lon="6.38363">
        <ele>224.7</ele>
        <time>2020-06-26T15:50:43Z</time>
      </trkpt>
      <trkpt lat="49.47235" lon="6.38364">
        <ele>224.8</ele>
        <time>2020-06-26T15:50:44Z</time>
      </trkpt>
      <trkpt lat="49.47234" lon="6.38369">
        <ele>224.9</ele>
        <time>2020-06-26T15:50:45Z</time>
      </trkpt>
      <trkpt lat="49.47233" lon="6.38375">
        <ele>225</ele>
        <time>2020-06-26T15:50:46Z</time>
      </trkpt>
      <trkpt lat="49.47233" lon="6.38379">
        <ele>225.1</ele>
        <time>2020-06-26T15:50:47Z</time>
      </trkpt>
      <trkpt lat="49.47232" lon="6.38384">
        <ele>225.3</ele>
        <time>2020-06-26T15:50:48Z</time>
      </trkpt>
      <trkpt lat="49.47232" lon="6.38385">
        <ele>225.3</ele>
        <time>2020-06-26T15:50:49Z</time>
      </trkpt>
      <trkpt lat="49.47232" lon="6.38389">
        <ele>225.4</ele>
        <time>2020-06-26T15:50:50Z</time>
      </trkpt>
      <trkpt lat="49.47231" lon="6.38391">
        <ele>225.5</ele>
        <time>2020-06-26T15:50:51Z</time>
      </trkpt>
      <trkpt lat="49.47231" lon="6.38396">
        <ele>225.6</ele>
        <time>2020-06-26T15:50:52Z</time>
      </trkpt>
      <trkpt lat="49.4723" lon="6.38398">
        <ele>225.7</ele>
        <time>2020-06-26T15:50:53Z</time>
      </trkpt>
      <trkpt lat="49.4723" lon="6.384">
        <ele>225.8</ele>
        <time>2020-06-26T15:50:54Z</time>
      </trkpt>
      <trkpt lat="49.47229" lon="6.38403">
        <ele>225.9</ele>
        <time>2020-06-26T15:50:55Z</time>
      </trkpt>
      <trkpt lat="49.47228" lon="6.38408">
        <ele>226</ele>
        <time>2020-06-26T15:50:56Z</time>
      </trkpt>
      <trkpt lat="49.47228" lon="6.3841">
        <ele>226.1</ele>
        <time>2020-06-26T15:50:57Z</time>
      </trkpt>
      <trkpt lat="49.47226" lon="6.38415">
        <ele>226.3</ele>
        <time>2020-06-26T15:50:58Z</time>
      </trkpt>
      <trkpt lat="49.47226" lon="6.38416">
        <ele>226.3</ele>
        <time>2020-06-26T15:50:59Z</time>
      </trkpt>
      <trkpt lat="49.47224" lon="6.3842">
        <ele>226.5</ele>
        <time>2020-06-26T15:51:00Z</time>
      </trkpt>
      <trkpt lat="49.47224" lon="6.38421">
        <ele>226.5</ele>
        <time>2020-06-26T15:51:01Z</time>
      </trkpt>
      <trkpt lat="49.47222" lon="6.38425">
        <ele>226.6</ele>
        <time>2020-06-26T15:51:02Z</time>
      </trkpt>
      <trkpt lat="49.47221" lon="6.38427">
        <ele>226.7</ele>
        <time>2020-06-26T15:51:03Z</time>
      </trkpt>
      <trkpt lat="49.47219" lon="6.3843">
        <ele>226.9</ele>
        <time>2020-06-26T15:51:04Z</time>
      </trkpt>
      <trkpt lat="49.47218" lon="6.38432">
        <ele>226.9</ele>
        <time>2020-06-26T15:51:05Z</time>
      </trkpt>
      <trkpt lat="49.47215" lon="6.38434">
        <ele>227.1</ele>
        <time>2020-06-26T15:51:06Z</time>
      </trkpt>
      <trkpt lat="49.47213" lon="6.38436">
        <ele>227.2</ele>
        <time>2020-06-26T15:51:07Z</time>
      </trkpt>
      <trkpt lat="49.47211" lon="6.38439">
        <ele>227.4</ele>
        <time>2020-06-26T15:51:08Z</time>
      </trkpt>
      <trkpt lat="49.4721" lon="6.38443">
        <ele>227.5</ele>
        <time>2020-06-26T15:51:09Z</time>
      </trkpt>
      <trkpt lat="49.47207" lon="6.38449">
        <ele>227.7</ele>
        <time>2020-06-26T15:51:10Z</time>
      </trkpt>
      <trkpt lat="49.47205" lon="6.38452">
        <ele>227.8</ele>
        <time>2020-06-26T15:51:11Z</time>
      </trkpt>
      <trkpt lat="49.47203" lon="6.38456">
        <ele>228</ele>
        <time>2020-06-26T15:51:12Z</time>
      </trkpt>
      <trkpt lat="49.47201" lon="6.38461">
        <ele>228.2</ele>
        <time>2020-06-26T15:51:13Z</time>
      </trkpt>
      <trkpt lat="49.472" lon="6.38463">
        <ele>228.3</ele>
        <time>2020-06-26T15:51:14Z</time>
      </trkpt>
      <trkpt lat="49.47199" lon="6.38465">
        <ele>228.3</ele>
        <time>2020-06-26T15:51:15Z</time>
      </trkpt>
      <trkpt lat="49.47199" lon="6.38468">
        <ele>228.4</ele>
        <time>2020-06-26T15:51:16Z</time>
      </trkpt>
      <trkpt lat="49.47198" lon="6.38473">
        <ele>228.6</ele>
        <time>2020-06-26T15:51:17Z</time>
      </trkpt>
      <trkpt lat="49.47197" lon="6.38475">
        <ele>228.6</ele>
        <time>2020-06-26T15:51:18Z</time>
      </trkpt>
      <trkpt lat="49.47196" lon="6.38481">
        <ele>228.8</ele>
        <time>2020-06-26T15:51:19Z</time>
      </trkpt>
      <trkpt lat="49.47195" lon="6.38484">
        <ele>228.9</ele>
        <time>2020-06-26T15:51:20Z</time>
      </trkpt>
      <trkpt lat="49.47195" lon="6.38489">
        <ele>229.1</ele>
        <time>2020-06-26T15:51:21Z</time>
      </trkpt>
      <trkpt lat="49.47194" lon="6.38491">
        <ele>229.1</ele>
        <time>2020-06-26T15:51:22Z</time>
      </trkpt>
      <trkpt lat="49.47192" lon="6.38492">
        <ele>229.3</ele>
        <time>2020-06-26T15:51:23Z</time>
      </trkpt>
      <trkpt lat="49.47191" lon="6.38494">
        <ele>229.3</ele>
        <time>2020-06-26T15:51:24Z</time>
      </trkpt>
      <trkpt lat="49.4719" lon="6.38496">
        <ele>229.4</ele>
        <time>2020-06-26T15:51:25Z</time>
      </trkpt>
      <trkpt lat="49.47189" lon="6.38497">
        <ele>229.5</ele>
        <time>2020-06-26T15:51:26Z</time>
      </trkpt>
      <trkpt lat="49.47189" lon="6.38499">
        <ele>229.6</ele>
        <time>2020-06-26T15:51:27Z</time>
      </trkpt>
      <trkpt lat="49.47187" lon="6.38501">
        <ele>229.7</ele>
        <time>2020-06-26T15:51:28Z</time>
      </trkpt>
      <trkpt lat="49.47186" lon="6.38502">
        <ele>229.8</ele>
        <time>2020-06-26T15:51:29Z</time>
      </trkpt>
      <trkpt lat="49.47186" lon="6.38503">
        <ele>229.8</ele>
        <time>2020-06-26T15:51:30Z</time>
      </trkpt>
      <trkpt lat="49.47185" lon="6.38505">
        <ele>229.9</ele>
        <time>2020-06-26T15:51:31Z</time>
      </trkpt>
      <trkpt lat="49.47184" lon="6.38506">
        <ele>230</ele>
        <time>2020-06-26T15:51:32Z</time>
      </trkpt>
      <trkpt lat="49.47183" lon="6.38507">
        <ele>230.1</ele>
        <time>2020-06-26T15:51:33Z</time>
      </trkpt>
      <trkpt lat="49.47184" lon="6.38509">
        <ele>230.1</ele>
        <time>2020-06-26T15:51:34Z</time>
      </trkpt>
      <trkpt lat="49.47183" lon="6.38511">
        <ele>230.2</ele>
        <time>2020-06-26T15:51:35Z</time>
      </trkpt>
      <trkpt lat="49.47182" lon="6.38514">
        <ele>230.4</ele>
        <time>2020-06-26T15:51:36Z</time>
      </trkpt>
      <trkpt lat="49.47182" lon="6.38516">
        <ele>230.4</ele>
        <time>2020-06-26T15:51:37Z</time>
      </trkpt>
      <trkpt lat="49.4718" lon="6.38518">
        <ele>230.6</ele>
        <time>2020-06-26T15:51:38Z</time>
      </trkpt>
      <trkpt lat="49.47179" lon="6.3852">
        <ele>230.7</ele>
        <time>2020-06-26T15:51:39Z</time>
      </trkpt>
      <trkpt lat="49.47178" lon="6.38523">
        <ele>230.8</ele>
        <time>2020-06-26T15:51:40Z</time>
      </trkpt>
      <trkpt lat="49.47178" lon="6.38524">
        <ele>230.9</ele>
        <time>2020-06-26T15:51:41Z</time>
      </trkpt>
      <trkpt lat="49.47178" lon="6.38526">
        <ele>231</ele>
        <time>2020-06-26T15:51:42Z</time>
      </trkpt>
      <trkpt lat="49.47176" lon="6.38529">
        <ele>231.2</ele>
        <time>2020-06-26T15:51:43Z</time>
      </trkpt>
      <trkpt lat="49.47175" lon="6.3853">
        <ele>231.3</ele>
        <time>2020-06-26T15:51:44Z</time>
      </trkpt>
      <trkpt lat="49.47174" lon="6.38533">
        <ele>231.4</ele>
        <time>2020-06-26T15:51:45Z</time>
      </trkpt>
      <trkpt lat="49.47174" lon="6.38535">
        <ele>231.5</ele>
        <time>2020-06-26T15:51:46Z</time>
      </trkpt>
      <trkpt lat="49.47173" lon="6.38537">
        <ele>231.6</ele>
        <time>2020-06-26T15:51:47Z</time>
      </trkpt>
      <trkpt lat="49.47174" lon="6.38539">
        <ele>231.7</ele>
        <time>2020-06-26T15:51:48Z</time>
      </trkpt>
      <trkpt lat="49.47174" lon="6.38544">
        <ele>231.9</ele>
        <time>2020-06-26T15:51:49Z</time>
      </trkpt>
      <trkpt lat="49.47173" lon="6.38549">
        <ele>232.2</ele>
        <time>2020-06-26T15:51:50Z</time>
      </trkpt>
      <trkpt lat="49.47173" lon="6.38551">
        <ele>232.3</ele>
        <time>2020-06-26T15:51:51Z</time>
      </trkpt>
      <trkpt lat="49.47172" lon="6.38553">
        <ele>232.4</ele>
        <time>2020-06-26T15:51:52Z</time>
      </trkpt>
      <trkpt lat="49.47172" lon="6.38556">
        <ele>232.6</ele>
        <time>2020-06-26T15:51:53Z</time>
      </trkpt>
      <trkpt lat="49.47171" lon="6.38562">
        <ele>232.8</ele>
        <time>2020-06-26T15:51:54Z</time>
      </trkpt>
      <trkpt lat="49.4717" lon="6.38564">
        <ele>232.9</ele>
        <time>2020-06-26T15:51:55Z</time>
      </trkpt>
      <trkpt lat="49.4717" lon="6.3857">
        <ele>233.2</ele>
        <time>2020-06-26T15:51:56Z</time>
      </trkpt>
      <trkpt lat="49.4717" lon="6.38573">
        <ele>233.3</ele>
        <time>2020-06-26T15:51:57Z</time>
      </trkpt>
      <trkpt lat="49.47171" lon="6.38579">
        <ele>233.6</ele>
        <time>2020-06-26T15:51:58Z</time>
      </trkpt>
      <trkpt lat="49.4717" lon="6.38585">
        <ele>233.9</ele>
        <time>2020-06-26T15:51:59Z</time>
      </trkpt>
      <trkpt lat="49.4717" lon="6.3859">
        <ele>234.1</ele>
        <time>2020-06-26T15:52:00Z</time>
      </trkpt>
      <trkpt lat="49.4717" lon="6.38592">
        <ele>234.2</ele>
        <time>2020-06-26T15:52:01Z</time>
      </trkpt>
      <trkpt lat="49.4717" lon="6.38598">
        <ele>234.4</ele>
        <time>2020-06-26T15:52:02Z</time>
      </trkpt>
      <trkpt lat="49.4717" lon="6.386">
        <ele>234.5</ele>
        <time>2020-06-26T15:52:03Z</time>
      </trkpt>
      <trkpt lat="49.4717" lon="6.38604">
        <ele>234.7</ele>
        <time>2020-06-26T15:52:04Z</time>
      </trkpt>
      <trkpt lat="49.47171" lon="6.38611">
        <ele>234.8</ele>
        <time>2020-06-26T15:52:05Z</time>
      </trkpt>
      <trkpt lat="49.47171" lon="6.38616">
        <ele>235</ele>
        <time>2020-06-26T15:52:06Z</time>
      </trkpt>
      <trkpt lat="49.47171" lon="6.38621">
        <ele>235.1</ele>
        <time>2020-06-26T15:52:07Z</time>
      </trkpt>
      <trkpt lat="49.47172" lon="6.38626">
        <ele>235.2</ele>
        <time>2020-06-26T15:52:08Z</time>
      </trkpt>
      <trkpt lat="49.47173" lon="6.38633">
        <ele>235.4</ele>
        <time>2020-06-26T15:52:09Z</time>
      </trkpt>
      <trkpt lat="49.47173" lon="6.38635">
        <ele>235.4</ele>
        <time>2020-06-26T15:52:10Z</time>
      </trkpt>
      <trkpt lat="49.47174" lon="6.38641">
        <ele>235.6</ele>
        <time>2020-06-26T15:52:11Z</time>
      </trkpt>
      <trkpt lat="49.47175" lon="6.38644">
        <ele>235.7</ele>
        <time>2020-06-26T15:52:12Z</time>
      </trkpt>
      <trkpt lat="49.47174" lon="6.38649">
        <ele>235.9</ele>
        <time>2020-06-26T15:52:13Z</time>
      </trkpt>
      <trkpt lat="49.47175" lon="6.38655">
        <ele>236</ele>
        <time>2020-06-26T15:52:14Z</time>
      </trkpt>
      <trkpt lat="49.47175" lon="6.38659">
        <ele>236.1</ele>
        <time>2020-06-26T15:52:15Z</time>
      </trkpt>
      <trkpt lat="49.47176" lon="6.38665">
        <ele>236.2</ele>
        <time>2020-06-26T15:52:16Z</time>
      </trkpt>
      <trkpt lat="49.47176" lon="6.3867">
        <ele>236.4</ele>
        <time>2020-06-26T15:52:17Z</time>
      </trkpt>
      <trkpt lat="49.47175" lon="6.38675">
        <ele>236.5</ele>
        <time>2020-06-26T15:52:18Z</time>
      </trkpt>
      <trkpt lat="49.47176" lon="6.3868">
        <ele>236.6</ele>
        <time>2020-06-26T15:52:19Z</time>
      </trkpt>
      <trkpt lat="49.47176" lon="6.38685">
        <ele>236.7</ele>
        <time>2020-06-26T15:52:20Z</time>
      </trkpt>
      <trkpt lat="49.47176" lon="6.3869">
        <ele>236.8</ele>
        <time>2020-06-26T15:52:21Z</time>
      </trkpt>
      <trkpt lat="49.47176" lon="6.38696">
        <ele>237</ele>
        <time>2020-06-26T15:52:22Z</time>
      </trkpt>
      <trkpt lat="49.47176" lon="6.387">
        <ele>237.1</ele>
        <time>2020-06-26T15:52:23Z</time>
      </trkpt>
      <trkpt lat="49.47176" lon="6.38705">
        <ele>237.3</ele>
        <time>2020-06-26T15:52:24Z</time>
      </trkpt>
      <trkpt lat="49.47176" lon="6.38711">
        <ele>237.5</ele>
        <time>2020-06-26T15:52:25Z</time>
      </trkpt>
      <trkpt lat="49.47176" lon="6.38713">
        <ele>237.6</ele>
        <time>2020-06-26T15:52:26Z</time>
      </trkpt>
      <trkpt lat="49.47176" lon="6.38718">
        <ele>237.8</ele>
        <time>2020-06-26T15:52:27Z</time>
      </trkpt>
      <trkpt lat="49.47176" lon="6.3872">
        <ele>237.8</ele>
        <time>2020-06-26T15:52:28Z</time>
      </trkpt>
      <trkpt lat="49.47175" lon="6.38726">
        <ele>238</ele>
        <time>2020-06-26T15:52:29Z</time>
      </trkpt>
      <trkpt lat="49.47175" lon="6.38728">
        <ele>238.1</ele>
        <time>2020-06-26T15:52:30Z</time>
      </trkpt>
      <trkpt lat="49.47175" lon="6.38734">
        <ele>238.3</ele>
        <time>2020-06-26T15:52:31Z</time>
      </trkpt>
      <trkpt lat="49.47174" lon="6.38736">
        <ele>238.3</ele>
        <time>2020-06-26T15:52:32Z</time>
      </trkpt>
      <trkpt lat="49.47173" lon="6.3874">
        <ele>238.5</ele>
        <time>2020-06-26T15:52:33Z</time>
      </trkpt>
      <trkpt lat="49.47172" lon="6.38743">
        <ele>238.6</ele>
        <time>2020-06-26T15:52:34Z</time>
      </trkpt>
      <trkpt lat="49.4717" lon="6.38749">
        <ele>238.8</ele>
        <time>2020-06-26T15:52:35Z</time>
      </trkpt>
      <trkpt lat="49.4717" lon="6.3875">
        <ele>238.8</ele>
        <time>2020-06-26T15:52:36Z</time>
      </trkpt>
      <trkpt lat="49.47169" lon="6.38755">
        <ele>239</ele>
        <time>2020-06-26T15:52:37Z</time>
      </trkpt>
      <trkpt lat="49.47168" lon="6.38758">
        <ele>239.1</ele>
        <time>2020-06-26T15:52:38Z</time>
      </trkpt>
      <trkpt lat="49.47167" lon="6.38762">
        <ele>239.2</ele>
        <time>2020-06-26T15:52:39Z</time>
      </trkpt>
      <trkpt lat="49.47166" lon="6.38767">
        <ele>239.4</ele>
        <time>2020-06-26T15:52:40Z</time>
      </trkpt>
      <trkpt lat="49.47165" lon="6.38768">
        <ele>239.4</ele>
        <time>2020-06-26T15:52:41Z</time>
      </trkpt>
      <trkpt lat="49.47165" lon="6.38773">
        <ele>239.6</ele>
        <time>2020-06-26T15:52:42Z</time>
      </trkpt>
      <trkpt lat="49.47164" lon="6.38778">
        <ele>239.7</ele>
        <time>2020-06-26T15:52:43Z</time>
      </trkpt>
      <trkpt lat="49.47164" lon="6.38779">
        <ele>239.8</ele>
        <time>2020-06-26T15:52:44Z</time>
      </trkpt>
      <trkpt lat="49.47163" lon="6.38785">
        <ele>239.9</ele>
        <time>2020-06-26T15:52:45Z</time>
      </trkpt>
      <trkpt lat="49.47163" lon="6.38787">
        <ele>240</ele>
        <time>2020-06-26T15:52:46Z</time>
      </trkpt>
      <trkpt lat="49.47161" lon="6.38792">
        <ele>240.2</ele>
        <time>2020-06-26T15:52:47Z</time>
      </trkpt>
      <trkpt lat="49.47161" lon="6.38794">
        <ele>240.3</ele>
        <time>2020-06-26T15:52:48Z</time>
      </trkpt>
      <trkpt lat="49.4716" lon="6.388">
        <ele>240.5</ele>
        <time>2020-06-26T15:52:49Z</time>
      </trkpt>
      <trkpt lat="49.47159" lon="6.38802">
        <ele>240.5</ele>
        <time>2020-06-26T15:52:50Z</time>
      </trkpt>
      <trkpt lat="49.47159" lon="6.38808">
        <ele>240.7</ele>
        <time>2020-06-26T15:52:51Z</time>
      </trkpt>
      <trkpt lat="49.47159" lon="6.3881">
        <ele>240.8</ele>
        <time>2020-06-26T15:52:52Z</time>
      </trkpt>
      <trkpt lat="49.47158" lon="6.38815">
        <ele>240.9</ele>
        <time>2020-06-26T15:52:53Z</time>
      </trkpt>
      <trkpt lat="49.47157" lon="6.38819">
        <ele>241.1</ele>
        <time>2020-06-26T15:52:54Z</time>
      </trkpt>
      <trkpt lat="49.47156" lon="6.38824">
        <ele>241.3</ele>
        <time>2020-06-26T15:52:55Z</time>
      </trkpt>
      <trkpt lat="49.47156" lon="6.3883">
        <ele>241.5</ele>
        <time>2020-06-26T15:52:56Z</time>
      </trkpt>
      <trkpt lat="49.47156" lon="6.38833">
        <ele>241.6</ele>
        <time>2020-06-26T15:52:57Z</time>
      </trkpt>
      <trkpt lat="49.47154" lon="6.38839">
        <ele>241.8</ele>
        <time>2020-06-26T15:52:58Z</time>
      </trkpt>
      <trkpt lat="49.47154" lon="6.38844">
        <ele>242</ele>
        <time>2020-06-26T15:52:59Z</time>
      </trkpt>
      <trkpt lat="49.47153" lon="6.38848">
        <ele>242.2</ele>
        <time>2020-06-26T15:53:00Z</time>
      </trkpt>
      <trkpt lat="49.47153" lon="6.38853">
        <ele>242.3</ele>
        <time>2020-06-26T15:53:01Z</time>
      </trkpt>
      <trkpt lat="49.47153" lon="6.38858">
        <ele>242.5</ele>
        <time>2020-06-26T15:53:02Z</time>
      </trkpt>
      <trkpt lat="49.47153" lon="6.38862">
        <ele>242.7</ele>
        <time>2020-06-26T15:53:03Z</time>
      </trkpt>
      <trkpt lat="49.47153" lon="6.38867">
        <ele>242.9</ele>
        <time>2020-06-26T15:53:04Z</time>
      </trkpt>
      <trkpt lat="49.47152" lon="6.38872">
        <ele>243.1</ele>
        <time>2020-06-26T15:53:05Z</time>
      </trkpt>
      <trkpt lat="49.47151" lon="6.38874">
        <ele>243.2</ele>
        <time>2020-06-26T15:53:06Z</time>
      </trkpt>
      <trkpt lat="49.47151" lon="6.3888">
        <ele>243.4</ele>
        <time>2020-06-26T15:53:07Z</time>
      </trkpt>
      <trkpt lat="49.4715" lon="6.38881">
        <ele>243.5</ele>
        <time>2020-06-26T15:53:08Z</time>
      </trkpt>
      <trkpt lat="49.4715" lon="6.38887">
        <ele>243.7</ele>
        <time>2020-06-26T15:53:09Z</time>
      </trkpt>
      <trkpt lat="49.4715" lon="6.38888">
        <ele>243.8</ele>
        <time>2020-06-26T15:53:10Z</time>
      </trkpt>
      <trkpt lat="49.47151" lon="6.38894">
        <ele>244.1</ele>
        <time>2020-06-26T15:53:11Z</time>
      </trkpt>
      <trkpt lat="49.47151" lon="6.38895">
        <ele>244.2</ele>
        <time>2020-06-26T15:53:12Z</time>
      </trkpt>
      <trkpt lat="49.47151" lon="6.389">
        <ele>244.4</ele>
        <time>2020-06-26T15:53:13Z</time>
      </trkpt>
      <trkpt lat="49.47151" lon="6.38902">
        <ele>244.5</ele>
        <time>2020-06-26T15:53:14Z</time>
      </trkpt>
      <trkpt lat="49.47149" lon="6.38907">
        <ele>244.8</ele>
        <time>2020-06-26T15:53:15Z</time>
      </trkpt>
      <trkpt lat="49.47149" lon="6.38909">
        <ele>244.8</ele>
        <time>2020-06-26T15:53:16Z</time>
      </trkpt>
      <trkpt lat="49.47148" lon="6.38914">
        <ele>244.8</ele>
        <time>2020-06-26T15:53:17Z</time>
      </trkpt>
      <trkpt lat="49.47148" lon="6.38915">
        <ele>244.8</ele>
        <time>2020-06-26T15:53:18Z</time>
      </trkpt>
      <trkpt lat="49.47148" lon="6.38921">
        <ele>244.8</ele>
        <time>2020-06-26T15:53:19Z</time>
      </trkpt>
      <trkpt lat="49.47148" lon="6.38923">
        <ele>245.2</ele>
        <time>2020-06-26T15:53:20Z</time>
      </trkpt>
      <trkpt lat="49.47148" lon="6.38928">
        <ele>245.4</ele>
        <time>2020-06-26T15:53:21Z</time>
      </trkpt>
      <trkpt lat="49.47148" lon="6.3893">
        <ele>245.5</ele>
        <time>2020-06-26T15:53:22Z</time>
      </trkpt>
      <trkpt lat="49.47148" lon="6.38935">
        <ele>245.8</ele>
        <time>2020-06-26T15:53:23Z</time>
      </trkpt>
      <trkpt lat="49.47148" lon="6.38937">
        <ele>245.8</ele>
        <time>2020-06-26T15:53:24Z</time>
      </trkpt>
      <trkpt lat="49.47148" lon="6.38943">
        <ele>246.1</ele>
        <time>2020-06-26T15:53:25Z</time>
      </trkpt>
      <trkpt lat="49.47148" lon="6.38944">
        <ele>246.1</ele>
        <time>2020-06-26T15:53:26Z</time>
      </trkpt>
      <trkpt lat="49.47147" lon="6.3895">
        <ele>246.4</ele>
        <time>2020-06-26T15:53:27Z</time>
      </trkpt>
      <trkpt lat="49.47147" lon="6.38951">
        <ele>246.5</ele>
        <time>2020-06-26T15:53:28Z</time>
      </trkpt>
      <trkpt lat="49.47147" lon="6.38957">
        <ele>246.7</ele>
        <time>2020-06-26T15:53:29Z</time>
      </trkpt>
      <trkpt lat="49.47147" lon="6.3896">
        <ele>246.8</ele>
        <time>2020-06-26T15:53:30Z</time>
      </trkpt>
      <trkpt lat="49.47147" lon="6.38965">
        <ele>247.1</ele>
        <time>2020-06-26T15:53:31Z</time>
      </trkpt>
      <trkpt lat="49.47147" lon="6.38967">
        <ele>247.1</ele>
        <time>2020-06-26T15:53:32Z</time>
      </trkpt>
      <trkpt lat="49.47146" lon="6.38973">
        <ele>247.4</ele>
        <time>2020-06-26T15:53:33Z</time>
      </trkpt>
      <trkpt lat="49.47146" lon="6.38974">
        <ele>247.5</ele>
        <time>2020-06-26T15:53:34Z</time>
      </trkpt>
      <trkpt lat="49.47146" lon="6.38979">
        <ele>247.7</ele>
        <time>2020-06-26T15:53:35Z</time>
      </trkpt>
      <trkpt lat="49.47146" lon="6.38981">
        <ele>247.8</ele>
        <time>2020-06-26T15:53:36Z</time>
      </trkpt>
      <trkpt lat="49.47145" lon="6.38985">
        <ele>248</ele>
        <time>2020-06-26T15:53:37Z</time>
      </trkpt>
      <trkpt lat="49.47145" lon="6.38987">
        <ele>248</ele>
        <time>2020-06-26T15:53:38Z</time>
      </trkpt>
      <trkpt lat="49.47146" lon="6.38991">
        <ele>248.2</ele>
        <time>2020-06-26T15:53:39Z</time>
      </trkpt>
      <trkpt lat="49.47146" lon="6.38993">
        <ele>248.3</ele>
        <time>2020-06-26T15:53:40Z</time>
      </trkpt>
      <trkpt lat="49.47146" lon="6.38997">
        <ele>248.5</ele>
        <time>2020-06-26T15:53:41Z</time>
      </trkpt>
      <trkpt lat="49.47146" lon="6.38999">
        <ele>248.6</ele>
        <time>2020-06-26T15:53:42Z</time>
      </trkpt>
      <trkpt lat="49.47146" lon="6.39004">
        <ele>248.8</ele>
        <time>2020-06-26T15:53:43Z</time>
      </trkpt>
      <trkpt lat="49.47145" lon="6.39005">
        <ele>248.9</ele>
        <time>2020-06-26T15:53:44Z</time>
      </trkpt>
      <trkpt lat="49.47145" lon="6.3901">
        <ele>249.1</ele>
        <time>2020-06-26T15:53:45Z</time>
      </trkpt>
      <trkpt lat="49.47145" lon="6.39012">
        <ele>249.2</ele>
        <time>2020-06-26T15:53:46Z</time>
      </trkpt>
      <trkpt lat="49.47144" lon="6.39016">
        <ele>249.4</ele>
        <time>2020-06-26T15:53:47Z</time>
      </trkpt>
      <trkpt lat="49.47144" lon="6.39017">
        <ele>249.5</ele>
        <time>2020-06-26T15:53:48Z</time>
      </trkpt>
      <trkpt lat="49.47144" lon="6.39022">
        <ele>249.7</ele>
        <time>2020-06-26T15:53:49Z</time>
      </trkpt>
      <trkpt lat="49.47144" lon="6.39023">
        <ele>249.8</ele>
        <time>2020-06-26T15:53:50Z</time>
      </trkpt>
      <trkpt lat="49.47143" lon="6.39029">
        <ele>250</ele>
        <time>2020-06-26T15:53:51Z</time>
      </trkpt>
      <trkpt lat="49.47143" lon="6.39031">
        <ele>250.1</ele>
        <time>2020-06-26T15:53:52Z</time>
      </trkpt>
      <trkpt lat="49.47144" lon="6.39037">
        <ele>250.4</ele>
        <time>2020-06-26T15:53:53Z</time>
      </trkpt>
      <trkpt lat="49.47144" lon="6.39039">
        <ele>250.5</ele>
        <time>2020-06-26T15:53:54Z</time>
      </trkpt>
      <trkpt lat="49.47144" lon="6.39044">
        <ele>250.8</ele>
        <time>2020-06-26T15:53:55Z</time>
      </trkpt>
      <trkpt lat="49.47144" lon="6.39045">
        <ele>250.9</ele>
        <time>2020-06-26T15:53:56Z</time>
      </trkpt>
      <trkpt lat="49.47145" lon="6.3905">
        <ele>251.1</ele>
        <time>2020-06-26T15:53:57Z</time>
      </trkpt>
      <trkpt lat="49.47145" lon="6.39051">
        <ele>251.2</ele>
        <time>2020-06-26T15:53:58Z</time>
      </trkpt>
      <trkpt lat="49.47146" lon="6.39055">
        <ele>251.4</ele>
        <time>2020-06-26T15:53:59Z</time>
      </trkpt>
      <trkpt lat="49.47146" lon="6.39057">
        <ele>251.5</ele>
        <time>2020-06-26T15:54:00Z</time>
      </trkpt>
      <trkpt lat="49.47146" lon="6.3906">
        <ele>251.6</ele>
        <time>2020-06-26T15:54:01Z</time>
      </trkpt>
      <trkpt lat="49.47147" lon="6.39062">
        <ele>251.7</ele>
        <time>2020-06-26T15:54:02Z</time>
      </trkpt>
      <trkpt lat="49.47148" lon="6.39066">
        <ele>252</ele>
        <time>2020-06-26T15:54:03Z</time>
      </trkpt>
      <trkpt lat="49.47149" lon="6.39067">
        <ele>252</ele>
        <time>2020-06-26T15:54:04Z</time>
      </trkpt>
      <trkpt lat="49.47151" lon="6.39072">
        <ele>252.3</ele>
        <time>2020-06-26T15:54:05Z</time>
      </trkpt>
      <trkpt lat="49.47151" lon="6.39073">
        <ele>252.4</ele>
        <time>2020-06-26T15:54:06Z</time>
      </trkpt>
      <trkpt lat="49.47152" lon="6.39076">
        <ele>252.7</ele>
        <time>2020-06-26T15:54:07Z</time>
      </trkpt>
      <trkpt lat="49.47153" lon="6.39077">
        <ele>252.7</ele>
        <time>2020-06-26T15:54:08Z</time>
      </trkpt>
      <trkpt lat="49.47154" lon="6.39079">
        <ele>252.8</ele>
        <time>2020-06-26T15:54:09Z</time>
      </trkpt>
      <trkpt lat="49.47155" lon="6.39082">
        <ele>252.8</ele>
        <time>2020-06-26T15:54:10Z</time>
      </trkpt>
      <trkpt lat="49.47157" lon="6.39086">
        <ele>252.9</ele>
        <time>2020-06-26T15:54:11Z</time>
      </trkpt>
      <trkpt lat="49.47158" lon="6.39087">
        <ele>253</ele>
        <time>2020-06-26T15:54:12Z</time>
      </trkpt>
      <trkpt lat="49.4716" lon="6.3909">
        <ele>253.1</ele>
        <time>2020-06-26T15:54:13Z</time>
      </trkpt>
      <trkpt lat="49.4716" lon="6.39091">
        <ele>253.1</ele>
        <time>2020-06-26T15:54:14Z</time>
      </trkpt>
      <trkpt lat="49.47163" lon="6.39096">
        <ele>253.2</ele>
        <time>2020-06-26T15:54:15Z</time>
      </trkpt>
      <trkpt lat="49.47164" lon="6.39098">
        <ele>253.3</ele>
        <time>2020-06-26T15:54:16Z</time>
      </trkpt>
      <trkpt lat="49.47166" lon="6.39101">
        <ele>253.4</ele>
        <time>2020-06-26T15:54:17Z</time>
      </trkpt>
      <trkpt lat="49.47168" lon="6.39104">
        <ele>253.5</ele>
        <time>2020-06-26T15:54:18Z</time>
      </trkpt>
      <trkpt lat="49.4717" lon="6.39107">
        <ele>253.6</ele>
        <time>2020-06-26T15:54:19Z</time>
      </trkpt>
      <trkpt lat="49.47172" lon="6.3911">
        <ele>253.7</ele>
        <time>2020-06-26T15:54:20Z</time>
      </trkpt>
      <trkpt lat="49.47174" lon="6.39113">
        <ele>253.8</ele>
        <time>2020-06-26T15:54:21Z</time>
      </trkpt>
      <trkpt lat="49.47177" lon="6.39116">
        <ele>253.9</ele>
        <time>2020-06-26T15:54:22Z</time>
      </trkpt>
      <trkpt lat="49.4718" lon="6.3912">
        <ele>254.1</ele>
        <time>2020-06-26T15:54:23Z</time>
      </trkpt>
      <trkpt lat="49.47181" lon="6.39121">
        <ele>254.1</ele>
        <time>2020-06-26T15:54:24Z</time>
      </trkpt>
      <trkpt lat="49.47183" lon="6.39123">
        <ele>254.2</ele>
        <time>2020-06-26T15:54:25Z</time>
      </trkpt>
      <trkpt lat="49.47185" lon="6.39126">
        <ele>254.3</ele>
        <time>2020-06-26T15:54:26Z</time>
      </trkpt>
      <trkpt lat="49.47188" lon="6.39129">
        <ele>254.5</ele>
        <time>2020-06-26T15:54:27Z</time>
      </trkpt>
      <trkpt lat="49.47189" lon="6.3913">
        <ele>254.5</ele>
        <time>2020-06-26T15:54:28Z</time>
      </trkpt>
      <trkpt lat="49.47192" lon="6.39133">
        <ele>254.6</ele>
        <time>2020-06-26T15:54:29Z</time>
      </trkpt>
      <trkpt lat="49.47194" lon="6.39135">
        <ele>254.8</ele>
        <time>2020-06-26T15:54:30Z</time>
      </trkpt>
      <trkpt lat="49.47195" lon="6.39136">
        <ele>254.8</ele>
        <time>2020-06-26T15:54:31Z</time>
      </trkpt>
      <trkpt lat="49.47196" lon="6.39138">
        <ele>254.9</ele>
        <time>2020-06-26T15:54:32Z</time>
      </trkpt>
      <trkpt lat="49.47197" lon="6.3914">
        <ele>255</ele>
        <time>2020-06-26T15:54:33Z</time>
      </trkpt>
      <trkpt lat="49.47199" lon="6.39145">
        <ele>255.2</ele>
        <time>2020-06-26T15:54:34Z</time>
      </trkpt>
      <trkpt lat="49.472" lon="6.39146">
        <ele>255.3</ele>
        <time>2020-06-26T15:54:35Z</time>
      </trkpt>
      <trkpt lat="49.47202" lon="6.39151">
        <ele>255.7</ele>
        <time>2020-06-26T15:54:36Z</time>
      </trkpt>
      <trkpt lat="49.47202" lon="6.39153">
        <ele>255.8</ele>
        <time>2020-06-26T15:54:37Z</time>
      </trkpt>
      <trkpt lat="49.47203" lon="6.39158">
        <ele>256</ele>
        <time>2020-06-26T15:54:38Z</time>
      </trkpt>
      <trkpt lat="49.47204" lon="6.3916">
        <ele>256.1</ele>
        <time>2020-06-26T15:54:39Z</time>
      </trkpt>
      <trkpt lat="49.47204" lon="6.39165">
        <ele>256.3</ele>
        <time>2020-06-26T15:54:40Z</time>
      </trkpt>
      <trkpt lat="49.47204" lon="6.3917">
        <ele>256.5</ele>
        <time>2020-06-26T15:54:41Z</time>
      </trkpt>
      <trkpt lat="49.47204" lon="6.39171">
        <ele>256.6</ele>
        <time>2020-06-26T15:54:42Z</time>
      </trkpt>
      <trkpt lat="49.47204" lon="6.39177">
        <ele>256.8</ele>
        <time>2020-06-26T15:54:43Z</time>
      </trkpt>
      <trkpt lat="49.47204" lon="6.39178">
        <ele>256.9</ele>
        <time>2020-06-26T15:54:44Z</time>
      </trkpt>
      <trkpt lat="49.47202" lon="6.39183">
        <ele>257.1</ele>
        <time>2020-06-26T15:54:45Z</time>
      </trkpt>
      <trkpt lat="49.47202" lon="6.39184">
        <ele>257.1</ele>
        <time>2020-06-26T15:54:46Z</time>
      </trkpt>
      <trkpt lat="49.47201" lon="6.39189">
        <ele>257.4</ele>
        <time>2020-06-26T15:54:47Z</time>
      </trkpt>
      <trkpt lat="49.472" lon="6.3919">
        <ele>257.4</ele>
        <time>2020-06-26T15:54:48Z</time>
      </trkpt>
      <trkpt lat="49.47199" lon="6.39195">
        <ele>257.6</ele>
        <time>2020-06-26T15:54:49Z</time>
      </trkpt>
      <trkpt lat="49.47199" lon="6.39196">
        <ele>257.7</ele>
        <time>2020-06-26T15:54:50Z</time>
      </trkpt>
      <trkpt lat="49.47198" lon="6.39201">
        <ele>258</ele>
        <time>2020-06-26T15:54:51Z</time>
      </trkpt>
      <trkpt lat="49.47197" lon="6.39203">
        <ele>258</ele>
        <time>2020-06-26T15:54:52Z</time>
      </trkpt>
      <trkpt lat="49.47197" lon="6.39208">
        <ele>258.3</ele>
        <time>2020-06-26T15:54:53Z</time>
      </trkpt>
      <trkpt lat="49.47196" lon="6.39209">
        <ele>258.4</ele>
        <time>2020-06-26T15:54:54Z</time>
      </trkpt>
      <trkpt lat="49.47196" lon="6.39214">
        <ele>258.6</ele>
        <time>2020-06-26T15:54:55Z</time>
      </trkpt>
      <trkpt lat="49.47195" lon="6.39216">
        <ele>258.7</ele>
        <time>2020-06-26T15:54:56Z</time>
      </trkpt>
      <trkpt lat="49.47194" lon="6.39221">
        <ele>258.9</ele>
        <time>2020-06-26T15:54:57Z</time>
      </trkpt>
      <trkpt lat="49.47194" lon="6.39223">
        <ele>259</ele>
        <time>2020-06-26T15:54:58Z</time>
      </trkpt>
      <trkpt lat="49.47193" lon="6.39228">
        <ele>259.3</ele>
        <time>2020-06-26T15:54:59Z</time>
      </trkpt>
      <trkpt lat="49.47193" lon="6.39229">
        <ele>259.3</ele>
        <time>2020-06-26T15:55:00Z</time>
      </trkpt>
      <trkpt lat="49.47191" lon="6.39231">
        <ele>259.5</ele>
        <time>2020-06-26T15:55:01Z</time>
      </trkpt>
      <trkpt lat="49.4719" lon="6.39232">
        <ele>259.6</ele>
        <time>2020-06-26T15:55:02Z</time>
      </trkpt>
      <trkpt lat="49.47188" lon="6.39234">
        <ele>259.8</ele>
        <time>2020-06-26T15:55:03Z</time>
      </trkpt>
      <trkpt lat="49.47187" lon="6.39236">
        <ele>259.9</ele>
        <time>2020-06-26T15:55:04Z</time>
      </trkpt>
      <trkpt lat="49.47186" lon="6.3924">
        <ele>260.1</ele>
        <time>2020-06-26T15:55:05Z</time>
      </trkpt>
      <trkpt lat="49.47186" lon="6.39245">
        <ele>260.3</ele>
        <time>2020-06-26T15:55:06Z</time>
      </trkpt>
      <trkpt lat="49.47185" lon="6.39247">
        <ele>260.4</ele>
        <time>2020-06-26T15:55:07Z</time>
      </trkpt>
      <trkpt lat="49.47185" lon="6.39252">
        <ele>260.6</ele>
        <time>2020-06-26T15:55:08Z</time>
      </trkpt>
      <trkpt lat="49.47184" lon="6.39253">
        <ele>260.7</ele>
        <time>2020-06-26T15:55:09Z</time>
      </trkpt>
      <trkpt lat="49.47184" lon="6.39257">
        <ele>260.9</ele>
        <time>2020-06-26T15:55:10Z</time>
      </trkpt>
      <trkpt lat="49.47184" lon="6.39259">
        <ele>261</ele>
        <time>2020-06-26T15:55:11Z</time>
      </trkpt>
      <trkpt lat="49.47182" lon="6.39263">
        <ele>261.2</ele>
        <time>2020-06-26T15:55:12Z</time>
      </trkpt>
      <trkpt lat="49.47182" lon="6.39265">
        <ele>261.3</ele>
        <time>2020-06-26T15:55:13Z</time>
      </trkpt>
      <trkpt lat="49.47182" lon="6.39268">
        <ele>261.4</ele>
        <time>2020-06-26T15:55:14Z</time>
      </trkpt>
      <trkpt lat="49.47181" lon="6.3927">
        <ele>261.6</ele>
        <time>2020-06-26T15:55:15Z</time>
      </trkpt>
      <trkpt lat="49.4718" lon="6.39274">
        <ele>261.8</ele>
        <time>2020-06-26T15:55:16Z</time>
      </trkpt>
      <trkpt lat="49.47179" lon="6.39275">
        <ele>261.9</ele>
        <time>2020-06-26T15:55:17Z</time>
      </trkpt>
      <trkpt lat="49.47178" lon="6.39279">
        <ele>262.1</ele>
        <time>2020-06-26T15:55:18Z</time>
      </trkpt>
      <trkpt lat="49.47177" lon="6.3928">
        <ele>262.2</ele>
        <time>2020-06-26T15:55:19Z</time>
      </trkpt>
      <trkpt lat="49.47176" lon="6.39285">
        <ele>262.4</ele>
        <time>2020-06-26T15:55:20Z</time>
      </trkpt>
      <trkpt lat="49.47175" lon="6.39286">
        <ele>262.5</ele>
        <time>2020-06-26T15:55:21Z</time>
      </trkpt>
      <trkpt lat="49.47174" lon="6.39291">
        <ele>262.7</ele>
        <time>2020-06-26T15:55:22Z</time>
      </trkpt>
      <trkpt lat="49.47174" lon="6.39292">
        <ele>262.8</ele>
        <time>2020-06-26T15:55:23Z</time>
      </trkpt>
      <trkpt lat="49.47173" lon="6.39297">
        <ele>263.1</ele>
        <time>2020-06-26T15:55:24Z</time>
      </trkpt>
      <trkpt lat="49.47173" lon="6.39298">
        <ele>263.1</ele>
        <time>2020-06-26T15:55:25Z</time>
      </trkpt>
      <trkpt lat="49.47172" lon="6.39301">
        <ele>263.3</ele>
        <time>2020-06-26T15:55:26Z</time>
      </trkpt>
      <trkpt lat="49.47171" lon="6.39303">
        <ele>263.4</ele>
        <time>2020-06-26T15:55:27Z</time>
      </trkpt>
      <trkpt lat="49.47169" lon="6.39307">
        <ele>263.7</ele>
        <time>2020-06-26T15:55:28Z</time>
      </trkpt>
      <trkpt lat="49.47169" lon="6.39308">
        <ele>263.7</ele>
        <time>2020-06-26T15:55:29Z</time>
      </trkpt>
      <trkpt lat="49.47168" lon="6.39312">
        <ele>264</ele>
        <time>2020-06-26T15:55:30Z</time>
      </trkpt>
      <trkpt lat="49.47167" lon="6.39313">
        <ele>264</ele>
        <time>2020-06-26T15:55:31Z</time>
      </trkpt>
      <trkpt lat="49.47166" lon="6.39316">
        <ele>264.2</ele>
        <time>2020-06-26T15:55:32Z</time>
      </trkpt>
      <trkpt lat="49.47166" lon="6.39318">
        <ele>264.3</ele>
        <time>2020-06-26T15:55:33Z</time>
      </trkpt>
      <trkpt lat="49.47164" lon="6.39322">
        <ele>264.6</ele>
        <time>2020-06-26T15:55:34Z</time>
      </trkpt>
      <trkpt lat="49.47163" lon="6.39324">
        <ele>264.7</ele>
        <time>2020-06-26T15:55:35Z</time>
      </trkpt>
      <trkpt lat="49.47162" lon="6.39328">
        <ele>264.9</ele>
        <time>2020-06-26T15:55:36Z</time>
      </trkpt>
      <trkpt lat="49.47162" lon="6.3933">
        <ele>265</ele>
        <time>2020-06-26T15:55:37Z</time>
      </trkpt>
      <trkpt lat="49.4716" lon="6.39335">
        <ele>265.3</ele>
        <time>2020-06-26T15:55:38Z</time>
      </trkpt>
      <trkpt lat="49.4716" lon="6.39336">
        <ele>265.4</ele>
        <time>2020-06-26T15:55:39Z</time>
      </trkpt>
      <trkpt lat="49.47158" lon="6.3934">
        <ele>265.7</ele>
        <time>2020-06-26T15:55:40Z</time>
      </trkpt>
      <trkpt lat="49.47158" lon="6.39342">
        <ele>265.7</ele>
        <time>2020-06-26T15:55:41Z</time>
      </trkpt>
      <trkpt lat="49.47157" lon="6.39344">
        <ele>265.9</ele>
        <time>2020-06-26T15:55:42Z</time>
      </trkpt>
      <trkpt lat="49.47157" lon="6.39347">
        <ele>266</ele>
        <time>2020-06-26T15:55:43Z</time>
      </trkpt>
      <trkpt lat="49.47156" lon="6.3935">
        <ele>266.2</ele>
        <time>2020-06-26T15:55:44Z</time>
      </trkpt>
      <trkpt lat="49.47156" lon="6.39352">
        <ele>266.8</ele>
        <time>2020-06-26T15:55:45Z</time>
      </trkpt>
      <trkpt lat="49.47156" lon="6.39353">
        <ele>266.9</ele>
        <time>2020-06-26T15:55:46Z</time>
      </trkpt>
      <trkpt lat="49.47154" lon="6.39358">
        <ele>267.3</ele>
        <time>2020-06-26T15:55:47Z</time>
      </trkpt>
      <trkpt lat="49.47153" lon="6.3936">
        <ele>267.4</ele>
        <time>2020-06-26T15:55:48Z</time>
      </trkpt>
      <trkpt lat="49.47153" lon="6.39362">
        <ele>267.6</ele>
        <time>2020-06-26T15:55:49Z</time>
      </trkpt>
      <trkpt lat="49.47152" lon="6.39364">
        <ele>267.7</ele>
        <time>2020-06-26T15:55:50Z</time>
      </trkpt>
      <trkpt lat="49.4715" lon="6.39366">
        <ele>267.9</ele>
        <time>2020-06-26T15:55:51Z</time>
      </trkpt>
      <trkpt lat="49.47149" lon="6.39368">
        <ele>268</ele>
        <time>2020-06-26T15:55:52Z</time>
      </trkpt>
      <trkpt lat="49.47149" lon="6.39374">
        <ele>268.3</ele>
        <time>2020-06-26T15:55:53Z</time>
      </trkpt>
      <trkpt lat="49.47148" lon="6.39375">
        <ele>268.4</ele>
        <time>2020-06-26T15:55:54Z</time>
      </trkpt>
      <trkpt lat="49.47147" lon="6.39379">
        <ele>268.7</ele>
        <time>2020-06-26T15:55:55Z</time>
      </trkpt>
      <trkpt lat="49.47146" lon="6.39381">
        <ele>268.8</ele>
        <time>2020-06-26T15:55:56Z</time>
      </trkpt>
      <trkpt lat="49.47145" lon="6.39386">
        <ele>269.1</ele>
        <time>2020-06-26T15:55:57Z</time>
      </trkpt>
      <trkpt lat="49.47145" lon="6.39388">
        <ele>269.2</ele>
        <time>2020-06-26T15:55:58Z</time>
      </trkpt>
      <trkpt lat="49.47144" lon="6.39393">
        <ele>269.5</ele>
        <time>2020-06-26T15:55:59Z</time>
      </trkpt>
      <trkpt lat="49.47144" lon="6.39395">
        <ele>269.6</ele>
        <time>2020-06-26T15:56:00Z</time>
      </trkpt>
      <trkpt lat="49.47143" lon="6.39399">
        <ele>269.8</ele>
        <time>2020-06-26T15:56:01Z</time>
      </trkpt>
      <trkpt lat="49.47142" lon="6.394">
        <ele>269.9</ele>
        <time>2020-06-26T15:56:02Z</time>
      </trkpt>
      <trkpt lat="49.47142" lon="6.39404">
        <ele>270.1</ele>
        <time>2020-06-26T15:56:03Z</time>
      </trkpt>
      <trkpt lat="49.47141" lon="6.39406">
        <ele>270.2</ele>
        <time>2020-06-26T15:56:04Z</time>
      </trkpt>
      <trkpt lat="49.4714" lon="6.39411">
        <ele>270.5</ele>
        <time>2020-06-26T15:56:05Z</time>
      </trkpt>
      <trkpt lat="49.4714" lon="6.39413">
        <ele>270.6</ele>
        <time>2020-06-26T15:56:06Z</time>
      </trkpt>
      <trkpt lat="49.4714" lon="6.39418">
        <ele>270.9</ele>
        <time>2020-06-26T15:56:07Z</time>
      </trkpt>
      <trkpt lat="49.4714" lon="6.39419">
        <ele>270.9</ele>
        <time>2020-06-26T15:56:08Z</time>
      </trkpt>
      <trkpt lat="49.47138" lon="6.39424">
        <ele>271.2</ele>
        <time>2020-06-26T15:56:09Z</time>
      </trkpt>
      <trkpt lat="49.47137" lon="6.39425">
        <ele>271.3</ele>
        <time>2020-06-26T15:56:10Z</time>
      </trkpt>
      <trkpt lat="49.47136" lon="6.3943">
        <ele>271.5</ele>
        <time>2020-06-26T15:56:11Z</time>
      </trkpt>
      <trkpt lat="49.47136" lon="6.39431">
        <ele>271.6</ele>
        <time>2020-06-26T15:56:12Z</time>
      </trkpt>
      <trkpt lat="49.47135" lon="6.39433">
        <ele>271.7</ele>
        <time>2020-06-26T15:56:13Z</time>
      </trkpt>
      <trkpt lat="49.47134" lon="6.39435">
        <ele>271.9</ele>
        <time>2020-06-26T15:56:14Z</time>
      </trkpt>
      <trkpt lat="49.47134" lon="6.39439">
        <ele>272.1</ele>
        <time>2020-06-26T15:56:15Z</time>
      </trkpt>
      <trkpt lat="49.47134" lon="6.3944">
        <ele>272.1</ele>
        <time>2020-06-26T15:56:16Z</time>
      </trkpt>
      <trkpt lat="49.47133" lon="6.39445">
        <ele>272.4</ele>
        <time>2020-06-26T15:56:17Z</time>
      </trkpt>
      <trkpt lat="49.47132" lon="6.39446">
        <ele>272.5</ele>
        <time>2020-06-26T15:56:18Z</time>
      </trkpt>
      <trkpt lat="49.47132" lon="6.3945">
        <ele>272.7</ele>
        <time>2020-06-26T15:56:19Z</time>
      </trkpt>
      <trkpt lat="49.47131" lon="6.39452">
        <ele>272.8</ele>
        <time>2020-06-26T15:56:20Z</time>
      </trkpt>
      <trkpt lat="49.47131" lon="6.39456">
        <ele>273</ele>
        <time>2020-06-26T15:56:21Z</time>
      </trkpt>
      <trkpt lat="49.4713" lon="6.39457">
        <ele>273</ele>
        <time>2020-06-26T15:56:22Z</time>
      </trkpt>
      <trkpt lat="49.47129" lon="6.3946">
        <ele>273.2</ele>
        <time>2020-06-26T15:56:23Z</time>
      </trkpt>
      <trkpt lat="49.47128" lon="6.39462">
        <ele>273.3</ele>
        <time>2020-06-26T15:56:24Z</time>
      </trkpt>
      <trkpt lat="49.47127" lon="6.39466">
        <ele>273.5</ele>
        <time>2020-06-26T15:56:25Z</time>
      </trkpt>
      <trkpt lat="49.47127" lon="6.39467">
        <ele>273.6</ele>
        <time>2020-06-26T15:56:26Z</time>
      </trkpt>
      <trkpt lat="49.47126" lon="6.39471">
        <ele>273.8</ele>
        <time>2020-06-26T15:56:27Z</time>
      </trkpt>
      <trkpt lat="49.47126" lon="6.39473">
        <ele>273.9</ele>
        <time>2020-06-26T15:56:28Z</time>
      </trkpt>
      <trkpt lat="49.47124" lon="6.39477">
        <ele>274.1</ele>
        <time>2020-06-26T15:56:29Z</time>
      </trkpt>
      <trkpt lat="49.47124" lon="6.39479">
        <ele>274.2</ele>
        <time>2020-06-26T15:56:30Z</time>
      </trkpt>
      <trkpt lat="49.47122" lon="6.39482">
        <ele>274.5</ele>
        <time>2020-06-26T15:56:31Z</time>
      </trkpt>
      <trkpt lat="49.47121" lon="6.39482">
        <ele>274.6</ele>
        <time>2020-06-26T15:56:32Z</time>
      </trkpt>
      <trkpt lat="49.47118" lon="6.39486">
        <ele>274.9</ele>
        <time>2020-06-26T15:56:33Z</time>
      </trkpt>
      <trkpt lat="49.47117" lon="6.39488">
        <ele>275.1</ele>
        <time>2020-06-26T15:56:34Z</time>
      </trkpt>
      <trkpt lat="49.47116" lon="6.39492">
        <ele>275.4</ele>
        <time>2020-06-26T15:56:35Z</time>
      </trkpt>
      <trkpt lat="49.47115" lon="6.39494">
        <ele>275.4</ele>
        <time>2020-06-26T15:56:36Z</time>
      </trkpt>
      <trkpt lat="49.47114" lon="6.39499">
        <ele>275.7</ele>
        <time>2020-06-26T15:56:37Z</time>
      </trkpt>
      <trkpt lat="49.47114" lon="6.395">
        <ele>275.8</ele>
        <time>2020-06-26T15:56:38Z</time>
      </trkpt>
      <trkpt lat="49.47113" lon="6.39503">
        <ele>276</ele>
        <time>2020-06-26T15:56:39Z</time>
      </trkpt>
      <trkpt lat="49.47112" lon="6.39505">
        <ele>276.1</ele>
        <time>2020-06-26T15:56:40Z</time>
      </trkpt>
      <trkpt lat="49.47112" lon="6.39508">
        <ele>276.3</ele>
        <time>2020-06-26T15:56:41Z</time>
      </trkpt>
      <trkpt lat="49.47111" lon="6.3951">
        <ele>276.4</ele>
        <time>2020-06-26T15:56:42Z</time>
      </trkpt>
      <trkpt lat="49.47111" lon="6.39513">
        <ele>276.6</ele>
        <time>2020-06-26T15:56:43Z</time>
      </trkpt>
      <trkpt lat="49.4711" lon="6.39515">
        <ele>276.7</ele>
        <time>2020-06-26T15:56:44Z</time>
      </trkpt>
      <trkpt lat="49.47108" lon="6.39519">
        <ele>277</ele>
        <time>2020-06-26T15:56:45Z</time>
      </trkpt>
      <trkpt lat="49.47108" lon="6.39521">
        <ele>277.1</ele>
        <time>2020-06-26T15:56:46Z</time>
      </trkpt>
      <trkpt lat="49.47106" lon="6.39526">
        <ele>277.4</ele>
        <time>2020-06-26T15:56:47Z</time>
      </trkpt>
      <trkpt lat="49.47105" lon="6.39528">
        <ele>277.5</ele>
        <time>2020-06-26T15:56:48Z</time>
      </trkpt>
      <trkpt lat="49.47104" lon="6.39531">
        <ele>277.7</ele>
        <time>2020-06-26T15:56:49Z</time>
      </trkpt>
      <trkpt lat="49.47102" lon="6.39536">
        <ele>278</ele>
        <time>2020-06-26T15:56:50Z</time>
      </trkpt>
      <trkpt lat="49.47101" lon="6.39537">
        <ele>278.1</ele>
        <time>2020-06-26T15:56:51Z</time>
      </trkpt>
      <trkpt lat="49.471" lon="6.39542">
        <ele>278.4</ele>
        <time>2020-06-26T15:56:52Z</time>
      </trkpt>
      <trkpt lat="49.471" lon="6.39543">
        <ele>278.5</ele>
        <time>2020-06-26T15:56:53Z</time>
      </trkpt>
      <trkpt lat="49.47098" lon="6.39548">
        <ele>278.7</ele>
        <time>2020-06-26T15:56:54Z</time>
      </trkpt>
      <trkpt lat="49.47098" lon="6.39549">
        <ele>278.9</ele>
        <time>2020-06-26T15:56:55Z</time>
      </trkpt>
      <trkpt lat="49.47096" lon="6.39555">
        <ele>279.2</ele>
        <time>2020-06-26T15:56:56Z</time>
      </trkpt>
      <trkpt lat="49.47095" lon="6.39557">
        <ele>279.3</ele>
        <time>2020-06-26T15:56:57Z</time>
      </trkpt>
      <trkpt lat="49.47094" lon="6.39562">
        <ele>279.6</ele>
        <time>2020-06-26T15:56:58Z</time>
      </trkpt>
      <trkpt lat="49.47093" lon="6.39564">
        <ele>279.8</ele>
        <time>2020-06-26T15:56:59Z</time>
      </trkpt>
      <trkpt lat="49.47092" lon="6.39568">
        <ele>280</ele>
        <time>2020-06-26T15:57:00Z</time>
      </trkpt>
      <trkpt lat="49.47091" lon="6.3957">
        <ele>280.1</ele>
        <time>2020-06-26T15:57:01Z</time>
      </trkpt>
      <trkpt lat="49.4709" lon="6.39575">
        <ele>280.5</ele>
        <time>2020-06-26T15:57:02Z</time>
      </trkpt>
      <trkpt lat="49.47089" lon="6.39576">
        <ele>280.6</ele>
        <time>2020-06-26T15:57:03Z</time>
      </trkpt>
      <trkpt lat="49.47087" lon="6.3958">
        <ele>280.8</ele>
        <time>2020-06-26T15:57:04Z</time>
      </trkpt>
      <trkpt lat="49.47087" lon="6.39581">
        <ele>280.9</ele>
        <time>2020-06-26T15:57:05Z</time>
      </trkpt>
      <trkpt lat="49.47085" lon="6.39585">
        <ele>281.2</ele>
        <time>2020-06-26T15:57:06Z</time>
      </trkpt>
      <trkpt lat="49.47085" lon="6.39586">
        <ele>281.3</ele>
        <time>2020-06-26T15:57:07Z</time>
      </trkpt>
      <trkpt lat="49.47083" lon="6.3959">
        <ele>281.5</ele>
        <time>2020-06-26T15:57:08Z</time>
      </trkpt>
      <trkpt lat="49.47082" lon="6.39592">
        <ele>281.6</ele>
        <time>2020-06-26T15:57:09Z</time>
      </trkpt>
      <trkpt lat="49.47081" lon="6.39594">
        <ele>281.8</ele>
        <time>2020-06-26T15:57:10Z</time>
      </trkpt>
      <trkpt lat="49.4708" lon="6.39596">
        <ele>281.9</ele>
        <time>2020-06-26T15:57:11Z</time>
      </trkpt>
      <trkpt lat="49.47079" lon="6.39598">
        <ele>282.1</ele>
        <time>2020-06-26T15:57:12Z</time>
      </trkpt>
      <trkpt lat="49.47079" lon="6.39601">
        <ele>282.3</ele>
        <time>2020-06-26T15:57:13Z</time>
      </trkpt>
      <trkpt lat="49.47077" lon="6.39604">
        <ele>282.5</ele>
        <time>2020-06-26T15:57:14Z</time>
      </trkpt>
      <trkpt lat="49.47076" lon="6.39605">
        <ele>282.6</ele>
        <time>2020-06-26T15:57:15Z</time>
      </trkpt>
      <trkpt lat="49.47075" lon="6.39607">
        <ele>282.8</ele>
        <time>2020-06-26T15:57:16Z</time>
      </trkpt>
      <trkpt lat="49.47074" lon="6.39609">
        <ele>282.9</ele>
        <time>2020-06-26T15:57:17Z</time>
      </trkpt>
      <trkpt lat="49.47072" lon="6.39613">
        <ele>283.2</ele>
        <time>2020-06-26T15:57:18Z</time>
      </trkpt>
      <trkpt lat="49.47072" lon="6.39614">
        <ele>283.3</ele>
        <time>2020-06-26T15:57:19Z</time>
      </trkpt>
      <trkpt lat="49.47071" lon="6.39615">
        <ele>283.5</ele>
        <time>2020-06-26T15:57:20Z</time>
      </trkpt>
      <trkpt lat="49.47069" lon="6.39617">
        <ele>283.6</ele>
        <time>2020-06-26T15:57:21Z</time>
      </trkpt>
      <trkpt lat="49.47068" lon="6.39618">
        <ele>283.8</ele>
        <time>2020-06-26T15:57:22Z</time>
      </trkpt>
      <trkpt lat="49.47067" lon="6.3962">
        <ele>284</ele>
        <time>2020-06-26T15:57:23Z</time>
      </trkpt>
      <trkpt lat="49.47065" lon="6.39624">
        <ele>284.2</ele>
        <time>2020-06-26T15:57:24Z</time>
      </trkpt>
      <trkpt lat="49.47065" lon="6.39625">
        <ele>284.3</ele>
        <time>2020-06-26T15:57:25Z</time>
      </trkpt>
      <trkpt lat="49.47063" lon="6.39628">
        <ele>284.6</ele>
        <time>2020-06-26T15:57:26Z</time>
      </trkpt>
      <trkpt lat="49.47062" lon="6.39629">
        <ele>284.7</ele>
        <time>2020-06-26T15:57:27Z</time>
      </trkpt>
      <trkpt lat="49.47061" lon="6.39631">
        <ele>284.8</ele>
        <time>2020-06-26T15:57:28Z</time>
      </trkpt>
      <trkpt lat="49.4706" lon="6.39632">
        <ele>284.9</ele>
        <time>2020-06-26T15:57:29Z</time>
      </trkpt>
      <trkpt lat="49.47057" lon="6.39635">
        <ele>285.2</ele>
        <time>2020-06-26T15:57:30Z</time>
      </trkpt>
      <trkpt lat="49.47056" lon="6.39637">
        <ele>285.4</ele>
        <time>2020-06-26T15:57:31Z</time>
      </trkpt>
      <trkpt lat="49.47054" lon="6.3964">
        <ele>285.7</ele>
        <time>2020-06-26T15:57:32Z</time>
      </trkpt>
      <trkpt lat="49.47053" lon="6.39641">
        <ele>285.8</ele>
        <time>2020-06-26T15:57:33Z</time>
      </trkpt>
      <trkpt lat="49.47051" lon="6.39644">
        <ele>286</ele>
        <time>2020-06-26T15:57:34Z</time>
      </trkpt>
      <trkpt lat="49.4705" lon="6.39645">
        <ele>286.1</ele>
        <time>2020-06-26T15:57:35Z</time>
      </trkpt>
      <trkpt lat="49.47049" lon="6.39647">
        <ele>286.2</ele>
        <time>2020-06-26T15:57:36Z</time>
      </trkpt>
      <trkpt lat="49.47049" lon="6.39647">
        <ele>286.3</ele>
        <time>2020-06-26T15:57:37Z</time>
      </trkpt>
      <trkpt lat="49.47048" lon="6.39649">
        <ele>286.4</ele>
        <time>2020-06-26T15:57:38Z</time>
      </trkpt>
      <trkpt lat="49.47046" lon="6.3965">
        <ele>286.6</ele>
        <time>2020-06-26T15:57:39Z</time>
      </trkpt>
      <trkpt lat="49.47044" lon="6.39651">
        <ele>286.8</ele>
        <time>2020-06-26T15:57:40Z</time>
      </trkpt>
      <trkpt lat="49.47043" lon="6.39652">
        <ele>287</ele>
        <time>2020-06-26T15:57:41Z</time>
      </trkpt>
      <trkpt lat="49.47041" lon="6.39653">
        <ele>287.1</ele>
        <time>2020-06-26T15:57:42Z</time>
      </trkpt>
      <trkpt lat="49.47039" lon="6.39656">
        <ele>287.4</ele>
        <time>2020-06-26T15:57:43Z</time>
      </trkpt>
      <trkpt lat="49.47038" lon="6.39657">
        <ele>287.5</ele>
        <time>2020-06-26T15:57:44Z</time>
      </trkpt>
      <trkpt lat="49.47036" lon="6.39662">
        <ele>287.8</ele>
        <time>2020-06-26T15:57:45Z</time>
      </trkpt>
      <trkpt lat="49.47036" lon="6.39663">
        <ele>287.9</ele>
        <time>2020-06-26T15:57:46Z</time>
      </trkpt>
      <trkpt lat="49.47035" lon="6.39666">
        <ele>288.1</ele>
        <time>2020-06-26T15:57:47Z</time>
      </trkpt>
      <trkpt lat="49.47034" lon="6.39668">
        <ele>288.2</ele>
        <time>2020-06-26T15:57:48Z</time>
      </trkpt>
      <trkpt lat="49.47034" lon="6.39673">
        <ele>288.5</ele>
        <time>2020-06-26T15:57:49Z</time>
      </trkpt>
      <trkpt lat="49.47033" lon="6.39675">
        <ele>288.6</ele>
        <time>2020-06-26T15:57:50Z</time>
      </trkpt>
      <trkpt lat="49.47032" lon="6.3968">
        <ele>289</ele>
        <time>2020-06-26T15:57:51Z</time>
      </trkpt>
      <trkpt lat="49.47032" lon="6.39681">
        <ele>289.1</ele>
        <time>2020-06-26T15:57:52Z</time>
      </trkpt>
      <trkpt lat="49.47032" lon="6.39683">
        <ele>289.2</ele>
        <time>2020-06-26T15:57:53Z</time>
      </trkpt>
      <trkpt lat="49.47031" lon="6.39686">
        <ele>289.3</ele>
        <time>2020-06-26T15:57:54Z</time>
      </trkpt>
      <trkpt lat="49.4703" lon="6.39687">
        <ele>289.5</ele>
        <time>2020-06-26T15:57:55Z</time>
      </trkpt>
      <trkpt lat="49.4703" lon="6.3969">
        <ele>289.7</ele>
        <time>2020-06-26T15:57:56Z</time>
      </trkpt>
      <trkpt lat="49.47029" lon="6.39695">
        <ele>289.9</ele>
        <time>2020-06-26T15:57:57Z</time>
      </trkpt>
      <trkpt lat="49.47028" lon="6.39696">
        <ele>290</ele>
        <time>2020-06-26T15:57:58Z</time>
      </trkpt>
      <trkpt lat="49.47028" lon="6.39698">
        <ele>290.1</ele>
        <time>2020-06-26T15:57:59Z</time>
      </trkpt>
      <trkpt lat="49.47028" lon="6.39701">
        <ele>290.3</ele>
        <time>2020-06-26T15:58:00Z</time>
      </trkpt>
      <trkpt lat="49.47028" lon="6.39705">
        <ele>290.5</ele>
        <time>2020-06-26T15:58:01Z</time>
      </trkpt>
      <trkpt lat="49.47028" lon="6.39707">
        <ele>290.6</ele>
        <time>2020-06-26T15:58:02Z</time>
      </trkpt>
      <trkpt lat="49.47028" lon="6.3971">
        <ele>290.8</ele>
        <time>2020-06-26T15:58:03Z</time>
      </trkpt>
      <trkpt lat="49.47028" lon="6.39712">
        <ele>290.9</ele>
        <time>2020-06-26T15:58:04Z</time>
      </trkpt>
      <trkpt lat="49.47028" lon="6.39714">
        <ele>291.2</ele>
        <time>2020-06-26T15:58:05Z</time>
      </trkpt>
      <trkpt lat="49.47028" lon="6.39717">
        <ele>291.4</ele>
        <time>2020-06-26T15:58:06Z</time>
      </trkpt>
      <trkpt lat="49.47028" lon="6.39721">
        <ele>291.6</ele>
        <time>2020-06-26T15:58:07Z</time>
      </trkpt>
      <trkpt lat="49.47027" lon="6.39723">
        <ele>291.7</ele>
        <time>2020-06-26T15:58:08Z</time>
      </trkpt>
      <trkpt lat="49.47026" lon="6.39728">
        <ele>292</ele>
        <time>2020-06-26T15:58:09Z</time>
      </trkpt>
      <trkpt lat="49.47026" lon="6.39729">
        <ele>292.1</ele>
        <time>2020-06-26T15:58:10Z</time>
      </trkpt>
      <trkpt lat="49.47026" lon="6.39732">
        <ele>292.3</ele>
        <time>2020-06-26T15:58:11Z</time>
      </trkpt>
      <trkpt lat="49.47026" lon="6.39735">
        <ele>292.5</ele>
        <time>2020-06-26T15:58:12Z</time>
      </trkpt>
      <trkpt lat="49.47026" lon="6.39737">
        <ele>292.7</ele>
        <time>2020-06-26T15:58:13Z</time>
      </trkpt>
      <trkpt lat="49.47026" lon="6.3974">
        <ele>292.8</ele>
        <time>2020-06-26T15:58:14Z</time>
      </trkpt>
      <trkpt lat="49.47026" lon="6.39742">
        <ele>293</ele>
        <time>2020-06-26T15:58:15Z</time>
      </trkpt>
      <trkpt lat="49.47026" lon="6.39744">
        <ele>293.1</ele>
        <time>2020-06-26T15:58:16Z</time>
      </trkpt>
      <trkpt lat="49.47026" lon="6.39746">
        <ele>293.2</ele>
        <time>2020-06-26T15:58:17Z</time>
      </trkpt>
      <trkpt lat="49.47026" lon="6.39748">
        <ele>293.4</ele>
        <time>2020-06-26T15:58:18Z</time>
      </trkpt>
      <trkpt lat="49.47026" lon="6.39751">
        <ele>293.6</ele>
        <time>2020-06-26T15:58:19Z</time>
      </trkpt>
      <trkpt lat="49.47026" lon="6.39754">
        <ele>293.8</ele>
        <time>2020-06-26T15:58:20Z</time>
      </trkpt>
      <trkpt lat="49.47026" lon="6.39757">
        <ele>294</ele>
        <time>2020-06-26T15:58:21Z</time>
      </trkpt>
      <trkpt lat="49.47026" lon="6.39758">
        <ele>294.1</ele>
        <time>2020-06-26T15:58:22Z</time>
      </trkpt>
      <trkpt lat="49.47026" lon="6.3976">
        <ele>294.2</ele>
        <time>2020-06-26T15:58:23Z</time>
      </trkpt>
      <trkpt lat="49.47025" lon="6.39762">
        <ele>294.3</ele>
        <time>2020-06-26T15:58:24Z</time>
      </trkpt>
      <trkpt lat="49.47025" lon="6.39764">
        <ele>294.5</ele>
        <time>2020-06-26T15:58:25Z</time>
      </trkpt>
      <trkpt lat="49.47025" lon="6.39767">
        <ele>294.7</ele>
        <time>2020-06-26T15:58:26Z</time>
      </trkpt>
      <trkpt lat="49.47024" lon="6.39769">
        <ele>294.8</ele>
        <time>2020-06-26T15:58:27Z</time>
      </trkpt>
      <trkpt lat="49.47024" lon="6.3977">
        <ele>294.9</ele>
        <time>2020-06-26T15:58:28Z</time>
      </trkpt>
      <trkpt lat="49.47024" lon="6.39771">
        <ele>295</ele>
        <time>2020-06-26T15:58:29Z</time>
      </trkpt>
      <trkpt lat="49.47024" lon="6.39774">
        <ele>295.2</ele>
        <time>2020-06-26T15:58:30Z</time>
      </trkpt>
      <trkpt lat="49.47024" lon="6.39776">
        <ele>295.4</ele>
        <time>2020-06-26T15:58:31Z</time>
      </trkpt>
      <trkpt lat="49.47024" lon="6.39778">
        <ele>295.5</ele>
        <time>2020-06-26T15:58:32Z</time>
      </trkpt>
      <trkpt lat="49.47024" lon="6.3978">
        <ele>295.7</ele>
        <time>2020-06-26T15:58:33Z</time>
      </trkpt>
      <trkpt lat="49.47025" lon="6.39782">
        <ele>295.8</ele>
        <time>2020-06-26T15:58:34Z</time>
      </trkpt>
      <trkpt lat="49.47025" lon="6.39786">
        <ele>296.1</ele>
        <time>2020-06-26T15:58:35Z</time>
      </trkpt>
      <trkpt lat="49.47025" lon="6.39788">
        <ele>296.2</ele>
        <time>2020-06-26T15:58:36Z</time>
      </trkpt>
      <trkpt lat="49.47024" lon="6.39791">
        <ele>296.4</ele>
        <time>2020-06-26T15:58:37Z</time>
      </trkpt>
      <trkpt lat="49.47023" lon="6.39793">
        <ele>296.6</ele>
        <time>2020-06-26T15:58:38Z</time>
      </trkpt>
      <trkpt lat="49.47021" lon="6.39796">
        <ele>297</ele>
        <time>2020-06-26T15:58:39Z</time>
      </trkpt>
      <trkpt lat="49.47021" lon="6.39798">
        <ele>297.1</ele>
        <time>2020-06-26T15:58:40Z</time>
      </trkpt>
      <trkpt lat="49.47021" lon="6.39799">
        <ele>297.2</ele>
        <time>2020-06-26T15:58:41Z</time>
      </trkpt>
      <trkpt lat="49.4702" lon="6.39802">
        <ele>297.4</ele>
        <time>2020-06-26T15:58:42Z</time>
      </trkpt>
      <trkpt lat="49.47019" lon="6.39806">
        <ele>297.8</ele>
        <time>2020-06-26T15:58:43Z</time>
      </trkpt>
      <trkpt lat="49.47018" lon="6.39807">
        <ele>297.9</ele>
        <time>2020-06-26T15:58:44Z</time>
      </trkpt>
      <trkpt lat="49.47018" lon="6.39812">
        <ele>298.2</ele>
        <time>2020-06-26T15:58:45Z</time>
      </trkpt>
      <trkpt lat="49.47018" lon="6.39813">
        <ele>298.3</ele>
        <time>2020-06-26T15:58:46Z</time>
      </trkpt>
      <trkpt lat="49.47017" lon="6.39815">
        <ele>298.5</ele>
        <time>2020-06-26T15:58:47Z</time>
      </trkpt>
      <trkpt lat="49.47018" lon="6.39818">
        <ele>298.7</ele>
        <time>2020-06-26T15:58:48Z</time>
      </trkpt>
      <trkpt lat="49.47018" lon="6.39821">
        <ele>298.9</ele>
        <time>2020-06-26T15:58:49Z</time>
      </trkpt>
      <trkpt lat="49.47018" lon="6.39823">
        <ele>299.1</ele>
        <time>2020-06-26T15:58:50Z</time>
      </trkpt>
      <trkpt lat="49.47018" lon="6.39825">
        <ele>299.3</ele>
        <time>2020-06-26T15:58:51Z</time>
      </trkpt>
      <trkpt lat="49.47017" lon="6.39827">
        <ele>299.5</ele>
        <time>2020-06-26T15:58:52Z</time>
      </trkpt>
      <trkpt lat="49.47017" lon="6.39829">
        <ele>299.6</ele>
        <time>2020-06-26T15:58:53Z</time>
      </trkpt>
      <trkpt lat="49.47016" lon="6.39831">
        <ele>299.8</ele>
        <time>2020-06-26T15:58:54Z</time>
      </trkpt>
      <trkpt lat="49.47016" lon="6.39834">
        <ele>300</ele>
        <time>2020-06-26T15:58:55Z</time>
      </trkpt>
      <trkpt lat="49.47016" lon="6.39836">
        <ele>300.2</ele>
        <time>2020-06-26T15:58:56Z</time>
      </trkpt>
      <trkpt lat="49.47016" lon="6.39838">
        <ele>300.3</ele>
        <time>2020-06-26T15:58:57Z</time>
      </trkpt>
      <trkpt lat="49.47016" lon="6.39839">
        <ele>300.5</ele>
        <time>2020-06-26T15:58:58Z</time>
      </trkpt>
      <trkpt lat="49.47016" lon="6.39841">
        <ele>300.6</ele>
        <time>2020-06-26T15:58:59Z</time>
      </trkpt>
      <trkpt lat="49.47016" lon="6.39843">
        <ele>300.8</ele>
        <time>2020-06-26T15:59:00Z</time>
      </trkpt>
      <trkpt lat="49.47016" lon="6.39846">
        <ele>301</ele>
        <time>2020-06-26T15:59:01Z</time>
      </trkpt>
      <trkpt lat="49.47016" lon="6.39849">
        <ele>301.7</ele>
        <time>2020-06-26T15:59:02Z</time>
      </trkpt>
      <trkpt lat="49.47016" lon="6.3985">
        <ele>301.8</ele>
        <time>2020-06-26T15:59:03Z</time>
      </trkpt>
      <trkpt lat="49.47016" lon="6.39852">
        <ele>301.9</ele>
        <time>2020-06-26T15:59:04Z</time>
      </trkpt>
      <trkpt lat="49.47016" lon="6.39854">
        <ele>302.1</ele>
        <time>2020-06-26T15:59:05Z</time>
      </trkpt>
      <trkpt lat="49.47015" lon="6.39856">
        <ele>302.3</ele>
        <time>2020-06-26T15:59:06Z</time>
      </trkpt>
      <trkpt lat="49.47015" lon="6.39858">
        <ele>302.5</ele>
        <time>2020-06-26T15:59:07Z</time>
      </trkpt>
      <trkpt lat="49.47014" lon="6.39861">
        <ele>302.7</ele>
        <time>2020-06-26T15:59:08Z</time>
      </trkpt>
      <trkpt lat="49.47014" lon="6.39863">
        <ele>302.9</ele>
        <time>2020-06-26T15:59:09Z</time>
      </trkpt>
      <trkpt lat="49.47014" lon="6.39866">
        <ele>303.1</ele>
        <time>2020-06-26T15:59:10Z</time>
      </trkpt>
      <trkpt lat="49.47014" lon="6.39867">
        <ele>303.2</ele>
        <time>2020-06-26T15:59:11Z</time>
      </trkpt>
      <trkpt lat="49.47014" lon="6.39869">
        <ele>303.3</ele>
        <time>2020-06-26T15:59:12Z</time>
      </trkpt>
      <trkpt lat="49.47013" lon="6.39871">
        <ele>303.5</ele>
        <time>2020-06-26T15:59:13Z</time>
      </trkpt>
      <trkpt lat="49.47013" lon="6.39874">
        <ele>303.8</ele>
        <time>2020-06-26T15:59:14Z</time>
      </trkpt>
      <trkpt lat="49.47013" lon="6.39876">
        <ele>303.9</ele>
        <time>2020-06-26T15:59:15Z</time>
      </trkpt>
      <trkpt lat="49.47013" lon="6.39877">
        <ele>304</ele>
        <time>2020-06-26T15:59:16Z</time>
      </trkpt>
      <trkpt lat="49.47013" lon="6.39879">
        <ele>304.1</ele>
        <time>2020-06-26T15:59:17Z</time>
      </trkpt>
      <trkpt lat="49.47013" lon="6.39881">
        <ele>304.3</ele>
        <time>2020-06-26T15:59:18Z</time>
      </trkpt>
      <trkpt lat="49.47013" lon="6.39883">
        <ele>304.4</ele>
        <time>2020-06-26T15:59:19Z</time>
      </trkpt>
      <trkpt lat="49.47012" lon="6.39885">
        <ele>304.6</ele>
        <time>2020-06-26T15:59:20Z</time>
      </trkpt>
      <trkpt lat="49.47012" lon="6.39887">
        <ele>304.8</ele>
        <time>2020-06-26T15:59:21Z</time>
      </trkpt>
      <trkpt lat="49.47012" lon="6.39888">
        <ele>304.9</ele>
        <time>2020-06-26T15:59:22Z</time>
      </trkpt>
      <trkpt lat="49.47012" lon="6.3989">
        <ele>305</ele>
        <time>2020-06-26T15:59:23Z</time>
      </trkpt>
      <trkpt lat="49.47011" lon="6.39892">
        <ele>305.2</ele>
        <time>2020-06-26T15:59:24Z</time>
      </trkpt>
      <trkpt lat="49.47011" lon="6.39894">
        <ele>305.4</ele>
        <time>2020-06-26T15:59:25Z</time>
      </trkpt>
      <trkpt lat="49.4701" lon="6.39895">
        <ele>305.5</ele>
        <time>2020-06-26T15:59:26Z</time>
      </trkpt>
      <trkpt lat="49.47009" lon="6.39897">
        <ele>305.7</ele>
        <time>2020-06-26T15:59:27Z</time>
      </trkpt>
      <trkpt lat="49.47009" lon="6.39898">
        <ele>305.8</ele>
        <time>2020-06-26T15:59:28Z</time>
      </trkpt>
      <trkpt lat="49.47009" lon="6.399">
        <ele>305.9</ele>
        <time>2020-06-26T15:59:29Z</time>
      </trkpt>
      <trkpt lat="49.47009" lon="6.39901">
        <ele>306</ele>
        <time>2020-06-26T15:59:30Z</time>
      </trkpt>
      <trkpt lat="49.47009" lon="6.39903">
        <ele>306.1</ele>
        <time>2020-06-26T15:59:31Z</time>
      </trkpt>
      <trkpt lat="49.47008" lon="6.39904">
        <ele>306.3</ele>
        <time>2020-06-26T15:59:32Z</time>
      </trkpt>
      <trkpt lat="49.47008" lon="6.39907">
        <ele>306.5</ele>
        <time>2020-06-26T15:59:33Z</time>
      </trkpt>
      <trkpt lat="49.47008" lon="6.39909">
        <ele>306.7</ele>
        <time>2020-06-26T15:59:34Z</time>
      </trkpt>
      <trkpt lat="49.47008" lon="6.3991">
        <ele>306.8</ele>
        <time>2020-06-26T15:59:35Z</time>
      </trkpt>
      <trkpt lat="49.47007" lon="6.39911">
        <ele>306.9</ele>
        <time>2020-06-26T15:59:36Z</time>
      </trkpt>
      <trkpt lat="49.47007" lon="6.39914">
        <ele>307.1</ele>
        <time>2020-06-26T15:59:37Z</time>
      </trkpt>
      <trkpt lat="49.47007" lon="6.39916">
        <ele>307.3</ele>
        <time>2020-06-26T15:59:38Z</time>
      </trkpt>
      <trkpt lat="49.47006" lon="6.39918">
        <ele>307.4</ele>
        <time>2020-06-26T15:59:39Z</time>
      </trkpt>
      <trkpt lat="49.47006" lon="6.3992">
        <ele>307.6</ele>
        <time>2020-06-26T15:59:40Z</time>
      </trkpt>
      <trkpt lat="49.47005" lon="6.39922">
        <ele>307.8</ele>
        <time>2020-06-26T15:59:41Z</time>
      </trkpt>
      <trkpt lat="49.47005" lon="6.39925">
        <ele>308.1</ele>
        <time>2020-06-26T15:59:42Z</time>
      </trkpt>
      <trkpt lat="49.47004" lon="6.39927">
        <ele>308.2</ele>
        <time>2020-06-26T15:59:43Z</time>
      </trkpt>
      <trkpt lat="49.47003" lon="6.39927">
        <ele>308.3</ele>
        <time>2020-06-26T15:59:44Z</time>
      </trkpt>
      <trkpt lat="49.47003" lon="6.39929">
        <ele>308.5</ele>
        <time>2020-06-26T15:59:45Z</time>
      </trkpt>
      <trkpt lat="49.47002" lon="6.39931">
        <ele>308.7</ele>
        <time>2020-06-26T15:59:46Z</time>
      </trkpt>
      <trkpt lat="49.47" lon="6.39935">
        <ele>309.1</ele>
        <time>2020-06-26T15:59:47Z</time>
      </trkpt>
      <trkpt lat="49.46999" lon="6.39936">
        <ele>309.2</ele>
        <time>2020-06-26T15:59:48Z</time>
      </trkpt>
      <trkpt lat="49.46998" lon="6.39937">
        <ele>309.4</ele>
        <time>2020-06-26T15:59:49Z</time>
      </trkpt>
      <trkpt lat="49.46997" lon="6.39939">
        <ele>309.5</ele>
        <time>2020-06-26T15:59:50Z</time>
      </trkpt>
      <trkpt lat="49.46997" lon="6.3994">
        <ele>309.6</ele>
        <time>2020-06-26T15:59:51Z</time>
      </trkpt>
      <trkpt lat="49.46996" lon="6.39941">
        <ele>309.8</ele>
        <time>2020-06-26T15:59:52Z</time>
      </trkpt>
      <trkpt lat="49.46994" lon="6.39943">
        <ele>310</ele>
        <time>2020-06-26T15:59:53Z</time>
      </trkpt>
      <trkpt lat="49.46993" lon="6.39945">
        <ele>310.3</ele>
        <time>2020-06-26T15:59:54Z</time>
      </trkpt>
      <trkpt lat="49.46992" lon="6.39946">
        <ele>310.6</ele>
        <time>2020-06-26T15:59:55Z</time>
      </trkpt>
      <trkpt lat="49.46989" lon="6.39949">
        <ele>311.1</ele>
        <time>2020-06-26T15:59:56Z</time>
      </trkpt>
      <trkpt lat="49.46988" lon="6.39949">
        <ele>311.2</ele>
        <time>2020-06-26T15:59:57Z</time>
      </trkpt>
      <trkpt lat="49.46987" lon="6.39951">
        <ele>311.5</ele>
        <time>2020-06-26T15:59:58Z</time>
      </trkpt>
      <trkpt lat="49.46986" lon="6.39953">
        <ele>311.8</ele>
        <time>2020-06-26T15:59:59Z</time>
      </trkpt>
      <trkpt lat="49.46985" lon="6.39955">
        <ele>312</ele>
        <time>2020-06-26T16:00:00Z</time>
      </trkpt>
      <trkpt lat="49.46984" lon="6.39957">
        <ele>312.3</ele>
        <time>2020-06-26T16:00:01Z</time>
      </trkpt>
      <trkpt lat="49.46982" lon="6.39961">
        <ele>312.8</ele>
        <time>2020-06-26T16:00:02Z</time>
      </trkpt>
      <trkpt lat="49.46981" lon="6.39963">
        <ele>313</ele>
        <time>2020-06-26T16:00:03Z</time>
      </trkpt>
      <trkpt lat="49.46979" lon="6.39966">
        <ele>313.5</ele>
        <time>2020-06-26T16:00:04Z</time>
      </trkpt>
      <trkpt lat="49.46978" lon="6.39967">
        <ele>313.6</ele>
        <time>2020-06-26T16:00:05Z</time>
      </trkpt>
      <trkpt lat="49.46976" lon="6.3997">
        <ele>314.1</ele>
        <time>2020-06-26T16:00:06Z</time>
      </trkpt>
      <trkpt lat="49.46975" lon="6.39971">
        <ele>314.2</ele>
        <time>2020-06-26T16:00:07Z</time>
      </trkpt>
      <trkpt lat="49.46974" lon="6.39973">
        <ele>314.4</ele>
        <time>2020-06-26T16:00:08Z</time>
      </trkpt>
      <trkpt lat="49.46974" lon="6.39974">
        <ele>314.5</ele>
        <time>2020-06-26T16:00:09Z</time>
      </trkpt>
      <trkpt lat="49.46973" lon="6.39976">
        <ele>314.8</ele>
        <time>2020-06-26T16:00:10Z</time>
      </trkpt>
      <trkpt lat="49.46973" lon="6.39977">
        <ele>314.9</ele>
        <time>2020-06-26T16:00:11Z</time>
      </trkpt>
      <trkpt lat="49.46972" lon="6.3998">
        <ele>315.2</ele>
        <time>2020-06-26T16:00:12Z</time>
      </trkpt>
      <trkpt lat="49.4697" lon="6.39982">
        <ele>315.7</ele>
        <time>2020-06-26T16:00:13Z</time>
      </trkpt>
      <trkpt lat="49.46969" lon="6.39985">
        <ele>315.9</ele>
        <time>2020-06-26T16:00:14Z</time>
      </trkpt>
      <trkpt lat="49.46968" lon="6.39986">
        <ele>316.2</ele>
        <time>2020-06-26T16:00:15Z</time>
      </trkpt>
      <trkpt lat="49.46967" lon="6.39988">
        <ele>316.4</ele>
        <time>2020-06-26T16:00:16Z</time>
      </trkpt>
      <trkpt lat="49.46966" lon="6.3999">
        <ele>316.6</ele>
        <time>2020-06-26T16:00:17Z</time>
      </trkpt>
      <trkpt lat="49.46966" lon="6.39992">
        <ele>316.9</ele>
        <time>2020-06-26T16:00:18Z</time>
      </trkpt>
      <trkpt lat="49.46965" lon="6.39995">
        <ele>317.2</ele>
        <time>2020-06-26T16:00:19Z</time>
      </trkpt>
      <trkpt lat="49.46965" lon="6.39997">
        <ele>317.4</ele>
        <time>2020-06-26T16:00:20Z</time>
      </trkpt>
      <trkpt lat="49.46965" lon="6.39999">
        <ele>317.6</ele>
        <time>2020-06-26T16:00:21Z</time>
      </trkpt>
      <trkpt lat="49.46965" lon="6.40002">
        <ele>317.9</ele>
        <time>2020-06-26T16:00:22Z</time>
      </trkpt>
      <trkpt lat="49.46965" lon="6.40004">
        <ele>318.2</ele>
        <time>2020-06-26T16:00:23Z</time>
      </trkpt>
      <trkpt lat="49.46964" lon="6.40006">
        <ele>318.4</ele>
        <time>2020-06-26T16:00:24Z</time>
      </trkpt>
      <trkpt lat="49.46964" lon="6.40009">
        <ele>318.7</ele>
        <time>2020-06-26T16:00:25Z</time>
      </trkpt>
      <trkpt lat="49.46965" lon="6.40012">
        <ele>319</ele>
        <time>2020-06-26T16:00:26Z</time>
      </trkpt>
      <trkpt lat="49.46966" lon="6.40014">
        <ele>319.3</ele>
        <time>2020-06-26T16:00:27Z</time>
      </trkpt>
      <trkpt lat="49.46966" lon="6.4002">
        <ele>319.8</ele>
        <time>2020-06-26T16:00:28Z</time>
      </trkpt>
      <trkpt lat="49.46967" lon="6.40021">
        <ele>320</ele>
        <time>2020-06-26T16:00:29Z</time>
      </trkpt>
      <trkpt lat="49.46968" lon="6.40025">
        <ele>320.5</ele>
        <time>2020-06-26T16:00:30Z</time>
      </trkpt>
      <trkpt lat="49.46968" lon="6.40027">
        <ele>320.7</ele>
        <time>2020-06-26T16:00:31Z</time>
      </trkpt>
      <trkpt lat="49.46969" lon="6.40032">
        <ele>321.2</ele>
        <time>2020-06-26T16:00:32Z</time>
      </trkpt>
      <trkpt lat="49.46969" lon="6.40034">
        <ele>321.4</ele>
        <time>2020-06-26T16:00:33Z</time>
      </trkpt>
      <trkpt lat="49.46969" lon="6.40037">
        <ele>321.6</ele>
        <time>2020-06-26T16:00:34Z</time>
      </trkpt>
      <trkpt lat="49.46969" lon="6.40038">
        <ele>321.8</ele>
        <time>2020-06-26T16:00:35Z</time>
      </trkpt>
      <trkpt lat="49.46969" lon="6.40041">
        <ele>322</ele>
        <time>2020-06-26T16:00:36Z</time>
      </trkpt>
      <trkpt lat="49.46969" lon="6.40042">
        <ele>322.2</ele>
        <time>2020-06-26T16:00:37Z</time>
      </trkpt>
      <trkpt lat="49.46969" lon="6.40044">
        <ele>322.4</ele>
        <time>2020-06-26T16:00:38Z</time>
      </trkpt>
      <trkpt lat="49.46969" lon="6.40049">
        <ele>322.9</ele>
        <time>2020-06-26T16:00:39Z</time>
      </trkpt>
      <trkpt lat="49.46969" lon="6.4005">
        <ele>323</ele>
        <time>2020-06-26T16:00:40Z</time>
      </trkpt>
      <trkpt lat="49.46969" lon="6.40054">
        <ele>323.3</ele>
        <time>2020-06-26T16:00:41Z</time>
      </trkpt>
      <trkpt lat="49.46969" lon="6.40055">
        <ele>323.4</ele>
        <time>2020-06-26T16:00:42Z</time>
      </trkpt>
      <trkpt lat="49.46969" lon="6.40056">
        <ele>323.5</ele>
        <time>2020-06-26T16:00:43Z</time>
      </trkpt>
      <trkpt lat="49.4697" lon="6.40059">
        <ele>323.8</ele>
        <time>2020-06-26T16:00:44Z</time>
      </trkpt>
      <trkpt lat="49.4697" lon="6.40061">
        <ele>324</ele>
        <time>2020-06-26T16:00:45Z</time>
      </trkpt>
      <trkpt lat="49.46971" lon="6.40063">
        <ele>324.2</ele>
        <time>2020-06-26T16:00:46Z</time>
      </trkpt>
      <trkpt lat="49.46972" lon="6.40065">
        <ele>324.4</ele>
        <time>2020-06-26T16:00:47Z</time>
      </trkpt>
      <trkpt lat="49.46972" lon="6.40067">
        <ele>324.6</ele>
        <time>2020-06-26T16:00:48Z</time>
      </trkpt>
      <trkpt lat="49.46973" lon="6.40069">
        <ele>324.8</ele>
        <time>2020-06-26T16:00:49Z</time>
      </trkpt>
      <trkpt lat="49.46974" lon="6.40071">
        <ele>325</ele>
        <time>2020-06-26T16:00:50Z</time>
      </trkpt>
      <trkpt lat="49.46975" lon="6.40074">
        <ele>325.3</ele>
        <time>2020-06-26T16:00:51Z</time>
      </trkpt>
      <trkpt lat="49.46976" lon="6.40076">
        <ele>325.5</ele>
        <time>2020-06-26T16:00:52Z</time>
      </trkpt>
      <trkpt lat="49.46976" lon="6.40079">
        <ele>325.7</ele>
        <time>2020-06-26T16:00:53Z</time>
      </trkpt>
      <trkpt lat="49.46977" lon="6.4008">
        <ele>325.9</ele>
        <time>2020-06-26T16:00:54Z</time>
      </trkpt>
      <trkpt lat="49.46978" lon="6.40083">
        <ele>326.1</ele>
        <time>2020-06-26T16:00:55Z</time>
      </trkpt>
      <trkpt lat="49.46979" lon="6.40087">
        <ele>326.5</ele>
        <time>2020-06-26T16:00:56Z</time>
      </trkpt>
      <trkpt lat="49.46978" lon="6.40088">
        <ele>326.5</ele>
        <time>2020-06-26T16:00:57Z</time>
      </trkpt>
      <trkpt lat="49.46978" lon="6.40089">
        <ele>326.7</ele>
        <time>2020-06-26T16:00:58Z</time>
      </trkpt>
      <trkpt lat="49.46978" lon="6.40092">
        <ele>326.9</ele>
        <time>2020-06-26T16:00:59Z</time>
      </trkpt>
      <trkpt lat="49.46978" lon="6.40094">
        <ele>327.1</ele>
        <time>2020-06-26T16:01:00Z</time>
      </trkpt>
      <trkpt lat="49.46979" lon="6.40095">
        <ele>327.2</ele>
        <time>2020-06-26T16:01:01Z</time>
      </trkpt>
      <trkpt lat="49.46978" lon="6.40098">
        <ele>327.4</ele>
        <time>2020-06-26T16:01:02Z</time>
      </trkpt>
      <trkpt lat="49.46978" lon="6.401">
        <ele>327.6</ele>
        <time>2020-06-26T16:01:03Z</time>
      </trkpt>
      <trkpt lat="49.46978" lon="6.40101">
        <ele>327.7</ele>
        <time>2020-06-26T16:01:04Z</time>
      </trkpt>
      <trkpt lat="49.46979" lon="6.40103">
        <ele>327.9</ele>
        <time>2020-06-26T16:01:05Z</time>
      </trkpt>
      <trkpt lat="49.46979" lon="6.40106">
        <ele>328.1</ele>
        <time>2020-06-26T16:01:06Z</time>
      </trkpt>
      <trkpt lat="49.4698" lon="6.40108">
        <ele>328.3</ele>
        <time>2020-06-26T16:01:07Z</time>
      </trkpt>
      <trkpt lat="49.46981" lon="6.4011">
        <ele>328.4</ele>
        <time>2020-06-26T16:01:08Z</time>
      </trkpt>
      <trkpt lat="49.46981" lon="6.40112">
        <ele>328.6</ele>
        <time>2020-06-26T16:01:09Z</time>
      </trkpt>
      <trkpt lat="49.46982" lon="6.40114">
        <ele>328.9</ele>
        <time>2020-06-26T16:01:10Z</time>
      </trkpt>
      <trkpt lat="49.46982" lon="6.40117">
        <ele>329.1</ele>
        <time>2020-06-26T16:01:11Z</time>
      </trkpt>
      <trkpt lat="49.46983" lon="6.40119">
        <ele>329.2</ele>
        <time>2020-06-26T16:01:12Z</time>
      </trkpt>
      <trkpt lat="49.46983" lon="6.40122">
        <ele>329.3</ele>
        <time>2020-06-26T16:01:13Z</time>
      </trkpt>
      <trkpt lat="49.46984" lon="6.40123">
        <ele>329.4</ele>
        <time>2020-06-26T16:01:14Z</time>
      </trkpt>
      <trkpt lat="49.46985" lon="6.40126">
        <ele>329.6</ele>
        <time>2020-06-26T16:01:15Z</time>
      </trkpt>
      <trkpt lat="49.46985" lon="6.40128">
        <ele>329.7</ele>
        <time>2020-06-26T16:01:16Z</time>
      </trkpt>
      <trkpt lat="49.46986" lon="6.4013">
        <ele>329.8</ele>
        <time>2020-06-26T16:01:17Z</time>
      </trkpt>
      <trkpt lat="49.46985" lon="6.40132">
        <ele>329.9</ele>
        <time>2020-06-26T16:01:18Z</time>
      </trkpt>
      <trkpt lat="49.46986" lon="6.40133">
        <ele>330</ele>
        <time>2020-06-26T16:01:19Z</time>
      </trkpt>
      <trkpt lat="49.46986" lon="6.40136">
        <ele>330.1</ele>
        <time>2020-06-26T16:01:20Z</time>
      </trkpt>
      <trkpt lat="49.46986" lon="6.40138">
        <ele>330.2</ele>
        <time>2020-06-26T16:01:21Z</time>
      </trkpt>
      <trkpt lat="49.46986" lon="6.40141">
        <ele>330.4</ele>
        <time>2020-06-26T16:01:22Z</time>
      </trkpt>
      <trkpt lat="49.46986" lon="6.40143">
        <ele>330.5</ele>
        <time>2020-06-26T16:01:23Z</time>
      </trkpt>
      <trkpt lat="49.46986" lon="6.40145">
        <ele>330.6</ele>
        <time>2020-06-26T16:01:24Z</time>
      </trkpt>
      <trkpt lat="49.46987" lon="6.40147">
        <ele>330.7</ele>
        <time>2020-06-26T16:01:25Z</time>
      </trkpt>
      <trkpt lat="49.46987" lon="6.40149">
        <ele>330.8</ele>
        <time>2020-06-26T16:01:26Z</time>
      </trkpt>
      <trkpt lat="49.46988" lon="6.40152">
        <ele>331</ele>
        <time>2020-06-26T16:01:27Z</time>
      </trkpt>
      <trkpt lat="49.46989" lon="6.40153">
        <ele>331.1</ele>
        <time>2020-06-26T16:01:28Z</time>
      </trkpt>
      <trkpt lat="49.46989" lon="6.40155">
        <ele>331.3</ele>
        <time>2020-06-26T16:01:29Z</time>
      </trkpt>
      <trkpt lat="49.4699" lon="6.40158">
        <ele>331.5</ele>
        <time>2020-06-26T16:01:30Z</time>
      </trkpt>
      <trkpt lat="49.4699" lon="6.40162">
        <ele>331.9</ele>
        <time>2020-06-26T16:01:31Z</time>
      </trkpt>
      <trkpt lat="49.4699" lon="6.40164">
        <ele>331.9</ele>
        <time>2020-06-26T16:01:32Z</time>
      </trkpt>
      <trkpt lat="49.46991" lon="6.40166">
        <ele>332.1</ele>
        <time>2020-06-26T16:01:33Z</time>
      </trkpt>
      <trkpt lat="49.46992" lon="6.40168">
        <ele>332.3</ele>
        <time>2020-06-26T16:01:34Z</time>
      </trkpt>
      <trkpt lat="49.46992" lon="6.40171">
        <ele>332.5</ele>
        <time>2020-06-26T16:01:35Z</time>
      </trkpt>
      <trkpt lat="49.46992" lon="6.40174">
        <ele>332.7</ele>
        <time>2020-06-26T16:01:36Z</time>
      </trkpt>
      <trkpt lat="49.46992" lon="6.40175">
        <ele>332.8</ele>
        <time>2020-06-26T16:01:37Z</time>
      </trkpt>
      <trkpt lat="49.46992" lon="6.40178">
        <ele>333</ele>
        <time>2020-06-26T16:01:38Z</time>
      </trkpt>
      <trkpt lat="49.46993" lon="6.4018">
        <ele>333.2</ele>
        <time>2020-06-26T16:01:39Z</time>
      </trkpt>
      <trkpt lat="49.46993" lon="6.40182">
        <ele>333.3</ele>
        <time>2020-06-26T16:01:40Z</time>
      </trkpt>
      <trkpt lat="49.46993" lon="6.40183">
        <ele>333.4</ele>
        <time>2020-06-26T16:01:41Z</time>
      </trkpt>
      <trkpt lat="49.46993" lon="6.40186">
        <ele>333.6</ele>
        <time>2020-06-26T16:01:42Z</time>
      </trkpt>
      <trkpt lat="49.46994" lon="6.40188">
        <ele>333.8</ele>
        <time>2020-06-26T16:01:43Z</time>
      </trkpt>
      <trkpt lat="49.46994" lon="6.40191">
        <ele>334</ele>
        <time>2020-06-26T16:01:44Z</time>
      </trkpt>
      <trkpt lat="49.46995" lon="6.40193">
        <ele>334.2</ele>
        <time>2020-06-26T16:01:45Z</time>
      </trkpt>
      <trkpt lat="49.46996" lon="6.40198">
        <ele>334.6</ele>
        <time>2020-06-26T16:01:46Z</time>
      </trkpt>
      <trkpt lat="49.46996" lon="6.40199">
        <ele>334.7</ele>
        <time>2020-06-26T16:01:47Z</time>
      </trkpt>
      <trkpt lat="49.46997" lon="6.40204">
        <ele>335</ele>
        <time>2020-06-26T16:01:48Z</time>
      </trkpt>
      <trkpt lat="49.46997" lon="6.40206">
        <ele>335.2</ele>
        <time>2020-06-26T16:01:49Z</time>
      </trkpt>
      <trkpt lat="49.46997" lon="6.40209">
        <ele>335.4</ele>
        <time>2020-06-26T16:01:50Z</time>
      </trkpt>
      <trkpt lat="49.46998" lon="6.4021">
        <ele>335.5</ele>
        <time>2020-06-26T16:01:51Z</time>
      </trkpt>
      <trkpt lat="49.46998" lon="6.40211">
        <ele>335.6</ele>
        <time>2020-06-26T16:01:52Z</time>
      </trkpt>
      <trkpt lat="49.46999" lon="6.40214">
        <ele>335.8</ele>
        <time>2020-06-26T16:01:53Z</time>
      </trkpt>
      <trkpt lat="49.46999" lon="6.40216">
        <ele>336</ele>
        <time>2020-06-26T16:01:54Z</time>
      </trkpt>
      <trkpt lat="49.47" lon="6.40218">
        <ele>336.1</ele>
        <time>2020-06-26T16:01:55Z</time>
      </trkpt>
      <trkpt lat="49.47" lon="6.40219">
        <ele>336.3</ele>
        <time>2020-06-26T16:01:56Z</time>
      </trkpt>
      <trkpt lat="49.47001" lon="6.40221">
        <ele>336.4</ele>
        <time>2020-06-26T16:01:57Z</time>
      </trkpt>
      <trkpt lat="49.47001" lon="6.40222">
        <ele>336.5</ele>
        <time>2020-06-26T16:01:58Z</time>
      </trkpt>
      <trkpt lat="49.47002" lon="6.40225">
        <ele>336.7</ele>
        <time>2020-06-26T16:01:59Z</time>
      </trkpt>
      <trkpt lat="49.47003" lon="6.40226">
        <ele>336.8</ele>
        <time>2020-06-26T16:02:00Z</time>
      </trkpt>
      <trkpt lat="49.47003" lon="6.40227">
        <ele>336.9</ele>
        <time>2020-06-26T16:02:01Z</time>
      </trkpt>
      <trkpt lat="49.47003" lon="6.40229">
        <ele>337.1</ele>
        <time>2020-06-26T16:02:02Z</time>
      </trkpt>
      <trkpt lat="49.47005" lon="6.40231">
        <ele>337.3</ele>
        <time>2020-06-26T16:02:03Z</time>
      </trkpt>
      <trkpt lat="49.47005" lon="6.40234">
        <ele>337.5</ele>
        <time>2020-06-26T16:02:04Z</time>
      </trkpt>
      <trkpt lat="49.47006" lon="6.40237">
        <ele>337.7</ele>
        <time>2020-06-26T16:02:05Z</time>
      </trkpt>
      <trkpt lat="49.47007" lon="6.4024">
        <ele>338</ele>
        <time>2020-06-26T16:02:06Z</time>
      </trkpt>
      <trkpt lat="49.47007" lon="6.40242">
        <ele>338.1</ele>
        <time>2020-06-26T16:02:07Z</time>
      </trkpt>
      <trkpt lat="49.47007" lon="6.40244">
        <ele>338.3</ele>
        <time>2020-06-26T16:02:08Z</time>
      </trkpt>
      <trkpt lat="49.47007" lon="6.40246">
        <ele>338.4</ele>
        <time>2020-06-26T16:02:09Z</time>
      </trkpt>
      <trkpt lat="49.47009" lon="6.4025">
        <ele>338.8</ele>
        <time>2020-06-26T16:02:10Z</time>
      </trkpt>
      <trkpt lat="49.4701" lon="6.4025">
        <ele>338.9</ele>
        <time>2020-06-26T16:02:11Z</time>
      </trkpt>
      <trkpt lat="49.47011" lon="6.40251">
        <ele>339</ele>
        <time>2020-06-26T16:02:12Z</time>
      </trkpt>
      <trkpt lat="49.47012" lon="6.40252">
        <ele>339.1</ele>
        <time>2020-06-26T16:02:13Z</time>
      </trkpt>
      <trkpt lat="49.47013" lon="6.40253">
        <ele>339.3</ele>
        <time>2020-06-26T16:02:14Z</time>
      </trkpt>
      <trkpt lat="49.47013" lon="6.40255">
        <ele>339.4</ele>
        <time>2020-06-26T16:02:15Z</time>
      </trkpt>
      <trkpt lat="49.47014" lon="6.40256">
        <ele>339.5</ele>
        <time>2020-06-26T16:02:16Z</time>
      </trkpt>
      <trkpt lat="49.47015" lon="6.40256">
        <ele>339.6</ele>
        <time>2020-06-26T16:02:17Z</time>
      </trkpt>
      <trkpt lat="49.47017" lon="6.40258">
        <ele>339.8</ele>
        <time>2020-06-26T16:02:18Z</time>
      </trkpt>
      <trkpt lat="49.47018" lon="6.40258">
        <ele>339.9</ele>
        <time>2020-06-26T16:02:19Z</time>
      </trkpt>
      <trkpt lat="49.47019" lon="6.40259">
        <ele>340.1</ele>
        <time>2020-06-26T16:02:20Z</time>
      </trkpt>
      <trkpt lat="49.4702" lon="6.40259">
        <ele>340.2</ele>
        <time>2020-06-26T16:02:21Z</time>
      </trkpt>
      <trkpt lat="49.47021" lon="6.4026">
        <ele>340.3</ele>
        <time>2020-06-26T16:02:22Z</time>
      </trkpt>
      <trkpt lat="49.47022" lon="6.4026">
        <ele>340.4</ele>
        <time>2020-06-26T16:02:23Z</time>
      </trkpt>
      <trkpt lat="49.47025" lon="6.40262">
        <ele>340.7</ele>
        <time>2020-06-26T16:02:24Z</time>
      </trkpt>
      <trkpt lat="49.47026" lon="6.40264">
        <ele>340.8</ele>
        <time>2020-06-26T16:02:25Z</time>
      </trkpt>
      <trkpt lat="49.47026" lon="6.40265">
        <ele>341</ele>
        <time>2020-06-26T16:02:26Z</time>
      </trkpt>
      <trkpt lat="49.47028" lon="6.40268">
        <ele>341.2</ele>
        <time>2020-06-26T16:02:27Z</time>
      </trkpt>
      <trkpt lat="49.4703" lon="6.40271">
        <ele>341.5</ele>
        <time>2020-06-26T16:02:28Z</time>
      </trkpt>
      <trkpt lat="49.4703" lon="6.40273">
        <ele>341.6</ele>
        <time>2020-06-26T16:02:29Z</time>
      </trkpt>
      <trkpt lat="49.47031" lon="6.40274">
        <ele>341.7</ele>
        <time>2020-06-26T16:02:30Z</time>
      </trkpt>
      <trkpt lat="49.47033" lon="6.40276">
        <ele>341.9</ele>
        <time>2020-06-26T16:02:31Z</time>
      </trkpt>
      <trkpt lat="49.47033" lon="6.40278">
        <ele>342.1</ele>
        <time>2020-06-26T16:02:32Z</time>
      </trkpt>
      <trkpt lat="49.47034" lon="6.4028">
        <ele>342.3</ele>
        <time>2020-06-26T16:02:33Z</time>
      </trkpt>
      <trkpt lat="49.47035" lon="6.40282">
        <ele>342.4</ele>
        <time>2020-06-26T16:02:34Z</time>
      </trkpt>
      <trkpt lat="49.47037" lon="6.40284">
        <ele>342.6</ele>
        <time>2020-06-26T16:02:35Z</time>
      </trkpt>
      <trkpt lat="49.47038" lon="6.40287">
        <ele>342.8</ele>
        <time>2020-06-26T16:02:36Z</time>
      </trkpt>
      <trkpt lat="49.47038" lon="6.40288">
        <ele>342.8</ele>
        <time>2020-06-26T16:02:37Z</time>
      </trkpt>
      <trkpt lat="49.47039" lon="6.40289">
        <ele>342.9</ele>
        <time>2020-06-26T16:02:38Z</time>
      </trkpt>
      <trkpt lat="49.47039" lon="6.40291">
        <ele>343</ele>
        <time>2020-06-26T16:02:39Z</time>
      </trkpt>
      <trkpt lat="49.4704" lon="6.40294">
        <ele>343.2</ele>
        <time>2020-06-26T16:02:40Z</time>
      </trkpt>
      <trkpt lat="49.4704" lon="6.40297">
        <ele>343.4</ele>
        <time>2020-06-26T16:02:41Z</time>
      </trkpt>
      <trkpt lat="49.47041" lon="6.40299">
        <ele>343.5</ele>
        <time>2020-06-26T16:02:42Z</time>
      </trkpt>
      <trkpt lat="49.47041" lon="6.40301">
        <ele>343.7</ele>
        <time>2020-06-26T16:02:43Z</time>
      </trkpt>
      <trkpt lat="49.47042" lon="6.40302">
        <ele>343.8</ele>
        <time>2020-06-26T16:02:44Z</time>
      </trkpt>
      <trkpt lat="49.47043" lon="6.40303">
        <ele>343.9</ele>
        <time>2020-06-26T16:02:45Z</time>
      </trkpt>
      <trkpt lat="49.47045" lon="6.40305">
        <ele>344</ele>
        <time>2020-06-26T16:02:46Z</time>
      </trkpt>
      <trkpt lat="49.47046" lon="6.40305">
        <ele>344.2</ele>
        <time>2020-06-26T16:02:47Z</time>
      </trkpt>
      <trkpt lat="49.47048" lon="6.40307">
        <ele>344.3</ele>
        <time>2020-06-26T16:02:48Z</time>
      </trkpt>
      <trkpt lat="49.47049" lon="6.40309">
        <ele>344.5</ele>
        <time>2020-06-26T16:02:49Z</time>
      </trkpt>
      <trkpt lat="49.4705" lon="6.40311">
        <ele>344.6</ele>
        <time>2020-06-26T16:02:50Z</time>
      </trkpt>
      <trkpt lat="49.47051" lon="6.40312">
        <ele>344.7</ele>
        <time>2020-06-26T16:02:51Z</time>
      </trkpt>
      <trkpt lat="49.47052" lon="6.40314">
        <ele>344.8</ele>
        <time>2020-06-26T16:02:52Z</time>
      </trkpt>
      <trkpt lat="49.47052" lon="6.40315">
        <ele>344.9</ele>
        <time>2020-06-26T16:02:53Z</time>
      </trkpt>
      <trkpt lat="49.47053" lon="6.40317">
        <ele>345.1</ele>
        <time>2020-06-26T16:02:54Z</time>
      </trkpt>
      <trkpt lat="49.47053" lon="6.40318">
        <ele>345.1</ele>
        <time>2020-06-26T16:02:55Z</time>
      </trkpt>
      <trkpt lat="49.47054" lon="6.40319">
        <ele>345.2</ele>
        <time>2020-06-26T16:02:56Z</time>
      </trkpt>
      <trkpt lat="49.47055" lon="6.40323">
        <ele>345.5</ele>
        <time>2020-06-26T16:02:57Z</time>
      </trkpt>
      <trkpt lat="49.47056" lon="6.40325">
        <ele>345.6</ele>
        <time>2020-06-26T16:02:58Z</time>
      </trkpt>
      <trkpt lat="49.47057" lon="6.40329">
        <ele>345.9</ele>
        <time>2020-06-26T16:02:59Z</time>
      </trkpt>
      <trkpt lat="49.47057" lon="6.40331">
        <ele>346</ele>
        <time>2020-06-26T16:03:00Z</time>
      </trkpt>
      <trkpt lat="49.47058" lon="6.40334">
        <ele>346.1</ele>
        <time>2020-06-26T16:03:01Z</time>
      </trkpt>
      <trkpt lat="49.47058" lon="6.40336">
        <ele>346.3</ele>
        <time>2020-06-26T16:03:02Z</time>
      </trkpt>
      <trkpt lat="49.47058" lon="6.40337">
        <ele>346.4</ele>
        <time>2020-06-26T16:03:03Z</time>
      </trkpt>
      <trkpt lat="49.47058" lon="6.40339">
        <ele>346.5</ele>
        <time>2020-06-26T16:03:04Z</time>
      </trkpt>
      <trkpt lat="49.47059" lon="6.40341">
        <ele>346.6</ele>
        <time>2020-06-26T16:03:05Z</time>
      </trkpt>
      <trkpt lat="49.47059" lon="6.40344">
        <ele>346.8</ele>
        <time>2020-06-26T16:03:06Z</time>
      </trkpt>
      <trkpt lat="49.4706" lon="6.40346">
        <ele>346.9</ele>
        <time>2020-06-26T16:03:07Z</time>
      </trkpt>
      <trkpt lat="49.47061" lon="6.40348">
        <ele>347</ele>
        <time>2020-06-26T16:03:08Z</time>
      </trkpt>
      <trkpt lat="49.47062" lon="6.4035">
        <ele>347.2</ele>
        <time>2020-06-26T16:03:09Z</time>
      </trkpt>
      <trkpt lat="49.47062" lon="6.40352">
        <ele>347.3</ele>
        <time>2020-06-26T16:03:10Z</time>
      </trkpt>
      <trkpt lat="49.47063" lon="6.40354">
        <ele>347.4</ele>
        <time>2020-06-26T16:03:11Z</time>
      </trkpt>
      <trkpt lat="49.47063" lon="6.40357">
        <ele>347.6</ele>
        <time>2020-06-26T16:03:12Z</time>
      </trkpt>
      <trkpt lat="49.47063" lon="6.40359">
        <ele>347.7</ele>
        <time>2020-06-26T16:03:13Z</time>
      </trkpt>
      <trkpt lat="49.47064" lon="6.40361">
        <ele>347.8</ele>
        <time>2020-06-26T16:03:14Z</time>
      </trkpt>
      <trkpt lat="49.47065" lon="6.40364">
        <ele>348.1</ele>
        <time>2020-06-26T16:03:15Z</time>
      </trkpt>
      <trkpt lat="49.47065" lon="6.40366">
        <ele>348.2</ele>
        <time>2020-06-26T16:03:16Z</time>
      </trkpt>
      <trkpt lat="49.47067" lon="6.4037">
        <ele>348.4</ele>
        <time>2020-06-26T16:03:17Z</time>
      </trkpt>
      <trkpt lat="49.47068" lon="6.40372">
        <ele>348.5</ele>
        <time>2020-06-26T16:03:18Z</time>
      </trkpt>
      <trkpt lat="49.47069" lon="6.40373">
        <ele>348.7</ele>
        <time>2020-06-26T16:03:19Z</time>
      </trkpt>
      <trkpt lat="49.47069" lon="6.40376">
        <ele>348.8</ele>
        <time>2020-06-26T16:03:20Z</time>
      </trkpt>
      <trkpt lat="49.4707" lon="6.40378">
        <ele>349</ele>
        <time>2020-06-26T16:03:21Z</time>
      </trkpt>
      <trkpt lat="49.4707" lon="6.40381">
        <ele>349.2</ele>
        <time>2020-06-26T16:03:22Z</time>
      </trkpt>
      <trkpt lat="49.47072" lon="6.40387">
        <ele>349.5</ele>
        <time>2020-06-26T16:03:23Z</time>
      </trkpt>
      <trkpt lat="49.47072" lon="6.40388">
        <ele>349.6</ele>
        <time>2020-06-26T16:03:24Z</time>
      </trkpt>
      <trkpt lat="49.47073" lon="6.40391">
        <ele>349.8</ele>
        <time>2020-06-26T16:03:25Z</time>
      </trkpt>
      <trkpt lat="49.47073" lon="6.40393">
        <ele>349.9</ele>
        <time>2020-06-26T16:03:26Z</time>
      </trkpt>
      <trkpt lat="49.47073" lon="6.40395">
        <ele>350</ele>
        <time>2020-06-26T16:03:27Z</time>
      </trkpt>
      <trkpt lat="49.47073" lon="6.40398">
        <ele>350.2</ele>
        <time>2020-06-26T16:03:28Z</time>
      </trkpt>
      <trkpt lat="49.47074" lon="6.40401">
        <ele>350.4</ele>
        <time>2020-06-26T16:03:29Z</time>
      </trkpt>
      <trkpt lat="49.47075" lon="6.40403">
        <ele>350.5</ele>
        <time>2020-06-26T16:03:30Z</time>
      </trkpt>
      <trkpt lat="49.47075" lon="6.40404">
        <ele>350.6</ele>
        <time>2020-06-26T16:03:31Z</time>
      </trkpt>
      <trkpt lat="49.47076" lon="6.40406">
        <ele>350.7</ele>
        <time>2020-06-26T16:03:32Z</time>
      </trkpt>
      <trkpt lat="49.47078" lon="6.40408">
        <ele>350.9</ele>
        <time>2020-06-26T16:03:33Z</time>
      </trkpt>
      <trkpt lat="49.4708" lon="6.40411">
        <ele>351.2</ele>
        <time>2020-06-26T16:03:34Z</time>
      </trkpt>
      <trkpt lat="49.47081" lon="6.40413">
        <ele>351.3</ele>
        <time>2020-06-26T16:03:35Z</time>
      </trkpt>
      <trkpt lat="49.47083" lon="6.40417">
        <ele>351.6</ele>
        <time>2020-06-26T16:03:36Z</time>
      </trkpt>
      <trkpt lat="49.47084" lon="6.40418">
        <ele>351.7</ele>
        <time>2020-06-26T16:03:37Z</time>
      </trkpt>
      <trkpt lat="49.47085" lon="6.40421">
        <ele>351.9</ele>
        <time>2020-06-26T16:03:38Z</time>
      </trkpt>
      <trkpt lat="49.47086" lon="6.40422">
        <ele>352.1</ele>
        <time>2020-06-26T16:03:39Z</time>
      </trkpt>
      <trkpt lat="49.47087" lon="6.40423">
        <ele>352.1</ele>
        <time>2020-06-26T16:03:40Z</time>
      </trkpt>
      <trkpt lat="49.47088" lon="6.40425">
        <ele>352.3</ele>
        <time>2020-06-26T16:03:41Z</time>
      </trkpt>
      <trkpt lat="49.4709" lon="6.40429">
        <ele>352.5</ele>
        <time>2020-06-26T16:03:42Z</time>
      </trkpt>
      <trkpt lat="49.47091" lon="6.4043">
        <ele>352.6</ele>
        <time>2020-06-26T16:03:43Z</time>
      </trkpt>
      <trkpt lat="49.47092" lon="6.40434">
        <ele>352.9</ele>
        <time>2020-06-26T16:03:44Z</time>
      </trkpt>
      <trkpt lat="49.47092" lon="6.40435">
        <ele>353</ele>
        <time>2020-06-26T16:03:45Z</time>
      </trkpt>
      <trkpt lat="49.47092" lon="6.40437">
        <ele>353</ele>
        <time>2020-06-26T16:03:46Z</time>
      </trkpt>
      <trkpt lat="49.47093" lon="6.40441">
        <ele>353.3</ele>
        <time>2020-06-26T16:03:47Z</time>
      </trkpt>
      <trkpt lat="49.47094" lon="6.40442">
        <ele>353.4</ele>
        <time>2020-06-26T16:03:48Z</time>
      </trkpt>
      <trkpt lat="49.47095" lon="6.40446">
        <ele>353.7</ele>
        <time>2020-06-26T16:03:49Z</time>
      </trkpt>
      <trkpt lat="49.47095" lon="6.40448">
        <ele>353.8</ele>
        <time>2020-06-26T16:03:50Z</time>
      </trkpt>
      <trkpt lat="49.47096" lon="6.4045">
        <ele>353.9</ele>
        <time>2020-06-26T16:03:51Z</time>
      </trkpt>
      <trkpt lat="49.47097" lon="6.40452">
        <ele>354.1</ele>
        <time>2020-06-26T16:03:52Z</time>
      </trkpt>
      <trkpt lat="49.47097" lon="6.40455">
        <ele>354.3</ele>
        <time>2020-06-26T16:03:53Z</time>
      </trkpt>
      <trkpt lat="49.47097" lon="6.40457">
        <ele>354.4</ele>
        <time>2020-06-26T16:03:54Z</time>
      </trkpt>
      <trkpt lat="49.47097" lon="6.40461">
        <ele>354.7</ele>
        <time>2020-06-26T16:03:55Z</time>
      </trkpt>
      <trkpt lat="49.47097" lon="6.40463">
        <ele>354.8</ele>
        <time>2020-06-26T16:03:56Z</time>
      </trkpt>
      <trkpt lat="49.47098" lon="6.40468">
        <ele>355.1</ele>
        <time>2020-06-26T16:03:57Z</time>
      </trkpt>
      <trkpt lat="49.47099" lon="6.40469">
        <ele>355.2</ele>
        <time>2020-06-26T16:03:58Z</time>
      </trkpt>
      <trkpt lat="49.471" lon="6.40473">
        <ele>355.5</ele>
        <time>2020-06-26T16:03:59Z</time>
      </trkpt>
      <trkpt lat="49.47101" lon="6.40474">
        <ele>355.6</ele>
        <time>2020-06-26T16:04:00Z</time>
      </trkpt>
      <trkpt lat="49.47102" lon="6.4048">
        <ele>355.9</ele>
        <time>2020-06-26T16:04:01Z</time>
      </trkpt>
      <trkpt lat="49.47102" lon="6.40482">
        <ele>356</ele>
        <time>2020-06-26T16:04:02Z</time>
      </trkpt>
      <trkpt lat="49.47104" lon="6.40486">
        <ele>356.3</ele>
        <time>2020-06-26T16:04:03Z</time>
      </trkpt>
      <trkpt lat="49.47105" lon="6.40487">
        <ele>356.4</ele>
        <time>2020-06-26T16:04:04Z</time>
      </trkpt>
      <trkpt lat="49.47106" lon="6.40492">
        <ele>356.7</ele>
        <time>2020-06-26T16:04:05Z</time>
      </trkpt>
      <trkpt lat="49.47106" lon="6.40493">
        <ele>356.8</ele>
        <time>2020-06-26T16:04:06Z</time>
      </trkpt>
      <trkpt lat="49.47107" lon="6.40498">
        <ele>357.1</ele>
        <time>2020-06-26T16:04:07Z</time>
      </trkpt>
      <trkpt lat="49.47108" lon="6.405">
        <ele>357.2</ele>
        <time>2020-06-26T16:04:08Z</time>
      </trkpt>
      <trkpt lat="49.47108" lon="6.40503">
        <ele>357.3</ele>
        <time>2020-06-26T16:04:09Z</time>
      </trkpt>
      <trkpt lat="49.47108" lon="6.40505">
        <ele>357.5</ele>
        <time>2020-06-26T16:04:10Z</time>
      </trkpt>
      <trkpt lat="49.47108" lon="6.4051">
        <ele>357.7</ele>
        <time>2020-06-26T16:04:11Z</time>
      </trkpt>
      <trkpt lat="49.47107" lon="6.40511">
        <ele>357.8</ele>
        <time>2020-06-26T16:04:12Z</time>
      </trkpt>
      <trkpt lat="49.47107" lon="6.40515">
        <ele>358.9</ele>
        <time>2020-06-26T16:04:13Z</time>
      </trkpt>
      <trkpt lat="49.47107" lon="6.40516">
        <ele>358.9</ele>
        <time>2020-06-26T16:04:14Z</time>
      </trkpt>
      <trkpt lat="49.47107" lon="6.40518">
        <ele>358.9</ele>
        <time>2020-06-26T16:04:15Z</time>
      </trkpt>
      <trkpt lat="49.47107" lon="6.4052">
        <ele>358.9</ele>
        <time>2020-06-26T16:04:16Z</time>
      </trkpt>
      <trkpt lat="49.47106" lon="6.4052">
        <ele>358.8</ele>
        <time>2020-06-26T16:04:17Z</time>
      </trkpt>
      <trkpt lat="49.47106" lon="6.40521">
        <ele>358.8</ele>
        <time>2020-06-26T16:04:18Z</time>
      </trkpt>
      <trkpt lat="49.47106" lon="6.40521">
        <ele>358.8</ele>
        <time>2020-06-26T16:04:19Z</time>
      </trkpt>
      <trkpt lat="49.47106" lon="6.40521">
        <ele>358.8</ele>
        <time>2020-06-26T16:04:20Z</time>
      </trkpt>
      <trkpt lat="49.47106" lon="6.40521">
        <ele>358.8</ele>
        <time>2020-06-26T16:04:21Z</time>
      </trkpt>
      <trkpt lat="49.47106" lon="6.40521">
        <ele>358.8</ele>
        <time>2020-06-26T16:04:22Z</time>
      </trkpt>
      <trkpt lat="49.47106" lon="6.40521">
        <ele>358.8</ele>
        <time>2020-06-26T16:04:23Z</time>
      </trkpt>
      <trkpt lat="49.47106" lon="6.40521">
        <ele>358.8</ele>
        <time>2020-06-26T16:04:24Z</time>
      </trkpt>
      <trkpt lat="49.47101" lon="6.40526">
        <ele>358.8</ele>
        <time>2020-06-26T16:04:25Z</time>
      </trkpt>
      <trkpt lat="49.47097" lon="6.4053">
        <ele>358.7</ele>
        <time>2020-06-26T16:06:37Z</time>
      </trkpt>
      <trkpt lat="49.47093" lon="6.40534">
        <ele>358.7</ele>
        <time>2020-06-26T16:06:38Z</time>
      </trkpt>
      <trkpt lat="49.4709" lon="6.40533">
        <ele>358.6</ele>
        <time>2020-06-26T16:06:39Z</time>
      </trkpt>
      <trkpt lat="49.47087" lon="6.40533">
        <ele>358.6</ele>
        <time>2020-06-26T16:06:40Z</time>
      </trkpt>
      <trkpt lat="49.47083" lon="6.40532">
        <ele>358.6</ele>
        <time>2020-06-26T16:06:41Z</time>
      </trkpt>
      <trkpt lat="49.47081" lon="6.40532">
        <ele>358.6</ele>
        <time>2020-06-26T16:06:42Z</time>
      </trkpt>
      <trkpt lat="49.47078" lon="6.40531">
        <ele>358.6</ele>
        <time>2020-06-26T16:06:43Z</time>
      </trkpt>
      <trkpt lat="49.47076" lon="6.40531">
        <ele>358.6</ele>
        <time>2020-06-26T16:06:44Z</time>
      </trkpt>
      <trkpt lat="49.47072" lon="6.40531">
        <ele>358.6</ele>
        <time>2020-06-26T16:06:45Z</time>
      </trkpt>
      <trkpt lat="49.47071" lon="6.40531">
        <ele>358.6</ele>
        <time>2020-06-26T16:06:46Z</time>
      </trkpt>
      <trkpt lat="49.47068" lon="6.40531">
        <ele>358.6</ele>
        <time>2020-06-26T16:06:47Z</time>
      </trkpt>
      <trkpt lat="49.47064" lon="6.4053">
        <ele>358.7</ele>
        <time>2020-06-26T16:06:48Z</time>
      </trkpt>
      <trkpt lat="49.47063" lon="6.4053">
        <ele>358.7</ele>
        <time>2020-06-26T16:06:49Z</time>
      </trkpt>
      <trkpt lat="49.4706" lon="6.40531">
        <ele>358.7</ele>
        <time>2020-06-26T16:06:50Z</time>
      </trkpt>
      <trkpt lat="49.47056" lon="6.40532">
        <ele>358.8</ele>
        <time>2020-06-26T16:06:51Z</time>
      </trkpt>
      <trkpt lat="49.47055" lon="6.40532">
        <ele>358.8</ele>
        <time>2020-06-26T16:06:52Z</time>
      </trkpt>
      <trkpt lat="49.47051" lon="6.40532">
        <ele>358.9</ele>
        <time>2020-06-26T16:06:53Z</time>
      </trkpt>
      <trkpt lat="49.47047" lon="6.40533">
        <ele>359</ele>
        <time>2020-06-26T16:06:54Z</time>
      </trkpt>
      <trkpt lat="49.47044" lon="6.40533">
        <ele>359.1</ele>
        <time>2020-06-26T16:06:55Z</time>
      </trkpt>
      <trkpt lat="49.4704" lon="6.40533">
        <ele>359.2</ele>
        <time>2020-06-26T16:06:56Z</time>
      </trkpt>
      <trkpt lat="49.47037" lon="6.40533">
        <ele>359.4</ele>
        <time>2020-06-26T16:06:57Z</time>
      </trkpt>
      <trkpt lat="49.47033" lon="6.40532">
        <ele>359.5</ele>
        <time>2020-06-26T16:06:58Z</time>
      </trkpt>
      <trkpt lat="49.4703" lon="6.40533">
        <ele>359.6</ele>
        <time>2020-06-26T16:06:59Z</time>
      </trkpt>
      <trkpt lat="49.47027" lon="6.40533">
        <ele>359.8</ele>
        <time>2020-06-26T16:07:00Z</time>
      </trkpt>
      <trkpt lat="49.47024" lon="6.40533">
        <ele>359.9</ele>
        <time>2020-06-26T16:07:01Z</time>
      </trkpt>
      <trkpt lat="49.4702" lon="6.40532">
        <ele>360.1</ele>
        <time>2020-06-26T16:07:02Z</time>
      </trkpt>
      <trkpt lat="49.47017" lon="6.40532">
        <ele>360.2</ele>
        <time>2020-06-26T16:07:03Z</time>
      </trkpt>
      <trkpt lat="49.47014" lon="6.40532">
        <ele>360.4</ele>
        <time>2020-06-26T16:07:04Z</time>
      </trkpt>
      <trkpt lat="49.47011" lon="6.40533">
        <ele>360.5</ele>
        <time>2020-06-26T16:07:05Z</time>
      </trkpt>
      <trkpt lat="49.47008" lon="6.40533">
        <ele>360.6</ele>
        <time>2020-06-26T16:07:06Z</time>
      </trkpt>
      <trkpt lat="49.47005" lon="6.40534">
        <ele>360.7</ele>
        <time>2020-06-26T16:07:07Z</time>
      </trkpt>
      <trkpt lat="49.47002" lon="6.40535">
        <ele>360.9</ele>
        <time>2020-06-26T16:07:08Z</time>
      </trkpt>
      <trkpt lat="49.46998" lon="6.40536">
        <ele>361</ele>
        <time>2020-06-26T16:07:09Z</time>
      </trkpt>
      <trkpt lat="49.46996" lon="6.40536">
        <ele>361.1</ele>
        <time>2020-06-26T16:07:10Z</time>
      </trkpt>
      <trkpt lat="49.46993" lon="6.40536">
        <ele>361.2</ele>
        <time>2020-06-26T16:07:11Z</time>
      </trkpt>
      <trkpt lat="49.4699" lon="6.40536">
        <ele>361.3</ele>
        <time>2020-06-26T16:07:12Z</time>
      </trkpt>
      <trkpt lat="49.46986" lon="6.40536">
        <ele>361.4</ele>
        <time>2020-06-26T16:07:13Z</time>
      </trkpt>
      <trkpt lat="49.46985" lon="6.40536">
        <ele>361.5</ele>
        <time>2020-06-26T16:07:14Z</time>
      </trkpt>
      <trkpt lat="49.46982" lon="6.40536">
        <ele>361.6</ele>
        <time>2020-06-26T16:07:15Z</time>
      </trkpt>
      <trkpt lat="49.46978" lon="6.40536">
        <ele>361.8</ele>
        <time>2020-06-26T16:07:16Z</time>
      </trkpt>
      <trkpt lat="49.46975" lon="6.40537">
        <ele>361.9</ele>
        <time>2020-06-26T16:07:17Z</time>
      </trkpt>
      <trkpt lat="49.46972" lon="6.40537">
        <ele>362</ele>
        <time>2020-06-26T16:07:18Z</time>
      </trkpt>
      <trkpt lat="49.46969" lon="6.40539">
        <ele>362.1</ele>
        <time>2020-06-26T16:07:19Z</time>
      </trkpt>
      <trkpt lat="49.46966" lon="6.40539">
        <ele>362.2</ele>
        <time>2020-06-26T16:07:20Z</time>
      </trkpt>
      <trkpt lat="49.46962" lon="6.40539">
        <ele>362.3</ele>
        <time>2020-06-26T16:07:21Z</time>
      </trkpt>
      <trkpt lat="49.46959" lon="6.4054">
        <ele>362.4</ele>
        <time>2020-06-26T16:07:22Z</time>
      </trkpt>
      <trkpt lat="49.46955" lon="6.40542">
        <ele>362.5</ele>
        <time>2020-06-26T16:07:23Z</time>
      </trkpt>
      <trkpt lat="49.46952" lon="6.40543">
        <ele>362.6</ele>
        <time>2020-06-26T16:07:24Z</time>
      </trkpt>
      <trkpt lat="49.46948" lon="6.40544">
        <ele>362.7</ele>
        <time>2020-06-26T16:07:25Z</time>
      </trkpt>
      <trkpt lat="49.46944" lon="6.40544">
        <ele>362.8</ele>
        <time>2020-06-26T16:07:26Z</time>
      </trkpt>
      <trkpt lat="49.46943" lon="6.40545">
        <ele>362.8</ele>
        <time>2020-06-26T16:07:27Z</time>
      </trkpt>
      <trkpt lat="49.4694" lon="6.40546">
        <ele>362.9</ele>
        <time>2020-06-26T16:07:28Z</time>
      </trkpt>
      <trkpt lat="49.46936" lon="6.40547">
        <ele>362.9</ele>
        <time>2020-06-26T16:07:29Z</time>
      </trkpt>
      <trkpt lat="49.46935" lon="6.40548">
        <ele>362.9</ele>
        <time>2020-06-26T16:07:30Z</time>
      </trkpt>
      <trkpt lat="49.46932" lon="6.40549">
        <ele>363</ele>
        <time>2020-06-26T16:07:31Z</time>
      </trkpt>
      <trkpt lat="49.46929" lon="6.4055">
        <ele>363</ele>
        <time>2020-06-26T16:07:32Z</time>
      </trkpt>
      <trkpt lat="49.46926" lon="6.40552">
        <ele>363</ele>
        <time>2020-06-26T16:07:33Z</time>
      </trkpt>
      <trkpt lat="49.46923" lon="6.40553">
        <ele>363</ele>
        <time>2020-06-26T16:07:34Z</time>
      </trkpt>
      <trkpt lat="49.4692" lon="6.40554">
        <ele>363</ele>
        <time>2020-06-26T16:07:35Z</time>
      </trkpt>
      <trkpt lat="49.46918" lon="6.40554">
        <ele>362.9</ele>
        <time>2020-06-26T16:07:36Z</time>
      </trkpt>
      <trkpt lat="49.46916" lon="6.40556">
        <ele>362.9</ele>
        <time>2020-06-26T16:07:37Z</time>
      </trkpt>
      <trkpt lat="49.46913" lon="6.40558">
        <ele>362.8</ele>
        <time>2020-06-26T16:07:38Z</time>
      </trkpt>
      <trkpt lat="49.46911" lon="6.40561">
        <ele>362.8</ele>
        <time>2020-06-26T16:07:39Z</time>
      </trkpt>
      <trkpt lat="49.46908" lon="6.40563">
        <ele>362.7</ele>
        <time>2020-06-26T16:07:40Z</time>
      </trkpt>
      <trkpt lat="49.46905" lon="6.40564">
        <ele>362.5</ele>
        <time>2020-06-26T16:07:41Z</time>
      </trkpt>
      <trkpt lat="49.46904" lon="6.40564">
        <ele>362.5</ele>
        <time>2020-06-26T16:07:42Z</time>
      </trkpt>
      <trkpt lat="49.46902" lon="6.40565">
        <ele>362.4</ele>
        <time>2020-06-26T16:07:43Z</time>
      </trkpt>
      <trkpt lat="49.46901" lon="6.40564">
        <ele>362.4</ele>
        <time>2020-06-26T16:07:44Z</time>
      </trkpt>
      <trkpt lat="49.469" lon="6.40564">
        <ele>362.4</ele>
        <time>2020-06-26T16:07:45Z</time>
      </trkpt>
      <trkpt lat="49.469" lon="6.40564">
        <ele>362.4</ele>
        <time>2020-06-26T16:07:46Z</time>
      </trkpt>
      <trkpt lat="49.46899" lon="6.40565">
        <ele>362.3</ele>
        <time>2020-06-26T16:07:47Z</time>
      </trkpt>
      <trkpt lat="49.46899" lon="6.40565">
        <ele>362.3</ele>
        <time>2020-06-26T16:07:48Z</time>
      </trkpt>
      <trkpt lat="49.46898" lon="6.40565">
        <ele>362.3</ele>
        <time>2020-06-26T16:07:49Z</time>
      </trkpt>
      <trkpt lat="49.46898" lon="6.40565">
        <ele>362.3</ele>
        <time>2020-06-26T16:07:50Z</time>
      </trkpt>
      <trkpt lat="49.46897" lon="6.40565">
        <ele>362.3</ele>
        <time>2020-06-26T16:07:51Z</time>
      </trkpt>
      <trkpt lat="49.46897" lon="6.40566">
        <ele>362.2</ele>
        <time>2020-06-26T16:07:52Z</time>
      </trkpt>
      <trkpt lat="49.46897" lon="6.40566">
        <ele>362.2</ele>
        <time>2020-06-26T16:07:53Z</time>
      </trkpt>
      <trkpt lat="49.46896" lon="6.40566">
        <ele>362.2</ele>
        <time>2020-06-26T16:07:54Z</time>
      </trkpt>
      <trkpt lat="49.46896" lon="6.40566">
        <ele>362.2</ele>
        <time>2020-06-26T16:07:55Z</time>
      </trkpt>
      <trkpt lat="49.46895" lon="6.40567">
        <ele>362.1</ele>
        <time>2020-06-26T16:07:56Z</time>
      </trkpt>
      <trkpt lat="49.46895" lon="6.40567">
        <ele>362.1</ele>
        <time>2020-06-26T16:10:22Z</time>
      </trkpt>
      <trkpt lat="49.46894" lon="6.40567">
        <ele>362.1</ele>
        <time>2020-06-26T16:10:23Z</time>
      </trkpt>
      <trkpt lat="49.46892" lon="6.4057">
        <ele>361.9</ele>
        <time>2020-06-26T16:10:24Z</time>
      </trkpt>
      <trkpt lat="49.46889" lon="6.40574">
        <ele>361.8</ele>
        <time>2020-06-26T16:10:25Z</time>
      </trkpt>
      <trkpt lat="49.46886" lon="6.40577">
        <ele>361.6</ele>
        <time>2020-06-26T16:10:26Z</time>
      </trkpt>
      <trkpt lat="49.46884" lon="6.40579">
        <ele>361.4</ele>
        <time>2020-06-26T16:10:27Z</time>
      </trkpt>
      <trkpt lat="49.46881" lon="6.40582">
        <ele>361.1</ele>
        <time>2020-06-26T16:10:28Z</time>
      </trkpt>
      <trkpt lat="49.46877" lon="6.40584">
        <ele>360.9</ele>
        <time>2020-06-26T16:10:29Z</time>
      </trkpt>
      <trkpt lat="49.46873" lon="6.40587">
        <ele>360.5</ele>
        <time>2020-06-26T16:10:30Z</time>
      </trkpt>
      <trkpt lat="49.46869" lon="6.4059">
        <ele>360.1</ele>
        <time>2020-06-26T16:10:31Z</time>
      </trkpt>
      <trkpt lat="49.46865" lon="6.40595">
        <ele>359.6</ele>
        <time>2020-06-26T16:10:32Z</time>
      </trkpt>
      <trkpt lat="49.46859" lon="6.406">
        <ele>359</ele>
        <time>2020-06-26T16:10:33Z</time>
      </trkpt>
      <trkpt lat="49.46853" lon="6.40605">
        <ele>358.4</ele>
        <time>2020-06-26T16:10:34Z</time>
      </trkpt>
      <trkpt lat="49.46846" lon="6.40612">
        <ele>357.6</ele>
        <time>2020-06-26T16:10:35Z</time>
      </trkpt>
      <trkpt lat="49.46839" lon="6.40621">
        <ele>356.9</ele>
        <time>2020-06-26T16:10:36Z</time>
      </trkpt>
      <trkpt lat="49.46832" lon="6.40627">
        <ele>356.3</ele>
        <time>2020-06-26T16:10:37Z</time>
      </trkpt>
      <trkpt lat="49.46824" lon="6.40635">
        <ele>355.8</ele>
        <time>2020-06-26T16:10:38Z</time>
      </trkpt>
      <trkpt lat="49.46815" lon="6.40644">
        <ele>355.4</ele>
        <time>2020-06-26T16:10:39Z</time>
      </trkpt>
      <trkpt lat="49.46808" lon="6.40651">
        <ele>355.3</ele>
        <time>2020-06-26T16:10:40Z</time>
      </trkpt>
      <trkpt lat="49.46801" lon="6.40658">
        <ele>355.3</ele>
        <time>2020-06-26T16:10:41Z</time>
      </trkpt>
      <trkpt lat="49.46795" lon="6.40664">
        <ele>355.4</ele>
        <time>2020-06-26T16:10:42Z</time>
      </trkpt>
      <trkpt lat="49.46788" lon="6.4067">
        <ele>355.6</ele>
        <time>2020-06-26T16:10:43Z</time>
      </trkpt>
      <trkpt lat="49.46782" lon="6.40676">
        <ele>355.8</ele>
        <time>2020-06-26T16:10:44Z</time>
      </trkpt>
      <trkpt lat="49.46776" lon="6.40682">
        <ele>356.1</ele>
        <time>2020-06-26T16:10:45Z</time>
      </trkpt>
      <trkpt lat="49.46771" lon="6.40687">
        <ele>356.4</ele>
        <time>2020-06-26T16:10:46Z</time>
      </trkpt>
      <trkpt lat="49.46766" lon="6.40692">
        <ele>356.7</ele>
        <time>2020-06-26T16:10:47Z</time>
      </trkpt>
      <trkpt lat="49.46762" lon="6.40696">
        <ele>357</ele>
        <time>2020-06-26T16:10:48Z</time>
      </trkpt>
      <trkpt lat="49.46758" lon="6.40701">
        <ele>357.3</ele>
        <time>2020-06-26T16:10:49Z</time>
      </trkpt>
      <trkpt lat="49.46754" lon="6.40705">
        <ele>357.6</ele>
        <time>2020-06-26T16:10:50Z</time>
      </trkpt>
      <trkpt lat="49.46751" lon="6.40708">
        <ele>357.8</ele>
        <time>2020-06-26T16:10:51Z</time>
      </trkpt>
      <trkpt lat="49.46748" lon="6.40711">
        <ele>358</ele>
        <time>2020-06-26T16:10:52Z</time>
      </trkpt>
      <trkpt lat="49.46746" lon="6.40715">
        <ele>358.2</ele>
        <time>2020-06-26T16:10:53Z</time>
      </trkpt>
      <trkpt lat="49.46745" lon="6.40719">
        <ele>358.3</ele>
        <time>2020-06-26T16:10:54Z</time>
      </trkpt>
      <trkpt lat="49.46742" lon="6.40722">
        <ele>358.4</ele>
        <time>2020-06-26T16:10:55Z</time>
      </trkpt>
      <trkpt lat="49.46741" lon="6.40723">
        <ele>358.5</ele>
        <time>2020-06-26T16:10:56Z</time>
      </trkpt>
      <trkpt lat="49.46739" lon="6.40722">
        <ele>358.5</ele>
        <time>2020-06-26T16:10:57Z</time>
      </trkpt>
      <trkpt lat="49.46737" lon="6.40722">
        <ele>358.6</ele>
        <time>2020-06-26T16:10:58Z</time>
      </trkpt>
      <trkpt lat="49.46734" lon="6.40721">
        <ele>358.7</ele>
        <time>2020-06-26T16:10:59Z</time>
      </trkpt>
      <trkpt lat="49.46733" lon="6.40721">
        <ele>358.8</ele>
        <time>2020-06-26T16:11:00Z</time>
      </trkpt>
      <trkpt lat="49.46731" lon="6.4072">
        <ele>358.9</ele>
        <time>2020-06-26T16:11:01Z</time>
      </trkpt>
      <trkpt lat="49.46731" lon="6.40718">
        <ele>359</ele>
        <time>2020-06-26T16:11:02Z</time>
      </trkpt>
      <trkpt lat="49.4673" lon="6.40718">
        <ele>359</ele>
        <time>2020-06-26T16:11:03Z</time>
      </trkpt>
      <trkpt lat="49.46729" lon="6.40717">
        <ele>359</ele>
        <time>2020-06-26T16:11:04Z</time>
      </trkpt>
      <trkpt lat="49.46729" lon="6.40717">
        <ele>359.1</ele>
        <time>2020-06-26T16:11:05Z</time>
      </trkpt>
      <trkpt lat="49.46728" lon="6.40717">
        <ele>359.1</ele>
        <time>2020-06-26T16:11:06Z</time>
      </trkpt>
      <trkpt lat="49.46728" lon="6.40717">
        <ele>359.1</ele>
        <time>2020-06-26T16:11:07Z</time>
      </trkpt>
      <trkpt lat="49.46728" lon="6.40717">
        <ele>359.1</ele>
        <time>2020-06-26T16:11:08Z</time>
      </trkpt>
      <trkpt lat="49.46728" lon="6.40716">
        <ele>359.2</ele>
        <time>2020-06-26T16:11:09Z</time>
      </trkpt>
      <trkpt lat="49.46728" lon="6.40716">
        <ele>359.2</ele>
        <time>2020-06-26T16:11:10Z</time>
      </trkpt>
      <trkpt lat="49.46728" lon="6.40717">
        <ele>359.2</ele>
        <time>2020-06-26T16:11:11Z</time>
      </trkpt>
      <trkpt lat="49.46728" lon="6.40719">
        <ele>359.3</ele>
        <time>2020-06-26T16:11:12Z</time>
      </trkpt>
      <trkpt lat="49.46728" lon="6.40722">
        <ele>359.4</ele>
        <time>2020-06-26T16:11:13Z</time>
      </trkpt>
      <trkpt lat="49.46728" lon="6.40724">
        <ele>359.5</ele>
        <time>2020-06-26T16:11:14Z</time>
      </trkpt>
      <trkpt lat="49.46728" lon="6.40726">
        <ele>359.6</ele>
        <time>2020-06-26T16:11:15Z</time>
      </trkpt>
      <trkpt lat="49.46728" lon="6.40729">
        <ele>359.7</ele>
        <time>2020-06-26T16:11:16Z</time>
      </trkpt>
      <trkpt lat="49.46728" lon="6.40731">
        <ele>359.8</ele>
        <time>2020-06-26T16:11:53Z</time>
      </trkpt>
      <trkpt lat="49.46728" lon="6.40734">
        <ele>359.9</ele>
        <time>2020-06-26T16:11:54Z</time>
      </trkpt>
      <trkpt lat="49.46727" lon="6.40739">
        <ele>360.1</ele>
        <time>2020-06-26T16:11:55Z</time>
      </trkpt>
      <trkpt lat="49.46727" lon="6.4074">
        <ele>360.2</ele>
        <time>2020-06-26T16:11:56Z</time>
      </trkpt>
      <trkpt lat="49.46726" lon="6.40742">
        <ele>360.2</ele>
        <time>2020-06-26T16:11:57Z</time>
      </trkpt>
      <trkpt lat="49.46725" lon="6.40744">
        <ele>360.3</ele>
        <time>2020-06-26T16:11:58Z</time>
      </trkpt>
      <trkpt lat="49.46722" lon="6.40746">
        <ele>360.5</ele>
        <time>2020-06-26T16:11:59Z</time>
      </trkpt>
      <trkpt lat="49.46721" lon="6.40746">
        <ele>360.6</ele>
        <time>2020-06-26T16:12:00Z</time>
      </trkpt>
      <trkpt lat="49.4672" lon="6.40748">
        <ele>360.7</ele>
        <time>2020-06-26T16:12:01Z</time>
      </trkpt>
      <trkpt lat="49.46718" lon="6.40749">
        <ele>360.8</ele>
        <time>2020-06-26T16:12:02Z</time>
      </trkpt>
      <trkpt lat="49.46715" lon="6.40753">
        <ele>361</ele>
        <time>2020-06-26T16:12:03Z</time>
      </trkpt>
      <trkpt lat="49.46714" lon="6.40755">
        <ele>361.1</ele>
        <time>2020-06-26T16:12:04Z</time>
      </trkpt>
      <trkpt lat="49.46712" lon="6.4076">
        <ele>361.4</ele>
        <time>2020-06-26T16:12:05Z</time>
      </trkpt>
      <trkpt lat="49.4671" lon="6.40764">
        <ele>361.6</ele>
        <time>2020-06-26T16:12:06Z</time>
      </trkpt>
      <trkpt lat="49.46709" lon="6.40769">
        <ele>361.8</ele>
        <time>2020-06-26T16:12:07Z</time>
      </trkpt>
      <trkpt lat="49.46708" lon="6.4077">
        <ele>361.9</ele>
        <time>2020-06-26T16:12:08Z</time>
      </trkpt>
      <trkpt lat="49.46705" lon="6.40774">
        <ele>362.1</ele>
        <time>2020-06-26T16:12:09Z</time>
      </trkpt>
      <trkpt lat="49.46704" lon="6.40775">
        <ele>362.2</ele>
        <time>2020-06-26T16:12:10Z</time>
      </trkpt>
      <trkpt lat="49.46702" lon="6.40778">
        <ele>362.3</ele>
        <time>2020-06-26T16:12:11Z</time>
      </trkpt>
      <trkpt lat="49.467" lon="6.4078">
        <ele>362.5</ele>
        <time>2020-06-26T16:12:12Z</time>
      </trkpt>
      <trkpt lat="49.46697" lon="6.40784">
        <ele>362.6</ele>
        <time>2020-06-26T16:12:13Z</time>
      </trkpt>
      <trkpt lat="49.46694" lon="6.40788">
        <ele>362.8</ele>
        <time>2020-06-26T16:12:14Z</time>
      </trkpt>
      <trkpt lat="49.46691" lon="6.40793">
        <ele>363</ele>
        <time>2020-06-26T16:12:15Z</time>
      </trkpt>
      <trkpt lat="49.46688" lon="6.40797">
        <ele>363.2</ele>
        <time>2020-06-26T16:12:16Z</time>
      </trkpt>
      <trkpt lat="49.46685" lon="6.40802">
        <ele>363.3</ele>
        <time>2020-06-26T16:12:17Z</time>
      </trkpt>
      <trkpt lat="49.46682" lon="6.40807">
        <ele>363.5</ele>
        <time>2020-06-26T16:12:18Z</time>
      </trkpt>
      <trkpt lat="49.46679" lon="6.40811">
        <ele>363.6</ele>
        <time>2020-06-26T16:12:19Z</time>
      </trkpt>
      <trkpt lat="49.46677" lon="6.40815">
        <ele>363.8</ele>
        <time>2020-06-26T16:12:20Z</time>
      </trkpt>
      <trkpt lat="49.46674" lon="6.4082">
        <ele>364</ele>
        <time>2020-06-26T16:12:21Z</time>
      </trkpt>
      <trkpt lat="49.46672" lon="6.40825">
        <ele>364.1</ele>
        <time>2020-06-26T16:12:22Z</time>
      </trkpt>
      <trkpt lat="49.46669" lon="6.40829">
        <ele>364.3</ele>
        <time>2020-06-26T16:12:23Z</time>
      </trkpt>
      <trkpt lat="49.46666" lon="6.40833">
        <ele>364.5</ele>
        <time>2020-06-26T16:12:24Z</time>
      </trkpt>
      <trkpt lat="49.46664" lon="6.40838">
        <ele>364.6</ele>
        <time>2020-06-26T16:12:25Z</time>
      </trkpt>
      <trkpt lat="49.46661" lon="6.40843">
        <ele>364.8</ele>
        <time>2020-06-26T16:12:26Z</time>
      </trkpt>
      <trkpt lat="49.46659" lon="6.40847">
        <ele>365</ele>
        <time>2020-06-26T16:12:27Z</time>
      </trkpt>
      <trkpt lat="49.46656" lon="6.40851">
        <ele>365.2</ele>
        <time>2020-06-26T16:12:28Z</time>
      </trkpt>
      <trkpt lat="49.46652" lon="6.40855">
        <ele>365.4</ele>
        <time>2020-06-26T16:12:29Z</time>
      </trkpt>
      <trkpt lat="49.46649" lon="6.40859">
        <ele>365.6</ele>
        <time>2020-06-26T16:12:30Z</time>
      </trkpt>
      <trkpt lat="49.46647" lon="6.40863">
        <ele>365.8</ele>
        <time>2020-06-26T16:12:31Z</time>
      </trkpt>
      <trkpt lat="49.46643" lon="6.40868">
        <ele>366.1</ele>
        <time>2020-06-26T16:12:32Z</time>
      </trkpt>
      <trkpt lat="49.4664" lon="6.40873">
        <ele>366.4</ele>
        <time>2020-06-26T16:12:33Z</time>
      </trkpt>
      <trkpt lat="49.46636" lon="6.40879">
        <ele>366.7</ele>
        <time>2020-06-26T16:12:34Z</time>
      </trkpt>
      <trkpt lat="49.46633" lon="6.40883">
        <ele>367</ele>
        <time>2020-06-26T16:12:35Z</time>
      </trkpt>
      <trkpt lat="49.4663" lon="6.40888">
        <ele>367.2</ele>
        <time>2020-06-26T16:12:36Z</time>
      </trkpt>
      <trkpt lat="49.46627" lon="6.40891">
        <ele>367.5</ele>
        <time>2020-06-26T16:12:37Z</time>
      </trkpt>
      <trkpt lat="49.46625" lon="6.40895">
        <ele>367.7</ele>
        <time>2020-06-26T16:12:38Z</time>
      </trkpt>
      <trkpt lat="49.46622" lon="6.40899">
        <ele>368</ele>
        <time>2020-06-26T16:12:39Z</time>
      </trkpt>
      <trkpt lat="49.4662" lon="6.40903">
        <ele>368.3</ele>
        <time>2020-06-26T16:12:40Z</time>
      </trkpt>
      <trkpt lat="49.46617" lon="6.40907">
        <ele>368.5</ele>
        <time>2020-06-26T16:12:41Z</time>
      </trkpt>
      <trkpt lat="49.46615" lon="6.40911">
        <ele>368.8</ele>
        <time>2020-06-26T16:12:42Z</time>
      </trkpt>
      <trkpt lat="49.46613" lon="6.40914">
        <ele>369</ele>
        <time>2020-06-26T16:12:43Z</time>
      </trkpt>
      <trkpt lat="49.4661" lon="6.40918">
        <ele>369.2</ele>
        <time>2020-06-26T16:12:44Z</time>
      </trkpt>
      <trkpt lat="49.46608" lon="6.40921">
        <ele>369.4</ele>
        <time>2020-06-26T16:12:45Z</time>
      </trkpt>
      <trkpt lat="49.46606" lon="6.40925">
        <ele>369.6</ele>
        <time>2020-06-26T16:12:46Z</time>
      </trkpt>
      <trkpt lat="49.46603" lon="6.40928">
        <ele>369.8</ele>
        <time>2020-06-26T16:12:47Z</time>
      </trkpt>
      <trkpt lat="49.46601" lon="6.40932">
        <ele>370</ele>
        <time>2020-06-26T16:12:48Z</time>
      </trkpt>
      <trkpt lat="49.46598" lon="6.40936">
        <ele>370.1</ele>
        <time>2020-06-26T16:12:49Z</time>
      </trkpt>
      <trkpt lat="49.46596" lon="6.4094">
        <ele>370.3</ele>
        <time>2020-06-26T16:12:50Z</time>
      </trkpt>
      <trkpt lat="49.46594" lon="6.40944">
        <ele>370.5</ele>
        <time>2020-06-26T16:12:51Z</time>
      </trkpt>
      <trkpt lat="49.46591" lon="6.40949">
        <ele>370.7</ele>
        <time>2020-06-26T16:12:52Z</time>
      </trkpt>
      <trkpt lat="49.46588" lon="6.40953">
        <ele>370.9</ele>
        <time>2020-06-26T16:12:53Z</time>
      </trkpt>
      <trkpt lat="49.46586" lon="6.40956">
        <ele>371.1</ele>
        <time>2020-06-26T16:12:54Z</time>
      </trkpt>
      <trkpt lat="49.46584" lon="6.40961">
        <ele>371.3</ele>
        <time>2020-06-26T16:12:55Z</time>
      </trkpt>
      <trkpt lat="49.46582" lon="6.40966">
        <ele>371.4</ele>
        <time>2020-06-26T16:12:56Z</time>
      </trkpt>
      <trkpt lat="49.46579" lon="6.4097">
        <ele>371.6</ele>
        <time>2020-06-26T16:12:57Z</time>
      </trkpt>
      <trkpt lat="49.46577" lon="6.40974">
        <ele>371.7</ele>
        <time>2020-06-26T16:12:58Z</time>
      </trkpt>
      <trkpt lat="49.46575" lon="6.40977">
        <ele>371.9</ele>
        <time>2020-06-26T16:12:59Z</time>
      </trkpt>
      <trkpt lat="49.46573" lon="6.4098">
        <ele>372</ele>
        <time>2020-06-26T16:13:00Z</time>
      </trkpt>
      <trkpt lat="49.46571" lon="6.40985">
        <ele>372.1</ele>
        <time>2020-06-26T16:13:01Z</time>
      </trkpt>
      <trkpt lat="49.4657" lon="6.40986">
        <ele>372.1</ele>
        <time>2020-06-26T16:13:02Z</time>
      </trkpt>
      <trkpt lat="49.4657" lon="6.40987">
        <ele>372.2</ele>
        <time>2020-06-26T16:13:03Z</time>
      </trkpt>
      <trkpt lat="49.46569" lon="6.40987">
        <ele>372.2</ele>
        <time>2020-06-26T16:13:04Z</time>
      </trkpt>
      <trkpt lat="49.46569" lon="6.40987">
        <ele>372.2</ele>
        <time>2020-06-26T16:13:05Z</time>
      </trkpt>
      <trkpt lat="49.46569" lon="6.40987">
        <ele>372.2</ele>
        <time>2020-06-26T16:13:06Z</time>
      </trkpt>
      <trkpt lat="49.46569" lon="6.40987">
        <ele>372.2</ele>
        <time>2020-06-26T16:13:07Z</time>
      </trkpt>
      <trkpt lat="49.46569" lon="6.40987">
        <ele>372.2</ele>
        <time>2020-06-26T16:13:08Z</time>
      </trkpt>
      <trkpt lat="49.46569" lon="6.40987">
        <ele>372.2</ele>
        <time>2020-06-26T16:13:09Z</time>
      </trkpt>
      <trkpt lat="49.46569" lon="6.40987">
        <ele>372.2</ele>
        <time>2020-06-26T16:13:10Z</time>
      </trkpt>
      <trkpt lat="49.46569" lon="6.40987">
        <ele>372.2</ele>
        <time>2020-06-26T16:13:11Z</time>
      </trkpt>
      <trkpt lat="49.46569" lon="6.40987">
        <ele>372.2</ele>
        <time>2020-06-26T16:13:12Z</time>
      </trkpt>
      <trkpt lat="49.46569" lon="6.40987">
        <ele>372.2</ele>
        <time>2020-06-26T16:13:13Z</time>
      </trkpt>
      <trkpt lat="49.46569" lon="6.40987">
        <ele>372.2</ele>
        <time>2020-06-26T16:13:14Z</time>
      </trkpt>
      <trkpt lat="49.46568" lon="6.40997">
        <ele>372.3</ele>
        <time>2020-06-26T16:14:27Z</time>
      </trkpt>
      <trkpt lat="49.46567" lon="6.41">
        <ele>372.4</ele>
        <time>2020-06-26T16:14:28Z</time>
      </trkpt>
      <trkpt lat="49.46564" lon="6.41004">
        <ele>372.4</ele>
        <time>2020-06-26T16:14:29Z</time>
      </trkpt>
      <trkpt lat="49.46563" lon="6.41006">
        <ele>372.4</ele>
        <time>2020-06-26T16:14:30Z</time>
      </trkpt>
      <trkpt lat="49.46561" lon="6.41011">
        <ele>372.5</ele>
        <time>2020-06-26T16:14:31Z</time>
      </trkpt>
      <trkpt lat="49.46561" lon="6.41012">
        <ele>372.5</ele>
        <time>2020-06-26T16:14:32Z</time>
      </trkpt>
      <trkpt lat="49.46559" lon="6.41016">
        <ele>372.5</ele>
        <time>2020-06-26T16:14:33Z</time>
      </trkpt>
      <trkpt lat="49.46558" lon="6.4102">
        <ele>372.6</ele>
        <time>2020-06-26T16:14:34Z</time>
      </trkpt>
      <trkpt lat="49.46558" lon="6.41021">
        <ele>372.6</ele>
        <time>2020-06-26T16:14:35Z</time>
      </trkpt>
      <trkpt lat="49.46555" lon="6.41024">
        <ele>372.6</ele>
        <time>2020-06-26T16:14:36Z</time>
      </trkpt>
      <trkpt lat="49.46554" lon="6.41025">
        <ele>372.6</ele>
        <time>2020-06-26T16:14:37Z</time>
      </trkpt>
      <trkpt lat="49.46553" lon="6.4103">
        <ele>372.7</ele>
        <time>2020-06-26T16:14:38Z</time>
      </trkpt>
      <trkpt lat="49.46552" lon="6.41032">
        <ele>372.7</ele>
        <time>2020-06-26T16:14:39Z</time>
      </trkpt>
      <trkpt lat="49.4655" lon="6.41037">
        <ele>372.7</ele>
        <time>2020-06-26T16:14:40Z</time>
      </trkpt>
      <trkpt lat="49.46549" lon="6.41038">
        <ele>372.7</ele>
        <time>2020-06-26T16:14:41Z</time>
      </trkpt>
      <trkpt lat="49.46548" lon="6.41042">
        <ele>372.7</ele>
        <time>2020-06-26T16:14:42Z</time>
      </trkpt>
      <trkpt lat="49.46546" lon="6.41046">
        <ele>372.7</ele>
        <time>2020-06-26T16:14:43Z</time>
      </trkpt>
      <trkpt lat="49.46543" lon="6.41051">
        <ele>372.7</ele>
        <time>2020-06-26T16:14:44Z</time>
      </trkpt>
      <trkpt lat="49.46542" lon="6.41055">
        <ele>372.7</ele>
        <time>2020-06-26T16:14:45Z</time>
      </trkpt>
      <trkpt lat="49.46541" lon="6.41059">
        <ele>372.7</ele>
        <time>2020-06-26T16:14:46Z</time>
      </trkpt>
      <trkpt lat="49.46539" lon="6.41063">
        <ele>372.7</ele>
        <time>2020-06-26T16:14:47Z</time>
      </trkpt>
      <trkpt lat="49.46538" lon="6.41069">
        <ele>372.8</ele>
        <time>2020-06-26T16:14:48Z</time>
      </trkpt>
      <trkpt lat="49.46537" lon="6.4107">
        <ele>372.8</ele>
        <time>2020-06-26T16:14:49Z</time>
      </trkpt>
      <trkpt lat="49.46536" lon="6.41075">
        <ele>372.8</ele>
        <time>2020-06-26T16:14:50Z</time>
      </trkpt>
      <trkpt lat="49.46535" lon="6.4108">
        <ele>372.8</ele>
        <time>2020-06-26T16:14:51Z</time>
      </trkpt>
      <trkpt lat="49.46535" lon="6.41082">
        <ele>372.8</ele>
        <time>2020-06-26T16:14:52Z</time>
      </trkpt>
      <trkpt lat="49.46534" lon="6.41086">
        <ele>372.9</ele>
        <time>2020-06-26T16:14:53Z</time>
      </trkpt>
      <trkpt lat="49.46532" lon="6.41091">
        <ele>372.9</ele>
        <time>2020-06-26T16:14:54Z</time>
      </trkpt>
      <trkpt lat="49.46532" lon="6.41093">
        <ele>372.9</ele>
        <time>2020-06-26T16:14:55Z</time>
      </trkpt>
      <trkpt lat="49.4653" lon="6.41098">
        <ele>372.9</ele>
        <time>2020-06-26T16:14:56Z</time>
      </trkpt>
      <trkpt lat="49.46529" lon="6.411">
        <ele>372.9</ele>
        <time>2020-06-26T16:14:57Z</time>
      </trkpt>
      <trkpt lat="49.46527" lon="6.41104">
        <ele>372.8</ele>
        <time>2020-06-26T16:14:58Z</time>
      </trkpt>
      <trkpt lat="49.46526" lon="6.41108">
        <ele>372.8</ele>
        <time>2020-06-26T16:14:59Z</time>
      </trkpt>
      <trkpt lat="49.46524" lon="6.41113">
        <ele>372.7</ele>
        <time>2020-06-26T16:15:00Z</time>
      </trkpt>
      <trkpt lat="49.46524" lon="6.41115">
        <ele>372.7</ele>
        <time>2020-06-26T16:15:01Z</time>
      </trkpt>
      <trkpt lat="49.46523" lon="6.41121">
        <ele>372.6</ele>
        <time>2020-06-26T16:15:02Z</time>
      </trkpt>
      <trkpt lat="49.46523" lon="6.41123">
        <ele>372.6</ele>
        <time>2020-06-26T16:15:03Z</time>
      </trkpt>
      <trkpt lat="49.46522" lon="6.41127">
        <ele>372.5</ele>
        <time>2020-06-26T16:15:04Z</time>
      </trkpt>
      <trkpt lat="49.46521" lon="6.41131">
        <ele>372.4</ele>
        <time>2020-06-26T16:15:05Z</time>
      </trkpt>
      <trkpt lat="49.4652" lon="6.41135">
        <ele>372.4</ele>
        <time>2020-06-26T16:15:06Z</time>
      </trkpt>
      <trkpt lat="49.46518" lon="6.4114">
        <ele>372.1</ele>
        <time>2020-06-26T16:15:07Z</time>
      </trkpt>
      <trkpt lat="49.46517" lon="6.41144">
        <ele>372</ele>
        <time>2020-06-26T16:15:08Z</time>
      </trkpt>
      <trkpt lat="49.46516" lon="6.4115">
        <ele>371.8</ele>
        <time>2020-06-26T16:15:09Z</time>
      </trkpt>
      <trkpt lat="49.46514" lon="6.41154">
        <ele>371.7</ele>
        <time>2020-06-26T16:15:10Z</time>
      </trkpt>
      <trkpt lat="49.46512" lon="6.41161">
        <ele>371.5</ele>
        <time>2020-06-26T16:15:11Z</time>
      </trkpt>
      <trkpt lat="49.4651" lon="6.41168">
        <ele>371.2</ele>
        <time>2020-06-26T16:15:12Z</time>
      </trkpt>
      <trkpt lat="49.46508" lon="6.41174">
        <ele>371</ele>
        <time>2020-06-26T16:15:13Z</time>
      </trkpt>
      <trkpt lat="49.46506" lon="6.41182">
        <ele>370.6</ele>
        <time>2020-06-26T16:15:14Z</time>
      </trkpt>
      <trkpt lat="49.46504" lon="6.41191">
        <ele>370.2</ele>
        <time>2020-06-26T16:15:15Z</time>
      </trkpt>
      <trkpt lat="49.46503" lon="6.412">
        <ele>369.7</ele>
        <time>2020-06-26T16:15:16Z</time>
      </trkpt>
      <trkpt lat="49.46502" lon="6.41209">
        <ele>369.1</ele>
        <time>2020-06-26T16:15:17Z</time>
      </trkpt>
      <trkpt lat="49.46501" lon="6.4122">
        <ele>368.4</ele>
        <time>2020-06-26T16:15:18Z</time>
      </trkpt>
      <trkpt lat="49.465" lon="6.4123">
        <ele>367.6</ele>
        <time>2020-06-26T16:15:19Z</time>
      </trkpt>
      <trkpt lat="49.46498" lon="6.4124">
        <ele>366.8</ele>
        <time>2020-06-26T16:15:20Z</time>
      </trkpt>
      <trkpt lat="49.46497" lon="6.4125">
        <ele>365.9</ele>
        <time>2020-06-26T16:15:21Z</time>
      </trkpt>
      <trkpt lat="49.46495" lon="6.41259">
        <ele>365</ele>
        <time>2020-06-26T16:15:22Z</time>
      </trkpt>
      <trkpt lat="49.46494" lon="6.41269">
        <ele>364</ele>
        <time>2020-06-26T16:15:23Z</time>
      </trkpt>
      <trkpt lat="49.46493" lon="6.41278">
        <ele>363.1</ele>
        <time>2020-06-26T16:15:24Z</time>
      </trkpt>
      <trkpt lat="49.46493" lon="6.41286">
        <ele>362.3</ele>
        <time>2020-06-26T16:15:25Z</time>
      </trkpt>
      <trkpt lat="49.46492" lon="6.41294">
        <ele>361.5</ele>
        <time>2020-06-26T16:15:26Z</time>
      </trkpt>
      <trkpt lat="49.46492" lon="6.41302">
        <ele>360.8</ele>
        <time>2020-06-26T16:15:27Z</time>
      </trkpt>
      <trkpt lat="49.46491" lon="6.41309">
        <ele>360.2</ele>
        <time>2020-06-26T16:15:28Z</time>
      </trkpt>
      <trkpt lat="49.46491" lon="6.41318">
        <ele>359.5</ele>
        <time>2020-06-26T16:15:29Z</time>
      </trkpt>
      <trkpt lat="49.46491" lon="6.41325">
        <ele>359.1</ele>
        <time>2020-06-26T16:15:30Z</time>
      </trkpt>
      <trkpt lat="49.4649" lon="6.4133">
        <ele>358.6</ele>
        <time>2020-06-26T16:15:31Z</time>
      </trkpt>
      <trkpt lat="49.4649" lon="6.41336">
        <ele>358.2</ele>
        <time>2020-06-26T16:15:32Z</time>
      </trkpt>
      <trkpt lat="49.46489" lon="6.41341">
        <ele>357.9</ele>
        <time>2020-06-26T16:15:33Z</time>
      </trkpt>
      <trkpt lat="49.46487" lon="6.41344">
        <ele>357.5</ele>
        <time>2020-06-26T16:15:34Z</time>
      </trkpt>
      <trkpt lat="49.46486" lon="6.41347">
        <ele>357.2</ele>
        <time>2020-06-26T16:15:35Z</time>
      </trkpt>
      <trkpt lat="49.46485" lon="6.41349">
        <ele>357.1</ele>
        <time>2020-06-26T16:15:36Z</time>
      </trkpt>
      <trkpt lat="49.46482" lon="6.41351">
        <ele>356.7</ele>
        <time>2020-06-26T16:15:37Z</time>
      </trkpt>
      <trkpt lat="49.46481" lon="6.41351">
        <ele>356.6</ele>
        <time>2020-06-26T16:15:38Z</time>
      </trkpt>
      <trkpt lat="49.46477" lon="6.4135">
        <ele>355.7</ele>
        <time>2020-06-26T16:15:39Z</time>
      </trkpt>
      <trkpt lat="49.46476" lon="6.4135">
        <ele>355.6</ele>
        <time>2020-06-26T16:15:40Z</time>
      </trkpt>
      <trkpt lat="49.46472" lon="6.41349">
        <ele>355.2</ele>
        <time>2020-06-26T16:15:41Z</time>
      </trkpt>
      <trkpt lat="49.46468" lon="6.41348">
        <ele>354.7</ele>
        <time>2020-06-26T16:15:42Z</time>
      </trkpt>
      <trkpt lat="49.46463" lon="6.41346">
        <ele>354.2</ele>
        <time>2020-06-26T16:15:43Z</time>
      </trkpt>
      <trkpt lat="49.46459" lon="6.41346">
        <ele>353.8</ele>
        <time>2020-06-26T16:15:44Z</time>
      </trkpt>
      <trkpt lat="49.46454" lon="6.41345">
        <ele>353.3</ele>
        <time>2020-06-26T16:15:45Z</time>
      </trkpt>
      <trkpt lat="49.46451" lon="6.41343">
        <ele>353</ele>
        <time>2020-06-26T16:15:46Z</time>
      </trkpt>
      <trkpt lat="49.46447" lon="6.41342">
        <ele>352.6</ele>
        <time>2020-06-26T16:15:47Z</time>
      </trkpt>
      <trkpt lat="49.46442" lon="6.41341">
        <ele>352.1</ele>
        <time>2020-06-26T16:15:48Z</time>
      </trkpt>
      <trkpt lat="49.46438" lon="6.41341">
        <ele>351.7</ele>
        <time>2020-06-26T16:15:49Z</time>
      </trkpt>
      <trkpt lat="49.46432" lon="6.41341">
        <ele>351.2</ele>
        <time>2020-06-26T16:15:50Z</time>
      </trkpt>
      <trkpt lat="49.46427" lon="6.41341">
        <ele>350.7</ele>
        <time>2020-06-26T16:15:51Z</time>
      </trkpt>
      <trkpt lat="49.46423" lon="6.41341">
        <ele>350.4</ele>
        <time>2020-06-26T16:15:52Z</time>
      </trkpt>
      <trkpt lat="49.46419" lon="6.41339">
        <ele>350</ele>
        <time>2020-06-26T16:15:53Z</time>
      </trkpt>
      <trkpt lat="49.46415" lon="6.41338">
        <ele>349.6</ele>
        <time>2020-06-26T16:15:54Z</time>
      </trkpt>
      <trkpt lat="49.46411" lon="6.41339">
        <ele>349.3</ele>
        <time>2020-06-26T16:15:55Z</time>
      </trkpt>
      <trkpt lat="49.46408" lon="6.41339">
        <ele>348.9</ele>
        <time>2020-06-26T16:15:56Z</time>
      </trkpt>
      <trkpt lat="49.46405" lon="6.41339">
        <ele>348.6</ele>
        <time>2020-06-26T16:15:57Z</time>
      </trkpt>
      <trkpt lat="49.46402" lon="6.41339">
        <ele>348.3</ele>
        <time>2020-06-26T16:15:58Z</time>
      </trkpt>
      <trkpt lat="49.46401" lon="6.41339">
        <ele>348.2</ele>
        <time>2020-06-26T16:15:59Z</time>
      </trkpt>
      <trkpt lat="49.46399" lon="6.41339">
        <ele>348</ele>
        <time>2020-06-26T16:16:00Z</time>
      </trkpt>
      <trkpt lat="49.46397" lon="6.41339">
        <ele>347.9</ele>
        <time>2020-06-26T16:16:01Z</time>
      </trkpt>
      <trkpt lat="49.46395" lon="6.41339">
        <ele>347.7</ele>
        <time>2020-06-26T16:16:02Z</time>
      </trkpt>
      <trkpt lat="49.46394" lon="6.41339">
        <ele>347.6</ele>
        <time>2020-06-26T16:16:03Z</time>
      </trkpt>
      <trkpt lat="49.46394" lon="6.41339">
        <ele>347.5</ele>
        <time>2020-06-26T16:16:04Z</time>
      </trkpt>
      <trkpt lat="49.46392" lon="6.4134">
        <ele>347.4</ele>
        <time>2020-06-26T16:16:05Z</time>
      </trkpt>
      <trkpt lat="49.46391" lon="6.41341">
        <ele>347.2</ele>
        <time>2020-06-26T16:16:06Z</time>
      </trkpt>
      <trkpt lat="49.46387" lon="6.41343">
        <ele>346.8</ele>
        <time>2020-06-26T16:16:07Z</time>
      </trkpt>
      <trkpt lat="49.46385" lon="6.41344">
        <ele>346.6</ele>
        <time>2020-06-26T16:16:08Z</time>
      </trkpt>
      <trkpt lat="49.46381" lon="6.41347">
        <ele>346.2</ele>
        <time>2020-06-26T16:16:09Z</time>
      </trkpt>
      <trkpt lat="49.46378" lon="6.41348">
        <ele>345.9</ele>
        <time>2020-06-26T16:16:10Z</time>
      </trkpt>
      <trkpt lat="49.46375" lon="6.41349">
        <ele>345.6</ele>
        <time>2020-06-26T16:16:11Z</time>
      </trkpt>
      <trkpt lat="49.46372" lon="6.41351">
        <ele>345.2</ele>
        <time>2020-06-26T16:16:12Z</time>
      </trkpt>
      <trkpt lat="49.46371" lon="6.41352">
        <ele>345.1</ele>
        <time>2020-06-26T16:16:13Z</time>
      </trkpt>
      <trkpt lat="49.46368" lon="6.41353">
        <ele>344.8</ele>
        <time>2020-06-26T16:16:14Z</time>
      </trkpt>
      <trkpt lat="49.46367" lon="6.41353">
        <ele>344.6</ele>
        <time>2020-06-26T16:16:15Z</time>
      </trkpt>
      <trkpt lat="49.46365" lon="6.41353">
        <ele>344.4</ele>
        <time>2020-06-26T16:16:16Z</time>
      </trkpt>
      <trkpt lat="49.46362" lon="6.41353">
        <ele>344.1</ele>
        <time>2020-06-26T16:16:17Z</time>
      </trkpt>
      <trkpt lat="49.46361" lon="6.41353">
        <ele>344</ele>
        <time>2020-06-26T16:16:18Z</time>
      </trkpt>
      <trkpt lat="49.46361" lon="6.41352">
        <ele>343.9</ele>
        <time>2020-06-26T16:16:19Z</time>
      </trkpt>
      <trkpt lat="49.4636" lon="6.41351">
        <ele>343.6</ele>
        <time>2020-06-26T16:16:20Z</time>
      </trkpt>
      <trkpt lat="49.46358" lon="6.41352">
        <ele>343.3</ele>
        <time>2020-06-26T16:16:21Z</time>
      </trkpt>
      <trkpt lat="49.46354" lon="6.41353">
        <ele>342.8</ele>
        <time>2020-06-26T16:16:22Z</time>
      </trkpt>
      <trkpt lat="49.46353" lon="6.41354">
        <ele>342.7</ele>
        <time>2020-06-26T16:16:23Z</time>
      </trkpt>
      <trkpt lat="49.4635" lon="6.41357">
        <ele>342.2</ele>
        <time>2020-06-26T16:16:24Z</time>
      </trkpt>
      <trkpt lat="49.46349" lon="6.41358">
        <ele>342.1</ele>
        <time>2020-06-26T16:16:25Z</time>
      </trkpt>
      <trkpt lat="49.46346" lon="6.41362">
        <ele>341.7</ele>
        <time>2020-06-26T16:16:26Z</time>
      </trkpt>
      <trkpt lat="49.46343" lon="6.41365">
        <ele>341.3</ele>
        <time>2020-06-26T16:16:27Z</time>
      </trkpt>
      <trkpt lat="49.46341" lon="6.4137">
        <ele>340.8</ele>
        <time>2020-06-26T16:16:28Z</time>
      </trkpt>
      <trkpt lat="49.46339" lon="6.41373">
        <ele>340.5</ele>
        <time>2020-06-26T16:16:29Z</time>
      </trkpt>
      <trkpt lat="49.46336" lon="6.41376">
        <ele>340.1</ele>
        <time>2020-06-26T16:16:30Z</time>
      </trkpt>
      <trkpt lat="49.46333" lon="6.4138">
        <ele>339.7</ele>
        <time>2020-06-26T16:16:31Z</time>
      </trkpt>
      <trkpt lat="49.4633" lon="6.41383">
        <ele>339.3</ele>
        <time>2020-06-26T16:16:32Z</time>
      </trkpt>
      <trkpt lat="49.46327" lon="6.41387">
        <ele>338.9</ele>
        <time>2020-06-26T16:16:33Z</time>
      </trkpt>
      <trkpt lat="49.46323" lon="6.41391">
        <ele>338.4</ele>
        <time>2020-06-26T16:16:34Z</time>
      </trkpt>
      <trkpt lat="49.4632" lon="6.41395">
        <ele>338</ele>
        <time>2020-06-26T16:16:35Z</time>
      </trkpt>
      <trkpt lat="49.46317" lon="6.41399">
        <ele>337.6</ele>
        <time>2020-06-26T16:16:36Z</time>
      </trkpt>
      <trkpt lat="49.46313" lon="6.41403">
        <ele>337.1</ele>
        <time>2020-06-26T16:16:37Z</time>
      </trkpt>
      <trkpt lat="49.4631" lon="6.41407">
        <ele>336.7</ele>
        <time>2020-06-26T16:16:38Z</time>
      </trkpt>
      <trkpt lat="49.46307" lon="6.41411">
        <ele>336.3</ele>
        <time>2020-06-26T16:16:39Z</time>
      </trkpt>
      <trkpt lat="49.46304" lon="6.41415">
        <ele>335.9</ele>
        <time>2020-06-26T16:16:40Z</time>
      </trkpt>
      <trkpt lat="49.46299" lon="6.4142">
        <ele>335.5</ele>
        <time>2020-06-26T16:16:41Z</time>
      </trkpt>
      <trkpt lat="49.46297" lon="6.41425">
        <ele>335.1</ele>
        <time>2020-06-26T16:16:42Z</time>
      </trkpt>
      <trkpt lat="49.46294" lon="6.41431">
        <ele>334.7</ele>
        <time>2020-06-26T16:16:43Z</time>
      </trkpt>
      <trkpt lat="49.46292" lon="6.41436">
        <ele>334.4</ele>
        <time>2020-06-26T16:16:44Z</time>
      </trkpt>
      <trkpt lat="49.4629" lon="6.41441">
        <ele>334.1</ele>
        <time>2020-06-26T16:16:45Z</time>
      </trkpt>
      <trkpt lat="49.46288" lon="6.41445">
        <ele>333.8</ele>
        <time>2020-06-26T16:16:46Z</time>
      </trkpt>
      <trkpt lat="49.46288" lon="6.41447">
        <ele>333.7</ele>
        <time>2020-06-26T16:16:47Z</time>
      </trkpt>
      <trkpt lat="49.46286" lon="6.41451">
        <ele>333.5</ele>
        <time>2020-06-26T16:16:48Z</time>
      </trkpt>
      <trkpt lat="49.46285" lon="6.41455">
        <ele>333.2</ele>
        <time>2020-06-26T16:16:49Z</time>
      </trkpt>
      <trkpt lat="49.46283" lon="6.41462">
        <ele>332.8</ele>
        <time>2020-06-26T16:16:50Z</time>
      </trkpt>
      <trkpt lat="49.46281" lon="6.41468">
        <ele>332.5</ele>
        <time>2020-06-26T16:16:51Z</time>
      </trkpt>
      <trkpt lat="49.4628" lon="6.4147">
        <ele>332.4</ele>
        <time>2020-06-26T16:16:52Z</time>
      </trkpt>
      <trkpt lat="49.46278" lon="6.41475">
        <ele>332.1</ele>
        <time>2020-06-26T16:16:53Z</time>
      </trkpt>
      <trkpt lat="49.46277" lon="6.41479">
        <ele>331.9</ele>
        <time>2020-06-26T16:16:54Z</time>
      </trkpt>
      <trkpt lat="49.46277" lon="6.4148">
        <ele>331.8</ele>
        <time>2020-06-26T16:16:55Z</time>
      </trkpt>
      <trkpt lat="49.46276" lon="6.41485">
        <ele>331.6</ele>
        <time>2020-06-26T16:16:56Z</time>
      </trkpt>
      <trkpt lat="49.46275" lon="6.4149">
        <ele>331.3</ele>
        <time>2020-06-26T16:16:57Z</time>
      </trkpt>
      <trkpt lat="49.46274" lon="6.41494">
        <ele>331</ele>
        <time>2020-06-26T16:16:58Z</time>
      </trkpt>
      <trkpt lat="49.46273" lon="6.41499">
        <ele>330.7</ele>
        <time>2020-06-26T16:16:59Z</time>
      </trkpt>
      <trkpt lat="49.46272" lon="6.41504">
        <ele>330.4</ele>
        <time>2020-06-26T16:17:00Z</time>
      </trkpt>
      <trkpt lat="49.4627" lon="6.41509">
        <ele>330.1</ele>
        <time>2020-06-26T16:17:01Z</time>
      </trkpt>
      <trkpt lat="49.4627" lon="6.41511">
        <ele>330</ele>
        <time>2020-06-26T16:17:02Z</time>
      </trkpt>
      <trkpt lat="49.46269" lon="6.41516">
        <ele>329.7</ele>
        <time>2020-06-26T16:17:03Z</time>
      </trkpt>
      <trkpt lat="49.46268" lon="6.41518">
        <ele>329.5</ele>
        <time>2020-06-26T16:17:04Z</time>
      </trkpt>
      <trkpt lat="49.46267" lon="6.41523">
        <ele>329.2</ele>
        <time>2020-06-26T16:17:05Z</time>
      </trkpt>
      <trkpt lat="49.46267" lon="6.41529">
        <ele>328.8</ele>
        <time>2020-06-26T16:17:06Z</time>
      </trkpt>
      <trkpt lat="49.46266" lon="6.41536">
        <ele>328.3</ele>
        <time>2020-06-26T16:17:07Z</time>
      </trkpt>
      <trkpt lat="49.46265" lon="6.41542">
        <ele>327.8</ele>
        <time>2020-06-26T16:17:08Z</time>
      </trkpt>
      <trkpt lat="49.46264" lon="6.41545">
        <ele>327.6</ele>
        <time>2020-06-26T16:17:09Z</time>
      </trkpt>
      <trkpt lat="49.46264" lon="6.41549">
        <ele>327.3</ele>
        <time>2020-06-26T16:17:10Z</time>
      </trkpt>
      <trkpt lat="49.46262" lon="6.41554">
        <ele>326.9</ele>
        <time>2020-06-26T16:17:11Z</time>
      </trkpt>
      <trkpt lat="49.46261" lon="6.4156">
        <ele>326.4</ele>
        <time>2020-06-26T16:17:12Z</time>
      </trkpt>
      <trkpt lat="49.4626" lon="6.41563">
        <ele>326.2</ele>
        <time>2020-06-26T16:17:13Z</time>
      </trkpt>
      <trkpt lat="49.46259" lon="6.41567">
        <ele>325.8</ele>
        <time>2020-06-26T16:17:14Z</time>
      </trkpt>
      <trkpt lat="49.46258" lon="6.41573">
        <ele>325.4</ele>
        <time>2020-06-26T16:17:15Z</time>
      </trkpt>
      <trkpt lat="49.46257" lon="6.41575">
        <ele>325.2</ele>
        <time>2020-06-26T16:17:16Z</time>
      </trkpt>
      <trkpt lat="49.46256" lon="6.41581">
        <ele>324.8</ele>
        <time>2020-06-26T16:17:17Z</time>
      </trkpt>
      <trkpt lat="49.46254" lon="6.41588">
        <ele>324.3</ele>
        <time>2020-06-26T16:17:18Z</time>
      </trkpt>
      <trkpt lat="49.46252" lon="6.41593">
        <ele>323.8</ele>
        <time>2020-06-26T16:17:19Z</time>
      </trkpt>
      <trkpt lat="49.4625" lon="6.41599">
        <ele>323.4</ele>
        <time>2020-06-26T16:17:20Z</time>
      </trkpt>
      <trkpt lat="49.46248" lon="6.41603">
        <ele>323.1</ele>
        <time>2020-06-26T16:17:21Z</time>
      </trkpt>
      <trkpt lat="49.46246" lon="6.41609">
        <ele>322.8</ele>
        <time>2020-06-26T16:17:22Z</time>
      </trkpt>
      <trkpt lat="49.46244" lon="6.41614">
        <ele>322.4</ele>
        <time>2020-06-26T16:17:23Z</time>
      </trkpt>
      <trkpt lat="49.46242" lon="6.4162">
        <ele>322.1</ele>
        <time>2020-06-26T16:17:24Z</time>
      </trkpt>
      <trkpt lat="49.4624" lon="6.41626">
        <ele>321.7</ele>
        <time>2020-06-26T16:17:25Z</time>
      </trkpt>
      <trkpt lat="49.46239" lon="6.41628">
        <ele>321.6</ele>
        <time>2020-06-26T16:17:26Z</time>
      </trkpt>
      <trkpt lat="49.46237" lon="6.41633">
        <ele>321.3</ele>
        <time>2020-06-26T16:17:27Z</time>
      </trkpt>
      <trkpt lat="49.46236" lon="6.41639">
        <ele>320.9</ele>
        <time>2020-06-26T16:17:28Z</time>
      </trkpt>
      <trkpt lat="49.46234" lon="6.41643">
        <ele>320.7</ele>
        <time>2020-06-26T16:17:29Z</time>
      </trkpt>
      <trkpt lat="49.46232" lon="6.41649">
        <ele>320.3</ele>
        <time>2020-06-26T16:17:30Z</time>
      </trkpt>
      <trkpt lat="49.46231" lon="6.41655">
        <ele>320</ele>
        <time>2020-06-26T16:17:31Z</time>
      </trkpt>
      <trkpt lat="49.46229" lon="6.41661">
        <ele>319.7</ele>
        <time>2020-06-26T16:17:32Z</time>
      </trkpt>
      <trkpt lat="49.46228" lon="6.41667">
        <ele>319.3</ele>
        <time>2020-06-26T16:17:33Z</time>
      </trkpt>
      <trkpt lat="49.46228" lon="6.41674">
        <ele>318.9</ele>
        <time>2020-06-26T16:17:34Z</time>
      </trkpt>
      <trkpt lat="49.46227" lon="6.4168">
        <ele>318.6</ele>
        <time>2020-06-26T16:17:35Z</time>
      </trkpt>
      <trkpt lat="49.46226" lon="6.41684">
        <ele>318.3</ele>
        <time>2020-06-26T16:17:36Z</time>
      </trkpt>
      <trkpt lat="49.46224" lon="6.41689">
        <ele>318</ele>
        <time>2020-06-26T16:17:37Z</time>
      </trkpt>
      <trkpt lat="49.46223" lon="6.41695">
        <ele>317.6</ele>
        <time>2020-06-26T16:17:38Z</time>
      </trkpt>
      <trkpt lat="49.46223" lon="6.41698">
        <ele>317.5</ele>
        <time>2020-06-26T16:17:39Z</time>
      </trkpt>
      <trkpt lat="49.46221" lon="6.41703">
        <ele>317.1</ele>
        <time>2020-06-26T16:17:40Z</time>
      </trkpt>
      <trkpt lat="49.46221" lon="6.41705">
        <ele>317</ele>
        <time>2020-06-26T16:17:41Z</time>
      </trkpt>
      <trkpt lat="49.4622" lon="6.41711">
        <ele>316.6</ele>
        <time>2020-06-26T16:17:42Z</time>
      </trkpt>
      <trkpt lat="49.46219" lon="6.41716">
        <ele>316.2</ele>
        <time>2020-06-26T16:17:43Z</time>
      </trkpt>
      <trkpt lat="49.46218" lon="6.41722">
        <ele>315.8</ele>
        <time>2020-06-26T16:17:44Z</time>
      </trkpt>
      <trkpt lat="49.46216" lon="6.41729">
        <ele>315.3</ele>
        <time>2020-06-26T16:17:45Z</time>
      </trkpt>
      <trkpt lat="49.46214" lon="6.41735">
        <ele>314.9</ele>
        <time>2020-06-26T16:17:46Z</time>
      </trkpt>
      <trkpt lat="49.46212" lon="6.4174">
        <ele>314.5</ele>
        <time>2020-06-26T16:17:47Z</time>
      </trkpt>
      <trkpt lat="49.4621" lon="6.41745">
        <ele>314.1</ele>
        <time>2020-06-26T16:17:48Z</time>
      </trkpt>
      <trkpt lat="49.46208" lon="6.4175">
        <ele>313.7</ele>
        <time>2020-06-26T16:17:49Z</time>
      </trkpt>
      <trkpt lat="49.46205" lon="6.41755">
        <ele>313.4</ele>
        <time>2020-06-26T16:17:50Z</time>
      </trkpt>
      <trkpt lat="49.46204" lon="6.41761">
        <ele>313</ele>
        <time>2020-06-26T16:17:51Z</time>
      </trkpt>
      <trkpt lat="49.46202" lon="6.41767">
        <ele>312.7</ele>
        <time>2020-06-26T16:17:52Z</time>
      </trkpt>
      <trkpt lat="49.46201" lon="6.41773">
        <ele>312.4</ele>
        <time>2020-06-26T16:17:53Z</time>
      </trkpt>
      <trkpt lat="49.46201" lon="6.4178">
        <ele>312</ele>
        <time>2020-06-26T16:17:54Z</time>
      </trkpt>
      <trkpt lat="49.46201" lon="6.41789">
        <ele>311.7</ele>
        <time>2020-06-26T16:17:55Z</time>
      </trkpt>
      <trkpt lat="49.46201" lon="6.41798">
        <ele>311.5</ele>
        <time>2020-06-26T16:17:56Z</time>
      </trkpt>
      <trkpt lat="49.46201" lon="6.41806">
        <ele>311.3</ele>
        <time>2020-06-26T16:17:57Z</time>
      </trkpt>
      <trkpt lat="49.46201" lon="6.41815">
        <ele>311.1</ele>
        <time>2020-06-26T16:17:58Z</time>
      </trkpt>
      <trkpt lat="49.46201" lon="6.41823">
        <ele>311.1</ele>
        <time>2020-06-26T16:17:59Z</time>
      </trkpt>
      <trkpt lat="49.46202" lon="6.4183">
        <ele>311.2</ele>
        <time>2020-06-26T16:18:00Z</time>
      </trkpt>
      <trkpt lat="49.46204" lon="6.41838">
        <ele>311.2</ele>
        <time>2020-06-26T16:18:01Z</time>
      </trkpt>
      <trkpt lat="49.46204" lon="6.41844">
        <ele>311.2</ele>
        <time>2020-06-26T16:18:02Z</time>
      </trkpt>
      <trkpt lat="49.46205" lon="6.4185">
        <ele>311.2</ele>
        <time>2020-06-26T16:18:03Z</time>
      </trkpt>
      <trkpt lat="49.46206" lon="6.41857">
        <ele>311.2</ele>
        <time>2020-06-26T16:18:04Z</time>
      </trkpt>
      <trkpt lat="49.46207" lon="6.41864">
        <ele>311.2</ele>
        <time>2020-06-26T16:18:05Z</time>
      </trkpt>
      <trkpt lat="49.46208" lon="6.41871">
        <ele>311.2</ele>
        <time>2020-06-26T16:18:06Z</time>
      </trkpt>
      <trkpt lat="49.4621" lon="6.41876">
        <ele>311.2</ele>
        <time>2020-06-26T16:18:07Z</time>
      </trkpt>
      <trkpt lat="49.46211" lon="6.41882">
        <ele>311.2</ele>
        <time>2020-06-26T16:18:08Z</time>
      </trkpt>
      <trkpt lat="49.46213" lon="6.41888">
        <ele>311.2</ele>
        <time>2020-06-26T16:18:09Z</time>
      </trkpt>
      <trkpt lat="49.46214" lon="6.41894">
        <ele>311.3</ele>
        <time>2020-06-26T16:18:10Z</time>
      </trkpt>
      <trkpt lat="49.46215" lon="6.41898">
        <ele>311.3</ele>
        <time>2020-06-26T16:18:11Z</time>
      </trkpt>
      <trkpt lat="49.46215" lon="6.41903">
        <ele>311.4</ele>
        <time>2020-06-26T16:18:12Z</time>
      </trkpt>
      <trkpt lat="49.46216" lon="6.41908">
        <ele>311.4</ele>
        <time>2020-06-26T16:18:13Z</time>
      </trkpt>
      <trkpt lat="49.46216" lon="6.41914">
        <ele>311.4</ele>
        <time>2020-06-26T16:18:14Z</time>
      </trkpt>
      <trkpt lat="49.46217" lon="6.4192">
        <ele>311.5</ele>
        <time>2020-06-26T16:18:15Z</time>
      </trkpt>
      <trkpt lat="49.46217" lon="6.41926">
        <ele>311.5</ele>
        <time>2020-06-26T16:18:16Z</time>
      </trkpt>
      <trkpt lat="49.46218" lon="6.41933">
        <ele>311.5</ele>
        <time>2020-06-26T16:18:17Z</time>
      </trkpt>
      <trkpt lat="49.46219" lon="6.4194">
        <ele>311.6</ele>
        <time>2020-06-26T16:18:18Z</time>
      </trkpt>
      <trkpt lat="49.4622" lon="6.41947">
        <ele>311.6</ele>
        <time>2020-06-26T16:18:19Z</time>
      </trkpt>
      <trkpt lat="49.46221" lon="6.41953">
        <ele>311.6</ele>
        <time>2020-06-26T16:18:20Z</time>
      </trkpt>
      <trkpt lat="49.46221" lon="6.41957">
        <ele>311.7</ele>
        <time>2020-06-26T16:18:21Z</time>
      </trkpt>
      <trkpt lat="49.46223" lon="6.41965">
        <ele>311.7</ele>
        <time>2020-06-26T16:18:22Z</time>
      </trkpt>
      <trkpt lat="49.46223" lon="6.41969">
        <ele>311.7</ele>
        <time>2020-06-26T16:18:23Z</time>
      </trkpt>
      <trkpt lat="49.46223" lon="6.41971">
        <ele>311.7</ele>
        <time>2020-06-26T16:18:24Z</time>
      </trkpt>
      <trkpt lat="49.46224" lon="6.41975">
        <ele>311.6</ele>
        <time>2020-06-26T16:18:25Z</time>
      </trkpt>
      <trkpt lat="49.46225" lon="6.41977">
        <ele>311.5</ele>
        <time>2020-06-26T16:18:26Z</time>
      </trkpt>
      <trkpt lat="49.46225" lon="6.4198">
        <ele>311.5</ele>
        <time>2020-06-26T16:18:27Z</time>
      </trkpt>
      <trkpt lat="49.46225" lon="6.41981">
        <ele>311.4</ele>
        <time>2020-06-26T16:18:28Z</time>
      </trkpt>
      <trkpt lat="49.46225" lon="6.41985">
        <ele>311.3</ele>
        <time>2020-06-26T16:18:29Z</time>
      </trkpt>
      <trkpt lat="49.46226" lon="6.41987">
        <ele>311.2</ele>
        <time>2020-06-26T16:18:30Z</time>
      </trkpt>
      <trkpt lat="49.46226" lon="6.41989">
        <ele>311.2</ele>
        <time>2020-06-26T16:18:31Z</time>
      </trkpt>
      <trkpt lat="49.46225" lon="6.41995">
        <ele>310.9</ele>
        <time>2020-06-26T16:18:32Z</time>
      </trkpt>
      <trkpt lat="49.46224" lon="6.41998">
        <ele>310.8</ele>
        <time>2020-06-26T16:18:33Z</time>
      </trkpt>
      <trkpt lat="49.46224" lon="6.42002">
        <ele>310.7</ele>
        <time>2020-06-26T16:18:34Z</time>
      </trkpt>
      <trkpt lat="49.46223" lon="6.42007">
        <ele>310.5</ele>
        <time>2020-06-26T16:18:35Z</time>
      </trkpt>
      <trkpt lat="49.46223" lon="6.42011">
        <ele>310.4</ele>
        <time>2020-06-26T16:18:36Z</time>
      </trkpt>
      <trkpt lat="49.46222" lon="6.42016">
        <ele>310.2</ele>
        <time>2020-06-26T16:18:37Z</time>
      </trkpt>
      <trkpt lat="49.46221" lon="6.4202">
        <ele>309.9</ele>
        <time>2020-06-26T16:18:38Z</time>
      </trkpt>
      <trkpt lat="49.4622" lon="6.42022">
        <ele>309.8</ele>
        <time>2020-06-26T16:18:39Z</time>
      </trkpt>
      <trkpt lat="49.46219" lon="6.42023">
        <ele>309.6</ele>
        <time>2020-06-26T16:18:40Z</time>
      </trkpt>
      <trkpt lat="49.46217" lon="6.42024">
        <ele>309.5</ele>
        <time>2020-06-26T16:18:41Z</time>
      </trkpt>
      <trkpt lat="49.46215" lon="6.42025">
        <ele>309.3</ele>
        <time>2020-06-26T16:18:42Z</time>
      </trkpt>
      <trkpt lat="49.46211" lon="6.42026">
        <ele>309</ele>
        <time>2020-06-26T16:18:43Z</time>
      </trkpt>
      <trkpt lat="49.4621" lon="6.42026">
        <ele>308.9</ele>
        <time>2020-06-26T16:18:44Z</time>
      </trkpt>
      <trkpt lat="49.46207" lon="6.42026">
        <ele>308.6</ele>
        <time>2020-06-26T16:18:45Z</time>
      </trkpt>
      <trkpt lat="49.46203" lon="6.42026">
        <ele>308.4</ele>
        <time>2020-06-26T16:18:46Z</time>
      </trkpt>
      <trkpt lat="49.462" lon="6.42025">
        <ele>308.1</ele>
        <time>2020-06-26T16:18:47Z</time>
      </trkpt>
      <trkpt lat="49.46198" lon="6.42025">
        <ele>308</ele>
        <time>2020-06-26T16:18:48Z</time>
      </trkpt>
      <trkpt lat="49.46196" lon="6.42025">
        <ele>307.9</ele>
        <time>2020-06-26T16:18:49Z</time>
      </trkpt>
      <trkpt lat="49.46195" lon="6.42025">
        <ele>307.8</ele>
        <time>2020-06-26T16:18:50Z</time>
      </trkpt>
      <trkpt lat="49.46192" lon="6.42027">
        <ele>307.6</ele>
        <time>2020-06-26T16:18:51Z</time>
      </trkpt>
      <trkpt lat="49.46191" lon="6.42027">
        <ele>307.5</ele>
        <time>2020-06-26T16:18:52Z</time>
      </trkpt>
      <trkpt lat="49.46187" lon="6.42031">
        <ele>307.3</ele>
        <time>2020-06-26T16:18:53Z</time>
      </trkpt>
      <trkpt lat="49.46186" lon="6.42033">
        <ele>307.2</ele>
        <time>2020-06-26T16:18:54Z</time>
      </trkpt>
      <trkpt lat="49.46183" lon="6.42036">
        <ele>307.1</ele>
        <time>2020-06-26T16:18:55Z</time>
      </trkpt>
      <trkpt lat="49.4618" lon="6.42041">
        <ele>307</ele>
        <time>2020-06-26T16:18:56Z</time>
      </trkpt>
      <trkpt lat="49.46176" lon="6.42045">
        <ele>306.9</ele>
        <time>2020-06-26T16:18:57Z</time>
      </trkpt>
      <trkpt lat="49.46171" lon="6.42048">
        <ele>306.8</ele>
        <time>2020-06-26T16:18:58Z</time>
      </trkpt>
      <trkpt lat="49.46167" lon="6.42053">
        <ele>306.8</ele>
        <time>2020-06-26T16:18:59Z</time>
      </trkpt>
      <trkpt lat="49.46164" lon="6.42056">
        <ele>306.8</ele>
        <time>2020-06-26T16:19:00Z</time>
      </trkpt>
      <trkpt lat="49.46159" lon="6.42059">
        <ele>306.8</ele>
        <time>2020-06-26T16:19:01Z</time>
      </trkpt>
      <trkpt lat="49.46156" lon="6.42063">
        <ele>306.8</ele>
        <time>2020-06-26T16:19:02Z</time>
      </trkpt>
      <trkpt lat="49.46153" lon="6.42067">
        <ele>306.8</ele>
        <time>2020-06-26T16:19:03Z</time>
      </trkpt>
      <trkpt lat="49.46149" lon="6.42072">
        <ele>306.9</ele>
        <time>2020-06-26T16:19:04Z</time>
      </trkpt>
      <trkpt lat="49.46146" lon="6.42077">
        <ele>306.9</ele>
        <time>2020-06-26T16:19:05Z</time>
      </trkpt>
      <trkpt lat="49.46143" lon="6.4208">
        <ele>306.9</ele>
        <time>2020-06-26T16:19:06Z</time>
      </trkpt>
      <trkpt lat="49.4614" lon="6.42085">
        <ele>307</ele>
        <time>2020-06-26T16:19:07Z</time>
      </trkpt>
      <trkpt lat="49.46137" lon="6.42091">
        <ele>307</ele>
        <time>2020-06-26T16:19:08Z</time>
      </trkpt>
      <trkpt lat="49.46135" lon="6.42096">
        <ele>307.1</ele>
        <time>2020-06-26T16:19:09Z</time>
      </trkpt>
      <trkpt lat="49.46132" lon="6.421">
        <ele>307.1</ele>
        <time>2020-06-26T16:19:10Z</time>
      </trkpt>
      <trkpt lat="49.4613" lon="6.42104">
        <ele>307.2</ele>
        <time>2020-06-26T16:19:11Z</time>
      </trkpt>
      <trkpt lat="49.46128" lon="6.42107">
        <ele>307.2</ele>
        <time>2020-06-26T16:19:12Z</time>
      </trkpt>
      <trkpt lat="49.46128" lon="6.42109">
        <ele>307.3</ele>
        <time>2020-06-26T16:19:13Z</time>
      </trkpt>
      <trkpt lat="49.46125" lon="6.42112">
        <ele>307.3</ele>
        <time>2020-06-26T16:19:14Z</time>
      </trkpt>
      <trkpt lat="49.46124" lon="6.42113">
        <ele>307.3</ele>
        <time>2020-06-26T16:19:15Z</time>
      </trkpt>
      <trkpt lat="49.46122" lon="6.42116">
        <ele>307.4</ele>
        <time>2020-06-26T16:19:16Z</time>
      </trkpt>
      <trkpt lat="49.4612" lon="6.42119">
        <ele>307.5</ele>
        <time>2020-06-26T16:19:17Z</time>
      </trkpt>
      <trkpt lat="49.46118" lon="6.42122">
        <ele>307.5</ele>
        <time>2020-06-26T16:19:18Z</time>
      </trkpt>
      <trkpt lat="49.46116" lon="6.42125">
        <ele>307.6</ele>
        <time>2020-06-26T16:19:19Z</time>
      </trkpt>
      <trkpt lat="49.46114" lon="6.42128">
        <ele>307.7</ele>
        <time>2020-06-26T16:19:20Z</time>
      </trkpt>
      <trkpt lat="49.46112" lon="6.42134">
        <ele>307.7</ele>
        <time>2020-06-26T16:19:21Z</time>
      </trkpt>
      <trkpt lat="49.46111" lon="6.42135">
        <ele>307.7</ele>
        <time>2020-06-26T16:19:22Z</time>
      </trkpt>
      <trkpt lat="49.46108" lon="6.42139">
        <ele>307.8</ele>
        <time>2020-06-26T16:19:23Z</time>
      </trkpt>
      <trkpt lat="49.46107" lon="6.42141">
        <ele>307.8</ele>
        <time>2020-06-26T16:19:24Z</time>
      </trkpt>
      <trkpt lat="49.46104" lon="6.42143">
        <ele>307.8</ele>
        <time>2020-06-26T16:19:25Z</time>
      </trkpt>
      <trkpt lat="49.46102" lon="6.42146">
        <ele>307.9</ele>
        <time>2020-06-26T16:19:26Z</time>
      </trkpt>
      <trkpt lat="49.46098" lon="6.42148">
        <ele>307.9</ele>
        <time>2020-06-26T16:19:27Z</time>
      </trkpt>
      <trkpt lat="49.46097" lon="6.42148">
        <ele>307.9</ele>
        <time>2020-06-26T16:19:28Z</time>
      </trkpt>
      <trkpt lat="49.46094" lon="6.4215">
        <ele>307.8</ele>
        <time>2020-06-26T16:19:29Z</time>
      </trkpt>
      <trkpt lat="49.46089" lon="6.42151">
        <ele>307.8</ele>
        <time>2020-06-26T16:19:30Z</time>
      </trkpt>
      <trkpt lat="49.46087" lon="6.42152">
        <ele>307.8</ele>
        <time>2020-06-26T16:19:31Z</time>
      </trkpt>
      <trkpt lat="49.46083" lon="6.42153">
        <ele>307.7</ele>
        <time>2020-06-26T16:19:32Z</time>
      </trkpt>
      <trkpt lat="49.4608" lon="6.42153">
        <ele>307.7</ele>
        <time>2020-06-26T16:19:33Z</time>
      </trkpt>
      <trkpt lat="49.46077" lon="6.42155">
        <ele>307.6</ele>
        <time>2020-06-26T16:19:34Z</time>
      </trkpt>
      <trkpt lat="49.46074" lon="6.42155">
        <ele>307.5</ele>
        <time>2020-06-26T16:19:35Z</time>
      </trkpt>
      <trkpt lat="49.4607" lon="6.42156">
        <ele>307.4</ele>
        <time>2020-06-26T16:19:36Z</time>
      </trkpt>
      <trkpt lat="49.46067" lon="6.42156">
        <ele>307.3</ele>
        <time>2020-06-26T16:19:37Z</time>
      </trkpt>
      <trkpt lat="49.46063" lon="6.42156">
        <ele>307.3</ele>
        <time>2020-06-26T16:19:38Z</time>
      </trkpt>
      <trkpt lat="49.46059" lon="6.42157">
        <ele>307.1</ele>
        <time>2020-06-26T16:19:39Z</time>
      </trkpt>
      <trkpt lat="49.46054" lon="6.42158">
        <ele>307</ele>
        <time>2020-06-26T16:19:40Z</time>
      </trkpt>
      <trkpt lat="49.46049" lon="6.4216">
        <ele>306.8</ele>
        <time>2020-06-26T16:19:41Z</time>
      </trkpt>
      <trkpt lat="49.46043" lon="6.42161">
        <ele>306.6</ele>
        <time>2020-06-26T16:19:42Z</time>
      </trkpt>
      <trkpt lat="49.46038" lon="6.42161">
        <ele>306.3</ele>
        <time>2020-06-26T16:19:43Z</time>
      </trkpt>
      <trkpt lat="49.46032" lon="6.4216">
        <ele>306.1</ele>
        <time>2020-06-26T16:19:44Z</time>
      </trkpt>
      <trkpt lat="49.46026" lon="6.42158">
        <ele>305.8</ele>
        <time>2020-06-26T16:19:45Z</time>
      </trkpt>
      <trkpt lat="49.4602" lon="6.42156">
        <ele>305.5</ele>
        <time>2020-06-26T16:19:46Z</time>
      </trkpt>
      <trkpt lat="49.46013" lon="6.42154">
        <ele>305.4</ele>
        <time>2020-06-26T16:19:47Z</time>
      </trkpt>
      <trkpt lat="49.46006" lon="6.42151">
        <ele>305.2</ele>
        <time>2020-06-26T16:19:48Z</time>
      </trkpt>
      <trkpt lat="49.46" lon="6.4215">
        <ele>305.2</ele>
        <time>2020-06-26T16:19:49Z</time>
      </trkpt>
      <trkpt lat="49.45994" lon="6.42148">
        <ele>305.1</ele>
        <time>2020-06-26T16:19:50Z</time>
      </trkpt>
      <trkpt lat="49.45987" lon="6.42147">
        <ele>305.1</ele>
        <time>2020-06-26T16:19:51Z</time>
      </trkpt>
      <trkpt lat="49.45982" lon="6.42146">
        <ele>305.1</ele>
        <time>2020-06-26T16:19:52Z</time>
      </trkpt>
      <trkpt lat="49.45976" lon="6.42146">
        <ele>305</ele>
        <time>2020-06-26T16:19:53Z</time>
      </trkpt>
      <trkpt lat="49.4597" lon="6.42145">
        <ele>305.1</ele>
        <time>2020-06-26T16:19:54Z</time>
      </trkpt>
      <trkpt lat="49.45964" lon="6.42145">
        <ele>305.2</ele>
        <time>2020-06-26T16:19:55Z</time>
      </trkpt>
      <trkpt lat="49.45958" lon="6.42147">
        <ele>305.4</ele>
        <time>2020-06-26T16:19:56Z</time>
      </trkpt>
      <trkpt lat="49.45952" lon="6.42148">
        <ele>305.5</ele>
        <time>2020-06-26T16:19:57Z</time>
      </trkpt>
      <trkpt lat="49.45946" lon="6.42149">
        <ele>305.7</ele>
        <time>2020-06-26T16:19:58Z</time>
      </trkpt>
      <trkpt lat="49.4594" lon="6.4215">
        <ele>305.9</ele>
        <time>2020-06-26T16:19:59Z</time>
      </trkpt>
      <trkpt lat="49.45935" lon="6.42152">
        <ele>306.1</ele>
        <time>2020-06-26T16:20:00Z</time>
      </trkpt>
      <trkpt lat="49.45929" lon="6.42155">
        <ele>306.4</ele>
        <time>2020-06-26T16:20:01Z</time>
      </trkpt>
      <trkpt lat="49.45925" lon="6.42157">
        <ele>306.6</ele>
        <time>2020-06-26T16:20:02Z</time>
      </trkpt>
      <trkpt lat="49.45921" lon="6.42158">
        <ele>306.9</ele>
        <time>2020-06-26T16:20:03Z</time>
      </trkpt>
      <trkpt lat="49.45916" lon="6.4216">
        <ele>307.2</ele>
        <time>2020-06-26T16:20:04Z</time>
      </trkpt>
      <trkpt lat="49.45911" lon="6.42161">
        <ele>307.5</ele>
        <time>2020-06-26T16:20:05Z</time>
      </trkpt>
      <trkpt lat="49.45907" lon="6.42162">
        <ele>307.9</ele>
        <time>2020-06-26T16:20:06Z</time>
      </trkpt>
      <trkpt lat="49.45902" lon="6.42163">
        <ele>308.2</ele>
        <time>2020-06-26T16:20:07Z</time>
      </trkpt>
      <trkpt lat="49.45898" lon="6.42163">
        <ele>308.5</ele>
        <time>2020-06-26T16:20:08Z</time>
      </trkpt>
      <trkpt lat="49.45894" lon="6.42162">
        <ele>308.7</ele>
        <time>2020-06-26T16:20:09Z</time>
      </trkpt>
      <trkpt lat="49.45891" lon="6.42163">
        <ele>308.9</ele>
        <time>2020-06-26T16:20:10Z</time>
      </trkpt>
      <trkpt lat="49.45888" lon="6.42164">
        <ele>308.9</ele>
        <time>2020-06-26T16:20:11Z</time>
      </trkpt>
      <trkpt lat="49.45885" lon="6.42165">
        <ele>308.9</ele>
        <time>2020-06-26T16:20:12Z</time>
      </trkpt>
      <trkpt lat="49.45881" lon="6.42166">
        <ele>308.9</ele>
        <time>2020-06-26T16:20:13Z</time>
      </trkpt>
      <trkpt lat="49.4588" lon="6.42167">
        <ele>308.9</ele>
        <time>2020-06-26T16:20:14Z</time>
      </trkpt>
      <trkpt lat="49.45877" lon="6.42166">
        <ele>308.7</ele>
        <time>2020-06-26T16:20:15Z</time>
      </trkpt>
      <trkpt lat="49.45876" lon="6.42166">
        <ele>308.7</ele>
        <time>2020-06-26T16:20:16Z</time>
      </trkpt>
      <trkpt lat="49.45873" lon="6.42166">
        <ele>308.4</ele>
        <time>2020-06-26T16:20:17Z</time>
      </trkpt>
      <trkpt lat="49.45871" lon="6.42166">
        <ele>308.4</ele>
        <time>2020-06-26T16:20:18Z</time>
      </trkpt>
      <trkpt lat="49.45868" lon="6.42164">
        <ele>308.1</ele>
        <time>2020-06-26T16:20:19Z</time>
      </trkpt>
      <trkpt lat="49.45865" lon="6.42163">
        <ele>307.8</ele>
        <time>2020-06-26T16:20:20Z</time>
      </trkpt>
      <trkpt lat="49.45861" lon="6.42163">
        <ele>307.5</ele>
        <time>2020-06-26T16:20:21Z</time>
      </trkpt>
      <trkpt lat="49.45857" lon="6.42163">
        <ele>307</ele>
        <time>2020-06-26T16:20:22Z</time>
      </trkpt>
      <trkpt lat="49.45852" lon="6.42164">
        <ele>306.5</ele>
        <time>2020-06-26T16:20:23Z</time>
      </trkpt>
      <trkpt lat="49.45846" lon="6.42168">
        <ele>305.9</ele>
        <time>2020-06-26T16:20:24Z</time>
      </trkpt>
      <trkpt lat="49.45841" lon="6.42174">
        <ele>305.2</ele>
        <time>2020-06-26T16:20:25Z</time>
      </trkpt>
      <trkpt lat="49.45834" lon="6.42179">
        <ele>304.6</ele>
        <time>2020-06-26T16:20:26Z</time>
      </trkpt>
      <trkpt lat="49.45829" lon="6.42186">
        <ele>304</ele>
        <time>2020-06-26T16:20:27Z</time>
      </trkpt>
      <trkpt lat="49.45821" lon="6.42195">
        <ele>303.5</ele>
        <time>2020-06-26T16:20:28Z</time>
      </trkpt>
      <trkpt lat="49.45814" lon="6.42203">
        <ele>303</ele>
        <time>2020-06-26T16:20:29Z</time>
      </trkpt>
      <trkpt lat="49.45806" lon="6.42212">
        <ele>302.7</ele>
        <time>2020-06-26T16:20:30Z</time>
      </trkpt>
      <trkpt lat="49.45798" lon="6.42225">
        <ele>302.3</ele>
        <time>2020-06-26T16:20:31Z</time>
      </trkpt>
      <trkpt lat="49.4579" lon="6.42238">
        <ele>302.2</ele>
        <time>2020-06-26T16:20:32Z</time>
      </trkpt>
      <trkpt lat="49.45783" lon="6.42249">
        <ele>302.1</ele>
        <time>2020-06-26T16:20:33Z</time>
      </trkpt>
      <trkpt lat="49.45777" lon="6.4226">
        <ele>302.1</ele>
        <time>2020-06-26T16:20:34Z</time>
      </trkpt>
      <trkpt lat="49.4577" lon="6.4227">
        <ele>302.2</ele>
        <time>2020-06-26T16:20:35Z</time>
      </trkpt>
      <trkpt lat="49.45764" lon="6.4228">
        <ele>302.3</ele>
        <time>2020-06-26T16:20:36Z</time>
      </trkpt>
      <trkpt lat="49.45758" lon="6.4229">
        <ele>302.4</ele>
        <time>2020-06-26T16:20:37Z</time>
      </trkpt>
      <trkpt lat="49.45752" lon="6.42299">
        <ele>302.5</ele>
        <time>2020-06-26T16:20:38Z</time>
      </trkpt>
      <trkpt lat="49.45747" lon="6.42307">
        <ele>302.6</ele>
        <time>2020-06-26T16:20:39Z</time>
      </trkpt>
      <trkpt lat="49.45742" lon="6.42314">
        <ele>302.6</ele>
        <time>2020-06-26T16:20:40Z</time>
      </trkpt>
      <trkpt lat="49.45738" lon="6.42322">
        <ele>302.6</ele>
        <time>2020-06-26T16:20:41Z</time>
      </trkpt>
      <trkpt lat="49.45734" lon="6.42328">
        <ele>302.6</ele>
        <time>2020-06-26T16:20:42Z</time>
      </trkpt>
      <trkpt lat="49.45732" lon="6.42334">
        <ele>302.5</ele>
        <time>2020-06-26T16:20:43Z</time>
      </trkpt>
      <trkpt lat="49.45729" lon="6.42341">
        <ele>302.4</ele>
        <time>2020-06-26T16:20:44Z</time>
      </trkpt>
      <trkpt lat="49.45726" lon="6.42348">
        <ele>302.4</ele>
        <time>2020-06-26T16:20:45Z</time>
      </trkpt>
      <trkpt lat="49.45723" lon="6.42354">
        <ele>302.3</ele>
        <time>2020-06-26T16:20:46Z</time>
      </trkpt>
      <trkpt lat="49.4572" lon="6.42359">
        <ele>302.2</ele>
        <time>2020-06-26T16:20:47Z</time>
      </trkpt>
      <trkpt lat="49.45718" lon="6.42364">
        <ele>302.1</ele>
        <time>2020-06-26T16:20:48Z</time>
      </trkpt>
      <trkpt lat="49.45715" lon="6.42369">
        <ele>302</ele>
        <time>2020-06-26T16:20:49Z</time>
      </trkpt>
      <trkpt lat="49.45712" lon="6.42375">
        <ele>301.8</ele>
        <time>2020-06-26T16:20:50Z</time>
      </trkpt>
      <trkpt lat="49.45709" lon="6.42379">
        <ele>301.7</ele>
        <time>2020-06-26T16:20:51Z</time>
      </trkpt>
      <trkpt lat="49.45707" lon="6.42384">
        <ele>301.6</ele>
        <time>2020-06-26T16:20:52Z</time>
      </trkpt>
      <trkpt lat="49.45705" lon="6.42389">
        <ele>301.5</ele>
        <time>2020-06-26T16:20:53Z</time>
      </trkpt>
      <trkpt lat="49.45702" lon="6.42394">
        <ele>301.4</ele>
        <time>2020-06-26T16:20:54Z</time>
      </trkpt>
      <trkpt lat="49.45699" lon="6.424">
        <ele>301.2</ele>
        <time>2020-06-26T16:20:55Z</time>
      </trkpt>
      <trkpt lat="49.45695" lon="6.42405">
        <ele>301</ele>
        <time>2020-06-26T16:20:56Z</time>
      </trkpt>
      <trkpt lat="49.45692" lon="6.42411">
        <ele>300.7</ele>
        <time>2020-06-26T16:20:57Z</time>
      </trkpt>
      <trkpt lat="49.45689" lon="6.42417">
        <ele>300.3</ele>
        <time>2020-06-26T16:20:58Z</time>
      </trkpt>
      <trkpt lat="49.45685" lon="6.42422">
        <ele>300.1</ele>
        <time>2020-06-26T16:20:59Z</time>
      </trkpt>
      <trkpt lat="49.45683" lon="6.42427">
        <ele>299.9</ele>
        <time>2020-06-26T16:21:00Z</time>
      </trkpt>
      <trkpt lat="49.4568" lon="6.42432">
        <ele>299.8</ele>
        <time>2020-06-26T16:21:01Z</time>
      </trkpt>
      <trkpt lat="49.45678" lon="6.42437">
        <ele>299.6</ele>
        <time>2020-06-26T16:21:02Z</time>
      </trkpt>
      <trkpt lat="49.45675" lon="6.42443">
        <ele>299.5</ele>
        <time>2020-06-26T16:21:03Z</time>
      </trkpt>
      <trkpt lat="49.45674" lon="6.42449">
        <ele>299.4</ele>
        <time>2020-06-26T16:21:04Z</time>
      </trkpt>
      <trkpt lat="49.45672" lon="6.42454">
        <ele>299.3</ele>
        <time>2020-06-26T16:21:05Z</time>
      </trkpt>
      <trkpt lat="49.45671" lon="6.4246">
        <ele>299.2</ele>
        <time>2020-06-26T16:21:06Z</time>
      </trkpt>
      <trkpt lat="49.45669" lon="6.42465">
        <ele>299.1</ele>
        <time>2020-06-26T16:21:07Z</time>
      </trkpt>
      <trkpt lat="49.45668" lon="6.42469">
        <ele>299.1</ele>
        <time>2020-06-26T16:21:08Z</time>
      </trkpt>
      <trkpt lat="49.45668" lon="6.42474">
        <ele>299</ele>
        <time>2020-06-26T16:21:09Z</time>
      </trkpt>
      <trkpt lat="49.45666" lon="6.42479">
        <ele>298.9</ele>
        <time>2020-06-26T16:21:10Z</time>
      </trkpt>
      <trkpt lat="49.45666" lon="6.42485">
        <ele>298.8</ele>
        <time>2020-06-26T16:21:11Z</time>
      </trkpt>
      <trkpt lat="49.45664" lon="6.4249">
        <ele>298.7</ele>
        <time>2020-06-26T16:21:12Z</time>
      </trkpt>
      <trkpt lat="49.45663" lon="6.42495">
        <ele>298.6</ele>
        <time>2020-06-26T16:21:13Z</time>
      </trkpt>
      <trkpt lat="49.45662" lon="6.425">
        <ele>298.5</ele>
        <time>2020-06-26T16:21:14Z</time>
      </trkpt>
      <trkpt lat="49.45661" lon="6.42506">
        <ele>298.3</ele>
        <time>2020-06-26T16:21:15Z</time>
      </trkpt>
      <trkpt lat="49.4566" lon="6.42511">
        <ele>298.2</ele>
        <time>2020-06-26T16:21:16Z</time>
      </trkpt>
      <trkpt lat="49.45658" lon="6.42515">
        <ele>298</ele>
        <time>2020-06-26T16:21:17Z</time>
      </trkpt>
      <trkpt lat="49.45656" lon="6.42519">
        <ele>297.9</ele>
        <time>2020-06-26T16:21:18Z</time>
      </trkpt>
      <trkpt lat="49.45655" lon="6.42524">
        <ele>297.7</ele>
        <time>2020-06-26T16:21:19Z</time>
      </trkpt>
      <trkpt lat="49.45653" lon="6.42529">
        <ele>297.5</ele>
        <time>2020-06-26T16:21:20Z</time>
      </trkpt>
      <trkpt lat="49.45652" lon="6.42534">
        <ele>297.3</ele>
        <time>2020-06-26T16:21:21Z</time>
      </trkpt>
      <trkpt lat="49.4565" lon="6.42538">
        <ele>297.1</ele>
        <time>2020-06-26T16:21:22Z</time>
      </trkpt>
      <trkpt lat="49.45648" lon="6.42543">
        <ele>296.9</ele>
        <time>2020-06-26T16:21:23Z</time>
      </trkpt>
      <trkpt lat="49.45646" lon="6.42547">
        <ele>296.6</ele>
        <time>2020-06-26T16:21:24Z</time>
      </trkpt>
      <trkpt lat="49.45645" lon="6.42551">
        <ele>296.4</ele>
        <time>2020-06-26T16:21:25Z</time>
      </trkpt>
      <trkpt lat="49.45643" lon="6.42555">
        <ele>296.2</ele>
        <time>2020-06-26T16:21:26Z</time>
      </trkpt>
      <trkpt lat="49.45642" lon="6.42559">
        <ele>295.9</ele>
        <time>2020-06-26T16:21:27Z</time>
      </trkpt>
      <trkpt lat="49.4564" lon="6.42563">
        <ele>295.6</ele>
        <time>2020-06-26T16:21:28Z</time>
      </trkpt>
      <trkpt lat="49.45637" lon="6.42567">
        <ele>295.3</ele>
        <time>2020-06-26T16:21:29Z</time>
      </trkpt>
      <trkpt lat="49.45635" lon="6.42571">
        <ele>294.9</ele>
        <time>2020-06-26T16:21:30Z</time>
      </trkpt>
      <trkpt lat="49.45632" lon="6.42576">
        <ele>294.5</ele>
        <time>2020-06-26T16:21:31Z</time>
      </trkpt>
      <trkpt lat="49.45631" lon="6.42582">
        <ele>294.1</ele>
        <time>2020-06-26T16:21:32Z</time>
      </trkpt>
      <trkpt lat="49.45629" lon="6.42588">
        <ele>293.7</ele>
        <time>2020-06-26T16:21:33Z</time>
      </trkpt>
      <trkpt lat="49.45627" lon="6.42593">
        <ele>293.3</ele>
        <time>2020-06-26T16:21:34Z</time>
      </trkpt>
      <trkpt lat="49.45625" lon="6.42599">
        <ele>292.9</ele>
        <time>2020-06-26T16:21:35Z</time>
      </trkpt>
      <trkpt lat="49.45623" lon="6.42605">
        <ele>292.4</ele>
        <time>2020-06-26T16:21:36Z</time>
      </trkpt>
      <trkpt lat="49.45622" lon="6.42611">
        <ele>292</ele>
        <time>2020-06-26T16:21:37Z</time>
      </trkpt>
      <trkpt lat="49.45621" lon="6.42617">
        <ele>291.7</ele>
        <time>2020-06-26T16:21:38Z</time>
      </trkpt>
      <trkpt lat="49.45619" lon="6.42624">
        <ele>291.3</ele>
        <time>2020-06-26T16:21:39Z</time>
      </trkpt>
      <trkpt lat="49.45618" lon="6.4263">
        <ele>290.9</ele>
        <time>2020-06-26T16:21:40Z</time>
      </trkpt>
      <trkpt lat="49.45617" lon="6.42637">
        <ele>290.4</ele>
        <time>2020-06-26T16:21:41Z</time>
      </trkpt>
      <trkpt lat="49.45614" lon="6.42645">
        <ele>289.9</ele>
        <time>2020-06-26T16:21:42Z</time>
      </trkpt>
      <trkpt lat="49.45612" lon="6.42652">
        <ele>289.5</ele>
        <time>2020-06-26T16:21:43Z</time>
      </trkpt>
      <trkpt lat="49.4561" lon="6.4266">
        <ele>289.1</ele>
        <time>2020-06-26T16:21:44Z</time>
      </trkpt>
      <trkpt lat="49.45608" lon="6.42665">
        <ele>288.7</ele>
        <time>2020-06-26T16:21:45Z</time>
      </trkpt>
      <trkpt lat="49.45605" lon="6.4267">
        <ele>288.4</ele>
        <time>2020-06-26T16:21:46Z</time>
      </trkpt>
      <trkpt lat="49.45603" lon="6.42676">
        <ele>288.1</ele>
        <time>2020-06-26T16:21:47Z</time>
      </trkpt>
      <trkpt lat="49.45601" lon="6.42683">
        <ele>287.7</ele>
        <time>2020-06-26T16:21:48Z</time>
      </trkpt>
      <trkpt lat="49.45599" lon="6.4269">
        <ele>287.3</ele>
        <time>2020-06-26T16:21:49Z</time>
      </trkpt>
      <trkpt lat="49.45598" lon="6.42697">
        <ele>287</ele>
        <time>2020-06-26T16:21:50Z</time>
      </trkpt>
      <trkpt lat="49.45597" lon="6.42703">
        <ele>286.7</ele>
        <time>2020-06-26T16:21:51Z</time>
      </trkpt>
      <trkpt lat="49.45595" lon="6.42709">
        <ele>286.4</ele>
        <time>2020-06-26T16:21:52Z</time>
      </trkpt>
      <trkpt lat="49.45593" lon="6.42716">
        <ele>286.1</ele>
        <time>2020-06-26T16:21:53Z</time>
      </trkpt>
      <trkpt lat="49.45591" lon="6.42723">
        <ele>285.7</ele>
        <time>2020-06-26T16:21:54Z</time>
      </trkpt>
      <trkpt lat="49.45589" lon="6.42729">
        <ele>285.5</ele>
        <time>2020-06-26T16:21:55Z</time>
      </trkpt>
      <trkpt lat="49.45588" lon="6.42736">
        <ele>285.2</ele>
        <time>2020-06-26T16:21:56Z</time>
      </trkpt>
      <trkpt lat="49.45586" lon="6.42742">
        <ele>285</ele>
        <time>2020-06-26T16:21:57Z</time>
      </trkpt>
      <trkpt lat="49.45584" lon="6.42749">
        <ele>284.8</ele>
        <time>2020-06-26T16:21:58Z</time>
      </trkpt>
      <trkpt lat="49.45582" lon="6.42756">
        <ele>284.6</ele>
        <time>2020-06-26T16:21:59Z</time>
      </trkpt>
      <trkpt lat="49.4558" lon="6.42763">
        <ele>284.4</ele>
        <time>2020-06-26T16:22:00Z</time>
      </trkpt>
      <trkpt lat="49.45578" lon="6.42768">
        <ele>284.3</ele>
        <time>2020-06-26T16:22:01Z</time>
      </trkpt>
      <trkpt lat="49.45576" lon="6.42773">
        <ele>284.2</ele>
        <time>2020-06-26T16:22:02Z</time>
      </trkpt>
      <trkpt lat="49.45575" lon="6.42778">
        <ele>284.1</ele>
        <time>2020-06-26T16:22:03Z</time>
      </trkpt>
      <trkpt lat="49.45573" lon="6.42784">
        <ele>284.1</ele>
        <time>2020-06-26T16:22:04Z</time>
      </trkpt>
      <trkpt lat="49.4557" lon="6.4279">
        <ele>284.1</ele>
        <time>2020-06-26T16:22:05Z</time>
      </trkpt>
      <trkpt lat="49.45569" lon="6.42797">
        <ele>284.2</ele>
        <time>2020-06-26T16:22:06Z</time>
      </trkpt>
      <trkpt lat="49.45567" lon="6.42802">
        <ele>284.3</ele>
        <time>2020-06-26T16:22:07Z</time>
      </trkpt>
      <trkpt lat="49.45564" lon="6.42807">
        <ele>284.1</ele>
        <time>2020-06-26T16:22:08Z</time>
      </trkpt>
      <trkpt lat="49.45562" lon="6.42813">
        <ele>283.9</ele>
        <time>2020-06-26T16:22:09Z</time>
      </trkpt>
      <trkpt lat="49.45559" lon="6.42818">
        <ele>283.7</ele>
        <time>2020-06-26T16:22:10Z</time>
      </trkpt>
      <trkpt lat="49.45557" lon="6.42825">
        <ele>283.5</ele>
        <time>2020-06-26T16:22:11Z</time>
      </trkpt>
      <trkpt lat="49.45555" lon="6.42832">
        <ele>283.3</ele>
        <time>2020-06-26T16:22:12Z</time>
      </trkpt>
      <trkpt lat="49.45552" lon="6.42838">
        <ele>283</ele>
        <time>2020-06-26T16:22:13Z</time>
      </trkpt>
      <trkpt lat="49.4555" lon="6.42845">
        <ele>282.8</ele>
        <time>2020-06-26T16:22:14Z</time>
      </trkpt>
      <trkpt lat="49.45546" lon="6.42852">
        <ele>282.5</ele>
        <time>2020-06-26T16:22:15Z</time>
      </trkpt>
      <trkpt lat="49.45543" lon="6.42859">
        <ele>282.3</ele>
        <time>2020-06-26T16:22:16Z</time>
      </trkpt>
      <trkpt lat="49.4554" lon="6.42866">
        <ele>282</ele>
        <time>2020-06-26T16:22:17Z</time>
      </trkpt>
      <trkpt lat="49.45537" lon="6.42874">
        <ele>281.7</ele>
        <time>2020-06-26T16:22:18Z</time>
      </trkpt>
      <trkpt lat="49.45533" lon="6.42882">
        <ele>281.5</ele>
        <time>2020-06-26T16:22:19Z</time>
      </trkpt>
      <trkpt lat="49.45529" lon="6.42889">
        <ele>281.2</ele>
        <time>2020-06-26T16:22:20Z</time>
      </trkpt>
      <trkpt lat="49.45526" lon="6.42898">
        <ele>281</ele>
        <time>2020-06-26T16:22:21Z</time>
      </trkpt>
      <trkpt lat="49.45522" lon="6.42905">
        <ele>280.8</ele>
        <time>2020-06-26T16:22:22Z</time>
      </trkpt>
      <trkpt lat="49.45518" lon="6.42913">
        <ele>280.5</ele>
        <time>2020-06-26T16:22:23Z</time>
      </trkpt>
      <trkpt lat="49.45514" lon="6.4292">
        <ele>280.4</ele>
        <time>2020-06-26T16:22:24Z</time>
      </trkpt>
      <trkpt lat="49.45511" lon="6.42926">
        <ele>280.2</ele>
        <time>2020-06-26T16:22:25Z</time>
      </trkpt>
      <trkpt lat="49.45508" lon="6.42931">
        <ele>280.1</ele>
        <time>2020-06-26T16:22:26Z</time>
      </trkpt>
      <trkpt lat="49.45505" lon="6.42936">
        <ele>280</ele>
        <time>2020-06-26T16:22:27Z</time>
      </trkpt>
      <trkpt lat="49.45503" lon="6.42941">
        <ele>279.9</ele>
        <time>2020-06-26T16:22:28Z</time>
      </trkpt>
      <trkpt lat="49.45501" lon="6.42946">
        <ele>279.8</ele>
        <time>2020-06-26T16:22:29Z</time>
      </trkpt>
      <trkpt lat="49.45499" lon="6.42951">
        <ele>279.6</ele>
        <time>2020-06-26T16:22:30Z</time>
      </trkpt>
      <trkpt lat="49.45497" lon="6.42958">
        <ele>279.5</ele>
        <time>2020-06-26T16:22:31Z</time>
      </trkpt>
      <trkpt lat="49.45493" lon="6.42963">
        <ele>279.4</ele>
        <time>2020-06-26T16:22:32Z</time>
      </trkpt>
      <trkpt lat="49.45491" lon="6.42969">
        <ele>279.2</ele>
        <time>2020-06-26T16:22:33Z</time>
      </trkpt>
      <trkpt lat="49.45487" lon="6.42974">
        <ele>279.1</ele>
        <time>2020-06-26T16:22:34Z</time>
      </trkpt>
      <trkpt lat="49.45484" lon="6.42981">
        <ele>279</ele>
        <time>2020-06-26T16:22:35Z</time>
      </trkpt>
      <trkpt lat="49.45481" lon="6.42987">
        <ele>278.9</ele>
        <time>2020-06-26T16:22:36Z</time>
      </trkpt>
      <trkpt lat="49.45478" lon="6.42994">
        <ele>278.8</ele>
        <time>2020-06-26T16:22:37Z</time>
      </trkpt>
      <trkpt lat="49.45475" lon="6.43001">
        <ele>278.6</ele>
        <time>2020-06-26T16:22:38Z</time>
      </trkpt>
      <trkpt lat="49.45472" lon="6.43008">
        <ele>278.5</ele>
        <time>2020-06-26T16:22:39Z</time>
      </trkpt>
      <trkpt lat="49.45469" lon="6.43014">
        <ele>278.3</ele>
        <time>2020-06-26T16:22:40Z</time>
      </trkpt>
      <trkpt lat="49.45468" lon="6.43018">
        <ele>278.1</ele>
        <time>2020-06-26T16:22:41Z</time>
      </trkpt>
      <trkpt lat="49.45466" lon="6.43023">
        <ele>278</ele>
        <time>2020-06-26T16:22:42Z</time>
      </trkpt>
      <trkpt lat="49.45465" lon="6.43024">
        <ele>277.9</ele>
        <time>2020-06-26T16:22:43Z</time>
      </trkpt>
      <trkpt lat="49.45464" lon="6.43026">
        <ele>277.8</ele>
        <time>2020-06-26T16:22:44Z</time>
      </trkpt>
      <trkpt lat="49.45463" lon="6.43027">
        <ele>277.7</ele>
        <time>2020-06-26T16:22:45Z</time>
      </trkpt>
      <trkpt lat="49.45461" lon="6.43029">
        <ele>277.7</ele>
        <time>2020-06-26T16:22:46Z</time>
      </trkpt>
      <trkpt lat="49.45461" lon="6.4303">
        <ele>277.6</ele>
        <time>2020-06-26T16:22:47Z</time>
      </trkpt>
      <trkpt lat="49.4546" lon="6.43031">
        <ele>277.4</ele>
        <time>2020-06-26T16:22:48Z</time>
      </trkpt>
      <trkpt lat="49.45459" lon="6.43031">
        <ele>277.3</ele>
        <time>2020-06-26T16:22:49Z</time>
      </trkpt>
      <trkpt lat="49.45458" lon="6.4303">
        <ele>277.2</ele>
        <time>2020-06-26T16:22:50Z</time>
      </trkpt>
      <trkpt lat="49.45458" lon="6.4303">
        <ele>277.1</ele>
        <time>2020-06-26T16:22:51Z</time>
      </trkpt>
      <trkpt lat="49.45457" lon="6.43029">
        <ele>277</ele>
        <time>2020-06-26T16:22:52Z</time>
      </trkpt>
      <trkpt lat="49.45456" lon="6.43029">
        <ele>276.9</ele>
        <time>2020-06-26T16:22:53Z</time>
      </trkpt>
      <trkpt lat="49.45455" lon="6.43029">
        <ele>276.7</ele>
        <time>2020-06-26T16:22:54Z</time>
      </trkpt>
      <trkpt lat="49.45454" lon="6.43029">
        <ele>276.6</ele>
        <time>2020-06-26T16:22:55Z</time>
      </trkpt>
      <trkpt lat="49.45453" lon="6.43028">
        <ele>276.5</ele>
        <time>2020-06-26T16:22:56Z</time>
      </trkpt>
      <trkpt lat="49.45453" lon="6.43028">
        <ele>276.4</ele>
        <time>2020-06-26T16:22:57Z</time>
      </trkpt>
      <trkpt lat="49.45452" lon="6.43028">
        <ele>276.2</ele>
        <time>2020-06-26T16:22:58Z</time>
      </trkpt>
      <trkpt lat="49.45451" lon="6.43027">
        <ele>276.1</ele>
        <time>2020-06-26T16:22:59Z</time>
      </trkpt>
      <trkpt lat="49.4545" lon="6.43027">
        <ele>276</ele>
        <time>2020-06-26T16:23:00Z</time>
      </trkpt>
      <trkpt lat="49.45449" lon="6.43027">
        <ele>275.9</ele>
        <time>2020-06-26T16:23:01Z</time>
      </trkpt>
      <trkpt lat="49.45448" lon="6.43027">
        <ele>275.7</ele>
        <time>2020-06-26T16:23:02Z</time>
      </trkpt>
      <trkpt lat="49.45447" lon="6.43026">
        <ele>275.6</ele>
        <time>2020-06-26T16:23:03Z</time>
      </trkpt>
      <trkpt lat="49.45447" lon="6.43026">
        <ele>275.5</ele>
        <time>2020-06-26T16:23:04Z</time>
      </trkpt>
      <trkpt lat="49.45446" lon="6.43026">
        <ele>275.3</ele>
        <time>2020-06-26T16:23:05Z</time>
      </trkpt>
      <trkpt lat="49.45445" lon="6.43025">
        <ele>275.2</ele>
        <time>2020-06-26T16:23:06Z</time>
      </trkpt>
      <trkpt lat="49.45444" lon="6.43025">
        <ele>275.1</ele>
        <time>2020-06-26T16:23:36Z</time>
      </trkpt>
      <trkpt lat="49.45443" lon="6.43025">
        <ele>274.9</ele>
        <time>2020-06-26T16:23:37Z</time>
      </trkpt>
      <trkpt lat="49.45439" lon="6.43025">
        <ele>274.2</ele>
        <time>2020-06-26T16:23:38Z</time>
      </trkpt>
      <trkpt lat="49.45435" lon="6.43025">
        <ele>273.7</ele>
        <time>2020-06-26T16:23:39Z</time>
      </trkpt>
      <trkpt lat="49.45432" lon="6.43026">
        <ele>273.2</ele>
        <time>2020-06-26T16:23:40Z</time>
      </trkpt>
      <trkpt lat="49.45429" lon="6.43028">
        <ele>272.7</ele>
        <time>2020-06-26T16:23:41Z</time>
      </trkpt>
      <trkpt lat="49.45426" lon="6.43031">
        <ele>272.1</ele>
        <time>2020-06-26T16:23:42Z</time>
      </trkpt>
      <trkpt lat="49.45422" lon="6.43033">
        <ele>271.6</ele>
        <time>2020-06-26T16:23:43Z</time>
      </trkpt>
      <trkpt lat="49.45419" lon="6.43036">
        <ele>271</ele>
        <time>2020-06-26T16:23:44Z</time>
      </trkpt>
      <trkpt lat="49.45415" lon="6.43039">
        <ele>270.4</ele>
        <time>2020-06-26T16:23:45Z</time>
      </trkpt>
      <trkpt lat="49.4541" lon="6.43044">
        <ele>269.8</ele>
        <time>2020-06-26T16:23:46Z</time>
      </trkpt>
      <trkpt lat="49.45406" lon="6.43049">
        <ele>269.1</ele>
        <time>2020-06-26T16:23:47Z</time>
      </trkpt>
      <trkpt lat="49.45401" lon="6.43055">
        <ele>268.5</ele>
        <time>2020-06-26T16:23:48Z</time>
      </trkpt>
      <trkpt lat="49.45397" lon="6.43061">
        <ele>267.9</ele>
        <time>2020-06-26T16:23:49Z</time>
      </trkpt>
      <trkpt lat="49.45393" lon="6.43068">
        <ele>267.4</ele>
        <time>2020-06-26T16:23:50Z</time>
      </trkpt>
      <trkpt lat="49.45389" lon="6.43074">
        <ele>267</ele>
        <time>2020-06-26T16:23:51Z</time>
      </trkpt>
      <trkpt lat="49.45384" lon="6.43079">
        <ele>266.6</ele>
        <time>2020-06-26T16:23:52Z</time>
      </trkpt>
      <trkpt lat="49.45379" lon="6.43085">
        <ele>266.2</ele>
        <time>2020-06-26T16:23:53Z</time>
      </trkpt>
      <trkpt lat="49.45375" lon="6.43092">
        <ele>265.8</ele>
        <time>2020-06-26T16:23:54Z</time>
      </trkpt>
      <trkpt lat="49.45371" lon="6.43098">
        <ele>265.4</ele>
        <time>2020-06-26T16:23:55Z</time>
      </trkpt>
      <trkpt lat="49.45367" lon="6.43104">
        <ele>265.1</ele>
        <time>2020-06-26T16:23:56Z</time>
      </trkpt>
      <trkpt lat="49.45363" lon="6.43109">
        <ele>264.8</ele>
        <time>2020-06-26T16:23:57Z</time>
      </trkpt>
      <trkpt lat="49.45359" lon="6.43114">
        <ele>264.5</ele>
        <time>2020-06-26T16:23:58Z</time>
      </trkpt>
      <trkpt lat="49.45355" lon="6.4312">
        <ele>264.1</ele>
        <time>2020-06-26T16:23:59Z</time>
      </trkpt>
      <trkpt lat="49.45351" lon="6.43125">
        <ele>263.8</ele>
        <time>2020-06-26T16:24:00Z</time>
      </trkpt>
      <trkpt lat="49.45347" lon="6.4313">
        <ele>263.4</ele>
        <time>2020-06-26T16:24:01Z</time>
      </trkpt>
      <trkpt lat="49.45344" lon="6.43134">
        <ele>263.1</ele>
        <time>2020-06-26T16:24:02Z</time>
      </trkpt>
      <trkpt lat="49.45342" lon="6.43137">
        <ele>262.9</ele>
        <time>2020-06-26T16:24:03Z</time>
      </trkpt>
      <trkpt lat="49.45339" lon="6.4314">
        <ele>262.7</ele>
        <time>2020-06-26T16:24:04Z</time>
      </trkpt>
      <trkpt lat="49.45336" lon="6.43145">
        <ele>262.4</ele>
        <time>2020-06-26T16:24:05Z</time>
      </trkpt>
      <trkpt lat="49.45333" lon="6.43148">
        <ele>262.2</ele>
        <time>2020-06-26T16:24:06Z</time>
      </trkpt>
      <trkpt lat="49.4533" lon="6.43152">
        <ele>261.9</ele>
        <time>2020-06-26T16:24:07Z</time>
      </trkpt>
      <trkpt lat="49.45327" lon="6.43157">
        <ele>261.6</ele>
        <time>2020-06-26T16:24:08Z</time>
      </trkpt>
      <trkpt lat="49.45324" lon="6.43161">
        <ele>261.4</ele>
        <time>2020-06-26T16:24:09Z</time>
      </trkpt>
      <trkpt lat="49.45321" lon="6.43166">
        <ele>261.1</ele>
        <time>2020-06-26T16:24:10Z</time>
      </trkpt>
      <trkpt lat="49.45318" lon="6.4317">
        <ele>260.9</ele>
        <time>2020-06-26T16:24:11Z</time>
      </trkpt>
      <trkpt lat="49.45315" lon="6.43174">
        <ele>260.6</ele>
        <time>2020-06-26T16:24:12Z</time>
      </trkpt>
      <trkpt lat="49.45312" lon="6.43179">
        <ele>260.4</ele>
        <time>2020-06-26T16:24:13Z</time>
      </trkpt>
      <trkpt lat="49.45312" lon="6.4318">
        <ele>260.3</ele>
        <time>2020-06-26T16:24:14Z</time>
      </trkpt>
      <trkpt lat="49.45308" lon="6.43186">
        <ele>259.9</ele>
        <time>2020-06-26T16:24:15Z</time>
      </trkpt>
      <trkpt lat="49.45305" lon="6.43191">
        <ele>259.6</ele>
        <time>2020-06-26T16:24:16Z</time>
      </trkpt>
      <trkpt lat="49.45303" lon="6.43196">
        <ele>259.3</ele>
        <time>2020-06-26T16:24:17Z</time>
      </trkpt>
      <trkpt lat="49.45301" lon="6.43198">
        <ele>259.1</ele>
        <time>2020-06-26T16:24:18Z</time>
      </trkpt>
      <trkpt lat="49.45298" lon="6.43204">
        <ele>258.7</ele>
        <time>2020-06-26T16:24:19Z</time>
      </trkpt>
      <trkpt lat="49.45296" lon="6.43208">
        <ele>258.4</ele>
        <time>2020-06-26T16:24:20Z</time>
      </trkpt>
      <trkpt lat="49.45294" lon="6.43213">
        <ele>258.1</ele>
        <time>2020-06-26T16:24:21Z</time>
      </trkpt>
      <trkpt lat="49.45291" lon="6.43218">
        <ele>257.7</ele>
        <time>2020-06-26T16:24:22Z</time>
      </trkpt>
      <trkpt lat="49.45288" lon="6.43223">
        <ele>257.3</ele>
        <time>2020-06-26T16:24:23Z</time>
      </trkpt>
      <trkpt lat="49.45286" lon="6.43227">
        <ele>257.1</ele>
        <time>2020-06-26T16:24:24Z</time>
      </trkpt>
      <trkpt lat="49.45283" lon="6.43232">
        <ele>256.6</ele>
        <time>2020-06-26T16:24:25Z</time>
      </trkpt>
      <trkpt lat="49.45281" lon="6.43235">
        <ele>256.4</ele>
        <time>2020-06-26T16:24:26Z</time>
      </trkpt>
      <trkpt lat="49.45279" lon="6.4324">
        <ele>256</ele>
        <time>2020-06-26T16:24:27Z</time>
      </trkpt>
      <trkpt lat="49.45277" lon="6.43245">
        <ele>255.6</ele>
        <time>2020-06-26T16:24:28Z</time>
      </trkpt>
      <trkpt lat="49.45275" lon="6.43249">
        <ele>255.2</ele>
        <time>2020-06-26T16:24:29Z</time>
      </trkpt>
      <trkpt lat="49.45271" lon="6.43256">
        <ele>254.7</ele>
        <time>2020-06-26T16:24:30Z</time>
      </trkpt>
      <trkpt lat="49.45269" lon="6.43259">
        <ele>254.4</ele>
        <time>2020-06-26T16:24:31Z</time>
      </trkpt>
      <trkpt lat="49.45266" lon="6.43265">
        <ele>253.9</ele>
        <time>2020-06-26T16:24:32Z</time>
      </trkpt>
      <trkpt lat="49.45265" lon="6.43268">
        <ele>253.7</ele>
        <time>2020-06-26T16:24:33Z</time>
      </trkpt>
      <trkpt lat="49.45263" lon="6.43272">
        <ele>253.4</ele>
        <time>2020-06-26T16:24:34Z</time>
      </trkpt>
      <trkpt lat="49.45261" lon="6.43277">
        <ele>253</ele>
        <time>2020-06-26T16:24:35Z</time>
      </trkpt>
      <trkpt lat="49.45258" lon="6.43282">
        <ele>252.6</ele>
        <time>2020-06-26T16:24:36Z</time>
      </trkpt>
      <trkpt lat="49.45257" lon="6.43284">
        <ele>252.4</ele>
        <time>2020-06-26T16:24:37Z</time>
      </trkpt>
      <trkpt lat="49.45255" lon="6.43289">
        <ele>251.9</ele>
        <time>2020-06-26T16:24:38Z</time>
      </trkpt>
      <trkpt lat="49.45253" lon="6.43294">
        <ele>251.4</ele>
        <time>2020-06-26T16:24:39Z</time>
      </trkpt>
      <trkpt lat="49.45252" lon="6.43297">
        <ele>251.1</ele>
        <time>2020-06-26T16:24:40Z</time>
      </trkpt>
      <trkpt lat="49.4525" lon="6.43301">
        <ele>250.7</ele>
        <time>2020-06-26T16:24:41Z</time>
      </trkpt>
      <trkpt lat="49.45248" lon="6.43306">
        <ele>249.9</ele>
        <time>2020-06-26T16:24:42Z</time>
      </trkpt>
      <trkpt lat="49.45246" lon="6.43312">
        <ele>249.6</ele>
        <time>2020-06-26T16:24:43Z</time>
      </trkpt>
      <trkpt lat="49.45244" lon="6.43316">
        <ele>249.4</ele>
        <time>2020-06-26T16:24:44Z</time>
      </trkpt>
      <trkpt lat="49.45242" lon="6.43321">
        <ele>249.1</ele>
        <time>2020-06-26T16:24:45Z</time>
      </trkpt>
      <trkpt lat="49.45241" lon="6.43327">
        <ele>248.9</ele>
        <time>2020-06-26T16:24:46Z</time>
      </trkpt>
      <trkpt lat="49.4524" lon="6.43334">
        <ele>248.6</ele>
        <time>2020-06-26T16:24:47Z</time>
      </trkpt>
      <trkpt lat="49.45238" lon="6.43339">
        <ele>248.4</ele>
        <time>2020-06-26T16:24:48Z</time>
      </trkpt>
      <trkpt lat="49.45236" lon="6.43345">
        <ele>248.1</ele>
        <time>2020-06-26T16:24:49Z</time>
      </trkpt>
      <trkpt lat="49.45234" lon="6.43351">
        <ele>247.9</ele>
        <time>2020-06-26T16:24:50Z</time>
      </trkpt>
      <trkpt lat="49.45232" lon="6.43359">
        <ele>247.5</ele>
        <time>2020-06-26T16:24:51Z</time>
      </trkpt>
      <trkpt lat="49.45231" lon="6.43365">
        <ele>247.2</ele>
        <time>2020-06-26T16:24:52Z</time>
      </trkpt>
      <trkpt lat="49.4523" lon="6.4337">
        <ele>247</ele>
        <time>2020-06-26T16:24:53Z</time>
      </trkpt>
      <trkpt lat="49.45227" lon="6.43375">
        <ele>246.7</ele>
        <time>2020-06-26T16:24:54Z</time>
      </trkpt>
      <trkpt lat="49.45227" lon="6.43374">
        <ele>246.7</ele>
        <time>2020-06-26T16:24:55Z</time>
      </trkpt>
      <trkpt lat="49.45227" lon="6.43373">
        <ele>246.6</ele>
        <time>2020-06-26T16:24:56Z</time>
      </trkpt>
      <trkpt lat="49.45227" lon="6.43372">
        <ele>246.6</ele>
        <time>2020-06-26T16:24:57Z</time>
      </trkpt>
      <trkpt lat="49.45227" lon="6.43371">
        <ele>246.5</ele>
        <time>2020-06-26T16:24:58Z</time>
      </trkpt>
      <trkpt lat="49.45227" lon="6.43371">
        <ele>246.5</ele>
        <time>2020-06-26T16:24:59Z</time>
      </trkpt>
      <trkpt lat="49.45227" lon="6.4337">
        <ele>246.5</ele>
        <time>2020-06-26T16:25:00Z</time>
      </trkpt>
      <trkpt lat="49.45227" lon="6.43369">
        <ele>246.4</ele>
        <time>2020-06-26T16:25:01Z</time>
      </trkpt>
      <trkpt lat="49.45227" lon="6.43367">
        <ele>246.3</ele>
        <time>2020-06-26T16:25:02Z</time>
      </trkpt>
      <trkpt lat="49.45227" lon="6.43365">
        <ele>246.3</ele>
        <time>2020-06-26T16:25:03Z</time>
      </trkpt>
      <trkpt lat="49.45226" lon="6.43365">
        <ele>246.2</ele>
        <time>2020-06-26T16:25:04Z</time>
      </trkpt>
      <trkpt lat="49.45226" lon="6.43365">
        <ele>246.2</ele>
        <time>2020-06-26T16:25:05Z</time>
      </trkpt>
      <trkpt lat="49.45227" lon="6.43362">
        <ele>246.1</ele>
        <time>2020-06-26T16:25:06Z</time>
      </trkpt>
      <trkpt lat="49.45225" lon="6.4336">
        <ele>246</ele>
        <time>2020-06-26T16:25:07Z</time>
      </trkpt>
      <trkpt lat="49.45225" lon="6.43356">
        <ele>245.8</ele>
        <time>2020-06-26T16:25:08Z</time>
      </trkpt>
      <trkpt lat="49.45225" lon="6.43355">
        <ele>245.7</ele>
        <time>2020-06-26T16:25:09Z</time>
      </trkpt>
      <trkpt lat="49.45225" lon="6.43351">
        <ele>245.6</ele>
        <time>2020-06-26T16:25:10Z</time>
      </trkpt>
      <trkpt lat="49.45224" lon="6.43349">
        <ele>245.5</ele>
        <time>2020-06-26T16:25:11Z</time>
      </trkpt>
      <trkpt lat="49.45224" lon="6.43347">
        <ele>245.4</ele>
        <time>2020-06-26T16:25:12Z</time>
      </trkpt>
      <trkpt lat="49.45224" lon="6.43345">
        <ele>245.3</ele>
        <time>2020-06-26T16:25:13Z</time>
      </trkpt>
      <trkpt lat="49.45224" lon="6.43344">
        <ele>245.2</ele>
        <time>2020-06-26T16:25:14Z</time>
      </trkpt>
      <trkpt lat="49.45224" lon="6.43343">
        <ele>245.2</ele>
        <time>2020-06-26T16:25:15Z</time>
      </trkpt>
      <trkpt lat="49.45224" lon="6.43344">
        <ele>245.2</ele>
        <time>2020-06-26T16:25:16Z</time>
      </trkpt>
      <trkpt lat="49.45224" lon="6.43344">
        <ele>245.2</ele>
        <time>2020-06-26T16:25:17Z</time>
      </trkpt>
      <trkpt lat="49.45224" lon="6.43343">
        <ele>245.1</ele>
        <time>2020-06-26T16:25:18Z</time>
      </trkpt>
      <trkpt lat="49.45225" lon="6.43344">
        <ele>245</ele>
        <time>2020-06-26T16:25:19Z</time>
      </trkpt>
      <trkpt lat="49.45226" lon="6.43344">
        <ele>245</ele>
        <time>2020-06-26T16:25:20Z</time>
      </trkpt>
      <trkpt lat="49.45226" lon="6.43344">
        <ele>245</ele>
        <time>2020-06-26T16:25:21Z</time>
      </trkpt>
      <trkpt lat="49.45225" lon="6.43344">
        <ele>245</ele>
        <time>2020-06-26T16:25:22Z</time>
      </trkpt>
      <trkpt lat="49.45225" lon="6.43344">
        <ele>245</ele>
        <time>2020-06-26T16:25:23Z</time>
      </trkpt>
      <trkpt lat="49.45226" lon="6.43345">
        <ele>244.9</ele>
        <time>2020-06-26T16:25:24Z</time>
      </trkpt>
      <trkpt lat="49.45226" lon="6.43346">
        <ele>244.9</ele>
        <time>2020-06-26T16:25:25Z</time>
      </trkpt>
      <trkpt lat="49.45224" lon="6.43355">
        <ele>244.5</ele>
        <time>2020-06-26T16:34:31Z</time>
      </trkpt>
      <trkpt lat="49.45224" lon="6.43356">
        <ele>244.5</ele>
        <time>2020-06-26T16:34:32Z</time>
      </trkpt>
      <trkpt lat="49.45224" lon="6.43357">
        <ele>244.4</ele>
        <time>2020-06-26T16:34:33Z</time>
      </trkpt>
      <trkpt lat="49.45224" lon="6.43359">
        <ele>244.4</ele>
        <time>2020-06-26T16:34:34Z</time>
      </trkpt>
      <trkpt lat="49.45224" lon="6.43359">
        <ele>244.3</ele>
        <time>2020-06-26T16:34:35Z</time>
      </trkpt>
      <trkpt lat="49.45225" lon="6.4336">
        <ele>244.3</ele>
        <time>2020-06-26T16:34:36Z</time>
      </trkpt>
      <trkpt lat="49.45225" lon="6.4336">
        <ele>244.3</ele>
        <time>2020-06-26T16:34:37Z</time>
      </trkpt>
      <trkpt lat="49.45225" lon="6.4336">
        <ele>244.3</ele>
        <time>2020-06-26T16:34:38Z</time>
      </trkpt>
      <trkpt lat="49.45224" lon="6.4336">
        <ele>244.3</ele>
        <time>2020-06-26T16:34:39Z</time>
      </trkpt>
      <trkpt lat="49.45225" lon="6.43361">
        <ele>244.2</ele>
        <time>2020-06-26T16:34:40Z</time>
      </trkpt>
      <trkpt lat="49.45225" lon="6.43361">
        <ele>244.2</ele>
        <time>2020-06-26T16:34:41Z</time>
      </trkpt>
      <trkpt lat="49.45225" lon="6.43361">
        <ele>244.2</ele>
        <time>2020-06-26T16:34:42Z</time>
      </trkpt>
      <trkpt lat="49.45225" lon="6.43363">
        <ele>244.1</ele>
        <time>2020-06-26T16:34:43Z</time>
      </trkpt>
      <trkpt lat="49.45225" lon="6.43363">
        <ele>244.1</ele>
        <time>2020-06-26T16:34:44Z</time>
      </trkpt>
      <trkpt lat="49.45225" lon="6.43363">
        <ele>244.1</ele>
        <time>2020-06-26T16:34:45Z</time>
      </trkpt>
      <trkpt lat="49.45225" lon="6.43364">
        <ele>244.1</ele>
        <time>2020-06-26T16:34:46Z</time>
      </trkpt>
      <trkpt lat="49.45225" lon="6.43364">
        <ele>244.1</ele>
        <time>2020-06-26T16:34:47Z</time>
      </trkpt>
      <trkpt lat="49.45225" lon="6.43364">
        <ele>244.1</ele>
        <time>2020-06-26T16:34:48Z</time>
      </trkpt>
      <trkpt lat="49.45225" lon="6.43364">
        <ele>244.1</ele>
        <time>2020-06-26T16:34:52Z</time>
      </trkpt>
      <trkpt lat="49.45225" lon="6.43365">
        <ele>244.1</ele>
        <time>2020-06-26T16:34:53Z</time>
      </trkpt>
      <trkpt lat="49.45225" lon="6.43365">
        <ele>244.1</ele>
        <time>2020-06-26T16:34:54Z</time>
      </trkpt>
      <trkpt lat="49.45224" lon="6.43365">
        <ele>244</ele>
        <time>2020-06-26T16:34:55Z</time>
      </trkpt>
      <trkpt lat="49.45224" lon="6.43365">
        <ele>244</ele>
        <time>2020-06-26T16:34:56Z</time>
      </trkpt>
      <trkpt lat="49.45224" lon="6.43366">
        <ele>244</ele>
        <time>2020-06-26T16:34:57Z</time>
      </trkpt>
      <trkpt lat="49.45224" lon="6.43366">
        <ele>244</ele>
        <time>2020-06-26T16:34:58Z</time>
      </trkpt>
      <trkpt lat="49.45224" lon="6.43366">
        <ele>244</ele>
        <time>2020-06-26T16:34:59Z</time>
      </trkpt>
      <trkpt lat="49.45224" lon="6.43366">
        <ele>244</ele>
        <time>2020-06-26T16:35:00Z</time>
      </trkpt>
      <trkpt lat="49.45224" lon="6.43367">
        <ele>244</ele>
        <time>2020-06-26T16:35:01Z</time>
      </trkpt>
      <trkpt lat="49.45225" lon="6.43367">
        <ele>244</ele>
        <time>2020-06-26T16:35:02Z</time>
      </trkpt>
      <trkpt lat="49.45225" lon="6.43367">
        <ele>243.9</ele>
        <time>2020-06-26T16:35:03Z</time>
      </trkpt>
      <trkpt lat="49.45226" lon="6.43369">
        <ele>243.9</ele>
        <time>2020-06-26T16:35:04Z</time>
      </trkpt>
      <trkpt lat="49.45226" lon="6.43369">
        <ele>243.8</ele>
        <time>2020-06-26T16:35:05Z</time>
      </trkpt>
      <trkpt lat="49.45227" lon="6.4337">
        <ele>243.8</ele>
        <time>2020-06-26T16:35:06Z</time>
      </trkpt>
      <trkpt lat="49.45228" lon="6.43368">
        <ele>243.7</ele>
        <time>2020-06-26T16:35:07Z</time>
      </trkpt>
      <trkpt lat="49.45229" lon="6.43368">
        <ele>243.7</ele>
        <time>2020-06-26T16:35:08Z</time>
      </trkpt>
      <trkpt lat="49.4523" lon="6.43369">
        <ele>243.6</ele>
        <time>2020-06-26T16:35:09Z</time>
      </trkpt>
      <trkpt lat="49.45231" lon="6.43369">
        <ele>243.6</ele>
        <time>2020-06-26T16:35:10Z</time>
      </trkpt>
      <trkpt lat="49.45231" lon="6.4337">
        <ele>243.5</ele>
        <time>2020-06-26T16:35:11Z</time>
      </trkpt>
      <trkpt lat="49.45232" lon="6.4337">
        <ele>243.5</ele>
        <time>2020-06-26T16:35:12Z</time>
      </trkpt>
      <trkpt lat="49.45232" lon="6.4337">
        <ele>243.5</ele>
        <time>2020-06-26T16:35:13Z</time>
      </trkpt>
      <trkpt lat="49.45232" lon="6.4337">
        <ele>243.5</ele>
        <time>2020-06-26T16:35:14Z</time>
      </trkpt>
      <trkpt lat="49.45232" lon="6.4337">
        <ele>243.5</ele>
        <time>2020-06-26T16:35:15Z</time>
      </trkpt>
      <trkpt lat="49.45231" lon="6.4337">
        <ele>243.5</ele>
        <time>2020-06-26T16:35:16Z</time>
      </trkpt>
      <trkpt lat="49.45232" lon="6.43371">
        <ele>243.5</ele>
        <time>2020-06-26T16:35:17Z</time>
      </trkpt>
      <trkpt lat="49.45232" lon="6.43372">
        <ele>243.4</ele>
        <time>2020-06-26T16:35:18Z</time>
      </trkpt>
      <trkpt lat="49.45232" lon="6.43372">
        <ele>243.4</ele>
        <time>2020-06-26T16:35:19Z</time>
      </trkpt>
      <trkpt lat="49.45232" lon="6.43373">
        <ele>243.4</ele>
        <time>2020-06-26T16:35:20Z</time>
      </trkpt>
      <trkpt lat="49.45232" lon="6.43373">
        <ele>243.4</ele>
        <time>2020-06-26T16:35:21Z</time>
      </trkpt>
      <trkpt lat="49.45231" lon="6.43374">
        <ele>243.4</ele>
        <time>2020-06-26T16:35:22Z</time>
      </trkpt>
      <trkpt lat="49.45231" lon="6.43375">
        <ele>243.3</ele>
        <time>2020-06-26T16:35:23Z</time>
      </trkpt>
      <trkpt lat="49.45231" lon="6.43375">
        <ele>243.3</ele>
        <time>2020-06-26T16:35:24Z</time>
      </trkpt>
      <trkpt lat="49.4523" lon="6.43376">
        <ele>243.3</ele>
        <time>2020-06-26T16:35:25Z</time>
      </trkpt>
      <trkpt lat="49.4523" lon="6.43377">
        <ele>243.2</ele>
        <time>2020-06-26T16:35:26Z</time>
      </trkpt>
      <trkpt lat="49.4523" lon="6.43377">
        <ele>243.2</ele>
        <time>2020-06-26T16:35:27Z</time>
      </trkpt>
      <trkpt lat="49.4523" lon="6.43378">
        <ele>243.2</ele>
        <time>2020-06-26T16:35:28Z</time>
      </trkpt>
      <trkpt lat="49.45229" lon="6.43379">
        <ele>243.2</ele>
        <time>2020-06-26T16:35:29Z</time>
      </trkpt>
      <trkpt lat="49.45229" lon="6.43379">
        <ele>243.1</ele>
        <time>2020-06-26T16:35:30Z</time>
      </trkpt>
      <trkpt lat="49.45229" lon="6.4338">
        <ele>243.1</ele>
        <time>2020-06-26T16:37:10Z</time>
      </trkpt>
      <trkpt lat="49.45228" lon="6.43381">
        <ele>243.1</ele>
        <time>2020-06-26T16:37:11Z</time>
      </trkpt>
      <trkpt lat="49.45228" lon="6.43381">
        <ele>243.1</ele>
        <time>2020-06-26T16:37:12Z</time>
      </trkpt>
      <trkpt lat="49.45228" lon="6.43382">
        <ele>243.1</ele>
        <time>2020-06-26T16:37:13Z</time>
      </trkpt>
      <trkpt lat="49.45228" lon="6.43383">
        <ele>243</ele>
        <time>2020-06-26T16:37:14Z</time>
      </trkpt>
      <trkpt lat="49.45227" lon="6.43383">
        <ele>243</ele>
        <time>2020-06-26T16:37:15Z</time>
      </trkpt>
      <trkpt lat="49.45227" lon="6.43384">
        <ele>243</ele>
        <time>2020-06-26T16:37:16Z</time>
      </trkpt>
      <trkpt lat="49.45227" lon="6.43385">
        <ele>243</ele>
        <time>2020-06-26T16:37:17Z</time>
      </trkpt>
      <trkpt lat="49.45226" lon="6.43386">
        <ele>242.9</ele>
        <time>2020-06-26T16:37:18Z</time>
      </trkpt>
      <trkpt lat="49.45226" lon="6.43386">
        <ele>242.9</ele>
        <time>2020-06-26T16:37:19Z</time>
      </trkpt>
      <trkpt lat="49.45226" lon="6.43387">
        <ele>242.9</ele>
        <time>2020-06-26T16:37:20Z</time>
      </trkpt>
      <trkpt lat="49.45226" lon="6.43388">
        <ele>242.9</ele>
        <time>2020-06-26T16:37:21Z</time>
      </trkpt>
      <trkpt lat="49.45225" lon="6.43388">
        <ele>242.8</ele>
        <time>2020-06-26T16:37:22Z</time>
      </trkpt>
      <trkpt lat="49.45225" lon="6.43389">
        <ele>242.8</ele>
        <time>2020-06-26T16:37:23Z</time>
      </trkpt>
      <trkpt lat="49.45225" lon="6.4339">
        <ele>242.8</ele>
        <time>2020-06-26T16:42:29Z</time>
      </trkpt>
      <trkpt lat="49.45224" lon="6.4339">
        <ele>242.8</ele>
        <time>2020-06-26T16:42:30Z</time>
      </trkpt>
      <trkpt lat="49.4522" lon="6.43398">
        <ele>242.5</ele>
        <time>2020-06-26T16:42:31Z</time>
      </trkpt>
      <trkpt lat="49.45216" lon="6.43405">
        <ele>242.2</ele>
        <time>2020-06-26T16:42:32Z</time>
      </trkpt>
      <trkpt lat="49.45212" lon="6.43413">
        <ele>242</ele>
        <time>2020-06-26T16:42:33Z</time>
      </trkpt>
      <trkpt lat="49.45208" lon="6.43421">
        <ele>241.7</ele>
        <time>2020-06-26T16:42:34Z</time>
      </trkpt>
      <trkpt lat="49.45204" lon="6.43429">
        <ele>241.5</ele>
        <time>2020-06-26T16:42:35Z</time>
      </trkpt>
      <trkpt lat="49.45199" lon="6.43436">
        <ele>241.3</ele>
        <time>2020-06-26T16:42:36Z</time>
      </trkpt>
      <trkpt lat="49.45193" lon="6.43443">
        <ele>241</ele>
        <time>2020-06-26T16:42:37Z</time>
      </trkpt>
      <trkpt lat="49.45188" lon="6.4345">
        <ele>241</ele>
        <time>2020-06-26T16:42:38Z</time>
      </trkpt>
      <trkpt lat="49.45182" lon="6.43457">
        <ele>241</ele>
        <time>2020-06-26T16:42:39Z</time>
      </trkpt>
      <trkpt lat="49.45178" lon="6.43465">
        <ele>241</ele>
        <time>2020-06-26T16:42:40Z</time>
      </trkpt>
      <trkpt lat="49.45175" lon="6.43472">
        <ele>241</ele>
        <time>2020-06-26T16:42:41Z</time>
      </trkpt>
      <trkpt lat="49.45171" lon="6.4348">
        <ele>241</ele>
        <time>2020-06-26T16:42:42Z</time>
      </trkpt>
      <trkpt lat="49.45168" lon="6.43487">
        <ele>241</ele>
        <time>2020-06-26T16:42:43Z</time>
      </trkpt>
      <trkpt lat="49.45164" lon="6.43493">
        <ele>241</ele>
        <time>2020-06-26T16:42:44Z</time>
      </trkpt>
      <trkpt lat="49.4516" lon="6.43501">
        <ele>241.1</ele>
        <time>2020-06-26T16:42:45Z</time>
      </trkpt>
      <trkpt lat="49.45158" lon="6.43507">
        <ele>241.2</ele>
        <time>2020-06-26T16:42:46Z</time>
      </trkpt>
      <trkpt lat="49.45154" lon="6.43512">
        <ele>241.4</ele>
        <time>2020-06-26T16:42:47Z</time>
      </trkpt>
      <trkpt lat="49.45151" lon="6.43519">
        <ele>241.5</ele>
        <time>2020-06-26T16:42:48Z</time>
      </trkpt>
      <trkpt lat="49.45149" lon="6.43522">
        <ele>241.6</ele>
        <time>2020-06-26T16:42:49Z</time>
      </trkpt>
      <trkpt lat="49.45147" lon="6.43529">
        <ele>241.7</ele>
        <time>2020-06-26T16:42:50Z</time>
      </trkpt>
      <trkpt lat="49.45146" lon="6.43533">
        <ele>241.8</ele>
        <time>2020-06-26T16:42:51Z</time>
      </trkpt>
      <trkpt lat="49.45144" lon="6.43538">
        <ele>242</ele>
        <time>2020-06-26T16:42:52Z</time>
      </trkpt>
      <trkpt lat="49.45144" lon="6.43542">
        <ele>242.1</ele>
        <time>2020-06-26T16:42:53Z</time>
      </trkpt>
      <trkpt lat="49.45143" lon="6.43548">
        <ele>242.2</ele>
        <time>2020-06-26T16:42:54Z</time>
      </trkpt>
      <trkpt lat="49.45144" lon="6.43554">
        <ele>242.3</ele>
        <time>2020-06-26T16:42:55Z</time>
      </trkpt>
      <trkpt lat="49.45144" lon="6.43556">
        <ele>242.5</ele>
        <time>2020-06-26T16:42:56Z</time>
      </trkpt>
      <trkpt lat="49.45145" lon="6.43561">
        <ele>242.6</ele>
        <time>2020-06-26T16:42:57Z</time>
      </trkpt>
      <trkpt lat="49.45146" lon="6.43565">
        <ele>242.7</ele>
        <time>2020-06-26T16:42:58Z</time>
      </trkpt>
      <trkpt lat="49.45147" lon="6.4357">
        <ele>242.9</ele>
        <time>2020-06-26T16:42:59Z</time>
      </trkpt>
      <trkpt lat="49.45148" lon="6.43575">
        <ele>243</ele>
        <time>2020-06-26T16:43:00Z</time>
      </trkpt>
      <trkpt lat="49.4515" lon="6.4358">
        <ele>243.1</ele>
        <time>2020-06-26T16:43:01Z</time>
      </trkpt>
      <trkpt lat="49.45152" lon="6.43585">
        <ele>243.2</ele>
        <time>2020-06-26T16:43:02Z</time>
      </trkpt>
      <trkpt lat="49.45152" lon="6.43589">
        <ele>243.3</ele>
        <time>2020-06-26T16:43:03Z</time>
      </trkpt>
      <trkpt lat="49.45154" lon="6.43594">
        <ele>243.4</ele>
        <time>2020-06-26T16:43:04Z</time>
      </trkpt>
      <trkpt lat="49.45155" lon="6.436">
        <ele>243.5</ele>
        <time>2020-06-26T16:43:05Z</time>
      </trkpt>
      <trkpt lat="49.45156" lon="6.43603">
        <ele>243.6</ele>
        <time>2020-06-26T16:43:06Z</time>
      </trkpt>
      <trkpt lat="49.45158" lon="6.43608">
        <ele>243.7</ele>
        <time>2020-06-26T16:43:07Z</time>
      </trkpt>
      <trkpt lat="49.4516" lon="6.43613">
        <ele>243.9</ele>
        <time>2020-06-26T16:43:08Z</time>
      </trkpt>
      <trkpt lat="49.45162" lon="6.43617">
        <ele>244.2</ele>
        <time>2020-06-26T16:43:09Z</time>
      </trkpt>
      <trkpt lat="49.45164" lon="6.4362">
        <ele>244.3</ele>
        <time>2020-06-26T16:43:10Z</time>
      </trkpt>
      <trkpt lat="49.45166" lon="6.43621">
        <ele>244.3</ele>
        <time>2020-06-26T16:43:11Z</time>
      </trkpt>
      <trkpt lat="49.45167" lon="6.43622">
        <ele>244.4</ele>
        <time>2020-06-26T16:43:12Z</time>
      </trkpt>
      <trkpt lat="49.45171" lon="6.43622">
        <ele>244.5</ele>
        <time>2020-06-26T16:43:13Z</time>
      </trkpt>
      <trkpt lat="49.45172" lon="6.43622">
        <ele>244.5</ele>
        <time>2020-06-26T16:43:14Z</time>
      </trkpt>
      <trkpt lat="49.45176" lon="6.43622">
        <ele>244.6</ele>
        <time>2020-06-26T16:43:15Z</time>
      </trkpt>
      <trkpt lat="49.45177" lon="6.43623">
        <ele>244.7</ele>
        <time>2020-06-26T16:43:16Z</time>
      </trkpt>
      <trkpt lat="49.45181" lon="6.43624">
        <ele>244.8</ele>
        <time>2020-06-26T16:43:17Z</time>
      </trkpt>
      <trkpt lat="49.45184" lon="6.43624">
        <ele>244.9</ele>
        <time>2020-06-26T16:43:18Z</time>
      </trkpt>
      <trkpt lat="49.45185" lon="6.43624">
        <ele>245</ele>
        <time>2020-06-26T16:43:19Z</time>
      </trkpt>
      <trkpt lat="49.45186" lon="6.43624">
        <ele>245</ele>
        <time>2020-06-26T16:43:20Z</time>
      </trkpt>
      <trkpt lat="49.45187" lon="6.43624">
        <ele>245</ele>
        <time>2020-06-26T16:43:21Z</time>
      </trkpt>
      <trkpt lat="49.45187" lon="6.43624">
        <ele>245</ele>
        <time>2020-06-26T16:43:22Z</time>
      </trkpt>
      <trkpt lat="49.45188" lon="6.43624">
        <ele>245</ele>
        <time>2020-06-26T16:43:23Z</time>
      </trkpt>
      <trkpt lat="49.45191" lon="6.43625">
        <ele>245.1</ele>
        <time>2020-06-26T16:43:24Z</time>
      </trkpt>
      <trkpt lat="49.45192" lon="6.43626">
        <ele>245.2</ele>
        <time>2020-06-26T16:43:25Z</time>
      </trkpt>
      <trkpt lat="49.45195" lon="6.43625">
        <ele>245.3</ele>
        <time>2020-06-26T16:43:26Z</time>
      </trkpt>
      <trkpt lat="49.45195" lon="6.43624">
        <ele>245.3</ele>
        <time>2020-06-26T16:43:27Z</time>
      </trkpt>
      <trkpt lat="49.45195" lon="6.43621">
        <ele>245.4</ele>
        <time>2020-06-26T16:43:28Z</time>
      </trkpt>
      <trkpt lat="49.45194" lon="6.43619">
        <ele>245.4</ele>
        <time>2020-06-26T16:43:29Z</time>
      </trkpt>
      <trkpt lat="49.45193" lon="6.43619">
        <ele>245.4</ele>
        <time>2020-06-26T16:43:30Z</time>
      </trkpt>
      <trkpt lat="49.45191" lon="6.43619">
        <ele>245.5</ele>
        <time>2020-06-26T16:43:31Z</time>
      </trkpt>
      <trkpt lat="49.45187" lon="6.43618">
        <ele>245.4</ele>
        <time>2020-06-26T16:43:32Z</time>
      </trkpt>
      <trkpt lat="49.45184" lon="6.43618">
        <ele>245.2</ele>
        <time>2020-06-26T16:43:33Z</time>
      </trkpt>
      <trkpt lat="49.45181" lon="6.43619">
        <ele>245</ele>
        <time>2020-06-26T16:43:34Z</time>
      </trkpt>
      <trkpt lat="49.45178" lon="6.43619">
        <ele>244.9</ele>
        <time>2020-06-26T16:43:35Z</time>
      </trkpt>
      <trkpt lat="49.45174" lon="6.4362">
        <ele>244.7</ele>
        <time>2020-06-26T16:43:36Z</time>
      </trkpt>
      <trkpt lat="49.45173" lon="6.4362">
        <ele>244.6</ele>
        <time>2020-06-26T16:43:37Z</time>
      </trkpt>
      <trkpt lat="49.45169" lon="6.43618">
        <ele>244.4</ele>
        <time>2020-06-26T16:43:38Z</time>
      </trkpt>
      <trkpt lat="49.45168" lon="6.43617">
        <ele>244.3</ele>
        <time>2020-06-26T16:43:39Z</time>
      </trkpt>
      <trkpt lat="49.45166" lon="6.43613">
        <ele>244.2</ele>
        <time>2020-06-26T16:43:40Z</time>
      </trkpt>
      <trkpt lat="49.45164" lon="6.43609">
        <ele>244</ele>
        <time>2020-06-26T16:43:41Z</time>
      </trkpt>
      <trkpt lat="49.45162" lon="6.43605">
        <ele>243.8</ele>
        <time>2020-06-26T16:43:42Z</time>
      </trkpt>
      <trkpt lat="49.4516" lon="6.43602">
        <ele>243.7</ele>
        <time>2020-06-26T16:43:43Z</time>
      </trkpt>
      <trkpt lat="49.45158" lon="6.43598">
        <ele>243.6</ele>
        <time>2020-06-26T16:43:44Z</time>
      </trkpt>
      <trkpt lat="49.45156" lon="6.43595">
        <ele>243.5</ele>
        <time>2020-06-26T16:43:45Z</time>
      </trkpt>
      <trkpt lat="49.45153" lon="6.43591">
        <ele>243.4</ele>
        <time>2020-06-26T16:43:46Z</time>
      </trkpt>
      <trkpt lat="49.45152" lon="6.4359">
        <ele>243.3</ele>
        <time>2020-06-26T16:43:47Z</time>
      </trkpt>
      <trkpt lat="49.4515" lon="6.43585">
        <ele>243.2</ele>
        <time>2020-06-26T16:43:48Z</time>
      </trkpt>
      <trkpt lat="49.4515" lon="6.43583">
        <ele>243.2</ele>
        <time>2020-06-26T16:43:49Z</time>
      </trkpt>
      <trkpt lat="49.45149" lon="6.43579">
        <ele>243</ele>
        <time>2020-06-26T16:43:50Z</time>
      </trkpt>
      <trkpt lat="49.45147" lon="6.43574">
        <ele>243.2</ele>
        <time>2020-06-26T16:43:51Z</time>
      </trkpt>
      <trkpt lat="49.45147" lon="6.43573">
        <ele>243.3</ele>
        <time>2020-06-26T16:43:52Z</time>
      </trkpt>
      <trkpt lat="49.45143" lon="6.4357">
        <ele>243.6</ele>
        <time>2020-06-26T16:43:53Z</time>
      </trkpt>
      <trkpt lat="49.45142" lon="6.43569">
        <ele>243.7</ele>
        <time>2020-06-26T16:43:54Z</time>
      </trkpt>
      <trkpt lat="49.45141" lon="6.43569">
        <ele>243.8</ele>
        <time>2020-06-26T16:43:55Z</time>
      </trkpt>
      <trkpt lat="49.45139" lon="6.43569">
        <ele>243.9</ele>
        <time>2020-06-26T16:43:56Z</time>
      </trkpt>
      <trkpt lat="49.45136" lon="6.43568">
        <ele>244.2</ele>
        <time>2020-06-26T16:43:57Z</time>
      </trkpt>
      <trkpt lat="49.45136" lon="6.43568">
        <ele>244.3</ele>
        <time>2020-06-26T16:43:58Z</time>
      </trkpt>
      <trkpt lat="49.45135" lon="6.43568">
        <ele>244.3</ele>
        <time>2020-06-26T16:43:59Z</time>
      </trkpt>
      <trkpt lat="49.45135" lon="6.43568">
        <ele>244.4</ele>
        <time>2020-06-26T16:44:00Z</time>
      </trkpt>
      <trkpt lat="49.45135" lon="6.43568">
        <ele>244.4</ele>
        <time>2020-06-26T16:44:01Z</time>
      </trkpt>
      <trkpt lat="49.45135" lon="6.43568">
        <ele>244.4</ele>
        <time>2020-06-26T16:44:02Z</time>
      </trkpt>
      <trkpt lat="49.45134" lon="6.43568">
        <ele>244.5</ele>
        <time>2020-06-26T16:44:03Z</time>
      </trkpt>
      <trkpt lat="49.45134" lon="6.43568">
        <ele>244.5</ele>
        <time>2020-06-26T16:44:04Z</time>
      </trkpt>
      <trkpt lat="49.45134" lon="6.43568">
        <ele>244.5</ele>
        <time>2020-06-26T16:44:05Z</time>
      </trkpt>
      <trkpt lat="49.45134" lon="6.43568">
        <ele>244.5</ele>
        <time>2020-06-26T16:44:06Z</time>
      </trkpt>
      <trkpt lat="49.45134" lon="6.43568">
        <ele>244.5</ele>
        <time>2020-06-26T16:44:07Z</time>
      </trkpt>
      <trkpt lat="49.45134" lon="6.43568">
        <ele>244.6</ele>
        <time>2020-06-26T16:44:08Z</time>
      </trkpt>
      <trkpt lat="49.45134" lon="6.43567">
        <ele>244.6</ele>
        <time>2020-06-26T16:44:09Z</time>
      </trkpt>
      <trkpt lat="49.45133" lon="6.43568">
        <ele>244.7</ele>
        <time>2020-06-26T16:44:10Z</time>
      </trkpt>
      <trkpt lat="49.45133" lon="6.43569">
        <ele>244.7</ele>
        <time>2020-06-26T16:44:11Z</time>
      </trkpt>
      <trkpt lat="49.45133" lon="6.4357">
        <ele>244.8</ele>
        <time>2020-06-26T16:44:12Z</time>
      </trkpt>
      <trkpt lat="49.45132" lon="6.43571">
        <ele>244.9</ele>
        <time>2020-06-26T16:44:13Z</time>
      </trkpt>
      <trkpt lat="49.45131" lon="6.43572">
        <ele>245.1</ele>
        <time>2020-06-26T16:44:14Z</time>
      </trkpt>
      <trkpt lat="49.4513" lon="6.43573">
        <ele>245.2</ele>
        <time>2020-06-26T16:44:15Z</time>
      </trkpt>
      <trkpt lat="49.4513" lon="6.43573">
        <ele>245.3</ele>
        <time>2020-06-26T16:44:16Z</time>
      </trkpt>
      <trkpt lat="49.45128" lon="6.43573">
        <ele>245.4</ele>
        <time>2020-06-26T16:44:17Z</time>
      </trkpt>
      <trkpt lat="49.45127" lon="6.43572">
        <ele>245.6</ele>
        <time>2020-06-26T16:44:18Z</time>
      </trkpt>
      <trkpt lat="49.45125" lon="6.43571">
        <ele>245.8</ele>
        <time>2020-06-26T16:44:19Z</time>
      </trkpt>
      <trkpt lat="49.45124" lon="6.4357">
        <ele>245.9</ele>
        <time>2020-06-26T16:44:20Z</time>
      </trkpt>
      <trkpt lat="49.45122" lon="6.43569">
        <ele>246.1</ele>
        <time>2020-06-26T16:44:21Z</time>
      </trkpt>
      <trkpt lat="49.45122" lon="6.43568">
        <ele>246.2</ele>
        <time>2020-06-26T16:44:22Z</time>
      </trkpt>
      <trkpt lat="49.45121" lon="6.43568">
        <ele>246.3</ele>
        <time>2020-06-26T16:44:23Z</time>
      </trkpt>
      <trkpt lat="49.4512" lon="6.43567">
        <ele>246.4</ele>
        <time>2020-06-26T16:44:24Z</time>
      </trkpt>
      <trkpt lat="49.45119" lon="6.43566">
        <ele>246.5</ele>
        <time>2020-06-26T16:44:25Z</time>
      </trkpt>
      <trkpt lat="49.45118" lon="6.43566">
        <ele>246.6</ele>
        <time>2020-06-26T16:44:26Z</time>
      </trkpt>
      <trkpt lat="49.45117" lon="6.43566">
        <ele>246.7</ele>
        <time>2020-06-26T16:44:27Z</time>
      </trkpt>
      <trkpt lat="49.45116" lon="6.43566">
        <ele>246.9</ele>
        <time>2020-06-26T16:44:28Z</time>
      </trkpt>
      <trkpt lat="49.45115" lon="6.43566">
        <ele>247</ele>
        <time>2020-06-26T16:44:29Z</time>
      </trkpt>
      <trkpt lat="49.45113" lon="6.43567">
        <ele>247.2</ele>
        <time>2020-06-26T16:44:30Z</time>
      </trkpt>
      <trkpt lat="49.45112" lon="6.43568">
        <ele>247.3</ele>
        <time>2020-06-26T16:44:31Z</time>
      </trkpt>
      <trkpt lat="49.45111" lon="6.43569">
        <ele>247.4</ele>
        <time>2020-06-26T16:44:32Z</time>
      </trkpt>
      <trkpt lat="49.4511" lon="6.4357">
        <ele>247.5</ele>
        <time>2020-06-26T16:44:33Z</time>
      </trkpt>
      <trkpt lat="49.45109" lon="6.43571">
        <ele>247.6</ele>
        <time>2020-06-26T16:44:34Z</time>
      </trkpt>
      <trkpt lat="49.45109" lon="6.43571">
        <ele>247.7</ele>
        <time>2020-06-26T16:44:35Z</time>
      </trkpt>
      <trkpt lat="49.45108" lon="6.43572">
        <ele>247.7</ele>
        <time>2020-06-26T16:44:36Z</time>
      </trkpt>
      <trkpt lat="49.45108" lon="6.43574">
        <ele>247.8</ele>
        <time>2020-06-26T16:44:37Z</time>
      </trkpt>
      <trkpt lat="49.45107" lon="6.43575">
        <ele>247.9</ele>
        <time>2020-06-26T16:44:38Z</time>
      </trkpt>
      <trkpt lat="49.45107" lon="6.43577">
        <ele>248.1</ele>
        <time>2020-06-26T16:44:39Z</time>
      </trkpt>
      <trkpt lat="49.45106" lon="6.43578">
        <ele>248.1</ele>
        <time>2020-06-26T16:44:40Z</time>
      </trkpt>
      <trkpt lat="49.45106" lon="6.4358">
        <ele>248.2</ele>
        <time>2020-06-26T16:44:41Z</time>
      </trkpt>
      <trkpt lat="49.45106" lon="6.43581">
        <ele>248.3</ele>
        <time>2020-06-26T16:44:42Z</time>
      </trkpt>
      <trkpt lat="49.45105" lon="6.43582">
        <ele>248.4</ele>
        <time>2020-06-26T16:44:43Z</time>
      </trkpt>
      <trkpt lat="49.45105" lon="6.43583">
        <ele>248.5</ele>
        <time>2020-06-26T16:44:44Z</time>
      </trkpt>
      <trkpt lat="49.45105" lon="6.43585">
        <ele>248.6</ele>
        <time>2020-06-26T16:44:45Z</time>
      </trkpt>
      <trkpt lat="49.45105" lon="6.43587">
        <ele>248.7</ele>
        <time>2020-06-26T16:44:46Z</time>
      </trkpt>
      <trkpt lat="49.45105" lon="6.43588">
        <ele>248.8</ele>
        <time>2020-06-26T16:44:47Z</time>
      </trkpt>
      <trkpt lat="49.45106" lon="6.4359">
        <ele>248.9</ele>
        <time>2020-06-26T16:44:48Z</time>
      </trkpt>
      <trkpt lat="49.45106" lon="6.43592">
        <ele>249</ele>
        <time>2020-06-26T16:44:49Z</time>
      </trkpt>
      <trkpt lat="49.45106" lon="6.43594">
        <ele>249.1</ele>
        <time>2020-06-26T16:44:50Z</time>
      </trkpt>
      <trkpt lat="49.45107" lon="6.43595">
        <ele>249.3</ele>
        <time>2020-06-26T16:44:51Z</time>
      </trkpt>
      <trkpt lat="49.45106" lon="6.43597">
        <ele>249.4</ele>
        <time>2020-06-26T16:44:52Z</time>
      </trkpt>
      <trkpt lat="49.45106" lon="6.43598">
        <ele>249.5</ele>
        <time>2020-06-26T16:44:53Z</time>
      </trkpt>
      <trkpt lat="49.45106" lon="6.43599">
        <ele>249.5</ele>
        <time>2020-06-26T16:44:54Z</time>
      </trkpt>
      <trkpt lat="49.45106" lon="6.43599">
        <ele>249.5</ele>
        <time>2020-06-26T16:44:55Z</time>
      </trkpt>
      <trkpt lat="49.45106" lon="6.43599">
        <ele>249.5</ele>
        <time>2020-06-26T16:44:56Z</time>
      </trkpt>
      <trkpt lat="49.45106" lon="6.43599">
        <ele>249.5</ele>
        <time>2020-06-26T16:44:57Z</time>
      </trkpt>
      <trkpt lat="49.45106" lon="6.436">
        <ele>249.6</ele>
        <time>2020-06-26T16:44:58Z</time>
      </trkpt>
      <trkpt lat="49.45106" lon="6.43602">
        <ele>249.7</ele>
        <time>2020-06-26T16:44:59Z</time>
      </trkpt>
      <trkpt lat="49.45106" lon="6.43603">
        <ele>249.8</ele>
        <time>2020-06-26T16:45:00Z</time>
      </trkpt>
      <trkpt lat="49.45106" lon="6.43605">
        <ele>250</ele>
        <time>2020-06-26T16:45:01Z</time>
      </trkpt>
      <trkpt lat="49.45106" lon="6.43607">
        <ele>250.1</ele>
        <time>2020-06-26T16:45:02Z</time>
      </trkpt>
      <trkpt lat="49.45106" lon="6.43609">
        <ele>250.2</ele>
        <time>2020-06-26T16:45:03Z</time>
      </trkpt>
      <trkpt lat="49.45106" lon="6.4361">
        <ele>250.3</ele>
        <time>2020-06-26T16:45:04Z</time>
      </trkpt>
      <trkpt lat="49.45106" lon="6.43612">
        <ele>250.4</ele>
        <time>2020-06-26T16:45:05Z</time>
      </trkpt>
      <trkpt lat="49.45105" lon="6.43614">
        <ele>250.5</ele>
        <time>2020-06-26T16:45:06Z</time>
      </trkpt>
      <trkpt lat="49.45105" lon="6.43615">
        <ele>250.7</ele>
        <time>2020-06-26T16:45:07Z</time>
      </trkpt>
      <trkpt lat="49.45103" lon="6.43617">
        <ele>250.8</ele>
        <time>2020-06-26T16:45:08Z</time>
      </trkpt>
      <trkpt lat="49.45102" lon="6.43619">
        <ele>251</ele>
        <time>2020-06-26T16:45:09Z</time>
      </trkpt>
      <trkpt lat="49.45101" lon="6.4362">
        <ele>251.2</ele>
        <time>2020-06-26T16:45:10Z</time>
      </trkpt>
      <trkpt lat="49.451" lon="6.43621">
        <ele>251.3</ele>
        <time>2020-06-26T16:45:11Z</time>
      </trkpt>
      <trkpt lat="49.45099" lon="6.43621">
        <ele>251.3</ele>
        <time>2020-06-26T16:45:12Z</time>
      </trkpt>
      <trkpt lat="49.45099" lon="6.43622">
        <ele>251.4</ele>
        <time>2020-06-26T16:45:13Z</time>
      </trkpt>
      <trkpt lat="49.45098" lon="6.43623">
        <ele>251.5</ele>
        <time>2020-06-26T16:45:14Z</time>
      </trkpt>
      <trkpt lat="49.45097" lon="6.43623">
        <ele>251.6</ele>
        <time>2020-06-26T16:45:15Z</time>
      </trkpt>
      <trkpt lat="49.45097" lon="6.43624">
        <ele>251.7</ele>
        <time>2020-06-26T16:45:16Z</time>
      </trkpt>
      <trkpt lat="49.45095" lon="6.43623">
        <ele>251.8</ele>
        <time>2020-06-26T16:45:17Z</time>
      </trkpt>
      <trkpt lat="49.45094" lon="6.43624">
        <ele>251.9</ele>
        <time>2020-06-26T16:45:18Z</time>
      </trkpt>
      <trkpt lat="49.45095" lon="6.43628">
        <ele>252.2</ele>
        <time>2020-06-26T16:45:19Z</time>
      </trkpt>
      <trkpt lat="49.45094" lon="6.43629">
        <ele>252.6</ele>
        <time>2020-06-26T16:45:20Z</time>
      </trkpt>
      <trkpt lat="49.45095" lon="6.4363">
        <ele>252.8</ele>
        <time>2020-06-26T16:45:21Z</time>
      </trkpt>
      <trkpt lat="49.45095" lon="6.43631">
        <ele>252.9</ele>
        <time>2020-06-26T16:45:22Z</time>
      </trkpt>
      <trkpt lat="49.45095" lon="6.43632">
        <ele>253</ele>
        <time>2020-06-26T16:45:23Z</time>
      </trkpt>
      <trkpt lat="49.45095" lon="6.43632">
        <ele>253.1</ele>
        <time>2020-06-26T16:45:24Z</time>
      </trkpt>
      <trkpt lat="49.45096" lon="6.43633">
        <ele>253.3</ele>
        <time>2020-06-26T16:45:25Z</time>
      </trkpt>
      <trkpt lat="49.45096" lon="6.43634">
        <ele>253.4</ele>
        <time>2020-06-26T16:45:26Z</time>
      </trkpt>
      <trkpt lat="49.45096" lon="6.43635">
        <ele>253.5</ele>
        <time>2020-06-26T16:45:27Z</time>
      </trkpt>
      <trkpt lat="49.45096" lon="6.43636">
        <ele>253.6</ele>
        <time>2020-06-26T16:45:28Z</time>
      </trkpt>
      <trkpt lat="49.45097" lon="6.43636">
        <ele>253.7</ele>
        <time>2020-06-26T16:45:29Z</time>
      </trkpt>
      <trkpt lat="49.45097" lon="6.43637">
        <ele>253.8</ele>
        <time>2020-06-26T16:45:30Z</time>
      </trkpt>
      <trkpt lat="49.45097" lon="6.43638">
        <ele>254</ele>
        <time>2020-06-26T16:45:31Z</time>
      </trkpt>
      <trkpt lat="49.45097" lon="6.43639">
        <ele>254.1</ele>
        <time>2020-06-26T16:45:32Z</time>
      </trkpt>
      <trkpt lat="49.45098" lon="6.4364">
        <ele>254.2</ele>
        <time>2020-06-26T16:45:41Z</time>
      </trkpt>
      <trkpt lat="49.45098" lon="6.4364">
        <ele>254.3</ele>
        <time>2020-06-26T16:45:42Z</time>
      </trkpt>
      <trkpt lat="49.45098" lon="6.43645">
        <ele>254.9</ele>
        <time>2020-06-26T16:45:43Z</time>
      </trkpt>
      <trkpt lat="49.45098" lon="6.43647">
        <ele>255.2</ele>
        <time>2020-06-26T16:45:44Z</time>
      </trkpt>
      <trkpt lat="49.45099" lon="6.43652">
        <ele>255.8</ele>
        <time>2020-06-26T16:45:45Z</time>
      </trkpt>
      <trkpt lat="49.45099" lon="6.43654">
        <ele>256</ele>
        <time>2020-06-26T16:45:46Z</time>
      </trkpt>
      <trkpt lat="49.45099" lon="6.43658">
        <ele>256.5</ele>
        <time>2020-06-26T16:45:47Z</time>
      </trkpt>
      <trkpt lat="49.45099" lon="6.4366">
        <ele>256.7</ele>
        <time>2020-06-26T16:45:48Z</time>
      </trkpt>
      <trkpt lat="49.451" lon="6.43664">
        <ele>257.2</ele>
        <time>2020-06-26T16:45:49Z</time>
      </trkpt>
      <trkpt lat="49.451" lon="6.43666">
        <ele>257.4</ele>
        <time>2020-06-26T16:45:50Z</time>
      </trkpt>
      <trkpt lat="49.451" lon="6.4367">
        <ele>257.9</ele>
        <time>2020-06-26T16:45:51Z</time>
      </trkpt>
      <trkpt lat="49.451" lon="6.43672">
        <ele>258.1</ele>
        <time>2020-06-26T16:45:52Z</time>
      </trkpt>
      <trkpt lat="49.45101" lon="6.43676">
        <ele>258.5</ele>
        <time>2020-06-26T16:45:53Z</time>
      </trkpt>
      <trkpt lat="49.45101" lon="6.43678">
        <ele>258.7</ele>
        <time>2020-06-26T16:45:54Z</time>
      </trkpt>
      <trkpt lat="49.45101" lon="6.43683">
        <ele>259.2</ele>
        <time>2020-06-26T16:45:55Z</time>
      </trkpt>
      <trkpt lat="49.45101" lon="6.43684">
        <ele>259.4</ele>
        <time>2020-06-26T16:45:56Z</time>
      </trkpt>
      <trkpt lat="49.451" lon="6.43687">
        <ele>259.7</ele>
        <time>2020-06-26T16:45:57Z</time>
      </trkpt>
      <trkpt lat="49.451" lon="6.43689">
        <ele>259.9</ele>
        <time>2020-06-26T16:45:58Z</time>
      </trkpt>
      <trkpt lat="49.451" lon="6.43692">
        <ele>260.2</ele>
        <time>2020-06-26T16:45:59Z</time>
      </trkpt>
      <trkpt lat="49.45099" lon="6.43695">
        <ele>260.5</ele>
        <time>2020-06-26T16:46:00Z</time>
      </trkpt>
      <trkpt lat="49.45099" lon="6.43696">
        <ele>260.7</ele>
        <time>2020-06-26T16:46:01Z</time>
      </trkpt>
      <trkpt lat="49.45098" lon="6.43698">
        <ele>261</ele>
        <time>2020-06-26T16:46:02Z</time>
      </trkpt>
      <trkpt lat="49.45097" lon="6.437">
        <ele>261.2</ele>
        <time>2020-06-26T16:46:03Z</time>
      </trkpt>
      <trkpt lat="49.45096" lon="6.43702">
        <ele>261.5</ele>
        <time>2020-06-26T16:46:04Z</time>
      </trkpt>
      <trkpt lat="49.45094" lon="6.43703">
        <ele>261.8</ele>
        <time>2020-06-26T16:46:05Z</time>
      </trkpt>
      <trkpt lat="49.45093" lon="6.43705">
        <ele>262</ele>
        <time>2020-06-26T16:46:06Z</time>
      </trkpt>
      <trkpt lat="49.45092" lon="6.43707">
        <ele>262.4</ele>
        <time>2020-06-26T16:46:07Z</time>
      </trkpt>
      <trkpt lat="49.45091" lon="6.43708">
        <ele>262.5</ele>
        <time>2020-06-26T16:46:08Z</time>
      </trkpt>
      <trkpt lat="49.4509" lon="6.43709">
        <ele>262.7</ele>
        <time>2020-06-26T16:46:09Z</time>
      </trkpt>
      <trkpt lat="49.4509" lon="6.4371">
        <ele>262.8</ele>
        <time>2020-06-26T16:46:10Z</time>
      </trkpt>
      <trkpt lat="49.45089" lon="6.43711">
        <ele>263</ele>
        <time>2020-06-26T16:46:11Z</time>
      </trkpt>
      <trkpt lat="49.45088" lon="6.43713">
        <ele>263.2</ele>
        <time>2020-06-26T16:46:12Z</time>
      </trkpt>
      <trkpt lat="49.45086" lon="6.43714">
        <ele>263.5</ele>
        <time>2020-06-26T16:46:13Z</time>
      </trkpt>
      <trkpt lat="49.45085" lon="6.43716">
        <ele>263.8</ele>
        <time>2020-06-26T16:46:14Z</time>
      </trkpt>
      <trkpt lat="49.45084" lon="6.43718">
        <ele>264</ele>
        <time>2020-06-26T16:46:15Z</time>
      </trkpt>
      <trkpt lat="49.45083" lon="6.43721">
        <ele>264.3</ele>
        <time>2020-06-26T16:46:16Z</time>
      </trkpt>
      <trkpt lat="49.45082" lon="6.43722">
        <ele>264.6</ele>
        <time>2020-06-26T16:46:17Z</time>
      </trkpt>
      <trkpt lat="49.45081" lon="6.43724">
        <ele>264.8</ele>
        <time>2020-06-26T16:46:18Z</time>
      </trkpt>
      <trkpt lat="49.4508" lon="6.43726">
        <ele>265.1</ele>
        <time>2020-06-26T16:46:19Z</time>
      </trkpt>
      <trkpt lat="49.45079" lon="6.43728">
        <ele>265.4</ele>
        <time>2020-06-26T16:46:20Z</time>
      </trkpt>
      <trkpt lat="49.45077" lon="6.43731">
        <ele>265.7</ele>
        <time>2020-06-26T16:46:21Z</time>
      </trkpt>
      <trkpt lat="49.45077" lon="6.43732">
        <ele>265.9</ele>
        <time>2020-06-26T16:46:22Z</time>
      </trkpt>
      <trkpt lat="49.45076" lon="6.43733">
        <ele>266</ele>
        <time>2020-06-26T16:46:23Z</time>
      </trkpt>
      <trkpt lat="49.45076" lon="6.43735">
        <ele>266.2</ele>
        <time>2020-06-26T16:46:24Z</time>
      </trkpt>
      <trkpt lat="49.45074" lon="6.43736">
        <ele>266.5</ele>
        <time>2020-06-26T16:46:25Z</time>
      </trkpt>
      <trkpt lat="49.45073" lon="6.43738">
        <ele>266.7</ele>
        <time>2020-06-26T16:46:26Z</time>
      </trkpt>
      <trkpt lat="49.45072" lon="6.4374">
        <ele>267</ele>
        <time>2020-06-26T16:46:27Z</time>
      </trkpt>
      <trkpt lat="49.4507" lon="6.43741">
        <ele>267.2</ele>
        <time>2020-06-26T16:46:28Z</time>
      </trkpt>
      <trkpt lat="49.45069" lon="6.43743">
        <ele>267.4</ele>
        <time>2020-06-26T16:46:29Z</time>
      </trkpt>
      <trkpt lat="49.45068" lon="6.43743">
        <ele>267.6</ele>
        <time>2020-06-26T16:46:30Z</time>
      </trkpt>
      <trkpt lat="49.45068" lon="6.43744">
        <ele>267.7</ele>
        <time>2020-06-26T16:46:31Z</time>
      </trkpt>
      <trkpt lat="49.45067" lon="6.43745">
        <ele>267.8</ele>
        <time>2020-06-26T16:46:32Z</time>
      </trkpt>
      <trkpt lat="49.45066" lon="6.43746">
        <ele>268</ele>
        <time>2020-06-26T16:46:33Z</time>
      </trkpt>
      <trkpt lat="49.45065" lon="6.43748">
        <ele>268.2</ele>
        <time>2020-06-26T16:46:34Z</time>
      </trkpt>
      <trkpt lat="49.45062" lon="6.43751">
        <ele>268.6</ele>
        <time>2020-06-26T16:46:35Z</time>
      </trkpt>
      <trkpt lat="49.45062" lon="6.43752">
        <ele>268.7</ele>
        <time>2020-06-26T16:46:36Z</time>
      </trkpt>
      <trkpt lat="49.4506" lon="6.43755">
        <ele>269.1</ele>
        <time>2020-06-26T16:46:37Z</time>
      </trkpt>
      <trkpt lat="49.45059" lon="6.43756">
        <ele>269.2</ele>
        <time>2020-06-26T16:46:38Z</time>
      </trkpt>
      <trkpt lat="49.45058" lon="6.4376">
        <ele>269.5</ele>
        <time>2020-06-26T16:46:39Z</time>
      </trkpt>
      <trkpt lat="49.45058" lon="6.43761">
        <ele>269.6</ele>
        <time>2020-06-26T16:46:40Z</time>
      </trkpt>
      <trkpt lat="49.45057" lon="6.43765">
        <ele>269.8</ele>
        <time>2020-06-26T16:46:41Z</time>
      </trkpt>
      <trkpt lat="49.45056" lon="6.43767">
        <ele>269.9</ele>
        <time>2020-06-26T16:46:42Z</time>
      </trkpt>
      <trkpt lat="49.45055" lon="6.43771">
        <ele>270.1</ele>
        <time>2020-06-26T16:46:43Z</time>
      </trkpt>
      <trkpt lat="49.45055" lon="6.43772">
        <ele>270.2</ele>
        <time>2020-06-26T16:46:44Z</time>
      </trkpt>
      <trkpt lat="49.45054" lon="6.43776">
        <ele>270.4</ele>
        <time>2020-06-26T16:46:45Z</time>
      </trkpt>
      <trkpt lat="49.45054" lon="6.43778">
        <ele>270.5</ele>
        <time>2020-06-26T16:46:46Z</time>
      </trkpt>
      <trkpt lat="49.45053" lon="6.43782">
        <ele>270.7</ele>
        <time>2020-06-26T16:46:47Z</time>
      </trkpt>
      <trkpt lat="49.45053" lon="6.43783">
        <ele>270.8</ele>
        <time>2020-06-26T16:46:48Z</time>
      </trkpt>
      <trkpt lat="49.45052" lon="6.43785">
        <ele>270.9</ele>
        <time>2020-06-26T16:46:49Z</time>
      </trkpt>
      <trkpt lat="49.45052" lon="6.43789">
        <ele>271.1</ele>
        <time>2020-06-26T16:46:50Z</time>
      </trkpt>
      <trkpt lat="49.45052" lon="6.43791">
        <ele>271.2</ele>
        <time>2020-06-26T16:46:51Z</time>
      </trkpt>
      <trkpt lat="49.45051" lon="6.43794">
        <ele>271.4</ele>
        <time>2020-06-26T16:46:52Z</time>
      </trkpt>
      <trkpt lat="49.45051" lon="6.43796">
        <ele>271.5</ele>
        <time>2020-06-26T16:46:53Z</time>
      </trkpt>
      <trkpt lat="49.45051" lon="6.43799">
        <ele>271.6</ele>
        <time>2020-06-26T16:46:54Z</time>
      </trkpt>
      <trkpt lat="49.45052" lon="6.43804">
        <ele>271.9</ele>
        <time>2020-06-26T16:46:55Z</time>
      </trkpt>
      <trkpt lat="49.45051" lon="6.43805">
        <ele>272</ele>
        <time>2020-06-26T16:46:56Z</time>
      </trkpt>
      <trkpt lat="49.45052" lon="6.43808">
        <ele>272.1</ele>
        <time>2020-06-26T16:46:57Z</time>
      </trkpt>
      <trkpt lat="49.45052" lon="6.43811">
        <ele>272.2</ele>
        <time>2020-06-26T16:46:58Z</time>
      </trkpt>
      <trkpt lat="49.45052" lon="6.43815">
        <ele>272.5</ele>
        <time>2020-06-26T16:46:59Z</time>
      </trkpt>
      <trkpt lat="49.45052" lon="6.43817">
        <ele>272.6</ele>
        <time>2020-06-26T16:47:00Z</time>
      </trkpt>
      <trkpt lat="49.45051" lon="6.43819">
        <ele>272.7</ele>
        <time>2020-06-26T16:47:01Z</time>
      </trkpt>
      <trkpt lat="49.45051" lon="6.43822">
        <ele>272.8</ele>
        <time>2020-06-26T16:47:02Z</time>
      </trkpt>
      <trkpt lat="49.45052" lon="6.43827">
        <ele>273</ele>
        <time>2020-06-26T16:47:03Z</time>
      </trkpt>
      <trkpt lat="49.45052" lon="6.43828">
        <ele>273.1</ele>
        <time>2020-06-26T16:47:04Z</time>
      </trkpt>
      <trkpt lat="49.45052" lon="6.43831">
        <ele>273.2</ele>
        <time>2020-06-26T16:47:05Z</time>
      </trkpt>
      <trkpt lat="49.45052" lon="6.43834">
        <ele>273.4</ele>
        <time>2020-06-26T16:47:06Z</time>
      </trkpt>
      <trkpt lat="49.45052" lon="6.43836">
        <ele>273.5</ele>
        <time>2020-06-26T16:47:07Z</time>
      </trkpt>
      <trkpt lat="49.45052" lon="6.43839">
        <ele>273.6</ele>
        <time>2020-06-26T16:47:08Z</time>
      </trkpt>
      <trkpt lat="49.45052" lon="6.43841">
        <ele>273.7</ele>
        <time>2020-06-26T16:47:09Z</time>
      </trkpt>
      <trkpt lat="49.45053" lon="6.43844">
        <ele>273.9</ele>
        <time>2020-06-26T16:47:10Z</time>
      </trkpt>
      <trkpt lat="49.45052" lon="6.43848">
        <ele>274.1</ele>
        <time>2020-06-26T16:47:11Z</time>
      </trkpt>
      <trkpt lat="49.45052" lon="6.43849">
        <ele>274.1</ele>
        <time>2020-06-26T16:47:12Z</time>
      </trkpt>
      <trkpt lat="49.45052" lon="6.43851">
        <ele>274.2</ele>
        <time>2020-06-26T16:47:13Z</time>
      </trkpt>
      <trkpt lat="49.45051" lon="6.43854">
        <ele>274.3</ele>
        <time>2020-06-26T16:47:14Z</time>
      </trkpt>
      <trkpt lat="49.4505" lon="6.43859">
        <ele>274.6</ele>
        <time>2020-06-26T16:47:15Z</time>
      </trkpt>
      <trkpt lat="49.4505" lon="6.4386">
        <ele>274.6</ele>
        <time>2020-06-26T16:47:16Z</time>
      </trkpt>
      <trkpt lat="49.45049" lon="6.43865">
        <ele>274.9</ele>
        <time>2020-06-26T16:47:17Z</time>
      </trkpt>
      <trkpt lat="49.45048" lon="6.43866">
        <ele>274.9</ele>
        <time>2020-06-26T16:47:18Z</time>
      </trkpt>
      <trkpt lat="49.45048" lon="6.43868">
        <ele>275.1</ele>
        <time>2020-06-26T16:47:19Z</time>
      </trkpt>
      <trkpt lat="49.45047" lon="6.43871">
        <ele>275.2</ele>
        <time>2020-06-26T16:47:20Z</time>
      </trkpt>
      <trkpt lat="49.45046" lon="6.43874">
        <ele>275.4</ele>
        <time>2020-06-26T16:47:21Z</time>
      </trkpt>
      <trkpt lat="49.45046" lon="6.43876">
        <ele>275.5</ele>
        <time>2020-06-26T16:47:22Z</time>
      </trkpt>
      <trkpt lat="49.45044" lon="6.4388">
        <ele>275.7</ele>
        <time>2020-06-26T16:47:23Z</time>
      </trkpt>
      <trkpt lat="49.45043" lon="6.43881">
        <ele>275.8</ele>
        <time>2020-06-26T16:47:24Z</time>
      </trkpt>
      <trkpt lat="49.45041" lon="6.43884">
        <ele>276</ele>
        <time>2020-06-26T16:47:25Z</time>
      </trkpt>
      <trkpt lat="49.45041" lon="6.43885">
        <ele>276.1</ele>
        <time>2020-06-26T16:47:26Z</time>
      </trkpt>
      <trkpt lat="49.45038" lon="6.43888">
        <ele>276.4</ele>
        <time>2020-06-26T16:47:27Z</time>
      </trkpt>
      <trkpt lat="49.45038" lon="6.43889">
        <ele>276.4</ele>
        <time>2020-06-26T16:47:28Z</time>
      </trkpt>
      <trkpt lat="49.45036" lon="6.43893">
        <ele>276.7</ele>
        <time>2020-06-26T16:47:29Z</time>
      </trkpt>
      <trkpt lat="49.45035" lon="6.43894">
        <ele>276.8</ele>
        <time>2020-06-26T16:47:30Z</time>
      </trkpt>
      <trkpt lat="49.45032" lon="6.43897">
        <ele>277</ele>
        <time>2020-06-26T16:47:31Z</time>
      </trkpt>
      <trkpt lat="49.45031" lon="6.43898">
        <ele>277.1</ele>
        <time>2020-06-26T16:47:32Z</time>
      </trkpt>
      <trkpt lat="49.45029" lon="6.43901">
        <ele>277.3</ele>
        <time>2020-06-26T16:47:33Z</time>
      </trkpt>
      <trkpt lat="49.45028" lon="6.43901">
        <ele>277.4</ele>
        <time>2020-06-26T16:47:34Z</time>
      </trkpt>
      <trkpt lat="49.45026" lon="6.43905">
        <ele>277.6</ele>
        <time>2020-06-26T16:47:35Z</time>
      </trkpt>
      <trkpt lat="49.45025" lon="6.43906">
        <ele>277.7</ele>
        <time>2020-06-26T16:47:36Z</time>
      </trkpt>
      <trkpt lat="49.45023" lon="6.43909">
        <ele>277.9</ele>
        <time>2020-06-26T16:47:37Z</time>
      </trkpt>
      <trkpt lat="49.45022" lon="6.4391">
        <ele>278</ele>
        <time>2020-06-26T16:47:38Z</time>
      </trkpt>
      <trkpt lat="49.45021" lon="6.43912">
        <ele>278.1</ele>
        <time>2020-06-26T16:47:39Z</time>
      </trkpt>
      <trkpt lat="49.4502" lon="6.43914">
        <ele>278.2</ele>
        <time>2020-06-26T16:47:40Z</time>
      </trkpt>
      <trkpt lat="49.45019" lon="6.43915">
        <ele>278.3</ele>
        <time>2020-06-26T16:47:41Z</time>
      </trkpt>
      <trkpt lat="49.45018" lon="6.43918">
        <ele>278.4</ele>
        <time>2020-06-26T16:47:42Z</time>
      </trkpt>
      <trkpt lat="49.45017" lon="6.4392">
        <ele>278.6</ele>
        <time>2020-06-26T16:47:43Z</time>
      </trkpt>
      <trkpt lat="49.45016" lon="6.43922">
        <ele>278.7</ele>
        <time>2020-06-26T16:47:44Z</time>
      </trkpt>
      <trkpt lat="49.45015" lon="6.43924">
        <ele>278.8</ele>
        <time>2020-06-26T16:47:45Z</time>
      </trkpt>
      <trkpt lat="49.45014" lon="6.43925">
        <ele>278.9</ele>
        <time>2020-06-26T16:47:46Z</time>
      </trkpt>
      <trkpt lat="49.45012" lon="6.43926">
        <ele>279.1</ele>
        <time>2020-06-26T16:47:47Z</time>
      </trkpt>
      <trkpt lat="49.45011" lon="6.43928">
        <ele>279.2</ele>
        <time>2020-06-26T16:47:48Z</time>
      </trkpt>
      <trkpt lat="49.45009" lon="6.43931">
        <ele>279.4</ele>
        <time>2020-06-26T16:47:49Z</time>
      </trkpt>
      <trkpt lat="49.45008" lon="6.43932">
        <ele>279.4</ele>
        <time>2020-06-26T16:47:50Z</time>
      </trkpt>
      <trkpt lat="49.45007" lon="6.43933">
        <ele>279.5</ele>
        <time>2020-06-26T16:47:51Z</time>
      </trkpt>
      <trkpt lat="49.45006" lon="6.43935">
        <ele>279.6</ele>
        <time>2020-06-26T16:47:52Z</time>
      </trkpt>
      <trkpt lat="49.45005" lon="6.43936">
        <ele>279.8</ele>
        <time>2020-06-26T16:47:53Z</time>
      </trkpt>
      <trkpt lat="49.45003" lon="6.43938">
        <ele>279.9</ele>
        <time>2020-06-26T16:47:54Z</time>
      </trkpt>
      <trkpt lat="49.45001" lon="6.43941">
        <ele>280.1</ele>
        <time>2020-06-26T16:47:55Z</time>
      </trkpt>
      <trkpt lat="49.45" lon="6.43942">
        <ele>280.2</ele>
        <time>2020-06-26T16:47:56Z</time>
      </trkpt>
      <trkpt lat="49.44998" lon="6.43945">
        <ele>280.4</ele>
        <time>2020-06-26T16:47:57Z</time>
      </trkpt>
      <trkpt lat="49.44997" lon="6.43946">
        <ele>280.5</ele>
        <time>2020-06-26T16:47:58Z</time>
      </trkpt>
      <trkpt lat="49.44996" lon="6.43948">
        <ele>280.7</ele>
        <time>2020-06-26T16:47:59Z</time>
      </trkpt>
      <trkpt lat="49.44995" lon="6.4395">
        <ele>280.8</ele>
        <time>2020-06-26T16:48:00Z</time>
      </trkpt>
      <trkpt lat="49.44994" lon="6.43952">
        <ele>280.9</ele>
        <time>2020-06-26T16:48:01Z</time>
      </trkpt>
      <trkpt lat="49.44993" lon="6.43954">
        <ele>281.1</ele>
        <time>2020-06-26T16:48:02Z</time>
      </trkpt>
      <trkpt lat="49.44992" lon="6.43956">
        <ele>281.2</ele>
        <time>2020-06-26T16:48:03Z</time>
      </trkpt>
      <trkpt lat="49.4499" lon="6.43958">
        <ele>281.3</ele>
        <time>2020-06-26T16:48:04Z</time>
      </trkpt>
      <trkpt lat="49.44988" lon="6.43961">
        <ele>281.6</ele>
        <time>2020-06-26T16:48:05Z</time>
      </trkpt>
      <trkpt lat="49.44988" lon="6.43962">
        <ele>281.6</ele>
        <time>2020-06-26T16:48:06Z</time>
      </trkpt>
      <trkpt lat="49.44986" lon="6.43964">
        <ele>281.8</ele>
        <time>2020-06-26T16:48:07Z</time>
      </trkpt>
      <trkpt lat="49.44985" lon="6.43966">
        <ele>281.9</ele>
        <time>2020-06-26T16:48:08Z</time>
      </trkpt>
      <trkpt lat="49.44983" lon="6.43968">
        <ele>282.1</ele>
        <time>2020-06-26T16:48:09Z</time>
      </trkpt>
      <trkpt lat="49.44982" lon="6.43968">
        <ele>282.2</ele>
        <time>2020-06-26T16:48:10Z</time>
      </trkpt>
      <trkpt lat="49.4498" lon="6.43969">
        <ele>282.3</ele>
        <time>2020-06-26T16:48:11Z</time>
      </trkpt>
      <trkpt lat="49.44978" lon="6.4397">
        <ele>282.5</ele>
        <time>2020-06-26T16:48:12Z</time>
      </trkpt>
      <trkpt lat="49.44976" lon="6.43971">
        <ele>282.7</ele>
        <time>2020-06-26T16:48:13Z</time>
      </trkpt>
      <trkpt lat="49.44975" lon="6.43972">
        <ele>282.7</ele>
        <time>2020-06-26T16:48:14Z</time>
      </trkpt>
      <trkpt lat="49.44972" lon="6.43973">
        <ele>283.3</ele>
        <time>2020-06-26T16:48:15Z</time>
      </trkpt>
      <trkpt lat="49.44971" lon="6.43974">
        <ele>283.3</ele>
        <time>2020-06-26T16:48:16Z</time>
      </trkpt>
      <trkpt lat="49.4497" lon="6.43975">
        <ele>283.4</ele>
        <time>2020-06-26T16:48:17Z</time>
      </trkpt>
      <trkpt lat="49.44968" lon="6.43975">
        <ele>283.5</ele>
        <time>2020-06-26T16:48:18Z</time>
      </trkpt>
      <trkpt lat="49.44967" lon="6.43975">
        <ele>283.6</ele>
        <time>2020-06-26T16:48:19Z</time>
      </trkpt>
      <trkpt lat="49.44965" lon="6.43976">
        <ele>283.7</ele>
        <time>2020-06-26T16:48:20Z</time>
      </trkpt>
      <trkpt lat="49.44962" lon="6.43975">
        <ele>283.9</ele>
        <time>2020-06-26T16:48:21Z</time>
      </trkpt>
      <trkpt lat="49.4496" lon="6.43975">
        <ele>283.9</ele>
        <time>2020-06-26T16:48:22Z</time>
      </trkpt>
      <trkpt lat="49.44957" lon="6.43974">
        <ele>284.1</ele>
        <time>2020-06-26T16:48:23Z</time>
      </trkpt>
      <trkpt lat="49.44956" lon="6.43974">
        <ele>284.2</ele>
        <time>2020-06-26T16:48:24Z</time>
      </trkpt>
      <trkpt lat="49.44953" lon="6.43973">
        <ele>284.3</ele>
        <time>2020-06-26T16:48:25Z</time>
      </trkpt>
      <trkpt lat="49.44952" lon="6.43973">
        <ele>284.4</ele>
        <time>2020-06-26T16:48:26Z</time>
      </trkpt>
      <trkpt lat="49.44949" lon="6.43971">
        <ele>284.5</ele>
        <time>2020-06-26T16:48:27Z</time>
      </trkpt>
      <trkpt lat="49.44948" lon="6.43971">
        <ele>284.6</ele>
        <time>2020-06-26T16:48:28Z</time>
      </trkpt>
      <trkpt lat="49.44945" lon="6.43969">
        <ele>284.7</ele>
        <time>2020-06-26T16:48:29Z</time>
      </trkpt>
      <trkpt lat="49.44944" lon="6.43969">
        <ele>284.8</ele>
        <time>2020-06-26T16:48:30Z</time>
      </trkpt>
      <trkpt lat="49.44941" lon="6.43965">
        <ele>284.9</ele>
        <time>2020-06-26T16:48:31Z</time>
      </trkpt>
      <trkpt lat="49.4494" lon="6.43964">
        <ele>284.9</ele>
        <time>2020-06-26T16:48:32Z</time>
      </trkpt>
      <trkpt lat="49.44937" lon="6.43961">
        <ele>285.1</ele>
        <time>2020-06-26T16:48:33Z</time>
      </trkpt>
      <trkpt lat="49.44936" lon="6.4396">
        <ele>285.1</ele>
        <time>2020-06-26T16:48:34Z</time>
      </trkpt>
      <trkpt lat="49.44934" lon="6.43956">
        <ele>285.3</ele>
        <time>2020-06-26T16:48:35Z</time>
      </trkpt>
      <trkpt lat="49.44933" lon="6.43954">
        <ele>285.3</ele>
        <time>2020-06-26T16:48:36Z</time>
      </trkpt>
      <trkpt lat="49.4493" lon="6.43951">
        <ele>285.4</ele>
        <time>2020-06-26T16:48:37Z</time>
      </trkpt>
      <trkpt lat="49.44929" lon="6.4395">
        <ele>285.5</ele>
        <time>2020-06-26T16:48:38Z</time>
      </trkpt>
      <trkpt lat="49.44927" lon="6.43945">
        <ele>285.6</ele>
        <time>2020-06-26T16:48:39Z</time>
      </trkpt>
      <trkpt lat="49.44926" lon="6.43944">
        <ele>285.6</ele>
        <time>2020-06-26T16:48:40Z</time>
      </trkpt>
      <trkpt lat="49.44924" lon="6.43941">
        <ele>285.7</ele>
        <time>2020-06-26T16:48:41Z</time>
      </trkpt>
      <trkpt lat="49.44921" lon="6.43938">
        <ele>285.8</ele>
        <time>2020-06-26T16:48:42Z</time>
      </trkpt>
      <trkpt lat="49.44918" lon="6.43936">
        <ele>285.9</ele>
        <time>2020-06-26T16:48:43Z</time>
      </trkpt>
      <trkpt lat="49.44916" lon="6.43934">
        <ele>286</ele>
        <time>2020-06-26T16:48:44Z</time>
      </trkpt>
      <trkpt lat="49.44914" lon="6.4393">
        <ele>286.1</ele>
        <time>2020-06-26T16:48:45Z</time>
      </trkpt>
      <trkpt lat="49.44911" lon="6.43927">
        <ele>286.2</ele>
        <time>2020-06-26T16:48:46Z</time>
      </trkpt>
      <trkpt lat="49.44909" lon="6.43923">
        <ele>286.3</ele>
        <time>2020-06-26T16:48:47Z</time>
      </trkpt>
      <trkpt lat="49.44907" lon="6.43919">
        <ele>286.4</ele>
        <time>2020-06-26T16:48:48Z</time>
      </trkpt>
      <trkpt lat="49.44904" lon="6.43915">
        <ele>286.5</ele>
        <time>2020-06-26T16:48:49Z</time>
      </trkpt>
      <trkpt lat="49.44902" lon="6.43912">
        <ele>286.6</ele>
        <time>2020-06-26T16:48:50Z</time>
      </trkpt>
      <trkpt lat="49.44899" lon="6.43909">
        <ele>286.7</ele>
        <time>2020-06-26T16:48:51Z</time>
      </trkpt>
      <trkpt lat="49.44897" lon="6.43905">
        <ele>286.7</ele>
        <time>2020-06-26T16:48:52Z</time>
      </trkpt>
      <trkpt lat="49.44894" lon="6.43902">
        <ele>286.8</ele>
        <time>2020-06-26T16:48:53Z</time>
      </trkpt>
      <trkpt lat="49.44892" lon="6.43899">
        <ele>286.9</ele>
        <time>2020-06-26T16:48:54Z</time>
      </trkpt>
      <trkpt lat="49.4489" lon="6.43896">
        <ele>287</ele>
        <time>2020-06-26T16:48:55Z</time>
      </trkpt>
      <trkpt lat="49.44887" lon="6.43892">
        <ele>287.1</ele>
        <time>2020-06-26T16:48:56Z</time>
      </trkpt>
      <trkpt lat="49.44885" lon="6.43888">
        <ele>287.2</ele>
        <time>2020-06-26T16:48:57Z</time>
      </trkpt>
      <trkpt lat="49.44882" lon="6.43884">
        <ele>287.3</ele>
        <time>2020-06-26T16:48:58Z</time>
      </trkpt>
      <trkpt lat="49.4488" lon="6.4388">
        <ele>287.5</ele>
        <time>2020-06-26T16:48:59Z</time>
      </trkpt>
      <trkpt lat="49.44877" lon="6.43877">
        <ele>287.6</ele>
        <time>2020-06-26T16:49:00Z</time>
      </trkpt>
      <trkpt lat="49.44874" lon="6.43873">
        <ele>287.7</ele>
        <time>2020-06-26T16:49:01Z</time>
      </trkpt>
      <trkpt lat="49.44872" lon="6.4387">
        <ele>287.8</ele>
        <time>2020-06-26T16:49:02Z</time>
      </trkpt>
      <trkpt lat="49.4487" lon="6.43866">
        <ele>288</ele>
        <time>2020-06-26T16:49:03Z</time>
      </trkpt>
      <trkpt lat="49.44869" lon="6.43865">
        <ele>288</ele>
        <time>2020-06-26T16:49:04Z</time>
      </trkpt>
      <trkpt lat="49.44867" lon="6.43861">
        <ele>288.1</ele>
        <time>2020-06-26T16:49:05Z</time>
      </trkpt>
      <trkpt lat="49.44866" lon="6.4386">
        <ele>288.1</ele>
        <time>2020-06-26T16:49:06Z</time>
      </trkpt>
      <trkpt lat="49.44866" lon="6.43859">
        <ele>288.1</ele>
        <time>2020-06-26T16:49:07Z</time>
      </trkpt>
      <trkpt lat="49.44865" lon="6.43858">
        <ele>288.1</ele>
        <time>2020-06-26T16:49:08Z</time>
      </trkpt>
      <trkpt lat="49.44865" lon="6.43857">
        <ele>288.1</ele>
        <time>2020-06-26T16:49:09Z</time>
      </trkpt>
      <trkpt lat="49.44864" lon="6.43858">
        <ele>288.1</ele>
        <time>2020-06-26T16:49:10Z</time>
      </trkpt>
      <trkpt lat="49.44863" lon="6.43859">
        <ele>288.1</ele>
        <time>2020-06-26T16:49:11Z</time>
      </trkpt>
      <trkpt lat="49.44864" lon="6.43859">
        <ele>288.1</ele>
        <time>2020-06-26T16:49:12Z</time>
      </trkpt>
      <trkpt lat="49.44864" lon="6.43858">
        <ele>288.1</ele>
        <time>2020-06-26T16:49:13Z</time>
      </trkpt>
      <trkpt lat="49.44864" lon="6.43858">
        <ele>288.1</ele>
        <time>2020-06-26T16:49:14Z</time>
      </trkpt>
      <trkpt lat="49.44864" lon="6.43858">
        <ele>288.1</ele>
        <time>2020-06-26T16:49:15Z</time>
      </trkpt>
      <trkpt lat="49.44865" lon="6.43858">
        <ele>288.1</ele>
        <time>2020-06-26T16:49:16Z</time>
      </trkpt>
      <trkpt lat="49.44865" lon="6.43859">
        <ele>288.1</ele>
        <time>2020-06-26T16:49:17Z</time>
      </trkpt>
      <trkpt lat="49.44864" lon="6.4386">
        <ele>288.1</ele>
        <time>2020-06-26T16:49:18Z</time>
      </trkpt>
      <trkpt lat="49.44864" lon="6.4386">
        <ele>288.1</ele>
        <time>2020-06-26T16:49:19Z</time>
      </trkpt>
      <trkpt lat="49.44864" lon="6.4386">
        <ele>288.1</ele>
        <time>2020-06-26T16:49:20Z</time>
      </trkpt>
      <trkpt lat="49.44858" lon="6.43853">
        <ele>288.1</ele>
        <time>2020-06-26T16:50:26Z</time>
      </trkpt>
      <trkpt lat="49.44855" lon="6.4385">
        <ele>288.3</ele>
        <time>2020-06-26T16:50:27Z</time>
      </trkpt>
      <trkpt lat="49.4485" lon="6.43848">
        <ele>288.4</ele>
        <time>2020-06-26T16:50:28Z</time>
      </trkpt>
      <trkpt lat="49.44847" lon="6.43845">
        <ele>288.6</ele>
        <time>2020-06-26T16:50:29Z</time>
      </trkpt>
      <trkpt lat="49.44844" lon="6.43843">
        <ele>288.7</ele>
        <time>2020-06-26T16:50:30Z</time>
      </trkpt>
      <trkpt lat="49.44841" lon="6.43843">
        <ele>288.8</ele>
        <time>2020-06-26T16:50:31Z</time>
      </trkpt>
      <trkpt lat="49.44836" lon="6.43841">
        <ele>288.9</ele>
        <time>2020-06-26T16:50:32Z</time>
      </trkpt>
      <trkpt lat="49.44832" lon="6.4384">
        <ele>289</ele>
        <time>2020-06-26T16:50:33Z</time>
      </trkpt>
      <trkpt lat="49.44828" lon="6.4384">
        <ele>289.1</ele>
        <time>2020-06-26T16:50:34Z</time>
      </trkpt>
      <trkpt lat="49.44825" lon="6.4384">
        <ele>289.3</ele>
        <time>2020-06-26T16:50:35Z</time>
      </trkpt>
      <trkpt lat="49.44821" lon="6.43841">
        <ele>289.4</ele>
        <time>2020-06-26T16:50:36Z</time>
      </trkpt>
      <trkpt lat="49.44818" lon="6.43842">
        <ele>289.5</ele>
        <time>2020-06-26T16:50:37Z</time>
      </trkpt>
      <trkpt lat="49.44814" lon="6.43843">
        <ele>289.6</ele>
        <time>2020-06-26T16:50:38Z</time>
      </trkpt>
      <trkpt lat="49.44811" lon="6.43844">
        <ele>289.7</ele>
        <time>2020-06-26T16:50:39Z</time>
      </trkpt>
      <trkpt lat="49.44808" lon="6.43846">
        <ele>289.9</ele>
        <time>2020-06-26T16:50:40Z</time>
      </trkpt>
      <trkpt lat="49.44805" lon="6.43848">
        <ele>290</ele>
        <time>2020-06-26T16:50:41Z</time>
      </trkpt>
      <trkpt lat="49.44802" lon="6.4385">
        <ele>290.1</ele>
        <time>2020-06-26T16:50:42Z</time>
      </trkpt>
      <trkpt lat="49.448" lon="6.43852">
        <ele>290.2</ele>
        <time>2020-06-26T16:50:43Z</time>
      </trkpt>
      <trkpt lat="49.44797" lon="6.43855">
        <ele>290.4</ele>
        <time>2020-06-26T16:50:44Z</time>
      </trkpt>
      <trkpt lat="49.44795" lon="6.43858">
        <ele>290.5</ele>
        <time>2020-06-26T16:50:45Z</time>
      </trkpt>
      <trkpt lat="49.44792" lon="6.43862">
        <ele>290.6</ele>
        <time>2020-06-26T16:50:46Z</time>
      </trkpt>
      <trkpt lat="49.4479" lon="6.43866">
        <ele>290.8</ele>
        <time>2020-06-26T16:50:47Z</time>
      </trkpt>
      <trkpt lat="49.44787" lon="6.4387">
        <ele>290.9</ele>
        <time>2020-06-26T16:50:48Z</time>
      </trkpt>
      <trkpt lat="49.44785" lon="6.43874">
        <ele>291.1</ele>
        <time>2020-06-26T16:50:49Z</time>
      </trkpt>
      <trkpt lat="49.44782" lon="6.43878">
        <ele>291.2</ele>
        <time>2020-06-26T16:50:50Z</time>
      </trkpt>
      <trkpt lat="49.4478" lon="6.43881">
        <ele>291.3</ele>
        <time>2020-06-26T16:50:51Z</time>
      </trkpt>
      <trkpt lat="49.44778" lon="6.43885">
        <ele>291.5</ele>
        <time>2020-06-26T16:50:52Z</time>
      </trkpt>
      <trkpt lat="49.44776" lon="6.43889">
        <ele>291.6</ele>
        <time>2020-06-26T16:50:53Z</time>
      </trkpt>
      <trkpt lat="49.44774" lon="6.43893">
        <ele>291.7</ele>
        <time>2020-06-26T16:50:54Z</time>
      </trkpt>
      <trkpt lat="49.44772" lon="6.43897">
        <ele>291.9</ele>
        <time>2020-06-26T16:50:55Z</time>
      </trkpt>
      <trkpt lat="49.4477" lon="6.43902">
        <ele>292.1</ele>
        <time>2020-06-26T16:50:56Z</time>
      </trkpt>
      <trkpt lat="49.44766" lon="6.43904">
        <ele>292.2</ele>
        <time>2020-06-26T16:50:57Z</time>
      </trkpt>
      <trkpt lat="49.44763" lon="6.43909">
        <ele>292.4</ele>
        <time>2020-06-26T16:50:58Z</time>
      </trkpt>
      <trkpt lat="49.44761" lon="6.43912">
        <ele>292.6</ele>
        <time>2020-06-26T16:50:59Z</time>
      </trkpt>
      <trkpt lat="49.44759" lon="6.43915">
        <ele>292.7</ele>
        <time>2020-06-26T16:51:00Z</time>
      </trkpt>
      <trkpt lat="49.44757" lon="6.43918">
        <ele>292.8</ele>
        <time>2020-06-26T16:51:01Z</time>
      </trkpt>
      <trkpt lat="49.44755" lon="6.43921">
        <ele>293</ele>
        <time>2020-06-26T16:51:02Z</time>
      </trkpt>
      <trkpt lat="49.44752" lon="6.43925">
        <ele>293.2</ele>
        <time>2020-06-26T16:51:03Z</time>
      </trkpt>
      <trkpt lat="49.4475" lon="6.43929">
        <ele>293.4</ele>
        <time>2020-06-26T16:51:04Z</time>
      </trkpt>
      <trkpt lat="49.44747" lon="6.43933">
        <ele>293.6</ele>
        <time>2020-06-26T16:51:05Z</time>
      </trkpt>
      <trkpt lat="49.44745" lon="6.43937">
        <ele>293.8</ele>
        <time>2020-06-26T16:51:06Z</time>
      </trkpt>
      <trkpt lat="49.44743" lon="6.43941">
        <ele>294</ele>
        <time>2020-06-26T16:51:07Z</time>
      </trkpt>
      <trkpt lat="49.4474" lon="6.43945">
        <ele>294.1</ele>
        <time>2020-06-26T16:51:08Z</time>
      </trkpt>
      <trkpt lat="49.44738" lon="6.43949">
        <ele>294.3</ele>
        <time>2020-06-26T16:51:09Z</time>
      </trkpt>
      <trkpt lat="49.44736" lon="6.43952">
        <ele>294.5</ele>
        <time>2020-06-26T16:51:10Z</time>
      </trkpt>
      <trkpt lat="49.44734" lon="6.43955">
        <ele>294.7</ele>
        <time>2020-06-26T16:51:11Z</time>
      </trkpt>
      <trkpt lat="49.44731" lon="6.4396">
        <ele>294.9</ele>
        <time>2020-06-26T16:51:12Z</time>
      </trkpt>
      <trkpt lat="49.4473" lon="6.43962">
        <ele>295.1</ele>
        <time>2020-06-26T16:51:13Z</time>
      </trkpt>
      <trkpt lat="49.44728" lon="6.43967">
        <ele>295.3</ele>
        <time>2020-06-26T16:51:14Z</time>
      </trkpt>
      <trkpt lat="49.44727" lon="6.43968">
        <ele>295.4</ele>
        <time>2020-06-26T16:51:15Z</time>
      </trkpt>
      <trkpt lat="49.44726" lon="6.43972">
        <ele>295.5</ele>
        <time>2020-06-26T16:51:16Z</time>
      </trkpt>
      <trkpt lat="49.44723" lon="6.43975">
        <ele>295.7</ele>
        <time>2020-06-26T16:51:17Z</time>
      </trkpt>
      <trkpt lat="49.44721" lon="6.43979">
        <ele>295.9</ele>
        <time>2020-06-26T16:51:18Z</time>
      </trkpt>
      <trkpt lat="49.44719" lon="6.43982">
        <ele>296.1</ele>
        <time>2020-06-26T16:51:19Z</time>
      </trkpt>
      <trkpt lat="49.44715" lon="6.43985">
        <ele>296.4</ele>
        <time>2020-06-26T16:51:20Z</time>
      </trkpt>
      <trkpt lat="49.44714" lon="6.43986">
        <ele>296.5</ele>
        <time>2020-06-26T16:51:21Z</time>
      </trkpt>
      <trkpt lat="49.44712" lon="6.43989">
        <ele>296.7</ele>
        <time>2020-06-26T16:51:22Z</time>
      </trkpt>
      <trkpt lat="49.44711" lon="6.4399">
        <ele>296.8</ele>
        <time>2020-06-26T16:51:23Z</time>
      </trkpt>
      <trkpt lat="49.44709" lon="6.43994">
        <ele>297</ele>
        <time>2020-06-26T16:51:24Z</time>
      </trkpt>
      <trkpt lat="49.44708" lon="6.43995">
        <ele>297.1</ele>
        <time>2020-06-26T16:51:25Z</time>
      </trkpt>
      <trkpt lat="49.44706" lon="6.43998">
        <ele>297.2</ele>
        <time>2020-06-26T16:51:26Z</time>
      </trkpt>
      <trkpt lat="49.44705" lon="6.44002">
        <ele>297.4</ele>
        <time>2020-06-26T16:51:27Z</time>
      </trkpt>
      <trkpt lat="49.44703" lon="6.44007">
        <ele>297.7</ele>
        <time>2020-06-26T16:51:28Z</time>
      </trkpt>
      <trkpt lat="49.44703" lon="6.44009">
        <ele>297.8</ele>
        <time>2020-06-26T16:51:29Z</time>
      </trkpt>
      <trkpt lat="49.447" lon="6.44013">
        <ele>298</ele>
        <time>2020-06-26T16:51:30Z</time>
      </trkpt>
      <trkpt lat="49.44699" lon="6.44014">
        <ele>298.1</ele>
        <time>2020-06-26T16:51:31Z</time>
      </trkpt>
      <trkpt lat="49.44698" lon="6.44018">
        <ele>298.2</ele>
        <time>2020-06-26T16:51:32Z</time>
      </trkpt>
      <trkpt lat="49.44696" lon="6.44023">
        <ele>298.5</ele>
        <time>2020-06-26T16:51:33Z</time>
      </trkpt>
      <trkpt lat="49.44695" lon="6.44024">
        <ele>298.5</ele>
        <time>2020-06-26T16:51:34Z</time>
      </trkpt>
      <trkpt lat="49.44694" lon="6.44028">
        <ele>298.7</ele>
        <time>2020-06-26T16:51:35Z</time>
      </trkpt>
      <trkpt lat="49.44693" lon="6.44032">
        <ele>298.9</ele>
        <time>2020-06-26T16:51:36Z</time>
      </trkpt>
      <trkpt lat="49.4469" lon="6.44034">
        <ele>299</ele>
        <time>2020-06-26T16:51:37Z</time>
      </trkpt>
      <trkpt lat="49.44687" lon="6.44038">
        <ele>299.2</ele>
        <time>2020-06-26T16:51:38Z</time>
      </trkpt>
      <trkpt lat="49.44685" lon="6.44042">
        <ele>299.4</ele>
        <time>2020-06-26T16:51:39Z</time>
      </trkpt>
      <trkpt lat="49.44683" lon="6.44047">
        <ele>299.6</ele>
        <time>2020-06-26T16:51:40Z</time>
      </trkpt>
      <trkpt lat="49.44682" lon="6.44049">
        <ele>299.7</ele>
        <time>2020-06-26T16:51:41Z</time>
      </trkpt>
      <trkpt lat="49.44681" lon="6.44053">
        <ele>299.9</ele>
        <time>2020-06-26T16:51:42Z</time>
      </trkpt>
      <trkpt lat="49.44679" lon="6.44057">
        <ele>300.1</ele>
        <time>2020-06-26T16:51:43Z</time>
      </trkpt>
      <trkpt lat="49.44677" lon="6.44061">
        <ele>300.3</ele>
        <time>2020-06-26T16:51:44Z</time>
      </trkpt>
      <trkpt lat="49.44674" lon="6.44066">
        <ele>300.6</ele>
        <time>2020-06-26T16:51:45Z</time>
      </trkpt>
      <trkpt lat="49.44673" lon="6.44068">
        <ele>300.7</ele>
        <time>2020-06-26T16:51:46Z</time>
      </trkpt>
      <trkpt lat="49.44671" lon="6.44071">
        <ele>300.9</ele>
        <time>2020-06-26T16:51:47Z</time>
      </trkpt>
      <trkpt lat="49.44669" lon="6.44074">
        <ele>301.2</ele>
        <time>2020-06-26T16:51:48Z</time>
      </trkpt>
      <trkpt lat="49.44667" lon="6.44078">
        <ele>301.4</ele>
        <time>2020-06-26T16:51:49Z</time>
      </trkpt>
      <trkpt lat="49.44665" lon="6.44081">
        <ele>301.6</ele>
        <time>2020-06-26T16:51:50Z</time>
      </trkpt>
      <trkpt lat="49.44664" lon="6.44085">
        <ele>301.8</ele>
        <time>2020-06-26T16:51:51Z</time>
      </trkpt>
      <trkpt lat="49.44663" lon="6.44089">
        <ele>302</ele>
        <time>2020-06-26T16:51:52Z</time>
      </trkpt>
      <trkpt lat="49.4466" lon="6.44094">
        <ele>302.3</ele>
        <time>2020-06-26T16:51:53Z</time>
      </trkpt>
      <trkpt lat="49.44659" lon="6.44095">
        <ele>302.4</ele>
        <time>2020-06-26T16:51:54Z</time>
      </trkpt>
      <trkpt lat="49.44657" lon="6.44098">
        <ele>302.6</ele>
        <time>2020-06-26T16:51:55Z</time>
      </trkpt>
      <trkpt lat="49.44656" lon="6.44103">
        <ele>302.9</ele>
        <time>2020-06-26T16:51:56Z</time>
      </trkpt>
      <trkpt lat="49.44655" lon="6.44104">
        <ele>303</ele>
        <time>2020-06-26T16:51:57Z</time>
      </trkpt>
      <trkpt lat="49.44652" lon="6.44108">
        <ele>303.2</ele>
        <time>2020-06-26T16:51:58Z</time>
      </trkpt>
      <trkpt lat="49.44652" lon="6.44108">
        <ele>303.3</ele>
        <time>2020-06-26T16:51:59Z</time>
      </trkpt>
      <trkpt lat="49.4465" lon="6.44113">
        <ele>303.5</ele>
        <time>2020-06-26T16:52:00Z</time>
      </trkpt>
      <trkpt lat="49.44648" lon="6.44117">
        <ele>303.8</ele>
        <time>2020-06-26T16:52:01Z</time>
      </trkpt>
      <trkpt lat="49.44646" lon="6.44121">
        <ele>304</ele>
        <time>2020-06-26T16:52:02Z</time>
      </trkpt>
      <trkpt lat="49.44644" lon="6.44125">
        <ele>304.2</ele>
        <time>2020-06-26T16:52:03Z</time>
      </trkpt>
      <trkpt lat="49.44641" lon="6.44129">
        <ele>304.5</ele>
        <time>2020-06-26T16:52:04Z</time>
      </trkpt>
      <trkpt lat="49.44639" lon="6.44133">
        <ele>304.8</ele>
        <time>2020-06-26T16:52:05Z</time>
      </trkpt>
      <trkpt lat="49.44635" lon="6.44137">
        <ele>305.1</ele>
        <time>2020-06-26T16:52:06Z</time>
      </trkpt>
      <trkpt lat="49.44633" lon="6.44141">
        <ele>305.4</ele>
        <time>2020-06-26T16:52:07Z</time>
      </trkpt>
      <trkpt lat="49.44631" lon="6.44145">
        <ele>305.5</ele>
        <time>2020-06-26T16:52:08Z</time>
      </trkpt>
      <trkpt lat="49.44628" lon="6.44151">
        <ele>305.8</ele>
        <time>2020-06-26T16:52:09Z</time>
      </trkpt>
      <trkpt lat="49.44627" lon="6.44153">
        <ele>305.9</ele>
        <time>2020-06-26T16:52:10Z</time>
      </trkpt>
      <trkpt lat="49.44625" lon="6.44156">
        <ele>306.1</ele>
        <time>2020-06-26T16:52:11Z</time>
      </trkpt>
      <trkpt lat="49.44624" lon="6.44157">
        <ele>306.2</ele>
        <time>2020-06-26T16:52:12Z</time>
      </trkpt>
      <trkpt lat="49.44622" lon="6.44161">
        <ele>306.4</ele>
        <time>2020-06-26T16:52:13Z</time>
      </trkpt>
      <trkpt lat="49.44621" lon="6.44165">
        <ele>306.6</ele>
        <time>2020-06-26T16:52:14Z</time>
      </trkpt>
      <trkpt lat="49.44619" lon="6.44168">
        <ele>306.8</ele>
        <time>2020-06-26T16:52:15Z</time>
      </trkpt>
      <trkpt lat="49.44617" lon="6.44173">
        <ele>307</ele>
        <time>2020-06-26T16:52:16Z</time>
      </trkpt>
      <trkpt lat="49.44616" lon="6.44175">
        <ele>307.1</ele>
        <time>2020-06-26T16:52:17Z</time>
      </trkpt>
      <trkpt lat="49.44615" lon="6.44179">
        <ele>307.3</ele>
        <time>2020-06-26T16:52:18Z</time>
      </trkpt>
      <trkpt lat="49.44613" lon="6.44183">
        <ele>307.5</ele>
        <time>2020-06-26T16:52:19Z</time>
      </trkpt>
      <trkpt lat="49.44612" lon="6.44185">
        <ele>307.5</ele>
        <time>2020-06-26T16:52:20Z</time>
      </trkpt>
      <trkpt lat="49.4461" lon="6.4419">
        <ele>307.8</ele>
        <time>2020-06-26T16:52:21Z</time>
      </trkpt>
      <trkpt lat="49.44609" lon="6.44192">
        <ele>307.9</ele>
        <time>2020-06-26T16:52:22Z</time>
      </trkpt>
      <trkpt lat="49.44607" lon="6.44195">
        <ele>308.1</ele>
        <time>2020-06-26T16:52:23Z</time>
      </trkpt>
      <trkpt lat="49.44605" lon="6.44198">
        <ele>308.2</ele>
        <time>2020-06-26T16:52:24Z</time>
      </trkpt>
      <trkpt lat="49.44603" lon="6.44201">
        <ele>308.4</ele>
        <time>2020-06-26T16:52:25Z</time>
      </trkpt>
      <trkpt lat="49.44602" lon="6.44205">
        <ele>308.6</ele>
        <time>2020-06-26T16:52:26Z</time>
      </trkpt>
      <trkpt lat="49.44599" lon="6.44208">
        <ele>308.8</ele>
        <time>2020-06-26T16:52:27Z</time>
      </trkpt>
      <trkpt lat="49.44598" lon="6.44209">
        <ele>308.8</ele>
        <time>2020-06-26T16:52:28Z</time>
      </trkpt>
      <trkpt lat="49.44596" lon="6.44214">
        <ele>309</ele>
        <time>2020-06-26T16:52:29Z</time>
      </trkpt>
      <trkpt lat="49.44595" lon="6.44216">
        <ele>309.1</ele>
        <time>2020-06-26T16:52:30Z</time>
      </trkpt>
      <trkpt lat="49.44593" lon="6.4422">
        <ele>309.3</ele>
        <time>2020-06-26T16:52:31Z</time>
      </trkpt>
      <trkpt lat="49.44592" lon="6.44223">
        <ele>309.5</ele>
        <time>2020-06-26T16:52:32Z</time>
      </trkpt>
      <trkpt lat="49.4459" lon="6.44228">
        <ele>309.7</ele>
        <time>2020-06-26T16:52:33Z</time>
      </trkpt>
      <trkpt lat="49.44589" lon="6.44229">
        <ele>309.8</ele>
        <time>2020-06-26T16:52:34Z</time>
      </trkpt>
      <trkpt lat="49.44587" lon="6.44232">
        <ele>310</ele>
        <time>2020-06-26T16:52:35Z</time>
      </trkpt>
      <trkpt lat="49.44585" lon="6.44236">
        <ele>310.2</ele>
        <time>2020-06-26T16:52:36Z</time>
      </trkpt>
      <trkpt lat="49.44584" lon="6.44238">
        <ele>310.2</ele>
        <time>2020-06-26T16:52:37Z</time>
      </trkpt>
      <trkpt lat="49.44581" lon="6.44243">
        <ele>310.5</ele>
        <time>2020-06-26T16:52:38Z</time>
      </trkpt>
      <trkpt lat="49.44581" lon="6.44246">
        <ele>310.6</ele>
        <time>2020-06-26T16:52:39Z</time>
      </trkpt>
      <trkpt lat="49.44579" lon="6.44249">
        <ele>310.8</ele>
        <time>2020-06-26T16:52:40Z</time>
      </trkpt>
      <trkpt lat="49.44577" lon="6.44254">
        <ele>311</ele>
        <time>2020-06-26T16:52:41Z</time>
      </trkpt>
      <trkpt lat="49.44576" lon="6.44256">
        <ele>311.1</ele>
        <time>2020-06-26T16:52:42Z</time>
      </trkpt>
      <trkpt lat="49.44574" lon="6.44259">
        <ele>311.3</ele>
        <time>2020-06-26T16:52:43Z</time>
      </trkpt>
      <trkpt lat="49.44572" lon="6.44262">
        <ele>311.4</ele>
        <time>2020-06-26T16:52:44Z</time>
      </trkpt>
      <trkpt lat="49.44569" lon="6.44266">
        <ele>311.6</ele>
        <time>2020-06-26T16:52:45Z</time>
      </trkpt>
      <trkpt lat="49.44569" lon="6.44267">
        <ele>311.7</ele>
        <time>2020-06-26T16:52:46Z</time>
      </trkpt>
      <trkpt lat="49.44567" lon="6.4427">
        <ele>311.9</ele>
        <time>2020-06-26T16:52:47Z</time>
      </trkpt>
      <trkpt lat="49.44564" lon="6.44275">
        <ele>312.1</ele>
        <time>2020-06-26T16:52:48Z</time>
      </trkpt>
      <trkpt lat="49.44564" lon="6.44277">
        <ele>312.2</ele>
        <time>2020-06-26T16:52:49Z</time>
      </trkpt>
      <trkpt lat="49.44562" lon="6.4428">
        <ele>312.3</ele>
        <time>2020-06-26T16:52:50Z</time>
      </trkpt>
      <trkpt lat="49.4456" lon="6.44283">
        <ele>312.5</ele>
        <time>2020-06-26T16:52:51Z</time>
      </trkpt>
      <trkpt lat="49.44558" lon="6.44286">
        <ele>312.6</ele>
        <time>2020-06-26T16:52:52Z</time>
      </trkpt>
      <trkpt lat="49.44557" lon="6.44287">
        <ele>312.7</ele>
        <time>2020-06-26T16:52:53Z</time>
      </trkpt>
      <trkpt lat="49.44555" lon="6.44291">
        <ele>312.8</ele>
        <time>2020-06-26T16:52:54Z</time>
      </trkpt>
      <trkpt lat="49.44554" lon="6.44294">
        <ele>313</ele>
        <time>2020-06-26T16:52:55Z</time>
      </trkpt>
      <trkpt lat="49.44552" lon="6.44297">
        <ele>313.1</ele>
        <time>2020-06-26T16:52:56Z</time>
      </trkpt>
      <trkpt lat="49.44549" lon="6.44301">
        <ele>313.3</ele>
        <time>2020-06-26T16:52:57Z</time>
      </trkpt>
      <trkpt lat="49.44547" lon="6.44303">
        <ele>313.4</ele>
        <time>2020-06-26T16:52:58Z</time>
      </trkpt>
      <trkpt lat="49.44545" lon="6.44309">
        <ele>313.5</ele>
        <time>2020-06-26T16:52:59Z</time>
      </trkpt>
      <trkpt lat="49.44544" lon="6.44311">
        <ele>313.6</ele>
        <time>2020-06-26T16:53:00Z</time>
      </trkpt>
      <trkpt lat="49.44543" lon="6.44315">
        <ele>313.7</ele>
        <time>2020-06-26T16:53:01Z</time>
      </trkpt>
      <trkpt lat="49.4454" lon="6.4432">
        <ele>313.9</ele>
        <time>2020-06-26T16:53:02Z</time>
      </trkpt>
      <trkpt lat="49.44539" lon="6.44321">
        <ele>314</ele>
        <time>2020-06-26T16:53:03Z</time>
      </trkpt>
      <trkpt lat="49.44537" lon="6.44325">
        <ele>314.1</ele>
        <time>2020-06-26T16:53:04Z</time>
      </trkpt>
      <trkpt lat="49.44535" lon="6.44329">
        <ele>314.2</ele>
        <time>2020-06-26T16:53:05Z</time>
      </trkpt>
      <trkpt lat="49.44533" lon="6.44334">
        <ele>314.3</ele>
        <time>2020-06-26T16:53:06Z</time>
      </trkpt>
      <trkpt lat="49.4453" lon="6.44339">
        <ele>314.5</ele>
        <time>2020-06-26T16:53:07Z</time>
      </trkpt>
      <trkpt lat="49.44529" lon="6.44341">
        <ele>314.5</ele>
        <time>2020-06-26T16:53:08Z</time>
      </trkpt>
      <trkpt lat="49.44526" lon="6.44344">
        <ele>314.7</ele>
        <time>2020-06-26T16:53:09Z</time>
      </trkpt>
      <trkpt lat="49.44525" lon="6.44351">
        <ele>314.8</ele>
        <time>2020-06-26T16:53:10Z</time>
      </trkpt>
      <trkpt lat="49.44523" lon="6.44355">
        <ele>315</ele>
        <time>2020-06-26T16:53:11Z</time>
      </trkpt>
      <trkpt lat="49.44521" lon="6.44359">
        <ele>315.1</ele>
        <time>2020-06-26T16:53:12Z</time>
      </trkpt>
      <trkpt lat="49.44519" lon="6.44363">
        <ele>315.2</ele>
        <time>2020-06-26T16:53:13Z</time>
      </trkpt>
      <trkpt lat="49.44517" lon="6.44367">
        <ele>315.3</ele>
        <time>2020-06-26T16:53:14Z</time>
      </trkpt>
      <trkpt lat="49.44515" lon="6.44371">
        <ele>315.4</ele>
        <time>2020-06-26T16:53:15Z</time>
      </trkpt>
      <trkpt lat="49.44513" lon="6.44374">
        <ele>315.5</ele>
        <time>2020-06-26T16:53:16Z</time>
      </trkpt>
      <trkpt lat="49.44511" lon="6.44378">
        <ele>315.6</ele>
        <time>2020-06-26T16:53:17Z</time>
      </trkpt>
      <trkpt lat="49.44509" lon="6.44382">
        <ele>315.6</ele>
        <time>2020-06-26T16:53:18Z</time>
      </trkpt>
      <trkpt lat="49.44507" lon="6.44386">
        <ele>315.7</ele>
        <time>2020-06-26T16:53:19Z</time>
      </trkpt>
      <trkpt lat="49.44504" lon="6.44389">
        <ele>315.8</ele>
        <time>2020-06-26T16:53:20Z</time>
      </trkpt>
      <trkpt lat="49.44502" lon="6.44393">
        <ele>315.9</ele>
        <time>2020-06-26T16:53:21Z</time>
      </trkpt>
      <trkpt lat="49.44499" lon="6.44396">
        <ele>316</ele>
        <time>2020-06-26T16:53:22Z</time>
      </trkpt>
      <trkpt lat="49.44497" lon="6.44403">
        <ele>316.1</ele>
        <time>2020-06-26T16:53:23Z</time>
      </trkpt>
      <trkpt lat="49.44495" lon="6.44406">
        <ele>316.1</ele>
        <time>2020-06-26T16:53:24Z</time>
      </trkpt>
      <trkpt lat="49.44493" lon="6.44409">
        <ele>316.2</ele>
        <time>2020-06-26T16:53:25Z</time>
      </trkpt>
      <trkpt lat="49.44491" lon="6.44413">
        <ele>316.3</ele>
        <time>2020-06-26T16:53:26Z</time>
      </trkpt>
      <trkpt lat="49.44488" lon="6.44418">
        <ele>316.3</ele>
        <time>2020-06-26T16:53:27Z</time>
      </trkpt>
      <trkpt lat="49.44486" lon="6.44423">
        <ele>316.4</ele>
        <time>2020-06-26T16:53:28Z</time>
      </trkpt>
      <trkpt lat="49.44483" lon="6.44427">
        <ele>316.5</ele>
        <time>2020-06-26T16:53:29Z</time>
      </trkpt>
      <trkpt lat="49.44481" lon="6.44431">
        <ele>316.5</ele>
        <time>2020-06-26T16:53:30Z</time>
      </trkpt>
      <trkpt lat="49.44479" lon="6.44435">
        <ele>316.6</ele>
        <time>2020-06-26T16:53:31Z</time>
      </trkpt>
      <trkpt lat="49.44476" lon="6.44442">
        <ele>316.7</ele>
        <time>2020-06-26T16:53:32Z</time>
      </trkpt>
      <trkpt lat="49.44473" lon="6.44448">
        <ele>316.8</ele>
        <time>2020-06-26T16:53:33Z</time>
      </trkpt>
      <trkpt lat="49.4447" lon="6.44453">
        <ele>316.8</ele>
        <time>2020-06-26T16:53:34Z</time>
      </trkpt>
      <trkpt lat="49.44467" lon="6.44459">
        <ele>316.9</ele>
        <time>2020-06-26T16:53:35Z</time>
      </trkpt>
      <trkpt lat="49.44464" lon="6.44462">
        <ele>316.9</ele>
        <time>2020-06-26T16:53:36Z</time>
      </trkpt>
      <trkpt lat="49.44461" lon="6.44467">
        <ele>317</ele>
        <time>2020-06-26T16:53:37Z</time>
      </trkpt>
      <trkpt lat="49.44459" lon="6.44472">
        <ele>317</ele>
        <time>2020-06-26T16:53:38Z</time>
      </trkpt>
      <trkpt lat="49.44456" lon="6.44476">
        <ele>317.1</ele>
        <time>2020-06-26T16:53:39Z</time>
      </trkpt>
      <trkpt lat="49.44453" lon="6.44481">
        <ele>317.1</ele>
        <time>2020-06-26T16:53:40Z</time>
      </trkpt>
      <trkpt lat="49.44451" lon="6.44484">
        <ele>317.2</ele>
        <time>2020-06-26T16:53:41Z</time>
      </trkpt>
      <trkpt lat="49.44448" lon="6.44489">
        <ele>317.3</ele>
        <time>2020-06-26T16:53:42Z</time>
      </trkpt>
      <trkpt lat="49.44445" lon="6.44493">
        <ele>317.3</ele>
        <time>2020-06-26T16:53:43Z</time>
      </trkpt>
      <trkpt lat="49.44443" lon="6.44497">
        <ele>317.4</ele>
        <time>2020-06-26T16:53:44Z</time>
      </trkpt>
      <trkpt lat="49.4444" lon="6.44501">
        <ele>317.5</ele>
        <time>2020-06-26T16:53:45Z</time>
      </trkpt>
      <trkpt lat="49.44438" lon="6.44507">
        <ele>317.5</ele>
        <time>2020-06-26T16:53:46Z</time>
      </trkpt>
      <trkpt lat="49.44435" lon="6.44511">
        <ele>317.6</ele>
        <time>2020-06-26T16:53:47Z</time>
      </trkpt>
      <trkpt lat="49.44432" lon="6.44515">
        <ele>317.7</ele>
        <time>2020-06-26T16:53:48Z</time>
      </trkpt>
      <trkpt lat="49.44429" lon="6.4452">
        <ele>317.7</ele>
        <time>2020-06-26T16:53:49Z</time>
      </trkpt>
      <trkpt lat="49.44425" lon="6.44524">
        <ele>317.8</ele>
        <time>2020-06-26T16:53:50Z</time>
      </trkpt>
      <trkpt lat="49.44423" lon="6.44528">
        <ele>317.8</ele>
        <time>2020-06-26T16:53:51Z</time>
      </trkpt>
      <trkpt lat="49.4442" lon="6.44531">
        <ele>317.9</ele>
        <time>2020-06-26T16:53:52Z</time>
      </trkpt>
      <trkpt lat="49.44416" lon="6.44536">
        <ele>318</ele>
        <time>2020-06-26T16:53:53Z</time>
      </trkpt>
      <trkpt lat="49.44414" lon="6.44541">
        <ele>318</ele>
        <time>2020-06-26T16:53:54Z</time>
      </trkpt>
      <trkpt lat="49.44411" lon="6.44546">
        <ele>318.1</ele>
        <time>2020-06-26T16:53:55Z</time>
      </trkpt>
      <trkpt lat="49.44408" lon="6.44552">
        <ele>318.2</ele>
        <time>2020-06-26T16:53:56Z</time>
      </trkpt>
      <trkpt lat="49.44405" lon="6.44556">
        <ele>318.4</ele>
        <time>2020-06-26T16:53:57Z</time>
      </trkpt>
      <trkpt lat="49.44403" lon="6.44561">
        <ele>318.5</ele>
        <time>2020-06-26T16:53:58Z</time>
      </trkpt>
      <trkpt lat="49.444" lon="6.44565">
        <ele>318.6</ele>
        <time>2020-06-26T16:53:59Z</time>
      </trkpt>
      <trkpt lat="49.44397" lon="6.4457">
        <ele>318.8</ele>
        <time>2020-06-26T16:54:00Z</time>
      </trkpt>
      <trkpt lat="49.44395" lon="6.44573">
        <ele>318.9</ele>
        <time>2020-06-26T16:54:01Z</time>
      </trkpt>
      <trkpt lat="49.44392" lon="6.44577">
        <ele>319.1</ele>
        <time>2020-06-26T16:54:02Z</time>
      </trkpt>
      <trkpt lat="49.44389" lon="6.44581">
        <ele>319.3</ele>
        <time>2020-06-26T16:54:03Z</time>
      </trkpt>
      <trkpt lat="49.44386" lon="6.44585">
        <ele>319.5</ele>
        <time>2020-06-26T16:54:04Z</time>
      </trkpt>
      <trkpt lat="49.44384" lon="6.44589">
        <ele>319.7</ele>
        <time>2020-06-26T16:54:05Z</time>
      </trkpt>
      <trkpt lat="49.44382" lon="6.44593">
        <ele>319.8</ele>
        <time>2020-06-26T16:54:06Z</time>
      </trkpt>
      <trkpt lat="49.4438" lon="6.44597">
        <ele>319.9</ele>
        <time>2020-06-26T16:54:07Z</time>
      </trkpt>
      <trkpt lat="49.44377" lon="6.44602">
        <ele>320</ele>
        <time>2020-06-26T16:54:08Z</time>
      </trkpt>
      <trkpt lat="49.44375" lon="6.44606">
        <ele>320</ele>
        <time>2020-06-26T16:54:09Z</time>
      </trkpt>
      <trkpt lat="49.44372" lon="6.4461">
        <ele>320.1</ele>
        <time>2020-06-26T16:54:10Z</time>
      </trkpt>
      <trkpt lat="49.44369" lon="6.44614">
        <ele>320.1</ele>
        <time>2020-06-26T16:54:11Z</time>
      </trkpt>
      <trkpt lat="49.44366" lon="6.44617">
        <ele>320.2</ele>
        <time>2020-06-26T16:54:12Z</time>
      </trkpt>
      <trkpt lat="49.44363" lon="6.44621">
        <ele>320.3</ele>
        <time>2020-06-26T16:54:13Z</time>
      </trkpt>
      <trkpt lat="49.4436" lon="6.44625">
        <ele>320.4</ele>
        <time>2020-06-26T16:54:14Z</time>
      </trkpt>
      <trkpt lat="49.44357" lon="6.44629">
        <ele>320.5</ele>
        <time>2020-06-26T16:54:15Z</time>
      </trkpt>
      <trkpt lat="49.44354" lon="6.44633">
        <ele>320.6</ele>
        <time>2020-06-26T16:54:16Z</time>
      </trkpt>
      <trkpt lat="49.44352" lon="6.44637">
        <ele>320.7</ele>
        <time>2020-06-26T16:54:17Z</time>
      </trkpt>
      <trkpt lat="49.44349" lon="6.44641">
        <ele>320.8</ele>
        <time>2020-06-26T16:54:18Z</time>
      </trkpt>
      <trkpt lat="49.44346" lon="6.44644">
        <ele>320.8</ele>
        <time>2020-06-26T16:54:19Z</time>
      </trkpt>
      <trkpt lat="49.44344" lon="6.44648">
        <ele>320.9</ele>
        <time>2020-06-26T16:54:20Z</time>
      </trkpt>
      <trkpt lat="49.44341" lon="6.44652">
        <ele>321</ele>
        <time>2020-06-26T16:54:21Z</time>
      </trkpt>
      <trkpt lat="49.44339" lon="6.44656">
        <ele>321.1</ele>
        <time>2020-06-26T16:54:22Z</time>
      </trkpt>
      <trkpt lat="49.44337" lon="6.44659">
        <ele>321.1</ele>
        <time>2020-06-26T16:54:23Z</time>
      </trkpt>
      <trkpt lat="49.44335" lon="6.44662">
        <ele>321.2</ele>
        <time>2020-06-26T16:54:24Z</time>
      </trkpt>
      <trkpt lat="49.44332" lon="6.44666">
        <ele>321.3</ele>
        <time>2020-06-26T16:54:25Z</time>
      </trkpt>
      <trkpt lat="49.44331" lon="6.44668">
        <ele>321.4</ele>
        <time>2020-06-26T16:54:26Z</time>
      </trkpt>
      <trkpt lat="49.44329" lon="6.44672">
        <ele>321.5</ele>
        <time>2020-06-26T16:54:27Z</time>
      </trkpt>
      <trkpt lat="49.44328" lon="6.44673">
        <ele>321.5</ele>
        <time>2020-06-26T16:54:28Z</time>
      </trkpt>
      <trkpt lat="49.44327" lon="6.44675">
        <ele>321.6</ele>
        <time>2020-06-26T16:54:29Z</time>
      </trkpt>
      <trkpt lat="49.44325" lon="6.44675">
        <ele>321.6</ele>
        <time>2020-06-26T16:54:30Z</time>
      </trkpt>
      <trkpt lat="49.44324" lon="6.44675">
        <ele>321.6</ele>
        <time>2020-06-26T16:54:31Z</time>
      </trkpt>
      <trkpt lat="49.44324" lon="6.44676">
        <ele>321.7</ele>
        <time>2020-06-26T16:54:32Z</time>
      </trkpt>
      <trkpt lat="49.44323" lon="6.44676">
        <ele>321.7</ele>
        <time>2020-06-26T16:54:33Z</time>
      </trkpt>
      <trkpt lat="49.44323" lon="6.44677">
        <ele>321.7</ele>
        <time>2020-06-26T16:54:34Z</time>
      </trkpt>
      <trkpt lat="49.44322" lon="6.44678">
        <ele>321.7</ele>
        <time>2020-06-26T16:54:35Z</time>
      </trkpt>
      <trkpt lat="49.44322" lon="6.44678">
        <ele>321.7</ele>
        <time>2020-06-26T16:54:36Z</time>
      </trkpt>
      <trkpt lat="49.44322" lon="6.44679">
        <ele>321.7</ele>
        <time>2020-06-26T16:54:37Z</time>
      </trkpt>
      <trkpt lat="49.44321" lon="6.4468">
        <ele>321.8</ele>
        <time>2020-06-26T16:54:38Z</time>
      </trkpt>
      <trkpt lat="49.44321" lon="6.4468">
        <ele>321.8</ele>
        <time>2020-06-26T16:54:39Z</time>
      </trkpt>
      <trkpt lat="49.4432" lon="6.44681">
        <ele>321.8</ele>
        <time>2020-06-26T16:54:40Z</time>
      </trkpt>
      <trkpt lat="49.4432" lon="6.44682">
        <ele>321.8</ele>
        <time>2020-06-26T16:54:41Z</time>
      </trkpt>
      <trkpt lat="49.4432" lon="6.44682">
        <ele>321.8</ele>
        <time>2020-06-26T16:54:42Z</time>
      </trkpt>
      <trkpt lat="49.44319" lon="6.44683">
        <ele>321.9</ele>
        <time>2020-06-26T16:59:24Z</time>
      </trkpt>
      <trkpt lat="49.44319" lon="6.44684">
        <ele>321.9</ele>
        <time>2020-06-26T16:59:25Z</time>
      </trkpt>
      <trkpt lat="49.44317" lon="6.44688">
        <ele>322</ele>
        <time>2020-06-26T16:59:26Z</time>
      </trkpt>
      <trkpt lat="49.44314" lon="6.44693">
        <ele>322.2</ele>
        <time>2020-06-26T16:59:27Z</time>
      </trkpt>
      <trkpt lat="49.44311" lon="6.44698">
        <ele>322.3</ele>
        <time>2020-06-26T16:59:28Z</time>
      </trkpt>
      <trkpt lat="49.44308" lon="6.44702">
        <ele>322.5</ele>
        <time>2020-06-26T16:59:29Z</time>
      </trkpt>
      <trkpt lat="49.44306" lon="6.44707">
        <ele>322.6</ele>
        <time>2020-06-26T16:59:30Z</time>
      </trkpt>
      <trkpt lat="49.44304" lon="6.44711">
        <ele>322.7</ele>
        <time>2020-06-26T16:59:31Z</time>
      </trkpt>
      <trkpt lat="49.44302" lon="6.44717">
        <ele>322.9</ele>
        <time>2020-06-26T16:59:32Z</time>
      </trkpt>
      <trkpt lat="49.44301" lon="6.44723">
        <ele>323</ele>
        <time>2020-06-26T16:59:33Z</time>
      </trkpt>
      <trkpt lat="49.443" lon="6.44731">
        <ele>323.1</ele>
        <time>2020-06-26T16:59:34Z</time>
      </trkpt>
      <trkpt lat="49.44299" lon="6.44738">
        <ele>323.3</ele>
        <time>2020-06-26T16:59:35Z</time>
      </trkpt>
      <trkpt lat="49.44299" lon="6.44744">
        <ele>323.5</ele>
        <time>2020-06-26T16:59:36Z</time>
      </trkpt>
      <trkpt lat="49.44299" lon="6.4475">
        <ele>323.7</ele>
        <time>2020-06-26T16:59:37Z</time>
      </trkpt>
      <trkpt lat="49.44298" lon="6.44757">
        <ele>323.9</ele>
        <time>2020-06-26T16:59:38Z</time>
      </trkpt>
      <trkpt lat="49.44297" lon="6.44763">
        <ele>324.1</ele>
        <time>2020-06-26T16:59:39Z</time>
      </trkpt>
      <trkpt lat="49.44295" lon="6.44769">
        <ele>324.2</ele>
        <time>2020-06-26T16:59:40Z</time>
      </trkpt>
      <trkpt lat="49.44293" lon="6.44775">
        <ele>324.4</ele>
        <time>2020-06-26T16:59:41Z</time>
      </trkpt>
      <trkpt lat="49.44292" lon="6.4478">
        <ele>324.6</ele>
        <time>2020-06-26T16:59:42Z</time>
      </trkpt>
      <trkpt lat="49.44292" lon="6.44785">
        <ele>324.7</ele>
        <time>2020-06-26T16:59:43Z</time>
      </trkpt>
      <trkpt lat="49.44292" lon="6.44791">
        <ele>324.9</ele>
        <time>2020-06-26T16:59:44Z</time>
      </trkpt>
      <trkpt lat="49.44292" lon="6.44796">
        <ele>325</ele>
        <time>2020-06-26T16:59:45Z</time>
      </trkpt>
      <trkpt lat="49.44291" lon="6.44801">
        <ele>325.2</ele>
        <time>2020-06-26T16:59:46Z</time>
      </trkpt>
      <trkpt lat="49.44291" lon="6.44806">
        <ele>325.3</ele>
        <time>2020-06-26T16:59:47Z</time>
      </trkpt>
      <trkpt lat="49.4429" lon="6.44811">
        <ele>325.5</ele>
        <time>2020-06-26T16:59:48Z</time>
      </trkpt>
      <trkpt lat="49.44289" lon="6.44816">
        <ele>325.6</ele>
        <time>2020-06-26T16:59:49Z</time>
      </trkpt>
      <trkpt lat="49.44288" lon="6.44821">
        <ele>325.8</ele>
        <time>2020-06-26T16:59:50Z</time>
      </trkpt>
      <trkpt lat="49.44287" lon="6.44826">
        <ele>325.9</ele>
        <time>2020-06-26T16:59:51Z</time>
      </trkpt>
      <trkpt lat="49.44286" lon="6.44831">
        <ele>326.1</ele>
        <time>2020-06-26T16:59:52Z</time>
      </trkpt>
      <trkpt lat="49.44286" lon="6.44838">
        <ele>326.2</ele>
        <time>2020-06-26T16:59:53Z</time>
      </trkpt>
      <trkpt lat="49.44285" lon="6.44842">
        <ele>326.3</ele>
        <time>2020-06-26T16:59:54Z</time>
      </trkpt>
      <trkpt lat="49.44283" lon="6.44847">
        <ele>326.5</ele>
        <time>2020-06-26T16:59:55Z</time>
      </trkpt>
      <trkpt lat="49.44282" lon="6.44853">
        <ele>326.6</ele>
        <time>2020-06-26T16:59:56Z</time>
      </trkpt>
      <trkpt lat="49.44282" lon="6.44858">
        <ele>326.7</ele>
        <time>2020-06-26T16:59:57Z</time>
      </trkpt>
      <trkpt lat="49.44281" lon="6.44863">
        <ele>326.9</ele>
        <time>2020-06-26T16:59:58Z</time>
      </trkpt>
      <trkpt lat="49.44281" lon="6.44868">
        <ele>327</ele>
        <time>2020-06-26T16:59:59Z</time>
      </trkpt>
      <trkpt lat="49.4428" lon="6.44872">
        <ele>327.2</ele>
        <time>2020-06-26T17:00:00Z</time>
      </trkpt>
      <trkpt lat="49.44279" lon="6.44878">
        <ele>327.3</ele>
        <time>2020-06-26T17:00:01Z</time>
      </trkpt>
      <trkpt lat="49.44278" lon="6.44883">
        <ele>327.5</ele>
        <time>2020-06-26T17:00:02Z</time>
      </trkpt>
      <trkpt lat="49.44277" lon="6.44888">
        <ele>327.6</ele>
        <time>2020-06-26T17:00:03Z</time>
      </trkpt>
      <trkpt lat="49.44277" lon="6.44892">
        <ele>327.8</ele>
        <time>2020-06-26T17:00:04Z</time>
      </trkpt>
      <trkpt lat="49.44276" lon="6.44897">
        <ele>327.9</ele>
        <time>2020-06-26T17:00:05Z</time>
      </trkpt>
      <trkpt lat="49.44275" lon="6.44903">
        <ele>328.1</ele>
        <time>2020-06-26T17:00:06Z</time>
      </trkpt>
      <trkpt lat="49.44275" lon="6.44906">
        <ele>328.2</ele>
        <time>2020-06-26T17:00:07Z</time>
      </trkpt>
      <trkpt lat="49.44274" lon="6.4491">
        <ele>328.3</ele>
        <time>2020-06-26T17:00:08Z</time>
      </trkpt>
      <trkpt lat="49.44274" lon="6.44915">
        <ele>328.4</ele>
        <time>2020-06-26T17:00:09Z</time>
      </trkpt>
      <trkpt lat="49.44273" lon="6.4492">
        <ele>328.6</ele>
        <time>2020-06-26T17:00:10Z</time>
      </trkpt>
      <trkpt lat="49.44272" lon="6.44925">
        <ele>328.7</ele>
        <time>2020-06-26T17:00:11Z</time>
      </trkpt>
      <trkpt lat="49.44271" lon="6.44929">
        <ele>328.8</ele>
        <time>2020-06-26T17:00:12Z</time>
      </trkpt>
      <trkpt lat="49.44269" lon="6.44933">
        <ele>329</ele>
        <time>2020-06-26T17:00:13Z</time>
      </trkpt>
      <trkpt lat="49.44269" lon="6.44937">
        <ele>329.1</ele>
        <time>2020-06-26T17:00:14Z</time>
      </trkpt>
      <trkpt lat="49.44267" lon="6.44941">
        <ele>329.2</ele>
        <time>2020-06-26T17:00:15Z</time>
      </trkpt>
      <trkpt lat="49.44266" lon="6.44946">
        <ele>329.3</ele>
        <time>2020-06-26T17:00:16Z</time>
      </trkpt>
      <trkpt lat="49.44265" lon="6.44951">
        <ele>329.5</ele>
        <time>2020-06-26T17:00:17Z</time>
      </trkpt>
      <trkpt lat="49.44264" lon="6.44955">
        <ele>329.6</ele>
        <time>2020-06-26T17:00:18Z</time>
      </trkpt>
      <trkpt lat="49.44264" lon="6.44962">
        <ele>329.8</ele>
        <time>2020-06-26T17:00:19Z</time>
      </trkpt>
      <trkpt lat="49.44262" lon="6.44967">
        <ele>330</ele>
        <time>2020-06-26T17:00:20Z</time>
      </trkpt>
      <trkpt lat="49.44261" lon="6.44972">
        <ele>330.1</ele>
        <time>2020-06-26T17:00:21Z</time>
      </trkpt>
      <trkpt lat="49.44259" lon="6.44977">
        <ele>330.3</ele>
        <time>2020-06-26T17:00:22Z</time>
      </trkpt>
      <trkpt lat="49.44258" lon="6.44981">
        <ele>330.4</ele>
        <time>2020-06-26T17:00:23Z</time>
      </trkpt>
      <trkpt lat="49.44258" lon="6.44985">
        <ele>330.5</ele>
        <time>2020-06-26T17:00:24Z</time>
      </trkpt>
      <trkpt lat="49.44257" lon="6.44991">
        <ele>330.6</ele>
        <time>2020-06-26T17:00:25Z</time>
      </trkpt>
      <trkpt lat="49.44256" lon="6.44997">
        <ele>330.8</ele>
        <time>2020-06-26T17:00:26Z</time>
      </trkpt>
      <trkpt lat="49.44255" lon="6.45003">
        <ele>330.9</ele>
        <time>2020-06-26T17:00:27Z</time>
      </trkpt>
      <trkpt lat="49.44253" lon="6.45009">
        <ele>331</ele>
        <time>2020-06-26T17:00:28Z</time>
      </trkpt>
      <trkpt lat="49.44252" lon="6.45015">
        <ele>331.1</ele>
        <time>2020-06-26T17:00:29Z</time>
      </trkpt>
      <trkpt lat="49.44251" lon="6.45019">
        <ele>331.2</ele>
        <time>2020-06-26T17:00:30Z</time>
      </trkpt>
      <trkpt lat="49.4425" lon="6.45025">
        <ele>331.3</ele>
        <time>2020-06-26T17:00:31Z</time>
      </trkpt>
      <trkpt lat="49.44249" lon="6.45031">
        <ele>331.4</ele>
        <time>2020-06-26T17:00:32Z</time>
      </trkpt>
      <trkpt lat="49.44247" lon="6.45038">
        <ele>331.5</ele>
        <time>2020-06-26T17:00:33Z</time>
      </trkpt>
      <trkpt lat="49.44245" lon="6.45043">
        <ele>331.6</ele>
        <time>2020-06-26T17:00:34Z</time>
      </trkpt>
      <trkpt lat="49.44243" lon="6.45049">
        <ele>331.8</ele>
        <time>2020-06-26T17:00:35Z</time>
      </trkpt>
      <trkpt lat="49.44241" lon="6.45055">
        <ele>331.9</ele>
        <time>2020-06-26T17:00:36Z</time>
      </trkpt>
      <trkpt lat="49.44239" lon="6.4506">
        <ele>332</ele>
        <time>2020-06-26T17:00:37Z</time>
      </trkpt>
      <trkpt lat="49.44238" lon="6.45067">
        <ele>332.2</ele>
        <time>2020-06-26T17:00:38Z</time>
      </trkpt>
      <trkpt lat="49.44236" lon="6.45074">
        <ele>332.3</ele>
        <time>2020-06-26T17:00:39Z</time>
      </trkpt>
      <trkpt lat="49.44234" lon="6.45079">
        <ele>332.5</ele>
        <time>2020-06-26T17:00:40Z</time>
      </trkpt>
      <trkpt lat="49.44233" lon="6.45086">
        <ele>332.7</ele>
        <time>2020-06-26T17:00:41Z</time>
      </trkpt>
      <trkpt lat="49.44231" lon="6.45092">
        <ele>332.9</ele>
        <time>2020-06-26T17:00:42Z</time>
      </trkpt>
      <trkpt lat="49.44229" lon="6.45098">
        <ele>333.1</ele>
        <time>2020-06-26T17:00:43Z</time>
      </trkpt>
      <trkpt lat="49.44227" lon="6.45102">
        <ele>333.2</ele>
        <time>2020-06-26T17:00:44Z</time>
      </trkpt>
      <trkpt lat="49.44225" lon="6.45107">
        <ele>333.3</ele>
        <time>2020-06-26T17:00:45Z</time>
      </trkpt>
      <trkpt lat="49.44223" lon="6.45112">
        <ele>333.5</ele>
        <time>2020-06-26T17:00:46Z</time>
      </trkpt>
      <trkpt lat="49.44221" lon="6.45116">
        <ele>333.6</ele>
        <time>2020-06-26T17:00:47Z</time>
      </trkpt>
      <trkpt lat="49.44219" lon="6.45121">
        <ele>333.8</ele>
        <time>2020-06-26T17:00:48Z</time>
      </trkpt>
      <trkpt lat="49.44218" lon="6.45127">
        <ele>333.9</ele>
        <time>2020-06-26T17:00:49Z</time>
      </trkpt>
      <trkpt lat="49.44216" lon="6.45132">
        <ele>334</ele>
        <time>2020-06-26T17:00:50Z</time>
      </trkpt>
      <trkpt lat="49.44215" lon="6.45138">
        <ele>334.1</ele>
        <time>2020-06-26T17:00:51Z</time>
      </trkpt>
      <trkpt lat="49.44213" lon="6.45143">
        <ele>334.3</ele>
        <time>2020-06-26T17:00:52Z</time>
      </trkpt>
      <trkpt lat="49.44211" lon="6.45147">
        <ele>334.4</ele>
        <time>2020-06-26T17:00:53Z</time>
      </trkpt>
      <trkpt lat="49.44209" lon="6.45151">
        <ele>334.4</ele>
        <time>2020-06-26T17:00:54Z</time>
      </trkpt>
      <trkpt lat="49.44207" lon="6.45156">
        <ele>334.5</ele>
        <time>2020-06-26T17:00:55Z</time>
      </trkpt>
      <trkpt lat="49.44206" lon="6.45161">
        <ele>334.5</ele>
        <time>2020-06-26T17:00:56Z</time>
      </trkpt>
      <trkpt lat="49.44204" lon="6.45166">
        <ele>334.5</ele>
        <time>2020-06-26T17:00:57Z</time>
      </trkpt>
      <trkpt lat="49.44202" lon="6.4517">
        <ele>334.5</ele>
        <time>2020-06-26T17:00:58Z</time>
      </trkpt>
      <trkpt lat="49.442" lon="6.45176">
        <ele>334.5</ele>
        <time>2020-06-26T17:00:59Z</time>
      </trkpt>
      <trkpt lat="49.44198" lon="6.4518">
        <ele>334.5</ele>
        <time>2020-06-26T17:01:00Z</time>
      </trkpt>
      <trkpt lat="49.44197" lon="6.45186">
        <ele>334.5</ele>
        <time>2020-06-26T17:01:01Z</time>
      </trkpt>
      <trkpt lat="49.44195" lon="6.4519">
        <ele>334.4</ele>
        <time>2020-06-26T17:01:02Z</time>
      </trkpt>
      <trkpt lat="49.44194" lon="6.45195">
        <ele>334.4</ele>
        <time>2020-06-26T17:01:03Z</time>
      </trkpt>
      <trkpt lat="49.44192" lon="6.45201">
        <ele>334.3</ele>
        <time>2020-06-26T17:01:04Z</time>
      </trkpt>
      <trkpt lat="49.44191" lon="6.45204">
        <ele>334.2</ele>
        <time>2020-06-26T17:01:05Z</time>
      </trkpt>
      <trkpt lat="49.44189" lon="6.45208">
        <ele>334.1</ele>
        <time>2020-06-26T17:01:06Z</time>
      </trkpt>
      <trkpt lat="49.44187" lon="6.45212">
        <ele>334</ele>
        <time>2020-06-26T17:01:07Z</time>
      </trkpt>
      <trkpt lat="49.44185" lon="6.45217">
        <ele>333.8</ele>
        <time>2020-06-26T17:01:08Z</time>
      </trkpt>
      <trkpt lat="49.44182" lon="6.45222">
        <ele>333.7</ele>
        <time>2020-06-26T17:01:09Z</time>
      </trkpt>
      <trkpt lat="49.44179" lon="6.45228">
        <ele>333.4</ele>
        <time>2020-06-26T17:01:10Z</time>
      </trkpt>
      <trkpt lat="49.44175" lon="6.45233">
        <ele>333.2</ele>
        <time>2020-06-26T17:01:11Z</time>
      </trkpt>
      <trkpt lat="49.44172" lon="6.4524">
        <ele>332.9</ele>
        <time>2020-06-26T17:01:12Z</time>
      </trkpt>
      <trkpt lat="49.44169" lon="6.45247">
        <ele>332.6</ele>
        <time>2020-06-26T17:01:13Z</time>
      </trkpt>
      <trkpt lat="49.44166" lon="6.45254">
        <ele>332.3</ele>
        <time>2020-06-26T17:01:14Z</time>
      </trkpt>
      <trkpt lat="49.44163" lon="6.45263">
        <ele>331.9</ele>
        <time>2020-06-26T17:01:15Z</time>
      </trkpt>
      <trkpt lat="49.4416" lon="6.45271">
        <ele>331.6</ele>
        <time>2020-06-26T17:01:16Z</time>
      </trkpt>
      <trkpt lat="49.44156" lon="6.4528">
        <ele>331.1</ele>
        <time>2020-06-26T17:01:17Z</time>
      </trkpt>
      <trkpt lat="49.44153" lon="6.45288">
        <ele>330.7</ele>
        <time>2020-06-26T17:01:18Z</time>
      </trkpt>
      <trkpt lat="49.44149" lon="6.45297">
        <ele>330.3</ele>
        <time>2020-06-26T17:01:19Z</time>
      </trkpt>
      <trkpt lat="49.44145" lon="6.45305">
        <ele>329.9</ele>
        <time>2020-06-26T17:01:20Z</time>
      </trkpt>
      <trkpt lat="49.44141" lon="6.45314">
        <ele>329.4</ele>
        <time>2020-06-26T17:01:21Z</time>
      </trkpt>
      <trkpt lat="49.44135" lon="6.45325">
        <ele>328.8</ele>
        <time>2020-06-26T17:01:22Z</time>
      </trkpt>
      <trkpt lat="49.44131" lon="6.45335">
        <ele>328.3</ele>
        <time>2020-06-26T17:01:23Z</time>
      </trkpt>
      <trkpt lat="49.44127" lon="6.45344">
        <ele>327.9</ele>
        <time>2020-06-26T17:01:24Z</time>
      </trkpt>
      <trkpt lat="49.44123" lon="6.45354">
        <ele>327.5</ele>
        <time>2020-06-26T17:01:25Z</time>
      </trkpt>
      <trkpt lat="49.44118" lon="6.45365">
        <ele>327.2</ele>
        <time>2020-06-26T17:01:26Z</time>
      </trkpt>
      <trkpt lat="49.44113" lon="6.45375">
        <ele>326.9</ele>
        <time>2020-06-26T17:01:27Z</time>
      </trkpt>
      <trkpt lat="49.44108" lon="6.45386">
        <ele>326.7</ele>
        <time>2020-06-26T17:01:28Z</time>
      </trkpt>
      <trkpt lat="49.44103" lon="6.45397">
        <ele>326.6</ele>
        <time>2020-06-26T17:01:29Z</time>
      </trkpt>
      <trkpt lat="49.44099" lon="6.45407">
        <ele>326.4</ele>
        <time>2020-06-26T17:01:30Z</time>
      </trkpt>
      <trkpt lat="49.44095" lon="6.45418">
        <ele>326.4</ele>
        <time>2020-06-26T17:01:31Z</time>
      </trkpt>
      <trkpt lat="49.44091" lon="6.45428">
        <ele>326.3</ele>
        <time>2020-06-26T17:01:32Z</time>
      </trkpt>
      <trkpt lat="49.44087" lon="6.45437">
        <ele>326.4</ele>
        <time>2020-06-26T17:01:33Z</time>
      </trkpt>
      <trkpt lat="49.44083" lon="6.45447">
        <ele>326.5</ele>
        <time>2020-06-26T17:01:34Z</time>
      </trkpt>
      <trkpt lat="49.44079" lon="6.45456">
        <ele>326.7</ele>
        <time>2020-06-26T17:01:35Z</time>
      </trkpt>
      <trkpt lat="49.44075" lon="6.45465">
        <ele>326.8</ele>
        <time>2020-06-26T17:01:36Z</time>
      </trkpt>
      <trkpt lat="49.44071" lon="6.45474">
        <ele>326.9</ele>
        <time>2020-06-26T17:01:37Z</time>
      </trkpt>
      <trkpt lat="49.44068" lon="6.45483">
        <ele>327</ele>
        <time>2020-06-26T17:01:38Z</time>
      </trkpt>
      <trkpt lat="49.44065" lon="6.45491">
        <ele>327.1</ele>
        <time>2020-06-26T17:01:39Z</time>
      </trkpt>
      <trkpt lat="49.44061" lon="6.45499">
        <ele>327.2</ele>
        <time>2020-06-26T17:01:40Z</time>
      </trkpt>
      <trkpt lat="49.44057" lon="6.45505">
        <ele>327.2</ele>
        <time>2020-06-26T17:01:41Z</time>
      </trkpt>
      <trkpt lat="49.44054" lon="6.45513">
        <ele>327.3</ele>
        <time>2020-06-26T17:01:42Z</time>
      </trkpt>
      <trkpt lat="49.44051" lon="6.4552">
        <ele>327.3</ele>
        <time>2020-06-26T17:01:43Z</time>
      </trkpt>
      <trkpt lat="49.44048" lon="6.45526">
        <ele>327.3</ele>
        <time>2020-06-26T17:01:44Z</time>
      </trkpt>
      <trkpt lat="49.44045" lon="6.45533">
        <ele>327.3</ele>
        <time>2020-06-26T17:01:45Z</time>
      </trkpt>
      <trkpt lat="49.44041" lon="6.4554">
        <ele>327.3</ele>
        <time>2020-06-26T17:01:46Z</time>
      </trkpt>
      <trkpt lat="49.44038" lon="6.45547">
        <ele>327.4</ele>
        <time>2020-06-26T17:01:47Z</time>
      </trkpt>
      <trkpt lat="49.44033" lon="6.45555">
        <ele>327.4</ele>
        <time>2020-06-26T17:01:48Z</time>
      </trkpt>
      <trkpt lat="49.44028" lon="6.45562">
        <ele>327.5</ele>
        <time>2020-06-26T17:01:49Z</time>
      </trkpt>
      <trkpt lat="49.44024" lon="6.45569">
        <ele>327.7</ele>
        <time>2020-06-26T17:01:50Z</time>
      </trkpt>
      <trkpt lat="49.44019" lon="6.45576">
        <ele>327.8</ele>
        <time>2020-06-26T17:01:51Z</time>
      </trkpt>
      <trkpt lat="49.44014" lon="6.45582">
        <ele>328</ele>
        <time>2020-06-26T17:01:52Z</time>
      </trkpt>
      <trkpt lat="49.44008" lon="6.45587">
        <ele>328.2</ele>
        <time>2020-06-26T17:01:53Z</time>
      </trkpt>
      <trkpt lat="49.44003" lon="6.45592">
        <ele>328.4</ele>
        <time>2020-06-26T17:01:54Z</time>
      </trkpt>
      <trkpt lat="49.43997" lon="6.45598">
        <ele>328.6</ele>
        <time>2020-06-26T17:01:55Z</time>
      </trkpt>
      <trkpt lat="49.43991" lon="6.45603">
        <ele>328.9</ele>
        <time>2020-06-26T17:01:56Z</time>
      </trkpt>
      <trkpt lat="49.43986" lon="6.45607">
        <ele>329.2</ele>
        <time>2020-06-26T17:01:57Z</time>
      </trkpt>
      <trkpt lat="49.43981" lon="6.45611">
        <ele>329.5</ele>
        <time>2020-06-26T17:01:58Z</time>
      </trkpt>
      <trkpt lat="49.43976" lon="6.45615">
        <ele>329.8</ele>
        <time>2020-06-26T17:01:59Z</time>
      </trkpt>
      <trkpt lat="49.43971" lon="6.45619">
        <ele>330.1</ele>
        <time>2020-06-26T17:02:00Z</time>
      </trkpt>
      <trkpt lat="49.43966" lon="6.45623">
        <ele>330.4</ele>
        <time>2020-06-26T17:02:01Z</time>
      </trkpt>
      <trkpt lat="49.43962" lon="6.45628">
        <ele>330.7</ele>
        <time>2020-06-26T17:02:02Z</time>
      </trkpt>
      <trkpt lat="49.43957" lon="6.45631">
        <ele>330.9</ele>
        <time>2020-06-26T17:02:03Z</time>
      </trkpt>
      <trkpt lat="49.43953" lon="6.45635">
        <ele>331.2</ele>
        <time>2020-06-26T17:02:04Z</time>
      </trkpt>
      <trkpt lat="49.43949" lon="6.45638">
        <ele>331.4</ele>
        <time>2020-06-26T17:02:05Z</time>
      </trkpt>
      <trkpt lat="49.43946" lon="6.45642">
        <ele>331.6</ele>
        <time>2020-06-26T17:02:06Z</time>
      </trkpt>
      <trkpt lat="49.43942" lon="6.45645">
        <ele>331.8</ele>
        <time>2020-06-26T17:02:07Z</time>
      </trkpt>
      <trkpt lat="49.43939" lon="6.45647">
        <ele>331.9</ele>
        <time>2020-06-26T17:02:08Z</time>
      </trkpt>
      <trkpt lat="49.43936" lon="6.45649">
        <ele>332</ele>
        <time>2020-06-26T17:02:09Z</time>
      </trkpt>
      <trkpt lat="49.43932" lon="6.45651">
        <ele>332.1</ele>
        <time>2020-06-26T17:02:10Z</time>
      </trkpt>
      <trkpt lat="49.43929" lon="6.45654">
        <ele>332.2</ele>
        <time>2020-06-26T17:02:11Z</time>
      </trkpt>
      <trkpt lat="49.43925" lon="6.45656">
        <ele>332.3</ele>
        <time>2020-06-26T17:02:12Z</time>
      </trkpt>
      <trkpt lat="49.43922" lon="6.45659">
        <ele>332.4</ele>
        <time>2020-06-26T17:02:13Z</time>
      </trkpt>
      <trkpt lat="49.43918" lon="6.45662">
        <ele>332.5</ele>
        <time>2020-06-26T17:02:14Z</time>
      </trkpt>
      <trkpt lat="49.43914" lon="6.45665">
        <ele>332.6</ele>
        <time>2020-06-26T17:02:15Z</time>
      </trkpt>
      <trkpt lat="49.43909" lon="6.45667">
        <ele>332.6</ele>
        <time>2020-06-26T17:02:16Z</time>
      </trkpt>
      <trkpt lat="49.43904" lon="6.45669">
        <ele>332.5</ele>
        <time>2020-06-26T17:02:17Z</time>
      </trkpt>
      <trkpt lat="49.43901" lon="6.45671">
        <ele>332.4</ele>
        <time>2020-06-26T17:02:18Z</time>
      </trkpt>
      <trkpt lat="49.43897" lon="6.45674">
        <ele>332.3</ele>
        <time>2020-06-26T17:02:19Z</time>
      </trkpt>
      <trkpt lat="49.43893" lon="6.45677">
        <ele>332.1</ele>
        <time>2020-06-26T17:02:20Z</time>
      </trkpt>
      <trkpt lat="49.4389" lon="6.45679">
        <ele>331.9</ele>
        <time>2020-06-26T17:02:21Z</time>
      </trkpt>
      <trkpt lat="49.43886" lon="6.45681">
        <ele>331.8</ele>
        <time>2020-06-26T17:02:22Z</time>
      </trkpt>
      <trkpt lat="49.43881" lon="6.45684">
        <ele>331.6</ele>
        <time>2020-06-26T17:02:23Z</time>
      </trkpt>
      <trkpt lat="49.43877" lon="6.45686">
        <ele>331.5</ele>
        <time>2020-06-26T17:02:24Z</time>
      </trkpt>
      <trkpt lat="49.43873" lon="6.45688">
        <ele>331.2</ele>
        <time>2020-06-26T17:02:25Z</time>
      </trkpt>
      <trkpt lat="49.43868" lon="6.45691">
        <ele>330.9</ele>
        <time>2020-06-26T17:02:26Z</time>
      </trkpt>
      <trkpt lat="49.43864" lon="6.45695">
        <ele>330.6</ele>
        <time>2020-06-26T17:02:27Z</time>
      </trkpt>
      <trkpt lat="49.4386" lon="6.457">
        <ele>330.2</ele>
        <time>2020-06-26T17:02:28Z</time>
      </trkpt>
      <trkpt lat="49.43854" lon="6.45706">
        <ele>329.7</ele>
        <time>2020-06-26T17:02:29Z</time>
      </trkpt>
      <trkpt lat="49.43848" lon="6.45711">
        <ele>329.1</ele>
        <time>2020-06-26T17:02:30Z</time>
      </trkpt>
      <trkpt lat="49.43842" lon="6.45718">
        <ele>328.5</ele>
        <time>2020-06-26T17:02:31Z</time>
      </trkpt>
      <trkpt lat="49.43836" lon="6.45725">
        <ele>327.8</ele>
        <time>2020-06-26T17:02:32Z</time>
      </trkpt>
      <trkpt lat="49.43829" lon="6.45734">
        <ele>327</ele>
        <time>2020-06-26T17:02:33Z</time>
      </trkpt>
      <trkpt lat="49.43822" lon="6.45745">
        <ele>326</ele>
        <time>2020-06-26T17:02:34Z</time>
      </trkpt>
      <trkpt lat="49.43815" lon="6.45757">
        <ele>325.1</ele>
        <time>2020-06-26T17:02:35Z</time>
      </trkpt>
      <trkpt lat="49.43808" lon="6.4577">
        <ele>324.2</ele>
        <time>2020-06-26T17:02:36Z</time>
      </trkpt>
      <trkpt lat="49.43801" lon="6.45783">
        <ele>323.3</ele>
        <time>2020-06-26T17:02:37Z</time>
      </trkpt>
      <trkpt lat="49.43794" lon="6.45798">
        <ele>322.5</ele>
        <time>2020-06-26T17:02:38Z</time>
      </trkpt>
      <trkpt lat="49.43786" lon="6.45812">
        <ele>321.8</ele>
        <time>2020-06-26T17:02:39Z</time>
      </trkpt>
      <trkpt lat="49.43779" lon="6.45828">
        <ele>321.3</ele>
        <time>2020-06-26T17:02:40Z</time>
      </trkpt>
      <trkpt lat="49.43773" lon="6.45845">
        <ele>321.1</ele>
        <time>2020-06-26T17:02:41Z</time>
      </trkpt>
      <trkpt lat="49.43766" lon="6.45862">
        <ele>321.1</ele>
        <time>2020-06-26T17:02:42Z</time>
      </trkpt>
      <trkpt lat="49.43761" lon="6.45879">
        <ele>320.5</ele>
        <time>2020-06-26T17:02:43Z</time>
      </trkpt>
      <trkpt lat="49.43755" lon="6.45894">
        <ele>320.1</ele>
        <time>2020-06-26T17:02:44Z</time>
      </trkpt>
      <trkpt lat="49.43749" lon="6.45907">
        <ele>320</ele>
        <time>2020-06-26T17:02:45Z</time>
      </trkpt>
      <trkpt lat="49.43742" lon="6.45916">
        <ele>319.9</ele>
        <time>2020-06-26T17:02:46Z</time>
      </trkpt>
      <trkpt lat="49.43735" lon="6.45923">
        <ele>320</ele>
        <time>2020-06-26T17:02:47Z</time>
      </trkpt>
      <trkpt lat="49.43727" lon="6.45925">
        <ele>320.1</ele>
        <time>2020-06-26T17:02:48Z</time>
      </trkpt>
      <trkpt lat="49.43719" lon="6.45928">
        <ele>320.2</ele>
        <time>2020-06-26T17:02:49Z</time>
      </trkpt>
      <trkpt lat="49.43712" lon="6.4593">
        <ele>320.4</ele>
        <time>2020-06-26T17:02:50Z</time>
      </trkpt>
      <trkpt lat="49.43705" lon="6.45931">
        <ele>320.6</ele>
        <time>2020-06-26T17:02:51Z</time>
      </trkpt>
      <trkpt lat="49.43699" lon="6.45933">
        <ele>320.7</ele>
        <time>2020-06-26T17:02:52Z</time>
      </trkpt>
      <trkpt lat="49.43693" lon="6.45935">
        <ele>320.9</ele>
        <time>2020-06-26T17:02:53Z</time>
      </trkpt>
      <trkpt lat="49.43688" lon="6.45939">
        <ele>321</ele>
        <time>2020-06-26T17:02:54Z</time>
      </trkpt>
      <trkpt lat="49.43683" lon="6.45941">
        <ele>321.1</ele>
        <time>2020-06-26T17:02:55Z</time>
      </trkpt>
      <trkpt lat="49.43677" lon="6.45944">
        <ele>321.1</ele>
        <time>2020-06-26T17:02:56Z</time>
      </trkpt>
      <trkpt lat="49.43673" lon="6.45948">
        <ele>321.3</ele>
        <time>2020-06-26T17:02:57Z</time>
      </trkpt>
      <trkpt lat="49.43669" lon="6.45952">
        <ele>321.5</ele>
        <time>2020-06-26T17:02:58Z</time>
      </trkpt>
      <trkpt lat="49.43665" lon="6.45955">
        <ele>321.6</ele>
        <time>2020-06-26T17:02:59Z</time>
      </trkpt>
      <trkpt lat="49.43662" lon="6.4596">
        <ele>321.8</ele>
        <time>2020-06-26T17:03:00Z</time>
      </trkpt>
      <trkpt lat="49.4366" lon="6.45966">
        <ele>321.9</ele>
        <time>2020-06-26T17:03:01Z</time>
      </trkpt>
      <trkpt lat="49.43658" lon="6.45972">
        <ele>322.1</ele>
        <time>2020-06-26T17:03:02Z</time>
      </trkpt>
      <trkpt lat="49.43657" lon="6.45978">
        <ele>322.3</ele>
        <time>2020-06-26T17:03:03Z</time>
      </trkpt>
      <trkpt lat="49.43655" lon="6.45984">
        <ele>322.5</ele>
        <time>2020-06-26T17:03:04Z</time>
      </trkpt>
      <trkpt lat="49.43654" lon="6.4599">
        <ele>322.7</ele>
        <time>2020-06-26T17:03:05Z</time>
      </trkpt>
      <trkpt lat="49.43652" lon="6.45995">
        <ele>322.8</ele>
        <time>2020-06-26T17:03:06Z</time>
      </trkpt>
      <trkpt lat="49.43652" lon="6.46001">
        <ele>323</ele>
        <time>2020-06-26T17:03:07Z</time>
      </trkpt>
      <trkpt lat="49.43652" lon="6.46007">
        <ele>323.2</ele>
        <time>2020-06-26T17:03:08Z</time>
      </trkpt>
      <trkpt lat="49.43651" lon="6.46013">
        <ele>323.3</ele>
        <time>2020-06-26T17:03:09Z</time>
      </trkpt>
      <trkpt lat="49.43651" lon="6.46019">
        <ele>323.4</ele>
        <time>2020-06-26T17:03:10Z</time>
      </trkpt>
      <trkpt lat="49.43651" lon="6.46024">
        <ele>323.6</ele>
        <time>2020-06-26T17:03:11Z</time>
      </trkpt>
      <trkpt lat="49.4365" lon="6.4603">
        <ele>323.7</ele>
        <time>2020-06-26T17:03:12Z</time>
      </trkpt>
      <trkpt lat="49.43651" lon="6.46034">
        <ele>323.8</ele>
        <time>2020-06-26T17:03:13Z</time>
      </trkpt>
      <trkpt lat="49.43651" lon="6.46037">
        <ele>323.8</ele>
        <time>2020-06-26T17:03:14Z</time>
      </trkpt>
      <trkpt lat="49.4365" lon="6.46038">
        <ele>323.9</ele>
        <time>2020-06-26T17:03:15Z</time>
      </trkpt>
      <trkpt lat="49.43649" lon="6.46039">
        <ele>323.9</ele>
        <time>2020-06-26T17:03:16Z</time>
      </trkpt>
      <trkpt lat="49.43648" lon="6.46037">
        <ele>324</ele>
        <time>2020-06-26T17:03:17Z</time>
      </trkpt>
      <trkpt lat="49.43647" lon="6.46036">
        <ele>324</ele>
        <time>2020-06-26T17:03:18Z</time>
      </trkpt>
      <trkpt lat="49.43646" lon="6.46036">
        <ele>324</ele>
        <time>2020-06-26T17:03:19Z</time>
      </trkpt>
      <trkpt lat="49.43645" lon="6.46036">
        <ele>324</ele>
        <time>2020-06-26T17:03:20Z</time>
      </trkpt>
      <trkpt lat="49.43645" lon="6.46036">
        <ele>324.1</ele>
        <time>2020-06-26T17:03:21Z</time>
      </trkpt>
      <trkpt lat="49.43644" lon="6.46036">
        <ele>324.1</ele>
        <time>2020-06-26T17:03:22Z</time>
      </trkpt>
      <trkpt lat="49.43644" lon="6.46036">
        <ele>324.1</ele>
        <time>2020-06-26T17:03:23Z</time>
      </trkpt>
      <trkpt lat="49.43644" lon="6.46036">
        <ele>324.1</ele>
        <time>2020-06-26T17:03:24Z</time>
      </trkpt>
      <trkpt lat="49.43645" lon="6.4604">
        <ele>324.1</ele>
        <time>2020-06-26T17:03:25Z</time>
      </trkpt>
      <trkpt lat="49.43646" lon="6.46043">
        <ele>324.2</ele>
        <time>2020-06-26T17:03:26Z</time>
      </trkpt>
      <trkpt lat="49.43647" lon="6.46046">
        <ele>324.3</ele>
        <time>2020-06-26T17:03:27Z</time>
      </trkpt>
      <trkpt lat="49.43648" lon="6.46049">
        <ele>324.3</ele>
        <time>2020-06-26T17:03:28Z</time>
      </trkpt>
      <trkpt lat="49.4365" lon="6.46052">
        <ele>324.4</ele>
        <time>2020-06-26T17:03:29Z</time>
      </trkpt>
      <trkpt lat="49.43651" lon="6.46055">
        <ele>324.5</ele>
        <time>2020-06-26T17:03:30Z</time>
      </trkpt>
      <trkpt lat="49.43652" lon="6.46058">
        <ele>324.5</ele>
        <time>2020-06-26T17:03:31Z</time>
      </trkpt>
      <trkpt lat="49.43653" lon="6.46061">
        <ele>324.6</ele>
        <time>2020-06-26T17:03:32Z</time>
      </trkpt>
      <trkpt lat="49.43654" lon="6.46064">
        <ele>324.7</ele>
        <time>2020-06-26T17:21:55Z</time>
      </trkpt>
      <trkpt lat="49.43655" lon="6.46067">
        <ele>324.8</ele>
        <time>2020-06-26T17:21:56Z</time>
      </trkpt>
      <trkpt lat="49.43656" lon="6.46067">
        <ele>324.8</ele>
        <time>2020-06-26T17:21:57Z</time>
      </trkpt>
      <trkpt lat="49.43657" lon="6.46068">
        <ele>324.8</ele>
        <time>2020-06-26T17:21:58Z</time>
      </trkpt>
      <trkpt lat="49.43657" lon="6.4607">
        <ele>324.8</ele>
        <time>2020-06-26T17:21:59Z</time>
      </trkpt>
      <trkpt lat="49.43657" lon="6.46071">
        <ele>324.9</ele>
        <time>2020-06-26T17:22:00Z</time>
      </trkpt>
      <trkpt lat="49.43657" lon="6.46073">
        <ele>324.9</ele>
        <time>2020-06-26T17:22:01Z</time>
      </trkpt>
      <trkpt lat="49.43656" lon="6.46074">
        <ele>324.9</ele>
        <time>2020-06-26T17:22:02Z</time>
      </trkpt>
      <trkpt lat="49.43656" lon="6.46075">
        <ele>324.9</ele>
        <time>2020-06-26T17:22:03Z</time>
      </trkpt>
      <trkpt lat="49.43655" lon="6.46077">
        <ele>325</ele>
        <time>2020-06-26T17:22:04Z</time>
      </trkpt>
      <trkpt lat="49.43655" lon="6.46081">
        <ele>325</ele>
        <time>2020-06-26T17:22:05Z</time>
      </trkpt>
      <trkpt lat="49.43655" lon="6.46083">
        <ele>325.1</ele>
        <time>2020-06-26T17:22:06Z</time>
      </trkpt>
      <trkpt lat="49.43655" lon="6.46088">
        <ele>325.2</ele>
        <time>2020-06-26T17:22:07Z</time>
      </trkpt>
      <trkpt lat="49.43656" lon="6.46092">
        <ele>325.2</ele>
        <time>2020-06-26T17:22:08Z</time>
      </trkpt>
      <trkpt lat="49.43656" lon="6.46097">
        <ele>325.3</ele>
        <time>2020-06-26T17:22:09Z</time>
      </trkpt>
      <trkpt lat="49.43657" lon="6.46102">
        <ele>325.4</ele>
        <time>2020-06-26T17:22:10Z</time>
      </trkpt>
      <trkpt lat="49.43657" lon="6.46109">
        <ele>325.5</ele>
        <time>2020-06-26T17:22:11Z</time>
      </trkpt>
      <trkpt lat="49.43658" lon="6.46112">
        <ele>325.6</ele>
        <time>2020-06-26T17:22:12Z</time>
      </trkpt>
      <trkpt lat="49.43658" lon="6.46119">
        <ele>325.6</ele>
        <time>2020-06-26T17:22:13Z</time>
      </trkpt>
      <trkpt lat="49.43659" lon="6.46125">
        <ele>325.7</ele>
        <time>2020-06-26T17:22:14Z</time>
      </trkpt>
      <trkpt lat="49.43659" lon="6.46131">
        <ele>325.8</ele>
        <time>2020-06-26T17:22:15Z</time>
      </trkpt>
      <trkpt lat="49.4366" lon="6.46137">
        <ele>325.8</ele>
        <time>2020-06-26T17:22:16Z</time>
      </trkpt>
      <trkpt lat="49.4366" lon="6.46143">
        <ele>325.8</ele>
        <time>2020-06-26T17:22:17Z</time>
      </trkpt>
      <trkpt lat="49.43661" lon="6.46148">
        <ele>325.8</ele>
        <time>2020-06-26T17:22:18Z</time>
      </trkpt>
      <trkpt lat="49.43661" lon="6.46154">
        <ele>325.8</ele>
        <time>2020-06-26T17:22:19Z</time>
      </trkpt>
      <trkpt lat="49.43662" lon="6.4616">
        <ele>325.8</ele>
        <time>2020-06-26T17:22:20Z</time>
      </trkpt>
      <trkpt lat="49.43663" lon="6.46167">
        <ele>325.9</ele>
        <time>2020-06-26T17:22:21Z</time>
      </trkpt>
      <trkpt lat="49.43662" lon="6.46173">
        <ele>325.9</ele>
        <time>2020-06-26T17:22:22Z</time>
      </trkpt>
      <trkpt lat="49.43663" lon="6.46179">
        <ele>326</ele>
        <time>2020-06-26T17:22:23Z</time>
      </trkpt>
      <trkpt lat="49.43662" lon="6.46185">
        <ele>326</ele>
        <time>2020-06-26T17:22:24Z</time>
      </trkpt>
      <trkpt lat="49.43662" lon="6.46191">
        <ele>326</ele>
        <time>2020-06-26T17:22:25Z</time>
      </trkpt>
      <trkpt lat="49.43662" lon="6.46198">
        <ele>326.1</ele>
        <time>2020-06-26T17:22:26Z</time>
      </trkpt>
      <trkpt lat="49.43662" lon="6.46205">
        <ele>326.1</ele>
        <time>2020-06-26T17:22:27Z</time>
      </trkpt>
      <trkpt lat="49.43662" lon="6.46212">
        <ele>326.1</ele>
        <time>2020-06-26T17:22:28Z</time>
      </trkpt>
      <trkpt lat="49.43662" lon="6.46218">
        <ele>326.1</ele>
        <time>2020-06-26T17:22:29Z</time>
      </trkpt>
      <trkpt lat="49.43663" lon="6.46225">
        <ele>326.1</ele>
        <time>2020-06-26T17:22:30Z</time>
      </trkpt>
      <trkpt lat="49.43664" lon="6.46232">
        <ele>326.1</ele>
        <time>2020-06-26T17:22:31Z</time>
      </trkpt>
      <trkpt lat="49.43665" lon="6.46238">
        <ele>326.1</ele>
        <time>2020-06-26T17:22:32Z</time>
      </trkpt>
      <trkpt lat="49.43666" lon="6.46242">
        <ele>326</ele>
        <time>2020-06-26T17:22:33Z</time>
      </trkpt>
      <trkpt lat="49.43667" lon="6.46247">
        <ele>326</ele>
        <time>2020-06-26T17:22:34Z</time>
      </trkpt>
      <trkpt lat="49.43668" lon="6.46253">
        <ele>326</ele>
        <time>2020-06-26T17:22:35Z</time>
      </trkpt>
      <trkpt lat="49.43669" lon="6.4626">
        <ele>325.9</ele>
        <time>2020-06-26T17:22:36Z</time>
      </trkpt>
      <trkpt lat="49.4367" lon="6.46265">
        <ele>325.9</ele>
        <time>2020-06-26T17:22:37Z</time>
      </trkpt>
      <trkpt lat="49.43671" lon="6.46271">
        <ele>326</ele>
        <time>2020-06-26T17:22:38Z</time>
      </trkpt>
      <trkpt lat="49.43673" lon="6.46276">
        <ele>326</ele>
        <time>2020-06-26T17:22:39Z</time>
      </trkpt>
      <trkpt lat="49.43674" lon="6.46281">
        <ele>326</ele>
        <time>2020-06-26T17:22:40Z</time>
      </trkpt>
      <trkpt lat="49.43676" lon="6.46289">
        <ele>326.1</ele>
        <time>2020-06-26T17:22:41Z</time>
      </trkpt>
      <trkpt lat="49.43678" lon="6.46294">
        <ele>326.1</ele>
        <time>2020-06-26T17:22:42Z</time>
      </trkpt>
      <trkpt lat="49.4368" lon="6.46298">
        <ele>326.1</ele>
        <time>2020-06-26T17:22:43Z</time>
      </trkpt>
      <trkpt lat="49.43682" lon="6.46304">
        <ele>326.2</ele>
        <time>2020-06-26T17:22:44Z</time>
      </trkpt>
      <trkpt lat="49.43683" lon="6.46307">
        <ele>326.2</ele>
        <time>2020-06-26T17:22:45Z</time>
      </trkpt>
      <trkpt lat="49.43685" lon="6.46313">
        <ele>326.3</ele>
        <time>2020-06-26T17:22:46Z</time>
      </trkpt>
      <trkpt lat="49.43686" lon="6.46319">
        <ele>326.3</ele>
        <time>2020-06-26T17:22:47Z</time>
      </trkpt>
      <trkpt lat="49.43688" lon="6.46325">
        <ele>326.4</ele>
        <time>2020-06-26T17:22:48Z</time>
      </trkpt>
      <trkpt lat="49.4369" lon="6.4633">
        <ele>326.4</ele>
        <time>2020-06-26T17:22:49Z</time>
      </trkpt>
      <trkpt lat="49.43691" lon="6.46336">
        <ele>326.5</ele>
        <time>2020-06-26T17:22:50Z</time>
      </trkpt>
      <trkpt lat="49.43693" lon="6.46342">
        <ele>326.5</ele>
        <time>2020-06-26T17:22:51Z</time>
      </trkpt>
      <trkpt lat="49.43694" lon="6.46348">
        <ele>326.6</ele>
        <time>2020-06-26T17:22:52Z</time>
      </trkpt>
      <trkpt lat="49.43694" lon="6.46352">
        <ele>326.6</ele>
        <time>2020-06-26T17:22:53Z</time>
      </trkpt>
      <trkpt lat="49.43695" lon="6.46358">
        <ele>326.7</ele>
        <time>2020-06-26T17:22:54Z</time>
      </trkpt>
      <trkpt lat="49.43695" lon="6.46364">
        <ele>326.8</ele>
        <time>2020-06-26T17:22:55Z</time>
      </trkpt>
      <trkpt lat="49.43694" lon="6.46371">
        <ele>326.9</ele>
        <time>2020-06-26T17:22:56Z</time>
      </trkpt>
      <trkpt lat="49.43693" lon="6.46377">
        <ele>327</ele>
        <time>2020-06-26T17:22:57Z</time>
      </trkpt>
      <trkpt lat="49.43692" lon="6.46382">
        <ele>327.1</ele>
        <time>2020-06-26T17:22:58Z</time>
      </trkpt>
      <trkpt lat="49.43691" lon="6.46388">
        <ele>327.2</ele>
        <time>2020-06-26T17:22:59Z</time>
      </trkpt>
      <trkpt lat="49.43689" lon="6.46393">
        <ele>327.3</ele>
        <time>2020-06-26T17:23:00Z</time>
      </trkpt>
      <trkpt lat="49.43687" lon="6.46398">
        <ele>327.4</ele>
        <time>2020-06-26T17:23:01Z</time>
      </trkpt>
      <trkpt lat="49.43686" lon="6.46403">
        <ele>327.5</ele>
        <time>2020-06-26T17:23:02Z</time>
      </trkpt>
      <trkpt lat="49.43685" lon="6.46408">
        <ele>327.6</ele>
        <time>2020-06-26T17:23:03Z</time>
      </trkpt>
      <trkpt lat="49.43684" lon="6.46413">
        <ele>327.7</ele>
        <time>2020-06-26T17:23:04Z</time>
      </trkpt>
      <trkpt lat="49.43683" lon="6.46418">
        <ele>327.8</ele>
        <time>2020-06-26T17:23:05Z</time>
      </trkpt>
      <trkpt lat="49.43681" lon="6.46424">
        <ele>328</ele>
        <time>2020-06-26T17:23:06Z</time>
      </trkpt>
      <trkpt lat="49.4368" lon="6.4643">
        <ele>328.1</ele>
        <time>2020-06-26T17:23:07Z</time>
      </trkpt>
      <trkpt lat="49.4368" lon="6.46436">
        <ele>328.3</ele>
        <time>2020-06-26T17:23:08Z</time>
      </trkpt>
      <trkpt lat="49.4368" lon="6.46441">
        <ele>328.5</ele>
        <time>2020-06-26T17:23:09Z</time>
      </trkpt>
      <trkpt lat="49.4368" lon="6.46446">
        <ele>328.6</ele>
        <time>2020-06-26T17:23:10Z</time>
      </trkpt>
      <trkpt lat="49.4368" lon="6.4645">
        <ele>328.8</ele>
        <time>2020-06-26T17:23:11Z</time>
      </trkpt>
      <trkpt lat="49.4368" lon="6.46454">
        <ele>328.9</ele>
        <time>2020-06-26T17:23:12Z</time>
      </trkpt>
      <trkpt lat="49.4368" lon="6.4646">
        <ele>329.1</ele>
        <time>2020-06-26T17:23:13Z</time>
      </trkpt>
      <trkpt lat="49.4368" lon="6.46464">
        <ele>329.3</ele>
        <time>2020-06-26T17:23:14Z</time>
      </trkpt>
      <trkpt lat="49.4368" lon="6.4647">
        <ele>329.4</ele>
        <time>2020-06-26T17:23:15Z</time>
      </trkpt>
      <trkpt lat="49.43681" lon="6.46474">
        <ele>329.6</ele>
        <time>2020-06-26T17:23:16Z</time>
      </trkpt>
      <trkpt lat="49.43682" lon="6.46481">
        <ele>329.8</ele>
        <time>2020-06-26T17:23:17Z</time>
      </trkpt>
      <trkpt lat="49.43682" lon="6.46483">
        <ele>329.9</ele>
        <time>2020-06-26T17:23:18Z</time>
      </trkpt>
      <trkpt lat="49.43683" lon="6.46488">
        <ele>330</ele>
        <time>2020-06-26T17:23:19Z</time>
      </trkpt>
      <trkpt lat="49.43683" lon="6.46493">
        <ele>330.2</ele>
        <time>2020-06-26T17:23:20Z</time>
      </trkpt>
      <trkpt lat="49.43684" lon="6.46497">
        <ele>330.3</ele>
        <time>2020-06-26T17:23:21Z</time>
      </trkpt>
      <trkpt lat="49.43685" lon="6.46502">
        <ele>330.5</ele>
        <time>2020-06-26T17:23:22Z</time>
      </trkpt>
      <trkpt lat="49.43685" lon="6.46507">
        <ele>330.6</ele>
        <time>2020-06-26T17:23:23Z</time>
      </trkpt>
      <trkpt lat="49.43686" lon="6.46512">
        <ele>330.8</ele>
        <time>2020-06-26T17:23:24Z</time>
      </trkpt>
      <trkpt lat="49.43687" lon="6.46516">
        <ele>330.9</ele>
        <time>2020-06-26T17:23:25Z</time>
      </trkpt>
      <trkpt lat="49.43689" lon="6.46521">
        <ele>331.1</ele>
        <time>2020-06-26T17:23:26Z</time>
      </trkpt>
      <trkpt lat="49.43689" lon="6.46523">
        <ele>331.2</ele>
        <time>2020-06-26T17:23:27Z</time>
      </trkpt>
      <trkpt lat="49.43691" lon="6.46528">
        <ele>331.4</ele>
        <time>2020-06-26T17:23:28Z</time>
      </trkpt>
      <trkpt lat="49.43692" lon="6.46535">
        <ele>331.6</ele>
        <time>2020-06-26T17:23:29Z</time>
      </trkpt>
      <trkpt lat="49.43693" lon="6.46538">
        <ele>331.7</ele>
        <time>2020-06-26T17:23:30Z</time>
      </trkpt>
      <trkpt lat="49.43694" lon="6.46542">
        <ele>331.9</ele>
        <time>2020-06-26T17:23:31Z</time>
      </trkpt>
      <trkpt lat="49.43695" lon="6.46546">
        <ele>332</ele>
        <time>2020-06-26T17:23:32Z</time>
      </trkpt>
      <trkpt lat="49.43696" lon="6.46552">
        <ele>332.2</ele>
        <time>2020-06-26T17:23:33Z</time>
      </trkpt>
      <trkpt lat="49.43697" lon="6.46555">
        <ele>332.3</ele>
        <time>2020-06-26T17:23:34Z</time>
      </trkpt>
      <trkpt lat="49.43698" lon="6.46561">
        <ele>332.5</ele>
        <time>2020-06-26T17:23:35Z</time>
      </trkpt>
      <trkpt lat="49.43699" lon="6.46563">
        <ele>332.6</ele>
        <time>2020-06-26T17:23:36Z</time>
      </trkpt>
      <trkpt lat="49.437" lon="6.46567">
        <ele>332.7</ele>
        <time>2020-06-26T17:23:37Z</time>
      </trkpt>
      <trkpt lat="49.43701" lon="6.46573">
        <ele>333</ele>
        <time>2020-06-26T17:23:38Z</time>
      </trkpt>
      <trkpt lat="49.43701" lon="6.46575">
        <ele>333</ele>
        <time>2020-06-26T17:23:39Z</time>
      </trkpt>
      <trkpt lat="49.43702" lon="6.46581">
        <ele>333.2</ele>
        <time>2020-06-26T17:23:40Z</time>
      </trkpt>
      <trkpt lat="49.43703" lon="6.46586">
        <ele>333.4</ele>
        <time>2020-06-26T17:23:41Z</time>
      </trkpt>
      <trkpt lat="49.43704" lon="6.46591">
        <ele>333.5</ele>
        <time>2020-06-26T17:23:42Z</time>
      </trkpt>
      <trkpt lat="49.43705" lon="6.46596">
        <ele>333.7</ele>
        <time>2020-06-26T17:23:43Z</time>
      </trkpt>
      <trkpt lat="49.43705" lon="6.46601">
        <ele>333.8</ele>
        <time>2020-06-26T17:23:44Z</time>
      </trkpt>
      <trkpt lat="49.43706" lon="6.46605">
        <ele>333.9</ele>
        <time>2020-06-26T17:23:45Z</time>
      </trkpt>
      <trkpt lat="49.43706" lon="6.4661">
        <ele>334.1</ele>
        <time>2020-06-26T17:23:46Z</time>
      </trkpt>
      <trkpt lat="49.43707" lon="6.46614">
        <ele>334.2</ele>
        <time>2020-06-26T17:23:47Z</time>
      </trkpt>
      <trkpt lat="49.43707" lon="6.46618">
        <ele>334.3</ele>
        <time>2020-06-26T17:23:48Z</time>
      </trkpt>
      <trkpt lat="49.43708" lon="6.46623">
        <ele>334.5</ele>
        <time>2020-06-26T17:23:49Z</time>
      </trkpt>
      <trkpt lat="49.43708" lon="6.46629">
        <ele>334.6</ele>
        <time>2020-06-26T17:23:50Z</time>
      </trkpt>
      <trkpt lat="49.43707" lon="6.46633">
        <ele>334.7</ele>
        <time>2020-06-26T17:23:51Z</time>
      </trkpt>
      <trkpt lat="49.43708" lon="6.46638">
        <ele>334.9</ele>
        <time>2020-06-26T17:23:52Z</time>
      </trkpt>
      <trkpt lat="49.4371" lon="6.46644">
        <ele>335.1</ele>
        <time>2020-06-26T17:23:53Z</time>
      </trkpt>
      <trkpt lat="49.43711" lon="6.46648">
        <ele>335.2</ele>
        <time>2020-06-26T17:23:54Z</time>
      </trkpt>
      <trkpt lat="49.43711" lon="6.46655">
        <ele>335.4</ele>
        <time>2020-06-26T17:23:55Z</time>
      </trkpt>
      <trkpt lat="49.4371" lon="6.46657">
        <ele>335.5</ele>
        <time>2020-06-26T17:23:56Z</time>
      </trkpt>
      <trkpt lat="49.4371" lon="6.46662">
        <ele>335.6</ele>
        <time>2020-06-26T17:23:57Z</time>
      </trkpt>
      <trkpt lat="49.4371" lon="6.46667">
        <ele>335.8</ele>
        <time>2020-06-26T17:23:58Z</time>
      </trkpt>
      <trkpt lat="49.4371" lon="6.46674">
        <ele>335.9</ele>
        <time>2020-06-26T17:23:59Z</time>
      </trkpt>
      <trkpt lat="49.43711" lon="6.46679">
        <ele>336</ele>
        <time>2020-06-26T17:24:00Z</time>
      </trkpt>
      <trkpt lat="49.43711" lon="6.46683">
        <ele>336.2</ele>
        <time>2020-06-26T17:24:01Z</time>
      </trkpt>
      <trkpt lat="49.43711" lon="6.46689">
        <ele>336.3</ele>
        <time>2020-06-26T17:24:02Z</time>
      </trkpt>
      <trkpt lat="49.43712" lon="6.46693">
        <ele>336.4</ele>
        <time>2020-06-26T17:24:03Z</time>
      </trkpt>
      <trkpt lat="49.43712" lon="6.46699">
        <ele>336.5</ele>
        <time>2020-06-26T17:24:04Z</time>
      </trkpt>
      <trkpt lat="49.43712" lon="6.46704">
        <ele>336.7</ele>
        <time>2020-06-26T17:24:05Z</time>
      </trkpt>
      <trkpt lat="49.43712" lon="6.46708">
        <ele>336.8</ele>
        <time>2020-06-26T17:24:06Z</time>
      </trkpt>
      <trkpt lat="49.43712" lon="6.46713">
        <ele>336.9</ele>
        <time>2020-06-26T17:24:07Z</time>
      </trkpt>
      <trkpt lat="49.43712" lon="6.46718">
        <ele>337</ele>
        <time>2020-06-26T17:24:08Z</time>
      </trkpt>
      <trkpt lat="49.43712" lon="6.46722">
        <ele>337.1</ele>
        <time>2020-06-26T17:24:09Z</time>
      </trkpt>
      <trkpt lat="49.43712" lon="6.46727">
        <ele>337.2</ele>
        <time>2020-06-26T17:24:10Z</time>
      </trkpt>
      <trkpt lat="49.43713" lon="6.46732">
        <ele>337.4</ele>
        <time>2020-06-26T17:24:11Z</time>
      </trkpt>
      <trkpt lat="49.43712" lon="6.46737">
        <ele>337.5</ele>
        <time>2020-06-26T17:24:12Z</time>
      </trkpt>
      <trkpt lat="49.43711" lon="6.46741">
        <ele>337.6</ele>
        <time>2020-06-26T17:24:13Z</time>
      </trkpt>
      <trkpt lat="49.43711" lon="6.46745">
        <ele>337.7</ele>
        <time>2020-06-26T17:24:14Z</time>
      </trkpt>
      <trkpt lat="49.4371" lon="6.4675">
        <ele>337.8</ele>
        <time>2020-06-26T17:24:15Z</time>
      </trkpt>
      <trkpt lat="49.4371" lon="6.46755">
        <ele>337.9</ele>
        <time>2020-06-26T17:24:16Z</time>
      </trkpt>
      <trkpt lat="49.4371" lon="6.4676">
        <ele>338</ele>
        <time>2020-06-26T17:24:17Z</time>
      </trkpt>
      <trkpt lat="49.4371" lon="6.46765">
        <ele>338.3</ele>
        <time>2020-06-26T17:24:18Z</time>
      </trkpt>
      <trkpt lat="49.4371" lon="6.4677">
        <ele>338.4</ele>
        <time>2020-06-26T17:24:19Z</time>
      </trkpt>
      <trkpt lat="49.4371" lon="6.46776">
        <ele>338.5</ele>
        <time>2020-06-26T17:24:20Z</time>
      </trkpt>
      <trkpt lat="49.4371" lon="6.46781">
        <ele>338.6</ele>
        <time>2020-06-26T17:24:21Z</time>
      </trkpt>
      <trkpt lat="49.43709" lon="6.46786">
        <ele>338.7</ele>
        <time>2020-06-26T17:24:22Z</time>
      </trkpt>
      <trkpt lat="49.43708" lon="6.46791">
        <ele>338.8</ele>
        <time>2020-06-26T17:24:23Z</time>
      </trkpt>
      <trkpt lat="49.43708" lon="6.46795">
        <ele>338.9</ele>
        <time>2020-06-26T17:24:24Z</time>
      </trkpt>
      <trkpt lat="49.43707" lon="6.468">
        <ele>339</ele>
        <time>2020-06-26T17:24:25Z</time>
      </trkpt>
      <trkpt lat="49.43706" lon="6.46804">
        <ele>339.1</ele>
        <time>2020-06-26T17:24:26Z</time>
      </trkpt>
      <trkpt lat="49.43705" lon="6.46808">
        <ele>339.2</ele>
        <time>2020-06-26T17:24:27Z</time>
      </trkpt>
      <trkpt lat="49.43704" lon="6.46813">
        <ele>339.3</ele>
        <time>2020-06-26T17:24:28Z</time>
      </trkpt>
      <trkpt lat="49.43704" lon="6.46818">
        <ele>339.4</ele>
        <time>2020-06-26T17:24:29Z</time>
      </trkpt>
      <trkpt lat="49.43703" lon="6.46823">
        <ele>339.5</ele>
        <time>2020-06-26T17:24:30Z</time>
      </trkpt>
      <trkpt lat="49.43703" lon="6.46828">
        <ele>339.6</ele>
        <time>2020-06-26T17:24:31Z</time>
      </trkpt>
      <trkpt lat="49.43701" lon="6.46834">
        <ele>339.8</ele>
        <time>2020-06-26T17:24:32Z</time>
      </trkpt>
      <trkpt lat="49.43701" lon="6.46836">
        <ele>339.8</ele>
        <time>2020-06-26T17:24:33Z</time>
      </trkpt>
      <trkpt lat="49.437" lon="6.4684">
        <ele>339.9</ele>
        <time>2020-06-26T17:24:34Z</time>
      </trkpt>
      <trkpt lat="49.437" lon="6.46844">
        <ele>340</ele>
        <time>2020-06-26T17:24:35Z</time>
      </trkpt>
      <trkpt lat="49.43699" lon="6.46848">
        <ele>340.2</ele>
        <time>2020-06-26T17:24:36Z</time>
      </trkpt>
      <trkpt lat="49.43699" lon="6.46852">
        <ele>340.3</ele>
        <time>2020-06-26T17:24:37Z</time>
      </trkpt>
      <trkpt lat="49.43698" lon="6.46858">
        <ele>340.4</ele>
        <time>2020-06-26T17:24:38Z</time>
      </trkpt>
      <trkpt lat="49.43698" lon="6.46859">
        <ele>340.5</ele>
        <time>2020-06-26T17:24:39Z</time>
      </trkpt>
      <trkpt lat="49.43698" lon="6.46864">
        <ele>340.6</ele>
        <time>2020-06-26T17:24:40Z</time>
      </trkpt>
      <trkpt lat="49.43698" lon="6.46866">
        <ele>340.7</ele>
        <time>2020-06-26T17:24:41Z</time>
      </trkpt>
      <trkpt lat="49.43697" lon="6.4687">
        <ele>340.8</ele>
        <time>2020-06-26T17:24:42Z</time>
      </trkpt>
      <trkpt lat="49.43697" lon="6.46871">
        <ele>340.8</ele>
        <time>2020-06-26T17:24:43Z</time>
      </trkpt>
      <trkpt lat="49.43695" lon="6.46876">
        <ele>341</ele>
        <time>2020-06-26T17:24:44Z</time>
      </trkpt>
      <trkpt lat="49.43695" lon="6.46878">
        <ele>341</ele>
        <time>2020-06-26T17:24:45Z</time>
      </trkpt>
      <trkpt lat="49.43694" lon="6.46883">
        <ele>341.2</ele>
        <time>2020-06-26T17:24:46Z</time>
      </trkpt>
      <trkpt lat="49.43694" lon="6.46884">
        <ele>341.2</ele>
        <time>2020-06-26T17:24:47Z</time>
      </trkpt>
      <trkpt lat="49.43693" lon="6.46889">
        <ele>341.4</ele>
        <time>2020-06-26T17:24:48Z</time>
      </trkpt>
      <trkpt lat="49.43693" lon="6.46891">
        <ele>341.4</ele>
        <time>2020-06-26T17:24:49Z</time>
      </trkpt>
      <trkpt lat="49.43692" lon="6.46896">
        <ele>341.5</ele>
        <time>2020-06-26T17:24:50Z</time>
      </trkpt>
      <trkpt lat="49.4369" lon="6.469">
        <ele>341.7</ele>
        <time>2020-06-26T17:24:51Z</time>
      </trkpt>
      <trkpt lat="49.4369" lon="6.46902">
        <ele>341.7</ele>
        <time>2020-06-26T17:24:52Z</time>
      </trkpt>
      <trkpt lat="49.43688" lon="6.46907">
        <ele>341.9</ele>
        <time>2020-06-26T17:24:53Z</time>
      </trkpt>
      <trkpt lat="49.43688" lon="6.46909">
        <ele>342</ele>
        <time>2020-06-26T17:24:54Z</time>
      </trkpt>
      <trkpt lat="49.43687" lon="6.46914">
        <ele>342.1</ele>
        <time>2020-06-26T17:24:55Z</time>
      </trkpt>
      <trkpt lat="49.43686" lon="6.46915">
        <ele>342.2</ele>
        <time>2020-06-26T17:24:56Z</time>
      </trkpt>
      <trkpt lat="49.43685" lon="6.46921">
        <ele>342.3</ele>
        <time>2020-06-26T17:24:57Z</time>
      </trkpt>
      <trkpt lat="49.43685" lon="6.46923">
        <ele>342.4</ele>
        <time>2020-06-26T17:24:58Z</time>
      </trkpt>
      <trkpt lat="49.43685" lon="6.46928">
        <ele>342.5</ele>
        <time>2020-06-26T17:24:59Z</time>
      </trkpt>
      <trkpt lat="49.43685" lon="6.46929">
        <ele>342.6</ele>
        <time>2020-06-26T17:25:00Z</time>
      </trkpt>
      <trkpt lat="49.43685" lon="6.46934">
        <ele>342.7</ele>
        <time>2020-06-26T17:25:01Z</time>
      </trkpt>
      <trkpt lat="49.43685" lon="6.46936">
        <ele>342.8</ele>
        <time>2020-06-26T17:25:02Z</time>
      </trkpt>
      <trkpt lat="49.43684" lon="6.4694">
        <ele>342.9</ele>
        <time>2020-06-26T17:25:03Z</time>
      </trkpt>
      <trkpt lat="49.43684" lon="6.46942">
        <ele>343</ele>
        <time>2020-06-26T17:25:04Z</time>
      </trkpt>
      <trkpt lat="49.43682" lon="6.46946">
        <ele>343.1</ele>
        <time>2020-06-26T17:25:05Z</time>
      </trkpt>
      <trkpt lat="49.43682" lon="6.46947">
        <ele>343.2</ele>
        <time>2020-06-26T17:25:06Z</time>
      </trkpt>
      <trkpt lat="49.43682" lon="6.46949">
        <ele>343.2</ele>
        <time>2020-06-26T17:25:07Z</time>
      </trkpt>
      <trkpt lat="49.43681" lon="6.46951">
        <ele>343.3</ele>
        <time>2020-06-26T17:25:08Z</time>
      </trkpt>
      <trkpt lat="49.4368" lon="6.46951">
        <ele>343.3</ele>
        <time>2020-06-26T17:25:09Z</time>
      </trkpt>
      <trkpt lat="49.43679" lon="6.46952">
        <ele>343.4</ele>
        <time>2020-06-26T17:25:10Z</time>
      </trkpt>
      <trkpt lat="49.43677" lon="6.46953">
        <ele>343.5</ele>
        <time>2020-06-26T17:25:11Z</time>
      </trkpt>
      <trkpt lat="49.43674" lon="6.46956">
        <ele>343.6</ele>
        <time>2020-06-26T17:25:12Z</time>
      </trkpt>
      <trkpt lat="49.43673" lon="6.46958">
        <ele>343.7</ele>
        <time>2020-06-26T17:25:13Z</time>
      </trkpt>
      <trkpt lat="49.43671" lon="6.46961">
        <ele>343.9</ele>
        <time>2020-06-26T17:25:14Z</time>
      </trkpt>
      <trkpt lat="49.4367" lon="6.46962">
        <ele>343.9</ele>
        <time>2020-06-26T17:25:15Z</time>
      </trkpt>
      <trkpt lat="49.43666" lon="6.46966">
        <ele>344.1</ele>
        <time>2020-06-26T17:25:16Z</time>
      </trkpt>
      <trkpt lat="49.43665" lon="6.46968">
        <ele>344.2</ele>
        <time>2020-06-26T17:25:17Z</time>
      </trkpt>
      <trkpt lat="49.43663" lon="6.46971">
        <ele>344.3</ele>
        <time>2020-06-26T17:25:18Z</time>
      </trkpt>
      <trkpt lat="49.43662" lon="6.46972">
        <ele>344.4</ele>
        <time>2020-06-26T17:25:19Z</time>
      </trkpt>
      <trkpt lat="49.43659" lon="6.46975">
        <ele>344.5</ele>
        <time>2020-06-26T17:25:20Z</time>
      </trkpt>
      <trkpt lat="49.43658" lon="6.46976">
        <ele>344.6</ele>
        <time>2020-06-26T17:25:21Z</time>
      </trkpt>
      <trkpt lat="49.43656" lon="6.46978">
        <ele>344.7</ele>
        <time>2020-06-26T17:25:22Z</time>
      </trkpt>
      <trkpt lat="49.43655" lon="6.46979">
        <ele>344.7</ele>
        <time>2020-06-26T17:25:23Z</time>
      </trkpt>
      <trkpt lat="49.43654" lon="6.4698">
        <ele>344.8</ele>
        <time>2020-06-26T17:25:24Z</time>
      </trkpt>
      <trkpt lat="49.43652" lon="6.46981">
        <ele>344.9</ele>
        <time>2020-06-26T17:25:25Z</time>
      </trkpt>
      <trkpt lat="49.43651" lon="6.46981">
        <ele>344.9</ele>
        <time>2020-06-26T17:25:26Z</time>
      </trkpt>
      <trkpt lat="49.43649" lon="6.46981">
        <ele>345</ele>
        <time>2020-06-26T17:25:27Z</time>
      </trkpt>
      <trkpt lat="49.43648" lon="6.46981">
        <ele>345.1</ele>
        <time>2020-06-26T17:25:28Z</time>
      </trkpt>
      <trkpt lat="49.43647" lon="6.46979">
        <ele>345.1</ele>
        <time>2020-06-26T17:25:29Z</time>
      </trkpt>
      <trkpt lat="49.43644" lon="6.46979">
        <ele>345.3</ele>
        <time>2020-06-26T17:25:30Z</time>
      </trkpt>
      <trkpt lat="49.43643" lon="6.46979">
        <ele>345.3</ele>
        <time>2020-06-26T17:25:31Z</time>
      </trkpt>
      <trkpt lat="49.43641" lon="6.46978">
        <ele>345.4</ele>
        <time>2020-06-26T17:25:32Z</time>
      </trkpt>
      <trkpt lat="49.4364" lon="6.46977">
        <ele>345.4</ele>
        <time>2020-06-26T17:25:33Z</time>
      </trkpt>
      <trkpt lat="49.43638" lon="6.46977">
        <ele>345.5</ele>
        <time>2020-06-26T17:25:34Z</time>
      </trkpt>
      <trkpt lat="49.43637" lon="6.46975">
        <ele>345.6</ele>
        <time>2020-06-26T17:25:35Z</time>
      </trkpt>
      <trkpt lat="49.43636" lon="6.46975">
        <ele>345.6</ele>
        <time>2020-06-26T17:25:36Z</time>
      </trkpt>
      <trkpt lat="49.43634" lon="6.46975">
        <ele>345.7</ele>
        <time>2020-06-26T17:25:37Z</time>
      </trkpt>
      <trkpt lat="49.43633" lon="6.46975">
        <ele>345.8</ele>
        <time>2020-06-26T17:25:38Z</time>
      </trkpt>
      <trkpt lat="49.43631" lon="6.46976">
        <ele>345.9</ele>
        <time>2020-06-26T17:25:39Z</time>
      </trkpt>
      <trkpt lat="49.43632" lon="6.46978">
        <ele>345.9</ele>
        <time>2020-06-26T17:25:40Z</time>
      </trkpt>
      <trkpt lat="49.43633" lon="6.4698">
        <ele>346</ele>
        <time>2020-06-26T17:25:41Z</time>
      </trkpt>
      <trkpt lat="49.43635" lon="6.46984">
        <ele>346.2</ele>
        <time>2020-06-26T17:25:42Z</time>
      </trkpt>
      <trkpt lat="49.43636" lon="6.46985">
        <ele>346.2</ele>
        <time>2020-06-26T17:25:43Z</time>
      </trkpt>
      <trkpt lat="49.43639" lon="6.46989">
        <ele>346.4</ele>
        <time>2020-06-26T17:25:44Z</time>
      </trkpt>
      <trkpt lat="49.4364" lon="6.4699">
        <ele>346.4</ele>
        <time>2020-06-26T17:25:45Z</time>
      </trkpt>
      <trkpt lat="49.43643" lon="6.46993">
        <ele>346.6</ele>
        <time>2020-06-26T17:25:46Z</time>
      </trkpt>
      <trkpt lat="49.43644" lon="6.46994">
        <ele>346.6</ele>
        <time>2020-06-26T17:25:47Z</time>
      </trkpt>
      <trkpt lat="49.43646" lon="6.46997">
        <ele>346.8</ele>
        <time>2020-06-26T17:25:48Z</time>
      </trkpt>
      <trkpt lat="49.43649" lon="6.47002">
        <ele>347</ele>
        <time>2020-06-26T17:25:49Z</time>
      </trkpt>
      <trkpt lat="49.4365" lon="6.47004">
        <ele>347</ele>
        <time>2020-06-26T17:25:50Z</time>
      </trkpt>
      <trkpt lat="49.43653" lon="6.47007">
        <ele>347.2</ele>
        <time>2020-06-26T17:25:51Z</time>
      </trkpt>
      <trkpt lat="49.43653" lon="6.47008">
        <ele>347.2</ele>
        <time>2020-06-26T17:25:52Z</time>
      </trkpt>
      <trkpt lat="49.43656" lon="6.47012">
        <ele>347.4</ele>
        <time>2020-06-26T17:25:53Z</time>
      </trkpt>
      <trkpt lat="49.43656" lon="6.47014">
        <ele>347.4</ele>
        <time>2020-06-26T17:25:54Z</time>
      </trkpt>
      <trkpt lat="49.43658" lon="6.47017">
        <ele>347.6</ele>
        <time>2020-06-26T17:25:55Z</time>
      </trkpt>
      <trkpt lat="49.43659" lon="6.47018">
        <ele>347.6</ele>
        <time>2020-06-26T17:25:56Z</time>
      </trkpt>
      <trkpt lat="49.4366" lon="6.47021">
        <ele>347.7</ele>
        <time>2020-06-26T17:25:57Z</time>
      </trkpt>
      <trkpt lat="49.43659" lon="6.47024">
        <ele>347.7</ele>
        <time>2020-06-26T17:25:58Z</time>
      </trkpt>
      <trkpt lat="49.43656" lon="6.47027">
        <ele>347.9</ele>
        <time>2020-06-26T17:25:59Z</time>
      </trkpt>
      <trkpt lat="49.43654" lon="6.4703">
        <ele>348</ele>
        <time>2020-06-26T17:26:00Z</time>
      </trkpt>
      <trkpt lat="49.43652" lon="6.47034">
        <ele>348.2</ele>
        <time>2020-06-26T17:26:01Z</time>
      </trkpt>
      <trkpt lat="49.4365" lon="6.47037">
        <ele>348.3</ele>
        <time>2020-06-26T17:26:02Z</time>
      </trkpt>
      <trkpt lat="49.43649" lon="6.47039">
        <ele>348.4</ele>
        <time>2020-06-26T17:26:03Z</time>
      </trkpt>
      <trkpt lat="49.43647" lon="6.47041">
        <ele>348.5</ele>
        <time>2020-06-26T17:26:04Z</time>
      </trkpt>
      <trkpt lat="49.43646" lon="6.47043">
        <ele>348.5</ele>
        <time>2020-06-26T17:26:05Z</time>
      </trkpt>
      <trkpt lat="49.43645" lon="6.47044">
        <ele>348.6</ele>
        <time>2020-06-26T17:26:06Z</time>
      </trkpt>
      <trkpt lat="49.43644" lon="6.47044">
        <ele>348.6</ele>
        <time>2020-06-26T17:26:07Z</time>
      </trkpt>
      <trkpt lat="49.43644" lon="6.47044">
        <ele>348.6</ele>
        <time>2020-06-26T17:26:08Z</time>
      </trkpt>
      <trkpt lat="49.43644" lon="6.47043">
        <ele>348.7</ele>
        <time>2020-06-26T17:26:09Z</time>
      </trkpt>
      <trkpt lat="49.43644" lon="6.47043">
        <ele>348.7</ele>
        <time>2020-06-26T17:26:10Z</time>
      </trkpt>
      <trkpt lat="49.43644" lon="6.47043">
        <ele>348.7</ele>
        <time>2020-06-26T17:26:11Z</time>
      </trkpt>
      <trkpt lat="49.43644" lon="6.47043">
        <ele>348.7</ele>
        <time>2020-06-26T17:26:12Z</time>
      </trkpt>
      <trkpt lat="49.43644" lon="6.47043">
        <ele>348.7</ele>
        <time>2020-06-26T17:26:13Z</time>
      </trkpt>
      <trkpt lat="49.43643" lon="6.47043">
        <ele>348.7</ele>
        <time>2020-06-26T17:26:14Z</time>
      </trkpt>
      <trkpt lat="49.43643" lon="6.47042">
        <ele>348.7</ele>
        <time>2020-06-26T17:26:15Z</time>
      </trkpt>
      <trkpt lat="49.43643" lon="6.47042">
        <ele>348.7</ele>
        <time>2020-06-26T17:26:16Z</time>
      </trkpt>
      <trkpt lat="49.43642" lon="6.47043">
        <ele>348.8</ele>
        <time>2020-06-26T17:26:17Z</time>
      </trkpt>
      <trkpt lat="49.43635" lon="6.47035">
        <ele>349.1</ele>
        <time>2020-06-26T17:26:46Z</time>
      </trkpt>
      <trkpt lat="49.43634" lon="6.47034">
        <ele>349.2</ele>
        <time>2020-06-26T17:26:47Z</time>
      </trkpt>
      <trkpt lat="49.43632" lon="6.47032">
        <ele>349.3</ele>
        <time>2020-06-26T17:26:48Z</time>
      </trkpt>
      <trkpt lat="49.43632" lon="6.47029">
        <ele>349.3</ele>
        <time>2020-06-26T17:26:49Z</time>
      </trkpt>
      <trkpt lat="49.4363" lon="6.47026">
        <ele>349.5</ele>
        <time>2020-06-26T17:26:50Z</time>
      </trkpt>
      <trkpt lat="49.43629" lon="6.47024">
        <ele>349.5</ele>
        <time>2020-06-26T17:26:51Z</time>
      </trkpt>
      <trkpt lat="49.43627" lon="6.47021">
        <ele>349.6</ele>
        <time>2020-06-26T17:26:52Z</time>
      </trkpt>
      <trkpt lat="49.43626" lon="6.47021">
        <ele>349.7</ele>
        <time>2020-06-26T17:26:53Z</time>
      </trkpt>
      <trkpt lat="49.43624" lon="6.47018">
        <ele>349.8</ele>
        <time>2020-06-26T17:26:54Z</time>
      </trkpt>
      <trkpt lat="49.43621" lon="6.47015">
        <ele>349.9</ele>
        <time>2020-06-26T17:26:55Z</time>
      </trkpt>
      <trkpt lat="49.43621" lon="6.47015">
        <ele>349.9</ele>
        <time>2020-06-26T17:26:56Z</time>
      </trkpt>
      <trkpt lat="49.4362" lon="6.47013">
        <ele>350</ele>
        <time>2020-06-26T17:26:57Z</time>
      </trkpt>
      <trkpt lat="49.43619" lon="6.47011">
        <ele>350</ele>
        <time>2020-06-26T17:26:58Z</time>
      </trkpt>
      <trkpt lat="49.43618" lon="6.47009">
        <ele>350.1</ele>
        <time>2020-06-26T17:26:59Z</time>
      </trkpt>
      <trkpt lat="49.43617" lon="6.47008">
        <ele>350.1</ele>
        <time>2020-06-26T17:27:00Z</time>
      </trkpt>
      <trkpt lat="49.43617" lon="6.47006">
        <ele>350.2</ele>
        <time>2020-06-26T17:27:01Z</time>
      </trkpt>
      <trkpt lat="49.43615" lon="6.47002">
        <ele>350.3</ele>
        <time>2020-06-26T17:27:02Z</time>
      </trkpt>
      <trkpt lat="49.43614" lon="6.47001">
        <ele>350.4</ele>
        <time>2020-06-26T17:27:03Z</time>
      </trkpt>
      <trkpt lat="49.43612" lon="6.47">
        <ele>350.4</ele>
        <time>2020-06-26T17:27:04Z</time>
      </trkpt>
      <trkpt lat="49.43612" lon="6.47">
        <ele>350.4</ele>
        <time>2020-06-26T17:27:05Z</time>
      </trkpt>
      <trkpt lat="49.43612" lon="6.47">
        <ele>350.5</ele>
        <time>2020-06-26T17:27:06Z</time>
      </trkpt>
      <trkpt lat="49.43612" lon="6.47">
        <ele>350.5</ele>
        <time>2020-06-26T17:27:07Z</time>
      </trkpt>
      <trkpt lat="49.43612" lon="6.47001">
        <ele>350.5</ele>
        <time>2020-06-26T17:27:08Z</time>
      </trkpt>
      <trkpt lat="49.43612" lon="6.47001">
        <ele>350.5</ele>
        <time>2020-06-26T17:27:09Z</time>
      </trkpt>
      <trkpt lat="49.43612" lon="6.47001">
        <ele>350.5</ele>
        <time>2020-06-26T17:27:10Z</time>
      </trkpt>
      <trkpt lat="49.43612" lon="6.47001">
        <ele>350.5</ele>
        <time>2020-06-26T17:27:11Z</time>
      </trkpt>
      <trkpt lat="49.43612" lon="6.47001">
        <ele>350.5</ele>
        <time>2020-06-26T17:27:12Z</time>
      </trkpt>
      <trkpt lat="49.43612" lon="6.47">
        <ele>350.5</ele>
        <time>2020-06-26T17:27:13Z</time>
      </trkpt>
      <trkpt lat="49.43612" lon="6.47">
        <ele>350.5</ele>
        <time>2020-06-26T17:27:14Z</time>
      </trkpt>
      <trkpt lat="49.43612" lon="6.47">
        <ele>350.5</ele>
        <time>2020-06-26T17:27:15Z</time>
      </trkpt>
      <trkpt lat="49.43617" lon="6.47005">
        <ele>350.7</ele>
        <time>2020-06-26T17:27:22Z</time>
      </trkpt>
      <trkpt lat="49.43618" lon="6.47005">
        <ele>350.8</ele>
        <time>2020-06-26T17:27:23Z</time>
      </trkpt>
      <trkpt lat="49.4362" lon="6.47005">
        <ele>350.8</ele>
        <time>2020-06-26T17:27:24Z</time>
      </trkpt>
      <trkpt lat="49.43621" lon="6.47005">
        <ele>350.9</ele>
        <time>2020-06-26T17:27:25Z</time>
      </trkpt>
      <trkpt lat="49.43623" lon="6.47006">
        <ele>350.9</ele>
        <time>2020-06-26T17:27:26Z</time>
      </trkpt>
      <trkpt lat="49.43624" lon="6.47007">
        <ele>351</ele>
        <time>2020-06-26T17:27:27Z</time>
      </trkpt>
      <trkpt lat="49.43625" lon="6.4701">
        <ele>351.1</ele>
        <time>2020-06-26T17:27:28Z</time>
      </trkpt>
      <trkpt lat="49.43626" lon="6.47011">
        <ele>351.1</ele>
        <time>2020-06-26T17:27:29Z</time>
      </trkpt>
      <trkpt lat="49.43627" lon="6.47012">
        <ele>351.1</ele>
        <time>2020-06-26T17:27:30Z</time>
      </trkpt>
      <trkpt lat="49.43627" lon="6.47014">
        <ele>351.2</ele>
        <time>2020-06-26T17:27:31Z</time>
      </trkpt>
      <trkpt lat="49.43629" lon="6.47015">
        <ele>351.3</ele>
        <time>2020-06-26T17:27:32Z</time>
      </trkpt>
      <trkpt lat="49.43628" lon="6.47017">
        <ele>351.3</ele>
        <time>2020-06-26T17:27:33Z</time>
      </trkpt>
      <trkpt lat="49.43629" lon="6.4702">
        <ele>351.4</ele>
        <time>2020-06-26T17:27:34Z</time>
      </trkpt>
      <trkpt lat="49.43631" lon="6.47021">
        <ele>351.5</ele>
        <time>2020-06-26T17:27:35Z</time>
      </trkpt>
      <trkpt lat="49.43632" lon="6.47022">
        <ele>351.5</ele>
        <time>2020-06-26T17:27:36Z</time>
      </trkpt>
      <trkpt lat="49.43632" lon="6.47024">
        <ele>351.6</ele>
        <time>2020-06-26T17:27:37Z</time>
      </trkpt>
      <trkpt lat="49.43633" lon="6.47026">
        <ele>351.6</ele>
        <time>2020-06-26T17:27:38Z</time>
      </trkpt>
      <trkpt lat="49.43634" lon="6.47028">
        <ele>351.7</ele>
        <time>2020-06-26T17:27:39Z</time>
      </trkpt>
      <trkpt lat="49.43634" lon="6.47029">
        <ele>351.7</ele>
        <time>2020-06-26T17:27:40Z</time>
      </trkpt>
      <trkpt lat="49.43635" lon="6.4703">
        <ele>351.7</ele>
        <time>2020-06-26T17:27:41Z</time>
      </trkpt>
      <trkpt lat="49.43635" lon="6.47031">
        <ele>351.8</ele>
        <time>2020-06-26T17:27:42Z</time>
      </trkpt>
      <trkpt lat="49.43637" lon="6.47032">
        <ele>351.8</ele>
        <time>2020-06-26T17:27:43Z</time>
      </trkpt>
      <trkpt lat="49.43637" lon="6.47034">
        <ele>351.9</ele>
        <time>2020-06-26T17:27:44Z</time>
      </trkpt>
      <trkpt lat="49.43638" lon="6.47036">
        <ele>352</ele>
        <time>2020-06-26T17:27:45Z</time>
      </trkpt>
      <trkpt lat="49.43638" lon="6.47038">
        <ele>352</ele>
        <time>2020-06-26T17:27:46Z</time>
      </trkpt>
      <trkpt lat="49.43638" lon="6.47038">
        <ele>352</ele>
        <time>2020-06-26T17:27:47Z</time>
      </trkpt>
      <trkpt lat="49.43638" lon="6.47037">
        <ele>352</ele>
        <time>2020-06-26T17:27:48Z</time>
      </trkpt>
      <trkpt lat="49.43638" lon="6.47038">
        <ele>352</ele>
        <time>2020-06-26T17:27:49Z</time>
      </trkpt>
      <trkpt lat="49.43638" lon="6.47039">
        <ele>352</ele>
        <time>2020-06-26T17:27:50Z</time>
      </trkpt>
      <trkpt lat="49.43638" lon="6.47039">
        <ele>352</ele>
        <time>2020-06-26T17:27:51Z</time>
      </trkpt>
      <trkpt lat="49.43638" lon="6.47038">
        <ele>351.9</ele>
        <time>2020-06-26T17:27:52Z</time>
      </trkpt>
      <trkpt lat="49.43638" lon="6.47039">
        <ele>351.9</ele>
        <time>2020-06-26T17:27:53Z</time>
      </trkpt>
      <trkpt lat="49.43637" lon="6.47039">
        <ele>351.9</ele>
        <time>2020-06-26T17:27:54Z</time>
      </trkpt>
      <trkpt lat="49.43637" lon="6.4704">
        <ele>351.9</ele>
        <time>2020-06-26T17:27:55Z</time>
      </trkpt>
      <trkpt lat="49.43637" lon="6.4704">
        <ele>351.9</ele>
        <time>2020-06-26T17:27:56Z</time>
      </trkpt>
      <trkpt lat="49.43637" lon="6.4704">
        <ele>351.9</ele>
        <time>2020-06-26T17:27:57Z</time>
      </trkpt>
      <trkpt lat="49.43637" lon="6.4704">
        <ele>351.9</ele>
        <time>2020-06-26T17:27:58Z</time>
      </trkpt>
      <trkpt lat="49.43637" lon="6.4704">
        <ele>351.9</ele>
        <time>2020-06-26T17:27:59Z</time>
      </trkpt>
      <trkpt lat="49.43637" lon="6.4704">
        <ele>351.9</ele>
        <time>2020-06-26T17:28:00Z</time>
      </trkpt>
      <trkpt lat="49.43637" lon="6.4704">
        <ele>351.9</ele>
        <time>2020-06-26T17:28:01Z</time>
      </trkpt>
      <trkpt lat="49.43637" lon="6.4704">
        <ele>351.9</ele>
        <time>2020-06-26T17:28:02Z</time>
      </trkpt>
      <trkpt lat="49.43637" lon="6.47042">
        <ele>351.8</ele>
        <time>2020-06-26T17:28:03Z</time>
      </trkpt>
      <trkpt lat="49.43637" lon="6.47042">
        <ele>351.8</ele>
        <time>2020-06-26T17:28:04Z</time>
      </trkpt>
      <trkpt lat="49.43636" lon="6.47042">
        <ele>351.8</ele>
        <time>2020-06-26T17:28:05Z</time>
      </trkpt>
      <trkpt lat="49.4364" lon="6.47045">
        <ele>351.7</ele>
        <time>2020-06-26T17:28:12Z</time>
      </trkpt>
      <trkpt lat="49.43641" lon="6.47043">
        <ele>351.6</ele>
        <time>2020-06-26T17:28:13Z</time>
      </trkpt>
      <trkpt lat="49.43643" lon="6.4704">
        <ele>351.5</ele>
        <time>2020-06-26T17:28:14Z</time>
      </trkpt>
      <trkpt lat="49.43646" lon="6.47037">
        <ele>351.4</ele>
        <time>2020-06-26T17:28:15Z</time>
      </trkpt>
      <trkpt lat="49.43646" lon="6.47037">
        <ele>351.4</ele>
        <time>2020-06-26T17:28:16Z</time>
      </trkpt>
      <trkpt lat="49.43648" lon="6.47035">
        <ele>351.3</ele>
        <time>2020-06-26T17:28:17Z</time>
      </trkpt>
      <trkpt lat="49.43649" lon="6.47032">
        <ele>351.3</ele>
        <time>2020-06-26T17:28:18Z</time>
      </trkpt>
      <trkpt lat="49.43651" lon="6.47029">
        <ele>351.2</ele>
        <time>2020-06-26T17:28:19Z</time>
      </trkpt>
      <trkpt lat="49.43651" lon="6.47028">
        <ele>351.2</ele>
        <time>2020-06-26T17:28:20Z</time>
      </trkpt>
      <trkpt lat="49.43651" lon="6.47027">
        <ele>351.1</ele>
        <time>2020-06-26T17:28:21Z</time>
      </trkpt>
      <trkpt lat="49.43651" lon="6.47026">
        <ele>351.1</ele>
        <time>2020-06-26T17:28:22Z</time>
      </trkpt>
      <trkpt lat="49.43651" lon="6.47026">
        <ele>351.1</ele>
        <time>2020-06-26T17:28:23Z</time>
      </trkpt>
      <trkpt lat="49.43652" lon="6.47024">
        <ele>351.1</ele>
        <time>2020-06-26T17:28:24Z</time>
      </trkpt>
      <trkpt lat="49.43652" lon="6.47023">
        <ele>351.1</ele>
        <time>2020-06-26T17:28:25Z</time>
      </trkpt>
      <trkpt lat="49.43653" lon="6.47022">
        <ele>351</ele>
        <time>2020-06-26T17:28:26Z</time>
      </trkpt>
      <trkpt lat="49.43653" lon="6.4702">
        <ele>351</ele>
        <time>2020-06-26T17:28:27Z</time>
      </trkpt>
      <trkpt lat="49.43654" lon="6.47019">
        <ele>351</ele>
        <time>2020-06-26T17:28:28Z</time>
      </trkpt>
      <trkpt lat="49.43654" lon="6.47018">
        <ele>350.9</ele>
        <time>2020-06-26T17:28:29Z</time>
      </trkpt>
      <trkpt lat="49.43654" lon="6.47017">
        <ele>350.9</ele>
        <time>2020-06-26T17:28:30Z</time>
      </trkpt>
      <trkpt lat="49.43655" lon="6.47019">
        <ele>350.9</ele>
        <time>2020-06-26T17:28:31Z</time>
      </trkpt>
      <trkpt lat="49.43655" lon="6.47019">
        <ele>350.8</ele>
        <time>2020-06-26T17:28:32Z</time>
      </trkpt>
      <trkpt lat="49.43655" lon="6.47021">
        <ele>350.8</ele>
        <time>2020-06-26T17:28:33Z</time>
      </trkpt>
      <trkpt lat="49.43655" lon="6.47022">
        <ele>350.8</ele>
        <time>2020-06-26T17:28:34Z</time>
      </trkpt>
      <trkpt lat="49.43655" lon="6.47022">
        <ele>350.8</ele>
        <time>2020-06-26T17:28:35Z</time>
      </trkpt>
      <trkpt lat="49.43655" lon="6.47022">
        <ele>350.8</ele>
        <time>2020-06-26T17:28:36Z</time>
      </trkpt>
      <trkpt lat="49.43655" lon="6.47022">
        <ele>350.8</ele>
        <time>2020-06-26T17:28:37Z</time>
      </trkpt>
      <trkpt lat="49.43655" lon="6.47023">
        <ele>350.8</ele>
        <time>2020-06-26T17:28:38Z</time>
      </trkpt>
      <trkpt lat="49.43655" lon="6.47023">
        <ele>350.8</ele>
        <time>2020-06-26T17:28:39Z</time>
      </trkpt>
      <trkpt lat="49.43654" lon="6.47021">
        <ele>350.7</ele>
        <time>2020-06-26T17:28:40Z</time>
      </trkpt>
      <trkpt lat="49.43652" lon="6.47019">
        <ele>350.7</ele>
        <time>2020-06-26T17:28:41Z</time>
      </trkpt>
      <trkpt lat="49.43651" lon="6.47018">
        <ele>350.6</ele>
        <time>2020-06-26T17:28:42Z</time>
      </trkpt>
      <trkpt lat="49.4365" lon="6.47016">
        <ele>350.6</ele>
        <time>2020-06-26T17:28:43Z</time>
      </trkpt>
      <trkpt lat="49.43649" lon="6.47014">
        <ele>350.5</ele>
        <time>2020-06-26T17:28:48Z</time>
      </trkpt>
      <trkpt lat="49.43648" lon="6.47013">
        <ele>350.5</ele>
        <time>2020-06-26T17:28:49Z</time>
      </trkpt>
      <trkpt lat="49.43644" lon="6.47008">
        <ele>350.3</ele>
        <time>2020-06-26T17:28:50Z</time>
      </trkpt>
      <trkpt lat="49.43641" lon="6.47004">
        <ele>350.2</ele>
        <time>2020-06-26T17:28:51Z</time>
      </trkpt>
      <trkpt lat="49.43637" lon="6.46999">
        <ele>350</ele>
        <time>2020-06-26T17:28:52Z</time>
      </trkpt>
      <trkpt lat="49.43634" lon="6.46993">
        <ele>349.9</ele>
        <time>2020-06-26T17:28:53Z</time>
      </trkpt>
      <trkpt lat="49.43633" lon="6.46988">
        <ele>349.7</ele>
        <time>2020-06-26T17:28:54Z</time>
      </trkpt>
      <trkpt lat="49.43631" lon="6.46983">
        <ele>349.6</ele>
        <time>2020-06-26T17:28:55Z</time>
      </trkpt>
      <trkpt lat="49.43631" lon="6.46978">
        <ele>349.5</ele>
        <time>2020-06-26T17:28:56Z</time>
      </trkpt>
      <trkpt lat="49.43631" lon="6.46976">
        <ele>349.5</ele>
        <time>2020-06-26T17:28:57Z</time>
      </trkpt>
      <trkpt lat="49.4363" lon="6.46973">
        <ele>349.4</ele>
        <time>2020-06-26T17:28:58Z</time>
      </trkpt>
      <trkpt lat="49.4363" lon="6.46972">
        <ele>349.4</ele>
        <time>2020-06-26T17:28:59Z</time>
      </trkpt>
      <trkpt lat="49.43628" lon="6.4697">
        <ele>349.3</ele>
        <time>2020-06-26T17:29:00Z</time>
      </trkpt>
      <trkpt lat="49.43627" lon="6.46968">
        <ele>349.2</ele>
        <time>2020-06-26T17:29:01Z</time>
      </trkpt>
      <trkpt lat="49.43625" lon="6.46963">
        <ele>349.1</ele>
        <time>2020-06-26T17:29:02Z</time>
      </trkpt>
      <trkpt lat="49.43624" lon="6.4696">
        <ele>349</ele>
        <time>2020-06-26T17:29:03Z</time>
      </trkpt>
      <trkpt lat="49.43622" lon="6.46956">
        <ele>348.9</ele>
        <time>2020-06-26T17:29:04Z</time>
      </trkpt>
      <trkpt lat="49.43621" lon="6.46952">
        <ele>348.8</ele>
        <time>2020-06-26T17:29:05Z</time>
      </trkpt>
      <trkpt lat="49.43619" lon="6.46947">
        <ele>348.7</ele>
        <time>2020-06-26T17:29:06Z</time>
      </trkpt>
      <trkpt lat="49.4362" lon="6.46941">
        <ele>348.5</ele>
        <time>2020-06-26T17:29:07Z</time>
      </trkpt>
      <trkpt lat="49.43621" lon="6.46939">
        <ele>348.5</ele>
        <time>2020-06-26T17:29:08Z</time>
      </trkpt>
      <trkpt lat="49.43625" lon="6.46938">
        <ele>348.3</ele>
        <time>2020-06-26T17:29:09Z</time>
      </trkpt>
      <trkpt lat="49.43629" lon="6.46937">
        <ele>348.2</ele>
        <time>2020-06-26T17:29:10Z</time>
      </trkpt>
      <trkpt lat="49.43633" lon="6.46936">
        <ele>348</ele>
        <time>2020-06-26T17:29:11Z</time>
      </trkpt>
      <trkpt lat="49.43638" lon="6.46936">
        <ele>347.9</ele>
        <time>2020-06-26T17:29:12Z</time>
      </trkpt>
      <trkpt lat="49.43641" lon="6.46935">
        <ele>347.7</ele>
        <time>2020-06-26T17:29:13Z</time>
      </trkpt>
      <trkpt lat="49.43642" lon="6.46935">
        <ele>347.7</ele>
        <time>2020-06-26T17:29:14Z</time>
      </trkpt>
      <trkpt lat="49.43643" lon="6.46934">
        <ele>347.7</ele>
        <time>2020-06-26T17:29:15Z</time>
      </trkpt>
      <trkpt lat="49.43643" lon="6.46935">
        <ele>347.6</ele>
        <time>2020-06-26T17:29:16Z</time>
      </trkpt>
      <trkpt lat="49.43643" lon="6.46935">
        <ele>347.6</ele>
        <time>2020-06-26T17:29:17Z</time>
      </trkpt>
      <trkpt lat="49.43643" lon="6.46935">
        <ele>347.6</ele>
        <time>2020-06-26T17:29:18Z</time>
      </trkpt>
      <trkpt lat="49.43643" lon="6.46935">
        <ele>347.6</ele>
        <time>2020-06-26T17:29:19Z</time>
      </trkpt>
      <trkpt lat="49.43643" lon="6.46935">
        <ele>347.6</ele>
        <time>2020-06-26T17:29:20Z</time>
      </trkpt>
      <trkpt lat="49.43643" lon="6.46935">
        <ele>347.6</ele>
        <time>2020-06-26T17:29:21Z</time>
      </trkpt>
      <trkpt lat="49.43643" lon="6.46935">
        <ele>347.6</ele>
        <time>2020-06-26T17:29:22Z</time>
      </trkpt>
      <trkpt lat="49.43643" lon="6.46936">
        <ele>347.6</ele>
        <time>2020-06-26T17:29:23Z</time>
      </trkpt>
      <trkpt lat="49.43644" lon="6.46935">
        <ele>347.6</ele>
        <time>2020-06-26T17:29:24Z</time>
      </trkpt>
      <trkpt lat="49.43644" lon="6.46936">
        <ele>347.5</ele>
        <time>2020-06-26T17:29:25Z</time>
      </trkpt>
      <trkpt lat="49.43644" lon="6.46936">
        <ele>347.5</ele>
        <time>2020-06-26T17:29:26Z</time>
      </trkpt>
      <trkpt lat="49.43649" lon="6.46931">
        <ele>347.3</ele>
        <time>2020-06-26T17:37:32Z</time>
      </trkpt>
      <trkpt lat="49.4365" lon="6.46929">
        <ele>347.2</ele>
        <time>2020-06-26T17:37:33Z</time>
      </trkpt>
      <trkpt lat="49.43653" lon="6.46925">
        <ele>347.1</ele>
        <time>2020-06-26T17:37:34Z</time>
      </trkpt>
      <trkpt lat="49.43654" lon="6.46924">
        <ele>347</ele>
        <time>2020-06-26T17:37:35Z</time>
      </trkpt>
      <trkpt lat="49.43658" lon="6.4692">
        <ele>346.9</ele>
        <time>2020-06-26T17:37:36Z</time>
      </trkpt>
      <trkpt lat="49.4366" lon="6.46919">
        <ele>346.8</ele>
        <time>2020-06-26T17:37:37Z</time>
      </trkpt>
      <trkpt lat="49.43663" lon="6.46917">
        <ele>346.7</ele>
        <time>2020-06-26T17:37:38Z</time>
      </trkpt>
      <trkpt lat="49.43666" lon="6.46914">
        <ele>346.5</ele>
        <time>2020-06-26T17:37:39Z</time>
      </trkpt>
      <trkpt lat="49.43669" lon="6.46912">
        <ele>346.4</ele>
        <time>2020-06-26T17:37:40Z</time>
      </trkpt>
      <trkpt lat="49.43672" lon="6.4691">
        <ele>346.3</ele>
        <time>2020-06-26T17:37:41Z</time>
      </trkpt>
      <trkpt lat="49.43675" lon="6.46909">
        <ele>346.2</ele>
        <time>2020-06-26T17:37:42Z</time>
      </trkpt>
      <trkpt lat="49.43678" lon="6.46907">
        <ele>346</ele>
        <time>2020-06-26T17:37:43Z</time>
      </trkpt>
      <trkpt lat="49.43681" lon="6.46906">
        <ele>345.9</ele>
        <time>2020-06-26T17:37:44Z</time>
      </trkpt>
      <trkpt lat="49.43684" lon="6.46907">
        <ele>345.8</ele>
        <time>2020-06-26T17:37:45Z</time>
      </trkpt>
      <trkpt lat="49.43688" lon="6.46907">
        <ele>345.7</ele>
        <time>2020-06-26T17:37:46Z</time>
      </trkpt>
      <trkpt lat="49.4369" lon="6.46906">
        <ele>345.6</ele>
        <time>2020-06-26T17:37:47Z</time>
      </trkpt>
      <trkpt lat="49.43691" lon="6.46908">
        <ele>345.6</ele>
        <time>2020-06-26T17:37:48Z</time>
      </trkpt>
      <trkpt lat="49.4369" lon="6.4691">
        <ele>345.5</ele>
        <time>2020-06-26T17:37:49Z</time>
      </trkpt>
      <trkpt lat="49.4369" lon="6.46913">
        <ele>345.4</ele>
        <time>2020-06-26T17:37:50Z</time>
      </trkpt>
      <trkpt lat="49.43689" lon="6.46915">
        <ele>345.4</ele>
        <time>2020-06-26T17:37:51Z</time>
      </trkpt>
      <trkpt lat="49.43689" lon="6.46917">
        <ele>345.5</ele>
        <time>2020-06-26T17:37:52Z</time>
      </trkpt>
      <trkpt lat="49.43688" lon="6.46922">
        <ele>345.7</ele>
        <time>2020-06-26T17:37:53Z</time>
      </trkpt>
      <trkpt lat="49.43688" lon="6.46924">
        <ele>345.8</ele>
        <time>2020-06-26T17:37:54Z</time>
      </trkpt>
      <trkpt lat="49.43687" lon="6.46928">
        <ele>346</ele>
        <time>2020-06-26T17:37:55Z</time>
      </trkpt>
      <trkpt lat="49.43687" lon="6.46933">
        <ele>346.3</ele>
        <time>2020-06-26T17:37:56Z</time>
      </trkpt>
      <trkpt lat="49.43687" lon="6.46939">
        <ele>346.6</ele>
        <time>2020-06-26T17:37:57Z</time>
      </trkpt>
      <trkpt lat="49.43687" lon="6.4694">
        <ele>346.6</ele>
        <time>2020-06-26T17:37:58Z</time>
      </trkpt>
      <trkpt lat="49.43686" lon="6.46946">
        <ele>346.9</ele>
        <time>2020-06-26T17:37:59Z</time>
      </trkpt>
      <trkpt lat="49.43685" lon="6.46947">
        <ele>347</ele>
        <time>2020-06-26T17:38:00Z</time>
      </trkpt>
      <trkpt lat="49.43684" lon="6.46953">
        <ele>347.3</ele>
        <time>2020-06-26T17:38:01Z</time>
      </trkpt>
      <trkpt lat="49.43683" lon="6.46955">
        <ele>347.4</ele>
        <time>2020-06-26T17:38:02Z</time>
      </trkpt>
      <trkpt lat="49.43683" lon="6.4696">
        <ele>347.6</ele>
        <time>2020-06-26T17:38:03Z</time>
      </trkpt>
      <trkpt lat="49.43682" lon="6.46965">
        <ele>347.9</ele>
        <time>2020-06-26T17:38:04Z</time>
      </trkpt>
      <trkpt lat="49.43681" lon="6.46969">
        <ele>348.1</ele>
        <time>2020-06-26T17:38:05Z</time>
      </trkpt>
      <trkpt lat="49.4368" lon="6.46973">
        <ele>348.3</ele>
        <time>2020-06-26T17:38:06Z</time>
      </trkpt>
      <trkpt lat="49.43679" lon="6.46977">
        <ele>348.5</ele>
        <time>2020-06-26T17:38:07Z</time>
      </trkpt>
      <trkpt lat="49.43677" lon="6.46983">
        <ele>348.8</ele>
        <time>2020-06-26T17:38:08Z</time>
      </trkpt>
      <trkpt lat="49.43677" lon="6.46985">
        <ele>348.9</ele>
        <time>2020-06-26T17:38:09Z</time>
      </trkpt>
      <trkpt lat="49.43676" lon="6.4699">
        <ele>349.1</ele>
        <time>2020-06-26T17:38:10Z</time>
      </trkpt>
      <trkpt lat="49.43676" lon="6.46992">
        <ele>349.2</ele>
        <time>2020-06-26T17:38:11Z</time>
      </trkpt>
      <trkpt lat="49.43675" lon="6.46997">
        <ele>349.4</ele>
        <time>2020-06-26T17:38:12Z</time>
      </trkpt>
      <trkpt lat="49.43675" lon="6.46999">
        <ele>349.6</ele>
        <time>2020-06-26T17:38:13Z</time>
      </trkpt>
      <trkpt lat="49.43674" lon="6.47004">
        <ele>349.8</ele>
        <time>2020-06-26T17:38:14Z</time>
      </trkpt>
      <trkpt lat="49.43674" lon="6.47006">
        <ele>349.8</ele>
        <time>2020-06-26T17:38:15Z</time>
      </trkpt>
      <trkpt lat="49.43673" lon="6.4701">
        <ele>350.1</ele>
        <time>2020-06-26T17:38:16Z</time>
      </trkpt>
      <trkpt lat="49.43672" lon="6.47012">
        <ele>350.1</ele>
        <time>2020-06-26T17:38:17Z</time>
      </trkpt>
      <trkpt lat="49.4367" lon="6.47016">
        <ele>350.4</ele>
        <time>2020-06-26T17:38:18Z</time>
      </trkpt>
      <trkpt lat="49.43669" lon="6.47018">
        <ele>350.4</ele>
        <time>2020-06-26T17:38:19Z</time>
      </trkpt>
      <trkpt lat="49.43668" lon="6.47023">
        <ele>350.7</ele>
        <time>2020-06-26T17:38:20Z</time>
      </trkpt>
      <trkpt lat="49.43667" lon="6.47024">
        <ele>350.7</ele>
        <time>2020-06-26T17:38:21Z</time>
      </trkpt>
      <trkpt lat="49.43667" lon="6.47029">
        <ele>350.9</ele>
        <time>2020-06-26T17:38:22Z</time>
      </trkpt>
      <trkpt lat="49.43666" lon="6.47033">
        <ele>351.1</ele>
        <time>2020-06-26T17:38:23Z</time>
      </trkpt>
      <trkpt lat="49.43665" lon="6.47038">
        <ele>351.3</ele>
        <time>2020-06-26T17:38:24Z</time>
      </trkpt>
      <trkpt lat="49.43665" lon="6.47039">
        <ele>351.4</ele>
        <time>2020-06-26T17:38:25Z</time>
      </trkpt>
      <trkpt lat="49.43664" lon="6.47043">
        <ele>351.6</ele>
        <time>2020-06-26T17:38:26Z</time>
      </trkpt>
      <trkpt lat="49.43663" lon="6.47045">
        <ele>351.6</ele>
        <time>2020-06-26T17:38:27Z</time>
      </trkpt>
      <trkpt lat="49.43663" lon="6.47049">
        <ele>351.8</ele>
        <time>2020-06-26T17:38:28Z</time>
      </trkpt>
      <trkpt lat="49.43662" lon="6.47051">
        <ele>351.9</ele>
        <time>2020-06-26T17:38:29Z</time>
      </trkpt>
      <trkpt lat="49.43661" lon="6.47057">
        <ele>352.2</ele>
        <time>2020-06-26T17:38:30Z</time>
      </trkpt>
      <trkpt lat="49.4366" lon="6.47058">
        <ele>352.3</ele>
        <time>2020-06-26T17:38:31Z</time>
      </trkpt>
      <trkpt lat="49.4366" lon="6.47062">
        <ele>352.4</ele>
        <time>2020-06-26T17:38:32Z</time>
      </trkpt>
      <trkpt lat="49.43659" lon="6.47067">
        <ele>352.6</ele>
        <time>2020-06-26T17:38:33Z</time>
      </trkpt>
      <trkpt lat="49.43658" lon="6.47072">
        <ele>352.8</ele>
        <time>2020-06-26T17:38:34Z</time>
      </trkpt>
      <trkpt lat="49.43656" lon="6.47077">
        <ele>353</ele>
        <time>2020-06-26T17:38:35Z</time>
      </trkpt>
      <trkpt lat="49.43655" lon="6.47082">
        <ele>353.3</ele>
        <time>2020-06-26T17:38:36Z</time>
      </trkpt>
      <trkpt lat="49.43655" lon="6.47083">
        <ele>353.3</ele>
        <time>2020-06-26T17:38:37Z</time>
      </trkpt>
      <trkpt lat="49.43654" lon="6.47089">
        <ele>353.6</ele>
        <time>2020-06-26T17:38:38Z</time>
      </trkpt>
      <trkpt lat="49.43653" lon="6.4709">
        <ele>353.7</ele>
        <time>2020-06-26T17:38:39Z</time>
      </trkpt>
      <trkpt lat="49.43652" lon="6.47096">
        <ele>353.9</ele>
        <time>2020-06-26T17:38:40Z</time>
      </trkpt>
      <trkpt lat="49.43651" lon="6.47098">
        <ele>354</ele>
        <time>2020-06-26T17:38:41Z</time>
      </trkpt>
      <trkpt lat="49.4365" lon="6.47104">
        <ele>354.3</ele>
        <time>2020-06-26T17:38:42Z</time>
      </trkpt>
      <trkpt lat="49.43649" lon="6.47106">
        <ele>354.4</ele>
        <time>2020-06-26T17:38:43Z</time>
      </trkpt>
      <trkpt lat="49.43649" lon="6.47112">
        <ele>354.6</ele>
        <time>2020-06-26T17:38:44Z</time>
      </trkpt>
      <trkpt lat="49.43648" lon="6.47116">
        <ele>354.8</ele>
        <time>2020-06-26T17:38:45Z</time>
      </trkpt>
      <trkpt lat="49.43647" lon="6.47121">
        <ele>355</ele>
        <time>2020-06-26T17:38:46Z</time>
      </trkpt>
      <trkpt lat="49.43646" lon="6.47123">
        <ele>355.1</ele>
        <time>2020-06-26T17:38:47Z</time>
      </trkpt>
      <trkpt lat="49.43646" lon="6.47127">
        <ele>355.3</ele>
        <time>2020-06-26T17:38:48Z</time>
      </trkpt>
      <trkpt lat="49.43645" lon="6.47132">
        <ele>355.5</ele>
        <time>2020-06-26T17:38:49Z</time>
      </trkpt>
      <trkpt lat="49.43643" lon="6.47136">
        <ele>355.7</ele>
        <time>2020-06-26T17:38:50Z</time>
      </trkpt>
      <trkpt lat="49.43643" lon="6.47141">
        <ele>355.8</ele>
        <time>2020-06-26T17:38:51Z</time>
      </trkpt>
      <trkpt lat="49.43642" lon="6.47145">
        <ele>356</ele>
        <time>2020-06-26T17:38:52Z</time>
      </trkpt>
      <trkpt lat="49.4364" lon="6.47149">
        <ele>356.2</ele>
        <time>2020-06-26T17:38:53Z</time>
      </trkpt>
      <trkpt lat="49.43638" lon="6.47152">
        <ele>356.3</ele>
        <time>2020-06-26T17:38:54Z</time>
      </trkpt>
      <trkpt lat="49.43637" lon="6.47157">
        <ele>356.5</ele>
        <time>2020-06-26T17:38:55Z</time>
      </trkpt>
      <trkpt lat="49.43636" lon="6.47158">
        <ele>356.6</ele>
        <time>2020-06-26T17:38:56Z</time>
      </trkpt>
      <trkpt lat="49.43634" lon="6.47162">
        <ele>356.7</ele>
        <time>2020-06-26T17:38:57Z</time>
      </trkpt>
      <trkpt lat="49.43633" lon="6.47163">
        <ele>356.8</ele>
        <time>2020-06-26T17:38:58Z</time>
      </trkpt>
      <trkpt lat="49.43631" lon="6.47167">
        <ele>357</ele>
        <time>2020-06-26T17:38:59Z</time>
      </trkpt>
      <trkpt lat="49.4363" lon="6.47171">
        <ele>357.1</ele>
        <time>2020-06-26T17:39:00Z</time>
      </trkpt>
      <trkpt lat="49.43628" lon="6.47174">
        <ele>357.2</ele>
        <time>2020-06-26T17:39:01Z</time>
      </trkpt>
      <trkpt lat="49.43627" lon="6.47179">
        <ele>357.4</ele>
        <time>2020-06-26T17:39:02Z</time>
      </trkpt>
      <trkpt lat="49.43626" lon="6.47184">
        <ele>357.5</ele>
        <time>2020-06-26T17:39:03Z</time>
      </trkpt>
      <trkpt lat="49.43624" lon="6.47188">
        <ele>357.7</ele>
        <time>2020-06-26T17:39:04Z</time>
      </trkpt>
      <trkpt lat="49.43623" lon="6.47192">
        <ele>357.8</ele>
        <time>2020-06-26T17:39:05Z</time>
      </trkpt>
      <trkpt lat="49.43621" lon="6.47196">
        <ele>358</ele>
        <time>2020-06-26T17:39:06Z</time>
      </trkpt>
      <trkpt lat="49.4362" lon="6.472">
        <ele>358.1</ele>
        <time>2020-06-26T17:39:07Z</time>
      </trkpt>
      <trkpt lat="49.43619" lon="6.47204">
        <ele>358.3</ele>
        <time>2020-06-26T17:39:08Z</time>
      </trkpt>
      <trkpt lat="49.43617" lon="6.4721">
        <ele>358.4</ele>
        <time>2020-06-26T17:39:09Z</time>
      </trkpt>
      <trkpt lat="49.43617" lon="6.47211">
        <ele>358.5</ele>
        <time>2020-06-26T17:39:10Z</time>
      </trkpt>
      <trkpt lat="49.43615" lon="6.47215">
        <ele>358.6</ele>
        <time>2020-06-26T17:39:11Z</time>
      </trkpt>
      <trkpt lat="49.43613" lon="6.47219">
        <ele>358.8</ele>
        <time>2020-06-26T17:39:12Z</time>
      </trkpt>
      <trkpt lat="49.43611" lon="6.47223">
        <ele>358.9</ele>
        <time>2020-06-26T17:39:13Z</time>
      </trkpt>
      <trkpt lat="49.4361" lon="6.47228">
        <ele>359</ele>
        <time>2020-06-26T17:39:14Z</time>
      </trkpt>
      <trkpt lat="49.43608" lon="6.47232">
        <ele>359.2</ele>
        <time>2020-06-26T17:39:15Z</time>
      </trkpt>
      <trkpt lat="49.43606" lon="6.47237">
        <ele>359.3</ele>
        <time>2020-06-26T17:39:16Z</time>
      </trkpt>
      <trkpt lat="49.43605" lon="6.47242">
        <ele>359.5</ele>
        <time>2020-06-26T17:39:17Z</time>
      </trkpt>
      <trkpt lat="49.43603" lon="6.47246">
        <ele>359.6</ele>
        <time>2020-06-26T17:39:18Z</time>
      </trkpt>
      <trkpt lat="49.43602" lon="6.47252">
        <ele>359.8</ele>
        <time>2020-06-26T17:39:19Z</time>
      </trkpt>
      <trkpt lat="49.43601" lon="6.47254">
        <ele>359.8</ele>
        <time>2020-06-26T17:39:20Z</time>
      </trkpt>
      <trkpt lat="49.436" lon="6.47258">
        <ele>359.9</ele>
        <time>2020-06-26T17:39:21Z</time>
      </trkpt>
      <trkpt lat="49.43598" lon="6.47262">
        <ele>360</ele>
        <time>2020-06-26T17:39:22Z</time>
      </trkpt>
      <trkpt lat="49.43596" lon="6.47268">
        <ele>360.2</ele>
        <time>2020-06-26T17:39:23Z</time>
      </trkpt>
      <trkpt lat="49.43594" lon="6.47272">
        <ele>360.3</ele>
        <time>2020-06-26T17:39:24Z</time>
      </trkpt>
      <trkpt lat="49.43592" lon="6.47277">
        <ele>360.4</ele>
        <time>2020-06-26T17:39:25Z</time>
      </trkpt>
      <trkpt lat="49.4359" lon="6.47279">
        <ele>360.5</ele>
        <time>2020-06-26T17:39:26Z</time>
      </trkpt>
      <trkpt lat="49.43589" lon="6.47283">
        <ele>360.6</ele>
        <time>2020-06-26T17:39:27Z</time>
      </trkpt>
      <trkpt lat="49.43588" lon="6.47288">
        <ele>360.7</ele>
        <time>2020-06-26T17:39:28Z</time>
      </trkpt>
      <trkpt lat="49.43587" lon="6.47292">
        <ele>360.8</ele>
        <time>2020-06-26T17:39:29Z</time>
      </trkpt>
      <trkpt lat="49.43586" lon="6.47297">
        <ele>360.9</ele>
        <time>2020-06-26T17:39:30Z</time>
      </trkpt>
      <trkpt lat="49.43586" lon="6.47303">
        <ele>361</ele>
        <time>2020-06-26T17:39:31Z</time>
      </trkpt>
      <trkpt lat="49.43585" lon="6.47308">
        <ele>361.1</ele>
        <time>2020-06-26T17:39:32Z</time>
      </trkpt>
      <trkpt lat="49.43584" lon="6.47313">
        <ele>361.2</ele>
        <time>2020-06-26T17:39:33Z</time>
      </trkpt>
      <trkpt lat="49.43582" lon="6.47319">
        <ele>361.3</ele>
        <time>2020-06-26T17:39:34Z</time>
      </trkpt>
      <trkpt lat="49.43582" lon="6.47323">
        <ele>361.4</ele>
        <time>2020-06-26T17:39:35Z</time>
      </trkpt>
      <trkpt lat="49.43581" lon="6.47329">
        <ele>361.4</ele>
        <time>2020-06-26T17:39:36Z</time>
      </trkpt>
      <trkpt lat="49.43581" lon="6.47336">
        <ele>361.5</ele>
        <time>2020-06-26T17:39:37Z</time>
      </trkpt>
      <trkpt lat="49.4358" lon="6.47342">
        <ele>361.6</ele>
        <time>2020-06-26T17:39:38Z</time>
      </trkpt>
      <trkpt lat="49.43579" lon="6.47348">
        <ele>361.6</ele>
        <time>2020-06-26T17:39:39Z</time>
      </trkpt>
      <trkpt lat="49.43579" lon="6.47355">
        <ele>361.7</ele>
        <time>2020-06-26T17:39:40Z</time>
      </trkpt>
      <trkpt lat="49.43578" lon="6.47361">
        <ele>361.8</ele>
        <time>2020-06-26T17:39:41Z</time>
      </trkpt>
      <trkpt lat="49.43577" lon="6.47367">
        <ele>361.8</ele>
        <time>2020-06-26T17:39:42Z</time>
      </trkpt>
      <trkpt lat="49.43576" lon="6.47372">
        <ele>361.8</ele>
        <time>2020-06-26T17:39:43Z</time>
      </trkpt>
      <trkpt lat="49.43576" lon="6.47378">
        <ele>361.8</ele>
        <time>2020-06-26T17:39:44Z</time>
      </trkpt>
      <trkpt lat="49.43576" lon="6.47384">
        <ele>361.9</ele>
        <time>2020-06-26T17:39:45Z</time>
      </trkpt>
      <trkpt lat="49.43576" lon="6.47391">
        <ele>361.9</ele>
        <time>2020-06-26T17:39:46Z</time>
      </trkpt>
      <trkpt lat="49.43576" lon="6.47396">
        <ele>361.9</ele>
        <time>2020-06-26T17:39:47Z</time>
      </trkpt>
      <trkpt lat="49.43575" lon="6.47402">
        <ele>361.9</ele>
        <time>2020-06-26T17:39:48Z</time>
      </trkpt>
      <trkpt lat="49.43575" lon="6.47408">
        <ele>361.9</ele>
        <time>2020-06-26T17:39:49Z</time>
      </trkpt>
      <trkpt lat="49.43576" lon="6.47413">
        <ele>361.9</ele>
        <time>2020-06-26T17:39:50Z</time>
      </trkpt>
      <trkpt lat="49.43575" lon="6.47421">
        <ele>361.9</ele>
        <time>2020-06-26T17:39:51Z</time>
      </trkpt>
      <trkpt lat="49.43575" lon="6.47428">
        <ele>361.9</ele>
        <time>2020-06-26T17:39:52Z</time>
      </trkpt>
      <trkpt lat="49.43575" lon="6.47434">
        <ele>361.9</ele>
        <time>2020-06-26T17:39:53Z</time>
      </trkpt>
      <trkpt lat="49.43576" lon="6.47441">
        <ele>361.8</ele>
        <time>2020-06-26T17:39:54Z</time>
      </trkpt>
      <trkpt lat="49.43577" lon="6.47448">
        <ele>361.8</ele>
        <time>2020-06-26T17:39:55Z</time>
      </trkpt>
      <trkpt lat="49.43577" lon="6.47455">
        <ele>361.8</ele>
        <time>2020-06-26T17:39:56Z</time>
      </trkpt>
      <trkpt lat="49.43578" lon="6.47462">
        <ele>361.9</ele>
        <time>2020-06-26T17:39:57Z</time>
      </trkpt>
      <trkpt lat="49.43579" lon="6.47469">
        <ele>361.9</ele>
        <time>2020-06-26T17:39:58Z</time>
      </trkpt>
      <trkpt lat="49.43579" lon="6.47475">
        <ele>361.9</ele>
        <time>2020-06-26T17:39:59Z</time>
      </trkpt>
      <trkpt lat="49.43581" lon="6.47482">
        <ele>361.9</ele>
        <time>2020-06-26T17:40:00Z</time>
      </trkpt>
      <trkpt lat="49.43582" lon="6.47489">
        <ele>361.8</ele>
        <time>2020-06-26T17:40:01Z</time>
      </trkpt>
      <trkpt lat="49.43583" lon="6.47496">
        <ele>361.8</ele>
        <time>2020-06-26T17:40:02Z</time>
      </trkpt>
      <trkpt lat="49.43585" lon="6.47503">
        <ele>361.7</ele>
        <time>2020-06-26T17:40:03Z</time>
      </trkpt>
      <trkpt lat="49.43585" lon="6.4751">
        <ele>361.7</ele>
        <time>2020-06-26T17:40:04Z</time>
      </trkpt>
      <trkpt lat="49.43587" lon="6.47516">
        <ele>361.6</ele>
        <time>2020-06-26T17:40:05Z</time>
      </trkpt>
      <trkpt lat="49.43589" lon="6.47524">
        <ele>361.5</ele>
        <time>2020-06-26T17:40:06Z</time>
      </trkpt>
      <trkpt lat="49.4359" lon="6.47531">
        <ele>361.5</ele>
        <time>2020-06-26T17:40:07Z</time>
      </trkpt>
      <trkpt lat="49.43592" lon="6.47538">
        <ele>361.4</ele>
        <time>2020-06-26T17:40:08Z</time>
      </trkpt>
      <trkpt lat="49.43594" lon="6.47543">
        <ele>361.3</ele>
        <time>2020-06-26T17:40:09Z</time>
      </trkpt>
      <trkpt lat="49.43595" lon="6.4755">
        <ele>361.2</ele>
        <time>2020-06-26T17:40:10Z</time>
      </trkpt>
      <trkpt lat="49.43597" lon="6.47557">
        <ele>361.1</ele>
        <time>2020-06-26T17:40:11Z</time>
      </trkpt>
      <trkpt lat="49.43599" lon="6.47564">
        <ele>361</ele>
        <time>2020-06-26T17:40:12Z</time>
      </trkpt>
      <trkpt lat="49.43602" lon="6.4757">
        <ele>360.8</ele>
        <time>2020-06-26T17:40:13Z</time>
      </trkpt>
      <trkpt lat="49.43604" lon="6.47577">
        <ele>360.6</ele>
        <time>2020-06-26T17:40:14Z</time>
      </trkpt>
      <trkpt lat="49.43606" lon="6.47585">
        <ele>360.4</ele>
        <time>2020-06-26T17:40:15Z</time>
      </trkpt>
      <trkpt lat="49.43608" lon="6.47594">
        <ele>360.2</ele>
        <time>2020-06-26T17:40:16Z</time>
      </trkpt>
      <trkpt lat="49.4361" lon="6.47602">
        <ele>359.9</ele>
        <time>2020-06-26T17:40:17Z</time>
      </trkpt>
      <trkpt lat="49.43611" lon="6.47611">
        <ele>359.7</ele>
        <time>2020-06-26T17:40:18Z</time>
      </trkpt>
      <trkpt lat="49.43613" lon="6.47619">
        <ele>359.5</ele>
        <time>2020-06-26T17:40:19Z</time>
      </trkpt>
      <trkpt lat="49.43615" lon="6.47626">
        <ele>359.2</ele>
        <time>2020-06-26T17:40:20Z</time>
      </trkpt>
      <trkpt lat="49.43617" lon="6.47635">
        <ele>359</ele>
        <time>2020-06-26T17:40:21Z</time>
      </trkpt>
      <trkpt lat="49.43618" lon="6.47644">
        <ele>358.7</ele>
        <time>2020-06-26T17:40:22Z</time>
      </trkpt>
      <trkpt lat="49.43619" lon="6.47654">
        <ele>358.4</ele>
        <time>2020-06-26T17:40:23Z</time>
      </trkpt>
      <trkpt lat="49.4362" lon="6.47663">
        <ele>358.1</ele>
        <time>2020-06-26T17:40:24Z</time>
      </trkpt>
      <trkpt lat="49.43622" lon="6.47674">
        <ele>357.8</ele>
        <time>2020-06-26T17:40:25Z</time>
      </trkpt>
      <trkpt lat="49.43622" lon="6.47683">
        <ele>357.5</ele>
        <time>2020-06-26T17:40:26Z</time>
      </trkpt>
      <trkpt lat="49.43623" lon="6.47693">
        <ele>357.2</ele>
        <time>2020-06-26T17:40:27Z</time>
      </trkpt>
      <trkpt lat="49.43624" lon="6.47704">
        <ele>357</ele>
        <time>2020-06-26T17:40:28Z</time>
      </trkpt>
      <trkpt lat="49.43624" lon="6.47714">
        <ele>356.7</ele>
        <time>2020-06-26T17:40:29Z</time>
      </trkpt>
      <trkpt lat="49.43625" lon="6.47725">
        <ele>356.3</ele>
        <time>2020-06-26T17:40:30Z</time>
      </trkpt>
      <trkpt lat="49.43625" lon="6.47737">
        <ele>355.9</ele>
        <time>2020-06-26T17:40:31Z</time>
      </trkpt>
      <trkpt lat="49.43626" lon="6.47749">
        <ele>355.6</ele>
        <time>2020-06-26T17:40:32Z</time>
      </trkpt>
      <trkpt lat="49.43627" lon="6.4776">
        <ele>355.2</ele>
        <time>2020-06-26T17:40:33Z</time>
      </trkpt>
      <trkpt lat="49.43628" lon="6.47772">
        <ele>354.9</ele>
        <time>2020-06-26T17:40:34Z</time>
      </trkpt>
      <trkpt lat="49.43629" lon="6.47783">
        <ele>354.6</ele>
        <time>2020-06-26T17:40:35Z</time>
      </trkpt>
      <trkpt lat="49.43629" lon="6.47794">
        <ele>354.3</ele>
        <time>2020-06-26T17:40:36Z</time>
      </trkpt>
      <trkpt lat="49.4363" lon="6.47806">
        <ele>354.1</ele>
        <time>2020-06-26T17:40:37Z</time>
      </trkpt>
      <trkpt lat="49.4363" lon="6.47817">
        <ele>354</ele>
        <time>2020-06-26T17:40:38Z</time>
      </trkpt>
      <trkpt lat="49.4363" lon="6.47828">
        <ele>353.8</ele>
        <time>2020-06-26T17:40:39Z</time>
      </trkpt>
      <trkpt lat="49.43629" lon="6.4784">
        <ele>353.6</ele>
        <time>2020-06-26T17:40:40Z</time>
      </trkpt>
      <trkpt lat="49.43628" lon="6.47852">
        <ele>353.5</ele>
        <time>2020-06-26T17:40:41Z</time>
      </trkpt>
      <trkpt lat="49.43627" lon="6.47864">
        <ele>353.4</ele>
        <time>2020-06-26T17:40:42Z</time>
      </trkpt>
      <trkpt lat="49.43625" lon="6.47876">
        <ele>353.3</ele>
        <time>2020-06-26T17:40:43Z</time>
      </trkpt>
      <trkpt lat="49.43623" lon="6.47887">
        <ele>353.2</ele>
        <time>2020-06-26T17:40:44Z</time>
      </trkpt>
      <trkpt lat="49.43621" lon="6.47899">
        <ele>353.2</ele>
        <time>2020-06-26T17:40:45Z</time>
      </trkpt>
      <trkpt lat="49.43619" lon="6.47911">
        <ele>353.2</ele>
        <time>2020-06-26T17:40:46Z</time>
      </trkpt>
      <trkpt lat="49.43617" lon="6.47922">
        <ele>353.2</ele>
        <time>2020-06-26T17:40:47Z</time>
      </trkpt>
      <trkpt lat="49.43615" lon="6.47934">
        <ele>353.2</ele>
        <time>2020-06-26T17:40:48Z</time>
      </trkpt>
      <trkpt lat="49.43613" lon="6.47945">
        <ele>353.2</ele>
        <time>2020-06-26T17:40:49Z</time>
      </trkpt>
      <trkpt lat="49.4361" lon="6.47956">
        <ele>353.2</ele>
        <time>2020-06-26T17:40:50Z</time>
      </trkpt>
      <trkpt lat="49.43608" lon="6.47967">
        <ele>353.2</ele>
        <time>2020-06-26T17:40:51Z</time>
      </trkpt>
      <trkpt lat="49.43607" lon="6.47978">
        <ele>353.2</ele>
        <time>2020-06-26T17:40:52Z</time>
      </trkpt>
      <trkpt lat="49.43605" lon="6.47988">
        <ele>353.3</ele>
        <time>2020-06-26T17:40:53Z</time>
      </trkpt>
      <trkpt lat="49.43604" lon="6.47998">
        <ele>353.3</ele>
        <time>2020-06-26T17:40:54Z</time>
      </trkpt>
      <trkpt lat="49.43602" lon="6.48008">
        <ele>353.4</ele>
        <time>2020-06-26T17:40:55Z</time>
      </trkpt>
      <trkpt lat="49.43601" lon="6.48018">
        <ele>353.4</ele>
        <time>2020-06-26T17:40:56Z</time>
      </trkpt>
      <trkpt lat="49.436" lon="6.48028">
        <ele>353.4</ele>
        <time>2020-06-26T17:40:57Z</time>
      </trkpt>
      <trkpt lat="49.43599" lon="6.48038">
        <ele>353.4</ele>
        <time>2020-06-26T17:40:58Z</time>
      </trkpt>
      <trkpt lat="49.43598" lon="6.48048">
        <ele>353.5</ele>
        <time>2020-06-26T17:40:59Z</time>
      </trkpt>
      <trkpt lat="49.43598" lon="6.48057">
        <ele>353.5</ele>
        <time>2020-06-26T17:41:00Z</time>
      </trkpt>
      <trkpt lat="49.43597" lon="6.48066">
        <ele>353.5</ele>
        <time>2020-06-26T17:41:01Z</time>
      </trkpt>
      <trkpt lat="49.43597" lon="6.48076">
        <ele>353.5</ele>
        <time>2020-06-26T17:41:02Z</time>
      </trkpt>
      <trkpt lat="49.43597" lon="6.48085">
        <ele>353.6</ele>
        <time>2020-06-26T17:41:03Z</time>
      </trkpt>
      <trkpt lat="49.43598" lon="6.48094">
        <ele>353.6</ele>
        <time>2020-06-26T17:41:04Z</time>
      </trkpt>
      <trkpt lat="49.43598" lon="6.48103">
        <ele>353.6</ele>
        <time>2020-06-26T17:41:05Z</time>
      </trkpt>
      <trkpt lat="49.43599" lon="6.48112">
        <ele>353.6</ele>
        <time>2020-06-26T17:41:06Z</time>
      </trkpt>
      <trkpt lat="49.436" lon="6.48121">
        <ele>353.6</ele>
        <time>2020-06-26T17:41:07Z</time>
      </trkpt>
      <trkpt lat="49.43601" lon="6.4813">
        <ele>353.6</ele>
        <time>2020-06-26T17:41:08Z</time>
      </trkpt>
      <trkpt lat="49.43602" lon="6.48139">
        <ele>353.6</ele>
        <time>2020-06-26T17:41:09Z</time>
      </trkpt>
      <trkpt lat="49.43603" lon="6.48149">
        <ele>353.6</ele>
        <time>2020-06-26T17:41:10Z</time>
      </trkpt>
      <trkpt lat="49.43605" lon="6.48157">
        <ele>353.6</ele>
        <time>2020-06-26T17:41:11Z</time>
      </trkpt>
      <trkpt lat="49.43606" lon="6.48166">
        <ele>353.6</ele>
        <time>2020-06-26T17:41:12Z</time>
      </trkpt>
      <trkpt lat="49.43608" lon="6.48175">
        <ele>353.5</ele>
        <time>2020-06-26T17:41:13Z</time>
      </trkpt>
      <trkpt lat="49.4361" lon="6.48184">
        <ele>353.5</ele>
        <time>2020-06-26T17:41:14Z</time>
      </trkpt>
      <trkpt lat="49.43612" lon="6.48193">
        <ele>353.4</ele>
        <time>2020-06-26T17:41:15Z</time>
      </trkpt>
      <trkpt lat="49.43614" lon="6.48202">
        <ele>353.3</ele>
        <time>2020-06-26T17:41:16Z</time>
      </trkpt>
      <trkpt lat="49.43616" lon="6.48211">
        <ele>353.2</ele>
        <time>2020-06-26T17:41:17Z</time>
      </trkpt>
      <trkpt lat="49.43618" lon="6.48219">
        <ele>353.1</ele>
        <time>2020-06-26T17:41:18Z</time>
      </trkpt>
      <trkpt lat="49.43621" lon="6.48228">
        <ele>353</ele>
        <time>2020-06-26T17:41:19Z</time>
      </trkpt>
      <trkpt lat="49.43625" lon="6.48236">
        <ele>352.9</ele>
        <time>2020-06-26T17:41:20Z</time>
      </trkpt>
      <trkpt lat="49.43628" lon="6.48245">
        <ele>352.9</ele>
        <time>2020-06-26T17:41:21Z</time>
      </trkpt>
      <trkpt lat="49.43631" lon="6.48253">
        <ele>352.9</ele>
        <time>2020-06-26T17:41:22Z</time>
      </trkpt>
      <trkpt lat="49.43635" lon="6.48262">
        <ele>352.8</ele>
        <time>2020-06-26T17:41:23Z</time>
      </trkpt>
      <trkpt lat="49.43638" lon="6.4827">
        <ele>352.8</ele>
        <time>2020-06-26T17:41:24Z</time>
      </trkpt>
      <trkpt lat="49.43642" lon="6.48279">
        <ele>352.7</ele>
        <time>2020-06-26T17:41:25Z</time>
      </trkpt>
      <trkpt lat="49.43645" lon="6.48287">
        <ele>352.7</ele>
        <time>2020-06-26T17:41:26Z</time>
      </trkpt>
      <trkpt lat="49.43649" lon="6.48295">
        <ele>352.7</ele>
        <time>2020-06-26T17:41:27Z</time>
      </trkpt>
      <trkpt lat="49.43652" lon="6.48303">
        <ele>352.8</ele>
        <time>2020-06-26T17:41:28Z</time>
      </trkpt>
      <trkpt lat="49.43656" lon="6.48311">
        <ele>352.8</ele>
        <time>2020-06-26T17:41:29Z</time>
      </trkpt>
      <trkpt lat="49.4366" lon="6.48319">
        <ele>352.9</ele>
        <time>2020-06-26T17:41:30Z</time>
      </trkpt>
      <trkpt lat="49.43663" lon="6.48327">
        <ele>353</ele>
        <time>2020-06-26T17:41:31Z</time>
      </trkpt>
      <trkpt lat="49.43666" lon="6.48334">
        <ele>353.1</ele>
        <time>2020-06-26T17:41:32Z</time>
      </trkpt>
      <trkpt lat="49.4367" lon="6.48342">
        <ele>353.1</ele>
        <time>2020-06-26T17:41:33Z</time>
      </trkpt>
      <trkpt lat="49.43673" lon="6.4835">
        <ele>353.2</ele>
        <time>2020-06-26T17:41:34Z</time>
      </trkpt>
      <trkpt lat="49.43676" lon="6.48357">
        <ele>353.4</ele>
        <time>2020-06-26T17:41:35Z</time>
      </trkpt>
      <trkpt lat="49.43679" lon="6.48365">
        <ele>353.6</ele>
        <time>2020-06-26T17:41:36Z</time>
      </trkpt>
      <trkpt lat="49.43682" lon="6.48372">
        <ele>353.8</ele>
        <time>2020-06-26T17:41:37Z</time>
      </trkpt>
      <trkpt lat="49.43685" lon="6.4838">
        <ele>354</ele>
        <time>2020-06-26T17:41:38Z</time>
      </trkpt>
      <trkpt lat="49.43687" lon="6.48388">
        <ele>354.2</ele>
        <time>2020-06-26T17:41:39Z</time>
      </trkpt>
      <trkpt lat="49.43689" lon="6.48395">
        <ele>354.4</ele>
        <time>2020-06-26T17:41:40Z</time>
      </trkpt>
      <trkpt lat="49.43691" lon="6.48403">
        <ele>354.6</ele>
        <time>2020-06-26T17:41:41Z</time>
      </trkpt>
      <trkpt lat="49.43694" lon="6.4841">
        <ele>354.9</ele>
        <time>2020-06-26T17:41:42Z</time>
      </trkpt>
      <trkpt lat="49.43696" lon="6.48417">
        <ele>355.1</ele>
        <time>2020-06-26T17:41:43Z</time>
      </trkpt>
      <trkpt lat="49.43698" lon="6.48425">
        <ele>355.3</ele>
        <time>2020-06-26T17:41:44Z</time>
      </trkpt>
      <trkpt lat="49.437" lon="6.48431">
        <ele>355.6</ele>
        <time>2020-06-26T17:41:45Z</time>
      </trkpt>
      <trkpt lat="49.43702" lon="6.48438">
        <ele>355.8</ele>
        <time>2020-06-26T17:41:46Z</time>
      </trkpt>
      <trkpt lat="49.43703" lon="6.48445">
        <ele>356.1</ele>
        <time>2020-06-26T17:41:47Z</time>
      </trkpt>
      <trkpt lat="49.43705" lon="6.48452">
        <ele>356.3</ele>
        <time>2020-06-26T17:41:48Z</time>
      </trkpt>
      <trkpt lat="49.43707" lon="6.48458">
        <ele>356.6</ele>
        <time>2020-06-26T17:41:49Z</time>
      </trkpt>
      <trkpt lat="49.43708" lon="6.48464">
        <ele>356.8</ele>
        <time>2020-06-26T17:41:50Z</time>
      </trkpt>
      <trkpt lat="49.43709" lon="6.4847">
        <ele>357</ele>
        <time>2020-06-26T17:41:51Z</time>
      </trkpt>
      <trkpt lat="49.4371" lon="6.48475">
        <ele>357.2</ele>
        <time>2020-06-26T17:41:52Z</time>
      </trkpt>
      <trkpt lat="49.43711" lon="6.48481">
        <ele>357.4</ele>
        <time>2020-06-26T17:41:53Z</time>
      </trkpt>
      <trkpt lat="49.43712" lon="6.48486">
        <ele>357.7</ele>
        <time>2020-06-26T17:41:54Z</time>
      </trkpt>
      <trkpt lat="49.43713" lon="6.48491">
        <ele>357.9</ele>
        <time>2020-06-26T17:41:55Z</time>
      </trkpt>
      <trkpt lat="49.43714" lon="6.48497">
        <ele>358.1</ele>
        <time>2020-06-26T17:41:56Z</time>
      </trkpt>
      <trkpt lat="49.43715" lon="6.48502">
        <ele>358.3</ele>
        <time>2020-06-26T17:41:57Z</time>
      </trkpt>
      <trkpt lat="49.43716" lon="6.48508">
        <ele>358.6</ele>
        <time>2020-06-26T17:41:58Z</time>
      </trkpt>
      <trkpt lat="49.43717" lon="6.48514">
        <ele>358.8</ele>
        <time>2020-06-26T17:41:59Z</time>
      </trkpt>
      <trkpt lat="49.43718" lon="6.48519">
        <ele>359.1</ele>
        <time>2020-06-26T17:42:00Z</time>
      </trkpt>
      <trkpt lat="49.43719" lon="6.48525">
        <ele>359.3</ele>
        <time>2020-06-26T17:42:01Z</time>
      </trkpt>
      <trkpt lat="49.4372" lon="6.48529">
        <ele>359.5</ele>
        <time>2020-06-26T17:42:02Z</time>
      </trkpt>
      <trkpt lat="49.43722" lon="6.48535">
        <ele>359.8</ele>
        <time>2020-06-26T17:42:03Z</time>
      </trkpt>
      <trkpt lat="49.43723" lon="6.4854">
        <ele>360</ele>
        <time>2020-06-26T17:42:04Z</time>
      </trkpt>
      <trkpt lat="49.43724" lon="6.48545">
        <ele>360.2</ele>
        <time>2020-06-26T17:42:05Z</time>
      </trkpt>
      <trkpt lat="49.43725" lon="6.48551">
        <ele>360.4</ele>
        <time>2020-06-26T17:42:06Z</time>
      </trkpt>
      <trkpt lat="49.43725" lon="6.48556">
        <ele>360.6</ele>
        <time>2020-06-26T17:42:07Z</time>
      </trkpt>
      <trkpt lat="49.43726" lon="6.48562">
        <ele>360.8</ele>
        <time>2020-06-26T17:42:08Z</time>
      </trkpt>
      <trkpt lat="49.43727" lon="6.48567">
        <ele>361</ele>
        <time>2020-06-26T17:42:09Z</time>
      </trkpt>
      <trkpt lat="49.43728" lon="6.48573">
        <ele>361.2</ele>
        <time>2020-06-26T17:42:10Z</time>
      </trkpt>
      <trkpt lat="49.43728" lon="6.48579">
        <ele>361.4</ele>
        <time>2020-06-26T17:42:11Z</time>
      </trkpt>
      <trkpt lat="49.43729" lon="6.48586">
        <ele>361.7</ele>
        <time>2020-06-26T17:42:12Z</time>
      </trkpt>
      <trkpt lat="49.4373" lon="6.4859">
        <ele>361.8</ele>
        <time>2020-06-26T17:42:13Z</time>
      </trkpt>
      <trkpt lat="49.4373" lon="6.48595">
        <ele>361.9</ele>
        <time>2020-06-26T17:42:14Z</time>
      </trkpt>
      <trkpt lat="49.43731" lon="6.486">
        <ele>362</ele>
        <time>2020-06-26T17:42:15Z</time>
      </trkpt>
      <trkpt lat="49.43731" lon="6.48606">
        <ele>362.2</ele>
        <time>2020-06-26T17:42:16Z</time>
      </trkpt>
      <trkpt lat="49.43732" lon="6.48612">
        <ele>362.3</ele>
        <time>2020-06-26T17:42:17Z</time>
      </trkpt>
      <trkpt lat="49.43733" lon="6.48618">
        <ele>362.5</ele>
        <time>2020-06-26T17:42:18Z</time>
      </trkpt>
      <trkpt lat="49.43734" lon="6.48625">
        <ele>362.6</ele>
        <time>2020-06-26T17:42:19Z</time>
      </trkpt>
      <trkpt lat="49.43734" lon="6.48631">
        <ele>362.8</ele>
        <time>2020-06-26T17:42:20Z</time>
      </trkpt>
      <trkpt lat="49.43735" lon="6.48636">
        <ele>362.9</ele>
        <time>2020-06-26T17:42:21Z</time>
      </trkpt>
      <trkpt lat="49.43735" lon="6.48642">
        <ele>363.1</ele>
        <time>2020-06-26T17:42:22Z</time>
      </trkpt>
      <trkpt lat="49.43736" lon="6.48647">
        <ele>363.2</ele>
        <time>2020-06-26T17:42:23Z</time>
      </trkpt>
      <trkpt lat="49.43737" lon="6.48654">
        <ele>363.4</ele>
        <time>2020-06-26T17:42:24Z</time>
      </trkpt>
      <trkpt lat="49.43738" lon="6.48659">
        <ele>363.5</ele>
        <time>2020-06-26T17:42:25Z</time>
      </trkpt>
      <trkpt lat="49.43739" lon="6.48663">
        <ele>363.6</ele>
        <time>2020-06-26T17:42:26Z</time>
      </trkpt>
      <trkpt lat="49.43739" lon="6.4867">
        <ele>363.7</ele>
        <time>2020-06-26T17:42:27Z</time>
      </trkpt>
      <trkpt lat="49.4374" lon="6.48675">
        <ele>363.8</ele>
        <time>2020-06-26T17:42:28Z</time>
      </trkpt>
      <trkpt lat="49.43741" lon="6.4868">
        <ele>363.9</ele>
        <time>2020-06-26T17:42:29Z</time>
      </trkpt>
      <trkpt lat="49.43742" lon="6.48686">
        <ele>364</ele>
        <time>2020-06-26T17:42:30Z</time>
      </trkpt>
      <trkpt lat="49.43742" lon="6.4869">
        <ele>364</ele>
        <time>2020-06-26T17:42:31Z</time>
      </trkpt>
      <trkpt lat="49.43743" lon="6.48695">
        <ele>364.1</ele>
        <time>2020-06-26T17:42:32Z</time>
      </trkpt>
      <trkpt lat="49.43743" lon="6.487">
        <ele>364.1</ele>
        <time>2020-06-26T17:42:33Z</time>
      </trkpt>
      <trkpt lat="49.43744" lon="6.48707">
        <ele>364.2</ele>
        <time>2020-06-26T17:42:34Z</time>
      </trkpt>
      <trkpt lat="49.43745" lon="6.48713">
        <ele>364.3</ele>
        <time>2020-06-26T17:42:35Z</time>
      </trkpt>
      <trkpt lat="49.43746" lon="6.48719">
        <ele>364.3</ele>
        <time>2020-06-26T17:42:36Z</time>
      </trkpt>
      <trkpt lat="49.43747" lon="6.48725">
        <ele>364.3</ele>
        <time>2020-06-26T17:42:37Z</time>
      </trkpt>
      <trkpt lat="49.43748" lon="6.4873">
        <ele>364.4</ele>
        <time>2020-06-26T17:42:38Z</time>
      </trkpt>
      <trkpt lat="49.43749" lon="6.48735">
        <ele>364.4</ele>
        <time>2020-06-26T17:42:39Z</time>
      </trkpt>
      <trkpt lat="49.4375" lon="6.48741">
        <ele>364.4</ele>
        <time>2020-06-26T17:42:40Z</time>
      </trkpt>
      <trkpt lat="49.43751" lon="6.48747">
        <ele>364.4</ele>
        <time>2020-06-26T17:42:41Z</time>
      </trkpt>
      <trkpt lat="49.43752" lon="6.48751">
        <ele>364.4</ele>
        <time>2020-06-26T17:42:42Z</time>
      </trkpt>
      <trkpt lat="49.43752" lon="6.48756">
        <ele>364.4</ele>
        <time>2020-06-26T17:42:43Z</time>
      </trkpt>
      <trkpt lat="49.43753" lon="6.48762">
        <ele>364.3</ele>
        <time>2020-06-26T17:42:44Z</time>
      </trkpt>
      <trkpt lat="49.43755" lon="6.48769">
        <ele>364.3</ele>
        <time>2020-06-26T17:42:45Z</time>
      </trkpt>
      <trkpt lat="49.43756" lon="6.48775">
        <ele>364.2</ele>
        <time>2020-06-26T17:42:46Z</time>
      </trkpt>
      <trkpt lat="49.43757" lon="6.48782">
        <ele>364.1</ele>
        <time>2020-06-26T17:42:47Z</time>
      </trkpt>
      <trkpt lat="49.43759" lon="6.48788">
        <ele>364</ele>
        <time>2020-06-26T17:42:48Z</time>
      </trkpt>
      <trkpt lat="49.4376" lon="6.48796">
        <ele>363.9</ele>
        <time>2020-06-26T17:42:49Z</time>
      </trkpt>
      <trkpt lat="49.43761" lon="6.48803">
        <ele>363.8</ele>
        <time>2020-06-26T17:42:50Z</time>
      </trkpt>
      <trkpt lat="49.43762" lon="6.4881">
        <ele>363.7</ele>
        <time>2020-06-26T17:42:51Z</time>
      </trkpt>
      <trkpt lat="49.43763" lon="6.48818">
        <ele>363.6</ele>
        <time>2020-06-26T17:42:52Z</time>
      </trkpt>
      <trkpt lat="49.43764" lon="6.48825">
        <ele>363.5</ele>
        <time>2020-06-26T17:42:53Z</time>
      </trkpt>
      <trkpt lat="49.43765" lon="6.48832">
        <ele>363.4</ele>
        <time>2020-06-26T17:42:54Z</time>
      </trkpt>
      <trkpt lat="49.43766" lon="6.48839">
        <ele>363.3</ele>
        <time>2020-06-26T17:42:55Z</time>
      </trkpt>
      <trkpt lat="49.43767" lon="6.48845">
        <ele>363.2</ele>
        <time>2020-06-26T17:42:56Z</time>
      </trkpt>
      <trkpt lat="49.43769" lon="6.48853">
        <ele>363</ele>
        <time>2020-06-26T17:42:57Z</time>
      </trkpt>
      <trkpt lat="49.43771" lon="6.48861">
        <ele>362.9</ele>
        <time>2020-06-26T17:42:58Z</time>
      </trkpt>
      <trkpt lat="49.43772" lon="6.4887">
        <ele>362.6</ele>
        <time>2020-06-26T17:42:59Z</time>
      </trkpt>
      <trkpt lat="49.43774" lon="6.48878">
        <ele>362.4</ele>
        <time>2020-06-26T17:43:00Z</time>
      </trkpt>
      <trkpt lat="49.43776" lon="6.48886">
        <ele>362.1</ele>
        <time>2020-06-26T17:43:01Z</time>
      </trkpt>
      <trkpt lat="49.43778" lon="6.48895">
        <ele>361.8</ele>
        <time>2020-06-26T17:43:02Z</time>
      </trkpt>
      <trkpt lat="49.4378" lon="6.48904">
        <ele>361.5</ele>
        <time>2020-06-26T17:43:03Z</time>
      </trkpt>
      <trkpt lat="49.43782" lon="6.48913">
        <ele>361.2</ele>
        <time>2020-06-26T17:43:04Z</time>
      </trkpt>
      <trkpt lat="49.43784" lon="6.48922">
        <ele>360.9</ele>
        <time>2020-06-26T17:43:05Z</time>
      </trkpt>
      <trkpt lat="49.43785" lon="6.4893">
        <ele>360.7</ele>
        <time>2020-06-26T17:43:06Z</time>
      </trkpt>
      <trkpt lat="49.43787" lon="6.48939">
        <ele>360.3</ele>
        <time>2020-06-26T17:43:07Z</time>
      </trkpt>
      <trkpt lat="49.43788" lon="6.48948">
        <ele>360</ele>
        <time>2020-06-26T17:43:08Z</time>
      </trkpt>
      <trkpt lat="49.4379" lon="6.48958">
        <ele>359.7</ele>
        <time>2020-06-26T17:43:09Z</time>
      </trkpt>
      <trkpt lat="49.43792" lon="6.48966">
        <ele>359.3</ele>
        <time>2020-06-26T17:43:10Z</time>
      </trkpt>
      <trkpt lat="49.43793" lon="6.48976">
        <ele>358.9</ele>
        <time>2020-06-26T17:43:11Z</time>
      </trkpt>
      <trkpt lat="49.43795" lon="6.48986">
        <ele>358.6</ele>
        <time>2020-06-26T17:43:12Z</time>
      </trkpt>
      <trkpt lat="49.43797" lon="6.48995">
        <ele>358.2</ele>
        <time>2020-06-26T17:43:13Z</time>
      </trkpt>
      <trkpt lat="49.43799" lon="6.49005">
        <ele>357.8</ele>
        <time>2020-06-26T17:43:14Z</time>
      </trkpt>
      <trkpt lat="49.43802" lon="6.49015">
        <ele>357.3</ele>
        <time>2020-06-26T17:43:15Z</time>
      </trkpt>
      <trkpt lat="49.43804" lon="6.49027">
        <ele>356.7</ele>
        <time>2020-06-26T17:43:16Z</time>
      </trkpt>
      <trkpt lat="49.43807" lon="6.49039">
        <ele>356.2</ele>
        <time>2020-06-26T17:43:17Z</time>
      </trkpt>
      <trkpt lat="49.4381" lon="6.4905">
        <ele>355.6</ele>
        <time>2020-06-26T17:43:18Z</time>
      </trkpt>
      <trkpt lat="49.43813" lon="6.49062">
        <ele>355</ele>
        <time>2020-06-26T17:43:19Z</time>
      </trkpt>
      <trkpt lat="49.43816" lon="6.49074">
        <ele>354.4</ele>
        <time>2020-06-26T17:43:20Z</time>
      </trkpt>
      <trkpt lat="49.43819" lon="6.49086">
        <ele>353.7</ele>
        <time>2020-06-26T17:43:21Z</time>
      </trkpt>
      <trkpt lat="49.43824" lon="6.49099">
        <ele>353</ele>
        <time>2020-06-26T17:43:22Z</time>
      </trkpt>
      <trkpt lat="49.43829" lon="6.49111">
        <ele>352.3</ele>
        <time>2020-06-26T17:43:23Z</time>
      </trkpt>
      <trkpt lat="49.43834" lon="6.49124">
        <ele>351.7</ele>
        <time>2020-06-26T17:43:24Z</time>
      </trkpt>
      <trkpt lat="49.43838" lon="6.49137">
        <ele>351.1</ele>
        <time>2020-06-26T17:43:25Z</time>
      </trkpt>
      <trkpt lat="49.43842" lon="6.49151">
        <ele>350.5</ele>
        <time>2020-06-26T17:43:26Z</time>
      </trkpt>
      <trkpt lat="49.43846" lon="6.49164">
        <ele>350</ele>
        <time>2020-06-26T17:43:27Z</time>
      </trkpt>
      <trkpt lat="49.43848" lon="6.49178">
        <ele>349.5</ele>
        <time>2020-06-26T17:43:28Z</time>
      </trkpt>
      <trkpt lat="49.43851" lon="6.49193">
        <ele>349</ele>
        <time>2020-06-26T17:43:29Z</time>
      </trkpt>
      <trkpt lat="49.43852" lon="6.49208">
        <ele>348.6</ele>
        <time>2020-06-26T17:43:30Z</time>
      </trkpt>
      <trkpt lat="49.43852" lon="6.49223">
        <ele>348.2</ele>
        <time>2020-06-26T17:43:31Z</time>
      </trkpt>
      <trkpt lat="49.43852" lon="6.49237">
        <ele>347.9</ele>
        <time>2020-06-26T17:43:32Z</time>
      </trkpt>
      <trkpt lat="49.43851" lon="6.49251">
        <ele>347.6</ele>
        <time>2020-06-26T17:43:33Z</time>
      </trkpt>
      <trkpt lat="49.4385" lon="6.49266">
        <ele>347.3</ele>
        <time>2020-06-26T17:43:34Z</time>
      </trkpt>
      <trkpt lat="49.43849" lon="6.49279">
        <ele>347</ele>
        <time>2020-06-26T17:43:35Z</time>
      </trkpt>
      <trkpt lat="49.43848" lon="6.49293">
        <ele>346.7</ele>
        <time>2020-06-26T17:43:36Z</time>
      </trkpt>
      <trkpt lat="49.43847" lon="6.49306">
        <ele>346.5</ele>
        <time>2020-06-26T17:43:37Z</time>
      </trkpt>
      <trkpt lat="49.43845" lon="6.4932">
        <ele>346.3</ele>
        <time>2020-06-26T17:43:38Z</time>
      </trkpt>
      <trkpt lat="49.43844" lon="6.49333">
        <ele>346.1</ele>
        <time>2020-06-26T17:43:39Z</time>
      </trkpt>
      <trkpt lat="49.43843" lon="6.49347">
        <ele>346.1</ele>
        <time>2020-06-26T17:43:40Z</time>
      </trkpt>
      <trkpt lat="49.43842" lon="6.4936">
        <ele>346.2</ele>
        <time>2020-06-26T17:43:41Z</time>
      </trkpt>
      <trkpt lat="49.43841" lon="6.49372">
        <ele>346.3</ele>
        <time>2020-06-26T17:43:42Z</time>
      </trkpt>
      <trkpt lat="49.4384" lon="6.49384">
        <ele>346.4</ele>
        <time>2020-06-26T17:43:43Z</time>
      </trkpt>
      <trkpt lat="49.43838" lon="6.49395">
        <ele>346.5</ele>
        <time>2020-06-26T17:43:44Z</time>
      </trkpt>
      <trkpt lat="49.43837" lon="6.49406">
        <ele>346.6</ele>
        <time>2020-06-26T17:43:45Z</time>
      </trkpt>
      <trkpt lat="49.43837" lon="6.49417">
        <ele>346.7</ele>
        <time>2020-06-26T17:43:46Z</time>
      </trkpt>
      <trkpt lat="49.43837" lon="6.49426">
        <ele>346.8</ele>
        <time>2020-06-26T17:43:47Z</time>
      </trkpt>
      <trkpt lat="49.43836" lon="6.49436">
        <ele>346.9</ele>
        <time>2020-06-26T17:43:48Z</time>
      </trkpt>
      <trkpt lat="49.43837" lon="6.49445">
        <ele>347</ele>
        <time>2020-06-26T17:43:49Z</time>
      </trkpt>
      <trkpt lat="49.43836" lon="6.49454">
        <ele>347</ele>
        <time>2020-06-26T17:43:50Z</time>
      </trkpt>
      <trkpt lat="49.43837" lon="6.49462">
        <ele>347.1</ele>
        <time>2020-06-26T17:43:51Z</time>
      </trkpt>
      <trkpt lat="49.43836" lon="6.4947">
        <ele>347.2</ele>
        <time>2020-06-26T17:43:52Z</time>
      </trkpt>
      <trkpt lat="49.43835" lon="6.49478">
        <ele>347.3</ele>
        <time>2020-06-26T17:43:53Z</time>
      </trkpt>
      <trkpt lat="49.43835" lon="6.49485">
        <ele>347.3</ele>
        <time>2020-06-26T17:43:54Z</time>
      </trkpt>
      <trkpt lat="49.43835" lon="6.49491">
        <ele>347.3</ele>
        <time>2020-06-26T17:43:55Z</time>
      </trkpt>
      <trkpt lat="49.43835" lon="6.49497">
        <ele>347.4</ele>
        <time>2020-06-26T17:43:56Z</time>
      </trkpt>
      <trkpt lat="49.43835" lon="6.49502">
        <ele>347.4</ele>
        <time>2020-06-26T17:43:57Z</time>
      </trkpt>
      <trkpt lat="49.43836" lon="6.49508">
        <ele>347.4</ele>
        <time>2020-06-26T17:43:58Z</time>
      </trkpt>
      <trkpt lat="49.43837" lon="6.49513">
        <ele>347.4</ele>
        <time>2020-06-26T17:43:59Z</time>
      </trkpt>
      <trkpt lat="49.43835" lon="6.4952">
        <ele>347.5</ele>
        <time>2020-06-26T17:44:00Z</time>
      </trkpt>
      <trkpt lat="49.43832" lon="6.49527">
        <ele>347.7</ele>
        <time>2020-06-26T17:44:01Z</time>
      </trkpt>
      <trkpt lat="49.43829" lon="6.49534">
        <ele>347.9</ele>
        <time>2020-06-26T17:44:02Z</time>
      </trkpt>
      <trkpt lat="49.43825" lon="6.4954">
        <ele>348</ele>
        <time>2020-06-26T17:44:03Z</time>
      </trkpt>
      <trkpt lat="49.43821" lon="6.49547">
        <ele>348.1</ele>
        <time>2020-06-26T17:44:04Z</time>
      </trkpt>
      <trkpt lat="49.43818" lon="6.49553">
        <ele>347.7</ele>
        <time>2020-06-26T17:44:05Z</time>
      </trkpt>
      <trkpt lat="49.43815" lon="6.4956">
        <ele>347.3</ele>
        <time>2020-06-26T17:44:06Z</time>
      </trkpt>
      <trkpt lat="49.43812" lon="6.49566">
        <ele>346.8</ele>
        <time>2020-06-26T17:44:07Z</time>
      </trkpt>
      <trkpt lat="49.43809" lon="6.49572">
        <ele>346.4</ele>
        <time>2020-06-26T17:44:08Z</time>
      </trkpt>
      <trkpt lat="49.43806" lon="6.49578">
        <ele>346</ele>
        <time>2020-06-26T17:44:09Z</time>
      </trkpt>
      <trkpt lat="49.43803" lon="6.49586">
        <ele>345.5</ele>
        <time>2020-06-26T17:44:10Z</time>
      </trkpt>
      <trkpt lat="49.43801" lon="6.49594">
        <ele>345.1</ele>
        <time>2020-06-26T17:44:11Z</time>
      </trkpt>
      <trkpt lat="49.43799" lon="6.49602">
        <ele>344.6</ele>
        <time>2020-06-26T17:44:12Z</time>
      </trkpt>
      <trkpt lat="49.43798" lon="6.4961">
        <ele>344.1</ele>
        <time>2020-06-26T17:44:13Z</time>
      </trkpt>
      <trkpt lat="49.43797" lon="6.49618">
        <ele>343.7</ele>
        <time>2020-06-26T17:44:14Z</time>
      </trkpt>
      <trkpt lat="49.43796" lon="6.49625">
        <ele>343.2</ele>
        <time>2020-06-26T17:44:15Z</time>
      </trkpt>
      <trkpt lat="49.43794" lon="6.49632">
        <ele>342.8</ele>
        <time>2020-06-26T17:44:16Z</time>
      </trkpt>
      <trkpt lat="49.43792" lon="6.49638">
        <ele>342.4</ele>
        <time>2020-06-26T17:44:17Z</time>
      </trkpt>
      <trkpt lat="49.43789" lon="6.49643">
        <ele>342</ele>
        <time>2020-06-26T17:44:18Z</time>
      </trkpt>
      <trkpt lat="49.43788" lon="6.49649">
        <ele>341.5</ele>
        <time>2020-06-26T17:44:19Z</time>
      </trkpt>
      <trkpt lat="49.43787" lon="6.49653">
        <ele>340.1</ele>
        <time>2020-06-26T17:44:20Z</time>
      </trkpt>
      <trkpt lat="49.43784" lon="6.49655">
        <ele>339.9</ele>
        <time>2020-06-26T17:44:21Z</time>
      </trkpt>
      <trkpt lat="49.4378" lon="6.49654">
        <ele>339.7</ele>
        <time>2020-06-26T17:44:22Z</time>
      </trkpt>
      <trkpt lat="49.43775" lon="6.49656">
        <ele>339.5</ele>
        <time>2020-06-26T17:44:23Z</time>
      </trkpt>
      <trkpt lat="49.4377" lon="6.49655">
        <ele>339.2</ele>
        <time>2020-06-26T17:44:24Z</time>
      </trkpt>
      <trkpt lat="49.43765" lon="6.49655">
        <ele>339</ele>
        <time>2020-06-26T17:44:25Z</time>
      </trkpt>
      <trkpt lat="49.4376" lon="6.49655">
        <ele>338.8</ele>
        <time>2020-06-26T17:44:26Z</time>
      </trkpt>
      <trkpt lat="49.43754" lon="6.49654">
        <ele>338.7</ele>
        <time>2020-06-26T17:44:27Z</time>
      </trkpt>
      <trkpt lat="49.43749" lon="6.49654">
        <ele>338.5</ele>
        <time>2020-06-26T17:44:28Z</time>
      </trkpt>
      <trkpt lat="49.43743" lon="6.49653">
        <ele>338.4</ele>
        <time>2020-06-26T17:44:29Z</time>
      </trkpt>
      <trkpt lat="49.43737" lon="6.49653">
        <ele>338.3</ele>
        <time>2020-06-26T17:44:30Z</time>
      </trkpt>
      <trkpt lat="49.43731" lon="6.49652">
        <ele>338.3</ele>
        <time>2020-06-26T17:44:31Z</time>
      </trkpt>
      <trkpt lat="49.43725" lon="6.49649">
        <ele>338.2</ele>
        <time>2020-06-26T17:44:32Z</time>
      </trkpt>
      <trkpt lat="49.4372" lon="6.49647">
        <ele>338.2</ele>
        <time>2020-06-26T17:44:33Z</time>
      </trkpt>
      <trkpt lat="49.43714" lon="6.49645">
        <ele>338.3</ele>
        <time>2020-06-26T17:44:34Z</time>
      </trkpt>
      <trkpt lat="49.43707" lon="6.49643">
        <ele>338.3</ele>
        <time>2020-06-26T17:44:35Z</time>
      </trkpt>
      <trkpt lat="49.43702" lon="6.4964">
        <ele>338.4</ele>
        <time>2020-06-26T17:44:36Z</time>
      </trkpt>
      <trkpt lat="49.43696" lon="6.49637">
        <ele>338.6</ele>
        <time>2020-06-26T17:44:37Z</time>
      </trkpt>
      <trkpt lat="49.4369" lon="6.49634">
        <ele>338.7</ele>
        <time>2020-06-26T17:44:38Z</time>
      </trkpt>
      <trkpt lat="49.43684" lon="6.49632">
        <ele>338.9</ele>
        <time>2020-06-26T17:44:39Z</time>
      </trkpt>
      <trkpt lat="49.43679" lon="6.49629">
        <ele>339.1</ele>
        <time>2020-06-26T17:44:40Z</time>
      </trkpt>
      <trkpt lat="49.43674" lon="6.49627">
        <ele>339.4</ele>
        <time>2020-06-26T17:44:41Z</time>
      </trkpt>
      <trkpt lat="49.43669" lon="6.49624">
        <ele>339.7</ele>
        <time>2020-06-26T17:44:42Z</time>
      </trkpt>
      <trkpt lat="49.43664" lon="6.49621">
        <ele>339.9</ele>
        <time>2020-06-26T17:44:43Z</time>
      </trkpt>
      <trkpt lat="49.43659" lon="6.49618">
        <ele>340.2</ele>
        <time>2020-06-26T17:44:44Z</time>
      </trkpt>
      <trkpt lat="49.43654" lon="6.49615">
        <ele>340.5</ele>
        <time>2020-06-26T17:44:45Z</time>
      </trkpt>
      <trkpt lat="49.4365" lon="6.49612">
        <ele>340.8</ele>
        <time>2020-06-26T17:44:46Z</time>
      </trkpt>
      <trkpt lat="49.43646" lon="6.4961">
        <ele>341</ele>
        <time>2020-06-26T17:44:47Z</time>
      </trkpt>
      <trkpt lat="49.43641" lon="6.49609">
        <ele>341.3</ele>
        <time>2020-06-26T17:44:48Z</time>
      </trkpt>
      <trkpt lat="49.43637" lon="6.49608">
        <ele>341.7</ele>
        <time>2020-06-26T17:44:49Z</time>
      </trkpt>
      <trkpt lat="49.43633" lon="6.49607">
        <ele>342.1</ele>
        <time>2020-06-26T17:44:50Z</time>
      </trkpt>
      <trkpt lat="49.43628" lon="6.49609">
        <ele>342.5</ele>
        <time>2020-06-26T17:44:51Z</time>
      </trkpt>
      <trkpt lat="49.43624" lon="6.4961">
        <ele>342.8</ele>
        <time>2020-06-26T17:44:52Z</time>
      </trkpt>
      <trkpt lat="49.4362" lon="6.49608">
        <ele>343.2</ele>
        <time>2020-06-26T17:44:53Z</time>
      </trkpt>
      <trkpt lat="49.43617" lon="6.49607">
        <ele>343.5</ele>
        <time>2020-06-26T17:44:54Z</time>
      </trkpt>
      <trkpt lat="49.43613" lon="6.49605">
        <ele>343.8</ele>
        <time>2020-06-26T17:44:55Z</time>
      </trkpt>
      <trkpt lat="49.43611" lon="6.49605">
        <ele>344</ele>
        <time>2020-06-26T17:44:56Z</time>
      </trkpt>
      <trkpt lat="49.43607" lon="6.49604">
        <ele>344.4</ele>
        <time>2020-06-26T17:44:57Z</time>
      </trkpt>
      <trkpt lat="49.43606" lon="6.49603">
        <ele>344.5</ele>
        <time>2020-06-26T17:44:58Z</time>
      </trkpt>
      <trkpt lat="49.43604" lon="6.49601">
        <ele>344.7</ele>
        <time>2020-06-26T17:44:59Z</time>
      </trkpt>
      <trkpt lat="49.43604" lon="6.496">
        <ele>344.8</ele>
        <time>2020-06-26T17:45:00Z</time>
      </trkpt>
      <trkpt lat="49.43602" lon="6.496">
        <ele>344.9</ele>
        <time>2020-06-26T17:45:01Z</time>
      </trkpt>
      <trkpt lat="49.43601" lon="6.496">
        <ele>345</ele>
        <time>2020-06-26T17:45:02Z</time>
      </trkpt>
      <trkpt lat="49.43601" lon="6.49601">
        <ele>345.1</ele>
        <time>2020-06-26T17:45:03Z</time>
      </trkpt>
      <trkpt lat="49.436" lon="6.49601">
        <ele>345.2</ele>
        <time>2020-06-26T17:45:04Z</time>
      </trkpt>
      <trkpt lat="49.43599" lon="6.49601">
        <ele>345.2</ele>
        <time>2020-06-26T17:45:05Z</time>
      </trkpt>
      <trkpt lat="49.43596" lon="6.49602">
        <ele>345.6</ele>
        <time>2020-06-26T17:45:06Z</time>
      </trkpt>
      <trkpt lat="49.43595" lon="6.49602">
        <ele>345.7</ele>
        <time>2020-06-26T17:45:07Z</time>
      </trkpt>
      <trkpt lat="49.43593" lon="6.496">
        <ele>345.9</ele>
        <time>2020-06-26T17:45:08Z</time>
      </trkpt>
      <trkpt lat="49.43591" lon="6.49601">
        <ele>346</ele>
        <time>2020-06-26T17:45:09Z</time>
      </trkpt>
      <trkpt lat="49.43588" lon="6.49601">
        <ele>346.7</ele>
        <time>2020-06-26T17:45:10Z</time>
      </trkpt>
      <trkpt lat="49.43587" lon="6.49602">
        <ele>346.7</ele>
        <time>2020-06-26T17:45:11Z</time>
      </trkpt>
      <trkpt lat="49.43584" lon="6.496">
        <ele>346.7</ele>
        <time>2020-06-26T17:45:12Z</time>
      </trkpt>
      <trkpt lat="49.43583" lon="6.496">
        <ele>346.7</ele>
        <time>2020-06-26T17:45:13Z</time>
      </trkpt>
      <trkpt lat="49.43582" lon="6.49599">
        <ele>346.7</ele>
        <time>2020-06-26T17:45:14Z</time>
      </trkpt>
      <trkpt lat="49.43581" lon="6.49598">
        <ele>346.8</ele>
        <time>2020-06-26T17:45:15Z</time>
      </trkpt>
      <trkpt lat="49.43578" lon="6.49596">
        <ele>346.8</ele>
        <time>2020-06-26T17:45:16Z</time>
      </trkpt>
      <trkpt lat="49.43575" lon="6.49594">
        <ele>346.8</ele>
        <time>2020-06-26T17:45:17Z</time>
      </trkpt>
      <trkpt lat="49.43574" lon="6.49596">
        <ele>346.8</ele>
        <time>2020-06-26T17:45:18Z</time>
      </trkpt>
      <trkpt lat="49.43571" lon="6.49596">
        <ele>346.9</ele>
        <time>2020-06-26T17:45:19Z</time>
      </trkpt>
      <trkpt lat="49.4357" lon="6.49596">
        <ele>346.9</ele>
        <time>2020-06-26T17:45:20Z</time>
      </trkpt>
      <trkpt lat="49.43567" lon="6.49597">
        <ele>347.3</ele>
        <time>2020-06-26T17:45:21Z</time>
      </trkpt>
      <trkpt lat="49.43563" lon="6.49597">
        <ele>347.6</ele>
        <time>2020-06-26T17:45:22Z</time>
      </trkpt>
      <trkpt lat="49.43561" lon="6.49596">
        <ele>347.7</ele>
        <time>2020-06-26T17:45:23Z</time>
      </trkpt>
      <trkpt lat="49.43558" lon="6.49595">
        <ele>347.8</ele>
        <time>2020-06-26T17:45:24Z</time>
      </trkpt>
      <trkpt lat="49.43557" lon="6.49594">
        <ele>347.9</ele>
        <time>2020-06-26T17:45:25Z</time>
      </trkpt>
      <trkpt lat="49.43554" lon="6.49596">
        <ele>348</ele>
        <time>2020-06-26T17:45:26Z</time>
      </trkpt>
      <trkpt lat="49.43552" lon="6.49595">
        <ele>348.1</ele>
        <time>2020-06-26T17:45:27Z</time>
      </trkpt>
      <trkpt lat="49.4355" lon="6.49595">
        <ele>348.2</ele>
        <time>2020-06-26T17:45:28Z</time>
      </trkpt>
      <trkpt lat="49.43547" lon="6.49592">
        <ele>348.4</ele>
        <time>2020-06-26T17:45:29Z</time>
      </trkpt>
      <trkpt lat="49.43545" lon="6.49591">
        <ele>348.4</ele>
        <time>2020-06-26T17:45:30Z</time>
      </trkpt>
      <trkpt lat="49.43542" lon="6.49591">
        <ele>348.5</ele>
        <time>2020-06-26T17:45:31Z</time>
      </trkpt>
      <trkpt lat="49.43539" lon="6.4959">
        <ele>348.6</ele>
        <time>2020-06-26T17:45:32Z</time>
      </trkpt>
      <trkpt lat="49.43536" lon="6.49588">
        <ele>348.8</ele>
        <time>2020-06-26T17:45:33Z</time>
      </trkpt>
      <trkpt lat="49.43532" lon="6.49587">
        <ele>348.9</ele>
        <time>2020-06-26T17:45:34Z</time>
      </trkpt>
      <trkpt lat="49.43529" lon="6.49587">
        <ele>349</ele>
        <time>2020-06-26T17:45:35Z</time>
      </trkpt>
      <trkpt lat="49.43524" lon="6.49586">
        <ele>349.2</ele>
        <time>2020-06-26T17:45:36Z</time>
      </trkpt>
      <trkpt lat="49.4352" lon="6.49586">
        <ele>349.3</ele>
        <time>2020-06-26T17:45:37Z</time>
      </trkpt>
      <trkpt lat="49.43516" lon="6.49585">
        <ele>349.4</ele>
        <time>2020-06-26T17:45:38Z</time>
      </trkpt>
      <trkpt lat="49.43512" lon="6.49584">
        <ele>349.6</ele>
        <time>2020-06-26T17:45:39Z</time>
      </trkpt>
      <trkpt lat="49.43508" lon="6.49583">
        <ele>349.7</ele>
        <time>2020-06-26T17:45:40Z</time>
      </trkpt>
      <trkpt lat="49.43503" lon="6.49583">
        <ele>349.9</ele>
        <time>2020-06-26T17:45:41Z</time>
      </trkpt>
      <trkpt lat="49.43499" lon="6.49584">
        <ele>350</ele>
        <time>2020-06-26T17:45:42Z</time>
      </trkpt>
      <trkpt lat="49.43494" lon="6.49585">
        <ele>350.1</ele>
        <time>2020-06-26T17:45:43Z</time>
      </trkpt>
      <trkpt lat="49.4349" lon="6.49586">
        <ele>350.2</ele>
        <time>2020-06-26T17:45:44Z</time>
      </trkpt>
      <trkpt lat="49.43486" lon="6.49589">
        <ele>350.3</ele>
        <time>2020-06-26T17:45:45Z</time>
      </trkpt>
      <trkpt lat="49.43482" lon="6.49591">
        <ele>350.4</ele>
        <time>2020-06-26T17:45:46Z</time>
      </trkpt>
      <trkpt lat="49.43478" lon="6.49594">
        <ele>350.5</ele>
        <time>2020-06-26T17:45:47Z</time>
      </trkpt>
      <trkpt lat="49.43474" lon="6.49597">
        <ele>350.6</ele>
        <time>2020-06-26T17:45:48Z</time>
      </trkpt>
      <trkpt lat="49.4347" lon="6.496">
        <ele>350.7</ele>
        <time>2020-06-26T17:45:49Z</time>
      </trkpt>
      <trkpt lat="49.43465" lon="6.49604">
        <ele>350.8</ele>
        <time>2020-06-26T17:45:50Z</time>
      </trkpt>
      <trkpt lat="49.43462" lon="6.49608">
        <ele>350.9</ele>
        <time>2020-06-26T17:45:51Z</time>
      </trkpt>
      <trkpt lat="49.43458" lon="6.49612">
        <ele>351</ele>
        <time>2020-06-26T17:45:52Z</time>
      </trkpt>
      <trkpt lat="49.43455" lon="6.49616">
        <ele>351.1</ele>
        <time>2020-06-26T17:45:53Z</time>
      </trkpt>
      <trkpt lat="49.43452" lon="6.49621">
        <ele>351.2</ele>
        <time>2020-06-26T17:45:54Z</time>
      </trkpt>
      <trkpt lat="49.43448" lon="6.49624">
        <ele>351.3</ele>
        <time>2020-06-26T17:45:55Z</time>
      </trkpt>
      <trkpt lat="49.43444" lon="6.49627">
        <ele>351.4</ele>
        <time>2020-06-26T17:45:56Z</time>
      </trkpt>
      <trkpt lat="49.43439" lon="6.49631">
        <ele>351.4</ele>
        <time>2020-06-26T17:45:57Z</time>
      </trkpt>
      <trkpt lat="49.43435" lon="6.49634">
        <ele>351.5</ele>
        <time>2020-06-26T17:45:58Z</time>
      </trkpt>
      <trkpt lat="49.43432" lon="6.49638">
        <ele>351.6</ele>
        <time>2020-06-26T17:45:59Z</time>
      </trkpt>
      <trkpt lat="49.43429" lon="6.49643">
        <ele>351.7</ele>
        <time>2020-06-26T17:46:00Z</time>
      </trkpt>
      <trkpt lat="49.43426" lon="6.49646">
        <ele>351.7</ele>
        <time>2020-06-26T17:46:01Z</time>
      </trkpt>
      <trkpt lat="49.43424" lon="6.4965">
        <ele>351.8</ele>
        <time>2020-06-26T17:46:02Z</time>
      </trkpt>
      <trkpt lat="49.43422" lon="6.49654">
        <ele>351.9</ele>
        <time>2020-06-26T17:46:03Z</time>
      </trkpt>
      <trkpt lat="49.43419" lon="6.49658">
        <ele>352.1</ele>
        <time>2020-06-26T17:46:04Z</time>
      </trkpt>
      <trkpt lat="49.43418" lon="6.49659">
        <ele>352.2</ele>
        <time>2020-06-26T17:46:05Z</time>
      </trkpt>
      <trkpt lat="49.43417" lon="6.49661">
        <ele>352.3</ele>
        <time>2020-06-26T17:46:06Z</time>
      </trkpt>
      <trkpt lat="49.43416" lon="6.49663">
        <ele>352.4</ele>
        <time>2020-06-26T17:46:07Z</time>
      </trkpt>
      <trkpt lat="49.43416" lon="6.49664">
        <ele>352.4</ele>
        <time>2020-06-26T17:46:08Z</time>
      </trkpt>
      <trkpt lat="49.43415" lon="6.49665">
        <ele>352.5</ele>
        <time>2020-06-26T17:46:09Z</time>
      </trkpt>
      <trkpt lat="49.43415" lon="6.49667">
        <ele>352.5</ele>
        <time>2020-06-26T17:46:10Z</time>
      </trkpt>
      <trkpt lat="49.43413" lon="6.4967">
        <ele>352.6</ele>
        <time>2020-06-26T17:46:11Z</time>
      </trkpt>
      <trkpt lat="49.43413" lon="6.49669">
        <ele>352.6</ele>
        <time>2020-06-26T17:46:12Z</time>
      </trkpt>
      <trkpt lat="49.43412" lon="6.49669">
        <ele>352.6</ele>
        <time>2020-06-26T17:46:13Z</time>
      </trkpt>
      <trkpt lat="49.43411" lon="6.4967">
        <ele>352.7</ele>
        <time>2020-06-26T17:46:14Z</time>
      </trkpt>
      <trkpt lat="49.4341" lon="6.49671">
        <ele>352.7</ele>
        <time>2020-06-26T17:46:15Z</time>
      </trkpt>
      <trkpt lat="49.4341" lon="6.49672">
        <ele>352.7</ele>
        <time>2020-06-26T17:46:16Z</time>
      </trkpt>
      <trkpt lat="49.43409" lon="6.49672">
        <ele>352.8</ele>
        <time>2020-06-26T17:46:17Z</time>
      </trkpt>
      <trkpt lat="49.43408" lon="6.49673">
        <ele>352.8</ele>
        <time>2020-06-26T17:46:18Z</time>
      </trkpt>
      <trkpt lat="49.43408" lon="6.49673">
        <ele>352.8</ele>
        <time>2020-06-26T17:46:19Z</time>
      </trkpt>
      <trkpt lat="49.43407" lon="6.49674">
        <ele>352.8</ele>
        <time>2020-06-26T17:46:20Z</time>
      </trkpt>
      <trkpt lat="49.43407" lon="6.49675">
        <ele>352.8</ele>
        <time>2020-06-26T17:46:21Z</time>
      </trkpt>
      <trkpt lat="49.43406" lon="6.49675">
        <ele>352.8</ele>
        <time>2020-06-26T17:46:22Z</time>
      </trkpt>
      <trkpt lat="49.43405" lon="6.49676">
        <ele>352.8</ele>
        <time>2020-06-26T17:46:23Z</time>
      </trkpt>
      <trkpt lat="49.43405" lon="6.49676">
        <ele>352.9</ele>
        <time>2020-06-26T17:47:10Z</time>
      </trkpt>
      <trkpt lat="49.43404" lon="6.49677">
        <ele>352.9</ele>
        <time>2020-06-26T17:47:11Z</time>
      </trkpt>
      <trkpt lat="49.43403" lon="6.49682">
        <ele>352.9</ele>
        <time>2020-06-26T17:47:12Z</time>
      </trkpt>
      <trkpt lat="49.43401" lon="6.49686">
        <ele>352.9</ele>
        <time>2020-06-26T17:47:13Z</time>
      </trkpt>
      <trkpt lat="49.43398" lon="6.4969">
        <ele>352.9</ele>
        <time>2020-06-26T17:47:14Z</time>
      </trkpt>
      <trkpt lat="49.43397" lon="6.49692">
        <ele>353</ele>
        <time>2020-06-26T17:47:15Z</time>
      </trkpt>
      <trkpt lat="49.43396" lon="6.49695">
        <ele>353</ele>
        <time>2020-06-26T17:47:16Z</time>
      </trkpt>
      <trkpt lat="49.43394" lon="6.49699">
        <ele>353</ele>
        <time>2020-06-26T17:47:17Z</time>
      </trkpt>
      <trkpt lat="49.43393" lon="6.497">
        <ele>353</ele>
        <time>2020-06-26T17:47:18Z</time>
      </trkpt>
      <trkpt lat="49.43391" lon="6.49705">
        <ele>352.9</ele>
        <time>2020-06-26T17:47:19Z</time>
      </trkpt>
      <trkpt lat="49.4339" lon="6.49708">
        <ele>352.9</ele>
        <time>2020-06-26T17:47:20Z</time>
      </trkpt>
      <trkpt lat="49.43388" lon="6.49712">
        <ele>352.9</ele>
        <time>2020-06-26T17:47:21Z</time>
      </trkpt>
      <trkpt lat="49.43385" lon="6.49716">
        <ele>352.9</ele>
        <time>2020-06-26T17:47:22Z</time>
      </trkpt>
      <trkpt lat="49.43382" lon="6.49721">
        <ele>352.9</ele>
        <time>2020-06-26T17:47:23Z</time>
      </trkpt>
      <trkpt lat="49.43379" lon="6.49727">
        <ele>352.8</ele>
        <time>2020-06-26T17:47:24Z</time>
      </trkpt>
      <trkpt lat="49.43377" lon="6.49731">
        <ele>352.8</ele>
        <time>2020-06-26T17:47:25Z</time>
      </trkpt>
      <trkpt lat="49.43374" lon="6.49733">
        <ele>352.7</ele>
        <time>2020-06-26T17:47:26Z</time>
      </trkpt>
      <trkpt lat="49.43371" lon="6.49736">
        <ele>352.6</ele>
        <time>2020-06-26T17:47:27Z</time>
      </trkpt>
      <trkpt lat="49.43369" lon="6.49739">
        <ele>352.5</ele>
        <time>2020-06-26T17:47:28Z</time>
      </trkpt>
      <trkpt lat="49.43366" lon="6.49743">
        <ele>352.4</ele>
        <time>2020-06-26T17:47:29Z</time>
      </trkpt>
      <trkpt lat="49.43364" lon="6.49748">
        <ele>352.3</ele>
        <time>2020-06-26T17:47:30Z</time>
      </trkpt>
      <trkpt lat="49.43362" lon="6.49752">
        <ele>352.2</ele>
        <time>2020-06-26T17:47:31Z</time>
      </trkpt>
      <trkpt lat="49.43359" lon="6.49756">
        <ele>352.1</ele>
        <time>2020-06-26T17:47:32Z</time>
      </trkpt>
      <trkpt lat="49.43357" lon="6.4976">
        <ele>351.9</ele>
        <time>2020-06-26T17:47:33Z</time>
      </trkpt>
      <trkpt lat="49.43353" lon="6.49765">
        <ele>351.7</ele>
        <time>2020-06-26T17:47:34Z</time>
      </trkpt>
      <trkpt lat="49.43349" lon="6.49769">
        <ele>351.5</ele>
        <time>2020-06-26T17:47:35Z</time>
      </trkpt>
      <trkpt lat="49.43345" lon="6.49773">
        <ele>351.3</ele>
        <time>2020-06-26T17:47:36Z</time>
      </trkpt>
      <trkpt lat="49.4334" lon="6.49777">
        <ele>351</ele>
        <time>2020-06-26T17:47:37Z</time>
      </trkpt>
      <trkpt lat="49.43336" lon="6.49782">
        <ele>350.8</ele>
        <time>2020-06-26T17:47:38Z</time>
      </trkpt>
      <trkpt lat="49.43331" lon="6.49787">
        <ele>350.5</ele>
        <time>2020-06-26T17:47:39Z</time>
      </trkpt>
      <trkpt lat="49.43326" lon="6.49792">
        <ele>350.2</ele>
        <time>2020-06-26T17:47:40Z</time>
      </trkpt>
      <trkpt lat="49.43322" lon="6.49797">
        <ele>349.9</ele>
        <time>2020-06-26T17:47:41Z</time>
      </trkpt>
      <trkpt lat="49.43317" lon="6.49803">
        <ele>349.5</ele>
        <time>2020-06-26T17:47:42Z</time>
      </trkpt>
      <trkpt lat="49.43311" lon="6.49809">
        <ele>349</ele>
        <time>2020-06-26T17:47:43Z</time>
      </trkpt>
      <trkpt lat="49.43305" lon="6.49815">
        <ele>348.6</ele>
        <time>2020-06-26T17:47:44Z</time>
      </trkpt>
      <trkpt lat="49.43299" lon="6.4982">
        <ele>348.2</ele>
        <time>2020-06-26T17:47:45Z</time>
      </trkpt>
      <trkpt lat="49.43292" lon="6.49825">
        <ele>347.6</ele>
        <time>2020-06-26T17:47:46Z</time>
      </trkpt>
      <trkpt lat="49.43284" lon="6.4983">
        <ele>347</ele>
        <time>2020-06-26T17:47:47Z</time>
      </trkpt>
      <trkpt lat="49.43275" lon="6.49836">
        <ele>346.3</ele>
        <time>2020-06-26T17:47:48Z</time>
      </trkpt>
      <trkpt lat="49.43268" lon="6.4984">
        <ele>345.7</ele>
        <time>2020-06-26T17:47:49Z</time>
      </trkpt>
      <trkpt lat="49.4326" lon="6.49846">
        <ele>345</ele>
        <time>2020-06-26T17:47:50Z</time>
      </trkpt>
      <trkpt lat="49.43252" lon="6.4985">
        <ele>344.4</ele>
        <time>2020-06-26T17:47:51Z</time>
      </trkpt>
      <trkpt lat="49.43243" lon="6.49855">
        <ele>343.7</ele>
        <time>2020-06-26T17:47:52Z</time>
      </trkpt>
      <trkpt lat="49.43235" lon="6.49859">
        <ele>343</ele>
        <time>2020-06-26T17:47:53Z</time>
      </trkpt>
      <trkpt lat="49.43227" lon="6.49863">
        <ele>342.3</ele>
        <time>2020-06-26T17:47:54Z</time>
      </trkpt>
      <trkpt lat="49.43218" lon="6.49867">
        <ele>341.6</ele>
        <time>2020-06-26T17:47:55Z</time>
      </trkpt>
      <trkpt lat="49.43208" lon="6.49872">
        <ele>340.8</ele>
        <time>2020-06-26T17:47:56Z</time>
      </trkpt>
      <trkpt lat="49.43199" lon="6.49876">
        <ele>340.1</ele>
        <time>2020-06-26T17:47:57Z</time>
      </trkpt>
      <trkpt lat="49.43189" lon="6.49881">
        <ele>339.4</ele>
        <time>2020-06-26T17:47:58Z</time>
      </trkpt>
      <trkpt lat="49.43178" lon="6.49884">
        <ele>338.6</ele>
        <time>2020-06-26T17:47:59Z</time>
      </trkpt>
      <trkpt lat="49.43169" lon="6.49887">
        <ele>338</ele>
        <time>2020-06-26T17:48:00Z</time>
      </trkpt>
      <trkpt lat="49.43161" lon="6.49892">
        <ele>337.4</ele>
        <time>2020-06-26T17:48:01Z</time>
      </trkpt>
      <trkpt lat="49.43152" lon="6.49895">
        <ele>336.8</ele>
        <time>2020-06-26T17:48:02Z</time>
      </trkpt>
      <trkpt lat="49.43144" lon="6.49899">
        <ele>336.2</ele>
        <time>2020-06-26T17:48:03Z</time>
      </trkpt>
      <trkpt lat="49.43135" lon="6.49904">
        <ele>335.6</ele>
        <time>2020-06-26T17:48:04Z</time>
      </trkpt>
      <trkpt lat="49.43126" lon="6.49911">
        <ele>334.8</ele>
        <time>2020-06-26T17:48:05Z</time>
      </trkpt>
      <trkpt lat="49.43116" lon="6.49916">
        <ele>334</ele>
        <time>2020-06-26T17:48:06Z</time>
      </trkpt>
      <trkpt lat="49.43106" lon="6.49922">
        <ele>333.1</ele>
        <time>2020-06-26T17:48:07Z</time>
      </trkpt>
      <trkpt lat="49.43096" lon="6.49928">
        <ele>332.1</ele>
        <time>2020-06-26T17:48:08Z</time>
      </trkpt>
      <trkpt lat="49.43087" lon="6.49937">
        <ele>331.1</ele>
        <time>2020-06-26T17:48:09Z</time>
      </trkpt>
      <trkpt lat="49.43077" lon="6.49947">
        <ele>330.3</ele>
        <time>2020-06-26T17:48:10Z</time>
      </trkpt>
      <trkpt lat="49.43067" lon="6.49956">
        <ele>329.4</ele>
        <time>2020-06-26T17:48:11Z</time>
      </trkpt>
      <trkpt lat="49.43058" lon="6.49967">
        <ele>328.7</ele>
        <time>2020-06-26T17:48:12Z</time>
      </trkpt>
      <trkpt lat="49.43048" lon="6.49977">
        <ele>328.2</ele>
        <time>2020-06-26T17:48:13Z</time>
      </trkpt>
      <trkpt lat="49.43038" lon="6.49988">
        <ele>327.7</ele>
        <time>2020-06-26T17:48:14Z</time>
      </trkpt>
      <trkpt lat="49.43028" lon="6.49998">
        <ele>327.4</ele>
        <time>2020-06-26T17:48:15Z</time>
      </trkpt>
      <trkpt lat="49.43018" lon="6.50007">
        <ele>327.1</ele>
        <time>2020-06-26T17:48:16Z</time>
      </trkpt>
      <trkpt lat="49.43008" lon="6.50015">
        <ele>326.9</ele>
        <time>2020-06-26T17:48:17Z</time>
      </trkpt>
      <trkpt lat="49.42999" lon="6.50023">
        <ele>326.7</ele>
        <time>2020-06-26T17:48:18Z</time>
      </trkpt>
      <trkpt lat="49.42989" lon="6.50029">
        <ele>326.6</ele>
        <time>2020-06-26T17:48:19Z</time>
      </trkpt>
      <trkpt lat="49.4298" lon="6.50035">
        <ele>326.6</ele>
        <time>2020-06-26T17:48:20Z</time>
      </trkpt>
      <trkpt lat="49.4297" lon="6.5004">
        <ele>326.6</ele>
        <time>2020-06-26T17:48:21Z</time>
      </trkpt>
      <trkpt lat="49.42961" lon="6.50045">
        <ele>326.6</ele>
        <time>2020-06-26T17:48:22Z</time>
      </trkpt>
      <trkpt lat="49.42952" lon="6.5005">
        <ele>326.6</ele>
        <time>2020-06-26T17:48:23Z</time>
      </trkpt>
      <trkpt lat="49.42943" lon="6.50054">
        <ele>326.7</ele>
        <time>2020-06-26T17:48:24Z</time>
      </trkpt>
      <trkpt lat="49.42934" lon="6.50059">
        <ele>326.8</ele>
        <time>2020-06-26T17:48:25Z</time>
      </trkpt>
      <trkpt lat="49.42926" lon="6.50064">
        <ele>326.9</ele>
        <time>2020-06-26T17:48:26Z</time>
      </trkpt>
      <trkpt lat="49.42917" lon="6.50069">
        <ele>327</ele>
        <time>2020-06-26T17:48:27Z</time>
      </trkpt>
      <trkpt lat="49.42909" lon="6.50073">
        <ele>327.1</ele>
        <time>2020-06-26T17:48:28Z</time>
      </trkpt>
      <trkpt lat="49.42901" lon="6.50078">
        <ele>327.2</ele>
        <time>2020-06-26T17:48:29Z</time>
      </trkpt>
      <trkpt lat="49.42893" lon="6.50083">
        <ele>327.3</ele>
        <time>2020-06-26T17:48:30Z</time>
      </trkpt>
      <trkpt lat="49.42885" lon="6.50087">
        <ele>327.4</ele>
        <time>2020-06-26T17:48:31Z</time>
      </trkpt>
      <trkpt lat="49.42877" lon="6.50091">
        <ele>327.5</ele>
        <time>2020-06-26T17:48:32Z</time>
      </trkpt>
      <trkpt lat="49.4287" lon="6.50097">
        <ele>327.6</ele>
        <time>2020-06-26T17:48:33Z</time>
      </trkpt>
      <trkpt lat="49.42863" lon="6.50103">
        <ele>327.7</ele>
        <time>2020-06-26T17:48:34Z</time>
      </trkpt>
      <trkpt lat="49.42855" lon="6.50109">
        <ele>327.8</ele>
        <time>2020-06-26T17:48:35Z</time>
      </trkpt>
      <trkpt lat="49.42848" lon="6.50114">
        <ele>327.9</ele>
        <time>2020-06-26T17:48:36Z</time>
      </trkpt>
      <trkpt lat="49.4284" lon="6.5012">
        <ele>328</ele>
        <time>2020-06-26T17:48:37Z</time>
      </trkpt>
      <trkpt lat="49.42833" lon="6.50126">
        <ele>328.1</ele>
        <time>2020-06-26T17:48:38Z</time>
      </trkpt>
      <trkpt lat="49.42826" lon="6.50132">
        <ele>328.2</ele>
        <time>2020-06-26T17:48:39Z</time>
      </trkpt>
      <trkpt lat="49.42818" lon="6.50137">
        <ele>328.3</ele>
        <time>2020-06-26T17:48:40Z</time>
      </trkpt>
      <trkpt lat="49.42811" lon="6.50142">
        <ele>328.6</ele>
        <time>2020-06-26T17:48:41Z</time>
      </trkpt>
      <trkpt lat="49.42804" lon="6.50147">
        <ele>328.8</ele>
        <time>2020-06-26T17:48:42Z</time>
      </trkpt>
      <trkpt lat="49.42797" lon="6.50153">
        <ele>329</ele>
        <time>2020-06-26T17:48:43Z</time>
      </trkpt>
      <trkpt lat="49.4279" lon="6.50159">
        <ele>329.2</ele>
        <time>2020-06-26T17:48:44Z</time>
      </trkpt>
      <trkpt lat="49.42783" lon="6.50164">
        <ele>329.2</ele>
        <time>2020-06-26T17:48:45Z</time>
      </trkpt>
      <trkpt lat="49.42777" lon="6.50168">
        <ele>329.3</ele>
        <time>2020-06-26T17:48:46Z</time>
      </trkpt>
      <trkpt lat="49.4277" lon="6.50173">
        <ele>329.3</ele>
        <time>2020-06-26T17:48:47Z</time>
      </trkpt>
      <trkpt lat="49.42763" lon="6.50177">
        <ele>329.3</ele>
        <time>2020-06-26T17:48:48Z</time>
      </trkpt>
      <trkpt lat="49.42756" lon="6.50181">
        <ele>329.3</ele>
        <time>2020-06-26T17:48:49Z</time>
      </trkpt>
      <trkpt lat="49.42749" lon="6.50186">
        <ele>329.3</ele>
        <time>2020-06-26T17:48:50Z</time>
      </trkpt>
      <trkpt lat="49.42742" lon="6.50191">
        <ele>329.3</ele>
        <time>2020-06-26T17:48:51Z</time>
      </trkpt>
      <trkpt lat="49.42736" lon="6.50196">
        <ele>329.3</ele>
        <time>2020-06-26T17:48:52Z</time>
      </trkpt>
      <trkpt lat="49.42729" lon="6.502">
        <ele>329.3</ele>
        <time>2020-06-26T17:48:53Z</time>
      </trkpt>
      <trkpt lat="49.42721" lon="6.50203">
        <ele>329.3</ele>
        <time>2020-06-26T17:48:54Z</time>
      </trkpt>
      <trkpt lat="49.42714" lon="6.50206">
        <ele>329.3</ele>
        <time>2020-06-26T17:48:55Z</time>
      </trkpt>
      <trkpt lat="49.42707" lon="6.50209">
        <ele>329.3</ele>
        <time>2020-06-26T17:48:56Z</time>
      </trkpt>
      <trkpt lat="49.427" lon="6.50213">
        <ele>329.3</ele>
        <time>2020-06-26T17:48:57Z</time>
      </trkpt>
      <trkpt lat="49.42694" lon="6.50215">
        <ele>329.3</ele>
        <time>2020-06-26T17:48:58Z</time>
      </trkpt>
      <trkpt lat="49.42687" lon="6.50218">
        <ele>329.3</ele>
        <time>2020-06-26T17:48:59Z</time>
      </trkpt>
      <trkpt lat="49.42681" lon="6.50221">
        <ele>329.1</ele>
        <time>2020-06-26T17:49:00Z</time>
      </trkpt>
      <trkpt lat="49.42676" lon="6.50225">
        <ele>328.9</ele>
        <time>2020-06-26T17:49:01Z</time>
      </trkpt>
      <trkpt lat="49.42669" lon="6.50228">
        <ele>328.7</ele>
        <time>2020-06-26T17:49:02Z</time>
      </trkpt>
      <trkpt lat="49.42663" lon="6.50231">
        <ele>328.5</ele>
        <time>2020-06-26T17:49:03Z</time>
      </trkpt>
      <trkpt lat="49.42657" lon="6.50235">
        <ele>328.2</ele>
        <time>2020-06-26T17:49:04Z</time>
      </trkpt>
      <trkpt lat="49.42651" lon="6.50238">
        <ele>328</ele>
        <time>2020-06-26T17:49:05Z</time>
      </trkpt>
      <trkpt lat="49.42645" lon="6.50242">
        <ele>327.7</ele>
        <time>2020-06-26T17:49:06Z</time>
      </trkpt>
      <trkpt lat="49.42638" lon="6.50246">
        <ele>327.4</ele>
        <time>2020-06-26T17:49:07Z</time>
      </trkpt>
      <trkpt lat="49.42632" lon="6.50251">
        <ele>327</ele>
        <time>2020-06-26T17:49:08Z</time>
      </trkpt>
      <trkpt lat="49.42626" lon="6.50256">
        <ele>326.7</ele>
        <time>2020-06-26T17:49:09Z</time>
      </trkpt>
      <trkpt lat="49.42619" lon="6.50261">
        <ele>326.2</ele>
        <time>2020-06-26T17:49:10Z</time>
      </trkpt>
      <trkpt lat="49.42612" lon="6.50268">
        <ele>325.8</ele>
        <time>2020-06-26T17:49:11Z</time>
      </trkpt>
      <trkpt lat="49.42606" lon="6.50275">
        <ele>325.5</ele>
        <time>2020-06-26T17:49:12Z</time>
      </trkpt>
      <trkpt lat="49.42599" lon="6.50283">
        <ele>325.1</ele>
        <time>2020-06-26T17:49:13Z</time>
      </trkpt>
      <trkpt lat="49.42593" lon="6.50291">
        <ele>324.7</ele>
        <time>2020-06-26T17:49:14Z</time>
      </trkpt>
      <trkpt lat="49.42587" lon="6.50299">
        <ele>324.3</ele>
        <time>2020-06-26T17:49:15Z</time>
      </trkpt>
      <trkpt lat="49.42581" lon="6.50307">
        <ele>324</ele>
        <time>2020-06-26T17:49:16Z</time>
      </trkpt>
      <trkpt lat="49.42575" lon="6.50316">
        <ele>323.7</ele>
        <time>2020-06-26T17:49:17Z</time>
      </trkpt>
      <trkpt lat="49.42569" lon="6.50326">
        <ele>323.4</ele>
        <time>2020-06-26T17:49:18Z</time>
      </trkpt>
      <trkpt lat="49.42564" lon="6.50336">
        <ele>323.2</ele>
        <time>2020-06-26T17:49:19Z</time>
      </trkpt>
      <trkpt lat="49.4256" lon="6.50346">
        <ele>322.9</ele>
        <time>2020-06-26T17:49:20Z</time>
      </trkpt>
      <trkpt lat="49.42556" lon="6.50357">
        <ele>322.6</ele>
        <time>2020-06-26T17:49:21Z</time>
      </trkpt>
      <trkpt lat="49.42551" lon="6.50367">
        <ele>322.4</ele>
        <time>2020-06-26T17:49:22Z</time>
      </trkpt>
      <trkpt lat="49.42547" lon="6.50378">
        <ele>322.1</ele>
        <time>2020-06-26T17:49:23Z</time>
      </trkpt>
      <trkpt lat="49.42542" lon="6.5039">
        <ele>321.9</ele>
        <time>2020-06-26T17:49:24Z</time>
      </trkpt>
      <trkpt lat="49.42536" lon="6.504">
        <ele>321.6</ele>
        <time>2020-06-26T17:49:25Z</time>
      </trkpt>
      <trkpt lat="49.42531" lon="6.5041">
        <ele>321.4</ele>
        <time>2020-06-26T17:49:26Z</time>
      </trkpt>
      <trkpt lat="49.42525" lon="6.50419">
        <ele>321.2</ele>
        <time>2020-06-26T17:49:27Z</time>
      </trkpt>
      <trkpt lat="49.42519" lon="6.50429">
        <ele>321</ele>
        <time>2020-06-26T17:49:28Z</time>
      </trkpt>
      <trkpt lat="49.42514" lon="6.50438">
        <ele>320.9</ele>
        <time>2020-06-26T17:49:29Z</time>
      </trkpt>
      <trkpt lat="49.42508" lon="6.50448">
        <ele>320.7</ele>
        <time>2020-06-26T17:49:30Z</time>
      </trkpt>
      <trkpt lat="49.42503" lon="6.50457">
        <ele>320.6</ele>
        <time>2020-06-26T17:49:31Z</time>
      </trkpt>
      <trkpt lat="49.42498" lon="6.50465">
        <ele>320.5</ele>
        <time>2020-06-26T17:49:32Z</time>
      </trkpt>
      <trkpt lat="49.42492" lon="6.50473">
        <ele>320.3</ele>
        <time>2020-06-26T17:49:33Z</time>
      </trkpt>
      <trkpt lat="49.42487" lon="6.50482">
        <ele>320.2</ele>
        <time>2020-06-26T17:49:34Z</time>
      </trkpt>
      <trkpt lat="49.42482" lon="6.5049">
        <ele>320.1</ele>
        <time>2020-06-26T17:49:35Z</time>
      </trkpt>
      <trkpt lat="49.42476" lon="6.50497">
        <ele>320</ele>
        <time>2020-06-26T17:49:36Z</time>
      </trkpt>
      <trkpt lat="49.42471" lon="6.50505">
        <ele>319.8</ele>
        <time>2020-06-26T17:49:37Z</time>
      </trkpt>
      <trkpt lat="49.42465" lon="6.50512">
        <ele>319.6</ele>
        <time>2020-06-26T17:49:38Z</time>
      </trkpt>
      <trkpt lat="49.42459" lon="6.5052">
        <ele>319.4</ele>
        <time>2020-06-26T17:49:39Z</time>
      </trkpt>
      <trkpt lat="49.42454" lon="6.50527">
        <ele>319.5</ele>
        <time>2020-06-26T17:49:40Z</time>
      </trkpt>
      <trkpt lat="49.42448" lon="6.50534">
        <ele>319.5</ele>
        <time>2020-06-26T17:49:41Z</time>
      </trkpt>
      <trkpt lat="49.42442" lon="6.5054">
        <ele>319.2</ele>
        <time>2020-06-26T17:49:42Z</time>
      </trkpt>
      <trkpt lat="49.42435" lon="6.50546">
        <ele>318.9</ele>
        <time>2020-06-26T17:49:43Z</time>
      </trkpt>
      <trkpt lat="49.42429" lon="6.50552">
        <ele>318.5</ele>
        <time>2020-06-26T17:49:44Z</time>
      </trkpt>
      <trkpt lat="49.42423" lon="6.50559">
        <ele>318.2</ele>
        <time>2020-06-26T17:49:45Z</time>
      </trkpt>
      <trkpt lat="49.42418" lon="6.50568">
        <ele>317.9</ele>
        <time>2020-06-26T17:49:46Z</time>
      </trkpt>
      <trkpt lat="49.42413" lon="6.50577">
        <ele>317.5</ele>
        <time>2020-06-26T17:49:47Z</time>
      </trkpt>
      <trkpt lat="49.42408" lon="6.50585">
        <ele>317.2</ele>
        <time>2020-06-26T17:49:48Z</time>
      </trkpt>
      <trkpt lat="49.42403" lon="6.50594">
        <ele>317</ele>
        <time>2020-06-26T17:49:49Z</time>
      </trkpt>
      <trkpt lat="49.42398" lon="6.50604">
        <ele>316.7</ele>
        <time>2020-06-26T17:49:50Z</time>
      </trkpt>
      <trkpt lat="49.42394" lon="6.50615">
        <ele>316.4</ele>
        <time>2020-06-26T17:49:51Z</time>
      </trkpt>
      <trkpt lat="49.4239" lon="6.50625">
        <ele>316.2</ele>
        <time>2020-06-26T17:49:52Z</time>
      </trkpt>
      <trkpt lat="49.42386" lon="6.50636">
        <ele>315.9</ele>
        <time>2020-06-26T17:49:53Z</time>
      </trkpt>
      <trkpt lat="49.42381" lon="6.50647">
        <ele>315.7</ele>
        <time>2020-06-26T17:49:54Z</time>
      </trkpt>
      <trkpt lat="49.42377" lon="6.50657">
        <ele>315.5</ele>
        <time>2020-06-26T17:49:55Z</time>
      </trkpt>
      <trkpt lat="49.42373" lon="6.50667">
        <ele>315.3</ele>
        <time>2020-06-26T17:49:56Z</time>
      </trkpt>
      <trkpt lat="49.42369" lon="6.50678">
        <ele>315.1</ele>
        <time>2020-06-26T17:49:57Z</time>
      </trkpt>
      <trkpt lat="49.42365" lon="6.50688">
        <ele>314.9</ele>
        <time>2020-06-26T17:49:58Z</time>
      </trkpt>
      <trkpt lat="49.42361" lon="6.50698">
        <ele>314.7</ele>
        <time>2020-06-26T17:49:59Z</time>
      </trkpt>
      <trkpt lat="49.42357" lon="6.50708">
        <ele>314.6</ele>
        <time>2020-06-26T17:50:00Z</time>
      </trkpt>
      <trkpt lat="49.42354" lon="6.50719">
        <ele>314.4</ele>
        <time>2020-06-26T17:50:01Z</time>
      </trkpt>
      <trkpt lat="49.42351" lon="6.5073">
        <ele>314.2</ele>
        <time>2020-06-26T17:50:02Z</time>
      </trkpt>
      <trkpt lat="49.42348" lon="6.5074">
        <ele>314.1</ele>
        <time>2020-06-26T17:50:03Z</time>
      </trkpt>
      <trkpt lat="49.42346" lon="6.50751">
        <ele>314</ele>
        <time>2020-06-26T17:50:04Z</time>
      </trkpt>
      <trkpt lat="49.42343" lon="6.50761">
        <ele>313.9</ele>
        <time>2020-06-26T17:50:05Z</time>
      </trkpt>
      <trkpt lat="49.4234" lon="6.50771">
        <ele>313.8</ele>
        <time>2020-06-26T17:50:06Z</time>
      </trkpt>
      <trkpt lat="49.42339" lon="6.50782">
        <ele>313.7</ele>
        <time>2020-06-26T17:50:07Z</time>
      </trkpt>
      <trkpt lat="49.42338" lon="6.50793">
        <ele>313.6</ele>
        <time>2020-06-26T17:50:08Z</time>
      </trkpt>
      <trkpt lat="49.42337" lon="6.50803">
        <ele>313.6</ele>
        <time>2020-06-26T17:50:09Z</time>
      </trkpt>
      <trkpt lat="49.42336" lon="6.50815">
        <ele>313.5</ele>
        <time>2020-06-26T17:50:10Z</time>
      </trkpt>
      <trkpt lat="49.42335" lon="6.50826">
        <ele>313.5</ele>
        <time>2020-06-26T17:50:11Z</time>
      </trkpt>
      <trkpt lat="49.42335" lon="6.50837">
        <ele>313.4</ele>
        <time>2020-06-26T17:50:12Z</time>
      </trkpt>
      <trkpt lat="49.42334" lon="6.50849">
        <ele>313.4</ele>
        <time>2020-06-26T17:50:13Z</time>
      </trkpt>
      <trkpt lat="49.42334" lon="6.5086">
        <ele>313.3</ele>
        <time>2020-06-26T17:50:14Z</time>
      </trkpt>
      <trkpt lat="49.42333" lon="6.50871">
        <ele>313.3</ele>
        <time>2020-06-26T17:50:15Z</time>
      </trkpt>
      <trkpt lat="49.42333" lon="6.50882">
        <ele>313.2</ele>
        <time>2020-06-26T17:50:16Z</time>
      </trkpt>
      <trkpt lat="49.42332" lon="6.50893">
        <ele>313.2</ele>
        <time>2020-06-26T17:50:17Z</time>
      </trkpt>
      <trkpt lat="49.42332" lon="6.50904">
        <ele>313.1</ele>
        <time>2020-06-26T17:50:18Z</time>
      </trkpt>
      <trkpt lat="49.42331" lon="6.50915">
        <ele>313</ele>
        <time>2020-06-26T17:50:19Z</time>
      </trkpt>
      <trkpt lat="49.42331" lon="6.50926">
        <ele>312.9</ele>
        <time>2020-06-26T17:50:20Z</time>
      </trkpt>
      <trkpt lat="49.4233" lon="6.50937">
        <ele>312.8</ele>
        <time>2020-06-26T17:50:21Z</time>
      </trkpt>
      <trkpt lat="49.42331" lon="6.50947">
        <ele>312.8</ele>
        <time>2020-06-26T17:50:22Z</time>
      </trkpt>
      <trkpt lat="49.42331" lon="6.50958">
        <ele>312.8</ele>
        <time>2020-06-26T17:50:23Z</time>
      </trkpt>
      <trkpt lat="49.42332" lon="6.50968">
        <ele>312.7</ele>
        <time>2020-06-26T17:50:24Z</time>
      </trkpt>
      <trkpt lat="49.42332" lon="6.50979">
        <ele>312.7</ele>
        <time>2020-06-26T17:50:25Z</time>
      </trkpt>
      <trkpt lat="49.42332" lon="6.5099">
        <ele>312.6</ele>
        <time>2020-06-26T17:50:26Z</time>
      </trkpt>
      <trkpt lat="49.42332" lon="6.51">
        <ele>312.5</ele>
        <time>2020-06-26T17:50:27Z</time>
      </trkpt>
      <trkpt lat="49.42332" lon="6.51011">
        <ele>312.4</ele>
        <time>2020-06-26T17:50:28Z</time>
      </trkpt>
      <trkpt lat="49.42332" lon="6.51022">
        <ele>312.4</ele>
        <time>2020-06-26T17:50:29Z</time>
      </trkpt>
      <trkpt lat="49.42332" lon="6.51033">
        <ele>312.3</ele>
        <time>2020-06-26T17:50:30Z</time>
      </trkpt>
      <trkpt lat="49.42331" lon="6.51044">
        <ele>312.2</ele>
        <time>2020-06-26T17:50:31Z</time>
      </trkpt>
      <trkpt lat="49.42329" lon="6.51054">
        <ele>312.2</ele>
        <time>2020-06-26T17:50:32Z</time>
      </trkpt>
      <trkpt lat="49.42327" lon="6.51065">
        <ele>312.1</ele>
        <time>2020-06-26T17:50:33Z</time>
      </trkpt>
      <trkpt lat="49.42325" lon="6.51075">
        <ele>312.1</ele>
        <time>2020-06-26T17:50:34Z</time>
      </trkpt>
      <trkpt lat="49.42322" lon="6.51086">
        <ele>312</ele>
        <time>2020-06-26T17:50:35Z</time>
      </trkpt>
      <trkpt lat="49.42319" lon="6.51096">
        <ele>311.9</ele>
        <time>2020-06-26T17:50:36Z</time>
      </trkpt>
      <trkpt lat="49.42315" lon="6.51105">
        <ele>311.9</ele>
        <time>2020-06-26T17:50:37Z</time>
      </trkpt>
      <trkpt lat="49.42312" lon="6.51115">
        <ele>311.8</ele>
        <time>2020-06-26T17:50:38Z</time>
      </trkpt>
      <trkpt lat="49.42308" lon="6.51125">
        <ele>311.7</ele>
        <time>2020-06-26T17:50:39Z</time>
      </trkpt>
      <trkpt lat="49.42304" lon="6.51134">
        <ele>311.7</ele>
        <time>2020-06-26T17:50:40Z</time>
      </trkpt>
      <trkpt lat="49.423" lon="6.51144">
        <ele>311.6</ele>
        <time>2020-06-26T17:50:41Z</time>
      </trkpt>
      <trkpt lat="49.42297" lon="6.51153">
        <ele>311.6</ele>
        <time>2020-06-26T17:50:42Z</time>
      </trkpt>
      <trkpt lat="49.42293" lon="6.51163">
        <ele>311.6</ele>
        <time>2020-06-26T17:50:43Z</time>
      </trkpt>
      <trkpt lat="49.42289" lon="6.51172">
        <ele>311.6</ele>
        <time>2020-06-26T17:50:44Z</time>
      </trkpt>
      <trkpt lat="49.42285" lon="6.51181">
        <ele>311.6</ele>
        <time>2020-06-26T17:50:45Z</time>
      </trkpt>
      <trkpt lat="49.42281" lon="6.5119">
        <ele>311.5</ele>
        <time>2020-06-26T17:50:46Z</time>
      </trkpt>
      <trkpt lat="49.42278" lon="6.51199">
        <ele>311.5</ele>
        <time>2020-06-26T17:50:47Z</time>
      </trkpt>
      <trkpt lat="49.42274" lon="6.51208">
        <ele>311.5</ele>
        <time>2020-06-26T17:50:48Z</time>
      </trkpt>
      <trkpt lat="49.4227" lon="6.51217">
        <ele>311.5</ele>
        <time>2020-06-26T17:50:49Z</time>
      </trkpt>
      <trkpt lat="49.42267" lon="6.51226">
        <ele>311.4</ele>
        <time>2020-06-26T17:50:50Z</time>
      </trkpt>
      <trkpt lat="49.42263" lon="6.51235">
        <ele>311.4</ele>
        <time>2020-06-26T17:50:51Z</time>
      </trkpt>
      <trkpt lat="49.4226" lon="6.51244">
        <ele>311.4</ele>
        <time>2020-06-26T17:50:52Z</time>
      </trkpt>
      <trkpt lat="49.42256" lon="6.51253">
        <ele>311.4</ele>
        <time>2020-06-26T17:50:53Z</time>
      </trkpt>
      <trkpt lat="49.42252" lon="6.51262">
        <ele>311.5</ele>
        <time>2020-06-26T17:50:54Z</time>
      </trkpt>
      <trkpt lat="49.42249" lon="6.51271">
        <ele>311.5</ele>
        <time>2020-06-26T17:50:55Z</time>
      </trkpt>
      <trkpt lat="49.42246" lon="6.51282">
        <ele>311.6</ele>
        <time>2020-06-26T17:50:56Z</time>
      </trkpt>
      <trkpt lat="49.42242" lon="6.51291">
        <ele>311.6</ele>
        <time>2020-06-26T17:50:57Z</time>
      </trkpt>
      <trkpt lat="49.42238" lon="6.513">
        <ele>311.7</ele>
        <time>2020-06-26T17:50:58Z</time>
      </trkpt>
      <trkpt lat="49.42235" lon="6.51308">
        <ele>311.8</ele>
        <time>2020-06-26T17:50:59Z</time>
      </trkpt>
      <trkpt lat="49.42231" lon="6.51317">
        <ele>311.8</ele>
        <time>2020-06-26T17:51:00Z</time>
      </trkpt>
      <trkpt lat="49.42227" lon="6.51325">
        <ele>311.9</ele>
        <time>2020-06-26T17:51:01Z</time>
      </trkpt>
      <trkpt lat="49.42223" lon="6.51333">
        <ele>312</ele>
        <time>2020-06-26T17:51:02Z</time>
      </trkpt>
      <trkpt lat="49.42219" lon="6.51341">
        <ele>312</ele>
        <time>2020-06-26T17:51:03Z</time>
      </trkpt>
      <trkpt lat="49.42216" lon="6.51349">
        <ele>312.1</ele>
        <time>2020-06-26T17:51:04Z</time>
      </trkpt>
      <trkpt lat="49.42213" lon="6.51357">
        <ele>312.2</ele>
        <time>2020-06-26T17:51:05Z</time>
      </trkpt>
      <trkpt lat="49.4221" lon="6.51365">
        <ele>312.2</ele>
        <time>2020-06-26T17:51:06Z</time>
      </trkpt>
      <trkpt lat="49.42206" lon="6.51372">
        <ele>312.3</ele>
        <time>2020-06-26T17:51:07Z</time>
      </trkpt>
      <trkpt lat="49.42205" lon="6.51381">
        <ele>312.4</ele>
        <time>2020-06-26T17:51:08Z</time>
      </trkpt>
      <trkpt lat="49.42204" lon="6.5139">
        <ele>312.4</ele>
        <time>2020-06-26T17:51:09Z</time>
      </trkpt>
      <trkpt lat="49.42205" lon="6.51398">
        <ele>312.5</ele>
        <time>2020-06-26T17:51:10Z</time>
      </trkpt>
      <trkpt lat="49.42206" lon="6.51406">
        <ele>312.5</ele>
        <time>2020-06-26T17:51:11Z</time>
      </trkpt>
      <trkpt lat="49.42209" lon="6.51413">
        <ele>312.5</ele>
        <time>2020-06-26T17:51:12Z</time>
      </trkpt>
      <trkpt lat="49.42213" lon="6.5142">
        <ele>312.4</ele>
        <time>2020-06-26T17:51:13Z</time>
      </trkpt>
      <trkpt lat="49.42216" lon="6.51426">
        <ele>312.3</ele>
        <time>2020-06-26T17:51:14Z</time>
      </trkpt>
      <trkpt lat="49.4222" lon="6.51432">
        <ele>312.1</ele>
        <time>2020-06-26T17:51:15Z</time>
      </trkpt>
      <trkpt lat="49.42224" lon="6.51438">
        <ele>312</ele>
        <time>2020-06-26T17:51:16Z</time>
      </trkpt>
      <trkpt lat="49.42227" lon="6.51442">
        <ele>311.8</ele>
        <time>2020-06-26T17:51:17Z</time>
      </trkpt>
      <trkpt lat="49.4223" lon="6.51448">
        <ele>311.6</ele>
        <time>2020-06-26T17:51:18Z</time>
      </trkpt>
      <trkpt lat="49.42234" lon="6.51453">
        <ele>311.4</ele>
        <time>2020-06-26T17:51:19Z</time>
      </trkpt>
      <trkpt lat="49.42238" lon="6.51458">
        <ele>311.1</ele>
        <time>2020-06-26T17:51:20Z</time>
      </trkpt>
      <trkpt lat="49.42241" lon="6.51464">
        <ele>310.8</ele>
        <time>2020-06-26T17:51:21Z</time>
      </trkpt>
      <trkpt lat="49.42245" lon="6.5147">
        <ele>310.5</ele>
        <time>2020-06-26T17:51:22Z</time>
      </trkpt>
      <trkpt lat="49.4225" lon="6.51476">
        <ele>310</ele>
        <time>2020-06-26T17:51:23Z</time>
      </trkpt>
      <trkpt lat="49.42254" lon="6.51484">
        <ele>309.6</ele>
        <time>2020-06-26T17:51:24Z</time>
      </trkpt>
      <trkpt lat="49.42257" lon="6.51492">
        <ele>309</ele>
        <time>2020-06-26T17:51:25Z</time>
      </trkpt>
      <trkpt lat="49.42261" lon="6.515">
        <ele>308.4</ele>
        <time>2020-06-26T17:51:26Z</time>
      </trkpt>
      <trkpt lat="49.42265" lon="6.51509">
        <ele>307.8</ele>
        <time>2020-06-26T17:51:27Z</time>
      </trkpt>
      <trkpt lat="49.42269" lon="6.51518">
        <ele>307</ele>
        <time>2020-06-26T17:51:28Z</time>
      </trkpt>
      <trkpt lat="49.4227" lon="6.5153">
        <ele>306.2</ele>
        <time>2020-06-26T17:51:29Z</time>
      </trkpt>
      <trkpt lat="49.4227" lon="6.51541">
        <ele>305.2</ele>
        <time>2020-06-26T17:51:30Z</time>
      </trkpt>
      <trkpt lat="49.4227" lon="6.51554">
        <ele>304.2</ele>
        <time>2020-06-26T17:51:31Z</time>
      </trkpt>
      <trkpt lat="49.4227" lon="6.51566">
        <ele>303</ele>
        <time>2020-06-26T17:51:32Z</time>
      </trkpt>
      <trkpt lat="49.4227" lon="6.5158">
        <ele>301.9</ele>
        <time>2020-06-26T17:51:33Z</time>
      </trkpt>
      <trkpt lat="49.42269" lon="6.51593">
        <ele>300.8</ele>
        <time>2020-06-26T17:51:34Z</time>
      </trkpt>
      <trkpt lat="49.42268" lon="6.51606">
        <ele>299.7</ele>
        <time>2020-06-26T17:51:35Z</time>
      </trkpt>
      <trkpt lat="49.42267" lon="6.5162">
        <ele>298.7</ele>
        <time>2020-06-26T17:51:36Z</time>
      </trkpt>
      <trkpt lat="49.42266" lon="6.51633">
        <ele>297.8</ele>
        <time>2020-06-26T17:51:37Z</time>
      </trkpt>
      <trkpt lat="49.42264" lon="6.51646">
        <ele>297</ele>
        <time>2020-06-26T17:51:38Z</time>
      </trkpt>
      <trkpt lat="49.42262" lon="6.51658">
        <ele>296.3</ele>
        <time>2020-06-26T17:51:39Z</time>
      </trkpt>
      <trkpt lat="49.42259" lon="6.5167">
        <ele>295.6</ele>
        <time>2020-06-26T17:51:40Z</time>
      </trkpt>
      <trkpt lat="49.42256" lon="6.51682">
        <ele>295</ele>
        <time>2020-06-26T17:51:41Z</time>
      </trkpt>
      <trkpt lat="49.42252" lon="6.51693">
        <ele>294.3</ele>
        <time>2020-06-26T17:51:42Z</time>
      </trkpt>
      <trkpt lat="49.42247" lon="6.51704">
        <ele>293.7</ele>
        <time>2020-06-26T17:51:43Z</time>
      </trkpt>
      <trkpt lat="49.42242" lon="6.51715">
        <ele>292.9</ele>
        <time>2020-06-26T17:51:44Z</time>
      </trkpt>
      <trkpt lat="49.42236" lon="6.51725">
        <ele>292.2</ele>
        <time>2020-06-26T17:51:45Z</time>
      </trkpt>
      <trkpt lat="49.42229" lon="6.51735">
        <ele>291.3</ele>
        <time>2020-06-26T17:51:46Z</time>
      </trkpt>
      <trkpt lat="49.42221" lon="6.51741">
        <ele>290.4</ele>
        <time>2020-06-26T17:51:47Z</time>
      </trkpt>
      <trkpt lat="49.42214" lon="6.51748">
        <ele>289.6</ele>
        <time>2020-06-26T17:51:48Z</time>
      </trkpt>
      <trkpt lat="49.42207" lon="6.51756">
        <ele>288.8</ele>
        <time>2020-06-26T17:51:49Z</time>
      </trkpt>
      <trkpt lat="49.422" lon="6.51763">
        <ele>287.9</ele>
        <time>2020-06-26T17:51:50Z</time>
      </trkpt>
      <trkpt lat="49.42191" lon="6.51771">
        <ele>286.8</ele>
        <time>2020-06-26T17:51:51Z</time>
      </trkpt>
      <trkpt lat="49.42183" lon="6.51778">
        <ele>285.7</ele>
        <time>2020-06-26T17:51:52Z</time>
      </trkpt>
      <trkpt lat="49.42175" lon="6.51786">
        <ele>284.6</ele>
        <time>2020-06-26T17:51:53Z</time>
      </trkpt>
      <trkpt lat="49.42165" lon="6.51793">
        <ele>283.3</ele>
        <time>2020-06-26T17:51:54Z</time>
      </trkpt>
      <trkpt lat="49.42155" lon="6.518">
        <ele>282.1</ele>
        <time>2020-06-26T17:51:55Z</time>
      </trkpt>
      <trkpt lat="49.42144" lon="6.51808">
        <ele>281</ele>
        <time>2020-06-26T17:51:56Z</time>
      </trkpt>
      <trkpt lat="49.42133" lon="6.51814">
        <ele>280.1</ele>
        <time>2020-06-26T17:51:57Z</time>
      </trkpt>
      <trkpt lat="49.42122" lon="6.51821">
        <ele>279.5</ele>
        <time>2020-06-26T17:51:58Z</time>
      </trkpt>
      <trkpt lat="49.42111" lon="6.51829">
        <ele>279.1</ele>
        <time>2020-06-26T17:51:59Z</time>
      </trkpt>
      <trkpt lat="49.421" lon="6.51837">
        <ele>278.7</ele>
        <time>2020-06-26T17:52:00Z</time>
      </trkpt>
      <trkpt lat="49.4209" lon="6.51847">
        <ele>278.5</ele>
        <time>2020-06-26T17:52:01Z</time>
      </trkpt>
      <trkpt lat="49.42079" lon="6.51856">
        <ele>278.4</ele>
        <time>2020-06-26T17:52:02Z</time>
      </trkpt>
      <trkpt lat="49.42069" lon="6.51867">
        <ele>278.4</ele>
        <time>2020-06-26T17:52:03Z</time>
      </trkpt>
      <trkpt lat="49.42059" lon="6.51877">
        <ele>278.5</ele>
        <time>2020-06-26T17:52:04Z</time>
      </trkpt>
      <trkpt lat="49.42051" lon="6.51889">
        <ele>278.6</ele>
        <time>2020-06-26T17:52:05Z</time>
      </trkpt>
      <trkpt lat="49.42041" lon="6.51897">
        <ele>278.6</ele>
        <time>2020-06-26T17:52:06Z</time>
      </trkpt>
      <trkpt lat="49.42032" lon="6.51908">
        <ele>278.7</ele>
        <time>2020-06-26T17:52:07Z</time>
      </trkpt>
      <trkpt lat="49.42023" lon="6.51916">
        <ele>278.9</ele>
        <time>2020-06-26T17:52:08Z</time>
      </trkpt>
      <trkpt lat="49.42015" lon="6.51924">
        <ele>279.2</ele>
        <time>2020-06-26T17:52:09Z</time>
      </trkpt>
      <trkpt lat="49.42007" lon="6.51933">
        <ele>279.6</ele>
        <time>2020-06-26T17:52:10Z</time>
      </trkpt>
      <trkpt lat="49.42" lon="6.51941">
        <ele>279.8</ele>
        <time>2020-06-26T17:52:11Z</time>
      </trkpt>
      <trkpt lat="49.41993" lon="6.51947">
        <ele>280.1</ele>
        <time>2020-06-26T17:52:12Z</time>
      </trkpt>
      <trkpt lat="49.41986" lon="6.51952">
        <ele>280.4</ele>
        <time>2020-06-26T17:52:13Z</time>
      </trkpt>
      <trkpt lat="49.4198" lon="6.51958">
        <ele>280.6</ele>
        <time>2020-06-26T17:52:14Z</time>
      </trkpt>
      <trkpt lat="49.41974" lon="6.51962">
        <ele>280.8</ele>
        <time>2020-06-26T17:52:15Z</time>
      </trkpt>
      <trkpt lat="49.41968" lon="6.51967">
        <ele>281</ele>
        <time>2020-06-26T17:52:16Z</time>
      </trkpt>
      <trkpt lat="49.41963" lon="6.51971">
        <ele>281.1</ele>
        <time>2020-06-26T17:52:17Z</time>
      </trkpt>
      <trkpt lat="49.41957" lon="6.51977">
        <ele>281.3</ele>
        <time>2020-06-26T17:52:18Z</time>
      </trkpt>
      <trkpt lat="49.41952" lon="6.51983">
        <ele>281.4</ele>
        <time>2020-06-26T17:52:19Z</time>
      </trkpt>
      <trkpt lat="49.41947" lon="6.51986">
        <ele>281.6</ele>
        <time>2020-06-26T17:52:20Z</time>
      </trkpt>
      <trkpt lat="49.41943" lon="6.51991">
        <ele>281.6</ele>
        <time>2020-06-26T17:52:21Z</time>
      </trkpt>
      <trkpt lat="49.41938" lon="6.51995">
        <ele>281.7</ele>
        <time>2020-06-26T17:52:22Z</time>
      </trkpt>
      <trkpt lat="49.41934" lon="6.52">
        <ele>281.7</ele>
        <time>2020-06-26T17:52:23Z</time>
      </trkpt>
      <trkpt lat="49.41929" lon="6.52002">
        <ele>281.7</ele>
        <time>2020-06-26T17:52:24Z</time>
      </trkpt>
      <trkpt lat="49.41924" lon="6.52006">
        <ele>281.7</ele>
        <time>2020-06-26T17:52:25Z</time>
      </trkpt>
      <trkpt lat="49.4192" lon="6.52011">
        <ele>281.7</ele>
        <time>2020-06-26T17:52:26Z</time>
      </trkpt>
      <trkpt lat="49.41915" lon="6.52016">
        <ele>281.7</ele>
        <time>2020-06-26T17:52:27Z</time>
      </trkpt>
      <trkpt lat="49.41912" lon="6.52022">
        <ele>281.6</ele>
        <time>2020-06-26T17:52:28Z</time>
      </trkpt>
      <trkpt lat="49.41907" lon="6.52027">
        <ele>281.6</ele>
        <time>2020-06-26T17:52:29Z</time>
      </trkpt>
      <trkpt lat="49.41902" lon="6.52031">
        <ele>281.5</ele>
        <time>2020-06-26T17:52:30Z</time>
      </trkpt>
      <trkpt lat="49.41898" lon="6.52037">
        <ele>281.3</ele>
        <time>2020-06-26T17:52:31Z</time>
      </trkpt>
      <trkpt lat="49.41893" lon="6.52044">
        <ele>281.2</ele>
        <time>2020-06-26T17:52:32Z</time>
      </trkpt>
      <trkpt lat="49.41888" lon="6.5205">
        <ele>281</ele>
        <time>2020-06-26T17:52:33Z</time>
      </trkpt>
      <trkpt lat="49.41883" lon="6.52056">
        <ele>280.8</ele>
        <time>2020-06-26T17:52:34Z</time>
      </trkpt>
      <trkpt lat="49.41879" lon="6.52062">
        <ele>280.6</ele>
        <time>2020-06-26T17:52:35Z</time>
      </trkpt>
      <trkpt lat="49.41875" lon="6.52067">
        <ele>280.4</ele>
        <time>2020-06-26T17:52:36Z</time>
      </trkpt>
      <trkpt lat="49.4187" lon="6.52074">
        <ele>280.1</ele>
        <time>2020-06-26T17:52:37Z</time>
      </trkpt>
      <trkpt lat="49.41866" lon="6.52081">
        <ele>279.8</ele>
        <time>2020-06-26T17:52:38Z</time>
      </trkpt>
      <trkpt lat="49.41861" lon="6.52087">
        <ele>279.5</ele>
        <time>2020-06-26T17:52:39Z</time>
      </trkpt>
      <trkpt lat="49.41856" lon="6.52096">
        <ele>279.2</ele>
        <time>2020-06-26T17:52:40Z</time>
      </trkpt>
      <trkpt lat="49.41851" lon="6.52103">
        <ele>278.8</ele>
        <time>2020-06-26T17:52:41Z</time>
      </trkpt>
      <trkpt lat="49.41846" lon="6.52111">
        <ele>278.5</ele>
        <time>2020-06-26T17:52:42Z</time>
      </trkpt>
      <trkpt lat="49.41842" lon="6.52121">
        <ele>278.1</ele>
        <time>2020-06-26T17:52:43Z</time>
      </trkpt>
      <trkpt lat="49.41838" lon="6.52131">
        <ele>277.7</ele>
        <time>2020-06-26T17:52:44Z</time>
      </trkpt>
      <trkpt lat="49.41833" lon="6.52141">
        <ele>277.3</ele>
        <time>2020-06-26T17:52:45Z</time>
      </trkpt>
      <trkpt lat="49.41828" lon="6.5215">
        <ele>276.9</ele>
        <time>2020-06-26T17:52:46Z</time>
      </trkpt>
      <trkpt lat="49.41822" lon="6.52159">
        <ele>276.4</ele>
        <time>2020-06-26T17:52:47Z</time>
      </trkpt>
      <trkpt lat="49.41816" lon="6.52167">
        <ele>276.1</ele>
        <time>2020-06-26T17:52:48Z</time>
      </trkpt>
      <trkpt lat="49.4181" lon="6.52176">
        <ele>275.8</ele>
        <time>2020-06-26T17:52:49Z</time>
      </trkpt>
      <trkpt lat="49.41804" lon="6.52185">
        <ele>275.6</ele>
        <time>2020-06-26T17:52:50Z</time>
      </trkpt>
      <trkpt lat="49.41798" lon="6.52193">
        <ele>275.5</ele>
        <time>2020-06-26T17:52:51Z</time>
      </trkpt>
      <trkpt lat="49.41793" lon="6.52202">
        <ele>275.5</ele>
        <time>2020-06-26T17:52:52Z</time>
      </trkpt>
      <trkpt lat="49.41788" lon="6.5221">
        <ele>275.5</ele>
        <time>2020-06-26T17:52:53Z</time>
      </trkpt>
      <trkpt lat="49.41781" lon="6.52217">
        <ele>275.5</ele>
        <time>2020-06-26T17:52:54Z</time>
      </trkpt>
      <trkpt lat="49.41775" lon="6.52224">
        <ele>275.5</ele>
        <time>2020-06-26T17:52:55Z</time>
      </trkpt>
      <trkpt lat="49.41769" lon="6.52231">
        <ele>275.6</ele>
        <time>2020-06-26T17:52:56Z</time>
      </trkpt>
      <trkpt lat="49.41763" lon="6.52238">
        <ele>275.7</ele>
        <time>2020-06-26T17:52:57Z</time>
      </trkpt>
      <trkpt lat="49.41756" lon="6.52243">
        <ele>275.9</ele>
        <time>2020-06-26T17:52:58Z</time>
      </trkpt>
      <trkpt lat="49.4175" lon="6.52249">
        <ele>276.1</ele>
        <time>2020-06-26T17:52:59Z</time>
      </trkpt>
      <trkpt lat="49.41744" lon="6.52255">
        <ele>276.3</ele>
        <time>2020-06-26T17:53:00Z</time>
      </trkpt>
      <trkpt lat="49.41738" lon="6.5226">
        <ele>276.5</ele>
        <time>2020-06-26T17:53:01Z</time>
      </trkpt>
      <trkpt lat="49.41732" lon="6.52264">
        <ele>276.7</ele>
        <time>2020-06-26T17:53:02Z</time>
      </trkpt>
      <trkpt lat="49.41726" lon="6.52268">
        <ele>276.9</ele>
        <time>2020-06-26T17:53:03Z</time>
      </trkpt>
      <trkpt lat="49.4172" lon="6.52272">
        <ele>277.1</ele>
        <time>2020-06-26T17:53:04Z</time>
      </trkpt>
      <trkpt lat="49.41714" lon="6.52276">
        <ele>277.3</ele>
        <time>2020-06-26T17:53:05Z</time>
      </trkpt>
      <trkpt lat="49.41709" lon="6.52279">
        <ele>277.5</ele>
        <time>2020-06-26T17:53:06Z</time>
      </trkpt>
      <trkpt lat="49.41703" lon="6.52283">
        <ele>277.7</ele>
        <time>2020-06-26T17:53:07Z</time>
      </trkpt>
      <trkpt lat="49.41697" lon="6.52287">
        <ele>277.9</ele>
        <time>2020-06-26T17:53:08Z</time>
      </trkpt>
      <trkpt lat="49.41692" lon="6.52292">
        <ele>278.1</ele>
        <time>2020-06-26T17:53:09Z</time>
      </trkpt>
      <trkpt lat="49.41686" lon="6.52296">
        <ele>278.3</ele>
        <time>2020-06-26T17:53:10Z</time>
      </trkpt>
      <trkpt lat="49.41681" lon="6.523">
        <ele>278.4</ele>
        <time>2020-06-26T17:53:11Z</time>
      </trkpt>
      <trkpt lat="49.41675" lon="6.52303">
        <ele>278.6</ele>
        <time>2020-06-26T17:53:12Z</time>
      </trkpt>
      <trkpt lat="49.4167" lon="6.52308">
        <ele>278.8</ele>
        <time>2020-06-26T17:53:13Z</time>
      </trkpt>
      <trkpt lat="49.41664" lon="6.52311">
        <ele>279</ele>
        <time>2020-06-26T17:53:14Z</time>
      </trkpt>
      <trkpt lat="49.41659" lon="6.52314">
        <ele>279.1</ele>
        <time>2020-06-26T17:53:15Z</time>
      </trkpt>
      <trkpt lat="49.41654" lon="6.52316">
        <ele>279.3</ele>
        <time>2020-06-26T17:53:16Z</time>
      </trkpt>
      <trkpt lat="49.41649" lon="6.52318">
        <ele>279.5</ele>
        <time>2020-06-26T17:53:17Z</time>
      </trkpt>
      <trkpt lat="49.41644" lon="6.52322">
        <ele>279.6</ele>
        <time>2020-06-26T17:53:18Z</time>
      </trkpt>
      <trkpt lat="49.41639" lon="6.52325">
        <ele>279.8</ele>
        <time>2020-06-26T17:53:19Z</time>
      </trkpt>
      <trkpt lat="49.41634" lon="6.52329">
        <ele>280</ele>
        <time>2020-06-26T17:53:20Z</time>
      </trkpt>
      <trkpt lat="49.41629" lon="6.52333">
        <ele>280.1</ele>
        <time>2020-06-26T17:53:21Z</time>
      </trkpt>
      <trkpt lat="49.41624" lon="6.52338">
        <ele>280.2</ele>
        <time>2020-06-26T17:53:22Z</time>
      </trkpt>
      <trkpt lat="49.41618" lon="6.52343">
        <ele>280.3</ele>
        <time>2020-06-26T17:53:23Z</time>
      </trkpt>
      <trkpt lat="49.41613" lon="6.52347">
        <ele>280.4</ele>
        <time>2020-06-26T17:53:24Z</time>
      </trkpt>
      <trkpt lat="49.41607" lon="6.52349">
        <ele>280.5</ele>
        <time>2020-06-26T17:53:25Z</time>
      </trkpt>
      <trkpt lat="49.41602" lon="6.52352">
        <ele>280.5</ele>
        <time>2020-06-26T17:53:26Z</time>
      </trkpt>
      <trkpt lat="49.41597" lon="6.52358">
        <ele>280.6</ele>
        <time>2020-06-26T17:53:27Z</time>
      </trkpt>
      <trkpt lat="49.41592" lon="6.52361">
        <ele>280.6</ele>
        <time>2020-06-26T17:53:28Z</time>
      </trkpt>
      <trkpt lat="49.41586" lon="6.52365">
        <ele>280.7</ele>
        <time>2020-06-26T17:53:29Z</time>
      </trkpt>
      <trkpt lat="49.41581" lon="6.52369">
        <ele>280.7</ele>
        <time>2020-06-26T17:53:30Z</time>
      </trkpt>
      <trkpt lat="49.41576" lon="6.52373">
        <ele>280.8</ele>
        <time>2020-06-26T17:53:31Z</time>
      </trkpt>
      <trkpt lat="49.41571" lon="6.52376">
        <ele>280.8</ele>
        <time>2020-06-26T17:53:32Z</time>
      </trkpt>
      <trkpt lat="49.41566" lon="6.5238">
        <ele>280.9</ele>
        <time>2020-06-26T17:53:33Z</time>
      </trkpt>
      <trkpt lat="49.41561" lon="6.52383">
        <ele>280.9</ele>
        <time>2020-06-26T17:53:34Z</time>
      </trkpt>
      <trkpt lat="49.41556" lon="6.52387">
        <ele>281</ele>
        <time>2020-06-26T17:53:35Z</time>
      </trkpt>
      <trkpt lat="49.41551" lon="6.52392">
        <ele>281</ele>
        <time>2020-06-26T17:53:36Z</time>
      </trkpt>
      <trkpt lat="49.41546" lon="6.52395">
        <ele>281</ele>
        <time>2020-06-26T17:53:37Z</time>
      </trkpt>
      <trkpt lat="49.41541" lon="6.524">
        <ele>281.1</ele>
        <time>2020-06-26T17:53:38Z</time>
      </trkpt>
      <trkpt lat="49.41536" lon="6.52403">
        <ele>281.2</ele>
        <time>2020-06-26T17:53:39Z</time>
      </trkpt>
      <trkpt lat="49.41531" lon="6.52408">
        <ele>281.2</ele>
        <time>2020-06-26T17:53:40Z</time>
      </trkpt>
      <trkpt lat="49.41525" lon="6.52413">
        <ele>281.2</ele>
        <time>2020-06-26T17:53:41Z</time>
      </trkpt>
      <trkpt lat="49.4152" lon="6.52418">
        <ele>281.3</ele>
        <time>2020-06-26T17:53:42Z</time>
      </trkpt>
      <trkpt lat="49.41516" lon="6.52425">
        <ele>281.3</ele>
        <time>2020-06-26T17:53:43Z</time>
      </trkpt>
      <trkpt lat="49.41511" lon="6.52432">
        <ele>281.3</ele>
        <time>2020-06-26T17:53:44Z</time>
      </trkpt>
      <trkpt lat="49.41508" lon="6.52441">
        <ele>281.3</ele>
        <time>2020-06-26T17:53:45Z</time>
      </trkpt>
      <trkpt lat="49.41504" lon="6.52447">
        <ele>281.3</ele>
        <time>2020-06-26T17:53:46Z</time>
      </trkpt>
      <trkpt lat="49.415" lon="6.52454">
        <ele>281.2</ele>
        <time>2020-06-26T17:53:47Z</time>
      </trkpt>
      <trkpt lat="49.41497" lon="6.52462">
        <ele>281.1</ele>
        <time>2020-06-26T17:53:48Z</time>
      </trkpt>
      <trkpt lat="49.41493" lon="6.52469">
        <ele>281</ele>
        <time>2020-06-26T17:53:49Z</time>
      </trkpt>
      <trkpt lat="49.41489" lon="6.52476">
        <ele>280.9</ele>
        <time>2020-06-26T17:53:50Z</time>
      </trkpt>
      <trkpt lat="49.41486" lon="6.52484">
        <ele>280.8</ele>
        <time>2020-06-26T17:53:51Z</time>
      </trkpt>
      <trkpt lat="49.41483" lon="6.52492">
        <ele>280.7</ele>
        <time>2020-06-26T17:53:52Z</time>
      </trkpt>
      <trkpt lat="49.4148" lon="6.525">
        <ele>280.7</ele>
        <time>2020-06-26T17:53:53Z</time>
      </trkpt>
      <trkpt lat="49.41477" lon="6.52508">
        <ele>280.6</ele>
        <time>2020-06-26T17:53:54Z</time>
      </trkpt>
      <trkpt lat="49.41474" lon="6.52517">
        <ele>280.5</ele>
        <time>2020-06-26T17:53:55Z</time>
      </trkpt>
      <trkpt lat="49.41472" lon="6.52526">
        <ele>280.2</ele>
        <time>2020-06-26T17:53:56Z</time>
      </trkpt>
      <trkpt lat="49.41469" lon="6.52535">
        <ele>280</ele>
        <time>2020-06-26T17:53:57Z</time>
      </trkpt>
      <trkpt lat="49.41465" lon="6.52543">
        <ele>279.8</ele>
        <time>2020-06-26T17:53:58Z</time>
      </trkpt>
      <trkpt lat="49.41462" lon="6.52551">
        <ele>279.7</ele>
        <time>2020-06-26T17:53:59Z</time>
      </trkpt>
      <trkpt lat="49.41459" lon="6.52559">
        <ele>279.5</ele>
        <time>2020-06-26T17:54:00Z</time>
      </trkpt>
      <trkpt lat="49.41456" lon="6.52567">
        <ele>279.3</ele>
        <time>2020-06-26T17:54:01Z</time>
      </trkpt>
      <trkpt lat="49.41454" lon="6.52575">
        <ele>279.1</ele>
        <time>2020-06-26T17:54:02Z</time>
      </trkpt>
      <trkpt lat="49.41451" lon="6.52583">
        <ele>278.9</ele>
        <time>2020-06-26T17:54:03Z</time>
      </trkpt>
      <trkpt lat="49.41449" lon="6.52591">
        <ele>278.7</ele>
        <time>2020-06-26T17:54:04Z</time>
      </trkpt>
      <trkpt lat="49.41447" lon="6.526">
        <ele>278.5</ele>
        <time>2020-06-26T17:54:05Z</time>
      </trkpt>
      <trkpt lat="49.41445" lon="6.5261">
        <ele>278.3</ele>
        <time>2020-06-26T17:54:06Z</time>
      </trkpt>
      <trkpt lat="49.41442" lon="6.52619">
        <ele>278</ele>
        <time>2020-06-26T17:54:07Z</time>
      </trkpt>
      <trkpt lat="49.41438" lon="6.52628">
        <ele>277.7</ele>
        <time>2020-06-26T17:54:08Z</time>
      </trkpt>
      <trkpt lat="49.41435" lon="6.52638">
        <ele>277.4</ele>
        <time>2020-06-26T17:54:09Z</time>
      </trkpt>
      <trkpt lat="49.41431" lon="6.52648">
        <ele>277.1</ele>
        <time>2020-06-26T17:54:10Z</time>
      </trkpt>
      <trkpt lat="49.41429" lon="6.52659">
        <ele>276.8</ele>
        <time>2020-06-26T17:54:11Z</time>
      </trkpt>
      <trkpt lat="49.41426" lon="6.52669">
        <ele>276.5</ele>
        <time>2020-06-26T17:54:12Z</time>
      </trkpt>
      <trkpt lat="49.41423" lon="6.5268">
        <ele>276.1</ele>
        <time>2020-06-26T17:54:13Z</time>
      </trkpt>
      <trkpt lat="49.4142" lon="6.52691">
        <ele>275.8</ele>
        <time>2020-06-26T17:54:14Z</time>
      </trkpt>
      <trkpt lat="49.41417" lon="6.52701">
        <ele>275.4</ele>
        <time>2020-06-26T17:54:15Z</time>
      </trkpt>
      <trkpt lat="49.41414" lon="6.52712">
        <ele>275.1</ele>
        <time>2020-06-26T17:54:16Z</time>
      </trkpt>
      <trkpt lat="49.41411" lon="6.52722">
        <ele>274.8</ele>
        <time>2020-06-26T17:54:17Z</time>
      </trkpt>
      <trkpt lat="49.41408" lon="6.52733">
        <ele>274.5</ele>
        <time>2020-06-26T17:54:18Z</time>
      </trkpt>
      <trkpt lat="49.41406" lon="6.52743">
        <ele>274.3</ele>
        <time>2020-06-26T17:54:19Z</time>
      </trkpt>
      <trkpt lat="49.41403" lon="6.52755">
        <ele>274</ele>
        <time>2020-06-26T17:54:20Z</time>
      </trkpt>
      <trkpt lat="49.41401" lon="6.52767">
        <ele>273.7</ele>
        <time>2020-06-26T17:54:21Z</time>
      </trkpt>
      <trkpt lat="49.41401" lon="6.5278">
        <ele>273.4</ele>
        <time>2020-06-26T17:54:22Z</time>
      </trkpt>
      <trkpt lat="49.414" lon="6.52792">
        <ele>273.2</ele>
        <time>2020-06-26T17:54:23Z</time>
      </trkpt>
      <trkpt lat="49.41401" lon="6.52804">
        <ele>273</ele>
        <time>2020-06-26T17:54:24Z</time>
      </trkpt>
      <trkpt lat="49.41401" lon="6.52817">
        <ele>272.7</ele>
        <time>2020-06-26T17:54:25Z</time>
      </trkpt>
      <trkpt lat="49.41399" lon="6.52829">
        <ele>272.7</ele>
        <time>2020-06-26T17:54:26Z</time>
      </trkpt>
      <trkpt lat="49.41395" lon="6.52839">
        <ele>272.7</ele>
        <time>2020-06-26T17:54:27Z</time>
      </trkpt>
      <trkpt lat="49.41392" lon="6.5285">
        <ele>272.8</ele>
        <time>2020-06-26T17:54:28Z</time>
      </trkpt>
      <trkpt lat="49.41389" lon="6.5286">
        <ele>272.9</ele>
        <time>2020-06-26T17:54:29Z</time>
      </trkpt>
      <trkpt lat="49.41385" lon="6.5287">
        <ele>273.1</ele>
        <time>2020-06-26T17:54:30Z</time>
      </trkpt>
      <trkpt lat="49.41381" lon="6.52878">
        <ele>273.3</ele>
        <time>2020-06-26T17:54:31Z</time>
      </trkpt>
      <trkpt lat="49.41377" lon="6.52885">
        <ele>273.5</ele>
        <time>2020-06-26T17:54:32Z</time>
      </trkpt>
      <trkpt lat="49.41373" lon="6.52891">
        <ele>273.7</ele>
        <time>2020-06-26T17:54:33Z</time>
      </trkpt>
      <trkpt lat="49.41369" lon="6.52897">
        <ele>273.9</ele>
        <time>2020-06-26T17:54:34Z</time>
      </trkpt>
      <trkpt lat="49.41366" lon="6.52902">
        <ele>274.1</ele>
        <time>2020-06-26T17:54:35Z</time>
      </trkpt>
      <trkpt lat="49.41363" lon="6.52909">
        <ele>274.5</ele>
        <time>2020-06-26T17:54:36Z</time>
      </trkpt>
      <trkpt lat="49.4136" lon="6.52913">
        <ele>274.8</ele>
        <time>2020-06-26T17:54:37Z</time>
      </trkpt>
      <trkpt lat="49.41357" lon="6.52918">
        <ele>275.1</ele>
        <time>2020-06-26T17:54:38Z</time>
      </trkpt>
      <trkpt lat="49.41354" lon="6.52923">
        <ele>275.4</ele>
        <time>2020-06-26T17:54:39Z</time>
      </trkpt>
      <trkpt lat="49.41352" lon="6.52929">
        <ele>275.7</ele>
        <time>2020-06-26T17:54:40Z</time>
      </trkpt>
      <trkpt lat="49.4135" lon="6.52933">
        <ele>275.9</ele>
        <time>2020-06-26T17:54:41Z</time>
      </trkpt>
      <trkpt lat="49.41348" lon="6.52937">
        <ele>276.2</ele>
        <time>2020-06-26T17:54:42Z</time>
      </trkpt>
      <trkpt lat="49.41346" lon="6.52941">
        <ele>276.5</ele>
        <time>2020-06-26T17:54:43Z</time>
      </trkpt>
      <trkpt lat="49.41344" lon="6.52946">
        <ele>276.8</ele>
        <time>2020-06-26T17:54:44Z</time>
      </trkpt>
      <trkpt lat="49.41343" lon="6.52948">
        <ele>276.9</ele>
        <time>2020-06-26T17:54:45Z</time>
      </trkpt>
      <trkpt lat="49.41341" lon="6.52952">
        <ele>277.1</ele>
        <time>2020-06-26T17:54:46Z</time>
      </trkpt>
      <trkpt lat="49.4134" lon="6.52954">
        <ele>277.2</ele>
        <time>2020-06-26T17:54:47Z</time>
      </trkpt>
      <trkpt lat="49.41338" lon="6.52958">
        <ele>277.5</ele>
        <time>2020-06-26T17:54:48Z</time>
      </trkpt>
      <trkpt lat="49.41337" lon="6.52959">
        <ele>277.9</ele>
        <time>2020-06-26T17:54:49Z</time>
      </trkpt>
      <trkpt lat="49.41335" lon="6.52962">
        <ele>278.1</ele>
        <time>2020-06-26T17:54:50Z</time>
      </trkpt>
      <trkpt lat="49.41334" lon="6.52963">
        <ele>278.2</ele>
        <time>2020-06-26T17:54:51Z</time>
      </trkpt>
      <trkpt lat="49.41331" lon="6.52966">
        <ele>278.5</ele>
        <time>2020-06-26T17:54:52Z</time>
      </trkpt>
      <trkpt lat="49.41329" lon="6.52967">
        <ele>278.6</ele>
        <time>2020-06-26T17:54:53Z</time>
      </trkpt>
      <trkpt lat="49.41327" lon="6.5297">
        <ele>278.9</ele>
        <time>2020-06-26T17:54:54Z</time>
      </trkpt>
      <trkpt lat="49.41326" lon="6.52971">
        <ele>279</ele>
        <time>2020-06-26T17:54:55Z</time>
      </trkpt>
      <trkpt lat="49.41325" lon="6.52976">
        <ele>279.2</ele>
        <time>2020-06-26T17:54:56Z</time>
      </trkpt>
      <trkpt lat="49.41323" lon="6.5298">
        <ele>279.5</ele>
        <time>2020-06-26T17:54:57Z</time>
      </trkpt>
      <trkpt lat="49.41322" lon="6.52982">
        <ele>279.6</ele>
        <time>2020-06-26T17:54:58Z</time>
      </trkpt>
      <trkpt lat="49.4132" lon="6.52986">
        <ele>279.8</ele>
        <time>2020-06-26T17:54:59Z</time>
      </trkpt>
      <trkpt lat="49.41318" lon="6.52987">
        <ele>279.9</ele>
        <time>2020-06-26T17:55:00Z</time>
      </trkpt>
      <trkpt lat="49.41317" lon="6.52993">
        <ele>280.2</ele>
        <time>2020-06-26T17:55:01Z</time>
      </trkpt>
      <trkpt lat="49.41316" lon="6.52995">
        <ele>280.4</ele>
        <time>2020-06-26T17:55:02Z</time>
      </trkpt>
      <trkpt lat="49.41314" lon="6.52998">
        <ele>280.7</ele>
        <time>2020-06-26T17:55:03Z</time>
      </trkpt>
      <trkpt lat="49.41313" lon="6.53002">
        <ele>280.9</ele>
        <time>2020-06-26T17:55:04Z</time>
      </trkpt>
      <trkpt lat="49.41311" lon="6.53006">
        <ele>281.2</ele>
        <time>2020-06-26T17:55:05Z</time>
      </trkpt>
      <trkpt lat="49.4131" lon="6.53011">
        <ele>281.6</ele>
        <time>2020-06-26T17:55:06Z</time>
      </trkpt>
      <trkpt lat="49.41309" lon="6.53013">
        <ele>281.7</ele>
        <time>2020-06-26T17:55:07Z</time>
      </trkpt>
      <trkpt lat="49.41307" lon="6.53016">
        <ele>282</ele>
        <time>2020-06-26T17:55:08Z</time>
      </trkpt>
      <trkpt lat="49.41305" lon="6.53019">
        <ele>282.2</ele>
        <time>2020-06-26T17:55:09Z</time>
      </trkpt>
      <trkpt lat="49.41304" lon="6.53023">
        <ele>282.5</ele>
        <time>2020-06-26T17:55:10Z</time>
      </trkpt>
      <trkpt lat="49.41302" lon="6.53029">
        <ele>282.9</ele>
        <time>2020-06-26T17:55:11Z</time>
      </trkpt>
      <trkpt lat="49.41302" lon="6.5303">
        <ele>283</ele>
        <time>2020-06-26T17:55:12Z</time>
      </trkpt>
      <trkpt lat="49.41301" lon="6.53035">
        <ele>283.3</ele>
        <time>2020-06-26T17:55:13Z</time>
      </trkpt>
      <trkpt lat="49.413" lon="6.53037">
        <ele>283.4</ele>
        <time>2020-06-26T17:55:14Z</time>
      </trkpt>
      <trkpt lat="49.413" lon="6.53039">
        <ele>283.5</ele>
        <time>2020-06-26T17:55:15Z</time>
      </trkpt>
      <trkpt lat="49.413" lon="6.53042">
        <ele>283.7</ele>
        <time>2020-06-26T17:55:16Z</time>
      </trkpt>
      <trkpt lat="49.41301" lon="6.53044">
        <ele>283.8</ele>
        <time>2020-06-26T17:55:17Z</time>
      </trkpt>
      <trkpt lat="49.41301" lon="6.53046">
        <ele>283.9</ele>
        <time>2020-06-26T17:55:18Z</time>
      </trkpt>
      <trkpt lat="49.413" lon="6.5305">
        <ele>284.2</ele>
        <time>2020-06-26T17:55:19Z</time>
      </trkpt>
      <trkpt lat="49.41299" lon="6.53052">
        <ele>284.3</ele>
        <time>2020-06-26T17:55:20Z</time>
      </trkpt>
      <trkpt lat="49.41298" lon="6.53056">
        <ele>284.5</ele>
        <time>2020-06-26T17:55:21Z</time>
      </trkpt>
      <trkpt lat="49.41297" lon="6.53057">
        <ele>284.6</ele>
        <time>2020-06-26T17:55:22Z</time>
      </trkpt>
      <trkpt lat="49.41296" lon="6.53061">
        <ele>284.9</ele>
        <time>2020-06-26T17:55:23Z</time>
      </trkpt>
      <trkpt lat="49.41296" lon="6.53063">
        <ele>285</ele>
        <time>2020-06-26T17:55:24Z</time>
      </trkpt>
      <trkpt lat="49.41295" lon="6.53068">
        <ele>285.3</ele>
        <time>2020-06-26T17:55:25Z</time>
      </trkpt>
      <trkpt lat="49.41294" lon="6.53069">
        <ele>285.4</ele>
        <time>2020-06-26T17:55:26Z</time>
      </trkpt>
      <trkpt lat="49.41293" lon="6.53075">
        <ele>285.8</ele>
        <time>2020-06-26T17:55:27Z</time>
      </trkpt>
      <trkpt lat="49.41292" lon="6.53077">
        <ele>285.9</ele>
        <time>2020-06-26T17:55:28Z</time>
      </trkpt>
      <trkpt lat="49.41292" lon="6.53081">
        <ele>286.2</ele>
        <time>2020-06-26T17:55:29Z</time>
      </trkpt>
      <trkpt lat="49.41293" lon="6.53086">
        <ele>286.5</ele>
        <time>2020-06-26T17:55:30Z</time>
      </trkpt>
      <trkpt lat="49.41293" lon="6.53088">
        <ele>286.6</ele>
        <time>2020-06-26T17:55:31Z</time>
      </trkpt>
      <trkpt lat="49.41293" lon="6.53094">
        <ele>287</ele>
        <time>2020-06-26T17:55:32Z</time>
      </trkpt>
      <trkpt lat="49.41293" lon="6.53095">
        <ele>287.1</ele>
        <time>2020-06-26T17:55:33Z</time>
      </trkpt>
      <trkpt lat="49.41292" lon="6.53101">
        <ele>287.4</ele>
        <time>2020-06-26T17:55:34Z</time>
      </trkpt>
      <trkpt lat="49.41292" lon="6.53103">
        <ele>287.5</ele>
        <time>2020-06-26T17:55:35Z</time>
      </trkpt>
      <trkpt lat="49.41292" lon="6.53108">
        <ele>287.8</ele>
        <time>2020-06-26T17:55:36Z</time>
      </trkpt>
      <trkpt lat="49.41292" lon="6.53109">
        <ele>287.9</ele>
        <time>2020-06-26T17:55:37Z</time>
      </trkpt>
      <trkpt lat="49.41294" lon="6.53113">
        <ele>288.2</ele>
        <time>2020-06-26T17:55:38Z</time>
      </trkpt>
      <trkpt lat="49.41295" lon="6.53115">
        <ele>288.3</ele>
        <time>2020-06-26T17:55:39Z</time>
      </trkpt>
      <trkpt lat="49.41297" lon="6.53119">
        <ele>288.5</ele>
        <time>2020-06-26T17:55:40Z</time>
      </trkpt>
      <trkpt lat="49.41298" lon="6.53123">
        <ele>288.7</ele>
        <time>2020-06-26T17:55:41Z</time>
      </trkpt>
      <trkpt lat="49.41299" lon="6.53127">
        <ele>288.9</ele>
        <time>2020-06-26T17:55:42Z</time>
      </trkpt>
      <trkpt lat="49.41299" lon="6.53132">
        <ele>289.1</ele>
        <time>2020-06-26T17:55:43Z</time>
      </trkpt>
      <trkpt lat="49.41301" lon="6.53137">
        <ele>289.4</ele>
        <time>2020-06-26T17:55:44Z</time>
      </trkpt>
      <trkpt lat="49.41302" lon="6.53139">
        <ele>289.5</ele>
        <time>2020-06-26T17:55:45Z</time>
      </trkpt>
      <trkpt lat="49.41303" lon="6.53144">
        <ele>289.7</ele>
        <time>2020-06-26T17:55:46Z</time>
      </trkpt>
      <trkpt lat="49.41304" lon="6.53148">
        <ele>289.9</ele>
        <time>2020-06-26T17:55:47Z</time>
      </trkpt>
      <trkpt lat="49.41306" lon="6.53152">
        <ele>290.1</ele>
        <time>2020-06-26T17:55:48Z</time>
      </trkpt>
      <trkpt lat="49.41307" lon="6.53156">
        <ele>290.3</ele>
        <time>2020-06-26T17:55:49Z</time>
      </trkpt>
      <trkpt lat="49.41308" lon="6.5316">
        <ele>290.5</ele>
        <time>2020-06-26T17:55:50Z</time>
      </trkpt>
      <trkpt lat="49.41309" lon="6.53164">
        <ele>290.6</ele>
        <time>2020-06-26T17:55:51Z</time>
      </trkpt>
      <trkpt lat="49.4131" lon="6.53168">
        <ele>290.8</ele>
        <time>2020-06-26T17:55:52Z</time>
      </trkpt>
      <trkpt lat="49.4131" lon="6.53173">
        <ele>291</ele>
        <time>2020-06-26T17:55:53Z</time>
      </trkpt>
      <trkpt lat="49.4131" lon="6.53178">
        <ele>291.1</ele>
        <time>2020-06-26T17:55:54Z</time>
      </trkpt>
      <trkpt lat="49.41311" lon="6.53183">
        <ele>291.3</ele>
        <time>2020-06-26T17:55:55Z</time>
      </trkpt>
      <trkpt lat="49.41311" lon="6.53187">
        <ele>291.5</ele>
        <time>2020-06-26T17:55:56Z</time>
      </trkpt>
      <trkpt lat="49.41311" lon="6.53192">
        <ele>291.6</ele>
        <time>2020-06-26T17:55:57Z</time>
      </trkpt>
      <trkpt lat="49.41311" lon="6.53197">
        <ele>291.8</ele>
        <time>2020-06-26T17:55:58Z</time>
      </trkpt>
      <trkpt lat="49.41312" lon="6.53201">
        <ele>291.9</ele>
        <time>2020-06-26T17:55:59Z</time>
      </trkpt>
      <trkpt lat="49.41314" lon="6.53204">
        <ele>292.1</ele>
        <time>2020-06-26T17:56:00Z</time>
      </trkpt>
      <trkpt lat="49.41315" lon="6.5321">
        <ele>292.3</ele>
        <time>2020-06-26T17:56:01Z</time>
      </trkpt>
      <trkpt lat="49.41315" lon="6.53212">
        <ele>292.4</ele>
        <time>2020-06-26T17:56:02Z</time>
      </trkpt>
      <trkpt lat="49.41316" lon="6.53217">
        <ele>292.6</ele>
        <time>2020-06-26T17:56:03Z</time>
      </trkpt>
      <trkpt lat="49.41317" lon="6.53219">
        <ele>292.6</ele>
        <time>2020-06-26T17:56:04Z</time>
      </trkpt>
      <trkpt lat="49.41317" lon="6.53225">
        <ele>292.8</ele>
        <time>2020-06-26T17:56:05Z</time>
      </trkpt>
      <trkpt lat="49.41318" lon="6.53231">
        <ele>293</ele>
        <time>2020-06-26T17:56:06Z</time>
      </trkpt>
      <trkpt lat="49.41319" lon="6.53237">
        <ele>293.2</ele>
        <time>2020-06-26T17:56:07Z</time>
      </trkpt>
      <trkpt lat="49.4132" lon="6.53242">
        <ele>293.3</ele>
        <time>2020-06-26T17:56:08Z</time>
      </trkpt>
      <trkpt lat="49.41321" lon="6.53247">
        <ele>293.5</ele>
        <time>2020-06-26T17:56:09Z</time>
      </trkpt>
      <trkpt lat="49.41322" lon="6.53252">
        <ele>293.6</ele>
        <time>2020-06-26T17:56:10Z</time>
      </trkpt>
      <trkpt lat="49.41322" lon="6.53259">
        <ele>293.7</ele>
        <time>2020-06-26T17:56:11Z</time>
      </trkpt>
      <trkpt lat="49.41323" lon="6.53266">
        <ele>293.8</ele>
        <time>2020-06-26T17:56:12Z</time>
      </trkpt>
      <trkpt lat="49.41323" lon="6.53271">
        <ele>293.9</ele>
        <time>2020-06-26T17:56:13Z</time>
      </trkpt>
      <trkpt lat="49.41324" lon="6.53278">
        <ele>294.1</ele>
        <time>2020-06-26T17:56:14Z</time>
      </trkpt>
      <trkpt lat="49.41324" lon="6.53281">
        <ele>294.2</ele>
        <time>2020-06-26T17:56:15Z</time>
      </trkpt>
      <trkpt lat="49.41325" lon="6.53286">
        <ele>294.3</ele>
        <time>2020-06-26T17:56:16Z</time>
      </trkpt>
      <trkpt lat="49.41325" lon="6.53291">
        <ele>294.4</ele>
        <time>2020-06-26T17:56:17Z</time>
      </trkpt>
      <trkpt lat="49.41326" lon="6.53295">
        <ele>294.5</ele>
        <time>2020-06-26T17:56:18Z</time>
      </trkpt>
      <trkpt lat="49.41327" lon="6.53301">
        <ele>294.6</ele>
        <time>2020-06-26T17:56:19Z</time>
      </trkpt>
      <trkpt lat="49.41328" lon="6.53306">
        <ele>294.7</ele>
        <time>2020-06-26T17:56:20Z</time>
      </trkpt>
      <trkpt lat="49.41328" lon="6.53312">
        <ele>294.8</ele>
        <time>2020-06-26T17:56:21Z</time>
      </trkpt>
      <trkpt lat="49.41329" lon="6.53318">
        <ele>295</ele>
        <time>2020-06-26T17:56:22Z</time>
      </trkpt>
      <trkpt lat="49.4133" lon="6.53322">
        <ele>295.1</ele>
        <time>2020-06-26T17:56:23Z</time>
      </trkpt>
      <trkpt lat="49.41331" lon="6.53326">
        <ele>295.2</ele>
        <time>2020-06-26T17:56:24Z</time>
      </trkpt>
      <trkpt lat="49.41331" lon="6.53331">
        <ele>295.3</ele>
        <time>2020-06-26T17:56:25Z</time>
      </trkpt>
      <trkpt lat="49.41332" lon="6.53337">
        <ele>295.5</ele>
        <time>2020-06-26T17:56:26Z</time>
      </trkpt>
      <trkpt lat="49.41332" lon="6.53343">
        <ele>295.7</ele>
        <time>2020-06-26T17:56:27Z</time>
      </trkpt>
      <trkpt lat="49.41332" lon="6.5335">
        <ele>295.9</ele>
        <time>2020-06-26T17:56:28Z</time>
      </trkpt>
      <trkpt lat="49.41333" lon="6.53354">
        <ele>296</ele>
        <time>2020-06-26T17:56:29Z</time>
      </trkpt>
      <trkpt lat="49.41333" lon="6.5336">
        <ele>296.2</ele>
        <time>2020-06-26T17:56:30Z</time>
      </trkpt>
      <trkpt lat="49.41333" lon="6.53363">
        <ele>296.2</ele>
        <time>2020-06-26T17:56:31Z</time>
      </trkpt>
      <trkpt lat="49.41333" lon="6.53369">
        <ele>296.4</ele>
        <time>2020-06-26T17:56:32Z</time>
      </trkpt>
      <trkpt lat="49.41334" lon="6.53376">
        <ele>296.7</ele>
        <time>2020-06-26T17:56:33Z</time>
      </trkpt>
      <trkpt lat="49.41335" lon="6.53382">
        <ele>296.9</ele>
        <time>2020-06-26T17:56:34Z</time>
      </trkpt>
      <trkpt lat="49.41335" lon="6.53388">
        <ele>297.1</ele>
        <time>2020-06-26T17:56:35Z</time>
      </trkpt>
      <trkpt lat="49.41336" lon="6.53392">
        <ele>297.2</ele>
        <time>2020-06-26T17:56:36Z</time>
      </trkpt>
      <trkpt lat="49.41337" lon="6.53398">
        <ele>297.4</ele>
        <time>2020-06-26T17:56:37Z</time>
      </trkpt>
      <trkpt lat="49.41337" lon="6.53403">
        <ele>297.6</ele>
        <time>2020-06-26T17:56:38Z</time>
      </trkpt>
      <trkpt lat="49.41337" lon="6.53407">
        <ele>297.8</ele>
        <time>2020-06-26T17:56:39Z</time>
      </trkpt>
      <trkpt lat="49.41337" lon="6.53413">
        <ele>298</ele>
        <time>2020-06-26T17:56:40Z</time>
      </trkpt>
      <trkpt lat="49.41337" lon="6.53415">
        <ele>298</ele>
        <time>2020-06-26T17:56:41Z</time>
      </trkpt>
      <trkpt lat="49.41337" lon="6.53419">
        <ele>298.2</ele>
        <time>2020-06-26T17:56:42Z</time>
      </trkpt>
      <trkpt lat="49.41337" lon="6.53426">
        <ele>298.5</ele>
        <time>2020-06-26T17:56:43Z</time>
      </trkpt>
      <trkpt lat="49.41336" lon="6.53432">
        <ele>298.7</ele>
        <time>2020-06-26T17:56:44Z</time>
      </trkpt>
      <trkpt lat="49.41335" lon="6.53438">
        <ele>298.9</ele>
        <time>2020-06-26T17:56:45Z</time>
      </trkpt>
      <trkpt lat="49.41334" lon="6.53443">
        <ele>299.2</ele>
        <time>2020-06-26T17:56:46Z</time>
      </trkpt>
      <trkpt lat="49.41333" lon="6.53449">
        <ele>299.4</ele>
        <time>2020-06-26T17:56:47Z</time>
      </trkpt>
      <trkpt lat="49.41332" lon="6.53454">
        <ele>299.6</ele>
        <time>2020-06-26T17:56:48Z</time>
      </trkpt>
      <trkpt lat="49.41332" lon="6.53459">
        <ele>299.8</ele>
        <time>2020-06-26T17:56:49Z</time>
      </trkpt>
      <trkpt lat="49.41331" lon="6.53463">
        <ele>300</ele>
        <time>2020-06-26T17:56:50Z</time>
      </trkpt>
      <trkpt lat="49.41331" lon="6.53469">
        <ele>300.2</ele>
        <time>2020-06-26T17:56:51Z</time>
      </trkpt>
      <trkpt lat="49.41329" lon="6.53474">
        <ele>300.4</ele>
        <time>2020-06-26T17:56:52Z</time>
      </trkpt>
      <trkpt lat="49.41328" lon="6.5348">
        <ele>300.7</ele>
        <time>2020-06-26T17:56:53Z</time>
      </trkpt>
      <trkpt lat="49.41326" lon="6.53486">
        <ele>301</ele>
        <time>2020-06-26T17:56:54Z</time>
      </trkpt>
      <trkpt lat="49.41325" lon="6.53491">
        <ele>301.2</ele>
        <time>2020-06-26T17:56:55Z</time>
      </trkpt>
      <trkpt lat="49.41323" lon="6.53495">
        <ele>301.4</ele>
        <time>2020-06-26T17:56:56Z</time>
      </trkpt>
      <trkpt lat="49.41322" lon="6.53499">
        <ele>301.6</ele>
        <time>2020-06-26T17:56:57Z</time>
      </trkpt>
      <trkpt lat="49.4132" lon="6.53505">
        <ele>301.9</ele>
        <time>2020-06-26T17:56:58Z</time>
      </trkpt>
      <trkpt lat="49.41318" lon="6.5351">
        <ele>302.1</ele>
        <time>2020-06-26T17:56:59Z</time>
      </trkpt>
      <trkpt lat="49.41316" lon="6.53516">
        <ele>302.4</ele>
        <time>2020-06-26T17:57:00Z</time>
      </trkpt>
      <trkpt lat="49.41315" lon="6.53521">
        <ele>302.7</ele>
        <time>2020-06-26T17:57:01Z</time>
      </trkpt>
      <trkpt lat="49.41314" lon="6.53523">
        <ele>302.7</ele>
        <time>2020-06-26T17:57:02Z</time>
      </trkpt>
      <trkpt lat="49.41312" lon="6.53528">
        <ele>303</ele>
        <time>2020-06-26T17:57:03Z</time>
      </trkpt>
      <trkpt lat="49.41311" lon="6.53533">
        <ele>303.2</ele>
        <time>2020-06-26T17:57:04Z</time>
      </trkpt>
      <trkpt lat="49.41309" lon="6.53538">
        <ele>303.4</ele>
        <time>2020-06-26T17:57:05Z</time>
      </trkpt>
      <trkpt lat="49.41307" lon="6.53544">
        <ele>303.7</ele>
        <time>2020-06-26T17:57:06Z</time>
      </trkpt>
      <trkpt lat="49.41306" lon="6.53548">
        <ele>303.9</ele>
        <time>2020-06-26T17:57:07Z</time>
      </trkpt>
      <trkpt lat="49.41304" lon="6.53554">
        <ele>304.1</ele>
        <time>2020-06-26T17:57:08Z</time>
      </trkpt>
      <trkpt lat="49.41303" lon="6.53558">
        <ele>304.3</ele>
        <time>2020-06-26T17:57:09Z</time>
      </trkpt>
      <trkpt lat="49.41301" lon="6.53562">
        <ele>304.4</ele>
        <time>2020-06-26T17:57:10Z</time>
      </trkpt>
      <trkpt lat="49.41301" lon="6.53566">
        <ele>304.6</ele>
        <time>2020-06-26T17:57:11Z</time>
      </trkpt>
      <trkpt lat="49.41299" lon="6.53571">
        <ele>304.8</ele>
        <time>2020-06-26T17:57:12Z</time>
      </trkpt>
      <trkpt lat="49.41297" lon="6.53576">
        <ele>305</ele>
        <time>2020-06-26T17:57:13Z</time>
      </trkpt>
      <trkpt lat="49.41296" lon="6.53578">
        <ele>305.1</ele>
        <time>2020-06-26T17:57:14Z</time>
      </trkpt>
      <trkpt lat="49.41295" lon="6.53582">
        <ele>305.3</ele>
        <time>2020-06-26T17:57:15Z</time>
      </trkpt>
      <trkpt lat="49.41293" lon="6.53588">
        <ele>305.5</ele>
        <time>2020-06-26T17:57:16Z</time>
      </trkpt>
      <trkpt lat="49.41292" lon="6.53593">
        <ele>305.7</ele>
        <time>2020-06-26T17:57:17Z</time>
      </trkpt>
      <trkpt lat="49.4129" lon="6.53599">
        <ele>306</ele>
        <time>2020-06-26T17:57:18Z</time>
      </trkpt>
      <trkpt lat="49.41289" lon="6.53601">
        <ele>306.1</ele>
        <time>2020-06-26T17:57:19Z</time>
      </trkpt>
      <trkpt lat="49.41289" lon="6.53606">
        <ele>306.2</ele>
        <time>2020-06-26T17:57:20Z</time>
      </trkpt>
      <trkpt lat="49.41288" lon="6.5361">
        <ele>306.4</ele>
        <time>2020-06-26T17:57:21Z</time>
      </trkpt>
      <trkpt lat="49.41287" lon="6.53615">
        <ele>306.5</ele>
        <time>2020-06-26T17:57:22Z</time>
      </trkpt>
      <trkpt lat="49.41287" lon="6.53617">
        <ele>306.6</ele>
        <time>2020-06-26T17:57:23Z</time>
      </trkpt>
      <trkpt lat="49.41286" lon="6.53622">
        <ele>306.8</ele>
        <time>2020-06-26T17:57:24Z</time>
      </trkpt>
      <trkpt lat="49.41285" lon="6.53624">
        <ele>306.8</ele>
        <time>2020-06-26T17:57:25Z</time>
      </trkpt>
      <trkpt lat="49.41284" lon="6.53628">
        <ele>306.8</ele>
        <time>2020-06-26T17:57:26Z</time>
      </trkpt>
      <trkpt lat="49.41284" lon="6.53629">
        <ele>306.8</ele>
        <time>2020-06-26T17:57:27Z</time>
      </trkpt>
      <trkpt lat="49.41283" lon="6.5363">
        <ele>306.8</ele>
        <time>2020-06-26T17:57:28Z</time>
      </trkpt>
      <trkpt lat="49.41283" lon="6.53634">
        <ele>306.8</ele>
        <time>2020-06-26T17:57:29Z</time>
      </trkpt>
      <trkpt lat="49.41283" lon="6.53636">
        <ele>306.8</ele>
        <time>2020-06-26T17:57:30Z</time>
      </trkpt>
      <trkpt lat="49.41283" lon="6.53637">
        <ele>306.8</ele>
        <time>2020-06-26T17:57:31Z</time>
      </trkpt>
      <trkpt lat="49.41284" lon="6.53642">
        <ele>306.8</ele>
        <time>2020-06-26T17:57:32Z</time>
      </trkpt>
      <trkpt lat="49.41284" lon="6.53644">
        <ele>306.8</ele>
        <time>2020-06-26T17:57:33Z</time>
      </trkpt>
      <trkpt lat="49.41285" lon="6.53649">
        <ele>306.7</ele>
        <time>2020-06-26T17:57:34Z</time>
      </trkpt>
      <trkpt lat="49.41285" lon="6.53655">
        <ele>306.7</ele>
        <time>2020-06-26T17:57:35Z</time>
      </trkpt>
      <trkpt lat="49.41286" lon="6.53659">
        <ele>306.6</ele>
        <time>2020-06-26T17:57:36Z</time>
      </trkpt>
      <trkpt lat="49.41287" lon="6.53666">
        <ele>306.6</ele>
        <time>2020-06-26T17:57:37Z</time>
      </trkpt>
      <trkpt lat="49.41289" lon="6.53671">
        <ele>306.4</ele>
        <time>2020-06-26T17:57:38Z</time>
      </trkpt>
      <trkpt lat="49.4129" lon="6.53678">
        <ele>306.3</ele>
        <time>2020-06-26T17:57:39Z</time>
      </trkpt>
      <trkpt lat="49.41291" lon="6.53685">
        <ele>306.1</ele>
        <time>2020-06-26T17:57:40Z</time>
      </trkpt>
      <trkpt lat="49.41292" lon="6.5369">
        <ele>306</ele>
        <time>2020-06-26T17:57:41Z</time>
      </trkpt>
      <trkpt lat="49.41294" lon="6.53697">
        <ele>305.8</ele>
        <time>2020-06-26T17:57:42Z</time>
      </trkpt>
      <trkpt lat="49.41295" lon="6.53704">
        <ele>305.6</ele>
        <time>2020-06-26T17:57:43Z</time>
      </trkpt>
      <trkpt lat="49.41297" lon="6.53711">
        <ele>305.4</ele>
        <time>2020-06-26T17:57:44Z</time>
      </trkpt>
      <trkpt lat="49.41298" lon="6.5372">
        <ele>305.1</ele>
        <time>2020-06-26T17:57:45Z</time>
      </trkpt>
      <trkpt lat="49.41299" lon="6.53729">
        <ele>304.8</ele>
        <time>2020-06-26T17:57:46Z</time>
      </trkpt>
      <trkpt lat="49.413" lon="6.5374">
        <ele>304.4</ele>
        <time>2020-06-26T17:57:47Z</time>
      </trkpt>
      <trkpt lat="49.413" lon="6.53748">
        <ele>304.1</ele>
        <time>2020-06-26T17:57:48Z</time>
      </trkpt>
      <trkpt lat="49.41298" lon="6.53758">
        <ele>303.4</ele>
        <time>2020-06-26T17:57:49Z</time>
      </trkpt>
      <trkpt lat="49.41294" lon="6.53767">
        <ele>303.3</ele>
        <time>2020-06-26T17:57:50Z</time>
      </trkpt>
      <trkpt lat="49.41289" lon="6.53774">
        <ele>303.1</ele>
        <time>2020-06-26T17:57:51Z</time>
      </trkpt>
      <trkpt lat="49.41285" lon="6.53781">
        <ele>303</ele>
        <time>2020-06-26T17:57:52Z</time>
      </trkpt>
      <trkpt lat="49.4128" lon="6.53787">
        <ele>302.9</ele>
        <time>2020-06-26T17:57:53Z</time>
      </trkpt>
      <trkpt lat="49.41275" lon="6.53794">
        <ele>302.8</ele>
        <time>2020-06-26T17:57:54Z</time>
      </trkpt>
      <trkpt lat="49.41269" lon="6.53803">
        <ele>302.5</ele>
        <time>2020-06-26T17:57:55Z</time>
      </trkpt>
      <trkpt lat="49.41263" lon="6.53812">
        <ele>302.1</ele>
        <time>2020-06-26T17:57:56Z</time>
      </trkpt>
      <trkpt lat="49.41258" lon="6.53822">
        <ele>301.5</ele>
        <time>2020-06-26T17:57:57Z</time>
      </trkpt>
      <trkpt lat="49.41252" lon="6.53834">
        <ele>300.8</ele>
        <time>2020-06-26T17:57:58Z</time>
      </trkpt>
      <trkpt lat="49.41248" lon="6.53845">
        <ele>300.3</ele>
        <time>2020-06-26T17:57:59Z</time>
      </trkpt>
      <trkpt lat="49.41245" lon="6.53858">
        <ele>299.8</ele>
        <time>2020-06-26T17:58:00Z</time>
      </trkpt>
      <trkpt lat="49.41244" lon="6.5387">
        <ele>299.4</ele>
        <time>2020-06-26T17:58:01Z</time>
      </trkpt>
      <trkpt lat="49.41244" lon="6.53883">
        <ele>299</ele>
        <time>2020-06-26T17:58:02Z</time>
      </trkpt>
      <trkpt lat="49.41244" lon="6.53898">
        <ele>298.7</ele>
        <time>2020-06-26T17:58:03Z</time>
      </trkpt>
      <trkpt lat="49.41245" lon="6.53912">
        <ele>298.6</ele>
        <time>2020-06-26T17:58:04Z</time>
      </trkpt>
      <trkpt lat="49.41245" lon="6.53925">
        <ele>298.5</ele>
        <time>2020-06-26T17:58:05Z</time>
      </trkpt>
      <trkpt lat="49.41245" lon="6.53938">
        <ele>298.5</ele>
        <time>2020-06-26T17:58:06Z</time>
      </trkpt>
      <trkpt lat="49.41245" lon="6.53951">
        <ele>298.6</ele>
        <time>2020-06-26T17:58:07Z</time>
      </trkpt>
      <trkpt lat="49.41242" lon="6.53962">
        <ele>298.8</ele>
        <time>2020-06-26T17:58:08Z</time>
      </trkpt>
      <trkpt lat="49.41239" lon="6.53973">
        <ele>299.1</ele>
        <time>2020-06-26T17:58:09Z</time>
      </trkpt>
      <trkpt lat="49.41236" lon="6.53984">
        <ele>299.3</ele>
        <time>2020-06-26T17:58:10Z</time>
      </trkpt>
      <trkpt lat="49.41233" lon="6.53994">
        <ele>299.5</ele>
        <time>2020-06-26T17:58:11Z</time>
      </trkpt>
      <trkpt lat="49.41231" lon="6.54004">
        <ele>299.8</ele>
        <time>2020-06-26T17:58:12Z</time>
      </trkpt>
      <trkpt lat="49.41228" lon="6.54014">
        <ele>300</ele>
        <time>2020-06-26T17:58:13Z</time>
      </trkpt>
      <trkpt lat="49.41226" lon="6.54023">
        <ele>300.3</ele>
        <time>2020-06-26T17:58:14Z</time>
      </trkpt>
      <trkpt lat="49.41224" lon="6.54032">
        <ele>300.5</ele>
        <time>2020-06-26T17:58:15Z</time>
      </trkpt>
      <trkpt lat="49.41222" lon="6.5404">
        <ele>300.8</ele>
        <time>2020-06-26T17:58:16Z</time>
      </trkpt>
      <trkpt lat="49.4122" lon="6.54048">
        <ele>301</ele>
        <time>2020-06-26T17:58:17Z</time>
      </trkpt>
      <trkpt lat="49.41219" lon="6.54055">
        <ele>301.3</ele>
        <time>2020-06-26T17:58:18Z</time>
      </trkpt>
      <trkpt lat="49.41216" lon="6.54061">
        <ele>301.6</ele>
        <time>2020-06-26T17:58:19Z</time>
      </trkpt>
      <trkpt lat="49.41214" lon="6.54068">
        <ele>301.8</ele>
        <time>2020-06-26T17:58:20Z</time>
      </trkpt>
      <trkpt lat="49.41213" lon="6.54074">
        <ele>302.1</ele>
        <time>2020-06-26T17:58:21Z</time>
      </trkpt>
      <trkpt lat="49.41212" lon="6.5408">
        <ele>302.4</ele>
        <time>2020-06-26T17:58:22Z</time>
      </trkpt>
      <trkpt lat="49.41214" lon="6.54089">
        <ele>302.8</ele>
        <time>2020-06-26T17:58:23Z</time>
      </trkpt>
      <trkpt lat="49.41214" lon="6.54094">
        <ele>303.1</ele>
        <time>2020-06-26T17:58:24Z</time>
      </trkpt>
      <trkpt lat="49.41213" lon="6.54099">
        <ele>303.3</ele>
        <time>2020-06-26T17:58:25Z</time>
      </trkpt>
      <trkpt lat="49.41212" lon="6.54103">
        <ele>303.5</ele>
        <time>2020-06-26T17:58:26Z</time>
      </trkpt>
      <trkpt lat="49.41211" lon="6.54109">
        <ele>303.8</ele>
        <time>2020-06-26T17:58:27Z</time>
      </trkpt>
      <trkpt lat="49.4121" lon="6.5411">
        <ele>303.9</ele>
        <time>2020-06-26T17:58:28Z</time>
      </trkpt>
      <trkpt lat="49.41208" lon="6.54116">
        <ele>304.2</ele>
        <time>2020-06-26T17:58:29Z</time>
      </trkpt>
      <trkpt lat="49.41208" lon="6.54118">
        <ele>304.3</ele>
        <time>2020-06-26T17:58:30Z</time>
      </trkpt>
      <trkpt lat="49.41208" lon="6.54123">
        <ele>304.5</ele>
        <time>2020-06-26T17:58:31Z</time>
      </trkpt>
      <trkpt lat="49.41207" lon="6.54128">
        <ele>304.8</ele>
        <time>2020-06-26T17:58:32Z</time>
      </trkpt>
      <trkpt lat="49.41206" lon="6.54132">
        <ele>305</ele>
        <time>2020-06-26T17:58:33Z</time>
      </trkpt>
      <trkpt lat="49.41205" lon="6.54136">
        <ele>305.3</ele>
        <time>2020-06-26T17:58:34Z</time>
      </trkpt>
      <trkpt lat="49.41203" lon="6.5414">
        <ele>305.5</ele>
        <time>2020-06-26T17:58:35Z</time>
      </trkpt>
      <trkpt lat="49.41203" lon="6.54145">
        <ele>305.7</ele>
        <time>2020-06-26T17:58:36Z</time>
      </trkpt>
      <trkpt lat="49.41201" lon="6.54149">
        <ele>306</ele>
        <time>2020-06-26T17:58:37Z</time>
      </trkpt>
      <trkpt lat="49.412" lon="6.54153">
        <ele>306.2</ele>
        <time>2020-06-26T17:58:38Z</time>
      </trkpt>
      <trkpt lat="49.41199" lon="6.54158">
        <ele>306.5</ele>
        <time>2020-06-26T17:58:39Z</time>
      </trkpt>
      <trkpt lat="49.41198" lon="6.54162">
        <ele>306.8</ele>
        <time>2020-06-26T17:58:40Z</time>
      </trkpt>
      <trkpt lat="49.41198" lon="6.54167">
        <ele>307</ele>
        <time>2020-06-26T17:58:41Z</time>
      </trkpt>
      <trkpt lat="49.41198" lon="6.54171">
        <ele>307.2</ele>
        <time>2020-06-26T17:58:42Z</time>
      </trkpt>
      <trkpt lat="49.41196" lon="6.54175">
        <ele>307.5</ele>
        <time>2020-06-26T17:58:43Z</time>
      </trkpt>
      <trkpt lat="49.41196" lon="6.5418">
        <ele>307.7</ele>
        <time>2020-06-26T17:58:44Z</time>
      </trkpt>
      <trkpt lat="49.41195" lon="6.54184">
        <ele>308</ele>
        <time>2020-06-26T17:58:45Z</time>
      </trkpt>
      <trkpt lat="49.41194" lon="6.5419">
        <ele>308.3</ele>
        <time>2020-06-26T17:58:46Z</time>
      </trkpt>
      <trkpt lat="49.41194" lon="6.54192">
        <ele>308.4</ele>
        <time>2020-06-26T17:58:47Z</time>
      </trkpt>
      <trkpt lat="49.41192" lon="6.54197">
        <ele>308.7</ele>
        <time>2020-06-26T17:58:48Z</time>
      </trkpt>
      <trkpt lat="49.41191" lon="6.54199">
        <ele>308.9</ele>
        <time>2020-06-26T17:58:49Z</time>
      </trkpt>
      <trkpt lat="49.4119" lon="6.54205">
        <ele>309.2</ele>
        <time>2020-06-26T17:58:50Z</time>
      </trkpt>
      <trkpt lat="49.41189" lon="6.5421">
        <ele>309.5</ele>
        <time>2020-06-26T17:58:51Z</time>
      </trkpt>
      <trkpt lat="49.41188" lon="6.54214">
        <ele>309.8</ele>
        <time>2020-06-26T17:58:52Z</time>
      </trkpt>
      <trkpt lat="49.41188" lon="6.5422">
        <ele>310.1</ele>
        <time>2020-06-26T17:58:53Z</time>
      </trkpt>
      <trkpt lat="49.41187" lon="6.54221">
        <ele>310.2</ele>
        <time>2020-06-26T17:58:54Z</time>
      </trkpt>
      <trkpt lat="49.41186" lon="6.54227">
        <ele>310.6</ele>
        <time>2020-06-26T17:58:55Z</time>
      </trkpt>
      <trkpt lat="49.41186" lon="6.54228">
        <ele>310.7</ele>
        <time>2020-06-26T17:58:56Z</time>
      </trkpt>
      <trkpt lat="49.41185" lon="6.5423">
        <ele>310.8</ele>
        <time>2020-06-26T17:58:57Z</time>
      </trkpt>
      <trkpt lat="49.41185" lon="6.54233">
        <ele>311</ele>
        <time>2020-06-26T17:58:58Z</time>
      </trkpt>
      <trkpt lat="49.41185" lon="6.54237">
        <ele>311.3</ele>
        <time>2020-06-26T17:58:59Z</time>
      </trkpt>
      <trkpt lat="49.41185" lon="6.54239">
        <ele>311.5</ele>
        <time>2020-06-26T17:59:00Z</time>
      </trkpt>
      <trkpt lat="49.41185" lon="6.5424">
        <ele>311.6</ele>
        <time>2020-06-26T17:59:01Z</time>
      </trkpt>
      <trkpt lat="49.41185" lon="6.54247">
        <ele>312</ele>
        <time>2020-06-26T17:59:02Z</time>
      </trkpt>
      <trkpt lat="49.41184" lon="6.54249">
        <ele>312.2</ele>
        <time>2020-06-26T17:59:03Z</time>
      </trkpt>
      <trkpt lat="49.41184" lon="6.54253">
        <ele>312.5</ele>
        <time>2020-06-26T17:59:04Z</time>
      </trkpt>
      <trkpt lat="49.41183" lon="6.54255">
        <ele>312.6</ele>
        <time>2020-06-26T17:59:05Z</time>
      </trkpt>
      <trkpt lat="49.41184" lon="6.54256">
        <ele>312.7</ele>
        <time>2020-06-26T17:59:06Z</time>
      </trkpt>
      <trkpt lat="49.41184" lon="6.54258">
        <ele>312.9</ele>
        <time>2020-06-26T17:59:07Z</time>
      </trkpt>
      <trkpt lat="49.41184" lon="6.5426">
        <ele>313</ele>
        <time>2020-06-26T17:59:08Z</time>
      </trkpt>
      <trkpt lat="49.41183" lon="6.54263">
        <ele>313.2</ele>
        <time>2020-06-26T17:59:09Z</time>
      </trkpt>
      <trkpt lat="49.41184" lon="6.54266">
        <ele>313.4</ele>
        <time>2020-06-26T17:59:10Z</time>
      </trkpt>
      <trkpt lat="49.41184" lon="6.54268">
        <ele>313.5</ele>
        <time>2020-06-26T17:59:11Z</time>
      </trkpt>
      <trkpt lat="49.41185" lon="6.54272">
        <ele>313.8</ele>
        <time>2020-06-26T17:59:12Z</time>
      </trkpt>
      <trkpt lat="49.41185" lon="6.54273">
        <ele>313.9</ele>
        <time>2020-06-26T17:59:13Z</time>
      </trkpt>
      <trkpt lat="49.41185" lon="6.54279">
        <ele>314.3</ele>
        <time>2020-06-26T17:59:14Z</time>
      </trkpt>
      <trkpt lat="49.41185" lon="6.5428">
        <ele>314.3</ele>
        <time>2020-06-26T17:59:15Z</time>
      </trkpt>
      <trkpt lat="49.41185" lon="6.54282">
        <ele>314.4</ele>
        <time>2020-06-26T17:59:16Z</time>
      </trkpt>
      <trkpt lat="49.41185" lon="6.54285">
        <ele>314.6</ele>
        <time>2020-06-26T17:59:17Z</time>
      </trkpt>
      <trkpt lat="49.41184" lon="6.5429">
        <ele>314.9</ele>
        <time>2020-06-26T17:59:18Z</time>
      </trkpt>
      <trkpt lat="49.41184" lon="6.54294">
        <ele>315.1</ele>
        <time>2020-06-26T17:59:19Z</time>
      </trkpt>
      <trkpt lat="49.41184" lon="6.54299">
        <ele>315.3</ele>
        <time>2020-06-26T17:59:20Z</time>
      </trkpt>
      <trkpt lat="49.41184" lon="6.543">
        <ele>315.4</ele>
        <time>2020-06-26T17:59:21Z</time>
      </trkpt>
      <trkpt lat="49.41185" lon="6.54307">
        <ele>315.7</ele>
        <time>2020-06-26T17:59:22Z</time>
      </trkpt>
      <trkpt lat="49.41185" lon="6.54309">
        <ele>315.8</ele>
        <time>2020-06-26T17:59:23Z</time>
      </trkpt>
      <trkpt lat="49.41185" lon="6.54314">
        <ele>316</ele>
        <time>2020-06-26T17:59:24Z</time>
      </trkpt>
      <trkpt lat="49.41185" lon="6.5432">
        <ele>316.3</ele>
        <time>2020-06-26T17:59:25Z</time>
      </trkpt>
      <trkpt lat="49.41185" lon="6.54325">
        <ele>316.5</ele>
        <time>2020-06-26T17:59:26Z</time>
      </trkpt>
      <trkpt lat="49.41185" lon="6.54327">
        <ele>316.6</ele>
        <time>2020-06-26T17:59:27Z</time>
      </trkpt>
      <trkpt lat="49.41185" lon="6.54332">
        <ele>316.8</ele>
        <time>2020-06-26T17:59:28Z</time>
      </trkpt>
      <trkpt lat="49.41186" lon="6.54338">
        <ele>317</ele>
        <time>2020-06-26T17:59:29Z</time>
      </trkpt>
      <trkpt lat="49.41186" lon="6.5434">
        <ele>317.1</ele>
        <time>2020-06-26T17:59:30Z</time>
      </trkpt>
      <trkpt lat="49.41186" lon="6.54345">
        <ele>317.3</ele>
        <time>2020-06-26T17:59:31Z</time>
      </trkpt>
      <trkpt lat="49.41186" lon="6.54351">
        <ele>317.5</ele>
        <time>2020-06-26T17:59:32Z</time>
      </trkpt>
      <trkpt lat="49.41186" lon="6.54353">
        <ele>317.5</ele>
        <time>2020-06-26T17:59:33Z</time>
      </trkpt>
      <trkpt lat="49.41187" lon="6.54359">
        <ele>317.8</ele>
        <time>2020-06-26T17:59:34Z</time>
      </trkpt>
      <trkpt lat="49.41186" lon="6.54361">
        <ele>317.8</ele>
        <time>2020-06-26T17:59:35Z</time>
      </trkpt>
      <trkpt lat="49.41187" lon="6.54366">
        <ele>318</ele>
        <time>2020-06-26T17:59:36Z</time>
      </trkpt>
      <trkpt lat="49.41187" lon="6.54367">
        <ele>318.1</ele>
        <time>2020-06-26T17:59:37Z</time>
      </trkpt>
      <trkpt lat="49.41188" lon="6.54372">
        <ele>318.3</ele>
        <time>2020-06-26T17:59:38Z</time>
      </trkpt>
      <trkpt lat="49.41189" lon="6.54377">
        <ele>318.5</ele>
        <time>2020-06-26T17:59:39Z</time>
      </trkpt>
      <trkpt lat="49.4119" lon="6.54379">
        <ele>318.5</ele>
        <time>2020-06-26T17:59:40Z</time>
      </trkpt>
      <trkpt lat="49.4119" lon="6.54384">
        <ele>318.8</ele>
        <time>2020-06-26T17:59:41Z</time>
      </trkpt>
      <trkpt lat="49.4119" lon="6.54386">
        <ele>318.8</ele>
        <time>2020-06-26T17:59:42Z</time>
      </trkpt>
      <trkpt lat="49.4119" lon="6.54392">
        <ele>319.1</ele>
        <time>2020-06-26T17:59:43Z</time>
      </trkpt>
      <trkpt lat="49.4119" lon="6.54394">
        <ele>319.2</ele>
        <time>2020-06-26T17:59:44Z</time>
      </trkpt>
      <trkpt lat="49.41191" lon="6.54399">
        <ele>319.4</ele>
        <time>2020-06-26T17:59:45Z</time>
      </trkpt>
      <trkpt lat="49.41191" lon="6.54403">
        <ele>319.5</ele>
        <time>2020-06-26T17:59:46Z</time>
      </trkpt>
      <trkpt lat="49.4119" lon="6.54408">
        <ele>319.7</ele>
        <time>2020-06-26T17:59:47Z</time>
      </trkpt>
      <trkpt lat="49.4119" lon="6.54412">
        <ele>319.9</ele>
        <time>2020-06-26T17:59:48Z</time>
      </trkpt>
      <trkpt lat="49.4119" lon="6.54418">
        <ele>320.1</ele>
        <time>2020-06-26T17:59:49Z</time>
      </trkpt>
      <trkpt lat="49.4119" lon="6.54421">
        <ele>320.2</ele>
        <time>2020-06-26T17:59:50Z</time>
      </trkpt>
      <trkpt lat="49.4119" lon="6.54426">
        <ele>320.5</ele>
        <time>2020-06-26T17:59:51Z</time>
      </trkpt>
      <trkpt lat="49.4119" lon="6.54428">
        <ele>320.5</ele>
        <time>2020-06-26T17:59:52Z</time>
      </trkpt>
      <trkpt lat="49.41189" lon="6.54433">
        <ele>320.8</ele>
        <time>2020-06-26T17:59:53Z</time>
      </trkpt>
      <trkpt lat="49.41189" lon="6.54435">
        <ele>320.8</ele>
        <time>2020-06-26T17:59:54Z</time>
      </trkpt>
      <trkpt lat="49.41188" lon="6.54438">
        <ele>321</ele>
        <time>2020-06-26T17:59:55Z</time>
      </trkpt>
      <trkpt lat="49.41188" lon="6.5444">
        <ele>321</ele>
        <time>2020-06-26T17:59:56Z</time>
      </trkpt>
      <trkpt lat="49.41185" lon="6.54442">
        <ele>321.3</ele>
        <time>2020-06-26T17:59:57Z</time>
      </trkpt>
      <trkpt lat="49.41184" lon="6.54442">
        <ele>321.6</ele>
        <time>2020-06-26T17:59:58Z</time>
      </trkpt>
      <trkpt lat="49.41181" lon="6.54445">
        <ele>321.7</ele>
        <time>2020-06-26T17:59:59Z</time>
      </trkpt>
      <trkpt lat="49.41178" lon="6.54448">
        <ele>321.9</ele>
        <time>2020-06-26T18:00:00Z</time>
      </trkpt>
      <trkpt lat="49.41177" lon="6.54449">
        <ele>321.9</ele>
        <time>2020-06-26T18:00:01Z</time>
      </trkpt>
      <trkpt lat="49.41174" lon="6.54453">
        <ele>322.1</ele>
        <time>2020-06-26T18:00:02Z</time>
      </trkpt>
      <trkpt lat="49.41173" lon="6.54453">
        <ele>322.1</ele>
        <time>2020-06-26T18:00:03Z</time>
      </trkpt>
      <trkpt lat="49.4117" lon="6.54456">
        <ele>322.3</ele>
        <time>2020-06-26T18:00:04Z</time>
      </trkpt>
      <trkpt lat="49.41168" lon="6.54458">
        <ele>322.4</ele>
        <time>2020-06-26T18:00:05Z</time>
      </trkpt>
      <trkpt lat="49.41164" lon="6.54457">
        <ele>322.5</ele>
        <time>2020-06-26T18:00:06Z</time>
      </trkpt>
      <trkpt lat="49.4116" lon="6.54457">
        <ele>322.6</ele>
        <time>2020-06-26T18:00:07Z</time>
      </trkpt>
      <trkpt lat="49.41156" lon="6.54458">
        <ele>322.7</ele>
        <time>2020-06-26T18:00:08Z</time>
      </trkpt>
      <trkpt lat="49.41154" lon="6.54461">
        <ele>322.8</ele>
        <time>2020-06-26T18:00:09Z</time>
      </trkpt>
      <trkpt lat="49.41151" lon="6.54464">
        <ele>322.9</ele>
        <time>2020-06-26T18:00:10Z</time>
      </trkpt>
      <trkpt lat="49.4115" lon="6.54464">
        <ele>322.9</ele>
        <time>2020-06-26T18:00:11Z</time>
      </trkpt>
      <trkpt lat="49.41147" lon="6.54466">
        <ele>323</ele>
        <time>2020-06-26T18:00:12Z</time>
      </trkpt>
      <trkpt lat="49.41145" lon="6.54469">
        <ele>323</ele>
        <time>2020-06-26T18:00:13Z</time>
      </trkpt>
      <trkpt lat="49.41142" lon="6.54472">
        <ele>323.1</ele>
        <time>2020-06-26T18:00:14Z</time>
      </trkpt>
      <trkpt lat="49.41139" lon="6.54474">
        <ele>323.1</ele>
        <time>2020-06-26T18:00:15Z</time>
      </trkpt>
      <trkpt lat="49.41137" lon="6.54477">
        <ele>323.2</ele>
        <time>2020-06-26T18:00:16Z</time>
      </trkpt>
      <trkpt lat="49.41134" lon="6.54479">
        <ele>323.2</ele>
        <time>2020-06-26T18:00:17Z</time>
      </trkpt>
      <trkpt lat="49.41131" lon="6.54482">
        <ele>323.2</ele>
        <time>2020-06-26T18:00:18Z</time>
      </trkpt>
      <trkpt lat="49.41129" lon="6.54482">
        <ele>323.2</ele>
        <time>2020-06-26T18:00:19Z</time>
      </trkpt>
      <trkpt lat="49.41126" lon="6.54485">
        <ele>323.2</ele>
        <time>2020-06-26T18:00:20Z</time>
      </trkpt>
      <trkpt lat="49.41123" lon="6.54488">
        <ele>323.2</ele>
        <time>2020-06-26T18:00:21Z</time>
      </trkpt>
      <trkpt lat="49.41121" lon="6.5449">
        <ele>323.1</ele>
        <time>2020-06-26T18:00:22Z</time>
      </trkpt>
      <trkpt lat="49.41117" lon="6.54494">
        <ele>323</ele>
        <time>2020-06-26T18:00:23Z</time>
      </trkpt>
      <trkpt lat="49.41113" lon="6.54499">
        <ele>322.9</ele>
        <time>2020-06-26T18:00:24Z</time>
      </trkpt>
      <trkpt lat="49.4111" lon="6.54504">
        <ele>322.7</ele>
        <time>2020-06-26T18:00:25Z</time>
      </trkpt>
      <trkpt lat="49.41107" lon="6.54511">
        <ele>322.6</ele>
        <time>2020-06-26T18:00:26Z</time>
      </trkpt>
      <trkpt lat="49.41103" lon="6.54517">
        <ele>322.4</ele>
        <time>2020-06-26T18:00:27Z</time>
      </trkpt>
      <trkpt lat="49.41101" lon="6.54525">
        <ele>322.2</ele>
        <time>2020-06-26T18:00:28Z</time>
      </trkpt>
      <trkpt lat="49.41099" lon="6.54533">
        <ele>322.1</ele>
        <time>2020-06-26T18:00:29Z</time>
      </trkpt>
      <trkpt lat="49.41096" lon="6.54541">
        <ele>321.9</ele>
        <time>2020-06-26T18:00:30Z</time>
      </trkpt>
      <trkpt lat="49.41093" lon="6.54548">
        <ele>321.7</ele>
        <time>2020-06-26T18:00:31Z</time>
      </trkpt>
      <trkpt lat="49.41089" lon="6.54554">
        <ele>321.6</ele>
        <time>2020-06-26T18:00:32Z</time>
      </trkpt>
      <trkpt lat="49.41086" lon="6.5456">
        <ele>321.4</ele>
        <time>2020-06-26T18:00:33Z</time>
      </trkpt>
      <trkpt lat="49.41084" lon="6.54566">
        <ele>321.1</ele>
        <time>2020-06-26T18:00:34Z</time>
      </trkpt>
      <trkpt lat="49.41082" lon="6.54572">
        <ele>320.4</ele>
        <time>2020-06-26T18:00:35Z</time>
      </trkpt>
      <trkpt lat="49.41082" lon="6.5458">
        <ele>320.3</ele>
        <time>2020-06-26T18:00:36Z</time>
      </trkpt>
      <trkpt lat="49.41084" lon="6.54589">
        <ele>320.2</ele>
        <time>2020-06-26T18:00:37Z</time>
      </trkpt>
      <trkpt lat="49.41085" lon="6.54598">
        <ele>320.1</ele>
        <time>2020-06-26T18:00:38Z</time>
      </trkpt>
      <trkpt lat="49.41087" lon="6.54605">
        <ele>320.2</ele>
        <time>2020-06-26T18:00:39Z</time>
      </trkpt>
      <trkpt lat="49.41089" lon="6.54612">
        <ele>320.2</ele>
        <time>2020-06-26T18:00:40Z</time>
      </trkpt>
      <trkpt lat="49.41091" lon="6.54617">
        <ele>320.2</ele>
        <time>2020-06-26T18:00:41Z</time>
      </trkpt>
      <trkpt lat="49.41093" lon="6.54624">
        <ele>320.2</ele>
        <time>2020-06-26T18:00:42Z</time>
      </trkpt>
      <trkpt lat="49.41095" lon="6.54629">
        <ele>320.2</ele>
        <time>2020-06-26T18:00:43Z</time>
      </trkpt>
      <trkpt lat="49.41095" lon="6.54635">
        <ele>320.2</ele>
        <time>2020-06-26T18:00:44Z</time>
      </trkpt>
      <trkpt lat="49.41096" lon="6.54641">
        <ele>320.2</ele>
        <time>2020-06-26T18:00:45Z</time>
      </trkpt>
      <trkpt lat="49.41097" lon="6.54647">
        <ele>320.2</ele>
        <time>2020-06-26T18:00:46Z</time>
      </trkpt>
      <trkpt lat="49.41098" lon="6.54654">
        <ele>320.1</ele>
        <time>2020-06-26T18:00:47Z</time>
      </trkpt>
      <trkpt lat="49.411" lon="6.5466">
        <ele>320.1</ele>
        <time>2020-06-26T18:00:48Z</time>
      </trkpt>
      <trkpt lat="49.41101" lon="6.54665">
        <ele>320.1</ele>
        <time>2020-06-26T18:00:49Z</time>
      </trkpt>
      <trkpt lat="49.41102" lon="6.54671">
        <ele>320.1</ele>
        <time>2020-06-26T18:00:50Z</time>
      </trkpt>
      <trkpt lat="49.41103" lon="6.54676">
        <ele>320</ele>
        <time>2020-06-26T18:00:51Z</time>
      </trkpt>
      <trkpt lat="49.41104" lon="6.54682">
        <ele>320</ele>
        <time>2020-06-26T18:00:52Z</time>
      </trkpt>
      <trkpt lat="49.41104" lon="6.54688">
        <ele>320</ele>
        <time>2020-06-26T18:00:53Z</time>
      </trkpt>
      <trkpt lat="49.41105" lon="6.54694">
        <ele>320</ele>
        <time>2020-06-26T18:00:54Z</time>
      </trkpt>
      <trkpt lat="49.41105" lon="6.54696">
        <ele>320</ele>
        <time>2020-06-26T18:00:55Z</time>
      </trkpt>
      <trkpt lat="49.41106" lon="6.54701">
        <ele>320</ele>
        <time>2020-06-26T18:00:56Z</time>
      </trkpt>
      <trkpt lat="49.41107" lon="6.54705">
        <ele>320</ele>
        <time>2020-06-26T18:00:57Z</time>
      </trkpt>
      <trkpt lat="49.41108" lon="6.5471">
        <ele>320</ele>
        <time>2020-06-26T18:00:58Z</time>
      </trkpt>
      <trkpt lat="49.41109" lon="6.54715">
        <ele>320</ele>
        <time>2020-06-26T18:00:59Z</time>
      </trkpt>
      <trkpt lat="49.4111" lon="6.5472">
        <ele>320</ele>
        <time>2020-06-26T18:01:00Z</time>
      </trkpt>
      <trkpt lat="49.41112" lon="6.54725">
        <ele>320</ele>
        <time>2020-06-26T18:01:01Z</time>
      </trkpt>
      <trkpt lat="49.41114" lon="6.54729">
        <ele>320</ele>
        <time>2020-06-26T18:01:02Z</time>
      </trkpt>
      <trkpt lat="49.41116" lon="6.54733">
        <ele>320</ele>
        <time>2020-06-26T18:01:03Z</time>
      </trkpt>
      <trkpt lat="49.41119" lon="6.54736">
        <ele>320</ele>
        <time>2020-06-26T18:01:04Z</time>
      </trkpt>
      <trkpt lat="49.41121" lon="6.54739">
        <ele>320</ele>
        <time>2020-06-26T18:01:05Z</time>
      </trkpt>
      <trkpt lat="49.41123" lon="6.54743">
        <ele>320</ele>
        <time>2020-06-26T18:01:06Z</time>
      </trkpt>
      <trkpt lat="49.41124" lon="6.54747">
        <ele>319.8</ele>
        <time>2020-06-26T18:01:07Z</time>
      </trkpt>
      <trkpt lat="49.41125" lon="6.54748">
        <ele>319.8</ele>
        <time>2020-06-26T18:01:08Z</time>
      </trkpt>
      <trkpt lat="49.41125" lon="6.5475">
        <ele>319.7</ele>
        <time>2020-06-26T18:01:09Z</time>
      </trkpt>
      <trkpt lat="49.41126" lon="6.54752">
        <ele>319.7</ele>
        <time>2020-06-26T18:01:10Z</time>
      </trkpt>
      <trkpt lat="49.41126" lon="6.54753">
        <ele>319.6</ele>
        <time>2020-06-26T18:01:11Z</time>
      </trkpt>
      <trkpt lat="49.41127" lon="6.54754">
        <ele>319.6</ele>
        <time>2020-06-26T18:01:12Z</time>
      </trkpt>
      <trkpt lat="49.41127" lon="6.54753">
        <ele>319.6</ele>
        <time>2020-06-26T18:01:13Z</time>
      </trkpt>
      <trkpt lat="49.41127" lon="6.54753">
        <ele>319.6</ele>
        <time>2020-06-26T18:01:14Z</time>
      </trkpt>
      <trkpt lat="49.41127" lon="6.54753">
        <ele>319.6</ele>
        <time>2020-06-26T18:01:15Z</time>
      </trkpt>
      <trkpt lat="49.41126" lon="6.54754">
        <ele>319.5</ele>
        <time>2020-06-26T18:01:16Z</time>
      </trkpt>
      <trkpt lat="49.41126" lon="6.54756">
        <ele>319.5</ele>
        <time>2020-06-26T18:01:17Z</time>
      </trkpt>
      <trkpt lat="49.41124" lon="6.5476">
        <ele>319.4</ele>
        <time>2020-06-26T18:01:18Z</time>
      </trkpt>
      <trkpt lat="49.41125" lon="6.54765">
        <ele>319.2</ele>
        <time>2020-06-26T18:01:19Z</time>
      </trkpt>
      <trkpt lat="49.41125" lon="6.54767">
        <ele>319.2</ele>
        <time>2020-06-26T18:01:20Z</time>
      </trkpt>
      <trkpt lat="49.41125" lon="6.54772">
        <ele>319</ele>
        <time>2020-06-26T18:01:21Z</time>
      </trkpt>
      <trkpt lat="49.41125" lon="6.54774">
        <ele>319</ele>
        <time>2020-06-26T18:01:22Z</time>
      </trkpt>
      <trkpt lat="49.41125" lon="6.54782">
        <ele>318.8</ele>
        <time>2020-06-26T18:01:23Z</time>
      </trkpt>
      <trkpt lat="49.41124" lon="6.54786">
        <ele>318.7</ele>
        <time>2020-06-26T18:01:24Z</time>
      </trkpt>
      <trkpt lat="49.41123" lon="6.54792">
        <ele>318.5</ele>
        <time>2020-06-26T18:01:25Z</time>
      </trkpt>
      <trkpt lat="49.41123" lon="6.54799">
        <ele>318.3</ele>
        <time>2020-06-26T18:01:26Z</time>
      </trkpt>
      <trkpt lat="49.41121" lon="6.54804">
        <ele>318.1</ele>
        <time>2020-06-26T18:01:27Z</time>
      </trkpt>
      <trkpt lat="49.41121" lon="6.54811">
        <ele>317.9</ele>
        <time>2020-06-26T18:01:28Z</time>
      </trkpt>
      <trkpt lat="49.41119" lon="6.54818">
        <ele>317.7</ele>
        <time>2020-06-26T18:01:29Z</time>
      </trkpt>
      <trkpt lat="49.41118" lon="6.54823">
        <ele>317.5</ele>
        <time>2020-06-26T18:01:30Z</time>
      </trkpt>
      <trkpt lat="49.41117" lon="6.5483">
        <ele>317.4</ele>
        <time>2020-06-26T18:01:31Z</time>
      </trkpt>
      <trkpt lat="49.41115" lon="6.54837">
        <ele>317.2</ele>
        <time>2020-06-26T18:01:32Z</time>
      </trkpt>
      <trkpt lat="49.41115" lon="6.54842">
        <ele>317</ele>
        <time>2020-06-26T18:01:33Z</time>
      </trkpt>
      <trkpt lat="49.41115" lon="6.54847">
        <ele>316.8</ele>
        <time>2020-06-26T18:01:34Z</time>
      </trkpt>
      <trkpt lat="49.41115" lon="6.54849">
        <ele>316.7</ele>
        <time>2020-06-26T18:01:35Z</time>
      </trkpt>
      <trkpt lat="49.41116" lon="6.54851">
        <ele>316.6</ele>
        <time>2020-06-26T18:01:36Z</time>
      </trkpt>
      <trkpt lat="49.41116" lon="6.54851">
        <ele>316.6</ele>
        <time>2020-06-26T18:01:37Z</time>
      </trkpt>
      <trkpt lat="49.41116" lon="6.54852">
        <ele>316.6</ele>
        <time>2020-06-26T18:01:38Z</time>
      </trkpt>
      <trkpt lat="49.41115" lon="6.54854">
        <ele>316.5</ele>
        <time>2020-06-26T18:01:39Z</time>
      </trkpt>
      <trkpt lat="49.41115" lon="6.54854">
        <ele>316.5</ele>
        <time>2020-06-26T18:01:40Z</time>
      </trkpt>
      <trkpt lat="49.41114" lon="6.54855">
        <ele>316.5</ele>
        <time>2020-06-26T18:01:41Z</time>
      </trkpt>
      <trkpt lat="49.41114" lon="6.54855">
        <ele>316.5</ele>
        <time>2020-06-26T18:01:42Z</time>
      </trkpt>
      <trkpt lat="49.41114" lon="6.54855">
        <ele>316.5</ele>
        <time>2020-06-26T18:01:43Z</time>
      </trkpt>
      <trkpt lat="49.41114" lon="6.54855">
        <ele>316.5</ele>
        <time>2020-06-26T18:01:44Z</time>
      </trkpt>
      <trkpt lat="49.41114" lon="6.54855">
        <ele>316.5</ele>
        <time>2020-06-26T18:01:45Z</time>
      </trkpt>
      <trkpt lat="49.41114" lon="6.54855">
        <ele>316.5</ele>
        <time>2020-06-26T18:01:46Z</time>
      </trkpt>
      <trkpt lat="49.41114" lon="6.54854">
        <ele>316.5</ele>
        <time>2020-06-26T18:01:47Z</time>
      </trkpt>
      <trkpt lat="49.41114" lon="6.54855">
        <ele>316.5</ele>
        <time>2020-06-26T18:01:48Z</time>
      </trkpt>
      <trkpt lat="49.41114" lon="6.54854">
        <ele>316.5</ele>
        <time>2020-06-26T18:01:49Z</time>
      </trkpt>
      <trkpt lat="49.41109" lon="6.54867">
        <ele>316</ele>
        <time>2020-06-26T18:02:09Z</time>
      </trkpt>
      <trkpt lat="49.41107" lon="6.54871">
        <ele>315.9</ele>
        <time>2020-06-26T18:02:10Z</time>
      </trkpt>
      <trkpt lat="49.41104" lon="6.54875">
        <ele>315.7</ele>
        <time>2020-06-26T18:02:11Z</time>
      </trkpt>
      <trkpt lat="49.41102" lon="6.54879">
        <ele>315.6</ele>
        <time>2020-06-26T18:02:12Z</time>
      </trkpt>
      <trkpt lat="49.411" lon="6.54883">
        <ele>315.5</ele>
        <time>2020-06-26T18:02:13Z</time>
      </trkpt>
      <trkpt lat="49.41098" lon="6.54888">
        <ele>315.4</ele>
        <time>2020-06-26T18:02:14Z</time>
      </trkpt>
      <trkpt lat="49.41096" lon="6.54893">
        <ele>315.3</ele>
        <time>2020-06-26T18:02:15Z</time>
      </trkpt>
      <trkpt lat="49.41093" lon="6.54899">
        <ele>315.1</ele>
        <time>2020-06-26T18:02:16Z</time>
      </trkpt>
      <trkpt lat="49.4109" lon="6.54905">
        <ele>315</ele>
        <time>2020-06-26T18:02:17Z</time>
      </trkpt>
      <trkpt lat="49.41087" lon="6.54911">
        <ele>314.9</ele>
        <time>2020-06-26T18:02:18Z</time>
      </trkpt>
      <trkpt lat="49.41084" lon="6.54916">
        <ele>314.8</ele>
        <time>2020-06-26T18:02:19Z</time>
      </trkpt>
      <trkpt lat="49.41082" lon="6.54922">
        <ele>314.7</ele>
        <time>2020-06-26T18:02:20Z</time>
      </trkpt>
      <trkpt lat="49.41078" lon="6.54926">
        <ele>314.6</ele>
        <time>2020-06-26T18:02:21Z</time>
      </trkpt>
      <trkpt lat="49.41075" lon="6.54931">
        <ele>314.6</ele>
        <time>2020-06-26T18:02:22Z</time>
      </trkpt>
      <trkpt lat="49.41072" lon="6.54936">
        <ele>314.5</ele>
        <time>2020-06-26T18:02:23Z</time>
      </trkpt>
      <trkpt lat="49.41068" lon="6.54941">
        <ele>314.4</ele>
        <time>2020-06-26T18:02:24Z</time>
      </trkpt>
      <trkpt lat="49.41064" lon="6.54947">
        <ele>314.3</ele>
        <time>2020-06-26T18:02:25Z</time>
      </trkpt>
      <trkpt lat="49.41061" lon="6.54954">
        <ele>314.3</ele>
        <time>2020-06-26T18:02:26Z</time>
      </trkpt>
      <trkpt lat="49.41057" lon="6.5496">
        <ele>314.2</ele>
        <time>2020-06-26T18:02:27Z</time>
      </trkpt>
      <trkpt lat="49.41053" lon="6.54966">
        <ele>314.2</ele>
        <time>2020-06-26T18:02:28Z</time>
      </trkpt>
      <trkpt lat="49.41049" lon="6.54971">
        <ele>314.1</ele>
        <time>2020-06-26T18:02:29Z</time>
      </trkpt>
      <trkpt lat="49.41045" lon="6.54978">
        <ele>314.1</ele>
        <time>2020-06-26T18:02:30Z</time>
      </trkpt>
      <trkpt lat="49.4104" lon="6.54985">
        <ele>314.1</ele>
        <time>2020-06-26T18:02:31Z</time>
      </trkpt>
      <trkpt lat="49.41036" lon="6.54992">
        <ele>314</ele>
        <time>2020-06-26T18:02:32Z</time>
      </trkpt>
      <trkpt lat="49.41032" lon="6.54999">
        <ele>314</ele>
        <time>2020-06-26T18:02:33Z</time>
      </trkpt>
      <trkpt lat="49.41028" lon="6.55007">
        <ele>314.1</ele>
        <time>2020-06-26T18:02:34Z</time>
      </trkpt>
      <trkpt lat="49.41024" lon="6.55014">
        <ele>314.1</ele>
        <time>2020-06-26T18:02:35Z</time>
      </trkpt>
      <trkpt lat="49.41021" lon="6.55022">
        <ele>314.2</ele>
        <time>2020-06-26T18:02:36Z</time>
      </trkpt>
      <trkpt lat="49.41016" lon="6.55029">
        <ele>314.3</ele>
        <time>2020-06-26T18:02:37Z</time>
      </trkpt>
      <trkpt lat="49.41013" lon="6.55037">
        <ele>314.3</ele>
        <time>2020-06-26T18:02:38Z</time>
      </trkpt>
      <trkpt lat="49.41009" lon="6.55045">
        <ele>314.5</ele>
        <time>2020-06-26T18:02:39Z</time>
      </trkpt>
      <trkpt lat="49.41005" lon="6.55051">
        <ele>314.5</ele>
        <time>2020-06-26T18:02:40Z</time>
      </trkpt>
      <trkpt lat="49.41002" lon="6.55059">
        <ele>314.7</ele>
        <time>2020-06-26T18:02:41Z</time>
      </trkpt>
      <trkpt lat="49.41" lon="6.55068">
        <ele>314.8</ele>
        <time>2020-06-26T18:02:42Z</time>
      </trkpt>
      <trkpt lat="49.40998" lon="6.55075">
        <ele>315</ele>
        <time>2020-06-26T18:02:43Z</time>
      </trkpt>
      <trkpt lat="49.40996" lon="6.55082">
        <ele>315.1</ele>
        <time>2020-06-26T18:02:44Z</time>
      </trkpt>
      <trkpt lat="49.40994" lon="6.5509">
        <ele>315.4</ele>
        <time>2020-06-26T18:02:45Z</time>
      </trkpt>
      <trkpt lat="49.40991" lon="6.55096">
        <ele>315.5</ele>
        <time>2020-06-26T18:02:46Z</time>
      </trkpt>
      <trkpt lat="49.40989" lon="6.55103">
        <ele>315.7</ele>
        <time>2020-06-26T18:02:47Z</time>
      </trkpt>
      <trkpt lat="49.40987" lon="6.5511">
        <ele>315.9</ele>
        <time>2020-06-26T18:02:48Z</time>
      </trkpt>
      <trkpt lat="49.40986" lon="6.55114">
        <ele>316</ele>
        <time>2020-06-26T18:02:49Z</time>
      </trkpt>
      <trkpt lat="49.40984" lon="6.5512">
        <ele>316.2</ele>
        <time>2020-06-26T18:02:50Z</time>
      </trkpt>
      <trkpt lat="49.40984" lon="6.55128">
        <ele>316.4</ele>
        <time>2020-06-26T18:02:51Z</time>
      </trkpt>
      <trkpt lat="49.40984" lon="6.55134">
        <ele>316.5</ele>
        <time>2020-06-26T18:02:52Z</time>
      </trkpt>
      <trkpt lat="49.40985" lon="6.55141">
        <ele>316.7</ele>
        <time>2020-06-26T18:02:53Z</time>
      </trkpt>
      <trkpt lat="49.40986" lon="6.55147">
        <ele>316.8</ele>
        <time>2020-06-26T18:02:54Z</time>
      </trkpt>
      <trkpt lat="49.40988" lon="6.55153">
        <ele>317</ele>
        <time>2020-06-26T18:02:55Z</time>
      </trkpt>
      <trkpt lat="49.4099" lon="6.55159">
        <ele>317.1</ele>
        <time>2020-06-26T18:02:56Z</time>
      </trkpt>
      <trkpt lat="49.40992" lon="6.55165">
        <ele>317.1</ele>
        <time>2020-06-26T18:02:57Z</time>
      </trkpt>
      <trkpt lat="49.40992" lon="6.55169">
        <ele>317.2</ele>
        <time>2020-06-26T18:02:58Z</time>
      </trkpt>
      <trkpt lat="49.40993" lon="6.55176">
        <ele>317.2</ele>
        <time>2020-06-26T18:02:59Z</time>
      </trkpt>
      <trkpt lat="49.40993" lon="6.55182">
        <ele>317.2</ele>
        <time>2020-06-26T18:03:00Z</time>
      </trkpt>
      <trkpt lat="49.40992" lon="6.55186">
        <ele>317.2</ele>
        <time>2020-06-26T18:03:01Z</time>
      </trkpt>
      <trkpt lat="49.40991" lon="6.55192">
        <ele>317.2</ele>
        <time>2020-06-26T18:03:02Z</time>
      </trkpt>
      <trkpt lat="49.40989" lon="6.55197">
        <ele>317.2</ele>
        <time>2020-06-26T18:03:03Z</time>
      </trkpt>
      <trkpt lat="49.40987" lon="6.55201">
        <ele>317.1</ele>
        <time>2020-06-26T18:03:04Z</time>
      </trkpt>
      <trkpt lat="49.40986" lon="6.55205">
        <ele>317.1</ele>
        <time>2020-06-26T18:03:05Z</time>
      </trkpt>
      <trkpt lat="49.40984" lon="6.55209">
        <ele>317</ele>
        <time>2020-06-26T18:03:06Z</time>
      </trkpt>
      <trkpt lat="49.4098" lon="6.55213">
        <ele>316.9</ele>
        <time>2020-06-26T18:03:07Z</time>
      </trkpt>
      <trkpt lat="49.40979" lon="6.55214">
        <ele>316.8</ele>
        <time>2020-06-26T18:03:08Z</time>
      </trkpt>
      <trkpt lat="49.40977" lon="6.55217">
        <ele>316.7</ele>
        <time>2020-06-26T18:03:09Z</time>
      </trkpt>
      <trkpt lat="49.40975" lon="6.55221">
        <ele>316.6</ele>
        <time>2020-06-26T18:03:10Z</time>
      </trkpt>
      <trkpt lat="49.40973" lon="6.55225">
        <ele>316.4</ele>
        <time>2020-06-26T18:03:11Z</time>
      </trkpt>
      <trkpt lat="49.40971" lon="6.55229">
        <ele>316.3</ele>
        <time>2020-06-26T18:03:12Z</time>
      </trkpt>
      <trkpt lat="49.40969" lon="6.55232">
        <ele>316.1</ele>
        <time>2020-06-26T18:03:13Z</time>
      </trkpt>
      <trkpt lat="49.40967" lon="6.55235">
        <ele>316</ele>
        <time>2020-06-26T18:03:14Z</time>
      </trkpt>
      <trkpt lat="49.40963" lon="6.55239">
        <ele>315.7</ele>
        <time>2020-06-26T18:03:15Z</time>
      </trkpt>
      <trkpt lat="49.4096" lon="6.55243">
        <ele>315.3</ele>
        <time>2020-06-26T18:03:16Z</time>
      </trkpt>
      <trkpt lat="49.40956" lon="6.55247">
        <ele>314.9</ele>
        <time>2020-06-26T18:03:17Z</time>
      </trkpt>
      <trkpt lat="49.40952" lon="6.55253">
        <ele>314.3</ele>
        <time>2020-06-26T18:03:18Z</time>
      </trkpt>
      <trkpt lat="49.40948" lon="6.55257">
        <ele>313.9</ele>
        <time>2020-06-26T18:03:19Z</time>
      </trkpt>
      <trkpt lat="49.40945" lon="6.55262">
        <ele>313.4</ele>
        <time>2020-06-26T18:03:20Z</time>
      </trkpt>
      <trkpt lat="49.40942" lon="6.55267">
        <ele>313</ele>
        <time>2020-06-26T18:03:21Z</time>
      </trkpt>
      <trkpt lat="49.40939" lon="6.55275">
        <ele>312.4</ele>
        <time>2020-06-26T18:03:22Z</time>
      </trkpt>
      <trkpt lat="49.40936" lon="6.55284">
        <ele>311.8</ele>
        <time>2020-06-26T18:03:23Z</time>
      </trkpt>
      <trkpt lat="49.40933" lon="6.55296">
        <ele>311.2</ele>
        <time>2020-06-26T18:03:24Z</time>
      </trkpt>
      <trkpt lat="49.4093" lon="6.55309">
        <ele>310.4</ele>
        <time>2020-06-26T18:03:25Z</time>
      </trkpt>
      <trkpt lat="49.40927" lon="6.55322">
        <ele>309.7</ele>
        <time>2020-06-26T18:03:26Z</time>
      </trkpt>
      <trkpt lat="49.40924" lon="6.55336">
        <ele>308.8</ele>
        <time>2020-06-26T18:03:27Z</time>
      </trkpt>
      <trkpt lat="49.40921" lon="6.55349">
        <ele>308</ele>
        <time>2020-06-26T18:03:28Z</time>
      </trkpt>
      <trkpt lat="49.40917" lon="6.5536">
        <ele>307.3</ele>
        <time>2020-06-26T18:03:29Z</time>
      </trkpt>
      <trkpt lat="49.40914" lon="6.55372">
        <ele>306.7</ele>
        <time>2020-06-26T18:03:30Z</time>
      </trkpt>
      <trkpt lat="49.4091" lon="6.55384">
        <ele>306</ele>
        <time>2020-06-26T18:03:31Z</time>
      </trkpt>
      <trkpt lat="49.40907" lon="6.55396">
        <ele>305.3</ele>
        <time>2020-06-26T18:03:32Z</time>
      </trkpt>
      <trkpt lat="49.40904" lon="6.55407">
        <ele>304.6</ele>
        <time>2020-06-26T18:03:33Z</time>
      </trkpt>
      <trkpt lat="49.40901" lon="6.55418">
        <ele>303.9</ele>
        <time>2020-06-26T18:03:34Z</time>
      </trkpt>
      <trkpt lat="49.40898" lon="6.5543">
        <ele>303.1</ele>
        <time>2020-06-26T18:03:35Z</time>
      </trkpt>
      <trkpt lat="49.40895" lon="6.55442">
        <ele>302.4</ele>
        <time>2020-06-26T18:03:36Z</time>
      </trkpt>
      <trkpt lat="49.40891" lon="6.55454">
        <ele>301.6</ele>
        <time>2020-06-26T18:03:37Z</time>
      </trkpt>
      <trkpt lat="49.40888" lon="6.55467">
        <ele>300.7</ele>
        <time>2020-06-26T18:03:38Z</time>
      </trkpt>
      <trkpt lat="49.40884" lon="6.5548">
        <ele>299.8</ele>
        <time>2020-06-26T18:03:39Z</time>
      </trkpt>
      <trkpt lat="49.4088" lon="6.55494">
        <ele>299</ele>
        <time>2020-06-26T18:03:40Z</time>
      </trkpt>
      <trkpt lat="49.40876" lon="6.55508">
        <ele>298.3</ele>
        <time>2020-06-26T18:03:41Z</time>
      </trkpt>
      <trkpt lat="49.40872" lon="6.55523">
        <ele>297.6</ele>
        <time>2020-06-26T18:03:42Z</time>
      </trkpt>
      <trkpt lat="49.40868" lon="6.55538">
        <ele>297</ele>
        <time>2020-06-26T18:03:43Z</time>
      </trkpt>
      <trkpt lat="49.40865" lon="6.55553">
        <ele>296.6</ele>
        <time>2020-06-26T18:03:44Z</time>
      </trkpt>
      <trkpt lat="49.40861" lon="6.55567">
        <ele>296.2</ele>
        <time>2020-06-26T18:03:45Z</time>
      </trkpt>
      <trkpt lat="49.40857" lon="6.5558">
        <ele>295.8</ele>
        <time>2020-06-26T18:03:46Z</time>
      </trkpt>
      <trkpt lat="49.40854" lon="6.55594">
        <ele>295.6</ele>
        <time>2020-06-26T18:03:47Z</time>
      </trkpt>
      <trkpt lat="49.40851" lon="6.55607">
        <ele>295.3</ele>
        <time>2020-06-26T18:03:48Z</time>
      </trkpt>
      <trkpt lat="49.40847" lon="6.5562">
        <ele>294.9</ele>
        <time>2020-06-26T18:03:49Z</time>
      </trkpt>
      <trkpt lat="49.40844" lon="6.55632">
        <ele>294.5</ele>
        <time>2020-06-26T18:03:50Z</time>
      </trkpt>
      <trkpt lat="49.40841" lon="6.55644">
        <ele>294.2</ele>
        <time>2020-06-26T18:03:51Z</time>
      </trkpt>
      <trkpt lat="49.40837" lon="6.55654">
        <ele>293.9</ele>
        <time>2020-06-26T18:03:52Z</time>
      </trkpt>
      <trkpt lat="49.40834" lon="6.55665">
        <ele>293.6</ele>
        <time>2020-06-26T18:03:53Z</time>
      </trkpt>
      <trkpt lat="49.4083" lon="6.55675">
        <ele>293.5</ele>
        <time>2020-06-26T18:03:54Z</time>
      </trkpt>
      <trkpt lat="49.40826" lon="6.55684">
        <ele>293.5</ele>
        <time>2020-06-26T18:03:55Z</time>
      </trkpt>
      <trkpt lat="49.4082" lon="6.55692">
        <ele>293.5</ele>
        <time>2020-06-26T18:03:56Z</time>
      </trkpt>
      <trkpt lat="49.40815" lon="6.55698">
        <ele>293.5</ele>
        <time>2020-06-26T18:03:57Z</time>
      </trkpt>
      <trkpt lat="49.40809" lon="6.55705">
        <ele>293.6</ele>
        <time>2020-06-26T18:03:58Z</time>
      </trkpt>
      <trkpt lat="49.40803" lon="6.55711">
        <ele>293.6</ele>
        <time>2020-06-26T18:03:59Z</time>
      </trkpt>
      <trkpt lat="49.40797" lon="6.55717">
        <ele>293.6</ele>
        <time>2020-06-26T18:04:00Z</time>
      </trkpt>
      <trkpt lat="49.40791" lon="6.55722">
        <ele>293.7</ele>
        <time>2020-06-26T18:04:01Z</time>
      </trkpt>
      <trkpt lat="49.40785" lon="6.55727">
        <ele>293.7</ele>
        <time>2020-06-26T18:04:02Z</time>
      </trkpt>
      <trkpt lat="49.40778" lon="6.55731">
        <ele>293.7</ele>
        <time>2020-06-26T18:04:03Z</time>
      </trkpt>
      <trkpt lat="49.40772" lon="6.55736">
        <ele>293.6</ele>
        <time>2020-06-26T18:04:04Z</time>
      </trkpt>
      <trkpt lat="49.40766" lon="6.55741">
        <ele>293.6</ele>
        <time>2020-06-26T18:04:05Z</time>
      </trkpt>
      <trkpt lat="49.40759" lon="6.55746">
        <ele>293.5</ele>
        <time>2020-06-26T18:04:06Z</time>
      </trkpt>
      <trkpt lat="49.40752" lon="6.5575">
        <ele>293.5</ele>
        <time>2020-06-26T18:04:07Z</time>
      </trkpt>
      <trkpt lat="49.40746" lon="6.55754">
        <ele>293.6</ele>
        <time>2020-06-26T18:04:08Z</time>
      </trkpt>
      <trkpt lat="49.4074" lon="6.55759">
        <ele>293.6</ele>
        <time>2020-06-26T18:04:09Z</time>
      </trkpt>
      <trkpt lat="49.40733" lon="6.55763">
        <ele>293.6</ele>
        <time>2020-06-26T18:04:10Z</time>
      </trkpt>
      <trkpt lat="49.40727" lon="6.55768">
        <ele>293.5</ele>
        <time>2020-06-26T18:04:11Z</time>
      </trkpt>
      <trkpt lat="49.40722" lon="6.55773">
        <ele>293.6</ele>
        <time>2020-06-26T18:04:12Z</time>
      </trkpt>
      <trkpt lat="49.40716" lon="6.55778">
        <ele>293.6</ele>
        <time>2020-06-26T18:04:13Z</time>
      </trkpt>
      <trkpt lat="49.4071" lon="6.55782">
        <ele>293.6</ele>
        <time>2020-06-26T18:04:14Z</time>
      </trkpt>
      <trkpt lat="49.40705" lon="6.55786">
        <ele>293.6</ele>
        <time>2020-06-26T18:04:15Z</time>
      </trkpt>
      <trkpt lat="49.40699" lon="6.55791">
        <ele>293.6</ele>
        <time>2020-06-26T18:04:16Z</time>
      </trkpt>
      <trkpt lat="49.40694" lon="6.55796">
        <ele>293.7</ele>
        <time>2020-06-26T18:04:17Z</time>
      </trkpt>
      <trkpt lat="49.40688" lon="6.55801">
        <ele>293.7</ele>
        <time>2020-06-26T18:04:18Z</time>
      </trkpt>
      <trkpt lat="49.40684" lon="6.55807">
        <ele>293.8</ele>
        <time>2020-06-26T18:04:19Z</time>
      </trkpt>
      <trkpt lat="49.40679" lon="6.55814">
        <ele>293.8</ele>
        <time>2020-06-26T18:04:20Z</time>
      </trkpt>
      <trkpt lat="49.40675" lon="6.55821">
        <ele>293.8</ele>
        <time>2020-06-26T18:04:21Z</time>
      </trkpt>
      <trkpt lat="49.40671" lon="6.55829">
        <ele>293.8</ele>
        <time>2020-06-26T18:04:22Z</time>
      </trkpt>
      <trkpt lat="49.40667" lon="6.55837">
        <ele>293.8</ele>
        <time>2020-06-26T18:04:23Z</time>
      </trkpt>
      <trkpt lat="49.40663" lon="6.55845">
        <ele>293.8</ele>
        <time>2020-06-26T18:04:24Z</time>
      </trkpt>
      <trkpt lat="49.4066" lon="6.55852">
        <ele>293.7</ele>
        <time>2020-06-26T18:04:25Z</time>
      </trkpt>
      <trkpt lat="49.40656" lon="6.5586">
        <ele>293.7</ele>
        <time>2020-06-26T18:04:26Z</time>
      </trkpt>
      <trkpt lat="49.40652" lon="6.55867">
        <ele>293.7</ele>
        <time>2020-06-26T18:04:27Z</time>
      </trkpt>
      <trkpt lat="49.40649" lon="6.55874">
        <ele>293.7</ele>
        <time>2020-06-26T18:04:28Z</time>
      </trkpt>
      <trkpt lat="49.40645" lon="6.5588">
        <ele>293.7</ele>
        <time>2020-06-26T18:04:29Z</time>
      </trkpt>
      <trkpt lat="49.40642" lon="6.55887">
        <ele>293.7</ele>
        <time>2020-06-26T18:04:30Z</time>
      </trkpt>
      <trkpt lat="49.40638" lon="6.55893">
        <ele>293.6</ele>
        <time>2020-06-26T18:04:31Z</time>
      </trkpt>
      <trkpt lat="49.40635" lon="6.559">
        <ele>293.6</ele>
        <time>2020-06-26T18:04:32Z</time>
      </trkpt>
      <trkpt lat="49.40631" lon="6.55907">
        <ele>293.6</ele>
        <time>2020-06-26T18:04:33Z</time>
      </trkpt>
      <trkpt lat="49.40628" lon="6.55914">
        <ele>293.5</ele>
        <time>2020-06-26T18:04:34Z</time>
      </trkpt>
      <trkpt lat="49.40625" lon="6.55922">
        <ele>293.5</ele>
        <time>2020-06-26T18:04:35Z</time>
      </trkpt>
      <trkpt lat="49.40623" lon="6.55931">
        <ele>293.4</ele>
        <time>2020-06-26T18:04:36Z</time>
      </trkpt>
      <trkpt lat="49.4062" lon="6.55939">
        <ele>293.4</ele>
        <time>2020-06-26T18:04:37Z</time>
      </trkpt>
      <trkpt lat="49.40618" lon="6.55947">
        <ele>293.3</ele>
        <time>2020-06-26T18:04:38Z</time>
      </trkpt>
      <trkpt lat="49.40616" lon="6.55956">
        <ele>293.3</ele>
        <time>2020-06-26T18:04:39Z</time>
      </trkpt>
      <trkpt lat="49.40614" lon="6.55965">
        <ele>293.3</ele>
        <time>2020-06-26T18:04:40Z</time>
      </trkpt>
      <trkpt lat="49.40613" lon="6.55974">
        <ele>293.4</ele>
        <time>2020-06-26T18:04:41Z</time>
      </trkpt>
      <trkpt lat="49.40611" lon="6.55983">
        <ele>293.4</ele>
        <time>2020-06-26T18:04:42Z</time>
      </trkpt>
      <trkpt lat="49.4061" lon="6.55991">
        <ele>293.5</ele>
        <time>2020-06-26T18:04:43Z</time>
      </trkpt>
      <trkpt lat="49.40608" lon="6.56">
        <ele>293.5</ele>
        <time>2020-06-26T18:04:44Z</time>
      </trkpt>
      <trkpt lat="49.40607" lon="6.56009">
        <ele>293.6</ele>
        <time>2020-06-26T18:04:45Z</time>
      </trkpt>
      <trkpt lat="49.40607" lon="6.56018">
        <ele>293.6</ele>
        <time>2020-06-26T18:04:46Z</time>
      </trkpt>
      <trkpt lat="49.40606" lon="6.56026">
        <ele>293.7</ele>
        <time>2020-06-26T18:04:47Z</time>
      </trkpt>
      <trkpt lat="49.40605" lon="6.56035">
        <ele>293.8</ele>
        <time>2020-06-26T18:04:48Z</time>
      </trkpt>
      <trkpt lat="49.40605" lon="6.56043">
        <ele>294</ele>
        <time>2020-06-26T18:04:49Z</time>
      </trkpt>
      <trkpt lat="49.40604" lon="6.56052">
        <ele>294.1</ele>
        <time>2020-06-26T18:04:50Z</time>
      </trkpt>
      <trkpt lat="49.40603" lon="6.56061">
        <ele>294.3</ele>
        <time>2020-06-26T18:04:51Z</time>
      </trkpt>
      <trkpt lat="49.40603" lon="6.5607">
        <ele>294.4</ele>
        <time>2020-06-26T18:04:52Z</time>
      </trkpt>
      <trkpt lat="49.40602" lon="6.56078">
        <ele>294.5</ele>
        <time>2020-06-26T18:04:53Z</time>
      </trkpt>
      <trkpt lat="49.40601" lon="6.56086">
        <ele>294.6</ele>
        <time>2020-06-26T18:04:54Z</time>
      </trkpt>
      <trkpt lat="49.406" lon="6.56093">
        <ele>294.8</ele>
        <time>2020-06-26T18:04:55Z</time>
      </trkpt>
      <trkpt lat="49.40599" lon="6.561">
        <ele>294.9</ele>
        <time>2020-06-26T18:04:56Z</time>
      </trkpt>
      <trkpt lat="49.40597" lon="6.56107">
        <ele>295.1</ele>
        <time>2020-06-26T18:04:57Z</time>
      </trkpt>
      <trkpt lat="49.40596" lon="6.56114">
        <ele>295.3</ele>
        <time>2020-06-26T18:04:58Z</time>
      </trkpt>
      <trkpt lat="49.40595" lon="6.56122">
        <ele>295.5</ele>
        <time>2020-06-26T18:04:59Z</time>
      </trkpt>
      <trkpt lat="49.40595" lon="6.56129">
        <ele>295.7</ele>
        <time>2020-06-26T18:05:00Z</time>
      </trkpt>
      <trkpt lat="49.40594" lon="6.56135">
        <ele>295.9</ele>
        <time>2020-06-26T18:05:01Z</time>
      </trkpt>
      <trkpt lat="49.40593" lon="6.56141">
        <ele>296.1</ele>
        <time>2020-06-26T18:05:02Z</time>
      </trkpt>
      <trkpt lat="49.40593" lon="6.56147">
        <ele>296.2</ele>
        <time>2020-06-26T18:05:03Z</time>
      </trkpt>
      <trkpt lat="49.40592" lon="6.56153">
        <ele>296.4</ele>
        <time>2020-06-26T18:05:04Z</time>
      </trkpt>
      <trkpt lat="49.40592" lon="6.56159">
        <ele>296.5</ele>
        <time>2020-06-26T18:05:05Z</time>
      </trkpt>
      <trkpt lat="49.40591" lon="6.56165">
        <ele>296.7</ele>
        <time>2020-06-26T18:05:06Z</time>
      </trkpt>
      <trkpt lat="49.40591" lon="6.5617">
        <ele>296.8</ele>
        <time>2020-06-26T18:05:07Z</time>
      </trkpt>
      <trkpt lat="49.4059" lon="6.56176">
        <ele>296.9</ele>
        <time>2020-06-26T18:05:08Z</time>
      </trkpt>
      <trkpt lat="49.40589" lon="6.56182">
        <ele>297.1</ele>
        <time>2020-06-26T18:05:09Z</time>
      </trkpt>
      <trkpt lat="49.40589" lon="6.56187">
        <ele>297.2</ele>
        <time>2020-06-26T18:05:10Z</time>
      </trkpt>
      <trkpt lat="49.40586" lon="6.56192">
        <ele>297.3</ele>
        <time>2020-06-26T18:05:11Z</time>
      </trkpt>
      <trkpt lat="49.40584" lon="6.56197">
        <ele>297.4</ele>
        <time>2020-06-26T18:05:12Z</time>
      </trkpt>
      <trkpt lat="49.40584" lon="6.56202">
        <ele>297.5</ele>
        <time>2020-06-26T18:05:13Z</time>
      </trkpt>
      <trkpt lat="49.40583" lon="6.56207">
        <ele>297.5</ele>
        <time>2020-06-26T18:05:14Z</time>
      </trkpt>
      <trkpt lat="49.40582" lon="6.56212">
        <ele>297.6</ele>
        <time>2020-06-26T18:05:15Z</time>
      </trkpt>
      <trkpt lat="49.40581" lon="6.56216">
        <ele>297.6</ele>
        <time>2020-06-26T18:05:16Z</time>
      </trkpt>
      <trkpt lat="49.4058" lon="6.56221">
        <ele>297.6</ele>
        <time>2020-06-26T18:05:17Z</time>
      </trkpt>
      <trkpt lat="49.40579" lon="6.56226">
        <ele>297.6</ele>
        <time>2020-06-26T18:05:18Z</time>
      </trkpt>
      <trkpt lat="49.40579" lon="6.56231">
        <ele>297.5</ele>
        <time>2020-06-26T18:05:19Z</time>
      </trkpt>
      <trkpt lat="49.40578" lon="6.56236">
        <ele>297.5</ele>
        <time>2020-06-26T18:05:20Z</time>
      </trkpt>
      <trkpt lat="49.40577" lon="6.56241">
        <ele>297.5</ele>
        <time>2020-06-26T18:05:21Z</time>
      </trkpt>
      <trkpt lat="49.40577" lon="6.56247">
        <ele>297.4</ele>
        <time>2020-06-26T18:05:22Z</time>
      </trkpt>
      <trkpt lat="49.40576" lon="6.56253">
        <ele>297.4</ele>
        <time>2020-06-26T18:05:23Z</time>
      </trkpt>
      <trkpt lat="49.40576" lon="6.56258">
        <ele>297.4</ele>
        <time>2020-06-26T18:05:24Z</time>
      </trkpt>
      <trkpt lat="49.40575" lon="6.56263">
        <ele>297.3</ele>
        <time>2020-06-26T18:05:25Z</time>
      </trkpt>
      <trkpt lat="49.40573" lon="6.56268">
        <ele>297.2</ele>
        <time>2020-06-26T18:05:26Z</time>
      </trkpt>
      <trkpt lat="49.40571" lon="6.56273">
        <ele>297.2</ele>
        <time>2020-06-26T18:05:27Z</time>
      </trkpt>
      <trkpt lat="49.40571" lon="6.56278">
        <ele>297</ele>
        <time>2020-06-26T18:05:28Z</time>
      </trkpt>
      <trkpt lat="49.40571" lon="6.56284">
        <ele>296.9</ele>
        <time>2020-06-26T18:05:29Z</time>
      </trkpt>
      <trkpt lat="49.4057" lon="6.5629">
        <ele>296.7</ele>
        <time>2020-06-26T18:05:30Z</time>
      </trkpt>
      <trkpt lat="49.4057" lon="6.56297">
        <ele>296.5</ele>
        <time>2020-06-26T18:05:31Z</time>
      </trkpt>
      <trkpt lat="49.40569" lon="6.56304">
        <ele>296.2</ele>
        <time>2020-06-26T18:05:32Z</time>
      </trkpt>
      <trkpt lat="49.40569" lon="6.56312">
        <ele>295.9</ele>
        <time>2020-06-26T18:05:33Z</time>
      </trkpt>
      <trkpt lat="49.40568" lon="6.56321">
        <ele>295.5</ele>
        <time>2020-06-26T18:05:34Z</time>
      </trkpt>
      <trkpt lat="49.40568" lon="6.5633">
        <ele>295.2</ele>
        <time>2020-06-26T18:05:35Z</time>
      </trkpt>
      <trkpt lat="49.40568" lon="6.5634">
        <ele>294.7</ele>
        <time>2020-06-26T18:05:36Z</time>
      </trkpt>
      <trkpt lat="49.40568" lon="6.5635">
        <ele>294.2</ele>
        <time>2020-06-26T18:05:37Z</time>
      </trkpt>
      <trkpt lat="49.40569" lon="6.5636">
        <ele>293.7</ele>
        <time>2020-06-26T18:05:38Z</time>
      </trkpt>
      <trkpt lat="49.40571" lon="6.5637">
        <ele>293.3</ele>
        <time>2020-06-26T18:05:39Z</time>
      </trkpt>
      <trkpt lat="49.40572" lon="6.56378">
        <ele>292.8</ele>
        <time>2020-06-26T18:05:40Z</time>
      </trkpt>
      <trkpt lat="49.40573" lon="6.56387">
        <ele>292.5</ele>
        <time>2020-06-26T18:05:41Z</time>
      </trkpt>
      <trkpt lat="49.40573" lon="6.56395">
        <ele>292.2</ele>
        <time>2020-06-26T18:05:42Z</time>
      </trkpt>
      <trkpt lat="49.40574" lon="6.56403">
        <ele>291.9</ele>
        <time>2020-06-26T18:05:43Z</time>
      </trkpt>
      <trkpt lat="49.40575" lon="6.56412">
        <ele>291.7</ele>
        <time>2020-06-26T18:05:44Z</time>
      </trkpt>
      <trkpt lat="49.40576" lon="6.5642">
        <ele>291.4</ele>
        <time>2020-06-26T18:05:45Z</time>
      </trkpt>
      <trkpt lat="49.40577" lon="6.56428">
        <ele>291.2</ele>
        <time>2020-06-26T18:05:46Z</time>
      </trkpt>
      <trkpt lat="49.40575" lon="6.56436">
        <ele>291</ele>
        <time>2020-06-26T18:05:47Z</time>
      </trkpt>
      <trkpt lat="49.40574" lon="6.56444">
        <ele>290.8</ele>
        <time>2020-06-26T18:05:48Z</time>
      </trkpt>
      <trkpt lat="49.40572" lon="6.56453">
        <ele>290.7</ele>
        <time>2020-06-26T18:05:49Z</time>
      </trkpt>
      <trkpt lat="49.40568" lon="6.56461">
        <ele>290.5</ele>
        <time>2020-06-26T18:05:50Z</time>
      </trkpt>
      <trkpt lat="49.40565" lon="6.56469">
        <ele>290.4</ele>
        <time>2020-06-26T18:05:51Z</time>
      </trkpt>
      <trkpt lat="49.40562" lon="6.56476">
        <ele>290.3</ele>
        <time>2020-06-26T18:05:52Z</time>
      </trkpt>
      <trkpt lat="49.40558" lon="6.56482">
        <ele>290.2</ele>
        <time>2020-06-26T18:05:53Z</time>
      </trkpt>
      <trkpt lat="49.40555" lon="6.56489">
        <ele>290.1</ele>
        <time>2020-06-26T18:05:54Z</time>
      </trkpt>
      <trkpt lat="49.40551" lon="6.56496">
        <ele>290</ele>
        <time>2020-06-26T18:05:55Z</time>
      </trkpt>
      <trkpt lat="49.40546" lon="6.56502">
        <ele>290</ele>
        <time>2020-06-26T18:05:56Z</time>
      </trkpt>
      <trkpt lat="49.40542" lon="6.56509">
        <ele>289.9</ele>
        <time>2020-06-26T18:05:57Z</time>
      </trkpt>
      <trkpt lat="49.40538" lon="6.56515">
        <ele>289.9</ele>
        <time>2020-06-26T18:05:58Z</time>
      </trkpt>
      <trkpt lat="49.40534" lon="6.56522">
        <ele>289.9</ele>
        <time>2020-06-26T18:05:59Z</time>
      </trkpt>
      <trkpt lat="49.4053" lon="6.56529">
        <ele>290</ele>
        <time>2020-06-26T18:06:00Z</time>
      </trkpt>
      <trkpt lat="49.40526" lon="6.56537">
        <ele>290</ele>
        <time>2020-06-26T18:06:01Z</time>
      </trkpt>
      <trkpt lat="49.40523" lon="6.56545">
        <ele>290.1</ele>
        <time>2020-06-26T18:06:02Z</time>
      </trkpt>
      <trkpt lat="49.40519" lon="6.56552">
        <ele>290.2</ele>
        <time>2020-06-26T18:06:03Z</time>
      </trkpt>
      <trkpt lat="49.40516" lon="6.5656">
        <ele>290.3</ele>
        <time>2020-06-26T18:06:04Z</time>
      </trkpt>
      <trkpt lat="49.40513" lon="6.56566">
        <ele>290.3</ele>
        <time>2020-06-26T18:06:05Z</time>
      </trkpt>
      <trkpt lat="49.40511" lon="6.56574">
        <ele>290.4</ele>
        <time>2020-06-26T18:06:06Z</time>
      </trkpt>
      <trkpt lat="49.40508" lon="6.56582">
        <ele>290.5</ele>
        <time>2020-06-26T18:06:07Z</time>
      </trkpt>
      <trkpt lat="49.40506" lon="6.5659">
        <ele>290.6</ele>
        <time>2020-06-26T18:06:08Z</time>
      </trkpt>
      <trkpt lat="49.40503" lon="6.56597">
        <ele>290.8</ele>
        <time>2020-06-26T18:06:09Z</time>
      </trkpt>
      <trkpt lat="49.40501" lon="6.56606">
        <ele>290.9</ele>
        <time>2020-06-26T18:06:10Z</time>
      </trkpt>
      <trkpt lat="49.40499" lon="6.56613">
        <ele>291.1</ele>
        <time>2020-06-26T18:06:11Z</time>
      </trkpt>
      <trkpt lat="49.40497" lon="6.56621">
        <ele>291.3</ele>
        <time>2020-06-26T18:06:12Z</time>
      </trkpt>
      <trkpt lat="49.40494" lon="6.56629">
        <ele>291.5</ele>
        <time>2020-06-26T18:06:13Z</time>
      </trkpt>
      <trkpt lat="49.40492" lon="6.56637">
        <ele>291.7</ele>
        <time>2020-06-26T18:06:14Z</time>
      </trkpt>
      <trkpt lat="49.4049" lon="6.56645">
        <ele>292</ele>
        <time>2020-06-26T18:06:15Z</time>
      </trkpt>
      <trkpt lat="49.40488" lon="6.56652">
        <ele>292.3</ele>
        <time>2020-06-26T18:06:16Z</time>
      </trkpt>
      <trkpt lat="49.40486" lon="6.5666">
        <ele>292.6</ele>
        <time>2020-06-26T18:06:17Z</time>
      </trkpt>
      <trkpt lat="49.40485" lon="6.56667">
        <ele>292.9</ele>
        <time>2020-06-26T18:06:18Z</time>
      </trkpt>
      <trkpt lat="49.40483" lon="6.56675">
        <ele>293.3</ele>
        <time>2020-06-26T18:06:19Z</time>
      </trkpt>
      <trkpt lat="49.40482" lon="6.56682">
        <ele>293.7</ele>
        <time>2020-06-26T18:06:20Z</time>
      </trkpt>
      <trkpt lat="49.40481" lon="6.56689">
        <ele>294</ele>
        <time>2020-06-26T18:06:21Z</time>
      </trkpt>
      <trkpt lat="49.4048" lon="6.56695">
        <ele>294.3</ele>
        <time>2020-06-26T18:06:22Z</time>
      </trkpt>
      <trkpt lat="49.40479" lon="6.567">
        <ele>294.6</ele>
        <time>2020-06-26T18:06:23Z</time>
      </trkpt>
      <trkpt lat="49.40478" lon="6.56704">
        <ele>294.8</ele>
        <time>2020-06-26T18:06:24Z</time>
      </trkpt>
      <trkpt lat="49.40478" lon="6.5671">
        <ele>295.1</ele>
        <time>2020-06-26T18:06:25Z</time>
      </trkpt>
      <trkpt lat="49.40478" lon="6.56715">
        <ele>295.3</ele>
        <time>2020-06-26T18:06:26Z</time>
      </trkpt>
      <trkpt lat="49.40478" lon="6.5672">
        <ele>295.6</ele>
        <time>2020-06-26T18:06:27Z</time>
      </trkpt>
      <trkpt lat="49.40477" lon="6.56725">
        <ele>295.8</ele>
        <time>2020-06-26T18:06:28Z</time>
      </trkpt>
      <trkpt lat="49.40477" lon="6.5673">
        <ele>296</ele>
        <time>2020-06-26T18:06:29Z</time>
      </trkpt>
      <trkpt lat="49.40476" lon="6.56734">
        <ele>296.3</ele>
        <time>2020-06-26T18:06:30Z</time>
      </trkpt>
      <trkpt lat="49.40476" lon="6.56739">
        <ele>296.6</ele>
        <time>2020-06-26T18:06:31Z</time>
      </trkpt>
      <trkpt lat="49.40474" lon="6.56744">
        <ele>296.8</ele>
        <time>2020-06-26T18:06:32Z</time>
      </trkpt>
      <trkpt lat="49.40474" lon="6.56749">
        <ele>297</ele>
        <time>2020-06-26T18:06:33Z</time>
      </trkpt>
      <trkpt lat="49.40474" lon="6.56754">
        <ele>297.2</ele>
        <time>2020-06-26T18:06:34Z</time>
      </trkpt>
      <trkpt lat="49.40474" lon="6.5676">
        <ele>297.5</ele>
        <time>2020-06-26T18:06:35Z</time>
      </trkpt>
      <trkpt lat="49.40475" lon="6.56765">
        <ele>297.6</ele>
        <time>2020-06-26T18:06:36Z</time>
      </trkpt>
      <trkpt lat="49.40474" lon="6.5677">
        <ele>297.9</ele>
        <time>2020-06-26T18:06:37Z</time>
      </trkpt>
      <trkpt lat="49.40474" lon="6.56776">
        <ele>298.1</ele>
        <time>2020-06-26T18:06:38Z</time>
      </trkpt>
      <trkpt lat="49.40473" lon="6.56781">
        <ele>298.4</ele>
        <time>2020-06-26T18:06:39Z</time>
      </trkpt>
      <trkpt lat="49.40473" lon="6.56786">
        <ele>298.7</ele>
        <time>2020-06-26T18:06:40Z</time>
      </trkpt>
      <trkpt lat="49.40473" lon="6.56791">
        <ele>299</ele>
        <time>2020-06-26T18:06:41Z</time>
      </trkpt>
      <trkpt lat="49.40473" lon="6.56797">
        <ele>299.3</ele>
        <time>2020-06-26T18:06:42Z</time>
      </trkpt>
      <trkpt lat="49.40473" lon="6.568">
        <ele>299.4</ele>
        <time>2020-06-26T18:06:43Z</time>
      </trkpt>
      <trkpt lat="49.40473" lon="6.56805">
        <ele>299.7</ele>
        <time>2020-06-26T18:06:44Z</time>
      </trkpt>
      <trkpt lat="49.40473" lon="6.56807">
        <ele>299.8</ele>
        <time>2020-06-26T18:06:45Z</time>
      </trkpt>
      <trkpt lat="49.40472" lon="6.56812">
        <ele>300</ele>
        <time>2020-06-26T18:06:46Z</time>
      </trkpt>
      <trkpt lat="49.40472" lon="6.56818">
        <ele>300.3</ele>
        <time>2020-06-26T18:06:47Z</time>
      </trkpt>
      <trkpt lat="49.40473" lon="6.5682">
        <ele>300.4</ele>
        <time>2020-06-26T18:06:48Z</time>
      </trkpt>
      <trkpt lat="49.40473" lon="6.56825">
        <ele>300.6</ele>
        <time>2020-06-26T18:06:49Z</time>
      </trkpt>
      <trkpt lat="49.40471" lon="6.56831">
        <ele>300.9</ele>
        <time>2020-06-26T18:06:50Z</time>
      </trkpt>
      <trkpt lat="49.40471" lon="6.56833">
        <ele>301</ele>
        <time>2020-06-26T18:06:51Z</time>
      </trkpt>
      <trkpt lat="49.40471" lon="6.56839">
        <ele>301.3</ele>
        <time>2020-06-26T18:06:52Z</time>
      </trkpt>
      <trkpt lat="49.40471" lon="6.56845">
        <ele>301.5</ele>
        <time>2020-06-26T18:06:53Z</time>
      </trkpt>
      <trkpt lat="49.4047" lon="6.5685">
        <ele>301.7</ele>
        <time>2020-06-26T18:06:54Z</time>
      </trkpt>
      <trkpt lat="49.4047" lon="6.56855">
        <ele>301.9</ele>
        <time>2020-06-26T18:06:55Z</time>
      </trkpt>
      <trkpt lat="49.40469" lon="6.56861">
        <ele>302.1</ele>
        <time>2020-06-26T18:06:56Z</time>
      </trkpt>
      <trkpt lat="49.40469" lon="6.56864">
        <ele>302.2</ele>
        <time>2020-06-26T18:06:57Z</time>
      </trkpt>
      <trkpt lat="49.40469" lon="6.56868">
        <ele>302.4</ele>
        <time>2020-06-26T18:06:58Z</time>
      </trkpt>
      <trkpt lat="49.40469" lon="6.56872">
        <ele>302.5</ele>
        <time>2020-06-26T18:06:59Z</time>
      </trkpt>
      <trkpt lat="49.40468" lon="6.56877">
        <ele>302.7</ele>
        <time>2020-06-26T18:07:00Z</time>
      </trkpt>
      <trkpt lat="49.40468" lon="6.56882">
        <ele>302.9</ele>
        <time>2020-06-26T18:07:01Z</time>
      </trkpt>
      <trkpt lat="49.40467" lon="6.56888">
        <ele>303.1</ele>
        <time>2020-06-26T18:07:02Z</time>
      </trkpt>
      <trkpt lat="49.40466" lon="6.56893">
        <ele>303.3</ele>
        <time>2020-06-26T18:07:03Z</time>
      </trkpt>
      <trkpt lat="49.40466" lon="6.56897">
        <ele>303.4</ele>
        <time>2020-06-26T18:07:04Z</time>
      </trkpt>
      <trkpt lat="49.40465" lon="6.56902">
        <ele>303.6</ele>
        <time>2020-06-26T18:07:05Z</time>
      </trkpt>
      <trkpt lat="49.40464" lon="6.56906">
        <ele>303.8</ele>
        <time>2020-06-26T18:07:06Z</time>
      </trkpt>
      <trkpt lat="49.40463" lon="6.5691">
        <ele>304</ele>
        <time>2020-06-26T18:07:07Z</time>
      </trkpt>
      <trkpt lat="49.40462" lon="6.56915">
        <ele>304.2</ele>
        <time>2020-06-26T18:07:08Z</time>
      </trkpt>
      <trkpt lat="49.40462" lon="6.56917">
        <ele>304.2</ele>
        <time>2020-06-26T18:07:09Z</time>
      </trkpt>
      <trkpt lat="49.40463" lon="6.56921">
        <ele>304.4</ele>
        <time>2020-06-26T18:07:10Z</time>
      </trkpt>
      <trkpt lat="49.40463" lon="6.56925">
        <ele>304.6</ele>
        <time>2020-06-26T18:07:11Z</time>
      </trkpt>
      <trkpt lat="49.40462" lon="6.5693">
        <ele>304.8</ele>
        <time>2020-06-26T18:07:12Z</time>
      </trkpt>
      <trkpt lat="49.40462" lon="6.56935">
        <ele>305</ele>
        <time>2020-06-26T18:07:13Z</time>
      </trkpt>
      <trkpt lat="49.40462" lon="6.56939">
        <ele>305.2</ele>
        <time>2020-06-26T18:07:14Z</time>
      </trkpt>
      <trkpt lat="49.4046" lon="6.56943">
        <ele>305.4</ele>
        <time>2020-06-26T18:07:15Z</time>
      </trkpt>
      <trkpt lat="49.4046" lon="6.56948">
        <ele>305.6</ele>
        <time>2020-06-26T18:07:16Z</time>
      </trkpt>
      <trkpt lat="49.4046" lon="6.56954">
        <ele>305.9</ele>
        <time>2020-06-26T18:07:17Z</time>
      </trkpt>
      <trkpt lat="49.4046" lon="6.56956">
        <ele>305.9</ele>
        <time>2020-06-26T18:07:18Z</time>
      </trkpt>
      <trkpt lat="49.40459" lon="6.5696">
        <ele>306.1</ele>
        <time>2020-06-26T18:07:19Z</time>
      </trkpt>
      <trkpt lat="49.40459" lon="6.56965">
        <ele>306.4</ele>
        <time>2020-06-26T18:07:20Z</time>
      </trkpt>
      <trkpt lat="49.40458" lon="6.5697">
        <ele>306.6</ele>
        <time>2020-06-26T18:07:21Z</time>
      </trkpt>
      <trkpt lat="49.40457" lon="6.56974">
        <ele>306.8</ele>
        <time>2020-06-26T18:07:22Z</time>
      </trkpt>
      <trkpt lat="49.40457" lon="6.5698">
        <ele>307</ele>
        <time>2020-06-26T18:07:23Z</time>
      </trkpt>
      <trkpt lat="49.40457" lon="6.56984">
        <ele>307.2</ele>
        <time>2020-06-26T18:07:24Z</time>
      </trkpt>
      <trkpt lat="49.40456" lon="6.56988">
        <ele>307.4</ele>
        <time>2020-06-26T18:07:25Z</time>
      </trkpt>
      <trkpt lat="49.40455" lon="6.56993">
        <ele>307.6</ele>
        <time>2020-06-26T18:07:26Z</time>
      </trkpt>
      <trkpt lat="49.40455" lon="6.56998">
        <ele>307.9</ele>
        <time>2020-06-26T18:07:27Z</time>
      </trkpt>
      <trkpt lat="49.40454" lon="6.57002">
        <ele>308</ele>
        <time>2020-06-26T18:07:28Z</time>
      </trkpt>
      <trkpt lat="49.40453" lon="6.57007">
        <ele>308.2</ele>
        <time>2020-06-26T18:07:29Z</time>
      </trkpt>
      <trkpt lat="49.40453" lon="6.57014">
        <ele>308.5</ele>
        <time>2020-06-26T18:07:30Z</time>
      </trkpt>
      <trkpt lat="49.40452" lon="6.57016">
        <ele>308.6</ele>
        <time>2020-06-26T18:07:31Z</time>
      </trkpt>
      <trkpt lat="49.40452" lon="6.57021">
        <ele>308.7</ele>
        <time>2020-06-26T18:07:32Z</time>
      </trkpt>
      <trkpt lat="49.40452" lon="6.57026">
        <ele>308.9</ele>
        <time>2020-06-26T18:07:33Z</time>
      </trkpt>
      <trkpt lat="49.40452" lon="6.57031">
        <ele>309.1</ele>
        <time>2020-06-26T18:07:34Z</time>
      </trkpt>
      <trkpt lat="49.40452" lon="6.57036">
        <ele>309.2</ele>
        <time>2020-06-26T18:07:35Z</time>
      </trkpt>
      <trkpt lat="49.40451" lon="6.57041">
        <ele>309.4</ele>
        <time>2020-06-26T18:07:36Z</time>
      </trkpt>
      <trkpt lat="49.40451" lon="6.57046">
        <ele>309.5</ele>
        <time>2020-06-26T18:07:37Z</time>
      </trkpt>
      <trkpt lat="49.4045" lon="6.57053">
        <ele>309.7</ele>
        <time>2020-06-26T18:07:38Z</time>
      </trkpt>
      <trkpt lat="49.4045" lon="6.57056">
        <ele>309.8</ele>
        <time>2020-06-26T18:07:39Z</time>
      </trkpt>
      <trkpt lat="49.4045" lon="6.57061">
        <ele>310</ele>
        <time>2020-06-26T18:07:40Z</time>
      </trkpt>
      <trkpt lat="49.40449" lon="6.57067">
        <ele>310.1</ele>
        <time>2020-06-26T18:07:41Z</time>
      </trkpt>
      <trkpt lat="49.40448" lon="6.57071">
        <ele>310.3</ele>
        <time>2020-06-26T18:07:42Z</time>
      </trkpt>
      <trkpt lat="49.40447" lon="6.57076">
        <ele>310.4</ele>
        <time>2020-06-26T18:07:43Z</time>
      </trkpt>
      <trkpt lat="49.40447" lon="6.57081">
        <ele>310.6</ele>
        <time>2020-06-26T18:07:44Z</time>
      </trkpt>
      <trkpt lat="49.40446" lon="6.57085">
        <ele>310.7</ele>
        <time>2020-06-26T18:07:45Z</time>
      </trkpt>
      <trkpt lat="49.40446" lon="6.57091">
        <ele>310.9</ele>
        <time>2020-06-26T18:07:46Z</time>
      </trkpt>
      <trkpt lat="49.40445" lon="6.57096">
        <ele>311.1</ele>
        <time>2020-06-26T18:07:47Z</time>
      </trkpt>
      <trkpt lat="49.40446" lon="6.571">
        <ele>311.5</ele>
        <time>2020-06-26T18:07:48Z</time>
      </trkpt>
      <trkpt lat="49.40445" lon="6.57105">
        <ele>311.9</ele>
        <time>2020-06-26T18:07:49Z</time>
      </trkpt>
      <trkpt lat="49.40444" lon="6.57109">
        <ele>312.2</ele>
        <time>2020-06-26T18:07:50Z</time>
      </trkpt>
      <trkpt lat="49.40444" lon="6.57115">
        <ele>312.5</ele>
        <time>2020-06-26T18:07:51Z</time>
      </trkpt>
      <trkpt lat="49.40444" lon="6.5712">
        <ele>312.8</ele>
        <time>2020-06-26T18:07:52Z</time>
      </trkpt>
      <trkpt lat="49.40444" lon="6.57122">
        <ele>312.8</ele>
        <time>2020-06-26T18:07:53Z</time>
      </trkpt>
      <trkpt lat="49.40444" lon="6.57127">
        <ele>313</ele>
        <time>2020-06-26T18:07:54Z</time>
      </trkpt>
      <trkpt lat="49.40445" lon="6.57131">
        <ele>313.2</ele>
        <time>2020-06-26T18:07:55Z</time>
      </trkpt>
      <trkpt lat="49.40445" lon="6.57136">
        <ele>313.3</ele>
        <time>2020-06-26T18:07:56Z</time>
      </trkpt>
      <trkpt lat="49.40445" lon="6.57141">
        <ele>313.5</ele>
        <time>2020-06-26T18:07:57Z</time>
      </trkpt>
      <trkpt lat="49.40444" lon="6.57146">
        <ele>313.6</ele>
        <time>2020-06-26T18:07:58Z</time>
      </trkpt>
      <trkpt lat="49.40444" lon="6.57152">
        <ele>313.8</ele>
        <time>2020-06-26T18:07:59Z</time>
      </trkpt>
      <trkpt lat="49.40443" lon="6.57156">
        <ele>313.9</ele>
        <time>2020-06-26T18:08:00Z</time>
      </trkpt>
      <trkpt lat="49.40443" lon="6.57162">
        <ele>314.1</ele>
        <time>2020-06-26T18:08:01Z</time>
      </trkpt>
      <trkpt lat="49.40443" lon="6.57164">
        <ele>314.1</ele>
        <time>2020-06-26T18:08:02Z</time>
      </trkpt>
      <trkpt lat="49.40442" lon="6.5717">
        <ele>314.3</ele>
        <time>2020-06-26T18:08:03Z</time>
      </trkpt>
      <trkpt lat="49.40442" lon="6.57177">
        <ele>314.5</ele>
        <time>2020-06-26T18:08:04Z</time>
      </trkpt>
      <trkpt lat="49.40441" lon="6.57183">
        <ele>314.6</ele>
        <time>2020-06-26T18:08:05Z</time>
      </trkpt>
      <trkpt lat="49.4044" lon="6.57188">
        <ele>314.7</ele>
        <time>2020-06-26T18:08:06Z</time>
      </trkpt>
      <trkpt lat="49.4044" lon="6.57193">
        <ele>314.9</ele>
        <time>2020-06-26T18:08:07Z</time>
      </trkpt>
      <trkpt lat="49.4044" lon="6.57199">
        <ele>315</ele>
        <time>2020-06-26T18:08:08Z</time>
      </trkpt>
      <trkpt lat="49.4044" lon="6.57202">
        <ele>315</ele>
        <time>2020-06-26T18:08:09Z</time>
      </trkpt>
      <trkpt lat="49.4044" lon="6.57208">
        <ele>315.2</ele>
        <time>2020-06-26T18:08:10Z</time>
      </trkpt>
      <trkpt lat="49.4044" lon="6.5721">
        <ele>315.2</ele>
        <time>2020-06-26T18:08:11Z</time>
      </trkpt>
      <trkpt lat="49.40439" lon="6.57218">
        <ele>315.4</ele>
        <time>2020-06-26T18:08:12Z</time>
      </trkpt>
      <trkpt lat="49.40438" lon="6.57224">
        <ele>315.6</ele>
        <time>2020-06-26T18:08:13Z</time>
      </trkpt>
      <trkpt lat="49.40438" lon="6.57231">
        <ele>315.7</ele>
        <time>2020-06-26T18:08:14Z</time>
      </trkpt>
      <trkpt lat="49.40437" lon="6.57236">
        <ele>315.8</ele>
        <time>2020-06-26T18:08:15Z</time>
      </trkpt>
      <trkpt lat="49.40437" lon="6.57241">
        <ele>315.9</ele>
        <time>2020-06-26T18:08:16Z</time>
      </trkpt>
      <trkpt lat="49.40438" lon="6.57247">
        <ele>316</ele>
        <time>2020-06-26T18:08:17Z</time>
      </trkpt>
      <trkpt lat="49.40439" lon="6.57252">
        <ele>316.1</ele>
        <time>2020-06-26T18:08:18Z</time>
      </trkpt>
      <trkpt lat="49.40439" lon="6.57258">
        <ele>316.2</ele>
        <time>2020-06-26T18:08:19Z</time>
      </trkpt>
      <trkpt lat="49.40439" lon="6.57264">
        <ele>316.3</ele>
        <time>2020-06-26T18:08:20Z</time>
      </trkpt>
      <trkpt lat="49.4044" lon="6.57271">
        <ele>316.4</ele>
        <time>2020-06-26T18:08:21Z</time>
      </trkpt>
      <trkpt lat="49.40439" lon="6.57277">
        <ele>316.6</ele>
        <time>2020-06-26T18:08:22Z</time>
      </trkpt>
      <trkpt lat="49.4044" lon="6.57283">
        <ele>316.7</ele>
        <time>2020-06-26T18:08:23Z</time>
      </trkpt>
      <trkpt lat="49.4044" lon="6.57289">
        <ele>316.8</ele>
        <time>2020-06-26T18:08:24Z</time>
      </trkpt>
      <trkpt lat="49.4044" lon="6.57296">
        <ele>317</ele>
        <time>2020-06-26T18:08:25Z</time>
      </trkpt>
      <trkpt lat="49.4044" lon="6.57302">
        <ele>317.1</ele>
        <time>2020-06-26T18:08:26Z</time>
      </trkpt>
      <trkpt lat="49.40441" lon="6.57307">
        <ele>317.2</ele>
        <time>2020-06-26T18:08:27Z</time>
      </trkpt>
      <trkpt lat="49.40441" lon="6.57312">
        <ele>317.3</ele>
        <time>2020-06-26T18:08:28Z</time>
      </trkpt>
      <trkpt lat="49.40441" lon="6.57316">
        <ele>317.3</ele>
        <time>2020-06-26T18:08:29Z</time>
      </trkpt>
      <trkpt lat="49.40441" lon="6.57321">
        <ele>317.4</ele>
        <time>2020-06-26T18:08:30Z</time>
      </trkpt>
      <trkpt lat="49.4044" lon="6.57327">
        <ele>317.4</ele>
        <time>2020-06-26T18:08:31Z</time>
      </trkpt>
      <trkpt lat="49.4044" lon="6.57331">
        <ele>317.4</ele>
        <time>2020-06-26T18:08:32Z</time>
      </trkpt>
      <trkpt lat="49.4044" lon="6.57336">
        <ele>317.5</ele>
        <time>2020-06-26T18:08:33Z</time>
      </trkpt>
      <trkpt lat="49.4044" lon="6.57343">
        <ele>317.5</ele>
        <time>2020-06-26T18:08:34Z</time>
      </trkpt>
      <trkpt lat="49.40439" lon="6.57345">
        <ele>317.5</ele>
        <time>2020-06-26T18:08:35Z</time>
      </trkpt>
      <trkpt lat="49.40439" lon="6.5735">
        <ele>317.5</ele>
        <time>2020-06-26T18:08:36Z</time>
      </trkpt>
      <trkpt lat="49.4044" lon="6.57357">
        <ele>317.4</ele>
        <time>2020-06-26T18:08:37Z</time>
      </trkpt>
      <trkpt lat="49.4044" lon="6.57362">
        <ele>317.4</ele>
        <time>2020-06-26T18:08:38Z</time>
      </trkpt>
      <trkpt lat="49.4044" lon="6.57368">
        <ele>317.3</ele>
        <time>2020-06-26T18:08:39Z</time>
      </trkpt>
      <trkpt lat="49.40439" lon="6.57371">
        <ele>317.2</ele>
        <time>2020-06-26T18:08:40Z</time>
      </trkpt>
      <trkpt lat="49.40438" lon="6.57377">
        <ele>317.1</ele>
        <time>2020-06-26T18:08:41Z</time>
      </trkpt>
      <trkpt lat="49.40435" lon="6.57383">
        <ele>317</ele>
        <time>2020-06-26T18:08:42Z</time>
      </trkpt>
      <trkpt lat="49.40434" lon="6.57391">
        <ele>316.9</ele>
        <time>2020-06-26T18:08:43Z</time>
      </trkpt>
      <trkpt lat="49.40434" lon="6.57397">
        <ele>316.8</ele>
        <time>2020-06-26T18:08:44Z</time>
      </trkpt>
      <trkpt lat="49.40434" lon="6.57404">
        <ele>316.7</ele>
        <time>2020-06-26T18:08:45Z</time>
      </trkpt>
      <trkpt lat="49.40433" lon="6.5741">
        <ele>316.7</ele>
        <time>2020-06-26T18:08:46Z</time>
      </trkpt>
      <trkpt lat="49.40433" lon="6.57417">
        <ele>316.7</ele>
        <time>2020-06-26T18:08:47Z</time>
      </trkpt>
      <trkpt lat="49.40432" lon="6.57425">
        <ele>316.7</ele>
        <time>2020-06-26T18:08:48Z</time>
      </trkpt>
      <trkpt lat="49.4043" lon="6.57434">
        <ele>316.7</ele>
        <time>2020-06-26T18:08:49Z</time>
      </trkpt>
      <trkpt lat="49.40429" lon="6.57442">
        <ele>316.7</ele>
        <time>2020-06-26T18:08:50Z</time>
      </trkpt>
      <trkpt lat="49.40427" lon="6.57448">
        <ele>316.7</ele>
        <time>2020-06-26T18:08:51Z</time>
      </trkpt>
      <trkpt lat="49.40425" lon="6.57454">
        <ele>316.7</ele>
        <time>2020-06-26T18:08:52Z</time>
      </trkpt>
      <trkpt lat="49.40423" lon="6.5746">
        <ele>316.7</ele>
        <time>2020-06-26T18:08:53Z</time>
      </trkpt>
      <trkpt lat="49.40421" lon="6.57467">
        <ele>316.7</ele>
        <time>2020-06-26T18:08:54Z</time>
      </trkpt>
      <trkpt lat="49.40419" lon="6.57476">
        <ele>316.8</ele>
        <time>2020-06-26T18:08:55Z</time>
      </trkpt>
      <trkpt lat="49.40417" lon="6.57483">
        <ele>316.9</ele>
        <time>2020-06-26T18:08:56Z</time>
      </trkpt>
      <trkpt lat="49.40414" lon="6.5749">
        <ele>317.1</ele>
        <time>2020-06-26T18:08:57Z</time>
      </trkpt>
      <trkpt lat="49.40413" lon="6.57496">
        <ele>317.2</ele>
        <time>2020-06-26T18:08:58Z</time>
      </trkpt>
      <trkpt lat="49.40412" lon="6.57501">
        <ele>317.4</ele>
        <time>2020-06-26T18:08:59Z</time>
      </trkpt>
      <trkpt lat="49.4041" lon="6.57507">
        <ele>317.5</ele>
        <time>2020-06-26T18:09:00Z</time>
      </trkpt>
      <trkpt lat="49.40408" lon="6.57513">
        <ele>317.7</ele>
        <time>2020-06-26T18:09:01Z</time>
      </trkpt>
      <trkpt lat="49.40406" lon="6.57519">
        <ele>317.8</ele>
        <time>2020-06-26T18:09:02Z</time>
      </trkpt>
      <trkpt lat="49.40405" lon="6.57524">
        <ele>318</ele>
        <time>2020-06-26T18:09:03Z</time>
      </trkpt>
      <trkpt lat="49.40404" lon="6.57529">
        <ele>318.2</ele>
        <time>2020-06-26T18:09:04Z</time>
      </trkpt>
      <trkpt lat="49.40403" lon="6.57535">
        <ele>318.3</ele>
        <time>2020-06-26T18:09:05Z</time>
      </trkpt>
      <trkpt lat="49.40402" lon="6.5754">
        <ele>318.5</ele>
        <time>2020-06-26T18:09:06Z</time>
      </trkpt>
      <trkpt lat="49.404" lon="6.57544">
        <ele>318.7</ele>
        <time>2020-06-26T18:09:07Z</time>
      </trkpt>
      <trkpt lat="49.40399" lon="6.57548">
        <ele>318.8</ele>
        <time>2020-06-26T18:09:08Z</time>
      </trkpt>
      <trkpt lat="49.40398" lon="6.57553">
        <ele>319</ele>
        <time>2020-06-26T18:09:09Z</time>
      </trkpt>
      <trkpt lat="49.40397" lon="6.57557">
        <ele>319.1</ele>
        <time>2020-06-26T18:09:10Z</time>
      </trkpt>
      <trkpt lat="49.40394" lon="6.57563">
        <ele>319.4</ele>
        <time>2020-06-26T18:09:11Z</time>
      </trkpt>
      <trkpt lat="49.40393" lon="6.57565">
        <ele>319.5</ele>
        <time>2020-06-26T18:09:12Z</time>
      </trkpt>
      <trkpt lat="49.40392" lon="6.57572">
        <ele>319.8</ele>
        <time>2020-06-26T18:09:13Z</time>
      </trkpt>
      <trkpt lat="49.4039" lon="6.57576">
        <ele>320</ele>
        <time>2020-06-26T18:09:14Z</time>
      </trkpt>
      <trkpt lat="49.40388" lon="6.57579">
        <ele>320.2</ele>
        <time>2020-06-26T18:09:15Z</time>
      </trkpt>
      <trkpt lat="49.40386" lon="6.57583">
        <ele>320.4</ele>
        <time>2020-06-26T18:09:16Z</time>
      </trkpt>
      <trkpt lat="49.40384" lon="6.57587">
        <ele>320.7</ele>
        <time>2020-06-26T18:09:17Z</time>
      </trkpt>
      <trkpt lat="49.40384" lon="6.57592">
        <ele>320.9</ele>
        <time>2020-06-26T18:09:18Z</time>
      </trkpt>
      <trkpt lat="49.40382" lon="6.57596">
        <ele>321.1</ele>
        <time>2020-06-26T18:09:19Z</time>
      </trkpt>
      <trkpt lat="49.40379" lon="6.576">
        <ele>321.4</ele>
        <time>2020-06-26T18:09:20Z</time>
      </trkpt>
      <trkpt lat="49.40378" lon="6.57601">
        <ele>321.5</ele>
        <time>2020-06-26T18:09:21Z</time>
      </trkpt>
      <trkpt lat="49.40377" lon="6.57606">
        <ele>321.8</ele>
        <time>2020-06-26T18:09:22Z</time>
      </trkpt>
      <trkpt lat="49.40377" lon="6.5761">
        <ele>322.1</ele>
        <time>2020-06-26T18:09:23Z</time>
      </trkpt>
      <trkpt lat="49.40375" lon="6.57615">
        <ele>322.4</ele>
        <time>2020-06-26T18:09:24Z</time>
      </trkpt>
      <trkpt lat="49.40374" lon="6.57619">
        <ele>322.7</ele>
        <time>2020-06-26T18:09:25Z</time>
      </trkpt>
      <trkpt lat="49.40371" lon="6.57626">
        <ele>323.2</ele>
        <time>2020-06-26T18:09:26Z</time>
      </trkpt>
      <trkpt lat="49.40369" lon="6.5763">
        <ele>323.6</ele>
        <time>2020-06-26T18:09:27Z</time>
      </trkpt>
      <trkpt lat="49.40366" lon="6.57634">
        <ele>323.9</ele>
        <time>2020-06-26T18:09:28Z</time>
      </trkpt>
      <trkpt lat="49.40364" lon="6.57639">
        <ele>324.3</ele>
        <time>2020-06-26T18:09:29Z</time>
      </trkpt>
      <trkpt lat="49.40362" lon="6.57643">
        <ele>324.6</ele>
        <time>2020-06-26T18:09:30Z</time>
      </trkpt>
      <trkpt lat="49.4036" lon="6.57646">
        <ele>324.9</ele>
        <time>2020-06-26T18:09:31Z</time>
      </trkpt>
      <trkpt lat="49.40358" lon="6.57651">
        <ele>325.2</ele>
        <time>2020-06-26T18:09:32Z</time>
      </trkpt>
      <trkpt lat="49.40356" lon="6.57655">
        <ele>325.5</ele>
        <time>2020-06-26T18:09:33Z</time>
      </trkpt>
      <trkpt lat="49.40354" lon="6.5766">
        <ele>325.9</ele>
        <time>2020-06-26T18:09:34Z</time>
      </trkpt>
      <trkpt lat="49.40353" lon="6.57662">
        <ele>326</ele>
        <time>2020-06-26T18:09:35Z</time>
      </trkpt>
      <trkpt lat="49.40352" lon="6.57666">
        <ele>326.3</ele>
        <time>2020-06-26T18:09:36Z</time>
      </trkpt>
      <trkpt lat="49.40349" lon="6.57671">
        <ele>326.6</ele>
        <time>2020-06-26T18:09:37Z</time>
      </trkpt>
      <trkpt lat="49.40348" lon="6.57672">
        <ele>326.8</ele>
        <time>2020-06-26T18:09:38Z</time>
      </trkpt>
      <trkpt lat="49.40346" lon="6.57676">
        <ele>327</ele>
        <time>2020-06-26T18:09:39Z</time>
      </trkpt>
      <trkpt lat="49.40343" lon="6.57681">
        <ele>327.4</ele>
        <time>2020-06-26T18:09:40Z</time>
      </trkpt>
      <trkpt lat="49.40342" lon="6.57683">
        <ele>327.5</ele>
        <time>2020-06-26T18:09:41Z</time>
      </trkpt>
      <trkpt lat="49.40339" lon="6.57685">
        <ele>327.7</ele>
        <time>2020-06-26T18:09:42Z</time>
      </trkpt>
      <trkpt lat="49.40335" lon="6.57691">
        <ele>328.1</ele>
        <time>2020-06-26T18:09:43Z</time>
      </trkpt>
      <trkpt lat="49.40332" lon="6.57695">
        <ele>328.4</ele>
        <time>2020-06-26T18:09:44Z</time>
      </trkpt>
      <trkpt lat="49.4033" lon="6.57699">
        <ele>328.6</ele>
        <time>2020-06-26T18:09:45Z</time>
      </trkpt>
      <trkpt lat="49.40327" lon="6.57703">
        <ele>328.9</ele>
        <time>2020-06-26T18:09:46Z</time>
      </trkpt>
      <trkpt lat="49.40325" lon="6.57705">
        <ele>329</ele>
        <time>2020-06-26T18:09:47Z</time>
      </trkpt>
      <trkpt lat="49.40322" lon="6.57708">
        <ele>329.1</ele>
        <time>2020-06-26T18:09:48Z</time>
      </trkpt>
      <trkpt lat="49.4032" lon="6.57711">
        <ele>329.2</ele>
        <time>2020-06-26T18:09:49Z</time>
      </trkpt>
      <trkpt lat="49.40318" lon="6.57714">
        <ele>329.3</ele>
        <time>2020-06-26T18:09:50Z</time>
      </trkpt>
      <trkpt lat="49.40316" lon="6.57718">
        <ele>329.4</ele>
        <time>2020-06-26T18:09:51Z</time>
      </trkpt>
      <trkpt lat="49.40315" lon="6.57719">
        <ele>329.5</ele>
        <time>2020-06-26T18:09:52Z</time>
      </trkpt>
      <trkpt lat="49.40313" lon="6.57723">
        <ele>329.5</ele>
        <time>2020-06-26T18:09:53Z</time>
      </trkpt>
      <trkpt lat="49.4031" lon="6.57727">
        <ele>329.6</ele>
        <time>2020-06-26T18:09:54Z</time>
      </trkpt>
      <trkpt lat="49.40309" lon="6.57729">
        <ele>329.7</ele>
        <time>2020-06-26T18:09:55Z</time>
      </trkpt>
      <trkpt lat="49.40308" lon="6.57731">
        <ele>329.7</ele>
        <time>2020-06-26T18:09:56Z</time>
      </trkpt>
      <trkpt lat="49.40307" lon="6.57733">
        <ele>329.7</ele>
        <time>2020-06-26T18:09:57Z</time>
      </trkpt>
      <trkpt lat="49.40305" lon="6.57735">
        <ele>330.1</ele>
        <time>2020-06-26T18:09:58Z</time>
      </trkpt>
      <trkpt lat="49.40304" lon="6.57736">
        <ele>330.3</ele>
        <time>2020-06-26T18:09:59Z</time>
      </trkpt>
      <trkpt lat="49.40302" lon="6.57739">
        <ele>330.7</ele>
        <time>2020-06-26T18:10:00Z</time>
      </trkpt>
      <trkpt lat="49.40301" lon="6.57741">
        <ele>330.8</ele>
        <time>2020-06-26T18:10:01Z</time>
      </trkpt>
      <trkpt lat="49.40299" lon="6.57743">
        <ele>331.2</ele>
        <time>2020-06-26T18:10:02Z</time>
      </trkpt>
      <trkpt lat="49.40296" lon="6.57746">
        <ele>331.4</ele>
        <time>2020-06-26T18:10:03Z</time>
      </trkpt>
      <trkpt lat="49.40294" lon="6.57749">
        <ele>331.4</ele>
        <time>2020-06-26T18:10:04Z</time>
      </trkpt>
      <trkpt lat="49.40292" lon="6.57753">
        <ele>331.5</ele>
        <time>2020-06-26T18:10:05Z</time>
      </trkpt>
      <trkpt lat="49.4029" lon="6.57756">
        <ele>331.4</ele>
        <time>2020-06-26T18:10:06Z</time>
      </trkpt>
      <trkpt lat="49.40287" lon="6.5776">
        <ele>331.3</ele>
        <time>2020-06-26T18:10:07Z</time>
      </trkpt>
      <trkpt lat="49.40284" lon="6.57764">
        <ele>331.2</ele>
        <time>2020-06-26T18:10:08Z</time>
      </trkpt>
      <trkpt lat="49.4028" lon="6.57769">
        <ele>331.1</ele>
        <time>2020-06-26T18:10:09Z</time>
      </trkpt>
      <trkpt lat="49.40277" lon="6.57772">
        <ele>331</ele>
        <time>2020-06-26T18:10:10Z</time>
      </trkpt>
      <trkpt lat="49.40275" lon="6.57776">
        <ele>330.9</ele>
        <time>2020-06-26T18:10:11Z</time>
      </trkpt>
      <trkpt lat="49.40271" lon="6.5778">
        <ele>330.9</ele>
        <time>2020-06-26T18:10:12Z</time>
      </trkpt>
      <trkpt lat="49.40268" lon="6.57783">
        <ele>330.8</ele>
        <time>2020-06-26T18:10:13Z</time>
      </trkpt>
      <trkpt lat="49.40265" lon="6.57787">
        <ele>330.7</ele>
        <time>2020-06-26T18:10:14Z</time>
      </trkpt>
      <trkpt lat="49.40261" lon="6.5779">
        <ele>330.6</ele>
        <time>2020-06-26T18:10:15Z</time>
      </trkpt>
      <trkpt lat="49.40258" lon="6.57795">
        <ele>330.5</ele>
        <time>2020-06-26T18:10:16Z</time>
      </trkpt>
      <trkpt lat="49.40255" lon="6.57798">
        <ele>330.4</ele>
        <time>2020-06-26T18:10:17Z</time>
      </trkpt>
      <trkpt lat="49.40251" lon="6.57801">
        <ele>330.2</ele>
        <time>2020-06-26T18:10:18Z</time>
      </trkpt>
      <trkpt lat="49.40248" lon="6.57807">
        <ele>330</ele>
        <time>2020-06-26T18:10:19Z</time>
      </trkpt>
      <trkpt lat="49.40245" lon="6.57811">
        <ele>329.9</ele>
        <time>2020-06-26T18:10:20Z</time>
      </trkpt>
      <trkpt lat="49.40243" lon="6.57816">
        <ele>329.7</ele>
        <time>2020-06-26T18:10:21Z</time>
      </trkpt>
      <trkpt lat="49.4024" lon="6.57819">
        <ele>329.5</ele>
        <time>2020-06-26T18:10:22Z</time>
      </trkpt>
      <trkpt lat="49.40235" lon="6.57823">
        <ele>329.2</ele>
        <time>2020-06-26T18:10:23Z</time>
      </trkpt>
      <trkpt lat="49.40232" lon="6.57826">
        <ele>329</ele>
        <time>2020-06-26T18:10:24Z</time>
      </trkpt>
      <trkpt lat="49.40228" lon="6.5783">
        <ele>328.7</ele>
        <time>2020-06-26T18:10:25Z</time>
      </trkpt>
      <trkpt lat="49.40223" lon="6.57834">
        <ele>328.4</ele>
        <time>2020-06-26T18:10:26Z</time>
      </trkpt>
      <trkpt lat="49.40219" lon="6.5784">
        <ele>328</ele>
        <time>2020-06-26T18:10:27Z</time>
      </trkpt>
      <trkpt lat="49.40213" lon="6.57845">
        <ele>327.7</ele>
        <time>2020-06-26T18:10:28Z</time>
      </trkpt>
      <trkpt lat="49.40208" lon="6.5785">
        <ele>327.3</ele>
        <time>2020-06-26T18:10:29Z</time>
      </trkpt>
      <trkpt lat="49.40201" lon="6.57856">
        <ele>327</ele>
        <time>2020-06-26T18:10:30Z</time>
      </trkpt>
      <trkpt lat="49.40196" lon="6.57861">
        <ele>326.7</ele>
        <time>2020-06-26T18:10:31Z</time>
      </trkpt>
      <trkpt lat="49.4019" lon="6.57866">
        <ele>326.5</ele>
        <time>2020-06-26T18:10:32Z</time>
      </trkpt>
      <trkpt lat="49.40184" lon="6.57872">
        <ele>326.2</ele>
        <time>2020-06-26T18:10:33Z</time>
      </trkpt>
      <trkpt lat="49.40177" lon="6.57878">
        <ele>325.9</ele>
        <time>2020-06-26T18:10:34Z</time>
      </trkpt>
      <trkpt lat="49.40171" lon="6.57882">
        <ele>325.7</ele>
        <time>2020-06-26T18:10:35Z</time>
      </trkpt>
      <trkpt lat="49.40165" lon="6.57888">
        <ele>325.5</ele>
        <time>2020-06-26T18:10:36Z</time>
      </trkpt>
      <trkpt lat="49.40159" lon="6.57893">
        <ele>325.3</ele>
        <time>2020-06-26T18:10:37Z</time>
      </trkpt>
      <trkpt lat="49.40153" lon="6.57898">
        <ele>325.1</ele>
        <time>2020-06-26T18:10:38Z</time>
      </trkpt>
      <trkpt lat="49.40147" lon="6.57903">
        <ele>324.9</ele>
        <time>2020-06-26T18:10:39Z</time>
      </trkpt>
      <trkpt lat="49.40142" lon="6.57909">
        <ele>324.7</ele>
        <time>2020-06-26T18:10:40Z</time>
      </trkpt>
      <trkpt lat="49.40136" lon="6.57914">
        <ele>324.5</ele>
        <time>2020-06-26T18:10:41Z</time>
      </trkpt>
      <trkpt lat="49.4013" lon="6.57919">
        <ele>324.2</ele>
        <time>2020-06-26T18:10:42Z</time>
      </trkpt>
      <trkpt lat="49.40123" lon="6.57925">
        <ele>324</ele>
        <time>2020-06-26T18:10:43Z</time>
      </trkpt>
      <trkpt lat="49.40117" lon="6.5793">
        <ele>323.7</ele>
        <time>2020-06-26T18:10:44Z</time>
      </trkpt>
      <trkpt lat="49.40111" lon="6.57935">
        <ele>323.4</ele>
        <time>2020-06-26T18:10:45Z</time>
      </trkpt>
      <trkpt lat="49.40105" lon="6.5794">
        <ele>323.1</ele>
        <time>2020-06-26T18:10:46Z</time>
      </trkpt>
      <trkpt lat="49.40099" lon="6.57946">
        <ele>322.9</ele>
        <time>2020-06-26T18:10:47Z</time>
      </trkpt>
      <trkpt lat="49.40092" lon="6.57952">
        <ele>322.6</ele>
        <time>2020-06-26T18:10:48Z</time>
      </trkpt>
      <trkpt lat="49.40086" lon="6.57957">
        <ele>322.4</ele>
        <time>2020-06-26T18:10:49Z</time>
      </trkpt>
      <trkpt lat="49.4008" lon="6.57962">
        <ele>322.1</ele>
        <time>2020-06-26T18:10:50Z</time>
      </trkpt>
      <trkpt lat="49.40074" lon="6.57968">
        <ele>321.7</ele>
        <time>2020-06-26T18:10:51Z</time>
      </trkpt>
      <trkpt lat="49.40068" lon="6.57973">
        <ele>321.3</ele>
        <time>2020-06-26T18:10:52Z</time>
      </trkpt>
      <trkpt lat="49.40062" lon="6.57978">
        <ele>320.9</ele>
        <time>2020-06-26T18:10:53Z</time>
      </trkpt>
      <trkpt lat="49.40056" lon="6.57983">
        <ele>320.6</ele>
        <time>2020-06-26T18:10:54Z</time>
      </trkpt>
      <trkpt lat="49.40051" lon="6.57987">
        <ele>320.3</ele>
        <time>2020-06-26T18:10:55Z</time>
      </trkpt>
      <trkpt lat="49.40046" lon="6.57991">
        <ele>320</ele>
        <time>2020-06-26T18:10:56Z</time>
      </trkpt>
      <trkpt lat="49.40042" lon="6.57995">
        <ele>319.7</ele>
        <time>2020-06-26T18:10:57Z</time>
      </trkpt>
      <trkpt lat="49.40037" lon="6.57999">
        <ele>319.4</ele>
        <time>2020-06-26T18:10:58Z</time>
      </trkpt>
      <trkpt lat="49.40033" lon="6.58003">
        <ele>319.1</ele>
        <time>2020-06-26T18:10:59Z</time>
      </trkpt>
      <trkpt lat="49.40029" lon="6.58006">
        <ele>318.8</ele>
        <time>2020-06-26T18:11:00Z</time>
      </trkpt>
      <trkpt lat="49.40025" lon="6.58009">
        <ele>318.6</ele>
        <time>2020-06-26T18:11:01Z</time>
      </trkpt>
      <trkpt lat="49.40022" lon="6.58012">
        <ele>318.3</ele>
        <time>2020-06-26T18:11:02Z</time>
      </trkpt>
      <trkpt lat="49.40019" lon="6.58015">
        <ele>318</ele>
        <time>2020-06-26T18:11:03Z</time>
      </trkpt>
      <trkpt lat="49.40015" lon="6.58017">
        <ele>317.8</ele>
        <time>2020-06-26T18:11:04Z</time>
      </trkpt>
      <trkpt lat="49.40012" lon="6.5802">
        <ele>317.5</ele>
        <time>2020-06-26T18:11:05Z</time>
      </trkpt>
      <trkpt lat="49.40008" lon="6.58021">
        <ele>317.3</ele>
        <time>2020-06-26T18:11:06Z</time>
      </trkpt>
      <trkpt lat="49.40005" lon="6.58023">
        <ele>317.1</ele>
        <time>2020-06-26T18:11:07Z</time>
      </trkpt>
      <trkpt lat="49.40003" lon="6.58025">
        <ele>316.9</ele>
        <time>2020-06-26T18:11:08Z</time>
      </trkpt>
      <trkpt lat="49.39999" lon="6.58026">
        <ele>316.7</ele>
        <time>2020-06-26T18:11:09Z</time>
      </trkpt>
      <trkpt lat="49.39996" lon="6.58027">
        <ele>316.5</ele>
        <time>2020-06-26T18:11:10Z</time>
      </trkpt>
      <trkpt lat="49.39993" lon="6.58028">
        <ele>316.3</ele>
        <time>2020-06-26T18:11:11Z</time>
      </trkpt>
      <trkpt lat="49.3999" lon="6.5803">
        <ele>316</ele>
        <time>2020-06-26T18:11:12Z</time>
      </trkpt>
      <trkpt lat="49.39987" lon="6.58033">
        <ele>315.8</ele>
        <time>2020-06-26T18:11:13Z</time>
      </trkpt>
      <trkpt lat="49.39983" lon="6.58034">
        <ele>315.5</ele>
        <time>2020-06-26T18:11:14Z</time>
      </trkpt>
      <trkpt lat="49.3998" lon="6.58037">
        <ele>315.3</ele>
        <time>2020-06-26T18:11:15Z</time>
      </trkpt>
      <trkpt lat="49.39977" lon="6.58039">
        <ele>315.1</ele>
        <time>2020-06-26T18:11:16Z</time>
      </trkpt>
      <trkpt lat="49.39974" lon="6.58041">
        <ele>314.8</ele>
        <time>2020-06-26T18:11:17Z</time>
      </trkpt>
      <trkpt lat="49.3997" lon="6.58043">
        <ele>314.5</ele>
        <time>2020-06-26T18:11:18Z</time>
      </trkpt>
      <trkpt lat="49.39966" lon="6.58044">
        <ele>314.2</ele>
        <time>2020-06-26T18:11:19Z</time>
      </trkpt>
      <trkpt lat="49.39963" lon="6.58046">
        <ele>313.8</ele>
        <time>2020-06-26T18:11:20Z</time>
      </trkpt>
      <trkpt lat="49.39959" lon="6.58047">
        <ele>313.4</ele>
        <time>2020-06-26T18:11:21Z</time>
      </trkpt>
      <trkpt lat="49.39955" lon="6.58049">
        <ele>313.1</ele>
        <time>2020-06-26T18:11:22Z</time>
      </trkpt>
      <trkpt lat="49.39951" lon="6.58051">
        <ele>312.6</ele>
        <time>2020-06-26T18:11:23Z</time>
      </trkpt>
      <trkpt lat="49.39947" lon="6.58054">
        <ele>312.2</ele>
        <time>2020-06-26T18:11:24Z</time>
      </trkpt>
      <trkpt lat="49.39943" lon="6.58056">
        <ele>311.8</ele>
        <time>2020-06-26T18:11:25Z</time>
      </trkpt>
      <trkpt lat="49.39939" lon="6.58058">
        <ele>311.3</ele>
        <time>2020-06-26T18:11:26Z</time>
      </trkpt>
      <trkpt lat="49.39934" lon="6.5806">
        <ele>310.8</ele>
        <time>2020-06-26T18:11:27Z</time>
      </trkpt>
      <trkpt lat="49.39929" lon="6.58063">
        <ele>310.2</ele>
        <time>2020-06-26T18:11:28Z</time>
      </trkpt>
      <trkpt lat="49.39924" lon="6.58067">
        <ele>309.7</ele>
        <time>2020-06-26T18:11:29Z</time>
      </trkpt>
      <trkpt lat="49.3992" lon="6.58071">
        <ele>309.1</ele>
        <time>2020-06-26T18:11:30Z</time>
      </trkpt>
      <trkpt lat="49.39915" lon="6.58075">
        <ele>308.5</ele>
        <time>2020-06-26T18:11:31Z</time>
      </trkpt>
      <trkpt lat="49.3991" lon="6.58079">
        <ele>307.9</ele>
        <time>2020-06-26T18:11:32Z</time>
      </trkpt>
      <trkpt lat="49.39905" lon="6.58084">
        <ele>307.4</ele>
        <time>2020-06-26T18:11:33Z</time>
      </trkpt>
      <trkpt lat="49.39901" lon="6.58088">
        <ele>307</ele>
        <time>2020-06-26T18:11:34Z</time>
      </trkpt>
      <trkpt lat="49.39897" lon="6.58093">
        <ele>306.7</ele>
        <time>2020-06-26T18:11:35Z</time>
      </trkpt>
      <trkpt lat="49.39893" lon="6.58098">
        <ele>306.3</ele>
        <time>2020-06-26T18:11:36Z</time>
      </trkpt>
      <trkpt lat="49.39889" lon="6.58102">
        <ele>306.1</ele>
        <time>2020-06-26T18:11:37Z</time>
      </trkpt>
      <trkpt lat="49.39885" lon="6.58106">
        <ele>305.9</ele>
        <time>2020-06-26T18:11:38Z</time>
      </trkpt>
      <trkpt lat="49.39881" lon="6.58111">
        <ele>305.7</ele>
        <time>2020-06-26T18:11:39Z</time>
      </trkpt>
      <trkpt lat="49.39877" lon="6.58117">
        <ele>305.5</ele>
        <time>2020-06-26T18:11:40Z</time>
      </trkpt>
      <trkpt lat="49.39874" lon="6.58123">
        <ele>305.4</ele>
        <time>2020-06-26T18:11:41Z</time>
      </trkpt>
      <trkpt lat="49.3987" lon="6.58129">
        <ele>305.2</ele>
        <time>2020-06-26T18:11:42Z</time>
      </trkpt>
      <trkpt lat="49.39866" lon="6.58133">
        <ele>305.1</ele>
        <time>2020-06-26T18:11:43Z</time>
      </trkpt>
      <trkpt lat="49.39861" lon="6.58138">
        <ele>305</ele>
        <time>2020-06-26T18:11:44Z</time>
      </trkpt>
      <trkpt lat="49.39857" lon="6.58142">
        <ele>304.9</ele>
        <time>2020-06-26T18:11:45Z</time>
      </trkpt>
      <trkpt lat="49.39853" lon="6.58147">
        <ele>304.8</ele>
        <time>2020-06-26T18:11:46Z</time>
      </trkpt>
      <trkpt lat="49.3985" lon="6.58154">
        <ele>304.8</ele>
        <time>2020-06-26T18:11:47Z</time>
      </trkpt>
      <trkpt lat="49.39847" lon="6.5816">
        <ele>304.7</ele>
        <time>2020-06-26T18:11:48Z</time>
      </trkpt>
      <trkpt lat="49.39845" lon="6.58167">
        <ele>304.6</ele>
        <time>2020-06-26T18:11:49Z</time>
      </trkpt>
      <trkpt lat="49.39841" lon="6.58172">
        <ele>304.5</ele>
        <time>2020-06-26T18:11:50Z</time>
      </trkpt>
      <trkpt lat="49.39838" lon="6.58178">
        <ele>304.4</ele>
        <time>2020-06-26T18:11:51Z</time>
      </trkpt>
      <trkpt lat="49.39835" lon="6.58184">
        <ele>304.3</ele>
        <time>2020-06-26T18:11:52Z</time>
      </trkpt>
      <trkpt lat="49.39831" lon="6.58189">
        <ele>304.2</ele>
        <time>2020-06-26T18:11:53Z</time>
      </trkpt>
      <trkpt lat="49.39827" lon="6.58194">
        <ele>304.1</ele>
        <time>2020-06-26T18:11:54Z</time>
      </trkpt>
      <trkpt lat="49.39824" lon="6.58201">
        <ele>304.1</ele>
        <time>2020-06-26T18:11:55Z</time>
      </trkpt>
      <trkpt lat="49.3982" lon="6.58207">
        <ele>304.1</ele>
        <time>2020-06-26T18:11:56Z</time>
      </trkpt>
      <trkpt lat="49.39818" lon="6.58213">
        <ele>304.1</ele>
        <time>2020-06-26T18:11:57Z</time>
      </trkpt>
      <trkpt lat="49.39814" lon="6.58218">
        <ele>304.1</ele>
        <time>2020-06-26T18:11:58Z</time>
      </trkpt>
      <trkpt lat="49.39811" lon="6.58223">
        <ele>304.2</ele>
        <time>2020-06-26T18:11:59Z</time>
      </trkpt>
      <trkpt lat="49.39807" lon="6.58228">
        <ele>304.3</ele>
        <time>2020-06-26T18:12:00Z</time>
      </trkpt>
      <trkpt lat="49.39805" lon="6.58234">
        <ele>304.4</ele>
        <time>2020-06-26T18:12:01Z</time>
      </trkpt>
      <trkpt lat="49.39802" lon="6.5824">
        <ele>304.6</ele>
        <time>2020-06-26T18:12:02Z</time>
      </trkpt>
      <trkpt lat="49.39799" lon="6.58246">
        <ele>304.8</ele>
        <time>2020-06-26T18:12:03Z</time>
      </trkpt>
      <trkpt lat="49.39797" lon="6.58251">
        <ele>305</ele>
        <time>2020-06-26T18:12:04Z</time>
      </trkpt>
      <trkpt lat="49.39794" lon="6.58257">
        <ele>305.1</ele>
        <time>2020-06-26T18:12:05Z</time>
      </trkpt>
      <trkpt lat="49.39792" lon="6.58263">
        <ele>305.1</ele>
        <time>2020-06-26T18:12:06Z</time>
      </trkpt>
      <trkpt lat="49.39789" lon="6.58269">
        <ele>305.1</ele>
        <time>2020-06-26T18:12:07Z</time>
      </trkpt>
      <trkpt lat="49.39786" lon="6.58274">
        <ele>305.2</ele>
        <time>2020-06-26T18:12:08Z</time>
      </trkpt>
      <trkpt lat="49.39785" lon="6.5828">
        <ele>305.3</ele>
        <time>2020-06-26T18:12:09Z</time>
      </trkpt>
      <trkpt lat="49.39782" lon="6.58284">
        <ele>305.4</ele>
        <time>2020-06-26T18:12:10Z</time>
      </trkpt>
      <trkpt lat="49.3978" lon="6.58289">
        <ele>305.5</ele>
        <time>2020-06-26T18:12:11Z</time>
      </trkpt>
      <trkpt lat="49.39777" lon="6.58294">
        <ele>305.6</ele>
        <time>2020-06-26T18:12:12Z</time>
      </trkpt>
      <trkpt lat="49.39775" lon="6.583">
        <ele>305.7</ele>
        <time>2020-06-26T18:12:13Z</time>
      </trkpt>
      <trkpt lat="49.39774" lon="6.58306">
        <ele>305.8</ele>
        <time>2020-06-26T18:12:14Z</time>
      </trkpt>
      <trkpt lat="49.39772" lon="6.58312">
        <ele>305.9</ele>
        <time>2020-06-26T18:12:15Z</time>
      </trkpt>
      <trkpt lat="49.39769" lon="6.58317">
        <ele>306.1</ele>
        <time>2020-06-26T18:12:16Z</time>
      </trkpt>
      <trkpt lat="49.39766" lon="6.58321">
        <ele>306.2</ele>
        <time>2020-06-26T18:12:17Z</time>
      </trkpt>
      <trkpt lat="49.39763" lon="6.58327">
        <ele>306.4</ele>
        <time>2020-06-26T18:12:18Z</time>
      </trkpt>
      <trkpt lat="49.3976" lon="6.58332">
        <ele>306.5</ele>
        <time>2020-06-26T18:12:19Z</time>
      </trkpt>
      <trkpt lat="49.39757" lon="6.58337">
        <ele>306.7</ele>
        <time>2020-06-26T18:12:20Z</time>
      </trkpt>
      <trkpt lat="49.39754" lon="6.58342">
        <ele>306.8</ele>
        <time>2020-06-26T18:12:21Z</time>
      </trkpt>
      <trkpt lat="49.39751" lon="6.58346">
        <ele>306.9</ele>
        <time>2020-06-26T18:12:22Z</time>
      </trkpt>
      <trkpt lat="49.39747" lon="6.58349">
        <ele>307</ele>
        <time>2020-06-26T18:12:23Z</time>
      </trkpt>
      <trkpt lat="49.39744" lon="6.58354">
        <ele>307.2</ele>
        <time>2020-06-26T18:12:24Z</time>
      </trkpt>
      <trkpt lat="49.39742" lon="6.58359">
        <ele>307.3</ele>
        <time>2020-06-26T18:12:25Z</time>
      </trkpt>
      <trkpt lat="49.39739" lon="6.58363">
        <ele>307.5</ele>
        <time>2020-06-26T18:12:26Z</time>
      </trkpt>
      <trkpt lat="49.39735" lon="6.58367">
        <ele>307.7</ele>
        <time>2020-06-26T18:12:27Z</time>
      </trkpt>
      <trkpt lat="49.39732" lon="6.58373">
        <ele>307.9</ele>
        <time>2020-06-26T18:12:28Z</time>
      </trkpt>
      <trkpt lat="49.39729" lon="6.58376">
        <ele>308.1</ele>
        <time>2020-06-26T18:12:29Z</time>
      </trkpt>
      <trkpt lat="49.39727" lon="6.58382">
        <ele>308.3</ele>
        <time>2020-06-26T18:12:30Z</time>
      </trkpt>
      <trkpt lat="49.39724" lon="6.58386">
        <ele>308.5</ele>
        <time>2020-06-26T18:12:31Z</time>
      </trkpt>
      <trkpt lat="49.39721" lon="6.5839">
        <ele>308.7</ele>
        <time>2020-06-26T18:12:32Z</time>
      </trkpt>
      <trkpt lat="49.39717" lon="6.58393">
        <ele>308.9</ele>
        <time>2020-06-26T18:12:33Z</time>
      </trkpt>
      <trkpt lat="49.39714" lon="6.58397">
        <ele>309.2</ele>
        <time>2020-06-26T18:12:34Z</time>
      </trkpt>
      <trkpt lat="49.39711" lon="6.58401">
        <ele>309.4</ele>
        <time>2020-06-26T18:12:35Z</time>
      </trkpt>
      <trkpt lat="49.39709" lon="6.58405">
        <ele>309.6</ele>
        <time>2020-06-26T18:12:36Z</time>
      </trkpt>
      <trkpt lat="49.39707" lon="6.58408">
        <ele>309.8</ele>
        <time>2020-06-26T18:12:37Z</time>
      </trkpt>
      <trkpt lat="49.39706" lon="6.58412">
        <ele>309.9</ele>
        <time>2020-06-26T18:12:38Z</time>
      </trkpt>
      <trkpt lat="49.39703" lon="6.58417">
        <ele>310.2</ele>
        <time>2020-06-26T18:12:39Z</time>
      </trkpt>
      <trkpt lat="49.39701" lon="6.58421">
        <ele>310.4</ele>
        <time>2020-06-26T18:12:40Z</time>
      </trkpt>
      <trkpt lat="49.39698" lon="6.58425">
        <ele>310.7</ele>
        <time>2020-06-26T18:12:41Z</time>
      </trkpt>
      <trkpt lat="49.39695" lon="6.58427">
        <ele>310.9</ele>
        <time>2020-06-26T18:12:42Z</time>
      </trkpt>
      <trkpt lat="49.39691" lon="6.58429">
        <ele>311.2</ele>
        <time>2020-06-26T18:12:43Z</time>
      </trkpt>
      <trkpt lat="49.39688" lon="6.58431">
        <ele>311.5</ele>
        <time>2020-06-26T18:12:44Z</time>
      </trkpt>
      <trkpt lat="49.39685" lon="6.58433">
        <ele>311.9</ele>
        <time>2020-06-26T18:12:45Z</time>
      </trkpt>
      <trkpt lat="49.39683" lon="6.58437">
        <ele>312.2</ele>
        <time>2020-06-26T18:12:46Z</time>
      </trkpt>
      <trkpt lat="49.3968" lon="6.5844">
        <ele>312.5</ele>
        <time>2020-06-26T18:12:47Z</time>
      </trkpt>
      <trkpt lat="49.39677" lon="6.58442">
        <ele>312.8</ele>
        <time>2020-06-26T18:12:48Z</time>
      </trkpt>
      <trkpt lat="49.39674" lon="6.58444">
        <ele>313.1</ele>
        <time>2020-06-26T18:12:49Z</time>
      </trkpt>
      <trkpt lat="49.39671" lon="6.58447">
        <ele>313.4</ele>
        <time>2020-06-26T18:12:50Z</time>
      </trkpt>
      <trkpt lat="49.39669" lon="6.58451">
        <ele>313.8</ele>
        <time>2020-06-26T18:12:51Z</time>
      </trkpt>
      <trkpt lat="49.39667" lon="6.58455">
        <ele>313.9</ele>
        <time>2020-06-26T18:12:52Z</time>
      </trkpt>
      <trkpt lat="49.39665" lon="6.58461">
        <ele>314.1</ele>
        <time>2020-06-26T18:12:53Z</time>
      </trkpt>
      <trkpt lat="49.39662" lon="6.58464">
        <ele>314.2</ele>
        <time>2020-06-26T18:12:54Z</time>
      </trkpt>
      <trkpt lat="49.3966" lon="6.58466">
        <ele>314.4</ele>
        <time>2020-06-26T18:12:55Z</time>
      </trkpt>
      <trkpt lat="49.39657" lon="6.58467">
        <ele>314.5</ele>
        <time>2020-06-26T18:12:56Z</time>
      </trkpt>
      <trkpt lat="49.39655" lon="6.58471">
        <ele>314.6</ele>
        <time>2020-06-26T18:12:57Z</time>
      </trkpt>
      <trkpt lat="49.39654" lon="6.58473">
        <ele>314.6</ele>
        <time>2020-06-26T18:12:58Z</time>
      </trkpt>
      <trkpt lat="49.39651" lon="6.58479">
        <ele>315</ele>
        <time>2020-06-26T18:12:59Z</time>
      </trkpt>
      <trkpt lat="49.3965" lon="6.58484">
        <ele>315.1</ele>
        <time>2020-06-26T18:13:00Z</time>
      </trkpt>
      <trkpt lat="49.39647" lon="6.58488">
        <ele>315.2</ele>
        <time>2020-06-26T18:13:01Z</time>
      </trkpt>
      <trkpt lat="49.39646" lon="6.58489">
        <ele>315.3</ele>
        <time>2020-06-26T18:13:02Z</time>
      </trkpt>
      <trkpt lat="49.39644" lon="6.58494">
        <ele>315.4</ele>
        <time>2020-06-26T18:13:03Z</time>
      </trkpt>
      <trkpt lat="49.39644" lon="6.58496">
        <ele>315.4</ele>
        <time>2020-06-26T18:13:04Z</time>
      </trkpt>
      <trkpt lat="49.39642" lon="6.58501">
        <ele>315.5</ele>
        <time>2020-06-26T18:13:05Z</time>
      </trkpt>
      <trkpt lat="49.39641" lon="6.58506">
        <ele>315.6</ele>
        <time>2020-06-26T18:13:06Z</time>
      </trkpt>
      <trkpt lat="49.3964" lon="6.58511">
        <ele>315.7</ele>
        <time>2020-06-26T18:13:07Z</time>
      </trkpt>
      <trkpt lat="49.3964" lon="6.58512">
        <ele>315.7</ele>
        <time>2020-06-26T18:13:08Z</time>
      </trkpt>
      <trkpt lat="49.39638" lon="6.58516">
        <ele>315.8</ele>
        <time>2020-06-26T18:13:09Z</time>
      </trkpt>
      <trkpt lat="49.39637" lon="6.58522">
        <ele>316</ele>
        <time>2020-06-26T18:13:10Z</time>
      </trkpt>
      <trkpt lat="49.39635" lon="6.58527">
        <ele>316.1</ele>
        <time>2020-06-26T18:13:11Z</time>
      </trkpt>
      <trkpt lat="49.39634" lon="6.58532">
        <ele>316.3</ele>
        <time>2020-06-26T18:13:12Z</time>
      </trkpt>
      <trkpt lat="49.39632" lon="6.58538">
        <ele>316.4</ele>
        <time>2020-06-26T18:13:13Z</time>
      </trkpt>
      <trkpt lat="49.39631" lon="6.58544">
        <ele>316.6</ele>
        <time>2020-06-26T18:13:14Z</time>
      </trkpt>
      <trkpt lat="49.39629" lon="6.58549">
        <ele>316.7</ele>
        <time>2020-06-26T18:13:15Z</time>
      </trkpt>
      <trkpt lat="49.39627" lon="6.58555">
        <ele>316.8</ele>
        <time>2020-06-26T18:13:16Z</time>
      </trkpt>
      <trkpt lat="49.39625" lon="6.58561">
        <ele>317</ele>
        <time>2020-06-26T18:13:17Z</time>
      </trkpt>
      <trkpt lat="49.39622" lon="6.58567">
        <ele>317.2</ele>
        <time>2020-06-26T18:13:18Z</time>
      </trkpt>
      <trkpt lat="49.39618" lon="6.58574">
        <ele>317.3</ele>
        <time>2020-06-26T18:13:19Z</time>
      </trkpt>
      <trkpt lat="49.39617" lon="6.58577">
        <ele>317.4</ele>
        <time>2020-06-26T18:13:20Z</time>
      </trkpt>
      <trkpt lat="49.39614" lon="6.58583">
        <ele>317.6</ele>
        <time>2020-06-26T18:13:21Z</time>
      </trkpt>
      <trkpt lat="49.39611" lon="6.58589">
        <ele>317.7</ele>
        <time>2020-06-26T18:13:22Z</time>
      </trkpt>
      <trkpt lat="49.39608" lon="6.58595">
        <ele>317.9</ele>
        <time>2020-06-26T18:13:23Z</time>
      </trkpt>
      <trkpt lat="49.39607" lon="6.58597">
        <ele>318</ele>
        <time>2020-06-26T18:13:24Z</time>
      </trkpt>
      <trkpt lat="49.39605" lon="6.58602">
        <ele>318.1</ele>
        <time>2020-06-26T18:13:25Z</time>
      </trkpt>
      <trkpt lat="49.39603" lon="6.58608">
        <ele>318.2</ele>
        <time>2020-06-26T18:13:26Z</time>
      </trkpt>
      <trkpt lat="49.396" lon="6.58613">
        <ele>318.3</ele>
        <time>2020-06-26T18:13:27Z</time>
      </trkpt>
      <trkpt lat="49.39598" lon="6.58619">
        <ele>318.4</ele>
        <time>2020-06-26T18:13:28Z</time>
      </trkpt>
      <trkpt lat="49.39595" lon="6.58625">
        <ele>318.5</ele>
        <time>2020-06-26T18:13:29Z</time>
      </trkpt>
      <trkpt lat="49.39592" lon="6.58631">
        <ele>318.6</ele>
        <time>2020-06-26T18:13:30Z</time>
      </trkpt>
      <trkpt lat="49.39588" lon="6.58637">
        <ele>318.7</ele>
        <time>2020-06-26T18:13:31Z</time>
      </trkpt>
      <trkpt lat="49.39587" lon="6.58642">
        <ele>318.7</ele>
        <time>2020-06-26T18:13:32Z</time>
      </trkpt>
      <trkpt lat="49.39584" lon="6.58646">
        <ele>318.8</ele>
        <time>2020-06-26T18:13:33Z</time>
      </trkpt>
      <trkpt lat="49.39582" lon="6.58652">
        <ele>318.8</ele>
        <time>2020-06-26T18:13:34Z</time>
      </trkpt>
      <trkpt lat="49.3958" lon="6.58656">
        <ele>318.8</ele>
        <time>2020-06-26T18:13:35Z</time>
      </trkpt>
      <trkpt lat="49.39577" lon="6.58662">
        <ele>318.8</ele>
        <time>2020-06-26T18:13:36Z</time>
      </trkpt>
      <trkpt lat="49.39575" lon="6.58666">
        <ele>318.8</ele>
        <time>2020-06-26T18:13:37Z</time>
      </trkpt>
      <trkpt lat="49.39573" lon="6.58672">
        <ele>318.8</ele>
        <time>2020-06-26T18:13:38Z</time>
      </trkpt>
      <trkpt lat="49.39572" lon="6.58675">
        <ele>318.8</ele>
        <time>2020-06-26T18:13:39Z</time>
      </trkpt>
      <trkpt lat="49.39568" lon="6.58683">
        <ele>318.7</ele>
        <time>2020-06-26T18:13:40Z</time>
      </trkpt>
      <trkpt lat="49.39566" lon="6.58688">
        <ele>318.7</ele>
        <time>2020-06-26T18:13:41Z</time>
      </trkpt>
      <trkpt lat="49.39564" lon="6.58694">
        <ele>318.6</ele>
        <time>2020-06-26T18:13:42Z</time>
      </trkpt>
      <trkpt lat="49.39563" lon="6.58696">
        <ele>318.5</ele>
        <time>2020-06-26T18:13:43Z</time>
      </trkpt>
      <trkpt lat="49.3956" lon="6.58702">
        <ele>318.4</ele>
        <time>2020-06-26T18:13:44Z</time>
      </trkpt>
      <trkpt lat="49.39557" lon="6.58708">
        <ele>318.3</ele>
        <time>2020-06-26T18:13:45Z</time>
      </trkpt>
      <trkpt lat="49.39554" lon="6.58716">
        <ele>318.1</ele>
        <time>2020-06-26T18:13:46Z</time>
      </trkpt>
      <trkpt lat="49.3955" lon="6.58723">
        <ele>317.9</ele>
        <time>2020-06-26T18:13:47Z</time>
      </trkpt>
      <trkpt lat="49.39547" lon="6.5873">
        <ele>317.6</ele>
        <time>2020-06-26T18:13:48Z</time>
      </trkpt>
      <trkpt lat="49.39543" lon="6.58738">
        <ele>317.3</ele>
        <time>2020-06-26T18:13:49Z</time>
      </trkpt>
      <trkpt lat="49.3954" lon="6.58745">
        <ele>317.1</ele>
        <time>2020-06-26T18:13:50Z</time>
      </trkpt>
      <trkpt lat="49.39538" lon="6.58752">
        <ele>316.9</ele>
        <time>2020-06-26T18:13:51Z</time>
      </trkpt>
      <trkpt lat="49.39534" lon="6.5876">
        <ele>316.6</ele>
        <time>2020-06-26T18:13:52Z</time>
      </trkpt>
      <trkpt lat="49.3953" lon="6.58769">
        <ele>316.2</ele>
        <time>2020-06-26T18:13:53Z</time>
      </trkpt>
      <trkpt lat="49.39527" lon="6.58778">
        <ele>315.9</ele>
        <time>2020-06-26T18:13:54Z</time>
      </trkpt>
      <trkpt lat="49.39523" lon="6.58789">
        <ele>315.5</ele>
        <time>2020-06-26T18:13:55Z</time>
      </trkpt>
      <trkpt lat="49.39519" lon="6.58799">
        <ele>315.1</ele>
        <time>2020-06-26T18:13:56Z</time>
      </trkpt>
      <trkpt lat="49.39516" lon="6.58808">
        <ele>314.8</ele>
        <time>2020-06-26T18:13:57Z</time>
      </trkpt>
      <trkpt lat="49.39514" lon="6.58814">
        <ele>314.6</ele>
        <time>2020-06-26T18:13:58Z</time>
      </trkpt>
      <trkpt lat="49.3951" lon="6.58823">
        <ele>314.3</ele>
        <time>2020-06-26T18:13:59Z</time>
      </trkpt>
      <trkpt lat="49.39507" lon="6.58833">
        <ele>313.9</ele>
        <time>2020-06-26T18:14:00Z</time>
      </trkpt>
      <trkpt lat="49.39503" lon="6.58843">
        <ele>313.6</ele>
        <time>2020-06-26T18:14:01Z</time>
      </trkpt>
      <trkpt lat="49.395" lon="6.58852">
        <ele>313.2</ele>
        <time>2020-06-26T18:14:02Z</time>
      </trkpt>
      <trkpt lat="49.39496" lon="6.58862">
        <ele>312.8</ele>
        <time>2020-06-26T18:14:03Z</time>
      </trkpt>
      <trkpt lat="49.39492" lon="6.58873">
        <ele>312.4</ele>
        <time>2020-06-26T18:14:04Z</time>
      </trkpt>
      <trkpt lat="49.39488" lon="6.58883">
        <ele>312</ele>
        <time>2020-06-26T18:14:05Z</time>
      </trkpt>
      <trkpt lat="49.39483" lon="6.58894">
        <ele>311.6</ele>
        <time>2020-06-26T18:14:06Z</time>
      </trkpt>
      <trkpt lat="49.39478" lon="6.58905">
        <ele>311.1</ele>
        <time>2020-06-26T18:14:07Z</time>
      </trkpt>
      <trkpt lat="49.39473" lon="6.58916">
        <ele>310.5</ele>
        <time>2020-06-26T18:14:08Z</time>
      </trkpt>
      <trkpt lat="49.39469" lon="6.58928">
        <ele>310.1</ele>
        <time>2020-06-26T18:14:09Z</time>
      </trkpt>
      <trkpt lat="49.39464" lon="6.5894">
        <ele>309.6</ele>
        <time>2020-06-26T18:14:10Z</time>
      </trkpt>
      <trkpt lat="49.3946" lon="6.58952">
        <ele>309.3</ele>
        <time>2020-06-26T18:14:11Z</time>
      </trkpt>
      <trkpt lat="49.39455" lon="6.58965">
        <ele>308.9</ele>
        <time>2020-06-26T18:14:12Z</time>
      </trkpt>
      <trkpt lat="49.39451" lon="6.58977">
        <ele>308.6</ele>
        <time>2020-06-26T18:14:13Z</time>
      </trkpt>
      <trkpt lat="49.39446" lon="6.58989">
        <ele>308.4</ele>
        <time>2020-06-26T18:14:14Z</time>
      </trkpt>
      <trkpt lat="49.39442" lon="6.59002">
        <ele>308.1</ele>
        <time>2020-06-26T18:14:15Z</time>
      </trkpt>
      <trkpt lat="49.39437" lon="6.59014">
        <ele>307.9</ele>
        <time>2020-06-26T18:14:16Z</time>
      </trkpt>
      <trkpt lat="49.39432" lon="6.59025">
        <ele>307.7</ele>
        <time>2020-06-26T18:14:17Z</time>
      </trkpt>
      <trkpt lat="49.39428" lon="6.59037">
        <ele>307.5</ele>
        <time>2020-06-26T18:14:18Z</time>
      </trkpt>
      <trkpt lat="49.39424" lon="6.59048">
        <ele>307.4</ele>
        <time>2020-06-26T18:14:19Z</time>
      </trkpt>
      <trkpt lat="49.3942" lon="6.59059">
        <ele>307.4</ele>
        <time>2020-06-26T18:14:20Z</time>
      </trkpt>
      <trkpt lat="49.39416" lon="6.5907">
        <ele>307.4</ele>
        <time>2020-06-26T18:14:21Z</time>
      </trkpt>
      <trkpt lat="49.39412" lon="6.59081">
        <ele>307.5</ele>
        <time>2020-06-26T18:14:22Z</time>
      </trkpt>
      <trkpt lat="49.39409" lon="6.5909">
        <ele>307.5</ele>
        <time>2020-06-26T18:14:23Z</time>
      </trkpt>
      <trkpt lat="49.39405" lon="6.59099">
        <ele>307.6</ele>
        <time>2020-06-26T18:14:24Z</time>
      </trkpt>
      <trkpt lat="49.39403" lon="6.59108">
        <ele>307.7</ele>
        <time>2020-06-26T18:14:25Z</time>
      </trkpt>
      <trkpt lat="49.394" lon="6.59116">
        <ele>307.7</ele>
        <time>2020-06-26T18:14:26Z</time>
      </trkpt>
      <trkpt lat="49.39397" lon="6.59124">
        <ele>307.7</ele>
        <time>2020-06-26T18:14:27Z</time>
      </trkpt>
      <trkpt lat="49.39395" lon="6.59132">
        <ele>307.8</ele>
        <time>2020-06-26T18:14:28Z</time>
      </trkpt>
      <trkpt lat="49.39392" lon="6.59139">
        <ele>307.8</ele>
        <time>2020-06-26T18:14:29Z</time>
      </trkpt>
      <trkpt lat="49.39389" lon="6.59145">
        <ele>307.9</ele>
        <time>2020-06-26T18:14:30Z</time>
      </trkpt>
      <trkpt lat="49.39387" lon="6.59151">
        <ele>307.9</ele>
        <time>2020-06-26T18:14:31Z</time>
      </trkpt>
      <trkpt lat="49.39385" lon="6.59155">
        <ele>308</ele>
        <time>2020-06-26T18:14:32Z</time>
      </trkpt>
      <trkpt lat="49.39383" lon="6.59159">
        <ele>308.1</ele>
        <time>2020-06-26T18:14:33Z</time>
      </trkpt>
      <trkpt lat="49.39383" lon="6.59161">
        <ele>308.1</ele>
        <time>2020-06-26T18:14:34Z</time>
      </trkpt>
      <trkpt lat="49.39383" lon="6.59162">
        <ele>308.1</ele>
        <time>2020-06-26T18:14:35Z</time>
      </trkpt>
      <trkpt lat="49.39382" lon="6.59163">
        <ele>308.1</ele>
        <time>2020-06-26T18:14:36Z</time>
      </trkpt>
      <trkpt lat="49.39383" lon="6.59162">
        <ele>308.2</ele>
        <time>2020-06-26T18:14:37Z</time>
      </trkpt>
      <trkpt lat="49.39384" lon="6.59162">
        <ele>308.2</ele>
        <time>2020-06-26T18:14:38Z</time>
      </trkpt>
      <trkpt lat="49.39384" lon="6.59162">
        <ele>308.2</ele>
        <time>2020-06-26T18:14:39Z</time>
      </trkpt>
      <trkpt lat="49.39384" lon="6.59163">
        <ele>308.2</ele>
        <time>2020-06-26T18:14:40Z</time>
      </trkpt>
      <trkpt lat="49.39384" lon="6.59163">
        <ele>308.2</ele>
        <time>2020-06-26T18:14:41Z</time>
      </trkpt>
      <trkpt lat="49.39384" lon="6.59163">
        <ele>308.2</ele>
        <time>2020-06-26T18:14:42Z</time>
      </trkpt>
      <trkpt lat="49.39384" lon="6.59163">
        <ele>308.2</ele>
        <time>2020-06-26T18:14:43Z</time>
      </trkpt>
      <trkpt lat="49.39385" lon="6.59163">
        <ele>308.2</ele>
        <time>2020-06-26T18:14:44Z</time>
      </trkpt>
      <trkpt lat="49.39386" lon="6.59163">
        <ele>308.3</ele>
        <time>2020-06-26T18:14:45Z</time>
      </trkpt>
      <trkpt lat="49.39384" lon="6.59165">
        <ele>308.3</ele>
        <time>2020-06-26T18:14:46Z</time>
      </trkpt>
      <trkpt lat="49.39384" lon="6.59168">
        <ele>308.4</ele>
        <time>2020-06-26T18:20:07Z</time>
      </trkpt>
      <trkpt lat="49.39384" lon="6.59171">
        <ele>308.4</ele>
        <time>2020-06-26T18:20:08Z</time>
      </trkpt>
      <trkpt lat="49.39382" lon="6.59175">
        <ele>308.5</ele>
        <time>2020-06-26T18:20:09Z</time>
      </trkpt>
      <trkpt lat="49.39381" lon="6.59176">
        <ele>308.6</ele>
        <time>2020-06-26T18:20:10Z</time>
      </trkpt>
      <trkpt lat="49.39378" lon="6.59181">
        <ele>308.7</ele>
        <time>2020-06-26T18:20:11Z</time>
      </trkpt>
      <trkpt lat="49.39378" lon="6.59182">
        <ele>308.7</ele>
        <time>2020-06-26T18:20:12Z</time>
      </trkpt>
      <trkpt lat="49.39377" lon="6.59186">
        <ele>308.8</ele>
        <time>2020-06-26T18:20:13Z</time>
      </trkpt>
      <trkpt lat="49.39375" lon="6.5919">
        <ele>308.9</ele>
        <time>2020-06-26T18:20:14Z</time>
      </trkpt>
      <trkpt lat="49.39374" lon="6.59194">
        <ele>309</ele>
        <time>2020-06-26T18:20:15Z</time>
      </trkpt>
      <trkpt lat="49.39372" lon="6.59197">
        <ele>309.1</ele>
        <time>2020-06-26T18:20:16Z</time>
      </trkpt>
      <trkpt lat="49.39371" lon="6.59202">
        <ele>309.2</ele>
        <time>2020-06-26T18:20:17Z</time>
      </trkpt>
      <trkpt lat="49.3937" lon="6.59206">
        <ele>309.3</ele>
        <time>2020-06-26T18:20:18Z</time>
      </trkpt>
      <trkpt lat="49.39369" lon="6.59211">
        <ele>309.4</ele>
        <time>2020-06-26T18:20:19Z</time>
      </trkpt>
      <trkpt lat="49.39368" lon="6.59215">
        <ele>309.5</ele>
        <time>2020-06-26T18:20:20Z</time>
      </trkpt>
      <trkpt lat="49.39367" lon="6.59219">
        <ele>309.6</ele>
        <time>2020-06-26T18:20:21Z</time>
      </trkpt>
      <trkpt lat="49.39366" lon="6.59224">
        <ele>309.6</ele>
        <time>2020-06-26T18:20:22Z</time>
      </trkpt>
      <trkpt lat="49.39364" lon="6.59228">
        <ele>309.7</ele>
        <time>2020-06-26T18:20:23Z</time>
      </trkpt>
      <trkpt lat="49.39363" lon="6.59233">
        <ele>309.9</ele>
        <time>2020-06-26T18:20:24Z</time>
      </trkpt>
      <trkpt lat="49.39362" lon="6.59238">
        <ele>310</ele>
        <time>2020-06-26T18:20:25Z</time>
      </trkpt>
      <trkpt lat="49.3936" lon="6.59243">
        <ele>310.1</ele>
        <time>2020-06-26T18:20:26Z</time>
      </trkpt>
      <trkpt lat="49.39358" lon="6.59248">
        <ele>310.2</ele>
        <time>2020-06-26T18:20:27Z</time>
      </trkpt>
      <trkpt lat="49.39356" lon="6.59252">
        <ele>310.3</ele>
        <time>2020-06-26T18:20:28Z</time>
      </trkpt>
      <trkpt lat="49.39354" lon="6.59258">
        <ele>310.4</ele>
        <time>2020-06-26T18:20:29Z</time>
      </trkpt>
      <trkpt lat="49.39354" lon="6.59264">
        <ele>310.5</ele>
        <time>2020-06-26T18:20:30Z</time>
      </trkpt>
      <trkpt lat="49.39352" lon="6.5927">
        <ele>310.6</ele>
        <time>2020-06-26T18:20:31Z</time>
      </trkpt>
      <trkpt lat="49.3935" lon="6.59275">
        <ele>310.6</ele>
        <time>2020-06-26T18:20:32Z</time>
      </trkpt>
      <trkpt lat="49.39348" lon="6.59281">
        <ele>310.7</ele>
        <time>2020-06-26T18:20:33Z</time>
      </trkpt>
      <trkpt lat="49.39347" lon="6.59288">
        <ele>310.8</ele>
        <time>2020-06-26T18:20:34Z</time>
      </trkpt>
      <trkpt lat="49.39345" lon="6.59291">
        <ele>310.8</ele>
        <time>2020-06-26T18:20:35Z</time>
      </trkpt>
      <trkpt lat="49.39344" lon="6.59298">
        <ele>310.9</ele>
        <time>2020-06-26T18:20:36Z</time>
      </trkpt>
      <trkpt lat="49.39342" lon="6.59304">
        <ele>311</ele>
        <time>2020-06-26T18:20:37Z</time>
      </trkpt>
      <trkpt lat="49.3934" lon="6.59309">
        <ele>311</ele>
        <time>2020-06-26T18:20:38Z</time>
      </trkpt>
      <trkpt lat="49.39338" lon="6.59315">
        <ele>311.1</ele>
        <time>2020-06-26T18:20:39Z</time>
      </trkpt>
      <trkpt lat="49.39336" lon="6.5932">
        <ele>311.2</ele>
        <time>2020-06-26T18:20:40Z</time>
      </trkpt>
      <trkpt lat="49.39335" lon="6.59326">
        <ele>311.3</ele>
        <time>2020-06-26T18:20:41Z</time>
      </trkpt>
      <trkpt lat="49.39334" lon="6.59331">
        <ele>311.3</ele>
        <time>2020-06-26T18:20:42Z</time>
      </trkpt>
      <trkpt lat="49.39333" lon="6.59335">
        <ele>311.3</ele>
        <time>2020-06-26T18:20:43Z</time>
      </trkpt>
      <trkpt lat="49.39331" lon="6.59342">
        <ele>311.4</ele>
        <time>2020-06-26T18:20:44Z</time>
      </trkpt>
      <trkpt lat="49.39329" lon="6.59348">
        <ele>311.4</ele>
        <time>2020-06-26T18:20:45Z</time>
      </trkpt>
      <trkpt lat="49.39327" lon="6.59353">
        <ele>311.5</ele>
        <time>2020-06-26T18:20:46Z</time>
      </trkpt>
      <trkpt lat="49.39325" lon="6.59358">
        <ele>311.5</ele>
        <time>2020-06-26T18:20:47Z</time>
      </trkpt>
      <trkpt lat="49.39324" lon="6.59363">
        <ele>311.5</ele>
        <time>2020-06-26T18:20:48Z</time>
      </trkpt>
      <trkpt lat="49.39321" lon="6.59368">
        <ele>311.5</ele>
        <time>2020-06-26T18:20:49Z</time>
      </trkpt>
      <trkpt lat="49.3932" lon="6.59372">
        <ele>311.5</ele>
        <time>2020-06-26T18:20:50Z</time>
      </trkpt>
      <trkpt lat="49.39319" lon="6.59374">
        <ele>311.5</ele>
        <time>2020-06-26T18:20:51Z</time>
      </trkpt>
      <trkpt lat="49.39318" lon="6.59378">
        <ele>311.5</ele>
        <time>2020-06-26T18:20:52Z</time>
      </trkpt>
      <trkpt lat="49.39316" lon="6.59383">
        <ele>311.5</ele>
        <time>2020-06-26T18:20:53Z</time>
      </trkpt>
      <trkpt lat="49.39315" lon="6.59388">
        <ele>311.4</ele>
        <time>2020-06-26T18:20:54Z</time>
      </trkpt>
      <trkpt lat="49.39313" lon="6.59392">
        <ele>311.4</ele>
        <time>2020-06-26T18:20:55Z</time>
      </trkpt>
      <trkpt lat="49.39312" lon="6.59399">
        <ele>311.4</ele>
        <time>2020-06-26T18:20:56Z</time>
      </trkpt>
      <trkpt lat="49.3931" lon="6.59405">
        <ele>311.3</ele>
        <time>2020-06-26T18:20:57Z</time>
      </trkpt>
      <trkpt lat="49.39308" lon="6.5941">
        <ele>311.3</ele>
        <time>2020-06-26T18:20:58Z</time>
      </trkpt>
      <trkpt lat="49.39306" lon="6.59417">
        <ele>311.2</ele>
        <time>2020-06-26T18:20:59Z</time>
      </trkpt>
      <trkpt lat="49.39304" lon="6.59423">
        <ele>311.2</ele>
        <time>2020-06-26T18:21:00Z</time>
      </trkpt>
      <trkpt lat="49.39302" lon="6.59428">
        <ele>311.1</ele>
        <time>2020-06-26T18:21:01Z</time>
      </trkpt>
      <trkpt lat="49.39299" lon="6.59435">
        <ele>311</ele>
        <time>2020-06-26T18:21:02Z</time>
      </trkpt>
      <trkpt lat="49.39297" lon="6.59441">
        <ele>311</ele>
        <time>2020-06-26T18:21:03Z</time>
      </trkpt>
      <trkpt lat="49.39294" lon="6.59448">
        <ele>310.9</ele>
        <time>2020-06-26T18:21:04Z</time>
      </trkpt>
      <trkpt lat="49.39293" lon="6.59452">
        <ele>310.8</ele>
        <time>2020-06-26T18:21:05Z</time>
      </trkpt>
      <trkpt lat="49.3929" lon="6.5946">
        <ele>310.6</ele>
        <time>2020-06-26T18:21:06Z</time>
      </trkpt>
      <trkpt lat="49.39288" lon="6.59466">
        <ele>310.5</ele>
        <time>2020-06-26T18:21:07Z</time>
      </trkpt>
      <trkpt lat="49.39286" lon="6.59472">
        <ele>310.3</ele>
        <time>2020-06-26T18:21:08Z</time>
      </trkpt>
      <trkpt lat="49.39285" lon="6.59478">
        <ele>310.2</ele>
        <time>2020-06-26T18:21:09Z</time>
      </trkpt>
      <trkpt lat="49.39283" lon="6.59485">
        <ele>310.1</ele>
        <time>2020-06-26T18:21:10Z</time>
      </trkpt>
      <trkpt lat="49.3928" lon="6.59489">
        <ele>310</ele>
        <time>2020-06-26T18:21:11Z</time>
      </trkpt>
      <trkpt lat="49.39277" lon="6.59499">
        <ele>309.7</ele>
        <time>2020-06-26T18:21:12Z</time>
      </trkpt>
      <trkpt lat="49.39276" lon="6.59505">
        <ele>309.6</ele>
        <time>2020-06-26T18:21:13Z</time>
      </trkpt>
      <trkpt lat="49.39273" lon="6.59513">
        <ele>309.5</ele>
        <time>2020-06-26T18:21:14Z</time>
      </trkpt>
      <trkpt lat="49.39269" lon="6.59521">
        <ele>309.3</ele>
        <time>2020-06-26T18:21:15Z</time>
      </trkpt>
      <trkpt lat="49.39267" lon="6.59528">
        <ele>309.2</ele>
        <time>2020-06-26T18:21:16Z</time>
      </trkpt>
      <trkpt lat="49.39265" lon="6.59534">
        <ele>309</ele>
        <time>2020-06-26T18:21:17Z</time>
      </trkpt>
      <trkpt lat="49.39263" lon="6.59542">
        <ele>308.9</ele>
        <time>2020-06-26T18:21:18Z</time>
      </trkpt>
      <trkpt lat="49.39261" lon="6.5955">
        <ele>308.7</ele>
        <time>2020-06-26T18:21:19Z</time>
      </trkpt>
      <trkpt lat="49.39258" lon="6.59557">
        <ele>308.6</ele>
        <time>2020-06-26T18:21:20Z</time>
      </trkpt>
      <trkpt lat="49.39256" lon="6.59565">
        <ele>308.4</ele>
        <time>2020-06-26T18:21:21Z</time>
      </trkpt>
      <trkpt lat="49.39253" lon="6.59572">
        <ele>308.3</ele>
        <time>2020-06-26T18:21:22Z</time>
      </trkpt>
      <trkpt lat="49.39251" lon="6.59579">
        <ele>308.1</ele>
        <time>2020-06-26T18:21:23Z</time>
      </trkpt>
      <trkpt lat="49.39248" lon="6.59587">
        <ele>307.9</ele>
        <time>2020-06-26T18:21:24Z</time>
      </trkpt>
      <trkpt lat="49.39245" lon="6.59594">
        <ele>307.7</ele>
        <time>2020-06-26T18:21:25Z</time>
      </trkpt>
      <trkpt lat="49.39243" lon="6.596">
        <ele>307.6</ele>
        <time>2020-06-26T18:21:26Z</time>
      </trkpt>
      <trkpt lat="49.3924" lon="6.59607">
        <ele>307.4</ele>
        <time>2020-06-26T18:21:27Z</time>
      </trkpt>
      <trkpt lat="49.39237" lon="6.59617">
        <ele>307.1</ele>
        <time>2020-06-26T18:21:28Z</time>
      </trkpt>
      <trkpt lat="49.39234" lon="6.59625">
        <ele>306.9</ele>
        <time>2020-06-26T18:21:29Z</time>
      </trkpt>
      <trkpt lat="49.39232" lon="6.59632">
        <ele>306.8</ele>
        <time>2020-06-26T18:21:30Z</time>
      </trkpt>
      <trkpt lat="49.39229" lon="6.59642">
        <ele>306.6</ele>
        <time>2020-06-26T18:21:31Z</time>
      </trkpt>
      <trkpt lat="49.39226" lon="6.59651">
        <ele>306.4</ele>
        <time>2020-06-26T18:21:32Z</time>
      </trkpt>
      <trkpt lat="49.39223" lon="6.5966">
        <ele>306.2</ele>
        <time>2020-06-26T18:21:33Z</time>
      </trkpt>
      <trkpt lat="49.3922" lon="6.59667">
        <ele>306.1</ele>
        <time>2020-06-26T18:21:34Z</time>
      </trkpt>
      <trkpt lat="49.39217" lon="6.59675">
        <ele>306</ele>
        <time>2020-06-26T18:21:35Z</time>
      </trkpt>
      <trkpt lat="49.39214" lon="6.59683">
        <ele>305.9</ele>
        <time>2020-06-26T18:21:36Z</time>
      </trkpt>
      <trkpt lat="49.3921" lon="6.59692">
        <ele>305.8</ele>
        <time>2020-06-26T18:21:37Z</time>
      </trkpt>
      <trkpt lat="49.39208" lon="6.59701">
        <ele>305.6</ele>
        <time>2020-06-26T18:21:38Z</time>
      </trkpt>
      <trkpt lat="49.39205" lon="6.5971">
        <ele>305.5</ele>
        <time>2020-06-26T18:21:39Z</time>
      </trkpt>
      <trkpt lat="49.39202" lon="6.59717">
        <ele>305.3</ele>
        <time>2020-06-26T18:21:40Z</time>
      </trkpt>
      <trkpt lat="49.39199" lon="6.59726">
        <ele>305.2</ele>
        <time>2020-06-26T18:21:41Z</time>
      </trkpt>
      <trkpt lat="49.39196" lon="6.59736">
        <ele>305</ele>
        <time>2020-06-26T18:21:42Z</time>
      </trkpt>
      <trkpt lat="49.39193" lon="6.59745">
        <ele>304.8</ele>
        <time>2020-06-26T18:21:43Z</time>
      </trkpt>
      <trkpt lat="49.39191" lon="6.59752">
        <ele>304.7</ele>
        <time>2020-06-26T18:21:44Z</time>
      </trkpt>
      <trkpt lat="49.39189" lon="6.59761">
        <ele>304.5</ele>
        <time>2020-06-26T18:21:45Z</time>
      </trkpt>
      <trkpt lat="49.39186" lon="6.5977">
        <ele>304.3</ele>
        <time>2020-06-26T18:21:46Z</time>
      </trkpt>
      <trkpt lat="49.39182" lon="6.5978">
        <ele>304</ele>
        <time>2020-06-26T18:21:47Z</time>
      </trkpt>
      <trkpt lat="49.39178" lon="6.5979">
        <ele>303.7</ele>
        <time>2020-06-26T18:21:48Z</time>
      </trkpt>
      <trkpt lat="49.39175" lon="6.59801">
        <ele>303.4</ele>
        <time>2020-06-26T18:21:49Z</time>
      </trkpt>
      <trkpt lat="49.39171" lon="6.59811">
        <ele>303.1</ele>
        <time>2020-06-26T18:21:50Z</time>
      </trkpt>
      <trkpt lat="49.39167" lon="6.59821">
        <ele>302.8</ele>
        <time>2020-06-26T18:21:51Z</time>
      </trkpt>
      <trkpt lat="49.39164" lon="6.59831">
        <ele>302.4</ele>
        <time>2020-06-26T18:21:52Z</time>
      </trkpt>
      <trkpt lat="49.3916" lon="6.59842">
        <ele>302</ele>
        <time>2020-06-26T18:21:53Z</time>
      </trkpt>
      <trkpt lat="49.39157" lon="6.59852">
        <ele>301.6</ele>
        <time>2020-06-26T18:21:54Z</time>
      </trkpt>
      <trkpt lat="49.39153" lon="6.59862">
        <ele>301.2</ele>
        <time>2020-06-26T18:21:55Z</time>
      </trkpt>
      <trkpt lat="49.39149" lon="6.59872">
        <ele>300.7</ele>
        <time>2020-06-26T18:21:56Z</time>
      </trkpt>
      <trkpt lat="49.39146" lon="6.59883">
        <ele>300.2</ele>
        <time>2020-06-26T18:21:57Z</time>
      </trkpt>
      <trkpt lat="49.39142" lon="6.59893">
        <ele>299.8</ele>
        <time>2020-06-26T18:21:58Z</time>
      </trkpt>
      <trkpt lat="49.39139" lon="6.59902">
        <ele>299.3</ele>
        <time>2020-06-26T18:21:59Z</time>
      </trkpt>
      <trkpt lat="49.39136" lon="6.59913">
        <ele>298.8</ele>
        <time>2020-06-26T18:22:00Z</time>
      </trkpt>
      <trkpt lat="49.39133" lon="6.59922">
        <ele>298.3</ele>
        <time>2020-06-26T18:22:01Z</time>
      </trkpt>
      <trkpt lat="49.3913" lon="6.59932">
        <ele>297.8</ele>
        <time>2020-06-26T18:22:02Z</time>
      </trkpt>
      <trkpt lat="49.39128" lon="6.59942">
        <ele>297.3</ele>
        <time>2020-06-26T18:22:03Z</time>
      </trkpt>
      <trkpt lat="49.39126" lon="6.59952">
        <ele>296.9</ele>
        <time>2020-06-26T18:22:04Z</time>
      </trkpt>
      <trkpt lat="49.39123" lon="6.59964">
        <ele>296.5</ele>
        <time>2020-06-26T18:22:05Z</time>
      </trkpt>
      <trkpt lat="49.39121" lon="6.59975">
        <ele>296.1</ele>
        <time>2020-06-26T18:22:06Z</time>
      </trkpt>
      <trkpt lat="49.39118" lon="6.59988">
        <ele>295.7</ele>
        <time>2020-06-26T18:22:07Z</time>
      </trkpt>
      <trkpt lat="49.39115" lon="6.6">
        <ele>295.4</ele>
        <time>2020-06-26T18:22:08Z</time>
      </trkpt>
      <trkpt lat="49.39111" lon="6.60012">
        <ele>295.2</ele>
        <time>2020-06-26T18:22:09Z</time>
      </trkpt>
      <trkpt lat="49.39108" lon="6.60024">
        <ele>295</ele>
        <time>2020-06-26T18:22:10Z</time>
      </trkpt>
      <trkpt lat="49.39105" lon="6.60037">
        <ele>295</ele>
        <time>2020-06-26T18:22:11Z</time>
      </trkpt>
      <trkpt lat="49.39102" lon="6.60049">
        <ele>294.8</ele>
        <time>2020-06-26T18:22:12Z</time>
      </trkpt>
      <trkpt lat="49.39099" lon="6.60061">
        <ele>294.6</ele>
        <time>2020-06-26T18:22:13Z</time>
      </trkpt>
      <trkpt lat="49.39095" lon="6.60073">
        <ele>295.2</ele>
        <time>2020-06-26T18:22:14Z</time>
      </trkpt>
      <trkpt lat="49.39091" lon="6.60084">
        <ele>295.9</ele>
        <time>2020-06-26T18:22:15Z</time>
      </trkpt>
      <trkpt lat="49.39088" lon="6.60095">
        <ele>296.1</ele>
        <time>2020-06-26T18:22:16Z</time>
      </trkpt>
      <trkpt lat="49.39084" lon="6.60105">
        <ele>296.2</ele>
        <time>2020-06-26T18:22:17Z</time>
      </trkpt>
      <trkpt lat="49.39081" lon="6.60116">
        <ele>296.3</ele>
        <time>2020-06-26T18:22:18Z</time>
      </trkpt>
      <trkpt lat="49.39076" lon="6.60125">
        <ele>296.4</ele>
        <time>2020-06-26T18:22:19Z</time>
      </trkpt>
      <trkpt lat="49.39073" lon="6.60134">
        <ele>296.6</ele>
        <time>2020-06-26T18:22:20Z</time>
      </trkpt>
      <trkpt lat="49.3907" lon="6.60144">
        <ele>296.8</ele>
        <time>2020-06-26T18:22:21Z</time>
      </trkpt>
      <trkpt lat="49.39066" lon="6.60153">
        <ele>297</ele>
        <time>2020-06-26T18:22:22Z</time>
      </trkpt>
      <trkpt lat="49.39064" lon="6.60162">
        <ele>297.2</ele>
        <time>2020-06-26T18:22:23Z</time>
      </trkpt>
      <trkpt lat="49.39061" lon="6.60171">
        <ele>297.4</ele>
        <time>2020-06-26T18:22:24Z</time>
      </trkpt>
      <trkpt lat="49.39058" lon="6.6018">
        <ele>297.7</ele>
        <time>2020-06-26T18:22:25Z</time>
      </trkpt>
      <trkpt lat="49.39055" lon="6.60188">
        <ele>298</ele>
        <time>2020-06-26T18:22:26Z</time>
      </trkpt>
      <trkpt lat="49.39052" lon="6.60195">
        <ele>298.3</ele>
        <time>2020-06-26T18:22:27Z</time>
      </trkpt>
      <trkpt lat="49.39049" lon="6.60202">
        <ele>298.6</ele>
        <time>2020-06-26T18:22:28Z</time>
      </trkpt>
      <trkpt lat="49.39047" lon="6.60209">
        <ele>298.9</ele>
        <time>2020-06-26T18:22:29Z</time>
      </trkpt>
      <trkpt lat="49.39045" lon="6.60216">
        <ele>299.2</ele>
        <time>2020-06-26T18:22:30Z</time>
      </trkpt>
      <trkpt lat="49.39043" lon="6.60223">
        <ele>299.5</ele>
        <time>2020-06-26T18:22:31Z</time>
      </trkpt>
      <trkpt lat="49.39041" lon="6.6023">
        <ele>299.9</ele>
        <time>2020-06-26T18:22:32Z</time>
      </trkpt>
      <trkpt lat="49.39038" lon="6.60237">
        <ele>300.2</ele>
        <time>2020-06-26T18:22:33Z</time>
      </trkpt>
      <trkpt lat="49.39036" lon="6.60242">
        <ele>300.5</ele>
        <time>2020-06-26T18:22:34Z</time>
      </trkpt>
      <trkpt lat="49.39035" lon="6.60248">
        <ele>300.7</ele>
        <time>2020-06-26T18:22:35Z</time>
      </trkpt>
      <trkpt lat="49.39033" lon="6.60253">
        <ele>301</ele>
        <time>2020-06-26T18:22:36Z</time>
      </trkpt>
      <trkpt lat="49.39032" lon="6.60257">
        <ele>301.2</ele>
        <time>2020-06-26T18:22:37Z</time>
      </trkpt>
      <trkpt lat="49.39032" lon="6.60262">
        <ele>301.4</ele>
        <time>2020-06-26T18:22:38Z</time>
      </trkpt>
      <trkpt lat="49.39031" lon="6.60267">
        <ele>301.7</ele>
        <time>2020-06-26T18:22:39Z</time>
      </trkpt>
      <trkpt lat="49.39029" lon="6.60271">
        <ele>301.9</ele>
        <time>2020-06-26T18:22:40Z</time>
      </trkpt>
      <trkpt lat="49.39028" lon="6.60276">
        <ele>302.2</ele>
        <time>2020-06-26T18:22:41Z</time>
      </trkpt>
      <trkpt lat="49.39027" lon="6.60281">
        <ele>302.5</ele>
        <time>2020-06-26T18:22:42Z</time>
      </trkpt>
      <trkpt lat="49.39026" lon="6.60286">
        <ele>302.7</ele>
        <time>2020-06-26T18:22:43Z</time>
      </trkpt>
      <trkpt lat="49.39025" lon="6.60291">
        <ele>302.9</ele>
        <time>2020-06-26T18:22:44Z</time>
      </trkpt>
      <trkpt lat="49.39023" lon="6.60295">
        <ele>303.2</ele>
        <time>2020-06-26T18:22:45Z</time>
      </trkpt>
      <trkpt lat="49.39023" lon="6.60299">
        <ele>303.4</ele>
        <time>2020-06-26T18:22:46Z</time>
      </trkpt>
      <trkpt lat="49.39022" lon="6.60304">
        <ele>303.7</ele>
        <time>2020-06-26T18:22:47Z</time>
      </trkpt>
      <trkpt lat="49.39021" lon="6.60308">
        <ele>303.9</ele>
        <time>2020-06-26T18:22:48Z</time>
      </trkpt>
      <trkpt lat="49.39019" lon="6.60312">
        <ele>304.1</ele>
        <time>2020-06-26T18:22:49Z</time>
      </trkpt>
      <trkpt lat="49.39019" lon="6.60317">
        <ele>304.4</ele>
        <time>2020-06-26T18:22:50Z</time>
      </trkpt>
      <trkpt lat="49.39018" lon="6.60318">
        <ele>304.5</ele>
        <time>2020-06-26T18:22:51Z</time>
      </trkpt>
      <trkpt lat="49.39017" lon="6.60323">
        <ele>304.7</ele>
        <time>2020-06-26T18:22:52Z</time>
      </trkpt>
      <trkpt lat="49.39017" lon="6.60324">
        <ele>304.8</ele>
        <time>2020-06-26T18:22:53Z</time>
      </trkpt>
      <trkpt lat="49.39015" lon="6.6033">
        <ele>305.2</ele>
        <time>2020-06-26T18:22:54Z</time>
      </trkpt>
      <trkpt lat="49.39015" lon="6.60333">
        <ele>305.4</ele>
        <time>2020-06-26T18:22:55Z</time>
      </trkpt>
      <trkpt lat="49.39015" lon="6.60338">
        <ele>305.7</ele>
        <time>2020-06-26T18:22:56Z</time>
      </trkpt>
      <trkpt lat="49.39015" lon="6.6034">
        <ele>305.8</ele>
        <time>2020-06-26T18:22:57Z</time>
      </trkpt>
      <trkpt lat="49.39014" lon="6.60344">
        <ele>306.1</ele>
        <time>2020-06-26T18:22:58Z</time>
      </trkpt>
      <trkpt lat="49.39012" lon="6.6035">
        <ele>306.4</ele>
        <time>2020-06-26T18:22:59Z</time>
      </trkpt>
      <trkpt lat="49.39012" lon="6.60352">
        <ele>306.5</ele>
        <time>2020-06-26T18:23:00Z</time>
      </trkpt>
      <trkpt lat="49.3901" lon="6.60356">
        <ele>306.9</ele>
        <time>2020-06-26T18:23:01Z</time>
      </trkpt>
      <trkpt lat="49.39008" lon="6.6036">
        <ele>307.1</ele>
        <time>2020-06-26T18:23:02Z</time>
      </trkpt>
      <trkpt lat="49.39008" lon="6.60361">
        <ele>307.2</ele>
        <time>2020-06-26T18:23:03Z</time>
      </trkpt>
      <trkpt lat="49.39008" lon="6.60364">
        <ele>307.4</ele>
        <time>2020-06-26T18:23:04Z</time>
      </trkpt>
      <trkpt lat="49.39007" lon="6.60367">
        <ele>307.6</ele>
        <time>2020-06-26T18:23:05Z</time>
      </trkpt>
      <trkpt lat="49.39007" lon="6.60368">
        <ele>307.7</ele>
        <time>2020-06-26T18:23:06Z</time>
      </trkpt>
      <trkpt lat="49.39005" lon="6.6037">
        <ele>307.9</ele>
        <time>2020-06-26T18:23:07Z</time>
      </trkpt>
      <trkpt lat="49.39003" lon="6.60371">
        <ele>308.1</ele>
        <time>2020-06-26T18:23:08Z</time>
      </trkpt>
      <trkpt lat="49.39002" lon="6.60372">
        <ele>308.2</ele>
        <time>2020-06-26T18:23:09Z</time>
      </trkpt>
      <trkpt lat="49.39001" lon="6.60374">
        <ele>308.3</ele>
        <time>2020-06-26T18:23:10Z</time>
      </trkpt>
      <trkpt lat="49.39001" lon="6.60375">
        <ele>308.5</ele>
        <time>2020-06-26T18:23:11Z</time>
      </trkpt>
      <trkpt lat="49.38999" lon="6.60379">
        <ele>308.7</ele>
        <time>2020-06-26T18:23:12Z</time>
      </trkpt>
      <trkpt lat="49.38998" lon="6.6038">
        <ele>308.8</ele>
        <time>2020-06-26T18:23:13Z</time>
      </trkpt>
      <trkpt lat="49.38998" lon="6.60384">
        <ele>309.1</ele>
        <time>2020-06-26T18:23:14Z</time>
      </trkpt>
      <trkpt lat="49.38997" lon="6.60389">
        <ele>309.4</ele>
        <time>2020-06-26T18:23:15Z</time>
      </trkpt>
      <trkpt lat="49.38997" lon="6.6039">
        <ele>309.5</ele>
        <time>2020-06-26T18:23:16Z</time>
      </trkpt>
      <trkpt lat="49.38995" lon="6.60396">
        <ele>309.9</ele>
        <time>2020-06-26T18:23:17Z</time>
      </trkpt>
      <trkpt lat="49.38995" lon="6.60398">
        <ele>310</ele>
        <time>2020-06-26T18:23:18Z</time>
      </trkpt>
      <trkpt lat="49.38994" lon="6.60403">
        <ele>310.4</ele>
        <time>2020-06-26T18:23:19Z</time>
      </trkpt>
      <trkpt lat="49.38994" lon="6.60405">
        <ele>310.5</ele>
        <time>2020-06-26T18:23:20Z</time>
      </trkpt>
      <trkpt lat="49.38993" lon="6.6041">
        <ele>310.8</ele>
        <time>2020-06-26T18:23:21Z</time>
      </trkpt>
      <trkpt lat="49.38992" lon="6.60412">
        <ele>310.9</ele>
        <time>2020-06-26T18:23:22Z</time>
      </trkpt>
      <trkpt lat="49.38991" lon="6.60416">
        <ele>311.2</ele>
        <time>2020-06-26T18:23:23Z</time>
      </trkpt>
      <trkpt lat="49.3899" lon="6.60417">
        <ele>311.3</ele>
        <time>2020-06-26T18:23:24Z</time>
      </trkpt>
      <trkpt lat="49.3899" lon="6.60419">
        <ele>311.4</ele>
        <time>2020-06-26T18:23:25Z</time>
      </trkpt>
      <trkpt lat="49.38989" lon="6.60422">
        <ele>311.6</ele>
        <time>2020-06-26T18:23:26Z</time>
      </trkpt>
      <trkpt lat="49.38987" lon="6.60424">
        <ele>311.8</ele>
        <time>2020-06-26T18:23:27Z</time>
      </trkpt>
      <trkpt lat="49.38987" lon="6.60426">
        <ele>311.9</ele>
        <time>2020-06-26T18:23:28Z</time>
      </trkpt>
      <trkpt lat="49.38986" lon="6.60428">
        <ele>312</ele>
        <time>2020-06-26T18:23:29Z</time>
      </trkpt>
      <trkpt lat="49.38986" lon="6.6043">
        <ele>312.1</ele>
        <time>2020-06-26T18:23:30Z</time>
      </trkpt>
      <trkpt lat="49.38985" lon="6.60434">
        <ele>312.4</ele>
        <time>2020-06-26T18:23:31Z</time>
      </trkpt>
      <trkpt lat="49.38984" lon="6.60436">
        <ele>312.5</ele>
        <time>2020-06-26T18:23:32Z</time>
      </trkpt>
      <trkpt lat="49.38982" lon="6.6044">
        <ele>312.8</ele>
        <time>2020-06-26T18:23:33Z</time>
      </trkpt>
      <trkpt lat="49.38982" lon="6.60442">
        <ele>312.9</ele>
        <time>2020-06-26T18:23:34Z</time>
      </trkpt>
      <trkpt lat="49.3898" lon="6.60447">
        <ele>313.2</ele>
        <time>2020-06-26T18:23:35Z</time>
      </trkpt>
      <trkpt lat="49.38979" lon="6.60449">
        <ele>313.3</ele>
        <time>2020-06-26T18:23:36Z</time>
      </trkpt>
      <trkpt lat="49.38977" lon="6.60453">
        <ele>313.6</ele>
        <time>2020-06-26T18:23:37Z</time>
      </trkpt>
      <trkpt lat="49.38975" lon="6.60458">
        <ele>313.9</ele>
        <time>2020-06-26T18:23:38Z</time>
      </trkpt>
      <trkpt lat="49.38973" lon="6.60462">
        <ele>314.2</ele>
        <time>2020-06-26T18:23:39Z</time>
      </trkpt>
      <trkpt lat="49.38971" lon="6.60466">
        <ele>314.5</ele>
        <time>2020-06-26T18:23:40Z</time>
      </trkpt>
      <trkpt lat="49.38969" lon="6.6047">
        <ele>314.8</ele>
        <time>2020-06-26T18:23:41Z</time>
      </trkpt>
      <trkpt lat="49.38967" lon="6.60474">
        <ele>315.1</ele>
        <time>2020-06-26T18:23:42Z</time>
      </trkpt>
      <trkpt lat="49.38964" lon="6.60477">
        <ele>315.4</ele>
        <time>2020-06-26T18:23:43Z</time>
      </trkpt>
      <trkpt lat="49.38963" lon="6.60478">
        <ele>315.5</ele>
        <time>2020-06-26T18:23:44Z</time>
      </trkpt>
      <trkpt lat="49.38961" lon="6.60482">
        <ele>315.8</ele>
        <time>2020-06-26T18:23:45Z</time>
      </trkpt>
      <trkpt lat="49.3896" lon="6.60483">
        <ele>315.9</ele>
        <time>2020-06-26T18:23:46Z</time>
      </trkpt>
      <trkpt lat="49.38958" lon="6.60487">
        <ele>316.2</ele>
        <time>2020-06-26T18:23:47Z</time>
      </trkpt>
      <trkpt lat="49.38957" lon="6.60488">
        <ele>316.3</ele>
        <time>2020-06-26T18:23:48Z</time>
      </trkpt>
      <trkpt lat="49.38954" lon="6.60491">
        <ele>316.6</ele>
        <time>2020-06-26T18:23:49Z</time>
      </trkpt>
      <trkpt lat="49.38954" lon="6.60492">
        <ele>316.7</ele>
        <time>2020-06-26T18:23:50Z</time>
      </trkpt>
      <trkpt lat="49.38951" lon="6.60496">
        <ele>317</ele>
        <time>2020-06-26T18:23:51Z</time>
      </trkpt>
      <trkpt lat="49.38951" lon="6.60497">
        <ele>317.1</ele>
        <time>2020-06-26T18:23:52Z</time>
      </trkpt>
      <trkpt lat="49.38949" lon="6.60502">
        <ele>317.4</ele>
        <time>2020-06-26T18:23:53Z</time>
      </trkpt>
      <trkpt lat="49.38948" lon="6.60503">
        <ele>317.5</ele>
        <time>2020-06-26T18:23:54Z</time>
      </trkpt>
      <trkpt lat="49.38946" lon="6.60508">
        <ele>317.8</ele>
        <time>2020-06-26T18:23:55Z</time>
      </trkpt>
      <trkpt lat="49.38945" lon="6.60509">
        <ele>317.9</ele>
        <time>2020-06-26T18:23:56Z</time>
      </trkpt>
      <trkpt lat="49.38943" lon="6.60513">
        <ele>318.2</ele>
        <time>2020-06-26T18:23:57Z</time>
      </trkpt>
      <trkpt lat="49.38942" lon="6.60514">
        <ele>318.3</ele>
        <time>2020-06-26T18:23:58Z</time>
      </trkpt>
      <trkpt lat="49.38939" lon="6.60517">
        <ele>318.6</ele>
        <time>2020-06-26T18:23:59Z</time>
      </trkpt>
      <trkpt lat="49.38939" lon="6.60518">
        <ele>318.7</ele>
        <time>2020-06-26T18:24:00Z</time>
      </trkpt>
      <trkpt lat="49.38936" lon="6.60522">
        <ele>319</ele>
        <time>2020-06-26T18:24:01Z</time>
      </trkpt>
      <trkpt lat="49.38935" lon="6.60523">
        <ele>319.1</ele>
        <time>2020-06-26T18:24:02Z</time>
      </trkpt>
      <trkpt lat="49.38932" lon="6.60528">
        <ele>319.4</ele>
        <time>2020-06-26T18:24:03Z</time>
      </trkpt>
      <trkpt lat="49.38931" lon="6.60529">
        <ele>319.5</ele>
        <time>2020-06-26T18:24:04Z</time>
      </trkpt>
      <trkpt lat="49.38929" lon="6.60533">
        <ele>319.8</ele>
        <time>2020-06-26T18:24:05Z</time>
      </trkpt>
      <trkpt lat="49.38928" lon="6.60534">
        <ele>319.9</ele>
        <time>2020-06-26T18:24:06Z</time>
      </trkpt>
      <trkpt lat="49.38926" lon="6.60537">
        <ele>320.1</ele>
        <time>2020-06-26T18:24:07Z</time>
      </trkpt>
      <trkpt lat="49.38923" lon="6.60541">
        <ele>320.4</ele>
        <time>2020-06-26T18:24:08Z</time>
      </trkpt>
      <trkpt lat="49.38922" lon="6.60542">
        <ele>320.5</ele>
        <time>2020-06-26T18:24:09Z</time>
      </trkpt>
      <trkpt lat="49.38919" lon="6.60545">
        <ele>320.8</ele>
        <time>2020-06-26T18:24:10Z</time>
      </trkpt>
      <trkpt lat="49.38918" lon="6.60547">
        <ele>320.9</ele>
        <time>2020-06-26T18:24:11Z</time>
      </trkpt>
      <trkpt lat="49.38916" lon="6.6055">
        <ele>321.2</ele>
        <time>2020-06-26T18:24:12Z</time>
      </trkpt>
      <trkpt lat="49.38914" lon="6.60553">
        <ele>321.4</ele>
        <time>2020-06-26T18:24:13Z</time>
      </trkpt>
      <trkpt lat="49.38912" lon="6.60556">
        <ele>321.6</ele>
        <time>2020-06-26T18:24:14Z</time>
      </trkpt>
      <trkpt lat="49.38911" lon="6.60557">
        <ele>321.7</ele>
        <time>2020-06-26T18:24:15Z</time>
      </trkpt>
      <trkpt lat="49.38908" lon="6.60561">
        <ele>322</ele>
        <time>2020-06-26T18:24:16Z</time>
      </trkpt>
      <trkpt lat="49.38908" lon="6.60562">
        <ele>322.1</ele>
        <time>2020-06-26T18:24:17Z</time>
      </trkpt>
      <trkpt lat="49.38905" lon="6.60565">
        <ele>322.4</ele>
        <time>2020-06-26T18:24:18Z</time>
      </trkpt>
      <trkpt lat="49.38904" lon="6.60566">
        <ele>322.5</ele>
        <time>2020-06-26T18:24:19Z</time>
      </trkpt>
      <trkpt lat="49.38902" lon="6.60569">
        <ele>322.7</ele>
        <time>2020-06-26T18:24:20Z</time>
      </trkpt>
      <trkpt lat="49.38901" lon="6.60571">
        <ele>322.8</ele>
        <time>2020-06-26T18:24:21Z</time>
      </trkpt>
      <trkpt lat="49.38899" lon="6.60575">
        <ele>323.1</ele>
        <time>2020-06-26T18:24:22Z</time>
      </trkpt>
      <trkpt lat="49.38898" lon="6.60576">
        <ele>323.2</ele>
        <time>2020-06-26T18:24:23Z</time>
      </trkpt>
      <trkpt lat="49.38896" lon="6.6058">
        <ele>323.5</ele>
        <time>2020-06-26T18:24:24Z</time>
      </trkpt>
      <trkpt lat="49.38895" lon="6.60582">
        <ele>323.6</ele>
        <time>2020-06-26T18:24:25Z</time>
      </trkpt>
      <trkpt lat="49.38893" lon="6.60586">
        <ele>323.9</ele>
        <time>2020-06-26T18:24:26Z</time>
      </trkpt>
      <trkpt lat="49.38892" lon="6.60587">
        <ele>323.9</ele>
        <time>2020-06-26T18:24:27Z</time>
      </trkpt>
      <trkpt lat="49.3889" lon="6.6059">
        <ele>324.2</ele>
        <time>2020-06-26T18:24:28Z</time>
      </trkpt>
      <trkpt lat="49.38887" lon="6.60593">
        <ele>324.4</ele>
        <time>2020-06-26T18:24:29Z</time>
      </trkpt>
      <trkpt lat="49.38885" lon="6.60593">
        <ele>324.5</ele>
        <time>2020-06-26T18:24:30Z</time>
      </trkpt>
      <trkpt lat="49.38883" lon="6.60597">
        <ele>324.8</ele>
        <time>2020-06-26T18:24:31Z</time>
      </trkpt>
      <trkpt lat="49.38882" lon="6.60598">
        <ele>324.8</ele>
        <time>2020-06-26T18:24:32Z</time>
      </trkpt>
      <trkpt lat="49.3888" lon="6.60601">
        <ele>325.1</ele>
        <time>2020-06-26T18:24:33Z</time>
      </trkpt>
      <trkpt lat="49.38879" lon="6.60602">
        <ele>325.2</ele>
        <time>2020-06-26T18:24:34Z</time>
      </trkpt>
      <trkpt lat="49.38876" lon="6.60607">
        <ele>325.4</ele>
        <time>2020-06-26T18:24:35Z</time>
      </trkpt>
      <trkpt lat="49.38875" lon="6.60608">
        <ele>325.5</ele>
        <time>2020-06-26T18:24:36Z</time>
      </trkpt>
      <trkpt lat="49.38874" lon="6.60611">
        <ele>325.7</ele>
        <time>2020-06-26T18:24:37Z</time>
      </trkpt>
      <trkpt lat="49.38871" lon="6.60616">
        <ele>326</ele>
        <time>2020-06-26T18:24:38Z</time>
      </trkpt>
      <trkpt lat="49.3887" lon="6.60617">
        <ele>326.1</ele>
        <time>2020-06-26T18:24:39Z</time>
      </trkpt>
      <trkpt lat="49.38867" lon="6.6062">
        <ele>326.3</ele>
        <time>2020-06-26T18:24:40Z</time>
      </trkpt>
      <trkpt lat="49.38866" lon="6.60621">
        <ele>326.4</ele>
        <time>2020-06-26T18:24:41Z</time>
      </trkpt>
      <trkpt lat="49.38863" lon="6.60624">
        <ele>326.6</ele>
        <time>2020-06-26T18:24:42Z</time>
      </trkpt>
      <trkpt lat="49.38862" lon="6.60625">
        <ele>326.7</ele>
        <time>2020-06-26T18:24:43Z</time>
      </trkpt>
      <trkpt lat="49.38861" lon="6.60626">
        <ele>326.8</ele>
        <time>2020-06-26T18:24:44Z</time>
      </trkpt>
      <trkpt lat="49.3886" lon="6.60627">
        <ele>326.9</ele>
        <time>2020-06-26T18:24:45Z</time>
      </trkpt>
      <trkpt lat="49.38858" lon="6.6063">
        <ele>327.1</ele>
        <time>2020-06-26T18:24:46Z</time>
      </trkpt>
      <trkpt lat="49.38857" lon="6.60631">
        <ele>327.2</ele>
        <time>2020-06-26T18:24:47Z</time>
      </trkpt>
      <trkpt lat="49.38854" lon="6.60635">
        <ele>327.4</ele>
        <time>2020-06-26T18:24:48Z</time>
      </trkpt>
      <trkpt lat="49.38853" lon="6.60636">
        <ele>327.5</ele>
        <time>2020-06-26T18:24:49Z</time>
      </trkpt>
      <trkpt lat="49.3885" lon="6.6064">
        <ele>327.8</ele>
        <time>2020-06-26T18:24:50Z</time>
      </trkpt>
      <trkpt lat="49.38849" lon="6.60641">
        <ele>327.9</ele>
        <time>2020-06-26T18:24:51Z</time>
      </trkpt>
      <trkpt lat="49.38847" lon="6.60644">
        <ele>328.1</ele>
        <time>2020-06-26T18:24:52Z</time>
      </trkpt>
      <trkpt lat="49.38845" lon="6.60648">
        <ele>328.3</ele>
        <time>2020-06-26T18:24:53Z</time>
      </trkpt>
      <trkpt lat="49.38844" lon="6.60649">
        <ele>328.4</ele>
        <time>2020-06-26T18:24:54Z</time>
      </trkpt>
      <trkpt lat="49.38842" lon="6.60654">
        <ele>328.7</ele>
        <time>2020-06-26T18:24:55Z</time>
      </trkpt>
      <trkpt lat="49.3884" lon="6.60655">
        <ele>328.8</ele>
        <time>2020-06-26T18:24:56Z</time>
      </trkpt>
      <trkpt lat="49.38838" lon="6.60658">
        <ele>329</ele>
        <time>2020-06-26T18:24:57Z</time>
      </trkpt>
      <trkpt lat="49.38835" lon="6.60661">
        <ele>329.3</ele>
        <time>2020-06-26T18:24:58Z</time>
      </trkpt>
      <trkpt lat="49.38834" lon="6.60662">
        <ele>329.4</ele>
        <time>2020-06-26T18:24:59Z</time>
      </trkpt>
      <trkpt lat="49.38832" lon="6.60665">
        <ele>329.6</ele>
        <time>2020-06-26T18:25:00Z</time>
      </trkpt>
      <trkpt lat="49.3883" lon="6.60668">
        <ele>329.8</ele>
        <time>2020-06-26T18:25:01Z</time>
      </trkpt>
      <trkpt lat="49.38828" lon="6.60673">
        <ele>330.1</ele>
        <time>2020-06-26T18:25:02Z</time>
      </trkpt>
      <trkpt lat="49.38827" lon="6.60675">
        <ele>330.2</ele>
        <time>2020-06-26T18:25:03Z</time>
      </trkpt>
      <trkpt lat="49.38825" lon="6.60677">
        <ele>330.3</ele>
        <time>2020-06-26T18:25:04Z</time>
      </trkpt>
      <trkpt lat="49.38824" lon="6.60678">
        <ele>330.4</ele>
        <time>2020-06-26T18:25:05Z</time>
      </trkpt>
      <trkpt lat="49.38823" lon="6.60682">
        <ele>330.7</ele>
        <time>2020-06-26T18:25:06Z</time>
      </trkpt>
      <trkpt lat="49.38822" lon="6.60683">
        <ele>330.7</ele>
        <time>2020-06-26T18:25:07Z</time>
      </trkpt>
      <trkpt lat="49.38821" lon="6.60687">
        <ele>330.9</ele>
        <time>2020-06-26T18:25:08Z</time>
      </trkpt>
      <trkpt lat="49.38821" lon="6.60689">
        <ele>331</ele>
        <time>2020-06-26T18:25:09Z</time>
      </trkpt>
      <trkpt lat="49.3882" lon="6.60693">
        <ele>331.2</ele>
        <time>2020-06-26T18:25:10Z</time>
      </trkpt>
      <trkpt lat="49.38819" lon="6.60694">
        <ele>331.3</ele>
        <time>2020-06-26T18:25:11Z</time>
      </trkpt>
      <trkpt lat="49.38817" lon="6.60698">
        <ele>331.5</ele>
        <time>2020-06-26T18:25:12Z</time>
      </trkpt>
      <trkpt lat="49.38816" lon="6.60699">
        <ele>331.6</ele>
        <time>2020-06-26T18:25:13Z</time>
      </trkpt>
      <trkpt lat="49.38814" lon="6.60702">
        <ele>331.9</ele>
        <time>2020-06-26T18:25:14Z</time>
      </trkpt>
      <trkpt lat="49.38813" lon="6.60703">
        <ele>331.9</ele>
        <time>2020-06-26T18:25:15Z</time>
      </trkpt>
      <trkpt lat="49.38811" lon="6.60708">
        <ele>332.2</ele>
        <time>2020-06-26T18:25:16Z</time>
      </trkpt>
      <trkpt lat="49.3881" lon="6.6071">
        <ele>332.3</ele>
        <time>2020-06-26T18:25:17Z</time>
      </trkpt>
      <trkpt lat="49.38809" lon="6.60713">
        <ele>332.5</ele>
        <time>2020-06-26T18:25:18Z</time>
      </trkpt>
      <trkpt lat="49.38808" lon="6.60717">
        <ele>332.7</ele>
        <time>2020-06-26T18:25:19Z</time>
      </trkpt>
      <trkpt lat="49.38805" lon="6.60722">
        <ele>333</ele>
        <time>2020-06-26T18:25:20Z</time>
      </trkpt>
      <trkpt lat="49.38804" lon="6.60723">
        <ele>333.1</ele>
        <time>2020-06-26T18:25:21Z</time>
      </trkpt>
      <trkpt lat="49.38802" lon="6.60726">
        <ele>333.3</ele>
        <time>2020-06-26T18:25:22Z</time>
      </trkpt>
      <trkpt lat="49.388" lon="6.60729">
        <ele>333.5</ele>
        <time>2020-06-26T18:25:23Z</time>
      </trkpt>
      <trkpt lat="49.38798" lon="6.60733">
        <ele>333.8</ele>
        <time>2020-06-26T18:25:24Z</time>
      </trkpt>
      <trkpt lat="49.38797" lon="6.60734">
        <ele>333.8</ele>
        <time>2020-06-26T18:25:25Z</time>
      </trkpt>
      <trkpt lat="49.38795" lon="6.60738">
        <ele>334.1</ele>
        <time>2020-06-26T18:25:26Z</time>
      </trkpt>
      <trkpt lat="49.38794" lon="6.6074">
        <ele>334.1</ele>
        <time>2020-06-26T18:25:27Z</time>
      </trkpt>
      <trkpt lat="49.38793" lon="6.60745">
        <ele>334.4</ele>
        <time>2020-06-26T18:25:28Z</time>
      </trkpt>
      <trkpt lat="49.38792" lon="6.60747">
        <ele>334.5</ele>
        <time>2020-06-26T18:25:29Z</time>
      </trkpt>
      <trkpt lat="49.38791" lon="6.60752">
        <ele>334.7</ele>
        <time>2020-06-26T18:25:30Z</time>
      </trkpt>
      <trkpt lat="49.3879" lon="6.60754">
        <ele>334.8</ele>
        <time>2020-06-26T18:25:31Z</time>
      </trkpt>
      <trkpt lat="49.38788" lon="6.60759">
        <ele>335</ele>
        <time>2020-06-26T18:25:32Z</time>
      </trkpt>
      <trkpt lat="49.38788" lon="6.6076">
        <ele>335.1</ele>
        <time>2020-06-26T18:25:33Z</time>
      </trkpt>
      <trkpt lat="49.38786" lon="6.60764">
        <ele>335.3</ele>
        <time>2020-06-26T18:25:34Z</time>
      </trkpt>
      <trkpt lat="49.38785" lon="6.60765">
        <ele>335.3</ele>
        <time>2020-06-26T18:25:35Z</time>
      </trkpt>
      <trkpt lat="49.38783" lon="6.60769">
        <ele>335.5</ele>
        <time>2020-06-26T18:25:36Z</time>
      </trkpt>
      <trkpt lat="49.38782" lon="6.6077">
        <ele>335.6</ele>
        <time>2020-06-26T18:25:37Z</time>
      </trkpt>
      <trkpt lat="49.38779" lon="6.60775">
        <ele>335.8</ele>
        <time>2020-06-26T18:25:38Z</time>
      </trkpt>
      <trkpt lat="49.38779" lon="6.60777">
        <ele>335.9</ele>
        <time>2020-06-26T18:25:39Z</time>
      </trkpt>
      <trkpt lat="49.38776" lon="6.60782">
        <ele>336.1</ele>
        <time>2020-06-26T18:25:40Z</time>
      </trkpt>
      <trkpt lat="49.38776" lon="6.60784">
        <ele>336.2</ele>
        <time>2020-06-26T18:25:41Z</time>
      </trkpt>
      <trkpt lat="49.38774" lon="6.60787">
        <ele>336.3</ele>
        <time>2020-06-26T18:25:42Z</time>
      </trkpt>
      <trkpt lat="49.38773" lon="6.60791">
        <ele>336.4</ele>
        <time>2020-06-26T18:25:43Z</time>
      </trkpt>
      <trkpt lat="49.38772" lon="6.60795">
        <ele>336.6</ele>
        <time>2020-06-26T18:25:44Z</time>
      </trkpt>
      <trkpt lat="49.38771" lon="6.608">
        <ele>336.7</ele>
        <time>2020-06-26T18:25:45Z</time>
      </trkpt>
      <trkpt lat="49.3877" lon="6.60802">
        <ele>336.8</ele>
        <time>2020-06-26T18:25:46Z</time>
      </trkpt>
      <trkpt lat="49.38768" lon="6.60807">
        <ele>337</ele>
        <time>2020-06-26T18:25:47Z</time>
      </trkpt>
      <trkpt lat="49.38767" lon="6.60809">
        <ele>337</ele>
        <time>2020-06-26T18:25:48Z</time>
      </trkpt>
      <trkpt lat="49.38766" lon="6.60812">
        <ele>337.1</ele>
        <time>2020-06-26T18:25:49Z</time>
      </trkpt>
      <trkpt lat="49.38765" lon="6.60816">
        <ele>337.3</ele>
        <time>2020-06-26T18:25:50Z</time>
      </trkpt>
      <trkpt lat="49.38763" lon="6.60822">
        <ele>337.4</ele>
        <time>2020-06-26T18:25:51Z</time>
      </trkpt>
      <trkpt lat="49.38762" lon="6.60824">
        <ele>337.5</ele>
        <time>2020-06-26T18:25:52Z</time>
      </trkpt>
      <trkpt lat="49.38761" lon="6.60828">
        <ele>337.6</ele>
        <time>2020-06-26T18:25:53Z</time>
      </trkpt>
      <trkpt lat="49.38759" lon="6.60832">
        <ele>337.7</ele>
        <time>2020-06-26T18:25:54Z</time>
      </trkpt>
      <trkpt lat="49.38757" lon="6.60835">
        <ele>337.8</ele>
        <time>2020-06-26T18:25:55Z</time>
      </trkpt>
      <trkpt lat="49.38756" lon="6.60839">
        <ele>337.9</ele>
        <time>2020-06-26T18:25:56Z</time>
      </trkpt>
      <trkpt lat="49.38754" lon="6.60843">
        <ele>338.1</ele>
        <time>2020-06-26T18:25:57Z</time>
      </trkpt>
      <trkpt lat="49.38753" lon="6.60847">
        <ele>338.2</ele>
        <time>2020-06-26T18:25:58Z</time>
      </trkpt>
      <trkpt lat="49.38751" lon="6.60851">
        <ele>338.3</ele>
        <time>2020-06-26T18:25:59Z</time>
      </trkpt>
      <trkpt lat="49.3875" lon="6.60856">
        <ele>338.3</ele>
        <time>2020-06-26T18:26:00Z</time>
      </trkpt>
      <trkpt lat="49.38748" lon="6.60859">
        <ele>338.4</ele>
        <time>2020-06-26T18:26:01Z</time>
      </trkpt>
      <trkpt lat="49.38747" lon="6.60863">
        <ele>338.5</ele>
        <time>2020-06-26T18:26:02Z</time>
      </trkpt>
      <trkpt lat="49.38744" lon="6.60868">
        <ele>338.6</ele>
        <time>2020-06-26T18:26:03Z</time>
      </trkpt>
      <trkpt lat="49.38744" lon="6.60869">
        <ele>338.6</ele>
        <time>2020-06-26T18:26:04Z</time>
      </trkpt>
      <trkpt lat="49.38741" lon="6.60873">
        <ele>338.7</ele>
        <time>2020-06-26T18:26:05Z</time>
      </trkpt>
      <trkpt lat="49.38741" lon="6.60875">
        <ele>338.7</ele>
        <time>2020-06-26T18:26:06Z</time>
      </trkpt>
      <trkpt lat="49.38738" lon="6.6088">
        <ele>338.7</ele>
        <time>2020-06-26T18:26:07Z</time>
      </trkpt>
      <trkpt lat="49.38736" lon="6.60881">
        <ele>338.7</ele>
        <time>2020-06-26T18:26:08Z</time>
      </trkpt>
      <trkpt lat="49.38734" lon="6.60884">
        <ele>338.7</ele>
        <time>2020-06-26T18:26:09Z</time>
      </trkpt>
      <trkpt lat="49.38732" lon="6.60888">
        <ele>338.8</ele>
        <time>2020-06-26T18:26:10Z</time>
      </trkpt>
      <trkpt lat="49.3873" lon="6.60891">
        <ele>338.8</ele>
        <time>2020-06-26T18:26:11Z</time>
      </trkpt>
      <trkpt lat="49.38727" lon="6.60895">
        <ele>338.9</ele>
        <time>2020-06-26T18:26:12Z</time>
      </trkpt>
      <trkpt lat="49.38725" lon="6.60898">
        <ele>339</ele>
        <time>2020-06-26T18:26:13Z</time>
      </trkpt>
      <trkpt lat="49.38723" lon="6.60901">
        <ele>339</ele>
        <time>2020-06-26T18:26:14Z</time>
      </trkpt>
      <trkpt lat="49.3872" lon="6.60904">
        <ele>339.1</ele>
        <time>2020-06-26T18:26:15Z</time>
      </trkpt>
      <trkpt lat="49.38716" lon="6.60906">
        <ele>339.2</ele>
        <time>2020-06-26T18:26:16Z</time>
      </trkpt>
      <trkpt lat="49.38713" lon="6.60908">
        <ele>339.2</ele>
        <time>2020-06-26T18:26:17Z</time>
      </trkpt>
      <trkpt lat="49.38709" lon="6.6091">
        <ele>339.3</ele>
        <time>2020-06-26T18:26:18Z</time>
      </trkpt>
      <trkpt lat="49.38705" lon="6.60911">
        <ele>339.3</ele>
        <time>2020-06-26T18:26:19Z</time>
      </trkpt>
      <trkpt lat="49.38701" lon="6.60913">
        <ele>339.3</ele>
        <time>2020-06-26T18:26:20Z</time>
      </trkpt>
      <trkpt lat="49.38698" lon="6.60916">
        <ele>339.3</ele>
        <time>2020-06-26T18:26:21Z</time>
      </trkpt>
      <trkpt lat="49.38694" lon="6.60918">
        <ele>339.3</ele>
        <time>2020-06-26T18:26:22Z</time>
      </trkpt>
      <trkpt lat="49.3869" lon="6.60921">
        <ele>339.3</ele>
        <time>2020-06-26T18:26:23Z</time>
      </trkpt>
      <trkpt lat="49.38687" lon="6.60923">
        <ele>339.3</ele>
        <time>2020-06-26T18:26:24Z</time>
      </trkpt>
      <trkpt lat="49.38683" lon="6.60926">
        <ele>339.3</ele>
        <time>2020-06-26T18:26:25Z</time>
      </trkpt>
      <trkpt lat="49.38678" lon="6.60927">
        <ele>339.3</ele>
        <time>2020-06-26T18:26:26Z</time>
      </trkpt>
      <trkpt lat="49.38674" lon="6.60928">
        <ele>339.3</ele>
        <time>2020-06-26T18:26:27Z</time>
      </trkpt>
      <trkpt lat="49.3867" lon="6.6093">
        <ele>339.2</ele>
        <time>2020-06-26T18:26:28Z</time>
      </trkpt>
      <trkpt lat="49.38666" lon="6.60932">
        <ele>339.2</ele>
        <time>2020-06-26T18:26:29Z</time>
      </trkpt>
      <trkpt lat="49.38661" lon="6.60933">
        <ele>339.1</ele>
        <time>2020-06-26T18:26:30Z</time>
      </trkpt>
      <trkpt lat="49.38657" lon="6.60935">
        <ele>339</ele>
        <time>2020-06-26T18:26:31Z</time>
      </trkpt>
      <trkpt lat="49.38652" lon="6.60937">
        <ele>338.9</ele>
        <time>2020-06-26T18:26:32Z</time>
      </trkpt>
      <trkpt lat="49.38647" lon="6.60939">
        <ele>338.8</ele>
        <time>2020-06-26T18:26:33Z</time>
      </trkpt>
      <trkpt lat="49.38643" lon="6.60939">
        <ele>338.7</ele>
        <time>2020-06-26T18:26:34Z</time>
      </trkpt>
      <trkpt lat="49.38638" lon="6.60941">
        <ele>338.6</ele>
        <time>2020-06-26T18:26:35Z</time>
      </trkpt>
      <trkpt lat="49.38632" lon="6.60942">
        <ele>338.5</ele>
        <time>2020-06-26T18:26:36Z</time>
      </trkpt>
      <trkpt lat="49.38627" lon="6.60944">
        <ele>338.4</ele>
        <time>2020-06-26T18:26:37Z</time>
      </trkpt>
      <trkpt lat="49.38622" lon="6.60946">
        <ele>338.2</ele>
        <time>2020-06-26T18:26:38Z</time>
      </trkpt>
      <trkpt lat="49.38616" lon="6.60948">
        <ele>338</ele>
        <time>2020-06-26T18:26:39Z</time>
      </trkpt>
      <trkpt lat="49.38611" lon="6.60951">
        <ele>337.9</ele>
        <time>2020-06-26T18:26:40Z</time>
      </trkpt>
      <trkpt lat="49.38605" lon="6.60953">
        <ele>337.7</ele>
        <time>2020-06-26T18:26:41Z</time>
      </trkpt>
      <trkpt lat="49.386" lon="6.60956">
        <ele>337.5</ele>
        <time>2020-06-26T18:26:42Z</time>
      </trkpt>
      <trkpt lat="49.38595" lon="6.60959">
        <ele>337.3</ele>
        <time>2020-06-26T18:26:43Z</time>
      </trkpt>
      <trkpt lat="49.38589" lon="6.60962">
        <ele>337</ele>
        <time>2020-06-26T18:26:44Z</time>
      </trkpt>
      <trkpt lat="49.38584" lon="6.60964">
        <ele>336.8</ele>
        <time>2020-06-26T18:26:45Z</time>
      </trkpt>
      <trkpt lat="49.38578" lon="6.60966">
        <ele>336.5</ele>
        <time>2020-06-26T18:26:46Z</time>
      </trkpt>
      <trkpt lat="49.38572" lon="6.60969">
        <ele>336.2</ele>
        <time>2020-06-26T18:26:47Z</time>
      </trkpt>
      <trkpt lat="49.38566" lon="6.60973">
        <ele>335.9</ele>
        <time>2020-06-26T18:26:48Z</time>
      </trkpt>
      <trkpt lat="49.3856" lon="6.60977">
        <ele>335.6</ele>
        <time>2020-06-26T18:26:49Z</time>
      </trkpt>
      <trkpt lat="49.38555" lon="6.6098">
        <ele>335.4</ele>
        <time>2020-06-26T18:26:50Z</time>
      </trkpt>
      <trkpt lat="49.38548" lon="6.60984">
        <ele>335.1</ele>
        <time>2020-06-26T18:26:51Z</time>
      </trkpt>
      <trkpt lat="49.38541" lon="6.60989">
        <ele>334.8</ele>
        <time>2020-06-26T18:26:52Z</time>
      </trkpt>
      <trkpt lat="49.38533" lon="6.60994">
        <ele>334.5</ele>
        <time>2020-06-26T18:26:53Z</time>
      </trkpt>
      <trkpt lat="49.38527" lon="6.60999">
        <ele>334.2</ele>
        <time>2020-06-26T18:26:54Z</time>
      </trkpt>
      <trkpt lat="49.38521" lon="6.61003">
        <ele>333.9</ele>
        <time>2020-06-26T18:26:55Z</time>
      </trkpt>
      <trkpt lat="49.38515" lon="6.61008">
        <ele>333.7</ele>
        <time>2020-06-26T18:26:56Z</time>
      </trkpt>
      <trkpt lat="49.38508" lon="6.61013">
        <ele>333.4</ele>
        <time>2020-06-26T18:26:57Z</time>
      </trkpt>
      <trkpt lat="49.38502" lon="6.61018">
        <ele>333.1</ele>
        <time>2020-06-26T18:26:58Z</time>
      </trkpt>
      <trkpt lat="49.38495" lon="6.61024">
        <ele>332.8</ele>
        <time>2020-06-26T18:26:59Z</time>
      </trkpt>
      <trkpt lat="49.38489" lon="6.61029">
        <ele>332.6</ele>
        <time>2020-06-26T18:27:00Z</time>
      </trkpt>
      <trkpt lat="49.38482" lon="6.61034">
        <ele>332.4</ele>
        <time>2020-06-26T18:27:01Z</time>
      </trkpt>
      <trkpt lat="49.38476" lon="6.6104">
        <ele>332.2</ele>
        <time>2020-06-26T18:27:02Z</time>
      </trkpt>
      <trkpt lat="49.38469" lon="6.61045">
        <ele>331.9</ele>
        <time>2020-06-26T18:27:03Z</time>
      </trkpt>
      <trkpt lat="49.38462" lon="6.6105">
        <ele>331.7</ele>
        <time>2020-06-26T18:27:04Z</time>
      </trkpt>
      <trkpt lat="49.38456" lon="6.61055">
        <ele>331.5</ele>
        <time>2020-06-26T18:27:05Z</time>
      </trkpt>
      <trkpt lat="49.38449" lon="6.6106">
        <ele>331.3</ele>
        <time>2020-06-26T18:27:06Z</time>
      </trkpt>
      <trkpt lat="49.38442" lon="6.61066">
        <ele>331.1</ele>
        <time>2020-06-26T18:27:07Z</time>
      </trkpt>
      <trkpt lat="49.38435" lon="6.61071">
        <ele>330.9</ele>
        <time>2020-06-26T18:27:08Z</time>
      </trkpt>
      <trkpt lat="49.38428" lon="6.61076">
        <ele>330.7</ele>
        <time>2020-06-26T18:27:09Z</time>
      </trkpt>
      <trkpt lat="49.38421" lon="6.61082">
        <ele>330.5</ele>
        <time>2020-06-26T18:27:10Z</time>
      </trkpt>
      <trkpt lat="49.38415" lon="6.61088">
        <ele>330.4</ele>
        <time>2020-06-26T18:27:11Z</time>
      </trkpt>
      <trkpt lat="49.38408" lon="6.61094">
        <ele>330.2</ele>
        <time>2020-06-26T18:27:12Z</time>
      </trkpt>
      <trkpt lat="49.38402" lon="6.61099">
        <ele>330.1</ele>
        <time>2020-06-26T18:27:13Z</time>
      </trkpt>
      <trkpt lat="49.38395" lon="6.61104">
        <ele>330</ele>
        <time>2020-06-26T18:27:14Z</time>
      </trkpt>
      <trkpt lat="49.38389" lon="6.6111">
        <ele>329.9</ele>
        <time>2020-06-26T18:27:15Z</time>
      </trkpt>
      <trkpt lat="49.38382" lon="6.61115">
        <ele>329.7</ele>
        <time>2020-06-26T18:27:16Z</time>
      </trkpt>
      <trkpt lat="49.38375" lon="6.6112">
        <ele>329.6</ele>
        <time>2020-06-26T18:27:17Z</time>
      </trkpt>
      <trkpt lat="49.38369" lon="6.61125">
        <ele>329.5</ele>
        <time>2020-06-26T18:27:18Z</time>
      </trkpt>
      <trkpt lat="49.38362" lon="6.61129">
        <ele>329.3</ele>
        <time>2020-06-26T18:27:19Z</time>
      </trkpt>
      <trkpt lat="49.38356" lon="6.61134">
        <ele>329.2</ele>
        <time>2020-06-26T18:27:20Z</time>
      </trkpt>
      <trkpt lat="49.38349" lon="6.61138">
        <ele>329.1</ele>
        <time>2020-06-26T18:27:21Z</time>
      </trkpt>
      <trkpt lat="49.38342" lon="6.61143">
        <ele>329</ele>
        <time>2020-06-26T18:27:22Z</time>
      </trkpt>
      <trkpt lat="49.38336" lon="6.61147">
        <ele>328.9</ele>
        <time>2020-06-26T18:27:23Z</time>
      </trkpt>
      <trkpt lat="49.38329" lon="6.61152">
        <ele>328.7</ele>
        <time>2020-06-26T18:27:24Z</time>
      </trkpt>
      <trkpt lat="49.38322" lon="6.61156">
        <ele>328.6</ele>
        <time>2020-06-26T18:27:25Z</time>
      </trkpt>
      <trkpt lat="49.38315" lon="6.61161">
        <ele>328.4</ele>
        <time>2020-06-26T18:27:26Z</time>
      </trkpt>
      <trkpt lat="49.38308" lon="6.61166">
        <ele>328.3</ele>
        <time>2020-06-26T18:27:27Z</time>
      </trkpt>
      <trkpt lat="49.38302" lon="6.61171">
        <ele>328.2</ele>
        <time>2020-06-26T18:27:28Z</time>
      </trkpt>
      <trkpt lat="49.38295" lon="6.61176">
        <ele>328.1</ele>
        <time>2020-06-26T18:27:29Z</time>
      </trkpt>
      <trkpt lat="49.38288" lon="6.6118">
        <ele>328</ele>
        <time>2020-06-26T18:27:30Z</time>
      </trkpt>
      <trkpt lat="49.38282" lon="6.61185">
        <ele>327.9</ele>
        <time>2020-06-26T18:27:31Z</time>
      </trkpt>
      <trkpt lat="49.38275" lon="6.61189">
        <ele>327.8</ele>
        <time>2020-06-26T18:27:32Z</time>
      </trkpt>
      <trkpt lat="49.38268" lon="6.61194">
        <ele>327.8</ele>
        <time>2020-06-26T18:27:33Z</time>
      </trkpt>
      <trkpt lat="49.38261" lon="6.61198">
        <ele>327.7</ele>
        <time>2020-06-26T18:27:34Z</time>
      </trkpt>
      <trkpt lat="49.38254" lon="6.61203">
        <ele>327.7</ele>
        <time>2020-06-26T18:27:35Z</time>
      </trkpt>
      <trkpt lat="49.38248" lon="6.61207">
        <ele>327.7</ele>
        <time>2020-06-26T18:27:36Z</time>
      </trkpt>
      <trkpt lat="49.38241" lon="6.61211">
        <ele>327.7</ele>
        <time>2020-06-26T18:27:37Z</time>
      </trkpt>
      <trkpt lat="49.38234" lon="6.61216">
        <ele>327.8</ele>
        <time>2020-06-26T18:27:38Z</time>
      </trkpt>
      <trkpt lat="49.38228" lon="6.61222">
        <ele>327.8</ele>
        <time>2020-06-26T18:27:39Z</time>
      </trkpt>
      <trkpt lat="49.38222" lon="6.61226">
        <ele>327.9</ele>
        <time>2020-06-26T18:27:40Z</time>
      </trkpt>
      <trkpt lat="49.38216" lon="6.61231">
        <ele>328</ele>
        <time>2020-06-26T18:27:41Z</time>
      </trkpt>
      <trkpt lat="49.3821" lon="6.61236">
        <ele>328.2</ele>
        <time>2020-06-26T18:27:42Z</time>
      </trkpt>
      <trkpt lat="49.38204" lon="6.6124">
        <ele>328.4</ele>
        <time>2020-06-26T18:27:43Z</time>
      </trkpt>
      <trkpt lat="49.38199" lon="6.61245">
        <ele>328.6</ele>
        <time>2020-06-26T18:27:44Z</time>
      </trkpt>
      <trkpt lat="49.38193" lon="6.61251">
        <ele>328.9</ele>
        <time>2020-06-26T18:27:45Z</time>
      </trkpt>
      <trkpt lat="49.38189" lon="6.61257">
        <ele>329.1</ele>
        <time>2020-06-26T18:27:46Z</time>
      </trkpt>
      <trkpt lat="49.38184" lon="6.61264">
        <ele>329.3</ele>
        <time>2020-06-26T18:27:47Z</time>
      </trkpt>
      <trkpt lat="49.3818" lon="6.61269">
        <ele>329.5</ele>
        <time>2020-06-26T18:27:48Z</time>
      </trkpt>
      <trkpt lat="49.38176" lon="6.61274">
        <ele>329.7</ele>
        <time>2020-06-26T18:27:49Z</time>
      </trkpt>
      <trkpt lat="49.38173" lon="6.6128">
        <ele>330</ele>
        <time>2020-06-26T18:27:50Z</time>
      </trkpt>
      <trkpt lat="49.3817" lon="6.61286">
        <ele>330.3</ele>
        <time>2020-06-26T18:27:51Z</time>
      </trkpt>
      <trkpt lat="49.38168" lon="6.61293">
        <ele>330.6</ele>
        <time>2020-06-26T18:27:52Z</time>
      </trkpt>
      <trkpt lat="49.38167" lon="6.613">
        <ele>330.8</ele>
        <time>2020-06-26T18:27:53Z</time>
      </trkpt>
      <trkpt lat="49.38165" lon="6.61305">
        <ele>331.1</ele>
        <time>2020-06-26T18:27:54Z</time>
      </trkpt>
      <trkpt lat="49.38164" lon="6.61311">
        <ele>331.3</ele>
        <time>2020-06-26T18:27:55Z</time>
      </trkpt>
      <trkpt lat="49.38163" lon="6.61316">
        <ele>331.5</ele>
        <time>2020-06-26T18:27:56Z</time>
      </trkpt>
      <trkpt lat="49.38161" lon="6.61321">
        <ele>331.7</ele>
        <time>2020-06-26T18:27:57Z</time>
      </trkpt>
      <trkpt lat="49.38159" lon="6.61326">
        <ele>331.9</ele>
        <time>2020-06-26T18:27:58Z</time>
      </trkpt>
      <trkpt lat="49.38158" lon="6.61331">
        <ele>332.2</ele>
        <time>2020-06-26T18:27:59Z</time>
      </trkpt>
      <trkpt lat="49.38156" lon="6.61336">
        <ele>332.3</ele>
        <time>2020-06-26T18:28:00Z</time>
      </trkpt>
      <trkpt lat="49.38154" lon="6.61341">
        <ele>332.5</ele>
        <time>2020-06-26T18:28:01Z</time>
      </trkpt>
      <trkpt lat="49.38151" lon="6.61346">
        <ele>332.7</ele>
        <time>2020-06-26T18:28:02Z</time>
      </trkpt>
      <trkpt lat="49.38149" lon="6.61351">
        <ele>332.9</ele>
        <time>2020-06-26T18:28:03Z</time>
      </trkpt>
      <trkpt lat="49.38146" lon="6.61355">
        <ele>333</ele>
        <time>2020-06-26T18:28:04Z</time>
      </trkpt>
      <trkpt lat="49.38143" lon="6.6136">
        <ele>333.2</ele>
        <time>2020-06-26T18:28:05Z</time>
      </trkpt>
      <trkpt lat="49.38141" lon="6.61365">
        <ele>333.3</ele>
        <time>2020-06-26T18:28:06Z</time>
      </trkpt>
      <trkpt lat="49.38139" lon="6.6137">
        <ele>333.5</ele>
        <time>2020-06-26T18:28:07Z</time>
      </trkpt>
      <trkpt lat="49.38137" lon="6.61375">
        <ele>333.6</ele>
        <time>2020-06-26T18:28:08Z</time>
      </trkpt>
      <trkpt lat="49.38135" lon="6.61381">
        <ele>333.7</ele>
        <time>2020-06-26T18:28:09Z</time>
      </trkpt>
      <trkpt lat="49.38133" lon="6.61386">
        <ele>333.8</ele>
        <time>2020-06-26T18:28:10Z</time>
      </trkpt>
      <trkpt lat="49.3813" lon="6.6139">
        <ele>333.9</ele>
        <time>2020-06-26T18:28:11Z</time>
      </trkpt>
      <trkpt lat="49.38127" lon="6.61394">
        <ele>334</ele>
        <time>2020-06-26T18:28:12Z</time>
      </trkpt>
      <trkpt lat="49.38126" lon="6.614">
        <ele>334.1</ele>
        <time>2020-06-26T18:28:13Z</time>
      </trkpt>
      <trkpt lat="49.38123" lon="6.61405">
        <ele>334.2</ele>
        <time>2020-06-26T18:28:14Z</time>
      </trkpt>
      <trkpt lat="49.3812" lon="6.61411">
        <ele>334.3</ele>
        <time>2020-06-26T18:28:15Z</time>
      </trkpt>
      <trkpt lat="49.38118" lon="6.61417">
        <ele>334.3</ele>
        <time>2020-06-26T18:28:16Z</time>
      </trkpt>
      <trkpt lat="49.38116" lon="6.61422">
        <ele>334.4</ele>
        <time>2020-06-26T18:28:17Z</time>
      </trkpt>
      <trkpt lat="49.38113" lon="6.61428">
        <ele>334.4</ele>
        <time>2020-06-26T18:28:18Z</time>
      </trkpt>
      <trkpt lat="49.3811" lon="6.61434">
        <ele>334.4</ele>
        <time>2020-06-26T18:28:19Z</time>
      </trkpt>
      <trkpt lat="49.38108" lon="6.6144">
        <ele>334.5</ele>
        <time>2020-06-26T18:28:20Z</time>
      </trkpt>
      <trkpt lat="49.38106" lon="6.61445">
        <ele>334.5</ele>
        <time>2020-06-26T18:28:21Z</time>
      </trkpt>
      <trkpt lat="49.38104" lon="6.6145">
        <ele>334.4</ele>
        <time>2020-06-26T18:28:22Z</time>
      </trkpt>
      <trkpt lat="49.38102" lon="6.61455">
        <ele>334.4</ele>
        <time>2020-06-26T18:28:23Z</time>
      </trkpt>
      <trkpt lat="49.381" lon="6.61461">
        <ele>334.4</ele>
        <time>2020-06-26T18:28:24Z</time>
      </trkpt>
      <trkpt lat="49.38098" lon="6.61465">
        <ele>334.4</ele>
        <time>2020-06-26T18:28:25Z</time>
      </trkpt>
      <trkpt lat="49.38096" lon="6.61473">
        <ele>334.3</ele>
        <time>2020-06-26T18:28:26Z</time>
      </trkpt>
      <trkpt lat="49.38094" lon="6.61479">
        <ele>334.3</ele>
        <time>2020-06-26T18:28:27Z</time>
      </trkpt>
      <trkpt lat="49.38092" lon="6.61487">
        <ele>334.3</ele>
        <time>2020-06-26T18:28:28Z</time>
      </trkpt>
      <trkpt lat="49.3809" lon="6.61492">
        <ele>334.3</ele>
        <time>2020-06-26T18:28:29Z</time>
      </trkpt>
      <trkpt lat="49.38087" lon="6.615">
        <ele>333.9</ele>
        <time>2020-06-26T18:28:30Z</time>
      </trkpt>
      <trkpt lat="49.38085" lon="6.6151">
        <ele>333.6</ele>
        <time>2020-06-26T18:28:31Z</time>
      </trkpt>
      <trkpt lat="49.38083" lon="6.6152">
        <ele>333.3</ele>
        <time>2020-06-26T18:28:32Z</time>
      </trkpt>
      <trkpt lat="49.3808" lon="6.61529">
        <ele>333.1</ele>
        <time>2020-06-26T18:28:33Z</time>
      </trkpt>
      <trkpt lat="49.38077" lon="6.61538">
        <ele>332.8</ele>
        <time>2020-06-26T18:28:34Z</time>
      </trkpt>
      <trkpt lat="49.38074" lon="6.61548">
        <ele>332.5</ele>
        <time>2020-06-26T18:28:35Z</time>
      </trkpt>
      <trkpt lat="49.38071" lon="6.61557">
        <ele>332.3</ele>
        <time>2020-06-26T18:28:36Z</time>
      </trkpt>
      <trkpt lat="49.38068" lon="6.61566">
        <ele>332</ele>
        <time>2020-06-26T18:28:37Z</time>
      </trkpt>
      <trkpt lat="49.38065" lon="6.61576">
        <ele>331.8</ele>
        <time>2020-06-26T18:28:38Z</time>
      </trkpt>
      <trkpt lat="49.38062" lon="6.61585">
        <ele>331.5</ele>
        <time>2020-06-26T18:28:39Z</time>
      </trkpt>
      <trkpt lat="49.38059" lon="6.61594">
        <ele>331.3</ele>
        <time>2020-06-26T18:28:40Z</time>
      </trkpt>
      <trkpt lat="49.38057" lon="6.61604">
        <ele>331.1</ele>
        <time>2020-06-26T18:28:41Z</time>
      </trkpt>
      <trkpt lat="49.38055" lon="6.61614">
        <ele>331</ele>
        <time>2020-06-26T18:28:42Z</time>
      </trkpt>
      <trkpt lat="49.38052" lon="6.61623">
        <ele>330.8</ele>
        <time>2020-06-26T18:28:43Z</time>
      </trkpt>
      <trkpt lat="49.3805" lon="6.61632">
        <ele>330.7</ele>
        <time>2020-06-26T18:28:44Z</time>
      </trkpt>
      <trkpt lat="49.38046" lon="6.61643">
        <ele>330.5</ele>
        <time>2020-06-26T18:28:45Z</time>
      </trkpt>
      <trkpt lat="49.38043" lon="6.61652">
        <ele>330.5</ele>
        <time>2020-06-26T18:28:46Z</time>
      </trkpt>
      <trkpt lat="49.3804" lon="6.6166">
        <ele>330.6</ele>
        <time>2020-06-26T18:28:47Z</time>
      </trkpt>
      <trkpt lat="49.38037" lon="6.61669">
        <ele>330.2</ele>
        <time>2020-06-26T18:28:48Z</time>
      </trkpt>
      <trkpt lat="49.38033" lon="6.61678">
        <ele>330</ele>
        <time>2020-06-26T18:28:49Z</time>
      </trkpt>
      <trkpt lat="49.3803" lon="6.61688">
        <ele>329.8</ele>
        <time>2020-06-26T18:28:50Z</time>
      </trkpt>
      <trkpt lat="49.38027" lon="6.61696">
        <ele>329.8</ele>
        <time>2020-06-26T18:28:51Z</time>
      </trkpt>
      <trkpt lat="49.38023" lon="6.61704">
        <ele>329.7</ele>
        <time>2020-06-26T18:28:52Z</time>
      </trkpt>
      <trkpt lat="49.38019" lon="6.61712">
        <ele>329.7</ele>
        <time>2020-06-26T18:28:53Z</time>
      </trkpt>
      <trkpt lat="49.38014" lon="6.6172">
        <ele>329.6</ele>
        <time>2020-06-26T18:28:54Z</time>
      </trkpt>
      <trkpt lat="49.38011" lon="6.61727">
        <ele>329.6</ele>
        <time>2020-06-26T18:28:55Z</time>
      </trkpt>
      <trkpt lat="49.38007" lon="6.61737">
        <ele>329.5</ele>
        <time>2020-06-26T18:28:56Z</time>
      </trkpt>
      <trkpt lat="49.38003" lon="6.61745">
        <ele>329.5</ele>
        <time>2020-06-26T18:28:57Z</time>
      </trkpt>
      <trkpt lat="49.37999" lon="6.61752">
        <ele>329.6</ele>
        <time>2020-06-26T18:28:58Z</time>
      </trkpt>
      <trkpt lat="49.37995" lon="6.6176">
        <ele>329.6</ele>
        <time>2020-06-26T18:28:59Z</time>
      </trkpt>
      <trkpt lat="49.37991" lon="6.61768">
        <ele>329.7</ele>
        <time>2020-06-26T18:29:00Z</time>
      </trkpt>
      <trkpt lat="49.37986" lon="6.61775">
        <ele>329.7</ele>
        <time>2020-06-26T18:29:01Z</time>
      </trkpt>
      <trkpt lat="49.37982" lon="6.61781">
        <ele>329.7</ele>
        <time>2020-06-26T18:29:02Z</time>
      </trkpt>
      <trkpt lat="49.37978" lon="6.61787">
        <ele>329.7</ele>
        <time>2020-06-26T18:29:03Z</time>
      </trkpt>
      <trkpt lat="49.37973" lon="6.61793">
        <ele>329.7</ele>
        <time>2020-06-26T18:29:04Z</time>
      </trkpt>
      <trkpt lat="49.37969" lon="6.61797">
        <ele>329.7</ele>
        <time>2020-06-26T18:29:05Z</time>
      </trkpt>
      <trkpt lat="49.37966" lon="6.61801">
        <ele>329.7</ele>
        <time>2020-06-26T18:29:06Z</time>
      </trkpt>
      <trkpt lat="49.37962" lon="6.61806">
        <ele>329.6</ele>
        <time>2020-06-26T18:29:07Z</time>
      </trkpt>
      <trkpt lat="49.37957" lon="6.61812">
        <ele>329.4</ele>
        <time>2020-06-26T18:29:08Z</time>
      </trkpt>
      <trkpt lat="49.37953" lon="6.61817">
        <ele>329.3</ele>
        <time>2020-06-26T18:29:09Z</time>
      </trkpt>
      <trkpt lat="49.37949" lon="6.61824">
        <ele>329.1</ele>
        <time>2020-06-26T18:29:10Z</time>
      </trkpt>
      <trkpt lat="49.37945" lon="6.6183">
        <ele>328.9</ele>
        <time>2020-06-26T18:29:11Z</time>
      </trkpt>
      <trkpt lat="49.37941" lon="6.61838">
        <ele>328.6</ele>
        <time>2020-06-26T18:29:12Z</time>
      </trkpt>
      <trkpt lat="49.37936" lon="6.61846">
        <ele>328.3</ele>
        <time>2020-06-26T18:29:13Z</time>
      </trkpt>
      <trkpt lat="49.37932" lon="6.61855">
        <ele>328</ele>
        <time>2020-06-26T18:29:14Z</time>
      </trkpt>
      <trkpt lat="49.37927" lon="6.61863">
        <ele>327.7</ele>
        <time>2020-06-26T18:29:15Z</time>
      </trkpt>
      <trkpt lat="49.37922" lon="6.61871">
        <ele>327.2</ele>
        <time>2020-06-26T18:29:16Z</time>
      </trkpt>
      <trkpt lat="49.37916" lon="6.6188">
        <ele>326.8</ele>
        <time>2020-06-26T18:29:17Z</time>
      </trkpt>
      <trkpt lat="49.37911" lon="6.61889">
        <ele>326.4</ele>
        <time>2020-06-26T18:29:18Z</time>
      </trkpt>
      <trkpt lat="49.37906" lon="6.61899">
        <ele>326.1</ele>
        <time>2020-06-26T18:29:19Z</time>
      </trkpt>
      <trkpt lat="49.37901" lon="6.61908">
        <ele>325.8</ele>
        <time>2020-06-26T18:29:20Z</time>
      </trkpt>
      <trkpt lat="49.37896" lon="6.61918">
        <ele>325.5</ele>
        <time>2020-06-26T18:29:21Z</time>
      </trkpt>
      <trkpt lat="49.37891" lon="6.61928">
        <ele>325.2</ele>
        <time>2020-06-26T18:29:22Z</time>
      </trkpt>
      <trkpt lat="49.37885" lon="6.61938">
        <ele>325</ele>
        <time>2020-06-26T18:29:23Z</time>
      </trkpt>
      <trkpt lat="49.3788" lon="6.61947">
        <ele>324.8</ele>
        <time>2020-06-26T18:29:24Z</time>
      </trkpt>
      <trkpt lat="49.37875" lon="6.61958">
        <ele>324.6</ele>
        <time>2020-06-26T18:29:25Z</time>
      </trkpt>
      <trkpt lat="49.3787" lon="6.61968">
        <ele>324.4</ele>
        <time>2020-06-26T18:29:26Z</time>
      </trkpt>
      <trkpt lat="49.37865" lon="6.61978">
        <ele>324.3</ele>
        <time>2020-06-26T18:29:27Z</time>
      </trkpt>
      <trkpt lat="49.3786" lon="6.61987">
        <ele>324.2</ele>
        <time>2020-06-26T18:29:28Z</time>
      </trkpt>
      <trkpt lat="49.37854" lon="6.61997">
        <ele>324.2</ele>
        <time>2020-06-26T18:29:29Z</time>
      </trkpt>
      <trkpt lat="49.37849" lon="6.62006">
        <ele>324.1</ele>
        <time>2020-06-26T18:29:30Z</time>
      </trkpt>
      <trkpt lat="49.37844" lon="6.62015">
        <ele>324.1</ele>
        <time>2020-06-26T18:29:31Z</time>
      </trkpt>
      <trkpt lat="49.37839" lon="6.62025">
        <ele>324.1</ele>
        <time>2020-06-26T18:29:32Z</time>
      </trkpt>
      <trkpt lat="49.37834" lon="6.62033">
        <ele>324.2</ele>
        <time>2020-06-26T18:29:33Z</time>
      </trkpt>
      <trkpt lat="49.37829" lon="6.62042">
        <ele>324.2</ele>
        <time>2020-06-26T18:29:34Z</time>
      </trkpt>
      <trkpt lat="49.37825" lon="6.6205">
        <ele>324.2</ele>
        <time>2020-06-26T18:29:35Z</time>
      </trkpt>
      <trkpt lat="49.37821" lon="6.62058">
        <ele>324.2</ele>
        <time>2020-06-26T18:29:36Z</time>
      </trkpt>
      <trkpt lat="49.37817" lon="6.62067">
        <ele>324.2</ele>
        <time>2020-06-26T18:29:37Z</time>
      </trkpt>
      <trkpt lat="49.37813" lon="6.62075">
        <ele>324.3</ele>
        <time>2020-06-26T18:29:38Z</time>
      </trkpt>
      <trkpt lat="49.37808" lon="6.62082">
        <ele>324.3</ele>
        <time>2020-06-26T18:29:39Z</time>
      </trkpt>
      <trkpt lat="49.37804" lon="6.6209">
        <ele>324.4</ele>
        <time>2020-06-26T18:29:40Z</time>
      </trkpt>
      <trkpt lat="49.37799" lon="6.62098">
        <ele>324.5</ele>
        <time>2020-06-26T18:29:41Z</time>
      </trkpt>
      <trkpt lat="49.37795" lon="6.62107">
        <ele>324.5</ele>
        <time>2020-06-26T18:29:42Z</time>
      </trkpt>
      <trkpt lat="49.37792" lon="6.62116">
        <ele>324.6</ele>
        <time>2020-06-26T18:29:43Z</time>
      </trkpt>
      <trkpt lat="49.37789" lon="6.62124">
        <ele>324.7</ele>
        <time>2020-06-26T18:29:44Z</time>
      </trkpt>
      <trkpt lat="49.37786" lon="6.62133">
        <ele>324.8</ele>
        <time>2020-06-26T18:29:45Z</time>
      </trkpt>
      <trkpt lat="49.37783" lon="6.62141">
        <ele>325</ele>
        <time>2020-06-26T18:29:46Z</time>
      </trkpt>
      <trkpt lat="49.3778" lon="6.6215">
        <ele>325.1</ele>
        <time>2020-06-26T18:29:47Z</time>
      </trkpt>
      <trkpt lat="49.37777" lon="6.6216">
        <ele>325.3</ele>
        <time>2020-06-26T18:29:48Z</time>
      </trkpt>
      <trkpt lat="49.37774" lon="6.62168">
        <ele>325.6</ele>
        <time>2020-06-26T18:29:49Z</time>
      </trkpt>
      <trkpt lat="49.37771" lon="6.62177">
        <ele>325.8</ele>
        <time>2020-06-26T18:29:50Z</time>
      </trkpt>
      <trkpt lat="49.37769" lon="6.62186">
        <ele>326</ele>
        <time>2020-06-26T18:29:51Z</time>
      </trkpt>
      <trkpt lat="49.37766" lon="6.62194">
        <ele>326</ele>
        <time>2020-06-26T18:29:52Z</time>
      </trkpt>
      <trkpt lat="49.37764" lon="6.62202">
        <ele>326.1</ele>
        <time>2020-06-26T18:29:53Z</time>
      </trkpt>
      <trkpt lat="49.37763" lon="6.6221">
        <ele>326.1</ele>
        <time>2020-06-26T18:29:54Z</time>
      </trkpt>
      <trkpt lat="49.3776" lon="6.62218">
        <ele>326.2</ele>
        <time>2020-06-26T18:29:55Z</time>
      </trkpt>
      <trkpt lat="49.37758" lon="6.62226">
        <ele>326.3</ele>
        <time>2020-06-26T18:29:56Z</time>
      </trkpt>
      <trkpt lat="49.37755" lon="6.62233">
        <ele>326.4</ele>
        <time>2020-06-26T18:29:57Z</time>
      </trkpt>
      <trkpt lat="49.37753" lon="6.6224">
        <ele>326.5</ele>
        <time>2020-06-26T18:29:58Z</time>
      </trkpt>
      <trkpt lat="49.3775" lon="6.62248">
        <ele>326.7</ele>
        <time>2020-06-26T18:29:59Z</time>
      </trkpt>
      <trkpt lat="49.37747" lon="6.62256">
        <ele>326.8</ele>
        <time>2020-06-26T18:30:00Z</time>
      </trkpt>
      <trkpt lat="49.37745" lon="6.62265">
        <ele>326.9</ele>
        <time>2020-06-26T18:30:01Z</time>
      </trkpt>
      <trkpt lat="49.37743" lon="6.62274">
        <ele>327</ele>
        <time>2020-06-26T18:30:02Z</time>
      </trkpt>
      <trkpt lat="49.37741" lon="6.62283">
        <ele>327</ele>
        <time>2020-06-26T18:30:03Z</time>
      </trkpt>
      <trkpt lat="49.37739" lon="6.62291">
        <ele>327.1</ele>
        <time>2020-06-26T18:30:04Z</time>
      </trkpt>
      <trkpt lat="49.37737" lon="6.623">
        <ele>327.2</ele>
        <time>2020-06-26T18:30:05Z</time>
      </trkpt>
      <trkpt lat="49.37736" lon="6.62308">
        <ele>327.3</ele>
        <time>2020-06-26T18:30:06Z</time>
      </trkpt>
      <trkpt lat="49.37733" lon="6.62317">
        <ele>327.3</ele>
        <time>2020-06-26T18:30:07Z</time>
      </trkpt>
      <trkpt lat="49.3773" lon="6.62324">
        <ele>327.4</ele>
        <time>2020-06-26T18:30:08Z</time>
      </trkpt>
      <trkpt lat="49.37727" lon="6.62332">
        <ele>327.5</ele>
        <time>2020-06-26T18:30:09Z</time>
      </trkpt>
      <trkpt lat="49.37724" lon="6.62339">
        <ele>327.5</ele>
        <time>2020-06-26T18:30:10Z</time>
      </trkpt>
      <trkpt lat="49.37721" lon="6.62346">
        <ele>327.6</ele>
        <time>2020-06-26T18:30:11Z</time>
      </trkpt>
      <trkpt lat="49.37718" lon="6.62351">
        <ele>327.6</ele>
        <time>2020-06-26T18:30:12Z</time>
      </trkpt>
      <trkpt lat="49.37714" lon="6.62358">
        <ele>327.7</ele>
        <time>2020-06-26T18:30:13Z</time>
      </trkpt>
      <trkpt lat="49.3771" lon="6.62365">
        <ele>327.7</ele>
        <time>2020-06-26T18:30:14Z</time>
      </trkpt>
      <trkpt lat="49.37706" lon="6.62372">
        <ele>327.7</ele>
        <time>2020-06-26T18:30:15Z</time>
      </trkpt>
      <trkpt lat="49.37703" lon="6.62377">
        <ele>327.7</ele>
        <time>2020-06-26T18:30:16Z</time>
      </trkpt>
      <trkpt lat="49.37699" lon="6.62384">
        <ele>327.7</ele>
        <time>2020-06-26T18:30:17Z</time>
      </trkpt>
      <trkpt lat="49.37696" lon="6.6239">
        <ele>327.6</ele>
        <time>2020-06-26T18:30:18Z</time>
      </trkpt>
      <trkpt lat="49.37693" lon="6.62396">
        <ele>327.6</ele>
        <time>2020-06-26T18:30:19Z</time>
      </trkpt>
      <trkpt lat="49.3769" lon="6.62403">
        <ele>327.6</ele>
        <time>2020-06-26T18:30:20Z</time>
      </trkpt>
      <trkpt lat="49.37686" lon="6.62409">
        <ele>327.6</ele>
        <time>2020-06-26T18:30:21Z</time>
      </trkpt>
      <trkpt lat="49.37682" lon="6.62415">
        <ele>327.6</ele>
        <time>2020-06-26T18:30:22Z</time>
      </trkpt>
      <trkpt lat="49.37677" lon="6.62422">
        <ele>327.6</ele>
        <time>2020-06-26T18:30:23Z</time>
      </trkpt>
      <trkpt lat="49.37673" lon="6.62428">
        <ele>327.7</ele>
        <time>2020-06-26T18:30:24Z</time>
      </trkpt>
      <trkpt lat="49.3767" lon="6.62435">
        <ele>327.7</ele>
        <time>2020-06-26T18:30:25Z</time>
      </trkpt>
      <trkpt lat="49.37667" lon="6.62442">
        <ele>327.8</ele>
        <time>2020-06-26T18:30:26Z</time>
      </trkpt>
      <trkpt lat="49.37664" lon="6.62447">
        <ele>327.9</ele>
        <time>2020-06-26T18:30:27Z</time>
      </trkpt>
      <trkpt lat="49.37661" lon="6.62454">
        <ele>328</ele>
        <time>2020-06-26T18:30:28Z</time>
      </trkpt>
      <trkpt lat="49.37657" lon="6.62461">
        <ele>328.1</ele>
        <time>2020-06-26T18:30:29Z</time>
      </trkpt>
      <trkpt lat="49.37654" lon="6.62466">
        <ele>328.2</ele>
        <time>2020-06-26T18:30:30Z</time>
      </trkpt>
      <trkpt lat="49.37649" lon="6.62473">
        <ele>328.3</ele>
        <time>2020-06-26T18:30:31Z</time>
      </trkpt>
      <trkpt lat="49.37646" lon="6.62478">
        <ele>328.3</ele>
        <time>2020-06-26T18:30:32Z</time>
      </trkpt>
      <trkpt lat="49.37642" lon="6.62483">
        <ele>328.4</ele>
        <time>2020-06-26T18:30:33Z</time>
      </trkpt>
      <trkpt lat="49.37639" lon="6.62489">
        <ele>328.5</ele>
        <time>2020-06-26T18:30:34Z</time>
      </trkpt>
      <trkpt lat="49.37635" lon="6.62495">
        <ele>328.6</ele>
        <time>2020-06-26T18:30:35Z</time>
      </trkpt>
      <trkpt lat="49.3763" lon="6.62502">
        <ele>328.7</ele>
        <time>2020-06-26T18:30:36Z</time>
      </trkpt>
      <trkpt lat="49.37626" lon="6.62507">
        <ele>328.7</ele>
        <time>2020-06-26T18:30:37Z</time>
      </trkpt>
      <trkpt lat="49.37621" lon="6.62513">
        <ele>328.8</ele>
        <time>2020-06-26T18:30:38Z</time>
      </trkpt>
      <trkpt lat="49.37617" lon="6.6252">
        <ele>328.9</ele>
        <time>2020-06-26T18:30:39Z</time>
      </trkpt>
      <trkpt lat="49.37613" lon="6.62527">
        <ele>329</ele>
        <time>2020-06-26T18:30:40Z</time>
      </trkpt>
      <trkpt lat="49.3761" lon="6.62532">
        <ele>329.1</ele>
        <time>2020-06-26T18:30:41Z</time>
      </trkpt>
      <trkpt lat="49.37606" lon="6.6254">
        <ele>329.3</ele>
        <time>2020-06-26T18:30:42Z</time>
      </trkpt>
      <trkpt lat="49.37603" lon="6.62546">
        <ele>329.5</ele>
        <time>2020-06-26T18:30:43Z</time>
      </trkpt>
      <trkpt lat="49.376" lon="6.62553">
        <ele>329.7</ele>
        <time>2020-06-26T18:30:44Z</time>
      </trkpt>
      <trkpt lat="49.37596" lon="6.62559">
        <ele>329.9</ele>
        <time>2020-06-26T18:30:45Z</time>
      </trkpt>
      <trkpt lat="49.37593" lon="6.62565">
        <ele>330.1</ele>
        <time>2020-06-26T18:30:46Z</time>
      </trkpt>
      <trkpt lat="49.37589" lon="6.62569">
        <ele>330.3</ele>
        <time>2020-06-26T18:30:47Z</time>
      </trkpt>
      <trkpt lat="49.37585" lon="6.62575">
        <ele>330.7</ele>
        <time>2020-06-26T18:30:48Z</time>
      </trkpt>
      <trkpt lat="49.37581" lon="6.62578">
        <ele>330.9</ele>
        <time>2020-06-26T18:30:49Z</time>
      </trkpt>
      <trkpt lat="49.37577" lon="6.62585">
        <ele>331.2</ele>
        <time>2020-06-26T18:30:50Z</time>
      </trkpt>
      <trkpt lat="49.37573" lon="6.6259">
        <ele>331.5</ele>
        <time>2020-06-26T18:30:51Z</time>
      </trkpt>
      <trkpt lat="49.3757" lon="6.62594">
        <ele>331.7</ele>
        <time>2020-06-26T18:30:52Z</time>
      </trkpt>
      <trkpt lat="49.37567" lon="6.62598">
        <ele>332</ele>
        <time>2020-06-26T18:30:53Z</time>
      </trkpt>
      <trkpt lat="49.37564" lon="6.62603">
        <ele>332.2</ele>
        <time>2020-06-26T18:30:54Z</time>
      </trkpt>
      <trkpt lat="49.37561" lon="6.62607">
        <ele>332.5</ele>
        <time>2020-06-26T18:30:55Z</time>
      </trkpt>
      <trkpt lat="49.37557" lon="6.62611">
        <ele>332.8</ele>
        <time>2020-06-26T18:30:56Z</time>
      </trkpt>
      <trkpt lat="49.37553" lon="6.62616">
        <ele>333.2</ele>
        <time>2020-06-26T18:30:57Z</time>
      </trkpt>
      <trkpt lat="49.3755" lon="6.6262">
        <ele>333.4</ele>
        <time>2020-06-26T18:30:58Z</time>
      </trkpt>
      <trkpt lat="49.37547" lon="6.62624">
        <ele>333.7</ele>
        <time>2020-06-26T18:30:59Z</time>
      </trkpt>
      <trkpt lat="49.37544" lon="6.62629">
        <ele>333.9</ele>
        <time>2020-06-26T18:31:00Z</time>
      </trkpt>
      <trkpt lat="49.37543" lon="6.62631">
        <ele>334</ele>
        <time>2020-06-26T18:31:01Z</time>
      </trkpt>
      <trkpt lat="49.3754" lon="6.62635">
        <ele>334.3</ele>
        <time>2020-06-26T18:31:02Z</time>
      </trkpt>
      <trkpt lat="49.37536" lon="6.6264">
        <ele>334.6</ele>
        <time>2020-06-26T18:31:03Z</time>
      </trkpt>
      <trkpt lat="49.37533" lon="6.62643">
        <ele>334.8</ele>
        <time>2020-06-26T18:31:04Z</time>
      </trkpt>
      <trkpt lat="49.3753" lon="6.62645">
        <ele>335</ele>
        <time>2020-06-26T18:31:05Z</time>
      </trkpt>
      <trkpt lat="49.37526" lon="6.62648">
        <ele>335.2</ele>
        <time>2020-06-26T18:31:06Z</time>
      </trkpt>
      <trkpt lat="49.37524" lon="6.6265">
        <ele>335.4</ele>
        <time>2020-06-26T18:31:07Z</time>
      </trkpt>
      <trkpt lat="49.37521" lon="6.62653">
        <ele>335.5</ele>
        <time>2020-06-26T18:31:08Z</time>
      </trkpt>
      <trkpt lat="49.37518" lon="6.62656">
        <ele>335.7</ele>
        <time>2020-06-26T18:31:09Z</time>
      </trkpt>
      <trkpt lat="49.37514" lon="6.62659">
        <ele>335.9</ele>
        <time>2020-06-26T18:31:10Z</time>
      </trkpt>
      <trkpt lat="49.37511" lon="6.62662">
        <ele>336.1</ele>
        <time>2020-06-26T18:31:11Z</time>
      </trkpt>
      <trkpt lat="49.37509" lon="6.62665">
        <ele>336.2</ele>
        <time>2020-06-26T18:31:12Z</time>
      </trkpt>
      <trkpt lat="49.37506" lon="6.62668">
        <ele>336.3</ele>
        <time>2020-06-26T18:31:13Z</time>
      </trkpt>
      <trkpt lat="49.37503" lon="6.6267">
        <ele>336.4</ele>
        <time>2020-06-26T18:31:14Z</time>
      </trkpt>
      <trkpt lat="49.37501" lon="6.62673">
        <ele>336.5</ele>
        <time>2020-06-26T18:31:15Z</time>
      </trkpt>
      <trkpt lat="49.37498" lon="6.62676">
        <ele>336.6</ele>
        <time>2020-06-26T18:31:16Z</time>
      </trkpt>
      <trkpt lat="49.37497" lon="6.62677">
        <ele>336.6</ele>
        <time>2020-06-26T18:31:17Z</time>
      </trkpt>
      <trkpt lat="49.37494" lon="6.62681">
        <ele>336.7</ele>
        <time>2020-06-26T18:31:18Z</time>
      </trkpt>
      <trkpt lat="49.37493" lon="6.62682">
        <ele>336.7</ele>
        <time>2020-06-26T18:31:19Z</time>
      </trkpt>
      <trkpt lat="49.3749" lon="6.62682">
        <ele>336.7</ele>
        <time>2020-06-26T18:31:20Z</time>
      </trkpt>
      <trkpt lat="49.37489" lon="6.62682">
        <ele>336.7</ele>
        <time>2020-06-26T18:31:21Z</time>
      </trkpt>
      <trkpt lat="49.37486" lon="6.62684">
        <ele>336.8</ele>
        <time>2020-06-26T18:31:22Z</time>
      </trkpt>
      <trkpt lat="49.37484" lon="6.62686">
        <ele>336.8</ele>
        <time>2020-06-26T18:31:23Z</time>
      </trkpt>
      <trkpt lat="49.37483" lon="6.62687">
        <ele>336.8</ele>
        <time>2020-06-26T18:31:24Z</time>
      </trkpt>
      <trkpt lat="49.3748" lon="6.62688">
        <ele>336.8</ele>
        <time>2020-06-26T18:31:25Z</time>
      </trkpt>
      <trkpt lat="49.37479" lon="6.62688">
        <ele>336.8</ele>
        <time>2020-06-26T18:31:26Z</time>
      </trkpt>
      <trkpt lat="49.37479" lon="6.62689">
        <ele>336.8</ele>
        <time>2020-06-26T18:31:27Z</time>
      </trkpt>
      <trkpt lat="49.37479" lon="6.62689">
        <ele>336.8</ele>
        <time>2020-06-26T18:31:28Z</time>
      </trkpt>
      <trkpt lat="49.37479" lon="6.6269">
        <ele>336.8</ele>
        <time>2020-06-26T18:31:29Z</time>
      </trkpt>
      <trkpt lat="49.37479" lon="6.62691">
        <ele>336.8</ele>
        <time>2020-06-26T18:31:30Z</time>
      </trkpt>
      <trkpt lat="49.37479" lon="6.62691">
        <ele>336.8</ele>
        <time>2020-06-26T18:31:31Z</time>
      </trkpt>
      <trkpt lat="49.37479" lon="6.62691">
        <ele>336.8</ele>
        <time>2020-06-26T18:31:32Z</time>
      </trkpt>
      <trkpt lat="49.37479" lon="6.62692">
        <ele>336.7</ele>
        <time>2020-06-26T18:31:33Z</time>
      </trkpt>
      <trkpt lat="49.37478" lon="6.62692">
        <ele>336.7</ele>
        <time>2020-06-26T18:31:34Z</time>
      </trkpt>
      <trkpt lat="49.37478" lon="6.62692">
        <ele>336.7</ele>
        <time>2020-06-26T18:31:35Z</time>
      </trkpt>
      <trkpt lat="49.37477" lon="6.62693">
        <ele>336.7</ele>
        <time>2020-06-26T18:31:36Z</time>
      </trkpt>
      <trkpt lat="49.37477" lon="6.62694">
        <ele>336.7</ele>
        <time>2020-06-26T18:31:37Z</time>
      </trkpt>
      <trkpt lat="49.37476" lon="6.62696">
        <ele>336.7</ele>
        <time>2020-06-26T18:31:38Z</time>
      </trkpt>
      <trkpt lat="49.37475" lon="6.62697">
        <ele>336.7</ele>
        <time>2020-06-26T18:31:39Z</time>
      </trkpt>
      <trkpt lat="49.37474" lon="6.62698">
        <ele>336.7</ele>
        <time>2020-06-26T18:31:40Z</time>
      </trkpt>
      <trkpt lat="49.37474" lon="6.627">
        <ele>336.6</ele>
        <time>2020-06-26T18:31:41Z</time>
      </trkpt>
      <trkpt lat="49.37473" lon="6.62701">
        <ele>336.6</ele>
        <time>2020-06-26T18:31:42Z</time>
      </trkpt>
      <trkpt lat="49.37472" lon="6.62702">
        <ele>336.6</ele>
        <time>2020-06-26T18:31:43Z</time>
      </trkpt>
      <trkpt lat="49.37471" lon="6.62703">
        <ele>336.5</ele>
        <time>2020-06-26T18:31:44Z</time>
      </trkpt>
      <trkpt lat="49.3747" lon="6.62705">
        <ele>336.5</ele>
        <time>2020-06-26T18:33:19Z</time>
      </trkpt>
      <trkpt lat="49.3747" lon="6.62706">
        <ele>336.5</ele>
        <time>2020-06-26T18:33:20Z</time>
      </trkpt>
      <trkpt lat="49.37467" lon="6.62711">
        <ele>336.3</ele>
        <time>2020-06-26T18:33:21Z</time>
      </trkpt>
      <trkpt lat="49.37466" lon="6.62713">
        <ele>336.3</ele>
        <time>2020-06-26T18:33:22Z</time>
      </trkpt>
      <trkpt lat="49.37463" lon="6.62717">
        <ele>336.2</ele>
        <time>2020-06-26T18:33:23Z</time>
      </trkpt>
      <trkpt lat="49.37461" lon="6.62722">
        <ele>336</ele>
        <time>2020-06-26T18:33:24Z</time>
      </trkpt>
      <trkpt lat="49.37458" lon="6.62726">
        <ele>335.9</ele>
        <time>2020-06-26T18:33:25Z</time>
      </trkpt>
      <trkpt lat="49.37454" lon="6.62729">
        <ele>335.7</ele>
        <time>2020-06-26T18:33:26Z</time>
      </trkpt>
      <trkpt lat="49.3745" lon="6.62734">
        <ele>335.4</ele>
        <time>2020-06-26T18:33:27Z</time>
      </trkpt>
      <trkpt lat="49.37446" lon="6.6274">
        <ele>335.1</ele>
        <time>2020-06-26T18:33:28Z</time>
      </trkpt>
      <trkpt lat="49.3744" lon="6.62746">
        <ele>334.7</ele>
        <time>2020-06-26T18:33:29Z</time>
      </trkpt>
      <trkpt lat="49.37436" lon="6.62752">
        <ele>334.3</ele>
        <time>2020-06-26T18:33:30Z</time>
      </trkpt>
      <trkpt lat="49.37432" lon="6.62758">
        <ele>333.9</ele>
        <time>2020-06-26T18:33:31Z</time>
      </trkpt>
      <trkpt lat="49.37427" lon="6.62767">
        <ele>333.4</ele>
        <time>2020-06-26T18:33:32Z</time>
      </trkpt>
      <trkpt lat="49.37422" lon="6.62775">
        <ele>333</ele>
        <time>2020-06-26T18:33:33Z</time>
      </trkpt>
      <trkpt lat="49.37418" lon="6.62783">
        <ele>332.6</ele>
        <time>2020-06-26T18:33:34Z</time>
      </trkpt>
      <trkpt lat="49.37413" lon="6.62793">
        <ele>332.1</ele>
        <time>2020-06-26T18:33:35Z</time>
      </trkpt>
      <trkpt lat="49.37409" lon="6.62805">
        <ele>331.6</ele>
        <time>2020-06-26T18:33:36Z</time>
      </trkpt>
      <trkpt lat="49.37406" lon="6.62816">
        <ele>331.1</ele>
        <time>2020-06-26T18:33:37Z</time>
      </trkpt>
      <trkpt lat="49.37402" lon="6.62828">
        <ele>330.7</ele>
        <time>2020-06-26T18:33:38Z</time>
      </trkpt>
      <trkpt lat="49.37399" lon="6.62841">
        <ele>330.2</ele>
        <time>2020-06-26T18:33:39Z</time>
      </trkpt>
      <trkpt lat="49.37397" lon="6.62853">
        <ele>329.7</ele>
        <time>2020-06-26T18:33:40Z</time>
      </trkpt>
      <trkpt lat="49.37393" lon="6.62866">
        <ele>329.2</ele>
        <time>2020-06-26T18:33:41Z</time>
      </trkpt>
      <trkpt lat="49.3739" lon="6.62877">
        <ele>328.7</ele>
        <time>2020-06-26T18:33:42Z</time>
      </trkpt>
      <trkpt lat="49.37387" lon="6.62889">
        <ele>328.2</ele>
        <time>2020-06-26T18:33:43Z</time>
      </trkpt>
      <trkpt lat="49.37383" lon="6.62901">
        <ele>327.8</ele>
        <time>2020-06-26T18:33:44Z</time>
      </trkpt>
      <trkpt lat="49.3738" lon="6.62915">
        <ele>327.3</ele>
        <time>2020-06-26T18:33:45Z</time>
      </trkpt>
      <trkpt lat="49.37376" lon="6.62928">
        <ele>326.9</ele>
        <time>2020-06-26T18:33:46Z</time>
      </trkpt>
      <trkpt lat="49.37373" lon="6.62942">
        <ele>326.4</ele>
        <time>2020-06-26T18:33:47Z</time>
      </trkpt>
      <trkpt lat="49.3737" lon="6.62956">
        <ele>325.8</ele>
        <time>2020-06-26T18:33:48Z</time>
      </trkpt>
      <trkpt lat="49.37367" lon="6.6297">
        <ele>325.2</ele>
        <time>2020-06-26T18:33:49Z</time>
      </trkpt>
      <trkpt lat="49.37363" lon="6.62985">
        <ele>324.6</ele>
        <time>2020-06-26T18:33:50Z</time>
      </trkpt>
      <trkpt lat="49.37359" lon="6.62999">
        <ele>323.9</ele>
        <time>2020-06-26T18:33:51Z</time>
      </trkpt>
      <trkpt lat="49.37355" lon="6.63013">
        <ele>323.3</ele>
        <time>2020-06-26T18:33:52Z</time>
      </trkpt>
      <trkpt lat="49.37351" lon="6.63028">
        <ele>322.7</ele>
        <time>2020-06-26T18:33:53Z</time>
      </trkpt>
      <trkpt lat="49.37347" lon="6.63043">
        <ele>322</ele>
        <time>2020-06-26T18:33:54Z</time>
      </trkpt>
      <trkpt lat="49.37343" lon="6.63058">
        <ele>321.3</ele>
        <time>2020-06-26T18:33:55Z</time>
      </trkpt>
      <trkpt lat="49.37339" lon="6.63074">
        <ele>320.5</ele>
        <time>2020-06-26T18:33:56Z</time>
      </trkpt>
      <trkpt lat="49.37335" lon="6.6309">
        <ele>319.6</ele>
        <time>2020-06-26T18:33:57Z</time>
      </trkpt>
      <trkpt lat="49.37331" lon="6.63105">
        <ele>318.7</ele>
        <time>2020-06-26T18:33:58Z</time>
      </trkpt>
      <trkpt lat="49.37326" lon="6.63121">
        <ele>317.8</ele>
        <time>2020-06-26T18:33:59Z</time>
      </trkpt>
      <trkpt lat="49.37322" lon="6.63137">
        <ele>317</ele>
        <time>2020-06-26T18:34:00Z</time>
      </trkpt>
      <trkpt lat="49.37318" lon="6.63154">
        <ele>316</ele>
        <time>2020-06-26T18:34:01Z</time>
      </trkpt>
      <trkpt lat="49.37313" lon="6.63171">
        <ele>315</ele>
        <time>2020-06-26T18:34:02Z</time>
      </trkpt>
      <trkpt lat="49.37309" lon="6.63189">
        <ele>314</ele>
        <time>2020-06-26T18:34:03Z</time>
      </trkpt>
      <trkpt lat="49.37305" lon="6.63206">
        <ele>312.9</ele>
        <time>2020-06-26T18:34:04Z</time>
      </trkpt>
      <trkpt lat="49.373" lon="6.63224">
        <ele>311.7</ele>
        <time>2020-06-26T18:34:05Z</time>
      </trkpt>
      <trkpt lat="49.37296" lon="6.63243">
        <ele>310.7</ele>
        <time>2020-06-26T18:34:06Z</time>
      </trkpt>
      <trkpt lat="49.37291" lon="6.63262">
        <ele>309.6</ele>
        <time>2020-06-26T18:34:07Z</time>
      </trkpt>
      <trkpt lat="49.37287" lon="6.6328">
        <ele>308.5</ele>
        <time>2020-06-26T18:34:08Z</time>
      </trkpt>
      <trkpt lat="49.37282" lon="6.633">
        <ele>307.5</ele>
        <time>2020-06-26T18:34:09Z</time>
      </trkpt>
      <trkpt lat="49.37278" lon="6.63319">
        <ele>306.5</ele>
        <time>2020-06-26T18:34:10Z</time>
      </trkpt>
      <trkpt lat="49.37273" lon="6.63338">
        <ele>305.6</ele>
        <time>2020-06-26T18:34:11Z</time>
      </trkpt>
      <trkpt lat="49.37269" lon="6.63357">
        <ele>304.7</ele>
        <time>2020-06-26T18:34:12Z</time>
      </trkpt>
      <trkpt lat="49.37267" lon="6.63375">
        <ele>303.7</ele>
        <time>2020-06-26T18:34:13Z</time>
      </trkpt>
      <trkpt lat="49.37267" lon="6.63393">
        <ele>303.5</ele>
        <time>2020-06-26T18:34:14Z</time>
      </trkpt>
      <trkpt lat="49.37269" lon="6.63411">
        <ele>302.9</ele>
        <time>2020-06-26T18:34:15Z</time>
      </trkpt>
      <trkpt lat="49.37275" lon="6.63429">
        <ele>301.8</ele>
        <time>2020-06-26T18:34:16Z</time>
      </trkpt>
      <trkpt lat="49.37281" lon="6.63445">
        <ele>300.6</ele>
        <time>2020-06-26T18:34:17Z</time>
      </trkpt>
      <trkpt lat="49.37288" lon="6.6346">
        <ele>299.4</ele>
        <time>2020-06-26T18:34:18Z</time>
      </trkpt>
      <trkpt lat="49.37295" lon="6.63477">
        <ele>298.1</ele>
        <time>2020-06-26T18:34:19Z</time>
      </trkpt>
      <trkpt lat="49.37301" lon="6.63495">
        <ele>296.8</ele>
        <time>2020-06-26T18:34:20Z</time>
      </trkpt>
      <trkpt lat="49.37307" lon="6.63514">
        <ele>295.4</ele>
        <time>2020-06-26T18:34:21Z</time>
      </trkpt>
      <trkpt lat="49.37311" lon="6.63533">
        <ele>294.1</ele>
        <time>2020-06-26T18:34:22Z</time>
      </trkpt>
      <trkpt lat="49.37314" lon="6.63552">
        <ele>292.8</ele>
        <time>2020-06-26T18:34:23Z</time>
      </trkpt>
      <trkpt lat="49.37316" lon="6.63571">
        <ele>291.4</ele>
        <time>2020-06-26T18:34:24Z</time>
      </trkpt>
      <trkpt lat="49.37315" lon="6.63591">
        <ele>289.9</ele>
        <time>2020-06-26T18:34:25Z</time>
      </trkpt>
      <trkpt lat="49.37312" lon="6.63611">
        <ele>288.5</ele>
        <time>2020-06-26T18:34:26Z</time>
      </trkpt>
      <trkpt lat="49.37308" lon="6.6363">
        <ele>287.1</ele>
        <time>2020-06-26T18:34:27Z</time>
      </trkpt>
      <trkpt lat="49.37302" lon="6.63648">
        <ele>285.7</ele>
        <time>2020-06-26T18:34:28Z</time>
      </trkpt>
      <trkpt lat="49.37295" lon="6.63666">
        <ele>284.2</ele>
        <time>2020-06-26T18:34:29Z</time>
      </trkpt>
      <trkpt lat="49.37287" lon="6.63684">
        <ele>282.6</ele>
        <time>2020-06-26T18:34:30Z</time>
      </trkpt>
      <trkpt lat="49.37278" lon="6.63702">
        <ele>281.1</ele>
        <time>2020-06-26T18:34:31Z</time>
      </trkpt>
      <trkpt lat="49.3727" lon="6.63721">
        <ele>279.6</ele>
        <time>2020-06-26T18:34:32Z</time>
      </trkpt>
      <trkpt lat="49.37262" lon="6.6374">
        <ele>278.2</ele>
        <time>2020-06-26T18:34:33Z</time>
      </trkpt>
      <trkpt lat="49.37254" lon="6.63759">
        <ele>276.8</ele>
        <time>2020-06-26T18:34:34Z</time>
      </trkpt>
      <trkpt lat="49.37246" lon="6.63777">
        <ele>275.4</ele>
        <time>2020-06-26T18:34:35Z</time>
      </trkpt>
      <trkpt lat="49.37238" lon="6.63795">
        <ele>274.1</ele>
        <time>2020-06-26T18:34:36Z</time>
      </trkpt>
      <trkpt lat="49.3723" lon="6.63814">
        <ele>272.8</ele>
        <time>2020-06-26T18:34:37Z</time>
      </trkpt>
      <trkpt lat="49.37221" lon="6.63833">
        <ele>271.4</ele>
        <time>2020-06-26T18:34:38Z</time>
      </trkpt>
      <trkpt lat="49.37212" lon="6.63851">
        <ele>269.8</ele>
        <time>2020-06-26T18:34:39Z</time>
      </trkpt>
      <trkpt lat="49.37204" lon="6.6387">
        <ele>268.4</ele>
        <time>2020-06-26T18:34:40Z</time>
      </trkpt>
      <trkpt lat="49.37194" lon="6.63886">
        <ele>267.2</ele>
        <time>2020-06-26T18:34:41Z</time>
      </trkpt>
      <trkpt lat="49.37183" lon="6.639">
        <ele>266</ele>
        <time>2020-06-26T18:34:42Z</time>
      </trkpt>
      <trkpt lat="49.37173" lon="6.63914">
        <ele>264.9</ele>
        <time>2020-06-26T18:34:43Z</time>
      </trkpt>
      <trkpt lat="49.37162" lon="6.63928">
        <ele>263.7</ele>
        <time>2020-06-26T18:34:44Z</time>
      </trkpt>
      <trkpt lat="49.37152" lon="6.63943">
        <ele>262.6</ele>
        <time>2020-06-26T18:34:45Z</time>
      </trkpt>
      <trkpt lat="49.37142" lon="6.63957">
        <ele>261.5</ele>
        <time>2020-06-26T18:34:46Z</time>
      </trkpt>
      <trkpt lat="49.37133" lon="6.6397">
        <ele>260.6</ele>
        <time>2020-06-26T18:34:47Z</time>
      </trkpt>
      <trkpt lat="49.37125" lon="6.63983">
        <ele>259.6</ele>
        <time>2020-06-26T18:34:48Z</time>
      </trkpt>
      <trkpt lat="49.37118" lon="6.63998">
        <ele>258.6</ele>
        <time>2020-06-26T18:34:49Z</time>
      </trkpt>
      <trkpt lat="49.37112" lon="6.64015">
        <ele>257.6</ele>
        <time>2020-06-26T18:34:50Z</time>
      </trkpt>
      <trkpt lat="49.37106" lon="6.64032">
        <ele>256.7</ele>
        <time>2020-06-26T18:34:51Z</time>
      </trkpt>
      <trkpt lat="49.37102" lon="6.6405">
        <ele>256</ele>
        <time>2020-06-26T18:34:52Z</time>
      </trkpt>
      <trkpt lat="49.371" lon="6.64069">
        <ele>255.5</ele>
        <time>2020-06-26T18:34:53Z</time>
      </trkpt>
      <trkpt lat="49.37098" lon="6.64088">
        <ele>254.7</ele>
        <time>2020-06-26T18:34:54Z</time>
      </trkpt>
      <trkpt lat="49.37096" lon="6.64108">
        <ele>253.7</ele>
        <time>2020-06-26T18:34:55Z</time>
      </trkpt>
      <trkpt lat="49.37094" lon="6.64128">
        <ele>252.6</ele>
        <time>2020-06-26T18:34:56Z</time>
      </trkpt>
      <trkpt lat="49.37091" lon="6.64148">
        <ele>251.5</ele>
        <time>2020-06-26T18:34:57Z</time>
      </trkpt>
      <trkpt lat="49.37089" lon="6.64169">
        <ele>250.5</ele>
        <time>2020-06-26T18:34:58Z</time>
      </trkpt>
      <trkpt lat="49.37086" lon="6.64189">
        <ele>249.4</ele>
        <time>2020-06-26T18:34:59Z</time>
      </trkpt>
      <trkpt lat="49.37084" lon="6.6421">
        <ele>248.4</ele>
        <time>2020-06-26T18:35:00Z</time>
      </trkpt>
      <trkpt lat="49.37081" lon="6.64231">
        <ele>247.4</ele>
        <time>2020-06-26T18:35:01Z</time>
      </trkpt>
      <trkpt lat="49.37078" lon="6.64253">
        <ele>246.5</ele>
        <time>2020-06-26T18:35:02Z</time>
      </trkpt>
      <trkpt lat="49.37076" lon="6.64274">
        <ele>245.7</ele>
        <time>2020-06-26T18:35:03Z</time>
      </trkpt>
      <trkpt lat="49.37074" lon="6.64294">
        <ele>244.9</ele>
        <time>2020-06-26T18:35:04Z</time>
      </trkpt>
      <trkpt lat="49.37072" lon="6.64315">
        <ele>244.1</ele>
        <time>2020-06-26T18:35:05Z</time>
      </trkpt>
      <trkpt lat="49.3707" lon="6.64335">
        <ele>243.3</ele>
        <time>2020-06-26T18:35:06Z</time>
      </trkpt>
      <trkpt lat="49.37067" lon="6.64356">
        <ele>242.7</ele>
        <time>2020-06-26T18:35:07Z</time>
      </trkpt>
      <trkpt lat="49.37064" lon="6.64376">
        <ele>242.1</ele>
        <time>2020-06-26T18:35:08Z</time>
      </trkpt>
      <trkpt lat="49.3706" lon="6.64395">
        <ele>241</ele>
        <time>2020-06-26T18:35:09Z</time>
      </trkpt>
      <trkpt lat="49.37056" lon="6.64414">
        <ele>239.9</ele>
        <time>2020-06-26T18:35:10Z</time>
      </trkpt>
      <trkpt lat="49.37051" lon="6.64434">
        <ele>238.9</ele>
        <time>2020-06-26T18:35:11Z</time>
      </trkpt>
      <trkpt lat="49.37047" lon="6.64453">
        <ele>237.9</ele>
        <time>2020-06-26T18:35:12Z</time>
      </trkpt>
      <trkpt lat="49.37043" lon="6.64473">
        <ele>236.9</ele>
        <time>2020-06-26T18:35:13Z</time>
      </trkpt>
      <trkpt lat="49.37038" lon="6.64492">
        <ele>236</ele>
        <time>2020-06-26T18:35:14Z</time>
      </trkpt>
      <trkpt lat="49.37032" lon="6.6451">
        <ele>235.1</ele>
        <time>2020-06-26T18:35:15Z</time>
      </trkpt>
      <trkpt lat="49.37026" lon="6.64528">
        <ele>234.4</ele>
        <time>2020-06-26T18:35:16Z</time>
      </trkpt>
      <trkpt lat="49.3702" lon="6.64545">
        <ele>233.6</ele>
        <time>2020-06-26T18:35:17Z</time>
      </trkpt>
      <trkpt lat="49.37014" lon="6.64563">
        <ele>232.8</ele>
        <time>2020-06-26T18:35:18Z</time>
      </trkpt>
      <trkpt lat="49.37007" lon="6.6458">
        <ele>231.9</ele>
        <time>2020-06-26T18:35:19Z</time>
      </trkpt>
      <trkpt lat="49.37001" lon="6.64598">
        <ele>231</ele>
        <time>2020-06-26T18:35:20Z</time>
      </trkpt>
      <trkpt lat="49.36994" lon="6.64616">
        <ele>230.2</ele>
        <time>2020-06-26T18:35:21Z</time>
      </trkpt>
      <trkpt lat="49.36988" lon="6.64634">
        <ele>229.4</ele>
        <time>2020-06-26T18:35:22Z</time>
      </trkpt>
      <trkpt lat="49.36982" lon="6.64651">
        <ele>228.7</ele>
        <time>2020-06-26T18:35:23Z</time>
      </trkpt>
      <trkpt lat="49.36976" lon="6.64669">
        <ele>228</ele>
        <time>2020-06-26T18:35:24Z</time>
      </trkpt>
      <trkpt lat="49.36969" lon="6.64686">
        <ele>227.4</ele>
        <time>2020-06-26T18:35:25Z</time>
      </trkpt>
      <trkpt lat="49.36963" lon="6.64702">
        <ele>226.9</ele>
        <time>2020-06-26T18:35:26Z</time>
      </trkpt>
      <trkpt lat="49.36958" lon="6.64719">
        <ele>226.4</ele>
        <time>2020-06-26T18:35:27Z</time>
      </trkpt>
      <trkpt lat="49.36952" lon="6.64735">
        <ele>225.9</ele>
        <time>2020-06-26T18:35:28Z</time>
      </trkpt>
      <trkpt lat="49.36949" lon="6.64753">
        <ele>225.4</ele>
        <time>2020-06-26T18:35:29Z</time>
      </trkpt>
      <trkpt lat="49.36948" lon="6.64772">
        <ele>224.9</ele>
        <time>2020-06-26T18:35:30Z</time>
      </trkpt>
      <trkpt lat="49.36948" lon="6.6479">
        <ele>224.3</ele>
        <time>2020-06-26T18:35:31Z</time>
      </trkpt>
      <trkpt lat="49.36948" lon="6.64807">
        <ele>223.7</ele>
        <time>2020-06-26T18:35:32Z</time>
      </trkpt>
      <trkpt lat="49.36947" lon="6.64825">
        <ele>223.3</ele>
        <time>2020-06-26T18:35:33Z</time>
      </trkpt>
      <trkpt lat="49.36945" lon="6.64843">
        <ele>222.9</ele>
        <time>2020-06-26T18:35:34Z</time>
      </trkpt>
      <trkpt lat="49.36941" lon="6.6486">
        <ele>222.5</ele>
        <time>2020-06-26T18:35:35Z</time>
      </trkpt>
      <trkpt lat="49.36937" lon="6.64876">
        <ele>222.2</ele>
        <time>2020-06-26T18:35:36Z</time>
      </trkpt>
      <trkpt lat="49.36932" lon="6.64891">
        <ele>221.8</ele>
        <time>2020-06-26T18:35:37Z</time>
      </trkpt>
      <trkpt lat="49.36928" lon="6.64906">
        <ele>221.5</ele>
        <time>2020-06-26T18:35:38Z</time>
      </trkpt>
      <trkpt lat="49.36924" lon="6.64921">
        <ele>221.3</ele>
        <time>2020-06-26T18:35:39Z</time>
      </trkpt>
      <trkpt lat="49.3692" lon="6.64935">
        <ele>221</ele>
        <time>2020-06-26T18:35:40Z</time>
      </trkpt>
      <trkpt lat="49.36915" lon="6.64949">
        <ele>220.8</ele>
        <time>2020-06-26T18:35:41Z</time>
      </trkpt>
      <trkpt lat="49.36911" lon="6.64963">
        <ele>220.5</ele>
        <time>2020-06-26T18:35:42Z</time>
      </trkpt>
      <trkpt lat="49.36907" lon="6.64978">
        <ele>220.2</ele>
        <time>2020-06-26T18:35:43Z</time>
      </trkpt>
      <trkpt lat="49.36903" lon="6.64992">
        <ele>219.9</ele>
        <time>2020-06-26T18:35:44Z</time>
      </trkpt>
      <trkpt lat="49.36899" lon="6.65005">
        <ele>219.6</ele>
        <time>2020-06-26T18:35:45Z</time>
      </trkpt>
      <trkpt lat="49.36894" lon="6.65019">
        <ele>219.2</ele>
        <time>2020-06-26T18:35:46Z</time>
      </trkpt>
      <trkpt lat="49.36889" lon="6.65032">
        <ele>218.8</ele>
        <time>2020-06-26T18:35:47Z</time>
      </trkpt>
      <trkpt lat="49.36883" lon="6.65045">
        <ele>218.4</ele>
        <time>2020-06-26T18:35:48Z</time>
      </trkpt>
      <trkpt lat="49.36877" lon="6.65057">
        <ele>218.1</ele>
        <time>2020-06-26T18:35:49Z</time>
      </trkpt>
      <trkpt lat="49.36871" lon="6.65068">
        <ele>217.7</ele>
        <time>2020-06-26T18:35:50Z</time>
      </trkpt>
      <trkpt lat="49.36864" lon="6.65078">
        <ele>217.4</ele>
        <time>2020-06-26T18:35:51Z</time>
      </trkpt>
      <trkpt lat="49.36858" lon="6.65088">
        <ele>217.1</ele>
        <time>2020-06-26T18:35:52Z</time>
      </trkpt>
      <trkpt lat="49.36852" lon="6.65099">
        <ele>216.8</ele>
        <time>2020-06-26T18:35:53Z</time>
      </trkpt>
      <trkpt lat="49.36846" lon="6.6511">
        <ele>216.4</ele>
        <time>2020-06-26T18:35:54Z</time>
      </trkpt>
      <trkpt lat="49.36841" lon="6.65123">
        <ele>216</ele>
        <time>2020-06-26T18:35:55Z</time>
      </trkpt>
      <trkpt lat="49.36837" lon="6.65137">
        <ele>215.5</ele>
        <time>2020-06-26T18:35:56Z</time>
      </trkpt>
      <trkpt lat="49.36834" lon="6.65152">
        <ele>214.9</ele>
        <time>2020-06-26T18:35:57Z</time>
      </trkpt>
      <trkpt lat="49.36831" lon="6.65166">
        <ele>214.4</ele>
        <time>2020-06-26T18:35:58Z</time>
      </trkpt>
      <trkpt lat="49.36827" lon="6.65181">
        <ele>213.8</ele>
        <time>2020-06-26T18:35:59Z</time>
      </trkpt>
      <trkpt lat="49.36823" lon="6.65195">
        <ele>213.2</ele>
        <time>2020-06-26T18:36:00Z</time>
      </trkpt>
      <trkpt lat="49.36818" lon="6.6521">
        <ele>212.6</ele>
        <time>2020-06-26T18:36:01Z</time>
      </trkpt>
      <trkpt lat="49.36813" lon="6.65224">
        <ele>211.9</ele>
        <time>2020-06-26T18:36:02Z</time>
      </trkpt>
      <trkpt lat="49.36808" lon="6.65239">
        <ele>211.1</ele>
        <time>2020-06-26T18:36:03Z</time>
      </trkpt>
      <trkpt lat="49.36802" lon="6.65253">
        <ele>210.4</ele>
        <time>2020-06-26T18:36:04Z</time>
      </trkpt>
      <trkpt lat="49.36795" lon="6.65267">
        <ele>209.6</ele>
        <time>2020-06-26T18:36:05Z</time>
      </trkpt>
      <trkpt lat="49.36788" lon="6.6528">
        <ele>208.9</ele>
        <time>2020-06-26T18:36:06Z</time>
      </trkpt>
      <trkpt lat="49.36781" lon="6.65292">
        <ele>208.2</ele>
        <time>2020-06-26T18:36:07Z</time>
      </trkpt>
      <trkpt lat="49.36774" lon="6.65306">
        <ele>207.5</ele>
        <time>2020-06-26T18:36:08Z</time>
      </trkpt>
      <trkpt lat="49.36767" lon="6.65319">
        <ele>206.9</ele>
        <time>2020-06-26T18:36:09Z</time>
      </trkpt>
      <trkpt lat="49.36759" lon="6.65334">
        <ele>206.5</ele>
        <time>2020-06-26T18:36:10Z</time>
      </trkpt>
      <trkpt lat="49.36752" lon="6.65348">
        <ele>205.6</ele>
        <time>2020-06-26T18:36:11Z</time>
      </trkpt>
      <trkpt lat="49.36745" lon="6.65363">
        <ele>204.6</ele>
        <time>2020-06-26T18:36:12Z</time>
      </trkpt>
      <trkpt lat="49.36739" lon="6.65379">
        <ele>203.7</ele>
        <time>2020-06-26T18:36:13Z</time>
      </trkpt>
      <trkpt lat="49.36733" lon="6.65394">
        <ele>202.7</ele>
        <time>2020-06-26T18:36:14Z</time>
      </trkpt>
      <trkpt lat="49.36728" lon="6.65409">
        <ele>201.8</ele>
        <time>2020-06-26T18:36:15Z</time>
      </trkpt>
      <trkpt lat="49.36724" lon="6.65423">
        <ele>201</ele>
        <time>2020-06-26T18:36:16Z</time>
      </trkpt>
      <trkpt lat="49.3672" lon="6.65436">
        <ele>200.4</ele>
        <time>2020-06-26T18:36:17Z</time>
      </trkpt>
      <trkpt lat="49.36716" lon="6.65448">
        <ele>199.7</ele>
        <time>2020-06-26T18:36:18Z</time>
      </trkpt>
      <trkpt lat="49.36712" lon="6.65459">
        <ele>199.1</ele>
        <time>2020-06-26T18:36:19Z</time>
      </trkpt>
      <trkpt lat="49.36708" lon="6.65469">
        <ele>198.5</ele>
        <time>2020-06-26T18:36:20Z</time>
      </trkpt>
      <trkpt lat="49.36705" lon="6.65481">
        <ele>197.8</ele>
        <time>2020-06-26T18:36:21Z</time>
      </trkpt>
      <trkpt lat="49.36701" lon="6.65493">
        <ele>197.1</ele>
        <time>2020-06-26T18:36:22Z</time>
      </trkpt>
      <trkpt lat="49.36697" lon="6.65505">
        <ele>196.4</ele>
        <time>2020-06-26T18:36:23Z</time>
      </trkpt>
      <trkpt lat="49.36694" lon="6.65518">
        <ele>195.5</ele>
        <time>2020-06-26T18:36:24Z</time>
      </trkpt>
      <trkpt lat="49.36691" lon="6.65531">
        <ele>194.6</ele>
        <time>2020-06-26T18:36:25Z</time>
      </trkpt>
      <trkpt lat="49.36689" lon="6.65546">
        <ele>193.6</ele>
        <time>2020-06-26T18:36:26Z</time>
      </trkpt>
      <trkpt lat="49.36688" lon="6.65561">
        <ele>192.7</ele>
        <time>2020-06-26T18:36:27Z</time>
      </trkpt>
      <trkpt lat="49.36688" lon="6.65576">
        <ele>192</ele>
        <time>2020-06-26T18:36:28Z</time>
      </trkpt>
      <trkpt lat="49.36688" lon="6.65592">
        <ele>191.4</ele>
        <time>2020-06-26T18:36:29Z</time>
      </trkpt>
      <trkpt lat="49.3669" lon="6.65608">
        <ele>190.8</ele>
        <time>2020-06-26T18:36:30Z</time>
      </trkpt>
      <trkpt lat="49.36691" lon="6.65624">
        <ele>190.3</ele>
        <time>2020-06-26T18:36:31Z</time>
      </trkpt>
      <trkpt lat="49.36695" lon="6.6564">
        <ele>189.8</ele>
        <time>2020-06-26T18:36:32Z</time>
      </trkpt>
      <trkpt lat="49.36699" lon="6.65655">
        <ele>189.4</ele>
        <time>2020-06-26T18:36:33Z</time>
      </trkpt>
      <trkpt lat="49.36704" lon="6.6567">
        <ele>189</ele>
        <time>2020-06-26T18:36:34Z</time>
      </trkpt>
      <trkpt lat="49.36709" lon="6.65685">
        <ele>188.6</ele>
        <time>2020-06-26T18:36:35Z</time>
      </trkpt>
      <trkpt lat="49.36715" lon="6.65699">
        <ele>188.4</ele>
        <time>2020-06-26T18:36:36Z</time>
      </trkpt>
      <trkpt lat="49.36721" lon="6.65713">
        <ele>188.2</ele>
        <time>2020-06-26T18:36:37Z</time>
      </trkpt>
      <trkpt lat="49.36727" lon="6.65725">
        <ele>188</ele>
        <time>2020-06-26T18:36:38Z</time>
      </trkpt>
      <trkpt lat="49.36734" lon="6.65738">
        <ele>187.9</ele>
        <time>2020-06-26T18:36:39Z</time>
      </trkpt>
      <trkpt lat="49.3674" lon="6.65749">
        <ele>187.8</ele>
        <time>2020-06-26T18:36:40Z</time>
      </trkpt>
      <trkpt lat="49.36746" lon="6.65759">
        <ele>187.7</ele>
        <time>2020-06-26T18:36:41Z</time>
      </trkpt>
      <trkpt lat="49.36751" lon="6.65767">
        <ele>187.6</ele>
        <time>2020-06-26T18:36:42Z</time>
      </trkpt>
      <trkpt lat="49.36756" lon="6.65774">
        <ele>187.4</ele>
        <time>2020-06-26T18:36:43Z</time>
      </trkpt>
      <trkpt lat="49.3676" lon="6.65781">
        <ele>187.3</ele>
        <time>2020-06-26T18:36:44Z</time>
      </trkpt>
      <trkpt lat="49.36766" lon="6.65786">
        <ele>187.1</ele>
        <time>2020-06-26T18:36:45Z</time>
      </trkpt>
      <trkpt lat="49.36771" lon="6.65791">
        <ele>186.9</ele>
        <time>2020-06-26T18:36:46Z</time>
      </trkpt>
      <trkpt lat="49.36775" lon="6.65797">
        <ele>187</ele>
        <time>2020-06-26T18:36:47Z</time>
      </trkpt>
      <trkpt lat="49.36777" lon="6.65804">
        <ele>187.1</ele>
        <time>2020-06-26T18:36:48Z</time>
      </trkpt>
      <trkpt lat="49.36778" lon="6.65812">
        <ele>187.1</ele>
        <time>2020-06-26T18:36:49Z</time>
      </trkpt>
      <trkpt lat="49.36776" lon="6.65818">
        <ele>187.2</ele>
        <time>2020-06-26T18:36:50Z</time>
      </trkpt>
      <trkpt lat="49.36775" lon="6.65823">
        <ele>187.3</ele>
        <time>2020-06-26T18:36:51Z</time>
      </trkpt>
      <trkpt lat="49.36774" lon="6.65829">
        <ele>187.3</ele>
        <time>2020-06-26T18:36:52Z</time>
      </trkpt>
      <trkpt lat="49.36773" lon="6.65835">
        <ele>187.4</ele>
        <time>2020-06-26T18:36:53Z</time>
      </trkpt>
      <trkpt lat="49.36771" lon="6.6584">
        <ele>187.4</ele>
        <time>2020-06-26T18:36:54Z</time>
      </trkpt>
      <trkpt lat="49.3677" lon="6.65845">
        <ele>187.5</ele>
        <time>2020-06-26T18:36:55Z</time>
      </trkpt>
      <trkpt lat="49.36769" lon="6.6585">
        <ele>187.5</ele>
        <time>2020-06-26T18:36:56Z</time>
      </trkpt>
      <trkpt lat="49.36767" lon="6.65854">
        <ele>187.5</ele>
        <time>2020-06-26T18:36:57Z</time>
      </trkpt>
      <trkpt lat="49.36766" lon="6.65857">
        <ele>187.5</ele>
        <time>2020-06-26T18:36:58Z</time>
      </trkpt>
      <trkpt lat="49.36765" lon="6.65859">
        <ele>187.5</ele>
        <time>2020-06-26T18:36:59Z</time>
      </trkpt>
      <trkpt lat="49.36765" lon="6.6586">
        <ele>187.5</ele>
        <time>2020-06-26T18:37:00Z</time>
      </trkpt>
      <trkpt lat="49.36764" lon="6.65861">
        <ele>187.5</ele>
        <time>2020-06-26T18:37:01Z</time>
      </trkpt>
      <trkpt lat="49.36764" lon="6.65863">
        <ele>187.5</ele>
        <time>2020-06-26T18:37:02Z</time>
      </trkpt>
      <trkpt lat="49.36764" lon="6.65864">
        <ele>187.5</ele>
        <time>2020-06-26T18:37:03Z</time>
      </trkpt>
      <trkpt lat="49.36763" lon="6.65866">
        <ele>187.5</ele>
        <time>2020-06-26T18:37:04Z</time>
      </trkpt>
      <trkpt lat="49.36763" lon="6.65866">
        <ele>187.5</ele>
        <time>2020-06-26T18:37:05Z</time>
      </trkpt>
      <trkpt lat="49.36764" lon="6.65865">
        <ele>187.5</ele>
        <time>2020-06-26T18:37:06Z</time>
      </trkpt>
      <trkpt lat="49.36763" lon="6.65864">
        <ele>187.5</ele>
        <time>2020-06-26T18:37:07Z</time>
      </trkpt>
      <trkpt lat="49.36763" lon="6.65864">
        <ele>187.5</ele>
        <time>2020-06-26T18:37:08Z</time>
      </trkpt>
      <trkpt lat="49.36763" lon="6.65863">
        <ele>187.5</ele>
        <time>2020-06-26T18:37:09Z</time>
      </trkpt>
      <trkpt lat="49.36762" lon="6.65863">
        <ele>187.5</ele>
        <time>2020-06-26T18:37:10Z</time>
      </trkpt>
      <trkpt lat="49.36763" lon="6.65863">
        <ele>187.5</ele>
        <time>2020-06-26T18:37:11Z</time>
      </trkpt>
      <trkpt lat="49.36763" lon="6.65862">
        <ele>187.5</ele>
        <time>2020-06-26T18:37:12Z</time>
      </trkpt>
      <trkpt lat="49.36763" lon="6.65862">
        <ele>187.5</ele>
        <time>2020-06-26T18:37:13Z</time>
      </trkpt>
      <trkpt lat="49.36764" lon="6.65862">
        <ele>187.5</ele>
        <time>2020-06-26T18:37:14Z</time>
      </trkpt>
      <trkpt lat="49.36763" lon="6.65861">
        <ele>187.5</ele>
        <time>2020-06-26T18:37:15Z</time>
      </trkpt>
      <trkpt lat="49.36762" lon="6.6586">
        <ele>187.5</ele>
        <time>2020-06-26T18:37:16Z</time>
      </trkpt>
      <trkpt lat="49.36762" lon="6.6586">
        <ele>187.5</ele>
        <time>2020-06-26T18:37:17Z</time>
      </trkpt>
      <trkpt lat="49.36762" lon="6.6586">
        <ele>187.5</ele>
        <time>2020-06-26T18:37:18Z</time>
      </trkpt>
      <trkpt lat="49.36761" lon="6.6586">
        <ele>187.5</ele>
        <time>2020-06-26T18:37:19Z</time>
      </trkpt>
      <trkpt lat="49.36761" lon="6.6586">
        <ele>187.5</ele>
        <time>2020-06-26T18:37:20Z</time>
      </trkpt>
      <trkpt lat="49.36762" lon="6.65859">
        <ele>187.5</ele>
        <time>2020-06-26T18:37:21Z</time>
      </trkpt>
      <trkpt lat="49.36763" lon="6.65858">
        <ele>187.5</ele>
        <time>2020-06-26T18:37:22Z</time>
      </trkpt>
      <trkpt lat="49.36764" lon="6.65857">
        <ele>187.5</ele>
        <time>2020-06-26T18:37:23Z</time>
      </trkpt>
      <trkpt lat="49.36763" lon="6.65856">
        <ele>187.5</ele>
        <time>2020-06-26T18:37:24Z</time>
      </trkpt>
      <trkpt lat="49.36763" lon="6.65855">
        <ele>187.5</ele>
        <time>2020-06-26T18:37:25Z</time>
      </trkpt>
      <trkpt lat="49.36763" lon="6.65854">
        <ele>187.5</ele>
        <time>2020-06-26T18:37:26Z</time>
      </trkpt>
      <trkpt lat="49.36762" lon="6.65852">
        <ele>187.5</ele>
        <time>2020-06-26T18:37:27Z</time>
      </trkpt>
      <trkpt lat="49.36762" lon="6.65851">
        <ele>187.5</ele>
        <time>2020-06-26T18:37:28Z</time>
      </trkpt>
      <trkpt lat="49.36764" lon="6.65847">
        <ele>187.5</ele>
        <time>2020-06-26T18:37:29Z</time>
      </trkpt>
      <trkpt lat="49.36764" lon="6.65846">
        <ele>187.5</ele>
        <time>2020-06-26T18:37:30Z</time>
      </trkpt>
      <trkpt lat="49.36767" lon="6.65843">
        <ele>187.5</ele>
        <time>2020-06-26T18:37:31Z</time>
      </trkpt>
      <trkpt lat="49.36768" lon="6.65842">
        <ele>187.5</ele>
        <time>2020-06-26T18:37:32Z</time>
      </trkpt>
      <trkpt lat="49.36771" lon="6.65839">
        <ele>187.5</ele>
        <time>2020-06-26T18:37:33Z</time>
      </trkpt>
      <trkpt lat="49.36771" lon="6.65837">
        <ele>187.5</ele>
        <time>2020-06-26T18:37:34Z</time>
      </trkpt>
      <trkpt lat="49.36773" lon="6.65833">
        <ele>187.4</ele>
        <time>2020-06-26T18:37:35Z</time>
      </trkpt>
      <trkpt lat="49.36774" lon="6.65832">
        <ele>187.3</ele>
        <time>2020-06-26T18:37:36Z</time>
      </trkpt>
      <trkpt lat="49.36775" lon="6.65828">
        <ele>187.3</ele>
        <time>2020-06-26T18:37:37Z</time>
      </trkpt>
      <trkpt lat="49.36775" lon="6.65826">
        <ele>187.3</ele>
        <time>2020-06-26T18:37:38Z</time>
      </trkpt>
      <trkpt lat="49.36777" lon="6.65821">
        <ele>187.2</ele>
        <time>2020-06-26T18:37:39Z</time>
      </trkpt>
      <trkpt lat="49.36778" lon="6.6582">
        <ele>187.2</ele>
        <time>2020-06-26T18:37:40Z</time>
      </trkpt>
      <trkpt lat="49.36779" lon="6.65815">
        <ele>187.2</ele>
        <time>2020-06-26T18:37:41Z</time>
      </trkpt>
      <trkpt lat="49.3678" lon="6.65813">
        <ele>187.1</ele>
        <time>2020-06-26T18:37:42Z</time>
      </trkpt>
      <trkpt lat="49.3678" lon="6.65808">
        <ele>187.1</ele>
        <time>2020-06-26T18:37:43Z</time>
      </trkpt>
      <trkpt lat="49.36781" lon="6.65806">
        <ele>187.1</ele>
        <time>2020-06-26T18:37:44Z</time>
      </trkpt>
      <trkpt lat="49.36782" lon="6.65801">
        <ele>187</ele>
        <time>2020-06-26T18:37:45Z</time>
      </trkpt>
      <trkpt lat="49.36783" lon="6.65799">
        <ele>187</ele>
        <time>2020-06-26T18:37:46Z</time>
      </trkpt>
      <trkpt lat="49.36784" lon="6.65795">
        <ele>186.9</ele>
        <time>2020-06-26T18:37:47Z</time>
      </trkpt>
      <trkpt lat="49.36785" lon="6.6579">
        <ele>186.8</ele>
        <time>2020-06-26T18:37:48Z</time>
      </trkpt>
      <trkpt lat="49.36786" lon="6.65788">
        <ele>186.8</ele>
        <time>2020-06-26T18:37:49Z</time>
      </trkpt>
      <trkpt lat="49.36788" lon="6.65784">
        <ele>186.7</ele>
        <time>2020-06-26T18:37:50Z</time>
      </trkpt>
      <trkpt lat="49.36791" lon="6.65782">
        <ele>185.9</ele>
        <time>2020-06-26T18:37:51Z</time>
      </trkpt>
      <trkpt lat="49.36794" lon="6.65782">
        <ele>185.7</ele>
        <time>2020-06-26T18:37:52Z</time>
      </trkpt>
      <trkpt lat="49.36797" lon="6.65786">
        <ele>185.3</ele>
        <time>2020-06-26T18:37:53Z</time>
      </trkpt>
      <trkpt lat="49.36801" lon="6.6579">
        <ele>184.9</ele>
        <time>2020-06-26T18:37:54Z</time>
      </trkpt>
      <trkpt lat="49.36805" lon="6.65794">
        <ele>184.4</ele>
        <time>2020-06-26T18:37:55Z</time>
      </trkpt>
      <trkpt lat="49.36809" lon="6.65797">
        <ele>184</ele>
        <time>2020-06-26T18:37:56Z</time>
      </trkpt>
      <trkpt lat="49.36813" lon="6.65801">
        <ele>183.4</ele>
        <time>2020-06-26T18:37:57Z</time>
      </trkpt>
      <trkpt lat="49.36817" lon="6.65805">
        <ele>182.9</ele>
        <time>2020-06-26T18:37:58Z</time>
      </trkpt>
      <trkpt lat="49.36822" lon="6.6581">
        <ele>182.3</ele>
        <time>2020-06-26T18:37:59Z</time>
      </trkpt>
      <trkpt lat="49.36827" lon="6.65815">
        <ele>181.7</ele>
        <time>2020-06-26T18:38:00Z</time>
      </trkpt>
      <trkpt lat="49.36832" lon="6.6582">
        <ele>181.1</ele>
        <time>2020-06-26T18:38:01Z</time>
      </trkpt>
      <trkpt lat="49.36838" lon="6.65825">
        <ele>180.5</ele>
        <time>2020-06-26T18:38:02Z</time>
      </trkpt>
      <trkpt lat="49.36845" lon="6.65829">
        <ele>180</ele>
        <time>2020-06-26T18:38:03Z</time>
      </trkpt>
      <trkpt lat="49.36852" lon="6.65834">
        <ele>179.4</ele>
        <time>2020-06-26T18:38:04Z</time>
      </trkpt>
      <trkpt lat="49.36859" lon="6.6584">
        <ele>178.9</ele>
        <time>2020-06-26T18:38:05Z</time>
      </trkpt>
      <trkpt lat="49.36866" lon="6.65846">
        <ele>178.4</ele>
        <time>2020-06-26T18:38:06Z</time>
      </trkpt>
      <trkpt lat="49.36874" lon="6.65852">
        <ele>177.9</ele>
        <time>2020-06-26T18:38:07Z</time>
      </trkpt>
      <trkpt lat="49.36882" lon="6.65857">
        <ele>177.4</ele>
        <time>2020-06-26T18:38:08Z</time>
      </trkpt>
      <trkpt lat="49.36889" lon="6.65863">
        <ele>177.3</ele>
        <time>2020-06-26T18:38:09Z</time>
      </trkpt>
      <trkpt lat="49.36896" lon="6.65868">
        <ele>177.1</ele>
        <time>2020-06-26T18:38:10Z</time>
      </trkpt>
      <trkpt lat="49.36904" lon="6.65873">
        <ele>177.1</ele>
        <time>2020-06-26T18:38:11Z</time>
      </trkpt>
      <trkpt lat="49.36911" lon="6.65878">
        <ele>177</ele>
        <time>2020-06-26T18:38:12Z</time>
      </trkpt>
      <trkpt lat="49.36919" lon="6.65883">
        <ele>177.1</ele>
        <time>2020-06-26T18:38:13Z</time>
      </trkpt>
      <trkpt lat="49.36926" lon="6.65889">
        <ele>177.1</ele>
        <time>2020-06-26T18:38:14Z</time>
      </trkpt>
      <trkpt lat="49.36932" lon="6.65895">
        <ele>177.2</ele>
        <time>2020-06-26T18:38:15Z</time>
      </trkpt>
      <trkpt lat="49.36938" lon="6.659">
        <ele>177.3</ele>
        <time>2020-06-26T18:38:16Z</time>
      </trkpt>
      <trkpt lat="49.36944" lon="6.65906">
        <ele>177.5</ele>
        <time>2020-06-26T18:38:17Z</time>
      </trkpt>
      <trkpt lat="49.3695" lon="6.65909">
        <ele>177.6</ele>
        <time>2020-06-26T18:38:18Z</time>
      </trkpt>
      <trkpt lat="49.36955" lon="6.65913">
        <ele>177.8</ele>
        <time>2020-06-26T18:38:19Z</time>
      </trkpt>
      <trkpt lat="49.3696" lon="6.65917">
        <ele>177.9</ele>
        <time>2020-06-26T18:38:20Z</time>
      </trkpt>
      <trkpt lat="49.36966" lon="6.65921">
        <ele>178.1</ele>
        <time>2020-06-26T18:38:21Z</time>
      </trkpt>
      <trkpt lat="49.3697" lon="6.65925">
        <ele>178.2</ele>
        <time>2020-06-26T18:38:22Z</time>
      </trkpt>
      <trkpt lat="49.36975" lon="6.65928">
        <ele>178.3</ele>
        <time>2020-06-26T18:38:23Z</time>
      </trkpt>
      <trkpt lat="49.36979" lon="6.65932">
        <ele>178.5</ele>
        <time>2020-06-26T18:38:24Z</time>
      </trkpt>
      <trkpt lat="49.36984" lon="6.65936">
        <ele>178.6</ele>
        <time>2020-06-26T18:38:25Z</time>
      </trkpt>
      <trkpt lat="49.36989" lon="6.6594">
        <ele>178.8</ele>
        <time>2020-06-26T18:38:26Z</time>
      </trkpt>
      <trkpt lat="49.36994" lon="6.65944">
        <ele>179.1</ele>
        <time>2020-06-26T18:38:27Z</time>
      </trkpt>
      <trkpt lat="49.36999" lon="6.65949">
        <ele>179.3</ele>
        <time>2020-06-26T18:38:28Z</time>
      </trkpt>
      <trkpt lat="49.37004" lon="6.65953">
        <ele>179.5</ele>
        <time>2020-06-26T18:38:29Z</time>
      </trkpt>
      <trkpt lat="49.37007" lon="6.65958">
        <ele>179.6</ele>
        <time>2020-06-26T18:38:30Z</time>
      </trkpt>
      <trkpt lat="49.3701" lon="6.65964">
        <ele>179.7</ele>
        <time>2020-06-26T18:38:31Z</time>
      </trkpt>
      <trkpt lat="49.37011" lon="6.6597">
        <ele>179.9</ele>
        <time>2020-06-26T18:38:32Z</time>
      </trkpt>
      <trkpt lat="49.37012" lon="6.65975">
        <ele>180</ele>
        <time>2020-06-26T18:38:33Z</time>
      </trkpt>
      <trkpt lat="49.37012" lon="6.6598">
        <ele>180.1</ele>
        <time>2020-06-26T18:38:34Z</time>
      </trkpt>
      <trkpt lat="49.37011" lon="6.65987">
        <ele>180.2</ele>
        <time>2020-06-26T18:38:35Z</time>
      </trkpt>
      <trkpt lat="49.3701" lon="6.65993">
        <ele>180.3</ele>
        <time>2020-06-26T18:38:36Z</time>
      </trkpt>
      <trkpt lat="49.37009" lon="6.66">
        <ele>180.5</ele>
        <time>2020-06-26T18:38:37Z</time>
      </trkpt>
      <trkpt lat="49.37008" lon="6.66006">
        <ele>180.6</ele>
        <time>2020-06-26T18:38:38Z</time>
      </trkpt>
      <trkpt lat="49.37008" lon="6.66012">
        <ele>180.7</ele>
        <time>2020-06-26T18:38:39Z</time>
      </trkpt>
      <trkpt lat="49.37006" lon="6.66018">
        <ele>180.9</ele>
        <time>2020-06-26T18:38:40Z</time>
      </trkpt>
      <trkpt lat="49.37005" lon="6.66025">
        <ele>181</ele>
        <time>2020-06-26T18:38:41Z</time>
      </trkpt>
      <trkpt lat="49.37004" lon="6.6603">
        <ele>181.2</ele>
        <time>2020-06-26T18:38:42Z</time>
      </trkpt>
      <trkpt lat="49.37003" lon="6.66036">
        <ele>181.3</ele>
        <time>2020-06-26T18:38:43Z</time>
      </trkpt>
      <trkpt lat="49.37002" lon="6.66041">
        <ele>181.3</ele>
        <time>2020-06-26T18:38:44Z</time>
      </trkpt>
      <trkpt lat="49.37001" lon="6.66047">
        <ele>181.4</ele>
        <time>2020-06-26T18:38:45Z</time>
      </trkpt>
      <trkpt lat="49.36999" lon="6.66052">
        <ele>181.5</ele>
        <time>2020-06-26T18:38:46Z</time>
      </trkpt>
      <trkpt lat="49.36998" lon="6.66058">
        <ele>181.6</ele>
        <time>2020-06-26T18:38:47Z</time>
      </trkpt>
      <trkpt lat="49.36996" lon="6.66065">
        <ele>181.7</ele>
        <time>2020-06-26T18:38:48Z</time>
      </trkpt>
      <trkpt lat="49.36995" lon="6.66071">
        <ele>181.7</ele>
        <time>2020-06-26T18:38:49Z</time>
      </trkpt>
      <trkpt lat="49.36993" lon="6.66078">
        <ele>181.8</ele>
        <time>2020-06-26T18:38:50Z</time>
      </trkpt>
      <trkpt lat="49.36991" lon="6.66083">
        <ele>181.8</ele>
        <time>2020-06-26T18:38:51Z</time>
      </trkpt>
      <trkpt lat="49.36989" lon="6.66089">
        <ele>181.8</ele>
        <time>2020-06-26T18:38:52Z</time>
      </trkpt>
      <trkpt lat="49.36987" lon="6.66095">
        <ele>181.8</ele>
        <time>2020-06-26T18:38:53Z</time>
      </trkpt>
      <trkpt lat="49.36985" lon="6.66102">
        <ele>181.8</ele>
        <time>2020-06-26T18:38:54Z</time>
      </trkpt>
      <trkpt lat="49.36982" lon="6.66107">
        <ele>181.7</ele>
        <time>2020-06-26T18:38:55Z</time>
      </trkpt>
      <trkpt lat="49.36981" lon="6.66112">
        <ele>181.7</ele>
        <time>2020-06-26T18:38:56Z</time>
      </trkpt>
      <trkpt lat="49.36977" lon="6.66119">
        <ele>181.6</ele>
        <time>2020-06-26T18:38:57Z</time>
      </trkpt>
      <trkpt lat="49.36974" lon="6.66125">
        <ele>181.5</ele>
        <time>2020-06-26T18:38:58Z</time>
      </trkpt>
      <trkpt lat="49.36971" lon="6.66131">
        <ele>181.4</ele>
        <time>2020-06-26T18:38:59Z</time>
      </trkpt>
      <trkpt lat="49.36967" lon="6.66137">
        <ele>181.2</ele>
        <time>2020-06-26T18:39:00Z</time>
      </trkpt>
      <trkpt lat="49.36963" lon="6.66144">
        <ele>181.1</ele>
        <time>2020-06-26T18:39:01Z</time>
      </trkpt>
      <trkpt lat="49.36961" lon="6.66149">
        <ele>181.1</ele>
        <time>2020-06-26T18:39:02Z</time>
      </trkpt>
      <trkpt lat="49.36957" lon="6.66155">
        <ele>181</ele>
        <time>2020-06-26T18:39:03Z</time>
      </trkpt>
      <trkpt lat="49.36953" lon="6.66162">
        <ele>180.9</ele>
        <time>2020-06-26T18:39:04Z</time>
      </trkpt>
      <trkpt lat="49.3695" lon="6.66166">
        <ele>180.8</ele>
        <time>2020-06-26T18:39:05Z</time>
      </trkpt>
      <trkpt lat="49.36946" lon="6.66172">
        <ele>180.7</ele>
        <time>2020-06-26T18:39:06Z</time>
      </trkpt>
      <trkpt lat="49.36943" lon="6.66177">
        <ele>180.7</ele>
        <time>2020-06-26T18:39:07Z</time>
      </trkpt>
      <trkpt lat="49.36939" lon="6.66182">
        <ele>180.7</ele>
        <time>2020-06-26T18:39:08Z</time>
      </trkpt>
      <trkpt lat="49.36935" lon="6.66188">
        <ele>180.6</ele>
        <time>2020-06-26T18:39:09Z</time>
      </trkpt>
      <trkpt lat="49.3693" lon="6.66193">
        <ele>180.6</ele>
        <time>2020-06-26T18:39:10Z</time>
      </trkpt>
      <trkpt lat="49.36925" lon="6.66198">
        <ele>180.5</ele>
        <time>2020-06-26T18:39:11Z</time>
      </trkpt>
      <trkpt lat="49.3692" lon="6.66202">
        <ele>180.5</ele>
        <time>2020-06-26T18:39:12Z</time>
      </trkpt>
      <trkpt lat="49.36915" lon="6.66205">
        <ele>180.5</ele>
        <time>2020-06-26T18:39:13Z</time>
      </trkpt>
      <trkpt lat="49.36909" lon="6.66208">
        <ele>180.6</ele>
        <time>2020-06-26T18:39:14Z</time>
      </trkpt>
      <trkpt lat="49.36904" lon="6.66209">
        <ele>180.6</ele>
        <time>2020-06-26T18:39:15Z</time>
      </trkpt>
      <trkpt lat="49.36898" lon="6.66209">
        <ele>180.6</ele>
        <time>2020-06-26T18:39:16Z</time>
      </trkpt>
      <trkpt lat="49.36893" lon="6.6621">
        <ele>180.7</ele>
        <time>2020-06-26T18:39:17Z</time>
      </trkpt>
      <trkpt lat="49.36888" lon="6.66211">
        <ele>180.7</ele>
        <time>2020-06-26T18:39:18Z</time>
      </trkpt>
      <trkpt lat="49.36884" lon="6.66211">
        <ele>180.7</ele>
        <time>2020-06-26T18:39:19Z</time>
      </trkpt>
      <trkpt lat="49.36878" lon="6.66212">
        <ele>180.7</ele>
        <time>2020-06-26T18:39:20Z</time>
      </trkpt>
      <trkpt lat="49.36873" lon="6.66211">
        <ele>180.8</ele>
        <time>2020-06-26T18:39:21Z</time>
      </trkpt>
      <trkpt lat="49.36869" lon="6.6621">
        <ele>180.8</ele>
        <time>2020-06-26T18:39:22Z</time>
      </trkpt>
      <trkpt lat="49.36863" lon="6.66211">
        <ele>180.8</ele>
        <time>2020-06-26T18:39:23Z</time>
      </trkpt>
      <trkpt lat="49.36857" lon="6.66212">
        <ele>180.7</ele>
        <time>2020-06-26T18:39:24Z</time>
      </trkpt>
      <trkpt lat="49.36851" lon="6.66212">
        <ele>180.7</ele>
        <time>2020-06-26T18:39:25Z</time>
      </trkpt>
      <trkpt lat="49.36845" lon="6.66214">
        <ele>180.7</ele>
        <time>2020-06-26T18:39:26Z</time>
      </trkpt>
      <trkpt lat="49.3684" lon="6.66214">
        <ele>180.6</ele>
        <time>2020-06-26T18:39:27Z</time>
      </trkpt>
      <trkpt lat="49.36835" lon="6.66215">
        <ele>180.6</ele>
        <time>2020-06-26T18:39:28Z</time>
      </trkpt>
      <trkpt lat="49.36829" lon="6.66217">
        <ele>180.5</ele>
        <time>2020-06-26T18:39:29Z</time>
      </trkpt>
      <trkpt lat="49.36824" lon="6.6622">
        <ele>180.5</ele>
        <time>2020-06-26T18:39:30Z</time>
      </trkpt>
      <trkpt lat="49.36819" lon="6.66223">
        <ele>180.5</ele>
        <time>2020-06-26T18:39:31Z</time>
      </trkpt>
      <trkpt lat="49.36815" lon="6.66227">
        <ele>180.5</ele>
        <time>2020-06-26T18:39:32Z</time>
      </trkpt>
      <trkpt lat="49.36811" lon="6.66232">
        <ele>180.5</ele>
        <time>2020-06-26T18:39:33Z</time>
      </trkpt>
      <trkpt lat="49.36807" lon="6.66236">
        <ele>180.4</ele>
        <time>2020-06-26T18:39:34Z</time>
      </trkpt>
      <trkpt lat="49.36804" lon="6.66241">
        <ele>180.4</ele>
        <time>2020-06-26T18:39:35Z</time>
      </trkpt>
      <trkpt lat="49.36801" lon="6.66245">
        <ele>180.4</ele>
        <time>2020-06-26T18:39:36Z</time>
      </trkpt>
      <trkpt lat="49.36797" lon="6.66251">
        <ele>180.4</ele>
        <time>2020-06-26T18:39:37Z</time>
      </trkpt>
      <trkpt lat="49.36794" lon="6.66256">
        <ele>180.4</ele>
        <time>2020-06-26T18:39:38Z</time>
      </trkpt>
      <trkpt lat="49.36791" lon="6.66262">
        <ele>180.4</ele>
        <time>2020-06-26T18:39:39Z</time>
      </trkpt>
      <trkpt lat="49.36788" lon="6.66269">
        <ele>180.5</ele>
        <time>2020-06-26T18:39:40Z</time>
      </trkpt>
      <trkpt lat="49.36784" lon="6.66276">
        <ele>180.5</ele>
        <time>2020-06-26T18:39:41Z</time>
      </trkpt>
      <trkpt lat="49.36781" lon="6.66283">
        <ele>180.6</ele>
        <time>2020-06-26T18:39:42Z</time>
      </trkpt>
      <trkpt lat="49.36778" lon="6.66289">
        <ele>180.7</ele>
        <time>2020-06-26T18:39:43Z</time>
      </trkpt>
      <trkpt lat="49.36775" lon="6.66295">
        <ele>180.8</ele>
        <time>2020-06-26T18:39:44Z</time>
      </trkpt>
      <trkpt lat="49.36772" lon="6.66303">
        <ele>180.9</ele>
        <time>2020-06-26T18:39:45Z</time>
      </trkpt>
      <trkpt lat="49.36769" lon="6.66309">
        <ele>181</ele>
        <time>2020-06-26T18:39:46Z</time>
      </trkpt>
      <trkpt lat="49.36767" lon="6.66316">
        <ele>181.1</ele>
        <time>2020-06-26T18:39:47Z</time>
      </trkpt>
      <trkpt lat="49.36764" lon="6.66322">
        <ele>181.2</ele>
        <time>2020-06-26T18:39:48Z</time>
      </trkpt>
      <trkpt lat="49.36762" lon="6.66329">
        <ele>181.3</ele>
        <time>2020-06-26T18:39:49Z</time>
      </trkpt>
      <trkpt lat="49.3676" lon="6.66334">
        <ele>181.4</ele>
        <time>2020-06-26T18:39:50Z</time>
      </trkpt>
      <trkpt lat="49.36757" lon="6.66341">
        <ele>181.5</ele>
        <time>2020-06-26T18:39:51Z</time>
      </trkpt>
      <trkpt lat="49.36755" lon="6.66348">
        <ele>181.5</ele>
        <time>2020-06-26T18:39:52Z</time>
      </trkpt>
      <trkpt lat="49.36753" lon="6.66353">
        <ele>181.5</ele>
        <time>2020-06-26T18:39:53Z</time>
      </trkpt>
      <trkpt lat="49.3675" lon="6.6636">
        <ele>181.6</ele>
        <time>2020-06-26T18:39:54Z</time>
      </trkpt>
      <trkpt lat="49.36748" lon="6.66365">
        <ele>181.6</ele>
        <time>2020-06-26T18:39:55Z</time>
      </trkpt>
      <trkpt lat="49.36746" lon="6.66372">
        <ele>181.5</ele>
        <time>2020-06-26T18:39:56Z</time>
      </trkpt>
      <trkpt lat="49.36744" lon="6.66377">
        <ele>181.5</ele>
        <time>2020-06-26T18:39:57Z</time>
      </trkpt>
      <trkpt lat="49.36741" lon="6.66383">
        <ele>181.5</ele>
        <time>2020-06-26T18:39:58Z</time>
      </trkpt>
      <trkpt lat="49.36739" lon="6.66388">
        <ele>181.5</ele>
        <time>2020-06-26T18:39:59Z</time>
      </trkpt>
      <trkpt lat="49.36738" lon="6.66394">
        <ele>181.5</ele>
        <time>2020-06-26T18:40:00Z</time>
      </trkpt>
      <trkpt lat="49.36735" lon="6.664">
        <ele>181.5</ele>
        <time>2020-06-26T18:40:01Z</time>
      </trkpt>
      <trkpt lat="49.36733" lon="6.66406">
        <ele>181.6</ele>
        <time>2020-06-26T18:40:02Z</time>
      </trkpt>
      <trkpt lat="49.3673" lon="6.66413">
        <ele>181.6</ele>
        <time>2020-06-26T18:40:03Z</time>
      </trkpt>
      <trkpt lat="49.36727" lon="6.66418">
        <ele>181.6</ele>
        <time>2020-06-26T18:40:04Z</time>
      </trkpt>
      <trkpt lat="49.36723" lon="6.66424">
        <ele>181.6</ele>
        <time>2020-06-26T18:40:05Z</time>
      </trkpt>
      <trkpt lat="49.36719" lon="6.66429">
        <ele>181.6</ele>
        <time>2020-06-26T18:40:06Z</time>
      </trkpt>
      <trkpt lat="49.36715" lon="6.66434">
        <ele>181.6</ele>
        <time>2020-06-26T18:40:07Z</time>
      </trkpt>
      <trkpt lat="49.3671" lon="6.6644">
        <ele>181.6</ele>
        <time>2020-06-26T18:40:08Z</time>
      </trkpt>
      <trkpt lat="49.36705" lon="6.66445">
        <ele>181.6</ele>
        <time>2020-06-26T18:40:09Z</time>
      </trkpt>
      <trkpt lat="49.36701" lon="6.66449">
        <ele>181.7</ele>
        <time>2020-06-26T18:40:10Z</time>
      </trkpt>
      <trkpt lat="49.36695" lon="6.66452">
        <ele>181.7</ele>
        <time>2020-06-26T18:40:11Z</time>
      </trkpt>
      <trkpt lat="49.36691" lon="6.66455">
        <ele>181.8</ele>
        <time>2020-06-26T18:40:12Z</time>
      </trkpt>
      <trkpt lat="49.36686" lon="6.66459">
        <ele>181.8</ele>
        <time>2020-06-26T18:40:13Z</time>
      </trkpt>
      <trkpt lat="49.36682" lon="6.66462">
        <ele>181.9</ele>
        <time>2020-06-26T18:40:14Z</time>
      </trkpt>
      <trkpt lat="49.36676" lon="6.66466">
        <ele>182</ele>
        <time>2020-06-26T18:40:15Z</time>
      </trkpt>
      <trkpt lat="49.36672" lon="6.66469">
        <ele>182</ele>
        <time>2020-06-26T18:40:16Z</time>
      </trkpt>
      <trkpt lat="49.36667" lon="6.66472">
        <ele>182.1</ele>
        <time>2020-06-26T18:40:17Z</time>
      </trkpt>
      <trkpt lat="49.36663" lon="6.66475">
        <ele>182.2</ele>
        <time>2020-06-26T18:40:18Z</time>
      </trkpt>
      <trkpt lat="49.36657" lon="6.66479">
        <ele>182.3</ele>
        <time>2020-06-26T18:40:19Z</time>
      </trkpt>
      <trkpt lat="49.36653" lon="6.66482">
        <ele>182.4</ele>
        <time>2020-06-26T18:40:20Z</time>
      </trkpt>
      <trkpt lat="49.36648" lon="6.66485">
        <ele>182.6</ele>
        <time>2020-06-26T18:40:21Z</time>
      </trkpt>
      <trkpt lat="49.36643" lon="6.66489">
        <ele>182.7</ele>
        <time>2020-06-26T18:40:22Z</time>
      </trkpt>
      <trkpt lat="49.36639" lon="6.66491">
        <ele>182.8</ele>
        <time>2020-06-26T18:40:23Z</time>
      </trkpt>
      <trkpt lat="49.36635" lon="6.66494">
        <ele>182.9</ele>
        <time>2020-06-26T18:40:24Z</time>
      </trkpt>
      <trkpt lat="49.36632" lon="6.66496">
        <ele>183</ele>
        <time>2020-06-26T18:40:25Z</time>
      </trkpt>
      <trkpt lat="49.36628" lon="6.665">
        <ele>183.2</ele>
        <time>2020-06-26T18:40:26Z</time>
      </trkpt>
      <trkpt lat="49.36624" lon="6.66502">
        <ele>183.3</ele>
        <time>2020-06-26T18:40:27Z</time>
      </trkpt>
      <trkpt lat="49.3662" lon="6.66505">
        <ele>183.4</ele>
        <time>2020-06-26T18:40:28Z</time>
      </trkpt>
      <trkpt lat="49.36616" lon="6.66508">
        <ele>183.5</ele>
        <time>2020-06-26T18:40:29Z</time>
      </trkpt>
      <trkpt lat="49.36614" lon="6.66511">
        <ele>183.6</ele>
        <time>2020-06-26T18:40:30Z</time>
      </trkpt>
      <trkpt lat="49.3661" lon="6.66514">
        <ele>183.8</ele>
        <time>2020-06-26T18:40:31Z</time>
      </trkpt>
      <trkpt lat="49.36606" lon="6.66517">
        <ele>183.9</ele>
        <time>2020-06-26T18:40:32Z</time>
      </trkpt>
      <trkpt lat="49.36602" lon="6.66519">
        <ele>184</ele>
        <time>2020-06-26T18:40:33Z</time>
      </trkpt>
      <trkpt lat="49.36598" lon="6.66522">
        <ele>184.2</ele>
        <time>2020-06-26T18:40:34Z</time>
      </trkpt>
      <trkpt lat="49.36595" lon="6.66525">
        <ele>184.3</ele>
        <time>2020-06-26T18:40:35Z</time>
      </trkpt>
      <trkpt lat="49.36592" lon="6.66529">
        <ele>184.4</ele>
        <time>2020-06-26T18:40:36Z</time>
      </trkpt>
      <trkpt lat="49.36588" lon="6.66534">
        <ele>184.5</ele>
        <time>2020-06-26T18:40:37Z</time>
      </trkpt>
      <trkpt lat="49.36584" lon="6.66538">
        <ele>184.6</ele>
        <time>2020-06-26T18:40:38Z</time>
      </trkpt>
      <trkpt lat="49.3658" lon="6.66543">
        <ele>184.6</ele>
        <time>2020-06-26T18:40:39Z</time>
      </trkpt>
      <trkpt lat="49.36578" lon="6.66547">
        <ele>184.9</ele>
        <time>2020-06-26T18:40:40Z</time>
      </trkpt>
      <trkpt lat="49.36575" lon="6.6655">
        <ele>185.1</ele>
        <time>2020-06-26T18:40:41Z</time>
      </trkpt>
      <trkpt lat="49.36573" lon="6.66554">
        <ele>185.3</ele>
        <time>2020-06-26T18:40:42Z</time>
      </trkpt>
      <trkpt lat="49.3657" lon="6.66559">
        <ele>185.6</ele>
        <time>2020-06-26T18:40:43Z</time>
      </trkpt>
      <trkpt lat="49.36569" lon="6.66562">
        <ele>185.7</ele>
        <time>2020-06-26T18:40:44Z</time>
      </trkpt>
      <trkpt lat="49.36567" lon="6.66566">
        <ele>185.9</ele>
        <time>2020-06-26T18:40:45Z</time>
      </trkpt>
      <trkpt lat="49.36565" lon="6.6657">
        <ele>186.1</ele>
        <time>2020-06-26T18:40:46Z</time>
      </trkpt>
      <trkpt lat="49.36562" lon="6.66575">
        <ele>186.4</ele>
        <time>2020-06-26T18:40:47Z</time>
      </trkpt>
      <trkpt lat="49.3656" lon="6.66579">
        <ele>186.5</ele>
        <time>2020-06-26T18:40:48Z</time>
      </trkpt>
      <trkpt lat="49.36558" lon="6.66583">
        <ele>186.8</ele>
        <time>2020-06-26T18:40:49Z</time>
      </trkpt>
      <trkpt lat="49.36555" lon="6.66587">
        <ele>187</ele>
        <time>2020-06-26T18:40:50Z</time>
      </trkpt>
      <trkpt lat="49.36554" lon="6.6659">
        <ele>187.1</ele>
        <time>2020-06-26T18:40:51Z</time>
      </trkpt>
      <trkpt lat="49.36552" lon="6.66594">
        <ele>187.4</ele>
        <time>2020-06-26T18:40:52Z</time>
      </trkpt>
      <trkpt lat="49.3655" lon="6.66598">
        <ele>187.5</ele>
        <time>2020-06-26T18:40:53Z</time>
      </trkpt>
      <trkpt lat="49.36548" lon="6.66603">
        <ele>187.8</ele>
        <time>2020-06-26T18:40:54Z</time>
      </trkpt>
      <trkpt lat="49.36546" lon="6.66607">
        <ele>188</ele>
        <time>2020-06-26T18:40:55Z</time>
      </trkpt>
      <trkpt lat="49.36545" lon="6.66613">
        <ele>188.2</ele>
        <time>2020-06-26T18:40:56Z</time>
      </trkpt>
      <trkpt lat="49.36543" lon="6.66617">
        <ele>188.5</ele>
        <time>2020-06-26T18:40:57Z</time>
      </trkpt>
      <trkpt lat="49.36542" lon="6.66623">
        <ele>188.7</ele>
        <time>2020-06-26T18:40:58Z</time>
      </trkpt>
      <trkpt lat="49.3654" lon="6.66629">
        <ele>189.1</ele>
        <time>2020-06-26T18:40:59Z</time>
      </trkpt>
      <trkpt lat="49.36539" lon="6.66632">
        <ele>189.2</ele>
        <time>2020-06-26T18:41:00Z</time>
      </trkpt>
      <trkpt lat="49.36538" lon="6.66639">
        <ele>189.5</ele>
        <time>2020-06-26T18:41:01Z</time>
      </trkpt>
      <trkpt lat="49.36537" lon="6.66645">
        <ele>189.8</ele>
        <time>2020-06-26T18:41:02Z</time>
      </trkpt>
      <trkpt lat="49.36536" lon="6.66649">
        <ele>190</ele>
        <time>2020-06-26T18:41:03Z</time>
      </trkpt>
      <trkpt lat="49.36535" lon="6.66656">
        <ele>190.3</ele>
        <time>2020-06-26T18:41:04Z</time>
      </trkpt>
      <trkpt lat="49.36535" lon="6.66661">
        <ele>190.5</ele>
        <time>2020-06-26T18:41:05Z</time>
      </trkpt>
      <trkpt lat="49.36534" lon="6.66666">
        <ele>190.7</ele>
        <time>2020-06-26T18:41:06Z</time>
      </trkpt>
      <trkpt lat="49.36534" lon="6.66672">
        <ele>191</ele>
        <time>2020-06-26T18:41:07Z</time>
      </trkpt>
      <trkpt lat="49.36534" lon="6.66678">
        <ele>191.3</ele>
        <time>2020-06-26T18:41:08Z</time>
      </trkpt>
      <trkpt lat="49.36535" lon="6.66684">
        <ele>191.5</ele>
        <time>2020-06-26T18:41:09Z</time>
      </trkpt>
      <trkpt lat="49.36535" lon="6.6669">
        <ele>191.8</ele>
        <time>2020-06-26T18:41:10Z</time>
      </trkpt>
      <trkpt lat="49.36534" lon="6.66696">
        <ele>192.1</ele>
        <time>2020-06-26T18:41:11Z</time>
      </trkpt>
      <trkpt lat="49.36534" lon="6.66699">
        <ele>192.2</ele>
        <time>2020-06-26T18:41:12Z</time>
      </trkpt>
      <trkpt lat="49.36534" lon="6.66705">
        <ele>192.5</ele>
        <time>2020-06-26T18:41:13Z</time>
      </trkpt>
      <trkpt lat="49.36535" lon="6.66708">
        <ele>192.6</ele>
        <time>2020-06-26T18:41:14Z</time>
      </trkpt>
      <trkpt lat="49.36535" lon="6.66712">
        <ele>192.8</ele>
        <time>2020-06-26T18:41:15Z</time>
      </trkpt>
      <trkpt lat="49.36535" lon="6.66717">
        <ele>193</ele>
        <time>2020-06-26T18:41:16Z</time>
      </trkpt>
      <trkpt lat="49.36534" lon="6.66722">
        <ele>193.2</ele>
        <time>2020-06-26T18:41:17Z</time>
      </trkpt>
      <trkpt lat="49.36533" lon="6.66729">
        <ele>193.5</ele>
        <time>2020-06-26T18:41:18Z</time>
      </trkpt>
      <trkpt lat="49.36532" lon="6.66733">
        <ele>193.7</ele>
        <time>2020-06-26T18:41:19Z</time>
      </trkpt>
      <trkpt lat="49.36531" lon="6.66739">
        <ele>193.9</ele>
        <time>2020-06-26T18:41:20Z</time>
      </trkpt>
      <trkpt lat="49.36531" lon="6.66744">
        <ele>194.1</ele>
        <time>2020-06-26T18:41:21Z</time>
      </trkpt>
      <trkpt lat="49.36531" lon="6.6675">
        <ele>194.3</ele>
        <time>2020-06-26T18:41:22Z</time>
      </trkpt>
      <trkpt lat="49.36531" lon="6.66754">
        <ele>194.5</ele>
        <time>2020-06-26T18:41:23Z</time>
      </trkpt>
      <trkpt lat="49.36531" lon="6.6676">
        <ele>194.8</ele>
        <time>2020-06-26T18:41:24Z</time>
      </trkpt>
      <trkpt lat="49.3653" lon="6.66764">
        <ele>195</ele>
        <time>2020-06-26T18:41:25Z</time>
      </trkpt>
      <trkpt lat="49.3653" lon="6.66768">
        <ele>195.3</ele>
        <time>2020-06-26T18:41:26Z</time>
      </trkpt>
      <trkpt lat="49.36529" lon="6.66773">
        <ele>195.6</ele>
        <time>2020-06-26T18:41:27Z</time>
      </trkpt>
      <trkpt lat="49.36527" lon="6.66777">
        <ele>195.9</ele>
        <time>2020-06-26T18:41:28Z</time>
      </trkpt>
      <trkpt lat="49.36525" lon="6.66781">
        <ele>196.1</ele>
        <time>2020-06-26T18:41:29Z</time>
      </trkpt>
      <trkpt lat="49.36523" lon="6.66783">
        <ele>196.4</ele>
        <time>2020-06-26T18:41:30Z</time>
      </trkpt>
      <trkpt lat="49.3652" lon="6.66784">
        <ele>196.6</ele>
        <time>2020-06-26T18:41:31Z</time>
      </trkpt>
      <trkpt lat="49.36517" lon="6.66785">
        <ele>196.8</ele>
        <time>2020-06-26T18:41:32Z</time>
      </trkpt>
      <trkpt lat="49.36514" lon="6.66786">
        <ele>197.1</ele>
        <time>2020-06-26T18:41:33Z</time>
      </trkpt>
      <trkpt lat="49.36512" lon="6.66786">
        <ele>197.4</ele>
        <time>2020-06-26T18:41:34Z</time>
      </trkpt>
      <trkpt lat="49.36509" lon="6.66787">
        <ele>197.5</ele>
        <time>2020-06-26T18:41:35Z</time>
      </trkpt>
      <trkpt lat="49.36508" lon="6.66787">
        <ele>197.5</ele>
        <time>2020-06-26T18:41:36Z</time>
      </trkpt>
      <trkpt lat="49.36504" lon="6.66787">
        <ele>197.6</ele>
        <time>2020-06-26T18:41:37Z</time>
      </trkpt>
      <trkpt lat="49.36503" lon="6.66787">
        <ele>197.6</ele>
        <time>2020-06-26T18:41:38Z</time>
      </trkpt>
      <trkpt lat="49.36499" lon="6.66789">
        <ele>197.6</ele>
        <time>2020-06-26T18:41:39Z</time>
      </trkpt>
      <trkpt lat="49.36497" lon="6.66791">
        <ele>197.7</ele>
        <time>2020-06-26T18:41:40Z</time>
      </trkpt>
      <trkpt lat="49.36496" lon="6.66793">
        <ele>197.7</ele>
        <time>2020-06-26T18:41:41Z</time>
      </trkpt>
      <trkpt lat="49.36494" lon="6.66799">
        <ele>197.7</ele>
        <time>2020-06-26T18:41:42Z</time>
      </trkpt>
      <trkpt lat="49.36494" lon="6.66805">
        <ele>197.8</ele>
        <time>2020-06-26T18:41:43Z</time>
      </trkpt>
      <trkpt lat="49.36494" lon="6.66809">
        <ele>197.8</ele>
        <time>2020-06-26T18:41:44Z</time>
      </trkpt>
      <trkpt lat="49.36495" lon="6.66813">
        <ele>197.8</ele>
        <time>2020-06-26T18:41:45Z</time>
      </trkpt>
      <trkpt lat="49.36498" lon="6.66818">
        <ele>197.8</ele>
        <time>2020-06-26T18:41:46Z</time>
      </trkpt>
      <trkpt lat="49.36499" lon="6.66819">
        <ele>197.8</ele>
        <time>2020-06-26T18:41:47Z</time>
      </trkpt>
      <trkpt lat="49.36501" lon="6.66823">
        <ele>197.8</ele>
        <time>2020-06-26T18:41:48Z</time>
      </trkpt>
      <trkpt lat="49.36502" lon="6.66828">
        <ele>197.8</ele>
        <time>2020-06-26T18:41:49Z</time>
      </trkpt>
      <trkpt lat="49.36504" lon="6.66833">
        <ele>197.9</ele>
        <time>2020-06-26T18:41:50Z</time>
      </trkpt>
      <trkpt lat="49.36505" lon="6.66837">
        <ele>197.9</ele>
        <time>2020-06-26T18:41:51Z</time>
      </trkpt>
      <trkpt lat="49.36506" lon="6.66843">
        <ele>198.2</ele>
        <time>2020-06-26T18:41:52Z</time>
      </trkpt>
      <trkpt lat="49.36507" lon="6.66851">
        <ele>198.3</ele>
        <time>2020-06-26T18:41:53Z</time>
      </trkpt>
      <trkpt lat="49.36507" lon="6.66859">
        <ele>198.5</ele>
        <time>2020-06-26T18:41:54Z</time>
      </trkpt>
      <trkpt lat="49.36506" lon="6.66866">
        <ele>198.5</ele>
        <time>2020-06-26T18:41:55Z</time>
      </trkpt>
      <trkpt lat="49.36505" lon="6.66872">
        <ele>198.5</ele>
        <time>2020-06-26T18:41:56Z</time>
      </trkpt>
      <trkpt lat="49.36505" lon="6.66878">
        <ele>198.5</ele>
        <time>2020-06-26T18:41:57Z</time>
      </trkpt>
      <trkpt lat="49.36504" lon="6.66883">
        <ele>198.5</ele>
        <time>2020-06-26T18:41:58Z</time>
      </trkpt>
      <trkpt lat="49.36503" lon="6.66887">
        <ele>198.5</ele>
        <time>2020-06-26T18:41:59Z</time>
      </trkpt>
      <trkpt lat="49.36503" lon="6.66891">
        <ele>198.5</ele>
        <time>2020-06-26T18:42:00Z</time>
      </trkpt>
      <trkpt lat="49.36502" lon="6.66897">
        <ele>198.6</ele>
        <time>2020-06-26T18:42:01Z</time>
      </trkpt>
      <trkpt lat="49.36501" lon="6.66904">
        <ele>198.7</ele>
        <time>2020-06-26T18:42:02Z</time>
      </trkpt>
      <trkpt lat="49.36501" lon="6.66909">
        <ele>198.8</ele>
        <time>2020-06-26T18:42:03Z</time>
      </trkpt>
      <trkpt lat="49.36501" lon="6.66915">
        <ele>198.9</ele>
        <time>2020-06-26T18:42:04Z</time>
      </trkpt>
      <trkpt lat="49.36501" lon="6.6692">
        <ele>198.9</ele>
        <time>2020-06-26T18:42:05Z</time>
      </trkpt>
      <trkpt lat="49.365" lon="6.66926">
        <ele>199.1</ele>
        <time>2020-06-26T18:42:06Z</time>
      </trkpt>
      <trkpt lat="49.36499" lon="6.66933">
        <ele>199.2</ele>
        <time>2020-06-26T18:42:07Z</time>
      </trkpt>
      <trkpt lat="49.36499" lon="6.66939">
        <ele>199.3</ele>
        <time>2020-06-26T18:42:08Z</time>
      </trkpt>
      <trkpt lat="49.36498" lon="6.66945">
        <ele>199.4</ele>
        <time>2020-06-26T18:42:09Z</time>
      </trkpt>
      <trkpt lat="49.36497" lon="6.66952">
        <ele>199.6</ele>
        <time>2020-06-26T18:42:10Z</time>
      </trkpt>
      <trkpt lat="49.36497" lon="6.66959">
        <ele>199.8</ele>
        <time>2020-06-26T18:42:11Z</time>
      </trkpt>
      <trkpt lat="49.36496" lon="6.66964">
        <ele>199.9</ele>
        <time>2020-06-26T18:42:12Z</time>
      </trkpt>
      <trkpt lat="49.36496" lon="6.6697">
        <ele>200.1</ele>
        <time>2020-06-26T18:42:13Z</time>
      </trkpt>
      <trkpt lat="49.36495" lon="6.66976">
        <ele>200.2</ele>
        <time>2020-06-26T18:42:14Z</time>
      </trkpt>
      <trkpt lat="49.36495" lon="6.66983">
        <ele>200.4</ele>
        <time>2020-06-26T18:42:15Z</time>
      </trkpt>
      <trkpt lat="49.36494" lon="6.66989">
        <ele>200.5</ele>
        <time>2020-06-26T18:42:16Z</time>
      </trkpt>
      <trkpt lat="49.36494" lon="6.66995">
        <ele>200.6</ele>
        <time>2020-06-26T18:42:17Z</time>
      </trkpt>
      <trkpt lat="49.36494" lon="6.67001">
        <ele>200.8</ele>
        <time>2020-06-26T18:42:18Z</time>
      </trkpt>
      <trkpt lat="49.36494" lon="6.67009">
        <ele>200.9</ele>
        <time>2020-06-26T18:42:19Z</time>
      </trkpt>
      <trkpt lat="49.36493" lon="6.67015">
        <ele>201.1</ele>
        <time>2020-06-26T18:42:20Z</time>
      </trkpt>
      <trkpt lat="49.36493" lon="6.67022">
        <ele>201.2</ele>
        <time>2020-06-26T18:42:21Z</time>
      </trkpt>
      <trkpt lat="49.36493" lon="6.67028">
        <ele>201.4</ele>
        <time>2020-06-26T18:42:22Z</time>
      </trkpt>
      <trkpt lat="49.36493" lon="6.67036">
        <ele>201.6</ele>
        <time>2020-06-26T18:42:23Z</time>
      </trkpt>
      <trkpt lat="49.36493" lon="6.67043">
        <ele>201.7</ele>
        <time>2020-06-26T18:42:24Z</time>
      </trkpt>
      <trkpt lat="49.36493" lon="6.67048">
        <ele>201.9</ele>
        <time>2020-06-26T18:42:25Z</time>
      </trkpt>
      <trkpt lat="49.36493" lon="6.67056">
        <ele>202</ele>
        <time>2020-06-26T18:42:26Z</time>
      </trkpt>
      <trkpt lat="49.36492" lon="6.67062">
        <ele>202.2</ele>
        <time>2020-06-26T18:42:27Z</time>
      </trkpt>
      <trkpt lat="49.36491" lon="6.67069">
        <ele>202.3</ele>
        <time>2020-06-26T18:42:28Z</time>
      </trkpt>
      <trkpt lat="49.36491" lon="6.67073">
        <ele>202.4</ele>
        <time>2020-06-26T18:42:29Z</time>
      </trkpt>
      <trkpt lat="49.36491" lon="6.6708">
        <ele>202.6</ele>
        <time>2020-06-26T18:42:30Z</time>
      </trkpt>
      <trkpt lat="49.36491" lon="6.67087">
        <ele>202.7</ele>
        <time>2020-06-26T18:42:31Z</time>
      </trkpt>
      <trkpt lat="49.36491" lon="6.6709">
        <ele>202.8</ele>
        <time>2020-06-26T18:42:32Z</time>
      </trkpt>
      <trkpt lat="49.36491" lon="6.67095">
        <ele>202.9</ele>
        <time>2020-06-26T18:42:33Z</time>
      </trkpt>
      <trkpt lat="49.36491" lon="6.67101">
        <ele>203.1</ele>
        <time>2020-06-26T18:42:34Z</time>
      </trkpt>
      <trkpt lat="49.36491" lon="6.67107">
        <ele>203.2</ele>
        <time>2020-06-26T18:42:35Z</time>
      </trkpt>
      <trkpt lat="49.3649" lon="6.67114">
        <ele>203.3</ele>
        <time>2020-06-26T18:42:36Z</time>
      </trkpt>
      <trkpt lat="49.3649" lon="6.6712">
        <ele>203.5</ele>
        <time>2020-06-26T18:42:37Z</time>
      </trkpt>
      <trkpt lat="49.36489" lon="6.67127">
        <ele>203.6</ele>
        <time>2020-06-26T18:42:38Z</time>
      </trkpt>
      <trkpt lat="49.36489" lon="6.67132">
        <ele>203.6</ele>
        <time>2020-06-26T18:42:39Z</time>
      </trkpt>
      <trkpt lat="49.36489" lon="6.67139">
        <ele>203.7</ele>
        <time>2020-06-26T18:42:40Z</time>
      </trkpt>
      <trkpt lat="49.36489" lon="6.67144">
        <ele>203.9</ele>
        <time>2020-06-26T18:42:41Z</time>
      </trkpt>
      <trkpt lat="49.36489" lon="6.6715">
        <ele>204</ele>
        <time>2020-06-26T18:42:42Z</time>
      </trkpt>
      <trkpt lat="49.36489" lon="6.67155">
        <ele>204.2</ele>
        <time>2020-06-26T18:42:43Z</time>
      </trkpt>
      <trkpt lat="49.36489" lon="6.67161">
        <ele>204.3</ele>
        <time>2020-06-26T18:42:44Z</time>
      </trkpt>
      <trkpt lat="49.36489" lon="6.67166">
        <ele>204.5</ele>
        <time>2020-06-26T18:42:45Z</time>
      </trkpt>
      <trkpt lat="49.36489" lon="6.67171">
        <ele>204.6</ele>
        <time>2020-06-26T18:42:46Z</time>
      </trkpt>
      <trkpt lat="49.36489" lon="6.67176">
        <ele>204.7</ele>
        <time>2020-06-26T18:42:47Z</time>
      </trkpt>
      <trkpt lat="49.36488" lon="6.67183">
        <ele>204.9</ele>
        <time>2020-06-26T18:42:48Z</time>
      </trkpt>
      <trkpt lat="49.36488" lon="6.6719">
        <ele>205</ele>
        <time>2020-06-26T18:42:49Z</time>
      </trkpt>
      <trkpt lat="49.36488" lon="6.67196">
        <ele>205.1</ele>
        <time>2020-06-26T18:42:50Z</time>
      </trkpt>
      <trkpt lat="49.36488" lon="6.67203">
        <ele>205.2</ele>
        <time>2020-06-26T18:42:51Z</time>
      </trkpt>
      <trkpt lat="49.36488" lon="6.67206">
        <ele>205.3</ele>
        <time>2020-06-26T18:42:52Z</time>
      </trkpt>
      <trkpt lat="49.36488" lon="6.6721">
        <ele>205.4</ele>
        <time>2020-06-26T18:42:53Z</time>
      </trkpt>
      <trkpt lat="49.36488" lon="6.67215">
        <ele>205.5</ele>
        <time>2020-06-26T18:42:54Z</time>
      </trkpt>
      <trkpt lat="49.36488" lon="6.67224">
        <ele>205.7</ele>
        <time>2020-06-26T18:42:55Z</time>
      </trkpt>
      <trkpt lat="49.36487" lon="6.6723">
        <ele>205.8</ele>
        <time>2020-06-26T18:42:56Z</time>
      </trkpt>
      <trkpt lat="49.36487" lon="6.67236">
        <ele>205.9</ele>
        <time>2020-06-26T18:42:57Z</time>
      </trkpt>
      <trkpt lat="49.36487" lon="6.67242">
        <ele>206</ele>
        <time>2020-06-26T18:42:58Z</time>
      </trkpt>
      <trkpt lat="49.36487" lon="6.67249">
        <ele>206.1</ele>
        <time>2020-06-26T18:42:59Z</time>
      </trkpt>
      <trkpt lat="49.36487" lon="6.67255">
        <ele>206.2</ele>
        <time>2020-06-26T18:43:00Z</time>
      </trkpt>
      <trkpt lat="49.36487" lon="6.67262">
        <ele>206.3</ele>
        <time>2020-06-26T18:43:01Z</time>
      </trkpt>
      <trkpt lat="49.36487" lon="6.67269">
        <ele>206.4</ele>
        <time>2020-06-26T18:43:02Z</time>
      </trkpt>
      <trkpt lat="49.36487" lon="6.67275">
        <ele>206.5</ele>
        <time>2020-06-26T18:43:03Z</time>
      </trkpt>
      <trkpt lat="49.36487" lon="6.67281">
        <ele>206.6</ele>
        <time>2020-06-26T18:43:04Z</time>
      </trkpt>
      <trkpt lat="49.36487" lon="6.67286">
        <ele>206.7</ele>
        <time>2020-06-26T18:43:05Z</time>
      </trkpt>
      <trkpt lat="49.36487" lon="6.67292">
        <ele>206.7</ele>
        <time>2020-06-26T18:43:06Z</time>
      </trkpt>
      <trkpt lat="49.36487" lon="6.67298">
        <ele>206.8</ele>
        <time>2020-06-26T18:43:07Z</time>
      </trkpt>
      <trkpt lat="49.36487" lon="6.67304">
        <ele>206.8</ele>
        <time>2020-06-26T18:43:08Z</time>
      </trkpt>
      <trkpt lat="49.36486" lon="6.6731">
        <ele>206.8</ele>
        <time>2020-06-26T18:43:09Z</time>
      </trkpt>
      <trkpt lat="49.36486" lon="6.67316">
        <ele>206.8</ele>
        <time>2020-06-26T18:43:10Z</time>
      </trkpt>
      <trkpt lat="49.36486" lon="6.67325">
        <ele>206.9</ele>
        <time>2020-06-26T18:43:11Z</time>
      </trkpt>
      <trkpt lat="49.36486" lon="6.67332">
        <ele>206.9</ele>
        <time>2020-06-26T18:43:12Z</time>
      </trkpt>
      <trkpt lat="49.36486" lon="6.6734">
        <ele>206.9</ele>
        <time>2020-06-26T18:43:13Z</time>
      </trkpt>
      <trkpt lat="49.36486" lon="6.67348">
        <ele>206.9</ele>
        <time>2020-06-26T18:43:14Z</time>
      </trkpt>
      <trkpt lat="49.36486" lon="6.67353">
        <ele>206.8</ele>
        <time>2020-06-26T18:43:15Z</time>
      </trkpt>
      <trkpt lat="49.36485" lon="6.67357">
        <ele>206.8</ele>
        <time>2020-06-26T18:43:16Z</time>
      </trkpt>
      <trkpt lat="49.36486" lon="6.67366">
        <ele>206.7</ele>
        <time>2020-06-26T18:43:17Z</time>
      </trkpt>
      <trkpt lat="49.36486" lon="6.67374">
        <ele>206.6</ele>
        <time>2020-06-26T18:43:18Z</time>
      </trkpt>
      <trkpt lat="49.36486" lon="6.67382">
        <ele>206.5</ele>
        <time>2020-06-26T18:43:19Z</time>
      </trkpt>
      <trkpt lat="49.36486" lon="6.67389">
        <ele>206.5</ele>
        <time>2020-06-26T18:43:20Z</time>
      </trkpt>
      <trkpt lat="49.36486" lon="6.67397">
        <ele>206.4</ele>
        <time>2020-06-26T18:43:21Z</time>
      </trkpt>
      <trkpt lat="49.36485" lon="6.67407">
        <ele>206.2</ele>
        <time>2020-06-26T18:43:22Z</time>
      </trkpt>
      <trkpt lat="49.36485" lon="6.67417">
        <ele>205.9</ele>
        <time>2020-06-26T18:43:23Z</time>
      </trkpt>
      <trkpt lat="49.36484" lon="6.67428">
        <ele>205.6</ele>
        <time>2020-06-26T18:43:24Z</time>
      </trkpt>
      <trkpt lat="49.36484" lon="6.67438">
        <ele>205.3</ele>
        <time>2020-06-26T18:43:25Z</time>
      </trkpt>
      <trkpt lat="49.36483" lon="6.6745">
        <ele>204.9</ele>
        <time>2020-06-26T18:43:26Z</time>
      </trkpt>
      <trkpt lat="49.36483" lon="6.67463">
        <ele>204.4</ele>
        <time>2020-06-26T18:43:27Z</time>
      </trkpt>
      <trkpt lat="49.36482" lon="6.67475">
        <ele>204</ele>
        <time>2020-06-26T18:43:28Z</time>
      </trkpt>
      <trkpt lat="49.36481" lon="6.67487">
        <ele>203.4</ele>
        <time>2020-06-26T18:43:29Z</time>
      </trkpt>
      <trkpt lat="49.36481" lon="6.67501">
        <ele>202.8</ele>
        <time>2020-06-26T18:43:30Z</time>
      </trkpt>
      <trkpt lat="49.3648" lon="6.67515">
        <ele>202.2</ele>
        <time>2020-06-26T18:43:31Z</time>
      </trkpt>
      <trkpt lat="49.36479" lon="6.67528">
        <ele>201.6</ele>
        <time>2020-06-26T18:43:32Z</time>
      </trkpt>
      <trkpt lat="49.36478" lon="6.67542">
        <ele>201</ele>
        <time>2020-06-26T18:43:33Z</time>
      </trkpt>
      <trkpt lat="49.36477" lon="6.67556">
        <ele>200.4</ele>
        <time>2020-06-26T18:43:34Z</time>
      </trkpt>
      <trkpt lat="49.36476" lon="6.6757">
        <ele>199.7</ele>
        <time>2020-06-26T18:43:35Z</time>
      </trkpt>
      <trkpt lat="49.36475" lon="6.67584">
        <ele>199</ele>
        <time>2020-06-26T18:43:36Z</time>
      </trkpt>
      <trkpt lat="49.36474" lon="6.67599">
        <ele>198.3</ele>
        <time>2020-06-26T18:43:37Z</time>
      </trkpt>
      <trkpt lat="49.36473" lon="6.67613">
        <ele>197.7</ele>
        <time>2020-06-26T18:43:38Z</time>
      </trkpt>
      <trkpt lat="49.36472" lon="6.67629">
        <ele>197</ele>
        <time>2020-06-26T18:43:39Z</time>
      </trkpt>
      <trkpt lat="49.36471" lon="6.67644">
        <ele>196.3</ele>
        <time>2020-06-26T18:43:40Z</time>
      </trkpt>
      <trkpt lat="49.3647" lon="6.6766">
        <ele>195.6</ele>
        <time>2020-06-26T18:43:41Z</time>
      </trkpt>
      <trkpt lat="49.36469" lon="6.67675">
        <ele>195</ele>
        <time>2020-06-26T18:43:42Z</time>
      </trkpt>
      <trkpt lat="49.36468" lon="6.67691">
        <ele>194.3</ele>
        <time>2020-06-26T18:43:43Z</time>
      </trkpt>
      <trkpt lat="49.36467" lon="6.67708">
        <ele>193.7</ele>
        <time>2020-06-26T18:43:44Z</time>
      </trkpt>
      <trkpt lat="49.36467" lon="6.67724">
        <ele>193.1</ele>
        <time>2020-06-26T18:43:45Z</time>
      </trkpt>
      <trkpt lat="49.36466" lon="6.67741">
        <ele>192.5</ele>
        <time>2020-06-26T18:43:46Z</time>
      </trkpt>
      <trkpt lat="49.36465" lon="6.67758">
        <ele>192</ele>
        <time>2020-06-26T18:43:47Z</time>
      </trkpt>
      <trkpt lat="49.36464" lon="6.67775">
        <ele>191.4</ele>
        <time>2020-06-26T18:43:48Z</time>
      </trkpt>
      <trkpt lat="49.36464" lon="6.67792">
        <ele>190.9</ele>
        <time>2020-06-26T18:43:49Z</time>
      </trkpt>
      <trkpt lat="49.36464" lon="6.67809">
        <ele>190.5</ele>
        <time>2020-06-26T18:43:50Z</time>
      </trkpt>
      <trkpt lat="49.36464" lon="6.67826">
        <ele>190.1</ele>
        <time>2020-06-26T18:43:51Z</time>
      </trkpt>
      <trkpt lat="49.36464" lon="6.6784">
        <ele>189.8</ele>
        <time>2020-06-26T18:43:52Z</time>
      </trkpt>
      <trkpt lat="49.36464" lon="6.67854">
        <ele>189.4</ele>
        <time>2020-06-26T18:43:53Z</time>
      </trkpt>
      <trkpt lat="49.36465" lon="6.67867">
        <ele>189.2</ele>
        <time>2020-06-26T18:43:54Z</time>
      </trkpt>
      <trkpt lat="49.36466" lon="6.67879">
        <ele>188.9</ele>
        <time>2020-06-26T18:43:55Z</time>
      </trkpt>
      <trkpt lat="49.36467" lon="6.6789">
        <ele>188.6</ele>
        <time>2020-06-26T18:43:56Z</time>
      </trkpt>
      <trkpt lat="49.36468" lon="6.679">
        <ele>188.3</ele>
        <time>2020-06-26T18:43:57Z</time>
      </trkpt>
      <trkpt lat="49.36469" lon="6.67908">
        <ele>188.1</ele>
        <time>2020-06-26T18:43:58Z</time>
      </trkpt>
      <trkpt lat="49.36469" lon="6.67915">
        <ele>187.9</ele>
        <time>2020-06-26T18:43:59Z</time>
      </trkpt>
      <trkpt lat="49.3647" lon="6.67922">
        <ele>187.7</ele>
        <time>2020-06-26T18:44:00Z</time>
      </trkpt>
      <trkpt lat="49.3647" lon="6.67929">
        <ele>187.5</ele>
        <time>2020-06-26T18:44:01Z</time>
      </trkpt>
      <trkpt lat="49.36471" lon="6.67936">
        <ele>187.4</ele>
        <time>2020-06-26T18:44:02Z</time>
      </trkpt>
      <trkpt lat="49.36472" lon="6.67943">
        <ele>187.2</ele>
        <time>2020-06-26T18:44:03Z</time>
      </trkpt>
      <trkpt lat="49.36473" lon="6.6795">
        <ele>187.1</ele>
        <time>2020-06-26T18:44:04Z</time>
      </trkpt>
      <trkpt lat="49.36473" lon="6.67958">
        <ele>187</ele>
        <time>2020-06-26T18:44:05Z</time>
      </trkpt>
      <trkpt lat="49.36474" lon="6.67966">
        <ele>186.9</ele>
        <time>2020-06-26T18:44:06Z</time>
      </trkpt>
      <trkpt lat="49.36476" lon="6.67975">
        <ele>186.8</ele>
        <time>2020-06-26T18:44:07Z</time>
      </trkpt>
      <trkpt lat="49.36478" lon="6.67983">
        <ele>186.7</ele>
        <time>2020-06-26T18:44:08Z</time>
      </trkpt>
      <trkpt lat="49.3648" lon="6.67992">
        <ele>186.7</ele>
        <time>2020-06-26T18:44:09Z</time>
      </trkpt>
      <trkpt lat="49.36481" lon="6.68001">
        <ele>186.6</ele>
        <time>2020-06-26T18:44:10Z</time>
      </trkpt>
      <trkpt lat="49.36483" lon="6.6801">
        <ele>186.6</ele>
        <time>2020-06-26T18:44:11Z</time>
      </trkpt>
      <trkpt lat="49.36484" lon="6.68019">
        <ele>186.5</ele>
        <time>2020-06-26T18:44:12Z</time>
      </trkpt>
      <trkpt lat="49.36487" lon="6.68029">
        <ele>186.4</ele>
        <time>2020-06-26T18:44:13Z</time>
      </trkpt>
      <trkpt lat="49.36488" lon="6.68039">
        <ele>186.4</ele>
        <time>2020-06-26T18:44:14Z</time>
      </trkpt>
      <trkpt lat="49.3649" lon="6.68049">
        <ele>186.3</ele>
        <time>2020-06-26T18:44:15Z</time>
      </trkpt>
      <trkpt lat="49.3649" lon="6.68059">
        <ele>186.3</ele>
        <time>2020-06-26T18:44:16Z</time>
      </trkpt>
      <trkpt lat="49.36491" lon="6.68068">
        <ele>186.3</ele>
        <time>2020-06-26T18:44:17Z</time>
      </trkpt>
      <trkpt lat="49.36492" lon="6.68077">
        <ele>186.3</ele>
        <time>2020-06-26T18:44:18Z</time>
      </trkpt>
      <trkpt lat="49.36493" lon="6.68086">
        <ele>186.2</ele>
        <time>2020-06-26T18:44:19Z</time>
      </trkpt>
      <trkpt lat="49.36495" lon="6.68095">
        <ele>186.1</ele>
        <time>2020-06-26T18:44:20Z</time>
      </trkpt>
      <trkpt lat="49.36496" lon="6.68104">
        <ele>186.1</ele>
        <time>2020-06-26T18:44:21Z</time>
      </trkpt>
      <trkpt lat="49.36497" lon="6.68113">
        <ele>186</ele>
        <time>2020-06-26T18:44:22Z</time>
      </trkpt>
      <trkpt lat="49.36498" lon="6.68122">
        <ele>186</ele>
        <time>2020-06-26T18:44:23Z</time>
      </trkpt>
      <trkpt lat="49.36498" lon="6.6813">
        <ele>186.1</ele>
        <time>2020-06-26T18:44:24Z</time>
      </trkpt>
      <trkpt lat="49.36499" lon="6.68139">
        <ele>186.1</ele>
        <time>2020-06-26T18:44:25Z</time>
      </trkpt>
      <trkpt lat="49.365" lon="6.68148">
        <ele>186.1</ele>
        <time>2020-06-26T18:44:26Z</time>
      </trkpt>
      <trkpt lat="49.36501" lon="6.68156">
        <ele>186.1</ele>
        <time>2020-06-26T18:44:27Z</time>
      </trkpt>
      <trkpt lat="49.36502" lon="6.68165">
        <ele>186.1</ele>
        <time>2020-06-26T18:44:28Z</time>
      </trkpt>
      <trkpt lat="49.36504" lon="6.68173">
        <ele>186.1</ele>
        <time>2020-06-26T18:44:29Z</time>
      </trkpt>
      <trkpt lat="49.36505" lon="6.68181">
        <ele>186.1</ele>
        <time>2020-06-26T18:44:30Z</time>
      </trkpt>
      <trkpt lat="49.36507" lon="6.6819">
        <ele>186.1</ele>
        <time>2020-06-26T18:44:31Z</time>
      </trkpt>
      <trkpt lat="49.36508" lon="6.68198">
        <ele>186.1</ele>
        <time>2020-06-26T18:44:32Z</time>
      </trkpt>
      <trkpt lat="49.3651" lon="6.68207">
        <ele>186.2</ele>
        <time>2020-06-26T18:44:33Z</time>
      </trkpt>
      <trkpt lat="49.36512" lon="6.68215">
        <ele>186.3</ele>
        <time>2020-06-26T18:44:34Z</time>
      </trkpt>
      <trkpt lat="49.36513" lon="6.68224">
        <ele>186.3</ele>
        <time>2020-06-26T18:44:35Z</time>
      </trkpt>
      <trkpt lat="49.36514" lon="6.68233">
        <ele>186.4</ele>
        <time>2020-06-26T18:44:36Z</time>
      </trkpt>
      <trkpt lat="49.36515" lon="6.68241">
        <ele>186.4</ele>
        <time>2020-06-26T18:44:37Z</time>
      </trkpt>
      <trkpt lat="49.36516" lon="6.6825">
        <ele>186.4</ele>
        <time>2020-06-26T18:44:38Z</time>
      </trkpt>
      <trkpt lat="49.36518" lon="6.68257">
        <ele>186.3</ele>
        <time>2020-06-26T18:44:39Z</time>
      </trkpt>
      <trkpt lat="49.36519" lon="6.68265">
        <ele>186.3</ele>
        <time>2020-06-26T18:44:40Z</time>
      </trkpt>
      <trkpt lat="49.3652" lon="6.68273">
        <ele>186.3</ele>
        <time>2020-06-26T18:44:41Z</time>
      </trkpt>
      <trkpt lat="49.36522" lon="6.68281">
        <ele>186.3</ele>
        <time>2020-06-26T18:44:42Z</time>
      </trkpt>
      <trkpt lat="49.36523" lon="6.68289">
        <ele>186.2</ele>
        <time>2020-06-26T18:44:43Z</time>
      </trkpt>
      <trkpt lat="49.36523" lon="6.68298">
        <ele>186.2</ele>
        <time>2020-06-26T18:44:44Z</time>
      </trkpt>
      <trkpt lat="49.36524" lon="6.68306">
        <ele>186.1</ele>
        <time>2020-06-26T18:44:45Z</time>
      </trkpt>
      <trkpt lat="49.36525" lon="6.68315">
        <ele>186.1</ele>
        <time>2020-06-26T18:44:46Z</time>
      </trkpt>
      <trkpt lat="49.36525" lon="6.68324">
        <ele>186.1</ele>
        <time>2020-06-26T18:44:47Z</time>
      </trkpt>
      <trkpt lat="49.36526" lon="6.68333">
        <ele>186</ele>
        <time>2020-06-26T18:44:48Z</time>
      </trkpt>
      <trkpt lat="49.36526" lon="6.68342">
        <ele>186</ele>
        <time>2020-06-26T18:44:49Z</time>
      </trkpt>
      <trkpt lat="49.36526" lon="6.68351">
        <ele>185.9</ele>
        <time>2020-06-26T18:44:50Z</time>
      </trkpt>
      <trkpt lat="49.36526" lon="6.6836">
        <ele>185.9</ele>
        <time>2020-06-26T18:44:51Z</time>
      </trkpt>
      <trkpt lat="49.36526" lon="6.68369">
        <ele>185.8</ele>
        <time>2020-06-26T18:44:52Z</time>
      </trkpt>
      <trkpt lat="49.36526" lon="6.68379">
        <ele>185.8</ele>
        <time>2020-06-26T18:44:53Z</time>
      </trkpt>
      <trkpt lat="49.36526" lon="6.68388">
        <ele>185.7</ele>
        <time>2020-06-26T18:44:54Z</time>
      </trkpt>
      <trkpt lat="49.36526" lon="6.68397">
        <ele>185.6</ele>
        <time>2020-06-26T18:44:55Z</time>
      </trkpt>
      <trkpt lat="49.36526" lon="6.68407">
        <ele>185.5</ele>
        <time>2020-06-26T18:44:56Z</time>
      </trkpt>
      <trkpt lat="49.36526" lon="6.68417">
        <ele>185.4</ele>
        <time>2020-06-26T18:44:57Z</time>
      </trkpt>
      <trkpt lat="49.36526" lon="6.68427">
        <ele>185.3</ele>
        <time>2020-06-26T18:44:58Z</time>
      </trkpt>
      <trkpt lat="49.36526" lon="6.68436">
        <ele>185.3</ele>
        <time>2020-06-26T18:44:59Z</time>
      </trkpt>
      <trkpt lat="49.36526" lon="6.68446">
        <ele>185.3</ele>
        <time>2020-06-26T18:45:00Z</time>
      </trkpt>
      <trkpt lat="49.36527" lon="6.68456">
        <ele>185.2</ele>
        <time>2020-06-26T18:45:01Z</time>
      </trkpt>
      <trkpt lat="49.36527" lon="6.68465">
        <ele>185.2</ele>
        <time>2020-06-26T18:45:02Z</time>
      </trkpt>
      <trkpt lat="49.36527" lon="6.68475">
        <ele>185.1</ele>
        <time>2020-06-26T18:45:03Z</time>
      </trkpt>
      <trkpt lat="49.36527" lon="6.68484">
        <ele>185</ele>
        <time>2020-06-26T18:45:04Z</time>
      </trkpt>
      <trkpt lat="49.36526" lon="6.68493">
        <ele>184.9</ele>
        <time>2020-06-26T18:45:05Z</time>
      </trkpt>
      <trkpt lat="49.36526" lon="6.68502">
        <ele>184.8</ele>
        <time>2020-06-26T18:45:06Z</time>
      </trkpt>
      <trkpt lat="49.36525" lon="6.68511">
        <ele>184.8</ele>
        <time>2020-06-26T18:45:07Z</time>
      </trkpt>
      <trkpt lat="49.36525" lon="6.68519">
        <ele>184.7</ele>
        <time>2020-06-26T18:45:08Z</time>
      </trkpt>
      <trkpt lat="49.36526" lon="6.68528">
        <ele>184.6</ele>
        <time>2020-06-26T18:45:09Z</time>
      </trkpt>
      <trkpt lat="49.36527" lon="6.68537">
        <ele>184.6</ele>
        <time>2020-06-26T18:45:10Z</time>
      </trkpt>
      <trkpt lat="49.36527" lon="6.68545">
        <ele>184.5</ele>
        <time>2020-06-26T18:45:11Z</time>
      </trkpt>
      <trkpt lat="49.36528" lon="6.68553">
        <ele>184.4</ele>
        <time>2020-06-26T18:45:12Z</time>
      </trkpt>
      <trkpt lat="49.36529" lon="6.68561">
        <ele>184.4</ele>
        <time>2020-06-26T18:45:13Z</time>
      </trkpt>
      <trkpt lat="49.36531" lon="6.6857">
        <ele>184.4</ele>
        <time>2020-06-26T18:45:14Z</time>
      </trkpt>
      <trkpt lat="49.36533" lon="6.68578">
        <ele>184.4</ele>
        <time>2020-06-26T18:45:15Z</time>
      </trkpt>
      <trkpt lat="49.36534" lon="6.68587">
        <ele>184.5</ele>
        <time>2020-06-26T18:45:16Z</time>
      </trkpt>
      <trkpt lat="49.36535" lon="6.68596">
        <ele>184.6</ele>
        <time>2020-06-26T18:45:17Z</time>
      </trkpt>
      <trkpt lat="49.36536" lon="6.68604">
        <ele>184.6</ele>
        <time>2020-06-26T18:45:18Z</time>
      </trkpt>
      <trkpt lat="49.36537" lon="6.68612">
        <ele>184.5</ele>
        <time>2020-06-26T18:45:19Z</time>
      </trkpt>
      <trkpt lat="49.36538" lon="6.6862">
        <ele>184.5</ele>
        <time>2020-06-26T18:45:20Z</time>
      </trkpt>
      <trkpt lat="49.36539" lon="6.68628">
        <ele>184.5</ele>
        <time>2020-06-26T18:45:21Z</time>
      </trkpt>
      <trkpt lat="49.36539" lon="6.68635">
        <ele>184.5</ele>
        <time>2020-06-26T18:45:22Z</time>
      </trkpt>
      <trkpt lat="49.36541" lon="6.6864">
        <ele>184.5</ele>
        <time>2020-06-26T18:45:23Z</time>
      </trkpt>
      <trkpt lat="49.36542" lon="6.68646">
        <ele>184.5</ele>
        <time>2020-06-26T18:45:24Z</time>
      </trkpt>
      <trkpt lat="49.36542" lon="6.68651">
        <ele>184.4</ele>
        <time>2020-06-26T18:45:25Z</time>
      </trkpt>
      <trkpt lat="49.36542" lon="6.68652">
        <ele>184.4</ele>
        <time>2020-06-26T18:45:26Z</time>
      </trkpt>
      <trkpt lat="49.36542" lon="6.68655">
        <ele>184.4</ele>
        <time>2020-06-26T18:45:27Z</time>
      </trkpt>
      <trkpt lat="49.36541" lon="6.68656">
        <ele>184.4</ele>
        <time>2020-06-26T18:45:28Z</time>
      </trkpt>
      <trkpt lat="49.36541" lon="6.68657">
        <ele>184.4</ele>
        <time>2020-06-26T18:45:29Z</time>
      </trkpt>
      <trkpt lat="49.3654" lon="6.68659">
        <ele>184.4</ele>
        <time>2020-06-26T18:45:30Z</time>
      </trkpt>
      <trkpt lat="49.36539" lon="6.6866">
        <ele>184.3</ele>
        <time>2020-06-26T18:45:31Z</time>
      </trkpt>
      <trkpt lat="49.36539" lon="6.68662">
        <ele>184.3</ele>
        <time>2020-06-26T18:45:32Z</time>
      </trkpt>
      <trkpt lat="49.36539" lon="6.68664">
        <ele>184.3</ele>
        <time>2020-06-26T18:45:33Z</time>
      </trkpt>
      <trkpt lat="49.36537" lon="6.68665">
        <ele>184.3</ele>
        <time>2020-06-26T18:45:34Z</time>
      </trkpt>
      <trkpt lat="49.36534" lon="6.68669">
        <ele>184.3</ele>
        <time>2020-06-26T18:45:35Z</time>
      </trkpt>
      <trkpt lat="49.36533" lon="6.6867">
        <ele>184.4</ele>
        <time>2020-06-26T18:45:36Z</time>
      </trkpt>
      <trkpt lat="49.3653" lon="6.68674">
        <ele>184.3</ele>
        <time>2020-06-26T18:45:37Z</time>
      </trkpt>
      <trkpt lat="49.36526" lon="6.68677">
        <ele>184.3</ele>
        <time>2020-06-26T18:45:38Z</time>
      </trkpt>
      <trkpt lat="49.36522" lon="6.68679">
        <ele>184.2</ele>
        <time>2020-06-26T18:45:39Z</time>
      </trkpt>
      <trkpt lat="49.36517" lon="6.68681">
        <ele>184.2</ele>
        <time>2020-06-26T18:45:40Z</time>
      </trkpt>
      <trkpt lat="49.36513" lon="6.68683">
        <ele>184.1</ele>
        <time>2020-06-26T18:45:41Z</time>
      </trkpt>
      <trkpt lat="49.36507" lon="6.68685">
        <ele>184.1</ele>
        <time>2020-06-26T18:45:42Z</time>
      </trkpt>
      <trkpt lat="49.36502" lon="6.68685">
        <ele>184.2</ele>
        <time>2020-06-26T18:45:43Z</time>
      </trkpt>
      <trkpt lat="49.36497" lon="6.68686">
        <ele>184.3</ele>
        <time>2020-06-26T18:45:44Z</time>
      </trkpt>
      <trkpt lat="49.36492" lon="6.68688">
        <ele>184.4</ele>
        <time>2020-06-26T18:45:45Z</time>
      </trkpt>
      <trkpt lat="49.36486" lon="6.68691">
        <ele>184.6</ele>
        <time>2020-06-26T18:45:46Z</time>
      </trkpt>
      <trkpt lat="49.36481" lon="6.68693">
        <ele>184.7</ele>
        <time>2020-06-26T18:45:47Z</time>
      </trkpt>
      <trkpt lat="49.36476" lon="6.68696">
        <ele>184.8</ele>
        <time>2020-06-26T18:45:48Z</time>
      </trkpt>
      <trkpt lat="49.36471" lon="6.68699">
        <ele>184.9</ele>
        <time>2020-06-26T18:45:49Z</time>
      </trkpt>
      <trkpt lat="49.36467" lon="6.68701">
        <ele>185</ele>
        <time>2020-06-26T18:45:50Z</time>
      </trkpt>
      <trkpt lat="49.36461" lon="6.68702">
        <ele>185.2</ele>
        <time>2020-06-26T18:45:51Z</time>
      </trkpt>
      <trkpt lat="49.36457" lon="6.68703">
        <ele>185.3</ele>
        <time>2020-06-26T18:45:52Z</time>
      </trkpt>
      <trkpt lat="49.36453" lon="6.68703">
        <ele>185.4</ele>
        <time>2020-06-26T18:45:53Z</time>
      </trkpt>
      <trkpt lat="49.36446" lon="6.68703">
        <ele>185.6</ele>
        <time>2020-06-26T18:45:54Z</time>
      </trkpt>
      <trkpt lat="49.36441" lon="6.68703">
        <ele>185.7</ele>
        <time>2020-06-26T18:45:55Z</time>
      </trkpt>
      <trkpt lat="49.36436" lon="6.68704">
        <ele>185.9</ele>
        <time>2020-06-26T18:45:56Z</time>
      </trkpt>
      <trkpt lat="49.3643" lon="6.68705">
        <ele>186</ele>
        <time>2020-06-26T18:45:57Z</time>
      </trkpt>
      <trkpt lat="49.36426" lon="6.68706">
        <ele>186.1</ele>
        <time>2020-06-26T18:45:58Z</time>
      </trkpt>
      <trkpt lat="49.36421" lon="6.68708">
        <ele>186.2</ele>
        <time>2020-06-26T18:45:59Z</time>
      </trkpt>
      <trkpt lat="49.36418" lon="6.68709">
        <ele>186.3</ele>
        <time>2020-06-26T18:46:00Z</time>
      </trkpt>
      <trkpt lat="49.36413" lon="6.68712">
        <ele>186.4</ele>
        <time>2020-06-26T18:46:01Z</time>
      </trkpt>
      <trkpt lat="49.36412" lon="6.68713">
        <ele>186.4</ele>
        <time>2020-06-26T18:46:02Z</time>
      </trkpt>
      <trkpt lat="49.36408" lon="6.68716">
        <ele>186.5</ele>
        <time>2020-06-26T18:46:03Z</time>
      </trkpt>
      <trkpt lat="49.36405" lon="6.68718">
        <ele>186.5</ele>
        <time>2020-06-26T18:46:04Z</time>
      </trkpt>
      <trkpt lat="49.36402" lon="6.68721">
        <ele>186.6</ele>
        <time>2020-06-26T18:46:05Z</time>
      </trkpt>
      <trkpt lat="49.36398" lon="6.68726">
        <ele>186.7</ele>
        <time>2020-06-26T18:46:06Z</time>
      </trkpt>
      <trkpt lat="49.36397" lon="6.68731">
        <ele>186.7</ele>
        <time>2020-06-26T18:46:07Z</time>
      </trkpt>
      <trkpt lat="49.36395" lon="6.68736">
        <ele>186.8</ele>
        <time>2020-06-26T18:46:08Z</time>
      </trkpt>
      <trkpt lat="49.36393" lon="6.68741">
        <ele>186.8</ele>
        <time>2020-06-26T18:46:09Z</time>
      </trkpt>
      <trkpt lat="49.36391" lon="6.68746">
        <ele>186.6</ele>
        <time>2020-06-26T18:46:10Z</time>
      </trkpt>
      <trkpt lat="49.3639" lon="6.68752">
        <ele>186.3</ele>
        <time>2020-06-26T18:46:11Z</time>
      </trkpt>
      <trkpt lat="49.3639" lon="6.68758">
        <ele>186.1</ele>
        <time>2020-06-26T18:46:12Z</time>
      </trkpt>
      <trkpt lat="49.3639" lon="6.68763">
        <ele>185.9</ele>
        <time>2020-06-26T18:46:13Z</time>
      </trkpt>
      <trkpt lat="49.3639" lon="6.68769">
        <ele>185.7</ele>
        <time>2020-06-26T18:46:14Z</time>
      </trkpt>
      <trkpt lat="49.3639" lon="6.68776">
        <ele>185.6</ele>
        <time>2020-06-26T18:46:15Z</time>
      </trkpt>
      <trkpt lat="49.36391" lon="6.68782">
        <ele>185.5</ele>
        <time>2020-06-26T18:46:16Z</time>
      </trkpt>
      <trkpt lat="49.36392" lon="6.68787">
        <ele>185.5</ele>
        <time>2020-06-26T18:46:17Z</time>
      </trkpt>
      <trkpt lat="49.36392" lon="6.68789">
        <ele>185.5</ele>
        <time>2020-06-26T18:46:18Z</time>
      </trkpt>
      <trkpt lat="49.36393" lon="6.68794">
        <ele>185.5</ele>
        <time>2020-06-26T18:46:19Z</time>
      </trkpt>
      <trkpt lat="49.36393" lon="6.68796">
        <ele>185.5</ele>
        <time>2020-06-26T18:46:20Z</time>
      </trkpt>
      <trkpt lat="49.36394" lon="6.68795">
        <ele>185.5</ele>
        <time>2020-06-26T18:46:21Z</time>
      </trkpt>
      <trkpt lat="49.36394" lon="6.68794">
        <ele>185.5</ele>
        <time>2020-06-26T18:46:22Z</time>
      </trkpt>
      <trkpt lat="49.36393" lon="6.68792">
        <ele>185.5</ele>
        <time>2020-06-26T18:46:23Z</time>
      </trkpt>
      <trkpt lat="49.36393" lon="6.68792">
        <ele>185.5</ele>
        <time>2020-06-26T18:46:24Z</time>
      </trkpt>
      <trkpt lat="49.36393" lon="6.68791">
        <ele>185.5</ele>
        <time>2020-06-26T18:46:25Z</time>
      </trkpt>
      <trkpt lat="49.36393" lon="6.68791">
        <ele>185.5</ele>
        <time>2020-06-26T18:46:26Z</time>
      </trkpt>
      <trkpt lat="49.36393" lon="6.68791">
        <ele>185.5</ele>
        <time>2020-06-26T18:46:27Z</time>
      </trkpt>
      <trkpt lat="49.36394" lon="6.68792">
        <ele>185.5</ele>
        <time>2020-06-26T18:46:28Z</time>
      </trkpt>
      <trkpt lat="49.36394" lon="6.68792">
        <ele>185.5</ele>
        <time>2020-06-26T18:46:29Z</time>
      </trkpt>
      <trkpt lat="49.36395" lon="6.68791">
        <ele>185.5</ele>
        <time>2020-06-26T18:46:30Z</time>
      </trkpt>
      <trkpt lat="49.36395" lon="6.68791">
        <ele>185.5</ele>
        <time>2020-06-26T18:46:31Z</time>
      </trkpt>
      <trkpt lat="49.36395" lon="6.6878">
        <ele>185.6</ele>
        <time>2020-06-26T18:46:35Z</time>
      </trkpt>
      <trkpt lat="49.36396" lon="6.68774">
        <ele>185.6</ele>
        <time>2020-06-26T18:46:36Z</time>
      </trkpt>
      <trkpt lat="49.36397" lon="6.68767">
        <ele>185.7</ele>
        <time>2020-06-26T18:46:37Z</time>
      </trkpt>
      <trkpt lat="49.36398" lon="6.68764">
        <ele>185.8</ele>
        <time>2020-06-26T18:46:38Z</time>
      </trkpt>
      <trkpt lat="49.36399" lon="6.68757">
        <ele>186</ele>
        <time>2020-06-26T18:46:39Z</time>
      </trkpt>
      <trkpt lat="49.364" lon="6.68753">
        <ele>186.1</ele>
        <time>2020-06-26T18:46:40Z</time>
      </trkpt>
      <trkpt lat="49.36401" lon="6.68751">
        <ele>186.2</ele>
        <time>2020-06-26T18:46:41Z</time>
      </trkpt>
      <trkpt lat="49.36402" lon="6.68751">
        <ele>186.2</ele>
        <time>2020-06-26T18:46:42Z</time>
      </trkpt>
      <trkpt lat="49.36402" lon="6.68751">
        <ele>186.2</ele>
        <time>2020-06-26T18:46:43Z</time>
      </trkpt>
      <trkpt lat="49.36402" lon="6.6875">
        <ele>186.3</ele>
        <time>2020-06-26T18:46:44Z</time>
      </trkpt>
      <trkpt lat="49.36402" lon="6.68749">
        <ele>186.3</ele>
        <time>2020-06-26T18:46:45Z</time>
      </trkpt>
      <trkpt lat="49.36402" lon="6.68749">
        <ele>186.3</ele>
        <time>2020-06-26T18:46:46Z</time>
      </trkpt>
      <trkpt lat="49.36402" lon="6.68749">
        <ele>186.3</ele>
        <time>2020-06-26T18:46:47Z</time>
      </trkpt>
      <trkpt lat="49.36402" lon="6.68748">
        <ele>186.3</ele>
        <time>2020-06-26T18:46:48Z</time>
      </trkpt>
      <trkpt lat="49.36401" lon="6.68748">
        <ele>186.3</ele>
        <time>2020-06-26T18:46:49Z</time>
      </trkpt>
      <trkpt lat="49.36401" lon="6.68748">
        <ele>186.3</ele>
        <time>2020-06-26T18:46:50Z</time>
      </trkpt>
      <trkpt lat="49.36401" lon="6.68747">
        <ele>186.3</ele>
        <time>2020-06-26T18:46:51Z</time>
      </trkpt>
      <trkpt lat="49.36401" lon="6.68747">
        <ele>186.3</ele>
        <time>2020-06-26T18:46:52Z</time>
      </trkpt>
      <trkpt lat="49.36401" lon="6.68747">
        <ele>186.3</ele>
        <time>2020-06-26T18:46:53Z</time>
      </trkpt>
      <trkpt lat="49.36401" lon="6.68747">
        <ele>186.4</ele>
        <time>2020-06-26T18:46:54Z</time>
      </trkpt>
      <trkpt lat="49.36401" lon="6.68746">
        <ele>186.4</ele>
        <time>2020-06-26T18:46:55Z</time>
      </trkpt>
      <trkpt lat="49.36401" lon="6.68746">
        <ele>186.4</ele>
        <time>2020-06-26T18:46:56Z</time>
      </trkpt>
      <trkpt lat="49.36401" lon="6.68746">
        <ele>186.4</ele>
        <time>2020-06-26T18:46:57Z</time>
      </trkpt>
      <trkpt lat="49.364" lon="6.68745">
        <ele>186.4</ele>
        <time>2020-06-26T18:46:58Z</time>
      </trkpt>
      <trkpt lat="49.364" lon="6.68745">
        <ele>186.4</ele>
        <time>2020-06-26T18:46:59Z</time>
      </trkpt>
      <trkpt lat="49.364" lon="6.68745">
        <ele>186.4</ele>
        <time>2020-06-26T18:47:00Z</time>
      </trkpt>
      <trkpt lat="49.364" lon="6.68745">
        <ele>186.4</ele>
        <time>2020-06-26T18:47:01Z</time>
      </trkpt>
      <trkpt lat="49.364" lon="6.68744">
        <ele>186.4</ele>
        <time>2020-06-26T18:47:02Z</time>
      </trkpt>
      <trkpt lat="49.364" lon="6.68744">
        <ele>186.4</ele>
        <time>2020-06-26T18:47:03Z</time>
      </trkpt>
      <trkpt lat="49.364" lon="6.68744">
        <ele>186.4</ele>
        <time>2020-06-26T18:47:04Z</time>
      </trkpt>
      <trkpt lat="49.364" lon="6.68743">
        <ele>186.5</ele>
        <time>2020-06-26T18:47:05Z</time>
      </trkpt>
      <trkpt lat="49.364" lon="6.68743">
        <ele>186.5</ele>
        <time>2020-06-26T18:47:06Z</time>
      </trkpt>
      <trkpt lat="49.36399" lon="6.68743">
        <ele>186.5</ele>
        <time>2020-06-26T18:48:10Z</time>
      </trkpt>
      <trkpt lat="49.36399" lon="6.68742">
        <ele>186.5</ele>
        <time>2020-06-26T18:48:11Z</time>
      </trkpt>
      <trkpt lat="49.36396" lon="6.68738">
        <ele>186.6</ele>
        <time>2020-06-26T18:48:12Z</time>
      </trkpt>
      <trkpt lat="49.36395" lon="6.68737">
        <ele>186.7</ele>
        <time>2020-06-26T18:48:13Z</time>
      </trkpt>
      <trkpt lat="49.36392" lon="6.68736">
        <ele>186.8</ele>
        <time>2020-06-26T18:48:14Z</time>
      </trkpt>
      <trkpt lat="49.36388" lon="6.68735">
        <ele>187.1</ele>
        <time>2020-06-26T18:48:15Z</time>
      </trkpt>
      <trkpt lat="49.36384" lon="6.68734">
        <ele>187.2</ele>
        <time>2020-06-26T18:48:16Z</time>
      </trkpt>
      <trkpt lat="49.3638" lon="6.68733">
        <ele>187.2</ele>
        <time>2020-06-26T18:48:17Z</time>
      </trkpt>
      <trkpt lat="49.36376" lon="6.68731">
        <ele>187.3</ele>
        <time>2020-06-26T18:48:18Z</time>
      </trkpt>
      <trkpt lat="49.36372" lon="6.68731">
        <ele>187.4</ele>
        <time>2020-06-26T18:48:19Z</time>
      </trkpt>
      <trkpt lat="49.36369" lon="6.68731">
        <ele>187.4</ele>
        <time>2020-06-26T18:48:20Z</time>
      </trkpt>
      <trkpt lat="49.36365" lon="6.68731">
        <ele>187.5</ele>
        <time>2020-06-26T18:48:21Z</time>
      </trkpt>
      <trkpt lat="49.36361" lon="6.6873">
        <ele>187.5</ele>
        <time>2020-06-26T18:48:22Z</time>
      </trkpt>
      <trkpt lat="49.36358" lon="6.6873">
        <ele>187.6</ele>
        <time>2020-06-26T18:48:23Z</time>
      </trkpt>
      <trkpt lat="49.36353" lon="6.6873">
        <ele>187.6</ele>
        <time>2020-06-26T18:48:24Z</time>
      </trkpt>
      <trkpt lat="49.36349" lon="6.68729">
        <ele>187.6</ele>
        <time>2020-06-26T18:48:25Z</time>
      </trkpt>
      <trkpt lat="49.36345" lon="6.68729">
        <ele>187.6</ele>
        <time>2020-06-26T18:48:26Z</time>
      </trkpt>
      <trkpt lat="49.36341" lon="6.68729">
        <ele>187.7</ele>
        <time>2020-06-26T18:48:27Z</time>
      </trkpt>
      <trkpt lat="49.36336" lon="6.68727">
        <ele>187.7</ele>
        <time>2020-06-26T18:48:28Z</time>
      </trkpt>
      <trkpt lat="49.36332" lon="6.68728">
        <ele>187.7</ele>
        <time>2020-06-26T18:48:29Z</time>
      </trkpt>
      <trkpt lat="49.36327" lon="6.68728">
        <ele>187.7</ele>
        <time>2020-06-26T18:48:30Z</time>
      </trkpt>
      <trkpt lat="49.36322" lon="6.68729">
        <ele>187.7</ele>
        <time>2020-06-26T18:48:31Z</time>
      </trkpt>
      <trkpt lat="49.36317" lon="6.68731">
        <ele>187.7</ele>
        <time>2020-06-26T18:48:32Z</time>
      </trkpt>
      <trkpt lat="49.36312" lon="6.68733">
        <ele>187.7</ele>
        <time>2020-06-26T18:48:33Z</time>
      </trkpt>
      <trkpt lat="49.36307" lon="6.68734">
        <ele>187.9</ele>
        <time>2020-06-26T18:48:34Z</time>
      </trkpt>
      <trkpt lat="49.36302" lon="6.68734">
        <ele>187.9</ele>
        <time>2020-06-26T18:48:35Z</time>
      </trkpt>
      <trkpt lat="49.36298" lon="6.68737">
        <ele>188</ele>
        <time>2020-06-26T18:48:36Z</time>
      </trkpt>
      <trkpt lat="49.36294" lon="6.6874">
        <ele>188</ele>
        <time>2020-06-26T18:48:37Z</time>
      </trkpt>
      <trkpt lat="49.36291" lon="6.68743">
        <ele>188.1</ele>
        <time>2020-06-26T18:48:38Z</time>
      </trkpt>
      <trkpt lat="49.36286" lon="6.68746">
        <ele>188.1</ele>
        <time>2020-06-26T18:48:39Z</time>
      </trkpt>
      <trkpt lat="49.36281" lon="6.68749">
        <ele>188.3</ele>
        <time>2020-06-26T18:48:40Z</time>
      </trkpt>
      <trkpt lat="49.36277" lon="6.68752">
        <ele>188.3</ele>
        <time>2020-06-26T18:48:41Z</time>
      </trkpt>
      <trkpt lat="49.36272" lon="6.68754">
        <ele>188.3</ele>
        <time>2020-06-26T18:48:42Z</time>
      </trkpt>
      <trkpt lat="49.36267" lon="6.68757">
        <ele>188.3</ele>
        <time>2020-06-26T18:48:43Z</time>
      </trkpt>
      <trkpt lat="49.36263" lon="6.68761">
        <ele>188.3</ele>
        <time>2020-06-26T18:48:44Z</time>
      </trkpt>
      <trkpt lat="49.36258" lon="6.68764">
        <ele>188.3</ele>
        <time>2020-06-26T18:48:45Z</time>
      </trkpt>
      <trkpt lat="49.36254" lon="6.68767">
        <ele>188.3</ele>
        <time>2020-06-26T18:48:46Z</time>
      </trkpt>
      <trkpt lat="49.36249" lon="6.68771">
        <ele>188.3</ele>
        <time>2020-06-26T18:48:47Z</time>
      </trkpt>
      <trkpt lat="49.36244" lon="6.68773">
        <ele>188.3</ele>
        <time>2020-06-26T18:48:48Z</time>
      </trkpt>
      <trkpt lat="49.3624" lon="6.68776">
        <ele>188.3</ele>
        <time>2020-06-26T18:48:49Z</time>
      </trkpt>
      <trkpt lat="49.36236" lon="6.68778">
        <ele>188.3</ele>
        <time>2020-06-26T18:48:50Z</time>
      </trkpt>
      <trkpt lat="49.36231" lon="6.68781">
        <ele>188.3</ele>
        <time>2020-06-26T18:48:51Z</time>
      </trkpt>
      <trkpt lat="49.36226" lon="6.68783">
        <ele>188.3</ele>
        <time>2020-06-26T18:48:52Z</time>
      </trkpt>
      <trkpt lat="49.36221" lon="6.68786">
        <ele>188.4</ele>
        <time>2020-06-26T18:48:53Z</time>
      </trkpt>
      <trkpt lat="49.36216" lon="6.68788">
        <ele>188.4</ele>
        <time>2020-06-26T18:48:54Z</time>
      </trkpt>
      <trkpt lat="49.36211" lon="6.68791">
        <ele>188.4</ele>
        <time>2020-06-26T18:48:55Z</time>
      </trkpt>
      <trkpt lat="49.36206" lon="6.68794">
        <ele>188.4</ele>
        <time>2020-06-26T18:48:56Z</time>
      </trkpt>
      <trkpt lat="49.36202" lon="6.68797">
        <ele>188.4</ele>
        <time>2020-06-26T18:48:57Z</time>
      </trkpt>
      <trkpt lat="49.36197" lon="6.688">
        <ele>188.5</ele>
        <time>2020-06-26T18:48:58Z</time>
      </trkpt>
      <trkpt lat="49.3619" lon="6.68803">
        <ele>188.5</ele>
        <time>2020-06-26T18:48:59Z</time>
      </trkpt>
      <trkpt lat="49.36185" lon="6.68808">
        <ele>188.5</ele>
        <time>2020-06-26T18:49:00Z</time>
      </trkpt>
      <trkpt lat="49.3618" lon="6.68812">
        <ele>188.5</ele>
        <time>2020-06-26T18:49:01Z</time>
      </trkpt>
      <trkpt lat="49.36174" lon="6.68815">
        <ele>188.5</ele>
        <time>2020-06-26T18:49:02Z</time>
      </trkpt>
      <trkpt lat="49.36169" lon="6.68818">
        <ele>188.5</ele>
        <time>2020-06-26T18:49:03Z</time>
      </trkpt>
      <trkpt lat="49.36164" lon="6.68822">
        <ele>188.5</ele>
        <time>2020-06-26T18:49:04Z</time>
      </trkpt>
      <trkpt lat="49.36159" lon="6.68825">
        <ele>188.5</ele>
        <time>2020-06-26T18:49:05Z</time>
      </trkpt>
      <trkpt lat="49.36154" lon="6.68826">
        <ele>188.5</ele>
        <time>2020-06-26T18:49:06Z</time>
      </trkpt>
      <trkpt lat="49.36148" lon="6.68829">
        <ele>188.5</ele>
        <time>2020-06-26T18:49:07Z</time>
      </trkpt>
      <trkpt lat="49.36143" lon="6.68831">
        <ele>188.5</ele>
        <time>2020-06-26T18:49:08Z</time>
      </trkpt>
      <trkpt lat="49.36138" lon="6.68834">
        <ele>188.5</ele>
        <time>2020-06-26T18:49:09Z</time>
      </trkpt>
      <trkpt lat="49.36132" lon="6.68838">
        <ele>188.5</ele>
        <time>2020-06-26T18:49:10Z</time>
      </trkpt>
      <trkpt lat="49.36127" lon="6.68842">
        <ele>188.6</ele>
        <time>2020-06-26T18:49:11Z</time>
      </trkpt>
      <trkpt lat="49.36121" lon="6.68847">
        <ele>188.6</ele>
        <time>2020-06-26T18:49:12Z</time>
      </trkpt>
      <trkpt lat="49.36116" lon="6.68851">
        <ele>188.6</ele>
        <time>2020-06-26T18:49:13Z</time>
      </trkpt>
      <trkpt lat="49.36111" lon="6.68854">
        <ele>188.5</ele>
        <time>2020-06-26T18:49:14Z</time>
      </trkpt>
      <trkpt lat="49.36106" lon="6.68857">
        <ele>188.5</ele>
        <time>2020-06-26T18:49:15Z</time>
      </trkpt>
      <trkpt lat="49.361" lon="6.6886">
        <ele>188.5</ele>
        <time>2020-06-26T18:49:16Z</time>
      </trkpt>
      <trkpt lat="49.36094" lon="6.68864">
        <ele>188.5</ele>
        <time>2020-06-26T18:49:17Z</time>
      </trkpt>
      <trkpt lat="49.36088" lon="6.68868">
        <ele>188.5</ele>
        <time>2020-06-26T18:49:18Z</time>
      </trkpt>
      <trkpt lat="49.36083" lon="6.68871">
        <ele>188.4</ele>
        <time>2020-06-26T18:49:19Z</time>
      </trkpt>
      <trkpt lat="49.36077" lon="6.68876">
        <ele>188.4</ele>
        <time>2020-06-26T18:49:20Z</time>
      </trkpt>
      <trkpt lat="49.36072" lon="6.6888">
        <ele>188.3</ele>
        <time>2020-06-26T18:49:21Z</time>
      </trkpt>
      <trkpt lat="49.36066" lon="6.68885">
        <ele>188.2</ele>
        <time>2020-06-26T18:49:22Z</time>
      </trkpt>
      <trkpt lat="49.3606" lon="6.68889">
        <ele>188.2</ele>
        <time>2020-06-26T18:49:23Z</time>
      </trkpt>
      <trkpt lat="49.36054" lon="6.68893">
        <ele>188.1</ele>
        <time>2020-06-26T18:49:24Z</time>
      </trkpt>
      <trkpt lat="49.36049" lon="6.68896">
        <ele>188</ele>
        <time>2020-06-26T18:49:25Z</time>
      </trkpt>
      <trkpt lat="49.36044" lon="6.68902">
        <ele>188</ele>
        <time>2020-06-26T18:49:26Z</time>
      </trkpt>
      <trkpt lat="49.36038" lon="6.68906">
        <ele>187.9</ele>
        <time>2020-06-26T18:49:27Z</time>
      </trkpt>
      <trkpt lat="49.36033" lon="6.68911">
        <ele>187.7</ele>
        <time>2020-06-26T18:49:28Z</time>
      </trkpt>
      <trkpt lat="49.36025" lon="6.68917">
        <ele>187.6</ele>
        <time>2020-06-26T18:49:29Z</time>
      </trkpt>
      <trkpt lat="49.36019" lon="6.68923">
        <ele>187.5</ele>
        <time>2020-06-26T18:49:30Z</time>
      </trkpt>
      <trkpt lat="49.36013" lon="6.68928">
        <ele>187.4</ele>
        <time>2020-06-26T18:49:31Z</time>
      </trkpt>
      <trkpt lat="49.36008" lon="6.68933">
        <ele>187.4</ele>
        <time>2020-06-26T18:49:32Z</time>
      </trkpt>
      <trkpt lat="49.36001" lon="6.68939">
        <ele>187.3</ele>
        <time>2020-06-26T18:49:33Z</time>
      </trkpt>
      <trkpt lat="49.35996" lon="6.68944">
        <ele>187.3</ele>
        <time>2020-06-26T18:49:34Z</time>
      </trkpt>
      <trkpt lat="49.35991" lon="6.68949">
        <ele>187.2</ele>
        <time>2020-06-26T18:49:35Z</time>
      </trkpt>
      <trkpt lat="49.35985" lon="6.68955">
        <ele>187.1</ele>
        <time>2020-06-26T18:49:36Z</time>
      </trkpt>
      <trkpt lat="49.3598" lon="6.68961">
        <ele>187</ele>
        <time>2020-06-26T18:49:37Z</time>
      </trkpt>
      <trkpt lat="49.35975" lon="6.68966">
        <ele>186.9</ele>
        <time>2020-06-26T18:49:38Z</time>
      </trkpt>
      <trkpt lat="49.3597" lon="6.68971">
        <ele>186.8</ele>
        <time>2020-06-26T18:49:39Z</time>
      </trkpt>
      <trkpt lat="49.35965" lon="6.68977">
        <ele>186.7</ele>
        <time>2020-06-26T18:49:40Z</time>
      </trkpt>
      <trkpt lat="49.3596" lon="6.68983">
        <ele>186.6</ele>
        <time>2020-06-26T18:49:41Z</time>
      </trkpt>
      <trkpt lat="49.35955" lon="6.68989">
        <ele>186.5</ele>
        <time>2020-06-26T18:49:42Z</time>
      </trkpt>
      <trkpt lat="49.35951" lon="6.68995">
        <ele>186.4</ele>
        <time>2020-06-26T18:49:43Z</time>
      </trkpt>
      <trkpt lat="49.35946" lon="6.69001">
        <ele>186.3</ele>
        <time>2020-06-26T18:49:44Z</time>
      </trkpt>
      <trkpt lat="49.35943" lon="6.69004">
        <ele>186.3</ele>
        <time>2020-06-26T18:49:45Z</time>
      </trkpt>
      <trkpt lat="49.35938" lon="6.6901">
        <ele>186.2</ele>
        <time>2020-06-26T18:49:46Z</time>
      </trkpt>
      <trkpt lat="49.35933" lon="6.69015">
        <ele>186.1</ele>
        <time>2020-06-26T18:49:47Z</time>
      </trkpt>
      <trkpt lat="49.35931" lon="6.69019">
        <ele>186.1</ele>
        <time>2020-06-26T18:49:48Z</time>
      </trkpt>
      <trkpt lat="49.35927" lon="6.69025">
        <ele>186</ele>
        <time>2020-06-26T18:49:49Z</time>
      </trkpt>
      <trkpt lat="49.35923" lon="6.6903">
        <ele>185.9</ele>
        <time>2020-06-26T18:49:50Z</time>
      </trkpt>
      <trkpt lat="49.35919" lon="6.69035">
        <ele>185.8</ele>
        <time>2020-06-26T18:49:51Z</time>
      </trkpt>
      <trkpt lat="49.35914" lon="6.69042">
        <ele>185.7</ele>
        <time>2020-06-26T18:49:52Z</time>
      </trkpt>
      <trkpt lat="49.3591" lon="6.69047">
        <ele>185.7</ele>
        <time>2020-06-26T18:49:53Z</time>
      </trkpt>
      <trkpt lat="49.35905" lon="6.69052">
        <ele>185.6</ele>
        <time>2020-06-26T18:49:54Z</time>
      </trkpt>
      <trkpt lat="49.35902" lon="6.69057">
        <ele>185.6</ele>
        <time>2020-06-26T18:49:55Z</time>
      </trkpt>
      <trkpt lat="49.35899" lon="6.69061">
        <ele>185.6</ele>
        <time>2020-06-26T18:49:56Z</time>
      </trkpt>
      <trkpt lat="49.35894" lon="6.69067">
        <ele>185.5</ele>
        <time>2020-06-26T18:49:57Z</time>
      </trkpt>
      <trkpt lat="49.35889" lon="6.69073">
        <ele>185.5</ele>
        <time>2020-06-26T18:49:58Z</time>
      </trkpt>
      <trkpt lat="49.35884" lon="6.6908">
        <ele>185.6</ele>
        <time>2020-06-26T18:49:59Z</time>
      </trkpt>
      <trkpt lat="49.35879" lon="6.69087">
        <ele>185.6</ele>
        <time>2020-06-26T18:50:00Z</time>
      </trkpt>
      <trkpt lat="49.35875" lon="6.69092">
        <ele>185.5</ele>
        <time>2020-06-26T18:50:01Z</time>
      </trkpt>
      <trkpt lat="49.35869" lon="6.69099">
        <ele>185.5</ele>
        <time>2020-06-26T18:50:02Z</time>
      </trkpt>
      <trkpt lat="49.35866" lon="6.69104">
        <ele>185.5</ele>
        <time>2020-06-26T18:50:03Z</time>
      </trkpt>
      <trkpt lat="49.35861" lon="6.6911">
        <ele>185.6</ele>
        <time>2020-06-26T18:50:04Z</time>
      </trkpt>
      <trkpt lat="49.35857" lon="6.69115">
        <ele>185.6</ele>
        <time>2020-06-26T18:50:05Z</time>
      </trkpt>
      <trkpt lat="49.35853" lon="6.69121">
        <ele>185.6</ele>
        <time>2020-06-26T18:50:06Z</time>
      </trkpt>
      <trkpt lat="49.3585" lon="6.69125">
        <ele>185.6</ele>
        <time>2020-06-26T18:50:07Z</time>
      </trkpt>
      <trkpt lat="49.35845" lon="6.6913">
        <ele>185.6</ele>
        <time>2020-06-26T18:50:08Z</time>
      </trkpt>
      <trkpt lat="49.35841" lon="6.69133">
        <ele>185.6</ele>
        <time>2020-06-26T18:50:09Z</time>
      </trkpt>
      <trkpt lat="49.35837" lon="6.69138">
        <ele>185.7</ele>
        <time>2020-06-26T18:50:10Z</time>
      </trkpt>
      <trkpt lat="49.35832" lon="6.69145">
        <ele>185.7</ele>
        <time>2020-06-26T18:50:11Z</time>
      </trkpt>
      <trkpt lat="49.35828" lon="6.6915">
        <ele>185.7</ele>
        <time>2020-06-26T18:50:12Z</time>
      </trkpt>
      <trkpt lat="49.35822" lon="6.69157">
        <ele>185.8</ele>
        <time>2020-06-26T18:50:13Z</time>
      </trkpt>
      <trkpt lat="49.35817" lon="6.69161">
        <ele>185.8</ele>
        <time>2020-06-26T18:50:14Z</time>
      </trkpt>
      <trkpt lat="49.35813" lon="6.69166">
        <ele>185.9</ele>
        <time>2020-06-26T18:50:15Z</time>
      </trkpt>
      <trkpt lat="49.35809" lon="6.6917">
        <ele>185.9</ele>
        <time>2020-06-26T18:50:16Z</time>
      </trkpt>
      <trkpt lat="49.35805" lon="6.69175">
        <ele>186</ele>
        <time>2020-06-26T18:50:17Z</time>
      </trkpt>
      <trkpt lat="49.35801" lon="6.69181">
        <ele>186</ele>
        <time>2020-06-26T18:50:18Z</time>
      </trkpt>
      <trkpt lat="49.35797" lon="6.69187">
        <ele>185.7</ele>
        <time>2020-06-26T18:50:19Z</time>
      </trkpt>
      <trkpt lat="49.35793" lon="6.69193">
        <ele>185.6</ele>
        <time>2020-06-26T18:50:20Z</time>
      </trkpt>
      <trkpt lat="49.35789" lon="6.69199">
        <ele>185.5</ele>
        <time>2020-06-26T18:50:21Z</time>
      </trkpt>
      <trkpt lat="49.35785" lon="6.69205">
        <ele>185.5</ele>
        <time>2020-06-26T18:50:22Z</time>
      </trkpt>
      <trkpt lat="49.35781" lon="6.69211">
        <ele>185.4</ele>
        <time>2020-06-26T18:50:23Z</time>
      </trkpt>
      <trkpt lat="49.35777" lon="6.69216">
        <ele>185.3</ele>
        <time>2020-06-26T18:50:24Z</time>
      </trkpt>
      <trkpt lat="49.35773" lon="6.69222">
        <ele>185.3</ele>
        <time>2020-06-26T18:50:25Z</time>
      </trkpt>
      <trkpt lat="49.35769" lon="6.69229">
        <ele>185.2</ele>
        <time>2020-06-26T18:50:26Z</time>
      </trkpt>
      <trkpt lat="49.35764" lon="6.69237">
        <ele>185.2</ele>
        <time>2020-06-26T18:50:27Z</time>
      </trkpt>
      <trkpt lat="49.35761" lon="6.69243">
        <ele>185.1</ele>
        <time>2020-06-26T18:50:28Z</time>
      </trkpt>
      <trkpt lat="49.35757" lon="6.69249">
        <ele>185.1</ele>
        <time>2020-06-26T18:50:29Z</time>
      </trkpt>
      <trkpt lat="49.35754" lon="6.69255">
        <ele>185</ele>
        <time>2020-06-26T18:50:30Z</time>
      </trkpt>
      <trkpt lat="49.35749" lon="6.69263">
        <ele>184.9</ele>
        <time>2020-06-26T18:50:31Z</time>
      </trkpt>
      <trkpt lat="49.35746" lon="6.6927">
        <ele>184.9</ele>
        <time>2020-06-26T18:50:32Z</time>
      </trkpt>
      <trkpt lat="49.35741" lon="6.69278">
        <ele>184.8</ele>
        <time>2020-06-26T18:50:33Z</time>
      </trkpt>
      <trkpt lat="49.35738" lon="6.69285">
        <ele>184.8</ele>
        <time>2020-06-26T18:50:34Z</time>
      </trkpt>
      <trkpt lat="49.35734" lon="6.69293">
        <ele>184.7</ele>
        <time>2020-06-26T18:50:35Z</time>
      </trkpt>
      <trkpt lat="49.3573" lon="6.69301">
        <ele>184.6</ele>
        <time>2020-06-26T18:50:36Z</time>
      </trkpt>
      <trkpt lat="49.35727" lon="6.69306">
        <ele>184.6</ele>
        <time>2020-06-26T18:50:37Z</time>
      </trkpt>
      <trkpt lat="49.35723" lon="6.69313">
        <ele>184.6</ele>
        <time>2020-06-26T18:50:38Z</time>
      </trkpt>
      <trkpt lat="49.3572" lon="6.69319">
        <ele>184.7</ele>
        <time>2020-06-26T18:50:39Z</time>
      </trkpt>
      <trkpt lat="49.35718" lon="6.69324">
        <ele>184.7</ele>
        <time>2020-06-26T18:50:40Z</time>
      </trkpt>
      <trkpt lat="49.35715" lon="6.69331">
        <ele>184.7</ele>
        <time>2020-06-26T18:50:41Z</time>
      </trkpt>
      <trkpt lat="49.35711" lon="6.69338">
        <ele>184.7</ele>
        <time>2020-06-26T18:50:42Z</time>
      </trkpt>
      <trkpt lat="49.35707" lon="6.69344">
        <ele>184.7</ele>
        <time>2020-06-26T18:50:43Z</time>
      </trkpt>
      <trkpt lat="49.35702" lon="6.69354">
        <ele>184.7</ele>
        <time>2020-06-26T18:50:44Z</time>
      </trkpt>
      <trkpt lat="49.35698" lon="6.69362">
        <ele>184.7</ele>
        <time>2020-06-26T18:50:45Z</time>
      </trkpt>
      <trkpt lat="49.35695" lon="6.69369">
        <ele>184.7</ele>
        <time>2020-06-26T18:50:46Z</time>
      </trkpt>
      <trkpt lat="49.35691" lon="6.69376">
        <ele>184.6</ele>
        <time>2020-06-26T18:50:47Z</time>
      </trkpt>
      <trkpt lat="49.35687" lon="6.69382">
        <ele>184.6</ele>
        <time>2020-06-26T18:50:48Z</time>
      </trkpt>
      <trkpt lat="49.35683" lon="6.69389">
        <ele>184.6</ele>
        <time>2020-06-26T18:50:49Z</time>
      </trkpt>
      <trkpt lat="49.35679" lon="6.69397">
        <ele>184.5</ele>
        <time>2020-06-26T18:50:50Z</time>
      </trkpt>
      <trkpt lat="49.35676" lon="6.69403">
        <ele>184.5</ele>
        <time>2020-06-26T18:50:51Z</time>
      </trkpt>
      <trkpt lat="49.35672" lon="6.69409">
        <ele>184.6</ele>
        <time>2020-06-26T18:50:52Z</time>
      </trkpt>
      <trkpt lat="49.35669" lon="6.69415">
        <ele>184.6</ele>
        <time>2020-06-26T18:50:53Z</time>
      </trkpt>
      <trkpt lat="49.35666" lon="6.69421">
        <ele>184.6</ele>
        <time>2020-06-26T18:50:54Z</time>
      </trkpt>
      <trkpt lat="49.35664" lon="6.69426">
        <ele>184.6</ele>
        <time>2020-06-26T18:50:55Z</time>
      </trkpt>
      <trkpt lat="49.35661" lon="6.69433">
        <ele>184.6</ele>
        <time>2020-06-26T18:50:56Z</time>
      </trkpt>
      <trkpt lat="49.35658" lon="6.69439">
        <ele>184.6</ele>
        <time>2020-06-26T18:50:57Z</time>
      </trkpt>
      <trkpt lat="49.35655" lon="6.69445">
        <ele>184.6</ele>
        <time>2020-06-26T18:50:58Z</time>
      </trkpt>
      <trkpt lat="49.35651" lon="6.69453">
        <ele>184.5</ele>
        <time>2020-06-26T18:50:59Z</time>
      </trkpt>
      <trkpt lat="49.35648" lon="6.69458">
        <ele>184.5</ele>
        <time>2020-06-26T18:51:00Z</time>
      </trkpt>
      <trkpt lat="49.35644" lon="6.69465">
        <ele>184.5</ele>
        <time>2020-06-26T18:51:01Z</time>
      </trkpt>
      <trkpt lat="49.3564" lon="6.69473">
        <ele>184.4</ele>
        <time>2020-06-26T18:51:02Z</time>
      </trkpt>
      <trkpt lat="49.35636" lon="6.69481">
        <ele>184.4</ele>
        <time>2020-06-26T18:51:03Z</time>
      </trkpt>
      <trkpt lat="49.35632" lon="6.6949">
        <ele>184.4</ele>
        <time>2020-06-26T18:51:04Z</time>
      </trkpt>
      <trkpt lat="49.35627" lon="6.69498">
        <ele>184.4</ele>
        <time>2020-06-26T18:51:05Z</time>
      </trkpt>
      <trkpt lat="49.35624" lon="6.69505">
        <ele>184.4</ele>
        <time>2020-06-26T18:51:06Z</time>
      </trkpt>
      <trkpt lat="49.3562" lon="6.69513">
        <ele>184.4</ele>
        <time>2020-06-26T18:51:07Z</time>
      </trkpt>
      <trkpt lat="49.35616" lon="6.69521">
        <ele>184.4</ele>
        <time>2020-06-26T18:51:08Z</time>
      </trkpt>
      <trkpt lat="49.35613" lon="6.69528">
        <ele>184.4</ele>
        <time>2020-06-26T18:51:09Z</time>
      </trkpt>
      <trkpt lat="49.3561" lon="6.69534">
        <ele>184.4</ele>
        <time>2020-06-26T18:51:10Z</time>
      </trkpt>
      <trkpt lat="49.35606" lon="6.69542">
        <ele>184.4</ele>
        <time>2020-06-26T18:51:11Z</time>
      </trkpt>
      <trkpt lat="49.35603" lon="6.69548">
        <ele>184.4</ele>
        <time>2020-06-26T18:51:12Z</time>
      </trkpt>
      <trkpt lat="49.356" lon="6.69554">
        <ele>184.4</ele>
        <time>2020-06-26T18:51:13Z</time>
      </trkpt>
      <trkpt lat="49.35597" lon="6.69561">
        <ele>184.4</ele>
        <time>2020-06-26T18:51:14Z</time>
      </trkpt>
      <trkpt lat="49.35592" lon="6.69569">
        <ele>184.4</ele>
        <time>2020-06-26T18:51:15Z</time>
      </trkpt>
      <trkpt lat="49.35589" lon="6.69575">
        <ele>184.3</ele>
        <time>2020-06-26T18:51:16Z</time>
      </trkpt>
      <trkpt lat="49.35586" lon="6.69582">
        <ele>184.3</ele>
        <time>2020-06-26T18:51:17Z</time>
      </trkpt>
      <trkpt lat="49.35583" lon="6.69587">
        <ele>184.3</ele>
        <time>2020-06-26T18:51:18Z</time>
      </trkpt>
      <trkpt lat="49.35579" lon="6.69593">
        <ele>184.2</ele>
        <time>2020-06-26T18:51:19Z</time>
      </trkpt>
      <trkpt lat="49.35575" lon="6.696">
        <ele>184.2</ele>
        <time>2020-06-26T18:51:20Z</time>
      </trkpt>
      <trkpt lat="49.35572" lon="6.69608">
        <ele>184.2</ele>
        <time>2020-06-26T18:51:21Z</time>
      </trkpt>
      <trkpt lat="49.35569" lon="6.69615">
        <ele>184.1</ele>
        <time>2020-06-26T18:51:22Z</time>
      </trkpt>
      <trkpt lat="49.35565" lon="6.69624">
        <ele>184.1</ele>
        <time>2020-06-26T18:51:23Z</time>
      </trkpt>
      <trkpt lat="49.3556" lon="6.69631">
        <ele>184.1</ele>
        <time>2020-06-26T18:51:24Z</time>
      </trkpt>
      <trkpt lat="49.35556" lon="6.69638">
        <ele>184.1</ele>
        <time>2020-06-26T18:51:25Z</time>
      </trkpt>
      <trkpt lat="49.35552" lon="6.69645">
        <ele>184.1</ele>
        <time>2020-06-26T18:51:26Z</time>
      </trkpt>
      <trkpt lat="49.35548" lon="6.69653">
        <ele>184.2</ele>
        <time>2020-06-26T18:51:27Z</time>
      </trkpt>
      <trkpt lat="49.35545" lon="6.69659">
        <ele>184.2</ele>
        <time>2020-06-26T18:51:28Z</time>
      </trkpt>
      <trkpt lat="49.35542" lon="6.69667">
        <ele>184.3</ele>
        <time>2020-06-26T18:51:29Z</time>
      </trkpt>
      <trkpt lat="49.35537" lon="6.69674">
        <ele>184.4</ele>
        <time>2020-06-26T18:51:30Z</time>
      </trkpt>
      <trkpt lat="49.35534" lon="6.69683">
        <ele>184.3</ele>
        <time>2020-06-26T18:51:31Z</time>
      </trkpt>
      <trkpt lat="49.3553" lon="6.69691">
        <ele>184.3</ele>
        <time>2020-06-26T18:51:32Z</time>
      </trkpt>
      <trkpt lat="49.35526" lon="6.69696">
        <ele>184.3</ele>
        <time>2020-06-26T18:51:33Z</time>
      </trkpt>
      <trkpt lat="49.35523" lon="6.69703">
        <ele>184.2</ele>
        <time>2020-06-26T18:51:34Z</time>
      </trkpt>
      <trkpt lat="49.3552" lon="6.6971">
        <ele>184.2</ele>
        <time>2020-06-26T18:51:35Z</time>
      </trkpt>
      <trkpt lat="49.35516" lon="6.69717">
        <ele>184.2</ele>
        <time>2020-06-26T18:51:36Z</time>
      </trkpt>
      <trkpt lat="49.35512" lon="6.69725">
        <ele>184.2</ele>
        <time>2020-06-26T18:51:37Z</time>
      </trkpt>
      <trkpt lat="49.35509" lon="6.69732">
        <ele>184.2</ele>
        <time>2020-06-26T18:51:38Z</time>
      </trkpt>
      <trkpt lat="49.35506" lon="6.69737">
        <ele>184.2</ele>
        <time>2020-06-26T18:51:39Z</time>
      </trkpt>
      <trkpt lat="49.35502" lon="6.69743">
        <ele>184.2</ele>
        <time>2020-06-26T18:51:40Z</time>
      </trkpt>
      <trkpt lat="49.35498" lon="6.69749">
        <ele>184.2</ele>
        <time>2020-06-26T18:51:41Z</time>
      </trkpt>
      <trkpt lat="49.35495" lon="6.69756">
        <ele>184.2</ele>
        <time>2020-06-26T18:51:42Z</time>
      </trkpt>
      <trkpt lat="49.35492" lon="6.69762">
        <ele>184.2</ele>
        <time>2020-06-26T18:51:43Z</time>
      </trkpt>
      <trkpt lat="49.35488" lon="6.69768">
        <ele>184.2</ele>
        <time>2020-06-26T18:51:44Z</time>
      </trkpt>
      <trkpt lat="49.35486" lon="6.69772">
        <ele>184.2</ele>
        <time>2020-06-26T18:51:45Z</time>
      </trkpt>
      <trkpt lat="49.35482" lon="6.69779">
        <ele>184.2</ele>
        <time>2020-06-26T18:51:46Z</time>
      </trkpt>
      <trkpt lat="49.3548" lon="6.69784">
        <ele>184.2</ele>
        <time>2020-06-26T18:51:47Z</time>
      </trkpt>
      <trkpt lat="49.35477" lon="6.69789">
        <ele>184.1</ele>
        <time>2020-06-26T18:51:48Z</time>
      </trkpt>
      <trkpt lat="49.35475" lon="6.69794">
        <ele>184.1</ele>
        <time>2020-06-26T18:51:49Z</time>
      </trkpt>
      <trkpt lat="49.35472" lon="6.698">
        <ele>184</ele>
        <time>2020-06-26T18:51:50Z</time>
      </trkpt>
      <trkpt lat="49.35468" lon="6.69806">
        <ele>184</ele>
        <time>2020-06-26T18:51:51Z</time>
      </trkpt>
      <trkpt lat="49.35465" lon="6.69813">
        <ele>183.9</ele>
        <time>2020-06-26T18:51:52Z</time>
      </trkpt>
      <trkpt lat="49.35461" lon="6.6982">
        <ele>183.9</ele>
        <time>2020-06-26T18:51:53Z</time>
      </trkpt>
      <trkpt lat="49.35457" lon="6.69827">
        <ele>183.8</ele>
        <time>2020-06-26T18:51:54Z</time>
      </trkpt>
      <trkpt lat="49.35453" lon="6.69834">
        <ele>183.8</ele>
        <time>2020-06-26T18:51:55Z</time>
      </trkpt>
      <trkpt lat="49.35449" lon="6.6984">
        <ele>183.7</ele>
        <time>2020-06-26T18:51:56Z</time>
      </trkpt>
      <trkpt lat="49.35446" lon="6.69848">
        <ele>183.7</ele>
        <time>2020-06-26T18:51:57Z</time>
      </trkpt>
      <trkpt lat="49.35442" lon="6.69856">
        <ele>183.6</ele>
        <time>2020-06-26T18:51:58Z</time>
      </trkpt>
      <trkpt lat="49.35437" lon="6.69865">
        <ele>183.6</ele>
        <time>2020-06-26T18:51:59Z</time>
      </trkpt>
      <trkpt lat="49.35433" lon="6.69875">
        <ele>183.3</ele>
        <time>2020-06-26T18:52:00Z</time>
      </trkpt>
      <trkpt lat="49.35427" lon="6.69884">
        <ele>183</ele>
        <time>2020-06-26T18:52:01Z</time>
      </trkpt>
      <trkpt lat="49.35423" lon="6.69892">
        <ele>182.7</ele>
        <time>2020-06-26T18:52:02Z</time>
      </trkpt>
      <trkpt lat="49.35418" lon="6.69901">
        <ele>182.5</ele>
        <time>2020-06-26T18:52:03Z</time>
      </trkpt>
      <trkpt lat="49.35414" lon="6.69906">
        <ele>182.4</ele>
        <time>2020-06-26T18:52:04Z</time>
      </trkpt>
      <trkpt lat="49.35409" lon="6.69914">
        <ele>182.2</ele>
        <time>2020-06-26T18:52:05Z</time>
      </trkpt>
      <trkpt lat="49.35404" lon="6.69922">
        <ele>182.1</ele>
        <time>2020-06-26T18:52:06Z</time>
      </trkpt>
      <trkpt lat="49.35399" lon="6.69929">
        <ele>182</ele>
        <time>2020-06-26T18:52:07Z</time>
      </trkpt>
      <trkpt lat="49.35393" lon="6.69938">
        <ele>181.8</ele>
        <time>2020-06-26T18:52:08Z</time>
      </trkpt>
      <trkpt lat="49.35388" lon="6.69945">
        <ele>181.7</ele>
        <time>2020-06-26T18:52:09Z</time>
      </trkpt>
      <trkpt lat="49.35383" lon="6.69951">
        <ele>181.6</ele>
        <time>2020-06-26T18:52:10Z</time>
      </trkpt>
      <trkpt lat="49.35377" lon="6.69957">
        <ele>181.6</ele>
        <time>2020-06-26T18:52:11Z</time>
      </trkpt>
      <trkpt lat="49.35372" lon="6.69963">
        <ele>181.5</ele>
        <time>2020-06-26T18:52:12Z</time>
      </trkpt>
      <trkpt lat="49.35366" lon="6.69969">
        <ele>181.4</ele>
        <time>2020-06-26T18:52:13Z</time>
      </trkpt>
      <trkpt lat="49.35361" lon="6.69974">
        <ele>181.3</ele>
        <time>2020-06-26T18:52:14Z</time>
      </trkpt>
      <trkpt lat="49.35356" lon="6.69979">
        <ele>181.2</ele>
        <time>2020-06-26T18:52:15Z</time>
      </trkpt>
      <trkpt lat="49.3535" lon="6.69985">
        <ele>181.1</ele>
        <time>2020-06-26T18:52:16Z</time>
      </trkpt>
      <trkpt lat="49.35344" lon="6.69989">
        <ele>180.9</ele>
        <time>2020-06-26T18:52:17Z</time>
      </trkpt>
      <trkpt lat="49.35339" lon="6.69993">
        <ele>180.9</ele>
        <time>2020-06-26T18:52:18Z</time>
      </trkpt>
      <trkpt lat="49.35333" lon="6.69998">
        <ele>180.8</ele>
        <time>2020-06-26T18:52:19Z</time>
      </trkpt>
      <trkpt lat="49.35327" lon="6.70002">
        <ele>180.7</ele>
        <time>2020-06-26T18:52:20Z</time>
      </trkpt>
      <trkpt lat="49.35321" lon="6.70005">
        <ele>180.6</ele>
        <time>2020-06-26T18:52:21Z</time>
      </trkpt>
      <trkpt lat="49.35315" lon="6.70008">
        <ele>180.5</ele>
        <time>2020-06-26T18:52:22Z</time>
      </trkpt>
      <trkpt lat="49.35309" lon="6.70012">
        <ele>180.4</ele>
        <time>2020-06-26T18:52:23Z</time>
      </trkpt>
      <trkpt lat="49.35302" lon="6.70015">
        <ele>180.4</ele>
        <time>2020-06-26T18:52:24Z</time>
      </trkpt>
      <trkpt lat="49.35296" lon="6.70018">
        <ele>180.4</ele>
        <time>2020-06-26T18:52:25Z</time>
      </trkpt>
      <trkpt lat="49.3529" lon="6.70022">
        <ele>180.4</ele>
        <time>2020-06-26T18:52:26Z</time>
      </trkpt>
      <trkpt lat="49.35284" lon="6.70026">
        <ele>180.3</ele>
        <time>2020-06-26T18:52:27Z</time>
      </trkpt>
      <trkpt lat="49.35278" lon="6.7003">
        <ele>180.3</ele>
        <time>2020-06-26T18:52:28Z</time>
      </trkpt>
      <trkpt lat="49.35271" lon="6.70034">
        <ele>180.4</ele>
        <time>2020-06-26T18:52:29Z</time>
      </trkpt>
      <trkpt lat="49.35265" lon="6.70038">
        <ele>180.4</ele>
        <time>2020-06-26T18:52:30Z</time>
      </trkpt>
      <trkpt lat="49.35259" lon="6.70041">
        <ele>180.5</ele>
        <time>2020-06-26T18:52:31Z</time>
      </trkpt>
      <trkpt lat="49.35252" lon="6.70044">
        <ele>180.6</ele>
        <time>2020-06-26T18:52:32Z</time>
      </trkpt>
      <trkpt lat="49.35246" lon="6.70047">
        <ele>180.6</ele>
        <time>2020-06-26T18:52:33Z</time>
      </trkpt>
      <trkpt lat="49.35239" lon="6.7005">
        <ele>180.4</ele>
        <time>2020-06-26T18:52:34Z</time>
      </trkpt>
      <trkpt lat="49.35233" lon="6.70053">
        <ele>180.3</ele>
        <time>2020-06-26T18:52:35Z</time>
      </trkpt>
      <trkpt lat="49.35226" lon="6.70056">
        <ele>180.2</ele>
        <time>2020-06-26T18:52:36Z</time>
      </trkpt>
      <trkpt lat="49.3522" lon="6.70059">
        <ele>180.1</ele>
        <time>2020-06-26T18:52:37Z</time>
      </trkpt>
      <trkpt lat="49.35214" lon="6.70063">
        <ele>180</ele>
        <time>2020-06-26T18:52:38Z</time>
      </trkpt>
      <trkpt lat="49.35207" lon="6.70065">
        <ele>180.1</ele>
        <time>2020-06-26T18:52:39Z</time>
      </trkpt>
      <trkpt lat="49.35201" lon="6.70067">
        <ele>180.1</ele>
        <time>2020-06-26T18:52:40Z</time>
      </trkpt>
      <trkpt lat="49.35195" lon="6.70069">
        <ele>180.1</ele>
        <time>2020-06-26T18:52:41Z</time>
      </trkpt>
      <trkpt lat="49.35189" lon="6.70072">
        <ele>180.2</ele>
        <time>2020-06-26T18:52:42Z</time>
      </trkpt>
      <trkpt lat="49.35183" lon="6.70074">
        <ele>180.3</ele>
        <time>2020-06-26T18:52:43Z</time>
      </trkpt>
      <trkpt lat="49.35177" lon="6.70075">
        <ele>180.4</ele>
        <time>2020-06-26T18:52:44Z</time>
      </trkpt>
      <trkpt lat="49.35171" lon="6.70077">
        <ele>180.4</ele>
        <time>2020-06-26T18:52:45Z</time>
      </trkpt>
      <trkpt lat="49.35165" lon="6.70078">
        <ele>180.5</ele>
        <time>2020-06-26T18:52:46Z</time>
      </trkpt>
      <trkpt lat="49.3516" lon="6.70079">
        <ele>180.5</ele>
        <time>2020-06-26T18:52:47Z</time>
      </trkpt>
      <trkpt lat="49.35154" lon="6.7008">
        <ele>180.6</ele>
        <time>2020-06-26T18:52:48Z</time>
      </trkpt>
      <trkpt lat="49.35148" lon="6.70081">
        <ele>180.6</ele>
        <time>2020-06-26T18:52:49Z</time>
      </trkpt>
      <trkpt lat="49.35142" lon="6.70081">
        <ele>180.7</ele>
        <time>2020-06-26T18:52:50Z</time>
      </trkpt>
      <trkpt lat="49.35136" lon="6.70082">
        <ele>180.8</ele>
        <time>2020-06-26T18:52:51Z</time>
      </trkpt>
      <trkpt lat="49.35131" lon="6.70082">
        <ele>180.9</ele>
        <time>2020-06-26T18:52:52Z</time>
      </trkpt>
      <trkpt lat="49.35125" lon="6.70085">
        <ele>181</ele>
        <time>2020-06-26T18:52:53Z</time>
      </trkpt>
      <trkpt lat="49.35119" lon="6.70086">
        <ele>181</ele>
        <time>2020-06-26T18:52:54Z</time>
      </trkpt>
      <trkpt lat="49.35114" lon="6.70087">
        <ele>181.2</ele>
        <time>2020-06-26T18:52:55Z</time>
      </trkpt>
      <trkpt lat="49.35108" lon="6.70088">
        <ele>181.3</ele>
        <time>2020-06-26T18:52:56Z</time>
      </trkpt>
      <trkpt lat="49.35103" lon="6.70088">
        <ele>181.4</ele>
        <time>2020-06-26T18:52:57Z</time>
      </trkpt>
      <trkpt lat="49.35097" lon="6.70089">
        <ele>181.5</ele>
        <time>2020-06-26T18:52:58Z</time>
      </trkpt>
      <trkpt lat="49.35092" lon="6.7009">
        <ele>181.5</ele>
        <time>2020-06-26T18:52:59Z</time>
      </trkpt>
      <trkpt lat="49.35087" lon="6.70091">
        <ele>181.6</ele>
        <time>2020-06-26T18:53:00Z</time>
      </trkpt>
      <trkpt lat="49.35081" lon="6.70091">
        <ele>181.7</ele>
        <time>2020-06-26T18:53:01Z</time>
      </trkpt>
      <trkpt lat="49.35076" lon="6.70092">
        <ele>181.8</ele>
        <time>2020-06-26T18:53:02Z</time>
      </trkpt>
      <trkpt lat="49.35071" lon="6.70092">
        <ele>181.8</ele>
        <time>2020-06-26T18:53:03Z</time>
      </trkpt>
      <trkpt lat="49.35066" lon="6.70092">
        <ele>181.9</ele>
        <time>2020-06-26T18:53:04Z</time>
      </trkpt>
      <trkpt lat="49.35061" lon="6.70092">
        <ele>182</ele>
        <time>2020-06-26T18:53:05Z</time>
      </trkpt>
      <trkpt lat="49.35056" lon="6.70092">
        <ele>182.1</ele>
        <time>2020-06-26T18:53:06Z</time>
      </trkpt>
      <trkpt lat="49.35051" lon="6.70092">
        <ele>182.2</ele>
        <time>2020-06-26T18:53:07Z</time>
      </trkpt>
      <trkpt lat="49.35046" lon="6.70093">
        <ele>182.2</ele>
        <time>2020-06-26T18:53:08Z</time>
      </trkpt>
      <trkpt lat="49.35041" lon="6.70094">
        <ele>182.3</ele>
        <time>2020-06-26T18:53:09Z</time>
      </trkpt>
      <trkpt lat="49.35036" lon="6.70095">
        <ele>182.3</ele>
        <time>2020-06-26T18:53:10Z</time>
      </trkpt>
      <trkpt lat="49.35031" lon="6.70095">
        <ele>182.4</ele>
        <time>2020-06-26T18:53:11Z</time>
      </trkpt>
      <trkpt lat="49.35026" lon="6.70094">
        <ele>182.4</ele>
        <time>2020-06-26T18:53:12Z</time>
      </trkpt>
      <trkpt lat="49.35021" lon="6.70094">
        <ele>182.5</ele>
        <time>2020-06-26T18:53:13Z</time>
      </trkpt>
      <trkpt lat="49.35016" lon="6.70093">
        <ele>182.6</ele>
        <time>2020-06-26T18:53:14Z</time>
      </trkpt>
      <trkpt lat="49.35011" lon="6.70094">
        <ele>182.6</ele>
        <time>2020-06-26T18:53:15Z</time>
      </trkpt>
      <trkpt lat="49.35006" lon="6.70094">
        <ele>182.7</ele>
        <time>2020-06-26T18:53:16Z</time>
      </trkpt>
      <trkpt lat="49.35001" lon="6.70095">
        <ele>182.8</ele>
        <time>2020-06-26T18:53:17Z</time>
      </trkpt>
      <trkpt lat="49.34996" lon="6.70093">
        <ele>182.8</ele>
        <time>2020-06-26T18:53:18Z</time>
      </trkpt>
      <trkpt lat="49.3499" lon="6.70093">
        <ele>182.9</ele>
        <time>2020-06-26T18:53:19Z</time>
      </trkpt>
      <trkpt lat="49.34985" lon="6.70093">
        <ele>182.9</ele>
        <time>2020-06-26T18:53:20Z</time>
      </trkpt>
      <trkpt lat="49.3498" lon="6.70093">
        <ele>182.9</ele>
        <time>2020-06-26T18:53:21Z</time>
      </trkpt>
      <trkpt lat="49.34975" lon="6.70093">
        <ele>182.9</ele>
        <time>2020-06-26T18:53:22Z</time>
      </trkpt>
      <trkpt lat="49.3497" lon="6.70092">
        <ele>182.9</ele>
        <time>2020-06-26T18:53:23Z</time>
      </trkpt>
      <trkpt lat="49.34966" lon="6.70094">
        <ele>182.9</ele>
        <time>2020-06-26T18:53:24Z</time>
      </trkpt>
      <trkpt lat="49.34961" lon="6.70094">
        <ele>182.9</ele>
        <time>2020-06-26T18:53:25Z</time>
      </trkpt>
      <trkpt lat="49.34957" lon="6.7009">
        <ele>182.9</ele>
        <time>2020-06-26T18:53:26Z</time>
      </trkpt>
      <trkpt lat="49.34952" lon="6.70087">
        <ele>182.8</ele>
        <time>2020-06-26T18:53:27Z</time>
      </trkpt>
      <trkpt lat="49.34947" lon="6.70086">
        <ele>182.8</ele>
        <time>2020-06-26T18:53:28Z</time>
      </trkpt>
      <trkpt lat="49.34942" lon="6.70085">
        <ele>182.7</ele>
        <time>2020-06-26T18:53:29Z</time>
      </trkpt>
      <trkpt lat="49.34937" lon="6.70083">
        <ele>182.6</ele>
        <time>2020-06-26T18:53:30Z</time>
      </trkpt>
      <trkpt lat="49.34932" lon="6.7008">
        <ele>182.6</ele>
        <time>2020-06-26T18:53:31Z</time>
      </trkpt>
      <trkpt lat="49.34927" lon="6.70078">
        <ele>182.6</ele>
        <time>2020-06-26T18:53:32Z</time>
      </trkpt>
      <trkpt lat="49.34921" lon="6.70078">
        <ele>182.5</ele>
        <time>2020-06-26T18:53:33Z</time>
      </trkpt>
      <trkpt lat="49.34915" lon="6.70075">
        <ele>182.5</ele>
        <time>2020-06-26T18:53:34Z</time>
      </trkpt>
      <trkpt lat="49.34909" lon="6.70074">
        <ele>182.5</ele>
        <time>2020-06-26T18:53:35Z</time>
      </trkpt>
      <trkpt lat="49.34904" lon="6.70071">
        <ele>182.5</ele>
        <time>2020-06-26T18:53:36Z</time>
      </trkpt>
      <trkpt lat="49.34899" lon="6.70068">
        <ele>182.4</ele>
        <time>2020-06-26T18:53:37Z</time>
      </trkpt>
      <trkpt lat="49.34894" lon="6.70064">
        <ele>182.4</ele>
        <time>2020-06-26T18:53:38Z</time>
      </trkpt>
      <trkpt lat="49.34889" lon="6.70062">
        <ele>182.4</ele>
        <time>2020-06-26T18:53:39Z</time>
      </trkpt>
      <trkpt lat="49.34884" lon="6.7006">
        <ele>182.4</ele>
        <time>2020-06-26T18:53:40Z</time>
      </trkpt>
      <trkpt lat="49.3488" lon="6.70057">
        <ele>182.5</ele>
        <time>2020-06-26T18:53:41Z</time>
      </trkpt>
      <trkpt lat="49.34875" lon="6.70054">
        <ele>182.5</ele>
        <time>2020-06-26T18:53:42Z</time>
      </trkpt>
      <trkpt lat="49.34871" lon="6.70052">
        <ele>182.6</ele>
        <time>2020-06-26T18:53:43Z</time>
      </trkpt>
      <trkpt lat="49.34867" lon="6.70048">
        <ele>182.6</ele>
        <time>2020-06-26T18:53:44Z</time>
      </trkpt>
      <trkpt lat="49.34863" lon="6.70044">
        <ele>182.7</ele>
        <time>2020-06-26T18:53:45Z</time>
      </trkpt>
      <trkpt lat="49.34859" lon="6.70039">
        <ele>182.8</ele>
        <time>2020-06-26T18:53:46Z</time>
      </trkpt>
      <trkpt lat="49.34854" lon="6.70037">
        <ele>182.9</ele>
        <time>2020-06-26T18:53:47Z</time>
      </trkpt>
      <trkpt lat="49.3485" lon="6.70032">
        <ele>183</ele>
        <time>2020-06-26T18:53:48Z</time>
      </trkpt>
      <trkpt lat="49.34847" lon="6.70029">
        <ele>183.1</ele>
        <time>2020-06-26T18:53:49Z</time>
      </trkpt>
      <trkpt lat="49.34844" lon="6.70024">
        <ele>183.2</ele>
        <time>2020-06-26T18:53:50Z</time>
      </trkpt>
      <trkpt lat="49.34839" lon="6.70021">
        <ele>183.4</ele>
        <time>2020-06-26T18:53:51Z</time>
      </trkpt>
      <trkpt lat="49.34835" lon="6.70016">
        <ele>183.5</ele>
        <time>2020-06-26T18:53:52Z</time>
      </trkpt>
      <trkpt lat="49.34832" lon="6.70012">
        <ele>183.7</ele>
        <time>2020-06-26T18:53:53Z</time>
      </trkpt>
      <trkpt lat="49.3483" lon="6.70006">
        <ele>183.8</ele>
        <time>2020-06-26T18:53:54Z</time>
      </trkpt>
      <trkpt lat="49.34828" lon="6.70001">
        <ele>183.9</ele>
        <time>2020-06-26T18:53:55Z</time>
      </trkpt>
      <trkpt lat="49.34824" lon="6.69997">
        <ele>184</ele>
        <time>2020-06-26T18:53:56Z</time>
      </trkpt>
      <trkpt lat="49.34821" lon="6.69993">
        <ele>184.1</ele>
        <time>2020-06-26T18:53:57Z</time>
      </trkpt>
      <trkpt lat="49.34818" lon="6.69989">
        <ele>184.2</ele>
        <time>2020-06-26T18:53:58Z</time>
      </trkpt>
      <trkpt lat="49.34815" lon="6.69985">
        <ele>184.2</ele>
        <time>2020-06-26T18:53:59Z</time>
      </trkpt>
      <trkpt lat="49.34812" lon="6.69981">
        <ele>184.3</ele>
        <time>2020-06-26T18:54:00Z</time>
      </trkpt>
      <trkpt lat="49.34809" lon="6.69978">
        <ele>184.4</ele>
        <time>2020-06-26T18:54:01Z</time>
      </trkpt>
      <trkpt lat="49.34804" lon="6.69977">
        <ele>184.4</ele>
        <time>2020-06-26T18:54:02Z</time>
      </trkpt>
      <trkpt lat="49.348" lon="6.69975">
        <ele>184.5</ele>
        <time>2020-06-26T18:54:03Z</time>
      </trkpt>
      <trkpt lat="49.34796" lon="6.69972">
        <ele>184.5</ele>
        <time>2020-06-26T18:54:04Z</time>
      </trkpt>
      <trkpt lat="49.34792" lon="6.69969">
        <ele>184.5</ele>
        <time>2020-06-26T18:54:05Z</time>
      </trkpt>
      <trkpt lat="49.34788" lon="6.69968">
        <ele>184.5</ele>
        <time>2020-06-26T18:54:06Z</time>
      </trkpt>
      <trkpt lat="49.34784" lon="6.69966">
        <ele>184.5</ele>
        <time>2020-06-26T18:54:07Z</time>
      </trkpt>
      <trkpt lat="49.3478" lon="6.69964">
        <ele>184.5</ele>
        <time>2020-06-26T18:54:08Z</time>
      </trkpt>
      <trkpt lat="49.34776" lon="6.69962">
        <ele>184.5</ele>
        <time>2020-06-26T18:54:09Z</time>
      </trkpt>
      <trkpt lat="49.34772" lon="6.69961">
        <ele>184.5</ele>
        <time>2020-06-26T18:54:10Z</time>
      </trkpt>
      <trkpt lat="49.34769" lon="6.69956">
        <ele>184.5</ele>
        <time>2020-06-26T18:54:11Z</time>
      </trkpt>
      <trkpt lat="49.34765" lon="6.69954">
        <ele>184.4</ele>
        <time>2020-06-26T18:54:12Z</time>
      </trkpt>
      <trkpt lat="49.34761" lon="6.69953">
        <ele>184.4</ele>
        <time>2020-06-26T18:54:13Z</time>
      </trkpt>
      <trkpt lat="49.34757" lon="6.69951">
        <ele>184.3</ele>
        <time>2020-06-26T18:54:14Z</time>
      </trkpt>
      <trkpt lat="49.34752" lon="6.69949">
        <ele>184.2</ele>
        <time>2020-06-26T18:54:15Z</time>
      </trkpt>
      <trkpt lat="49.34747" lon="6.69949">
        <ele>184.1</ele>
        <time>2020-06-26T18:54:16Z</time>
      </trkpt>
      <trkpt lat="49.34743" lon="6.69945">
        <ele>184</ele>
        <time>2020-06-26T18:54:17Z</time>
      </trkpt>
      <trkpt lat="49.34738" lon="6.69943">
        <ele>183.9</ele>
        <time>2020-06-26T18:54:18Z</time>
      </trkpt>
      <trkpt lat="49.34733" lon="6.69942">
        <ele>183.8</ele>
        <time>2020-06-26T18:54:19Z</time>
      </trkpt>
      <trkpt lat="49.34728" lon="6.69941">
        <ele>183.7</ele>
        <time>2020-06-26T18:54:20Z</time>
      </trkpt>
      <trkpt lat="49.34723" lon="6.6994">
        <ele>183.5</ele>
        <time>2020-06-26T18:54:21Z</time>
      </trkpt>
      <trkpt lat="49.34717" lon="6.69938">
        <ele>183.3</ele>
        <time>2020-06-26T18:54:22Z</time>
      </trkpt>
      <trkpt lat="49.34711" lon="6.69937">
        <ele>183.1</ele>
        <time>2020-06-26T18:54:23Z</time>
      </trkpt>
      <trkpt lat="49.34705" lon="6.69936">
        <ele>182.9</ele>
        <time>2020-06-26T18:54:24Z</time>
      </trkpt>
      <trkpt lat="49.34699" lon="6.69935">
        <ele>182.7</ele>
        <time>2020-06-26T18:54:25Z</time>
      </trkpt>
      <trkpt lat="49.34693" lon="6.69933">
        <ele>182.5</ele>
        <time>2020-06-26T18:54:26Z</time>
      </trkpt>
      <trkpt lat="49.34686" lon="6.69933">
        <ele>182.3</ele>
        <time>2020-06-26T18:54:27Z</time>
      </trkpt>
      <trkpt lat="49.3468" lon="6.69934">
        <ele>182.1</ele>
        <time>2020-06-26T18:54:28Z</time>
      </trkpt>
      <trkpt lat="49.34675" lon="6.69934">
        <ele>182</ele>
        <time>2020-06-26T18:54:29Z</time>
      </trkpt>
      <trkpt lat="49.34669" lon="6.69935">
        <ele>181.9</ele>
        <time>2020-06-26T18:54:30Z</time>
      </trkpt>
      <trkpt lat="49.34663" lon="6.69936">
        <ele>181.9</ele>
        <time>2020-06-26T18:54:31Z</time>
      </trkpt>
      <trkpt lat="49.34657" lon="6.69937">
        <ele>181.8</ele>
        <time>2020-06-26T18:54:32Z</time>
      </trkpt>
      <trkpt lat="49.34652" lon="6.69936">
        <ele>181.8</ele>
        <time>2020-06-26T18:54:33Z</time>
      </trkpt>
      <trkpt lat="49.34647" lon="6.69937">
        <ele>181.8</ele>
        <time>2020-06-26T18:54:34Z</time>
      </trkpt>
      <trkpt lat="49.34644" lon="6.69939">
        <ele>181.9</ele>
        <time>2020-06-26T18:54:35Z</time>
      </trkpt>
      <trkpt lat="49.34641" lon="6.69943">
        <ele>181.9</ele>
        <time>2020-06-26T18:54:36Z</time>
      </trkpt>
      <trkpt lat="49.3464" lon="6.69944">
        <ele>182</ele>
        <time>2020-06-26T18:54:37Z</time>
      </trkpt>
      <trkpt lat="49.34637" lon="6.69948">
        <ele>182.1</ele>
        <time>2020-06-26T18:54:38Z</time>
      </trkpt>
      <trkpt lat="49.34635" lon="6.6995">
        <ele>182.1</ele>
        <time>2020-06-26T18:54:39Z</time>
      </trkpt>
      <trkpt lat="49.34632" lon="6.69952">
        <ele>182.2</ele>
        <time>2020-06-26T18:54:40Z</time>
      </trkpt>
      <trkpt lat="49.34628" lon="6.69954">
        <ele>182.3</ele>
        <time>2020-06-26T18:54:41Z</time>
      </trkpt>
      <trkpt lat="49.34624" lon="6.69956">
        <ele>182.4</ele>
        <time>2020-06-26T18:54:42Z</time>
      </trkpt>
      <trkpt lat="49.3462" lon="6.69959">
        <ele>182.6</ele>
        <time>2020-06-26T18:54:43Z</time>
      </trkpt>
      <trkpt lat="49.34616" lon="6.69963">
        <ele>182.7</ele>
        <time>2020-06-26T18:54:44Z</time>
      </trkpt>
      <trkpt lat="49.34613" lon="6.69966">
        <ele>182.8</ele>
        <time>2020-06-26T18:54:45Z</time>
      </trkpt>
      <trkpt lat="49.34609" lon="6.69968">
        <ele>182.9</ele>
        <time>2020-06-26T18:54:46Z</time>
      </trkpt>
      <trkpt lat="49.34606" lon="6.69971">
        <ele>183</ele>
        <time>2020-06-26T18:54:47Z</time>
      </trkpt>
      <trkpt lat="49.34602" lon="6.69974">
        <ele>183.2</ele>
        <time>2020-06-26T18:54:48Z</time>
      </trkpt>
      <trkpt lat="49.34599" lon="6.69978">
        <ele>183.3</ele>
        <time>2020-06-26T18:54:49Z</time>
      </trkpt>
      <trkpt lat="49.34596" lon="6.69981">
        <ele>183.4</ele>
        <time>2020-06-26T18:54:50Z</time>
      </trkpt>
      <trkpt lat="49.34592" lon="6.69984">
        <ele>183.6</ele>
        <time>2020-06-26T18:54:51Z</time>
      </trkpt>
      <trkpt lat="49.34588" lon="6.69986">
        <ele>183.7</ele>
        <time>2020-06-26T18:54:52Z</time>
      </trkpt>
      <trkpt lat="49.34584" lon="6.69988">
        <ele>183.9</ele>
        <time>2020-06-26T18:54:53Z</time>
      </trkpt>
      <trkpt lat="49.3458" lon="6.69991">
        <ele>184.1</ele>
        <time>2020-06-26T18:54:54Z</time>
      </trkpt>
      <trkpt lat="49.34576" lon="6.69994">
        <ele>184.3</ele>
        <time>2020-06-26T18:54:55Z</time>
      </trkpt>
      <trkpt lat="49.34573" lon="6.69997">
        <ele>184.5</ele>
        <time>2020-06-26T18:54:56Z</time>
      </trkpt>
      <trkpt lat="49.34569" lon="6.69999">
        <ele>184.7</ele>
        <time>2020-06-26T18:54:57Z</time>
      </trkpt>
      <trkpt lat="49.34567" lon="6.70003">
        <ele>184.9</ele>
        <time>2020-06-26T18:54:58Z</time>
      </trkpt>
      <trkpt lat="49.34564" lon="6.70005">
        <ele>185</ele>
        <time>2020-06-26T18:54:59Z</time>
      </trkpt>
      <trkpt lat="49.34561" lon="6.70007">
        <ele>185.2</ele>
        <time>2020-06-26T18:55:00Z</time>
      </trkpt>
      <trkpt lat="49.34557" lon="6.7001">
        <ele>185.3</ele>
        <time>2020-06-26T18:55:01Z</time>
      </trkpt>
      <trkpt lat="49.34554" lon="6.70013">
        <ele>185.4</ele>
        <time>2020-06-26T18:55:02Z</time>
      </trkpt>
      <trkpt lat="49.34551" lon="6.70016">
        <ele>185.6</ele>
        <time>2020-06-26T18:55:03Z</time>
      </trkpt>
      <trkpt lat="49.34549" lon="6.7002">
        <ele>185.7</ele>
        <time>2020-06-26T18:55:04Z</time>
      </trkpt>
      <trkpt lat="49.34547" lon="6.70025">
        <ele>185.8</ele>
        <time>2020-06-26T18:55:05Z</time>
      </trkpt>
      <trkpt lat="49.34545" lon="6.7003">
        <ele>186</ele>
        <time>2020-06-26T18:55:06Z</time>
      </trkpt>
      <trkpt lat="49.34542" lon="6.70034">
        <ele>186.1</ele>
        <time>2020-06-26T18:55:07Z</time>
      </trkpt>
      <trkpt lat="49.34539" lon="6.70038">
        <ele>186.2</ele>
        <time>2020-06-26T18:55:08Z</time>
      </trkpt>
      <trkpt lat="49.34536" lon="6.70041">
        <ele>186.3</ele>
        <time>2020-06-26T18:55:09Z</time>
      </trkpt>
      <trkpt lat="49.34532" lon="6.70042">
        <ele>186.5</ele>
        <time>2020-06-26T18:55:10Z</time>
      </trkpt>
      <trkpt lat="49.34529" lon="6.70045">
        <ele>186.6</ele>
        <time>2020-06-26T18:55:11Z</time>
      </trkpt>
      <trkpt lat="49.34526" lon="6.70049">
        <ele>186.7</ele>
        <time>2020-06-26T18:55:12Z</time>
      </trkpt>
      <trkpt lat="49.34522" lon="6.70054">
        <ele>186.8</ele>
        <time>2020-06-26T18:55:13Z</time>
      </trkpt>
      <trkpt lat="49.34517" lon="6.70059">
        <ele>187</ele>
        <time>2020-06-26T18:55:14Z</time>
      </trkpt>
      <trkpt lat="49.34514" lon="6.70064">
        <ele>187.1</ele>
        <time>2020-06-26T18:55:15Z</time>
      </trkpt>
      <trkpt lat="49.34509" lon="6.70068">
        <ele>187.3</ele>
        <time>2020-06-26T18:55:16Z</time>
      </trkpt>
      <trkpt lat="49.34506" lon="6.70071">
        <ele>187.4</ele>
        <time>2020-06-26T18:55:17Z</time>
      </trkpt>
      <trkpt lat="49.34502" lon="6.70075">
        <ele>187.5</ele>
        <time>2020-06-26T18:55:18Z</time>
      </trkpt>
      <trkpt lat="49.34499" lon="6.70079">
        <ele>187.6</ele>
        <time>2020-06-26T18:55:19Z</time>
      </trkpt>
      <trkpt lat="49.34495" lon="6.70084">
        <ele>187.6</ele>
        <time>2020-06-26T18:55:20Z</time>
      </trkpt>
      <trkpt lat="49.34492" lon="6.70087">
        <ele>187.6</ele>
        <time>2020-06-26T18:55:21Z</time>
      </trkpt>
      <trkpt lat="49.3449" lon="6.7009">
        <ele>187.6</ele>
        <time>2020-06-26T18:55:22Z</time>
      </trkpt>
      <trkpt lat="49.34486" lon="6.70093">
        <ele>187.7</ele>
        <time>2020-06-26T18:55:23Z</time>
      </trkpt>
      <trkpt lat="49.34482" lon="6.70099">
        <ele>187.7</ele>
        <time>2020-06-26T18:55:24Z</time>
      </trkpt>
      <trkpt lat="49.34478" lon="6.70104">
        <ele>187.8</ele>
        <time>2020-06-26T18:55:25Z</time>
      </trkpt>
      <trkpt lat="49.34473" lon="6.7011">
        <ele>187.8</ele>
        <time>2020-06-26T18:55:26Z</time>
      </trkpt>
      <trkpt lat="49.3447" lon="6.70114">
        <ele>187.8</ele>
        <time>2020-06-26T18:55:27Z</time>
      </trkpt>
      <trkpt lat="49.34467" lon="6.70118">
        <ele>187.8</ele>
        <time>2020-06-26T18:55:28Z</time>
      </trkpt>
      <trkpt lat="49.34464" lon="6.70121">
        <ele>187.9</ele>
        <time>2020-06-26T18:55:29Z</time>
      </trkpt>
      <trkpt lat="49.34461" lon="6.70126">
        <ele>187.9</ele>
        <time>2020-06-26T18:55:30Z</time>
      </trkpt>
      <trkpt lat="49.34458" lon="6.70131">
        <ele>187.9</ele>
        <time>2020-06-26T18:55:31Z</time>
      </trkpt>
      <trkpt lat="49.34455" lon="6.70136">
        <ele>187.9</ele>
        <time>2020-06-26T18:55:32Z</time>
      </trkpt>
      <trkpt lat="49.34451" lon="6.70142">
        <ele>187.9</ele>
        <time>2020-06-26T18:55:33Z</time>
      </trkpt>
      <trkpt lat="49.34448" lon="6.70147">
        <ele>187.9</ele>
        <time>2020-06-26T18:55:34Z</time>
      </trkpt>
      <trkpt lat="49.34444" lon="6.70154">
        <ele>188</ele>
        <time>2020-06-26T18:55:35Z</time>
      </trkpt>
      <trkpt lat="49.34441" lon="6.70159">
        <ele>188</ele>
        <time>2020-06-26T18:55:36Z</time>
      </trkpt>
      <trkpt lat="49.34437" lon="6.70164">
        <ele>188.1</ele>
        <time>2020-06-26T18:55:37Z</time>
      </trkpt>
      <trkpt lat="49.34434" lon="6.7017">
        <ele>188</ele>
        <time>2020-06-26T18:55:38Z</time>
      </trkpt>
      <trkpt lat="49.3443" lon="6.70176">
        <ele>187.9</ele>
        <time>2020-06-26T18:55:39Z</time>
      </trkpt>
      <trkpt lat="49.34426" lon="6.70184">
        <ele>187.8</ele>
        <time>2020-06-26T18:55:40Z</time>
      </trkpt>
      <trkpt lat="49.34421" lon="6.70192">
        <ele>187.7</ele>
        <time>2020-06-26T18:55:41Z</time>
      </trkpt>
      <trkpt lat="49.34417" lon="6.70199">
        <ele>187.6</ele>
        <time>2020-06-26T18:55:42Z</time>
      </trkpt>
      <trkpt lat="49.34413" lon="6.70208">
        <ele>187.6</ele>
        <time>2020-06-26T18:55:43Z</time>
      </trkpt>
      <trkpt lat="49.34409" lon="6.70216">
        <ele>187.6</ele>
        <time>2020-06-26T18:55:44Z</time>
      </trkpt>
      <trkpt lat="49.34406" lon="6.70224">
        <ele>187.6</ele>
        <time>2020-06-26T18:55:45Z</time>
      </trkpt>
      <trkpt lat="49.34404" lon="6.70231">
        <ele>187.6</ele>
        <time>2020-06-26T18:55:46Z</time>
      </trkpt>
      <trkpt lat="49.34401" lon="6.70239">
        <ele>187.6</ele>
        <time>2020-06-26T18:55:47Z</time>
      </trkpt>
      <trkpt lat="49.34398" lon="6.70245">
        <ele>187.6</ele>
        <time>2020-06-26T18:55:48Z</time>
      </trkpt>
      <trkpt lat="49.34395" lon="6.70253">
        <ele>187.6</ele>
        <time>2020-06-26T18:55:49Z</time>
      </trkpt>
      <trkpt lat="49.34392" lon="6.70261">
        <ele>187.6</ele>
        <time>2020-06-26T18:55:50Z</time>
      </trkpt>
      <trkpt lat="49.34389" lon="6.70268">
        <ele>187.7</ele>
        <time>2020-06-26T18:55:51Z</time>
      </trkpt>
      <trkpt lat="49.34387" lon="6.70277">
        <ele>187.7</ele>
        <time>2020-06-26T18:55:52Z</time>
      </trkpt>
      <trkpt lat="49.34384" lon="6.70286">
        <ele>187.7</ele>
        <time>2020-06-26T18:55:53Z</time>
      </trkpt>
      <trkpt lat="49.34381" lon="6.70293">
        <ele>187.6</ele>
        <time>2020-06-26T18:55:54Z</time>
      </trkpt>
      <trkpt lat="49.34378" lon="6.70301">
        <ele>187.5</ele>
        <time>2020-06-26T18:55:55Z</time>
      </trkpt>
      <trkpt lat="49.34375" lon="6.70312">
        <ele>187.4</ele>
        <time>2020-06-26T18:55:56Z</time>
      </trkpt>
      <trkpt lat="49.34372" lon="6.70321">
        <ele>187.3</ele>
        <time>2020-06-26T18:55:57Z</time>
      </trkpt>
      <trkpt lat="49.34369" lon="6.70331">
        <ele>187.2</ele>
        <time>2020-06-26T18:55:58Z</time>
      </trkpt>
      <trkpt lat="49.34366" lon="6.70339">
        <ele>187.2</ele>
        <time>2020-06-26T18:55:59Z</time>
      </trkpt>
      <trkpt lat="49.34362" lon="6.70349">
        <ele>187.2</ele>
        <time>2020-06-26T18:56:00Z</time>
      </trkpt>
      <trkpt lat="49.34359" lon="6.70358">
        <ele>187.2</ele>
        <time>2020-06-26T18:56:01Z</time>
      </trkpt>
      <trkpt lat="49.34355" lon="6.70366">
        <ele>187.2</ele>
        <time>2020-06-26T18:56:02Z</time>
      </trkpt>
      <trkpt lat="49.34351" lon="6.70374">
        <ele>187.2</ele>
        <time>2020-06-26T18:56:03Z</time>
      </trkpt>
      <trkpt lat="49.34348" lon="6.70382">
        <ele>187.2</ele>
        <time>2020-06-26T18:56:04Z</time>
      </trkpt>
      <trkpt lat="49.34344" lon="6.7039">
        <ele>187.3</ele>
        <time>2020-06-26T18:56:05Z</time>
      </trkpt>
      <trkpt lat="49.3434" lon="6.70398">
        <ele>187.3</ele>
        <time>2020-06-26T18:56:06Z</time>
      </trkpt>
      <trkpt lat="49.34336" lon="6.70405">
        <ele>187.4</ele>
        <time>2020-06-26T18:56:07Z</time>
      </trkpt>
      <trkpt lat="49.34332" lon="6.70413">
        <ele>187.4</ele>
        <time>2020-06-26T18:56:08Z</time>
      </trkpt>
      <trkpt lat="49.34329" lon="6.70422">
        <ele>187.5</ele>
        <time>2020-06-26T18:56:09Z</time>
      </trkpt>
      <trkpt lat="49.34325" lon="6.7043">
        <ele>187.5</ele>
        <time>2020-06-26T18:56:10Z</time>
      </trkpt>
      <trkpt lat="49.34321" lon="6.70437">
        <ele>187.5</ele>
        <time>2020-06-26T18:56:11Z</time>
      </trkpt>
      <trkpt lat="49.34317" lon="6.70444">
        <ele>187.6</ele>
        <time>2020-06-26T18:56:12Z</time>
      </trkpt>
      <trkpt lat="49.34314" lon="6.7045">
        <ele>187.6</ele>
        <time>2020-06-26T18:56:13Z</time>
      </trkpt>
      <trkpt lat="49.3431" lon="6.70458">
        <ele>187.7</ele>
        <time>2020-06-26T18:56:14Z</time>
      </trkpt>
      <trkpt lat="49.34306" lon="6.70465">
        <ele>187.8</ele>
        <time>2020-06-26T18:56:15Z</time>
      </trkpt>
      <trkpt lat="49.34303" lon="6.70471">
        <ele>187.8</ele>
        <time>2020-06-26T18:56:16Z</time>
      </trkpt>
      <trkpt lat="49.343" lon="6.70476">
        <ele>187.9</ele>
        <time>2020-06-26T18:56:17Z</time>
      </trkpt>
      <trkpt lat="49.34296" lon="6.70482">
        <ele>188</ele>
        <time>2020-06-26T18:56:18Z</time>
      </trkpt>
      <trkpt lat="49.34292" lon="6.7049">
        <ele>188.1</ele>
        <time>2020-06-26T18:56:19Z</time>
      </trkpt>
      <trkpt lat="49.34289" lon="6.70496">
        <ele>188.2</ele>
        <time>2020-06-26T18:56:20Z</time>
      </trkpt>
      <trkpt lat="49.34285" lon="6.70503">
        <ele>188.3</ele>
        <time>2020-06-26T18:56:21Z</time>
      </trkpt>
      <trkpt lat="49.34282" lon="6.7051">
        <ele>188.4</ele>
        <time>2020-06-26T18:56:22Z</time>
      </trkpt>
      <trkpt lat="49.34278" lon="6.70517">
        <ele>188.5</ele>
        <time>2020-06-26T18:56:23Z</time>
      </trkpt>
      <trkpt lat="49.34275" lon="6.70523">
        <ele>188.5</ele>
        <time>2020-06-26T18:56:24Z</time>
      </trkpt>
      <trkpt lat="49.34272" lon="6.7053">
        <ele>188.6</ele>
        <time>2020-06-26T18:56:25Z</time>
      </trkpt>
      <trkpt lat="49.34269" lon="6.70535">
        <ele>188.7</ele>
        <time>2020-06-26T18:56:26Z</time>
      </trkpt>
      <trkpt lat="49.34265" lon="6.70541">
        <ele>188.8</ele>
        <time>2020-06-26T18:56:27Z</time>
      </trkpt>
      <trkpt lat="49.34262" lon="6.70547">
        <ele>188.9</ele>
        <time>2020-06-26T18:56:28Z</time>
      </trkpt>
      <trkpt lat="49.34258" lon="6.70554">
        <ele>189</ele>
        <time>2020-06-26T18:56:29Z</time>
      </trkpt>
      <trkpt lat="49.34254" lon="6.70559">
        <ele>189.1</ele>
        <time>2020-06-26T18:56:30Z</time>
      </trkpt>
      <trkpt lat="49.34251" lon="6.70565">
        <ele>189.2</ele>
        <time>2020-06-26T18:56:31Z</time>
      </trkpt>
      <trkpt lat="49.34247" lon="6.7057">
        <ele>189.2</ele>
        <time>2020-06-26T18:56:32Z</time>
      </trkpt>
      <trkpt lat="49.34243" lon="6.70576">
        <ele>189.3</ele>
        <time>2020-06-26T18:56:33Z</time>
      </trkpt>
      <trkpt lat="49.3424" lon="6.70582">
        <ele>189.3</ele>
        <time>2020-06-26T18:56:34Z</time>
      </trkpt>
      <trkpt lat="49.34236" lon="6.70588">
        <ele>189.4</ele>
        <time>2020-06-26T18:56:35Z</time>
      </trkpt>
      <trkpt lat="49.34232" lon="6.70593">
        <ele>189.4</ele>
        <time>2020-06-26T18:56:36Z</time>
      </trkpt>
      <trkpt lat="49.34228" lon="6.70598">
        <ele>189.4</ele>
        <time>2020-06-26T18:56:37Z</time>
      </trkpt>
      <trkpt lat="49.34225" lon="6.70604">
        <ele>189.5</ele>
        <time>2020-06-26T18:56:38Z</time>
      </trkpt>
      <trkpt lat="49.34221" lon="6.70611">
        <ele>189.5</ele>
        <time>2020-06-26T18:56:39Z</time>
      </trkpt>
      <trkpt lat="49.34217" lon="6.70619">
        <ele>189.6</ele>
        <time>2020-06-26T18:56:40Z</time>
      </trkpt>
      <trkpt lat="49.34214" lon="6.70626">
        <ele>189.6</ele>
        <time>2020-06-26T18:56:41Z</time>
      </trkpt>
      <trkpt lat="49.34211" lon="6.70632">
        <ele>189.6</ele>
        <time>2020-06-26T18:56:42Z</time>
      </trkpt>
      <trkpt lat="49.34207" lon="6.7064">
        <ele>189.5</ele>
        <time>2020-06-26T18:56:43Z</time>
      </trkpt>
      <trkpt lat="49.34204" lon="6.70646">
        <ele>189.5</ele>
        <time>2020-06-26T18:56:44Z</time>
      </trkpt>
      <trkpt lat="49.34201" lon="6.70652">
        <ele>189.5</ele>
        <time>2020-06-26T18:56:45Z</time>
      </trkpt>
      <trkpt lat="49.34197" lon="6.70658">
        <ele>189.5</ele>
        <time>2020-06-26T18:56:46Z</time>
      </trkpt>
      <trkpt lat="49.34194" lon="6.70664">
        <ele>189.5</ele>
        <time>2020-06-26T18:56:47Z</time>
      </trkpt>
      <trkpt lat="49.34191" lon="6.70671">
        <ele>189.4</ele>
        <time>2020-06-26T18:56:48Z</time>
      </trkpt>
      <trkpt lat="49.34188" lon="6.70678">
        <ele>189.3</ele>
        <time>2020-06-26T18:56:49Z</time>
      </trkpt>
      <trkpt lat="49.34183" lon="6.70687">
        <ele>189.2</ele>
        <time>2020-06-26T18:56:50Z</time>
      </trkpt>
      <trkpt lat="49.3418" lon="6.70695">
        <ele>189</ele>
        <time>2020-06-26T18:56:51Z</time>
      </trkpt>
      <trkpt lat="49.34177" lon="6.70703">
        <ele>188.9</ele>
        <time>2020-06-26T18:56:52Z</time>
      </trkpt>
      <trkpt lat="49.34173" lon="6.70711">
        <ele>188.7</ele>
        <time>2020-06-26T18:56:53Z</time>
      </trkpt>
      <trkpt lat="49.34169" lon="6.70719">
        <ele>188.5</ele>
        <time>2020-06-26T18:56:54Z</time>
      </trkpt>
      <trkpt lat="49.34165" lon="6.70725">
        <ele>188.3</ele>
        <time>2020-06-26T18:56:55Z</time>
      </trkpt>
      <trkpt lat="49.34161" lon="6.70732">
        <ele>188.1</ele>
        <time>2020-06-26T18:56:56Z</time>
      </trkpt>
      <trkpt lat="49.34159" lon="6.70739">
        <ele>187.9</ele>
        <time>2020-06-26T18:56:57Z</time>
      </trkpt>
      <trkpt lat="49.34154" lon="6.7075">
        <ele>187.6</ele>
        <time>2020-06-26T18:56:58Z</time>
      </trkpt>
      <trkpt lat="49.3415" lon="6.70759">
        <ele>187.2</ele>
        <time>2020-06-26T18:56:59Z</time>
      </trkpt>
      <trkpt lat="49.34145" lon="6.70771">
        <ele>186.9</ele>
        <time>2020-06-26T18:57:00Z</time>
      </trkpt>
      <trkpt lat="49.34141" lon="6.7078">
        <ele>186.6</ele>
        <time>2020-06-26T18:57:01Z</time>
      </trkpt>
      <trkpt lat="49.34137" lon="6.7079">
        <ele>186.3</ele>
        <time>2020-06-26T18:57:02Z</time>
      </trkpt>
      <trkpt lat="49.34133" lon="6.70801">
        <ele>186</ele>
        <time>2020-06-26T18:57:03Z</time>
      </trkpt>
      <trkpt lat="49.34128" lon="6.70813">
        <ele>185.6</ele>
        <time>2020-06-26T18:57:04Z</time>
      </trkpt>
      <trkpt lat="49.34124" lon="6.70824">
        <ele>185.3</ele>
        <time>2020-06-26T18:57:05Z</time>
      </trkpt>
      <trkpt lat="49.34119" lon="6.70834">
        <ele>185</ele>
        <time>2020-06-26T18:57:06Z</time>
      </trkpt>
      <trkpt lat="49.34115" lon="6.70844">
        <ele>184.8</ele>
        <time>2020-06-26T18:57:07Z</time>
      </trkpt>
      <trkpt lat="49.34111" lon="6.70855">
        <ele>184.5</ele>
        <time>2020-06-26T18:57:08Z</time>
      </trkpt>
      <trkpt lat="49.34106" lon="6.70866">
        <ele>184.4</ele>
        <time>2020-06-26T18:57:09Z</time>
      </trkpt>
      <trkpt lat="49.34102" lon="6.70877">
        <ele>184.2</ele>
        <time>2020-06-26T18:57:10Z</time>
      </trkpt>
      <trkpt lat="49.34098" lon="6.70887">
        <ele>184</ele>
        <time>2020-06-26T18:57:11Z</time>
      </trkpt>
      <trkpt lat="49.34094" lon="6.70898">
        <ele>183.9</ele>
        <time>2020-06-26T18:57:12Z</time>
      </trkpt>
      <trkpt lat="49.34089" lon="6.70908">
        <ele>183.8</ele>
        <time>2020-06-26T18:57:13Z</time>
      </trkpt>
      <trkpt lat="49.34085" lon="6.70918">
        <ele>183.6</ele>
        <time>2020-06-26T18:57:14Z</time>
      </trkpt>
      <trkpt lat="49.34081" lon="6.70928">
        <ele>183.6</ele>
        <time>2020-06-26T18:57:15Z</time>
      </trkpt>
      <trkpt lat="49.34077" lon="6.70937">
        <ele>183.5</ele>
        <time>2020-06-26T18:57:16Z</time>
      </trkpt>
      <trkpt lat="49.34072" lon="6.70947">
        <ele>183.5</ele>
        <time>2020-06-26T18:57:17Z</time>
      </trkpt>
      <trkpt lat="49.34069" lon="6.70957">
        <ele>183.4</ele>
        <time>2020-06-26T18:57:18Z</time>
      </trkpt>
      <trkpt lat="49.34065" lon="6.70967">
        <ele>183.4</ele>
        <time>2020-06-26T18:57:19Z</time>
      </trkpt>
      <trkpt lat="49.34061" lon="6.70977">
        <ele>183.4</ele>
        <time>2020-06-26T18:57:20Z</time>
      </trkpt>
      <trkpt lat="49.34057" lon="6.70986">
        <ele>183.5</ele>
        <time>2020-06-26T18:57:21Z</time>
      </trkpt>
      <trkpt lat="49.34053" lon="6.70995">
        <ele>183.5</ele>
        <time>2020-06-26T18:57:22Z</time>
      </trkpt>
      <trkpt lat="49.34049" lon="6.71005">
        <ele>183.5</ele>
        <time>2020-06-26T18:57:23Z</time>
      </trkpt>
      <trkpt lat="49.34045" lon="6.71014">
        <ele>183.6</ele>
        <time>2020-06-26T18:57:24Z</time>
      </trkpt>
      <trkpt lat="49.34041" lon="6.71023">
        <ele>183.7</ele>
        <time>2020-06-26T18:57:25Z</time>
      </trkpt>
      <trkpt lat="49.34037" lon="6.71032">
        <ele>183.7</ele>
        <time>2020-06-26T18:57:26Z</time>
      </trkpt>
      <trkpt lat="49.34033" lon="6.71041">
        <ele>183.8</ele>
        <time>2020-06-26T18:57:27Z</time>
      </trkpt>
      <trkpt lat="49.34029" lon="6.71049">
        <ele>183.8</ele>
        <time>2020-06-26T18:57:28Z</time>
      </trkpt>
      <trkpt lat="49.34026" lon="6.71058">
        <ele>183.9</ele>
        <time>2020-06-26T18:57:29Z</time>
      </trkpt>
      <trkpt lat="49.34022" lon="6.71068">
        <ele>184</ele>
        <time>2020-06-26T18:57:30Z</time>
      </trkpt>
      <trkpt lat="49.34019" lon="6.71076">
        <ele>184</ele>
        <time>2020-06-26T18:57:31Z</time>
      </trkpt>
      <trkpt lat="49.34015" lon="6.71085">
        <ele>184.1</ele>
        <time>2020-06-26T18:57:32Z</time>
      </trkpt>
      <trkpt lat="49.34011" lon="6.71093">
        <ele>184.1</ele>
        <time>2020-06-26T18:57:33Z</time>
      </trkpt>
      <trkpt lat="49.34008" lon="6.71102">
        <ele>184.2</ele>
        <time>2020-06-26T18:57:34Z</time>
      </trkpt>
      <trkpt lat="49.34004" lon="6.71111">
        <ele>184.3</ele>
        <time>2020-06-26T18:57:35Z</time>
      </trkpt>
      <trkpt lat="49.34001" lon="6.7112">
        <ele>184.3</ele>
        <time>2020-06-26T18:57:36Z</time>
      </trkpt>
      <trkpt lat="49.33997" lon="6.71128">
        <ele>184.4</ele>
        <time>2020-06-26T18:57:37Z</time>
      </trkpt>
      <trkpt lat="49.33994" lon="6.71137">
        <ele>184.5</ele>
        <time>2020-06-26T18:57:38Z</time>
      </trkpt>
      <trkpt lat="49.33991" lon="6.71146">
        <ele>184.6</ele>
        <time>2020-06-26T18:57:39Z</time>
      </trkpt>
      <trkpt lat="49.33988" lon="6.71155">
        <ele>184.7</ele>
        <time>2020-06-26T18:57:40Z</time>
      </trkpt>
      <trkpt lat="49.33984" lon="6.71163">
        <ele>184.7</ele>
        <time>2020-06-26T18:57:41Z</time>
      </trkpt>
      <trkpt lat="49.33981" lon="6.71172">
        <ele>184.8</ele>
        <time>2020-06-26T18:57:42Z</time>
      </trkpt>
      <trkpt lat="49.33977" lon="6.71181">
        <ele>184.9</ele>
        <time>2020-06-26T18:57:43Z</time>
      </trkpt>
      <trkpt lat="49.33974" lon="6.71189">
        <ele>184.9</ele>
        <time>2020-06-26T18:57:44Z</time>
      </trkpt>
      <trkpt lat="49.3397" lon="6.71198">
        <ele>185</ele>
        <time>2020-06-26T18:57:45Z</time>
      </trkpt>
      <trkpt lat="49.33967" lon="6.71208">
        <ele>185.1</ele>
        <time>2020-06-26T18:57:46Z</time>
      </trkpt>
      <trkpt lat="49.33964" lon="6.71217">
        <ele>185.1</ele>
        <time>2020-06-26T18:57:47Z</time>
      </trkpt>
      <trkpt lat="49.33961" lon="6.71226">
        <ele>185.1</ele>
        <time>2020-06-26T18:57:48Z</time>
      </trkpt>
      <trkpt lat="49.33958" lon="6.71235">
        <ele>185.2</ele>
        <time>2020-06-26T18:57:49Z</time>
      </trkpt>
      <trkpt lat="49.33955" lon="6.71244">
        <ele>185.2</ele>
        <time>2020-06-26T18:57:50Z</time>
      </trkpt>
      <trkpt lat="49.33952" lon="6.71252">
        <ele>185.3</ele>
        <time>2020-06-26T18:57:51Z</time>
      </trkpt>
      <trkpt lat="49.33949" lon="6.71261">
        <ele>185.3</ele>
        <time>2020-06-26T18:57:52Z</time>
      </trkpt>
      <trkpt lat="49.33946" lon="6.7127">
        <ele>185.3</ele>
        <time>2020-06-26T18:57:53Z</time>
      </trkpt>
      <trkpt lat="49.33944" lon="6.71278">
        <ele>185.4</ele>
        <time>2020-06-26T18:57:54Z</time>
      </trkpt>
      <trkpt lat="49.33942" lon="6.71287">
        <ele>185.5</ele>
        <time>2020-06-26T18:57:55Z</time>
      </trkpt>
      <trkpt lat="49.33939" lon="6.71296">
        <ele>185.6</ele>
        <time>2020-06-26T18:57:56Z</time>
      </trkpt>
      <trkpt lat="49.33937" lon="6.71306">
        <ele>185.8</ele>
        <time>2020-06-26T18:57:57Z</time>
      </trkpt>
      <trkpt lat="49.33935" lon="6.71315">
        <ele>185.6</ele>
        <time>2020-06-26T18:57:58Z</time>
      </trkpt>
      <trkpt lat="49.33933" lon="6.71324">
        <ele>185.4</ele>
        <time>2020-06-26T18:57:59Z</time>
      </trkpt>
      <trkpt lat="49.33931" lon="6.71333">
        <ele>185.3</ele>
        <time>2020-06-26T18:58:00Z</time>
      </trkpt>
      <trkpt lat="49.33928" lon="6.71342">
        <ele>185.2</ele>
        <time>2020-06-26T18:58:01Z</time>
      </trkpt>
      <trkpt lat="49.33926" lon="6.71352">
        <ele>185.2</ele>
        <time>2020-06-26T18:58:02Z</time>
      </trkpt>
      <trkpt lat="49.33924" lon="6.71362">
        <ele>185.2</ele>
        <time>2020-06-26T18:58:03Z</time>
      </trkpt>
      <trkpt lat="49.33922" lon="6.71371">
        <ele>185.2</ele>
        <time>2020-06-26T18:58:04Z</time>
      </trkpt>
      <trkpt lat="49.33919" lon="6.7138">
        <ele>185.3</ele>
        <time>2020-06-26T18:58:05Z</time>
      </trkpt>
      <trkpt lat="49.33916" lon="6.71388">
        <ele>185.3</ele>
        <time>2020-06-26T18:58:06Z</time>
      </trkpt>
      <trkpt lat="49.33914" lon="6.71397">
        <ele>185.3</ele>
        <time>2020-06-26T18:58:07Z</time>
      </trkpt>
      <trkpt lat="49.33911" lon="6.71405">
        <ele>185.2</ele>
        <time>2020-06-26T18:58:08Z</time>
      </trkpt>
      <trkpt lat="49.33908" lon="6.71413">
        <ele>185.2</ele>
        <time>2020-06-26T18:58:09Z</time>
      </trkpt>
      <trkpt lat="49.33905" lon="6.71421">
        <ele>185.2</ele>
        <time>2020-06-26T18:58:10Z</time>
      </trkpt>
      <trkpt lat="49.33902" lon="6.71429">
        <ele>185.3</ele>
        <time>2020-06-26T18:58:11Z</time>
      </trkpt>
      <trkpt lat="49.33898" lon="6.71437">
        <ele>185.3</ele>
        <time>2020-06-26T18:58:12Z</time>
      </trkpt>
      <trkpt lat="49.33896" lon="6.71445">
        <ele>185.3</ele>
        <time>2020-06-26T18:58:13Z</time>
      </trkpt>
      <trkpt lat="49.33892" lon="6.71454">
        <ele>185.3</ele>
        <time>2020-06-26T18:58:14Z</time>
      </trkpt>
      <trkpt lat="49.33889" lon="6.71461">
        <ele>185.4</ele>
        <time>2020-06-26T18:58:15Z</time>
      </trkpt>
      <trkpt lat="49.33886" lon="6.71469">
        <ele>185.4</ele>
        <time>2020-06-26T18:58:16Z</time>
      </trkpt>
      <trkpt lat="49.33883" lon="6.71477">
        <ele>185.6</ele>
        <time>2020-06-26T18:58:17Z</time>
      </trkpt>
      <trkpt lat="49.3388" lon="6.71485">
        <ele>185.5</ele>
        <time>2020-06-26T18:58:18Z</time>
      </trkpt>
      <trkpt lat="49.33877" lon="6.71492">
        <ele>185.4</ele>
        <time>2020-06-26T18:58:19Z</time>
      </trkpt>
      <trkpt lat="49.33873" lon="6.71499">
        <ele>185.3</ele>
        <time>2020-06-26T18:58:20Z</time>
      </trkpt>
      <trkpt lat="49.33868" lon="6.71506">
        <ele>185.1</ele>
        <time>2020-06-26T18:58:21Z</time>
      </trkpt>
      <trkpt lat="49.33863" lon="6.71513">
        <ele>185</ele>
        <time>2020-06-26T18:58:22Z</time>
      </trkpt>
      <trkpt lat="49.33859" lon="6.7152">
        <ele>184.9</ele>
        <time>2020-06-26T18:58:23Z</time>
      </trkpt>
      <trkpt lat="49.33854" lon="6.71527">
        <ele>184.8</ele>
        <time>2020-06-26T18:58:24Z</time>
      </trkpt>
      <trkpt lat="49.33849" lon="6.71534">
        <ele>184.7</ele>
        <time>2020-06-26T18:58:25Z</time>
      </trkpt>
      <trkpt lat="49.33845" lon="6.71543">
        <ele>184.6</ele>
        <time>2020-06-26T18:58:26Z</time>
      </trkpt>
      <trkpt lat="49.33841" lon="6.7155">
        <ele>184.5</ele>
        <time>2020-06-26T18:58:27Z</time>
      </trkpt>
      <trkpt lat="49.33836" lon="6.71558">
        <ele>184.4</ele>
        <time>2020-06-26T18:58:28Z</time>
      </trkpt>
      <trkpt lat="49.33832" lon="6.71566">
        <ele>184.4</ele>
        <time>2020-06-26T18:58:29Z</time>
      </trkpt>
      <trkpt lat="49.33827" lon="6.71572">
        <ele>184.3</ele>
        <time>2020-06-26T18:58:30Z</time>
      </trkpt>
      <trkpt lat="49.33822" lon="6.71579">
        <ele>184.2</ele>
        <time>2020-06-26T18:58:31Z</time>
      </trkpt>
      <trkpt lat="49.33817" lon="6.71584">
        <ele>184.2</ele>
        <time>2020-06-26T18:58:32Z</time>
      </trkpt>
      <trkpt lat="49.33813" lon="6.7159">
        <ele>184.1</ele>
        <time>2020-06-26T18:58:33Z</time>
      </trkpt>
      <trkpt lat="49.33808" lon="6.71596">
        <ele>184</ele>
        <time>2020-06-26T18:58:34Z</time>
      </trkpt>
      <trkpt lat="49.33804" lon="6.71601">
        <ele>183.9</ele>
        <time>2020-06-26T18:58:35Z</time>
      </trkpt>
      <trkpt lat="49.338" lon="6.71606">
        <ele>183.7</ele>
        <time>2020-06-26T18:58:36Z</time>
      </trkpt>
      <trkpt lat="49.33796" lon="6.7161">
        <ele>183.6</ele>
        <time>2020-06-26T18:58:37Z</time>
      </trkpt>
      <trkpt lat="49.33793" lon="6.71614">
        <ele>183.5</ele>
        <time>2020-06-26T18:58:38Z</time>
      </trkpt>
      <trkpt lat="49.3379" lon="6.71617">
        <ele>183.4</ele>
        <time>2020-06-26T18:58:39Z</time>
      </trkpt>
      <trkpt lat="49.33786" lon="6.7162">
        <ele>183.3</ele>
        <time>2020-06-26T18:58:40Z</time>
      </trkpt>
      <trkpt lat="49.33783" lon="6.71624">
        <ele>183.2</ele>
        <time>2020-06-26T18:58:41Z</time>
      </trkpt>
      <trkpt lat="49.3378" lon="6.71628">
        <ele>183.1</ele>
        <time>2020-06-26T18:58:42Z</time>
      </trkpt>
      <trkpt lat="49.33776" lon="6.71633">
        <ele>183</ele>
        <time>2020-06-26T18:58:43Z</time>
      </trkpt>
      <trkpt lat="49.33773" lon="6.71638">
        <ele>182.9</ele>
        <time>2020-06-26T18:58:44Z</time>
      </trkpt>
      <trkpt lat="49.3377" lon="6.71643">
        <ele>182.8</ele>
        <time>2020-06-26T18:58:45Z</time>
      </trkpt>
      <trkpt lat="49.33766" lon="6.71647">
        <ele>182.7</ele>
        <time>2020-06-26T18:58:46Z</time>
      </trkpt>
      <trkpt lat="49.33763" lon="6.71652">
        <ele>182.6</ele>
        <time>2020-06-26T18:58:47Z</time>
      </trkpt>
      <trkpt lat="49.33759" lon="6.71656">
        <ele>182.5</ele>
        <time>2020-06-26T18:58:48Z</time>
      </trkpt>
      <trkpt lat="49.33755" lon="6.7166">
        <ele>182.4</ele>
        <time>2020-06-26T18:58:49Z</time>
      </trkpt>
      <trkpt lat="49.33751" lon="6.71663">
        <ele>182.3</ele>
        <time>2020-06-26T18:58:50Z</time>
      </trkpt>
      <trkpt lat="49.33747" lon="6.71667">
        <ele>182.1</ele>
        <time>2020-06-26T18:58:51Z</time>
      </trkpt>
      <trkpt lat="49.33743" lon="6.7167">
        <ele>182</ele>
        <time>2020-06-26T18:58:52Z</time>
      </trkpt>
      <trkpt lat="49.33738" lon="6.71674">
        <ele>181.9</ele>
        <time>2020-06-26T18:58:53Z</time>
      </trkpt>
      <trkpt lat="49.33735" lon="6.71677">
        <ele>181.8</ele>
        <time>2020-06-26T18:58:54Z</time>
      </trkpt>
      <trkpt lat="49.33731" lon="6.71681">
        <ele>181.7</ele>
        <time>2020-06-26T18:58:55Z</time>
      </trkpt>
      <trkpt lat="49.33727" lon="6.71685">
        <ele>181.6</ele>
        <time>2020-06-26T18:58:56Z</time>
      </trkpt>
      <trkpt lat="49.33722" lon="6.71686">
        <ele>181.5</ele>
        <time>2020-06-26T18:58:57Z</time>
      </trkpt>
      <trkpt lat="49.33717" lon="6.71689">
        <ele>181.4</ele>
        <time>2020-06-26T18:58:58Z</time>
      </trkpt>
      <trkpt lat="49.33712" lon="6.71691">
        <ele>181.3</ele>
        <time>2020-06-26T18:58:59Z</time>
      </trkpt>
      <trkpt lat="49.33706" lon="6.71694">
        <ele>181.2</ele>
        <time>2020-06-26T18:59:00Z</time>
      </trkpt>
      <trkpt lat="49.33701" lon="6.71697">
        <ele>181.1</ele>
        <time>2020-06-26T18:59:01Z</time>
      </trkpt>
      <trkpt lat="49.33695" lon="6.71699">
        <ele>181</ele>
        <time>2020-06-26T18:59:02Z</time>
      </trkpt>
      <trkpt lat="49.33688" lon="6.71703">
        <ele>180.9</ele>
        <time>2020-06-26T18:59:03Z</time>
      </trkpt>
      <trkpt lat="49.33682" lon="6.71706">
        <ele>180.7</ele>
        <time>2020-06-26T18:59:04Z</time>
      </trkpt>
      <trkpt lat="49.33675" lon="6.71709">
        <ele>180.6</ele>
        <time>2020-06-26T18:59:05Z</time>
      </trkpt>
      <trkpt lat="49.33668" lon="6.7171">
        <ele>180.4</ele>
        <time>2020-06-26T18:59:06Z</time>
      </trkpt>
      <trkpt lat="49.33661" lon="6.7171">
        <ele>180.3</ele>
        <time>2020-06-26T18:59:07Z</time>
      </trkpt>
      <trkpt lat="49.33654" lon="6.71709">
        <ele>180.2</ele>
        <time>2020-06-26T18:59:08Z</time>
      </trkpt>
      <trkpt lat="49.33648" lon="6.71709">
        <ele>180.1</ele>
        <time>2020-06-26T18:59:09Z</time>
      </trkpt>
      <trkpt lat="49.33642" lon="6.71708">
        <ele>180</ele>
        <time>2020-06-26T18:59:10Z</time>
      </trkpt>
      <trkpt lat="49.33635" lon="6.71708">
        <ele>180</ele>
        <time>2020-06-26T18:59:11Z</time>
      </trkpt>
      <trkpt lat="49.33629" lon="6.71707">
        <ele>179.9</ele>
        <time>2020-06-26T18:59:12Z</time>
      </trkpt>
      <trkpt lat="49.33623" lon="6.71706">
        <ele>179.8</ele>
        <time>2020-06-26T18:59:13Z</time>
      </trkpt>
      <trkpt lat="49.33617" lon="6.71706">
        <ele>179.7</ele>
        <time>2020-06-26T18:59:14Z</time>
      </trkpt>
      <trkpt lat="49.33612" lon="6.71706">
        <ele>179.7</ele>
        <time>2020-06-26T18:59:15Z</time>
      </trkpt>
      <trkpt lat="49.33606" lon="6.71703">
        <ele>179.6</ele>
        <time>2020-06-26T18:59:16Z</time>
      </trkpt>
      <trkpt lat="49.336" lon="6.717">
        <ele>179.6</ele>
        <time>2020-06-26T18:59:17Z</time>
      </trkpt>
      <trkpt lat="49.33595" lon="6.71698">
        <ele>179.6</ele>
        <time>2020-06-26T18:59:18Z</time>
      </trkpt>
      <trkpt lat="49.33589" lon="6.71697">
        <ele>179.6</ele>
        <time>2020-06-26T18:59:19Z</time>
      </trkpt>
      <trkpt lat="49.33584" lon="6.71695">
        <ele>179.6</ele>
        <time>2020-06-26T18:59:20Z</time>
      </trkpt>
      <trkpt lat="49.33579" lon="6.71694">
        <ele>179.6</ele>
        <time>2020-06-26T18:59:21Z</time>
      </trkpt>
      <trkpt lat="49.33575" lon="6.71692">
        <ele>179.6</ele>
        <time>2020-06-26T18:59:22Z</time>
      </trkpt>
      <trkpt lat="49.3357" lon="6.71692">
        <ele>179.7</ele>
        <time>2020-06-26T18:59:23Z</time>
      </trkpt>
      <trkpt lat="49.33565" lon="6.71688">
        <ele>179.7</ele>
        <time>2020-06-26T18:59:24Z</time>
      </trkpt>
      <trkpt lat="49.3356" lon="6.71686">
        <ele>179.8</ele>
        <time>2020-06-26T18:59:25Z</time>
      </trkpt>
      <trkpt lat="49.33555" lon="6.71685">
        <ele>179.7</ele>
        <time>2020-06-26T18:59:26Z</time>
      </trkpt>
      <trkpt lat="49.33551" lon="6.71682">
        <ele>179.7</ele>
        <time>2020-06-26T18:59:27Z</time>
      </trkpt>
      <trkpt lat="49.33546" lon="6.71682">
        <ele>179.6</ele>
        <time>2020-06-26T18:59:28Z</time>
      </trkpt>
      <trkpt lat="49.3354" lon="6.71682">
        <ele>179.6</ele>
        <time>2020-06-26T18:59:29Z</time>
      </trkpt>
      <trkpt lat="49.33534" lon="6.71681">
        <ele>179.6</ele>
        <time>2020-06-26T18:59:30Z</time>
      </trkpt>
      <trkpt lat="49.33528" lon="6.71681">
        <ele>179.5</ele>
        <time>2020-06-26T18:59:31Z</time>
      </trkpt>
      <trkpt lat="49.33522" lon="6.71678">
        <ele>179.2</ele>
        <time>2020-06-26T18:59:32Z</time>
      </trkpt>
      <trkpt lat="49.33515" lon="6.71677">
        <ele>179</ele>
        <time>2020-06-26T18:59:33Z</time>
      </trkpt>
      <trkpt lat="49.33509" lon="6.71674">
        <ele>178.7</ele>
        <time>2020-06-26T18:59:34Z</time>
      </trkpt>
      <trkpt lat="49.33504" lon="6.71671">
        <ele>178.4</ele>
        <time>2020-06-26T18:59:35Z</time>
      </trkpt>
      <trkpt lat="49.33498" lon="6.71669">
        <ele>178.3</ele>
        <time>2020-06-26T18:59:36Z</time>
      </trkpt>
      <trkpt lat="49.33492" lon="6.71667">
        <ele>178.2</ele>
        <time>2020-06-26T18:59:37Z</time>
      </trkpt>
      <trkpt lat="49.33485" lon="6.71664">
        <ele>178.1</ele>
        <time>2020-06-26T18:59:38Z</time>
      </trkpt>
      <trkpt lat="49.33479" lon="6.71662">
        <ele>178</ele>
        <time>2020-06-26T18:59:39Z</time>
      </trkpt>
      <trkpt lat="49.33473" lon="6.7166">
        <ele>178</ele>
        <time>2020-06-26T18:59:40Z</time>
      </trkpt>
      <trkpt lat="49.33466" lon="6.71658">
        <ele>177.9</ele>
        <time>2020-06-26T18:59:41Z</time>
      </trkpt>
      <trkpt lat="49.3346" lon="6.71656">
        <ele>177.9</ele>
        <time>2020-06-26T18:59:42Z</time>
      </trkpt>
      <trkpt lat="49.33454" lon="6.71653">
        <ele>177.9</ele>
        <time>2020-06-26T18:59:43Z</time>
      </trkpt>
      <trkpt lat="49.33448" lon="6.71651">
        <ele>177.9</ele>
        <time>2020-06-26T18:59:44Z</time>
      </trkpt>
      <trkpt lat="49.33443" lon="6.71649">
        <ele>177.9</ele>
        <time>2020-06-26T18:59:45Z</time>
      </trkpt>
      <trkpt lat="49.33437" lon="6.71647">
        <ele>177.9</ele>
        <time>2020-06-26T18:59:46Z</time>
      </trkpt>
      <trkpt lat="49.33431" lon="6.71644">
        <ele>177.9</ele>
        <time>2020-06-26T18:59:47Z</time>
      </trkpt>
      <trkpt lat="49.33425" lon="6.71642">
        <ele>177.9</ele>
        <time>2020-06-26T18:59:48Z</time>
      </trkpt>
      <trkpt lat="49.33419" lon="6.71641">
        <ele>177.8</ele>
        <time>2020-06-26T18:59:49Z</time>
      </trkpt>
      <trkpt lat="49.33412" lon="6.71639">
        <ele>177.8</ele>
        <time>2020-06-26T18:59:50Z</time>
      </trkpt>
      <trkpt lat="49.33406" lon="6.71636">
        <ele>177.7</ele>
        <time>2020-06-26T18:59:51Z</time>
      </trkpt>
      <trkpt lat="49.334" lon="6.71634">
        <ele>177.8</ele>
        <time>2020-06-26T18:59:52Z</time>
      </trkpt>
      <trkpt lat="49.33394" lon="6.71633">
        <ele>177.9</ele>
        <time>2020-06-26T18:59:53Z</time>
      </trkpt>
      <trkpt lat="49.33387" lon="6.71633">
        <ele>177.9</ele>
        <time>2020-06-26T18:59:54Z</time>
      </trkpt>
      <trkpt lat="49.33381" lon="6.71632">
        <ele>178</ele>
        <time>2020-06-26T18:59:55Z</time>
      </trkpt>
      <trkpt lat="49.33375" lon="6.71633">
        <ele>178.1</ele>
        <time>2020-06-26T18:59:56Z</time>
      </trkpt>
      <trkpt lat="49.33369" lon="6.71633">
        <ele>178.1</ele>
        <time>2020-06-26T18:59:57Z</time>
      </trkpt>
      <trkpt lat="49.33363" lon="6.71631">
        <ele>178.1</ele>
        <time>2020-06-26T18:59:58Z</time>
      </trkpt>
      <trkpt lat="49.33358" lon="6.71632">
        <ele>178.2</ele>
        <time>2020-06-26T18:59:59Z</time>
      </trkpt>
      <trkpt lat="49.33353" lon="6.71631">
        <ele>178.2</ele>
        <time>2020-06-26T19:00:00Z</time>
      </trkpt>
      <trkpt lat="49.33348" lon="6.7163">
        <ele>178.3</ele>
        <time>2020-06-26T19:00:01Z</time>
      </trkpt>
      <trkpt lat="49.33343" lon="6.71629">
        <ele>178.3</ele>
        <time>2020-06-26T19:00:02Z</time>
      </trkpt>
      <trkpt lat="49.33339" lon="6.7163">
        <ele>178.4</ele>
        <time>2020-06-26T19:00:03Z</time>
      </trkpt>
      <trkpt lat="49.33334" lon="6.71629">
        <ele>178.4</ele>
        <time>2020-06-26T19:00:04Z</time>
      </trkpt>
      <trkpt lat="49.3333" lon="6.7163">
        <ele>178.5</ele>
        <time>2020-06-26T19:00:05Z</time>
      </trkpt>
      <trkpt lat="49.33326" lon="6.71632">
        <ele>178.5</ele>
        <time>2020-06-26T19:00:06Z</time>
      </trkpt>
      <trkpt lat="49.33323" lon="6.71633">
        <ele>178.6</ele>
        <time>2020-06-26T19:00:07Z</time>
      </trkpt>
      <trkpt lat="49.33321" lon="6.71632">
        <ele>178.6</ele>
        <time>2020-06-26T19:00:08Z</time>
      </trkpt>
      <trkpt lat="49.33321" lon="6.71631">
        <ele>178.6</ele>
        <time>2020-06-26T19:00:09Z</time>
      </trkpt>
      <trkpt lat="49.3332" lon="6.71631">
        <ele>178.6</ele>
        <time>2020-06-26T19:00:10Z</time>
      </trkpt>
      <trkpt lat="49.3332" lon="6.7163">
        <ele>178.6</ele>
        <time>2020-06-26T19:00:11Z</time>
      </trkpt>
      <trkpt lat="49.3332" lon="6.7163">
        <ele>178.6</ele>
        <time>2020-06-26T19:00:12Z</time>
      </trkpt>
      <trkpt lat="49.33319" lon="6.71629">
        <ele>178.7</ele>
        <time>2020-06-26T19:00:13Z</time>
      </trkpt>
      <trkpt lat="49.33318" lon="6.71629">
        <ele>178.7</ele>
        <time>2020-06-26T19:00:14Z</time>
      </trkpt>
      <trkpt lat="49.33318" lon="6.71629">
        <ele>178.7</ele>
        <time>2020-06-26T19:00:15Z</time>
      </trkpt>
      <trkpt lat="49.33318" lon="6.7163">
        <ele>178.7</ele>
        <time>2020-06-26T19:00:16Z</time>
      </trkpt>
      <trkpt lat="49.33318" lon="6.71632">
        <ele>178.7</ele>
        <time>2020-06-26T19:00:17Z</time>
      </trkpt>
      <trkpt lat="49.33318" lon="6.71632">
        <ele>178.7</ele>
        <time>2020-06-26T19:00:18Z</time>
      </trkpt>
      <trkpt lat="49.33318" lon="6.71636">
        <ele>178.7</ele>
        <time>2020-06-26T19:00:19Z</time>
      </trkpt>
      <trkpt lat="49.33318" lon="6.71637">
        <ele>178.7</ele>
        <time>2020-06-26T19:00:20Z</time>
      </trkpt>
      <trkpt lat="49.33318" lon="6.71637">
        <ele>178.7</ele>
        <time>2020-06-26T19:00:21Z</time>
      </trkpt>
      <trkpt lat="49.33317" lon="6.71638">
        <ele>179</ele>
        <time>2020-06-26T19:00:22Z</time>
      </trkpt>
      <trkpt lat="49.33314" lon="6.71639">
        <ele>179.2</ele>
        <time>2020-06-26T19:00:23Z</time>
      </trkpt>
      <trkpt lat="49.33311" lon="6.7164">
        <ele>179.4</ele>
        <time>2020-06-26T19:02:06Z</time>
      </trkpt>
      <trkpt lat="49.33308" lon="6.71641">
        <ele>179.6</ele>
        <time>2020-06-26T19:02:07Z</time>
      </trkpt>
      <trkpt lat="49.33305" lon="6.71642">
        <ele>179.7</ele>
        <time>2020-06-26T19:02:08Z</time>
      </trkpt>
      <trkpt lat="49.33306" lon="6.71643">
        <ele>179.8</ele>
        <time>2020-06-26T19:02:09Z</time>
      </trkpt>
      <trkpt lat="49.33306" lon="6.71643">
        <ele>179.8</ele>
        <time>2020-06-26T19:02:10Z</time>
      </trkpt>
      <trkpt lat="49.33307" lon="6.71643">
        <ele>179.8</ele>
        <time>2020-06-26T19:02:11Z</time>
      </trkpt>
      <trkpt lat="49.33309" lon="6.71643">
        <ele>179.9</ele>
        <time>2020-06-26T19:02:12Z</time>
      </trkpt>
      <trkpt lat="49.33309" lon="6.71642">
        <ele>180</ele>
        <time>2020-06-26T19:02:13Z</time>
      </trkpt>
      <trkpt lat="49.3331" lon="6.71642">
        <ele>180</ele>
        <time>2020-06-26T19:02:14Z</time>
      </trkpt>
      <trkpt lat="49.33311" lon="6.71641">
        <ele>180.1</ele>
        <time>2020-06-26T19:02:15Z</time>
      </trkpt>
      <trkpt lat="49.33311" lon="6.7164">
        <ele>180.1</ele>
        <time>2020-06-26T19:02:16Z</time>
      </trkpt>
      <trkpt lat="49.33312" lon="6.7164">
        <ele>180.1</ele>
        <time>2020-06-26T19:02:17Z</time>
      </trkpt>
      <trkpt lat="49.33312" lon="6.71636">
        <ele>180.3</ele>
        <time>2020-06-26T19:02:18Z</time>
      </trkpt>
      <trkpt lat="49.33314" lon="6.71635">
        <ele>180.4</ele>
        <time>2020-06-26T19:02:19Z</time>
      </trkpt>
      <trkpt lat="49.33315" lon="6.71634">
        <ele>180.4</ele>
        <time>2020-06-26T19:02:20Z</time>
      </trkpt>
      <trkpt lat="49.33318" lon="6.71631">
        <ele>180.6</ele>
        <time>2020-06-26T19:02:21Z</time>
      </trkpt>
      <trkpt lat="49.33319" lon="6.7163">
        <ele>180.7</ele>
        <time>2020-06-26T19:02:22Z</time>
      </trkpt>
      <trkpt lat="49.33322" lon="6.71627">
        <ele>180.9</ele>
        <time>2020-06-26T19:02:23Z</time>
      </trkpt>
      <trkpt lat="49.33322" lon="6.71625">
        <ele>181</ele>
        <time>2020-06-26T19:02:24Z</time>
      </trkpt>
      <trkpt lat="49.33325" lon="6.71621">
        <ele>181.3</ele>
        <time>2020-06-26T19:02:25Z</time>
      </trkpt>
      <trkpt lat="49.33326" lon="6.71619">
        <ele>181.3</ele>
        <time>2020-06-26T19:02:26Z</time>
      </trkpt>
      <trkpt lat="49.33327" lon="6.71617">
        <ele>181.5</ele>
        <time>2020-06-26T19:02:27Z</time>
      </trkpt>
      <trkpt lat="49.33327" lon="6.71616">
        <ele>181.5</ele>
        <time>2020-06-26T19:02:28Z</time>
      </trkpt>
      <trkpt lat="49.33328" lon="6.71616">
        <ele>181.6</ele>
        <time>2020-06-26T19:02:29Z</time>
      </trkpt>
      <trkpt lat="49.33328" lon="6.71616">
        <ele>181.6</ele>
        <time>2020-06-26T19:02:30Z</time>
      </trkpt>
      <trkpt lat="49.33328" lon="6.71616">
        <ele>181.6</ele>
        <time>2020-06-26T19:02:31Z</time>
      </trkpt>
      <trkpt lat="49.33328" lon="6.71616">
        <ele>181.6</ele>
        <time>2020-06-26T19:02:32Z</time>
      </trkpt>
      <trkpt lat="49.33328" lon="6.71615">
        <ele>181.7</ele>
        <time>2020-06-26T19:02:33Z</time>
      </trkpt>
      <trkpt lat="49.33328" lon="6.71614">
        <ele>181.7</ele>
        <time>2020-06-26T19:02:34Z</time>
      </trkpt>
      <trkpt lat="49.33329" lon="6.71614">
        <ele>181.8</ele>
        <time>2020-06-26T19:02:35Z</time>
      </trkpt>
      <trkpt lat="49.33329" lon="6.71613">
        <ele>181.8</ele>
        <time>2020-06-26T19:02:36Z</time>
      </trkpt>
      <trkpt lat="49.33329" lon="6.71612">
        <ele>181.8</ele>
        <time>2020-06-26T19:02:37Z</time>
      </trkpt>
      <trkpt lat="49.33329" lon="6.71612">
        <ele>181.9</ele>
        <time>2020-06-26T19:02:38Z</time>
      </trkpt>
      <trkpt lat="49.3333" lon="6.71611">
        <ele>181.9</ele>
        <time>2020-06-26T19:02:39Z</time>
      </trkpt>
      <trkpt lat="49.3333" lon="6.71611">
        <ele>182</ele>
        <time>2020-06-26T19:02:40Z</time>
      </trkpt>
      <trkpt lat="49.3333" lon="6.71611">
        <ele>182</ele>
        <time>2020-06-26T19:02:41Z</time>
      </trkpt>
      <trkpt lat="49.3333" lon="6.7161">
        <ele>182</ele>
        <time>2020-06-26T19:02:42Z</time>
      </trkpt>
      <trkpt lat="49.3333" lon="6.71609">
        <ele>182.1</ele>
        <time>2020-06-26T19:02:43Z</time>
      </trkpt>
      <trkpt lat="49.33331" lon="6.71608">
        <ele>182.2</ele>
        <time>2020-06-26T19:02:44Z</time>
      </trkpt>
      <trkpt lat="49.33332" lon="6.71605">
        <ele>184.3</ele>
        <time>2020-06-26T19:02:45Z</time>
      </trkpt>
      <trkpt lat="49.33331" lon="6.71601">
        <ele>184.4</ele>
        <time>2020-06-26T19:02:46Z</time>
      </trkpt>
      <trkpt lat="49.3333" lon="6.716">
        <ele>184.4</ele>
        <time>2020-06-26T19:02:47Z</time>
      </trkpt>
      <trkpt lat="49.33327" lon="6.71597">
        <ele>184.5</ele>
        <time>2020-06-26T19:02:48Z</time>
      </trkpt>
      <trkpt lat="49.33327" lon="6.71596">
        <ele>184.5</ele>
        <time>2020-06-26T19:02:49Z</time>
      </trkpt>
      <trkpt lat="49.33323" lon="6.71595">
        <ele>184.6</ele>
        <time>2020-06-26T19:02:50Z</time>
      </trkpt>
      <trkpt lat="49.33322" lon="6.71594">
        <ele>184.7</ele>
        <time>2020-06-26T19:02:51Z</time>
      </trkpt>
      <trkpt lat="49.33319" lon="6.71592">
        <ele>184.8</ele>
        <time>2020-06-26T19:02:52Z</time>
      </trkpt>
      <trkpt lat="49.33317" lon="6.71589">
        <ele>184.8</ele>
        <time>2020-06-26T19:02:53Z</time>
      </trkpt>
      <trkpt lat="49.33313" lon="6.71587">
        <ele>184.9</ele>
        <time>2020-06-26T19:02:54Z</time>
      </trkpt>
      <trkpt lat="49.33312" lon="6.71587">
        <ele>184.9</ele>
        <time>2020-06-26T19:02:55Z</time>
      </trkpt>
      <trkpt lat="49.33309" lon="6.71586">
        <ele>185</ele>
        <time>2020-06-26T19:02:56Z</time>
      </trkpt>
      <trkpt lat="49.33306" lon="6.71585">
        <ele>185.1</ele>
        <time>2020-06-26T19:02:57Z</time>
      </trkpt>
      <trkpt lat="49.33303" lon="6.71584">
        <ele>185.1</ele>
        <time>2020-06-26T19:02:58Z</time>
      </trkpt>
      <trkpt lat="49.33301" lon="6.71582">
        <ele>185.2</ele>
        <time>2020-06-26T19:02:59Z</time>
      </trkpt>
      <trkpt lat="49.33298" lon="6.71582">
        <ele>185.2</ele>
        <time>2020-06-26T19:03:00Z</time>
      </trkpt>
      <trkpt lat="49.33295" lon="6.71582">
        <ele>185.2</ele>
        <time>2020-06-26T19:03:01Z</time>
      </trkpt>
      <trkpt lat="49.33291" lon="6.71581">
        <ele>185.2</ele>
        <time>2020-06-26T19:03:02Z</time>
      </trkpt>
      <trkpt lat="49.33287" lon="6.71579">
        <ele>185.2</ele>
        <time>2020-06-26T19:03:03Z</time>
      </trkpt>
      <trkpt lat="49.33283" lon="6.71577">
        <ele>185.2</ele>
        <time>2020-06-26T19:03:04Z</time>
      </trkpt>
      <trkpt lat="49.33279" lon="6.71575">
        <ele>185.1</ele>
        <time>2020-06-26T19:03:05Z</time>
      </trkpt>
      <trkpt lat="49.33274" lon="6.71574">
        <ele>185.1</ele>
        <time>2020-06-26T19:03:06Z</time>
      </trkpt>
      <trkpt lat="49.33269" lon="6.71572">
        <ele>185</ele>
        <time>2020-06-26T19:03:07Z</time>
      </trkpt>
      <trkpt lat="49.33264" lon="6.7157">
        <ele>184.9</ele>
        <time>2020-06-26T19:03:08Z</time>
      </trkpt>
      <trkpt lat="49.33258" lon="6.71569">
        <ele>184.9</ele>
        <time>2020-06-26T19:03:09Z</time>
      </trkpt>
      <trkpt lat="49.33253" lon="6.71567">
        <ele>184.8</ele>
        <time>2020-06-26T19:03:10Z</time>
      </trkpt>
      <trkpt lat="49.33248" lon="6.71566">
        <ele>184.7</ele>
        <time>2020-06-26T19:03:11Z</time>
      </trkpt>
      <trkpt lat="49.33243" lon="6.71564">
        <ele>184.6</ele>
        <time>2020-06-26T19:03:12Z</time>
      </trkpt>
      <trkpt lat="49.33238" lon="6.71562">
        <ele>184.6</ele>
        <time>2020-06-26T19:03:13Z</time>
      </trkpt>
      <trkpt lat="49.33233" lon="6.71561">
        <ele>184.5</ele>
        <time>2020-06-26T19:03:14Z</time>
      </trkpt>
      <trkpt lat="49.33227" lon="6.71559">
        <ele>184.4</ele>
        <time>2020-06-26T19:03:15Z</time>
      </trkpt>
      <trkpt lat="49.33223" lon="6.71556">
        <ele>184.3</ele>
        <time>2020-06-26T19:03:16Z</time>
      </trkpt>
      <trkpt lat="49.33218" lon="6.71554">
        <ele>184.2</ele>
        <time>2020-06-26T19:03:17Z</time>
      </trkpt>
      <trkpt lat="49.33213" lon="6.71553">
        <ele>184.1</ele>
        <time>2020-06-26T19:03:18Z</time>
      </trkpt>
      <trkpt lat="49.33207" lon="6.71553">
        <ele>184</ele>
        <time>2020-06-26T19:03:19Z</time>
      </trkpt>
      <trkpt lat="49.33201" lon="6.71553">
        <ele>183.8</ele>
        <time>2020-06-26T19:03:20Z</time>
      </trkpt>
      <trkpt lat="49.33194" lon="6.71554">
        <ele>183.7</ele>
        <time>2020-06-26T19:03:21Z</time>
      </trkpt>
      <trkpt lat="49.33189" lon="6.71555">
        <ele>183.6</ele>
        <time>2020-06-26T19:03:22Z</time>
      </trkpt>
      <trkpt lat="49.33184" lon="6.71555">
        <ele>183.5</ele>
        <time>2020-06-26T19:03:23Z</time>
      </trkpt>
      <trkpt lat="49.33179" lon="6.71555">
        <ele>183.4</ele>
        <time>2020-06-26T19:03:24Z</time>
      </trkpt>
      <trkpt lat="49.33173" lon="6.71556">
        <ele>183.3</ele>
        <time>2020-06-26T19:03:25Z</time>
      </trkpt>
      <trkpt lat="49.33168" lon="6.71555">
        <ele>183.3</ele>
        <time>2020-06-26T19:03:26Z</time>
      </trkpt>
      <trkpt lat="49.33162" lon="6.71556">
        <ele>183.2</ele>
        <time>2020-06-26T19:03:27Z</time>
      </trkpt>
      <trkpt lat="49.33157" lon="6.71557">
        <ele>183.1</ele>
        <time>2020-06-26T19:03:28Z</time>
      </trkpt>
      <trkpt lat="49.33152" lon="6.71556">
        <ele>183.1</ele>
        <time>2020-06-26T19:03:29Z</time>
      </trkpt>
      <trkpt lat="49.33148" lon="6.71556">
        <ele>183</ele>
        <time>2020-06-26T19:03:30Z</time>
      </trkpt>
      <trkpt lat="49.33146" lon="6.71556">
        <ele>183</ele>
        <time>2020-06-26T19:03:31Z</time>
      </trkpt>
      <trkpt lat="49.33142" lon="6.71555">
        <ele>183</ele>
        <time>2020-06-26T19:03:32Z</time>
      </trkpt>
      <trkpt lat="49.33139" lon="6.71554">
        <ele>183</ele>
        <time>2020-06-26T19:03:33Z</time>
      </trkpt>
      <trkpt lat="49.33137" lon="6.7155">
        <ele>183</ele>
        <time>2020-06-26T19:03:34Z</time>
      </trkpt>
      <trkpt lat="49.33137" lon="6.71549">
        <ele>183</ele>
        <time>2020-06-26T19:03:35Z</time>
      </trkpt>
      <trkpt lat="49.33136" lon="6.71549">
        <ele>183</ele>
        <time>2020-06-26T19:03:36Z</time>
      </trkpt>
      <trkpt lat="49.33135" lon="6.7155">
        <ele>183.1</ele>
        <time>2020-06-26T19:03:37Z</time>
      </trkpt>
      <trkpt lat="49.33134" lon="6.7155">
        <ele>183.1</ele>
        <time>2020-06-26T19:03:38Z</time>
      </trkpt>
      <trkpt lat="49.33133" lon="6.7155">
        <ele>183.1</ele>
        <time>2020-06-26T19:03:39Z</time>
      </trkpt>
      <trkpt lat="49.33133" lon="6.7155">
        <ele>183.1</ele>
        <time>2020-06-26T19:03:40Z</time>
      </trkpt>
      <trkpt lat="49.33132" lon="6.71551">
        <ele>183.1</ele>
        <time>2020-06-26T19:03:41Z</time>
      </trkpt>
      <trkpt lat="49.33131" lon="6.71551">
        <ele>183.1</ele>
        <time>2020-06-26T19:03:42Z</time>
      </trkpt>
      <trkpt lat="49.3313" lon="6.71551">
        <ele>183.1</ele>
        <time>2020-06-26T19:03:43Z</time>
      </trkpt>
      <trkpt lat="49.33129" lon="6.71551">
        <ele>183.1</ele>
        <time>2020-06-26T19:03:44Z</time>
      </trkpt>
      <trkpt lat="49.33129" lon="6.71552">
        <ele>183.1</ele>
        <time>2020-06-26T19:03:45Z</time>
      </trkpt>
      <trkpt lat="49.33128" lon="6.71552">
        <ele>183.1</ele>
        <time>2020-06-26T19:03:46Z</time>
      </trkpt>
      <trkpt lat="49.33127" lon="6.71552">
        <ele>183</ele>
        <time>2020-06-26T19:03:47Z</time>
      </trkpt>
      <trkpt lat="49.33126" lon="6.71552">
        <ele>183</ele>
        <time>2020-06-26T19:04:05Z</time>
      </trkpt>
      <trkpt lat="49.33126" lon="6.71553">
        <ele>183</ele>
        <time>2020-06-26T19:04:06Z</time>
      </trkpt>
      <trkpt lat="49.33121" lon="6.71554">
        <ele>182.9</ele>
        <time>2020-06-26T19:04:07Z</time>
      </trkpt>
      <trkpt lat="49.33117" lon="6.71555">
        <ele>182.8</ele>
        <time>2020-06-26T19:04:08Z</time>
      </trkpt>
      <trkpt lat="49.33113" lon="6.71556">
        <ele>182.8</ele>
        <time>2020-06-26T19:04:09Z</time>
      </trkpt>
      <trkpt lat="49.33108" lon="6.71557">
        <ele>182.7</ele>
        <time>2020-06-26T19:04:10Z</time>
      </trkpt>
      <trkpt lat="49.33104" lon="6.71559">
        <ele>182.7</ele>
        <time>2020-06-26T19:04:11Z</time>
      </trkpt>
      <trkpt lat="49.33099" lon="6.7156">
        <ele>182.7</ele>
        <time>2020-06-26T19:04:12Z</time>
      </trkpt>
      <trkpt lat="49.33093" lon="6.71561">
        <ele>182.6</ele>
        <time>2020-06-26T19:04:13Z</time>
      </trkpt>
      <trkpt lat="49.33088" lon="6.71562">
        <ele>182.7</ele>
        <time>2020-06-26T19:04:14Z</time>
      </trkpt>
      <trkpt lat="49.33084" lon="6.71565">
        <ele>182.7</ele>
        <time>2020-06-26T19:04:15Z</time>
      </trkpt>
      <trkpt lat="49.33079" lon="6.71569">
        <ele>182.7</ele>
        <time>2020-06-26T19:04:16Z</time>
      </trkpt>
      <trkpt lat="49.33074" lon="6.71573">
        <ele>182.7</ele>
        <time>2020-06-26T19:04:17Z</time>
      </trkpt>
      <trkpt lat="49.33069" lon="6.71578">
        <ele>182.8</ele>
        <time>2020-06-26T19:04:18Z</time>
      </trkpt>
      <trkpt lat="49.33063" lon="6.71583">
        <ele>182.9</ele>
        <time>2020-06-26T19:04:19Z</time>
      </trkpt>
      <trkpt lat="49.33058" lon="6.71587">
        <ele>183</ele>
        <time>2020-06-26T19:04:20Z</time>
      </trkpt>
      <trkpt lat="49.33053" lon="6.71592">
        <ele>183.1</ele>
        <time>2020-06-26T19:04:21Z</time>
      </trkpt>
      <trkpt lat="49.33049" lon="6.71598">
        <ele>183.2</ele>
        <time>2020-06-26T19:04:22Z</time>
      </trkpt>
      <trkpt lat="49.33044" lon="6.71603">
        <ele>183.3</ele>
        <time>2020-06-26T19:04:23Z</time>
      </trkpt>
      <trkpt lat="49.3304" lon="6.71609">
        <ele>183.3</ele>
        <time>2020-06-26T19:04:24Z</time>
      </trkpt>
      <trkpt lat="49.33037" lon="6.71614">
        <ele>183.3</ele>
        <time>2020-06-26T19:04:25Z</time>
      </trkpt>
      <trkpt lat="49.33034" lon="6.71619">
        <ele>183.3</ele>
        <time>2020-06-26T19:04:26Z</time>
      </trkpt>
      <trkpt lat="49.3303" lon="6.71625">
        <ele>183.3</ele>
        <time>2020-06-26T19:04:27Z</time>
      </trkpt>
      <trkpt lat="49.33026" lon="6.71628">
        <ele>183.3</ele>
        <time>2020-06-26T19:04:28Z</time>
      </trkpt>
      <trkpt lat="49.33023" lon="6.71633">
        <ele>183.4</ele>
        <time>2020-06-26T19:04:29Z</time>
      </trkpt>
      <trkpt lat="49.33018" lon="6.71639">
        <ele>183.5</ele>
        <time>2020-06-26T19:04:30Z</time>
      </trkpt>
      <trkpt lat="49.33014" lon="6.71644">
        <ele>183.6</ele>
        <time>2020-06-26T19:04:31Z</time>
      </trkpt>
      <trkpt lat="49.33011" lon="6.71649">
        <ele>183.7</ele>
        <time>2020-06-26T19:04:32Z</time>
      </trkpt>
      <trkpt lat="49.33008" lon="6.71653">
        <ele>183.8</ele>
        <time>2020-06-26T19:04:33Z</time>
      </trkpt>
      <trkpt lat="49.33005" lon="6.71656">
        <ele>183.9</ele>
        <time>2020-06-26T19:04:34Z</time>
      </trkpt>
      <trkpt lat="49.33002" lon="6.71659">
        <ele>184</ele>
        <time>2020-06-26T19:04:35Z</time>
      </trkpt>
      <trkpt lat="49.32999" lon="6.71664">
        <ele>184.1</ele>
        <time>2020-06-26T19:04:36Z</time>
      </trkpt>
      <trkpt lat="49.32996" lon="6.71669">
        <ele>184.2</ele>
        <time>2020-06-26T19:04:37Z</time>
      </trkpt>
      <trkpt lat="49.32992" lon="6.71671">
        <ele>184.3</ele>
        <time>2020-06-26T19:04:38Z</time>
      </trkpt>
      <trkpt lat="49.32987" lon="6.71673">
        <ele>184.5</ele>
        <time>2020-06-26T19:04:39Z</time>
      </trkpt>
      <trkpt lat="49.32983" lon="6.71676">
        <ele>184.6</ele>
        <time>2020-06-26T19:04:40Z</time>
      </trkpt>
      <trkpt lat="49.3298" lon="6.71679">
        <ele>184.7</ele>
        <time>2020-06-26T19:04:41Z</time>
      </trkpt>
      <trkpt lat="49.32976" lon="6.71682">
        <ele>184.9</ele>
        <time>2020-06-26T19:04:42Z</time>
      </trkpt>
      <trkpt lat="49.32973" lon="6.71684">
        <ele>185</ele>
        <time>2020-06-26T19:04:43Z</time>
      </trkpt>
      <trkpt lat="49.32968" lon="6.71687">
        <ele>184.8</ele>
        <time>2020-06-26T19:04:44Z</time>
      </trkpt>
      <trkpt lat="49.32964" lon="6.71691">
        <ele>184.8</ele>
        <time>2020-06-26T19:04:45Z</time>
      </trkpt>
      <trkpt lat="49.3296" lon="6.71696">
        <ele>184.7</ele>
        <time>2020-06-26T19:04:46Z</time>
      </trkpt>
      <trkpt lat="49.32955" lon="6.71703">
        <ele>184.5</ele>
        <time>2020-06-26T19:04:47Z</time>
      </trkpt>
      <trkpt lat="49.32951" lon="6.71708">
        <ele>184.3</ele>
        <time>2020-06-26T19:04:48Z</time>
      </trkpt>
      <trkpt lat="49.32946" lon="6.71713">
        <ele>184.2</ele>
        <time>2020-06-26T19:04:49Z</time>
      </trkpt>
      <trkpt lat="49.32942" lon="6.71719">
        <ele>184</ele>
        <time>2020-06-26T19:04:50Z</time>
      </trkpt>
      <trkpt lat="49.32938" lon="6.71724">
        <ele>183.8</ele>
        <time>2020-06-26T19:04:51Z</time>
      </trkpt>
      <trkpt lat="49.32933" lon="6.7173">
        <ele>183.7</ele>
        <time>2020-06-26T19:04:52Z</time>
      </trkpt>
      <trkpt lat="49.3293" lon="6.71735">
        <ele>183.6</ele>
        <time>2020-06-26T19:04:53Z</time>
      </trkpt>
      <trkpt lat="49.32926" lon="6.71739">
        <ele>183.5</ele>
        <time>2020-06-26T19:04:54Z</time>
      </trkpt>
      <trkpt lat="49.3292" lon="6.71744">
        <ele>183.4</ele>
        <time>2020-06-26T19:04:55Z</time>
      </trkpt>
      <trkpt lat="49.32915" lon="6.71749">
        <ele>183.3</ele>
        <time>2020-06-26T19:04:56Z</time>
      </trkpt>
      <trkpt lat="49.32911" lon="6.71755">
        <ele>183.3</ele>
        <time>2020-06-26T19:04:57Z</time>
      </trkpt>
      <trkpt lat="49.32907" lon="6.71763">
        <ele>183.2</ele>
        <time>2020-06-26T19:04:58Z</time>
      </trkpt>
      <trkpt lat="49.32904" lon="6.71771">
        <ele>183.1</ele>
        <time>2020-06-26T19:04:59Z</time>
      </trkpt>
      <trkpt lat="49.329" lon="6.71778">
        <ele>183</ele>
        <time>2020-06-26T19:05:00Z</time>
      </trkpt>
      <trkpt lat="49.32897" lon="6.71786">
        <ele>183</ele>
        <time>2020-06-26T19:05:01Z</time>
      </trkpt>
      <trkpt lat="49.32894" lon="6.71795">
        <ele>182.9</ele>
        <time>2020-06-26T19:05:02Z</time>
      </trkpt>
      <trkpt lat="49.32891" lon="6.71802">
        <ele>182.9</ele>
        <time>2020-06-26T19:05:03Z</time>
      </trkpt>
      <trkpt lat="49.32888" lon="6.7181">
        <ele>182.8</ele>
        <time>2020-06-26T19:05:04Z</time>
      </trkpt>
      <trkpt lat="49.32885" lon="6.71817">
        <ele>182.8</ele>
        <time>2020-06-26T19:05:05Z</time>
      </trkpt>
      <trkpt lat="49.32882" lon="6.71825">
        <ele>182.8</ele>
        <time>2020-06-26T19:05:06Z</time>
      </trkpt>
      <trkpt lat="49.32878" lon="6.71833">
        <ele>182.7</ele>
        <time>2020-06-26T19:05:07Z</time>
      </trkpt>
      <trkpt lat="49.32874" lon="6.7184">
        <ele>182.7</ele>
        <time>2020-06-26T19:05:08Z</time>
      </trkpt>
      <trkpt lat="49.3287" lon="6.71848">
        <ele>182.7</ele>
        <time>2020-06-26T19:05:09Z</time>
      </trkpt>
      <trkpt lat="49.32866" lon="6.71859">
        <ele>182.6</ele>
        <time>2020-06-26T19:05:10Z</time>
      </trkpt>
      <trkpt lat="49.32864" lon="6.71867">
        <ele>182.5</ele>
        <time>2020-06-26T19:05:11Z</time>
      </trkpt>
      <trkpt lat="49.32861" lon="6.71875">
        <ele>182.5</ele>
        <time>2020-06-26T19:05:12Z</time>
      </trkpt>
      <trkpt lat="49.32858" lon="6.71883">
        <ele>182.4</ele>
        <time>2020-06-26T19:05:13Z</time>
      </trkpt>
      <trkpt lat="49.32854" lon="6.71891">
        <ele>182.4</ele>
        <time>2020-06-26T19:05:14Z</time>
      </trkpt>
      <trkpt lat="49.32851" lon="6.71899">
        <ele>182.5</ele>
        <time>2020-06-26T19:05:15Z</time>
      </trkpt>
      <trkpt lat="49.32848" lon="6.71906">
        <ele>182.5</ele>
        <time>2020-06-26T19:05:16Z</time>
      </trkpt>
      <trkpt lat="49.32846" lon="6.71914">
        <ele>182.5</ele>
        <time>2020-06-26T19:05:17Z</time>
      </trkpt>
      <trkpt lat="49.32843" lon="6.7192">
        <ele>182.5</ele>
        <time>2020-06-26T19:05:18Z</time>
      </trkpt>
      <trkpt lat="49.3284" lon="6.71926">
        <ele>182.6</ele>
        <time>2020-06-26T19:05:19Z</time>
      </trkpt>
      <trkpt lat="49.32837" lon="6.71933">
        <ele>182.6</ele>
        <time>2020-06-26T19:05:20Z</time>
      </trkpt>
      <trkpt lat="49.32834" lon="6.7194">
        <ele>182.6</ele>
        <time>2020-06-26T19:05:21Z</time>
      </trkpt>
      <trkpt lat="49.32832" lon="6.71949">
        <ele>182.7</ele>
        <time>2020-06-26T19:05:22Z</time>
      </trkpt>
      <trkpt lat="49.32829" lon="6.71956">
        <ele>182.7</ele>
        <time>2020-06-26T19:05:23Z</time>
      </trkpt>
      <trkpt lat="49.32826" lon="6.71964">
        <ele>182.7</ele>
        <time>2020-06-26T19:05:24Z</time>
      </trkpt>
      <trkpt lat="49.32824" lon="6.71972">
        <ele>182.8</ele>
        <time>2020-06-26T19:05:25Z</time>
      </trkpt>
      <trkpt lat="49.32821" lon="6.71979">
        <ele>182.9</ele>
        <time>2020-06-26T19:05:26Z</time>
      </trkpt>
      <trkpt lat="49.32818" lon="6.71984">
        <ele>182.9</ele>
        <time>2020-06-26T19:05:27Z</time>
      </trkpt>
      <trkpt lat="49.32816" lon="6.71992">
        <ele>183</ele>
        <time>2020-06-26T19:05:28Z</time>
      </trkpt>
      <trkpt lat="49.32813" lon="6.72">
        <ele>183</ele>
        <time>2020-06-26T19:05:29Z</time>
      </trkpt>
      <trkpt lat="49.32811" lon="6.72006">
        <ele>183.1</ele>
        <time>2020-06-26T19:05:30Z</time>
      </trkpt>
      <trkpt lat="49.32808" lon="6.72014">
        <ele>183.2</ele>
        <time>2020-06-26T19:05:31Z</time>
      </trkpt>
      <trkpt lat="49.32805" lon="6.7202">
        <ele>183.3</ele>
        <time>2020-06-26T19:05:32Z</time>
      </trkpt>
      <trkpt lat="49.32802" lon="6.72028">
        <ele>183.5</ele>
        <time>2020-06-26T19:05:33Z</time>
      </trkpt>
      <trkpt lat="49.32799" lon="6.72035">
        <ele>183.6</ele>
        <time>2020-06-26T19:05:34Z</time>
      </trkpt>
      <trkpt lat="49.32796" lon="6.72042">
        <ele>183.8</ele>
        <time>2020-06-26T19:05:35Z</time>
      </trkpt>
      <trkpt lat="49.32793" lon="6.72049">
        <ele>183.9</ele>
        <time>2020-06-26T19:05:36Z</time>
      </trkpt>
      <trkpt lat="49.32789" lon="6.72057">
        <ele>184.1</ele>
        <time>2020-06-26T19:05:37Z</time>
      </trkpt>
      <trkpt lat="49.32786" lon="6.72063">
        <ele>184.2</ele>
        <time>2020-06-26T19:05:38Z</time>
      </trkpt>
      <trkpt lat="49.32784" lon="6.7207">
        <ele>184.3</ele>
        <time>2020-06-26T19:05:39Z</time>
      </trkpt>
      <trkpt lat="49.32782" lon="6.72075">
        <ele>184.4</ele>
        <time>2020-06-26T19:05:40Z</time>
      </trkpt>
      <trkpt lat="49.32779" lon="6.72082">
        <ele>184.5</ele>
        <time>2020-06-26T19:05:41Z</time>
      </trkpt>
      <trkpt lat="49.32776" lon="6.72089">
        <ele>184.6</ele>
        <time>2020-06-26T19:05:42Z</time>
      </trkpt>
      <trkpt lat="49.32774" lon="6.72096">
        <ele>184.8</ele>
        <time>2020-06-26T19:05:43Z</time>
      </trkpt>
      <trkpt lat="49.32771" lon="6.72103">
        <ele>184.9</ele>
        <time>2020-06-26T19:05:44Z</time>
      </trkpt>
      <trkpt lat="49.32769" lon="6.72112">
        <ele>185</ele>
        <time>2020-06-26T19:05:45Z</time>
      </trkpt>
      <trkpt lat="49.32766" lon="6.72119">
        <ele>185.1</ele>
        <time>2020-06-26T19:05:46Z</time>
      </trkpt>
      <trkpt lat="49.32764" lon="6.72125">
        <ele>185.2</ele>
        <time>2020-06-26T19:05:47Z</time>
      </trkpt>
      <trkpt lat="49.32761" lon="6.72132">
        <ele>185.3</ele>
        <time>2020-06-26T19:05:48Z</time>
      </trkpt>
      <trkpt lat="49.32758" lon="6.72138">
        <ele>185.4</ele>
        <time>2020-06-26T19:05:49Z</time>
      </trkpt>
      <trkpt lat="49.32755" lon="6.72143">
        <ele>185.5</ele>
        <time>2020-06-26T19:05:50Z</time>
      </trkpt>
      <trkpt lat="49.32752" lon="6.7215">
        <ele>185.5</ele>
        <time>2020-06-26T19:05:51Z</time>
      </trkpt>
      <trkpt lat="49.32749" lon="6.72155">
        <ele>185.6</ele>
        <time>2020-06-26T19:05:52Z</time>
      </trkpt>
      <trkpt lat="49.32746" lon="6.7216">
        <ele>185.6</ele>
        <time>2020-06-26T19:05:53Z</time>
      </trkpt>
      <trkpt lat="49.32743" lon="6.72165">
        <ele>185.7</ele>
        <time>2020-06-26T19:05:54Z</time>
      </trkpt>
      <trkpt lat="49.3274" lon="6.72169">
        <ele>185.7</ele>
        <time>2020-06-26T19:05:55Z</time>
      </trkpt>
      <trkpt lat="49.32737" lon="6.72174">
        <ele>185.8</ele>
        <time>2020-06-26T19:05:56Z</time>
      </trkpt>
      <trkpt lat="49.32733" lon="6.7218">
        <ele>185.9</ele>
        <time>2020-06-26T19:05:57Z</time>
      </trkpt>
      <trkpt lat="49.32729" lon="6.72184">
        <ele>185.9</ele>
        <time>2020-06-26T19:05:58Z</time>
      </trkpt>
      <trkpt lat="49.32725" lon="6.7219">
        <ele>186</ele>
        <time>2020-06-26T19:05:59Z</time>
      </trkpt>
      <trkpt lat="49.32722" lon="6.72196">
        <ele>186.1</ele>
        <time>2020-06-26T19:06:00Z</time>
      </trkpt>
      <trkpt lat="49.32718" lon="6.72201">
        <ele>186.2</ele>
        <time>2020-06-26T19:06:01Z</time>
      </trkpt>
      <trkpt lat="49.32715" lon="6.72207">
        <ele>186.2</ele>
        <time>2020-06-26T19:06:02Z</time>
      </trkpt>
      <trkpt lat="49.32711" lon="6.72213">
        <ele>186.3</ele>
        <time>2020-06-26T19:06:03Z</time>
      </trkpt>
      <trkpt lat="49.32708" lon="6.72218">
        <ele>186.3</ele>
        <time>2020-06-26T19:06:04Z</time>
      </trkpt>
      <trkpt lat="49.32705" lon="6.72224">
        <ele>186.4</ele>
        <time>2020-06-26T19:06:05Z</time>
      </trkpt>
      <trkpt lat="49.32702" lon="6.72229">
        <ele>186.4</ele>
        <time>2020-06-26T19:06:06Z</time>
      </trkpt>
      <trkpt lat="49.32699" lon="6.72234">
        <ele>186.5</ele>
        <time>2020-06-26T19:06:07Z</time>
      </trkpt>
      <trkpt lat="49.32695" lon="6.72239">
        <ele>186.6</ele>
        <time>2020-06-26T19:06:08Z</time>
      </trkpt>
      <trkpt lat="49.32691" lon="6.72243">
        <ele>186.6</ele>
        <time>2020-06-26T19:06:09Z</time>
      </trkpt>
      <trkpt lat="49.32688" lon="6.72248">
        <ele>186.7</ele>
        <time>2020-06-26T19:06:10Z</time>
      </trkpt>
      <trkpt lat="49.32684" lon="6.72253">
        <ele>186.7</ele>
        <time>2020-06-26T19:06:11Z</time>
      </trkpt>
      <trkpt lat="49.32681" lon="6.72257">
        <ele>186.8</ele>
        <time>2020-06-26T19:06:12Z</time>
      </trkpt>
      <trkpt lat="49.32677" lon="6.72261">
        <ele>186.9</ele>
        <time>2020-06-26T19:06:13Z</time>
      </trkpt>
      <trkpt lat="49.32673" lon="6.72266">
        <ele>187</ele>
        <time>2020-06-26T19:06:14Z</time>
      </trkpt>
      <trkpt lat="49.32669" lon="6.72272">
        <ele>187</ele>
        <time>2020-06-26T19:06:15Z</time>
      </trkpt>
      <trkpt lat="49.32665" lon="6.72278">
        <ele>187</ele>
        <time>2020-06-26T19:06:16Z</time>
      </trkpt>
      <trkpt lat="49.32662" lon="6.72282">
        <ele>187</ele>
        <time>2020-06-26T19:06:17Z</time>
      </trkpt>
      <trkpt lat="49.32658" lon="6.72287">
        <ele>187</ele>
        <time>2020-06-26T19:06:18Z</time>
      </trkpt>
      <trkpt lat="49.32653" lon="6.7229">
        <ele>187</ele>
        <time>2020-06-26T19:06:19Z</time>
      </trkpt>
      <trkpt lat="49.32649" lon="6.72296">
        <ele>187</ele>
        <time>2020-06-26T19:06:20Z</time>
      </trkpt>
      <trkpt lat="49.32645" lon="6.72303">
        <ele>187</ele>
        <time>2020-06-26T19:06:21Z</time>
      </trkpt>
      <trkpt lat="49.32641" lon="6.72309">
        <ele>187</ele>
        <time>2020-06-26T19:06:22Z</time>
      </trkpt>
      <trkpt lat="49.32637" lon="6.72315">
        <ele>186.9</ele>
        <time>2020-06-26T19:06:23Z</time>
      </trkpt>
      <trkpt lat="49.32633" lon="6.72322">
        <ele>186.9</ele>
        <time>2020-06-26T19:06:24Z</time>
      </trkpt>
      <trkpt lat="49.32629" lon="6.72328">
        <ele>186.9</ele>
        <time>2020-06-26T19:06:25Z</time>
      </trkpt>
      <trkpt lat="49.32623" lon="6.72333">
        <ele>186.9</ele>
        <time>2020-06-26T19:06:26Z</time>
      </trkpt>
      <trkpt lat="49.3262" lon="6.72338">
        <ele>186.9</ele>
        <time>2020-06-26T19:06:27Z</time>
      </trkpt>
      <trkpt lat="49.32616" lon="6.72344">
        <ele>186.9</ele>
        <time>2020-06-26T19:06:28Z</time>
      </trkpt>
      <trkpt lat="49.32612" lon="6.72352">
        <ele>186.9</ele>
        <time>2020-06-26T19:06:29Z</time>
      </trkpt>
      <trkpt lat="49.32608" lon="6.72357">
        <ele>186.9</ele>
        <time>2020-06-26T19:06:30Z</time>
      </trkpt>
      <trkpt lat="49.32604" lon="6.72364">
        <ele>186.9</ele>
        <time>2020-06-26T19:06:31Z</time>
      </trkpt>
      <trkpt lat="49.326" lon="6.7237">
        <ele>186.8</ele>
        <time>2020-06-26T19:06:32Z</time>
      </trkpt>
      <trkpt lat="49.32597" lon="6.72375">
        <ele>186.7</ele>
        <time>2020-06-26T19:06:33Z</time>
      </trkpt>
      <trkpt lat="49.32592" lon="6.7238">
        <ele>186.6</ele>
        <time>2020-06-26T19:06:34Z</time>
      </trkpt>
      <trkpt lat="49.32588" lon="6.72385">
        <ele>186.5</ele>
        <time>2020-06-26T19:06:35Z</time>
      </trkpt>
      <trkpt lat="49.32584" lon="6.72391">
        <ele>186.4</ele>
        <time>2020-06-26T19:06:36Z</time>
      </trkpt>
      <trkpt lat="49.3258" lon="6.72396">
        <ele>186.4</ele>
        <time>2020-06-26T19:06:37Z</time>
      </trkpt>
      <trkpt lat="49.32575" lon="6.72403">
        <ele>186.4</ele>
        <time>2020-06-26T19:06:38Z</time>
      </trkpt>
      <trkpt lat="49.32569" lon="6.72411">
        <ele>186.3</ele>
        <time>2020-06-26T19:06:39Z</time>
      </trkpt>
      <trkpt lat="49.32565" lon="6.72419">
        <ele>186.3</ele>
        <time>2020-06-26T19:06:40Z</time>
      </trkpt>
      <trkpt lat="49.32561" lon="6.72426">
        <ele>186.3</ele>
        <time>2020-06-26T19:06:41Z</time>
      </trkpt>
      <trkpt lat="49.32557" lon="6.72431">
        <ele>186.3</ele>
        <time>2020-06-26T19:06:42Z</time>
      </trkpt>
      <trkpt lat="49.32553" lon="6.72437">
        <ele>186.3</ele>
        <time>2020-06-26T19:06:43Z</time>
      </trkpt>
      <trkpt lat="49.32548" lon="6.72442">
        <ele>186.2</ele>
        <time>2020-06-26T19:06:44Z</time>
      </trkpt>
      <trkpt lat="49.32544" lon="6.72448">
        <ele>186.2</ele>
        <time>2020-06-26T19:06:45Z</time>
      </trkpt>
      <trkpt lat="49.3254" lon="6.72454">
        <ele>186.2</ele>
        <time>2020-06-26T19:06:46Z</time>
      </trkpt>
      <trkpt lat="49.32536" lon="6.7246">
        <ele>186.2</ele>
        <time>2020-06-26T19:06:47Z</time>
      </trkpt>
      <trkpt lat="49.32532" lon="6.72466">
        <ele>186.2</ele>
        <time>2020-06-26T19:06:48Z</time>
      </trkpt>
      <trkpt lat="49.32528" lon="6.72472">
        <ele>186.1</ele>
        <time>2020-06-26T19:06:49Z</time>
      </trkpt>
      <trkpt lat="49.32525" lon="6.72477">
        <ele>186.1</ele>
        <time>2020-06-26T19:06:50Z</time>
      </trkpt>
      <trkpt lat="49.32521" lon="6.72482">
        <ele>186.1</ele>
        <time>2020-06-26T19:06:51Z</time>
      </trkpt>
      <trkpt lat="49.32517" lon="6.72488">
        <ele>186</ele>
        <time>2020-06-26T19:06:52Z</time>
      </trkpt>
      <trkpt lat="49.32513" lon="6.72495">
        <ele>185.9</ele>
        <time>2020-06-26T19:06:53Z</time>
      </trkpt>
      <trkpt lat="49.32509" lon="6.72503">
        <ele>185.9</ele>
        <time>2020-06-26T19:06:54Z</time>
      </trkpt>
      <trkpt lat="49.32505" lon="6.72509">
        <ele>185.8</ele>
        <time>2020-06-26T19:06:55Z</time>
      </trkpt>
      <trkpt lat="49.32502" lon="6.72515">
        <ele>185.8</ele>
        <time>2020-06-26T19:06:56Z</time>
      </trkpt>
      <trkpt lat="49.32497" lon="6.72522">
        <ele>185.7</ele>
        <time>2020-06-26T19:06:57Z</time>
      </trkpt>
      <trkpt lat="49.32493" lon="6.72529">
        <ele>185.7</ele>
        <time>2020-06-26T19:06:58Z</time>
      </trkpt>
      <trkpt lat="49.32488" lon="6.72535">
        <ele>185.7</ele>
        <time>2020-06-26T19:06:59Z</time>
      </trkpt>
      <trkpt lat="49.32484" lon="6.72542">
        <ele>185.7</ele>
        <time>2020-06-26T19:07:00Z</time>
      </trkpt>
      <trkpt lat="49.32479" lon="6.72548">
        <ele>185.6</ele>
        <time>2020-06-26T19:07:01Z</time>
      </trkpt>
      <trkpt lat="49.32474" lon="6.72555">
        <ele>185.6</ele>
        <time>2020-06-26T19:07:02Z</time>
      </trkpt>
      <trkpt lat="49.32469" lon="6.72561">
        <ele>185.6</ele>
        <time>2020-06-26T19:07:03Z</time>
      </trkpt>
      <trkpt lat="49.32465" lon="6.72569">
        <ele>185.5</ele>
        <time>2020-06-26T19:07:04Z</time>
      </trkpt>
      <trkpt lat="49.32461" lon="6.72575">
        <ele>185.5</ele>
        <time>2020-06-26T19:07:05Z</time>
      </trkpt>
      <trkpt lat="49.32458" lon="6.72581">
        <ele>185.4</ele>
        <time>2020-06-26T19:07:06Z</time>
      </trkpt>
      <trkpt lat="49.32455" lon="6.72585">
        <ele>185.3</ele>
        <time>2020-06-26T19:07:07Z</time>
      </trkpt>
      <trkpt lat="49.32453" lon="6.7259">
        <ele>185.3</ele>
        <time>2020-06-26T19:07:08Z</time>
      </trkpt>
      <trkpt lat="49.32451" lon="6.72594">
        <ele>185.3</ele>
        <time>2020-06-26T19:07:09Z</time>
      </trkpt>
      <trkpt lat="49.32448" lon="6.72598">
        <ele>185.2</ele>
        <time>2020-06-26T19:07:10Z</time>
      </trkpt>
      <trkpt lat="49.32444" lon="6.72603">
        <ele>185.1</ele>
        <time>2020-06-26T19:07:11Z</time>
      </trkpt>
      <trkpt lat="49.32441" lon="6.72609">
        <ele>185.1</ele>
        <time>2020-06-26T19:07:12Z</time>
      </trkpt>
      <trkpt lat="49.32437" lon="6.72615">
        <ele>185</ele>
        <time>2020-06-26T19:07:13Z</time>
      </trkpt>
      <trkpt lat="49.32433" lon="6.72622">
        <ele>184.9</ele>
        <time>2020-06-26T19:07:14Z</time>
      </trkpt>
      <trkpt lat="49.32429" lon="6.72629">
        <ele>184.9</ele>
        <time>2020-06-26T19:07:15Z</time>
      </trkpt>
      <trkpt lat="49.32423" lon="6.72637">
        <ele>184.9</ele>
        <time>2020-06-26T19:07:16Z</time>
      </trkpt>
      <trkpt lat="49.32418" lon="6.72643">
        <ele>184.9</ele>
        <time>2020-06-26T19:07:17Z</time>
      </trkpt>
      <trkpt lat="49.32412" lon="6.72649">
        <ele>184.9</ele>
        <time>2020-06-26T19:07:18Z</time>
      </trkpt>
      <trkpt lat="49.32406" lon="6.72656">
        <ele>184.9</ele>
        <time>2020-06-26T19:07:19Z</time>
      </trkpt>
      <trkpt lat="49.324" lon="6.72662">
        <ele>184.9</ele>
        <time>2020-06-26T19:07:20Z</time>
      </trkpt>
      <trkpt lat="49.32395" lon="6.7267">
        <ele>185</ele>
        <time>2020-06-26T19:07:21Z</time>
      </trkpt>
      <trkpt lat="49.3239" lon="6.72677">
        <ele>184.9</ele>
        <time>2020-06-26T19:07:22Z</time>
      </trkpt>
      <trkpt lat="49.32385" lon="6.72684">
        <ele>184.8</ele>
        <time>2020-06-26T19:07:23Z</time>
      </trkpt>
      <trkpt lat="49.3238" lon="6.72692">
        <ele>184.7</ele>
        <time>2020-06-26T19:07:24Z</time>
      </trkpt>
      <trkpt lat="49.32374" lon="6.72699">
        <ele>184.6</ele>
        <time>2020-06-26T19:07:25Z</time>
      </trkpt>
      <trkpt lat="49.3237" lon="6.72706">
        <ele>184.6</ele>
        <time>2020-06-26T19:07:26Z</time>
      </trkpt>
      <trkpt lat="49.32365" lon="6.72711">
        <ele>184.5</ele>
        <time>2020-06-26T19:07:27Z</time>
      </trkpt>
      <trkpt lat="49.3236" lon="6.72717">
        <ele>184.5</ele>
        <time>2020-06-26T19:07:28Z</time>
      </trkpt>
      <trkpt lat="49.32357" lon="6.72722">
        <ele>184.5</ele>
        <time>2020-06-26T19:07:29Z</time>
      </trkpt>
      <trkpt lat="49.32353" lon="6.72728">
        <ele>184.5</ele>
        <time>2020-06-26T19:07:30Z</time>
      </trkpt>
      <trkpt lat="49.3235" lon="6.72734">
        <ele>184.5</ele>
        <time>2020-06-26T19:07:31Z</time>
      </trkpt>
      <trkpt lat="49.32346" lon="6.72739">
        <ele>184.5</ele>
        <time>2020-06-26T19:07:32Z</time>
      </trkpt>
      <trkpt lat="49.32342" lon="6.72746">
        <ele>184.5</ele>
        <time>2020-06-26T19:07:33Z</time>
      </trkpt>
      <trkpt lat="49.32338" lon="6.72753">
        <ele>184.5</ele>
        <time>2020-06-26T19:07:34Z</time>
      </trkpt>
      <trkpt lat="49.32334" lon="6.7276">
        <ele>184.5</ele>
        <time>2020-06-26T19:07:35Z</time>
      </trkpt>
      <trkpt lat="49.32329" lon="6.72767">
        <ele>184.4</ele>
        <time>2020-06-26T19:07:36Z</time>
      </trkpt>
      <trkpt lat="49.32325" lon="6.72773">
        <ele>184.4</ele>
        <time>2020-06-26T19:07:37Z</time>
      </trkpt>
      <trkpt lat="49.32321" lon="6.72779">
        <ele>184.4</ele>
        <time>2020-06-26T19:07:38Z</time>
      </trkpt>
      <trkpt lat="49.32318" lon="6.72785">
        <ele>184.4</ele>
        <time>2020-06-26T19:07:39Z</time>
      </trkpt>
      <trkpt lat="49.32314" lon="6.72789">
        <ele>184.4</ele>
        <time>2020-06-26T19:07:40Z</time>
      </trkpt>
      <trkpt lat="49.32311" lon="6.72794">
        <ele>184.4</ele>
        <time>2020-06-26T19:07:41Z</time>
      </trkpt>
      <trkpt lat="49.32307" lon="6.72801">
        <ele>184.4</ele>
        <time>2020-06-26T19:07:42Z</time>
      </trkpt>
      <trkpt lat="49.32302" lon="6.7281">
        <ele>184.3</ele>
        <time>2020-06-26T19:07:43Z</time>
      </trkpt>
      <trkpt lat="49.32298" lon="6.72816">
        <ele>184.3</ele>
        <time>2020-06-26T19:07:44Z</time>
      </trkpt>
      <trkpt lat="49.32293" lon="6.72823">
        <ele>184.2</ele>
        <time>2020-06-26T19:07:45Z</time>
      </trkpt>
      <trkpt lat="49.32288" lon="6.72829">
        <ele>184.1</ele>
        <time>2020-06-26T19:07:46Z</time>
      </trkpt>
      <trkpt lat="49.32283" lon="6.72836">
        <ele>184.1</ele>
        <time>2020-06-26T19:07:47Z</time>
      </trkpt>
      <trkpt lat="49.32278" lon="6.72845">
        <ele>184</ele>
        <time>2020-06-26T19:07:48Z</time>
      </trkpt>
      <trkpt lat="49.32273" lon="6.72853">
        <ele>183.9</ele>
        <time>2020-06-26T19:07:49Z</time>
      </trkpt>
      <trkpt lat="49.32268" lon="6.72859">
        <ele>183.9</ele>
        <time>2020-06-26T19:07:50Z</time>
      </trkpt>
      <trkpt lat="49.32264" lon="6.72864">
        <ele>183.8</ele>
        <time>2020-06-26T19:07:51Z</time>
      </trkpt>
      <trkpt lat="49.32259" lon="6.7287">
        <ele>183.8</ele>
        <time>2020-06-26T19:07:52Z</time>
      </trkpt>
      <trkpt lat="49.32254" lon="6.72876">
        <ele>183.8</ele>
        <time>2020-06-26T19:07:53Z</time>
      </trkpt>
      <trkpt lat="49.32247" lon="6.72887">
        <ele>183.7</ele>
        <time>2020-06-26T19:07:54Z</time>
      </trkpt>
      <trkpt lat="49.3224" lon="6.72895">
        <ele>183.7</ele>
        <time>2020-06-26T19:07:55Z</time>
      </trkpt>
      <trkpt lat="49.32234" lon="6.72904">
        <ele>183.6</ele>
        <time>2020-06-26T19:07:56Z</time>
      </trkpt>
      <trkpt lat="49.32228" lon="6.72913">
        <ele>183.5</ele>
        <time>2020-06-26T19:07:57Z</time>
      </trkpt>
      <trkpt lat="49.32223" lon="6.72921">
        <ele>183.4</ele>
        <time>2020-06-26T19:07:58Z</time>
      </trkpt>
      <trkpt lat="49.32216" lon="6.72929">
        <ele>183.4</ele>
        <time>2020-06-26T19:07:59Z</time>
      </trkpt>
      <trkpt lat="49.3221" lon="6.72939">
        <ele>183.3</ele>
        <time>2020-06-26T19:08:00Z</time>
      </trkpt>
      <trkpt lat="49.32204" lon="6.72948">
        <ele>183.3</ele>
        <time>2020-06-26T19:08:01Z</time>
      </trkpt>
      <trkpt lat="49.32198" lon="6.72959">
        <ele>183.3</ele>
        <time>2020-06-26T19:08:02Z</time>
      </trkpt>
      <trkpt lat="49.32193" lon="6.72968">
        <ele>183.3</ele>
        <time>2020-06-26T19:08:03Z</time>
      </trkpt>
      <trkpt lat="49.32188" lon="6.72979">
        <ele>183.3</ele>
        <time>2020-06-26T19:08:04Z</time>
      </trkpt>
      <trkpt lat="49.32183" lon="6.72987">
        <ele>183.2</ele>
        <time>2020-06-26T19:08:05Z</time>
      </trkpt>
      <trkpt lat="49.32179" lon="6.72995">
        <ele>182.9</ele>
        <time>2020-06-26T19:08:06Z</time>
      </trkpt>
      <trkpt lat="49.32174" lon="6.73004">
        <ele>182.5</ele>
        <time>2020-06-26T19:08:07Z</time>
      </trkpt>
      <trkpt lat="49.32171" lon="6.73012">
        <ele>182.3</ele>
        <time>2020-06-26T19:08:08Z</time>
      </trkpt>
      <trkpt lat="49.32166" lon="6.73022">
        <ele>182.2</ele>
        <time>2020-06-26T19:08:09Z</time>
      </trkpt>
      <trkpt lat="49.32161" lon="6.7303">
        <ele>182</ele>
        <time>2020-06-26T19:08:10Z</time>
      </trkpt>
      <trkpt lat="49.32156" lon="6.73038">
        <ele>181.9</ele>
        <time>2020-06-26T19:08:11Z</time>
      </trkpt>
      <trkpt lat="49.32151" lon="6.73045">
        <ele>181.8</ele>
        <time>2020-06-26T19:08:12Z</time>
      </trkpt>
      <trkpt lat="49.32146" lon="6.73054">
        <ele>181.6</ele>
        <time>2020-06-26T19:08:13Z</time>
      </trkpt>
      <trkpt lat="49.32141" lon="6.73062">
        <ele>181.5</ele>
        <time>2020-06-26T19:08:14Z</time>
      </trkpt>
      <trkpt lat="49.32135" lon="6.73069">
        <ele>181.4</ele>
        <time>2020-06-26T19:08:15Z</time>
      </trkpt>
      <trkpt lat="49.32128" lon="6.73078">
        <ele>181.3</ele>
        <time>2020-06-26T19:08:16Z</time>
      </trkpt>
      <trkpt lat="49.32123" lon="6.73085">
        <ele>181.2</ele>
        <time>2020-06-26T19:08:17Z</time>
      </trkpt>
      <trkpt lat="49.32117" lon="6.73094">
        <ele>181.1</ele>
        <time>2020-06-26T19:08:18Z</time>
      </trkpt>
      <trkpt lat="49.3211" lon="6.73102">
        <ele>181.1</ele>
        <time>2020-06-26T19:08:19Z</time>
      </trkpt>
      <trkpt lat="49.32102" lon="6.7311">
        <ele>181</ele>
        <time>2020-06-26T19:08:20Z</time>
      </trkpt>
      <trkpt lat="49.32096" lon="6.73118">
        <ele>181</ele>
        <time>2020-06-26T19:08:21Z</time>
      </trkpt>
      <trkpt lat="49.3209" lon="6.73126">
        <ele>180.9</ele>
        <time>2020-06-26T19:08:22Z</time>
      </trkpt>
      <trkpt lat="49.32085" lon="6.73133">
        <ele>180.9</ele>
        <time>2020-06-26T19:08:23Z</time>
      </trkpt>
      <trkpt lat="49.3208" lon="6.73139">
        <ele>180.9</ele>
        <time>2020-06-26T19:08:24Z</time>
      </trkpt>
      <trkpt lat="49.32075" lon="6.73146">
        <ele>180.8</ele>
        <time>2020-06-26T19:08:25Z</time>
      </trkpt>
      <trkpt lat="49.3207" lon="6.73152">
        <ele>180.8</ele>
        <time>2020-06-26T19:08:26Z</time>
      </trkpt>
      <trkpt lat="49.32064" lon="6.73158">
        <ele>180.7</ele>
        <time>2020-06-26T19:08:27Z</time>
      </trkpt>
      <trkpt lat="49.3206" lon="6.73165">
        <ele>180.7</ele>
        <time>2020-06-26T19:08:28Z</time>
      </trkpt>
      <trkpt lat="49.32054" lon="6.73172">
        <ele>180.6</ele>
        <time>2020-06-26T19:08:29Z</time>
      </trkpt>
      <trkpt lat="49.3205" lon="6.73179">
        <ele>180.6</ele>
        <time>2020-06-26T19:08:30Z</time>
      </trkpt>
      <trkpt lat="49.32044" lon="6.73186">
        <ele>180.6</ele>
        <time>2020-06-26T19:08:31Z</time>
      </trkpt>
      <trkpt lat="49.32039" lon="6.73193">
        <ele>180.6</ele>
        <time>2020-06-26T19:08:32Z</time>
      </trkpt>
      <trkpt lat="49.32034" lon="6.73199">
        <ele>180.6</ele>
        <time>2020-06-26T19:08:33Z</time>
      </trkpt>
      <trkpt lat="49.3203" lon="6.73206">
        <ele>180.5</ele>
        <time>2020-06-26T19:08:34Z</time>
      </trkpt>
      <trkpt lat="49.32026" lon="6.73211">
        <ele>180.5</ele>
        <time>2020-06-26T19:08:35Z</time>
      </trkpt>
      <trkpt lat="49.32021" lon="6.73218">
        <ele>180.5</ele>
        <time>2020-06-26T19:08:36Z</time>
      </trkpt>
      <trkpt lat="49.32017" lon="6.73224">
        <ele>180.5</ele>
        <time>2020-06-26T19:08:37Z</time>
      </trkpt>
      <trkpt lat="49.32012" lon="6.73231">
        <ele>180.5</ele>
        <time>2020-06-26T19:08:38Z</time>
      </trkpt>
      <trkpt lat="49.32005" lon="6.73239">
        <ele>180.5</ele>
        <time>2020-06-26T19:08:39Z</time>
      </trkpt>
      <trkpt lat="49.31999" lon="6.73247">
        <ele>180.5</ele>
        <time>2020-06-26T19:08:40Z</time>
      </trkpt>
      <trkpt lat="49.31994" lon="6.73253">
        <ele>180.6</ele>
        <time>2020-06-26T19:08:41Z</time>
      </trkpt>
      <trkpt lat="49.31989" lon="6.73261">
        <ele>180.6</ele>
        <time>2020-06-26T19:08:42Z</time>
      </trkpt>
      <trkpt lat="49.31985" lon="6.73268">
        <ele>180.6</ele>
        <time>2020-06-26T19:08:43Z</time>
      </trkpt>
      <trkpt lat="49.31979" lon="6.73274">
        <ele>180.6</ele>
        <time>2020-06-26T19:08:44Z</time>
      </trkpt>
      <trkpt lat="49.31974" lon="6.73281">
        <ele>180.7</ele>
        <time>2020-06-26T19:08:45Z</time>
      </trkpt>
      <trkpt lat="49.31969" lon="6.73287">
        <ele>180.7</ele>
        <time>2020-06-26T19:08:46Z</time>
      </trkpt>
      <trkpt lat="49.31964" lon="6.73295">
        <ele>180.6</ele>
        <time>2020-06-26T19:08:47Z</time>
      </trkpt>
      <trkpt lat="49.3196" lon="6.73301">
        <ele>180.6</ele>
        <time>2020-06-26T19:08:48Z</time>
      </trkpt>
      <trkpt lat="49.31955" lon="6.73308">
        <ele>180.6</ele>
        <time>2020-06-26T19:08:49Z</time>
      </trkpt>
      <trkpt lat="49.31951" lon="6.73314">
        <ele>180.6</ele>
        <time>2020-06-26T19:08:50Z</time>
      </trkpt>
      <trkpt lat="49.31947" lon="6.73321">
        <ele>180.5</ele>
        <time>2020-06-26T19:08:51Z</time>
      </trkpt>
      <trkpt lat="49.31943" lon="6.73328">
        <ele>180.5</ele>
        <time>2020-06-26T19:08:52Z</time>
      </trkpt>
      <trkpt lat="49.31939" lon="6.73334">
        <ele>180.5</ele>
        <time>2020-06-26T19:08:53Z</time>
      </trkpt>
      <trkpt lat="49.31934" lon="6.73339">
        <ele>180.5</ele>
        <time>2020-06-26T19:08:54Z</time>
      </trkpt>
      <trkpt lat="49.3193" lon="6.73347">
        <ele>180.5</ele>
        <time>2020-06-26T19:08:55Z</time>
      </trkpt>
      <trkpt lat="49.31926" lon="6.73352">
        <ele>180.5</ele>
        <time>2020-06-26T19:08:56Z</time>
      </trkpt>
      <trkpt lat="49.31922" lon="6.73358">
        <ele>180.5</ele>
        <time>2020-06-26T19:08:57Z</time>
      </trkpt>
      <trkpt lat="49.31918" lon="6.73363">
        <ele>180.5</ele>
        <time>2020-06-26T19:08:58Z</time>
      </trkpt>
      <trkpt lat="49.31914" lon="6.73368">
        <ele>180.5</ele>
        <time>2020-06-26T19:08:59Z</time>
      </trkpt>
      <trkpt lat="49.3191" lon="6.73374">
        <ele>180.5</ele>
        <time>2020-06-26T19:09:00Z</time>
      </trkpt>
      <trkpt lat="49.31906" lon="6.7338">
        <ele>180.5</ele>
        <time>2020-06-26T19:09:01Z</time>
      </trkpt>
      <trkpt lat="49.31901" lon="6.73386">
        <ele>180.5</ele>
        <time>2020-06-26T19:09:02Z</time>
      </trkpt>
      <trkpt lat="49.31897" lon="6.73389">
        <ele>180.4</ele>
        <time>2020-06-26T19:09:03Z</time>
      </trkpt>
      <trkpt lat="49.31893" lon="6.73396">
        <ele>180.4</ele>
        <time>2020-06-26T19:09:04Z</time>
      </trkpt>
      <trkpt lat="49.31889" lon="6.73402">
        <ele>180.4</ele>
        <time>2020-06-26T19:09:05Z</time>
      </trkpt>
      <trkpt lat="49.31885" lon="6.73408">
        <ele>180.4</ele>
        <time>2020-06-26T19:09:06Z</time>
      </trkpt>
      <trkpt lat="49.31882" lon="6.73413">
        <ele>180.5</ele>
        <time>2020-06-26T19:09:07Z</time>
      </trkpt>
      <trkpt lat="49.31877" lon="6.73418">
        <ele>180.5</ele>
        <time>2020-06-26T19:09:08Z</time>
      </trkpt>
      <trkpt lat="49.31873" lon="6.73425">
        <ele>180.5</ele>
        <time>2020-06-26T19:09:09Z</time>
      </trkpt>
      <trkpt lat="49.3187" lon="6.73429">
        <ele>180.5</ele>
        <time>2020-06-26T19:09:10Z</time>
      </trkpt>
      <trkpt lat="49.31866" lon="6.73434">
        <ele>180.5</ele>
        <time>2020-06-26T19:09:11Z</time>
      </trkpt>
      <trkpt lat="49.31861" lon="6.7344">
        <ele>180.5</ele>
        <time>2020-06-26T19:09:12Z</time>
      </trkpt>
      <trkpt lat="49.31856" lon="6.73447">
        <ele>180.5</ele>
        <time>2020-06-26T19:09:13Z</time>
      </trkpt>
      <trkpt lat="49.31852" lon="6.73453">
        <ele>180.5</ele>
        <time>2020-06-26T19:09:14Z</time>
      </trkpt>
      <trkpt lat="49.31847" lon="6.7346">
        <ele>180.5</ele>
        <time>2020-06-26T19:09:15Z</time>
      </trkpt>
      <trkpt lat="49.31841" lon="6.73468">
        <ele>180.6</ele>
        <time>2020-06-26T19:09:16Z</time>
      </trkpt>
      <trkpt lat="49.31838" lon="6.73473">
        <ele>180.6</ele>
        <time>2020-06-26T19:09:17Z</time>
      </trkpt>
      <trkpt lat="49.31833" lon="6.7348">
        <ele>180.6</ele>
        <time>2020-06-26T19:09:18Z</time>
      </trkpt>
      <trkpt lat="49.31827" lon="6.73486">
        <ele>180.6</ele>
        <time>2020-06-26T19:09:19Z</time>
      </trkpt>
      <trkpt lat="49.31822" lon="6.73493">
        <ele>180.5</ele>
        <time>2020-06-26T19:09:20Z</time>
      </trkpt>
      <trkpt lat="49.31816" lon="6.73501">
        <ele>180.5</ele>
        <time>2020-06-26T19:09:21Z</time>
      </trkpt>
      <trkpt lat="49.31809" lon="6.73508">
        <ele>180.5</ele>
        <time>2020-06-26T19:09:22Z</time>
      </trkpt>
      <trkpt lat="49.31804" lon="6.73516">
        <ele>180.5</ele>
        <time>2020-06-26T19:09:23Z</time>
      </trkpt>
      <trkpt lat="49.31798" lon="6.73523">
        <ele>180.5</ele>
        <time>2020-06-26T19:09:24Z</time>
      </trkpt>
      <trkpt lat="49.31792" lon="6.73529">
        <ele>180.6</ele>
        <time>2020-06-26T19:09:25Z</time>
      </trkpt>
      <trkpt lat="49.31787" lon="6.73536">
        <ele>180.6</ele>
        <time>2020-06-26T19:09:26Z</time>
      </trkpt>
      <trkpt lat="49.31782" lon="6.73542">
        <ele>180.6</ele>
        <time>2020-06-26T19:09:27Z</time>
      </trkpt>
      <trkpt lat="49.31777" lon="6.7355">
        <ele>180.7</ele>
        <time>2020-06-26T19:09:28Z</time>
      </trkpt>
      <trkpt lat="49.31772" lon="6.73557">
        <ele>180.7</ele>
        <time>2020-06-26T19:09:29Z</time>
      </trkpt>
      <trkpt lat="49.31768" lon="6.73562">
        <ele>180.7</ele>
        <time>2020-06-26T19:09:30Z</time>
      </trkpt>
      <trkpt lat="49.31762" lon="6.73569">
        <ele>180.7</ele>
        <time>2020-06-26T19:09:31Z</time>
      </trkpt>
      <trkpt lat="49.31757" lon="6.73576">
        <ele>180.7</ele>
        <time>2020-06-26T19:09:32Z</time>
      </trkpt>
      <trkpt lat="49.31752" lon="6.73583">
        <ele>180.7</ele>
        <time>2020-06-26T19:09:33Z</time>
      </trkpt>
      <trkpt lat="49.31747" lon="6.73589">
        <ele>180.7</ele>
        <time>2020-06-26T19:09:34Z</time>
      </trkpt>
      <trkpt lat="49.31742" lon="6.73596">
        <ele>180.7</ele>
        <time>2020-06-26T19:09:35Z</time>
      </trkpt>
      <trkpt lat="49.31737" lon="6.73602">
        <ele>180.7</ele>
        <time>2020-06-26T19:09:36Z</time>
      </trkpt>
      <trkpt lat="49.31731" lon="6.73609">
        <ele>180.7</ele>
        <time>2020-06-26T19:09:37Z</time>
      </trkpt>
      <trkpt lat="49.31726" lon="6.73617">
        <ele>180.7</ele>
        <time>2020-06-26T19:09:38Z</time>
      </trkpt>
      <trkpt lat="49.3172" lon="6.73623">
        <ele>180.7</ele>
        <time>2020-06-26T19:09:39Z</time>
      </trkpt>
      <trkpt lat="49.31715" lon="6.7363">
        <ele>180.7</ele>
        <time>2020-06-26T19:09:40Z</time>
      </trkpt>
      <trkpt lat="49.3171" lon="6.73637">
        <ele>180.7</ele>
        <time>2020-06-26T19:09:41Z</time>
      </trkpt>
      <trkpt lat="49.31704" lon="6.73644">
        <ele>180.7</ele>
        <time>2020-06-26T19:09:42Z</time>
      </trkpt>
      <trkpt lat="49.31699" lon="6.73651">
        <ele>180.7</ele>
        <time>2020-06-26T19:09:43Z</time>
      </trkpt>
      <trkpt lat="49.31694" lon="6.73658">
        <ele>180.8</ele>
        <time>2020-06-26T19:09:44Z</time>
      </trkpt>
      <trkpt lat="49.31689" lon="6.73666">
        <ele>180.8</ele>
        <time>2020-06-26T19:09:45Z</time>
      </trkpt>
      <trkpt lat="49.31684" lon="6.73672">
        <ele>180.9</ele>
        <time>2020-06-26T19:09:46Z</time>
      </trkpt>
      <trkpt lat="49.3168" lon="6.7368">
        <ele>180.9</ele>
        <time>2020-06-26T19:09:47Z</time>
      </trkpt>
      <trkpt lat="49.31675" lon="6.73687">
        <ele>180.9</ele>
        <time>2020-06-26T19:09:48Z</time>
      </trkpt>
      <trkpt lat="49.3167" lon="6.73694">
        <ele>181</ele>
        <time>2020-06-26T19:09:49Z</time>
      </trkpt>
      <trkpt lat="49.31666" lon="6.737">
        <ele>180.9</ele>
        <time>2020-06-26T19:09:50Z</time>
      </trkpt>
      <trkpt lat="49.31661" lon="6.73706">
        <ele>180.9</ele>
        <time>2020-06-26T19:09:51Z</time>
      </trkpt>
      <trkpt lat="49.31656" lon="6.73712">
        <ele>180.9</ele>
        <time>2020-06-26T19:09:52Z</time>
      </trkpt>
      <trkpt lat="49.31652" lon="6.73717">
        <ele>180.9</ele>
        <time>2020-06-26T19:09:53Z</time>
      </trkpt>
      <trkpt lat="49.31648" lon="6.73722">
        <ele>180.9</ele>
        <time>2020-06-26T19:09:54Z</time>
      </trkpt>
      <trkpt lat="49.31644" lon="6.73728">
        <ele>180.9</ele>
        <time>2020-06-26T19:09:55Z</time>
      </trkpt>
      <trkpt lat="49.31638" lon="6.73734">
        <ele>181</ele>
        <time>2020-06-26T19:09:56Z</time>
      </trkpt>
      <trkpt lat="49.31634" lon="6.7374">
        <ele>181</ele>
        <time>2020-06-26T19:09:57Z</time>
      </trkpt>
      <trkpt lat="49.31629" lon="6.73747">
        <ele>181</ele>
        <time>2020-06-26T19:09:58Z</time>
      </trkpt>
      <trkpt lat="49.31625" lon="6.73755">
        <ele>181.1</ele>
        <time>2020-06-26T19:09:59Z</time>
      </trkpt>
      <trkpt lat="49.31621" lon="6.73762">
        <ele>181.1</ele>
        <time>2020-06-26T19:10:00Z</time>
      </trkpt>
      <trkpt lat="49.31616" lon="6.73767">
        <ele>181.2</ele>
        <time>2020-06-26T19:10:01Z</time>
      </trkpt>
      <trkpt lat="49.31611" lon="6.73774">
        <ele>181.2</ele>
        <time>2020-06-26T19:10:02Z</time>
      </trkpt>
      <trkpt lat="49.31607" lon="6.73781">
        <ele>181.3</ele>
        <time>2020-06-26T19:10:03Z</time>
      </trkpt>
      <trkpt lat="49.31602" lon="6.73786">
        <ele>181.3</ele>
        <time>2020-06-26T19:10:04Z</time>
      </trkpt>
      <trkpt lat="49.31597" lon="6.73793">
        <ele>181.3</ele>
        <time>2020-06-26T19:10:05Z</time>
      </trkpt>
      <trkpt lat="49.31592" lon="6.73799">
        <ele>181.3</ele>
        <time>2020-06-26T19:10:06Z</time>
      </trkpt>
      <trkpt lat="49.31587" lon="6.73805">
        <ele>181.4</ele>
        <time>2020-06-26T19:10:07Z</time>
      </trkpt>
      <trkpt lat="49.31583" lon="6.73809">
        <ele>181.4</ele>
        <time>2020-06-26T19:10:08Z</time>
      </trkpt>
      <trkpt lat="49.31579" lon="6.73814">
        <ele>181.4</ele>
        <time>2020-06-26T19:10:09Z</time>
      </trkpt>
      <trkpt lat="49.31575" lon="6.73819">
        <ele>181.4</ele>
        <time>2020-06-26T19:10:10Z</time>
      </trkpt>
      <trkpt lat="49.31571" lon="6.73824">
        <ele>181.4</ele>
        <time>2020-06-26T19:10:11Z</time>
      </trkpt>
      <trkpt lat="49.31567" lon="6.7383">
        <ele>181.4</ele>
        <time>2020-06-26T19:10:12Z</time>
      </trkpt>
      <trkpt lat="49.31562" lon="6.73836">
        <ele>181.5</ele>
        <time>2020-06-26T19:10:13Z</time>
      </trkpt>
      <trkpt lat="49.31558" lon="6.73841">
        <ele>181.5</ele>
        <time>2020-06-26T19:10:14Z</time>
      </trkpt>
      <trkpt lat="49.31554" lon="6.73847">
        <ele>181.5</ele>
        <time>2020-06-26T19:10:15Z</time>
      </trkpt>
      <trkpt lat="49.31549" lon="6.73853">
        <ele>181.5</ele>
        <time>2020-06-26T19:10:16Z</time>
      </trkpt>
      <trkpt lat="49.31545" lon="6.7386">
        <ele>181.5</ele>
        <time>2020-06-26T19:10:17Z</time>
      </trkpt>
      <trkpt lat="49.31541" lon="6.73867">
        <ele>181.5</ele>
        <time>2020-06-26T19:10:18Z</time>
      </trkpt>
      <trkpt lat="49.31536" lon="6.73873">
        <ele>181.5</ele>
        <time>2020-06-26T19:10:19Z</time>
      </trkpt>
      <trkpt lat="49.31532" lon="6.7388">
        <ele>181.5</ele>
        <time>2020-06-26T19:10:20Z</time>
      </trkpt>
      <trkpt lat="49.31527" lon="6.73887">
        <ele>181.5</ele>
        <time>2020-06-26T19:10:21Z</time>
      </trkpt>
      <trkpt lat="49.31523" lon="6.73894">
        <ele>181.5</ele>
        <time>2020-06-26T19:10:22Z</time>
      </trkpt>
      <trkpt lat="49.31519" lon="6.73901">
        <ele>181.5</ele>
        <time>2020-06-26T19:10:23Z</time>
      </trkpt>
      <trkpt lat="49.31514" lon="6.73908">
        <ele>181.5</ele>
        <time>2020-06-26T19:10:24Z</time>
      </trkpt>
      <trkpt lat="49.31509" lon="6.73915">
        <ele>181.5</ele>
        <time>2020-06-26T19:10:25Z</time>
      </trkpt>
      <trkpt lat="49.31504" lon="6.73922">
        <ele>181.5</ele>
        <time>2020-06-26T19:10:26Z</time>
      </trkpt>
      <trkpt lat="49.31499" lon="6.73928">
        <ele>181.5</ele>
        <time>2020-06-26T19:10:27Z</time>
      </trkpt>
      <trkpt lat="49.31494" lon="6.73934">
        <ele>181.5</ele>
        <time>2020-06-26T19:10:28Z</time>
      </trkpt>
      <trkpt lat="49.31489" lon="6.73941">
        <ele>181.5</ele>
        <time>2020-06-26T19:10:29Z</time>
      </trkpt>
      <trkpt lat="49.31485" lon="6.73946">
        <ele>181.5</ele>
        <time>2020-06-26T19:10:30Z</time>
      </trkpt>
      <trkpt lat="49.3148" lon="6.73953">
        <ele>181.5</ele>
        <time>2020-06-26T19:10:31Z</time>
      </trkpt>
      <trkpt lat="49.31476" lon="6.73958">
        <ele>181.5</ele>
        <time>2020-06-26T19:10:32Z</time>
      </trkpt>
      <trkpt lat="49.31471" lon="6.73965">
        <ele>181.5</ele>
        <time>2020-06-26T19:10:33Z</time>
      </trkpt>
      <trkpt lat="49.31467" lon="6.73972">
        <ele>181.5</ele>
        <time>2020-06-26T19:10:34Z</time>
      </trkpt>
      <trkpt lat="49.31462" lon="6.73978">
        <ele>181.5</ele>
        <time>2020-06-26T19:10:35Z</time>
      </trkpt>
      <trkpt lat="49.31457" lon="6.73983">
        <ele>181.6</ele>
        <time>2020-06-26T19:10:36Z</time>
      </trkpt>
      <trkpt lat="49.31453" lon="6.73989">
        <ele>181.6</ele>
        <time>2020-06-26T19:10:37Z</time>
      </trkpt>
      <trkpt lat="49.31448" lon="6.73995">
        <ele>181.6</ele>
        <time>2020-06-26T19:10:38Z</time>
      </trkpt>
      <trkpt lat="49.31443" lon="6.74002">
        <ele>181.6</ele>
        <time>2020-06-26T19:10:39Z</time>
      </trkpt>
      <trkpt lat="49.31438" lon="6.74009">
        <ele>181.7</ele>
        <time>2020-06-26T19:10:40Z</time>
      </trkpt>
      <trkpt lat="49.31434" lon="6.74016">
        <ele>181.7</ele>
        <time>2020-06-26T19:10:41Z</time>
      </trkpt>
      <trkpt lat="49.31429" lon="6.74024">
        <ele>181.7</ele>
        <time>2020-06-26T19:10:42Z</time>
      </trkpt>
      <trkpt lat="49.31426" lon="6.7403">
        <ele>181.7</ele>
        <time>2020-06-26T19:10:43Z</time>
      </trkpt>
      <trkpt lat="49.31421" lon="6.74035">
        <ele>181.8</ele>
        <time>2020-06-26T19:10:44Z</time>
      </trkpt>
      <trkpt lat="49.31417" lon="6.74041">
        <ele>181.8</ele>
        <time>2020-06-26T19:10:45Z</time>
      </trkpt>
      <trkpt lat="49.31412" lon="6.74047">
        <ele>181.8</ele>
        <time>2020-06-26T19:10:46Z</time>
      </trkpt>
      <trkpt lat="49.31407" lon="6.74054">
        <ele>181.9</ele>
        <time>2020-06-26T19:10:47Z</time>
      </trkpt>
      <trkpt lat="49.31402" lon="6.7406">
        <ele>181.9</ele>
        <time>2020-06-26T19:10:48Z</time>
      </trkpt>
      <trkpt lat="49.31398" lon="6.74066">
        <ele>181.9</ele>
        <time>2020-06-26T19:10:49Z</time>
      </trkpt>
      <trkpt lat="49.31394" lon="6.74072">
        <ele>181.9</ele>
        <time>2020-06-26T19:10:50Z</time>
      </trkpt>
      <trkpt lat="49.31389" lon="6.74078">
        <ele>182</ele>
        <time>2020-06-26T19:10:51Z</time>
      </trkpt>
      <trkpt lat="49.31385" lon="6.74084">
        <ele>182</ele>
        <time>2020-06-26T19:10:52Z</time>
      </trkpt>
      <trkpt lat="49.3138" lon="6.74089">
        <ele>182</ele>
        <time>2020-06-26T19:10:53Z</time>
      </trkpt>
      <trkpt lat="49.31375" lon="6.74095">
        <ele>182.1</ele>
        <time>2020-06-26T19:10:54Z</time>
      </trkpt>
      <trkpt lat="49.31371" lon="6.74102">
        <ele>182.1</ele>
        <time>2020-06-26T19:10:55Z</time>
      </trkpt>
      <trkpt lat="49.31366" lon="6.74108">
        <ele>182.1</ele>
        <time>2020-06-26T19:10:56Z</time>
      </trkpt>
      <trkpt lat="49.31362" lon="6.74114">
        <ele>182.1</ele>
        <time>2020-06-26T19:10:57Z</time>
      </trkpt>
      <trkpt lat="49.31358" lon="6.7412">
        <ele>182.1</ele>
        <time>2020-06-26T19:10:58Z</time>
      </trkpt>
      <trkpt lat="49.31354" lon="6.74126">
        <ele>182.1</ele>
        <time>2020-06-26T19:10:59Z</time>
      </trkpt>
      <trkpt lat="49.3135" lon="6.74132">
        <ele>182.1</ele>
        <time>2020-06-26T19:11:00Z</time>
      </trkpt>
      <trkpt lat="49.31345" lon="6.74139">
        <ele>182.2</ele>
        <time>2020-06-26T19:11:01Z</time>
      </trkpt>
      <trkpt lat="49.31341" lon="6.74146">
        <ele>182.2</ele>
        <time>2020-06-26T19:11:02Z</time>
      </trkpt>
      <trkpt lat="49.31336" lon="6.74153">
        <ele>182.2</ele>
        <time>2020-06-26T19:11:03Z</time>
      </trkpt>
      <trkpt lat="49.31331" lon="6.7416">
        <ele>182.2</ele>
        <time>2020-06-26T19:11:04Z</time>
      </trkpt>
      <trkpt lat="49.31326" lon="6.74166">
        <ele>182.1</ele>
        <time>2020-06-26T19:11:05Z</time>
      </trkpt>
      <trkpt lat="49.31321" lon="6.74172">
        <ele>182.1</ele>
        <time>2020-06-26T19:11:06Z</time>
      </trkpt>
      <trkpt lat="49.31316" lon="6.74178">
        <ele>182.1</ele>
        <time>2020-06-26T19:11:07Z</time>
      </trkpt>
      <trkpt lat="49.31311" lon="6.74184">
        <ele>182.1</ele>
        <time>2020-06-26T19:11:08Z</time>
      </trkpt>
      <trkpt lat="49.31307" lon="6.74191">
        <ele>182.1</ele>
        <time>2020-06-26T19:11:09Z</time>
      </trkpt>
      <trkpt lat="49.31302" lon="6.74198">
        <ele>182.1</ele>
        <time>2020-06-26T19:11:10Z</time>
      </trkpt>
      <trkpt lat="49.31296" lon="6.74206">
        <ele>182.1</ele>
        <time>2020-06-26T19:11:11Z</time>
      </trkpt>
      <trkpt lat="49.31291" lon="6.74214">
        <ele>182.2</ele>
        <time>2020-06-26T19:11:12Z</time>
      </trkpt>
      <trkpt lat="49.31286" lon="6.7422">
        <ele>182.3</ele>
        <time>2020-06-26T19:11:13Z</time>
      </trkpt>
      <trkpt lat="49.31281" lon="6.74228">
        <ele>182.3</ele>
        <time>2020-06-26T19:11:14Z</time>
      </trkpt>
      <trkpt lat="49.31277" lon="6.74233">
        <ele>182.3</ele>
        <time>2020-06-26T19:11:15Z</time>
      </trkpt>
      <trkpt lat="49.31274" lon="6.74237">
        <ele>182.3</ele>
        <time>2020-06-26T19:11:16Z</time>
      </trkpt>
      <trkpt lat="49.3127" lon="6.74242">
        <ele>182.3</ele>
        <time>2020-06-26T19:11:17Z</time>
      </trkpt>
      <trkpt lat="49.31266" lon="6.74248">
        <ele>182.3</ele>
        <time>2020-06-26T19:11:18Z</time>
      </trkpt>
      <trkpt lat="49.31259" lon="6.74255">
        <ele>182.3</ele>
        <time>2020-06-26T19:11:19Z</time>
      </trkpt>
      <trkpt lat="49.31254" lon="6.74263">
        <ele>182.3</ele>
        <time>2020-06-26T19:11:20Z</time>
      </trkpt>
      <trkpt lat="49.31248" lon="6.74271">
        <ele>182.3</ele>
        <time>2020-06-26T19:11:21Z</time>
      </trkpt>
      <trkpt lat="49.3124" lon="6.74281">
        <ele>182.3</ele>
        <time>2020-06-26T19:11:22Z</time>
      </trkpt>
      <trkpt lat="49.31234" lon="6.7429">
        <ele>182.3</ele>
        <time>2020-06-26T19:11:23Z</time>
      </trkpt>
      <trkpt lat="49.31227" lon="6.74299">
        <ele>182.3</ele>
        <time>2020-06-26T19:11:24Z</time>
      </trkpt>
      <trkpt lat="49.31221" lon="6.74308">
        <ele>182.3</ele>
        <time>2020-06-26T19:11:25Z</time>
      </trkpt>
      <trkpt lat="49.31217" lon="6.74315">
        <ele>182.3</ele>
        <time>2020-06-26T19:11:26Z</time>
      </trkpt>
      <trkpt lat="49.31212" lon="6.74321">
        <ele>182.2</ele>
        <time>2020-06-26T19:11:27Z</time>
      </trkpt>
      <trkpt lat="49.31207" lon="6.74328">
        <ele>182.2</ele>
        <time>2020-06-26T19:11:28Z</time>
      </trkpt>
      <trkpt lat="49.31201" lon="6.74336">
        <ele>182.2</ele>
        <time>2020-06-26T19:11:29Z</time>
      </trkpt>
      <trkpt lat="49.31194" lon="6.74343">
        <ele>182.2</ele>
        <time>2020-06-26T19:11:30Z</time>
      </trkpt>
      <trkpt lat="49.31189" lon="6.74351">
        <ele>182.2</ele>
        <time>2020-06-26T19:11:31Z</time>
      </trkpt>
      <trkpt lat="49.31185" lon="6.74356">
        <ele>182.2</ele>
        <time>2020-06-26T19:11:32Z</time>
      </trkpt>
      <trkpt lat="49.31181" lon="6.74361">
        <ele>182.2</ele>
        <time>2020-06-26T19:11:33Z</time>
      </trkpt>
      <trkpt lat="49.31177" lon="6.74367">
        <ele>182.3</ele>
        <time>2020-06-26T19:11:34Z</time>
      </trkpt>
      <trkpt lat="49.31173" lon="6.74373">
        <ele>182.3</ele>
        <time>2020-06-26T19:11:35Z</time>
      </trkpt>
      <trkpt lat="49.31167" lon="6.7438">
        <ele>182.3</ele>
        <time>2020-06-26T19:11:36Z</time>
      </trkpt>
      <trkpt lat="49.31164" lon="6.74386">
        <ele>182.4</ele>
        <time>2020-06-26T19:11:37Z</time>
      </trkpt>
      <trkpt lat="49.31158" lon="6.74394">
        <ele>182.4</ele>
        <time>2020-06-26T19:11:38Z</time>
      </trkpt>
      <trkpt lat="49.31152" lon="6.74401">
        <ele>182.4</ele>
        <time>2020-06-26T19:11:39Z</time>
      </trkpt>
      <trkpt lat="49.31146" lon="6.74407">
        <ele>182.4</ele>
        <time>2020-06-26T19:11:40Z</time>
      </trkpt>
      <trkpt lat="49.31142" lon="6.74412">
        <ele>182.4</ele>
        <time>2020-06-26T19:11:41Z</time>
      </trkpt>
      <trkpt lat="49.31137" lon="6.74419">
        <ele>182.4</ele>
        <time>2020-06-26T19:11:42Z</time>
      </trkpt>
      <trkpt lat="49.31131" lon="6.74426">
        <ele>182.5</ele>
        <time>2020-06-26T19:11:43Z</time>
      </trkpt>
      <trkpt lat="49.31126" lon="6.74434">
        <ele>182.5</ele>
        <time>2020-06-26T19:11:44Z</time>
      </trkpt>
      <trkpt lat="49.3112" lon="6.74441">
        <ele>182.6</ele>
        <time>2020-06-26T19:11:45Z</time>
      </trkpt>
      <trkpt lat="49.31115" lon="6.74448">
        <ele>182.6</ele>
        <time>2020-06-26T19:11:46Z</time>
      </trkpt>
      <trkpt lat="49.31111" lon="6.74455">
        <ele>182.6</ele>
        <time>2020-06-26T19:11:47Z</time>
      </trkpt>
      <trkpt lat="49.31106" lon="6.74462">
        <ele>182.7</ele>
        <time>2020-06-26T19:11:48Z</time>
      </trkpt>
      <trkpt lat="49.31101" lon="6.74469">
        <ele>182.7</ele>
        <time>2020-06-26T19:11:49Z</time>
      </trkpt>
      <trkpt lat="49.31096" lon="6.74475">
        <ele>182.7</ele>
        <time>2020-06-26T19:11:50Z</time>
      </trkpt>
      <trkpt lat="49.31093" lon="6.74482">
        <ele>182.8</ele>
        <time>2020-06-26T19:11:51Z</time>
      </trkpt>
      <trkpt lat="49.31089" lon="6.74487">
        <ele>182.8</ele>
        <time>2020-06-26T19:11:52Z</time>
      </trkpt>
      <trkpt lat="49.31085" lon="6.74493">
        <ele>182.8</ele>
        <time>2020-06-26T19:11:53Z</time>
      </trkpt>
      <trkpt lat="49.31082" lon="6.745">
        <ele>182.9</ele>
        <time>2020-06-26T19:11:54Z</time>
      </trkpt>
      <trkpt lat="49.31079" lon="6.74509">
        <ele>182.9</ele>
        <time>2020-06-26T19:11:55Z</time>
      </trkpt>
      <trkpt lat="49.31076" lon="6.7452">
        <ele>182.9</ele>
        <time>2020-06-26T19:11:56Z</time>
      </trkpt>
      <trkpt lat="49.31074" lon="6.74531">
        <ele>182.9</ele>
        <time>2020-06-26T19:11:57Z</time>
      </trkpt>
      <trkpt lat="49.31072" lon="6.7454">
        <ele>182.8</ele>
        <time>2020-06-26T19:11:58Z</time>
      </trkpt>
      <trkpt lat="49.3107" lon="6.74549">
        <ele>182.8</ele>
        <time>2020-06-26T19:11:59Z</time>
      </trkpt>
      <trkpt lat="49.31068" lon="6.74557">
        <ele>182.8</ele>
        <time>2020-06-26T19:12:00Z</time>
      </trkpt>
      <trkpt lat="49.31065" lon="6.74565">
        <ele>182.7</ele>
        <time>2020-06-26T19:12:01Z</time>
      </trkpt>
      <trkpt lat="49.31063" lon="6.74574">
        <ele>182.7</ele>
        <time>2020-06-26T19:12:02Z</time>
      </trkpt>
      <trkpt lat="49.31061" lon="6.74586">
        <ele>182.7</ele>
        <time>2020-06-26T19:12:03Z</time>
      </trkpt>
      <trkpt lat="49.31058" lon="6.74595">
        <ele>182.7</ele>
        <time>2020-06-26T19:12:04Z</time>
      </trkpt>
      <trkpt lat="49.31056" lon="6.74603">
        <ele>182.7</ele>
        <time>2020-06-26T19:12:05Z</time>
      </trkpt>
      <trkpt lat="49.31054" lon="6.74612">
        <ele>182.7</ele>
        <time>2020-06-26T19:12:06Z</time>
      </trkpt>
      <trkpt lat="49.31051" lon="6.7462">
        <ele>182.7</ele>
        <time>2020-06-26T19:12:07Z</time>
      </trkpt>
      <trkpt lat="49.31049" lon="6.7463">
        <ele>182.7</ele>
        <time>2020-06-26T19:12:08Z</time>
      </trkpt>
      <trkpt lat="49.31047" lon="6.7464">
        <ele>182.8</ele>
        <time>2020-06-26T19:12:09Z</time>
      </trkpt>
      <trkpt lat="49.31045" lon="6.74647">
        <ele>182.8</ele>
        <time>2020-06-26T19:12:10Z</time>
      </trkpt>
      <trkpt lat="49.31043" lon="6.74655">
        <ele>182.8</ele>
        <time>2020-06-26T19:12:11Z</time>
      </trkpt>
      <trkpt lat="49.31041" lon="6.74663">
        <ele>182.9</ele>
        <time>2020-06-26T19:12:12Z</time>
      </trkpt>
      <trkpt lat="49.3104" lon="6.74668">
        <ele>182.9</ele>
        <time>2020-06-26T19:12:13Z</time>
      </trkpt>
      <trkpt lat="49.31039" lon="6.74674">
        <ele>182.9</ele>
        <time>2020-06-26T19:12:14Z</time>
      </trkpt>
      <trkpt lat="49.31038" lon="6.74683">
        <ele>183</ele>
        <time>2020-06-26T19:12:15Z</time>
      </trkpt>
      <trkpt lat="49.31036" lon="6.74692">
        <ele>183.1</ele>
        <time>2020-06-26T19:12:16Z</time>
      </trkpt>
      <trkpt lat="49.31035" lon="6.74701">
        <ele>183.1</ele>
        <time>2020-06-26T19:12:17Z</time>
      </trkpt>
      <trkpt lat="49.31033" lon="6.74709">
        <ele>183.2</ele>
        <time>2020-06-26T19:12:18Z</time>
      </trkpt>
      <trkpt lat="49.31031" lon="6.74717">
        <ele>183.2</ele>
        <time>2020-06-26T19:12:19Z</time>
      </trkpt>
      <trkpt lat="49.31028" lon="6.74724">
        <ele>183.2</ele>
        <time>2020-06-26T19:12:20Z</time>
      </trkpt>
      <trkpt lat="49.31026" lon="6.74733">
        <ele>183.3</ele>
        <time>2020-06-26T19:12:21Z</time>
      </trkpt>
      <trkpt lat="49.31022" lon="6.74739">
        <ele>183.3</ele>
        <time>2020-06-26T19:12:22Z</time>
      </trkpt>
      <trkpt lat="49.31018" lon="6.74743">
        <ele>183.3</ele>
        <time>2020-06-26T19:12:23Z</time>
      </trkpt>
      <trkpt lat="49.31015" lon="6.74747">
        <ele>183.4</ele>
        <time>2020-06-26T19:12:24Z</time>
      </trkpt>
      <trkpt lat="49.3101" lon="6.74749">
        <ele>183.4</ele>
        <time>2020-06-26T19:12:25Z</time>
      </trkpt>
      <trkpt lat="49.31006" lon="6.74748">
        <ele>183.5</ele>
        <time>2020-06-26T19:12:26Z</time>
      </trkpt>
      <trkpt lat="49.31002" lon="6.7475">
        <ele>183.4</ele>
        <time>2020-06-26T19:12:27Z</time>
      </trkpt>
      <trkpt lat="49.30998" lon="6.74753">
        <ele>183.4</ele>
        <time>2020-06-26T19:12:28Z</time>
      </trkpt>
      <trkpt lat="49.30997" lon="6.74756">
        <ele>183.4</ele>
        <time>2020-06-26T19:12:29Z</time>
      </trkpt>
      <trkpt lat="49.30995" lon="6.74761">
        <ele>183.3</ele>
        <time>2020-06-26T19:12:30Z</time>
      </trkpt>
      <trkpt lat="49.30994" lon="6.74763">
        <ele>183.3</ele>
        <time>2020-06-26T19:12:31Z</time>
      </trkpt>
      <trkpt lat="49.30993" lon="6.74767">
        <ele>183.3</ele>
        <time>2020-06-26T19:12:32Z</time>
      </trkpt>
      <trkpt lat="49.30993" lon="6.74773">
        <ele>183.2</ele>
        <time>2020-06-26T19:12:33Z</time>
      </trkpt>
      <trkpt lat="49.30993" lon="6.74777">
        <ele>183.2</ele>
        <time>2020-06-26T19:12:34Z</time>
      </trkpt>
      <trkpt lat="49.30993" lon="6.74783">
        <ele>183.2</ele>
        <time>2020-06-26T19:12:35Z</time>
      </trkpt>
      <trkpt lat="49.30993" lon="6.74789">
        <ele>183.2</ele>
        <time>2020-06-26T19:12:36Z</time>
      </trkpt>
      <trkpt lat="49.30994" lon="6.74791">
        <ele>183.2</ele>
        <time>2020-06-26T19:12:37Z</time>
      </trkpt>
      <trkpt lat="49.30995" lon="6.74796">
        <ele>183.1</ele>
        <time>2020-06-26T19:12:38Z</time>
      </trkpt>
      <trkpt lat="49.30995" lon="6.74799">
        <ele>183.1</ele>
        <time>2020-06-26T19:12:39Z</time>
      </trkpt>
      <trkpt lat="49.30995" lon="6.74804">
        <ele>183.1</ele>
        <time>2020-06-26T19:12:40Z</time>
      </trkpt>
      <trkpt lat="49.30994" lon="6.74811">
        <ele>183</ele>
        <time>2020-06-26T19:12:41Z</time>
      </trkpt>
      <trkpt lat="49.30994" lon="6.74818">
        <ele>182.9</ele>
        <time>2020-06-26T19:12:42Z</time>
      </trkpt>
      <trkpt lat="49.30994" lon="6.74825">
        <ele>182.9</ele>
        <time>2020-06-26T19:12:43Z</time>
      </trkpt>
      <trkpt lat="49.30993" lon="6.74829">
        <ele>182.9</ele>
        <time>2020-06-26T19:12:44Z</time>
      </trkpt>
      <trkpt lat="49.30992" lon="6.74837">
        <ele>182.9</ele>
        <time>2020-06-26T19:12:45Z</time>
      </trkpt>
      <trkpt lat="49.30991" lon="6.74846">
        <ele>182.9</ele>
        <time>2020-06-26T19:12:46Z</time>
      </trkpt>
      <trkpt lat="49.3099" lon="6.74854">
        <ele>182.9</ele>
        <time>2020-06-26T19:12:47Z</time>
      </trkpt>
      <trkpt lat="49.3099" lon="6.74862">
        <ele>182.9</ele>
        <time>2020-06-26T19:12:48Z</time>
      </trkpt>
      <trkpt lat="49.3099" lon="6.74871">
        <ele>183</ele>
        <time>2020-06-26T19:12:49Z</time>
      </trkpt>
      <trkpt lat="49.30989" lon="6.74878">
        <ele>183</ele>
        <time>2020-06-26T19:12:50Z</time>
      </trkpt>
      <trkpt lat="49.3099" lon="6.74888">
        <ele>182.9</ele>
        <time>2020-06-26T19:12:51Z</time>
      </trkpt>
      <trkpt lat="49.30991" lon="6.74897">
        <ele>182.9</ele>
        <time>2020-06-26T19:12:52Z</time>
      </trkpt>
      <trkpt lat="49.30992" lon="6.74904">
        <ele>182.9</ele>
        <time>2020-06-26T19:12:53Z</time>
      </trkpt>
      <trkpt lat="49.30993" lon="6.74914">
        <ele>182.9</ele>
        <time>2020-06-26T19:12:54Z</time>
      </trkpt>
      <trkpt lat="49.30997" lon="6.74925">
        <ele>182.8</ele>
        <time>2020-06-26T19:12:55Z</time>
      </trkpt>
      <trkpt lat="49.30999" lon="6.74933">
        <ele>182.8</ele>
        <time>2020-06-26T19:12:56Z</time>
      </trkpt>
      <trkpt lat="49.31001" lon="6.74941">
        <ele>182.8</ele>
        <time>2020-06-26T19:12:57Z</time>
      </trkpt>
      <trkpt lat="49.31002" lon="6.74949">
        <ele>182.8</ele>
        <time>2020-06-26T19:12:58Z</time>
      </trkpt>
      <trkpt lat="49.31005" lon="6.74957">
        <ele>182.8</ele>
        <time>2020-06-26T19:12:59Z</time>
      </trkpt>
      <trkpt lat="49.31006" lon="6.74966">
        <ele>182.8</ele>
        <time>2020-06-26T19:13:00Z</time>
      </trkpt>
      <trkpt lat="49.31007" lon="6.74973">
        <ele>182.8</ele>
        <time>2020-06-26T19:13:01Z</time>
      </trkpt>
      <trkpt lat="49.31009" lon="6.74981">
        <ele>182.8</ele>
        <time>2020-06-26T19:13:02Z</time>
      </trkpt>
      <trkpt lat="49.31011" lon="6.74991">
        <ele>182.8</ele>
        <time>2020-06-26T19:13:03Z</time>
      </trkpt>
      <trkpt lat="49.31013" lon="6.74996">
        <ele>182.8</ele>
        <time>2020-06-26T19:13:04Z</time>
      </trkpt>
      <trkpt lat="49.31014" lon="6.75002">
        <ele>182.8</ele>
        <time>2020-06-26T19:13:05Z</time>
      </trkpt>
      <trkpt lat="49.31016" lon="6.7501">
        <ele>182.8</ele>
        <time>2020-06-26T19:13:06Z</time>
      </trkpt>
      <trkpt lat="49.31017" lon="6.75018">
        <ele>182.8</ele>
        <time>2020-06-26T19:13:07Z</time>
      </trkpt>
      <trkpt lat="49.31019" lon="6.75026">
        <ele>182.8</ele>
        <time>2020-06-26T19:13:08Z</time>
      </trkpt>
      <trkpt lat="49.31021" lon="6.75035">
        <ele>182.9</ele>
        <time>2020-06-26T19:13:09Z</time>
      </trkpt>
      <trkpt lat="49.31021" lon="6.75044">
        <ele>182.9</ele>
        <time>2020-06-26T19:13:10Z</time>
      </trkpt>
      <trkpt lat="49.31021" lon="6.75052">
        <ele>182.9</ele>
        <time>2020-06-26T19:13:11Z</time>
      </trkpt>
      <trkpt lat="49.31021" lon="6.75061">
        <ele>182.9</ele>
        <time>2020-06-26T19:13:12Z</time>
      </trkpt>
      <trkpt lat="49.3102" lon="6.7507">
        <ele>182.9</ele>
        <time>2020-06-26T19:13:13Z</time>
      </trkpt>
      <trkpt lat="49.31018" lon="6.75078">
        <ele>182.9</ele>
        <time>2020-06-26T19:13:14Z</time>
      </trkpt>
      <trkpt lat="49.31017" lon="6.75087">
        <ele>183</ele>
        <time>2020-06-26T19:13:15Z</time>
      </trkpt>
      <trkpt lat="49.31016" lon="6.75095">
        <ele>183</ele>
        <time>2020-06-26T19:13:16Z</time>
      </trkpt>
      <trkpt lat="49.31015" lon="6.75103">
        <ele>183</ele>
        <time>2020-06-26T19:13:17Z</time>
      </trkpt>
      <trkpt lat="49.31013" lon="6.75113">
        <ele>183.1</ele>
        <time>2020-06-26T19:13:18Z</time>
      </trkpt>
      <trkpt lat="49.31012" lon="6.75122">
        <ele>183.1</ele>
        <time>2020-06-26T19:13:19Z</time>
      </trkpt>
      <trkpt lat="49.31011" lon="6.7513">
        <ele>183.1</ele>
        <time>2020-06-26T19:13:20Z</time>
      </trkpt>
      <trkpt lat="49.31009" lon="6.75139">
        <ele>183.1</ele>
        <time>2020-06-26T19:13:21Z</time>
      </trkpt>
      <trkpt lat="49.31008" lon="6.75148">
        <ele>183.2</ele>
        <time>2020-06-26T19:13:22Z</time>
      </trkpt>
      <trkpt lat="49.31008" lon="6.75156">
        <ele>183.2</ele>
        <time>2020-06-26T19:13:23Z</time>
      </trkpt>
      <trkpt lat="49.31007" lon="6.75164">
        <ele>183.2</ele>
        <time>2020-06-26T19:13:24Z</time>
      </trkpt>
      <trkpt lat="49.31006" lon="6.75171">
        <ele>183.2</ele>
        <time>2020-06-26T19:13:25Z</time>
      </trkpt>
      <trkpt lat="49.31004" lon="6.75179">
        <ele>183.2</ele>
        <time>2020-06-26T19:13:26Z</time>
      </trkpt>
      <trkpt lat="49.31001" lon="6.75189">
        <ele>183.2</ele>
        <time>2020-06-26T19:13:27Z</time>
      </trkpt>
      <trkpt lat="49.30999" lon="6.75199">
        <ele>183.2</ele>
        <time>2020-06-26T19:13:28Z</time>
      </trkpt>
      <trkpt lat="49.30997" lon="6.75208">
        <ele>183.2</ele>
        <time>2020-06-26T19:13:29Z</time>
      </trkpt>
      <trkpt lat="49.30997" lon="6.75218">
        <ele>183.1</ele>
        <time>2020-06-26T19:13:30Z</time>
      </trkpt>
      <trkpt lat="49.30995" lon="6.75228">
        <ele>183.1</ele>
        <time>2020-06-26T19:13:31Z</time>
      </trkpt>
      <trkpt lat="49.30994" lon="6.75238">
        <ele>183.1</ele>
        <time>2020-06-26T19:13:32Z</time>
      </trkpt>
      <trkpt lat="49.30993" lon="6.75248">
        <ele>183.1</ele>
        <time>2020-06-26T19:13:33Z</time>
      </trkpt>
      <trkpt lat="49.30992" lon="6.75259">
        <ele>183.1</ele>
        <time>2020-06-26T19:13:34Z</time>
      </trkpt>
      <trkpt lat="49.30991" lon="6.75267">
        <ele>183.1</ele>
        <time>2020-06-26T19:13:35Z</time>
      </trkpt>
      <trkpt lat="49.30991" lon="6.75276">
        <ele>183.1</ele>
        <time>2020-06-26T19:13:36Z</time>
      </trkpt>
      <trkpt lat="49.30991" lon="6.75286">
        <ele>183.1</ele>
        <time>2020-06-26T19:13:37Z</time>
      </trkpt>
      <trkpt lat="49.30991" lon="6.75296">
        <ele>183.1</ele>
        <time>2020-06-26T19:13:38Z</time>
      </trkpt>
      <trkpt lat="49.30991" lon="6.75307">
        <ele>183.2</ele>
        <time>2020-06-26T19:13:39Z</time>
      </trkpt>
      <trkpt lat="49.30993" lon="6.75315">
        <ele>183.2</ele>
        <time>2020-06-26T19:13:40Z</time>
      </trkpt>
      <trkpt lat="49.30994" lon="6.75324">
        <ele>183.2</ele>
        <time>2020-06-26T19:13:41Z</time>
      </trkpt>
      <trkpt lat="49.30995" lon="6.75332">
        <ele>183.2</ele>
        <time>2020-06-26T19:13:42Z</time>
      </trkpt>
      <trkpt lat="49.30997" lon="6.7534">
        <ele>183.2</ele>
        <time>2020-06-26T19:13:43Z</time>
      </trkpt>
      <trkpt lat="49.30999" lon="6.75347">
        <ele>183.3</ele>
        <time>2020-06-26T19:13:44Z</time>
      </trkpt>
      <trkpt lat="49.31002" lon="6.75354">
        <ele>183.3</ele>
        <time>2020-06-26T19:13:45Z</time>
      </trkpt>
      <trkpt lat="49.31005" lon="6.75363">
        <ele>183.3</ele>
        <time>2020-06-26T19:13:46Z</time>
      </trkpt>
      <trkpt lat="49.31007" lon="6.75371">
        <ele>183.3</ele>
        <time>2020-06-26T19:13:47Z</time>
      </trkpt>
      <trkpt lat="49.31011" lon="6.75378">
        <ele>183.4</ele>
        <time>2020-06-26T19:13:48Z</time>
      </trkpt>
      <trkpt lat="49.31014" lon="6.75386">
        <ele>183.4</ele>
        <time>2020-06-26T19:13:49Z</time>
      </trkpt>
      <trkpt lat="49.31018" lon="6.75392">
        <ele>183.4</ele>
        <time>2020-06-26T19:13:50Z</time>
      </trkpt>
      <trkpt lat="49.31022" lon="6.75399">
        <ele>183.4</ele>
        <time>2020-06-26T19:13:51Z</time>
      </trkpt>
      <trkpt lat="49.31025" lon="6.75405">
        <ele>183.4</ele>
        <time>2020-06-26T19:13:52Z</time>
      </trkpt>
      <trkpt lat="49.31028" lon="6.75412">
        <ele>183.5</ele>
        <time>2020-06-26T19:13:53Z</time>
      </trkpt>
      <trkpt lat="49.31032" lon="6.75419">
        <ele>183.6</ele>
        <time>2020-06-26T19:13:54Z</time>
      </trkpt>
      <trkpt lat="49.31035" lon="6.75426">
        <ele>183.6</ele>
        <time>2020-06-26T19:13:55Z</time>
      </trkpt>
      <trkpt lat="49.31039" lon="6.75432">
        <ele>183.7</ele>
        <time>2020-06-26T19:13:56Z</time>
      </trkpt>
      <trkpt lat="49.31043" lon="6.75438">
        <ele>183.7</ele>
        <time>2020-06-26T19:13:57Z</time>
      </trkpt>
      <trkpt lat="49.31047" lon="6.75443">
        <ele>183.7</ele>
        <time>2020-06-26T19:13:58Z</time>
      </trkpt>
      <trkpt lat="49.31051" lon="6.75449">
        <ele>183.8</ele>
        <time>2020-06-26T19:13:59Z</time>
      </trkpt>
      <trkpt lat="49.31054" lon="6.75454">
        <ele>183.8</ele>
        <time>2020-06-26T19:14:00Z</time>
      </trkpt>
      <trkpt lat="49.31056" lon="6.75459">
        <ele>183.8</ele>
        <time>2020-06-26T19:14:01Z</time>
      </trkpt>
      <trkpt lat="49.31061" lon="6.75464">
        <ele>183.8</ele>
        <time>2020-06-26T19:14:02Z</time>
      </trkpt>
      <trkpt lat="49.31064" lon="6.75471">
        <ele>183.9</ele>
        <time>2020-06-26T19:14:03Z</time>
      </trkpt>
      <trkpt lat="49.31067" lon="6.75476">
        <ele>183.9</ele>
        <time>2020-06-26T19:14:04Z</time>
      </trkpt>
      <trkpt lat="49.3107" lon="6.75481">
        <ele>183.9</ele>
        <time>2020-06-26T19:14:05Z</time>
      </trkpt>
      <trkpt lat="49.31073" lon="6.75486">
        <ele>184</ele>
        <time>2020-06-26T19:14:06Z</time>
      </trkpt>
      <trkpt lat="49.31076" lon="6.75492">
        <ele>184.1</ele>
        <time>2020-06-26T19:14:07Z</time>
      </trkpt>
      <trkpt lat="49.31076" lon="6.75498">
        <ele>184.1</ele>
        <time>2020-06-26T19:14:08Z</time>
      </trkpt>
      <trkpt lat="49.31074" lon="6.75504">
        <ele>184.1</ele>
        <time>2020-06-26T19:14:09Z</time>
      </trkpt>
      <trkpt lat="49.31071" lon="6.75509">
        <ele>184</ele>
        <time>2020-06-26T19:14:10Z</time>
      </trkpt>
      <trkpt lat="49.31066" lon="6.75511">
        <ele>184</ele>
        <time>2020-06-26T19:14:11Z</time>
      </trkpt>
      <trkpt lat="49.31061" lon="6.75514">
        <ele>183.9</ele>
        <time>2020-06-26T19:14:12Z</time>
      </trkpt>
      <trkpt lat="49.31056" lon="6.75516">
        <ele>183.9</ele>
        <time>2020-06-26T19:14:13Z</time>
      </trkpt>
      <trkpt lat="49.3105" lon="6.75518">
        <ele>183.8</ele>
        <time>2020-06-26T19:14:14Z</time>
      </trkpt>
      <trkpt lat="49.31044" lon="6.75521">
        <ele>183.7</ele>
        <time>2020-06-26T19:14:15Z</time>
      </trkpt>
      <trkpt lat="49.31038" lon="6.75523">
        <ele>183.7</ele>
        <time>2020-06-26T19:14:16Z</time>
      </trkpt>
      <trkpt lat="49.31033" lon="6.75524">
        <ele>183.6</ele>
        <time>2020-06-26T19:14:17Z</time>
      </trkpt>
      <trkpt lat="49.31028" lon="6.75526">
        <ele>183.6</ele>
        <time>2020-06-26T19:14:18Z</time>
      </trkpt>
      <trkpt lat="49.31023" lon="6.75527">
        <ele>183.5</ele>
        <time>2020-06-26T19:14:19Z</time>
      </trkpt>
      <trkpt lat="49.31017" lon="6.75529">
        <ele>183.5</ele>
        <time>2020-06-26T19:14:20Z</time>
      </trkpt>
      <trkpt lat="49.31011" lon="6.75531">
        <ele>183.4</ele>
        <time>2020-06-26T19:14:21Z</time>
      </trkpt>
      <trkpt lat="49.31005" lon="6.75534">
        <ele>183.4</ele>
        <time>2020-06-26T19:14:22Z</time>
      </trkpt>
      <trkpt lat="49.31" lon="6.75537">
        <ele>183.4</ele>
        <time>2020-06-26T19:14:23Z</time>
      </trkpt>
      <trkpt lat="49.30994" lon="6.7554">
        <ele>183.3</ele>
        <time>2020-06-26T19:14:24Z</time>
      </trkpt>
      <trkpt lat="49.30989" lon="6.75544">
        <ele>183.2</ele>
        <time>2020-06-26T19:14:25Z</time>
      </trkpt>
      <trkpt lat="49.30984" lon="6.75548">
        <ele>183.2</ele>
        <time>2020-06-26T19:14:26Z</time>
      </trkpt>
      <trkpt lat="49.30979" lon="6.75553">
        <ele>183.1</ele>
        <time>2020-06-26T19:14:27Z</time>
      </trkpt>
      <trkpt lat="49.30973" lon="6.75557">
        <ele>183.1</ele>
        <time>2020-06-26T19:14:28Z</time>
      </trkpt>
      <trkpt lat="49.30968" lon="6.7556">
        <ele>183.1</ele>
        <time>2020-06-26T19:14:29Z</time>
      </trkpt>
      <trkpt lat="49.30961" lon="6.75562">
        <ele>183.1</ele>
        <time>2020-06-26T19:14:30Z</time>
      </trkpt>
      <trkpt lat="49.30953" lon="6.75561">
        <ele>183.1</ele>
        <time>2020-06-26T19:14:31Z</time>
      </trkpt>
      <trkpt lat="49.30946" lon="6.75561">
        <ele>183.1</ele>
        <time>2020-06-26T19:14:32Z</time>
      </trkpt>
      <trkpt lat="49.3094" lon="6.75562">
        <ele>183</ele>
        <time>2020-06-26T19:14:33Z</time>
      </trkpt>
      <trkpt lat="49.30934" lon="6.75564">
        <ele>183</ele>
        <time>2020-06-26T19:14:34Z</time>
      </trkpt>
      <trkpt lat="49.30927" lon="6.75566">
        <ele>183</ele>
        <time>2020-06-26T19:14:35Z</time>
      </trkpt>
      <trkpt lat="49.30922" lon="6.75568">
        <ele>182.9</ele>
        <time>2020-06-26T19:14:36Z</time>
      </trkpt>
      <trkpt lat="49.30916" lon="6.75571">
        <ele>182.9</ele>
        <time>2020-06-26T19:14:37Z</time>
      </trkpt>
      <trkpt lat="49.3091" lon="6.75574">
        <ele>182.9</ele>
        <time>2020-06-26T19:14:38Z</time>
      </trkpt>
      <trkpt lat="49.30903" lon="6.75577">
        <ele>182.9</ele>
        <time>2020-06-26T19:14:39Z</time>
      </trkpt>
      <trkpt lat="49.30898" lon="6.7558">
        <ele>182.8</ele>
        <time>2020-06-26T19:14:40Z</time>
      </trkpt>
      <trkpt lat="49.30891" lon="6.75582">
        <ele>182.8</ele>
        <time>2020-06-26T19:14:41Z</time>
      </trkpt>
      <trkpt lat="49.30885" lon="6.75585">
        <ele>182.7</ele>
        <time>2020-06-26T19:14:42Z</time>
      </trkpt>
      <trkpt lat="49.30879" lon="6.75586">
        <ele>182.7</ele>
        <time>2020-06-26T19:14:43Z</time>
      </trkpt>
      <trkpt lat="49.30874" lon="6.75588">
        <ele>182.7</ele>
        <time>2020-06-26T19:14:44Z</time>
      </trkpt>
      <trkpt lat="49.30869" lon="6.7559">
        <ele>182.7</ele>
        <time>2020-06-26T19:14:45Z</time>
      </trkpt>
      <trkpt lat="49.30863" lon="6.75593">
        <ele>182.7</ele>
        <time>2020-06-26T19:14:46Z</time>
      </trkpt>
      <trkpt lat="49.30858" lon="6.75596">
        <ele>182.7</ele>
        <time>2020-06-26T19:14:47Z</time>
      </trkpt>
      <trkpt lat="49.30851" lon="6.75599">
        <ele>182.7</ele>
        <time>2020-06-26T19:14:48Z</time>
      </trkpt>
      <trkpt lat="49.30846" lon="6.75601">
        <ele>182.7</ele>
        <time>2020-06-26T19:14:49Z</time>
      </trkpt>
      <trkpt lat="49.30839" lon="6.75604">
        <ele>182.7</ele>
        <time>2020-06-26T19:14:50Z</time>
      </trkpt>
      <trkpt lat="49.30833" lon="6.75606">
        <ele>182.7</ele>
        <time>2020-06-26T19:14:51Z</time>
      </trkpt>
      <trkpt lat="49.30826" lon="6.75609">
        <ele>182.7</ele>
        <time>2020-06-26T19:14:52Z</time>
      </trkpt>
      <trkpt lat="49.30819" lon="6.75612">
        <ele>182.7</ele>
        <time>2020-06-26T19:14:53Z</time>
      </trkpt>
      <trkpt lat="49.30812" lon="6.75615">
        <ele>182.7</ele>
        <time>2020-06-26T19:14:54Z</time>
      </trkpt>
      <trkpt lat="49.30807" lon="6.75617">
        <ele>182.7</ele>
        <time>2020-06-26T19:14:55Z</time>
      </trkpt>
      <trkpt lat="49.308" lon="6.75619">
        <ele>182.7</ele>
        <time>2020-06-26T19:14:56Z</time>
      </trkpt>
      <trkpt lat="49.30794" lon="6.75622">
        <ele>182.6</ele>
        <time>2020-06-26T19:14:57Z</time>
      </trkpt>
      <trkpt lat="49.30789" lon="6.75624">
        <ele>182.6</ele>
        <time>2020-06-26T19:14:58Z</time>
      </trkpt>
      <trkpt lat="49.30783" lon="6.75627">
        <ele>182.5</ele>
        <time>2020-06-26T19:14:59Z</time>
      </trkpt>
      <trkpt lat="49.30778" lon="6.7563">
        <ele>182.5</ele>
        <time>2020-06-26T19:15:00Z</time>
      </trkpt>
      <trkpt lat="49.30772" lon="6.75633">
        <ele>182.5</ele>
        <time>2020-06-26T19:15:01Z</time>
      </trkpt>
      <trkpt lat="49.30766" lon="6.75636">
        <ele>182.5</ele>
        <time>2020-06-26T19:15:02Z</time>
      </trkpt>
      <trkpt lat="49.3076" lon="6.75639">
        <ele>182.5</ele>
        <time>2020-06-26T19:15:03Z</time>
      </trkpt>
      <trkpt lat="49.30755" lon="6.75642">
        <ele>182.5</ele>
        <time>2020-06-26T19:15:04Z</time>
      </trkpt>
      <trkpt lat="49.30751" lon="6.75645">
        <ele>182.5</ele>
        <time>2020-06-26T19:15:05Z</time>
      </trkpt>
      <trkpt lat="49.30743" lon="6.75648">
        <ele>182.6</ele>
        <time>2020-06-26T19:15:06Z</time>
      </trkpt>
      <trkpt lat="49.30739" lon="6.75651">
        <ele>182.6</ele>
        <time>2020-06-26T19:15:07Z</time>
      </trkpt>
      <trkpt lat="49.30733" lon="6.75652">
        <ele>182.6</ele>
        <time>2020-06-26T19:15:08Z</time>
      </trkpt>
      <trkpt lat="49.30727" lon="6.75656">
        <ele>182.6</ele>
        <time>2020-06-26T19:15:09Z</time>
      </trkpt>
      <trkpt lat="49.3072" lon="6.75659">
        <ele>182.6</ele>
        <time>2020-06-26T19:15:10Z</time>
      </trkpt>
      <trkpt lat="49.30714" lon="6.75663">
        <ele>182.6</ele>
        <time>2020-06-26T19:15:11Z</time>
      </trkpt>
      <trkpt lat="49.30708" lon="6.75665">
        <ele>182.6</ele>
        <time>2020-06-26T19:15:12Z</time>
      </trkpt>
      <trkpt lat="49.30702" lon="6.75667">
        <ele>182.6</ele>
        <time>2020-06-26T19:15:13Z</time>
      </trkpt>
      <trkpt lat="49.30696" lon="6.7567">
        <ele>182.7</ele>
        <time>2020-06-26T19:15:14Z</time>
      </trkpt>
      <trkpt lat="49.3069" lon="6.75672">
        <ele>182.7</ele>
        <time>2020-06-26T19:15:15Z</time>
      </trkpt>
      <trkpt lat="49.30684" lon="6.75675">
        <ele>182.8</ele>
        <time>2020-06-26T19:15:16Z</time>
      </trkpt>
      <trkpt lat="49.30678" lon="6.75678">
        <ele>182.9</ele>
        <time>2020-06-26T19:15:17Z</time>
      </trkpt>
      <trkpt lat="49.30673" lon="6.75681">
        <ele>182.9</ele>
        <time>2020-06-26T19:15:18Z</time>
      </trkpt>
      <trkpt lat="49.30668" lon="6.75684">
        <ele>183</ele>
        <time>2020-06-26T19:15:19Z</time>
      </trkpt>
      <trkpt lat="49.30663" lon="6.75687">
        <ele>183</ele>
        <time>2020-06-26T19:15:20Z</time>
      </trkpt>
      <trkpt lat="49.30657" lon="6.75689">
        <ele>183</ele>
        <time>2020-06-26T19:15:21Z</time>
      </trkpt>
      <trkpt lat="49.30651" lon="6.75691">
        <ele>183.1</ele>
        <time>2020-06-26T19:15:22Z</time>
      </trkpt>
      <trkpt lat="49.30645" lon="6.75693">
        <ele>183.2</ele>
        <time>2020-06-26T19:15:23Z</time>
      </trkpt>
      <trkpt lat="49.30639" lon="6.75695">
        <ele>183.3</ele>
        <time>2020-06-26T19:15:24Z</time>
      </trkpt>
      <trkpt lat="49.30633" lon="6.75699">
        <ele>183.3</ele>
        <time>2020-06-26T19:15:25Z</time>
      </trkpt>
      <trkpt lat="49.30627" lon="6.75702">
        <ele>183.4</ele>
        <time>2020-06-26T19:15:26Z</time>
      </trkpt>
      <trkpt lat="49.30621" lon="6.75704">
        <ele>183.5</ele>
        <time>2020-06-26T19:15:27Z</time>
      </trkpt>
      <trkpt lat="49.30613" lon="6.75706">
        <ele>183.6</ele>
        <time>2020-06-26T19:15:28Z</time>
      </trkpt>
      <trkpt lat="49.30607" lon="6.75709">
        <ele>183.7</ele>
        <time>2020-06-26T19:15:29Z</time>
      </trkpt>
      <trkpt lat="49.30601" lon="6.75711">
        <ele>183.7</ele>
        <time>2020-06-26T19:15:30Z</time>
      </trkpt>
      <trkpt lat="49.30596" lon="6.75714">
        <ele>183.8</ele>
        <time>2020-06-26T19:15:31Z</time>
      </trkpt>
      <trkpt lat="49.3059" lon="6.75717">
        <ele>183.8</ele>
        <time>2020-06-26T19:15:32Z</time>
      </trkpt>
      <trkpt lat="49.30584" lon="6.7572">
        <ele>183.9</ele>
        <time>2020-06-26T19:15:33Z</time>
      </trkpt>
      <trkpt lat="49.30577" lon="6.75723">
        <ele>184</ele>
        <time>2020-06-26T19:15:34Z</time>
      </trkpt>
      <trkpt lat="49.30572" lon="6.75726">
        <ele>184.1</ele>
        <time>2020-06-26T19:15:35Z</time>
      </trkpt>
      <trkpt lat="49.30566" lon="6.75729">
        <ele>183.9</ele>
        <time>2020-06-26T19:15:36Z</time>
      </trkpt>
      <trkpt lat="49.3056" lon="6.75732">
        <ele>183.7</ele>
        <time>2020-06-26T19:15:37Z</time>
      </trkpt>
      <trkpt lat="49.30553" lon="6.75735">
        <ele>183.5</ele>
        <time>2020-06-26T19:15:38Z</time>
      </trkpt>
      <trkpt lat="49.30548" lon="6.75738">
        <ele>183.4</ele>
        <time>2020-06-26T19:15:39Z</time>
      </trkpt>
      <trkpt lat="49.30542" lon="6.75741">
        <ele>183.2</ele>
        <time>2020-06-26T19:15:40Z</time>
      </trkpt>
      <trkpt lat="49.30537" lon="6.75743">
        <ele>183.1</ele>
        <time>2020-06-26T19:15:41Z</time>
      </trkpt>
      <trkpt lat="49.30531" lon="6.75745">
        <ele>182.9</ele>
        <time>2020-06-26T19:15:42Z</time>
      </trkpt>
      <trkpt lat="49.30525" lon="6.75747">
        <ele>182.8</ele>
        <time>2020-06-26T19:15:43Z</time>
      </trkpt>
      <trkpt lat="49.30518" lon="6.7575">
        <ele>182.7</ele>
        <time>2020-06-26T19:15:44Z</time>
      </trkpt>
      <trkpt lat="49.30513" lon="6.75752">
        <ele>182.7</ele>
        <time>2020-06-26T19:15:45Z</time>
      </trkpt>
      <trkpt lat="49.30506" lon="6.75755">
        <ele>182.7</ele>
        <time>2020-06-26T19:15:46Z</time>
      </trkpt>
      <trkpt lat="49.305" lon="6.75758">
        <ele>182.7</ele>
        <time>2020-06-26T19:15:47Z</time>
      </trkpt>
      <trkpt lat="49.30494" lon="6.75762">
        <ele>182.6</ele>
        <time>2020-06-26T19:15:48Z</time>
      </trkpt>
      <trkpt lat="49.30487" lon="6.75764">
        <ele>182.6</ele>
        <time>2020-06-26T19:15:49Z</time>
      </trkpt>
      <trkpt lat="49.30481" lon="6.75767">
        <ele>182.6</ele>
        <time>2020-06-26T19:15:50Z</time>
      </trkpt>
      <trkpt lat="49.30474" lon="6.7577">
        <ele>182.6</ele>
        <time>2020-06-26T19:15:51Z</time>
      </trkpt>
      <trkpt lat="49.30468" lon="6.75772">
        <ele>182.6</ele>
        <time>2020-06-26T19:15:52Z</time>
      </trkpt>
      <trkpt lat="49.30461" lon="6.75775">
        <ele>182.6</ele>
        <time>2020-06-26T19:15:53Z</time>
      </trkpt>
      <trkpt lat="49.30455" lon="6.75777">
        <ele>182.6</ele>
        <time>2020-06-26T19:15:54Z</time>
      </trkpt>
      <trkpt lat="49.3045" lon="6.75779">
        <ele>182.5</ele>
        <time>2020-06-26T19:15:55Z</time>
      </trkpt>
      <trkpt lat="49.30444" lon="6.75782">
        <ele>182.5</ele>
        <time>2020-06-26T19:15:56Z</time>
      </trkpt>
      <trkpt lat="49.30438" lon="6.75785">
        <ele>182.5</ele>
        <time>2020-06-26T19:15:57Z</time>
      </trkpt>
      <trkpt lat="49.30432" lon="6.75787">
        <ele>182.5</ele>
        <time>2020-06-26T19:15:58Z</time>
      </trkpt>
      <trkpt lat="49.30427" lon="6.75791">
        <ele>182.5</ele>
        <time>2020-06-26T19:15:59Z</time>
      </trkpt>
      <trkpt lat="49.30421" lon="6.75794">
        <ele>182.6</ele>
        <time>2020-06-26T19:16:00Z</time>
      </trkpt>
      <trkpt lat="49.30415" lon="6.75797">
        <ele>182.7</ele>
        <time>2020-06-26T19:16:01Z</time>
      </trkpt>
      <trkpt lat="49.30409" lon="6.758">
        <ele>182.7</ele>
        <time>2020-06-26T19:16:02Z</time>
      </trkpt>
      <trkpt lat="49.30403" lon="6.75803">
        <ele>182.7</ele>
        <time>2020-06-26T19:16:03Z</time>
      </trkpt>
      <trkpt lat="49.30396" lon="6.75806">
        <ele>182.6</ele>
        <time>2020-06-26T19:16:04Z</time>
      </trkpt>
      <trkpt lat="49.3039" lon="6.75808">
        <ele>182.6</ele>
        <time>2020-06-26T19:16:05Z</time>
      </trkpt>
      <trkpt lat="49.30383" lon="6.75811">
        <ele>182.6</ele>
        <time>2020-06-26T19:16:06Z</time>
      </trkpt>
      <trkpt lat="49.30377" lon="6.75813">
        <ele>182.6</ele>
        <time>2020-06-26T19:16:07Z</time>
      </trkpt>
      <trkpt lat="49.30371" lon="6.75815">
        <ele>182.6</ele>
        <time>2020-06-26T19:16:08Z</time>
      </trkpt>
      <trkpt lat="49.30366" lon="6.75818">
        <ele>182.6</ele>
        <time>2020-06-26T19:16:09Z</time>
      </trkpt>
      <trkpt lat="49.30362" lon="6.7582">
        <ele>182.6</ele>
        <time>2020-06-26T19:16:10Z</time>
      </trkpt>
      <trkpt lat="49.30356" lon="6.75823">
        <ele>182.6</ele>
        <time>2020-06-26T19:16:11Z</time>
      </trkpt>
      <trkpt lat="49.3035" lon="6.75825">
        <ele>182.6</ele>
        <time>2020-06-26T19:16:12Z</time>
      </trkpt>
      <trkpt lat="49.30344" lon="6.75828">
        <ele>182.7</ele>
        <time>2020-06-26T19:16:13Z</time>
      </trkpt>
      <trkpt lat="49.30338" lon="6.75831">
        <ele>182.7</ele>
        <time>2020-06-26T19:16:14Z</time>
      </trkpt>
      <trkpt lat="49.30332" lon="6.75833">
        <ele>182.7</ele>
        <time>2020-06-26T19:16:15Z</time>
      </trkpt>
      <trkpt lat="49.30326" lon="6.75835">
        <ele>182.8</ele>
        <time>2020-06-26T19:16:16Z</time>
      </trkpt>
      <trkpt lat="49.30321" lon="6.75838">
        <ele>182.8</ele>
        <time>2020-06-26T19:16:17Z</time>
      </trkpt>
      <trkpt lat="49.30315" lon="6.7584">
        <ele>182.9</ele>
        <time>2020-06-26T19:16:18Z</time>
      </trkpt>
      <trkpt lat="49.3031" lon="6.75844">
        <ele>183</ele>
        <time>2020-06-26T19:16:19Z</time>
      </trkpt>
      <trkpt lat="49.30304" lon="6.75847">
        <ele>183.1</ele>
        <time>2020-06-26T19:16:20Z</time>
      </trkpt>
      <trkpt lat="49.30298" lon="6.75849">
        <ele>183.2</ele>
        <time>2020-06-26T19:16:21Z</time>
      </trkpt>
      <trkpt lat="49.30293" lon="6.75852">
        <ele>183.3</ele>
        <time>2020-06-26T19:16:22Z</time>
      </trkpt>
      <trkpt lat="49.30286" lon="6.75854">
        <ele>183.4</ele>
        <time>2020-06-26T19:16:23Z</time>
      </trkpt>
      <trkpt lat="49.30279" lon="6.75857">
        <ele>183.5</ele>
        <time>2020-06-26T19:16:24Z</time>
      </trkpt>
      <trkpt lat="49.30273" lon="6.75861">
        <ele>183.6</ele>
        <time>2020-06-26T19:16:25Z</time>
      </trkpt>
      <trkpt lat="49.30268" lon="6.75863">
        <ele>183.7</ele>
        <time>2020-06-26T19:16:26Z</time>
      </trkpt>
      <trkpt lat="49.30262" lon="6.75865">
        <ele>183.7</ele>
        <time>2020-06-26T19:16:27Z</time>
      </trkpt>
      <trkpt lat="49.30256" lon="6.75867">
        <ele>183.6</ele>
        <time>2020-06-26T19:16:28Z</time>
      </trkpt>
      <trkpt lat="49.30251" lon="6.7587">
        <ele>183.6</ele>
        <time>2020-06-26T19:16:29Z</time>
      </trkpt>
      <trkpt lat="49.30245" lon="6.75872">
        <ele>183.6</ele>
        <time>2020-06-26T19:16:30Z</time>
      </trkpt>
      <trkpt lat="49.30239" lon="6.75875">
        <ele>183.6</ele>
        <time>2020-06-26T19:16:31Z</time>
      </trkpt>
      <trkpt lat="49.30233" lon="6.75878">
        <ele>183.5</ele>
        <time>2020-06-26T19:16:32Z</time>
      </trkpt>
      <trkpt lat="49.30228" lon="6.7588">
        <ele>183.5</ele>
        <time>2020-06-26T19:16:33Z</time>
      </trkpt>
      <trkpt lat="49.30223" lon="6.75883">
        <ele>183.5</ele>
        <time>2020-06-26T19:16:34Z</time>
      </trkpt>
      <trkpt lat="49.30217" lon="6.75886">
        <ele>183.4</ele>
        <time>2020-06-26T19:16:35Z</time>
      </trkpt>
      <trkpt lat="49.30211" lon="6.75889">
        <ele>183.4</ele>
        <time>2020-06-26T19:16:36Z</time>
      </trkpt>
      <trkpt lat="49.30205" lon="6.75892">
        <ele>183.4</ele>
        <time>2020-06-26T19:16:37Z</time>
      </trkpt>
      <trkpt lat="49.302" lon="6.75895">
        <ele>183.4</ele>
        <time>2020-06-26T19:16:38Z</time>
      </trkpt>
      <trkpt lat="49.30193" lon="6.75896">
        <ele>183.4</ele>
        <time>2020-06-26T19:16:39Z</time>
      </trkpt>
      <trkpt lat="49.30187" lon="6.75899">
        <ele>183.4</ele>
        <time>2020-06-26T19:16:40Z</time>
      </trkpt>
      <trkpt lat="49.30183" lon="6.75902">
        <ele>183.4</ele>
        <time>2020-06-26T19:16:41Z</time>
      </trkpt>
      <trkpt lat="49.30178" lon="6.75904">
        <ele>183.4</ele>
        <time>2020-06-26T19:16:42Z</time>
      </trkpt>
      <trkpt lat="49.30172" lon="6.75907">
        <ele>183.4</ele>
        <time>2020-06-26T19:16:43Z</time>
      </trkpt>
      <trkpt lat="49.30167" lon="6.7591">
        <ele>183.4</ele>
        <time>2020-06-26T19:16:44Z</time>
      </trkpt>
      <trkpt lat="49.30161" lon="6.75913">
        <ele>183.4</ele>
        <time>2020-06-26T19:16:45Z</time>
      </trkpt>
      <trkpt lat="49.30156" lon="6.75917">
        <ele>183.4</ele>
        <time>2020-06-26T19:16:46Z</time>
      </trkpt>
      <trkpt lat="49.3015" lon="6.75919">
        <ele>183.4</ele>
        <time>2020-06-26T19:16:47Z</time>
      </trkpt>
      <trkpt lat="49.30144" lon="6.75922">
        <ele>183.4</ele>
        <time>2020-06-26T19:16:48Z</time>
      </trkpt>
      <trkpt lat="49.30137" lon="6.75924">
        <ele>183.4</ele>
        <time>2020-06-26T19:16:49Z</time>
      </trkpt>
      <trkpt lat="49.3013" lon="6.75926">
        <ele>183.4</ele>
        <time>2020-06-26T19:16:50Z</time>
      </trkpt>
      <trkpt lat="49.30123" lon="6.75928">
        <ele>183.4</ele>
        <time>2020-06-26T19:16:51Z</time>
      </trkpt>
      <trkpt lat="49.30116" lon="6.7593">
        <ele>183.3</ele>
        <time>2020-06-26T19:16:52Z</time>
      </trkpt>
      <trkpt lat="49.3011" lon="6.75933">
        <ele>183.3</ele>
        <time>2020-06-26T19:16:53Z</time>
      </trkpt>
      <trkpt lat="49.30104" lon="6.75936">
        <ele>183.3</ele>
        <time>2020-06-26T19:16:54Z</time>
      </trkpt>
      <trkpt lat="49.30097" lon="6.75939">
        <ele>183.2</ele>
        <time>2020-06-26T19:16:55Z</time>
      </trkpt>
      <trkpt lat="49.3009" lon="6.75942">
        <ele>183.2</ele>
        <time>2020-06-26T19:16:56Z</time>
      </trkpt>
      <trkpt lat="49.30084" lon="6.75945">
        <ele>183.2</ele>
        <time>2020-06-26T19:16:57Z</time>
      </trkpt>
      <trkpt lat="49.30078" lon="6.75947">
        <ele>183.2</ele>
        <time>2020-06-26T19:16:58Z</time>
      </trkpt>
      <trkpt lat="49.30073" lon="6.7595">
        <ele>183.2</ele>
        <time>2020-06-26T19:16:59Z</time>
      </trkpt>
      <trkpt lat="49.30067" lon="6.75952">
        <ele>183.2</ele>
        <time>2020-06-26T19:17:00Z</time>
      </trkpt>
      <trkpt lat="49.30061" lon="6.75956">
        <ele>183.2</ele>
        <time>2020-06-26T19:17:01Z</time>
      </trkpt>
      <trkpt lat="49.30054" lon="6.75959">
        <ele>183.2</ele>
        <time>2020-06-26T19:17:02Z</time>
      </trkpt>
      <trkpt lat="49.30048" lon="6.75963">
        <ele>183.2</ele>
        <time>2020-06-26T19:17:03Z</time>
      </trkpt>
      <trkpt lat="49.30042" lon="6.75965">
        <ele>183.2</ele>
        <time>2020-06-26T19:17:04Z</time>
      </trkpt>
      <trkpt lat="49.30035" lon="6.75968">
        <ele>183.2</ele>
        <time>2020-06-26T19:17:05Z</time>
      </trkpt>
      <trkpt lat="49.30029" lon="6.7597">
        <ele>183.2</ele>
        <time>2020-06-26T19:17:06Z</time>
      </trkpt>
      <trkpt lat="49.30023" lon="6.75973">
        <ele>183.2</ele>
        <time>2020-06-26T19:17:07Z</time>
      </trkpt>
      <trkpt lat="49.30017" lon="6.75975">
        <ele>183.2</ele>
        <time>2020-06-26T19:17:08Z</time>
      </trkpt>
      <trkpt lat="49.30011" lon="6.75978">
        <ele>183.2</ele>
        <time>2020-06-26T19:17:09Z</time>
      </trkpt>
      <trkpt lat="49.30005" lon="6.75981">
        <ele>183.2</ele>
        <time>2020-06-26T19:17:10Z</time>
      </trkpt>
      <trkpt lat="49.29998" lon="6.75985">
        <ele>183.2</ele>
        <time>2020-06-26T19:17:11Z</time>
      </trkpt>
      <trkpt lat="49.29992" lon="6.75988">
        <ele>183.2</ele>
        <time>2020-06-26T19:17:12Z</time>
      </trkpt>
      <trkpt lat="49.29986" lon="6.75991">
        <ele>183.2</ele>
        <time>2020-06-26T19:17:13Z</time>
      </trkpt>
      <trkpt lat="49.2998" lon="6.75994">
        <ele>183.2</ele>
        <time>2020-06-26T19:17:14Z</time>
      </trkpt>
      <trkpt lat="49.29973" lon="6.75996">
        <ele>183.2</ele>
        <time>2020-06-26T19:17:15Z</time>
      </trkpt>
      <trkpt lat="49.29967" lon="6.75998">
        <ele>183.1</ele>
        <time>2020-06-26T19:17:16Z</time>
      </trkpt>
      <trkpt lat="49.2996" lon="6.76">
        <ele>183.1</ele>
        <time>2020-06-26T19:17:17Z</time>
      </trkpt>
      <trkpt lat="49.29954" lon="6.76002">
        <ele>183.1</ele>
        <time>2020-06-26T19:17:18Z</time>
      </trkpt>
      <trkpt lat="49.29948" lon="6.76006">
        <ele>183.1</ele>
        <time>2020-06-26T19:17:19Z</time>
      </trkpt>
      <trkpt lat="49.29942" lon="6.76009">
        <ele>183.1</ele>
        <time>2020-06-26T19:17:20Z</time>
      </trkpt>
      <trkpt lat="49.29937" lon="6.76011">
        <ele>183</ele>
        <time>2020-06-26T19:17:21Z</time>
      </trkpt>
      <trkpt lat="49.2993" lon="6.76014">
        <ele>183</ele>
        <time>2020-06-26T19:17:22Z</time>
      </trkpt>
      <trkpt lat="49.29924" lon="6.76016">
        <ele>183</ele>
        <time>2020-06-26T19:17:23Z</time>
      </trkpt>
      <trkpt lat="49.29918" lon="6.76018">
        <ele>183</ele>
        <time>2020-06-26T19:17:24Z</time>
      </trkpt>
      <trkpt lat="49.29912" lon="6.76021">
        <ele>183</ele>
        <time>2020-06-26T19:17:25Z</time>
      </trkpt>
      <trkpt lat="49.29906" lon="6.76023">
        <ele>183</ele>
        <time>2020-06-26T19:17:26Z</time>
      </trkpt>
      <trkpt lat="49.299" lon="6.76025">
        <ele>183</ele>
        <time>2020-06-26T19:17:27Z</time>
      </trkpt>
      <trkpt lat="49.29893" lon="6.76028">
        <ele>183</ele>
        <time>2020-06-26T19:17:28Z</time>
      </trkpt>
      <trkpt lat="49.29888" lon="6.76029">
        <ele>183</ele>
        <time>2020-06-26T19:17:29Z</time>
      </trkpt>
      <trkpt lat="49.29882" lon="6.7603">
        <ele>183</ele>
        <time>2020-06-26T19:17:30Z</time>
      </trkpt>
      <trkpt lat="49.29876" lon="6.7603">
        <ele>182.9</ele>
        <time>2020-06-26T19:17:31Z</time>
      </trkpt>
      <trkpt lat="49.29871" lon="6.76031">
        <ele>182.9</ele>
        <time>2020-06-26T19:17:32Z</time>
      </trkpt>
      <trkpt lat="49.29865" lon="6.76032">
        <ele>182.9</ele>
        <time>2020-06-26T19:17:33Z</time>
      </trkpt>
      <trkpt lat="49.2986" lon="6.76033">
        <ele>182.8</ele>
        <time>2020-06-26T19:17:34Z</time>
      </trkpt>
      <trkpt lat="49.29854" lon="6.76034">
        <ele>182.8</ele>
        <time>2020-06-26T19:17:35Z</time>
      </trkpt>
      <trkpt lat="49.2985" lon="6.76033">
        <ele>182.8</ele>
        <time>2020-06-26T19:17:36Z</time>
      </trkpt>
      <trkpt lat="49.29846" lon="6.76033">
        <ele>182.8</ele>
        <time>2020-06-26T19:17:37Z</time>
      </trkpt>
      <trkpt lat="49.29841" lon="6.76033">
        <ele>182.7</ele>
        <time>2020-06-26T19:17:38Z</time>
      </trkpt>
      <trkpt lat="49.29838" lon="6.76032">
        <ele>182.7</ele>
        <time>2020-06-26T19:17:39Z</time>
      </trkpt>
      <trkpt lat="49.29833" lon="6.76031">
        <ele>182.7</ele>
        <time>2020-06-26T19:17:40Z</time>
      </trkpt>
      <trkpt lat="49.29828" lon="6.7603">
        <ele>182.7</ele>
        <time>2020-06-26T19:17:41Z</time>
      </trkpt>
      <trkpt lat="49.29822" lon="6.76028">
        <ele>182.7</ele>
        <time>2020-06-26T19:17:42Z</time>
      </trkpt>
      <trkpt lat="49.29815" lon="6.76026">
        <ele>182.5</ele>
        <time>2020-06-26T19:17:43Z</time>
      </trkpt>
      <trkpt lat="49.29809" lon="6.76025">
        <ele>182.4</ele>
        <time>2020-06-26T19:17:44Z</time>
      </trkpt>
      <trkpt lat="49.29803" lon="6.76023">
        <ele>182.3</ele>
        <time>2020-06-26T19:17:45Z</time>
      </trkpt>
      <trkpt lat="49.29798" lon="6.76021">
        <ele>182.3</ele>
        <time>2020-06-26T19:17:46Z</time>
      </trkpt>
      <trkpt lat="49.29793" lon="6.7602">
        <ele>182.3</ele>
        <time>2020-06-26T19:17:47Z</time>
      </trkpt>
      <trkpt lat="49.29787" lon="6.76018">
        <ele>182.2</ele>
        <time>2020-06-26T19:17:48Z</time>
      </trkpt>
      <trkpt lat="49.29782" lon="6.76017">
        <ele>182.2</ele>
        <time>2020-06-26T19:17:49Z</time>
      </trkpt>
      <trkpt lat="49.29777" lon="6.76016">
        <ele>182.3</ele>
        <time>2020-06-26T19:17:50Z</time>
      </trkpt>
      <trkpt lat="49.29772" lon="6.76015">
        <ele>182.3</ele>
        <time>2020-06-26T19:17:51Z</time>
      </trkpt>
      <trkpt lat="49.29767" lon="6.76012">
        <ele>182.3</ele>
        <time>2020-06-26T19:17:52Z</time>
      </trkpt>
      <trkpt lat="49.29762" lon="6.76009">
        <ele>182.3</ele>
        <time>2020-06-26T19:17:53Z</time>
      </trkpt>
      <trkpt lat="49.29757" lon="6.76007">
        <ele>182.3</ele>
        <time>2020-06-26T19:17:54Z</time>
      </trkpt>
      <trkpt lat="49.29754" lon="6.76006">
        <ele>182.3</ele>
        <time>2020-06-26T19:17:55Z</time>
      </trkpt>
      <trkpt lat="49.2975" lon="6.76006">
        <ele>182.3</ele>
        <time>2020-06-26T19:17:56Z</time>
      </trkpt>
      <trkpt lat="49.29747" lon="6.76008">
        <ele>182.3</ele>
        <time>2020-06-26T19:17:57Z</time>
      </trkpt>
      <trkpt lat="49.29743" lon="6.76016">
        <ele>182.2</ele>
        <time>2020-06-26T19:17:58Z</time>
      </trkpt>
      <trkpt lat="49.29741" lon="6.76022">
        <ele>182.2</ele>
        <time>2020-06-26T19:17:59Z</time>
      </trkpt>
      <trkpt lat="49.2974" lon="6.76025">
        <ele>182.2</ele>
        <time>2020-06-26T19:18:00Z</time>
      </trkpt>
      <trkpt lat="49.29737" lon="6.76029">
        <ele>182.2</ele>
        <time>2020-06-26T19:18:01Z</time>
      </trkpt>
      <trkpt lat="49.29734" lon="6.76031">
        <ele>182.2</ele>
        <time>2020-06-26T19:18:02Z</time>
      </trkpt>
      <trkpt lat="49.29731" lon="6.76033">
        <ele>182.1</ele>
        <time>2020-06-26T19:18:03Z</time>
      </trkpt>
      <trkpt lat="49.29728" lon="6.76036">
        <ele>182.1</ele>
        <time>2020-06-26T19:18:04Z</time>
      </trkpt>
      <trkpt lat="49.29725" lon="6.76038">
        <ele>182.1</ele>
        <time>2020-06-26T19:18:05Z</time>
      </trkpt>
      <trkpt lat="49.29721" lon="6.76041">
        <ele>182.1</ele>
        <time>2020-06-26T19:18:06Z</time>
      </trkpt>
      <trkpt lat="49.29717" lon="6.76044">
        <ele>182</ele>
        <time>2020-06-26T19:18:07Z</time>
      </trkpt>
      <trkpt lat="49.29713" lon="6.76047">
        <ele>182</ele>
        <time>2020-06-26T19:18:08Z</time>
      </trkpt>
      <trkpt lat="49.29709" lon="6.76051">
        <ele>181.9</ele>
        <time>2020-06-26T19:18:09Z</time>
      </trkpt>
      <trkpt lat="49.29704" lon="6.76055">
        <ele>181.9</ele>
        <time>2020-06-26T19:18:10Z</time>
      </trkpt>
      <trkpt lat="49.29699" lon="6.76058">
        <ele>181.8</ele>
        <time>2020-06-26T19:18:11Z</time>
      </trkpt>
      <trkpt lat="49.29693" lon="6.76061">
        <ele>181.7</ele>
        <time>2020-06-26T19:18:12Z</time>
      </trkpt>
      <trkpt lat="49.29688" lon="6.76066">
        <ele>181.7</ele>
        <time>2020-06-26T19:18:13Z</time>
      </trkpt>
      <trkpt lat="49.29683" lon="6.76068">
        <ele>181.6</ele>
        <time>2020-06-26T19:18:14Z</time>
      </trkpt>
      <trkpt lat="49.29676" lon="6.76075">
        <ele>181.6</ele>
        <time>2020-06-26T19:18:15Z</time>
      </trkpt>
      <trkpt lat="49.2967" lon="6.76083">
        <ele>181.5</ele>
        <time>2020-06-26T19:18:16Z</time>
      </trkpt>
      <trkpt lat="49.29665" lon="6.76087">
        <ele>181.5</ele>
        <time>2020-06-26T19:18:17Z</time>
      </trkpt>
      <trkpt lat="49.2966" lon="6.76093">
        <ele>181.4</ele>
        <time>2020-06-26T19:18:18Z</time>
      </trkpt>
      <trkpt lat="49.29656" lon="6.76099">
        <ele>181.4</ele>
        <time>2020-06-26T19:18:19Z</time>
      </trkpt>
      <trkpt lat="49.2965" lon="6.76105">
        <ele>181.5</ele>
        <time>2020-06-26T19:18:20Z</time>
      </trkpt>
      <trkpt lat="49.29644" lon="6.76115">
        <ele>181.5</ele>
        <time>2020-06-26T19:18:21Z</time>
      </trkpt>
      <trkpt lat="49.29639" lon="6.76123">
        <ele>181.6</ele>
        <time>2020-06-26T19:18:22Z</time>
      </trkpt>
      <trkpt lat="49.29635" lon="6.7613">
        <ele>181.6</ele>
        <time>2020-06-26T19:18:23Z</time>
      </trkpt>
      <trkpt lat="49.29631" lon="6.76138">
        <ele>181.7</ele>
        <time>2020-06-26T19:18:24Z</time>
      </trkpt>
      <trkpt lat="49.29627" lon="6.76146">
        <ele>181.7</ele>
        <time>2020-06-26T19:18:25Z</time>
      </trkpt>
      <trkpt lat="49.29624" lon="6.76153">
        <ele>181.8</ele>
        <time>2020-06-26T19:18:26Z</time>
      </trkpt>
      <trkpt lat="49.2962" lon="6.7616">
        <ele>181.8</ele>
        <time>2020-06-26T19:18:27Z</time>
      </trkpt>
      <trkpt lat="49.29617" lon="6.76166">
        <ele>181.9</ele>
        <time>2020-06-26T19:18:28Z</time>
      </trkpt>
      <trkpt lat="49.29614" lon="6.76172">
        <ele>181.9</ele>
        <time>2020-06-26T19:18:29Z</time>
      </trkpt>
      <trkpt lat="49.2961" lon="6.76178">
        <ele>182</ele>
        <time>2020-06-26T19:18:30Z</time>
      </trkpt>
      <trkpt lat="49.29607" lon="6.76185">
        <ele>182</ele>
        <time>2020-06-26T19:18:31Z</time>
      </trkpt>
      <trkpt lat="49.29603" lon="6.7619">
        <ele>182.1</ele>
        <time>2020-06-26T19:18:32Z</time>
      </trkpt>
      <trkpt lat="49.29599" lon="6.76197">
        <ele>182.2</ele>
        <time>2020-06-26T19:18:33Z</time>
      </trkpt>
      <trkpt lat="49.29596" lon="6.76203">
        <ele>182.3</ele>
        <time>2020-06-26T19:18:34Z</time>
      </trkpt>
      <trkpt lat="49.29592" lon="6.76209">
        <ele>182.4</ele>
        <time>2020-06-26T19:18:35Z</time>
      </trkpt>
      <trkpt lat="49.29589" lon="6.76215">
        <ele>182.5</ele>
        <time>2020-06-26T19:18:36Z</time>
      </trkpt>
      <trkpt lat="49.29586" lon="6.7622">
        <ele>182.6</ele>
        <time>2020-06-26T19:18:37Z</time>
      </trkpt>
      <trkpt lat="49.29583" lon="6.76224">
        <ele>182.7</ele>
        <time>2020-06-26T19:18:38Z</time>
      </trkpt>
      <trkpt lat="49.29581" lon="6.76228">
        <ele>182.8</ele>
        <time>2020-06-26T19:18:39Z</time>
      </trkpt>
      <trkpt lat="49.29577" lon="6.76234">
        <ele>182.9</ele>
        <time>2020-06-26T19:18:40Z</time>
      </trkpt>
      <trkpt lat="49.29574" lon="6.76237">
        <ele>183</ele>
        <time>2020-06-26T19:18:41Z</time>
      </trkpt>
      <trkpt lat="49.29572" lon="6.76241">
        <ele>183.1</ele>
        <time>2020-06-26T19:18:42Z</time>
      </trkpt>
      <trkpt lat="49.29569" lon="6.76242">
        <ele>183.2</ele>
        <time>2020-06-26T19:18:43Z</time>
      </trkpt>
      <trkpt lat="49.29566" lon="6.76245">
        <ele>183.2</ele>
        <time>2020-06-26T19:18:44Z</time>
      </trkpt>
      <trkpt lat="49.29563" lon="6.76248">
        <ele>183.3</ele>
        <time>2020-06-26T19:18:45Z</time>
      </trkpt>
      <trkpt lat="49.2956" lon="6.76252">
        <ele>183.4</ele>
        <time>2020-06-26T19:18:46Z</time>
      </trkpt>
      <trkpt lat="49.29558" lon="6.76253">
        <ele>183.4</ele>
        <time>2020-06-26T19:18:47Z</time>
      </trkpt>
      <trkpt lat="49.29555" lon="6.76255">
        <ele>183.5</ele>
        <time>2020-06-26T19:18:48Z</time>
      </trkpt>
      <trkpt lat="49.29554" lon="6.76256">
        <ele>183.6</ele>
        <time>2020-06-26T19:18:49Z</time>
      </trkpt>
      <trkpt lat="49.29552" lon="6.76258">
        <ele>183.6</ele>
        <time>2020-06-26T19:18:50Z</time>
      </trkpt>
      <trkpt lat="49.29551" lon="6.76259">
        <ele>183.6</ele>
        <time>2020-06-26T19:18:51Z</time>
      </trkpt>
      <trkpt lat="49.29549" lon="6.76262">
        <ele>183.7</ele>
        <time>2020-06-26T19:18:52Z</time>
      </trkpt>
      <trkpt lat="49.2955" lon="6.7626">
        <ele>183.7</ele>
        <time>2020-06-26T19:18:53Z</time>
      </trkpt>
      <trkpt lat="49.2955" lon="6.76261">
        <ele>183.8</ele>
        <time>2020-06-26T19:18:54Z</time>
      </trkpt>
      <trkpt lat="49.29551" lon="6.76261">
        <ele>183.8</ele>
        <time>2020-06-26T19:18:55Z</time>
      </trkpt>
      <trkpt lat="49.29552" lon="6.7626">
        <ele>183.8</ele>
        <time>2020-06-26T19:18:56Z</time>
      </trkpt>
      <trkpt lat="49.29553" lon="6.76258">
        <ele>183.8</ele>
        <time>2020-06-26T19:18:57Z</time>
      </trkpt>
      <trkpt lat="49.29553" lon="6.76258">
        <ele>183.8</ele>
        <time>2020-06-26T19:18:58Z</time>
      </trkpt>
      <trkpt lat="49.29554" lon="6.76257">
        <ele>183.9</ele>
        <time>2020-06-26T19:18:59Z</time>
      </trkpt>
      <trkpt lat="49.29554" lon="6.76257">
        <ele>183.9</ele>
        <time>2020-06-26T19:19:00Z</time>
      </trkpt>
      <trkpt lat="49.29554" lon="6.76257">
        <ele>183.9</ele>
        <time>2020-06-26T19:19:01Z</time>
      </trkpt>
      <trkpt lat="49.29555" lon="6.76255">
        <ele>183.9</ele>
        <time>2020-06-26T19:19:02Z</time>
      </trkpt>
      <trkpt lat="49.29556" lon="6.76254">
        <ele>183.9</ele>
        <time>2020-06-26T19:19:03Z</time>
      </trkpt>
      <trkpt lat="49.29558" lon="6.76253">
        <ele>183.9</ele>
        <time>2020-06-26T19:19:04Z</time>
      </trkpt>
      <trkpt lat="49.29559" lon="6.76253">
        <ele>183.8</ele>
        <time>2020-06-26T19:19:05Z</time>
      </trkpt>
      <trkpt lat="49.29562" lon="6.76251">
        <ele>183.7</ele>
        <time>2020-06-26T19:19:06Z</time>
      </trkpt>
      <trkpt lat="49.29563" lon="6.7625">
        <ele>183.7</ele>
        <time>2020-06-26T19:19:07Z</time>
      </trkpt>
      <trkpt lat="49.29566" lon="6.76247">
        <ele>183.5</ele>
        <time>2020-06-26T19:19:08Z</time>
      </trkpt>
      <trkpt lat="49.29569" lon="6.76245">
        <ele>183.4</ele>
        <time>2020-06-26T19:19:09Z</time>
      </trkpt>
      <trkpt lat="49.2957" lon="6.76244">
        <ele>183.4</ele>
        <time>2020-06-26T19:19:10Z</time>
      </trkpt>
      <trkpt lat="49.29572" lon="6.76243">
        <ele>183.3</ele>
        <time>2020-06-26T19:19:11Z</time>
      </trkpt>
      <trkpt lat="49.29575" lon="6.76242">
        <ele>183.2</ele>
        <time>2020-06-26T19:19:12Z</time>
      </trkpt>
      <trkpt lat="49.29577" lon="6.76242">
        <ele>183.1</ele>
        <time>2020-06-26T19:19:13Z</time>
      </trkpt>
      <trkpt lat="49.29578" lon="6.76241">
        <ele>182.8</ele>
        <time>2020-06-26T19:19:14Z</time>
      </trkpt>
      <trkpt lat="49.29579" lon="6.76241">
        <ele>182.8</ele>
        <time>2020-06-26T19:19:15Z</time>
      </trkpt>
      <trkpt lat="49.29583" lon="6.76245">
        <ele>182.8</ele>
        <time>2020-06-26T19:19:16Z</time>
      </trkpt>
      <trkpt lat="49.29584" lon="6.76247">
        <ele>182.8</ele>
        <time>2020-06-26T19:19:17Z</time>
      </trkpt>
      <trkpt lat="49.29588" lon="6.7625">
        <ele>182.8</ele>
        <time>2020-06-26T19:19:18Z</time>
      </trkpt>
      <trkpt lat="49.29591" lon="6.76253">
        <ele>182.8</ele>
        <time>2020-06-26T19:19:19Z</time>
      </trkpt>
      <trkpt lat="49.29592" lon="6.76255">
        <ele>182.8</ele>
        <time>2020-06-26T19:19:20Z</time>
      </trkpt>
      <trkpt lat="49.29594" lon="6.76259">
        <ele>182.8</ele>
        <time>2020-06-26T19:19:21Z</time>
      </trkpt>
      <trkpt lat="49.29596" lon="6.76266">
        <ele>182.8</ele>
        <time>2020-06-26T19:19:22Z</time>
      </trkpt>
      <trkpt lat="49.29597" lon="6.76271">
        <ele>182.8</ele>
        <time>2020-06-26T19:19:23Z</time>
      </trkpt>
      <trkpt lat="49.29597" lon="6.76276">
        <ele>182.8</ele>
        <time>2020-06-26T19:19:24Z</time>
      </trkpt>
      <trkpt lat="49.29595" lon="6.76283">
        <ele>182.8</ele>
        <time>2020-06-26T19:19:25Z</time>
      </trkpt>
      <trkpt lat="49.29594" lon="6.76289">
        <ele>182.9</ele>
        <time>2020-06-26T19:19:26Z</time>
      </trkpt>
      <trkpt lat="49.29593" lon="6.76295">
        <ele>182.9</ele>
        <time>2020-06-26T19:19:27Z</time>
      </trkpt>
      <trkpt lat="49.29592" lon="6.76301">
        <ele>182.9</ele>
        <time>2020-06-26T19:19:28Z</time>
      </trkpt>
      <trkpt lat="49.29592" lon="6.76306">
        <ele>182.9</ele>
        <time>2020-06-26T19:19:29Z</time>
      </trkpt>
      <trkpt lat="49.29592" lon="6.76312">
        <ele>182.9</ele>
        <time>2020-06-26T19:19:30Z</time>
      </trkpt>
      <trkpt lat="49.29592" lon="6.76318">
        <ele>182.9</ele>
        <time>2020-06-26T19:19:31Z</time>
      </trkpt>
      <trkpt lat="49.29591" lon="6.76323">
        <ele>182.8</ele>
        <time>2020-06-26T19:19:32Z</time>
      </trkpt>
      <trkpt lat="49.29591" lon="6.7633">
        <ele>182.8</ele>
        <time>2020-06-26T19:19:33Z</time>
      </trkpt>
      <trkpt lat="49.29592" lon="6.76336">
        <ele>182.8</ele>
        <time>2020-06-26T19:19:34Z</time>
      </trkpt>
      <trkpt lat="49.29592" lon="6.76343">
        <ele>182.8</ele>
        <time>2020-06-26T19:19:35Z</time>
      </trkpt>
      <trkpt lat="49.29593" lon="6.76346">
        <ele>182.8</ele>
        <time>2020-06-26T19:19:36Z</time>
      </trkpt>
      <trkpt lat="49.29593" lon="6.7635">
        <ele>182.8</ele>
        <time>2020-06-26T19:19:37Z</time>
      </trkpt>
      <trkpt lat="49.29594" lon="6.76353">
        <ele>182.8</ele>
        <time>2020-06-26T19:19:38Z</time>
      </trkpt>
      <trkpt lat="49.29594" lon="6.76356">
        <ele>182.8</ele>
        <time>2020-06-26T19:19:39Z</time>
      </trkpt>
      <trkpt lat="49.29594" lon="6.76359">
        <ele>182.7</ele>
        <time>2020-06-26T19:19:40Z</time>
      </trkpt>
      <trkpt lat="49.29594" lon="6.7636">
        <ele>182.7</ele>
        <time>2020-06-26T19:19:41Z</time>
      </trkpt>
      <trkpt lat="49.29595" lon="6.76365">
        <ele>182.7</ele>
        <time>2020-06-26T19:19:42Z</time>
      </trkpt>
      <trkpt lat="49.29595" lon="6.76366">
        <ele>182.6</ele>
        <time>2020-06-26T19:19:43Z</time>
      </trkpt>
      <trkpt lat="49.29595" lon="6.7637">
        <ele>182.6</ele>
        <time>2020-06-26T19:19:44Z</time>
      </trkpt>
      <trkpt lat="49.29595" lon="6.76372">
        <ele>182.5</ele>
        <time>2020-06-26T19:19:45Z</time>
      </trkpt>
      <trkpt lat="49.29594" lon="6.76378">
        <ele>182.5</ele>
        <time>2020-06-26T19:19:46Z</time>
      </trkpt>
      <trkpt lat="49.29594" lon="6.7638">
        <ele>182.4</ele>
        <time>2020-06-26T19:19:47Z</time>
      </trkpt>
      <trkpt lat="49.29593" lon="6.76386">
        <ele>182.4</ele>
        <time>2020-06-26T19:19:48Z</time>
      </trkpt>
      <trkpt lat="49.29594" lon="6.76393">
        <ele>182.3</ele>
        <time>2020-06-26T19:19:49Z</time>
      </trkpt>
      <trkpt lat="49.29593" lon="6.764">
        <ele>182.3</ele>
        <time>2020-06-26T19:19:50Z</time>
      </trkpt>
      <trkpt lat="49.29592" lon="6.76407">
        <ele>182.3</ele>
        <time>2020-06-26T19:19:51Z</time>
      </trkpt>
      <trkpt lat="49.29592" lon="6.76412">
        <ele>182.3</ele>
        <time>2020-06-26T19:19:52Z</time>
      </trkpt>
      <trkpt lat="49.29592" lon="6.76417">
        <ele>182.3</ele>
        <time>2020-06-26T19:19:53Z</time>
      </trkpt>
      <trkpt lat="49.2959" lon="6.7642">
        <ele>182.3</ele>
        <time>2020-06-26T19:19:54Z</time>
      </trkpt>
      <trkpt lat="49.29588" lon="6.76423">
        <ele>182.3</ele>
        <time>2020-06-26T19:19:55Z</time>
      </trkpt>
      <trkpt lat="49.29584" lon="6.76425">
        <ele>182.3</ele>
        <time>2020-06-26T19:19:56Z</time>
      </trkpt>
      <trkpt lat="49.2958" lon="6.76427">
        <ele>182.3</ele>
        <time>2020-06-26T19:19:57Z</time>
      </trkpt>
      <trkpt lat="49.29576" lon="6.76429">
        <ele>182.3</ele>
        <time>2020-06-26T19:19:58Z</time>
      </trkpt>
      <trkpt lat="49.29572" lon="6.7643">
        <ele>182.3</ele>
        <time>2020-06-26T19:19:59Z</time>
      </trkpt>
      <trkpt lat="49.29568" lon="6.76432">
        <ele>182.3</ele>
        <time>2020-06-26T19:20:00Z</time>
      </trkpt>
      <trkpt lat="49.29564" lon="6.76434">
        <ele>182.3</ele>
        <time>2020-06-26T19:20:01Z</time>
      </trkpt>
      <trkpt lat="49.29561" lon="6.76436">
        <ele>182.3</ele>
        <time>2020-06-26T19:20:02Z</time>
      </trkpt>
      <trkpt lat="49.29558" lon="6.76437">
        <ele>182.3</ele>
        <time>2020-06-26T19:20:03Z</time>
      </trkpt>
      <trkpt lat="49.29555" lon="6.76437">
        <ele>182.3</ele>
        <time>2020-06-26T19:20:04Z</time>
      </trkpt>
      <trkpt lat="49.29551" lon="6.76437">
        <ele>182.3</ele>
        <time>2020-06-26T19:20:05Z</time>
      </trkpt>
      <trkpt lat="49.29548" lon="6.76438">
        <ele>182.3</ele>
        <time>2020-06-26T19:20:06Z</time>
      </trkpt>
      <trkpt lat="49.29543" lon="6.76436">
        <ele>182.3</ele>
        <time>2020-06-26T19:20:07Z</time>
      </trkpt>
      <trkpt lat="49.2954" lon="6.76437">
        <ele>182.3</ele>
        <time>2020-06-26T19:20:08Z</time>
      </trkpt>
      <trkpt lat="49.29536" lon="6.76438">
        <ele>182.3</ele>
        <time>2020-06-26T19:20:09Z</time>
      </trkpt>
      <trkpt lat="49.29532" lon="6.76438">
        <ele>182.3</ele>
        <time>2020-06-26T19:20:10Z</time>
      </trkpt>
      <trkpt lat="49.29528" lon="6.76438">
        <ele>182.3</ele>
        <time>2020-06-26T19:20:11Z</time>
      </trkpt>
      <trkpt lat="49.29524" lon="6.76437">
        <ele>182.3</ele>
        <time>2020-06-26T19:20:12Z</time>
      </trkpt>
      <trkpt lat="49.2952" lon="6.76437">
        <ele>182.3</ele>
        <time>2020-06-26T19:20:13Z</time>
      </trkpt>
      <trkpt lat="49.29515" lon="6.76437">
        <ele>182.3</ele>
        <time>2020-06-26T19:20:14Z</time>
      </trkpt>
      <trkpt lat="49.29511" lon="6.76438">
        <ele>182.3</ele>
        <time>2020-06-26T19:20:15Z</time>
      </trkpt>
      <trkpt lat="49.29506" lon="6.76439">
        <ele>182.2</ele>
        <time>2020-06-26T19:20:16Z</time>
      </trkpt>
      <trkpt lat="49.29501" lon="6.7644">
        <ele>182.1</ele>
        <time>2020-06-26T19:20:17Z</time>
      </trkpt>
      <trkpt lat="49.29497" lon="6.76442">
        <ele>182.1</ele>
        <time>2020-06-26T19:20:18Z</time>
      </trkpt>
      <trkpt lat="49.29492" lon="6.76445">
        <ele>182.1</ele>
        <time>2020-06-26T19:20:19Z</time>
      </trkpt>
      <trkpt lat="49.29487" lon="6.76447">
        <ele>182</ele>
        <time>2020-06-26T19:20:20Z</time>
      </trkpt>
      <trkpt lat="49.29481" lon="6.7645">
        <ele>182</ele>
        <time>2020-06-26T19:20:21Z</time>
      </trkpt>
      <trkpt lat="49.29476" lon="6.76453">
        <ele>182</ele>
        <time>2020-06-26T19:20:22Z</time>
      </trkpt>
      <trkpt lat="49.2947" lon="6.76456">
        <ele>182</ele>
        <time>2020-06-26T19:20:23Z</time>
      </trkpt>
      <trkpt lat="49.29465" lon="6.76458">
        <ele>181.9</ele>
        <time>2020-06-26T19:20:24Z</time>
      </trkpt>
      <trkpt lat="49.29459" lon="6.76459">
        <ele>181.9</ele>
        <time>2020-06-26T19:20:25Z</time>
      </trkpt>
      <trkpt lat="49.29454" lon="6.7646">
        <ele>181.9</ele>
        <time>2020-06-26T19:20:26Z</time>
      </trkpt>
      <trkpt lat="49.29448" lon="6.76461">
        <ele>182</ele>
        <time>2020-06-26T19:20:27Z</time>
      </trkpt>
      <trkpt lat="49.29442" lon="6.76462">
        <ele>182</ele>
        <time>2020-06-26T19:20:28Z</time>
      </trkpt>
      <trkpt lat="49.29436" lon="6.76461">
        <ele>182</ele>
        <time>2020-06-26T19:20:29Z</time>
      </trkpt>
      <trkpt lat="49.2943" lon="6.76461">
        <ele>182</ele>
        <time>2020-06-26T19:20:30Z</time>
      </trkpt>
      <trkpt lat="49.29425" lon="6.7646">
        <ele>182</ele>
        <time>2020-06-26T19:20:31Z</time>
      </trkpt>
      <trkpt lat="49.29419" lon="6.7646">
        <ele>182</ele>
        <time>2020-06-26T19:20:32Z</time>
      </trkpt>
      <trkpt lat="49.29414" lon="6.7646">
        <ele>182.1</ele>
        <time>2020-06-26T19:20:33Z</time>
      </trkpt>
      <trkpt lat="49.29408" lon="6.7646">
        <ele>182.1</ele>
        <time>2020-06-26T19:20:34Z</time>
      </trkpt>
      <trkpt lat="49.29403" lon="6.76461">
        <ele>182.1</ele>
        <time>2020-06-26T19:20:35Z</time>
      </trkpt>
      <trkpt lat="49.29397" lon="6.76461">
        <ele>182.2</ele>
        <time>2020-06-26T19:20:36Z</time>
      </trkpt>
      <trkpt lat="49.29392" lon="6.76461">
        <ele>182.2</ele>
        <time>2020-06-26T19:20:37Z</time>
      </trkpt>
      <trkpt lat="49.29386" lon="6.76461">
        <ele>182.2</ele>
        <time>2020-06-26T19:20:38Z</time>
      </trkpt>
      <trkpt lat="49.29381" lon="6.76462">
        <ele>182.2</ele>
        <time>2020-06-26T19:20:39Z</time>
      </trkpt>
      <trkpt lat="49.29376" lon="6.76462">
        <ele>182.2</ele>
        <time>2020-06-26T19:20:40Z</time>
      </trkpt>
      <trkpt lat="49.2937" lon="6.76461">
        <ele>182.2</ele>
        <time>2020-06-26T19:20:41Z</time>
      </trkpt>
      <trkpt lat="49.29364" lon="6.76461">
        <ele>182.2</ele>
        <time>2020-06-26T19:20:42Z</time>
      </trkpt>
      <trkpt lat="49.29359" lon="6.76461">
        <ele>182.2</ele>
        <time>2020-06-26T19:20:43Z</time>
      </trkpt>
      <trkpt lat="49.29354" lon="6.7646">
        <ele>182.2</ele>
        <time>2020-06-26T19:20:44Z</time>
      </trkpt>
      <trkpt lat="49.29349" lon="6.7646">
        <ele>182.2</ele>
        <time>2020-06-26T19:20:45Z</time>
      </trkpt>
      <trkpt lat="49.29344" lon="6.7646">
        <ele>182.2</ele>
        <time>2020-06-26T19:20:46Z</time>
      </trkpt>
      <trkpt lat="49.29338" lon="6.76459">
        <ele>182.2</ele>
        <time>2020-06-26T19:20:47Z</time>
      </trkpt>
      <trkpt lat="49.29332" lon="6.76458">
        <ele>182.1</ele>
        <time>2020-06-26T19:20:48Z</time>
      </trkpt>
      <trkpt lat="49.29326" lon="6.76458">
        <ele>182.1</ele>
        <time>2020-06-26T19:20:49Z</time>
      </trkpt>
      <trkpt lat="49.2932" lon="6.76458">
        <ele>182.1</ele>
        <time>2020-06-26T19:20:50Z</time>
      </trkpt>
      <trkpt lat="49.29314" lon="6.76457">
        <ele>182.1</ele>
        <time>2020-06-26T19:20:51Z</time>
      </trkpt>
      <trkpt lat="49.29308" lon="6.76458">
        <ele>182</ele>
        <time>2020-06-26T19:20:52Z</time>
      </trkpt>
      <trkpt lat="49.29302" lon="6.76458">
        <ele>182</ele>
        <time>2020-06-26T19:20:53Z</time>
      </trkpt>
      <trkpt lat="49.29296" lon="6.76458">
        <ele>182</ele>
        <time>2020-06-26T19:20:54Z</time>
      </trkpt>
      <trkpt lat="49.29291" lon="6.76458">
        <ele>182</ele>
        <time>2020-06-26T19:20:55Z</time>
      </trkpt>
      <trkpt lat="49.29285" lon="6.76458">
        <ele>182</ele>
        <time>2020-06-26T19:20:56Z</time>
      </trkpt>
      <trkpt lat="49.29279" lon="6.76458">
        <ele>182</ele>
        <time>2020-06-26T19:20:57Z</time>
      </trkpt>
      <trkpt lat="49.29273" lon="6.76457">
        <ele>182.1</ele>
        <time>2020-06-26T19:20:58Z</time>
      </trkpt>
      <trkpt lat="49.29268" lon="6.76457">
        <ele>182.1</ele>
        <time>2020-06-26T19:20:59Z</time>
      </trkpt>
      <trkpt lat="49.29263" lon="6.76457">
        <ele>182.1</ele>
        <time>2020-06-26T19:21:00Z</time>
      </trkpt>
      <trkpt lat="49.29258" lon="6.76457">
        <ele>182.1</ele>
        <time>2020-06-26T19:21:01Z</time>
      </trkpt>
      <trkpt lat="49.29253" lon="6.76456">
        <ele>182.1</ele>
        <time>2020-06-26T19:21:02Z</time>
      </trkpt>
      <trkpt lat="49.29249" lon="6.76456">
        <ele>182.1</ele>
        <time>2020-06-26T19:21:03Z</time>
      </trkpt>
      <trkpt lat="49.29244" lon="6.76456">
        <ele>182.1</ele>
        <time>2020-06-26T19:21:04Z</time>
      </trkpt>
      <trkpt lat="49.29239" lon="6.76456">
        <ele>182.1</ele>
        <time>2020-06-26T19:21:05Z</time>
      </trkpt>
      <trkpt lat="49.29234" lon="6.76456">
        <ele>182.1</ele>
        <time>2020-06-26T19:21:06Z</time>
      </trkpt>
      <trkpt lat="49.29228" lon="6.76456">
        <ele>182.1</ele>
        <time>2020-06-26T19:21:07Z</time>
      </trkpt>
      <trkpt lat="49.29222" lon="6.76455">
        <ele>182</ele>
        <time>2020-06-26T19:21:08Z</time>
      </trkpt>
      <trkpt lat="49.29216" lon="6.76455">
        <ele>182</ele>
        <time>2020-06-26T19:21:09Z</time>
      </trkpt>
      <trkpt lat="49.2921" lon="6.76456">
        <ele>182</ele>
        <time>2020-06-26T19:21:10Z</time>
      </trkpt>
      <trkpt lat="49.29205" lon="6.76456">
        <ele>182</ele>
        <time>2020-06-26T19:21:11Z</time>
      </trkpt>
      <trkpt lat="49.29199" lon="6.76456">
        <ele>182</ele>
        <time>2020-06-26T19:21:12Z</time>
      </trkpt>
      <trkpt lat="49.29193" lon="6.76458">
        <ele>182</ele>
        <time>2020-06-26T19:21:13Z</time>
      </trkpt>
      <trkpt lat="49.29188" lon="6.76458">
        <ele>182</ele>
        <time>2020-06-26T19:21:14Z</time>
      </trkpt>
      <trkpt lat="49.29183" lon="6.76459">
        <ele>182</ele>
        <time>2020-06-26T19:21:15Z</time>
      </trkpt>
      <trkpt lat="49.29177" lon="6.76459">
        <ele>182</ele>
        <time>2020-06-26T19:21:16Z</time>
      </trkpt>
      <trkpt lat="49.29172" lon="6.76459">
        <ele>182</ele>
        <time>2020-06-26T19:21:17Z</time>
      </trkpt>
      <trkpt lat="49.29167" lon="6.76459">
        <ele>182.1</ele>
        <time>2020-06-26T19:21:18Z</time>
      </trkpt>
      <trkpt lat="49.29161" lon="6.7646">
        <ele>182.1</ele>
        <time>2020-06-26T19:21:19Z</time>
      </trkpt>
      <trkpt lat="49.29156" lon="6.76461">
        <ele>182.1</ele>
        <time>2020-06-26T19:21:20Z</time>
      </trkpt>
      <trkpt lat="49.29151" lon="6.76463">
        <ele>182.1</ele>
        <time>2020-06-26T19:21:21Z</time>
      </trkpt>
      <trkpt lat="49.29146" lon="6.76463">
        <ele>182.1</ele>
        <time>2020-06-26T19:21:22Z</time>
      </trkpt>
      <trkpt lat="49.29141" lon="6.76463">
        <ele>182</ele>
        <time>2020-06-26T19:21:23Z</time>
      </trkpt>
      <trkpt lat="49.29136" lon="6.76463">
        <ele>182</ele>
        <time>2020-06-26T19:21:24Z</time>
      </trkpt>
      <trkpt lat="49.2913" lon="6.76463">
        <ele>182</ele>
        <time>2020-06-26T19:21:25Z</time>
      </trkpt>
      <trkpt lat="49.29125" lon="6.76463">
        <ele>182</ele>
        <time>2020-06-26T19:21:26Z</time>
      </trkpt>
      <trkpt lat="49.2912" lon="6.76463">
        <ele>182</ele>
        <time>2020-06-26T19:21:27Z</time>
      </trkpt>
      <trkpt lat="49.29115" lon="6.76463">
        <ele>182</ele>
        <time>2020-06-26T19:21:28Z</time>
      </trkpt>
      <trkpt lat="49.29109" lon="6.76463">
        <ele>182</ele>
        <time>2020-06-26T19:21:29Z</time>
      </trkpt>
      <trkpt lat="49.29104" lon="6.76463">
        <ele>182</ele>
        <time>2020-06-26T19:21:30Z</time>
      </trkpt>
      <trkpt lat="49.29098" lon="6.76463">
        <ele>182</ele>
        <time>2020-06-26T19:21:31Z</time>
      </trkpt>
      <trkpt lat="49.29092" lon="6.76464">
        <ele>182.1</ele>
        <time>2020-06-26T19:21:32Z</time>
      </trkpt>
      <trkpt lat="49.29086" lon="6.76464">
        <ele>182.1</ele>
        <time>2020-06-26T19:21:33Z</time>
      </trkpt>
      <trkpt lat="49.29081" lon="6.76465">
        <ele>182</ele>
        <time>2020-06-26T19:21:34Z</time>
      </trkpt>
      <trkpt lat="49.29076" lon="6.76465">
        <ele>182</ele>
        <time>2020-06-26T19:21:35Z</time>
      </trkpt>
      <trkpt lat="49.2907" lon="6.76466">
        <ele>182</ele>
        <time>2020-06-26T19:21:36Z</time>
      </trkpt>
      <trkpt lat="49.29064" lon="6.76466">
        <ele>182</ele>
        <time>2020-06-26T19:21:37Z</time>
      </trkpt>
      <trkpt lat="49.29058" lon="6.76467">
        <ele>182</ele>
        <time>2020-06-26T19:21:38Z</time>
      </trkpt>
      <trkpt lat="49.29052" lon="6.76468">
        <ele>182</ele>
        <time>2020-06-26T19:21:39Z</time>
      </trkpt>
      <trkpt lat="49.29047" lon="6.76468">
        <ele>182</ele>
        <time>2020-06-26T19:21:40Z</time>
      </trkpt>
      <trkpt lat="49.29041" lon="6.76469">
        <ele>182</ele>
        <time>2020-06-26T19:21:41Z</time>
      </trkpt>
      <trkpt lat="49.29036" lon="6.76469">
        <ele>181.9</ele>
        <time>2020-06-26T19:21:42Z</time>
      </trkpt>
      <trkpt lat="49.2903" lon="6.7647">
        <ele>181.9</ele>
        <time>2020-06-26T19:21:43Z</time>
      </trkpt>
      <trkpt lat="49.29025" lon="6.76471">
        <ele>181.9</ele>
        <time>2020-06-26T19:21:44Z</time>
      </trkpt>
      <trkpt lat="49.29019" lon="6.76471">
        <ele>181.9</ele>
        <time>2020-06-26T19:21:45Z</time>
      </trkpt>
      <trkpt lat="49.29013" lon="6.76471">
        <ele>181.9</ele>
        <time>2020-06-26T19:21:46Z</time>
      </trkpt>
      <trkpt lat="49.29007" lon="6.76471">
        <ele>181.9</ele>
        <time>2020-06-26T19:21:47Z</time>
      </trkpt>
      <trkpt lat="49.29001" lon="6.76471">
        <ele>181.9</ele>
        <time>2020-06-26T19:21:48Z</time>
      </trkpt>
      <trkpt lat="49.28995" lon="6.76471">
        <ele>182</ele>
        <time>2020-06-26T19:21:49Z</time>
      </trkpt>
      <trkpt lat="49.28989" lon="6.76471">
        <ele>182</ele>
        <time>2020-06-26T19:21:50Z</time>
      </trkpt>
      <trkpt lat="49.28983" lon="6.76471">
        <ele>182</ele>
        <time>2020-06-26T19:21:51Z</time>
      </trkpt>
      <trkpt lat="49.28977" lon="6.76471">
        <ele>182.1</ele>
        <time>2020-06-26T19:21:52Z</time>
      </trkpt>
      <trkpt lat="49.28971" lon="6.76472">
        <ele>182.1</ele>
        <time>2020-06-26T19:21:53Z</time>
      </trkpt>
      <trkpt lat="49.28966" lon="6.76472">
        <ele>182.1</ele>
        <time>2020-06-26T19:21:54Z</time>
      </trkpt>
      <trkpt lat="49.2896" lon="6.76471">
        <ele>182.1</ele>
        <time>2020-06-26T19:21:55Z</time>
      </trkpt>
      <trkpt lat="49.28955" lon="6.76471">
        <ele>182.1</ele>
        <time>2020-06-26T19:21:56Z</time>
      </trkpt>
      <trkpt lat="49.28949" lon="6.76471">
        <ele>182.1</ele>
        <time>2020-06-26T19:21:57Z</time>
      </trkpt>
      <trkpt lat="49.28944" lon="6.76472">
        <ele>182.1</ele>
        <time>2020-06-26T19:21:58Z</time>
      </trkpt>
      <trkpt lat="49.28938" lon="6.76472">
        <ele>182</ele>
        <time>2020-06-26T19:21:59Z</time>
      </trkpt>
      <trkpt lat="49.28933" lon="6.76472">
        <ele>182</ele>
        <time>2020-06-26T19:22:00Z</time>
      </trkpt>
      <trkpt lat="49.28926" lon="6.76473">
        <ele>182</ele>
        <time>2020-06-26T19:22:01Z</time>
      </trkpt>
      <trkpt lat="49.2892" lon="6.76473">
        <ele>181.9</ele>
        <time>2020-06-26T19:22:02Z</time>
      </trkpt>
      <trkpt lat="49.28915" lon="6.76473">
        <ele>181.9</ele>
        <time>2020-06-26T19:22:03Z</time>
      </trkpt>
      <trkpt lat="49.28909" lon="6.76473">
        <ele>181.9</ele>
        <time>2020-06-26T19:22:04Z</time>
      </trkpt>
      <trkpt lat="49.28903" lon="6.76473">
        <ele>181.9</ele>
        <time>2020-06-26T19:22:05Z</time>
      </trkpt>
      <trkpt lat="49.28898" lon="6.76474">
        <ele>181.9</ele>
        <time>2020-06-26T19:22:06Z</time>
      </trkpt>
      <trkpt lat="49.28893" lon="6.76475">
        <ele>181.9</ele>
        <time>2020-06-26T19:22:07Z</time>
      </trkpt>
      <trkpt lat="49.28887" lon="6.76476">
        <ele>181.9</ele>
        <time>2020-06-26T19:22:08Z</time>
      </trkpt>
      <trkpt lat="49.28882" lon="6.76477">
        <ele>181.9</ele>
        <time>2020-06-26T19:22:09Z</time>
      </trkpt>
      <trkpt lat="49.28876" lon="6.76479">
        <ele>181.9</ele>
        <time>2020-06-26T19:22:10Z</time>
      </trkpt>
      <trkpt lat="49.2887" lon="6.76481">
        <ele>181.9</ele>
        <time>2020-06-26T19:22:11Z</time>
      </trkpt>
      <trkpt lat="49.28865" lon="6.76482">
        <ele>181.9</ele>
        <time>2020-06-26T19:22:12Z</time>
      </trkpt>
      <trkpt lat="49.28859" lon="6.76483">
        <ele>181.9</ele>
        <time>2020-06-26T19:22:13Z</time>
      </trkpt>
      <trkpt lat="49.28853" lon="6.76483">
        <ele>181.9</ele>
        <time>2020-06-26T19:22:14Z</time>
      </trkpt>
      <trkpt lat="49.28848" lon="6.76485">
        <ele>181.9</ele>
        <time>2020-06-26T19:22:15Z</time>
      </trkpt>
      <trkpt lat="49.28842" lon="6.76485">
        <ele>181.9</ele>
        <time>2020-06-26T19:22:16Z</time>
      </trkpt>
      <trkpt lat="49.28836" lon="6.76486">
        <ele>182</ele>
        <time>2020-06-26T19:22:17Z</time>
      </trkpt>
      <trkpt lat="49.2883" lon="6.76488">
        <ele>182</ele>
        <time>2020-06-26T19:22:18Z</time>
      </trkpt>
      <trkpt lat="49.28825" lon="6.7649">
        <ele>182</ele>
        <time>2020-06-26T19:22:19Z</time>
      </trkpt>
      <trkpt lat="49.28819" lon="6.76493">
        <ele>182.1</ele>
        <time>2020-06-26T19:22:20Z</time>
      </trkpt>
      <trkpt lat="49.28813" lon="6.76495">
        <ele>182.1</ele>
        <time>2020-06-26T19:22:21Z</time>
      </trkpt>
      <trkpt lat="49.28808" lon="6.76498">
        <ele>182.1</ele>
        <time>2020-06-26T19:22:22Z</time>
      </trkpt>
      <trkpt lat="49.28803" lon="6.765">
        <ele>182.1</ele>
        <time>2020-06-26T19:22:23Z</time>
      </trkpt>
      <trkpt lat="49.28798" lon="6.76503">
        <ele>182.1</ele>
        <time>2020-06-26T19:22:24Z</time>
      </trkpt>
      <trkpt lat="49.28793" lon="6.76505">
        <ele>182.1</ele>
        <time>2020-06-26T19:22:25Z</time>
      </trkpt>
      <trkpt lat="49.28787" lon="6.76506">
        <ele>182.1</ele>
        <time>2020-06-26T19:22:26Z</time>
      </trkpt>
      <trkpt lat="49.2878" lon="6.76509">
        <ele>182.1</ele>
        <time>2020-06-26T19:22:27Z</time>
      </trkpt>
      <trkpt lat="49.28773" lon="6.76513">
        <ele>182.1</ele>
        <time>2020-06-26T19:22:28Z</time>
      </trkpt>
      <trkpt lat="49.28766" lon="6.76514">
        <ele>182.1</ele>
        <time>2020-06-26T19:22:29Z</time>
      </trkpt>
      <trkpt lat="49.2876" lon="6.76517">
        <ele>182.1</ele>
        <time>2020-06-26T19:22:30Z</time>
      </trkpt>
      <trkpt lat="49.28754" lon="6.76518">
        <ele>182.1</ele>
        <time>2020-06-26T19:22:31Z</time>
      </trkpt>
      <trkpt lat="49.28748" lon="6.76519">
        <ele>182.1</ele>
        <time>2020-06-26T19:22:32Z</time>
      </trkpt>
      <trkpt lat="49.28742" lon="6.7652">
        <ele>182.1</ele>
        <time>2020-06-26T19:22:33Z</time>
      </trkpt>
      <trkpt lat="49.28736" lon="6.76522">
        <ele>182.1</ele>
        <time>2020-06-26T19:22:34Z</time>
      </trkpt>
      <trkpt lat="49.2873" lon="6.76523">
        <ele>182.1</ele>
        <time>2020-06-26T19:22:35Z</time>
      </trkpt>
      <trkpt lat="49.28724" lon="6.76525">
        <ele>182</ele>
        <time>2020-06-26T19:22:36Z</time>
      </trkpt>
      <trkpt lat="49.28718" lon="6.76527">
        <ele>182</ele>
        <time>2020-06-26T19:22:37Z</time>
      </trkpt>
      <trkpt lat="49.28712" lon="6.76529">
        <ele>182</ele>
        <time>2020-06-26T19:22:38Z</time>
      </trkpt>
      <trkpt lat="49.28706" lon="6.7653">
        <ele>181.9</ele>
        <time>2020-06-26T19:22:39Z</time>
      </trkpt>
      <trkpt lat="49.287" lon="6.76533">
        <ele>181.9</ele>
        <time>2020-06-26T19:22:40Z</time>
      </trkpt>
      <trkpt lat="49.28692" lon="6.76534">
        <ele>181.9</ele>
        <time>2020-06-26T19:22:41Z</time>
      </trkpt>
      <trkpt lat="49.28686" lon="6.76535">
        <ele>181.9</ele>
        <time>2020-06-26T19:22:42Z</time>
      </trkpt>
      <trkpt lat="49.28679" lon="6.76537">
        <ele>181.9</ele>
        <time>2020-06-26T19:22:43Z</time>
      </trkpt>
      <trkpt lat="49.28673" lon="6.7654">
        <ele>181.9</ele>
        <time>2020-06-26T19:22:44Z</time>
      </trkpt>
      <trkpt lat="49.28666" lon="6.76542">
        <ele>181.9</ele>
        <time>2020-06-26T19:22:45Z</time>
      </trkpt>
      <trkpt lat="49.2866" lon="6.76544">
        <ele>181.9</ele>
        <time>2020-06-26T19:22:46Z</time>
      </trkpt>
      <trkpt lat="49.28653" lon="6.76545">
        <ele>181.9</ele>
        <time>2020-06-26T19:22:47Z</time>
      </trkpt>
      <trkpt lat="49.28646" lon="6.76547">
        <ele>181.9</ele>
        <time>2020-06-26T19:22:48Z</time>
      </trkpt>
      <trkpt lat="49.28639" lon="6.76549">
        <ele>181.8</ele>
        <time>2020-06-26T19:22:49Z</time>
      </trkpt>
      <trkpt lat="49.28633" lon="6.7655">
        <ele>181.7</ele>
        <time>2020-06-26T19:22:50Z</time>
      </trkpt>
      <trkpt lat="49.28625" lon="6.76553">
        <ele>181.7</ele>
        <time>2020-06-26T19:22:51Z</time>
      </trkpt>
      <trkpt lat="49.28619" lon="6.76554">
        <ele>181.7</ele>
        <time>2020-06-26T19:22:52Z</time>
      </trkpt>
      <trkpt lat="49.28613" lon="6.76555">
        <ele>181.8</ele>
        <time>2020-06-26T19:22:53Z</time>
      </trkpt>
      <trkpt lat="49.28607" lon="6.76557">
        <ele>181.8</ele>
        <time>2020-06-26T19:22:54Z</time>
      </trkpt>
      <trkpt lat="49.286" lon="6.76559">
        <ele>181.9</ele>
        <time>2020-06-26T19:22:55Z</time>
      </trkpt>
      <trkpt lat="49.28593" lon="6.76561">
        <ele>181.9</ele>
        <time>2020-06-26T19:22:56Z</time>
      </trkpt>
      <trkpt lat="49.28587" lon="6.76563">
        <ele>182</ele>
        <time>2020-06-26T19:22:57Z</time>
      </trkpt>
      <trkpt lat="49.28581" lon="6.76565">
        <ele>182</ele>
        <time>2020-06-26T19:22:58Z</time>
      </trkpt>
      <trkpt lat="49.28575" lon="6.76567">
        <ele>182</ele>
        <time>2020-06-26T19:22:59Z</time>
      </trkpt>
      <trkpt lat="49.28569" lon="6.76569">
        <ele>182</ele>
        <time>2020-06-26T19:23:00Z</time>
      </trkpt>
      <trkpt lat="49.28564" lon="6.7657">
        <ele>182</ele>
        <time>2020-06-26T19:23:01Z</time>
      </trkpt>
      <trkpt lat="49.28558" lon="6.76571">
        <ele>182</ele>
        <time>2020-06-26T19:23:02Z</time>
      </trkpt>
      <trkpt lat="49.28553" lon="6.76572">
        <ele>182</ele>
        <time>2020-06-26T19:23:03Z</time>
      </trkpt>
      <trkpt lat="49.28548" lon="6.76574">
        <ele>181.9</ele>
        <time>2020-06-26T19:23:04Z</time>
      </trkpt>
      <trkpt lat="49.28543" lon="6.76576">
        <ele>181.9</ele>
        <time>2020-06-26T19:23:05Z</time>
      </trkpt>
      <trkpt lat="49.28538" lon="6.76578">
        <ele>181.8</ele>
        <time>2020-06-26T19:23:06Z</time>
      </trkpt>
      <trkpt lat="49.28532" lon="6.76583">
        <ele>181.7</ele>
        <time>2020-06-26T19:23:07Z</time>
      </trkpt>
      <trkpt lat="49.28526" lon="6.76587">
        <ele>181.6</ele>
        <time>2020-06-26T19:23:08Z</time>
      </trkpt>
      <trkpt lat="49.28522" lon="6.76589">
        <ele>181.5</ele>
        <time>2020-06-26T19:23:09Z</time>
      </trkpt>
      <trkpt lat="49.28516" lon="6.76593">
        <ele>181.3</ele>
        <time>2020-06-26T19:23:10Z</time>
      </trkpt>
      <trkpt lat="49.2851" lon="6.76596">
        <ele>181.1</ele>
        <time>2020-06-26T19:23:11Z</time>
      </trkpt>
      <trkpt lat="49.28504" lon="6.766">
        <ele>180.9</ele>
        <time>2020-06-26T19:23:12Z</time>
      </trkpt>
      <trkpt lat="49.28497" lon="6.76603">
        <ele>180.8</ele>
        <time>2020-06-26T19:23:13Z</time>
      </trkpt>
      <trkpt lat="49.2849" lon="6.76608">
        <ele>180.7</ele>
        <time>2020-06-26T19:23:14Z</time>
      </trkpt>
      <trkpt lat="49.28484" lon="6.76612">
        <ele>180.6</ele>
        <time>2020-06-26T19:23:15Z</time>
      </trkpt>
      <trkpt lat="49.28478" lon="6.76618">
        <ele>180.5</ele>
        <time>2020-06-26T19:23:16Z</time>
      </trkpt>
      <trkpt lat="49.28472" lon="6.76624">
        <ele>180.5</ele>
        <time>2020-06-26T19:23:17Z</time>
      </trkpt>
      <trkpt lat="49.28467" lon="6.76629">
        <ele>180.5</ele>
        <time>2020-06-26T19:23:18Z</time>
      </trkpt>
      <trkpt lat="49.28461" lon="6.76634">
        <ele>180.5</ele>
        <time>2020-06-26T19:23:19Z</time>
      </trkpt>
      <trkpt lat="49.28455" lon="6.76637">
        <ele>180.5</ele>
        <time>2020-06-26T19:23:20Z</time>
      </trkpt>
      <trkpt lat="49.28449" lon="6.76642">
        <ele>180.5</ele>
        <time>2020-06-26T19:23:21Z</time>
      </trkpt>
      <trkpt lat="49.28443" lon="6.76646">
        <ele>180.5</ele>
        <time>2020-06-26T19:23:22Z</time>
      </trkpt>
      <trkpt lat="49.28437" lon="6.7665">
        <ele>180.5</ele>
        <time>2020-06-26T19:23:23Z</time>
      </trkpt>
      <trkpt lat="49.28431" lon="6.76654">
        <ele>180.5</ele>
        <time>2020-06-26T19:23:24Z</time>
      </trkpt>
      <trkpt lat="49.28425" lon="6.76658">
        <ele>180.5</ele>
        <time>2020-06-26T19:23:25Z</time>
      </trkpt>
      <trkpt lat="49.2842" lon="6.76663">
        <ele>180.6</ele>
        <time>2020-06-26T19:23:26Z</time>
      </trkpt>
      <trkpt lat="49.28414" lon="6.76666">
        <ele>180.6</ele>
        <time>2020-06-26T19:23:27Z</time>
      </trkpt>
      <trkpt lat="49.28408" lon="6.7667">
        <ele>180.6</ele>
        <time>2020-06-26T19:23:28Z</time>
      </trkpt>
      <trkpt lat="49.28403" lon="6.76673">
        <ele>180.6</ele>
        <time>2020-06-26T19:23:29Z</time>
      </trkpt>
      <trkpt lat="49.28398" lon="6.76676">
        <ele>180.6</ele>
        <time>2020-06-26T19:23:30Z</time>
      </trkpt>
      <trkpt lat="49.28392" lon="6.76678">
        <ele>180.7</ele>
        <time>2020-06-26T19:23:31Z</time>
      </trkpt>
      <trkpt lat="49.28386" lon="6.76681">
        <ele>180.7</ele>
        <time>2020-06-26T19:23:32Z</time>
      </trkpt>
      <trkpt lat="49.2838" lon="6.76682">
        <ele>180.7</ele>
        <time>2020-06-26T19:23:33Z</time>
      </trkpt>
      <trkpt lat="49.28374" lon="6.76684">
        <ele>180.7</ele>
        <time>2020-06-26T19:23:34Z</time>
      </trkpt>
      <trkpt lat="49.28367" lon="6.76686">
        <ele>180.8</ele>
        <time>2020-06-26T19:23:35Z</time>
      </trkpt>
      <trkpt lat="49.28361" lon="6.76691">
        <ele>180.8</ele>
        <time>2020-06-26T19:23:36Z</time>
      </trkpt>
      <trkpt lat="49.28355" lon="6.76697">
        <ele>180.8</ele>
        <time>2020-06-26T19:23:37Z</time>
      </trkpt>
      <trkpt lat="49.2835" lon="6.76703">
        <ele>180.9</ele>
        <time>2020-06-26T19:23:38Z</time>
      </trkpt>
      <trkpt lat="49.28344" lon="6.76708">
        <ele>180.9</ele>
        <time>2020-06-26T19:23:39Z</time>
      </trkpt>
      <trkpt lat="49.28339" lon="6.76713">
        <ele>180.9</ele>
        <time>2020-06-26T19:23:40Z</time>
      </trkpt>
      <trkpt lat="49.28334" lon="6.76719">
        <ele>181</ele>
        <time>2020-06-26T19:23:41Z</time>
      </trkpt>
      <trkpt lat="49.28328" lon="6.76724">
        <ele>181</ele>
        <time>2020-06-26T19:23:42Z</time>
      </trkpt>
      <trkpt lat="49.28323" lon="6.76729">
        <ele>181</ele>
        <time>2020-06-26T19:23:43Z</time>
      </trkpt>
      <trkpt lat="49.28318" lon="6.76735">
        <ele>181.1</ele>
        <time>2020-06-26T19:23:44Z</time>
      </trkpt>
      <trkpt lat="49.28312" lon="6.76741">
        <ele>181.1</ele>
        <time>2020-06-26T19:23:45Z</time>
      </trkpt>
      <trkpt lat="49.28307" lon="6.76746">
        <ele>181.1</ele>
        <time>2020-06-26T19:23:46Z</time>
      </trkpt>
      <trkpt lat="49.28301" lon="6.76751">
        <ele>181.1</ele>
        <time>2020-06-26T19:23:47Z</time>
      </trkpt>
      <trkpt lat="49.28296" lon="6.76756">
        <ele>181.1</ele>
        <time>2020-06-26T19:23:48Z</time>
      </trkpt>
      <trkpt lat="49.28291" lon="6.76761">
        <ele>181.1</ele>
        <time>2020-06-26T19:23:49Z</time>
      </trkpt>
      <trkpt lat="49.28285" lon="6.76767">
        <ele>181</ele>
        <time>2020-06-26T19:23:50Z</time>
      </trkpt>
      <trkpt lat="49.28279" lon="6.76773">
        <ele>181</ele>
        <time>2020-06-26T19:23:51Z</time>
      </trkpt>
      <trkpt lat="49.28273" lon="6.76779">
        <ele>181</ele>
        <time>2020-06-26T19:23:52Z</time>
      </trkpt>
      <trkpt lat="49.28268" lon="6.76784">
        <ele>180.9</ele>
        <time>2020-06-26T19:23:53Z</time>
      </trkpt>
      <trkpt lat="49.28262" lon="6.7679">
        <ele>180.9</ele>
        <time>2020-06-26T19:23:54Z</time>
      </trkpt>
      <trkpt lat="49.28256" lon="6.76797">
        <ele>180.9</ele>
        <time>2020-06-26T19:23:55Z</time>
      </trkpt>
      <trkpt lat="49.28251" lon="6.768">
        <ele>180.9</ele>
        <time>2020-06-26T19:23:56Z</time>
      </trkpt>
      <trkpt lat="49.28245" lon="6.76806">
        <ele>180.9</ele>
        <time>2020-06-26T19:23:57Z</time>
      </trkpt>
      <trkpt lat="49.28239" lon="6.76811">
        <ele>180.9</ele>
        <time>2020-06-26T19:23:58Z</time>
      </trkpt>
      <trkpt lat="49.28234" lon="6.76817">
        <ele>181</ele>
        <time>2020-06-26T19:23:59Z</time>
      </trkpt>
      <trkpt lat="49.28229" lon="6.76824">
        <ele>180.9</ele>
        <time>2020-06-26T19:24:00Z</time>
      </trkpt>
      <trkpt lat="49.28223" lon="6.7683">
        <ele>180.9</ele>
        <time>2020-06-26T19:24:01Z</time>
      </trkpt>
      <trkpt lat="49.28218" lon="6.76836">
        <ele>180.8</ele>
        <time>2020-06-26T19:24:02Z</time>
      </trkpt>
      <trkpt lat="49.28212" lon="6.76842">
        <ele>180.7</ele>
        <time>2020-06-26T19:24:03Z</time>
      </trkpt>
      <trkpt lat="49.28206" lon="6.76849">
        <ele>180.7</ele>
        <time>2020-06-26T19:24:04Z</time>
      </trkpt>
      <trkpt lat="49.28201" lon="6.76855">
        <ele>180.6</ele>
        <time>2020-06-26T19:24:05Z</time>
      </trkpt>
      <trkpt lat="49.28194" lon="6.7686">
        <ele>180.6</ele>
        <time>2020-06-26T19:24:06Z</time>
      </trkpt>
      <trkpt lat="49.28188" lon="6.76865">
        <ele>180.6</ele>
        <time>2020-06-26T19:24:07Z</time>
      </trkpt>
      <trkpt lat="49.28183" lon="6.76872">
        <ele>180.6</ele>
        <time>2020-06-26T19:24:08Z</time>
      </trkpt>
      <trkpt lat="49.28177" lon="6.76878">
        <ele>180.7</ele>
        <time>2020-06-26T19:24:09Z</time>
      </trkpt>
      <trkpt lat="49.28171" lon="6.76884">
        <ele>180.7</ele>
        <time>2020-06-26T19:24:10Z</time>
      </trkpt>
      <trkpt lat="49.28166" lon="6.76891">
        <ele>180.7</ele>
        <time>2020-06-26T19:24:11Z</time>
      </trkpt>
      <trkpt lat="49.2816" lon="6.76897">
        <ele>180.7</ele>
        <time>2020-06-26T19:24:12Z</time>
      </trkpt>
      <trkpt lat="49.28155" lon="6.76904">
        <ele>180.7</ele>
        <time>2020-06-26T19:24:13Z</time>
      </trkpt>
      <trkpt lat="49.28149" lon="6.7691">
        <ele>180.7</ele>
        <time>2020-06-26T19:24:14Z</time>
      </trkpt>
      <trkpt lat="49.28144" lon="6.76917">
        <ele>180.8</ele>
        <time>2020-06-26T19:24:15Z</time>
      </trkpt>
      <trkpt lat="49.28139" lon="6.76923">
        <ele>180.8</ele>
        <time>2020-06-26T19:24:16Z</time>
      </trkpt>
      <trkpt lat="49.28134" lon="6.76929">
        <ele>180.8</ele>
        <time>2020-06-26T19:24:17Z</time>
      </trkpt>
      <trkpt lat="49.28128" lon="6.76936">
        <ele>180.8</ele>
        <time>2020-06-26T19:24:18Z</time>
      </trkpt>
      <trkpt lat="49.28123" lon="6.76943">
        <ele>180.8</ele>
        <time>2020-06-26T19:24:19Z</time>
      </trkpt>
      <trkpt lat="49.28118" lon="6.7695">
        <ele>180.8</ele>
        <time>2020-06-26T19:24:20Z</time>
      </trkpt>
      <trkpt lat="49.28113" lon="6.76957">
        <ele>180.8</ele>
        <time>2020-06-26T19:24:21Z</time>
      </trkpt>
      <trkpt lat="49.28108" lon="6.76965">
        <ele>180.8</ele>
        <time>2020-06-26T19:24:22Z</time>
      </trkpt>
      <trkpt lat="49.28103" lon="6.76971">
        <ele>180.8</ele>
        <time>2020-06-26T19:24:23Z</time>
      </trkpt>
      <trkpt lat="49.28097" lon="6.76978">
        <ele>180.8</ele>
        <time>2020-06-26T19:24:24Z</time>
      </trkpt>
      <trkpt lat="49.28092" lon="6.76985">
        <ele>180.8</ele>
        <time>2020-06-26T19:24:25Z</time>
      </trkpt>
      <trkpt lat="49.28087" lon="6.76992">
        <ele>180.8</ele>
        <time>2020-06-26T19:24:26Z</time>
      </trkpt>
      <trkpt lat="49.28081" lon="6.76998">
        <ele>180.8</ele>
        <time>2020-06-26T19:24:27Z</time>
      </trkpt>
      <trkpt lat="49.28076" lon="6.77005">
        <ele>180.8</ele>
        <time>2020-06-26T19:24:28Z</time>
      </trkpt>
      <trkpt lat="49.28071" lon="6.77012">
        <ele>180.9</ele>
        <time>2020-06-26T19:24:29Z</time>
      </trkpt>
      <trkpt lat="49.28066" lon="6.77018">
        <ele>180.9</ele>
        <time>2020-06-26T19:24:30Z</time>
      </trkpt>
      <trkpt lat="49.2806" lon="6.77024">
        <ele>180.9</ele>
        <time>2020-06-26T19:24:31Z</time>
      </trkpt>
      <trkpt lat="49.28055" lon="6.77031">
        <ele>180.9</ele>
        <time>2020-06-26T19:24:32Z</time>
      </trkpt>
      <trkpt lat="49.28049" lon="6.77037">
        <ele>180.9</ele>
        <time>2020-06-26T19:24:33Z</time>
      </trkpt>
      <trkpt lat="49.28044" lon="6.77044">
        <ele>181</ele>
        <time>2020-06-26T19:24:34Z</time>
      </trkpt>
      <trkpt lat="49.28038" lon="6.7705">
        <ele>181</ele>
        <time>2020-06-26T19:24:35Z</time>
      </trkpt>
      <trkpt lat="49.28033" lon="6.77056">
        <ele>181</ele>
        <time>2020-06-26T19:24:36Z</time>
      </trkpt>
      <trkpt lat="49.28028" lon="6.77063">
        <ele>181.1</ele>
        <time>2020-06-26T19:24:37Z</time>
      </trkpt>
      <trkpt lat="49.28022" lon="6.77069">
        <ele>181.1</ele>
        <time>2020-06-26T19:24:38Z</time>
      </trkpt>
      <trkpt lat="49.28017" lon="6.77076">
        <ele>181.2</ele>
        <time>2020-06-26T19:24:39Z</time>
      </trkpt>
      <trkpt lat="49.28011" lon="6.77082">
        <ele>181.3</ele>
        <time>2020-06-26T19:24:40Z</time>
      </trkpt>
      <trkpt lat="49.28006" lon="6.77089">
        <ele>181.5</ele>
        <time>2020-06-26T19:24:41Z</time>
      </trkpt>
      <trkpt lat="49.28001" lon="6.77096">
        <ele>181.7</ele>
        <time>2020-06-26T19:24:42Z</time>
      </trkpt>
      <trkpt lat="49.27996" lon="6.77101">
        <ele>181.8</ele>
        <time>2020-06-26T19:24:43Z</time>
      </trkpt>
      <trkpt lat="49.27992" lon="6.77108">
        <ele>181.9</ele>
        <time>2020-06-26T19:24:44Z</time>
      </trkpt>
      <trkpt lat="49.27987" lon="6.77114">
        <ele>181.9</ele>
        <time>2020-06-26T19:24:45Z</time>
      </trkpt>
      <trkpt lat="49.27983" lon="6.7712">
        <ele>181.9</ele>
        <time>2020-06-26T19:24:46Z</time>
      </trkpt>
      <trkpt lat="49.27978" lon="6.77125">
        <ele>181.8</ele>
        <time>2020-06-26T19:24:47Z</time>
      </trkpt>
      <trkpt lat="49.27973" lon="6.7713">
        <ele>181.7</ele>
        <time>2020-06-26T19:24:48Z</time>
      </trkpt>
      <trkpt lat="49.27968" lon="6.77136">
        <ele>181.6</ele>
        <time>2020-06-26T19:24:49Z</time>
      </trkpt>
      <trkpt lat="49.27963" lon="6.77142">
        <ele>181.5</ele>
        <time>2020-06-26T19:24:50Z</time>
      </trkpt>
      <trkpt lat="49.27958" lon="6.77149">
        <ele>181.4</ele>
        <time>2020-06-26T19:24:51Z</time>
      </trkpt>
      <trkpt lat="49.27952" lon="6.77156">
        <ele>181.3</ele>
        <time>2020-06-26T19:24:52Z</time>
      </trkpt>
      <trkpt lat="49.27947" lon="6.77163">
        <ele>181.3</ele>
        <time>2020-06-26T19:24:53Z</time>
      </trkpt>
      <trkpt lat="49.27942" lon="6.77169">
        <ele>181.3</ele>
        <time>2020-06-26T19:24:54Z</time>
      </trkpt>
      <trkpt lat="49.27937" lon="6.77175">
        <ele>181.3</ele>
        <time>2020-06-26T19:24:55Z</time>
      </trkpt>
      <trkpt lat="49.27931" lon="6.77182">
        <ele>181.3</ele>
        <time>2020-06-26T19:24:56Z</time>
      </trkpt>
      <trkpt lat="49.27926" lon="6.77189">
        <ele>181.3</ele>
        <time>2020-06-26T19:24:57Z</time>
      </trkpt>
      <trkpt lat="49.27921" lon="6.77195">
        <ele>181.3</ele>
        <time>2020-06-26T19:24:58Z</time>
      </trkpt>
      <trkpt lat="49.27915" lon="6.77201">
        <ele>181.3</ele>
        <time>2020-06-26T19:24:59Z</time>
      </trkpt>
      <trkpt lat="49.2791" lon="6.77209">
        <ele>181.3</ele>
        <time>2020-06-26T19:25:00Z</time>
      </trkpt>
      <trkpt lat="49.27905" lon="6.77216">
        <ele>181.3</ele>
        <time>2020-06-26T19:25:01Z</time>
      </trkpt>
      <trkpt lat="49.279" lon="6.77223">
        <ele>181.3</ele>
        <time>2020-06-26T19:25:02Z</time>
      </trkpt>
      <trkpt lat="49.27895" lon="6.77229">
        <ele>181.4</ele>
        <time>2020-06-26T19:25:03Z</time>
      </trkpt>
      <trkpt lat="49.27889" lon="6.77235">
        <ele>181.4</ele>
        <time>2020-06-26T19:25:04Z</time>
      </trkpt>
      <trkpt lat="49.27884" lon="6.77241">
        <ele>181.3</ele>
        <time>2020-06-26T19:25:05Z</time>
      </trkpt>
      <trkpt lat="49.27879" lon="6.77247">
        <ele>181.3</ele>
        <time>2020-06-26T19:25:06Z</time>
      </trkpt>
      <trkpt lat="49.27873" lon="6.77253">
        <ele>181.3</ele>
        <time>2020-06-26T19:25:07Z</time>
      </trkpt>
      <trkpt lat="49.27868" lon="6.77259">
        <ele>181.2</ele>
        <time>2020-06-26T19:25:08Z</time>
      </trkpt>
      <trkpt lat="49.27863" lon="6.77266">
        <ele>181.2</ele>
        <time>2020-06-26T19:25:09Z</time>
      </trkpt>
      <trkpt lat="49.27858" lon="6.77273">
        <ele>181.2</ele>
        <time>2020-06-26T19:25:10Z</time>
      </trkpt>
      <trkpt lat="49.27853" lon="6.77279">
        <ele>181.2</ele>
        <time>2020-06-26T19:25:11Z</time>
      </trkpt>
      <trkpt lat="49.27848" lon="6.77287">
        <ele>181.2</ele>
        <time>2020-06-26T19:25:12Z</time>
      </trkpt>
      <trkpt lat="49.27843" lon="6.77294">
        <ele>181.2</ele>
        <time>2020-06-26T19:25:13Z</time>
      </trkpt>
      <trkpt lat="49.27838" lon="6.773">
        <ele>181.1</ele>
        <time>2020-06-26T19:25:14Z</time>
      </trkpt>
      <trkpt lat="49.27833" lon="6.77307">
        <ele>181.1</ele>
        <time>2020-06-26T19:25:15Z</time>
      </trkpt>
      <trkpt lat="49.27828" lon="6.77315">
        <ele>181.1</ele>
        <time>2020-06-26T19:25:16Z</time>
      </trkpt>
      <trkpt lat="49.27823" lon="6.77322">
        <ele>181.1</ele>
        <time>2020-06-26T19:25:17Z</time>
      </trkpt>
      <trkpt lat="49.27818" lon="6.77329">
        <ele>181</ele>
        <time>2020-06-26T19:25:18Z</time>
      </trkpt>
      <trkpt lat="49.27813" lon="6.77336">
        <ele>181</ele>
        <time>2020-06-26T19:25:19Z</time>
      </trkpt>
      <trkpt lat="49.27808" lon="6.77343">
        <ele>181</ele>
        <time>2020-06-26T19:25:20Z</time>
      </trkpt>
      <trkpt lat="49.27803" lon="6.7735">
        <ele>181</ele>
        <time>2020-06-26T19:25:21Z</time>
      </trkpt>
      <trkpt lat="49.27797" lon="6.77356">
        <ele>181</ele>
        <time>2020-06-26T19:25:22Z</time>
      </trkpt>
      <trkpt lat="49.27792" lon="6.77363">
        <ele>181</ele>
        <time>2020-06-26T19:25:23Z</time>
      </trkpt>
      <trkpt lat="49.27786" lon="6.7737">
        <ele>181</ele>
        <time>2020-06-26T19:25:24Z</time>
      </trkpt>
      <trkpt lat="49.27781" lon="6.77377">
        <ele>181</ele>
        <time>2020-06-26T19:25:25Z</time>
      </trkpt>
      <trkpt lat="49.27775" lon="6.77384">
        <ele>181</ele>
        <time>2020-06-26T19:25:26Z</time>
      </trkpt>
      <trkpt lat="49.2777" lon="6.7739">
        <ele>181</ele>
        <time>2020-06-26T19:25:27Z</time>
      </trkpt>
      <trkpt lat="49.27764" lon="6.77397">
        <ele>181</ele>
        <time>2020-06-26T19:25:28Z</time>
      </trkpt>
      <trkpt lat="49.27759" lon="6.77402">
        <ele>181</ele>
        <time>2020-06-26T19:25:29Z</time>
      </trkpt>
      <trkpt lat="49.27753" lon="6.77408">
        <ele>181</ele>
        <time>2020-06-26T19:25:30Z</time>
      </trkpt>
      <trkpt lat="49.27748" lon="6.77415">
        <ele>181</ele>
        <time>2020-06-26T19:25:31Z</time>
      </trkpt>
      <trkpt lat="49.27742" lon="6.77421">
        <ele>181</ele>
        <time>2020-06-26T19:25:32Z</time>
      </trkpt>
      <trkpt lat="49.27737" lon="6.77428">
        <ele>181</ele>
        <time>2020-06-26T19:25:33Z</time>
      </trkpt>
      <trkpt lat="49.27732" lon="6.77435">
        <ele>181</ele>
        <time>2020-06-26T19:25:34Z</time>
      </trkpt>
      <trkpt lat="49.27726" lon="6.77441">
        <ele>181</ele>
        <time>2020-06-26T19:25:35Z</time>
      </trkpt>
      <trkpt lat="49.27721" lon="6.77448">
        <ele>180.9</ele>
        <time>2020-06-26T19:25:36Z</time>
      </trkpt>
      <trkpt lat="49.27716" lon="6.77455">
        <ele>180.9</ele>
        <time>2020-06-26T19:25:37Z</time>
      </trkpt>
      <trkpt lat="49.2771" lon="6.77462">
        <ele>180.8</ele>
        <time>2020-06-26T19:25:38Z</time>
      </trkpt>
      <trkpt lat="49.27704" lon="6.77468">
        <ele>180.8</ele>
        <time>2020-06-26T19:25:39Z</time>
      </trkpt>
      <trkpt lat="49.27698" lon="6.77475">
        <ele>180.7</ele>
        <time>2020-06-26T19:25:40Z</time>
      </trkpt>
      <trkpt lat="49.27692" lon="6.77482">
        <ele>180.7</ele>
        <time>2020-06-26T19:25:41Z</time>
      </trkpt>
      <trkpt lat="49.27686" lon="6.77488">
        <ele>180.7</ele>
        <time>2020-06-26T19:25:42Z</time>
      </trkpt>
      <trkpt lat="49.2768" lon="6.77495">
        <ele>180.6</ele>
        <time>2020-06-26T19:25:43Z</time>
      </trkpt>
      <trkpt lat="49.27675" lon="6.77502">
        <ele>180.6</ele>
        <time>2020-06-26T19:25:44Z</time>
      </trkpt>
      <trkpt lat="49.27669" lon="6.77509">
        <ele>180.6</ele>
        <time>2020-06-26T19:25:45Z</time>
      </trkpt>
      <trkpt lat="49.27664" lon="6.77516">
        <ele>180.7</ele>
        <time>2020-06-26T19:25:46Z</time>
      </trkpt>
      <trkpt lat="49.27658" lon="6.77523">
        <ele>180.7</ele>
        <time>2020-06-26T19:25:47Z</time>
      </trkpt>
      <trkpt lat="49.27652" lon="6.7753">
        <ele>180.6</ele>
        <time>2020-06-26T19:25:48Z</time>
      </trkpt>
      <trkpt lat="49.27647" lon="6.77536">
        <ele>180.6</ele>
        <time>2020-06-26T19:25:49Z</time>
      </trkpt>
      <trkpt lat="49.27641" lon="6.77543">
        <ele>180.6</ele>
        <time>2020-06-26T19:25:50Z</time>
      </trkpt>
      <trkpt lat="49.27636" lon="6.7755">
        <ele>180.6</ele>
        <time>2020-06-26T19:25:51Z</time>
      </trkpt>
      <trkpt lat="49.2763" lon="6.77557">
        <ele>180.5</ele>
        <time>2020-06-26T19:25:52Z</time>
      </trkpt>
      <trkpt lat="49.27624" lon="6.77563">
        <ele>180.5</ele>
        <time>2020-06-26T19:25:53Z</time>
      </trkpt>
      <trkpt lat="49.27618" lon="6.77569">
        <ele>180.4</ele>
        <time>2020-06-26T19:25:54Z</time>
      </trkpt>
      <trkpt lat="49.27612" lon="6.77575">
        <ele>180.4</ele>
        <time>2020-06-26T19:25:55Z</time>
      </trkpt>
      <trkpt lat="49.27605" lon="6.7758">
        <ele>180.4</ele>
        <time>2020-06-26T19:25:56Z</time>
      </trkpt>
      <trkpt lat="49.276" lon="6.77586">
        <ele>180.3</ele>
        <time>2020-06-26T19:25:57Z</time>
      </trkpt>
      <trkpt lat="49.27593" lon="6.7759">
        <ele>180.3</ele>
        <time>2020-06-26T19:25:58Z</time>
      </trkpt>
      <trkpt lat="49.27587" lon="6.77595">
        <ele>180.3</ele>
        <time>2020-06-26T19:25:59Z</time>
      </trkpt>
      <trkpt lat="49.27581" lon="6.776">
        <ele>180.3</ele>
        <time>2020-06-26T19:26:00Z</time>
      </trkpt>
      <trkpt lat="49.27575" lon="6.77604">
        <ele>180.3</ele>
        <time>2020-06-26T19:26:01Z</time>
      </trkpt>
      <trkpt lat="49.2757" lon="6.77607">
        <ele>180.3</ele>
        <time>2020-06-26T19:26:02Z</time>
      </trkpt>
      <trkpt lat="49.27564" lon="6.77611">
        <ele>180.3</ele>
        <time>2020-06-26T19:26:03Z</time>
      </trkpt>
      <trkpt lat="49.27558" lon="6.77615">
        <ele>180.3</ele>
        <time>2020-06-26T19:26:04Z</time>
      </trkpt>
      <trkpt lat="49.27553" lon="6.7762">
        <ele>180.3</ele>
        <time>2020-06-26T19:26:05Z</time>
      </trkpt>
      <trkpt lat="49.27548" lon="6.77625">
        <ele>180.2</ele>
        <time>2020-06-26T19:26:06Z</time>
      </trkpt>
      <trkpt lat="49.27544" lon="6.77632">
        <ele>180.2</ele>
        <time>2020-06-26T19:26:07Z</time>
      </trkpt>
      <trkpt lat="49.27539" lon="6.7764">
        <ele>180.1</ele>
        <time>2020-06-26T19:26:08Z</time>
      </trkpt>
      <trkpt lat="49.27535" lon="6.77649">
        <ele>180</ele>
        <time>2020-06-26T19:26:09Z</time>
      </trkpt>
      <trkpt lat="49.2753" lon="6.77657">
        <ele>179.9</ele>
        <time>2020-06-26T19:26:10Z</time>
      </trkpt>
      <trkpt lat="49.27525" lon="6.77665">
        <ele>179.9</ele>
        <time>2020-06-26T19:26:11Z</time>
      </trkpt>
      <trkpt lat="49.2752" lon="6.77672">
        <ele>179.8</ele>
        <time>2020-06-26T19:26:12Z</time>
      </trkpt>
      <trkpt lat="49.27513" lon="6.77677">
        <ele>179.8</ele>
        <time>2020-06-26T19:26:13Z</time>
      </trkpt>
      <trkpt lat="49.27507" lon="6.77683">
        <ele>179.7</ele>
        <time>2020-06-26T19:26:14Z</time>
      </trkpt>
      <trkpt lat="49.27501" lon="6.77687">
        <ele>179.7</ele>
        <time>2020-06-26T19:26:15Z</time>
      </trkpt>
      <trkpt lat="49.27494" lon="6.77692">
        <ele>179.7</ele>
        <time>2020-06-26T19:26:16Z</time>
      </trkpt>
      <trkpt lat="49.27488" lon="6.77697">
        <ele>179.7</ele>
        <time>2020-06-26T19:26:17Z</time>
      </trkpt>
      <trkpt lat="49.27482" lon="6.77702">
        <ele>179.7</ele>
        <time>2020-06-26T19:26:18Z</time>
      </trkpt>
      <trkpt lat="49.27476" lon="6.77708">
        <ele>179.7</ele>
        <time>2020-06-26T19:26:19Z</time>
      </trkpt>
      <trkpt lat="49.2747" lon="6.77713">
        <ele>179.8</ele>
        <time>2020-06-26T19:26:20Z</time>
      </trkpt>
      <trkpt lat="49.27464" lon="6.77719">
        <ele>179.8</ele>
        <time>2020-06-26T19:26:21Z</time>
      </trkpt>
      <trkpt lat="49.27459" lon="6.77726">
        <ele>179.8</ele>
        <time>2020-06-26T19:26:22Z</time>
      </trkpt>
      <trkpt lat="49.27454" lon="6.77733">
        <ele>179.9</ele>
        <time>2020-06-26T19:26:23Z</time>
      </trkpt>
      <trkpt lat="49.27449" lon="6.7774">
        <ele>179.9</ele>
        <time>2020-06-26T19:26:24Z</time>
      </trkpt>
      <trkpt lat="49.27444" lon="6.77747">
        <ele>179.9</ele>
        <time>2020-06-26T19:26:25Z</time>
      </trkpt>
      <trkpt lat="49.27439" lon="6.77753">
        <ele>179.9</ele>
        <time>2020-06-26T19:26:26Z</time>
      </trkpt>
      <trkpt lat="49.27433" lon="6.77759">
        <ele>179.9</ele>
        <time>2020-06-26T19:26:27Z</time>
      </trkpt>
      <trkpt lat="49.27428" lon="6.77766">
        <ele>179.9</ele>
        <time>2020-06-26T19:26:28Z</time>
      </trkpt>
      <trkpt lat="49.27423" lon="6.77773">
        <ele>179.9</ele>
        <time>2020-06-26T19:26:29Z</time>
      </trkpt>
      <trkpt lat="49.27418" lon="6.7778">
        <ele>179.9</ele>
        <time>2020-06-26T19:26:30Z</time>
      </trkpt>
      <trkpt lat="49.27413" lon="6.77787">
        <ele>179.9</ele>
        <time>2020-06-26T19:26:31Z</time>
      </trkpt>
      <trkpt lat="49.27408" lon="6.77795">
        <ele>179.8</ele>
        <time>2020-06-26T19:26:32Z</time>
      </trkpt>
      <trkpt lat="49.27404" lon="6.77803">
        <ele>179.8</ele>
        <time>2020-06-26T19:26:33Z</time>
      </trkpt>
      <trkpt lat="49.27399" lon="6.77811">
        <ele>179.8</ele>
        <time>2020-06-26T19:26:34Z</time>
      </trkpt>
      <trkpt lat="49.27395" lon="6.77819">
        <ele>179.9</ele>
        <time>2020-06-26T19:26:35Z</time>
      </trkpt>
      <trkpt lat="49.27391" lon="6.77828">
        <ele>179.9</ele>
        <time>2020-06-26T19:26:36Z</time>
      </trkpt>
      <trkpt lat="49.27387" lon="6.77837">
        <ele>179.9</ele>
        <time>2020-06-26T19:26:37Z</time>
      </trkpt>
      <trkpt lat="49.27383" lon="6.77846">
        <ele>179.9</ele>
        <time>2020-06-26T19:26:38Z</time>
      </trkpt>
      <trkpt lat="49.2738" lon="6.77855">
        <ele>179.9</ele>
        <time>2020-06-26T19:26:39Z</time>
      </trkpt>
      <trkpt lat="49.27377" lon="6.77865">
        <ele>179.9</ele>
        <time>2020-06-26T19:26:40Z</time>
      </trkpt>
      <trkpt lat="49.27375" lon="6.77875">
        <ele>180</ele>
        <time>2020-06-26T19:26:41Z</time>
      </trkpt>
      <trkpt lat="49.27373" lon="6.77885">
        <ele>180</ele>
        <time>2020-06-26T19:26:42Z</time>
      </trkpt>
      <trkpt lat="49.27371" lon="6.77894">
        <ele>180.1</ele>
        <time>2020-06-26T19:26:43Z</time>
      </trkpt>
      <trkpt lat="49.2737" lon="6.77904">
        <ele>180.1</ele>
        <time>2020-06-26T19:26:44Z</time>
      </trkpt>
      <trkpt lat="49.27369" lon="6.77914">
        <ele>180.2</ele>
        <time>2020-06-26T19:26:45Z</time>
      </trkpt>
      <trkpt lat="49.27368" lon="6.77924">
        <ele>180.3</ele>
        <time>2020-06-26T19:26:46Z</time>
      </trkpt>
      <trkpt lat="49.27367" lon="6.77934">
        <ele>180.3</ele>
        <time>2020-06-26T19:26:47Z</time>
      </trkpt>
      <trkpt lat="49.27367" lon="6.77944">
        <ele>180.5</ele>
        <time>2020-06-26T19:26:48Z</time>
      </trkpt>
      <trkpt lat="49.27367" lon="6.77954">
        <ele>180.6</ele>
        <time>2020-06-26T19:26:49Z</time>
      </trkpt>
      <trkpt lat="49.27366" lon="6.77963">
        <ele>180.6</ele>
        <time>2020-06-26T19:26:50Z</time>
      </trkpt>
      <trkpt lat="49.27366" lon="6.77972">
        <ele>180.7</ele>
        <time>2020-06-26T19:26:51Z</time>
      </trkpt>
      <trkpt lat="49.27367" lon="6.77981">
        <ele>180.8</ele>
        <time>2020-06-26T19:26:52Z</time>
      </trkpt>
      <trkpt lat="49.27367" lon="6.7799">
        <ele>180.8</ele>
        <time>2020-06-26T19:26:53Z</time>
      </trkpt>
      <trkpt lat="49.27366" lon="6.78">
        <ele>180.8</ele>
        <time>2020-06-26T19:26:54Z</time>
      </trkpt>
      <trkpt lat="49.27366" lon="6.78009">
        <ele>180.8</ele>
        <time>2020-06-26T19:26:55Z</time>
      </trkpt>
      <trkpt lat="49.27367" lon="6.78018">
        <ele>180.7</ele>
        <time>2020-06-26T19:26:56Z</time>
      </trkpt>
      <trkpt lat="49.27368" lon="6.78027">
        <ele>180.7</ele>
        <time>2020-06-26T19:26:57Z</time>
      </trkpt>
      <trkpt lat="49.27368" lon="6.78037">
        <ele>180.6</ele>
        <time>2020-06-26T19:26:58Z</time>
      </trkpt>
      <trkpt lat="49.27368" lon="6.78047">
        <ele>180.5</ele>
        <time>2020-06-26T19:26:59Z</time>
      </trkpt>
      <trkpt lat="49.2737" lon="6.78058">
        <ele>180.4</ele>
        <time>2020-06-26T19:27:00Z</time>
      </trkpt>
      <trkpt lat="49.2737" lon="6.78069">
        <ele>180.4</ele>
        <time>2020-06-26T19:27:01Z</time>
      </trkpt>
      <trkpt lat="49.27369" lon="6.78079">
        <ele>180.3</ele>
        <time>2020-06-26T19:27:02Z</time>
      </trkpt>
      <trkpt lat="49.2737" lon="6.78088">
        <ele>180.3</ele>
        <time>2020-06-26T19:27:03Z</time>
      </trkpt>
      <trkpt lat="49.2737" lon="6.78098">
        <ele>180.3</ele>
        <time>2020-06-26T19:27:04Z</time>
      </trkpt>
      <trkpt lat="49.2737" lon="6.78108">
        <ele>180.3</ele>
        <time>2020-06-26T19:27:05Z</time>
      </trkpt>
      <trkpt lat="49.27371" lon="6.78119">
        <ele>180.3</ele>
        <time>2020-06-26T19:27:06Z</time>
      </trkpt>
      <trkpt lat="49.27371" lon="6.78129">
        <ele>180.3</ele>
        <time>2020-06-26T19:27:07Z</time>
      </trkpt>
      <trkpt lat="49.27373" lon="6.78139">
        <ele>180.3</ele>
        <time>2020-06-26T19:27:08Z</time>
      </trkpt>
      <trkpt lat="49.27374" lon="6.78149">
        <ele>180.3</ele>
        <time>2020-06-26T19:27:09Z</time>
      </trkpt>
      <trkpt lat="49.27376" lon="6.7816">
        <ele>180.4</ele>
        <time>2020-06-26T19:27:10Z</time>
      </trkpt>
      <trkpt lat="49.27378" lon="6.7817">
        <ele>180.4</ele>
        <time>2020-06-26T19:27:11Z</time>
      </trkpt>
      <trkpt lat="49.27379" lon="6.78181">
        <ele>180.5</ele>
        <time>2020-06-26T19:27:12Z</time>
      </trkpt>
      <trkpt lat="49.2738" lon="6.78192">
        <ele>180.5</ele>
        <time>2020-06-26T19:27:13Z</time>
      </trkpt>
      <trkpt lat="49.27381" lon="6.78203">
        <ele>180.6</ele>
        <time>2020-06-26T19:27:14Z</time>
      </trkpt>
      <trkpt lat="49.27382" lon="6.78213">
        <ele>180.6</ele>
        <time>2020-06-26T19:27:15Z</time>
      </trkpt>
      <trkpt lat="49.27382" lon="6.78223">
        <ele>180.7</ele>
        <time>2020-06-26T19:27:16Z</time>
      </trkpt>
      <trkpt lat="49.27384" lon="6.78233">
        <ele>180.7</ele>
        <time>2020-06-26T19:27:17Z</time>
      </trkpt>
      <trkpt lat="49.27385" lon="6.78243">
        <ele>180.8</ele>
        <time>2020-06-26T19:27:18Z</time>
      </trkpt>
      <trkpt lat="49.27386" lon="6.78253">
        <ele>180.8</ele>
        <time>2020-06-26T19:27:19Z</time>
      </trkpt>
      <trkpt lat="49.27386" lon="6.78263">
        <ele>180.9</ele>
        <time>2020-06-26T19:27:20Z</time>
      </trkpt>
      <trkpt lat="49.27387" lon="6.78272">
        <ele>181</ele>
        <time>2020-06-26T19:27:21Z</time>
      </trkpt>
      <trkpt lat="49.27387" lon="6.78282">
        <ele>181</ele>
        <time>2020-06-26T19:27:22Z</time>
      </trkpt>
      <trkpt lat="49.27387" lon="6.78292">
        <ele>181.1</ele>
        <time>2020-06-26T19:27:23Z</time>
      </trkpt>
      <trkpt lat="49.27387" lon="6.78303">
        <ele>181.2</ele>
        <time>2020-06-26T19:27:24Z</time>
      </trkpt>
      <trkpt lat="49.27385" lon="6.78314">
        <ele>181.2</ele>
        <time>2020-06-26T19:27:25Z</time>
      </trkpt>
      <trkpt lat="49.27384" lon="6.78324">
        <ele>181.2</ele>
        <time>2020-06-26T19:27:26Z</time>
      </trkpt>
      <trkpt lat="49.27384" lon="6.78334">
        <ele>181.2</ele>
        <time>2020-06-26T19:27:27Z</time>
      </trkpt>
      <trkpt lat="49.27383" lon="6.78344">
        <ele>181.2</ele>
        <time>2020-06-26T19:27:28Z</time>
      </trkpt>
      <trkpt lat="49.27383" lon="6.78354">
        <ele>181.2</ele>
        <time>2020-06-26T19:27:29Z</time>
      </trkpt>
      <trkpt lat="49.27383" lon="6.78365">
        <ele>181.1</ele>
        <time>2020-06-26T19:27:30Z</time>
      </trkpt>
      <trkpt lat="49.27382" lon="6.78375">
        <ele>181.1</ele>
        <time>2020-06-26T19:27:31Z</time>
      </trkpt>
      <trkpt lat="49.27382" lon="6.78386">
        <ele>181</ele>
        <time>2020-06-26T19:27:32Z</time>
      </trkpt>
      <trkpt lat="49.27382" lon="6.78396">
        <ele>181</ele>
        <time>2020-06-26T19:27:33Z</time>
      </trkpt>
      <trkpt lat="49.27382" lon="6.78407">
        <ele>180.9</ele>
        <time>2020-06-26T19:27:34Z</time>
      </trkpt>
      <trkpt lat="49.27381" lon="6.78417">
        <ele>180.9</ele>
        <time>2020-06-26T19:27:35Z</time>
      </trkpt>
      <trkpt lat="49.27381" lon="6.78428">
        <ele>180.9</ele>
        <time>2020-06-26T19:27:36Z</time>
      </trkpt>
      <trkpt lat="49.27381" lon="6.7844">
        <ele>180.9</ele>
        <time>2020-06-26T19:27:37Z</time>
      </trkpt>
      <trkpt lat="49.2738" lon="6.78452">
        <ele>180.8</ele>
        <time>2020-06-26T19:27:38Z</time>
      </trkpt>
      <trkpt lat="49.27379" lon="6.78466">
        <ele>180.9</ele>
        <time>2020-06-26T19:27:39Z</time>
      </trkpt>
      <trkpt lat="49.27377" lon="6.78478">
        <ele>181</ele>
        <time>2020-06-26T19:27:40Z</time>
      </trkpt>
      <trkpt lat="49.27375" lon="6.78488">
        <ele>181.1</ele>
        <time>2020-06-26T19:27:41Z</time>
      </trkpt>
      <trkpt lat="49.27374" lon="6.78498">
        <ele>181.2</ele>
        <time>2020-06-26T19:27:42Z</time>
      </trkpt>
      <trkpt lat="49.27372" lon="6.78507">
        <ele>181.2</ele>
        <time>2020-06-26T19:27:43Z</time>
      </trkpt>
      <trkpt lat="49.2737" lon="6.78516">
        <ele>181.3</ele>
        <time>2020-06-26T19:27:44Z</time>
      </trkpt>
      <trkpt lat="49.27369" lon="6.78524">
        <ele>181.3</ele>
        <time>2020-06-26T19:27:45Z</time>
      </trkpt>
      <trkpt lat="49.27368" lon="6.78532">
        <ele>181.2</ele>
        <time>2020-06-26T19:27:46Z</time>
      </trkpt>
      <trkpt lat="49.27367" lon="6.7854">
        <ele>181.2</ele>
        <time>2020-06-26T19:27:47Z</time>
      </trkpt>
      <trkpt lat="49.27366" lon="6.78548">
        <ele>181.1</ele>
        <time>2020-06-26T19:27:48Z</time>
      </trkpt>
      <trkpt lat="49.27366" lon="6.78557">
        <ele>181</ele>
        <time>2020-06-26T19:27:49Z</time>
      </trkpt>
      <trkpt lat="49.27367" lon="6.78566">
        <ele>180.8</ele>
        <time>2020-06-26T19:27:50Z</time>
      </trkpt>
      <trkpt lat="49.27368" lon="6.78576">
        <ele>180.7</ele>
        <time>2020-06-26T19:27:51Z</time>
      </trkpt>
      <trkpt lat="49.2737" lon="6.78585">
        <ele>180.6</ele>
        <time>2020-06-26T19:27:52Z</time>
      </trkpt>
      <trkpt lat="49.27371" lon="6.78594">
        <ele>180.5</ele>
        <time>2020-06-26T19:27:53Z</time>
      </trkpt>
      <trkpt lat="49.27371" lon="6.78603">
        <ele>180.5</ele>
        <time>2020-06-26T19:27:54Z</time>
      </trkpt>
      <trkpt lat="49.27372" lon="6.78615">
        <ele>180.4</ele>
        <time>2020-06-26T19:27:55Z</time>
      </trkpt>
      <trkpt lat="49.27373" lon="6.78627">
        <ele>180.4</ele>
        <time>2020-06-26T19:27:56Z</time>
      </trkpt>
      <trkpt lat="49.27373" lon="6.78637">
        <ele>180.4</ele>
        <time>2020-06-26T19:27:57Z</time>
      </trkpt>
      <trkpt lat="49.27372" lon="6.78648">
        <ele>180.4</ele>
        <time>2020-06-26T19:27:58Z</time>
      </trkpt>
      <trkpt lat="49.27372" lon="6.78656">
        <ele>180.4</ele>
        <time>2020-06-26T19:27:59Z</time>
      </trkpt>
      <trkpt lat="49.27371" lon="6.78665">
        <ele>180.4</ele>
        <time>2020-06-26T19:28:00Z</time>
      </trkpt>
      <trkpt lat="49.27371" lon="6.78673">
        <ele>180.4</ele>
        <time>2020-06-26T19:28:01Z</time>
      </trkpt>
      <trkpt lat="49.2737" lon="6.78681">
        <ele>180.5</ele>
        <time>2020-06-26T19:28:02Z</time>
      </trkpt>
      <trkpt lat="49.2737" lon="6.7869">
        <ele>180.5</ele>
        <time>2020-06-26T19:28:03Z</time>
      </trkpt>
      <trkpt lat="49.2737" lon="6.78699">
        <ele>180.5</ele>
        <time>2020-06-26T19:28:04Z</time>
      </trkpt>
      <trkpt lat="49.2737" lon="6.78706">
        <ele>180.6</ele>
        <time>2020-06-26T19:28:05Z</time>
      </trkpt>
      <trkpt lat="49.2737" lon="6.78712">
        <ele>180.6</ele>
        <time>2020-06-26T19:28:06Z</time>
      </trkpt>
      <trkpt lat="49.2737" lon="6.78719">
        <ele>180.6</ele>
        <time>2020-06-26T19:28:07Z</time>
      </trkpt>
      <trkpt lat="49.27369" lon="6.78726">
        <ele>180.7</ele>
        <time>2020-06-26T19:28:08Z</time>
      </trkpt>
      <trkpt lat="49.27369" lon="6.78733">
        <ele>180.7</ele>
        <time>2020-06-26T19:28:09Z</time>
      </trkpt>
      <trkpt lat="49.27368" lon="6.78742">
        <ele>180.8</ele>
        <time>2020-06-26T19:28:10Z</time>
      </trkpt>
      <trkpt lat="49.27367" lon="6.7875">
        <ele>180.8</ele>
        <time>2020-06-26T19:28:11Z</time>
      </trkpt>
      <trkpt lat="49.27367" lon="6.78758">
        <ele>180.9</ele>
        <time>2020-06-26T19:28:12Z</time>
      </trkpt>
      <trkpt lat="49.27366" lon="6.78767">
        <ele>180.9</ele>
        <time>2020-06-26T19:28:13Z</time>
      </trkpt>
      <trkpt lat="49.27365" lon="6.78775">
        <ele>181</ele>
        <time>2020-06-26T19:28:14Z</time>
      </trkpt>
      <trkpt lat="49.27365" lon="6.78782">
        <ele>181</ele>
        <time>2020-06-26T19:28:15Z</time>
      </trkpt>
      <trkpt lat="49.27365" lon="6.7879">
        <ele>181</ele>
        <time>2020-06-26T19:28:16Z</time>
      </trkpt>
      <trkpt lat="49.27364" lon="6.78797">
        <ele>181</ele>
        <time>2020-06-26T19:28:17Z</time>
      </trkpt>
      <trkpt lat="49.27363" lon="6.78805">
        <ele>181</ele>
        <time>2020-06-26T19:28:18Z</time>
      </trkpt>
      <trkpt lat="49.27362" lon="6.78813">
        <ele>181</ele>
        <time>2020-06-26T19:28:19Z</time>
      </trkpt>
      <trkpt lat="49.27362" lon="6.78822">
        <ele>180.9</ele>
        <time>2020-06-26T19:28:20Z</time>
      </trkpt>
      <trkpt lat="49.27362" lon="6.78831">
        <ele>180.9</ele>
        <time>2020-06-26T19:28:21Z</time>
      </trkpt>
      <trkpt lat="49.27361" lon="6.78839">
        <ele>180.9</ele>
        <time>2020-06-26T19:28:22Z</time>
      </trkpt>
      <trkpt lat="49.27361" lon="6.78848">
        <ele>180.8</ele>
        <time>2020-06-26T19:28:23Z</time>
      </trkpt>
      <trkpt lat="49.27361" lon="6.78858">
        <ele>180.8</ele>
        <time>2020-06-26T19:28:24Z</time>
      </trkpt>
      <trkpt lat="49.2736" lon="6.78865">
        <ele>180.8</ele>
        <time>2020-06-26T19:28:25Z</time>
      </trkpt>
      <trkpt lat="49.2736" lon="6.78875">
        <ele>180.8</ele>
        <time>2020-06-26T19:28:26Z</time>
      </trkpt>
      <trkpt lat="49.2736" lon="6.78881">
        <ele>180.8</ele>
        <time>2020-06-26T19:28:27Z</time>
      </trkpt>
      <trkpt lat="49.2736" lon="6.78888">
        <ele>180.7</ele>
        <time>2020-06-26T19:28:28Z</time>
      </trkpt>
      <trkpt lat="49.2736" lon="6.78897">
        <ele>180.7</ele>
        <time>2020-06-26T19:28:29Z</time>
      </trkpt>
      <trkpt lat="49.2736" lon="6.78907">
        <ele>180.7</ele>
        <time>2020-06-26T19:28:30Z</time>
      </trkpt>
      <trkpt lat="49.27359" lon="6.78917">
        <ele>180.7</ele>
        <time>2020-06-26T19:28:31Z</time>
      </trkpt>
      <trkpt lat="49.27358" lon="6.78926">
        <ele>180.7</ele>
        <time>2020-06-26T19:28:32Z</time>
      </trkpt>
      <trkpt lat="49.27358" lon="6.78936">
        <ele>180.7</ele>
        <time>2020-06-26T19:28:33Z</time>
      </trkpt>
      <trkpt lat="49.27357" lon="6.78945">
        <ele>180.7</ele>
        <time>2020-06-26T19:28:34Z</time>
      </trkpt>
      <trkpt lat="49.27357" lon="6.78956">
        <ele>180.7</ele>
        <time>2020-06-26T19:28:35Z</time>
      </trkpt>
      <trkpt lat="49.27356" lon="6.78966">
        <ele>180.7</ele>
        <time>2020-06-26T19:28:36Z</time>
      </trkpt>
      <trkpt lat="49.27355" lon="6.78975">
        <ele>180.6</ele>
        <time>2020-06-26T19:28:37Z</time>
      </trkpt>
      <trkpt lat="49.27355" lon="6.78983">
        <ele>180.6</ele>
        <time>2020-06-26T19:28:38Z</time>
      </trkpt>
      <trkpt lat="49.27353" lon="6.78992">
        <ele>180.5</ele>
        <time>2020-06-26T19:28:39Z</time>
      </trkpt>
      <trkpt lat="49.27353" lon="6.78999">
        <ele>180.4</ele>
        <time>2020-06-26T19:28:40Z</time>
      </trkpt>
      <trkpt lat="49.27352" lon="6.79007">
        <ele>180.3</ele>
        <time>2020-06-26T19:28:41Z</time>
      </trkpt>
      <trkpt lat="49.27352" lon="6.79014">
        <ele>180.3</ele>
        <time>2020-06-26T19:28:42Z</time>
      </trkpt>
      <trkpt lat="49.27352" lon="6.79023">
        <ele>180.2</ele>
        <time>2020-06-26T19:28:43Z</time>
      </trkpt>
      <trkpt lat="49.27352" lon="6.79032">
        <ele>180.1</ele>
        <time>2020-06-26T19:28:44Z</time>
      </trkpt>
      <trkpt lat="49.27351" lon="6.79041">
        <ele>180</ele>
        <time>2020-06-26T19:28:45Z</time>
      </trkpt>
      <trkpt lat="49.2735" lon="6.79048">
        <ele>179.9</ele>
        <time>2020-06-26T19:28:46Z</time>
      </trkpt>
      <trkpt lat="49.27348" lon="6.79056">
        <ele>179.9</ele>
        <time>2020-06-26T19:28:47Z</time>
      </trkpt>
      <trkpt lat="49.27346" lon="6.79063">
        <ele>179.9</ele>
        <time>2020-06-26T19:28:48Z</time>
      </trkpt>
      <trkpt lat="49.27343" lon="6.79071">
        <ele>179.9</ele>
        <time>2020-06-26T19:28:49Z</time>
      </trkpt>
      <trkpt lat="49.27341" lon="6.79079">
        <ele>179.9</ele>
        <time>2020-06-26T19:28:50Z</time>
      </trkpt>
      <trkpt lat="49.27338" lon="6.79087">
        <ele>179.9</ele>
        <time>2020-06-26T19:28:51Z</time>
      </trkpt>
      <trkpt lat="49.27336" lon="6.79096">
        <ele>179.9</ele>
        <time>2020-06-26T19:28:52Z</time>
      </trkpt>
      <trkpt lat="49.27333" lon="6.79104">
        <ele>179.9</ele>
        <time>2020-06-26T19:28:53Z</time>
      </trkpt>
      <trkpt lat="49.2733" lon="6.79112">
        <ele>179.9</ele>
        <time>2020-06-26T19:28:54Z</time>
      </trkpt>
      <trkpt lat="49.27328" lon="6.7912">
        <ele>179.8</ele>
        <time>2020-06-26T19:28:55Z</time>
      </trkpt>
      <trkpt lat="49.27326" lon="6.79127">
        <ele>179.8</ele>
        <time>2020-06-26T19:28:56Z</time>
      </trkpt>
      <trkpt lat="49.27324" lon="6.79134">
        <ele>179.8</ele>
        <time>2020-06-26T19:28:57Z</time>
      </trkpt>
      <trkpt lat="49.27323" lon="6.79142">
        <ele>179.8</ele>
        <time>2020-06-26T19:28:58Z</time>
      </trkpt>
      <trkpt lat="49.27322" lon="6.79151">
        <ele>179.8</ele>
        <time>2020-06-26T19:28:59Z</time>
      </trkpt>
      <trkpt lat="49.27321" lon="6.7916">
        <ele>179.8</ele>
        <time>2020-06-26T19:29:00Z</time>
      </trkpt>
      <trkpt lat="49.27321" lon="6.7917">
        <ele>179.8</ele>
        <time>2020-06-26T19:29:01Z</time>
      </trkpt>
      <trkpt lat="49.27321" lon="6.79182">
        <ele>179.8</ele>
        <time>2020-06-26T19:29:02Z</time>
      </trkpt>
      <trkpt lat="49.2732" lon="6.79192">
        <ele>179.8</ele>
        <time>2020-06-26T19:29:03Z</time>
      </trkpt>
      <trkpt lat="49.27319" lon="6.792">
        <ele>179.8</ele>
        <time>2020-06-26T19:29:04Z</time>
      </trkpt>
      <trkpt lat="49.27318" lon="6.7921">
        <ele>179.7</ele>
        <time>2020-06-26T19:29:05Z</time>
      </trkpt>
      <trkpt lat="49.27317" lon="6.79218">
        <ele>179.7</ele>
        <time>2020-06-26T19:29:06Z</time>
      </trkpt>
      <trkpt lat="49.27315" lon="6.79227">
        <ele>179.7</ele>
        <time>2020-06-26T19:29:07Z</time>
      </trkpt>
      <trkpt lat="49.27314" lon="6.79235">
        <ele>179.7</ele>
        <time>2020-06-26T19:29:08Z</time>
      </trkpt>
      <trkpt lat="49.27312" lon="6.79243">
        <ele>179.7</ele>
        <time>2020-06-26T19:29:09Z</time>
      </trkpt>
      <trkpt lat="49.27311" lon="6.7925">
        <ele>179.7</ele>
        <time>2020-06-26T19:29:10Z</time>
      </trkpt>
      <trkpt lat="49.27311" lon="6.79257">
        <ele>179.7</ele>
        <time>2020-06-26T19:29:11Z</time>
      </trkpt>
      <trkpt lat="49.27311" lon="6.79264">
        <ele>179.8</ele>
        <time>2020-06-26T19:29:12Z</time>
      </trkpt>
      <trkpt lat="49.27311" lon="6.79269">
        <ele>179.8</ele>
        <time>2020-06-26T19:29:13Z</time>
      </trkpt>
      <trkpt lat="49.27311" lon="6.79276">
        <ele>179.8</ele>
        <time>2020-06-26T19:29:14Z</time>
      </trkpt>
      <trkpt lat="49.2731" lon="6.79284">
        <ele>179.9</ele>
        <time>2020-06-26T19:29:15Z</time>
      </trkpt>
      <trkpt lat="49.27309" lon="6.79292">
        <ele>179.9</ele>
        <time>2020-06-26T19:29:16Z</time>
      </trkpt>
      <trkpt lat="49.27308" lon="6.79301">
        <ele>180</ele>
        <time>2020-06-26T19:29:17Z</time>
      </trkpt>
      <trkpt lat="49.27308" lon="6.79308">
        <ele>180.1</ele>
        <time>2020-06-26T19:29:18Z</time>
      </trkpt>
      <trkpt lat="49.27307" lon="6.79312">
        <ele>180.1</ele>
        <time>2020-06-26T19:29:19Z</time>
      </trkpt>
      <trkpt lat="49.27307" lon="6.79318">
        <ele>180.2</ele>
        <time>2020-06-26T19:29:20Z</time>
      </trkpt>
      <trkpt lat="49.27306" lon="6.79323">
        <ele>180.2</ele>
        <time>2020-06-26T19:29:21Z</time>
      </trkpt>
      <trkpt lat="49.27305" lon="6.7933">
        <ele>180.3</ele>
        <time>2020-06-26T19:29:22Z</time>
      </trkpt>
      <trkpt lat="49.27304" lon="6.79335">
        <ele>180.3</ele>
        <time>2020-06-26T19:29:23Z</time>
      </trkpt>
      <trkpt lat="49.27303" lon="6.79339">
        <ele>180.3</ele>
        <time>2020-06-26T19:29:24Z</time>
      </trkpt>
      <trkpt lat="49.27298" lon="6.79339">
        <ele>180.3</ele>
        <time>2020-06-26T19:29:25Z</time>
      </trkpt>
      <trkpt lat="49.27293" lon="6.79337">
        <ele>180.7</ele>
        <time>2020-06-26T19:29:26Z</time>
      </trkpt>
      <trkpt lat="49.27289" lon="6.79334">
        <ele>180.8</ele>
        <time>2020-06-26T19:29:27Z</time>
      </trkpt>
      <trkpt lat="49.27284" lon="6.79332">
        <ele>181</ele>
        <time>2020-06-26T19:29:28Z</time>
      </trkpt>
      <trkpt lat="49.27281" lon="6.7933">
        <ele>181.2</ele>
        <time>2020-06-26T19:29:29Z</time>
      </trkpt>
      <trkpt lat="49.27277" lon="6.79327">
        <ele>181.4</ele>
        <time>2020-06-26T19:29:30Z</time>
      </trkpt>
      <trkpt lat="49.27274" lon="6.79326">
        <ele>181.5</ele>
        <time>2020-06-26T19:29:31Z</time>
      </trkpt>
      <trkpt lat="49.27271" lon="6.79325">
        <ele>181.7</ele>
        <time>2020-06-26T19:29:32Z</time>
      </trkpt>
      <trkpt lat="49.27267" lon="6.79324">
        <ele>181.9</ele>
        <time>2020-06-26T19:29:33Z</time>
      </trkpt>
      <trkpt lat="49.27263" lon="6.79322">
        <ele>182.1</ele>
        <time>2020-06-26T19:29:34Z</time>
      </trkpt>
      <trkpt lat="49.2726" lon="6.79321">
        <ele>182.4</ele>
        <time>2020-06-26T19:29:35Z</time>
      </trkpt>
      <trkpt lat="49.27256" lon="6.7932">
        <ele>182.7</ele>
        <time>2020-06-26T19:29:36Z</time>
      </trkpt>
      <trkpt lat="49.27251" lon="6.79319">
        <ele>183</ele>
        <time>2020-06-26T19:29:37Z</time>
      </trkpt>
      <trkpt lat="49.27245" lon="6.7932">
        <ele>183.4</ele>
        <time>2020-06-26T19:29:38Z</time>
      </trkpt>
      <trkpt lat="49.27241" lon="6.7932">
        <ele>183.6</ele>
        <time>2020-06-26T19:29:39Z</time>
      </trkpt>
      <trkpt lat="49.27238" lon="6.79319">
        <ele>183.9</ele>
        <time>2020-06-26T19:29:40Z</time>
      </trkpt>
      <trkpt lat="49.27235" lon="6.79318">
        <ele>184.1</ele>
        <time>2020-06-26T19:29:41Z</time>
      </trkpt>
      <trkpt lat="49.27233" lon="6.79315">
        <ele>184.3</ele>
        <time>2020-06-26T19:29:42Z</time>
      </trkpt>
      <trkpt lat="49.27229" lon="6.79313">
        <ele>184.7</ele>
        <time>2020-06-26T19:29:43Z</time>
      </trkpt>
      <trkpt lat="49.27226" lon="6.79311">
        <ele>184.9</ele>
        <time>2020-06-26T19:29:44Z</time>
      </trkpt>
      <trkpt lat="49.27223" lon="6.7931">
        <ele>185.1</ele>
        <time>2020-06-26T19:29:45Z</time>
      </trkpt>
      <trkpt lat="49.2722" lon="6.79308">
        <ele>185.3</ele>
        <time>2020-06-26T19:29:46Z</time>
      </trkpt>
      <trkpt lat="49.27217" lon="6.79308">
        <ele>185.5</ele>
        <time>2020-06-26T19:29:47Z</time>
      </trkpt>
      <trkpt lat="49.27214" lon="6.79307">
        <ele>185.7</ele>
        <time>2020-06-26T19:29:48Z</time>
      </trkpt>
      <trkpt lat="49.2721" lon="6.79307">
        <ele>185.9</ele>
        <time>2020-06-26T19:29:49Z</time>
      </trkpt>
      <trkpt lat="49.27207" lon="6.79306">
        <ele>186.1</ele>
        <time>2020-06-26T19:29:50Z</time>
      </trkpt>
      <trkpt lat="49.27204" lon="6.79305">
        <ele>186</ele>
        <time>2020-06-26T19:29:51Z</time>
      </trkpt>
      <trkpt lat="49.272" lon="6.79305">
        <ele>185.9</ele>
        <time>2020-06-26T19:29:52Z</time>
      </trkpt>
      <trkpt lat="49.27196" lon="6.79304">
        <ele>185.8</ele>
        <time>2020-06-26T19:29:53Z</time>
      </trkpt>
      <trkpt lat="49.27193" lon="6.79302">
        <ele>185.7</ele>
        <time>2020-06-26T19:29:54Z</time>
      </trkpt>
      <trkpt lat="49.2719" lon="6.793">
        <ele>185.6</ele>
        <time>2020-06-26T19:29:55Z</time>
      </trkpt>
      <trkpt lat="49.27186" lon="6.79297">
        <ele>185.5</ele>
        <time>2020-06-26T19:29:56Z</time>
      </trkpt>
      <trkpt lat="49.27183" lon="6.79294">
        <ele>185.4</ele>
        <time>2020-06-26T19:29:57Z</time>
      </trkpt>
      <trkpt lat="49.2718" lon="6.79291">
        <ele>185.3</ele>
        <time>2020-06-26T19:29:58Z</time>
      </trkpt>
      <trkpt lat="49.27176" lon="6.79289">
        <ele>185.2</ele>
        <time>2020-06-26T19:29:59Z</time>
      </trkpt>
      <trkpt lat="49.27173" lon="6.79286">
        <ele>185.1</ele>
        <time>2020-06-26T19:30:00Z</time>
      </trkpt>
      <trkpt lat="49.27169" lon="6.79281">
        <ele>185</ele>
        <time>2020-06-26T19:30:01Z</time>
      </trkpt>
      <trkpt lat="49.27163" lon="6.79276">
        <ele>184.9</ele>
        <time>2020-06-26T19:30:02Z</time>
      </trkpt>
      <trkpt lat="49.27159" lon="6.79273">
        <ele>184.8</ele>
        <time>2020-06-26T19:30:03Z</time>
      </trkpt>
      <trkpt lat="49.27154" lon="6.7927">
        <ele>184.8</ele>
        <time>2020-06-26T19:30:04Z</time>
      </trkpt>
      <trkpt lat="49.2715" lon="6.79267">
        <ele>184.7</ele>
        <time>2020-06-26T19:30:05Z</time>
      </trkpt>
      <trkpt lat="49.27146" lon="6.79265">
        <ele>184.7</ele>
        <time>2020-06-26T19:30:06Z</time>
      </trkpt>
      <trkpt lat="49.27141" lon="6.79261">
        <ele>184.7</ele>
        <time>2020-06-26T19:30:07Z</time>
      </trkpt>
      <trkpt lat="49.27136" lon="6.79258">
        <ele>184.7</ele>
        <time>2020-06-26T19:30:08Z</time>
      </trkpt>
      <trkpt lat="49.27131" lon="6.79255">
        <ele>184.7</ele>
        <time>2020-06-26T19:30:09Z</time>
      </trkpt>
      <trkpt lat="49.27126" lon="6.79251">
        <ele>184.7</ele>
        <time>2020-06-26T19:30:10Z</time>
      </trkpt>
      <trkpt lat="49.27121" lon="6.79248">
        <ele>184.8</ele>
        <time>2020-06-26T19:30:11Z</time>
      </trkpt>
      <trkpt lat="49.27115" lon="6.79245">
        <ele>184.8</ele>
        <time>2020-06-26T19:30:12Z</time>
      </trkpt>
      <trkpt lat="49.27109" lon="6.79244">
        <ele>184.9</ele>
        <time>2020-06-26T19:30:13Z</time>
      </trkpt>
      <trkpt lat="49.27105" lon="6.79242">
        <ele>184.9</ele>
        <time>2020-06-26T19:30:14Z</time>
      </trkpt>
      <trkpt lat="49.271" lon="6.79242">
        <ele>185</ele>
        <time>2020-06-26T19:30:15Z</time>
      </trkpt>
      <trkpt lat="49.27095" lon="6.79244">
        <ele>185</ele>
        <time>2020-06-26T19:30:16Z</time>
      </trkpt>
      <trkpt lat="49.27091" lon="6.79243">
        <ele>185</ele>
        <time>2020-06-26T19:30:17Z</time>
      </trkpt>
      <trkpt lat="49.27087" lon="6.79243">
        <ele>185</ele>
        <time>2020-06-26T19:30:18Z</time>
      </trkpt>
      <trkpt lat="49.27083" lon="6.79241">
        <ele>185</ele>
        <time>2020-06-26T19:30:19Z</time>
      </trkpt>
      <trkpt lat="49.27078" lon="6.79239">
        <ele>185.1</ele>
        <time>2020-06-26T19:30:20Z</time>
      </trkpt>
      <trkpt lat="49.27074" lon="6.79237">
        <ele>185.1</ele>
        <time>2020-06-26T19:30:21Z</time>
      </trkpt>
      <trkpt lat="49.2707" lon="6.79237">
        <ele>185.1</ele>
        <time>2020-06-26T19:30:22Z</time>
      </trkpt>
      <trkpt lat="49.27065" lon="6.79235">
        <ele>185.1</ele>
        <time>2020-06-26T19:30:23Z</time>
      </trkpt>
      <trkpt lat="49.2706" lon="6.79233">
        <ele>185.1</ele>
        <time>2020-06-26T19:30:24Z</time>
      </trkpt>
      <trkpt lat="49.27054" lon="6.7923">
        <ele>185.2</ele>
        <time>2020-06-26T19:30:25Z</time>
      </trkpt>
      <trkpt lat="49.27048" lon="6.79228">
        <ele>185.2</ele>
        <time>2020-06-26T19:30:26Z</time>
      </trkpt>
      <trkpt lat="49.27043" lon="6.79227">
        <ele>185.3</ele>
        <time>2020-06-26T19:30:27Z</time>
      </trkpt>
      <trkpt lat="49.27037" lon="6.79227">
        <ele>185.4</ele>
        <time>2020-06-26T19:30:28Z</time>
      </trkpt>
      <trkpt lat="49.27031" lon="6.79225">
        <ele>185.5</ele>
        <time>2020-06-26T19:30:29Z</time>
      </trkpt>
      <trkpt lat="49.27026" lon="6.79223">
        <ele>185.6</ele>
        <time>2020-06-26T19:30:30Z</time>
      </trkpt>
      <trkpt lat="49.27021" lon="6.79222">
        <ele>185.7</ele>
        <time>2020-06-26T19:30:31Z</time>
      </trkpt>
      <trkpt lat="49.27015" lon="6.7922">
        <ele>185.8</ele>
        <time>2020-06-26T19:30:32Z</time>
      </trkpt>
      <trkpt lat="49.27009" lon="6.79218">
        <ele>185.9</ele>
        <time>2020-06-26T19:30:33Z</time>
      </trkpt>
      <trkpt lat="49.27003" lon="6.79216">
        <ele>186</ele>
        <time>2020-06-26T19:30:34Z</time>
      </trkpt>
      <trkpt lat="49.26997" lon="6.79215">
        <ele>186.1</ele>
        <time>2020-06-26T19:30:35Z</time>
      </trkpt>
      <trkpt lat="49.26992" lon="6.79212">
        <ele>186.2</ele>
        <time>2020-06-26T19:30:36Z</time>
      </trkpt>
      <trkpt lat="49.26986" lon="6.7921">
        <ele>186.3</ele>
        <time>2020-06-26T19:30:37Z</time>
      </trkpt>
      <trkpt lat="49.2698" lon="6.79206">
        <ele>186.3</ele>
        <time>2020-06-26T19:30:38Z</time>
      </trkpt>
      <trkpt lat="49.26975" lon="6.79203">
        <ele>186.3</ele>
        <time>2020-06-26T19:30:39Z</time>
      </trkpt>
      <trkpt lat="49.26969" lon="6.79201">
        <ele>186.3</ele>
        <time>2020-06-26T19:30:40Z</time>
      </trkpt>
      <trkpt lat="49.26964" lon="6.79199">
        <ele>186.3</ele>
        <time>2020-06-26T19:30:41Z</time>
      </trkpt>
      <trkpt lat="49.26958" lon="6.79196">
        <ele>186.3</ele>
        <time>2020-06-26T19:30:42Z</time>
      </trkpt>
      <trkpt lat="49.26953" lon="6.79194">
        <ele>186.4</ele>
        <time>2020-06-26T19:30:43Z</time>
      </trkpt>
      <trkpt lat="49.26947" lon="6.79192">
        <ele>186.4</ele>
        <time>2020-06-26T19:30:44Z</time>
      </trkpt>
      <trkpt lat="49.26942" lon="6.7919">
        <ele>186.5</ele>
        <time>2020-06-26T19:30:45Z</time>
      </trkpt>
      <trkpt lat="49.26936" lon="6.79187">
        <ele>186.6</ele>
        <time>2020-06-26T19:30:46Z</time>
      </trkpt>
      <trkpt lat="49.26932" lon="6.79184">
        <ele>186.6</ele>
        <time>2020-06-26T19:30:47Z</time>
      </trkpt>
      <trkpt lat="49.26927" lon="6.79181">
        <ele>186.7</ele>
        <time>2020-06-26T19:30:48Z</time>
      </trkpt>
      <trkpt lat="49.26922" lon="6.79177">
        <ele>186.8</ele>
        <time>2020-06-26T19:30:49Z</time>
      </trkpt>
      <trkpt lat="49.26917" lon="6.79173">
        <ele>186.8</ele>
        <time>2020-06-26T19:30:50Z</time>
      </trkpt>
      <trkpt lat="49.26912" lon="6.79172">
        <ele>186.9</ele>
        <time>2020-06-26T19:30:51Z</time>
      </trkpt>
      <trkpt lat="49.26908" lon="6.7917">
        <ele>186.9</ele>
        <time>2020-06-26T19:30:52Z</time>
      </trkpt>
      <trkpt lat="49.26903" lon="6.79168">
        <ele>187</ele>
        <time>2020-06-26T19:30:53Z</time>
      </trkpt>
      <trkpt lat="49.26899" lon="6.79165">
        <ele>187.1</ele>
        <time>2020-06-26T19:30:54Z</time>
      </trkpt>
      <trkpt lat="49.26894" lon="6.79162">
        <ele>187.2</ele>
        <time>2020-06-26T19:30:55Z</time>
      </trkpt>
      <trkpt lat="49.2689" lon="6.7916">
        <ele>187.3</ele>
        <time>2020-06-26T19:30:56Z</time>
      </trkpt>
      <trkpt lat="49.26884" lon="6.79157">
        <ele>187.4</ele>
        <time>2020-06-26T19:30:57Z</time>
      </trkpt>
      <trkpt lat="49.2688" lon="6.79152">
        <ele>187.5</ele>
        <time>2020-06-26T19:30:58Z</time>
      </trkpt>
      <trkpt lat="49.26875" lon="6.79149">
        <ele>187.7</ele>
        <time>2020-06-26T19:30:59Z</time>
      </trkpt>
      <trkpt lat="49.2687" lon="6.79146">
        <ele>187.9</ele>
        <time>2020-06-26T19:31:00Z</time>
      </trkpt>
      <trkpt lat="49.26865" lon="6.79143">
        <ele>188</ele>
        <time>2020-06-26T19:31:01Z</time>
      </trkpt>
      <trkpt lat="49.26859" lon="6.7914">
        <ele>188.2</ele>
        <time>2020-06-26T19:31:02Z</time>
      </trkpt>
      <trkpt lat="49.26854" lon="6.79137">
        <ele>188.4</ele>
        <time>2020-06-26T19:31:03Z</time>
      </trkpt>
      <trkpt lat="49.26848" lon="6.79136">
        <ele>188.5</ele>
        <time>2020-06-26T19:31:04Z</time>
      </trkpt>
      <trkpt lat="49.26844" lon="6.79134">
        <ele>188.6</ele>
        <time>2020-06-26T19:31:05Z</time>
      </trkpt>
      <trkpt lat="49.2684" lon="6.79132">
        <ele>189</ele>
        <time>2020-06-26T19:31:06Z</time>
      </trkpt>
      <trkpt lat="49.26836" lon="6.79131">
        <ele>189.2</ele>
        <time>2020-06-26T19:31:07Z</time>
      </trkpt>
      <trkpt lat="49.26832" lon="6.7913">
        <ele>189.5</ele>
        <time>2020-06-26T19:31:08Z</time>
      </trkpt>
      <trkpt lat="49.26828" lon="6.79127">
        <ele>189.7</ele>
        <time>2020-06-26T19:31:09Z</time>
      </trkpt>
      <trkpt lat="49.26825" lon="6.79125">
        <ele>190</ele>
        <time>2020-06-26T19:31:10Z</time>
      </trkpt>
      <trkpt lat="49.26821" lon="6.79122">
        <ele>190.2</ele>
        <time>2020-06-26T19:31:11Z</time>
      </trkpt>
      <trkpt lat="49.26818" lon="6.79119">
        <ele>190.5</ele>
        <time>2020-06-26T19:31:12Z</time>
      </trkpt>
      <trkpt lat="49.26816" lon="6.79116">
        <ele>190.7</ele>
        <time>2020-06-26T19:31:13Z</time>
      </trkpt>
      <trkpt lat="49.26813" lon="6.79112">
        <ele>191</ele>
        <time>2020-06-26T19:31:14Z</time>
      </trkpt>
      <trkpt lat="49.2681" lon="6.79108">
        <ele>191</ele>
        <time>2020-06-26T19:31:15Z</time>
      </trkpt>
      <trkpt lat="49.26808" lon="6.79104">
        <ele>191.1</ele>
        <time>2020-06-26T19:31:16Z</time>
      </trkpt>
      <trkpt lat="49.26806" lon="6.79101">
        <ele>191.1</ele>
        <time>2020-06-26T19:31:17Z</time>
      </trkpt>
      <trkpt lat="49.26803" lon="6.79099">
        <ele>191.1</ele>
        <time>2020-06-26T19:31:18Z</time>
      </trkpt>
      <trkpt lat="49.268" lon="6.79098">
        <ele>191.2</ele>
        <time>2020-06-26T19:31:19Z</time>
      </trkpt>
      <trkpt lat="49.26797" lon="6.791">
        <ele>191.2</ele>
        <time>2020-06-26T19:31:20Z</time>
      </trkpt>
      <trkpt lat="49.26795" lon="6.79104">
        <ele>191.3</ele>
        <time>2020-06-26T19:31:21Z</time>
      </trkpt>
      <trkpt lat="49.26794" lon="6.7911">
        <ele>191.2</ele>
        <time>2020-06-26T19:31:22Z</time>
      </trkpt>
      <trkpt lat="49.26793" lon="6.79116">
        <ele>191.2</ele>
        <time>2020-06-26T19:31:23Z</time>
      </trkpt>
      <trkpt lat="49.26791" lon="6.79122">
        <ele>191.2</ele>
        <time>2020-06-26T19:31:24Z</time>
      </trkpt>
      <trkpt lat="49.2679" lon="6.79129">
        <ele>191.1</ele>
        <time>2020-06-26T19:31:25Z</time>
      </trkpt>
      <trkpt lat="49.26789" lon="6.79136">
        <ele>191</ele>
        <time>2020-06-26T19:31:26Z</time>
      </trkpt>
      <trkpt lat="49.26788" lon="6.79143">
        <ele>191</ele>
        <time>2020-06-26T19:31:27Z</time>
      </trkpt>
      <trkpt lat="49.26787" lon="6.7915">
        <ele>191</ele>
        <time>2020-06-26T19:31:28Z</time>
      </trkpt>
      <trkpt lat="49.26786" lon="6.79156">
        <ele>191.1</ele>
        <time>2020-06-26T19:31:29Z</time>
      </trkpt>
      <trkpt lat="49.26785" lon="6.79161">
        <ele>191.1</ele>
        <time>2020-06-26T19:31:30Z</time>
      </trkpt>
      <trkpt lat="49.26784" lon="6.79166">
        <ele>191.1</ele>
        <time>2020-06-26T19:31:31Z</time>
      </trkpt>
      <trkpt lat="49.26782" lon="6.79171">
        <ele>191.1</ele>
        <time>2020-06-26T19:31:32Z</time>
      </trkpt>
      <trkpt lat="49.26781" lon="6.79177">
        <ele>191.1</ele>
        <time>2020-06-26T19:31:33Z</time>
      </trkpt>
      <trkpt lat="49.2678" lon="6.79183">
        <ele>191.1</ele>
        <time>2020-06-26T19:31:34Z</time>
      </trkpt>
      <trkpt lat="49.26779" lon="6.79189">
        <ele>191</ele>
        <time>2020-06-26T19:31:35Z</time>
      </trkpt>
      <trkpt lat="49.26778" lon="6.79191">
        <ele>191</ele>
        <time>2020-06-26T19:31:36Z</time>
      </trkpt>
      <trkpt lat="49.26778" lon="6.79191">
        <ele>191</ele>
        <time>2020-06-26T19:31:37Z</time>
      </trkpt>
      <trkpt lat="49.26778" lon="6.7919">
        <ele>191</ele>
        <time>2020-06-26T19:31:38Z</time>
      </trkpt>
      <trkpt lat="49.26778" lon="6.7919">
        <ele>191</ele>
        <time>2020-06-26T19:31:39Z</time>
      </trkpt>
      <trkpt lat="49.26776" lon="6.7919">
        <ele>191</ele>
        <time>2020-06-26T19:31:40Z</time>
      </trkpt>
      <trkpt lat="49.26773" lon="6.7919">
        <ele>190.9</ele>
        <time>2020-06-26T19:31:41Z</time>
      </trkpt>
      <trkpt lat="49.2677" lon="6.79191">
        <ele>190.8</ele>
        <time>2020-06-26T19:31:42Z</time>
      </trkpt>
      <trkpt lat="49.26767" lon="6.79193">
        <ele>190.8</ele>
        <time>2020-06-26T19:31:43Z</time>
      </trkpt>
      <trkpt lat="49.26764" lon="6.79196">
        <ele>190.7</ele>
        <time>2020-06-26T19:31:44Z</time>
      </trkpt>
      <trkpt lat="49.26763" lon="6.79196">
        <ele>190.6</ele>
        <time>2020-06-26T19:31:45Z</time>
      </trkpt>
      <trkpt lat="49.26762" lon="6.79197">
        <ele>190.6</ele>
        <time>2020-06-26T19:31:46Z</time>
      </trkpt>
      <trkpt lat="49.2676" lon="6.79198">
        <ele>190.6</ele>
        <time>2020-06-26T19:31:47Z</time>
      </trkpt>
      <trkpt lat="49.26759" lon="6.79198">
        <ele>190.5</ele>
        <time>2020-06-26T19:31:48Z</time>
      </trkpt>
      <trkpt lat="49.26758" lon="6.79199">
        <ele>190.5</ele>
        <time>2020-06-26T19:31:49Z</time>
      </trkpt>
      <trkpt lat="49.26758" lon="6.79199">
        <ele>190.5</ele>
        <time>2020-06-26T19:31:50Z</time>
      </trkpt>
      <trkpt lat="49.26757" lon="6.792">
        <ele>190.5</ele>
        <time>2020-06-26T19:31:51Z</time>
      </trkpt>
      <trkpt lat="49.26756" lon="6.79201">
        <ele>190.5</ele>
        <time>2020-06-26T19:31:52Z</time>
      </trkpt>
      <trkpt lat="49.26756" lon="6.79201">
        <ele>190.5</ele>
        <time>2020-06-26T19:31:53Z</time>
      </trkpt>
      <trkpt lat="49.26755" lon="6.79201">
        <ele>190.5</ele>
        <time>2020-06-26T19:31:54Z</time>
      </trkpt>
      <trkpt lat="49.26754" lon="6.79202">
        <ele>190.4</ele>
        <time>2020-06-26T19:31:55Z</time>
      </trkpt>
      <trkpt lat="49.26753" lon="6.79202">
        <ele>190.4</ele>
        <time>2020-06-26T19:31:56Z</time>
      </trkpt>
      <trkpt lat="49.26753" lon="6.79202">
        <ele>190.4</ele>
        <time>2020-06-26T19:31:57Z</time>
      </trkpt>
      <trkpt lat="49.26752" lon="6.79203">
        <ele>190.4</ele>
        <time>2020-06-26T19:31:58Z</time>
      </trkpt>
      <trkpt lat="49.26751" lon="6.79203">
        <ele>190.4</ele>
        <time>2020-06-26T19:31:59Z</time>
      </trkpt>
      <trkpt lat="49.26751" lon="6.79203">
        <ele>190.4</ele>
        <time>2020-06-26T19:36:10Z</time>
      </trkpt>
      <trkpt lat="49.2675" lon="6.79204">
        <ele>190.4</ele>
        <time>2020-06-26T19:36:11Z</time>
      </trkpt>
      <trkpt lat="49.26746" lon="6.79206">
        <ele>190.3</ele>
        <time>2020-06-26T19:36:12Z</time>
      </trkpt>
      <trkpt lat="49.26743" lon="6.79208">
        <ele>190.3</ele>
        <time>2020-06-26T19:36:13Z</time>
      </trkpt>
      <trkpt lat="49.2674" lon="6.7921">
        <ele>190.3</ele>
        <time>2020-06-26T19:36:14Z</time>
      </trkpt>
      <trkpt lat="49.26738" lon="6.79212">
        <ele>190.3</ele>
        <time>2020-06-26T19:36:15Z</time>
      </trkpt>
      <trkpt lat="49.26735" lon="6.79215">
        <ele>190.2</ele>
        <time>2020-06-26T19:36:16Z</time>
      </trkpt>
      <trkpt lat="49.26732" lon="6.79218">
        <ele>190.2</ele>
        <time>2020-06-26T19:36:17Z</time>
      </trkpt>
      <trkpt lat="49.26729" lon="6.79221">
        <ele>190.2</ele>
        <time>2020-06-26T19:36:18Z</time>
      </trkpt>
      <trkpt lat="49.26726" lon="6.79224">
        <ele>190.3</ele>
        <time>2020-06-26T19:36:19Z</time>
      </trkpt>
      <trkpt lat="49.26722" lon="6.79228">
        <ele>190.3</ele>
        <time>2020-06-26T19:36:20Z</time>
      </trkpt>
      <trkpt lat="49.2672" lon="6.79231">
        <ele>190.3</ele>
        <time>2020-06-26T19:36:21Z</time>
      </trkpt>
      <trkpt lat="49.26716" lon="6.79234">
        <ele>190.4</ele>
        <time>2020-06-26T19:36:22Z</time>
      </trkpt>
      <trkpt lat="49.26713" lon="6.79238">
        <ele>190.4</ele>
        <time>2020-06-26T19:36:23Z</time>
      </trkpt>
      <trkpt lat="49.26709" lon="6.79241">
        <ele>190.4</ele>
        <time>2020-06-26T19:36:24Z</time>
      </trkpt>
      <trkpt lat="49.26705" lon="6.79244">
        <ele>190.5</ele>
        <time>2020-06-26T19:36:25Z</time>
      </trkpt>
      <trkpt lat="49.267" lon="6.79247">
        <ele>190.6</ele>
        <time>2020-06-26T19:36:26Z</time>
      </trkpt>
      <trkpt lat="49.26696" lon="6.7925">
        <ele>190.6</ele>
        <time>2020-06-26T19:36:27Z</time>
      </trkpt>
      <trkpt lat="49.26692" lon="6.79253">
        <ele>190.7</ele>
        <time>2020-06-26T19:36:28Z</time>
      </trkpt>
      <trkpt lat="49.26688" lon="6.79256">
        <ele>190.8</ele>
        <time>2020-06-26T19:36:29Z</time>
      </trkpt>
      <trkpt lat="49.26684" lon="6.79259">
        <ele>190.9</ele>
        <time>2020-06-26T19:36:30Z</time>
      </trkpt>
      <trkpt lat="49.26679" lon="6.79262">
        <ele>191</ele>
        <time>2020-06-26T19:36:31Z</time>
      </trkpt>
      <trkpt lat="49.26675" lon="6.79265">
        <ele>191.1</ele>
        <time>2020-06-26T19:36:32Z</time>
      </trkpt>
      <trkpt lat="49.26671" lon="6.79268">
        <ele>191.2</ele>
        <time>2020-06-26T19:36:33Z</time>
      </trkpt>
      <trkpt lat="49.26667" lon="6.79271">
        <ele>191.2</ele>
        <time>2020-06-26T19:36:34Z</time>
      </trkpt>
      <trkpt lat="49.26663" lon="6.79274">
        <ele>191.4</ele>
        <time>2020-06-26T19:36:35Z</time>
      </trkpt>
      <trkpt lat="49.26659" lon="6.79277">
        <ele>191.5</ele>
        <time>2020-06-26T19:36:36Z</time>
      </trkpt>
      <trkpt lat="49.26656" lon="6.7928">
        <ele>191.6</ele>
        <time>2020-06-26T19:36:37Z</time>
      </trkpt>
      <trkpt lat="49.26652" lon="6.79282">
        <ele>191.7</ele>
        <time>2020-06-26T19:36:38Z</time>
      </trkpt>
      <trkpt lat="49.26647" lon="6.79284">
        <ele>191.9</ele>
        <time>2020-06-26T19:36:39Z</time>
      </trkpt>
      <trkpt lat="49.26642" lon="6.79286">
        <ele>192</ele>
        <time>2020-06-26T19:36:40Z</time>
      </trkpt>
      <trkpt lat="49.26639" lon="6.79288">
        <ele>192.1</ele>
        <time>2020-06-26T19:36:41Z</time>
      </trkpt>
      <trkpt lat="49.26635" lon="6.79291">
        <ele>192.2</ele>
        <time>2020-06-26T19:36:42Z</time>
      </trkpt>
      <trkpt lat="49.26631" lon="6.79294">
        <ele>192.3</ele>
        <time>2020-06-26T19:36:43Z</time>
      </trkpt>
      <trkpt lat="49.26628" lon="6.79296">
        <ele>192.5</ele>
        <time>2020-06-26T19:36:44Z</time>
      </trkpt>
      <trkpt lat="49.26624" lon="6.793">
        <ele>192.6</ele>
        <time>2020-06-26T19:36:45Z</time>
      </trkpt>
      <trkpt lat="49.2662" lon="6.79303">
        <ele>192.8</ele>
        <time>2020-06-26T19:36:46Z</time>
      </trkpt>
      <trkpt lat="49.26616" lon="6.79307">
        <ele>192.9</ele>
        <time>2020-06-26T19:36:47Z</time>
      </trkpt>
      <trkpt lat="49.26612" lon="6.7931">
        <ele>193.1</ele>
        <time>2020-06-26T19:36:48Z</time>
      </trkpt>
      <trkpt lat="49.26608" lon="6.79313">
        <ele>193.2</ele>
        <time>2020-06-26T19:36:49Z</time>
      </trkpt>
      <trkpt lat="49.26605" lon="6.79315">
        <ele>193.4</ele>
        <time>2020-06-26T19:36:50Z</time>
      </trkpt>
      <trkpt lat="49.26601" lon="6.79319">
        <ele>193.5</ele>
        <time>2020-06-26T19:36:51Z</time>
      </trkpt>
      <trkpt lat="49.26598" lon="6.79322">
        <ele>193.7</ele>
        <time>2020-06-26T19:36:52Z</time>
      </trkpt>
      <trkpt lat="49.26595" lon="6.79324">
        <ele>193.9</ele>
        <time>2020-06-26T19:36:53Z</time>
      </trkpt>
      <trkpt lat="49.26591" lon="6.79328">
        <ele>194</ele>
        <time>2020-06-26T19:36:54Z</time>
      </trkpt>
      <trkpt lat="49.26588" lon="6.7933">
        <ele>194.2</ele>
        <time>2020-06-26T19:36:55Z</time>
      </trkpt>
      <trkpt lat="49.26586" lon="6.79333">
        <ele>194.4</ele>
        <time>2020-06-26T19:36:56Z</time>
      </trkpt>
      <trkpt lat="49.26583" lon="6.79337">
        <ele>194.5</ele>
        <time>2020-06-26T19:36:57Z</time>
      </trkpt>
      <trkpt lat="49.26579" lon="6.79339">
        <ele>194.7</ele>
        <time>2020-06-26T19:36:58Z</time>
      </trkpt>
      <trkpt lat="49.26577" lon="6.79341">
        <ele>194.8</ele>
        <time>2020-06-26T19:36:59Z</time>
      </trkpt>
      <trkpt lat="49.26574" lon="6.79343">
        <ele>194.9</ele>
        <time>2020-06-26T19:37:00Z</time>
      </trkpt>
      <trkpt lat="49.26571" lon="6.79346">
        <ele>195.1</ele>
        <time>2020-06-26T19:37:01Z</time>
      </trkpt>
      <trkpt lat="49.26567" lon="6.7935">
        <ele>195.3</ele>
        <time>2020-06-26T19:37:02Z</time>
      </trkpt>
      <trkpt lat="49.26565" lon="6.79353">
        <ele>195.5</ele>
        <time>2020-06-26T19:37:03Z</time>
      </trkpt>
      <trkpt lat="49.26561" lon="6.79356">
        <ele>195.7</ele>
        <time>2020-06-26T19:37:04Z</time>
      </trkpt>
      <trkpt lat="49.26558" lon="6.79359">
        <ele>195.8</ele>
        <time>2020-06-26T19:37:05Z</time>
      </trkpt>
      <trkpt lat="49.26555" lon="6.79362">
        <ele>196</ele>
        <time>2020-06-26T19:37:06Z</time>
      </trkpt>
      <trkpt lat="49.26551" lon="6.79364">
        <ele>196.2</ele>
        <time>2020-06-26T19:37:07Z</time>
      </trkpt>
      <trkpt lat="49.26547" lon="6.79368">
        <ele>196.4</ele>
        <time>2020-06-26T19:37:08Z</time>
      </trkpt>
      <trkpt lat="49.26543" lon="6.79373">
        <ele>196.6</ele>
        <time>2020-06-26T19:37:09Z</time>
      </trkpt>
      <trkpt lat="49.26539" lon="6.79378">
        <ele>196.8</ele>
        <time>2020-06-26T19:37:10Z</time>
      </trkpt>
      <trkpt lat="49.26535" lon="6.79381">
        <ele>197</ele>
        <time>2020-06-26T19:37:11Z</time>
      </trkpt>
      <trkpt lat="49.26532" lon="6.79385">
        <ele>197.2</ele>
        <time>2020-06-26T19:37:12Z</time>
      </trkpt>
      <trkpt lat="49.26528" lon="6.79388">
        <ele>197.4</ele>
        <time>2020-06-26T19:37:13Z</time>
      </trkpt>
      <trkpt lat="49.26525" lon="6.79393">
        <ele>197.5</ele>
        <time>2020-06-26T19:37:14Z</time>
      </trkpt>
      <trkpt lat="49.26523" lon="6.79397">
        <ele>197.7</ele>
        <time>2020-06-26T19:37:15Z</time>
      </trkpt>
      <trkpt lat="49.2652" lon="6.79399">
        <ele>197.7</ele>
        <time>2020-06-26T19:37:16Z</time>
      </trkpt>
      <trkpt lat="49.26518" lon="6.79401">
        <ele>197.8</ele>
        <time>2020-06-26T19:37:17Z</time>
      </trkpt>
      <trkpt lat="49.26515" lon="6.79405">
        <ele>198</ele>
        <time>2020-06-26T19:37:18Z</time>
      </trkpt>
      <trkpt lat="49.26512" lon="6.79409">
        <ele>198.1</ele>
        <time>2020-06-26T19:37:19Z</time>
      </trkpt>
      <trkpt lat="49.26509" lon="6.79413">
        <ele>198.2</ele>
        <time>2020-06-26T19:37:20Z</time>
      </trkpt>
      <trkpt lat="49.26506" lon="6.79415">
        <ele>198.3</ele>
        <time>2020-06-26T19:37:21Z</time>
      </trkpt>
      <trkpt lat="49.26502" lon="6.7942">
        <ele>198.3</ele>
        <time>2020-06-26T19:37:22Z</time>
      </trkpt>
      <trkpt lat="49.265" lon="6.79424">
        <ele>198.4</ele>
        <time>2020-06-26T19:37:23Z</time>
      </trkpt>
      <trkpt lat="49.26497" lon="6.79427">
        <ele>198.6</ele>
        <time>2020-06-26T19:37:24Z</time>
      </trkpt>
      <trkpt lat="49.26494" lon="6.79432">
        <ele>198.8</ele>
        <time>2020-06-26T19:37:25Z</time>
      </trkpt>
      <trkpt lat="49.2649" lon="6.79437">
        <ele>198.9</ele>
        <time>2020-06-26T19:37:26Z</time>
      </trkpt>
      <trkpt lat="49.26487" lon="6.79441">
        <ele>199</ele>
        <time>2020-06-26T19:37:27Z</time>
      </trkpt>
      <trkpt lat="49.26484" lon="6.79445">
        <ele>199.1</ele>
        <time>2020-06-26T19:37:28Z</time>
      </trkpt>
      <trkpt lat="49.26481" lon="6.79451">
        <ele>199.2</ele>
        <time>2020-06-26T19:37:29Z</time>
      </trkpt>
      <trkpt lat="49.26478" lon="6.79455">
        <ele>199.2</ele>
        <time>2020-06-26T19:37:30Z</time>
      </trkpt>
      <trkpt lat="49.26475" lon="6.79457">
        <ele>199.3</ele>
        <time>2020-06-26T19:37:31Z</time>
      </trkpt>
      <trkpt lat="49.26472" lon="6.79461">
        <ele>199.3</ele>
        <time>2020-06-26T19:37:32Z</time>
      </trkpt>
      <trkpt lat="49.26467" lon="6.79465">
        <ele>199.4</ele>
        <time>2020-06-26T19:37:33Z</time>
      </trkpt>
      <trkpt lat="49.26463" lon="6.79468">
        <ele>199.4</ele>
        <time>2020-06-26T19:37:34Z</time>
      </trkpt>
      <trkpt lat="49.2646" lon="6.79472">
        <ele>199.4</ele>
        <time>2020-06-26T19:37:35Z</time>
      </trkpt>
      <trkpt lat="49.26457" lon="6.79476">
        <ele>199.4</ele>
        <time>2020-06-26T19:37:36Z</time>
      </trkpt>
      <trkpt lat="49.26453" lon="6.7948">
        <ele>199.4</ele>
        <time>2020-06-26T19:37:37Z</time>
      </trkpt>
      <trkpt lat="49.2645" lon="6.79485">
        <ele>199.4</ele>
        <time>2020-06-26T19:37:38Z</time>
      </trkpt>
      <trkpt lat="49.26446" lon="6.7949">
        <ele>199.4</ele>
        <time>2020-06-26T19:37:39Z</time>
      </trkpt>
      <trkpt lat="49.26443" lon="6.79493">
        <ele>199.4</ele>
        <time>2020-06-26T19:37:40Z</time>
      </trkpt>
      <trkpt lat="49.26439" lon="6.79498">
        <ele>199.4</ele>
        <time>2020-06-26T19:37:41Z</time>
      </trkpt>
      <trkpt lat="49.26436" lon="6.79503">
        <ele>199.4</ele>
        <time>2020-06-26T19:37:42Z</time>
      </trkpt>
      <trkpt lat="49.26432" lon="6.79509">
        <ele>199.4</ele>
        <time>2020-06-26T19:37:43Z</time>
      </trkpt>
      <trkpt lat="49.26428" lon="6.79514">
        <ele>199.4</ele>
        <time>2020-06-26T19:37:44Z</time>
      </trkpt>
      <trkpt lat="49.26424" lon="6.79519">
        <ele>199.4</ele>
        <time>2020-06-26T19:37:45Z</time>
      </trkpt>
      <trkpt lat="49.26419" lon="6.79524">
        <ele>199.4</ele>
        <time>2020-06-26T19:37:46Z</time>
      </trkpt>
      <trkpt lat="49.26414" lon="6.79526">
        <ele>199.3</ele>
        <time>2020-06-26T19:37:47Z</time>
      </trkpt>
      <trkpt lat="49.26411" lon="6.79529">
        <ele>199.3</ele>
        <time>2020-06-26T19:37:48Z</time>
      </trkpt>
      <trkpt lat="49.26407" lon="6.79534">
        <ele>199.2</ele>
        <time>2020-06-26T19:37:49Z</time>
      </trkpt>
      <trkpt lat="49.26404" lon="6.79539">
        <ele>199.2</ele>
        <time>2020-06-26T19:37:50Z</time>
      </trkpt>
      <trkpt lat="49.26401" lon="6.79542">
        <ele>199.1</ele>
        <time>2020-06-26T19:37:51Z</time>
      </trkpt>
      <trkpt lat="49.26398" lon="6.79547">
        <ele>199</ele>
        <time>2020-06-26T19:37:52Z</time>
      </trkpt>
      <trkpt lat="49.26392" lon="6.79554">
        <ele>198.9</ele>
        <time>2020-06-26T19:37:53Z</time>
      </trkpt>
      <trkpt lat="49.26389" lon="6.79559">
        <ele>198.8</ele>
        <time>2020-06-26T19:37:54Z</time>
      </trkpt>
      <trkpt lat="49.26385" lon="6.79564">
        <ele>198.7</ele>
        <time>2020-06-26T19:37:55Z</time>
      </trkpt>
      <trkpt lat="49.26381" lon="6.79568">
        <ele>198.6</ele>
        <time>2020-06-26T19:37:56Z</time>
      </trkpt>
      <trkpt lat="49.26377" lon="6.79573">
        <ele>198.4</ele>
        <time>2020-06-26T19:37:57Z</time>
      </trkpt>
      <trkpt lat="49.26373" lon="6.79579">
        <ele>198.3</ele>
        <time>2020-06-26T19:37:58Z</time>
      </trkpt>
      <trkpt lat="49.26368" lon="6.79585">
        <ele>198.1</ele>
        <time>2020-06-26T19:37:59Z</time>
      </trkpt>
      <trkpt lat="49.26363" lon="6.79592">
        <ele>198</ele>
        <time>2020-06-26T19:38:00Z</time>
      </trkpt>
      <trkpt lat="49.26358" lon="6.79598">
        <ele>197.7</ele>
        <time>2020-06-26T19:38:01Z</time>
      </trkpt>
      <trkpt lat="49.26353" lon="6.79604">
        <ele>197.5</ele>
        <time>2020-06-26T19:38:02Z</time>
      </trkpt>
      <trkpt lat="49.26348" lon="6.7961">
        <ele>197.2</ele>
        <time>2020-06-26T19:38:03Z</time>
      </trkpt>
      <trkpt lat="49.26342" lon="6.79614">
        <ele>197</ele>
        <time>2020-06-26T19:38:04Z</time>
      </trkpt>
      <trkpt lat="49.26337" lon="6.79621">
        <ele>196.8</ele>
        <time>2020-06-26T19:38:05Z</time>
      </trkpt>
      <trkpt lat="49.26332" lon="6.79627">
        <ele>196.5</ele>
        <time>2020-06-26T19:38:06Z</time>
      </trkpt>
      <trkpt lat="49.26328" lon="6.79632">
        <ele>196.3</ele>
        <time>2020-06-26T19:38:07Z</time>
      </trkpt>
      <trkpt lat="49.26321" lon="6.79642">
        <ele>195.9</ele>
        <time>2020-06-26T19:38:08Z</time>
      </trkpt>
      <trkpt lat="49.26316" lon="6.79647">
        <ele>195.7</ele>
        <time>2020-06-26T19:38:09Z</time>
      </trkpt>
      <trkpt lat="49.2631" lon="6.79652">
        <ele>195.4</ele>
        <time>2020-06-26T19:38:10Z</time>
      </trkpt>
      <trkpt lat="49.26303" lon="6.79658">
        <ele>195.1</ele>
        <time>2020-06-26T19:38:11Z</time>
      </trkpt>
      <trkpt lat="49.26296" lon="6.79663">
        <ele>194.8</ele>
        <time>2020-06-26T19:38:12Z</time>
      </trkpt>
      <trkpt lat="49.26289" lon="6.79669">
        <ele>194.5</ele>
        <time>2020-06-26T19:38:13Z</time>
      </trkpt>
      <trkpt lat="49.26282" lon="6.79674">
        <ele>194.3</ele>
        <time>2020-06-26T19:38:14Z</time>
      </trkpt>
      <trkpt lat="49.26275" lon="6.7968">
        <ele>194</ele>
        <time>2020-06-26T19:38:15Z</time>
      </trkpt>
      <trkpt lat="49.26267" lon="6.79686">
        <ele>193.8</ele>
        <time>2020-06-26T19:38:16Z</time>
      </trkpt>
      <trkpt lat="49.2626" lon="6.7969">
        <ele>193.7</ele>
        <time>2020-06-26T19:38:17Z</time>
      </trkpt>
      <trkpt lat="49.26253" lon="6.79693">
        <ele>193.6</ele>
        <time>2020-06-26T19:38:18Z</time>
      </trkpt>
      <trkpt lat="49.26245" lon="6.79696">
        <ele>193.5</ele>
        <time>2020-06-26T19:38:19Z</time>
      </trkpt>
      <trkpt lat="49.26238" lon="6.79699">
        <ele>193.5</ele>
        <time>2020-06-26T19:38:20Z</time>
      </trkpt>
      <trkpt lat="49.26232" lon="6.79702">
        <ele>193.4</ele>
        <time>2020-06-26T19:38:21Z</time>
      </trkpt>
      <trkpt lat="49.26225" lon="6.79705">
        <ele>193.4</ele>
        <time>2020-06-26T19:38:22Z</time>
      </trkpt>
      <trkpt lat="49.26218" lon="6.79707">
        <ele>193.4</ele>
        <time>2020-06-26T19:38:23Z</time>
      </trkpt>
      <trkpt lat="49.26212" lon="6.79709">
        <ele>193.5</ele>
        <time>2020-06-26T19:38:24Z</time>
      </trkpt>
      <trkpt lat="49.26205" lon="6.79711">
        <ele>193.6</ele>
        <time>2020-06-26T19:38:25Z</time>
      </trkpt>
      <trkpt lat="49.26198" lon="6.79712">
        <ele>193.7</ele>
        <time>2020-06-26T19:38:26Z</time>
      </trkpt>
      <trkpt lat="49.26192" lon="6.79714">
        <ele>193.8</ele>
        <time>2020-06-26T19:38:27Z</time>
      </trkpt>
      <trkpt lat="49.26186" lon="6.79716">
        <ele>193.9</ele>
        <time>2020-06-26T19:38:28Z</time>
      </trkpt>
      <trkpt lat="49.2618" lon="6.79718">
        <ele>194</ele>
        <time>2020-06-26T19:38:29Z</time>
      </trkpt>
      <trkpt lat="49.26174" lon="6.79719">
        <ele>194.2</ele>
        <time>2020-06-26T19:38:30Z</time>
      </trkpt>
      <trkpt lat="49.26169" lon="6.7972">
        <ele>194.3</ele>
        <time>2020-06-26T19:38:31Z</time>
      </trkpt>
      <trkpt lat="49.26164" lon="6.7972">
        <ele>194.5</ele>
        <time>2020-06-26T19:38:32Z</time>
      </trkpt>
      <trkpt lat="49.26159" lon="6.79721">
        <ele>194.7</ele>
        <time>2020-06-26T19:38:33Z</time>
      </trkpt>
      <trkpt lat="49.26154" lon="6.79723">
        <ele>194.9</ele>
        <time>2020-06-26T19:38:34Z</time>
      </trkpt>
      <trkpt lat="49.26148" lon="6.79724">
        <ele>195.2</ele>
        <time>2020-06-26T19:38:35Z</time>
      </trkpt>
      <trkpt lat="49.26143" lon="6.79724">
        <ele>195.4</ele>
        <time>2020-06-26T19:38:36Z</time>
      </trkpt>
      <trkpt lat="49.26139" lon="6.79726">
        <ele>195.6</ele>
        <time>2020-06-26T19:38:37Z</time>
      </trkpt>
      <trkpt lat="49.26134" lon="6.79728">
        <ele>195.9</ele>
        <time>2020-06-26T19:38:38Z</time>
      </trkpt>
      <trkpt lat="49.2613" lon="6.79729">
        <ele>196.1</ele>
        <time>2020-06-26T19:38:39Z</time>
      </trkpt>
      <trkpt lat="49.26125" lon="6.79732">
        <ele>196.2</ele>
        <time>2020-06-26T19:38:40Z</time>
      </trkpt>
      <trkpt lat="49.26121" lon="6.79734">
        <ele>196.2</ele>
        <time>2020-06-26T19:38:41Z</time>
      </trkpt>
      <trkpt lat="49.26117" lon="6.79736">
        <ele>196.2</ele>
        <time>2020-06-26T19:38:42Z</time>
      </trkpt>
      <trkpt lat="49.26113" lon="6.79737">
        <ele>196.5</ele>
        <time>2020-06-26T19:38:43Z</time>
      </trkpt>
      <trkpt lat="49.2611" lon="6.79738">
        <ele>196.6</ele>
        <time>2020-06-26T19:38:44Z</time>
      </trkpt>
      <trkpt lat="49.26106" lon="6.7974">
        <ele>196.7</ele>
        <time>2020-06-26T19:38:45Z</time>
      </trkpt>
      <trkpt lat="49.26102" lon="6.79741">
        <ele>196.9</ele>
        <time>2020-06-26T19:38:46Z</time>
      </trkpt>
      <trkpt lat="49.26098" lon="6.79743">
        <ele>197</ele>
        <time>2020-06-26T19:38:47Z</time>
      </trkpt>
      <trkpt lat="49.26094" lon="6.79744">
        <ele>197.2</ele>
        <time>2020-06-26T19:38:48Z</time>
      </trkpt>
      <trkpt lat="49.2609" lon="6.79745">
        <ele>197.4</ele>
        <time>2020-06-26T19:38:49Z</time>
      </trkpt>
      <trkpt lat="49.26087" lon="6.79746">
        <ele>197.6</ele>
        <time>2020-06-26T19:38:50Z</time>
      </trkpt>
      <trkpt lat="49.26083" lon="6.79748">
        <ele>197.7</ele>
        <time>2020-06-26T19:38:51Z</time>
      </trkpt>
      <trkpt lat="49.2608" lon="6.7975">
        <ele>197.9</ele>
        <time>2020-06-26T19:38:52Z</time>
      </trkpt>
      <trkpt lat="49.26076" lon="6.79751">
        <ele>198.1</ele>
        <time>2020-06-26T19:38:53Z</time>
      </trkpt>
      <trkpt lat="49.26072" lon="6.79752">
        <ele>198.2</ele>
        <time>2020-06-26T19:38:54Z</time>
      </trkpt>
      <trkpt lat="49.26068" lon="6.79753">
        <ele>198.4</ele>
        <time>2020-06-26T19:38:55Z</time>
      </trkpt>
      <trkpt lat="49.26064" lon="6.79754">
        <ele>198.6</ele>
        <time>2020-06-26T19:38:56Z</time>
      </trkpt>
      <trkpt lat="49.2606" lon="6.79755">
        <ele>198.8</ele>
        <time>2020-06-26T19:38:57Z</time>
      </trkpt>
      <trkpt lat="49.26055" lon="6.79756">
        <ele>198.9</ele>
        <time>2020-06-26T19:38:58Z</time>
      </trkpt>
      <trkpt lat="49.26051" lon="6.79757">
        <ele>199.1</ele>
        <time>2020-06-26T19:38:59Z</time>
      </trkpt>
      <trkpt lat="49.26047" lon="6.79758">
        <ele>199.3</ele>
        <time>2020-06-26T19:39:00Z</time>
      </trkpt>
      <trkpt lat="49.26042" lon="6.79759">
        <ele>199.4</ele>
        <time>2020-06-26T19:39:01Z</time>
      </trkpt>
      <trkpt lat="49.26038" lon="6.79759">
        <ele>199.6</ele>
        <time>2020-06-26T19:39:02Z</time>
      </trkpt>
      <trkpt lat="49.26034" lon="6.7976">
        <ele>199.7</ele>
        <time>2020-06-26T19:39:03Z</time>
      </trkpt>
      <trkpt lat="49.2603" lon="6.7976">
        <ele>199.8</ele>
        <time>2020-06-26T19:39:04Z</time>
      </trkpt>
      <trkpt lat="49.26025" lon="6.7976">
        <ele>200</ele>
        <time>2020-06-26T19:39:05Z</time>
      </trkpt>
      <trkpt lat="49.26021" lon="6.7976">
        <ele>200.2</ele>
        <time>2020-06-26T19:39:06Z</time>
      </trkpt>
      <trkpt lat="49.26017" lon="6.7976">
        <ele>200.3</ele>
        <time>2020-06-26T19:39:07Z</time>
      </trkpt>
      <trkpt lat="49.26012" lon="6.79759">
        <ele>200.5</ele>
        <time>2020-06-26T19:39:08Z</time>
      </trkpt>
      <trkpt lat="49.26007" lon="6.79758">
        <ele>200.7</ele>
        <time>2020-06-26T19:39:09Z</time>
      </trkpt>
      <trkpt lat="49.26004" lon="6.79757">
        <ele>200.8</ele>
        <time>2020-06-26T19:39:10Z</time>
      </trkpt>
      <trkpt lat="49.25999" lon="6.79756">
        <ele>201</ele>
        <time>2020-06-26T19:39:11Z</time>
      </trkpt>
      <trkpt lat="49.25995" lon="6.79754">
        <ele>201.2</ele>
        <time>2020-06-26T19:39:12Z</time>
      </trkpt>
      <trkpt lat="49.25991" lon="6.79752">
        <ele>201.4</ele>
        <time>2020-06-26T19:39:13Z</time>
      </trkpt>
      <trkpt lat="49.25985" lon="6.79749">
        <ele>201.6</ele>
        <time>2020-06-26T19:39:14Z</time>
      </trkpt>
      <trkpt lat="49.25981" lon="6.79747">
        <ele>201.8</ele>
        <time>2020-06-26T19:39:15Z</time>
      </trkpt>
      <trkpt lat="49.25978" lon="6.79745">
        <ele>201.9</ele>
        <time>2020-06-26T19:39:16Z</time>
      </trkpt>
      <trkpt lat="49.25974" lon="6.79743">
        <ele>202</ele>
        <time>2020-06-26T19:39:17Z</time>
      </trkpt>
      <trkpt lat="49.25971" lon="6.79741">
        <ele>202.2</ele>
        <time>2020-06-26T19:39:18Z</time>
      </trkpt>
      <trkpt lat="49.25966" lon="6.79739">
        <ele>202.3</ele>
        <time>2020-06-26T19:39:19Z</time>
      </trkpt>
      <trkpt lat="49.25963" lon="6.79737">
        <ele>202.4</ele>
        <time>2020-06-26T19:39:20Z</time>
      </trkpt>
      <trkpt lat="49.25957" lon="6.79734">
        <ele>202.6</ele>
        <time>2020-06-26T19:39:21Z</time>
      </trkpt>
      <trkpt lat="49.25953" lon="6.79732">
        <ele>202.7</ele>
        <time>2020-06-26T19:39:22Z</time>
      </trkpt>
      <trkpt lat="49.2595" lon="6.7973">
        <ele>202.8</ele>
        <time>2020-06-26T19:39:23Z</time>
      </trkpt>
      <trkpt lat="49.25946" lon="6.79728">
        <ele>202.9</ele>
        <time>2020-06-26T19:39:24Z</time>
      </trkpt>
      <trkpt lat="49.25941" lon="6.79725">
        <ele>203.1</ele>
        <time>2020-06-26T19:39:25Z</time>
      </trkpt>
      <trkpt lat="49.25939" lon="6.79723">
        <ele>203.1</ele>
        <time>2020-06-26T19:39:26Z</time>
      </trkpt>
      <trkpt lat="49.25935" lon="6.79721">
        <ele>203.2</ele>
        <time>2020-06-26T19:39:27Z</time>
      </trkpt>
      <trkpt lat="49.25933" lon="6.79719">
        <ele>203.3</ele>
        <time>2020-06-26T19:39:28Z</time>
      </trkpt>
      <trkpt lat="49.25928" lon="6.79717">
        <ele>203.4</ele>
        <time>2020-06-26T19:39:29Z</time>
      </trkpt>
      <trkpt lat="49.25924" lon="6.79715">
        <ele>203.5</ele>
        <time>2020-06-26T19:39:30Z</time>
      </trkpt>
      <trkpt lat="49.25919" lon="6.79712">
        <ele>203.6</ele>
        <time>2020-06-26T19:39:31Z</time>
      </trkpt>
      <trkpt lat="49.25915" lon="6.7971">
        <ele>203.7</ele>
        <time>2020-06-26T19:39:32Z</time>
      </trkpt>
      <trkpt lat="49.2591" lon="6.79707">
        <ele>203.9</ele>
        <time>2020-06-26T19:39:33Z</time>
      </trkpt>
      <trkpt lat="49.25904" lon="6.79704">
        <ele>204</ele>
        <time>2020-06-26T19:39:34Z</time>
      </trkpt>
      <trkpt lat="49.259" lon="6.79702">
        <ele>204.1</ele>
        <time>2020-06-26T19:39:35Z</time>
      </trkpt>
      <trkpt lat="49.25896" lon="6.79699">
        <ele>204.2</ele>
        <time>2020-06-26T19:39:36Z</time>
      </trkpt>
      <trkpt lat="49.25893" lon="6.79698">
        <ele>204.3</ele>
        <time>2020-06-26T19:39:37Z</time>
      </trkpt>
      <trkpt lat="49.25888" lon="6.79695">
        <ele>204.4</ele>
        <time>2020-06-26T19:39:38Z</time>
      </trkpt>
      <trkpt lat="49.25884" lon="6.79692">
        <ele>204.5</ele>
        <time>2020-06-26T19:39:39Z</time>
      </trkpt>
      <trkpt lat="49.25879" lon="6.79688">
        <ele>204.6</ele>
        <time>2020-06-26T19:39:40Z</time>
      </trkpt>
      <trkpt lat="49.25875" lon="6.79685">
        <ele>204.6</ele>
        <time>2020-06-26T19:39:41Z</time>
      </trkpt>
      <trkpt lat="49.25872" lon="6.79683">
        <ele>204.7</ele>
        <time>2020-06-26T19:39:42Z</time>
      </trkpt>
      <trkpt lat="49.25868" lon="6.7968">
        <ele>204.7</ele>
        <time>2020-06-26T19:39:43Z</time>
      </trkpt>
      <trkpt lat="49.25862" lon="6.79676">
        <ele>204.8</ele>
        <time>2020-06-26T19:39:44Z</time>
      </trkpt>
      <trkpt lat="49.25858" lon="6.79673">
        <ele>204.9</ele>
        <time>2020-06-26T19:39:45Z</time>
      </trkpt>
      <trkpt lat="49.25853" lon="6.79669">
        <ele>204.9</ele>
        <time>2020-06-26T19:39:46Z</time>
      </trkpt>
      <trkpt lat="49.2585" lon="6.79665">
        <ele>204.9</ele>
        <time>2020-06-26T19:39:47Z</time>
      </trkpt>
      <trkpt lat="49.25845" lon="6.79661">
        <ele>205</ele>
        <time>2020-06-26T19:39:48Z</time>
      </trkpt>
      <trkpt lat="49.2584" lon="6.79658">
        <ele>205.1</ele>
        <time>2020-06-26T19:39:49Z</time>
      </trkpt>
      <trkpt lat="49.25837" lon="6.79655">
        <ele>205.1</ele>
        <time>2020-06-26T19:39:50Z</time>
      </trkpt>
      <trkpt lat="49.25833" lon="6.79652">
        <ele>205.2</ele>
        <time>2020-06-26T19:39:51Z</time>
      </trkpt>
      <trkpt lat="49.25828" lon="6.79648">
        <ele>205.2</ele>
        <time>2020-06-26T19:39:52Z</time>
      </trkpt>
      <trkpt lat="49.25825" lon="6.79645">
        <ele>205.3</ele>
        <time>2020-06-26T19:39:53Z</time>
      </trkpt>
      <trkpt lat="49.2582" lon="6.79641">
        <ele>205.4</ele>
        <time>2020-06-26T19:39:54Z</time>
      </trkpt>
      <trkpt lat="49.25817" lon="6.79638">
        <ele>205.4</ele>
        <time>2020-06-26T19:39:55Z</time>
      </trkpt>
      <trkpt lat="49.25813" lon="6.79635">
        <ele>205.5</ele>
        <time>2020-06-26T19:39:56Z</time>
      </trkpt>
      <trkpt lat="49.25809" lon="6.79632">
        <ele>205.6</ele>
        <time>2020-06-26T19:39:57Z</time>
      </trkpt>
      <trkpt lat="49.25804" lon="6.79628">
        <ele>205.6</ele>
        <time>2020-06-26T19:39:58Z</time>
      </trkpt>
      <trkpt lat="49.258" lon="6.79624">
        <ele>205.7</ele>
        <time>2020-06-26T19:39:59Z</time>
      </trkpt>
      <trkpt lat="49.25796" lon="6.7962">
        <ele>205.8</ele>
        <time>2020-06-26T19:40:00Z</time>
      </trkpt>
      <trkpt lat="49.25791" lon="6.79616">
        <ele>205.8</ele>
        <time>2020-06-26T19:40:01Z</time>
      </trkpt>
      <trkpt lat="49.25786" lon="6.79613">
        <ele>205.8</ele>
        <time>2020-06-26T19:40:02Z</time>
      </trkpt>
      <trkpt lat="49.25782" lon="6.79609">
        <ele>205.8</ele>
        <time>2020-06-26T19:40:03Z</time>
      </trkpt>
      <trkpt lat="49.25778" lon="6.79605">
        <ele>205.7</ele>
        <time>2020-06-26T19:40:04Z</time>
      </trkpt>
      <trkpt lat="49.25773" lon="6.79601">
        <ele>205.6</ele>
        <time>2020-06-26T19:40:05Z</time>
      </trkpt>
      <trkpt lat="49.25769" lon="6.79596">
        <ele>205.5</ele>
        <time>2020-06-26T19:40:06Z</time>
      </trkpt>
      <trkpt lat="49.25763" lon="6.7959">
        <ele>205.4</ele>
        <time>2020-06-26T19:40:07Z</time>
      </trkpt>
      <trkpt lat="49.25757" lon="6.79586">
        <ele>205.3</ele>
        <time>2020-06-26T19:40:08Z</time>
      </trkpt>
      <trkpt lat="49.25753" lon="6.79581">
        <ele>205.2</ele>
        <time>2020-06-26T19:40:09Z</time>
      </trkpt>
      <trkpt lat="49.25749" lon="6.79578">
        <ele>205.1</ele>
        <time>2020-06-26T19:40:10Z</time>
      </trkpt>
      <trkpt lat="49.25744" lon="6.79574">
        <ele>205</ele>
        <time>2020-06-26T19:40:11Z</time>
      </trkpt>
      <trkpt lat="49.25739" lon="6.79569">
        <ele>205</ele>
        <time>2020-06-26T19:40:12Z</time>
      </trkpt>
      <trkpt lat="49.25733" lon="6.79564">
        <ele>204.9</ele>
        <time>2020-06-26T19:40:13Z</time>
      </trkpt>
      <trkpt lat="49.25728" lon="6.79559">
        <ele>204.9</ele>
        <time>2020-06-26T19:40:14Z</time>
      </trkpt>
      <trkpt lat="49.25725" lon="6.79556">
        <ele>204.9</ele>
        <time>2020-06-26T19:40:15Z</time>
      </trkpt>
      <trkpt lat="49.2572" lon="6.79551">
        <ele>204.8</ele>
        <time>2020-06-26T19:40:16Z</time>
      </trkpt>
      <trkpt lat="49.25714" lon="6.79546">
        <ele>204.8</ele>
        <time>2020-06-26T19:40:17Z</time>
      </trkpt>
      <trkpt lat="49.25709" lon="6.79541">
        <ele>204.8</ele>
        <time>2020-06-26T19:40:18Z</time>
      </trkpt>
      <trkpt lat="49.25702" lon="6.79535">
        <ele>204.9</ele>
        <time>2020-06-26T19:40:19Z</time>
      </trkpt>
      <trkpt lat="49.25698" lon="6.79532">
        <ele>205</ele>
        <time>2020-06-26T19:40:20Z</time>
      </trkpt>
      <trkpt lat="49.25692" lon="6.79527">
        <ele>205</ele>
        <time>2020-06-26T19:40:21Z</time>
      </trkpt>
      <trkpt lat="49.25686" lon="6.79522">
        <ele>205.1</ele>
        <time>2020-06-26T19:40:22Z</time>
      </trkpt>
      <trkpt lat="49.2568" lon="6.79517">
        <ele>205.1</ele>
        <time>2020-06-26T19:40:23Z</time>
      </trkpt>
      <trkpt lat="49.25674" lon="6.79513">
        <ele>205.2</ele>
        <time>2020-06-26T19:40:24Z</time>
      </trkpt>
      <trkpt lat="49.2567" lon="6.7951">
        <ele>205.2</ele>
        <time>2020-06-26T19:40:25Z</time>
      </trkpt>
      <trkpt lat="49.25664" lon="6.79506">
        <ele>205.2</ele>
        <time>2020-06-26T19:40:26Z</time>
      </trkpt>
      <trkpt lat="49.2566" lon="6.79503">
        <ele>205.2</ele>
        <time>2020-06-26T19:40:27Z</time>
      </trkpt>
      <trkpt lat="49.25655" lon="6.795">
        <ele>205.2</ele>
        <time>2020-06-26T19:40:28Z</time>
      </trkpt>
      <trkpt lat="49.2565" lon="6.79498">
        <ele>205.2</ele>
        <time>2020-06-26T19:40:29Z</time>
      </trkpt>
      <trkpt lat="49.25646" lon="6.79495">
        <ele>205.2</ele>
        <time>2020-06-26T19:40:30Z</time>
      </trkpt>
      <trkpt lat="49.25641" lon="6.79493">
        <ele>205.1</ele>
        <time>2020-06-26T19:40:31Z</time>
      </trkpt>
      <trkpt lat="49.25637" lon="6.7949">
        <ele>205.1</ele>
        <time>2020-06-26T19:40:32Z</time>
      </trkpt>
      <trkpt lat="49.25631" lon="6.79488">
        <ele>205</ele>
        <time>2020-06-26T19:40:33Z</time>
      </trkpt>
      <trkpt lat="49.25625" lon="6.79486">
        <ele>204.9</ele>
        <time>2020-06-26T19:40:34Z</time>
      </trkpt>
      <trkpt lat="49.25619" lon="6.79483">
        <ele>204.8</ele>
        <time>2020-06-26T19:40:35Z</time>
      </trkpt>
      <trkpt lat="49.25614" lon="6.79482">
        <ele>204.7</ele>
        <time>2020-06-26T19:40:36Z</time>
      </trkpt>
      <trkpt lat="49.25607" lon="6.79479">
        <ele>204.5</ele>
        <time>2020-06-26T19:40:37Z</time>
      </trkpt>
      <trkpt lat="49.256" lon="6.79476">
        <ele>204.3</ele>
        <time>2020-06-26T19:40:38Z</time>
      </trkpt>
      <trkpt lat="49.25594" lon="6.79474">
        <ele>204.1</ele>
        <time>2020-06-26T19:40:39Z</time>
      </trkpt>
      <trkpt lat="49.25588" lon="6.79472">
        <ele>204</ele>
        <time>2020-06-26T19:40:40Z</time>
      </trkpt>
      <trkpt lat="49.25581" lon="6.79468">
        <ele>203.8</ele>
        <time>2020-06-26T19:40:41Z</time>
      </trkpt>
      <trkpt lat="49.25575" lon="6.79466">
        <ele>203.6</ele>
        <time>2020-06-26T19:40:42Z</time>
      </trkpt>
      <trkpt lat="49.25568" lon="6.79463">
        <ele>203.4</ele>
        <time>2020-06-26T19:40:43Z</time>
      </trkpt>
      <trkpt lat="49.25561" lon="6.7946">
        <ele>203.1</ele>
        <time>2020-06-26T19:40:44Z</time>
      </trkpt>
      <trkpt lat="49.25553" lon="6.79457">
        <ele>202.8</ele>
        <time>2020-06-26T19:40:45Z</time>
      </trkpt>
      <trkpt lat="49.25545" lon="6.79454">
        <ele>202.3</ele>
        <time>2020-06-26T19:40:46Z</time>
      </trkpt>
      <trkpt lat="49.25538" lon="6.79451">
        <ele>201.9</ele>
        <time>2020-06-26T19:40:47Z</time>
      </trkpt>
      <trkpt lat="49.2553" lon="6.79448">
        <ele>201.4</ele>
        <time>2020-06-26T19:40:48Z</time>
      </trkpt>
      <trkpt lat="49.25522" lon="6.79446">
        <ele>201</ele>
        <time>2020-06-26T19:40:49Z</time>
      </trkpt>
      <trkpt lat="49.25513" lon="6.79443">
        <ele>200.4</ele>
        <time>2020-06-26T19:40:50Z</time>
      </trkpt>
      <trkpt lat="49.25505" lon="6.7944">
        <ele>199.9</ele>
        <time>2020-06-26T19:40:51Z</time>
      </trkpt>
      <trkpt lat="49.25497" lon="6.79437">
        <ele>199.3</ele>
        <time>2020-06-26T19:40:52Z</time>
      </trkpt>
      <trkpt lat="49.25488" lon="6.79433">
        <ele>198.7</ele>
        <time>2020-06-26T19:40:53Z</time>
      </trkpt>
      <trkpt lat="49.2548" lon="6.79429">
        <ele>198.1</ele>
        <time>2020-06-26T19:40:54Z</time>
      </trkpt>
      <trkpt lat="49.25471" lon="6.79426">
        <ele>197.5</ele>
        <time>2020-06-26T19:40:55Z</time>
      </trkpt>
      <trkpt lat="49.25461" lon="6.79422">
        <ele>196.9</ele>
        <time>2020-06-26T19:40:56Z</time>
      </trkpt>
      <trkpt lat="49.25451" lon="6.79419">
        <ele>196.3</ele>
        <time>2020-06-26T19:40:57Z</time>
      </trkpt>
      <trkpt lat="49.25442" lon="6.79417">
        <ele>195.9</ele>
        <time>2020-06-26T19:40:58Z</time>
      </trkpt>
      <trkpt lat="49.25432" lon="6.79415">
        <ele>195.4</ele>
        <time>2020-06-26T19:40:59Z</time>
      </trkpt>
      <trkpt lat="49.25422" lon="6.79412">
        <ele>195.1</ele>
        <time>2020-06-26T19:41:00Z</time>
      </trkpt>
      <trkpt lat="49.25412" lon="6.7941">
        <ele>194.7</ele>
        <time>2020-06-26T19:41:01Z</time>
      </trkpt>
      <trkpt lat="49.25402" lon="6.79408">
        <ele>194.4</ele>
        <time>2020-06-26T19:41:02Z</time>
      </trkpt>
      <trkpt lat="49.25392" lon="6.79407">
        <ele>194.1</ele>
        <time>2020-06-26T19:41:03Z</time>
      </trkpt>
      <trkpt lat="49.25382" lon="6.79406">
        <ele>193.8</ele>
        <time>2020-06-26T19:41:04Z</time>
      </trkpt>
      <trkpt lat="49.25372" lon="6.79405">
        <ele>193.5</ele>
        <time>2020-06-26T19:41:05Z</time>
      </trkpt>
      <trkpt lat="49.25363" lon="6.79403">
        <ele>192.9</ele>
        <time>2020-06-26T19:41:06Z</time>
      </trkpt>
      <trkpt lat="49.25353" lon="6.79402">
        <ele>192.5</ele>
        <time>2020-06-26T19:41:07Z</time>
      </trkpt>
      <trkpt lat="49.25344" lon="6.79401">
        <ele>192.1</ele>
        <time>2020-06-26T19:41:08Z</time>
      </trkpt>
      <trkpt lat="49.25335" lon="6.79399">
        <ele>191.7</ele>
        <time>2020-06-26T19:41:09Z</time>
      </trkpt>
      <trkpt lat="49.25326" lon="6.79396">
        <ele>191.3</ele>
        <time>2020-06-26T19:41:10Z</time>
      </trkpt>
      <trkpt lat="49.25317" lon="6.79393">
        <ele>190.9</ele>
        <time>2020-06-26T19:41:11Z</time>
      </trkpt>
      <trkpt lat="49.25307" lon="6.79389">
        <ele>190.6</ele>
        <time>2020-06-26T19:41:12Z</time>
      </trkpt>
      <trkpt lat="49.25297" lon="6.79384">
        <ele>190.2</ele>
        <time>2020-06-26T19:41:13Z</time>
      </trkpt>
      <trkpt lat="49.25288" lon="6.7938">
        <ele>189.8</ele>
        <time>2020-06-26T19:41:14Z</time>
      </trkpt>
      <trkpt lat="49.25278" lon="6.79376">
        <ele>189.4</ele>
        <time>2020-06-26T19:41:15Z</time>
      </trkpt>
      <trkpt lat="49.25269" lon="6.79372">
        <ele>189.1</ele>
        <time>2020-06-26T19:41:16Z</time>
      </trkpt>
      <trkpt lat="49.25259" lon="6.79369">
        <ele>188.7</ele>
        <time>2020-06-26T19:41:17Z</time>
      </trkpt>
      <trkpt lat="49.2525" lon="6.79365">
        <ele>188.4</ele>
        <time>2020-06-26T19:41:18Z</time>
      </trkpt>
      <trkpt lat="49.25241" lon="6.7936">
        <ele>188</ele>
        <time>2020-06-26T19:41:19Z</time>
      </trkpt>
      <trkpt lat="49.25232" lon="6.79354">
        <ele>187.7</ele>
        <time>2020-06-26T19:41:20Z</time>
      </trkpt>
      <trkpt lat="49.25223" lon="6.79347">
        <ele>187.6</ele>
        <time>2020-06-26T19:41:21Z</time>
      </trkpt>
      <trkpt lat="49.25215" lon="6.7934">
        <ele>187.5</ele>
        <time>2020-06-26T19:41:22Z</time>
      </trkpt>
      <trkpt lat="49.25206" lon="6.79332">
        <ele>187.5</ele>
        <time>2020-06-26T19:41:23Z</time>
      </trkpt>
      <trkpt lat="49.25198" lon="6.79324">
        <ele>187.2</ele>
        <time>2020-06-26T19:41:24Z</time>
      </trkpt>
      <trkpt lat="49.25191" lon="6.79314">
        <ele>186.9</ele>
        <time>2020-06-26T19:41:25Z</time>
      </trkpt>
      <trkpt lat="49.25184" lon="6.79303">
        <ele>186.8</ele>
        <time>2020-06-26T19:41:26Z</time>
      </trkpt>
      <trkpt lat="49.25177" lon="6.79292">
        <ele>186.7</ele>
        <time>2020-06-26T19:41:27Z</time>
      </trkpt>
      <trkpt lat="49.2517" lon="6.79281">
        <ele>186.6</ele>
        <time>2020-06-26T19:41:28Z</time>
      </trkpt>
      <trkpt lat="49.25164" lon="6.7927">
        <ele>186.4</ele>
        <time>2020-06-26T19:41:29Z</time>
      </trkpt>
      <trkpt lat="49.25157" lon="6.79258">
        <ele>186.4</ele>
        <time>2020-06-26T19:41:30Z</time>
      </trkpt>
      <trkpt lat="49.25151" lon="6.79247">
        <ele>186.3</ele>
        <time>2020-06-26T19:41:31Z</time>
      </trkpt>
      <trkpt lat="49.25145" lon="6.79236">
        <ele>186.3</ele>
        <time>2020-06-26T19:41:32Z</time>
      </trkpt>
      <trkpt lat="49.25139" lon="6.79225">
        <ele>186.3</ele>
        <time>2020-06-26T19:41:33Z</time>
      </trkpt>
      <trkpt lat="49.25133" lon="6.79215">
        <ele>186.3</ele>
        <time>2020-06-26T19:41:34Z</time>
      </trkpt>
      <trkpt lat="49.25127" lon="6.79206">
        <ele>186.3</ele>
        <time>2020-06-26T19:41:35Z</time>
      </trkpt>
      <trkpt lat="49.2512" lon="6.79198">
        <ele>186.3</ele>
        <time>2020-06-26T19:41:36Z</time>
      </trkpt>
      <trkpt lat="49.25113" lon="6.79191">
        <ele>186.3</ele>
        <time>2020-06-26T19:41:37Z</time>
      </trkpt>
      <trkpt lat="49.25106" lon="6.79185">
        <ele>186.4</ele>
        <time>2020-06-26T19:41:38Z</time>
      </trkpt>
      <trkpt lat="49.25099" lon="6.7918">
        <ele>186.4</ele>
        <time>2020-06-26T19:41:39Z</time>
      </trkpt>
      <trkpt lat="49.25091" lon="6.79176">
        <ele>186.4</ele>
        <time>2020-06-26T19:41:40Z</time>
      </trkpt>
      <trkpt lat="49.25084" lon="6.79173">
        <ele>186.4</ele>
        <time>2020-06-26T19:41:41Z</time>
      </trkpt>
      <trkpt lat="49.25077" lon="6.79169">
        <ele>186.4</ele>
        <time>2020-06-26T19:41:42Z</time>
      </trkpt>
      <trkpt lat="49.2507" lon="6.79166">
        <ele>186.5</ele>
        <time>2020-06-26T19:41:43Z</time>
      </trkpt>
      <trkpt lat="49.25063" lon="6.79163">
        <ele>186.5</ele>
        <time>2020-06-26T19:41:44Z</time>
      </trkpt>
      <trkpt lat="49.25056" lon="6.7916">
        <ele>186.6</ele>
        <time>2020-06-26T19:41:45Z</time>
      </trkpt>
      <trkpt lat="49.2505" lon="6.79157">
        <ele>186.7</ele>
        <time>2020-06-26T19:41:46Z</time>
      </trkpt>
      <trkpt lat="49.25043" lon="6.79153">
        <ele>186.8</ele>
        <time>2020-06-26T19:41:47Z</time>
      </trkpt>
      <trkpt lat="49.25037" lon="6.7915">
        <ele>186.9</ele>
        <time>2020-06-26T19:41:48Z</time>
      </trkpt>
      <trkpt lat="49.25031" lon="6.79147">
        <ele>187</ele>
        <time>2020-06-26T19:41:49Z</time>
      </trkpt>
      <trkpt lat="49.25025" lon="6.79144">
        <ele>187.1</ele>
        <time>2020-06-26T19:41:50Z</time>
      </trkpt>
      <trkpt lat="49.25018" lon="6.79142">
        <ele>187.1</ele>
        <time>2020-06-26T19:41:51Z</time>
      </trkpt>
      <trkpt lat="49.25012" lon="6.79139">
        <ele>187.2</ele>
        <time>2020-06-26T19:41:52Z</time>
      </trkpt>
      <trkpt lat="49.25007" lon="6.79137">
        <ele>187.3</ele>
        <time>2020-06-26T19:41:53Z</time>
      </trkpt>
      <trkpt lat="49.25001" lon="6.79135">
        <ele>187.3</ele>
        <time>2020-06-26T19:41:54Z</time>
      </trkpt>
      <trkpt lat="49.24995" lon="6.79132">
        <ele>187.3</ele>
        <time>2020-06-26T19:41:55Z</time>
      </trkpt>
      <trkpt lat="49.2499" lon="6.7913">
        <ele>187.4</ele>
        <time>2020-06-26T19:41:56Z</time>
      </trkpt>
      <trkpt lat="49.24984" lon="6.79129">
        <ele>187.4</ele>
        <time>2020-06-26T19:41:57Z</time>
      </trkpt>
      <trkpt lat="49.24978" lon="6.79129">
        <ele>187.5</ele>
        <time>2020-06-26T19:41:58Z</time>
      </trkpt>
      <trkpt lat="49.24972" lon="6.79132">
        <ele>187.6</ele>
        <time>2020-06-26T19:41:59Z</time>
      </trkpt>
      <trkpt lat="49.24967" lon="6.79139">
        <ele>187.7</ele>
        <time>2020-06-26T19:42:00Z</time>
      </trkpt>
      <trkpt lat="49.24962" lon="6.79146">
        <ele>187.8</ele>
        <time>2020-06-26T19:42:01Z</time>
      </trkpt>
      <trkpt lat="49.24958" lon="6.79154">
        <ele>187.8</ele>
        <time>2020-06-26T19:42:02Z</time>
      </trkpt>
      <trkpt lat="49.24955" lon="6.79164">
        <ele>187.9</ele>
        <time>2020-06-26T19:42:03Z</time>
      </trkpt>
      <trkpt lat="49.24953" lon="6.79174">
        <ele>187.9</ele>
        <time>2020-06-26T19:42:04Z</time>
      </trkpt>
      <trkpt lat="49.24951" lon="6.79184">
        <ele>188</ele>
        <time>2020-06-26T19:42:05Z</time>
      </trkpt>
      <trkpt lat="49.24949" lon="6.79194">
        <ele>188.1</ele>
        <time>2020-06-26T19:42:06Z</time>
      </trkpt>
      <trkpt lat="49.24947" lon="6.79204">
        <ele>188.1</ele>
        <time>2020-06-26T19:42:07Z</time>
      </trkpt>
      <trkpt lat="49.24945" lon="6.79213">
        <ele>188.3</ele>
        <time>2020-06-26T19:42:08Z</time>
      </trkpt>
      <trkpt lat="49.24944" lon="6.79222">
        <ele>188.2</ele>
        <time>2020-06-26T19:42:09Z</time>
      </trkpt>
      <trkpt lat="49.24942" lon="6.79231">
        <ele>188.2</ele>
        <time>2020-06-26T19:42:10Z</time>
      </trkpt>
      <trkpt lat="49.2494" lon="6.7924">
        <ele>188.1</ele>
        <time>2020-06-26T19:42:11Z</time>
      </trkpt>
      <trkpt lat="49.24938" lon="6.79249">
        <ele>188.1</ele>
        <time>2020-06-26T19:42:12Z</time>
      </trkpt>
      <trkpt lat="49.24936" lon="6.79258">
        <ele>188.1</ele>
        <time>2020-06-26T19:42:13Z</time>
      </trkpt>
      <trkpt lat="49.24934" lon="6.79267">
        <ele>188.1</ele>
        <time>2020-06-26T19:42:14Z</time>
      </trkpt>
      <trkpt lat="49.24931" lon="6.79276">
        <ele>188.1</ele>
        <time>2020-06-26T19:42:15Z</time>
      </trkpt>
      <trkpt lat="49.24929" lon="6.79284">
        <ele>188.1</ele>
        <time>2020-06-26T19:42:16Z</time>
      </trkpt>
      <trkpt lat="49.24926" lon="6.79293">
        <ele>188.1</ele>
        <time>2020-06-26T19:42:17Z</time>
      </trkpt>
      <trkpt lat="49.24921" lon="6.793">
        <ele>188.2</ele>
        <time>2020-06-26T19:42:18Z</time>
      </trkpt>
      <trkpt lat="49.24917" lon="6.79308">
        <ele>188.2</ele>
        <time>2020-06-26T19:42:19Z</time>
      </trkpt>
      <trkpt lat="49.24912" lon="6.79315">
        <ele>188.2</ele>
        <time>2020-06-26T19:42:20Z</time>
      </trkpt>
      <trkpt lat="49.24907" lon="6.79321">
        <ele>188.1</ele>
        <time>2020-06-26T19:42:21Z</time>
      </trkpt>
      <trkpt lat="49.24902" lon="6.79328">
        <ele>188.1</ele>
        <time>2020-06-26T19:42:22Z</time>
      </trkpt>
      <trkpt lat="49.24896" lon="6.79333">
        <ele>188.1</ele>
        <time>2020-06-26T19:42:23Z</time>
      </trkpt>
      <trkpt lat="49.24891" lon="6.79338">
        <ele>188.1</ele>
        <time>2020-06-26T19:42:24Z</time>
      </trkpt>
      <trkpt lat="49.24885" lon="6.79343">
        <ele>188.2</ele>
        <time>2020-06-26T19:42:25Z</time>
      </trkpt>
      <trkpt lat="49.2488" lon="6.79346">
        <ele>188.2</ele>
        <time>2020-06-26T19:42:26Z</time>
      </trkpt>
      <trkpt lat="49.24874" lon="6.7935">
        <ele>188.2</ele>
        <time>2020-06-26T19:42:27Z</time>
      </trkpt>
      <trkpt lat="49.24868" lon="6.79354">
        <ele>188.2</ele>
        <time>2020-06-26T19:42:28Z</time>
      </trkpt>
      <trkpt lat="49.24863" lon="6.79358">
        <ele>188.2</ele>
        <time>2020-06-26T19:42:29Z</time>
      </trkpt>
      <trkpt lat="49.24856" lon="6.7936">
        <ele>188.2</ele>
        <time>2020-06-26T19:42:30Z</time>
      </trkpt>
      <trkpt lat="49.2485" lon="6.79362">
        <ele>188.2</ele>
        <time>2020-06-26T19:42:31Z</time>
      </trkpt>
      <trkpt lat="49.24844" lon="6.79365">
        <ele>188.1</ele>
        <time>2020-06-26T19:42:32Z</time>
      </trkpt>
      <trkpt lat="49.24838" lon="6.79368">
        <ele>188.1</ele>
        <time>2020-06-26T19:42:33Z</time>
      </trkpt>
      <trkpt lat="49.24831" lon="6.7937">
        <ele>188</ele>
        <time>2020-06-26T19:42:34Z</time>
      </trkpt>
      <trkpt lat="49.24825" lon="6.7937">
        <ele>188</ele>
        <time>2020-06-26T19:42:35Z</time>
      </trkpt>
      <trkpt lat="49.24819" lon="6.7937">
        <ele>188</ele>
        <time>2020-06-26T19:42:36Z</time>
      </trkpt>
      <trkpt lat="49.24813" lon="6.7937">
        <ele>188</ele>
        <time>2020-06-26T19:42:37Z</time>
      </trkpt>
      <trkpt lat="49.24806" lon="6.79369">
        <ele>188</ele>
        <time>2020-06-26T19:42:38Z</time>
      </trkpt>
      <trkpt lat="49.248" lon="6.79368">
        <ele>188</ele>
        <time>2020-06-26T19:42:39Z</time>
      </trkpt>
      <trkpt lat="49.24795" lon="6.79367">
        <ele>188</ele>
        <time>2020-06-26T19:42:40Z</time>
      </trkpt>
      <trkpt lat="49.24789" lon="6.79367">
        <ele>188.1</ele>
        <time>2020-06-26T19:42:41Z</time>
      </trkpt>
      <trkpt lat="49.24784" lon="6.79366">
        <ele>188.2</ele>
        <time>2020-06-26T19:42:42Z</time>
      </trkpt>
      <trkpt lat="49.24778" lon="6.79365">
        <ele>188.3</ele>
        <time>2020-06-26T19:42:43Z</time>
      </trkpt>
      <trkpt lat="49.24773" lon="6.79364">
        <ele>188.4</ele>
        <time>2020-06-26T19:42:44Z</time>
      </trkpt>
      <trkpt lat="49.24768" lon="6.79363">
        <ele>188.5</ele>
        <time>2020-06-26T19:42:45Z</time>
      </trkpt>
      <trkpt lat="49.24763" lon="6.79362">
        <ele>188.6</ele>
        <time>2020-06-26T19:42:46Z</time>
      </trkpt>
      <trkpt lat="49.24758" lon="6.79361">
        <ele>188.7</ele>
        <time>2020-06-26T19:42:47Z</time>
      </trkpt>
      <trkpt lat="49.24753" lon="6.7936">
        <ele>188.8</ele>
        <time>2020-06-26T19:42:48Z</time>
      </trkpt>
      <trkpt lat="49.24748" lon="6.79359">
        <ele>189</ele>
        <time>2020-06-26T19:42:49Z</time>
      </trkpt>
      <trkpt lat="49.24743" lon="6.7936">
        <ele>189.1</ele>
        <time>2020-06-26T19:42:50Z</time>
      </trkpt>
      <trkpt lat="49.24738" lon="6.79361">
        <ele>189.2</ele>
        <time>2020-06-26T19:42:51Z</time>
      </trkpt>
      <trkpt lat="49.24732" lon="6.79364">
        <ele>189.4</ele>
        <time>2020-06-26T19:42:52Z</time>
      </trkpt>
      <trkpt lat="49.24727" lon="6.79368">
        <ele>189.6</ele>
        <time>2020-06-26T19:42:53Z</time>
      </trkpt>
      <trkpt lat="49.24722" lon="6.79371">
        <ele>189.8</ele>
        <time>2020-06-26T19:42:54Z</time>
      </trkpt>
      <trkpt lat="49.24717" lon="6.79373">
        <ele>190</ele>
        <time>2020-06-26T19:42:55Z</time>
      </trkpt>
      <trkpt lat="49.24711" lon="6.79374">
        <ele>190.2</ele>
        <time>2020-06-26T19:42:56Z</time>
      </trkpt>
      <trkpt lat="49.24707" lon="6.79374">
        <ele>190.4</ele>
        <time>2020-06-26T19:42:57Z</time>
      </trkpt>
      <trkpt lat="49.24703" lon="6.79374">
        <ele>190.6</ele>
        <time>2020-06-26T19:42:58Z</time>
      </trkpt>
      <trkpt lat="49.247" lon="6.79373">
        <ele>190.9</ele>
        <time>2020-06-26T19:42:59Z</time>
      </trkpt>
      <trkpt lat="49.24696" lon="6.79374">
        <ele>191.9</ele>
        <time>2020-06-26T19:43:00Z</time>
      </trkpt>
      <trkpt lat="49.24693" lon="6.79376">
        <ele>191.9</ele>
        <time>2020-06-26T19:43:01Z</time>
      </trkpt>
      <trkpt lat="49.2469" lon="6.79379">
        <ele>191.9</ele>
        <time>2020-06-26T19:43:02Z</time>
      </trkpt>
      <trkpt lat="49.24687" lon="6.79383">
        <ele>192.3</ele>
        <time>2020-06-26T19:43:03Z</time>
      </trkpt>
      <trkpt lat="49.24684" lon="6.79386">
        <ele>192.5</ele>
        <time>2020-06-26T19:43:04Z</time>
      </trkpt>
      <trkpt lat="49.24681" lon="6.79389">
        <ele>192.6</ele>
        <time>2020-06-26T19:43:05Z</time>
      </trkpt>
      <trkpt lat="49.24678" lon="6.79391">
        <ele>192.7</ele>
        <time>2020-06-26T19:43:06Z</time>
      </trkpt>
      <trkpt lat="49.24675" lon="6.79394">
        <ele>192.9</ele>
        <time>2020-06-26T19:43:07Z</time>
      </trkpt>
      <trkpt lat="49.24671" lon="6.79397">
        <ele>193</ele>
        <time>2020-06-26T19:43:08Z</time>
      </trkpt>
      <trkpt lat="49.24668" lon="6.794">
        <ele>193.2</ele>
        <time>2020-06-26T19:43:09Z</time>
      </trkpt>
      <trkpt lat="49.24665" lon="6.79401">
        <ele>193.4</ele>
        <time>2020-06-26T19:43:10Z</time>
      </trkpt>
      <trkpt lat="49.24662" lon="6.79403">
        <ele>193.5</ele>
        <time>2020-06-26T19:43:11Z</time>
      </trkpt>
      <trkpt lat="49.24659" lon="6.79406">
        <ele>193.7</ele>
        <time>2020-06-26T19:43:12Z</time>
      </trkpt>
      <trkpt lat="49.24656" lon="6.79408">
        <ele>193.8</ele>
        <time>2020-06-26T19:43:13Z</time>
      </trkpt>
      <trkpt lat="49.24653" lon="6.79409">
        <ele>194</ele>
        <time>2020-06-26T19:43:14Z</time>
      </trkpt>
      <trkpt lat="49.24649" lon="6.7941">
        <ele>194.2</ele>
        <time>2020-06-26T19:43:15Z</time>
      </trkpt>
      <trkpt lat="49.24646" lon="6.79411">
        <ele>194.3</ele>
        <time>2020-06-26T19:43:16Z</time>
      </trkpt>
      <trkpt lat="49.24643" lon="6.79413">
        <ele>194.5</ele>
        <time>2020-06-26T19:43:17Z</time>
      </trkpt>
      <trkpt lat="49.2464" lon="6.79415">
        <ele>194.7</ele>
        <time>2020-06-26T19:43:18Z</time>
      </trkpt>
      <trkpt lat="49.24636" lon="6.79418">
        <ele>194.9</ele>
        <time>2020-06-26T19:43:19Z</time>
      </trkpt>
      <trkpt lat="49.24633" lon="6.79421">
        <ele>195.1</ele>
        <time>2020-06-26T19:43:20Z</time>
      </trkpt>
      <trkpt lat="49.24629" lon="6.79425">
        <ele>195.3</ele>
        <time>2020-06-26T19:43:21Z</time>
      </trkpt>
      <trkpt lat="49.24625" lon="6.79428">
        <ele>195.6</ele>
        <time>2020-06-26T19:43:22Z</time>
      </trkpt>
      <trkpt lat="49.24622" lon="6.79431">
        <ele>195.8</ele>
        <time>2020-06-26T19:43:23Z</time>
      </trkpt>
      <trkpt lat="49.2462" lon="6.79434">
        <ele>196</ele>
        <time>2020-06-26T19:43:24Z</time>
      </trkpt>
      <trkpt lat="49.24617" lon="6.79436">
        <ele>196.1</ele>
        <time>2020-06-26T19:43:25Z</time>
      </trkpt>
      <trkpt lat="49.24614" lon="6.7944">
        <ele>196.3</ele>
        <time>2020-06-26T19:43:26Z</time>
      </trkpt>
      <trkpt lat="49.24613" lon="6.79441">
        <ele>196.4</ele>
        <time>2020-06-26T19:43:27Z</time>
      </trkpt>
      <trkpt lat="49.24608" lon="6.79444">
        <ele>196.6</ele>
        <time>2020-06-26T19:43:28Z</time>
      </trkpt>
      <trkpt lat="49.24605" lon="6.79445">
        <ele>196.8</ele>
        <time>2020-06-26T19:43:29Z</time>
      </trkpt>
      <trkpt lat="49.24602" lon="6.79447">
        <ele>197</ele>
        <time>2020-06-26T19:43:30Z</time>
      </trkpt>
      <trkpt lat="49.24598" lon="6.79449">
        <ele>197.2</ele>
        <time>2020-06-26T19:43:31Z</time>
      </trkpt>
      <trkpt lat="49.24596" lon="6.79451">
        <ele>197.3</ele>
        <time>2020-06-26T19:43:32Z</time>
      </trkpt>
      <trkpt lat="49.24592" lon="6.79453">
        <ele>197.5</ele>
        <time>2020-06-26T19:43:33Z</time>
      </trkpt>
      <trkpt lat="49.24589" lon="6.79455">
        <ele>197.6</ele>
        <time>2020-06-26T19:43:34Z</time>
      </trkpt>
      <trkpt lat="49.24586" lon="6.79459">
        <ele>197.8</ele>
        <time>2020-06-26T19:43:35Z</time>
      </trkpt>
      <trkpt lat="49.24582" lon="6.79462">
        <ele>198.1</ele>
        <time>2020-06-26T19:43:36Z</time>
      </trkpt>
      <trkpt lat="49.24579" lon="6.79465">
        <ele>198.2</ele>
        <time>2020-06-26T19:43:37Z</time>
      </trkpt>
      <trkpt lat="49.24576" lon="6.79467">
        <ele>198.3</ele>
        <time>2020-06-26T19:43:38Z</time>
      </trkpt>
      <trkpt lat="49.24574" lon="6.79471">
        <ele>198.4</ele>
        <time>2020-06-26T19:43:39Z</time>
      </trkpt>
      <trkpt lat="49.24571" lon="6.79476">
        <ele>198.5</ele>
        <time>2020-06-26T19:43:40Z</time>
      </trkpt>
      <trkpt lat="49.24568" lon="6.7948">
        <ele>198.7</ele>
        <time>2020-06-26T19:43:41Z</time>
      </trkpt>
      <trkpt lat="49.24567" lon="6.79483">
        <ele>198.7</ele>
        <time>2020-06-26T19:43:42Z</time>
      </trkpt>
      <trkpt lat="49.24565" lon="6.79488">
        <ele>198.9</ele>
        <time>2020-06-26T19:43:43Z</time>
      </trkpt>
      <trkpt lat="49.24563" lon="6.79492">
        <ele>199</ele>
        <time>2020-06-26T19:43:44Z</time>
      </trkpt>
      <trkpt lat="49.24561" lon="6.79496">
        <ele>199.1</ele>
        <time>2020-06-26T19:43:45Z</time>
      </trkpt>
      <trkpt lat="49.24559" lon="6.79501">
        <ele>199.2</ele>
        <time>2020-06-26T19:43:46Z</time>
      </trkpt>
      <trkpt lat="49.24556" lon="6.79507">
        <ele>199.3</ele>
        <time>2020-06-26T19:43:47Z</time>
      </trkpt>
      <trkpt lat="49.24554" lon="6.79509">
        <ele>199.4</ele>
        <time>2020-06-26T19:43:48Z</time>
      </trkpt>
      <trkpt lat="49.24552" lon="6.79514">
        <ele>199.5</ele>
        <time>2020-06-26T19:43:49Z</time>
      </trkpt>
      <trkpt lat="49.24549" lon="6.7952">
        <ele>199.6</ele>
        <time>2020-06-26T19:43:50Z</time>
      </trkpt>
      <trkpt lat="49.24547" lon="6.79524">
        <ele>199.7</ele>
        <time>2020-06-26T19:43:51Z</time>
      </trkpt>
      <trkpt lat="49.24545" lon="6.79528">
        <ele>199.8</ele>
        <time>2020-06-26T19:43:52Z</time>
      </trkpt>
      <trkpt lat="49.24543" lon="6.79532">
        <ele>199.9</ele>
        <time>2020-06-26T19:43:53Z</time>
      </trkpt>
      <trkpt lat="49.24541" lon="6.79536">
        <ele>200</ele>
        <time>2020-06-26T19:43:54Z</time>
      </trkpt>
      <trkpt lat="49.24538" lon="6.7954">
        <ele>200.1</ele>
        <time>2020-06-26T19:43:55Z</time>
      </trkpt>
      <trkpt lat="49.24535" lon="6.79544">
        <ele>200.2</ele>
        <time>2020-06-26T19:43:56Z</time>
      </trkpt>
      <trkpt lat="49.24534" lon="6.79546">
        <ele>200.3</ele>
        <time>2020-06-26T19:43:57Z</time>
      </trkpt>
      <trkpt lat="49.24531" lon="6.79549">
        <ele>200.5</ele>
        <time>2020-06-26T19:43:58Z</time>
      </trkpt>
      <trkpt lat="49.24528" lon="6.79554">
        <ele>200.7</ele>
        <time>2020-06-26T19:43:59Z</time>
      </trkpt>
      <trkpt lat="49.24525" lon="6.79558">
        <ele>200.9</ele>
        <time>2020-06-26T19:44:00Z</time>
      </trkpt>
      <trkpt lat="49.24522" lon="6.79561">
        <ele>201</ele>
        <time>2020-06-26T19:44:01Z</time>
      </trkpt>
      <trkpt lat="49.2452" lon="6.79565">
        <ele>201.1</ele>
        <time>2020-06-26T19:44:02Z</time>
      </trkpt>
      <trkpt lat="49.24517" lon="6.79569">
        <ele>201.2</ele>
        <time>2020-06-26T19:44:03Z</time>
      </trkpt>
      <trkpt lat="49.24514" lon="6.79573">
        <ele>201.4</ele>
        <time>2020-06-26T19:44:04Z</time>
      </trkpt>
      <trkpt lat="49.24511" lon="6.79578">
        <ele>201.5</ele>
        <time>2020-06-26T19:44:05Z</time>
      </trkpt>
      <trkpt lat="49.24508" lon="6.79582">
        <ele>201.7</ele>
        <time>2020-06-26T19:44:06Z</time>
      </trkpt>
      <trkpt lat="49.24505" lon="6.79586">
        <ele>201.8</ele>
        <time>2020-06-26T19:44:07Z</time>
      </trkpt>
      <trkpt lat="49.24501" lon="6.7959">
        <ele>202</ele>
        <time>2020-06-26T19:44:08Z</time>
      </trkpt>
      <trkpt lat="49.24498" lon="6.79595">
        <ele>202.1</ele>
        <time>2020-06-26T19:44:09Z</time>
      </trkpt>
      <trkpt lat="49.24495" lon="6.79599">
        <ele>202.2</ele>
        <time>2020-06-26T19:44:10Z</time>
      </trkpt>
      <trkpt lat="49.24492" lon="6.79603">
        <ele>202.4</ele>
        <time>2020-06-26T19:44:11Z</time>
      </trkpt>
      <trkpt lat="49.24489" lon="6.79607">
        <ele>202.5</ele>
        <time>2020-06-26T19:44:12Z</time>
      </trkpt>
      <trkpt lat="49.24485" lon="6.79611">
        <ele>202.7</ele>
        <time>2020-06-26T19:44:13Z</time>
      </trkpt>
      <trkpt lat="49.24481" lon="6.79614">
        <ele>202.8</ele>
        <time>2020-06-26T19:44:14Z</time>
      </trkpt>
      <trkpt lat="49.24478" lon="6.79619">
        <ele>203</ele>
        <time>2020-06-26T19:44:15Z</time>
      </trkpt>
      <trkpt lat="49.24473" lon="6.79624">
        <ele>203.2</ele>
        <time>2020-06-26T19:44:16Z</time>
      </trkpt>
      <trkpt lat="49.2447" lon="6.79628">
        <ele>203.3</ele>
        <time>2020-06-26T19:44:17Z</time>
      </trkpt>
      <trkpt lat="49.24469" lon="6.79629">
        <ele>203.3</ele>
        <time>2020-06-26T19:44:18Z</time>
      </trkpt>
      <trkpt lat="49.24466" lon="6.79632">
        <ele>203.4</ele>
        <time>2020-06-26T19:44:19Z</time>
      </trkpt>
      <trkpt lat="49.24463" lon="6.79636">
        <ele>203.6</ele>
        <time>2020-06-26T19:44:20Z</time>
      </trkpt>
      <trkpt lat="49.24459" lon="6.7964">
        <ele>203.7</ele>
        <time>2020-06-26T19:44:21Z</time>
      </trkpt>
      <trkpt lat="49.24456" lon="6.79643">
        <ele>203.8</ele>
        <time>2020-06-26T19:44:22Z</time>
      </trkpt>
      <trkpt lat="49.24453" lon="6.79646">
        <ele>203.9</ele>
        <time>2020-06-26T19:44:23Z</time>
      </trkpt>
      <trkpt lat="49.2445" lon="6.79648">
        <ele>204</ele>
        <time>2020-06-26T19:44:24Z</time>
      </trkpt>
      <trkpt lat="49.24448" lon="6.7965">
        <ele>204.1</ele>
        <time>2020-06-26T19:44:25Z</time>
      </trkpt>
      <trkpt lat="49.24445" lon="6.79654">
        <ele>204.2</ele>
        <time>2020-06-26T19:44:26Z</time>
      </trkpt>
      <trkpt lat="49.2444" lon="6.79658">
        <ele>204.3</ele>
        <time>2020-06-26T19:44:27Z</time>
      </trkpt>
      <trkpt lat="49.24437" lon="6.79661">
        <ele>204.4</ele>
        <time>2020-06-26T19:44:28Z</time>
      </trkpt>
      <trkpt lat="49.24434" lon="6.79663">
        <ele>204.5</ele>
        <time>2020-06-26T19:44:29Z</time>
      </trkpt>
      <trkpt lat="49.2443" lon="6.79666">
        <ele>204.6</ele>
        <time>2020-06-26T19:44:30Z</time>
      </trkpt>
      <trkpt lat="49.24425" lon="6.79668">
        <ele>204.7</ele>
        <time>2020-06-26T19:44:31Z</time>
      </trkpt>
      <trkpt lat="49.24422" lon="6.7967">
        <ele>204.8</ele>
        <time>2020-06-26T19:44:32Z</time>
      </trkpt>
      <trkpt lat="49.24419" lon="6.79672">
        <ele>204.9</ele>
        <time>2020-06-26T19:44:33Z</time>
      </trkpt>
      <trkpt lat="49.24415" lon="6.79674">
        <ele>205</ele>
        <time>2020-06-26T19:44:34Z</time>
      </trkpt>
      <trkpt lat="49.24413" lon="6.79676">
        <ele>205.1</ele>
        <time>2020-06-26T19:44:35Z</time>
      </trkpt>
      <trkpt lat="49.24409" lon="6.79679">
        <ele>205.2</ele>
        <time>2020-06-26T19:44:36Z</time>
      </trkpt>
      <trkpt lat="49.24404" lon="6.79683">
        <ele>205.4</ele>
        <time>2020-06-26T19:44:37Z</time>
      </trkpt>
      <trkpt lat="49.24401" lon="6.79685">
        <ele>205.4</ele>
        <time>2020-06-26T19:44:38Z</time>
      </trkpt>
      <trkpt lat="49.24396" lon="6.79689">
        <ele>205.6</ele>
        <time>2020-06-26T19:44:39Z</time>
      </trkpt>
      <trkpt lat="49.24392" lon="6.79691">
        <ele>205.7</ele>
        <time>2020-06-26T19:44:40Z</time>
      </trkpt>
      <trkpt lat="49.24389" lon="6.79692">
        <ele>205.7</ele>
        <time>2020-06-26T19:44:41Z</time>
      </trkpt>
      <trkpt lat="49.24385" lon="6.79693">
        <ele>205.8</ele>
        <time>2020-06-26T19:44:42Z</time>
      </trkpt>
      <trkpt lat="49.24382" lon="6.79694">
        <ele>205.8</ele>
        <time>2020-06-26T19:44:43Z</time>
      </trkpt>
      <trkpt lat="49.24378" lon="6.79696">
        <ele>205.9</ele>
        <time>2020-06-26T19:44:44Z</time>
      </trkpt>
      <trkpt lat="49.24375" lon="6.79697">
        <ele>205.9</ele>
        <time>2020-06-26T19:44:45Z</time>
      </trkpt>
      <trkpt lat="49.24371" lon="6.79699">
        <ele>205.9</ele>
        <time>2020-06-26T19:44:46Z</time>
      </trkpt>
      <trkpt lat="49.24367" lon="6.79699">
        <ele>205.9</ele>
        <time>2020-06-26T19:44:47Z</time>
      </trkpt>
      <trkpt lat="49.24362" lon="6.797">
        <ele>205.8</ele>
        <time>2020-06-26T19:44:48Z</time>
      </trkpt>
      <trkpt lat="49.24358" lon="6.797">
        <ele>205.7</ele>
        <time>2020-06-26T19:44:49Z</time>
      </trkpt>
      <trkpt lat="49.24352" lon="6.797">
        <ele>205.7</ele>
        <time>2020-06-26T19:44:50Z</time>
      </trkpt>
      <trkpt lat="49.24348" lon="6.79699">
        <ele>205.6</ele>
        <time>2020-06-26T19:44:51Z</time>
      </trkpt>
      <trkpt lat="49.24343" lon="6.79699">
        <ele>205.5</ele>
        <time>2020-06-26T19:44:52Z</time>
      </trkpt>
      <trkpt lat="49.24338" lon="6.79699">
        <ele>205.3</ele>
        <time>2020-06-26T19:44:53Z</time>
      </trkpt>
      <trkpt lat="49.24332" lon="6.79698">
        <ele>205.2</ele>
        <time>2020-06-26T19:44:54Z</time>
      </trkpt>
      <trkpt lat="49.24326" lon="6.79697">
        <ele>205</ele>
        <time>2020-06-26T19:44:55Z</time>
      </trkpt>
      <trkpt lat="49.2432" lon="6.79696">
        <ele>204.8</ele>
        <time>2020-06-26T19:44:56Z</time>
      </trkpt>
      <trkpt lat="49.24315" lon="6.79694">
        <ele>204.5</ele>
        <time>2020-06-26T19:44:57Z</time>
      </trkpt>
      <trkpt lat="49.24309" lon="6.79692">
        <ele>204.3</ele>
        <time>2020-06-26T19:44:58Z</time>
      </trkpt>
      <trkpt lat="49.24303" lon="6.79691">
        <ele>204</ele>
        <time>2020-06-26T19:44:59Z</time>
      </trkpt>
      <trkpt lat="49.24296" lon="6.79688">
        <ele>203.7</ele>
        <time>2020-06-26T19:45:00Z</time>
      </trkpt>
      <trkpt lat="49.24289" lon="6.79685">
        <ele>203.5</ele>
        <time>2020-06-26T19:45:01Z</time>
      </trkpt>
      <trkpt lat="49.24283" lon="6.79682">
        <ele>203.3</ele>
        <time>2020-06-26T19:45:02Z</time>
      </trkpt>
      <trkpt lat="49.24276" lon="6.79679">
        <ele>203</ele>
        <time>2020-06-26T19:45:03Z</time>
      </trkpt>
      <trkpt lat="49.24269" lon="6.79676">
        <ele>202.8</ele>
        <time>2020-06-26T19:45:04Z</time>
      </trkpt>
      <trkpt lat="49.24262" lon="6.79673">
        <ele>202.6</ele>
        <time>2020-06-26T19:45:05Z</time>
      </trkpt>
      <trkpt lat="49.24255" lon="6.7967">
        <ele>202.4</ele>
        <time>2020-06-26T19:45:06Z</time>
      </trkpt>
      <trkpt lat="49.24249" lon="6.79667">
        <ele>202.1</ele>
        <time>2020-06-26T19:45:07Z</time>
      </trkpt>
      <trkpt lat="49.24242" lon="6.79664">
        <ele>201.9</ele>
        <time>2020-06-26T19:45:08Z</time>
      </trkpt>
      <trkpt lat="49.24235" lon="6.79661">
        <ele>201.7</ele>
        <time>2020-06-26T19:45:09Z</time>
      </trkpt>
      <trkpt lat="49.24228" lon="6.79658">
        <ele>201.5</ele>
        <time>2020-06-26T19:45:10Z</time>
      </trkpt>
      <trkpt lat="49.24221" lon="6.79654">
        <ele>201.3</ele>
        <time>2020-06-26T19:45:11Z</time>
      </trkpt>
      <trkpt lat="49.24215" lon="6.79652">
        <ele>201.2</ele>
        <time>2020-06-26T19:45:12Z</time>
      </trkpt>
      <trkpt lat="49.24209" lon="6.79649">
        <ele>201</ele>
        <time>2020-06-26T19:45:13Z</time>
      </trkpt>
      <trkpt lat="49.24202" lon="6.79646">
        <ele>200.9</ele>
        <time>2020-06-26T19:45:14Z</time>
      </trkpt>
      <trkpt lat="49.24196" lon="6.79644">
        <ele>200.8</ele>
        <time>2020-06-26T19:45:15Z</time>
      </trkpt>
      <trkpt lat="49.24189" lon="6.79641">
        <ele>200.7</ele>
        <time>2020-06-26T19:45:16Z</time>
      </trkpt>
      <trkpt lat="49.24182" lon="6.7964">
        <ele>200.7</ele>
        <time>2020-06-26T19:45:17Z</time>
      </trkpt>
      <trkpt lat="49.24175" lon="6.79638">
        <ele>200.7</ele>
        <time>2020-06-26T19:45:18Z</time>
      </trkpt>
      <trkpt lat="49.24168" lon="6.79637">
        <ele>200.8</ele>
        <time>2020-06-26T19:45:19Z</time>
      </trkpt>
      <trkpt lat="49.24162" lon="6.79637">
        <ele>200.9</ele>
        <time>2020-06-26T19:45:20Z</time>
      </trkpt>
      <trkpt lat="49.24155" lon="6.79636">
        <ele>201</ele>
        <time>2020-06-26T19:45:21Z</time>
      </trkpt>
      <trkpt lat="49.24148" lon="6.79637">
        <ele>201.1</ele>
        <time>2020-06-26T19:45:22Z</time>
      </trkpt>
      <trkpt lat="49.24141" lon="6.79637">
        <ele>201.2</ele>
        <time>2020-06-26T19:45:23Z</time>
      </trkpt>
      <trkpt lat="49.24134" lon="6.79638">
        <ele>201.2</ele>
        <time>2020-06-26T19:45:24Z</time>
      </trkpt>
      <trkpt lat="49.24127" lon="6.79638">
        <ele>201.3</ele>
        <time>2020-06-26T19:45:25Z</time>
      </trkpt>
      <trkpt lat="49.24121" lon="6.79638">
        <ele>201.4</ele>
        <time>2020-06-26T19:45:26Z</time>
      </trkpt>
      <trkpt lat="49.24114" lon="6.79637">
        <ele>201.5</ele>
        <time>2020-06-26T19:45:27Z</time>
      </trkpt>
      <trkpt lat="49.24108" lon="6.79637">
        <ele>201.6</ele>
        <time>2020-06-26T19:45:28Z</time>
      </trkpt>
      <trkpt lat="49.24101" lon="6.79636">
        <ele>201.7</ele>
        <time>2020-06-26T19:45:29Z</time>
      </trkpt>
      <trkpt lat="49.24094" lon="6.79636">
        <ele>201.8</ele>
        <time>2020-06-26T19:45:30Z</time>
      </trkpt>
      <trkpt lat="49.24088" lon="6.79636">
        <ele>201.9</ele>
        <time>2020-06-26T19:45:31Z</time>
      </trkpt>
      <trkpt lat="49.24082" lon="6.79636">
        <ele>202</ele>
        <time>2020-06-26T19:45:32Z</time>
      </trkpt>
      <trkpt lat="49.24076" lon="6.79635">
        <ele>202.1</ele>
        <time>2020-06-26T19:45:33Z</time>
      </trkpt>
      <trkpt lat="49.2407" lon="6.79635">
        <ele>202.3</ele>
        <time>2020-06-26T19:45:34Z</time>
      </trkpt>
      <trkpt lat="49.24064" lon="6.79634">
        <ele>202.4</ele>
        <time>2020-06-26T19:45:35Z</time>
      </trkpt>
      <trkpt lat="49.24058" lon="6.79634">
        <ele>202.4</ele>
        <time>2020-06-26T19:45:36Z</time>
      </trkpt>
      <trkpt lat="49.24053" lon="6.79633">
        <ele>202.4</ele>
        <time>2020-06-26T19:45:37Z</time>
      </trkpt>
      <trkpt lat="49.24048" lon="6.79633">
        <ele>202.4</ele>
        <time>2020-06-26T19:45:38Z</time>
      </trkpt>
      <trkpt lat="49.24043" lon="6.79632">
        <ele>202.4</ele>
        <time>2020-06-26T19:45:39Z</time>
      </trkpt>
      <trkpt lat="49.24038" lon="6.7963">
        <ele>202.3</ele>
        <time>2020-06-26T19:45:40Z</time>
      </trkpt>
      <trkpt lat="49.24033" lon="6.79629">
        <ele>202.2</ele>
        <time>2020-06-26T19:45:41Z</time>
      </trkpt>
      <trkpt lat="49.24028" lon="6.79628">
        <ele>202.1</ele>
        <time>2020-06-26T19:45:42Z</time>
      </trkpt>
      <trkpt lat="49.24024" lon="6.79626">
        <ele>202</ele>
        <time>2020-06-26T19:45:43Z</time>
      </trkpt>
      <trkpt lat="49.24019" lon="6.79624">
        <ele>201.8</ele>
        <time>2020-06-26T19:45:44Z</time>
      </trkpt>
      <trkpt lat="49.24014" lon="6.79623">
        <ele>201.6</ele>
        <time>2020-06-26T19:45:45Z</time>
      </trkpt>
      <trkpt lat="49.24008" lon="6.79622">
        <ele>201.4</ele>
        <time>2020-06-26T19:45:46Z</time>
      </trkpt>
      <trkpt lat="49.24002" lon="6.7962">
        <ele>201.2</ele>
        <time>2020-06-26T19:45:47Z</time>
      </trkpt>
      <trkpt lat="49.23995" lon="6.79618">
        <ele>200.9</ele>
        <time>2020-06-26T19:45:48Z</time>
      </trkpt>
      <trkpt lat="49.23989" lon="6.79615">
        <ele>200.7</ele>
        <time>2020-06-26T19:45:49Z</time>
      </trkpt>
      <trkpt lat="49.23982" lon="6.79613">
        <ele>200.4</ele>
        <time>2020-06-26T19:45:50Z</time>
      </trkpt>
      <trkpt lat="49.23975" lon="6.7961">
        <ele>200.2</ele>
        <time>2020-06-26T19:45:51Z</time>
      </trkpt>
      <trkpt lat="49.23968" lon="6.79607">
        <ele>200</ele>
        <time>2020-06-26T19:45:52Z</time>
      </trkpt>
      <trkpt lat="49.23961" lon="6.79604">
        <ele>199.8</ele>
        <time>2020-06-26T19:45:53Z</time>
      </trkpt>
      <trkpt lat="49.23954" lon="6.79601">
        <ele>199.6</ele>
        <time>2020-06-26T19:45:54Z</time>
      </trkpt>
      <trkpt lat="49.23947" lon="6.79599">
        <ele>199.5</ele>
        <time>2020-06-26T19:45:55Z</time>
      </trkpt>
      <trkpt lat="49.2394" lon="6.79598">
        <ele>199.3</ele>
        <time>2020-06-26T19:45:56Z</time>
      </trkpt>
      <trkpt lat="49.23933" lon="6.79596">
        <ele>199.2</ele>
        <time>2020-06-26T19:45:57Z</time>
      </trkpt>
      <trkpt lat="49.23927" lon="6.79596">
        <ele>199.2</ele>
        <time>2020-06-26T19:45:58Z</time>
      </trkpt>
      <trkpt lat="49.2392" lon="6.79596">
        <ele>199.1</ele>
        <time>2020-06-26T19:45:59Z</time>
      </trkpt>
      <trkpt lat="49.23913" lon="6.79597">
        <ele>199.1</ele>
        <time>2020-06-26T19:46:00Z</time>
      </trkpt>
      <trkpt lat="49.23906" lon="6.79597">
        <ele>199.1</ele>
        <time>2020-06-26T19:46:01Z</time>
      </trkpt>
      <trkpt lat="49.239" lon="6.79598">
        <ele>199.1</ele>
        <time>2020-06-26T19:46:02Z</time>
      </trkpt>
      <trkpt lat="49.23893" lon="6.796">
        <ele>198.8</ele>
        <time>2020-06-26T19:46:03Z</time>
      </trkpt>
      <trkpt lat="49.23887" lon="6.79602">
        <ele>198.6</ele>
        <time>2020-06-26T19:46:04Z</time>
      </trkpt>
      <trkpt lat="49.23881" lon="6.79604">
        <ele>198.5</ele>
        <time>2020-06-26T19:46:05Z</time>
      </trkpt>
      <trkpt lat="49.23874" lon="6.79606">
        <ele>198.5</ele>
        <time>2020-06-26T19:46:06Z</time>
      </trkpt>
      <trkpt lat="49.23868" lon="6.79609">
        <ele>198.6</ele>
        <time>2020-06-26T19:46:07Z</time>
      </trkpt>
      <trkpt lat="49.23862" lon="6.79612">
        <ele>198.7</ele>
        <time>2020-06-26T19:46:08Z</time>
      </trkpt>
      <trkpt lat="49.23855" lon="6.79614">
        <ele>198.8</ele>
        <time>2020-06-26T19:46:09Z</time>
      </trkpt>
      <trkpt lat="49.23849" lon="6.79617">
        <ele>198.8</ele>
        <time>2020-06-26T19:46:10Z</time>
      </trkpt>
      <trkpt lat="49.23843" lon="6.7962">
        <ele>198.9</ele>
        <time>2020-06-26T19:46:11Z</time>
      </trkpt>
      <trkpt lat="49.23837" lon="6.79622">
        <ele>198.9</ele>
        <time>2020-06-26T19:46:12Z</time>
      </trkpt>
      <trkpt lat="49.23831" lon="6.79625">
        <ele>199</ele>
        <time>2020-06-26T19:46:13Z</time>
      </trkpt>
      <trkpt lat="49.23825" lon="6.79628">
        <ele>199</ele>
        <time>2020-06-26T19:46:14Z</time>
      </trkpt>
      <trkpt lat="49.23819" lon="6.79631">
        <ele>199</ele>
        <time>2020-06-26T19:46:15Z</time>
      </trkpt>
      <trkpt lat="49.23813" lon="6.79635">
        <ele>199</ele>
        <time>2020-06-26T19:46:16Z</time>
      </trkpt>
      <trkpt lat="49.23808" lon="6.79638">
        <ele>199</ele>
        <time>2020-06-26T19:46:17Z</time>
      </trkpt>
      <trkpt lat="49.23802" lon="6.79641">
        <ele>199</ele>
        <time>2020-06-26T19:46:18Z</time>
      </trkpt>
      <trkpt lat="49.23796" lon="6.79644">
        <ele>199.1</ele>
        <time>2020-06-26T19:46:19Z</time>
      </trkpt>
      <trkpt lat="49.23791" lon="6.79647">
        <ele>199.2</ele>
        <time>2020-06-26T19:46:20Z</time>
      </trkpt>
      <trkpt lat="49.23786" lon="6.7965">
        <ele>199.3</ele>
        <time>2020-06-26T19:46:21Z</time>
      </trkpt>
      <trkpt lat="49.23781" lon="6.79652">
        <ele>199.5</ele>
        <time>2020-06-26T19:46:22Z</time>
      </trkpt>
      <trkpt lat="49.23776" lon="6.79655">
        <ele>199.7</ele>
        <time>2020-06-26T19:46:23Z</time>
      </trkpt>
      <trkpt lat="49.23771" lon="6.79658">
        <ele>199.8</ele>
        <time>2020-06-26T19:46:24Z</time>
      </trkpt>
      <trkpt lat="49.23766" lon="6.79661">
        <ele>199.9</ele>
        <time>2020-06-26T19:46:25Z</time>
      </trkpt>
      <trkpt lat="49.2376" lon="6.79664">
        <ele>200.1</ele>
        <time>2020-06-26T19:46:26Z</time>
      </trkpt>
      <trkpt lat="49.23755" lon="6.79667">
        <ele>200.2</ele>
        <time>2020-06-26T19:46:27Z</time>
      </trkpt>
      <trkpt lat="49.23749" lon="6.7967">
        <ele>200.3</ele>
        <time>2020-06-26T19:46:28Z</time>
      </trkpt>
      <trkpt lat="49.23744" lon="6.79673">
        <ele>200.4</ele>
        <time>2020-06-26T19:46:29Z</time>
      </trkpt>
      <trkpt lat="49.23739" lon="6.79675">
        <ele>200.6</ele>
        <time>2020-06-26T19:46:30Z</time>
      </trkpt>
      <trkpt lat="49.23734" lon="6.79678">
        <ele>200.7</ele>
        <time>2020-06-26T19:46:31Z</time>
      </trkpt>
      <trkpt lat="49.2373" lon="6.7968">
        <ele>200.8</ele>
        <time>2020-06-26T19:46:32Z</time>
      </trkpt>
      <trkpt lat="49.23725" lon="6.79682">
        <ele>200.9</ele>
        <time>2020-06-26T19:46:33Z</time>
      </trkpt>
      <trkpt lat="49.23721" lon="6.79684">
        <ele>201.1</ele>
        <time>2020-06-26T19:46:34Z</time>
      </trkpt>
      <trkpt lat="49.23717" lon="6.79686">
        <ele>201.2</ele>
        <time>2020-06-26T19:46:35Z</time>
      </trkpt>
      <trkpt lat="49.23712" lon="6.79688">
        <ele>201.3</ele>
        <time>2020-06-26T19:46:36Z</time>
      </trkpt>
      <trkpt lat="49.23708" lon="6.7969">
        <ele>201.4</ele>
        <time>2020-06-26T19:46:37Z</time>
      </trkpt>
      <trkpt lat="49.23703" lon="6.79691">
        <ele>201.5</ele>
        <time>2020-06-26T19:46:38Z</time>
      </trkpt>
      <trkpt lat="49.23699" lon="6.79693">
        <ele>201.7</ele>
        <time>2020-06-26T19:46:39Z</time>
      </trkpt>
      <trkpt lat="49.23694" lon="6.79694">
        <ele>201.8</ele>
        <time>2020-06-26T19:46:40Z</time>
      </trkpt>
      <trkpt lat="49.23689" lon="6.79694">
        <ele>201.9</ele>
        <time>2020-06-26T19:46:41Z</time>
      </trkpt>
      <trkpt lat="49.23684" lon="6.79694">
        <ele>202</ele>
        <time>2020-06-26T19:46:42Z</time>
      </trkpt>
      <trkpt lat="49.2368" lon="6.79695">
        <ele>202.1</ele>
        <time>2020-06-26T19:46:43Z</time>
      </trkpt>
      <trkpt lat="49.23676" lon="6.79695">
        <ele>202.2</ele>
        <time>2020-06-26T19:46:44Z</time>
      </trkpt>
      <trkpt lat="49.23671" lon="6.79697">
        <ele>202.3</ele>
        <time>2020-06-26T19:46:45Z</time>
      </trkpt>
      <trkpt lat="49.23667" lon="6.79699">
        <ele>202.4</ele>
        <time>2020-06-26T19:46:46Z</time>
      </trkpt>
      <trkpt lat="49.23662" lon="6.79699">
        <ele>202.6</ele>
        <time>2020-06-26T19:46:47Z</time>
      </trkpt>
      <trkpt lat="49.23658" lon="6.79698">
        <ele>202.7</ele>
        <time>2020-06-26T19:46:48Z</time>
      </trkpt>
      <trkpt lat="49.23653" lon="6.79698">
        <ele>202.8</ele>
        <time>2020-06-26T19:46:49Z</time>
      </trkpt>
      <trkpt lat="49.23648" lon="6.79698">
        <ele>203</ele>
        <time>2020-06-26T19:46:50Z</time>
      </trkpt>
      <trkpt lat="49.23643" lon="6.79698">
        <ele>203.1</ele>
        <time>2020-06-26T19:46:51Z</time>
      </trkpt>
      <trkpt lat="49.23637" lon="6.79698">
        <ele>203.2</ele>
        <time>2020-06-26T19:46:52Z</time>
      </trkpt>
      <trkpt lat="49.23633" lon="6.79697">
        <ele>203.3</ele>
        <time>2020-06-26T19:46:53Z</time>
      </trkpt>
      <trkpt lat="49.23628" lon="6.79697">
        <ele>203.4</ele>
        <time>2020-06-26T19:46:54Z</time>
      </trkpt>
      <trkpt lat="49.23624" lon="6.79696">
        <ele>203.4</ele>
        <time>2020-06-26T19:46:55Z</time>
      </trkpt>
      <trkpt lat="49.23619" lon="6.79695">
        <ele>203.5</ele>
        <time>2020-06-26T19:46:56Z</time>
      </trkpt>
      <trkpt lat="49.23615" lon="6.79694">
        <ele>203.6</ele>
        <time>2020-06-26T19:46:57Z</time>
      </trkpt>
      <trkpt lat="49.23611" lon="6.79692">
        <ele>203.7</ele>
        <time>2020-06-26T19:46:58Z</time>
      </trkpt>
      <trkpt lat="49.23606" lon="6.79691">
        <ele>203.7</ele>
        <time>2020-06-26T19:46:59Z</time>
      </trkpt>
      <trkpt lat="49.23601" lon="6.7969">
        <ele>203.8</ele>
        <time>2020-06-26T19:47:00Z</time>
      </trkpt>
      <trkpt lat="49.23596" lon="6.79689">
        <ele>203.8</ele>
        <time>2020-06-26T19:47:01Z</time>
      </trkpt>
      <trkpt lat="49.23591" lon="6.79688">
        <ele>203.8</ele>
        <time>2020-06-26T19:47:02Z</time>
      </trkpt>
      <trkpt lat="49.23586" lon="6.79687">
        <ele>203.8</ele>
        <time>2020-06-26T19:47:03Z</time>
      </trkpt>
      <trkpt lat="49.23579" lon="6.79686">
        <ele>203.9</ele>
        <time>2020-06-26T19:47:04Z</time>
      </trkpt>
      <trkpt lat="49.23575" lon="6.79686">
        <ele>203.9</ele>
        <time>2020-06-26T19:47:05Z</time>
      </trkpt>
      <trkpt lat="49.2357" lon="6.79686">
        <ele>203.9</ele>
        <time>2020-06-26T19:47:06Z</time>
      </trkpt>
      <trkpt lat="49.23564" lon="6.79685">
        <ele>203.8</ele>
        <time>2020-06-26T19:47:07Z</time>
      </trkpt>
      <trkpt lat="49.23559" lon="6.79685">
        <ele>203.8</ele>
        <time>2020-06-26T19:47:08Z</time>
      </trkpt>
      <trkpt lat="49.23554" lon="6.79685">
        <ele>203.7</ele>
        <time>2020-06-26T19:47:09Z</time>
      </trkpt>
      <trkpt lat="49.23548" lon="6.79685">
        <ele>203.7</ele>
        <time>2020-06-26T19:47:10Z</time>
      </trkpt>
      <trkpt lat="49.23542" lon="6.79684">
        <ele>203.6</ele>
        <time>2020-06-26T19:47:11Z</time>
      </trkpt>
      <trkpt lat="49.23537" lon="6.79684">
        <ele>203.6</ele>
        <time>2020-06-26T19:47:12Z</time>
      </trkpt>
      <trkpt lat="49.23532" lon="6.79685">
        <ele>203.5</ele>
        <time>2020-06-26T19:47:13Z</time>
      </trkpt>
      <trkpt lat="49.23525" lon="6.79687">
        <ele>203.5</ele>
        <time>2020-06-26T19:47:14Z</time>
      </trkpt>
      <trkpt lat="49.23519" lon="6.79687">
        <ele>203.4</ele>
        <time>2020-06-26T19:47:15Z</time>
      </trkpt>
      <trkpt lat="49.23512" lon="6.79688">
        <ele>203.4</ele>
        <time>2020-06-26T19:47:16Z</time>
      </trkpt>
      <trkpt lat="49.23506" lon="6.7969">
        <ele>203.3</ele>
        <time>2020-06-26T19:47:17Z</time>
      </trkpt>
      <trkpt lat="49.235" lon="6.79692">
        <ele>203.2</ele>
        <time>2020-06-26T19:47:18Z</time>
      </trkpt>
      <trkpt lat="49.23494" lon="6.79694">
        <ele>203.2</ele>
        <time>2020-06-26T19:47:19Z</time>
      </trkpt>
      <trkpt lat="49.23488" lon="6.79696">
        <ele>203.1</ele>
        <time>2020-06-26T19:47:20Z</time>
      </trkpt>
      <trkpt lat="49.23483" lon="6.79699">
        <ele>203</ele>
        <time>2020-06-26T19:47:21Z</time>
      </trkpt>
      <trkpt lat="49.23478" lon="6.79701">
        <ele>202.9</ele>
        <time>2020-06-26T19:47:22Z</time>
      </trkpt>
      <trkpt lat="49.23473" lon="6.79705">
        <ele>202.8</ele>
        <time>2020-06-26T19:47:23Z</time>
      </trkpt>
      <trkpt lat="49.23467" lon="6.79709">
        <ele>202.8</ele>
        <time>2020-06-26T19:47:24Z</time>
      </trkpt>
      <trkpt lat="49.2346" lon="6.79714">
        <ele>202.7</ele>
        <time>2020-06-26T19:47:25Z</time>
      </trkpt>
      <trkpt lat="49.23455" lon="6.79719">
        <ele>202.7</ele>
        <time>2020-06-26T19:47:26Z</time>
      </trkpt>
      <trkpt lat="49.23449" lon="6.79726">
        <ele>202.7</ele>
        <time>2020-06-26T19:47:27Z</time>
      </trkpt>
      <trkpt lat="49.23444" lon="6.79731">
        <ele>202.8</ele>
        <time>2020-06-26T19:47:28Z</time>
      </trkpt>
      <trkpt lat="49.23439" lon="6.79737">
        <ele>202.8</ele>
        <time>2020-06-26T19:47:29Z</time>
      </trkpt>
      <trkpt lat="49.23435" lon="6.79745">
        <ele>202.9</ele>
        <time>2020-06-26T19:47:30Z</time>
      </trkpt>
      <trkpt lat="49.23429" lon="6.79752">
        <ele>202.9</ele>
        <time>2020-06-26T19:47:31Z</time>
      </trkpt>
      <trkpt lat="49.23424" lon="6.79759">
        <ele>203</ele>
        <time>2020-06-26T19:47:32Z</time>
      </trkpt>
      <trkpt lat="49.23419" lon="6.79766">
        <ele>203.1</ele>
        <time>2020-06-26T19:47:33Z</time>
      </trkpt>
      <trkpt lat="49.23415" lon="6.79773">
        <ele>203.2</ele>
        <time>2020-06-26T19:47:34Z</time>
      </trkpt>
      <trkpt lat="49.2341" lon="6.79779">
        <ele>203.3</ele>
        <time>2020-06-26T19:47:35Z</time>
      </trkpt>
      <trkpt lat="49.23404" lon="6.79784">
        <ele>203.5</ele>
        <time>2020-06-26T19:47:36Z</time>
      </trkpt>
      <trkpt lat="49.23399" lon="6.7979">
        <ele>203.6</ele>
        <time>2020-06-26T19:47:37Z</time>
      </trkpt>
      <trkpt lat="49.23394" lon="6.79796">
        <ele>203.8</ele>
        <time>2020-06-26T19:47:38Z</time>
      </trkpt>
      <trkpt lat="49.23388" lon="6.79802">
        <ele>204</ele>
        <time>2020-06-26T19:47:39Z</time>
      </trkpt>
      <trkpt lat="49.23383" lon="6.79808">
        <ele>204.2</ele>
        <time>2020-06-26T19:47:40Z</time>
      </trkpt>
      <trkpt lat="49.23378" lon="6.79814">
        <ele>204.4</ele>
        <time>2020-06-26T19:47:41Z</time>
      </trkpt>
      <trkpt lat="49.23373" lon="6.79819">
        <ele>204.5</ele>
        <time>2020-06-26T19:47:42Z</time>
      </trkpt>
      <trkpt lat="49.2337" lon="6.79823">
        <ele>204.7</ele>
        <time>2020-06-26T19:47:43Z</time>
      </trkpt>
      <trkpt lat="49.23365" lon="6.79827">
        <ele>204.9</ele>
        <time>2020-06-26T19:47:44Z</time>
      </trkpt>
      <trkpt lat="49.2336" lon="6.79831">
        <ele>205.1</ele>
        <time>2020-06-26T19:47:45Z</time>
      </trkpt>
      <trkpt lat="49.23356" lon="6.79834">
        <ele>205.3</ele>
        <time>2020-06-26T19:47:46Z</time>
      </trkpt>
      <trkpt lat="49.23353" lon="6.79836">
        <ele>205.5</ele>
        <time>2020-06-26T19:47:47Z</time>
      </trkpt>
      <trkpt lat="49.23349" lon="6.79839">
        <ele>205.6</ele>
        <time>2020-06-26T19:47:48Z</time>
      </trkpt>
      <trkpt lat="49.23346" lon="6.79842">
        <ele>205.8</ele>
        <time>2020-06-26T19:47:49Z</time>
      </trkpt>
      <trkpt lat="49.23344" lon="6.79843">
        <ele>205.9</ele>
        <time>2020-06-26T19:47:50Z</time>
      </trkpt>
      <trkpt lat="49.23339" lon="6.79846">
        <ele>206.1</ele>
        <time>2020-06-26T19:47:51Z</time>
      </trkpt>
      <trkpt lat="49.23335" lon="6.79849">
        <ele>206.2</ele>
        <time>2020-06-26T19:47:52Z</time>
      </trkpt>
      <trkpt lat="49.23333" lon="6.79852">
        <ele>206.3</ele>
        <time>2020-06-26T19:47:53Z</time>
      </trkpt>
      <trkpt lat="49.23329" lon="6.79855">
        <ele>206.4</ele>
        <time>2020-06-26T19:47:54Z</time>
      </trkpt>
      <trkpt lat="49.23326" lon="6.79858">
        <ele>206.6</ele>
        <time>2020-06-26T19:47:55Z</time>
      </trkpt>
      <trkpt lat="49.23321" lon="6.79862">
        <ele>206.7</ele>
        <time>2020-06-26T19:47:56Z</time>
      </trkpt>
      <trkpt lat="49.23318" lon="6.79864">
        <ele>206.9</ele>
        <time>2020-06-26T19:47:57Z</time>
      </trkpt>
      <trkpt lat="49.23313" lon="6.79867">
        <ele>207.1</ele>
        <time>2020-06-26T19:47:58Z</time>
      </trkpt>
      <trkpt lat="49.23308" lon="6.79869">
        <ele>207.3</ele>
        <time>2020-06-26T19:47:59Z</time>
      </trkpt>
      <trkpt lat="49.23304" lon="6.79872">
        <ele>207.5</ele>
        <time>2020-06-26T19:48:00Z</time>
      </trkpt>
      <trkpt lat="49.23301" lon="6.79872">
        <ele>207.6</ele>
        <time>2020-06-26T19:48:01Z</time>
      </trkpt>
      <trkpt lat="49.23297" lon="6.79874">
        <ele>207.8</ele>
        <time>2020-06-26T19:48:02Z</time>
      </trkpt>
      <trkpt lat="49.23293" lon="6.79876">
        <ele>208</ele>
        <time>2020-06-26T19:48:03Z</time>
      </trkpt>
      <trkpt lat="49.23289" lon="6.79877">
        <ele>208.2</ele>
        <time>2020-06-26T19:48:04Z</time>
      </trkpt>
      <trkpt lat="49.23285" lon="6.79879">
        <ele>208.4</ele>
        <time>2020-06-26T19:48:05Z</time>
      </trkpt>
      <trkpt lat="49.23279" lon="6.7988">
        <ele>208.6</ele>
        <time>2020-06-26T19:48:06Z</time>
      </trkpt>
      <trkpt lat="49.23275" lon="6.79883">
        <ele>208.8</ele>
        <time>2020-06-26T19:48:07Z</time>
      </trkpt>
      <trkpt lat="49.2327" lon="6.79886">
        <ele>209</ele>
        <time>2020-06-26T19:48:08Z</time>
      </trkpt>
      <trkpt lat="49.23266" lon="6.79888">
        <ele>209.1</ele>
        <time>2020-06-26T19:48:09Z</time>
      </trkpt>
      <trkpt lat="49.23263" lon="6.7989">
        <ele>209.2</ele>
        <time>2020-06-26T19:48:10Z</time>
      </trkpt>
      <trkpt lat="49.2326" lon="6.79892">
        <ele>209.4</ele>
        <time>2020-06-26T19:48:11Z</time>
      </trkpt>
      <trkpt lat="49.23256" lon="6.79894">
        <ele>209.5</ele>
        <time>2020-06-26T19:48:12Z</time>
      </trkpt>
      <trkpt lat="49.23251" lon="6.79895">
        <ele>209.7</ele>
        <time>2020-06-26T19:48:13Z</time>
      </trkpt>
      <trkpt lat="49.23247" lon="6.79897">
        <ele>209.9</ele>
        <time>2020-06-26T19:48:14Z</time>
      </trkpt>
      <trkpt lat="49.23242" lon="6.79898">
        <ele>210.1</ele>
        <time>2020-06-26T19:48:15Z</time>
      </trkpt>
      <trkpt lat="49.23238" lon="6.79899">
        <ele>210.3</ele>
        <time>2020-06-26T19:48:16Z</time>
      </trkpt>
      <trkpt lat="49.23235" lon="6.799">
        <ele>210.5</ele>
        <time>2020-06-26T19:48:17Z</time>
      </trkpt>
      <trkpt lat="49.23234" lon="6.799">
        <ele>210.5</ele>
        <time>2020-06-26T19:48:18Z</time>
      </trkpt>
      <trkpt lat="49.2323" lon="6.79901">
        <ele>210.7</ele>
        <time>2020-06-26T19:48:19Z</time>
      </trkpt>
      <trkpt lat="49.23226" lon="6.79902">
        <ele>210.9</ele>
        <time>2020-06-26T19:48:20Z</time>
      </trkpt>
      <trkpt lat="49.23222" lon="6.79903">
        <ele>211.1</ele>
        <time>2020-06-26T19:48:21Z</time>
      </trkpt>
      <trkpt lat="49.23218" lon="6.79904">
        <ele>211.3</ele>
        <time>2020-06-26T19:48:22Z</time>
      </trkpt>
      <trkpt lat="49.23215" lon="6.79904">
        <ele>211.4</ele>
        <time>2020-06-26T19:48:23Z</time>
      </trkpt>
      <trkpt lat="49.23211" lon="6.79906">
        <ele>211.6</ele>
        <time>2020-06-26T19:48:24Z</time>
      </trkpt>
      <trkpt lat="49.23207" lon="6.79906">
        <ele>211.8</ele>
        <time>2020-06-26T19:48:25Z</time>
      </trkpt>
      <trkpt lat="49.23205" lon="6.79906">
        <ele>211.9</ele>
        <time>2020-06-26T19:48:26Z</time>
      </trkpt>
      <trkpt lat="49.232" lon="6.79906">
        <ele>212.1</ele>
        <time>2020-06-26T19:48:27Z</time>
      </trkpt>
      <trkpt lat="49.23196" lon="6.79905">
        <ele>212.3</ele>
        <time>2020-06-26T19:48:28Z</time>
      </trkpt>
      <trkpt lat="49.23192" lon="6.79906">
        <ele>212.4</ele>
        <time>2020-06-26T19:48:29Z</time>
      </trkpt>
      <trkpt lat="49.2319" lon="6.79906">
        <ele>212.5</ele>
        <time>2020-06-26T19:48:30Z</time>
      </trkpt>
      <trkpt lat="49.23186" lon="6.79907">
        <ele>212.7</ele>
        <time>2020-06-26T19:48:31Z</time>
      </trkpt>
      <trkpt lat="49.23182" lon="6.79907">
        <ele>212.8</ele>
        <time>2020-06-26T19:48:32Z</time>
      </trkpt>
      <trkpt lat="49.23177" lon="6.79908">
        <ele>213</ele>
        <time>2020-06-26T19:48:33Z</time>
      </trkpt>
      <trkpt lat="49.23174" lon="6.79909">
        <ele>213.1</ele>
        <time>2020-06-26T19:48:34Z</time>
      </trkpt>
      <trkpt lat="49.23173" lon="6.79909">
        <ele>213.2</ele>
        <time>2020-06-26T19:48:35Z</time>
      </trkpt>
      <trkpt lat="49.2317" lon="6.7991">
        <ele>213.3</ele>
        <time>2020-06-26T19:48:36Z</time>
      </trkpt>
      <trkpt lat="49.23169" lon="6.7991">
        <ele>213.3</ele>
        <time>2020-06-26T19:48:37Z</time>
      </trkpt>
      <trkpt lat="49.23166" lon="6.7991">
        <ele>213.5</ele>
        <time>2020-06-26T19:48:38Z</time>
      </trkpt>
      <trkpt lat="49.23163" lon="6.7991">
        <ele>213.6</ele>
        <time>2020-06-26T19:48:39Z</time>
      </trkpt>
      <trkpt lat="49.2316" lon="6.79909">
        <ele>213.7</ele>
        <time>2020-06-26T19:48:40Z</time>
      </trkpt>
      <trkpt lat="49.23156" lon="6.79909">
        <ele>213.9</ele>
        <time>2020-06-26T19:48:41Z</time>
      </trkpt>
      <trkpt lat="49.23152" lon="6.79908">
        <ele>214.1</ele>
        <time>2020-06-26T19:48:42Z</time>
      </trkpt>
      <trkpt lat="49.23147" lon="6.79908">
        <ele>214.3</ele>
        <time>2020-06-26T19:48:43Z</time>
      </trkpt>
      <trkpt lat="49.23142" lon="6.79907">
        <ele>214.4</ele>
        <time>2020-06-26T19:48:44Z</time>
      </trkpt>
      <trkpt lat="49.23137" lon="6.79907">
        <ele>214.6</ele>
        <time>2020-06-26T19:48:45Z</time>
      </trkpt>
      <trkpt lat="49.23133" lon="6.79907">
        <ele>214.8</ele>
        <time>2020-06-26T19:48:46Z</time>
      </trkpt>
      <trkpt lat="49.23127" lon="6.79907">
        <ele>215</ele>
        <time>2020-06-26T19:48:47Z</time>
      </trkpt>
      <trkpt lat="49.23123" lon="6.79906">
        <ele>215.1</ele>
        <time>2020-06-26T19:48:48Z</time>
      </trkpt>
      <trkpt lat="49.2312" lon="6.79906">
        <ele>215.3</ele>
        <time>2020-06-26T19:48:49Z</time>
      </trkpt>
      <trkpt lat="49.23117" lon="6.79906">
        <ele>215.4</ele>
        <time>2020-06-26T19:48:50Z</time>
      </trkpt>
      <trkpt lat="49.23113" lon="6.79904">
        <ele>215.6</ele>
        <time>2020-06-26T19:48:51Z</time>
      </trkpt>
      <trkpt lat="49.23109" lon="6.79903">
        <ele>215.8</ele>
        <time>2020-06-26T19:48:52Z</time>
      </trkpt>
      <trkpt lat="49.23105" lon="6.79902">
        <ele>216</ele>
        <time>2020-06-26T19:48:53Z</time>
      </trkpt>
      <trkpt lat="49.23102" lon="6.799">
        <ele>216.2</ele>
        <time>2020-06-26T19:48:54Z</time>
      </trkpt>
      <trkpt lat="49.23098" lon="6.79901">
        <ele>216.5</ele>
        <time>2020-06-26T19:48:55Z</time>
      </trkpt>
      <trkpt lat="49.23093" lon="6.79901">
        <ele>216.7</ele>
        <time>2020-06-26T19:48:56Z</time>
      </trkpt>
      <trkpt lat="49.23089" lon="6.79901">
        <ele>216.9</ele>
        <time>2020-06-26T19:48:57Z</time>
      </trkpt>
      <trkpt lat="49.23086" lon="6.799">
        <ele>217.1</ele>
        <time>2020-06-26T19:48:58Z</time>
      </trkpt>
      <trkpt lat="49.23081" lon="6.79899">
        <ele>217.3</ele>
        <time>2020-06-26T19:48:59Z</time>
      </trkpt>
      <trkpt lat="49.23078" lon="6.79897">
        <ele>217.4</ele>
        <time>2020-06-26T19:49:00Z</time>
      </trkpt>
      <trkpt lat="49.23075" lon="6.79897">
        <ele>217.6</ele>
        <time>2020-06-26T19:49:01Z</time>
      </trkpt>
      <trkpt lat="49.2307" lon="6.79895">
        <ele>217.8</ele>
        <time>2020-06-26T19:49:02Z</time>
      </trkpt>
      <trkpt lat="49.23066" lon="6.79895">
        <ele>218</ele>
        <time>2020-06-26T19:49:03Z</time>
      </trkpt>
      <trkpt lat="49.23061" lon="6.79895">
        <ele>218.2</ele>
        <time>2020-06-26T19:49:04Z</time>
      </trkpt>
      <trkpt lat="49.23057" lon="6.79896">
        <ele>218.4</ele>
        <time>2020-06-26T19:49:05Z</time>
      </trkpt>
      <trkpt lat="49.23053" lon="6.79894">
        <ele>218.6</ele>
        <time>2020-06-26T19:49:06Z</time>
      </trkpt>
      <trkpt lat="49.23049" lon="6.79893">
        <ele>218.8</ele>
        <time>2020-06-26T19:49:07Z</time>
      </trkpt>
      <trkpt lat="49.23045" lon="6.79893">
        <ele>219</ele>
        <time>2020-06-26T19:49:08Z</time>
      </trkpt>
      <trkpt lat="49.23042" lon="6.79892">
        <ele>219.2</ele>
        <time>2020-06-26T19:49:09Z</time>
      </trkpt>
      <trkpt lat="49.23038" lon="6.79891">
        <ele>219.3</ele>
        <time>2020-06-26T19:49:10Z</time>
      </trkpt>
      <trkpt lat="49.23036" lon="6.7989">
        <ele>219.4</ele>
        <time>2020-06-26T19:49:11Z</time>
      </trkpt>
      <trkpt lat="49.23033" lon="6.79889">
        <ele>219.6</ele>
        <time>2020-06-26T19:49:12Z</time>
      </trkpt>
      <trkpt lat="49.23029" lon="6.79888">
        <ele>219.8</ele>
        <time>2020-06-26T19:49:13Z</time>
      </trkpt>
      <trkpt lat="49.23025" lon="6.79888">
        <ele>220</ele>
        <time>2020-06-26T19:49:14Z</time>
      </trkpt>
      <trkpt lat="49.2302" lon="6.79888">
        <ele>220.2</ele>
        <time>2020-06-26T19:49:15Z</time>
      </trkpt>
      <trkpt lat="49.23015" lon="6.79888">
        <ele>220.4</ele>
        <time>2020-06-26T19:49:16Z</time>
      </trkpt>
      <trkpt lat="49.23011" lon="6.79886">
        <ele>220.6</ele>
        <time>2020-06-26T19:49:17Z</time>
      </trkpt>
      <trkpt lat="49.23007" lon="6.79887">
        <ele>220.8</ele>
        <time>2020-06-26T19:49:18Z</time>
      </trkpt>
      <trkpt lat="49.23003" lon="6.79886">
        <ele>221</ele>
        <time>2020-06-26T19:49:19Z</time>
      </trkpt>
      <trkpt lat="49.22999" lon="6.79884">
        <ele>221.3</ele>
        <time>2020-06-26T19:49:20Z</time>
      </trkpt>
      <trkpt lat="49.22993" lon="6.79882">
        <ele>221.5</ele>
        <time>2020-06-26T19:49:21Z</time>
      </trkpt>
      <trkpt lat="49.22989" lon="6.7988">
        <ele>221.8</ele>
        <time>2020-06-26T19:49:22Z</time>
      </trkpt>
      <trkpt lat="49.22985" lon="6.79879">
        <ele>222.1</ele>
        <time>2020-06-26T19:49:23Z</time>
      </trkpt>
      <trkpt lat="49.22981" lon="6.79877">
        <ele>222.2</ele>
        <time>2020-06-26T19:49:24Z</time>
      </trkpt>
      <trkpt lat="49.22978" lon="6.79875">
        <ele>222.4</ele>
        <time>2020-06-26T19:49:25Z</time>
      </trkpt>
      <trkpt lat="49.22975" lon="6.79873">
        <ele>222.6</ele>
        <time>2020-06-26T19:49:26Z</time>
      </trkpt>
      <trkpt lat="49.22971" lon="6.79872">
        <ele>222.7</ele>
        <time>2020-06-26T19:49:27Z</time>
      </trkpt>
      <trkpt lat="49.22967" lon="6.79872">
        <ele>222.9</ele>
        <time>2020-06-26T19:49:28Z</time>
      </trkpt>
      <trkpt lat="49.22963" lon="6.79872">
        <ele>223.1</ele>
        <time>2020-06-26T19:49:29Z</time>
      </trkpt>
      <trkpt lat="49.22959" lon="6.79871">
        <ele>223.3</ele>
        <time>2020-06-26T19:49:30Z</time>
      </trkpt>
      <trkpt lat="49.22956" lon="6.7987">
        <ele>223.5</ele>
        <time>2020-06-26T19:49:31Z</time>
      </trkpt>
      <trkpt lat="49.22951" lon="6.79869">
        <ele>223.6</ele>
        <time>2020-06-26T19:49:32Z</time>
      </trkpt>
      <trkpt lat="49.22947" lon="6.79868">
        <ele>223.8</ele>
        <time>2020-06-26T19:49:33Z</time>
      </trkpt>
      <trkpt lat="49.22942" lon="6.79866">
        <ele>224.1</ele>
        <time>2020-06-26T19:49:34Z</time>
      </trkpt>
      <trkpt lat="49.22938" lon="6.79864">
        <ele>224.3</ele>
        <time>2020-06-26T19:49:35Z</time>
      </trkpt>
      <trkpt lat="49.22933" lon="6.79863">
        <ele>224.4</ele>
        <time>2020-06-26T19:49:36Z</time>
      </trkpt>
      <trkpt lat="49.2293" lon="6.79864">
        <ele>224.6</ele>
        <time>2020-06-26T19:49:37Z</time>
      </trkpt>
      <trkpt lat="49.22926" lon="6.79862">
        <ele>224.8</ele>
        <time>2020-06-26T19:49:38Z</time>
      </trkpt>
      <trkpt lat="49.22923" lon="6.79862">
        <ele>224.9</ele>
        <time>2020-06-26T19:49:39Z</time>
      </trkpt>
      <trkpt lat="49.22919" lon="6.79861">
        <ele>225.1</ele>
        <time>2020-06-26T19:49:40Z</time>
      </trkpt>
      <trkpt lat="49.22915" lon="6.7986">
        <ele>225.2</ele>
        <time>2020-06-26T19:49:41Z</time>
      </trkpt>
      <trkpt lat="49.22912" lon="6.7986">
        <ele>225.3</ele>
        <time>2020-06-26T19:49:42Z</time>
      </trkpt>
      <trkpt lat="49.2291" lon="6.79859">
        <ele>225.5</ele>
        <time>2020-06-26T19:49:43Z</time>
      </trkpt>
      <trkpt lat="49.22906" lon="6.79858">
        <ele>225.6</ele>
        <time>2020-06-26T19:49:44Z</time>
      </trkpt>
      <trkpt lat="49.22902" lon="6.79858">
        <ele>225.8</ele>
        <time>2020-06-26T19:49:45Z</time>
      </trkpt>
      <trkpt lat="49.22898" lon="6.79858">
        <ele>225.9</ele>
        <time>2020-06-26T19:49:46Z</time>
      </trkpt>
      <trkpt lat="49.22894" lon="6.79858">
        <ele>226.1</ele>
        <time>2020-06-26T19:49:47Z</time>
      </trkpt>
      <trkpt lat="49.22889" lon="6.79858">
        <ele>226.3</ele>
        <time>2020-06-26T19:49:48Z</time>
      </trkpt>
      <trkpt lat="49.22885" lon="6.79858">
        <ele>226.5</ele>
        <time>2020-06-26T19:49:49Z</time>
      </trkpt>
      <trkpt lat="49.22881" lon="6.79858">
        <ele>226.7</ele>
        <time>2020-06-26T19:49:50Z</time>
      </trkpt>
      <trkpt lat="49.22877" lon="6.79858">
        <ele>226.8</ele>
        <time>2020-06-26T19:49:51Z</time>
      </trkpt>
      <trkpt lat="49.22873" lon="6.79857">
        <ele>227</ele>
        <time>2020-06-26T19:49:52Z</time>
      </trkpt>
      <trkpt lat="49.2287" lon="6.79855">
        <ele>227.1</ele>
        <time>2020-06-26T19:49:53Z</time>
      </trkpt>
      <trkpt lat="49.22867" lon="6.79853">
        <ele>227.2</ele>
        <time>2020-06-26T19:49:54Z</time>
      </trkpt>
      <trkpt lat="49.22864" lon="6.79853">
        <ele>227.4</ele>
        <time>2020-06-26T19:49:55Z</time>
      </trkpt>
      <trkpt lat="49.22862" lon="6.79853">
        <ele>227.5</ele>
        <time>2020-06-26T19:49:56Z</time>
      </trkpt>
      <trkpt lat="49.22858" lon="6.79852">
        <ele>227.7</ele>
        <time>2020-06-26T19:49:57Z</time>
      </trkpt>
      <trkpt lat="49.22853" lon="6.7985">
        <ele>227.9</ele>
        <time>2020-06-26T19:49:58Z</time>
      </trkpt>
      <trkpt lat="49.2285" lon="6.7985">
        <ele>228.1</ele>
        <time>2020-06-26T19:49:59Z</time>
      </trkpt>
      <trkpt lat="49.22846" lon="6.7985">
        <ele>228.3</ele>
        <time>2020-06-26T19:50:00Z</time>
      </trkpt>
      <trkpt lat="49.22842" lon="6.79849">
        <ele>228.4</ele>
        <time>2020-06-26T19:50:01Z</time>
      </trkpt>
      <trkpt lat="49.22838" lon="6.79849">
        <ele>228.6</ele>
        <time>2020-06-26T19:50:02Z</time>
      </trkpt>
      <trkpt lat="49.22834" lon="6.7985">
        <ele>228.8</ele>
        <time>2020-06-26T19:50:03Z</time>
      </trkpt>
      <trkpt lat="49.22831" lon="6.79848">
        <ele>229</ele>
        <time>2020-06-26T19:50:04Z</time>
      </trkpt>
      <trkpt lat="49.22827" lon="6.79847">
        <ele>229.1</ele>
        <time>2020-06-26T19:50:05Z</time>
      </trkpt>
      <trkpt lat="49.22823" lon="6.79847">
        <ele>229.3</ele>
        <time>2020-06-26T19:50:06Z</time>
      </trkpt>
      <trkpt lat="49.22819" lon="6.79846">
        <ele>229.5</ele>
        <time>2020-06-26T19:50:07Z</time>
      </trkpt>
      <trkpt lat="49.22814" lon="6.79846">
        <ele>229.7</ele>
        <time>2020-06-26T19:50:08Z</time>
      </trkpt>
      <trkpt lat="49.2281" lon="6.79845">
        <ele>229.9</ele>
        <time>2020-06-26T19:50:09Z</time>
      </trkpt>
      <trkpt lat="49.22805" lon="6.79845">
        <ele>230.1</ele>
        <time>2020-06-26T19:50:10Z</time>
      </trkpt>
      <trkpt lat="49.22801" lon="6.79844">
        <ele>230.3</ele>
        <time>2020-06-26T19:50:11Z</time>
      </trkpt>
      <trkpt lat="49.22798" lon="6.79844">
        <ele>230.4</ele>
        <time>2020-06-26T19:50:12Z</time>
      </trkpt>
      <trkpt lat="49.22795" lon="6.79844">
        <ele>230.6</ele>
        <time>2020-06-26T19:50:13Z</time>
      </trkpt>
      <trkpt lat="49.22791" lon="6.79844">
        <ele>230.8</ele>
        <time>2020-06-26T19:50:14Z</time>
      </trkpt>
      <trkpt lat="49.22788" lon="6.79843">
        <ele>230.9</ele>
        <time>2020-06-26T19:50:15Z</time>
      </trkpt>
      <trkpt lat="49.22785" lon="6.79844">
        <ele>231.1</ele>
        <time>2020-06-26T19:50:16Z</time>
      </trkpt>
      <trkpt lat="49.22782" lon="6.79845">
        <ele>231.2</ele>
        <time>2020-06-26T19:50:17Z</time>
      </trkpt>
      <trkpt lat="49.22778" lon="6.79846">
        <ele>231.4</ele>
        <time>2020-06-26T19:50:18Z</time>
      </trkpt>
      <trkpt lat="49.22775" lon="6.79847">
        <ele>231.5</ele>
        <time>2020-06-26T19:50:19Z</time>
      </trkpt>
      <trkpt lat="49.22772" lon="6.79847">
        <ele>231.8</ele>
        <time>2020-06-26T19:50:20Z</time>
      </trkpt>
      <trkpt lat="49.22767" lon="6.79848">
        <ele>231.9</ele>
        <time>2020-06-26T19:50:21Z</time>
      </trkpt>
      <trkpt lat="49.22762" lon="6.79851">
        <ele>232.1</ele>
        <time>2020-06-26T19:50:22Z</time>
      </trkpt>
      <trkpt lat="49.22757" lon="6.79853">
        <ele>232.2</ele>
        <time>2020-06-26T19:50:23Z</time>
      </trkpt>
      <trkpt lat="49.22754" lon="6.79854">
        <ele>232.3</ele>
        <time>2020-06-26T19:50:24Z</time>
      </trkpt>
      <trkpt lat="49.2275" lon="6.79854">
        <ele>232.4</ele>
        <time>2020-06-26T19:50:25Z</time>
      </trkpt>
      <trkpt lat="49.22747" lon="6.79856">
        <ele>232.5</ele>
        <time>2020-06-26T19:50:26Z</time>
      </trkpt>
      <trkpt lat="49.22744" lon="6.79855">
        <ele>232.6</ele>
        <time>2020-06-26T19:50:27Z</time>
      </trkpt>
      <trkpt lat="49.22743" lon="6.79855">
        <ele>232.6</ele>
        <time>2020-06-26T19:50:28Z</time>
      </trkpt>
      <trkpt lat="49.22741" lon="6.79855">
        <ele>232.7</ele>
        <time>2020-06-26T19:50:29Z</time>
      </trkpt>
      <trkpt lat="49.22739" lon="6.79855">
        <ele>232.7</ele>
        <time>2020-06-26T19:50:30Z</time>
      </trkpt>
      <trkpt lat="49.22736" lon="6.79856">
        <ele>232.8</ele>
        <time>2020-06-26T19:50:31Z</time>
      </trkpt>
      <trkpt lat="49.22735" lon="6.79856">
        <ele>232.8</ele>
        <time>2020-06-26T19:50:32Z</time>
      </trkpt>
      <trkpt lat="49.22734" lon="6.79856">
        <ele>232.8</ele>
        <time>2020-06-26T19:50:33Z</time>
      </trkpt>
      <trkpt lat="49.22734" lon="6.79854">
        <ele>232.9</ele>
        <time>2020-06-26T19:50:34Z</time>
      </trkpt>
      <trkpt lat="49.22734" lon="6.79854">
        <ele>232.9</ele>
        <time>2020-06-26T19:50:35Z</time>
      </trkpt>
      <trkpt lat="49.22735" lon="6.79854">
        <ele>232.9</ele>
        <time>2020-06-26T19:50:36Z</time>
      </trkpt>
      <trkpt lat="49.22735" lon="6.79854">
        <ele>232.9</ele>
        <time>2020-06-26T19:50:37Z</time>
      </trkpt>
      <trkpt lat="49.22735" lon="6.79854">
        <ele>232.9</ele>
        <time>2020-06-26T19:50:38Z</time>
      </trkpt>
      <trkpt lat="49.22734" lon="6.79853">
        <ele>232.9</ele>
        <time>2020-06-26T19:50:39Z</time>
      </trkpt>
      <trkpt lat="49.22734" lon="6.79852">
        <ele>233</ele>
        <time>2020-06-26T19:50:40Z</time>
      </trkpt>
      <trkpt lat="49.22734" lon="6.79852">
        <ele>233</ele>
        <time>2020-06-26T19:50:41Z</time>
      </trkpt>
      <trkpt lat="49.22735" lon="6.79851">
        <ele>233</ele>
        <time>2020-06-26T19:50:42Z</time>
      </trkpt>
      <trkpt lat="49.22736" lon="6.7985">
        <ele>233</ele>
        <time>2020-06-26T19:50:43Z</time>
      </trkpt>
      <trkpt lat="49.22735" lon="6.7985">
        <ele>233</ele>
        <time>2020-06-26T19:50:44Z</time>
      </trkpt>
      <trkpt lat="49.22735" lon="6.7985">
        <ele>233</ele>
        <time>2020-06-26T19:50:45Z</time>
      </trkpt>
      <trkpt lat="49.22735" lon="6.7985">
        <ele>233</ele>
        <time>2020-06-26T19:50:46Z</time>
      </trkpt>
      <trkpt lat="49.22734" lon="6.79851">
        <ele>233</ele>
        <time>2020-06-26T19:50:47Z</time>
      </trkpt>
      <trkpt lat="49.22734" lon="6.79851">
        <ele>233.1</ele>
        <time>2020-06-26T19:50:48Z</time>
      </trkpt>
      <trkpt lat="49.22734" lon="6.79851">
        <ele>233.1</ele>
        <time>2020-06-26T19:50:49Z</time>
      </trkpt>
      <trkpt lat="49.22734" lon="6.79851">
        <ele>233.1</ele>
        <time>2020-06-26T19:50:50Z</time>
      </trkpt>
      <trkpt lat="49.22734" lon="6.79852">
        <ele>233.1</ele>
        <time>2020-06-26T19:50:51Z</time>
      </trkpt>
      <trkpt lat="49.22734" lon="6.79851">
        <ele>233.1</ele>
        <time>2020-06-26T19:50:52Z</time>
      </trkpt>
      <trkpt lat="49.22734" lon="6.79853">
        <ele>233.1</ele>
        <time>2020-06-26T19:50:53Z</time>
      </trkpt>
      <trkpt lat="49.22734" lon="6.79854">
        <ele>233.1</ele>
        <time>2020-06-26T19:50:54Z</time>
      </trkpt>
      <trkpt lat="49.22733" lon="6.79855">
        <ele>233.1</ele>
        <time>2020-06-26T19:50:55Z</time>
      </trkpt>
      <trkpt lat="49.22733" lon="6.79856">
        <ele>233.2</ele>
        <time>2020-06-26T19:50:56Z</time>
      </trkpt>
      <trkpt lat="49.22732" lon="6.79856">
        <ele>233.2</ele>
        <time>2020-06-26T19:50:57Z</time>
      </trkpt>
      <trkpt lat="49.22732" lon="6.79857">
        <ele>233.2</ele>
        <time>2020-06-26T19:50:58Z</time>
      </trkpt>
      <trkpt lat="49.22732" lon="6.79858">
        <ele>233.2</ele>
        <time>2020-06-26T19:50:59Z</time>
      </trkpt>
      <trkpt lat="49.22732" lon="6.79858">
        <ele>233.2</ele>
        <time>2020-06-26T19:51:00Z</time>
      </trkpt>
      <trkpt lat="49.22729" lon="6.79856">
        <ele>233.3</ele>
        <time>2020-06-26T19:51:28Z</time>
      </trkpt>
      <trkpt lat="49.22728" lon="6.79855">
        <ele>233.3</ele>
        <time>2020-06-26T19:51:29Z</time>
      </trkpt>
      <trkpt lat="49.22728" lon="6.79856">
        <ele>233.3</ele>
        <time>2020-06-26T19:51:30Z</time>
      </trkpt>
      <trkpt lat="49.22727" lon="6.79857">
        <ele>233.4</ele>
        <time>2020-06-26T19:51:31Z</time>
      </trkpt>
      <trkpt lat="49.22726" lon="6.79859">
        <ele>233.4</ele>
        <time>2020-06-26T19:51:32Z</time>
      </trkpt>
      <trkpt lat="49.22725" lon="6.79861">
        <ele>233.4</ele>
        <time>2020-06-26T19:51:33Z</time>
      </trkpt>
      <trkpt lat="49.22722" lon="6.79865">
        <ele>233.7</ele>
        <time>2020-06-26T19:51:34Z</time>
      </trkpt>
      <trkpt lat="49.22721" lon="6.79865">
        <ele>233.8</ele>
        <time>2020-06-26T19:51:35Z</time>
      </trkpt>
      <trkpt lat="49.22718" lon="6.79867">
        <ele>233.9</ele>
        <time>2020-06-26T19:51:36Z</time>
      </trkpt>
      <trkpt lat="49.22716" lon="6.79868">
        <ele>234.1</ele>
        <time>2020-06-26T19:51:37Z</time>
      </trkpt>
      <trkpt lat="49.22713" lon="6.7987">
        <ele>234.2</ele>
        <time>2020-06-26T19:51:38Z</time>
      </trkpt>
      <trkpt lat="49.2271" lon="6.79872">
        <ele>234.4</ele>
        <time>2020-06-26T19:51:39Z</time>
      </trkpt>
      <trkpt lat="49.22707" lon="6.79875">
        <ele>234.5</ele>
        <time>2020-06-26T19:51:40Z</time>
      </trkpt>
      <trkpt lat="49.22705" lon="6.79878">
        <ele>234.6</ele>
        <time>2020-06-26T19:51:41Z</time>
      </trkpt>
      <trkpt lat="49.22702" lon="6.79882">
        <ele>234.8</ele>
        <time>2020-06-26T19:51:42Z</time>
      </trkpt>
      <trkpt lat="49.22701" lon="6.79883">
        <ele>234.9</ele>
        <time>2020-06-26T19:51:43Z</time>
      </trkpt>
      <trkpt lat="49.22698" lon="6.79887">
        <ele>235.1</ele>
        <time>2020-06-26T19:51:44Z</time>
      </trkpt>
      <trkpt lat="49.22697" lon="6.79889">
        <ele>235.1</ele>
        <time>2020-06-26T19:51:45Z</time>
      </trkpt>
      <trkpt lat="49.22694" lon="6.79892">
        <ele>235.3</ele>
        <time>2020-06-26T19:51:46Z</time>
      </trkpt>
      <trkpt lat="49.22692" lon="6.79896">
        <ele>235.4</ele>
        <time>2020-06-26T19:51:47Z</time>
      </trkpt>
      <trkpt lat="49.22692" lon="6.79898">
        <ele>235.5</ele>
        <time>2020-06-26T19:51:48Z</time>
      </trkpt>
      <trkpt lat="49.22689" lon="6.79902">
        <ele>235.6</ele>
        <time>2020-06-26T19:51:49Z</time>
      </trkpt>
      <trkpt lat="49.22689" lon="6.79903">
        <ele>235.7</ele>
        <time>2020-06-26T19:51:50Z</time>
      </trkpt>
      <trkpt lat="49.22686" lon="6.79906">
        <ele>235.8</ele>
        <time>2020-06-26T19:51:51Z</time>
      </trkpt>
      <trkpt lat="49.22684" lon="6.79909">
        <ele>236</ele>
        <time>2020-06-26T19:51:52Z</time>
      </trkpt>
      <trkpt lat="49.22681" lon="6.79914">
        <ele>236.1</ele>
        <time>2020-06-26T19:51:53Z</time>
      </trkpt>
      <trkpt lat="49.22678" lon="6.79917">
        <ele>236.3</ele>
        <time>2020-06-26T19:51:54Z</time>
      </trkpt>
      <trkpt lat="49.22675" lon="6.79921">
        <ele>236.4</ele>
        <time>2020-06-26T19:51:55Z</time>
      </trkpt>
      <trkpt lat="49.22673" lon="6.79924">
        <ele>236.5</ele>
        <time>2020-06-26T19:51:56Z</time>
      </trkpt>
      <trkpt lat="49.2267" lon="6.79928">
        <ele>236.7</ele>
        <time>2020-06-26T19:51:57Z</time>
      </trkpt>
      <trkpt lat="49.22667" lon="6.79933">
        <ele>236.8</ele>
        <time>2020-06-26T19:51:58Z</time>
      </trkpt>
      <trkpt lat="49.22665" lon="6.79937">
        <ele>237</ele>
        <time>2020-06-26T19:51:59Z</time>
      </trkpt>
      <trkpt lat="49.22662" lon="6.79941">
        <ele>237.1</ele>
        <time>2020-06-26T19:52:00Z</time>
      </trkpt>
      <trkpt lat="49.2266" lon="6.79946">
        <ele>237.2</ele>
        <time>2020-06-26T19:52:01Z</time>
      </trkpt>
      <trkpt lat="49.22658" lon="6.79951">
        <ele>237.4</ele>
        <time>2020-06-26T19:52:02Z</time>
      </trkpt>
      <trkpt lat="49.22656" lon="6.79956">
        <ele>237.5</ele>
        <time>2020-06-26T19:52:03Z</time>
      </trkpt>
      <trkpt lat="49.22654" lon="6.7996">
        <ele>237.6</ele>
        <time>2020-06-26T19:52:04Z</time>
      </trkpt>
      <trkpt lat="49.22651" lon="6.79965">
        <ele>237.7</ele>
        <time>2020-06-26T19:52:05Z</time>
      </trkpt>
      <trkpt lat="49.22648" lon="6.79969">
        <ele>237.8</ele>
        <time>2020-06-26T19:52:06Z</time>
      </trkpt>
      <trkpt lat="49.22646" lon="6.79974">
        <ele>237.9</ele>
        <time>2020-06-26T19:52:07Z</time>
      </trkpt>
      <trkpt lat="49.22643" lon="6.79978">
        <ele>238</ele>
        <time>2020-06-26T19:52:08Z</time>
      </trkpt>
      <trkpt lat="49.22641" lon="6.79982">
        <ele>238.1</ele>
        <time>2020-06-26T19:52:09Z</time>
      </trkpt>
      <trkpt lat="49.22638" lon="6.79987">
        <ele>238.1</ele>
        <time>2020-06-26T19:52:10Z</time>
      </trkpt>
      <trkpt lat="49.22635" lon="6.79992">
        <ele>238.2</ele>
        <time>2020-06-26T19:52:11Z</time>
      </trkpt>
      <trkpt lat="49.22633" lon="6.79997">
        <ele>238.2</ele>
        <time>2020-06-26T19:52:12Z</time>
      </trkpt>
      <trkpt lat="49.22631" lon="6.80001">
        <ele>238.2</ele>
        <time>2020-06-26T19:52:13Z</time>
      </trkpt>
      <trkpt lat="49.22629" lon="6.80005">
        <ele>238.2</ele>
        <time>2020-06-26T19:52:14Z</time>
      </trkpt>
      <trkpt lat="49.22627" lon="6.8001">
        <ele>238.2</ele>
        <time>2020-06-26T19:52:15Z</time>
      </trkpt>
      <trkpt lat="49.22625" lon="6.80015">
        <ele>238.2</ele>
        <time>2020-06-26T19:52:16Z</time>
      </trkpt>
      <trkpt lat="49.22623" lon="6.8002">
        <ele>238.2</ele>
        <time>2020-06-26T19:52:17Z</time>
      </trkpt>
      <trkpt lat="49.22621" lon="6.80023">
        <ele>238.2</ele>
        <time>2020-06-26T19:52:18Z</time>
      </trkpt>
      <trkpt lat="49.22619" lon="6.80026">
        <ele>238.2</ele>
        <time>2020-06-26T19:52:19Z</time>
      </trkpt>
      <trkpt lat="49.22617" lon="6.8003">
        <ele>238.2</ele>
        <time>2020-06-26T19:52:20Z</time>
      </trkpt>
      <trkpt lat="49.22615" lon="6.80034">
        <ele>238.2</ele>
        <time>2020-06-26T19:52:21Z</time>
      </trkpt>
      <trkpt lat="49.22612" lon="6.80039">
        <ele>238.2</ele>
        <time>2020-06-26T19:52:22Z</time>
      </trkpt>
      <trkpt lat="49.2261" lon="6.80044">
        <ele>238.2</ele>
        <time>2020-06-26T19:52:23Z</time>
      </trkpt>
      <trkpt lat="49.22608" lon="6.8005">
        <ele>238.3</ele>
        <time>2020-06-26T19:52:24Z</time>
      </trkpt>
      <trkpt lat="49.22605" lon="6.80056">
        <ele>238.3</ele>
        <time>2020-06-26T19:52:25Z</time>
      </trkpt>
      <trkpt lat="49.22603" lon="6.80061">
        <ele>238.3</ele>
        <time>2020-06-26T19:52:26Z</time>
      </trkpt>
      <trkpt lat="49.22599" lon="6.80067">
        <ele>238.3</ele>
        <time>2020-06-26T19:52:27Z</time>
      </trkpt>
      <trkpt lat="49.22596" lon="6.80072">
        <ele>238.2</ele>
        <time>2020-06-26T19:52:28Z</time>
      </trkpt>
      <trkpt lat="49.22593" lon="6.80077">
        <ele>238.2</ele>
        <time>2020-06-26T19:52:29Z</time>
      </trkpt>
      <trkpt lat="49.22589" lon="6.80084">
        <ele>238.2</ele>
        <time>2020-06-26T19:52:30Z</time>
      </trkpt>
      <trkpt lat="49.22586" lon="6.8009">
        <ele>238.1</ele>
        <time>2020-06-26T19:52:31Z</time>
      </trkpt>
      <trkpt lat="49.22582" lon="6.80095">
        <ele>238</ele>
        <time>2020-06-26T19:52:32Z</time>
      </trkpt>
      <trkpt lat="49.22579" lon="6.801">
        <ele>237.9</ele>
        <time>2020-06-26T19:52:33Z</time>
      </trkpt>
      <trkpt lat="49.22576" lon="6.80106">
        <ele>237.8</ele>
        <time>2020-06-26T19:52:34Z</time>
      </trkpt>
      <trkpt lat="49.22574" lon="6.80111">
        <ele>237.6</ele>
        <time>2020-06-26T19:52:35Z</time>
      </trkpt>
      <trkpt lat="49.22571" lon="6.80117">
        <ele>237.5</ele>
        <time>2020-06-26T19:52:36Z</time>
      </trkpt>
      <trkpt lat="49.22568" lon="6.80122">
        <ele>237.4</ele>
        <time>2020-06-26T19:52:37Z</time>
      </trkpt>
      <trkpt lat="49.22566" lon="6.80128">
        <ele>237.2</ele>
        <time>2020-06-26T19:52:38Z</time>
      </trkpt>
      <trkpt lat="49.22563" lon="6.80134">
        <ele>237.1</ele>
        <time>2020-06-26T19:52:39Z</time>
      </trkpt>
      <trkpt lat="49.2256" lon="6.80142">
        <ele>236.9</ele>
        <time>2020-06-26T19:52:40Z</time>
      </trkpt>
      <trkpt lat="49.22557" lon="6.80148">
        <ele>236.7</ele>
        <time>2020-06-26T19:52:41Z</time>
      </trkpt>
      <trkpt lat="49.22555" lon="6.80156">
        <ele>236.5</ele>
        <time>2020-06-26T19:52:42Z</time>
      </trkpt>
      <trkpt lat="49.22553" lon="6.80164">
        <ele>236.2</ele>
        <time>2020-06-26T19:52:43Z</time>
      </trkpt>
      <trkpt lat="49.2255" lon="6.80172">
        <ele>236</ele>
        <time>2020-06-26T19:52:44Z</time>
      </trkpt>
      <trkpt lat="49.22548" lon="6.80181">
        <ele>235.7</ele>
        <time>2020-06-26T19:52:45Z</time>
      </trkpt>
      <trkpt lat="49.22547" lon="6.80189">
        <ele>235.4</ele>
        <time>2020-06-26T19:52:46Z</time>
      </trkpt>
      <trkpt lat="49.22546" lon="6.80197">
        <ele>235.1</ele>
        <time>2020-06-26T19:52:47Z</time>
      </trkpt>
      <trkpt lat="49.22544" lon="6.80204">
        <ele>234.9</ele>
        <time>2020-06-26T19:52:48Z</time>
      </trkpt>
      <trkpt lat="49.22543" lon="6.8021">
        <ele>234.7</ele>
        <time>2020-06-26T19:52:49Z</time>
      </trkpt>
      <trkpt lat="49.22542" lon="6.80217">
        <ele>234.4</ele>
        <time>2020-06-26T19:52:50Z</time>
      </trkpt>
      <trkpt lat="49.2254" lon="6.80224">
        <ele>234.1</ele>
        <time>2020-06-26T19:52:51Z</time>
      </trkpt>
      <trkpt lat="49.2254" lon="6.80231">
        <ele>233.9</ele>
        <time>2020-06-26T19:52:52Z</time>
      </trkpt>
      <trkpt lat="49.22538" lon="6.80237">
        <ele>233.7</ele>
        <time>2020-06-26T19:52:53Z</time>
      </trkpt>
      <trkpt lat="49.22537" lon="6.80243">
        <ele>233.4</ele>
        <time>2020-06-26T19:52:54Z</time>
      </trkpt>
      <trkpt lat="49.22537" lon="6.8025">
        <ele>233.2</ele>
        <time>2020-06-26T19:52:55Z</time>
      </trkpt>
      <trkpt lat="49.22536" lon="6.80257">
        <ele>233</ele>
        <time>2020-06-26T19:52:56Z</time>
      </trkpt>
      <trkpt lat="49.22536" lon="6.80264">
        <ele>232.8</ele>
        <time>2020-06-26T19:52:57Z</time>
      </trkpt>
      <trkpt lat="49.22537" lon="6.8027">
        <ele>232.7</ele>
        <time>2020-06-26T19:52:58Z</time>
      </trkpt>
      <trkpt lat="49.22538" lon="6.80279">
        <ele>232.5</ele>
        <time>2020-06-26T19:52:59Z</time>
      </trkpt>
      <trkpt lat="49.22539" lon="6.80288">
        <ele>232.2</ele>
        <time>2020-06-26T19:53:00Z</time>
      </trkpt>
      <trkpt lat="49.22541" lon="6.80297">
        <ele>231.8</ele>
        <time>2020-06-26T19:53:01Z</time>
      </trkpt>
      <trkpt lat="49.22543" lon="6.80306">
        <ele>231.5</ele>
        <time>2020-06-26T19:53:02Z</time>
      </trkpt>
      <trkpt lat="49.22544" lon="6.80316">
        <ele>231.2</ele>
        <time>2020-06-26T19:53:03Z</time>
      </trkpt>
      <trkpt lat="49.22546" lon="6.80327">
        <ele>230.9</ele>
        <time>2020-06-26T19:53:04Z</time>
      </trkpt>
      <trkpt lat="49.22547" lon="6.80337">
        <ele>230.5</ele>
        <time>2020-06-26T19:53:05Z</time>
      </trkpt>
      <trkpt lat="49.22548" lon="6.80349">
        <ele>230.1</ele>
        <time>2020-06-26T19:53:06Z</time>
      </trkpt>
      <trkpt lat="49.22549" lon="6.80361">
        <ele>229.7</ele>
        <time>2020-06-26T19:53:07Z</time>
      </trkpt>
      <trkpt lat="49.22551" lon="6.80374">
        <ele>229.2</ele>
        <time>2020-06-26T19:53:08Z</time>
      </trkpt>
      <trkpt lat="49.22553" lon="6.80386">
        <ele>228.8</ele>
        <time>2020-06-26T19:53:09Z</time>
      </trkpt>
      <trkpt lat="49.22555" lon="6.80396">
        <ele>228.4</ele>
        <time>2020-06-26T19:53:10Z</time>
      </trkpt>
      <trkpt lat="49.22557" lon="6.80409">
        <ele>227.8</ele>
        <time>2020-06-26T19:53:11Z</time>
      </trkpt>
      <trkpt lat="49.22559" lon="6.80422">
        <ele>227.4</ele>
        <time>2020-06-26T19:53:12Z</time>
      </trkpt>
      <trkpt lat="49.22562" lon="6.80434">
        <ele>227.1</ele>
        <time>2020-06-26T19:53:13Z</time>
      </trkpt>
      <trkpt lat="49.22564" lon="6.80444">
        <ele>226.7</ele>
        <time>2020-06-26T19:53:14Z</time>
      </trkpt>
      <trkpt lat="49.22567" lon="6.80456">
        <ele>226.4</ele>
        <time>2020-06-26T19:53:15Z</time>
      </trkpt>
      <trkpt lat="49.22569" lon="6.80468">
        <ele>226</ele>
        <time>2020-06-26T19:53:16Z</time>
      </trkpt>
      <trkpt lat="49.22571" lon="6.8048">
        <ele>225.6</ele>
        <time>2020-06-26T19:53:17Z</time>
      </trkpt>
      <trkpt lat="49.22573" lon="6.80492">
        <ele>225.3</ele>
        <time>2020-06-26T19:53:18Z</time>
      </trkpt>
      <trkpt lat="49.22574" lon="6.80504">
        <ele>225</ele>
        <time>2020-06-26T19:53:19Z</time>
      </trkpt>
      <trkpt lat="49.22576" lon="6.80516">
        <ele>224.7</ele>
        <time>2020-06-26T19:53:20Z</time>
      </trkpt>
      <trkpt lat="49.22577" lon="6.80528">
        <ele>224.4</ele>
        <time>2020-06-26T19:53:21Z</time>
      </trkpt>
      <trkpt lat="49.22579" lon="6.80541">
        <ele>224</ele>
        <time>2020-06-26T19:53:22Z</time>
      </trkpt>
      <trkpt lat="49.2258" lon="6.80553">
        <ele>223.7</ele>
        <time>2020-06-26T19:53:23Z</time>
      </trkpt>
      <trkpt lat="49.22583" lon="6.80566">
        <ele>223.3</ele>
        <time>2020-06-26T19:53:24Z</time>
      </trkpt>
      <trkpt lat="49.22585" lon="6.80579">
        <ele>222.9</ele>
        <time>2020-06-26T19:53:25Z</time>
      </trkpt>
      <trkpt lat="49.22587" lon="6.80591">
        <ele>222.6</ele>
        <time>2020-06-26T19:53:26Z</time>
      </trkpt>
      <trkpt lat="49.2259" lon="6.80603">
        <ele>222.2</ele>
        <time>2020-06-26T19:53:27Z</time>
      </trkpt>
      <trkpt lat="49.22593" lon="6.80616">
        <ele>221.9</ele>
        <time>2020-06-26T19:53:28Z</time>
      </trkpt>
      <trkpt lat="49.22595" lon="6.80629">
        <ele>221.6</ele>
        <time>2020-06-26T19:53:29Z</time>
      </trkpt>
      <trkpt lat="49.22598" lon="6.8064">
        <ele>221.3</ele>
        <time>2020-06-26T19:53:30Z</time>
      </trkpt>
      <trkpt lat="49.22601" lon="6.8065">
        <ele>221</ele>
        <time>2020-06-26T19:53:31Z</time>
      </trkpt>
      <trkpt lat="49.22603" lon="6.8066">
        <ele>220.7</ele>
        <time>2020-06-26T19:53:32Z</time>
      </trkpt>
      <trkpt lat="49.22605" lon="6.80668">
        <ele>220.4</ele>
        <time>2020-06-26T19:53:33Z</time>
      </trkpt>
      <trkpt lat="49.22607" lon="6.80676">
        <ele>220.2</ele>
        <time>2020-06-26T19:53:34Z</time>
      </trkpt>
      <trkpt lat="49.22609" lon="6.80684">
        <ele>219.9</ele>
        <time>2020-06-26T19:53:35Z</time>
      </trkpt>
      <trkpt lat="49.22611" lon="6.80691">
        <ele>219.7</ele>
        <time>2020-06-26T19:53:36Z</time>
      </trkpt>
      <trkpt lat="49.22613" lon="6.80699">
        <ele>219.5</ele>
        <time>2020-06-26T19:53:37Z</time>
      </trkpt>
      <trkpt lat="49.22615" lon="6.80707">
        <ele>219.3</ele>
        <time>2020-06-26T19:53:38Z</time>
      </trkpt>
      <trkpt lat="49.22617" lon="6.80716">
        <ele>219</ele>
        <time>2020-06-26T19:53:39Z</time>
      </trkpt>
      <trkpt lat="49.22619" lon="6.80723">
        <ele>218.8</ele>
        <time>2020-06-26T19:53:40Z</time>
      </trkpt>
      <trkpt lat="49.22621" lon="6.80732">
        <ele>218.6</ele>
        <time>2020-06-26T19:53:41Z</time>
      </trkpt>
      <trkpt lat="49.22623" lon="6.8074">
        <ele>218.5</ele>
        <time>2020-06-26T19:53:42Z</time>
      </trkpt>
      <trkpt lat="49.22626" lon="6.8075">
        <ele>218.3</ele>
        <time>2020-06-26T19:53:43Z</time>
      </trkpt>
      <trkpt lat="49.22628" lon="6.80759">
        <ele>218.1</ele>
        <time>2020-06-26T19:53:44Z</time>
      </trkpt>
      <trkpt lat="49.2263" lon="6.80769">
        <ele>217.9</ele>
        <time>2020-06-26T19:53:45Z</time>
      </trkpt>
      <trkpt lat="49.22632" lon="6.80778">
        <ele>217.7</ele>
        <time>2020-06-26T19:53:46Z</time>
      </trkpt>
      <trkpt lat="49.22634" lon="6.80788">
        <ele>217.5</ele>
        <time>2020-06-26T19:53:47Z</time>
      </trkpt>
      <trkpt lat="49.22635" lon="6.80798">
        <ele>217.3</ele>
        <time>2020-06-26T19:53:48Z</time>
      </trkpt>
      <trkpt lat="49.22634" lon="6.80808">
        <ele>217.1</ele>
        <time>2020-06-26T19:53:49Z</time>
      </trkpt>
      <trkpt lat="49.22633" lon="6.80817">
        <ele>216.9</ele>
        <time>2020-06-26T19:53:50Z</time>
      </trkpt>
      <trkpt lat="49.22631" lon="6.80827">
        <ele>216.7</ele>
        <time>2020-06-26T19:53:51Z</time>
      </trkpt>
      <trkpt lat="49.22628" lon="6.80836">
        <ele>216.3</ele>
        <time>2020-06-26T19:53:52Z</time>
      </trkpt>
      <trkpt lat="49.22624" lon="6.80844">
        <ele>216</ele>
        <time>2020-06-26T19:53:53Z</time>
      </trkpt>
      <trkpt lat="49.22621" lon="6.80851">
        <ele>215.8</ele>
        <time>2020-06-26T19:53:54Z</time>
      </trkpt>
      <trkpt lat="49.22618" lon="6.80859">
        <ele>215.6</ele>
        <time>2020-06-26T19:53:55Z</time>
      </trkpt>
      <trkpt lat="49.22615" lon="6.80865">
        <ele>215.3</ele>
        <time>2020-06-26T19:53:56Z</time>
      </trkpt>
      <trkpt lat="49.22611" lon="6.80872">
        <ele>215.1</ele>
        <time>2020-06-26T19:53:57Z</time>
      </trkpt>
      <trkpt lat="49.22607" lon="6.80878">
        <ele>214.9</ele>
        <time>2020-06-26T19:53:58Z</time>
      </trkpt>
      <trkpt lat="49.22602" lon="6.80885">
        <ele>214.6</ele>
        <time>2020-06-26T19:53:59Z</time>
      </trkpt>
      <trkpt lat="49.22597" lon="6.80892">
        <ele>214.3</ele>
        <time>2020-06-26T19:54:00Z</time>
      </trkpt>
      <trkpt lat="49.22593" lon="6.809">
        <ele>214</ele>
        <time>2020-06-26T19:54:01Z</time>
      </trkpt>
      <trkpt lat="49.22589" lon="6.80909">
        <ele>213.7</ele>
        <time>2020-06-26T19:54:02Z</time>
      </trkpt>
      <trkpt lat="49.22584" lon="6.80917">
        <ele>213.4</ele>
        <time>2020-06-26T19:54:03Z</time>
      </trkpt>
      <trkpt lat="49.2258" lon="6.80926">
        <ele>213.1</ele>
        <time>2020-06-26T19:54:04Z</time>
      </trkpt>
      <trkpt lat="49.22575" lon="6.80936">
        <ele>212.7</ele>
        <time>2020-06-26T19:54:05Z</time>
      </trkpt>
      <trkpt lat="49.22571" lon="6.80946">
        <ele>212.3</ele>
        <time>2020-06-26T19:54:06Z</time>
      </trkpt>
      <trkpt lat="49.22566" lon="6.80956">
        <ele>211.9</ele>
        <time>2020-06-26T19:54:07Z</time>
      </trkpt>
      <trkpt lat="49.22563" lon="6.80966">
        <ele>211.6</ele>
        <time>2020-06-26T19:54:08Z</time>
      </trkpt>
      <trkpt lat="49.2256" lon="6.80977">
        <ele>211.5</ele>
        <time>2020-06-26T19:54:09Z</time>
      </trkpt>
      <trkpt lat="49.22558" lon="6.80988">
        <ele>211.4</ele>
        <time>2020-06-26T19:54:10Z</time>
      </trkpt>
      <trkpt lat="49.22555" lon="6.80999">
        <ele>210.7</ele>
        <time>2020-06-26T19:54:11Z</time>
      </trkpt>
      <trkpt lat="49.22553" lon="6.8101">
        <ele>210</ele>
        <time>2020-06-26T19:54:12Z</time>
      </trkpt>
      <trkpt lat="49.2255" lon="6.81021">
        <ele>209.4</ele>
        <time>2020-06-26T19:54:13Z</time>
      </trkpt>
      <trkpt lat="49.22548" lon="6.81032">
        <ele>208.8</ele>
        <time>2020-06-26T19:54:14Z</time>
      </trkpt>
      <trkpt lat="49.22546" lon="6.81044">
        <ele>208.1</ele>
        <time>2020-06-26T19:54:15Z</time>
      </trkpt>
      <trkpt lat="49.22543" lon="6.81055">
        <ele>207.4</ele>
        <time>2020-06-26T19:54:16Z</time>
      </trkpt>
      <trkpt lat="49.22541" lon="6.81067">
        <ele>206.8</ele>
        <time>2020-06-26T19:54:17Z</time>
      </trkpt>
      <trkpt lat="49.22538" lon="6.81079">
        <ele>206.1</ele>
        <time>2020-06-26T19:54:18Z</time>
      </trkpt>
      <trkpt lat="49.22535" lon="6.81092">
        <ele>205.4</ele>
        <time>2020-06-26T19:54:19Z</time>
      </trkpt>
      <trkpt lat="49.22531" lon="6.81104">
        <ele>204.8</ele>
        <time>2020-06-26T19:54:20Z</time>
      </trkpt>
      <trkpt lat="49.22527" lon="6.81117">
        <ele>204.2</ele>
        <time>2020-06-26T19:54:21Z</time>
      </trkpt>
      <trkpt lat="49.22523" lon="6.81128">
        <ele>203.5</ele>
        <time>2020-06-26T19:54:22Z</time>
      </trkpt>
      <trkpt lat="49.22519" lon="6.8114">
        <ele>202.9</ele>
        <time>2020-06-26T19:54:23Z</time>
      </trkpt>
      <trkpt lat="49.22514" lon="6.81151">
        <ele>202.3</ele>
        <time>2020-06-26T19:54:24Z</time>
      </trkpt>
      <trkpt lat="49.2251" lon="6.81162">
        <ele>201.7</ele>
        <time>2020-06-26T19:54:25Z</time>
      </trkpt>
      <trkpt lat="49.22506" lon="6.81173">
        <ele>201.2</ele>
        <time>2020-06-26T19:54:26Z</time>
      </trkpt>
      <trkpt lat="49.22502" lon="6.81183">
        <ele>200.6</ele>
        <time>2020-06-26T19:54:27Z</time>
      </trkpt>
      <trkpt lat="49.22497" lon="6.81194">
        <ele>200</ele>
        <time>2020-06-26T19:54:28Z</time>
      </trkpt>
      <trkpt lat="49.22491" lon="6.81204">
        <ele>199.5</ele>
        <time>2020-06-26T19:54:29Z</time>
      </trkpt>
      <trkpt lat="49.22486" lon="6.81213">
        <ele>198.8</ele>
        <time>2020-06-26T19:54:30Z</time>
      </trkpt>
      <trkpt lat="49.22482" lon="6.8122">
        <ele>198.6</ele>
        <time>2020-06-26T19:54:31Z</time>
      </trkpt>
      <trkpt lat="49.22477" lon="6.81227">
        <ele>198.5</ele>
        <time>2020-06-26T19:54:32Z</time>
      </trkpt>
      <trkpt lat="49.22473" lon="6.81232">
        <ele>198.3</ele>
        <time>2020-06-26T19:54:33Z</time>
      </trkpt>
      <trkpt lat="49.2247" lon="6.81236">
        <ele>198.2</ele>
        <time>2020-06-26T19:54:34Z</time>
      </trkpt>
      <trkpt lat="49.22468" lon="6.8124">
        <ele>198.2</ele>
        <time>2020-06-26T19:54:35Z</time>
      </trkpt>
      <trkpt lat="49.22466" lon="6.81242">
        <ele>198.1</ele>
        <time>2020-06-26T19:54:36Z</time>
      </trkpt>
      <trkpt lat="49.22464" lon="6.81246">
        <ele>198</ele>
        <time>2020-06-26T19:54:37Z</time>
      </trkpt>
      <trkpt lat="49.22463" lon="6.81247">
        <ele>198</ele>
        <time>2020-06-26T19:54:38Z</time>
      </trkpt>
      <trkpt lat="49.22462" lon="6.81249">
        <ele>198</ele>
        <time>2020-06-26T19:54:39Z</time>
      </trkpt>
      <trkpt lat="49.22462" lon="6.81251">
        <ele>197.9</ele>
        <time>2020-06-26T19:54:40Z</time>
      </trkpt>
      <trkpt lat="49.2246" lon="6.81252">
        <ele>197.9</ele>
        <time>2020-06-26T19:54:41Z</time>
      </trkpt>
      <trkpt lat="49.22459" lon="6.81255">
        <ele>197.9</ele>
        <time>2020-06-26T19:54:42Z</time>
      </trkpt>
      <trkpt lat="49.22458" lon="6.8126">
        <ele>197.8</ele>
        <time>2020-06-26T19:54:43Z</time>
      </trkpt>
      <trkpt lat="49.22456" lon="6.81264">
        <ele>197.6</ele>
        <time>2020-06-26T19:54:44Z</time>
      </trkpt>
      <trkpt lat="49.22456" lon="6.81269">
        <ele>197.5</ele>
        <time>2020-06-26T19:54:45Z</time>
      </trkpt>
      <trkpt lat="49.22455" lon="6.81275">
        <ele>197.4</ele>
        <time>2020-06-26T19:54:46Z</time>
      </trkpt>
      <trkpt lat="49.22454" lon="6.8128">
        <ele>197.3</ele>
        <time>2020-06-26T19:54:47Z</time>
      </trkpt>
      <trkpt lat="49.22452" lon="6.81286">
        <ele>197.1</ele>
        <time>2020-06-26T19:54:48Z</time>
      </trkpt>
      <trkpt lat="49.22451" lon="6.81292">
        <ele>197</ele>
        <time>2020-06-26T19:54:49Z</time>
      </trkpt>
      <trkpt lat="49.2245" lon="6.81298">
        <ele>196.8</ele>
        <time>2020-06-26T19:54:50Z</time>
      </trkpt>
      <trkpt lat="49.22449" lon="6.81305">
        <ele>196.6</ele>
        <time>2020-06-26T19:54:51Z</time>
      </trkpt>
      <trkpt lat="49.22447" lon="6.81312">
        <ele>196.5</ele>
        <time>2020-06-26T19:54:52Z</time>
      </trkpt>
      <trkpt lat="49.22445" lon="6.81319">
        <ele>196.3</ele>
        <time>2020-06-26T19:54:53Z</time>
      </trkpt>
      <trkpt lat="49.22443" lon="6.81326">
        <ele>196.1</ele>
        <time>2020-06-26T19:54:54Z</time>
      </trkpt>
      <trkpt lat="49.22441" lon="6.81332">
        <ele>196</ele>
        <time>2020-06-26T19:54:55Z</time>
      </trkpt>
      <trkpt lat="49.2244" lon="6.8134">
        <ele>195.8</ele>
        <time>2020-06-26T19:54:56Z</time>
      </trkpt>
      <trkpt lat="49.22438" lon="6.81347">
        <ele>195.7</ele>
        <time>2020-06-26T19:54:57Z</time>
      </trkpt>
      <trkpt lat="49.22437" lon="6.81355">
        <ele>195.6</ele>
        <time>2020-06-26T19:54:58Z</time>
      </trkpt>
      <trkpt lat="49.22436" lon="6.81363">
        <ele>195.5</ele>
        <time>2020-06-26T19:54:59Z</time>
      </trkpt>
      <trkpt lat="49.22434" lon="6.81371">
        <ele>195.3</ele>
        <time>2020-06-26T19:55:00Z</time>
      </trkpt>
      <trkpt lat="49.22433" lon="6.81379">
        <ele>195.3</ele>
        <time>2020-06-26T19:55:01Z</time>
      </trkpt>
      <trkpt lat="49.22431" lon="6.81385">
        <ele>195.3</ele>
        <time>2020-06-26T19:55:02Z</time>
      </trkpt>
      <trkpt lat="49.2243" lon="6.81391">
        <ele>195.3</ele>
        <time>2020-06-26T19:55:03Z</time>
      </trkpt>
      <trkpt lat="49.22429" lon="6.81397">
        <ele>195.3</ele>
        <time>2020-06-26T19:55:04Z</time>
      </trkpt>
      <trkpt lat="49.22429" lon="6.81403">
        <ele>195.3</ele>
        <time>2020-06-26T19:55:05Z</time>
      </trkpt>
      <trkpt lat="49.22429" lon="6.81409">
        <ele>195.2</ele>
        <time>2020-06-26T19:55:06Z</time>
      </trkpt>
      <trkpt lat="49.22429" lon="6.81414">
        <ele>195.2</ele>
        <time>2020-06-26T19:55:07Z</time>
      </trkpt>
      <trkpt lat="49.2243" lon="6.81419">
        <ele>195.2</ele>
        <time>2020-06-26T19:55:08Z</time>
      </trkpt>
      <trkpt lat="49.2243" lon="6.81424">
        <ele>195.3</ele>
        <time>2020-06-26T19:55:09Z</time>
      </trkpt>
      <trkpt lat="49.2243" lon="6.81426">
        <ele>195.3</ele>
        <time>2020-06-26T19:55:10Z</time>
      </trkpt>
      <trkpt lat="49.2243" lon="6.81432">
        <ele>195.4</ele>
        <time>2020-06-26T19:55:11Z</time>
      </trkpt>
      <trkpt lat="49.2243" lon="6.81435">
        <ele>195.5</ele>
        <time>2020-06-26T19:55:12Z</time>
      </trkpt>
      <trkpt lat="49.22431" lon="6.81439">
        <ele>195.6</ele>
        <time>2020-06-26T19:55:13Z</time>
      </trkpt>
      <trkpt lat="49.22431" lon="6.81445">
        <ele>195.7</ele>
        <time>2020-06-26T19:55:14Z</time>
      </trkpt>
      <trkpt lat="49.22432" lon="6.81448">
        <ele>195.7</ele>
        <time>2020-06-26T19:55:15Z</time>
      </trkpt>
      <trkpt lat="49.22433" lon="6.81454">
        <ele>195.8</ele>
        <time>2020-06-26T19:55:16Z</time>
      </trkpt>
      <trkpt lat="49.22434" lon="6.81458">
        <ele>195.9</ele>
        <time>2020-06-26T19:55:17Z</time>
      </trkpt>
      <trkpt lat="49.22434" lon="6.81464">
        <ele>196.1</ele>
        <time>2020-06-26T19:55:18Z</time>
      </trkpt>
      <trkpt lat="49.22435" lon="6.81469">
        <ele>196.2</ele>
        <time>2020-06-26T19:55:19Z</time>
      </trkpt>
      <trkpt lat="49.22437" lon="6.81475">
        <ele>196.3</ele>
        <time>2020-06-26T19:55:20Z</time>
      </trkpt>
      <trkpt lat="49.22438" lon="6.8148">
        <ele>196.5</ele>
        <time>2020-06-26T19:55:21Z</time>
      </trkpt>
      <trkpt lat="49.22439" lon="6.81485">
        <ele>196.6</ele>
        <time>2020-06-26T19:55:22Z</time>
      </trkpt>
      <trkpt lat="49.2244" lon="6.8149">
        <ele>196.8</ele>
        <time>2020-06-26T19:55:23Z</time>
      </trkpt>
      <trkpt lat="49.22442" lon="6.81494">
        <ele>197</ele>
        <time>2020-06-26T19:55:24Z</time>
      </trkpt>
      <trkpt lat="49.22444" lon="6.81498">
        <ele>197.1</ele>
        <time>2020-06-26T19:55:25Z</time>
      </trkpt>
      <trkpt lat="49.22445" lon="6.81503">
        <ele>197.3</ele>
        <time>2020-06-26T19:55:26Z</time>
      </trkpt>
      <trkpt lat="49.22446" lon="6.81507">
        <ele>197.5</ele>
        <time>2020-06-26T19:55:27Z</time>
      </trkpt>
      <trkpt lat="49.22447" lon="6.81512">
        <ele>197.7</ele>
        <time>2020-06-26T19:55:28Z</time>
      </trkpt>
      <trkpt lat="49.22448" lon="6.81517">
        <ele>197.9</ele>
        <time>2020-06-26T19:55:29Z</time>
      </trkpt>
      <trkpt lat="49.22449" lon="6.81521">
        <ele>198.1</ele>
        <time>2020-06-26T19:55:30Z</time>
      </trkpt>
      <trkpt lat="49.22449" lon="6.81525">
        <ele>198.2</ele>
        <time>2020-06-26T19:55:31Z</time>
      </trkpt>
      <trkpt lat="49.22451" lon="6.8153">
        <ele>198.5</ele>
        <time>2020-06-26T19:55:32Z</time>
      </trkpt>
      <trkpt lat="49.22452" lon="6.81532">
        <ele>198.5</ele>
        <time>2020-06-26T19:55:33Z</time>
      </trkpt>
      <trkpt lat="49.22452" lon="6.81536">
        <ele>198.7</ele>
        <time>2020-06-26T19:55:34Z</time>
      </trkpt>
      <trkpt lat="49.22453" lon="6.81542">
        <ele>198.9</ele>
        <time>2020-06-26T19:55:35Z</time>
      </trkpt>
      <trkpt lat="49.22454" lon="6.81544">
        <ele>199</ele>
        <time>2020-06-26T19:55:36Z</time>
      </trkpt>
      <trkpt lat="49.22455" lon="6.81548">
        <ele>199.2</ele>
        <time>2020-06-26T19:55:37Z</time>
      </trkpt>
      <trkpt lat="49.22456" lon="6.8155">
        <ele>199.3</ele>
        <time>2020-06-26T19:55:38Z</time>
      </trkpt>
      <trkpt lat="49.22457" lon="6.81555">
        <ele>199.4</ele>
        <time>2020-06-26T19:55:39Z</time>
      </trkpt>
      <trkpt lat="49.22458" lon="6.81557">
        <ele>199.5</ele>
        <time>2020-06-26T19:55:40Z</time>
      </trkpt>
      <trkpt lat="49.22459" lon="6.81562">
        <ele>199.7</ele>
        <time>2020-06-26T19:55:41Z</time>
      </trkpt>
      <trkpt lat="49.22461" lon="6.81567">
        <ele>199.8</ele>
        <time>2020-06-26T19:55:42Z</time>
      </trkpt>
      <trkpt lat="49.22461" lon="6.81569">
        <ele>199.9</ele>
        <time>2020-06-26T19:55:43Z</time>
      </trkpt>
      <trkpt lat="49.22462" lon="6.81573">
        <ele>200</ele>
        <time>2020-06-26T19:55:44Z</time>
      </trkpt>
      <trkpt lat="49.22463" lon="6.81577">
        <ele>200.1</ele>
        <time>2020-06-26T19:55:45Z</time>
      </trkpt>
      <trkpt lat="49.22464" lon="6.81582">
        <ele>200.2</ele>
        <time>2020-06-26T19:55:46Z</time>
      </trkpt>
      <trkpt lat="49.22464" lon="6.81584">
        <ele>201.5</ele>
        <time>2020-06-26T19:55:47Z</time>
      </trkpt>
      <trkpt lat="49.22464" lon="6.81586">
        <ele>201.7</ele>
        <time>2020-06-26T19:55:48Z</time>
      </trkpt>
      <trkpt lat="49.22464" lon="6.81588">
        <ele>201.9</ele>
        <time>2020-06-26T19:55:49Z</time>
      </trkpt>
      <trkpt lat="49.22462" lon="6.81593">
        <ele>202.3</ele>
        <time>2020-06-26T19:55:50Z</time>
      </trkpt>
      <trkpt lat="49.22462" lon="6.81595">
        <ele>202.4</ele>
        <time>2020-06-26T19:55:51Z</time>
      </trkpt>
      <trkpt lat="49.2246" lon="6.81599">
        <ele>202.7</ele>
        <time>2020-06-26T19:55:52Z</time>
      </trkpt>
      <trkpt lat="49.22459" lon="6.81603">
        <ele>203</ele>
        <time>2020-06-26T19:55:53Z</time>
      </trkpt>
      <trkpt lat="49.22458" lon="6.81607">
        <ele>203.3</ele>
        <time>2020-06-26T19:55:54Z</time>
      </trkpt>
      <trkpt lat="49.22457" lon="6.81611">
        <ele>203.5</ele>
        <time>2020-06-26T19:55:55Z</time>
      </trkpt>
      <trkpt lat="49.22456" lon="6.81615">
        <ele>203.8</ele>
        <time>2020-06-26T19:55:56Z</time>
      </trkpt>
      <trkpt lat="49.22455" lon="6.81621">
        <ele>204.1</ele>
        <time>2020-06-26T19:55:57Z</time>
      </trkpt>
      <trkpt lat="49.22455" lon="6.81623">
        <ele>204.3</ele>
        <time>2020-06-26T19:55:58Z</time>
      </trkpt>
      <trkpt lat="49.22454" lon="6.81628">
        <ele>204.5</ele>
        <time>2020-06-26T19:55:59Z</time>
      </trkpt>
      <trkpt lat="49.22454" lon="6.8163">
        <ele>204.6</ele>
        <time>2020-06-26T19:56:00Z</time>
      </trkpt>
      <trkpt lat="49.22453" lon="6.81631">
        <ele>204.7</ele>
        <time>2020-06-26T19:56:01Z</time>
      </trkpt>
      <trkpt lat="49.22453" lon="6.81635">
        <ele>205</ele>
        <time>2020-06-26T19:56:02Z</time>
      </trkpt>
      <trkpt lat="49.22452" lon="6.8164">
        <ele>205.3</ele>
        <time>2020-06-26T19:56:03Z</time>
      </trkpt>
      <trkpt lat="49.22452" lon="6.81645">
        <ele>205.7</ele>
        <time>2020-06-26T19:56:04Z</time>
      </trkpt>
      <trkpt lat="49.22452" lon="6.81649">
        <ele>206</ele>
        <time>2020-06-26T19:56:05Z</time>
      </trkpt>
      <trkpt lat="49.22452" lon="6.81654">
        <ele>206.3</ele>
        <time>2020-06-26T19:56:06Z</time>
      </trkpt>
      <trkpt lat="49.22452" lon="6.81659">
        <ele>206.7</ele>
        <time>2020-06-26T19:56:07Z</time>
      </trkpt>
      <trkpt lat="49.22451" lon="6.81661">
        <ele>206.8</ele>
        <time>2020-06-26T19:56:08Z</time>
      </trkpt>
      <trkpt lat="49.22451" lon="6.81666">
        <ele>207.1</ele>
        <time>2020-06-26T19:56:09Z</time>
      </trkpt>
      <trkpt lat="49.2245" lon="6.81668">
        <ele>207.3</ele>
        <time>2020-06-26T19:56:10Z</time>
      </trkpt>
      <trkpt lat="49.2245" lon="6.81673">
        <ele>207.7</ele>
        <time>2020-06-26T19:56:11Z</time>
      </trkpt>
      <trkpt lat="49.2245" lon="6.81674">
        <ele>207.8</ele>
        <time>2020-06-26T19:56:12Z</time>
      </trkpt>
      <trkpt lat="49.2245" lon="6.81679">
        <ele>208.1</ele>
        <time>2020-06-26T19:56:13Z</time>
      </trkpt>
      <trkpt lat="49.22449" lon="6.81684">
        <ele>208.4</ele>
        <time>2020-06-26T19:56:14Z</time>
      </trkpt>
      <trkpt lat="49.22449" lon="6.81686">
        <ele>208.5</ele>
        <time>2020-06-26T19:56:15Z</time>
      </trkpt>
      <trkpt lat="49.22448" lon="6.81689">
        <ele>208.7</ele>
        <time>2020-06-26T19:56:16Z</time>
      </trkpt>
      <trkpt lat="49.22448" lon="6.81692">
        <ele>208.9</ele>
        <time>2020-06-26T19:56:17Z</time>
      </trkpt>
      <trkpt lat="49.22447" lon="6.81694">
        <ele>209</ele>
        <time>2020-06-26T19:56:18Z</time>
      </trkpt>
      <trkpt lat="49.22447" lon="6.81696">
        <ele>209.2</ele>
        <time>2020-06-26T19:56:19Z</time>
      </trkpt>
      <trkpt lat="49.22446" lon="6.81699">
        <ele>209.4</ele>
        <time>2020-06-26T19:56:20Z</time>
      </trkpt>
      <trkpt lat="49.22446" lon="6.81701">
        <ele>209.5</ele>
        <time>2020-06-26T19:56:21Z</time>
      </trkpt>
      <trkpt lat="49.22445" lon="6.81702">
        <ele>209.6</ele>
        <time>2020-06-26T19:56:22Z</time>
      </trkpt>
      <trkpt lat="49.22445" lon="6.81708">
        <ele>210</ele>
        <time>2020-06-26T19:56:23Z</time>
      </trkpt>
      <trkpt lat="49.22444" lon="6.8171">
        <ele>210.1</ele>
        <time>2020-06-26T19:56:24Z</time>
      </trkpt>
      <trkpt lat="49.22444" lon="6.81715">
        <ele>210.4</ele>
        <time>2020-06-26T19:56:25Z</time>
      </trkpt>
      <trkpt lat="49.22444" lon="6.81717">
        <ele>210.6</ele>
        <time>2020-06-26T19:56:26Z</time>
      </trkpt>
      <trkpt lat="49.22443" lon="6.81722">
        <ele>210.9</ele>
        <time>2020-06-26T19:56:27Z</time>
      </trkpt>
      <trkpt lat="49.22442" lon="6.81724">
        <ele>211</ele>
        <time>2020-06-26T19:56:28Z</time>
      </trkpt>
      <trkpt lat="49.22442" lon="6.81728">
        <ele>211.3</ele>
        <time>2020-06-26T19:56:29Z</time>
      </trkpt>
      <trkpt lat="49.22443" lon="6.81733">
        <ele>211.7</ele>
        <time>2020-06-26T19:56:30Z</time>
      </trkpt>
      <trkpt lat="49.22443" lon="6.81735">
        <ele>211.8</ele>
        <time>2020-06-26T19:56:31Z</time>
      </trkpt>
      <trkpt lat="49.22443" lon="6.81737">
        <ele>211.9</ele>
        <time>2020-06-26T19:56:32Z</time>
      </trkpt>
      <trkpt lat="49.22443" lon="6.81738">
        <ele>212</ele>
        <time>2020-06-26T19:56:33Z</time>
      </trkpt>
      <trkpt lat="49.22444" lon="6.8174">
        <ele>212.2</ele>
        <time>2020-06-26T19:56:34Z</time>
      </trkpt>
      <trkpt lat="49.22445" lon="6.81743">
        <ele>212.5</ele>
        <time>2020-06-26T19:56:35Z</time>
      </trkpt>
      <trkpt lat="49.22445" lon="6.81745">
        <ele>212.7</ele>
        <time>2020-06-26T19:56:36Z</time>
      </trkpt>
      <trkpt lat="49.22445" lon="6.81747">
        <ele>212.8</ele>
        <time>2020-06-26T19:56:37Z</time>
      </trkpt>
      <trkpt lat="49.22445" lon="6.81751">
        <ele>213.2</ele>
        <time>2020-06-26T19:56:38Z</time>
      </trkpt>
      <trkpt lat="49.22445" lon="6.81753">
        <ele>213.3</ele>
        <time>2020-06-26T19:56:39Z</time>
      </trkpt>
      <trkpt lat="49.22445" lon="6.81757">
        <ele>213.7</ele>
        <time>2020-06-26T19:56:40Z</time>
      </trkpt>
      <trkpt lat="49.22445" lon="6.81758">
        <ele>213.8</ele>
        <time>2020-06-26T19:56:41Z</time>
      </trkpt>
      <trkpt lat="49.22445" lon="6.81762">
        <ele>214.2</ele>
        <time>2020-06-26T19:56:42Z</time>
      </trkpt>
      <trkpt lat="49.22445" lon="6.81765">
        <ele>214.4</ele>
        <time>2020-06-26T19:56:43Z</time>
      </trkpt>
      <trkpt lat="49.22445" lon="6.81768">
        <ele>214.7</ele>
        <time>2020-06-26T19:56:44Z</time>
      </trkpt>
      <trkpt lat="49.22445" lon="6.8177">
        <ele>214.9</ele>
        <time>2020-06-26T19:56:45Z</time>
      </trkpt>
      <trkpt lat="49.22445" lon="6.81773">
        <ele>215.2</ele>
        <time>2020-06-26T19:56:46Z</time>
      </trkpt>
      <trkpt lat="49.22446" lon="6.81775">
        <ele>215.5</ele>
        <time>2020-06-26T19:56:47Z</time>
      </trkpt>
      <trkpt lat="49.22446" lon="6.81778">
        <ele>215.7</ele>
        <time>2020-06-26T19:56:48Z</time>
      </trkpt>
      <trkpt lat="49.22446" lon="6.81778">
        <ele>215.8</ele>
        <time>2020-06-26T19:56:49Z</time>
      </trkpt>
      <trkpt lat="49.22445" lon="6.81781">
        <ele>216.1</ele>
        <time>2020-06-26T19:56:50Z</time>
      </trkpt>
      <trkpt lat="49.22446" lon="6.81783">
        <ele>216.3</ele>
        <time>2020-06-26T19:56:51Z</time>
      </trkpt>
      <trkpt lat="49.22445" lon="6.81788">
        <ele>216.8</ele>
        <time>2020-06-26T19:56:52Z</time>
      </trkpt>
      <trkpt lat="49.22445" lon="6.8179">
        <ele>217</ele>
        <time>2020-06-26T19:56:53Z</time>
      </trkpt>
      <trkpt lat="49.22445" lon="6.81792">
        <ele>217.2</ele>
        <time>2020-06-26T19:56:54Z</time>
      </trkpt>
      <trkpt lat="49.22444" lon="6.81797">
        <ele>217.6</ele>
        <time>2020-06-26T19:56:55Z</time>
      </trkpt>
      <trkpt lat="49.22444" lon="6.81801">
        <ele>218</ele>
        <time>2020-06-26T19:56:56Z</time>
      </trkpt>
      <trkpt lat="49.22444" lon="6.81803">
        <ele>218.2</ele>
        <time>2020-06-26T19:56:57Z</time>
      </trkpt>
      <trkpt lat="49.22444" lon="6.81804">
        <ele>218.3</ele>
        <time>2020-06-26T19:56:58Z</time>
      </trkpt>
      <trkpt lat="49.22445" lon="6.81807">
        <ele>218.6</ele>
        <time>2020-06-26T19:56:59Z</time>
      </trkpt>
      <trkpt lat="49.22445" lon="6.81812">
        <ele>219.1</ele>
        <time>2020-06-26T19:57:00Z</time>
      </trkpt>
      <trkpt lat="49.22445" lon="6.81814">
        <ele>219.2</ele>
        <time>2020-06-26T19:57:01Z</time>
      </trkpt>
      <trkpt lat="49.22445" lon="6.81813">
        <ele>219.2</ele>
        <time>2020-06-26T19:57:02Z</time>
      </trkpt>
      <trkpt lat="49.22446" lon="6.81816">
        <ele>219.5</ele>
        <time>2020-06-26T19:57:03Z</time>
      </trkpt>
      <trkpt lat="49.22445" lon="6.81818">
        <ele>219.7</ele>
        <time>2020-06-26T19:57:04Z</time>
      </trkpt>
      <trkpt lat="49.22445" lon="6.81824">
        <ele>220.3</ele>
        <time>2020-06-26T19:57:05Z</time>
      </trkpt>
      <trkpt lat="49.22445" lon="6.81826">
        <ele>220.5</ele>
        <time>2020-06-26T19:57:06Z</time>
      </trkpt>
      <trkpt lat="49.22446" lon="6.81831">
        <ele>220.9</ele>
        <time>2020-06-26T19:57:07Z</time>
      </trkpt>
      <trkpt lat="49.22445" lon="6.81832">
        <ele>221</ele>
        <time>2020-06-26T19:57:08Z</time>
      </trkpt>
      <trkpt lat="49.22445" lon="6.81833">
        <ele>221.1</ele>
        <time>2020-06-26T19:57:09Z</time>
      </trkpt>
      <trkpt lat="49.22445" lon="6.81838">
        <ele>221.6</ele>
        <time>2020-06-26T19:57:10Z</time>
      </trkpt>
      <trkpt lat="49.22445" lon="6.81841">
        <ele>221.9</ele>
        <time>2020-06-26T19:57:11Z</time>
      </trkpt>
      <trkpt lat="49.22445" lon="6.81843">
        <ele>222.1</ele>
        <time>2020-06-26T19:57:12Z</time>
      </trkpt>
      <trkpt lat="49.22445" lon="6.81844">
        <ele>222.2</ele>
        <time>2020-06-26T19:57:13Z</time>
      </trkpt>
      <trkpt lat="49.22445" lon="6.81849">
        <ele>222.7</ele>
        <time>2020-06-26T19:57:14Z</time>
      </trkpt>
      <trkpt lat="49.22444" lon="6.81851">
        <ele>222.9</ele>
        <time>2020-06-26T19:57:15Z</time>
      </trkpt>
      <trkpt lat="49.22444" lon="6.81855">
        <ele>223.3</ele>
        <time>2020-06-26T19:57:16Z</time>
      </trkpt>
      <trkpt lat="49.22444" lon="6.81856">
        <ele>223.4</ele>
        <time>2020-06-26T19:57:17Z</time>
      </trkpt>
      <trkpt lat="49.22444" lon="6.81858">
        <ele>223.5</ele>
        <time>2020-06-26T19:57:18Z</time>
      </trkpt>
      <trkpt lat="49.22444" lon="6.8186">
        <ele>223.8</ele>
        <time>2020-06-26T19:57:19Z</time>
      </trkpt>
      <trkpt lat="49.22444" lon="6.8186">
        <ele>223.8</ele>
        <time>2020-06-26T19:57:20Z</time>
      </trkpt>
      <trkpt lat="49.22445" lon="6.81862">
        <ele>224</ele>
        <time>2020-06-26T19:57:21Z</time>
      </trkpt>
      <trkpt lat="49.22445" lon="6.81862">
        <ele>224</ele>
        <time>2020-06-26T19:57:22Z</time>
      </trkpt>
      <trkpt lat="49.22445" lon="6.81866">
        <ele>224.5</ele>
        <time>2020-06-26T19:57:23Z</time>
      </trkpt>
      <trkpt lat="49.22444" lon="6.81871">
        <ele>224.9</ele>
        <time>2020-06-26T19:57:24Z</time>
      </trkpt>
      <trkpt lat="49.22444" lon="6.81872">
        <ele>225</ele>
        <time>2020-06-26T19:57:25Z</time>
      </trkpt>
      <trkpt lat="49.22444" lon="6.81878">
        <ele>225.5</ele>
        <time>2020-06-26T19:57:26Z</time>
      </trkpt>
      <trkpt lat="49.22444" lon="6.8188">
        <ele>225.7</ele>
        <time>2020-06-26T19:57:27Z</time>
      </trkpt>
      <trkpt lat="49.22444" lon="6.81884">
        <ele>226.1</ele>
        <time>2020-06-26T19:57:28Z</time>
      </trkpt>
      <trkpt lat="49.22445" lon="6.81888">
        <ele>226.5</ele>
        <time>2020-06-26T19:57:29Z</time>
      </trkpt>
      <trkpt lat="49.22446" lon="6.81891">
        <ele>226.8</ele>
        <time>2020-06-26T19:57:30Z</time>
      </trkpt>
      <trkpt lat="49.22446" lon="6.81892">
        <ele>226.9</ele>
        <time>2020-06-26T19:57:31Z</time>
      </trkpt>
      <trkpt lat="49.22447" lon="6.81897">
        <ele>227.3</ele>
        <time>2020-06-26T19:57:32Z</time>
      </trkpt>
      <trkpt lat="49.22447" lon="6.81899">
        <ele>227.5</ele>
        <time>2020-06-26T19:57:33Z</time>
      </trkpt>
      <trkpt lat="49.22447" lon="6.81904">
        <ele>227.9</ele>
        <time>2020-06-26T19:57:34Z</time>
      </trkpt>
      <trkpt lat="49.22447" lon="6.81906">
        <ele>228</ele>
        <time>2020-06-26T19:57:35Z</time>
      </trkpt>
      <trkpt lat="49.22447" lon="6.8191">
        <ele>228.4</ele>
        <time>2020-06-26T19:57:36Z</time>
      </trkpt>
      <trkpt lat="49.22447" lon="6.81912">
        <ele>228.5</ele>
        <time>2020-06-26T19:57:37Z</time>
      </trkpt>
      <trkpt lat="49.22447" lon="6.81917">
        <ele>229</ele>
        <time>2020-06-26T19:57:38Z</time>
      </trkpt>
      <trkpt lat="49.22447" lon="6.81917">
        <ele>229</ele>
        <time>2020-06-26T19:57:39Z</time>
      </trkpt>
      <trkpt lat="49.22446" lon="6.8192">
        <ele>229.3</ele>
        <time>2020-06-26T19:57:40Z</time>
      </trkpt>
      <trkpt lat="49.22446" lon="6.81923">
        <ele>229.5</ele>
        <time>2020-06-26T19:57:41Z</time>
      </trkpt>
      <trkpt lat="49.22446" lon="6.81926">
        <ele>229.7</ele>
        <time>2020-06-26T19:57:42Z</time>
      </trkpt>
      <trkpt lat="49.22446" lon="6.81928">
        <ele>229.9</ele>
        <time>2020-06-26T19:57:43Z</time>
      </trkpt>
      <trkpt lat="49.22445" lon="6.81931">
        <ele>230.1</ele>
        <time>2020-06-26T19:57:44Z</time>
      </trkpt>
      <trkpt lat="49.22445" lon="6.81933">
        <ele>230.2</ele>
        <time>2020-06-26T19:57:45Z</time>
      </trkpt>
      <trkpt lat="49.22443" lon="6.81936">
        <ele>230.5</ele>
        <time>2020-06-26T19:57:46Z</time>
      </trkpt>
      <trkpt lat="49.22443" lon="6.81938">
        <ele>230.6</ele>
        <time>2020-06-26T19:57:47Z</time>
      </trkpt>
      <trkpt lat="49.22442" lon="6.8194">
        <ele>230.9</ele>
        <time>2020-06-26T19:57:48Z</time>
      </trkpt>
      <trkpt lat="49.22441" lon="6.81942">
        <ele>231</ele>
        <time>2020-06-26T19:57:49Z</time>
      </trkpt>
      <trkpt lat="49.22441" lon="6.81944">
        <ele>231.1</ele>
        <time>2020-06-26T19:57:50Z</time>
      </trkpt>
      <trkpt lat="49.2244" lon="6.81948">
        <ele>231.4</ele>
        <time>2020-06-26T19:57:51Z</time>
      </trkpt>
      <trkpt lat="49.2244" lon="6.81949">
        <ele>231.5</ele>
        <time>2020-06-26T19:57:52Z</time>
      </trkpt>
      <trkpt lat="49.22438" lon="6.81954">
        <ele>231.7</ele>
        <time>2020-06-26T19:57:53Z</time>
      </trkpt>
      <trkpt lat="49.22438" lon="6.81955">
        <ele>231.8</ele>
        <time>2020-06-26T19:57:54Z</time>
      </trkpt>
      <trkpt lat="49.22437" lon="6.81961">
        <ele>232.1</ele>
        <time>2020-06-26T19:57:55Z</time>
      </trkpt>
      <trkpt lat="49.22436" lon="6.81962">
        <ele>232.2</ele>
        <time>2020-06-26T19:57:56Z</time>
      </trkpt>
      <trkpt lat="49.22436" lon="6.81964">
        <ele>232.3</ele>
        <time>2020-06-26T19:57:57Z</time>
      </trkpt>
      <trkpt lat="49.22435" lon="6.81966">
        <ele>232.4</ele>
        <time>2020-06-26T19:57:58Z</time>
      </trkpt>
      <trkpt lat="49.22435" lon="6.81967">
        <ele>232.4</ele>
        <time>2020-06-26T19:57:59Z</time>
      </trkpt>
      <trkpt lat="49.22432" lon="6.8197">
        <ele>232.5</ele>
        <time>2020-06-26T19:58:00Z</time>
      </trkpt>
      <trkpt lat="49.22432" lon="6.81971">
        <ele>232.5</ele>
        <time>2020-06-26T19:58:01Z</time>
      </trkpt>
      <trkpt lat="49.22431" lon="6.81972">
        <ele>232.5</ele>
        <time>2020-06-26T19:58:02Z</time>
      </trkpt>
      <trkpt lat="49.22429" lon="6.81974">
        <ele>232.5</ele>
        <time>2020-06-26T19:58:03Z</time>
      </trkpt>
      <trkpt lat="49.22428" lon="6.81978">
        <ele>232.9</ele>
        <time>2020-06-26T19:58:04Z</time>
      </trkpt>
      <trkpt lat="49.22427" lon="6.8198">
        <ele>233.1</ele>
        <time>2020-06-26T19:58:05Z</time>
      </trkpt>
      <trkpt lat="49.22426" lon="6.81981">
        <ele>233.2</ele>
        <time>2020-06-26T19:58:06Z</time>
      </trkpt>
      <trkpt lat="49.22425" lon="6.81984">
        <ele>233.4</ele>
        <time>2020-06-26T19:58:07Z</time>
      </trkpt>
      <trkpt lat="49.22423" lon="6.81986">
        <ele>233.6</ele>
        <time>2020-06-26T19:58:08Z</time>
      </trkpt>
      <trkpt lat="49.22421" lon="6.81987">
        <ele>233.6</ele>
        <time>2020-06-26T19:58:09Z</time>
      </trkpt>
      <trkpt lat="49.22418" lon="6.81991">
        <ele>233.7</ele>
        <time>2020-06-26T19:58:10Z</time>
      </trkpt>
      <trkpt lat="49.22417" lon="6.81992">
        <ele>233.7</ele>
        <time>2020-06-26T19:58:11Z</time>
      </trkpt>
      <trkpt lat="49.22413" lon="6.81994">
        <ele>233.5</ele>
        <time>2020-06-26T19:58:12Z</time>
      </trkpt>
      <trkpt lat="49.22412" lon="6.81995">
        <ele>233.5</ele>
        <time>2020-06-26T19:58:13Z</time>
      </trkpt>
      <trkpt lat="49.22408" lon="6.81996">
        <ele>233.2</ele>
        <time>2020-06-26T19:58:14Z</time>
      </trkpt>
      <trkpt lat="49.22404" lon="6.81998">
        <ele>233</ele>
        <time>2020-06-26T19:58:15Z</time>
      </trkpt>
      <trkpt lat="49.224" lon="6.82">
        <ele>232.7</ele>
        <time>2020-06-26T19:58:16Z</time>
      </trkpt>
      <trkpt lat="49.22396" lon="6.82001">
        <ele>232.4</ele>
        <time>2020-06-26T19:58:17Z</time>
      </trkpt>
      <trkpt lat="49.22392" lon="6.82004">
        <ele>231.9</ele>
        <time>2020-06-26T19:58:18Z</time>
      </trkpt>
      <trkpt lat="49.22387" lon="6.82005">
        <ele>231.4</ele>
        <time>2020-06-26T19:58:19Z</time>
      </trkpt>
      <trkpt lat="49.22384" lon="6.82007">
        <ele>231.1</ele>
        <time>2020-06-26T19:58:20Z</time>
      </trkpt>
      <trkpt lat="49.22379" lon="6.8201">
        <ele>230.6</ele>
        <time>2020-06-26T19:58:21Z</time>
      </trkpt>
      <trkpt lat="49.22373" lon="6.82013">
        <ele>230</ele>
        <time>2020-06-26T19:58:22Z</time>
      </trkpt>
      <trkpt lat="49.22363" lon="6.82019">
        <ele>229</ele>
        <time>2020-06-26T19:58:23Z</time>
      </trkpt>
      <trkpt lat="49.22353" lon="6.82024">
        <ele>228.1</ele>
        <time>2020-06-26T19:58:24Z</time>
      </trkpt>
      <trkpt lat="49.22343" lon="6.82027">
        <ele>227.3</ele>
        <time>2020-06-26T19:58:25Z</time>
      </trkpt>
      <trkpt lat="49.22333" lon="6.8203">
        <ele>226.4</ele>
        <time>2020-06-26T19:58:26Z</time>
      </trkpt>
      <trkpt lat="49.22323" lon="6.82033">
        <ele>225.6</ele>
        <time>2020-06-26T19:58:27Z</time>
      </trkpt>
      <trkpt lat="49.22312" lon="6.82036">
        <ele>224.8</ele>
        <time>2020-06-26T19:58:28Z</time>
      </trkpt>
      <trkpt lat="49.22303" lon="6.82039">
        <ele>224.1</ele>
        <time>2020-06-26T19:58:29Z</time>
      </trkpt>
      <trkpt lat="49.22293" lon="6.82041">
        <ele>223.5</ele>
        <time>2020-06-26T19:58:30Z</time>
      </trkpt>
      <trkpt lat="49.22284" lon="6.82043">
        <ele>222.9</ele>
        <time>2020-06-26T19:58:31Z</time>
      </trkpt>
      <trkpt lat="49.22274" lon="6.82045">
        <ele>222.5</ele>
        <time>2020-06-26T19:58:32Z</time>
      </trkpt>
      <trkpt lat="49.22265" lon="6.82047">
        <ele>222</ele>
        <time>2020-06-26T19:58:33Z</time>
      </trkpt>
      <trkpt lat="49.22256" lon="6.82049">
        <ele>221.5</ele>
        <time>2020-06-26T19:58:34Z</time>
      </trkpt>
      <trkpt lat="49.22246" lon="6.8205">
        <ele>220.9</ele>
        <time>2020-06-26T19:58:35Z</time>
      </trkpt>
      <trkpt lat="49.22236" lon="6.82051">
        <ele>220.4</ele>
        <time>2020-06-26T19:58:36Z</time>
      </trkpt>
      <trkpt lat="49.22226" lon="6.82052">
        <ele>219.9</ele>
        <time>2020-06-26T19:58:37Z</time>
      </trkpt>
      <trkpt lat="49.22216" lon="6.82052">
        <ele>219.5</ele>
        <time>2020-06-26T19:58:38Z</time>
      </trkpt>
      <trkpt lat="49.22206" lon="6.82052">
        <ele>219.1</ele>
        <time>2020-06-26T19:58:39Z</time>
      </trkpt>
      <trkpt lat="49.22197" lon="6.82051">
        <ele>218.7</ele>
        <time>2020-06-26T19:58:40Z</time>
      </trkpt>
      <trkpt lat="49.22187" lon="6.8205">
        <ele>218.4</ele>
        <time>2020-06-26T19:58:41Z</time>
      </trkpt>
      <trkpt lat="49.22177" lon="6.8205">
        <ele>218.1</ele>
        <time>2020-06-26T19:58:42Z</time>
      </trkpt>
      <trkpt lat="49.22167" lon="6.8205">
        <ele>217.6</ele>
        <time>2020-06-26T19:58:43Z</time>
      </trkpt>
      <trkpt lat="49.22158" lon="6.82049">
        <ele>217.3</ele>
        <time>2020-06-26T19:58:44Z</time>
      </trkpt>
      <trkpt lat="49.22148" lon="6.82049">
        <ele>216.9</ele>
        <time>2020-06-26T19:58:45Z</time>
      </trkpt>
      <trkpt lat="49.22138" lon="6.82048">
        <ele>216.6</ele>
        <time>2020-06-26T19:58:46Z</time>
      </trkpt>
      <trkpt lat="49.22129" lon="6.82048">
        <ele>216.3</ele>
        <time>2020-06-26T19:58:47Z</time>
      </trkpt>
      <trkpt lat="49.2212" lon="6.82047">
        <ele>216.1</ele>
        <time>2020-06-26T19:58:48Z</time>
      </trkpt>
      <trkpt lat="49.2211" lon="6.82046">
        <ele>215.8</ele>
        <time>2020-06-26T19:58:49Z</time>
      </trkpt>
      <trkpt lat="49.22101" lon="6.82044">
        <ele>215.4</ele>
        <time>2020-06-26T19:58:50Z</time>
      </trkpt>
      <trkpt lat="49.22092" lon="6.82043">
        <ele>215.2</ele>
        <time>2020-06-26T19:58:51Z</time>
      </trkpt>
      <trkpt lat="49.22083" lon="6.82042">
        <ele>215</ele>
        <time>2020-06-26T19:58:52Z</time>
      </trkpt>
      <trkpt lat="49.22075" lon="6.82041">
        <ele>214.8</ele>
        <time>2020-06-26T19:58:53Z</time>
      </trkpt>
      <trkpt lat="49.22066" lon="6.8204">
        <ele>214.6</ele>
        <time>2020-06-26T19:58:54Z</time>
      </trkpt>
      <trkpt lat="49.22058" lon="6.82041">
        <ele>214.3</ele>
        <time>2020-06-26T19:58:55Z</time>
      </trkpt>
      <trkpt lat="49.2205" lon="6.82042">
        <ele>213.9</ele>
        <time>2020-06-26T19:58:56Z</time>
      </trkpt>
      <trkpt lat="49.22041" lon="6.82042">
        <ele>213.6</ele>
        <time>2020-06-26T19:58:57Z</time>
      </trkpt>
      <trkpt lat="49.22032" lon="6.82043">
        <ele>213.2</ele>
        <time>2020-06-26T19:58:58Z</time>
      </trkpt>
      <trkpt lat="49.22023" lon="6.82045">
        <ele>212.9</ele>
        <time>2020-06-26T19:58:59Z</time>
      </trkpt>
      <trkpt lat="49.22014" lon="6.82048">
        <ele>212.5</ele>
        <time>2020-06-26T19:59:00Z</time>
      </trkpt>
      <trkpt lat="49.22006" lon="6.82052">
        <ele>212.1</ele>
        <time>2020-06-26T19:59:01Z</time>
      </trkpt>
      <trkpt lat="49.21997" lon="6.82056">
        <ele>211.7</ele>
        <time>2020-06-26T19:59:02Z</time>
      </trkpt>
      <trkpt lat="49.21989" lon="6.82061">
        <ele>211.4</ele>
        <time>2020-06-26T19:59:03Z</time>
      </trkpt>
      <trkpt lat="49.21981" lon="6.82066">
        <ele>211.1</ele>
        <time>2020-06-26T19:59:04Z</time>
      </trkpt>
      <trkpt lat="49.21974" lon="6.82072">
        <ele>210.7</ele>
        <time>2020-06-26T19:59:05Z</time>
      </trkpt>
      <trkpt lat="49.21966" lon="6.82078">
        <ele>210.5</ele>
        <time>2020-06-26T19:59:06Z</time>
      </trkpt>
      <trkpt lat="49.2196" lon="6.82087">
        <ele>210.1</ele>
        <time>2020-06-26T19:59:07Z</time>
      </trkpt>
      <trkpt lat="49.21953" lon="6.82095">
        <ele>209.8</ele>
        <time>2020-06-26T19:59:08Z</time>
      </trkpt>
      <trkpt lat="49.21947" lon="6.82104">
        <ele>209.4</ele>
        <time>2020-06-26T19:59:09Z</time>
      </trkpt>
      <trkpt lat="49.21941" lon="6.82114">
        <ele>209</ele>
        <time>2020-06-26T19:59:10Z</time>
      </trkpt>
      <trkpt lat="49.21937" lon="6.82124">
        <ele>208.4</ele>
        <time>2020-06-26T19:59:11Z</time>
      </trkpt>
      <trkpt lat="49.21932" lon="6.82135">
        <ele>207.7</ele>
        <time>2020-06-26T19:59:12Z</time>
      </trkpt>
      <trkpt lat="49.21927" lon="6.82147">
        <ele>207</ele>
        <time>2020-06-26T19:59:13Z</time>
      </trkpt>
      <trkpt lat="49.21922" lon="6.82159">
        <ele>206.3</ele>
        <time>2020-06-26T19:59:14Z</time>
      </trkpt>
      <trkpt lat="49.21918" lon="6.82171">
        <ele>205.6</ele>
        <time>2020-06-26T19:59:15Z</time>
      </trkpt>
      <trkpt lat="49.21912" lon="6.82183">
        <ele>204.8</ele>
        <time>2020-06-26T19:59:16Z</time>
      </trkpt>
      <trkpt lat="49.21907" lon="6.82195">
        <ele>204</ele>
        <time>2020-06-26T19:59:17Z</time>
      </trkpt>
      <trkpt lat="49.21901" lon="6.82208">
        <ele>203.2</ele>
        <time>2020-06-26T19:59:18Z</time>
      </trkpt>
      <trkpt lat="49.21895" lon="6.82221">
        <ele>202.3</ele>
        <time>2020-06-26T19:59:19Z</time>
      </trkpt>
      <trkpt lat="49.21889" lon="6.82232">
        <ele>201.5</ele>
        <time>2020-06-26T19:59:20Z</time>
      </trkpt>
      <trkpt lat="49.21882" lon="6.82245">
        <ele>200.7</ele>
        <time>2020-06-26T19:59:21Z</time>
      </trkpt>
      <trkpt lat="49.21875" lon="6.82257">
        <ele>200.1</ele>
        <time>2020-06-26T19:59:22Z</time>
      </trkpt>
      <trkpt lat="49.21868" lon="6.82268">
        <ele>199.6</ele>
        <time>2020-06-26T19:59:23Z</time>
      </trkpt>
      <trkpt lat="49.21862" lon="6.82281">
        <ele>199.2</ele>
        <time>2020-06-26T19:59:24Z</time>
      </trkpt>
      <trkpt lat="49.21856" lon="6.82292">
        <ele>198.7</ele>
        <time>2020-06-26T19:59:25Z</time>
      </trkpt>
      <trkpt lat="49.2185" lon="6.82303">
        <ele>198.2</ele>
        <time>2020-06-26T19:59:26Z</time>
      </trkpt>
      <trkpt lat="49.21845" lon="6.82314">
        <ele>197.7</ele>
        <time>2020-06-26T19:59:27Z</time>
      </trkpt>
      <trkpt lat="49.21838" lon="6.82323">
        <ele>197.2</ele>
        <time>2020-06-26T19:59:28Z</time>
      </trkpt>
      <trkpt lat="49.21833" lon="6.82333">
        <ele>196.7</ele>
        <time>2020-06-26T19:59:29Z</time>
      </trkpt>
      <trkpt lat="49.21828" lon="6.82343">
        <ele>196.3</ele>
        <time>2020-06-26T19:59:30Z</time>
      </trkpt>
      <trkpt lat="49.21823" lon="6.82352">
        <ele>195.9</ele>
        <time>2020-06-26T19:59:31Z</time>
      </trkpt>
      <trkpt lat="49.21818" lon="6.82362">
        <ele>195.6</ele>
        <time>2020-06-26T19:59:32Z</time>
      </trkpt>
      <trkpt lat="49.21814" lon="6.82371">
        <ele>195.3</ele>
        <time>2020-06-26T19:59:33Z</time>
      </trkpt>
      <trkpt lat="49.2181" lon="6.82382">
        <ele>195</ele>
        <time>2020-06-26T19:59:34Z</time>
      </trkpt>
      <trkpt lat="49.21806" lon="6.82392">
        <ele>194.8</ele>
        <time>2020-06-26T19:59:35Z</time>
      </trkpt>
      <trkpt lat="49.21801" lon="6.82401">
        <ele>194.5</ele>
        <time>2020-06-26T19:59:36Z</time>
      </trkpt>
      <trkpt lat="49.21796" lon="6.82409">
        <ele>194.2</ele>
        <time>2020-06-26T19:59:37Z</time>
      </trkpt>
      <trkpt lat="49.2179" lon="6.82417">
        <ele>193.9</ele>
        <time>2020-06-26T19:59:38Z</time>
      </trkpt>
      <trkpt lat="49.21785" lon="6.82426">
        <ele>193.7</ele>
        <time>2020-06-26T19:59:39Z</time>
      </trkpt>
      <trkpt lat="49.21779" lon="6.82433">
        <ele>193.6</ele>
        <time>2020-06-26T19:59:40Z</time>
      </trkpt>
      <trkpt lat="49.21774" lon="6.8244">
        <ele>193.5</ele>
        <time>2020-06-26T19:59:41Z</time>
      </trkpt>
      <trkpt lat="49.21768" lon="6.82447">
        <ele>193.4</ele>
        <time>2020-06-26T19:59:42Z</time>
      </trkpt>
      <trkpt lat="49.21764" lon="6.82455">
        <ele>193.3</ele>
        <time>2020-06-26T19:59:43Z</time>
      </trkpt>
      <trkpt lat="49.21759" lon="6.82462">
        <ele>193.2</ele>
        <time>2020-06-26T19:59:44Z</time>
      </trkpt>
      <trkpt lat="49.21754" lon="6.82468">
        <ele>193.1</ele>
        <time>2020-06-26T19:59:45Z</time>
      </trkpt>
      <trkpt lat="49.2175" lon="6.82475">
        <ele>193.1</ele>
        <time>2020-06-26T19:59:46Z</time>
      </trkpt>
      <trkpt lat="49.21747" lon="6.82481">
        <ele>193.1</ele>
        <time>2020-06-26T19:59:47Z</time>
      </trkpt>
      <trkpt lat="49.21744" lon="6.82487">
        <ele>193</ele>
        <time>2020-06-26T19:59:48Z</time>
      </trkpt>
      <trkpt lat="49.21741" lon="6.82493">
        <ele>193</ele>
        <time>2020-06-26T19:59:49Z</time>
      </trkpt>
      <trkpt lat="49.21738" lon="6.82497">
        <ele>193</ele>
        <time>2020-06-26T19:59:50Z</time>
      </trkpt>
      <trkpt lat="49.21737" lon="6.82502">
        <ele>192.9</ele>
        <time>2020-06-26T19:59:51Z</time>
      </trkpt>
      <trkpt lat="49.21736" lon="6.82506">
        <ele>192.9</ele>
        <time>2020-06-26T19:59:52Z</time>
      </trkpt>
      <trkpt lat="49.21735" lon="6.82511">
        <ele>192.8</ele>
        <time>2020-06-26T19:59:53Z</time>
      </trkpt>
      <trkpt lat="49.21734" lon="6.82516">
        <ele>192.8</ele>
        <time>2020-06-26T19:59:54Z</time>
      </trkpt>
      <trkpt lat="49.21734" lon="6.82521">
        <ele>192.7</ele>
        <time>2020-06-26T19:59:55Z</time>
      </trkpt>
      <trkpt lat="49.21733" lon="6.82526">
        <ele>192.7</ele>
        <time>2020-06-26T19:59:56Z</time>
      </trkpt>
      <trkpt lat="49.21733" lon="6.82531">
        <ele>192.7</ele>
        <time>2020-06-26T19:59:57Z</time>
      </trkpt>
      <trkpt lat="49.21732" lon="6.82536">
        <ele>192.6</ele>
        <time>2020-06-26T19:59:58Z</time>
      </trkpt>
      <trkpt lat="49.21731" lon="6.82542">
        <ele>192.6</ele>
        <time>2020-06-26T19:59:59Z</time>
      </trkpt>
      <trkpt lat="49.2173" lon="6.82547">
        <ele>192.6</ele>
        <time>2020-06-26T20:00:00Z</time>
      </trkpt>
      <trkpt lat="49.21728" lon="6.82551">
        <ele>192.6</ele>
        <time>2020-06-26T20:00:01Z</time>
      </trkpt>
      <trkpt lat="49.21724" lon="6.82554">
        <ele>192.6</ele>
        <time>2020-06-26T20:00:02Z</time>
      </trkpt>
      <trkpt lat="49.21721" lon="6.82556">
        <ele>192.7</ele>
        <time>2020-06-26T20:00:03Z</time>
      </trkpt>
      <trkpt lat="49.21717" lon="6.82558">
        <ele>192.7</ele>
        <time>2020-06-26T20:00:04Z</time>
      </trkpt>
      <trkpt lat="49.21713" lon="6.82561">
        <ele>192.7</ele>
        <time>2020-06-26T20:00:05Z</time>
      </trkpt>
      <trkpt lat="49.21708" lon="6.82562">
        <ele>192.8</ele>
        <time>2020-06-26T20:00:06Z</time>
      </trkpt>
      <trkpt lat="49.21704" lon="6.82565">
        <ele>192.9</ele>
        <time>2020-06-26T20:00:07Z</time>
      </trkpt>
      <trkpt lat="49.217" lon="6.82568">
        <ele>192.9</ele>
        <time>2020-06-26T20:00:08Z</time>
      </trkpt>
      <trkpt lat="49.21697" lon="6.82571">
        <ele>193</ele>
        <time>2020-06-26T20:00:09Z</time>
      </trkpt>
      <trkpt lat="49.21693" lon="6.82574">
        <ele>193.1</ele>
        <time>2020-06-26T20:00:10Z</time>
      </trkpt>
      <trkpt lat="49.2169" lon="6.82577">
        <ele>193.2</ele>
        <time>2020-06-26T20:00:11Z</time>
      </trkpt>
      <trkpt lat="49.21687" lon="6.82579">
        <ele>193.3</ele>
        <time>2020-06-26T20:00:12Z</time>
      </trkpt>
      <trkpt lat="49.21684" lon="6.82583">
        <ele>193.4</ele>
        <time>2020-06-26T20:00:13Z</time>
      </trkpt>
      <trkpt lat="49.21682" lon="6.82586">
        <ele>193.4</ele>
        <time>2020-06-26T20:00:14Z</time>
      </trkpt>
      <trkpt lat="49.21679" lon="6.8259">
        <ele>193.5</ele>
        <time>2020-06-26T20:00:15Z</time>
      </trkpt>
      <trkpt lat="49.21677" lon="6.82593">
        <ele>193.6</ele>
        <time>2020-06-26T20:00:16Z</time>
      </trkpt>
      <trkpt lat="49.21674" lon="6.82598">
        <ele>193.7</ele>
        <time>2020-06-26T20:00:17Z</time>
      </trkpt>
      <trkpt lat="49.21672" lon="6.82602">
        <ele>193.8</ele>
        <time>2020-06-26T20:00:18Z</time>
      </trkpt>
      <trkpt lat="49.2167" lon="6.82607">
        <ele>193.9</ele>
        <time>2020-06-26T20:00:19Z</time>
      </trkpt>
      <trkpt lat="49.21667" lon="6.8261">
        <ele>193.9</ele>
        <time>2020-06-26T20:00:20Z</time>
      </trkpt>
      <trkpt lat="49.21664" lon="6.82611">
        <ele>194</ele>
        <time>2020-06-26T20:00:21Z</time>
      </trkpt>
      <trkpt lat="49.21662" lon="6.82613">
        <ele>194.1</ele>
        <time>2020-06-26T20:00:22Z</time>
      </trkpt>
      <trkpt lat="49.21659" lon="6.82615">
        <ele>194.1</ele>
        <time>2020-06-26T20:00:23Z</time>
      </trkpt>
      <trkpt lat="49.21656" lon="6.82619">
        <ele>194.2</ele>
        <time>2020-06-26T20:00:24Z</time>
      </trkpt>
      <trkpt lat="49.21653" lon="6.82623">
        <ele>194.3</ele>
        <time>2020-06-26T20:00:25Z</time>
      </trkpt>
      <trkpt lat="49.2165" lon="6.82626">
        <ele>194.4</ele>
        <time>2020-06-26T20:00:26Z</time>
      </trkpt>
      <trkpt lat="49.21648" lon="6.8263">
        <ele>194.5</ele>
        <time>2020-06-26T20:00:27Z</time>
      </trkpt>
      <trkpt lat="49.21645" lon="6.82633">
        <ele>194.6</ele>
        <time>2020-06-26T20:00:28Z</time>
      </trkpt>
      <trkpt lat="49.21642" lon="6.82636">
        <ele>194.7</ele>
        <time>2020-06-26T20:00:29Z</time>
      </trkpt>
      <trkpt lat="49.2164" lon="6.8264">
        <ele>194.8</ele>
        <time>2020-06-26T20:00:30Z</time>
      </trkpt>
      <trkpt lat="49.21637" lon="6.82644">
        <ele>194.8</ele>
        <time>2020-06-26T20:00:31Z</time>
      </trkpt>
      <trkpt lat="49.21634" lon="6.82646">
        <ele>194.9</ele>
        <time>2020-06-26T20:00:32Z</time>
      </trkpt>
      <trkpt lat="49.2163" lon="6.82648">
        <ele>195</ele>
        <time>2020-06-26T20:00:33Z</time>
      </trkpt>
      <trkpt lat="49.21627" lon="6.8265">
        <ele>195.1</ele>
        <time>2020-06-26T20:00:34Z</time>
      </trkpt>
      <trkpt lat="49.21623" lon="6.82652">
        <ele>195.1</ele>
        <time>2020-06-26T20:00:35Z</time>
      </trkpt>
      <trkpt lat="49.21619" lon="6.82653">
        <ele>195.2</ele>
        <time>2020-06-26T20:00:36Z</time>
      </trkpt>
      <trkpt lat="49.21616" lon="6.82655">
        <ele>195.3</ele>
        <time>2020-06-26T20:00:37Z</time>
      </trkpt>
      <trkpt lat="49.21613" lon="6.82657">
        <ele>195.4</ele>
        <time>2020-06-26T20:00:38Z</time>
      </trkpt>
      <trkpt lat="49.21609" lon="6.82657">
        <ele>195.5</ele>
        <time>2020-06-26T20:00:39Z</time>
      </trkpt>
      <trkpt lat="49.21605" lon="6.82656">
        <ele>195.7</ele>
        <time>2020-06-26T20:00:40Z</time>
      </trkpt>
      <trkpt lat="49.21602" lon="6.82656">
        <ele>195.8</ele>
        <time>2020-06-26T20:00:41Z</time>
      </trkpt>
      <trkpt lat="49.21599" lon="6.82656">
        <ele>195.9</ele>
        <time>2020-06-26T20:00:42Z</time>
      </trkpt>
      <trkpt lat="49.21596" lon="6.82657">
        <ele>196.1</ele>
        <time>2020-06-26T20:00:43Z</time>
      </trkpt>
      <trkpt lat="49.21592" lon="6.82657">
        <ele>196.2</ele>
        <time>2020-06-26T20:00:44Z</time>
      </trkpt>
      <trkpt lat="49.21589" lon="6.82658">
        <ele>196.4</ele>
        <time>2020-06-26T20:00:45Z</time>
      </trkpt>
      <trkpt lat="49.21586" lon="6.82662">
        <ele>196.5</ele>
        <time>2020-06-26T20:00:46Z</time>
      </trkpt>
      <trkpt lat="49.21583" lon="6.82665">
        <ele>196.8</ele>
        <time>2020-06-26T20:00:47Z</time>
      </trkpt>
      <trkpt lat="49.21579" lon="6.8267">
        <ele>197</ele>
        <time>2020-06-26T20:00:48Z</time>
      </trkpt>
      <trkpt lat="49.21575" lon="6.82672">
        <ele>197.1</ele>
        <time>2020-06-26T20:00:49Z</time>
      </trkpt>
      <trkpt lat="49.21571" lon="6.82674">
        <ele>197</ele>
        <time>2020-06-26T20:00:50Z</time>
      </trkpt>
      <trkpt lat="49.21566" lon="6.82676">
        <ele>196.9</ele>
        <time>2020-06-26T20:00:51Z</time>
      </trkpt>
      <trkpt lat="49.21561" lon="6.82677">
        <ele>196.8</ele>
        <time>2020-06-26T20:00:52Z</time>
      </trkpt>
      <trkpt lat="49.21556" lon="6.82678">
        <ele>196.7</ele>
        <time>2020-06-26T20:00:53Z</time>
      </trkpt>
      <trkpt lat="49.21551" lon="6.82679">
        <ele>196.5</ele>
        <time>2020-06-26T20:00:54Z</time>
      </trkpt>
      <trkpt lat="49.21546" lon="6.82681">
        <ele>196.4</ele>
        <time>2020-06-26T20:00:55Z</time>
      </trkpt>
      <trkpt lat="49.21541" lon="6.82683">
        <ele>196.3</ele>
        <time>2020-06-26T20:00:56Z</time>
      </trkpt>
      <trkpt lat="49.21536" lon="6.82684">
        <ele>196.2</ele>
        <time>2020-06-26T20:00:57Z</time>
      </trkpt>
      <trkpt lat="49.2153" lon="6.82685">
        <ele>196</ele>
        <time>2020-06-26T20:00:58Z</time>
      </trkpt>
      <trkpt lat="49.21524" lon="6.82687">
        <ele>195.9</ele>
        <time>2020-06-26T20:00:59Z</time>
      </trkpt>
      <trkpt lat="49.21518" lon="6.8269">
        <ele>195.8</ele>
        <time>2020-06-26T20:01:00Z</time>
      </trkpt>
      <trkpt lat="49.21512" lon="6.82691">
        <ele>195.8</ele>
        <time>2020-06-26T20:01:01Z</time>
      </trkpt>
      <trkpt lat="49.21507" lon="6.82693">
        <ele>195.7</ele>
        <time>2020-06-26T20:01:02Z</time>
      </trkpt>
      <trkpt lat="49.21502" lon="6.82695">
        <ele>195.6</ele>
        <time>2020-06-26T20:01:03Z</time>
      </trkpt>
      <trkpt lat="49.21497" lon="6.82696">
        <ele>195.5</ele>
        <time>2020-06-26T20:01:04Z</time>
      </trkpt>
      <trkpt lat="49.21492" lon="6.82698">
        <ele>195.4</ele>
        <time>2020-06-26T20:01:05Z</time>
      </trkpt>
      <trkpt lat="49.21486" lon="6.82699">
        <ele>195.3</ele>
        <time>2020-06-26T20:01:06Z</time>
      </trkpt>
      <trkpt lat="49.21482" lon="6.82702">
        <ele>195.3</ele>
        <time>2020-06-26T20:01:07Z</time>
      </trkpt>
      <trkpt lat="49.21476" lon="6.82705">
        <ele>195.2</ele>
        <time>2020-06-26T20:01:08Z</time>
      </trkpt>
      <trkpt lat="49.21471" lon="6.82708">
        <ele>195.2</ele>
        <time>2020-06-26T20:01:09Z</time>
      </trkpt>
      <trkpt lat="49.21466" lon="6.8271">
        <ele>195.1</ele>
        <time>2020-06-26T20:01:10Z</time>
      </trkpt>
      <trkpt lat="49.2146" lon="6.82712">
        <ele>195</ele>
        <time>2020-06-26T20:01:11Z</time>
      </trkpt>
      <trkpt lat="49.21455" lon="6.82716">
        <ele>194.9</ele>
        <time>2020-06-26T20:01:12Z</time>
      </trkpt>
      <trkpt lat="49.21449" lon="6.82719">
        <ele>194.9</ele>
        <time>2020-06-26T20:01:13Z</time>
      </trkpt>
      <trkpt lat="49.21445" lon="6.82723">
        <ele>194.9</ele>
        <time>2020-06-26T20:01:14Z</time>
      </trkpt>
      <trkpt lat="49.21441" lon="6.82727">
        <ele>194.8</ele>
        <time>2020-06-26T20:01:15Z</time>
      </trkpt>
      <trkpt lat="49.21435" lon="6.8273">
        <ele>194.8</ele>
        <time>2020-06-26T20:01:16Z</time>
      </trkpt>
      <trkpt lat="49.21431" lon="6.82735">
        <ele>194.8</ele>
        <time>2020-06-26T20:01:17Z</time>
      </trkpt>
      <trkpt lat="49.21426" lon="6.82738">
        <ele>194.8</ele>
        <time>2020-06-26T20:01:18Z</time>
      </trkpt>
      <trkpt lat="49.21423" lon="6.82742">
        <ele>194.9</ele>
        <time>2020-06-26T20:01:19Z</time>
      </trkpt>
      <trkpt lat="49.21419" lon="6.82744">
        <ele>194.9</ele>
        <time>2020-06-26T20:01:20Z</time>
      </trkpt>
      <trkpt lat="49.21414" lon="6.82746">
        <ele>194.9</ele>
        <time>2020-06-26T20:01:21Z</time>
      </trkpt>
      <trkpt lat="49.21409" lon="6.8275">
        <ele>195</ele>
        <time>2020-06-26T20:01:22Z</time>
      </trkpt>
      <trkpt lat="49.21405" lon="6.82755">
        <ele>195</ele>
        <time>2020-06-26T20:01:23Z</time>
      </trkpt>
      <trkpt lat="49.214" lon="6.82759">
        <ele>195</ele>
        <time>2020-06-26T20:01:24Z</time>
      </trkpt>
      <trkpt lat="49.21395" lon="6.82763">
        <ele>195</ele>
        <time>2020-06-26T20:01:25Z</time>
      </trkpt>
      <trkpt lat="49.2139" lon="6.82766">
        <ele>194.9</ele>
        <time>2020-06-26T20:01:26Z</time>
      </trkpt>
      <trkpt lat="49.21383" lon="6.82772">
        <ele>194.9</ele>
        <time>2020-06-26T20:01:27Z</time>
      </trkpt>
      <trkpt lat="49.21377" lon="6.82779">
        <ele>194.8</ele>
        <time>2020-06-26T20:01:28Z</time>
      </trkpt>
      <trkpt lat="49.21371" lon="6.82787">
        <ele>194.9</ele>
        <time>2020-06-26T20:01:29Z</time>
      </trkpt>
      <trkpt lat="49.21365" lon="6.82793">
        <ele>195</ele>
        <time>2020-06-26T20:01:30Z</time>
      </trkpt>
      <trkpt lat="49.2136" lon="6.828">
        <ele>195</ele>
        <time>2020-06-26T20:01:31Z</time>
      </trkpt>
      <trkpt lat="49.21354" lon="6.82806">
        <ele>195.1</ele>
        <time>2020-06-26T20:01:32Z</time>
      </trkpt>
      <trkpt lat="49.21348" lon="6.8281">
        <ele>195.2</ele>
        <time>2020-06-26T20:01:33Z</time>
      </trkpt>
      <trkpt lat="49.21341" lon="6.82815">
        <ele>195.3</ele>
        <time>2020-06-26T20:01:34Z</time>
      </trkpt>
      <trkpt lat="49.21335" lon="6.82821">
        <ele>195.5</ele>
        <time>2020-06-26T20:01:35Z</time>
      </trkpt>
      <trkpt lat="49.2133" lon="6.82826">
        <ele>195.7</ele>
        <time>2020-06-26T20:01:36Z</time>
      </trkpt>
      <trkpt lat="49.21326" lon="6.8283">
        <ele>195.8</ele>
        <time>2020-06-26T20:01:37Z</time>
      </trkpt>
      <trkpt lat="49.21321" lon="6.82835">
        <ele>196</ele>
        <time>2020-06-26T20:01:38Z</time>
      </trkpt>
      <trkpt lat="49.21317" lon="6.82839">
        <ele>196.1</ele>
        <time>2020-06-26T20:01:39Z</time>
      </trkpt>
      <trkpt lat="49.2131" lon="6.82844">
        <ele>196.2</ele>
        <time>2020-06-26T20:01:40Z</time>
      </trkpt>
      <trkpt lat="49.21303" lon="6.82849">
        <ele>196.3</ele>
        <time>2020-06-26T20:01:41Z</time>
      </trkpt>
      <trkpt lat="49.21297" lon="6.82854">
        <ele>196.3</ele>
        <time>2020-06-26T20:01:42Z</time>
      </trkpt>
      <trkpt lat="49.21292" lon="6.82858">
        <ele>196.4</ele>
        <time>2020-06-26T20:01:43Z</time>
      </trkpt>
      <trkpt lat="49.21286" lon="6.82863">
        <ele>196.4</ele>
        <time>2020-06-26T20:01:44Z</time>
      </trkpt>
      <trkpt lat="49.21281" lon="6.82867">
        <ele>196.5</ele>
        <time>2020-06-26T20:01:45Z</time>
      </trkpt>
      <trkpt lat="49.21277" lon="6.82872">
        <ele>196.6</ele>
        <time>2020-06-26T20:01:46Z</time>
      </trkpt>
      <trkpt lat="49.21274" lon="6.82875">
        <ele>196.6</ele>
        <time>2020-06-26T20:01:47Z</time>
      </trkpt>
      <trkpt lat="49.2127" lon="6.82879">
        <ele>196.7</ele>
        <time>2020-06-26T20:01:48Z</time>
      </trkpt>
      <trkpt lat="49.21267" lon="6.82883">
        <ele>196.7</ele>
        <time>2020-06-26T20:01:49Z</time>
      </trkpt>
      <trkpt lat="49.21262" lon="6.82887">
        <ele>196.8</ele>
        <time>2020-06-26T20:01:50Z</time>
      </trkpt>
      <trkpt lat="49.21257" lon="6.82893">
        <ele>196.9</ele>
        <time>2020-06-26T20:01:51Z</time>
      </trkpt>
      <trkpt lat="49.21253" lon="6.82897">
        <ele>197</ele>
        <time>2020-06-26T20:01:52Z</time>
      </trkpt>
      <trkpt lat="49.2125" lon="6.82899">
        <ele>197</ele>
        <time>2020-06-26T20:01:53Z</time>
      </trkpt>
      <trkpt lat="49.21244" lon="6.82904">
        <ele>197.1</ele>
        <time>2020-06-26T20:01:54Z</time>
      </trkpt>
      <trkpt lat="49.21239" lon="6.82908">
        <ele>197.2</ele>
        <time>2020-06-26T20:01:55Z</time>
      </trkpt>
      <trkpt lat="49.21236" lon="6.82912">
        <ele>197.2</ele>
        <time>2020-06-26T20:01:56Z</time>
      </trkpt>
      <trkpt lat="49.21231" lon="6.82916">
        <ele>197.3</ele>
        <time>2020-06-26T20:01:57Z</time>
      </trkpt>
      <trkpt lat="49.21226" lon="6.82922">
        <ele>197.2</ele>
        <time>2020-06-26T20:01:58Z</time>
      </trkpt>
      <trkpt lat="49.21222" lon="6.82927">
        <ele>197.2</ele>
        <time>2020-06-26T20:01:59Z</time>
      </trkpt>
      <trkpt lat="49.21217" lon="6.82931">
        <ele>197.2</ele>
        <time>2020-06-26T20:02:00Z</time>
      </trkpt>
      <trkpt lat="49.21214" lon="6.82935">
        <ele>197.1</ele>
        <time>2020-06-26T20:02:01Z</time>
      </trkpt>
      <trkpt lat="49.21209" lon="6.8294">
        <ele>197.1</ele>
        <time>2020-06-26T20:02:02Z</time>
      </trkpt>
      <trkpt lat="49.21206" lon="6.82945">
        <ele>197.1</ele>
        <time>2020-06-26T20:02:03Z</time>
      </trkpt>
      <trkpt lat="49.21201" lon="6.8295">
        <ele>197</ele>
        <time>2020-06-26T20:02:04Z</time>
      </trkpt>
      <trkpt lat="49.21197" lon="6.82955">
        <ele>197</ele>
        <time>2020-06-26T20:02:05Z</time>
      </trkpt>
      <trkpt lat="49.21194" lon="6.82961">
        <ele>197</ele>
        <time>2020-06-26T20:02:06Z</time>
      </trkpt>
      <trkpt lat="49.2119" lon="6.82967">
        <ele>197</ele>
        <time>2020-06-26T20:02:07Z</time>
      </trkpt>
      <trkpt lat="49.21185" lon="6.82972">
        <ele>196.9</ele>
        <time>2020-06-26T20:02:08Z</time>
      </trkpt>
      <trkpt lat="49.2118" lon="6.82978">
        <ele>196.9</ele>
        <time>2020-06-26T20:02:09Z</time>
      </trkpt>
      <trkpt lat="49.21176" lon="6.82983">
        <ele>196.9</ele>
        <time>2020-06-26T20:02:10Z</time>
      </trkpt>
      <trkpt lat="49.21172" lon="6.8299">
        <ele>196.9</ele>
        <time>2020-06-26T20:02:11Z</time>
      </trkpt>
      <trkpt lat="49.21169" lon="6.82996">
        <ele>196.9</ele>
        <time>2020-06-26T20:02:12Z</time>
      </trkpt>
      <trkpt lat="49.21165" lon="6.83003">
        <ele>196.8</ele>
        <time>2020-06-26T20:02:13Z</time>
      </trkpt>
      <trkpt lat="49.2116" lon="6.83009">
        <ele>196.8</ele>
        <time>2020-06-26T20:02:14Z</time>
      </trkpt>
      <trkpt lat="49.21156" lon="6.83015">
        <ele>196.8</ele>
        <time>2020-06-26T20:02:15Z</time>
      </trkpt>
      <trkpt lat="49.21153" lon="6.83021">
        <ele>196.8</ele>
        <time>2020-06-26T20:02:16Z</time>
      </trkpt>
      <trkpt lat="49.21148" lon="6.83029">
        <ele>196.8</ele>
        <time>2020-06-26T20:02:17Z</time>
      </trkpt>
      <trkpt lat="49.21145" lon="6.83035">
        <ele>196.8</ele>
        <time>2020-06-26T20:02:18Z</time>
      </trkpt>
      <trkpt lat="49.2114" lon="6.83044">
        <ele>196.8</ele>
        <time>2020-06-26T20:02:19Z</time>
      </trkpt>
      <trkpt lat="49.21136" lon="6.83051">
        <ele>196.8</ele>
        <time>2020-06-26T20:02:20Z</time>
      </trkpt>
      <trkpt lat="49.21132" lon="6.83057">
        <ele>196.8</ele>
        <time>2020-06-26T20:02:21Z</time>
      </trkpt>
      <trkpt lat="49.21128" lon="6.83064">
        <ele>196.9</ele>
        <time>2020-06-26T20:02:22Z</time>
      </trkpt>
      <trkpt lat="49.21123" lon="6.8307">
        <ele>196.9</ele>
        <time>2020-06-26T20:02:23Z</time>
      </trkpt>
      <trkpt lat="49.21118" lon="6.83078">
        <ele>196.9</ele>
        <time>2020-06-26T20:02:24Z</time>
      </trkpt>
      <trkpt lat="49.21115" lon="6.83083">
        <ele>196.9</ele>
        <time>2020-06-26T20:02:25Z</time>
      </trkpt>
      <trkpt lat="49.2111" lon="6.83089">
        <ele>196.9</ele>
        <time>2020-06-26T20:02:26Z</time>
      </trkpt>
      <trkpt lat="49.21107" lon="6.83095">
        <ele>197</ele>
        <time>2020-06-26T20:02:27Z</time>
      </trkpt>
      <trkpt lat="49.21103" lon="6.83102">
        <ele>197</ele>
        <time>2020-06-26T20:02:28Z</time>
      </trkpt>
      <trkpt lat="49.21099" lon="6.83108">
        <ele>197</ele>
        <time>2020-06-26T20:02:29Z</time>
      </trkpt>
      <trkpt lat="49.21095" lon="6.83115">
        <ele>197.1</ele>
        <time>2020-06-26T20:02:30Z</time>
      </trkpt>
      <trkpt lat="49.21092" lon="6.83122">
        <ele>197.1</ele>
        <time>2020-06-26T20:02:31Z</time>
      </trkpt>
      <trkpt lat="49.21087" lon="6.83128">
        <ele>197.1</ele>
        <time>2020-06-26T20:02:32Z</time>
      </trkpt>
      <trkpt lat="49.21083" lon="6.83134">
        <ele>197.2</ele>
        <time>2020-06-26T20:02:33Z</time>
      </trkpt>
      <trkpt lat="49.21079" lon="6.83141">
        <ele>197.2</ele>
        <time>2020-06-26T20:02:34Z</time>
      </trkpt>
      <trkpt lat="49.21075" lon="6.83148">
        <ele>197.2</ele>
        <time>2020-06-26T20:02:35Z</time>
      </trkpt>
      <trkpt lat="49.21071" lon="6.83154">
        <ele>197.2</ele>
        <time>2020-06-26T20:02:36Z</time>
      </trkpt>
      <trkpt lat="49.21067" lon="6.83161">
        <ele>197.2</ele>
        <time>2020-06-26T20:02:37Z</time>
      </trkpt>
      <trkpt lat="49.21063" lon="6.83168">
        <ele>197.2</ele>
        <time>2020-06-26T20:02:38Z</time>
      </trkpt>
      <trkpt lat="49.21058" lon="6.83174">
        <ele>197.2</ele>
        <time>2020-06-26T20:02:39Z</time>
      </trkpt>
      <trkpt lat="49.21054" lon="6.83181">
        <ele>197.2</ele>
        <time>2020-06-26T20:02:40Z</time>
      </trkpt>
      <trkpt lat="49.21049" lon="6.83187">
        <ele>197.3</ele>
        <time>2020-06-26T20:02:41Z</time>
      </trkpt>
      <trkpt lat="49.21046" lon="6.83193">
        <ele>197.3</ele>
        <time>2020-06-26T20:02:42Z</time>
      </trkpt>
      <trkpt lat="49.21042" lon="6.83201">
        <ele>197.3</ele>
        <time>2020-06-26T20:02:43Z</time>
      </trkpt>
      <trkpt lat="49.21038" lon="6.83208">
        <ele>197.4</ele>
        <time>2020-06-26T20:02:44Z</time>
      </trkpt>
      <trkpt lat="49.21033" lon="6.83215">
        <ele>197.5</ele>
        <time>2020-06-26T20:02:45Z</time>
      </trkpt>
      <trkpt lat="49.2103" lon="6.83222">
        <ele>197.4</ele>
        <time>2020-06-26T20:02:46Z</time>
      </trkpt>
      <trkpt lat="49.21027" lon="6.8323">
        <ele>197.4</ele>
        <time>2020-06-26T20:02:47Z</time>
      </trkpt>
      <trkpt lat="49.21023" lon="6.83237">
        <ele>197.4</ele>
        <time>2020-06-26T20:02:48Z</time>
      </trkpt>
      <trkpt lat="49.21019" lon="6.83244">
        <ele>197.3</ele>
        <time>2020-06-26T20:02:49Z</time>
      </trkpt>
      <trkpt lat="49.21013" lon="6.83252">
        <ele>197.3</ele>
        <time>2020-06-26T20:02:50Z</time>
      </trkpt>
      <trkpt lat="49.21009" lon="6.83258">
        <ele>197.3</ele>
        <time>2020-06-26T20:02:51Z</time>
      </trkpt>
      <trkpt lat="49.21004" lon="6.83265">
        <ele>197.2</ele>
        <time>2020-06-26T20:02:52Z</time>
      </trkpt>
      <trkpt lat="49.21" lon="6.83271">
        <ele>197.2</ele>
        <time>2020-06-26T20:02:53Z</time>
      </trkpt>
      <trkpt lat="49.20995" lon="6.83279">
        <ele>197.1</ele>
        <time>2020-06-26T20:02:54Z</time>
      </trkpt>
      <trkpt lat="49.20991" lon="6.83286">
        <ele>197</ele>
        <time>2020-06-26T20:02:55Z</time>
      </trkpt>
      <trkpt lat="49.20986" lon="6.83293">
        <ele>196.9</ele>
        <time>2020-06-26T20:02:56Z</time>
      </trkpt>
      <trkpt lat="49.20981" lon="6.833">
        <ele>196.9</ele>
        <time>2020-06-26T20:02:57Z</time>
      </trkpt>
      <trkpt lat="49.20977" lon="6.83307">
        <ele>196.8</ele>
        <time>2020-06-26T20:02:58Z</time>
      </trkpt>
      <trkpt lat="49.20972" lon="6.83314">
        <ele>196.8</ele>
        <time>2020-06-26T20:02:59Z</time>
      </trkpt>
      <trkpt lat="49.20968" lon="6.83321">
        <ele>196.8</ele>
        <time>2020-06-26T20:03:00Z</time>
      </trkpt>
      <trkpt lat="49.20963" lon="6.83328">
        <ele>196.8</ele>
        <time>2020-06-26T20:03:01Z</time>
      </trkpt>
      <trkpt lat="49.2096" lon="6.83335">
        <ele>196.8</ele>
        <time>2020-06-26T20:03:02Z</time>
      </trkpt>
      <trkpt lat="49.20954" lon="6.83343">
        <ele>196.9</ele>
        <time>2020-06-26T20:03:03Z</time>
      </trkpt>
      <trkpt lat="49.20949" lon="6.8335">
        <ele>196.9</ele>
        <time>2020-06-26T20:03:04Z</time>
      </trkpt>
      <trkpt lat="49.20946" lon="6.83356">
        <ele>196.9</ele>
        <time>2020-06-26T20:03:05Z</time>
      </trkpt>
      <trkpt lat="49.20942" lon="6.83363">
        <ele>197</ele>
        <time>2020-06-26T20:03:06Z</time>
      </trkpt>
      <trkpt lat="49.20938" lon="6.83371">
        <ele>197</ele>
        <time>2020-06-26T20:03:07Z</time>
      </trkpt>
      <trkpt lat="49.20933" lon="6.83378">
        <ele>197</ele>
        <time>2020-06-26T20:03:08Z</time>
      </trkpt>
      <trkpt lat="49.2093" lon="6.83386">
        <ele>197</ele>
        <time>2020-06-26T20:03:09Z</time>
      </trkpt>
      <trkpt lat="49.20926" lon="6.83392">
        <ele>197</ele>
        <time>2020-06-26T20:03:10Z</time>
      </trkpt>
      <trkpt lat="49.20923" lon="6.83399">
        <ele>196.9</ele>
        <time>2020-06-26T20:03:11Z</time>
      </trkpt>
      <trkpt lat="49.20919" lon="6.83406">
        <ele>196.9</ele>
        <time>2020-06-26T20:03:12Z</time>
      </trkpt>
      <trkpt lat="49.20915" lon="6.83413">
        <ele>196.9</ele>
        <time>2020-06-26T20:03:13Z</time>
      </trkpt>
      <trkpt lat="49.20911" lon="6.83421">
        <ele>196.8</ele>
        <time>2020-06-26T20:03:14Z</time>
      </trkpt>
      <trkpt lat="49.20907" lon="6.83429">
        <ele>196.9</ele>
        <time>2020-06-26T20:03:15Z</time>
      </trkpt>
      <trkpt lat="49.20903" lon="6.83436">
        <ele>196.9</ele>
        <time>2020-06-26T20:03:16Z</time>
      </trkpt>
      <trkpt lat="49.209" lon="6.83441">
        <ele>196.9</ele>
        <time>2020-06-26T20:03:17Z</time>
      </trkpt>
      <trkpt lat="49.20896" lon="6.83449">
        <ele>196.9</ele>
        <time>2020-06-26T20:03:18Z</time>
      </trkpt>
      <trkpt lat="49.20893" lon="6.83455">
        <ele>196.9</ele>
        <time>2020-06-26T20:03:19Z</time>
      </trkpt>
      <trkpt lat="49.20889" lon="6.83463">
        <ele>196.9</ele>
        <time>2020-06-26T20:03:20Z</time>
      </trkpt>
      <trkpt lat="49.20885" lon="6.83469">
        <ele>196.9</ele>
        <time>2020-06-26T20:03:21Z</time>
      </trkpt>
      <trkpt lat="49.20881" lon="6.83477">
        <ele>196.9</ele>
        <time>2020-06-26T20:03:22Z</time>
      </trkpt>
      <trkpt lat="49.20877" lon="6.83485">
        <ele>196.9</ele>
        <time>2020-06-26T20:03:23Z</time>
      </trkpt>
      <trkpt lat="49.20874" lon="6.83493">
        <ele>196.8</ele>
        <time>2020-06-26T20:03:24Z</time>
      </trkpt>
      <trkpt lat="49.2087" lon="6.83501">
        <ele>196.7</ele>
        <time>2020-06-26T20:03:25Z</time>
      </trkpt>
      <trkpt lat="49.20867" lon="6.83508">
        <ele>196.6</ele>
        <time>2020-06-26T20:03:26Z</time>
      </trkpt>
      <trkpt lat="49.20863" lon="6.83515">
        <ele>196.5</ele>
        <time>2020-06-26T20:03:27Z</time>
      </trkpt>
      <trkpt lat="49.2086" lon="6.8352">
        <ele>196.5</ele>
        <time>2020-06-26T20:03:28Z</time>
      </trkpt>
      <trkpt lat="49.20857" lon="6.83527">
        <ele>196.5</ele>
        <time>2020-06-26T20:03:29Z</time>
      </trkpt>
      <trkpt lat="49.20853" lon="6.83534">
        <ele>196.4</ele>
        <time>2020-06-26T20:03:30Z</time>
      </trkpt>
      <trkpt lat="49.2085" lon="6.83541">
        <ele>196.4</ele>
        <time>2020-06-26T20:03:31Z</time>
      </trkpt>
      <trkpt lat="49.20847" lon="6.83549">
        <ele>196.4</ele>
        <time>2020-06-26T20:03:32Z</time>
      </trkpt>
      <trkpt lat="49.20843" lon="6.83555">
        <ele>196.4</ele>
        <time>2020-06-26T20:03:33Z</time>
      </trkpt>
      <trkpt lat="49.20838" lon="6.83563">
        <ele>196.4</ele>
        <time>2020-06-26T20:03:34Z</time>
      </trkpt>
      <trkpt lat="49.20835" lon="6.8357">
        <ele>196.5</ele>
        <time>2020-06-26T20:03:35Z</time>
      </trkpt>
      <trkpt lat="49.20831" lon="6.83577">
        <ele>196.5</ele>
        <time>2020-06-26T20:03:36Z</time>
      </trkpt>
      <trkpt lat="49.20827" lon="6.83584">
        <ele>196.5</ele>
        <time>2020-06-26T20:03:37Z</time>
      </trkpt>
      <trkpt lat="49.20822" lon="6.8359">
        <ele>196.5</ele>
        <time>2020-06-26T20:03:38Z</time>
      </trkpt>
      <trkpt lat="49.20818" lon="6.83597">
        <ele>196.5</ele>
        <time>2020-06-26T20:03:39Z</time>
      </trkpt>
      <trkpt lat="49.20814" lon="6.83603">
        <ele>196.5</ele>
        <time>2020-06-26T20:03:40Z</time>
      </trkpt>
      <trkpt lat="49.2081" lon="6.8361">
        <ele>196.5</ele>
        <time>2020-06-26T20:03:41Z</time>
      </trkpt>
      <trkpt lat="49.20805" lon="6.83617">
        <ele>196.5</ele>
        <time>2020-06-26T20:03:42Z</time>
      </trkpt>
      <trkpt lat="49.20801" lon="6.83623">
        <ele>196.5</ele>
        <time>2020-06-26T20:03:43Z</time>
      </trkpt>
      <trkpt lat="49.20796" lon="6.83631">
        <ele>196.5</ele>
        <time>2020-06-26T20:03:44Z</time>
      </trkpt>
      <trkpt lat="49.20791" lon="6.83638">
        <ele>196.5</ele>
        <time>2020-06-26T20:03:45Z</time>
      </trkpt>
      <trkpt lat="49.20787" lon="6.83645">
        <ele>196.5</ele>
        <time>2020-06-26T20:03:46Z</time>
      </trkpt>
      <trkpt lat="49.20783" lon="6.83652">
        <ele>196.4</ele>
        <time>2020-06-26T20:03:47Z</time>
      </trkpt>
      <trkpt lat="49.20779" lon="6.8366">
        <ele>196.4</ele>
        <time>2020-06-26T20:03:48Z</time>
      </trkpt>
      <trkpt lat="49.20775" lon="6.83666">
        <ele>196.4</ele>
        <time>2020-06-26T20:03:49Z</time>
      </trkpt>
      <trkpt lat="49.20771" lon="6.83672">
        <ele>196.4</ele>
        <time>2020-06-26T20:03:50Z</time>
      </trkpt>
      <trkpt lat="49.20767" lon="6.83678">
        <ele>196.5</ele>
        <time>2020-06-26T20:03:51Z</time>
      </trkpt>
      <trkpt lat="49.20764" lon="6.83683">
        <ele>196.5</ele>
        <time>2020-06-26T20:03:52Z</time>
      </trkpt>
      <trkpt lat="49.20761" lon="6.83689">
        <ele>196.5</ele>
        <time>2020-06-26T20:03:53Z</time>
      </trkpt>
      <trkpt lat="49.20756" lon="6.83697">
        <ele>196.5</ele>
        <time>2020-06-26T20:03:54Z</time>
      </trkpt>
      <trkpt lat="49.20753" lon="6.83704">
        <ele>196.6</ele>
        <time>2020-06-26T20:03:55Z</time>
      </trkpt>
      <trkpt lat="49.20749" lon="6.83711">
        <ele>196.6</ele>
        <time>2020-06-26T20:03:56Z</time>
      </trkpt>
      <trkpt lat="49.20743" lon="6.83718">
        <ele>196.7</ele>
        <time>2020-06-26T20:03:57Z</time>
      </trkpt>
      <trkpt lat="49.20738" lon="6.83727">
        <ele>196.8</ele>
        <time>2020-06-26T20:03:58Z</time>
      </trkpt>
      <trkpt lat="49.20735" lon="6.83735">
        <ele>196.9</ele>
        <time>2020-06-26T20:03:59Z</time>
      </trkpt>
      <trkpt lat="49.2073" lon="6.83742">
        <ele>196.9</ele>
        <time>2020-06-26T20:04:00Z</time>
      </trkpt>
      <trkpt lat="49.20725" lon="6.83748">
        <ele>197</ele>
        <time>2020-06-26T20:04:01Z</time>
      </trkpt>
      <trkpt lat="49.2072" lon="6.83754">
        <ele>197</ele>
        <time>2020-06-26T20:04:02Z</time>
      </trkpt>
      <trkpt lat="49.20716" lon="6.83761">
        <ele>197.1</ele>
        <time>2020-06-26T20:04:03Z</time>
      </trkpt>
      <trkpt lat="49.20711" lon="6.8377">
        <ele>197.1</ele>
        <time>2020-06-26T20:04:04Z</time>
      </trkpt>
      <trkpt lat="49.20706" lon="6.83778">
        <ele>197.2</ele>
        <time>2020-06-26T20:04:05Z</time>
      </trkpt>
      <trkpt lat="49.20702" lon="6.83784">
        <ele>197.3</ele>
        <time>2020-06-26T20:04:06Z</time>
      </trkpt>
      <trkpt lat="49.20698" lon="6.83788">
        <ele>197.4</ele>
        <time>2020-06-26T20:04:07Z</time>
      </trkpt>
      <trkpt lat="49.20696" lon="6.83792">
        <ele>197.4</ele>
        <time>2020-06-26T20:04:08Z</time>
      </trkpt>
      <trkpt lat="49.20694" lon="6.83798">
        <ele>197.5</ele>
        <time>2020-06-26T20:04:09Z</time>
      </trkpt>
      <trkpt lat="49.20692" lon="6.83804">
        <ele>197.6</ele>
        <time>2020-06-26T20:04:10Z</time>
      </trkpt>
      <trkpt lat="49.20689" lon="6.83811">
        <ele>197.6</ele>
        <time>2020-06-26T20:04:11Z</time>
      </trkpt>
      <trkpt lat="49.20686" lon="6.83817">
        <ele>197.7</ele>
        <time>2020-06-26T20:04:12Z</time>
      </trkpt>
      <trkpt lat="49.20685" lon="6.83824">
        <ele>197.8</ele>
        <time>2020-06-26T20:04:13Z</time>
      </trkpt>
      <trkpt lat="49.20683" lon="6.83831">
        <ele>197.8</ele>
        <time>2020-06-26T20:04:14Z</time>
      </trkpt>
      <trkpt lat="49.20681" lon="6.83839">
        <ele>197.9</ele>
        <time>2020-06-26T20:04:15Z</time>
      </trkpt>
      <trkpt lat="49.20679" lon="6.83849">
        <ele>197.9</ele>
        <time>2020-06-26T20:04:16Z</time>
      </trkpt>
      <trkpt lat="49.20677" lon="6.83859">
        <ele>198</ele>
        <time>2020-06-26T20:04:17Z</time>
      </trkpt>
      <trkpt lat="49.20675" lon="6.83869">
        <ele>198</ele>
        <time>2020-06-26T20:04:18Z</time>
      </trkpt>
      <trkpt lat="49.20673" lon="6.83877">
        <ele>198</ele>
        <time>2020-06-26T20:04:19Z</time>
      </trkpt>
      <trkpt lat="49.2067" lon="6.83884">
        <ele>198.1</ele>
        <time>2020-06-26T20:04:20Z</time>
      </trkpt>
      <trkpt lat="49.20667" lon="6.83893">
        <ele>198.1</ele>
        <time>2020-06-26T20:04:21Z</time>
      </trkpt>
      <trkpt lat="49.20664" lon="6.839">
        <ele>198</ele>
        <time>2020-06-26T20:04:22Z</time>
      </trkpt>
      <trkpt lat="49.20661" lon="6.83909">
        <ele>197.9</ele>
        <time>2020-06-26T20:04:23Z</time>
      </trkpt>
      <trkpt lat="49.20658" lon="6.83917">
        <ele>197.8</ele>
        <time>2020-06-26T20:04:24Z</time>
      </trkpt>
      <trkpt lat="49.20656" lon="6.83924">
        <ele>197.6</ele>
        <time>2020-06-26T20:04:25Z</time>
      </trkpt>
      <trkpt lat="49.20654" lon="6.83932">
        <ele>197.5</ele>
        <time>2020-06-26T20:04:26Z</time>
      </trkpt>
      <trkpt lat="49.20652" lon="6.8394">
        <ele>197.3</ele>
        <time>2020-06-26T20:04:27Z</time>
      </trkpt>
      <trkpt lat="49.2065" lon="6.83947">
        <ele>197.2</ele>
        <time>2020-06-26T20:04:28Z</time>
      </trkpt>
      <trkpt lat="49.20649" lon="6.83955">
        <ele>197</ele>
        <time>2020-06-26T20:04:29Z</time>
      </trkpt>
      <trkpt lat="49.20648" lon="6.83966">
        <ele>196.8</ele>
        <time>2020-06-26T20:04:30Z</time>
      </trkpt>
      <trkpt lat="49.20646" lon="6.83973">
        <ele>196.7</ele>
        <time>2020-06-26T20:04:31Z</time>
      </trkpt>
      <trkpt lat="49.20644" lon="6.83981">
        <ele>196.5</ele>
        <time>2020-06-26T20:04:32Z</time>
      </trkpt>
      <trkpt lat="49.20641" lon="6.83989">
        <ele>196.4</ele>
        <time>2020-06-26T20:04:33Z</time>
      </trkpt>
      <trkpt lat="49.20638" lon="6.83996">
        <ele>196.2</ele>
        <time>2020-06-26T20:04:34Z</time>
      </trkpt>
      <trkpt lat="49.20635" lon="6.84004">
        <ele>195.9</ele>
        <time>2020-06-26T20:04:35Z</time>
      </trkpt>
      <trkpt lat="49.20633" lon="6.84011">
        <ele>195.8</ele>
        <time>2020-06-26T20:04:36Z</time>
      </trkpt>
      <trkpt lat="49.2063" lon="6.84019">
        <ele>195.6</ele>
        <time>2020-06-26T20:04:37Z</time>
      </trkpt>
      <trkpt lat="49.20627" lon="6.84027">
        <ele>195.4</ele>
        <time>2020-06-26T20:04:38Z</time>
      </trkpt>
      <trkpt lat="49.20625" lon="6.84035">
        <ele>195.2</ele>
        <time>2020-06-26T20:04:39Z</time>
      </trkpt>
      <trkpt lat="49.2062" lon="6.84044">
        <ele>194.8</ele>
        <time>2020-06-26T20:04:40Z</time>
      </trkpt>
      <trkpt lat="49.20617" lon="6.84052">
        <ele>194.8</ele>
        <time>2020-06-26T20:04:41Z</time>
      </trkpt>
      <trkpt lat="49.20614" lon="6.8406">
        <ele>194.7</ele>
        <time>2020-06-26T20:04:42Z</time>
      </trkpt>
      <trkpt lat="49.20611" lon="6.84068">
        <ele>194.5</ele>
        <time>2020-06-26T20:04:43Z</time>
      </trkpt>
      <trkpt lat="49.20609" lon="6.84079">
        <ele>194.4</ele>
        <time>2020-06-26T20:04:44Z</time>
      </trkpt>
      <trkpt lat="49.20606" lon="6.84087">
        <ele>194.3</ele>
        <time>2020-06-26T20:04:45Z</time>
      </trkpt>
      <trkpt lat="49.20603" lon="6.84097">
        <ele>194.1</ele>
        <time>2020-06-26T20:04:46Z</time>
      </trkpt>
      <trkpt lat="49.20599" lon="6.84108">
        <ele>193.9</ele>
        <time>2020-06-26T20:04:47Z</time>
      </trkpt>
      <trkpt lat="49.20597" lon="6.84117">
        <ele>193.5</ele>
        <time>2020-06-26T20:04:48Z</time>
      </trkpt>
      <trkpt lat="49.20595" lon="6.84127">
        <ele>193.2</ele>
        <time>2020-06-26T20:04:49Z</time>
      </trkpt>
      <trkpt lat="49.20592" lon="6.84137">
        <ele>192.9</ele>
        <time>2020-06-26T20:04:50Z</time>
      </trkpt>
      <trkpt lat="49.2059" lon="6.84147">
        <ele>192.6</ele>
        <time>2020-06-26T20:04:51Z</time>
      </trkpt>
      <trkpt lat="49.20586" lon="6.84157">
        <ele>192.5</ele>
        <time>2020-06-26T20:04:52Z</time>
      </trkpt>
      <trkpt lat="49.20584" lon="6.84166">
        <ele>192.4</ele>
        <time>2020-06-26T20:04:53Z</time>
      </trkpt>
      <trkpt lat="49.2058" lon="6.84174">
        <ele>192.3</ele>
        <time>2020-06-26T20:04:54Z</time>
      </trkpt>
      <trkpt lat="49.20577" lon="6.84182">
        <ele>192.3</ele>
        <time>2020-06-26T20:04:55Z</time>
      </trkpt>
      <trkpt lat="49.20574" lon="6.84192">
        <ele>192.2</ele>
        <time>2020-06-26T20:04:56Z</time>
      </trkpt>
      <trkpt lat="49.2057" lon="6.84202">
        <ele>192.1</ele>
        <time>2020-06-26T20:04:57Z</time>
      </trkpt>
      <trkpt lat="49.20567" lon="6.84211">
        <ele>192.1</ele>
        <time>2020-06-26T20:04:58Z</time>
      </trkpt>
      <trkpt lat="49.20563" lon="6.8422">
        <ele>192.1</ele>
        <time>2020-06-26T20:04:59Z</time>
      </trkpt>
      <trkpt lat="49.2056" lon="6.84228">
        <ele>192.1</ele>
        <time>2020-06-26T20:05:00Z</time>
      </trkpt>
      <trkpt lat="49.20557" lon="6.84235">
        <ele>192.2</ele>
        <time>2020-06-26T20:05:01Z</time>
      </trkpt>
      <trkpt lat="49.20554" lon="6.84243">
        <ele>192.3</ele>
        <time>2020-06-26T20:05:02Z</time>
      </trkpt>
      <trkpt lat="49.20551" lon="6.84251">
        <ele>192.4</ele>
        <time>2020-06-26T20:05:03Z</time>
      </trkpt>
      <trkpt lat="49.20548" lon="6.84258">
        <ele>192.5</ele>
        <time>2020-06-26T20:05:04Z</time>
      </trkpt>
      <trkpt lat="49.20545" lon="6.84263">
        <ele>192.6</ele>
        <time>2020-06-26T20:05:05Z</time>
      </trkpt>
      <trkpt lat="49.20541" lon="6.84271">
        <ele>192.7</ele>
        <time>2020-06-26T20:05:06Z</time>
      </trkpt>
      <trkpt lat="49.20538" lon="6.84277">
        <ele>192.9</ele>
        <time>2020-06-26T20:05:07Z</time>
      </trkpt>
      <trkpt lat="49.20534" lon="6.84283">
        <ele>193</ele>
        <time>2020-06-26T20:05:08Z</time>
      </trkpt>
      <trkpt lat="49.2053" lon="6.84291">
        <ele>193.2</ele>
        <time>2020-06-26T20:05:09Z</time>
      </trkpt>
      <trkpt lat="49.20527" lon="6.84298">
        <ele>193.2</ele>
        <time>2020-06-26T20:05:10Z</time>
      </trkpt>
      <trkpt lat="49.20523" lon="6.84305">
        <ele>193.3</ele>
        <time>2020-06-26T20:05:11Z</time>
      </trkpt>
      <trkpt lat="49.20521" lon="6.84311">
        <ele>193.4</ele>
        <time>2020-06-26T20:05:12Z</time>
      </trkpt>
      <trkpt lat="49.20517" lon="6.84319">
        <ele>193.6</ele>
        <time>2020-06-26T20:05:13Z</time>
      </trkpt>
      <trkpt lat="49.20513" lon="6.84324">
        <ele>193.9</ele>
        <time>2020-06-26T20:05:14Z</time>
      </trkpt>
      <trkpt lat="49.20508" lon="6.84328">
        <ele>194.2</ele>
        <time>2020-06-26T20:05:15Z</time>
      </trkpt>
      <trkpt lat="49.20501" lon="6.84332">
        <ele>194.7</ele>
        <time>2020-06-26T20:05:16Z</time>
      </trkpt>
      <trkpt lat="49.20495" lon="6.84335">
        <ele>195.2</ele>
        <time>2020-06-26T20:05:17Z</time>
      </trkpt>
      <trkpt lat="49.2049" lon="6.84338">
        <ele>195.7</ele>
        <time>2020-06-26T20:05:18Z</time>
      </trkpt>
      <trkpt lat="49.20487" lon="6.8434">
        <ele>196</ele>
        <time>2020-06-26T20:05:19Z</time>
      </trkpt>
      <trkpt lat="49.20483" lon="6.84342">
        <ele>196.4</ele>
        <time>2020-06-26T20:05:20Z</time>
      </trkpt>
      <trkpt lat="49.20479" lon="6.84344">
        <ele>196.8</ele>
        <time>2020-06-26T20:05:21Z</time>
      </trkpt>
      <trkpt lat="49.20478" lon="6.84344">
        <ele>196.9</ele>
        <time>2020-06-26T20:05:22Z</time>
      </trkpt>
      <trkpt lat="49.20474" lon="6.84347">
        <ele>197.3</ele>
        <time>2020-06-26T20:05:23Z</time>
      </trkpt>
      <trkpt lat="49.20473" lon="6.84348">
        <ele>197.5</ele>
        <time>2020-06-26T20:05:24Z</time>
      </trkpt>
      <trkpt lat="49.2047" lon="6.84351">
        <ele>197.8</ele>
        <time>2020-06-26T20:05:25Z</time>
      </trkpt>
      <trkpt lat="49.20466" lon="6.84354">
        <ele>198.1</ele>
        <time>2020-06-26T20:05:26Z</time>
      </trkpt>
      <trkpt lat="49.20464" lon="6.84356">
        <ele>198.3</ele>
        <time>2020-06-26T20:05:27Z</time>
      </trkpt>
      <trkpt lat="49.20463" lon="6.84357">
        <ele>198.4</ele>
        <time>2020-06-26T20:05:28Z</time>
      </trkpt>
      <trkpt lat="49.20462" lon="6.84357">
        <ele>198.5</ele>
        <time>2020-06-26T20:05:29Z</time>
      </trkpt>
      <trkpt lat="49.2046" lon="6.84357">
        <ele>198.6</ele>
        <time>2020-06-26T20:05:30Z</time>
      </trkpt>
      <trkpt lat="49.20458" lon="6.84357">
        <ele>199.1</ele>
        <time>2020-06-26T20:05:31Z</time>
      </trkpt>
      <trkpt lat="49.20457" lon="6.84357">
        <ele>199.1</ele>
        <time>2020-06-26T20:05:32Z</time>
      </trkpt>
      <trkpt lat="49.20456" lon="6.84357">
        <ele>199.1</ele>
        <time>2020-06-26T20:05:33Z</time>
      </trkpt>
      <trkpt lat="49.20455" lon="6.84357">
        <ele>199.1</ele>
        <time>2020-06-26T20:05:34Z</time>
      </trkpt>
      <trkpt lat="49.20454" lon="6.84356">
        <ele>199.1</ele>
        <time>2020-06-26T20:05:35Z</time>
      </trkpt>
      <trkpt lat="49.20453" lon="6.84355">
        <ele>199.1</ele>
        <time>2020-06-26T20:05:36Z</time>
      </trkpt>
      <trkpt lat="49.20452" lon="6.84354">
        <ele>199.1</ele>
        <time>2020-06-26T20:05:37Z</time>
      </trkpt>
      <trkpt lat="49.20452" lon="6.84354">
        <ele>199.1</ele>
        <time>2020-06-26T20:05:38Z</time>
      </trkpt>
      <trkpt lat="49.20451" lon="6.84353">
        <ele>199.1</ele>
        <time>2020-06-26T20:05:39Z</time>
      </trkpt>
      <trkpt lat="49.2045" lon="6.84352">
        <ele>199.1</ele>
        <time>2020-06-26T20:05:40Z</time>
      </trkpt>
      <trkpt lat="49.2045" lon="6.84351">
        <ele>199.1</ele>
        <time>2020-06-26T20:05:41Z</time>
      </trkpt>
      <trkpt lat="49.20449" lon="6.8435">
        <ele>199.1</ele>
        <time>2020-06-26T20:05:42Z</time>
      </trkpt>
      <trkpt lat="49.20448" lon="6.84349">
        <ele>199.1</ele>
        <time>2020-06-26T20:05:43Z</time>
      </trkpt>
      <trkpt lat="49.20448" lon="6.84348">
        <ele>199.1</ele>
        <time>2020-06-26T20:05:44Z</time>
      </trkpt>
      <trkpt lat="49.20447" lon="6.84347">
        <ele>199.1</ele>
        <time>2020-06-26T20:05:45Z</time>
      </trkpt>
      <trkpt lat="49.20447" lon="6.84347">
        <ele>199.1</ele>
        <time>2020-06-26T20:05:46Z</time>
      </trkpt>
      <trkpt lat="49.20446" lon="6.84346">
        <ele>199.1</ele>
        <time>2020-06-26T20:05:47Z</time>
      </trkpt>
      <trkpt lat="49.20445" lon="6.84345">
        <ele>199.1</ele>
        <time>2020-06-26T20:11:59Z</time>
      </trkpt>
      <trkpt lat="49.20445" lon="6.84344">
        <ele>199.1</ele>
        <time>2020-06-26T20:12:00Z</time>
      </trkpt>
      <trkpt lat="49.20444" lon="6.84343">
        <ele>199.1</ele>
        <time>2020-06-26T20:12:01Z</time>
      </trkpt>
      <trkpt lat="49.20443" lon="6.84342">
        <ele>199.1</ele>
        <time>2020-06-26T20:12:02Z</time>
      </trkpt>
      <trkpt lat="49.20443" lon="6.84341">
        <ele>199.1</ele>
        <time>2020-06-26T20:12:03Z</time>
      </trkpt>
      <trkpt lat="49.20442" lon="6.84341">
        <ele>199.1</ele>
        <time>2020-06-26T20:12:04Z</time>
      </trkpt>
      <trkpt lat="49.20441" lon="6.8434">
        <ele>199.1</ele>
        <time>2020-06-26T20:12:05Z</time>
      </trkpt>
      <trkpt lat="49.20441" lon="6.84339">
        <ele>199.1</ele>
        <time>2020-06-26T20:12:06Z</time>
      </trkpt>
      <trkpt lat="49.20441" lon="6.84339">
        <ele>199.1</ele>
        <time>2020-06-26T20:12:07Z</time>
      </trkpt>
      <trkpt lat="49.20441" lon="6.84341">
        <ele>199.1</ele>
        <time>2020-06-26T20:12:08Z</time>
      </trkpt>
      <trkpt lat="49.20441" lon="6.84341">
        <ele>199.1</ele>
        <time>2020-06-26T20:12:09Z</time>
      </trkpt>
      <trkpt lat="49.20441" lon="6.84341">
        <ele>199.1</ele>
        <time>2020-06-26T20:12:10Z</time>
      </trkpt>
      <trkpt lat="49.20441" lon="6.84342">
        <ele>199.1</ele>
        <time>2020-06-26T20:12:11Z</time>
      </trkpt>
      <trkpt lat="49.20441" lon="6.84343">
        <ele>199.1</ele>
        <time>2020-06-26T20:12:12Z</time>
      </trkpt>
      <trkpt lat="49.20441" lon="6.84343">
        <ele>199.1</ele>
        <time>2020-06-26T20:12:13Z</time>
      </trkpt>
      <trkpt lat="49.20441" lon="6.84342">
        <ele>199.1</ele>
        <time>2020-06-26T20:12:14Z</time>
      </trkpt>
      <trkpt lat="49.20441" lon="6.84342">
        <ele>199.1</ele>
        <time>2020-06-26T20:12:15Z</time>
      </trkpt>
      <trkpt lat="49.20441" lon="6.84341">
        <ele>199.1</ele>
        <time>2020-06-26T20:12:16Z</time>
      </trkpt>
      <trkpt lat="49.20441" lon="6.8434">
        <ele>199.1</ele>
        <time>2020-06-26T20:12:17Z</time>
      </trkpt>
      <trkpt lat="49.2044" lon="6.84341">
        <ele>199.1</ele>
        <time>2020-06-26T20:12:18Z</time>
      </trkpt>
      <trkpt lat="49.2044" lon="6.84341">
        <ele>199.1</ele>
        <time>2020-06-26T20:12:19Z</time>
      </trkpt>
      <trkpt lat="49.2044" lon="6.84341">
        <ele>199.1</ele>
        <time>2020-06-26T20:12:20Z</time>
      </trkpt>
      <trkpt lat="49.2044" lon="6.84342">
        <ele>199.1</ele>
        <time>2020-06-26T20:12:21Z</time>
      </trkpt>
      <trkpt lat="49.2044" lon="6.84342">
        <ele>199.1</ele>
        <time>2020-06-26T20:12:22Z</time>
      </trkpt>
      <trkpt lat="49.20439" lon="6.84343">
        <ele>199.1</ele>
        <time>2020-06-26T20:12:23Z</time>
      </trkpt>
      <trkpt lat="49.20439" lon="6.84343">
        <ele>199.1</ele>
        <time>2020-06-26T20:12:24Z</time>
      </trkpt>
      <trkpt lat="49.2044" lon="6.84343">
        <ele>199.1</ele>
        <time>2020-06-26T20:12:25Z</time>
      </trkpt>
      <trkpt lat="49.2044" lon="6.84343">
        <ele>199.1</ele>
        <time>2020-06-26T20:12:26Z</time>
      </trkpt>
      <trkpt lat="49.2044" lon="6.84343">
        <ele>199.1</ele>
        <time>2020-06-26T20:12:27Z</time>
      </trkpt>
      <trkpt lat="49.2044" lon="6.84343">
        <ele>199.1</ele>
        <time>2020-06-26T20:12:28Z</time>
      </trkpt>
      <trkpt lat="49.2044" lon="6.84343">
        <ele>199.1</ele>
        <time>2020-06-26T20:12:29Z</time>
      </trkpt>
      <trkpt lat="49.2044" lon="6.84343">
        <ele>199.1</ele>
        <time>2020-06-26T20:12:30Z</time>
      </trkpt>
      <trkpt lat="49.20439" lon="6.84343">
        <ele>199.1</ele>
        <time>2020-06-26T20:12:31Z</time>
      </trkpt>
      <trkpt lat="49.20439" lon="6.84343">
        <ele>199.1</ele>
        <time>2020-06-26T20:12:32Z</time>
      </trkpt>
      <trkpt lat="49.20439" lon="6.84344">
        <ele>199.1</ele>
        <time>2020-06-26T20:12:33Z</time>
      </trkpt>
      <trkpt lat="49.20439" lon="6.84344">
        <ele>199.1</ele>
        <time>2020-06-26T20:12:34Z</time>
      </trkpt>
      <trkpt lat="49.20439" lon="6.84345">
        <ele>199.1</ele>
        <time>2020-06-26T20:12:35Z</time>
      </trkpt>
      <trkpt lat="49.20439" lon="6.84346">
        <ele>199.1</ele>
        <time>2020-06-26T20:12:36Z</time>
      </trkpt>
      <trkpt lat="49.20439" lon="6.84346">
        <ele>199.1</ele>
        <time>2020-06-26T20:12:37Z</time>
      </trkpt>
      <trkpt lat="49.20439" lon="6.84346">
        <ele>199.1</ele>
        <time>2020-06-26T20:12:38Z</time>
      </trkpt>
      <trkpt lat="49.20439" lon="6.84346">
        <ele>199.1</ele>
        <time>2020-06-26T20:12:39Z</time>
      </trkpt>
      <trkpt lat="49.20439" lon="6.84346">
        <ele>199.1</ele>
        <time>2020-06-26T20:12:40Z</time>
      </trkpt>
      <trkpt lat="49.20439" lon="6.84346">
        <ele>199.1</ele>
        <time>2020-06-26T20:12:41Z</time>
      </trkpt>
      <trkpt lat="49.20439" lon="6.84346">
        <ele>199.1</ele>
        <time>2020-06-26T20:12:42Z</time>
      </trkpt>
      <trkpt lat="49.20439" lon="6.84346">
        <ele>199.1</ele>
        <time>2020-06-26T20:12:43Z</time>
      </trkpt>
      <trkpt lat="49.20439" lon="6.84347">
        <ele>199.1</ele>
        <time>2020-06-26T20:12:44Z</time>
      </trkpt>
      <trkpt lat="49.20439" lon="6.84347">
        <ele>199.1</ele>
        <time>2020-06-26T20:12:45Z</time>
      </trkpt>
      <trkpt lat="49.20439" lon="6.84347">
        <ele>199.1</ele>
        <time>2020-06-26T20:12:46Z</time>
      </trkpt>
      <trkpt lat="49.20439" lon="6.84347">
        <ele>199.1</ele>
        <time>2020-06-26T20:12:47Z</time>
      </trkpt>
      <trkpt lat="49.2044" lon="6.84348">
        <ele>199.1</ele>
        <time>2020-06-26T20:12:48Z</time>
      </trkpt>
      <trkpt lat="49.2044" lon="6.84348">
        <ele>199.1</ele>
        <time>2020-06-26T20:12:49Z</time>
      </trkpt>
      <trkpt lat="49.2044" lon="6.84349">
        <ele>199.1</ele>
        <time>2020-06-26T20:12:50Z</time>
      </trkpt>
      <trkpt lat="49.2044" lon="6.84349">
        <ele>199.1</ele>
        <time>2020-06-26T20:12:51Z</time>
      </trkpt>
      <trkpt lat="49.2044" lon="6.8435">
        <ele>199.1</ele>
        <time>2020-06-26T20:12:52Z</time>
      </trkpt>
      <trkpt lat="49.20441" lon="6.8435">
        <ele>199.1</ele>
        <time>2020-06-26T20:12:53Z</time>
      </trkpt>
      <trkpt lat="49.20441" lon="6.8435">
        <ele>199.1</ele>
        <time>2020-06-26T20:12:54Z</time>
      </trkpt>
      <trkpt lat="49.20441" lon="6.8435">
        <ele>199.1</ele>
        <time>2020-06-26T20:12:55Z</time>
      </trkpt>
      <trkpt lat="49.20441" lon="6.8435">
        <ele>199.1</ele>
        <time>2020-06-26T20:12:56Z</time>
      </trkpt>
      <trkpt lat="49.20442" lon="6.8435">
        <ele>199.1</ele>
        <time>2020-06-26T20:12:57Z</time>
      </trkpt>
      <trkpt lat="49.20443" lon="6.8435">
        <ele>199.1</ele>
        <time>2020-06-26T20:12:58Z</time>
      </trkpt>
      <trkpt lat="49.20444" lon="6.8435">
        <ele>199.1</ele>
        <time>2020-06-26T20:12:59Z</time>
      </trkpt>
      <trkpt lat="49.20444" lon="6.84351">
        <ele>199.1</ele>
        <time>2020-06-26T20:13:00Z</time>
      </trkpt>
      <trkpt lat="49.20445" lon="6.84351">
        <ele>199.1</ele>
        <time>2020-06-26T20:13:01Z</time>
      </trkpt>
      <trkpt lat="49.20445" lon="6.84351">
        <ele>199.1</ele>
        <time>2020-06-26T20:13:02Z</time>
      </trkpt>
      <trkpt lat="49.20446" lon="6.84352">
        <ele>199.1</ele>
        <time>2020-06-26T20:13:03Z</time>
      </trkpt>
      <trkpt lat="49.20446" lon="6.84352">
        <ele>199.1</ele>
        <time>2020-06-26T20:13:04Z</time>
      </trkpt>
      <trkpt lat="49.20447" lon="6.84352">
        <ele>199.1</ele>
        <time>2020-06-26T20:13:05Z</time>
      </trkpt>
      <trkpt lat="49.20448" lon="6.84353">
        <ele>199.1</ele>
        <time>2020-06-26T20:13:06Z</time>
      </trkpt>
      <trkpt lat="49.20448" lon="6.84353">
        <ele>199.1</ele>
        <time>2020-06-26T20:13:07Z</time>
      </trkpt>
      <trkpt lat="49.20449" lon="6.84353">
        <ele>199.1</ele>
        <time>2020-06-26T20:13:08Z</time>
      </trkpt>
      <trkpt lat="49.20449" lon="6.84354">
        <ele>199.1</ele>
        <time>2020-06-26T20:13:09Z</time>
      </trkpt>
      <trkpt lat="49.2045" lon="6.84354">
        <ele>199.1</ele>
        <time>2020-06-26T20:13:10Z</time>
      </trkpt>
      <trkpt lat="49.20451" lon="6.84354">
        <ele>199.1</ele>
        <time>2020-06-26T20:13:11Z</time>
      </trkpt>
      <trkpt lat="49.20451" lon="6.84355">
        <ele>199.1</ele>
        <time>2020-06-26T20:13:12Z</time>
      </trkpt>
      <trkpt lat="49.20452" lon="6.84355">
        <ele>199.1</ele>
        <time>2020-06-26T20:16:07Z</time>
      </trkpt>
      <trkpt lat="49.20452" lon="6.84355">
        <ele>199.1</ele>
        <time>2020-06-26T20:16:08Z</time>
      </trkpt>
      <trkpt lat="49.20456" lon="6.84353">
        <ele>198.8</ele>
        <time>2020-06-26T20:16:09Z</time>
      </trkpt>
      <trkpt lat="49.2046" lon="6.84352">
        <ele>198.6</ele>
        <time>2020-06-26T20:16:10Z</time>
      </trkpt>
      <trkpt lat="49.20461" lon="6.84351">
        <ele>198.5</ele>
        <time>2020-06-26T20:16:11Z</time>
      </trkpt>
      <trkpt lat="49.20464" lon="6.8435">
        <ele>198.3</ele>
        <time>2020-06-26T20:16:12Z</time>
      </trkpt>
      <trkpt lat="49.20467" lon="6.84348">
        <ele>198.1</ele>
        <time>2020-06-26T20:16:13Z</time>
      </trkpt>
      <trkpt lat="49.20471" lon="6.84347">
        <ele>197.7</ele>
        <time>2020-06-26T20:16:14Z</time>
      </trkpt>
      <trkpt lat="49.20476" lon="6.84345">
        <ele>197.3</ele>
        <time>2020-06-26T20:16:15Z</time>
      </trkpt>
      <trkpt lat="49.20481" lon="6.84343">
        <ele>196.8</ele>
        <time>2020-06-26T20:16:16Z</time>
      </trkpt>
      <trkpt lat="49.20486" lon="6.84341">
        <ele>196.3</ele>
        <time>2020-06-26T20:16:17Z</time>
      </trkpt>
      <trkpt lat="49.20493" lon="6.84338">
        <ele>195.7</ele>
        <time>2020-06-26T20:16:18Z</time>
      </trkpt>
      <trkpt lat="49.20498" lon="6.84335">
        <ele>195.2</ele>
        <time>2020-06-26T20:16:19Z</time>
      </trkpt>
      <trkpt lat="49.20502" lon="6.8433">
        <ele>194.8</ele>
        <time>2020-06-26T20:16:20Z</time>
      </trkpt>
      <trkpt lat="49.20507" lon="6.84328">
        <ele>194.5</ele>
        <time>2020-06-26T20:16:21Z</time>
      </trkpt>
      <trkpt lat="49.20511" lon="6.84324">
        <ele>194.2</ele>
        <time>2020-06-26T20:16:22Z</time>
      </trkpt>
      <trkpt lat="49.20517" lon="6.8432">
        <ele>193.9</ele>
        <time>2020-06-26T20:16:23Z</time>
      </trkpt>
      <trkpt lat="49.20521" lon="6.84315">
        <ele>193.6</ele>
        <time>2020-06-26T20:16:24Z</time>
      </trkpt>
      <trkpt lat="49.20525" lon="6.84312">
        <ele>193.5</ele>
        <time>2020-06-26T20:16:25Z</time>
      </trkpt>
      <trkpt lat="49.20528" lon="6.84306">
        <ele>193.3</ele>
        <time>2020-06-26T20:16:26Z</time>
      </trkpt>
      <trkpt lat="49.2053" lon="6.84303">
        <ele>193.3</ele>
        <time>2020-06-26T20:16:27Z</time>
      </trkpt>
      <trkpt lat="49.20533" lon="6.843">
        <ele>193.2</ele>
        <time>2020-06-26T20:16:28Z</time>
      </trkpt>
      <trkpt lat="49.20534" lon="6.84299">
        <ele>193.2</ele>
        <time>2020-06-26T20:16:29Z</time>
      </trkpt>
      <trkpt lat="49.20535" lon="6.84294">
        <ele>193.2</ele>
        <time>2020-06-26T20:16:30Z</time>
      </trkpt>
      <trkpt lat="49.20536" lon="6.84292">
        <ele>193.2</ele>
        <time>2020-06-26T20:16:31Z</time>
      </trkpt>
      <trkpt lat="49.20537" lon="6.84291">
        <ele>193.2</ele>
        <time>2020-06-26T20:16:32Z</time>
      </trkpt>
      <trkpt lat="49.20539" lon="6.84294">
        <ele>193.1</ele>
        <time>2020-06-26T20:16:33Z</time>
      </trkpt>
      <trkpt lat="49.2054" lon="6.84296">
        <ele>193.1</ele>
        <time>2020-06-26T20:16:34Z</time>
      </trkpt>
      <trkpt lat="49.20542" lon="6.84298">
        <ele>193.1</ele>
        <time>2020-06-26T20:16:35Z</time>
      </trkpt>
      <trkpt lat="49.20546" lon="6.843">
        <ele>193.1</ele>
        <time>2020-06-26T20:16:36Z</time>
      </trkpt>
      <trkpt lat="49.20549" lon="6.84305">
        <ele>193.1</ele>
        <time>2020-06-26T20:16:37Z</time>
      </trkpt>
      <trkpt lat="49.20552" lon="6.84308">
        <ele>193.1</ele>
        <time>2020-06-26T20:16:38Z</time>
      </trkpt>
      <trkpt lat="49.20556" lon="6.84312">
        <ele>193.1</ele>
        <time>2020-06-26T20:16:39Z</time>
      </trkpt>
      <trkpt lat="49.20559" lon="6.84318">
        <ele>193.2</ele>
        <time>2020-06-26T20:16:40Z</time>
      </trkpt>
      <trkpt lat="49.20562" lon="6.84323">
        <ele>193.2</ele>
        <time>2020-06-26T20:16:41Z</time>
      </trkpt>
      <trkpt lat="49.20567" lon="6.84324">
        <ele>193.2</ele>
        <time>2020-06-26T20:16:42Z</time>
      </trkpt>
      <trkpt lat="49.2057" lon="6.84328">
        <ele>193.2</ele>
        <time>2020-06-26T20:16:43Z</time>
      </trkpt>
      <trkpt lat="49.20572" lon="6.8433">
        <ele>193.2</ele>
        <time>2020-06-26T20:16:44Z</time>
      </trkpt>
      <trkpt lat="49.20576" lon="6.84333">
        <ele>193.2</ele>
        <time>2020-06-26T20:16:45Z</time>
      </trkpt>
      <trkpt lat="49.20578" lon="6.84335">
        <ele>193.2</ele>
        <time>2020-06-26T20:16:46Z</time>
      </trkpt>
      <trkpt lat="49.20582" lon="6.84337">
        <ele>193.1</ele>
        <time>2020-06-26T20:16:47Z</time>
      </trkpt>
      <trkpt lat="49.20583" lon="6.84339">
        <ele>193.1</ele>
        <time>2020-06-26T20:16:48Z</time>
      </trkpt>
      <trkpt lat="49.20584" lon="6.84343">
        <ele>193.1</ele>
        <time>2020-06-26T20:16:49Z</time>
      </trkpt>
      <trkpt lat="49.20585" lon="6.84343">
        <ele>193.1</ele>
        <time>2020-06-26T20:16:50Z</time>
      </trkpt>
      <trkpt lat="49.20587" lon="6.84343">
        <ele>193</ele>
        <time>2020-06-26T20:16:51Z</time>
      </trkpt>
      <trkpt lat="49.20589" lon="6.84342">
        <ele>193</ele>
        <time>2020-06-26T20:16:52Z</time>
      </trkpt>
      <trkpt lat="49.20589" lon="6.84341">
        <ele>193</ele>
        <time>2020-06-26T20:16:53Z</time>
      </trkpt>
      <trkpt lat="49.20589" lon="6.84339">
        <ele>193</ele>
        <time>2020-06-26T20:16:54Z</time>
      </trkpt>
      <trkpt lat="49.20589" lon="6.84336">
        <ele>193</ele>
        <time>2020-06-26T20:16:55Z</time>
      </trkpt>
      <trkpt lat="49.20589" lon="6.84335">
        <ele>193</ele>
        <time>2020-06-26T20:16:56Z</time>
      </trkpt>
      <trkpt lat="49.2059" lon="6.84334">
        <ele>193</ele>
        <time>2020-06-26T20:16:57Z</time>
      </trkpt>
      <trkpt lat="49.2059" lon="6.84332">
        <ele>193</ele>
        <time>2020-06-26T20:16:58Z</time>
      </trkpt>
      <trkpt lat="49.20591" lon="6.8433">
        <ele>193</ele>
        <time>2020-06-26T20:16:59Z</time>
      </trkpt>
      <trkpt lat="49.2059" lon="6.8433">
        <ele>193</ele>
        <time>2020-06-26T20:17:00Z</time>
      </trkpt>
      <trkpt lat="49.20591" lon="6.84327">
        <ele>193</ele>
        <time>2020-06-26T20:17:01Z</time>
      </trkpt>
      <trkpt lat="49.20592" lon="6.84326">
        <ele>193</ele>
        <time>2020-06-26T20:17:02Z</time>
      </trkpt>
      <trkpt lat="49.20592" lon="6.84324">
        <ele>193</ele>
        <time>2020-06-26T20:17:03Z</time>
      </trkpt>
      <trkpt lat="49.20593" lon="6.84323">
        <ele>193</ele>
        <time>2020-06-26T20:17:04Z</time>
      </trkpt>
      <trkpt lat="49.20594" lon="6.84321">
        <ele>193</ele>
        <time>2020-06-26T20:17:05Z</time>
      </trkpt>
      <trkpt lat="49.20595" lon="6.8432">
        <ele>193</ele>
        <time>2020-06-26T20:17:06Z</time>
      </trkpt>
      <trkpt lat="49.20595" lon="6.84318">
        <ele>193</ele>
        <time>2020-06-26T20:17:07Z</time>
      </trkpt>
      <trkpt lat="49.20596" lon="6.84317">
        <ele>193</ele>
        <time>2020-06-26T20:17:08Z</time>
      </trkpt>
      <trkpt lat="49.20597" lon="6.84315">
        <ele>193</ele>
        <time>2020-06-26T20:17:09Z</time>
      </trkpt>
      <trkpt lat="49.20598" lon="6.84314">
        <ele>193</ele>
        <time>2020-06-26T20:17:10Z</time>
      </trkpt>
      <trkpt lat="49.20599" lon="6.84312">
        <ele>193</ele>
        <time>2020-06-26T20:17:36Z</time>
      </trkpt>
      <trkpt lat="49.20599" lon="6.84311">
        <ele>193</ele>
        <time>2020-06-26T20:17:37Z</time>
      </trkpt>
      <trkpt lat="49.20603" lon="6.84306">
        <ele>193</ele>
        <time>2020-06-26T20:17:38Z</time>
      </trkpt>
      <trkpt lat="49.20606" lon="6.84301">
        <ele>193</ele>
        <time>2020-06-26T20:17:39Z</time>
      </trkpt>
      <trkpt lat="49.20609" lon="6.84295">
        <ele>192.9</ele>
        <time>2020-06-26T20:17:40Z</time>
      </trkpt>
      <trkpt lat="49.20611" lon="6.8429">
        <ele>192.9</ele>
        <time>2020-06-26T20:17:41Z</time>
      </trkpt>
      <trkpt lat="49.20614" lon="6.84286">
        <ele>192.8</ele>
        <time>2020-06-26T20:17:42Z</time>
      </trkpt>
      <trkpt lat="49.20616" lon="6.84282">
        <ele>192.8</ele>
        <time>2020-06-26T20:17:43Z</time>
      </trkpt>
      <trkpt lat="49.20618" lon="6.84278">
        <ele>192.7</ele>
        <time>2020-06-26T20:17:44Z</time>
      </trkpt>
      <trkpt lat="49.20621" lon="6.84275">
        <ele>192.7</ele>
        <time>2020-06-26T20:17:45Z</time>
      </trkpt>
      <trkpt lat="49.20623" lon="6.84271">
        <ele>192.6</ele>
        <time>2020-06-26T20:17:46Z</time>
      </trkpt>
      <trkpt lat="49.20626" lon="6.84268">
        <ele>192.6</ele>
        <time>2020-06-26T20:17:47Z</time>
      </trkpt>
      <trkpt lat="49.20627" lon="6.84267">
        <ele>192.6</ele>
        <time>2020-06-26T20:17:48Z</time>
      </trkpt>
      <trkpt lat="49.20629" lon="6.84268">
        <ele>192.6</ele>
        <time>2020-06-26T20:17:49Z</time>
      </trkpt>
      <trkpt lat="49.2063" lon="6.84267">
        <ele>192.5</ele>
        <time>2020-06-26T20:17:50Z</time>
      </trkpt>
      <trkpt lat="49.2063" lon="6.84269">
        <ele>192.5</ele>
        <time>2020-06-26T20:17:51Z</time>
      </trkpt>
      <trkpt lat="49.20631" lon="6.84269">
        <ele>192.5</ele>
        <time>2020-06-26T20:17:52Z</time>
      </trkpt>
      <trkpt lat="49.20631" lon="6.84268">
        <ele>192.5</ele>
        <time>2020-06-26T20:17:53Z</time>
      </trkpt>
      <trkpt lat="49.20631" lon="6.84267">
        <ele>192.5</ele>
        <time>2020-06-26T20:17:54Z</time>
      </trkpt>
      <trkpt lat="49.20631" lon="6.84267">
        <ele>192.5</ele>
        <time>2020-06-26T20:17:55Z</time>
      </trkpt>
      <trkpt lat="49.20631" lon="6.84267">
        <ele>192.5</ele>
        <time>2020-06-26T20:17:56Z</time>
      </trkpt>
      <trkpt lat="49.20631" lon="6.84267">
        <ele>192.5</ele>
        <time>2020-06-26T20:17:57Z</time>
      </trkpt>
      <trkpt lat="49.20632" lon="6.84265">
        <ele>192.4</ele>
        <time>2020-06-26T20:17:58Z</time>
      </trkpt>
      <trkpt lat="49.20633" lon="6.84263">
        <ele>192.4</ele>
        <time>2020-06-26T20:17:59Z</time>
      </trkpt>
      <trkpt lat="49.20634" lon="6.84259">
        <ele>192.3</ele>
        <time>2020-06-26T20:18:00Z</time>
      </trkpt>
      <trkpt lat="49.20635" lon="6.84258">
        <ele>192.3</ele>
        <time>2020-06-26T20:18:01Z</time>
      </trkpt>
      <trkpt lat="49.20637" lon="6.84254">
        <ele>192.2</ele>
        <time>2020-06-26T20:18:02Z</time>
      </trkpt>
      <trkpt lat="49.20638" lon="6.84253">
        <ele>192.2</ele>
        <time>2020-06-26T20:18:03Z</time>
      </trkpt>
      <trkpt lat="49.2064" lon="6.84248">
        <ele>192.1</ele>
        <time>2020-06-26T20:18:04Z</time>
      </trkpt>
      <trkpt lat="49.20641" lon="6.84246">
        <ele>192</ele>
        <time>2020-06-26T20:18:05Z</time>
      </trkpt>
      <trkpt lat="49.20644" lon="6.84242">
        <ele>191.9</ele>
        <time>2020-06-26T20:18:06Z</time>
      </trkpt>
      <trkpt lat="49.20647" lon="6.84237">
        <ele>191.8</ele>
        <time>2020-06-26T20:18:07Z</time>
      </trkpt>
      <trkpt lat="49.20651" lon="6.84233">
        <ele>191.7</ele>
        <time>2020-06-26T20:18:08Z</time>
      </trkpt>
      <trkpt lat="49.20655" lon="6.84229">
        <ele>191.6</ele>
        <time>2020-06-26T20:18:09Z</time>
      </trkpt>
      <trkpt lat="49.20659" lon="6.84224">
        <ele>191.5</ele>
        <time>2020-06-26T20:18:10Z</time>
      </trkpt>
      <trkpt lat="49.20662" lon="6.84219">
        <ele>191.4</ele>
        <time>2020-06-26T20:18:11Z</time>
      </trkpt>
      <trkpt lat="49.20665" lon="6.84216">
        <ele>191.3</ele>
        <time>2020-06-26T20:18:12Z</time>
      </trkpt>
      <trkpt lat="49.20669" lon="6.84213">
        <ele>191.3</ele>
        <time>2020-06-26T20:18:13Z</time>
      </trkpt>
      <trkpt lat="49.20674" lon="6.84211">
        <ele>191.3</ele>
        <time>2020-06-26T20:18:14Z</time>
      </trkpt>
      <trkpt lat="49.20676" lon="6.84207">
        <ele>191.3</ele>
        <time>2020-06-26T20:18:15Z</time>
      </trkpt>
      <trkpt lat="49.20679" lon="6.84203">
        <ele>191.2</ele>
        <time>2020-06-26T20:18:16Z</time>
      </trkpt>
      <trkpt lat="49.20683" lon="6.84202">
        <ele>191.1</ele>
        <time>2020-06-26T20:18:17Z</time>
      </trkpt>
      <trkpt lat="49.20686" lon="6.84203">
        <ele>191.1</ele>
        <time>2020-06-26T20:18:18Z</time>
      </trkpt>
      <trkpt lat="49.20689" lon="6.84207">
        <ele>191.1</ele>
        <time>2020-06-26T20:18:19Z</time>
      </trkpt>
      <trkpt lat="49.2069" lon="6.84208">
        <ele>191.1</ele>
        <time>2020-06-26T20:18:20Z</time>
      </trkpt>
      <trkpt lat="49.20692" lon="6.84213">
        <ele>191.1</ele>
        <time>2020-06-26T20:18:21Z</time>
      </trkpt>
      <trkpt lat="49.20693" lon="6.84218">
        <ele>191</ele>
        <time>2020-06-26T20:18:22Z</time>
      </trkpt>
      <trkpt lat="49.20695" lon="6.84223">
        <ele>191</ele>
        <time>2020-06-26T20:18:23Z</time>
      </trkpt>
      <trkpt lat="49.20698" lon="6.84228">
        <ele>191</ele>
        <time>2020-06-26T20:18:24Z</time>
      </trkpt>
      <trkpt lat="49.207" lon="6.84233">
        <ele>191</ele>
        <time>2020-06-26T20:18:25Z</time>
      </trkpt>
      <trkpt lat="49.20702" lon="6.84238">
        <ele>191</ele>
        <time>2020-06-26T20:18:26Z</time>
      </trkpt>
      <trkpt lat="49.20703" lon="6.84242">
        <ele>191</ele>
        <time>2020-06-26T20:18:27Z</time>
      </trkpt>
      <trkpt lat="49.20704" lon="6.84248">
        <ele>191.1</ele>
        <time>2020-06-26T20:18:28Z</time>
      </trkpt>
      <trkpt lat="49.20705" lon="6.84252">
        <ele>191.1</ele>
        <time>2020-06-26T20:18:29Z</time>
      </trkpt>
      <trkpt lat="49.20708" lon="6.84258">
        <ele>191.2</ele>
        <time>2020-06-26T20:18:30Z</time>
      </trkpt>
      <trkpt lat="49.2071" lon="6.84264">
        <ele>191.2</ele>
        <time>2020-06-26T20:18:31Z</time>
      </trkpt>
      <trkpt lat="49.20713" lon="6.84271">
        <ele>191.2</ele>
        <time>2020-06-26T20:18:32Z</time>
      </trkpt>
      <trkpt lat="49.20715" lon="6.84275">
        <ele>191.3</ele>
        <time>2020-06-26T20:18:33Z</time>
      </trkpt>
      <trkpt lat="49.20717" lon="6.8428">
        <ele>191.3</ele>
        <time>2020-06-26T20:18:34Z</time>
      </trkpt>
      <trkpt lat="49.20719" lon="6.84284">
        <ele>191.4</ele>
        <time>2020-06-26T20:18:35Z</time>
      </trkpt>
      <trkpt lat="49.20721" lon="6.84287">
        <ele>191.4</ele>
        <time>2020-06-26T20:18:36Z</time>
      </trkpt>
      <trkpt lat="49.20723" lon="6.84291">
        <ele>191.5</ele>
        <time>2020-06-26T20:18:37Z</time>
      </trkpt>
      <trkpt lat="49.20724" lon="6.84292">
        <ele>191.5</ele>
        <time>2020-06-26T20:18:38Z</time>
      </trkpt>
      <trkpt lat="49.20725" lon="6.84294">
        <ele>191.5</ele>
        <time>2020-06-26T20:18:39Z</time>
      </trkpt>
      <trkpt lat="49.20726" lon="6.84297">
        <ele>191.5</ele>
        <time>2020-06-26T20:18:40Z</time>
      </trkpt>
      <trkpt lat="49.20726" lon="6.84299">
        <ele>191.5</ele>
        <time>2020-06-26T20:18:41Z</time>
      </trkpt>
      <trkpt lat="49.20726" lon="6.84301">
        <ele>191.5</ele>
        <time>2020-06-26T20:18:42Z</time>
      </trkpt>
      <trkpt lat="49.20726" lon="6.84303">
        <ele>191.6</ele>
        <time>2020-06-26T20:18:43Z</time>
      </trkpt>
      <trkpt lat="49.20726" lon="6.84304">
        <ele>191.6</ele>
        <time>2020-06-26T20:18:44Z</time>
      </trkpt>
      <trkpt lat="49.20726" lon="6.84304">
        <ele>191.6</ele>
        <time>2020-06-26T20:18:45Z</time>
      </trkpt>
      <trkpt lat="49.20727" lon="6.84304">
        <ele>191.6</ele>
        <time>2020-06-26T20:18:46Z</time>
      </trkpt>
      <trkpt lat="49.20727" lon="6.84305">
        <ele>191.6</ele>
        <time>2020-06-26T20:18:47Z</time>
      </trkpt>
      <trkpt lat="49.20727" lon="6.84305">
        <ele>191.6</ele>
        <time>2020-06-26T20:18:48Z</time>
      </trkpt>
      <trkpt lat="49.20727" lon="6.84306">
        <ele>191.6</ele>
        <time>2020-06-26T20:18:49Z</time>
      </trkpt>
      <trkpt lat="49.20728" lon="6.84306">
        <ele>191.6</ele>
        <time>2020-06-26T20:18:50Z</time>
      </trkpt>
      <trkpt lat="49.20728" lon="6.84307">
        <ele>191.6</ele>
        <time>2020-06-26T20:18:51Z</time>
      </trkpt>
      <trkpt lat="49.20728" lon="6.84307">
        <ele>191.6</ele>
        <time>2020-06-26T20:18:52Z</time>
      </trkpt>
      <trkpt lat="49.20729" lon="6.84308">
        <ele>191.6</ele>
        <time>2020-06-26T20:18:53Z</time>
      </trkpt>
      <trkpt lat="49.20729" lon="6.84308">
        <ele>191.6</ele>
        <time>2020-06-26T20:18:54Z</time>
      </trkpt>
      <trkpt lat="49.20729" lon="6.84309">
        <ele>191.6</ele>
        <time>2020-06-26T20:18:55Z</time>
      </trkpt>
      <trkpt lat="49.2073" lon="6.84309">
        <ele>191.6</ele>
        <time>2020-06-26T20:18:56Z</time>
      </trkpt>
      <trkpt lat="49.2073" lon="6.8431">
        <ele>191.6</ele>
        <time>2020-06-26T20:18:57Z</time>
      </trkpt>
      <trkpt lat="49.2073" lon="6.8431">
        <ele>191.6</ele>
        <time>2020-06-26T20:18:58Z</time>
      </trkpt>
      <trkpt lat="49.20731" lon="6.84311">
        <ele>191.6</ele>
        <time>2020-06-26T20:18:59Z</time>
      </trkpt>
      <trkpt lat="49.20731" lon="6.84311">
        <ele>191.6</ele>
        <time>2020-06-26T20:19:00Z</time>
      </trkpt>
      <trkpt lat="49.20731" lon="6.84312">
        <ele>191.7</ele>
        <time>2020-06-26T20:19:01Z</time>
      </trkpt>
      <trkpt lat="49.20731" lon="6.84312">
        <ele>191.7</ele>
        <time>2020-06-26T20:19:02Z</time>
      </trkpt>
      <trkpt lat="49.20732" lon="6.84313">
        <ele>191.7</ele>
        <time>2020-06-26T20:19:17Z</time>
      </trkpt>
      <trkpt lat="49.20732" lon="6.84313">
        <ele>191.7</ele>
        <time>2020-06-26T20:19:18Z</time>
      </trkpt>
      <trkpt lat="49.20736" lon="6.8432">
        <ele>191.7</ele>
        <time>2020-06-26T20:19:19Z</time>
      </trkpt>
      <trkpt lat="49.20739" lon="6.84327">
        <ele>191.7</ele>
        <time>2020-06-26T20:19:20Z</time>
      </trkpt>
      <trkpt lat="49.20742" lon="6.84333">
        <ele>191.8</ele>
        <time>2020-06-26T20:19:21Z</time>
      </trkpt>
      <trkpt lat="49.20745" lon="6.8434">
        <ele>191.8</ele>
        <time>2020-06-26T20:19:22Z</time>
      </trkpt>
      <trkpt lat="49.20748" lon="6.84345">
        <ele>192.1</ele>
        <time>2020-06-26T20:19:23Z</time>
      </trkpt>
      <trkpt lat="49.20752" lon="6.84352">
        <ele>192.3</ele>
        <time>2020-06-26T20:19:24Z</time>
      </trkpt>
      <trkpt lat="49.20755" lon="6.84358">
        <ele>192.5</ele>
        <time>2020-06-26T20:19:25Z</time>
      </trkpt>
      <trkpt lat="49.20759" lon="6.84365">
        <ele>192.7</ele>
        <time>2020-06-26T20:19:26Z</time>
      </trkpt>
      <trkpt lat="49.20762" lon="6.84369">
        <ele>192.9</ele>
        <time>2020-06-26T20:19:27Z</time>
      </trkpt>
      <trkpt lat="49.20766" lon="6.84375">
        <ele>193.1</ele>
        <time>2020-06-26T20:19:28Z</time>
      </trkpt>
      <trkpt lat="49.2077" lon="6.8438">
        <ele>193.3</ele>
        <time>2020-06-26T20:19:29Z</time>
      </trkpt>
      <trkpt lat="49.20773" lon="6.84385">
        <ele>193.6</ele>
        <time>2020-06-26T20:19:30Z</time>
      </trkpt>
      <trkpt lat="49.20776" lon="6.84392">
        <ele>193.9</ele>
        <time>2020-06-26T20:19:31Z</time>
      </trkpt>
      <trkpt lat="49.20779" lon="6.84399">
        <ele>194.2</ele>
        <time>2020-06-26T20:19:32Z</time>
      </trkpt>
      <trkpt lat="49.20781" lon="6.84406">
        <ele>194.5</ele>
        <time>2020-06-26T20:19:33Z</time>
      </trkpt>
      <trkpt lat="49.20785" lon="6.84411">
        <ele>194.9</ele>
        <time>2020-06-26T20:19:34Z</time>
      </trkpt>
      <trkpt lat="49.20787" lon="6.84418">
        <ele>195.2</ele>
        <time>2020-06-26T20:19:35Z</time>
      </trkpt>
      <trkpt lat="49.20789" lon="6.84423">
        <ele>195.4</ele>
        <time>2020-06-26T20:19:36Z</time>
      </trkpt>
      <trkpt lat="49.2079" lon="6.84429">
        <ele>195.7</ele>
        <time>2020-06-26T20:19:37Z</time>
      </trkpt>
      <trkpt lat="49.2079" lon="6.84435">
        <ele>196</ele>
        <time>2020-06-26T20:19:38Z</time>
      </trkpt>
      <trkpt lat="49.20788" lon="6.8444">
        <ele>196.2</ele>
        <time>2020-06-26T20:19:39Z</time>
      </trkpt>
      <trkpt lat="49.20786" lon="6.84445">
        <ele>196.2</ele>
        <time>2020-06-26T20:19:40Z</time>
      </trkpt>
      <trkpt lat="49.20785" lon="6.8445">
        <ele>196.1</ele>
        <time>2020-06-26T20:19:41Z</time>
      </trkpt>
      <trkpt lat="49.20783" lon="6.84454">
        <ele>196.1</ele>
        <time>2020-06-26T20:19:42Z</time>
      </trkpt>
      <trkpt lat="49.20782" lon="6.84459">
        <ele>196</ele>
        <time>2020-06-26T20:19:43Z</time>
      </trkpt>
      <trkpt lat="49.20779" lon="6.84463">
        <ele>196</ele>
        <time>2020-06-26T20:19:44Z</time>
      </trkpt>
      <trkpt lat="49.20777" lon="6.84468">
        <ele>195.9</ele>
        <time>2020-06-26T20:19:45Z</time>
      </trkpt>
      <trkpt lat="49.20774" lon="6.84473">
        <ele>196</ele>
        <time>2020-06-26T20:19:46Z</time>
      </trkpt>
      <trkpt lat="49.20771" lon="6.84479">
        <ele>196</ele>
        <time>2020-06-26T20:19:47Z</time>
      </trkpt>
      <trkpt lat="49.20769" lon="6.84484">
        <ele>196</ele>
        <time>2020-06-26T20:19:48Z</time>
      </trkpt>
      <trkpt lat="49.20766" lon="6.84489">
        <ele>196.1</ele>
        <time>2020-06-26T20:19:49Z</time>
      </trkpt>
      <trkpt lat="49.20762" lon="6.84495">
        <ele>196.1</ele>
        <time>2020-06-26T20:19:50Z</time>
      </trkpt>
      <trkpt lat="49.20759" lon="6.84499">
        <ele>196.1</ele>
        <time>2020-06-26T20:19:51Z</time>
      </trkpt>
      <trkpt lat="49.20756" lon="6.84506">
        <ele>196.2</ele>
        <time>2020-06-26T20:19:52Z</time>
      </trkpt>
      <trkpt lat="49.20753" lon="6.84512">
        <ele>196.1</ele>
        <time>2020-06-26T20:19:53Z</time>
      </trkpt>
      <trkpt lat="49.20748" lon="6.84518">
        <ele>196.1</ele>
        <time>2020-06-26T20:19:54Z</time>
      </trkpt>
      <trkpt lat="49.20745" lon="6.84524">
        <ele>196</ele>
        <time>2020-06-26T20:19:55Z</time>
      </trkpt>
      <trkpt lat="49.20741" lon="6.84531">
        <ele>195.9</ele>
        <time>2020-06-26T20:19:56Z</time>
      </trkpt>
      <trkpt lat="49.20737" lon="6.84538">
        <ele>195.8</ele>
        <time>2020-06-26T20:19:57Z</time>
      </trkpt>
      <trkpt lat="49.20732" lon="6.84544">
        <ele>195.8</ele>
        <time>2020-06-26T20:19:58Z</time>
      </trkpt>
      <trkpt lat="49.20729" lon="6.8455">
        <ele>195.7</ele>
        <time>2020-06-26T20:19:59Z</time>
      </trkpt>
      <trkpt lat="49.20725" lon="6.84557">
        <ele>195.7</ele>
        <time>2020-06-26T20:20:00Z</time>
      </trkpt>
      <trkpt lat="49.20721" lon="6.84564">
        <ele>195.7</ele>
        <time>2020-06-26T20:20:01Z</time>
      </trkpt>
      <trkpt lat="49.20717" lon="6.8457">
        <ele>195.7</ele>
        <time>2020-06-26T20:20:02Z</time>
      </trkpt>
      <trkpt lat="49.20714" lon="6.84576">
        <ele>195.8</ele>
        <time>2020-06-26T20:20:03Z</time>
      </trkpt>
      <trkpt lat="49.20712" lon="6.84583">
        <ele>195.8</ele>
        <time>2020-06-26T20:20:04Z</time>
      </trkpt>
      <trkpt lat="49.20709" lon="6.84588">
        <ele>195.9</ele>
        <time>2020-06-26T20:20:05Z</time>
      </trkpt>
      <trkpt lat="49.20706" lon="6.84593">
        <ele>195.9</ele>
        <time>2020-06-26T20:20:06Z</time>
      </trkpt>
      <trkpt lat="49.20703" lon="6.846">
        <ele>196</ele>
        <time>2020-06-26T20:20:07Z</time>
      </trkpt>
      <trkpt lat="49.207" lon="6.84606">
        <ele>196</ele>
        <time>2020-06-26T20:20:08Z</time>
      </trkpt>
      <trkpt lat="49.20697" lon="6.84612">
        <ele>196.1</ele>
        <time>2020-06-26T20:20:09Z</time>
      </trkpt>
      <trkpt lat="49.20695" lon="6.84618">
        <ele>196.1</ele>
        <time>2020-06-26T20:20:10Z</time>
      </trkpt>
      <trkpt lat="49.20693" lon="6.84624">
        <ele>196.2</ele>
        <time>2020-06-26T20:20:11Z</time>
      </trkpt>
      <trkpt lat="49.2069" lon="6.84629">
        <ele>196.2</ele>
        <time>2020-06-26T20:20:12Z</time>
      </trkpt>
      <trkpt lat="49.20687" lon="6.84635">
        <ele>196.3</ele>
        <time>2020-06-26T20:20:13Z</time>
      </trkpt>
      <trkpt lat="49.20685" lon="6.84641">
        <ele>196.3</ele>
        <time>2020-06-26T20:20:14Z</time>
      </trkpt>
      <trkpt lat="49.20682" lon="6.84648">
        <ele>196.4</ele>
        <time>2020-06-26T20:20:15Z</time>
      </trkpt>
      <trkpt lat="49.20678" lon="6.84654">
        <ele>196.5</ele>
        <time>2020-06-26T20:20:16Z</time>
      </trkpt>
      <trkpt lat="49.20674" lon="6.84659">
        <ele>196.5</ele>
        <time>2020-06-26T20:20:17Z</time>
      </trkpt>
      <trkpt lat="49.20672" lon="6.84665">
        <ele>196.6</ele>
        <time>2020-06-26T20:20:18Z</time>
      </trkpt>
      <trkpt lat="49.2067" lon="6.84671">
        <ele>196.7</ele>
        <time>2020-06-26T20:20:19Z</time>
      </trkpt>
      <trkpt lat="49.20668" lon="6.84677">
        <ele>196.7</ele>
        <time>2020-06-26T20:20:20Z</time>
      </trkpt>
      <trkpt lat="49.20666" lon="6.84683">
        <ele>196.8</ele>
        <time>2020-06-26T20:20:21Z</time>
      </trkpt>
      <trkpt lat="49.20664" lon="6.84688">
        <ele>196.8</ele>
        <time>2020-06-26T20:20:22Z</time>
      </trkpt>
      <trkpt lat="49.20662" lon="6.84694">
        <ele>196.9</ele>
        <time>2020-06-26T20:20:23Z</time>
      </trkpt>
      <trkpt lat="49.2066" lon="6.84698">
        <ele>196.9</ele>
        <time>2020-06-26T20:20:24Z</time>
      </trkpt>
      <trkpt lat="49.20658" lon="6.84702">
        <ele>197</ele>
        <time>2020-06-26T20:20:25Z</time>
      </trkpt>
      <trkpt lat="49.20655" lon="6.84707">
        <ele>197</ele>
        <time>2020-06-26T20:20:26Z</time>
      </trkpt>
      <trkpt lat="49.20653" lon="6.84713">
        <ele>197.1</ele>
        <time>2020-06-26T20:20:27Z</time>
      </trkpt>
      <trkpt lat="49.20651" lon="6.84717">
        <ele>197.2</ele>
        <time>2020-06-26T20:20:28Z</time>
      </trkpt>
      <trkpt lat="49.20648" lon="6.84722">
        <ele>197.2</ele>
        <time>2020-06-26T20:20:29Z</time>
      </trkpt>
      <trkpt lat="49.20645" lon="6.84728">
        <ele>197.3</ele>
        <time>2020-06-26T20:20:30Z</time>
      </trkpt>
      <trkpt lat="49.20642" lon="6.84734">
        <ele>197.4</ele>
        <time>2020-06-26T20:20:31Z</time>
      </trkpt>
      <trkpt lat="49.20639" lon="6.8474">
        <ele>197.5</ele>
        <time>2020-06-26T20:20:32Z</time>
      </trkpt>
      <trkpt lat="49.20636" lon="6.84746">
        <ele>197.6</ele>
        <time>2020-06-26T20:20:33Z</time>
      </trkpt>
      <trkpt lat="49.20634" lon="6.8475">
        <ele>197.7</ele>
        <time>2020-06-26T20:20:34Z</time>
      </trkpt>
      <trkpt lat="49.20631" lon="6.84755">
        <ele>197.8</ele>
        <time>2020-06-26T20:20:35Z</time>
      </trkpt>
      <trkpt lat="49.20629" lon="6.84759">
        <ele>198</ele>
        <time>2020-06-26T20:20:36Z</time>
      </trkpt>
      <trkpt lat="49.20628" lon="6.84763">
        <ele>198.1</ele>
        <time>2020-06-26T20:20:37Z</time>
      </trkpt>
      <trkpt lat="49.20624" lon="6.84767">
        <ele>198.2</ele>
        <time>2020-06-26T20:20:38Z</time>
      </trkpt>
      <trkpt lat="49.20621" lon="6.84771">
        <ele>198.3</ele>
        <time>2020-06-26T20:20:39Z</time>
      </trkpt>
      <trkpt lat="49.20618" lon="6.84776">
        <ele>198.5</ele>
        <time>2020-06-26T20:20:40Z</time>
      </trkpt>
      <trkpt lat="49.20615" lon="6.84782">
        <ele>198.6</ele>
        <time>2020-06-26T20:20:41Z</time>
      </trkpt>
      <trkpt lat="49.20613" lon="6.84787">
        <ele>198.8</ele>
        <time>2020-06-26T20:20:42Z</time>
      </trkpt>
      <trkpt lat="49.2061" lon="6.84792">
        <ele>198.9</ele>
        <time>2020-06-26T20:20:43Z</time>
      </trkpt>
      <trkpt lat="49.20607" lon="6.84797">
        <ele>199</ele>
        <time>2020-06-26T20:20:44Z</time>
      </trkpt>
      <trkpt lat="49.20604" lon="6.84801">
        <ele>199.2</ele>
        <time>2020-06-26T20:20:45Z</time>
      </trkpt>
      <trkpt lat="49.20601" lon="6.84804">
        <ele>199.3</ele>
        <time>2020-06-26T20:20:46Z</time>
      </trkpt>
      <trkpt lat="49.20599" lon="6.84808">
        <ele>199.4</ele>
        <time>2020-06-26T20:20:47Z</time>
      </trkpt>
      <trkpt lat="49.20598" lon="6.84813">
        <ele>199.5</ele>
        <time>2020-06-26T20:20:48Z</time>
      </trkpt>
      <trkpt lat="49.20596" lon="6.84817">
        <ele>199.6</ele>
        <time>2020-06-26T20:20:49Z</time>
      </trkpt>
      <trkpt lat="49.20594" lon="6.84821">
        <ele>199.7</ele>
        <time>2020-06-26T20:20:50Z</time>
      </trkpt>
      <trkpt lat="49.20592" lon="6.84825">
        <ele>199.8</ele>
        <time>2020-06-26T20:20:51Z</time>
      </trkpt>
      <trkpt lat="49.2059" lon="6.84829">
        <ele>199.9</ele>
        <time>2020-06-26T20:20:52Z</time>
      </trkpt>
      <trkpt lat="49.20588" lon="6.84833">
        <ele>200</ele>
        <time>2020-06-26T20:20:53Z</time>
      </trkpt>
      <trkpt lat="49.20587" lon="6.84838">
        <ele>200.1</ele>
        <time>2020-06-26T20:20:54Z</time>
      </trkpt>
      <trkpt lat="49.20585" lon="6.84842">
        <ele>200.2</ele>
        <time>2020-06-26T20:20:55Z</time>
      </trkpt>
      <trkpt lat="49.20583" lon="6.84848">
        <ele>200.3</ele>
        <time>2020-06-26T20:20:56Z</time>
      </trkpt>
      <trkpt lat="49.20579" lon="6.84852">
        <ele>200.4</ele>
        <time>2020-06-26T20:20:57Z</time>
      </trkpt>
      <trkpt lat="49.20577" lon="6.84857">
        <ele>200.6</ele>
        <time>2020-06-26T20:20:58Z</time>
      </trkpt>
      <trkpt lat="49.20574" lon="6.84861">
        <ele>200.7</ele>
        <time>2020-06-26T20:20:59Z</time>
      </trkpt>
      <trkpt lat="49.20573" lon="6.84866">
        <ele>200.9</ele>
        <time>2020-06-26T20:21:00Z</time>
      </trkpt>
      <trkpt lat="49.2057" lon="6.84869">
        <ele>201</ele>
        <time>2020-06-26T20:21:01Z</time>
      </trkpt>
      <trkpt lat="49.20568" lon="6.84874">
        <ele>201.1</ele>
        <time>2020-06-26T20:21:02Z</time>
      </trkpt>
      <trkpt lat="49.20566" lon="6.84878">
        <ele>201.3</ele>
        <time>2020-06-26T20:21:03Z</time>
      </trkpt>
      <trkpt lat="49.20564" lon="6.84883">
        <ele>201.4</ele>
        <time>2020-06-26T20:21:04Z</time>
      </trkpt>
      <trkpt lat="49.20561" lon="6.84888">
        <ele>201.6</ele>
        <time>2020-06-26T20:21:05Z</time>
      </trkpt>
      <trkpt lat="49.20559" lon="6.84892">
        <ele>201.7</ele>
        <time>2020-06-26T20:21:06Z</time>
      </trkpt>
      <trkpt lat="49.20557" lon="6.84898">
        <ele>201.9</ele>
        <time>2020-06-26T20:21:07Z</time>
      </trkpt>
      <trkpt lat="49.20555" lon="6.84902">
        <ele>202</ele>
        <time>2020-06-26T20:21:08Z</time>
      </trkpt>
      <trkpt lat="49.20552" lon="6.84906">
        <ele>202.2</ele>
        <time>2020-06-26T20:21:09Z</time>
      </trkpt>
      <trkpt lat="49.20549" lon="6.8491">
        <ele>202.3</ele>
        <time>2020-06-26T20:21:10Z</time>
      </trkpt>
      <trkpt lat="49.20546" lon="6.84915">
        <ele>202.4</ele>
        <time>2020-06-26T20:21:11Z</time>
      </trkpt>
      <trkpt lat="49.20543" lon="6.84919">
        <ele>202.6</ele>
        <time>2020-06-26T20:21:12Z</time>
      </trkpt>
      <trkpt lat="49.20541" lon="6.84924">
        <ele>202.7</ele>
        <time>2020-06-26T20:21:13Z</time>
      </trkpt>
      <trkpt lat="49.20539" lon="6.84927">
        <ele>202.8</ele>
        <time>2020-06-26T20:21:14Z</time>
      </trkpt>
      <trkpt lat="49.20537" lon="6.84931">
        <ele>202.9</ele>
        <time>2020-06-26T20:21:15Z</time>
      </trkpt>
      <trkpt lat="49.20535" lon="6.84937">
        <ele>203</ele>
        <time>2020-06-26T20:21:16Z</time>
      </trkpt>
      <trkpt lat="49.20532" lon="6.84942">
        <ele>203.1</ele>
        <time>2020-06-26T20:21:17Z</time>
      </trkpt>
      <trkpt lat="49.20531" lon="6.84947">
        <ele>203.2</ele>
        <time>2020-06-26T20:21:18Z</time>
      </trkpt>
      <trkpt lat="49.20528" lon="6.84951">
        <ele>203.3</ele>
        <time>2020-06-26T20:21:19Z</time>
      </trkpt>
      <trkpt lat="49.20526" lon="6.84957">
        <ele>203.5</ele>
        <time>2020-06-26T20:21:20Z</time>
      </trkpt>
      <trkpt lat="49.20525" lon="6.8496">
        <ele>203.5</ele>
        <time>2020-06-26T20:21:21Z</time>
      </trkpt>
      <trkpt lat="49.20523" lon="6.84965">
        <ele>203.6</ele>
        <time>2020-06-26T20:21:22Z</time>
      </trkpt>
      <trkpt lat="49.20521" lon="6.8497">
        <ele>203.8</ele>
        <time>2020-06-26T20:21:23Z</time>
      </trkpt>
      <trkpt lat="49.20519" lon="6.84973">
        <ele>203.9</ele>
        <time>2020-06-26T20:21:24Z</time>
      </trkpt>
      <trkpt lat="49.20515" lon="6.84976">
        <ele>204.1</ele>
        <time>2020-06-26T20:21:25Z</time>
      </trkpt>
      <trkpt lat="49.20511" lon="6.84981">
        <ele>204.2</ele>
        <time>2020-06-26T20:21:26Z</time>
      </trkpt>
      <trkpt lat="49.20508" lon="6.84986">
        <ele>204.4</ele>
        <time>2020-06-26T20:21:27Z</time>
      </trkpt>
      <trkpt lat="49.20504" lon="6.84988">
        <ele>204.5</ele>
        <time>2020-06-26T20:21:28Z</time>
      </trkpt>
      <trkpt lat="49.20502" lon="6.84991">
        <ele>204.7</ele>
        <time>2020-06-26T20:21:29Z</time>
      </trkpt>
      <trkpt lat="49.20499" lon="6.84993">
        <ele>204.8</ele>
        <time>2020-06-26T20:21:30Z</time>
      </trkpt>
      <trkpt lat="49.20496" lon="6.84994">
        <ele>204.9</ele>
        <time>2020-06-26T20:21:31Z</time>
      </trkpt>
      <trkpt lat="49.20494" lon="6.84998">
        <ele>205</ele>
        <time>2020-06-26T20:21:32Z</time>
      </trkpt>
      <trkpt lat="49.2049" lon="6.85001">
        <ele>205.2</ele>
        <time>2020-06-26T20:21:33Z</time>
      </trkpt>
      <trkpt lat="49.20486" lon="6.85005">
        <ele>205.4</ele>
        <time>2020-06-26T20:21:34Z</time>
      </trkpt>
      <trkpt lat="49.20481" lon="6.85011">
        <ele>205.7</ele>
        <time>2020-06-26T20:21:35Z</time>
      </trkpt>
      <trkpt lat="49.20477" lon="6.85014">
        <ele>206</ele>
        <time>2020-06-26T20:21:36Z</time>
      </trkpt>
      <trkpt lat="49.20471" lon="6.8502">
        <ele>206.3</ele>
        <time>2020-06-26T20:21:37Z</time>
      </trkpt>
      <trkpt lat="49.20466" lon="6.85023">
        <ele>206.5</ele>
        <time>2020-06-26T20:21:38Z</time>
      </trkpt>
      <trkpt lat="49.20461" lon="6.85026">
        <ele>206.7</ele>
        <time>2020-06-26T20:21:39Z</time>
      </trkpt>
      <trkpt lat="49.20457" lon="6.85029">
        <ele>206.9</ele>
        <time>2020-06-26T20:21:40Z</time>
      </trkpt>
      <trkpt lat="49.20454" lon="6.85031">
        <ele>207</ele>
        <time>2020-06-26T20:21:41Z</time>
      </trkpt>
      <trkpt lat="49.2045" lon="6.85035">
        <ele>207.2</ele>
        <time>2020-06-26T20:21:42Z</time>
      </trkpt>
      <trkpt lat="49.20446" lon="6.85039">
        <ele>207.3</ele>
        <time>2020-06-26T20:21:43Z</time>
      </trkpt>
      <trkpt lat="49.20442" lon="6.85042">
        <ele>207.4</ele>
        <time>2020-06-26T20:21:44Z</time>
      </trkpt>
      <trkpt lat="49.20437" lon="6.85046">
        <ele>207.5</ele>
        <time>2020-06-26T20:21:45Z</time>
      </trkpt>
      <trkpt lat="49.20432" lon="6.8505">
        <ele>207.6</ele>
        <time>2020-06-26T20:21:46Z</time>
      </trkpt>
      <trkpt lat="49.20427" lon="6.85054">
        <ele>207.6</ele>
        <time>2020-06-26T20:21:47Z</time>
      </trkpt>
      <trkpt lat="49.20422" lon="6.85057">
        <ele>207.6</ele>
        <time>2020-06-26T20:21:48Z</time>
      </trkpt>
      <trkpt lat="49.20417" lon="6.85063">
        <ele>207.6</ele>
        <time>2020-06-26T20:21:49Z</time>
      </trkpt>
      <trkpt lat="49.20412" lon="6.85068">
        <ele>207.5</ele>
        <time>2020-06-26T20:21:50Z</time>
      </trkpt>
      <trkpt lat="49.20407" lon="6.85074">
        <ele>207.5</ele>
        <time>2020-06-26T20:21:51Z</time>
      </trkpt>
      <trkpt lat="49.20403" lon="6.85079">
        <ele>207.5</ele>
        <time>2020-06-26T20:21:52Z</time>
      </trkpt>
      <trkpt lat="49.20398" lon="6.85084">
        <ele>207.4</ele>
        <time>2020-06-26T20:21:53Z</time>
      </trkpt>
      <trkpt lat="49.20393" lon="6.85088">
        <ele>207.4</ele>
        <time>2020-06-26T20:21:54Z</time>
      </trkpt>
      <trkpt lat="49.2039" lon="6.85092">
        <ele>207.3</ele>
        <time>2020-06-26T20:21:55Z</time>
      </trkpt>
      <trkpt lat="49.20384" lon="6.85098">
        <ele>207.2</ele>
        <time>2020-06-26T20:21:56Z</time>
      </trkpt>
      <trkpt lat="49.20379" lon="6.85102">
        <ele>207.1</ele>
        <time>2020-06-26T20:21:57Z</time>
      </trkpt>
      <trkpt lat="49.20375" lon="6.85108">
        <ele>207</ele>
        <time>2020-06-26T20:21:58Z</time>
      </trkpt>
      <trkpt lat="49.2037" lon="6.85113">
        <ele>206.8</ele>
        <time>2020-06-26T20:21:59Z</time>
      </trkpt>
      <trkpt lat="49.20366" lon="6.85119">
        <ele>206.5</ele>
        <time>2020-06-26T20:22:00Z</time>
      </trkpt>
      <trkpt lat="49.20362" lon="6.85124">
        <ele>206.3</ele>
        <time>2020-06-26T20:22:01Z</time>
      </trkpt>
      <trkpt lat="49.20357" lon="6.85128">
        <ele>206.3</ele>
        <time>2020-06-26T20:22:02Z</time>
      </trkpt>
      <trkpt lat="49.20351" lon="6.85133">
        <ele>206.3</ele>
        <time>2020-06-26T20:22:03Z</time>
      </trkpt>
      <trkpt lat="49.20346" lon="6.85135">
        <ele>206.3</ele>
        <time>2020-06-26T20:22:04Z</time>
      </trkpt>
      <trkpt lat="49.20343" lon="6.85139">
        <ele>206.3</ele>
        <time>2020-06-26T20:22:05Z</time>
      </trkpt>
      <trkpt lat="49.20339" lon="6.85143">
        <ele>206.3</ele>
        <time>2020-06-26T20:22:06Z</time>
      </trkpt>
      <trkpt lat="49.20335" lon="6.85147">
        <ele>206.2</ele>
        <time>2020-06-26T20:22:07Z</time>
      </trkpt>
      <trkpt lat="49.20331" lon="6.85152">
        <ele>206.1</ele>
        <time>2020-06-26T20:22:08Z</time>
      </trkpt>
      <trkpt lat="49.20327" lon="6.85156">
        <ele>205.9</ele>
        <time>2020-06-26T20:22:09Z</time>
      </trkpt>
      <trkpt lat="49.20323" lon="6.8516">
        <ele>205.8</ele>
        <time>2020-06-26T20:22:10Z</time>
      </trkpt>
      <trkpt lat="49.20318" lon="6.85164">
        <ele>205.7</ele>
        <time>2020-06-26T20:22:11Z</time>
      </trkpt>
      <trkpt lat="49.20314" lon="6.85168">
        <ele>205.7</ele>
        <time>2020-06-26T20:22:12Z</time>
      </trkpt>
      <trkpt lat="49.20309" lon="6.85171">
        <ele>205.6</ele>
        <time>2020-06-26T20:22:13Z</time>
      </trkpt>
      <trkpt lat="49.20305" lon="6.85175">
        <ele>205.6</ele>
        <time>2020-06-26T20:22:14Z</time>
      </trkpt>
      <trkpt lat="49.20301" lon="6.85179">
        <ele>205.6</ele>
        <time>2020-06-26T20:22:15Z</time>
      </trkpt>
      <trkpt lat="49.20297" lon="6.85182">
        <ele>205.5</ele>
        <time>2020-06-26T20:22:16Z</time>
      </trkpt>
      <trkpt lat="49.20293" lon="6.85187">
        <ele>205.4</ele>
        <time>2020-06-26T20:22:17Z</time>
      </trkpt>
      <trkpt lat="49.20289" lon="6.85189">
        <ele>205.3</ele>
        <time>2020-06-26T20:22:18Z</time>
      </trkpt>
      <trkpt lat="49.20283" lon="6.85194">
        <ele>205.2</ele>
        <time>2020-06-26T20:22:19Z</time>
      </trkpt>
      <trkpt lat="49.20279" lon="6.85199">
        <ele>205.1</ele>
        <time>2020-06-26T20:22:20Z</time>
      </trkpt>
      <trkpt lat="49.20274" lon="6.85203">
        <ele>205</ele>
        <time>2020-06-26T20:22:21Z</time>
      </trkpt>
      <trkpt lat="49.2027" lon="6.85207">
        <ele>204.9</ele>
        <time>2020-06-26T20:22:22Z</time>
      </trkpt>
      <trkpt lat="49.20265" lon="6.85211">
        <ele>204.8</ele>
        <time>2020-06-26T20:22:23Z</time>
      </trkpt>
      <trkpt lat="49.2026" lon="6.85215">
        <ele>204.7</ele>
        <time>2020-06-26T20:22:24Z</time>
      </trkpt>
      <trkpt lat="49.20254" lon="6.85216">
        <ele>204.7</ele>
        <time>2020-06-26T20:22:25Z</time>
      </trkpt>
      <trkpt lat="49.20248" lon="6.8522">
        <ele>204.6</ele>
        <time>2020-06-26T20:22:26Z</time>
      </trkpt>
      <trkpt lat="49.20243" lon="6.85222">
        <ele>204.5</ele>
        <time>2020-06-26T20:22:27Z</time>
      </trkpt>
      <trkpt lat="49.20237" lon="6.85226">
        <ele>204.4</ele>
        <time>2020-06-26T20:22:28Z</time>
      </trkpt>
      <trkpt lat="49.20231" lon="6.85228">
        <ele>204.3</ele>
        <time>2020-06-26T20:22:29Z</time>
      </trkpt>
      <trkpt lat="49.20224" lon="6.85232">
        <ele>204.2</ele>
        <time>2020-06-26T20:22:30Z</time>
      </trkpt>
      <trkpt lat="49.20219" lon="6.85234">
        <ele>204.1</ele>
        <time>2020-06-26T20:22:31Z</time>
      </trkpt>
      <trkpt lat="49.20214" lon="6.85237">
        <ele>204</ele>
        <time>2020-06-26T20:22:32Z</time>
      </trkpt>
      <trkpt lat="49.20209" lon="6.8524">
        <ele>203.8</ele>
        <time>2020-06-26T20:22:33Z</time>
      </trkpt>
      <trkpt lat="49.20203" lon="6.85242">
        <ele>203.6</ele>
        <time>2020-06-26T20:22:34Z</time>
      </trkpt>
      <trkpt lat="49.20198" lon="6.85245">
        <ele>203.4</ele>
        <time>2020-06-26T20:22:35Z</time>
      </trkpt>
      <trkpt lat="49.20192" lon="6.85246">
        <ele>203.3</ele>
        <time>2020-06-26T20:22:36Z</time>
      </trkpt>
      <trkpt lat="49.20188" lon="6.85248">
        <ele>203.2</ele>
        <time>2020-06-26T20:22:37Z</time>
      </trkpt>
      <trkpt lat="49.20183" lon="6.8525">
        <ele>203.1</ele>
        <time>2020-06-26T20:22:38Z</time>
      </trkpt>
      <trkpt lat="49.20178" lon="6.85254">
        <ele>203</ele>
        <time>2020-06-26T20:22:39Z</time>
      </trkpt>
      <trkpt lat="49.20173" lon="6.85257">
        <ele>202.9</ele>
        <time>2020-06-26T20:22:40Z</time>
      </trkpt>
      <trkpt lat="49.20169" lon="6.8526">
        <ele>202.8</ele>
        <time>2020-06-26T20:22:41Z</time>
      </trkpt>
      <trkpt lat="49.20164" lon="6.85265">
        <ele>202.6</ele>
        <time>2020-06-26T20:22:42Z</time>
      </trkpt>
      <trkpt lat="49.20157" lon="6.85269">
        <ele>202.4</ele>
        <time>2020-06-26T20:22:43Z</time>
      </trkpt>
      <trkpt lat="49.20152" lon="6.85273">
        <ele>202.2</ele>
        <time>2020-06-26T20:22:44Z</time>
      </trkpt>
      <trkpt lat="49.20147" lon="6.8528">
        <ele>202</ele>
        <time>2020-06-26T20:22:45Z</time>
      </trkpt>
      <trkpt lat="49.20143" lon="6.85284">
        <ele>201.9</ele>
        <time>2020-06-26T20:22:46Z</time>
      </trkpt>
      <trkpt lat="49.20137" lon="6.85289">
        <ele>201.8</ele>
        <time>2020-06-26T20:22:47Z</time>
      </trkpt>
      <trkpt lat="49.20132" lon="6.85296">
        <ele>201.7</ele>
        <time>2020-06-26T20:22:48Z</time>
      </trkpt>
      <trkpt lat="49.20127" lon="6.85302">
        <ele>201.6</ele>
        <time>2020-06-26T20:22:49Z</time>
      </trkpt>
      <trkpt lat="49.20123" lon="6.8531">
        <ele>201.5</ele>
        <time>2020-06-26T20:22:50Z</time>
      </trkpt>
      <trkpt lat="49.20118" lon="6.85316">
        <ele>201.4</ele>
        <time>2020-06-26T20:22:51Z</time>
      </trkpt>
      <trkpt lat="49.20113" lon="6.85321">
        <ele>201.4</ele>
        <time>2020-06-26T20:22:52Z</time>
      </trkpt>
      <trkpt lat="49.20108" lon="6.85327">
        <ele>201.3</ele>
        <time>2020-06-26T20:22:53Z</time>
      </trkpt>
      <trkpt lat="49.20103" lon="6.85332">
        <ele>201.3</ele>
        <time>2020-06-26T20:22:54Z</time>
      </trkpt>
      <trkpt lat="49.20098" lon="6.85336">
        <ele>201.3</ele>
        <time>2020-06-26T20:22:55Z</time>
      </trkpt>
      <trkpt lat="49.2009" lon="6.85341">
        <ele>200.9</ele>
        <time>2020-06-26T20:22:56Z</time>
      </trkpt>
      <trkpt lat="49.20085" lon="6.85344">
        <ele>200.8</ele>
        <time>2020-06-26T20:22:57Z</time>
      </trkpt>
      <trkpt lat="49.20081" lon="6.8535">
        <ele>200.6</ele>
        <time>2020-06-26T20:22:58Z</time>
      </trkpt>
      <trkpt lat="49.20077" lon="6.85356">
        <ele>200.9</ele>
        <time>2020-06-26T20:22:59Z</time>
      </trkpt>
      <trkpt lat="49.20075" lon="6.85362">
        <ele>201.1</ele>
        <time>2020-06-26T20:23:00Z</time>
      </trkpt>
      <trkpt lat="49.20073" lon="6.85369">
        <ele>201.5</ele>
        <time>2020-06-26T20:23:01Z</time>
      </trkpt>
      <trkpt lat="49.20071" lon="6.85375">
        <ele>201.7</ele>
        <time>2020-06-26T20:23:02Z</time>
      </trkpt>
      <trkpt lat="49.20069" lon="6.85378">
        <ele>201.7</ele>
        <time>2020-06-26T20:23:03Z</time>
      </trkpt>
      <trkpt lat="49.20065" lon="6.8538">
        <ele>201.9</ele>
        <time>2020-06-26T20:23:04Z</time>
      </trkpt>
      <trkpt lat="49.20063" lon="6.85381">
        <ele>201.9</ele>
        <time>2020-06-26T20:23:05Z</time>
      </trkpt>
      <trkpt lat="49.2006" lon="6.85385">
        <ele>202.1</ele>
        <time>2020-06-26T20:23:06Z</time>
      </trkpt>
      <trkpt lat="49.20056" lon="6.85389">
        <ele>202.3</ele>
        <time>2020-06-26T20:23:07Z</time>
      </trkpt>
      <trkpt lat="49.20053" lon="6.85392">
        <ele>202.4</ele>
        <time>2020-06-26T20:23:08Z</time>
      </trkpt>
      <trkpt lat="49.20051" lon="6.85395">
        <ele>202.6</ele>
        <time>2020-06-26T20:23:09Z</time>
      </trkpt>
      <trkpt lat="49.20047" lon="6.85399">
        <ele>202.9</ele>
        <time>2020-06-26T20:23:10Z</time>
      </trkpt>
      <trkpt lat="49.20044" lon="6.85404">
        <ele>203.2</ele>
        <time>2020-06-26T20:23:11Z</time>
      </trkpt>
      <trkpt lat="49.20042" lon="6.85408">
        <ele>203.4</ele>
        <time>2020-06-26T20:23:12Z</time>
      </trkpt>
      <trkpt lat="49.2004" lon="6.85411">
        <ele>203.6</ele>
        <time>2020-06-26T20:23:13Z</time>
      </trkpt>
      <trkpt lat="49.20037" lon="6.85415">
        <ele>203.9</ele>
        <time>2020-06-26T20:23:14Z</time>
      </trkpt>
      <trkpt lat="49.20035" lon="6.85417">
        <ele>204.1</ele>
        <time>2020-06-26T20:23:15Z</time>
      </trkpt>
      <trkpt lat="49.20034" lon="6.85419">
        <ele>204.2</ele>
        <time>2020-06-26T20:23:16Z</time>
      </trkpt>
      <trkpt lat="49.20033" lon="6.8542">
        <ele>204.3</ele>
        <time>2020-06-26T20:23:17Z</time>
      </trkpt>
      <trkpt lat="49.20031" lon="6.85423">
        <ele>204.5</ele>
        <time>2020-06-26T20:23:18Z</time>
      </trkpt>
      <trkpt lat="49.20029" lon="6.85426">
        <ele>204.7</ele>
        <time>2020-06-26T20:23:19Z</time>
      </trkpt>
      <trkpt lat="49.20027" lon="6.8543">
        <ele>205.1</ele>
        <time>2020-06-26T20:23:20Z</time>
      </trkpt>
      <trkpt lat="49.20026" lon="6.85431">
        <ele>205.2</ele>
        <time>2020-06-26T20:23:21Z</time>
      </trkpt>
      <trkpt lat="49.20023" lon="6.85436">
        <ele>205.6</ele>
        <time>2020-06-26T20:23:22Z</time>
      </trkpt>
      <trkpt lat="49.20021" lon="6.85437">
        <ele>205.7</ele>
        <time>2020-06-26T20:23:23Z</time>
      </trkpt>
      <trkpt lat="49.20018" lon="6.8544">
        <ele>206.1</ele>
        <time>2020-06-26T20:23:24Z</time>
      </trkpt>
      <trkpt lat="49.20017" lon="6.85441">
        <ele>206.2</ele>
        <time>2020-06-26T20:23:25Z</time>
      </trkpt>
      <trkpt lat="49.20015" lon="6.85445">
        <ele>206.5</ele>
        <time>2020-06-26T20:23:26Z</time>
      </trkpt>
      <trkpt lat="49.20013" lon="6.85449">
        <ele>207.1</ele>
        <time>2020-06-26T20:23:27Z</time>
      </trkpt>
      <trkpt lat="49.20011" lon="6.85453">
        <ele>207.4</ele>
        <time>2020-06-26T20:23:28Z</time>
      </trkpt>
      <trkpt lat="49.20009" lon="6.85456">
        <ele>207.7</ele>
        <time>2020-06-26T20:23:29Z</time>
      </trkpt>
      <trkpt lat="49.20007" lon="6.8546">
        <ele>208</ele>
        <time>2020-06-26T20:23:30Z</time>
      </trkpt>
      <trkpt lat="49.20006" lon="6.85463">
        <ele>208.3</ele>
        <time>2020-06-26T20:23:31Z</time>
      </trkpt>
      <trkpt lat="49.20005" lon="6.85464">
        <ele>208.4</ele>
        <time>2020-06-26T20:23:32Z</time>
      </trkpt>
      <trkpt lat="49.20002" lon="6.85468">
        <ele>208.8</ele>
        <time>2020-06-26T20:23:33Z</time>
      </trkpt>
      <trkpt lat="49.20001" lon="6.8547">
        <ele>208.9</ele>
        <time>2020-06-26T20:23:34Z</time>
      </trkpt>
      <trkpt lat="49.20001" lon="6.85472">
        <ele>209</ele>
        <time>2020-06-26T20:23:35Z</time>
      </trkpt>
      <trkpt lat="49.19999" lon="6.85474">
        <ele>209.2</ele>
        <time>2020-06-26T20:23:36Z</time>
      </trkpt>
      <trkpt lat="49.19998" lon="6.85474">
        <ele>209.4</ele>
        <time>2020-06-26T20:23:37Z</time>
      </trkpt>
      <trkpt lat="49.19996" lon="6.85477">
        <ele>209.6</ele>
        <time>2020-06-26T20:23:38Z</time>
      </trkpt>
      <trkpt lat="49.19995" lon="6.8548">
        <ele>209.8</ele>
        <time>2020-06-26T20:23:39Z</time>
      </trkpt>
      <trkpt lat="49.19992" lon="6.85485">
        <ele>210.2</ele>
        <time>2020-06-26T20:23:40Z</time>
      </trkpt>
      <trkpt lat="49.19992" lon="6.85487">
        <ele>210.3</ele>
        <time>2020-06-26T20:23:41Z</time>
      </trkpt>
      <trkpt lat="49.1999" lon="6.85491">
        <ele>210.6</ele>
        <time>2020-06-26T20:23:42Z</time>
      </trkpt>
      <trkpt lat="49.19989" lon="6.85493">
        <ele>210.7</ele>
        <time>2020-06-26T20:23:43Z</time>
      </trkpt>
      <trkpt lat="49.19988" lon="6.85497">
        <ele>211</ele>
        <time>2020-06-26T20:23:44Z</time>
      </trkpt>
      <trkpt lat="49.19986" lon="6.855">
        <ele>211.3</ele>
        <time>2020-06-26T20:23:45Z</time>
      </trkpt>
      <trkpt lat="49.19984" lon="6.85503">
        <ele>211.5</ele>
        <time>2020-06-26T20:23:46Z</time>
      </trkpt>
      <trkpt lat="49.19982" lon="6.85508">
        <ele>211.9</ele>
        <time>2020-06-26T20:23:47Z</time>
      </trkpt>
      <trkpt lat="49.19981" lon="6.8551">
        <ele>212</ele>
        <time>2020-06-26T20:23:48Z</time>
      </trkpt>
      <trkpt lat="49.19979" lon="6.85513">
        <ele>212.3</ele>
        <time>2020-06-26T20:23:49Z</time>
      </trkpt>
      <trkpt lat="49.19978" lon="6.85514">
        <ele>212.4</ele>
        <time>2020-06-26T20:23:50Z</time>
      </trkpt>
      <trkpt lat="49.19976" lon="6.8552">
        <ele>212.8</ele>
        <time>2020-06-26T20:23:51Z</time>
      </trkpt>
      <trkpt lat="49.19976" lon="6.85521">
        <ele>212.9</ele>
        <time>2020-06-26T20:23:52Z</time>
      </trkpt>
      <trkpt lat="49.19975" lon="6.85527">
        <ele>213.3</ele>
        <time>2020-06-26T20:23:53Z</time>
      </trkpt>
      <trkpt lat="49.19974" lon="6.85529">
        <ele>213.5</ele>
        <time>2020-06-26T20:23:54Z</time>
      </trkpt>
      <trkpt lat="49.19973" lon="6.85531">
        <ele>213.6</ele>
        <time>2020-06-26T20:23:55Z</time>
      </trkpt>
      <trkpt lat="49.19973" lon="6.85534">
        <ele>213.8</ele>
        <time>2020-06-26T20:23:56Z</time>
      </trkpt>
      <trkpt lat="49.19972" lon="6.85535">
        <ele>213.9</ele>
        <time>2020-06-26T20:23:57Z</time>
      </trkpt>
      <trkpt lat="49.19972" lon="6.85539">
        <ele>214.1</ele>
        <time>2020-06-26T20:23:58Z</time>
      </trkpt>
      <trkpt lat="49.19971" lon="6.85544">
        <ele>214.4</ele>
        <time>2020-06-26T20:23:59Z</time>
      </trkpt>
      <trkpt lat="49.1997" lon="6.85548">
        <ele>214.7</ele>
        <time>2020-06-26T20:24:00Z</time>
      </trkpt>
      <trkpt lat="49.19969" lon="6.8555">
        <ele>214.8</ele>
        <time>2020-06-26T20:24:01Z</time>
      </trkpt>
      <trkpt lat="49.19968" lon="6.85552">
        <ele>215</ele>
        <time>2020-06-26T20:24:02Z</time>
      </trkpt>
      <trkpt lat="49.19968" lon="6.85555">
        <ele>215.1</ele>
        <time>2020-06-26T20:24:03Z</time>
      </trkpt>
      <trkpt lat="49.19967" lon="6.85559">
        <ele>215.4</ele>
        <time>2020-06-26T20:24:04Z</time>
      </trkpt>
      <trkpt lat="49.19967" lon="6.8556">
        <ele>215.5</ele>
        <time>2020-06-26T20:24:05Z</time>
      </trkpt>
      <trkpt lat="49.19965" lon="6.85564">
        <ele>215.7</ele>
        <time>2020-06-26T20:24:06Z</time>
      </trkpt>
      <trkpt lat="49.19965" lon="6.85566">
        <ele>215.9</ele>
        <time>2020-06-26T20:24:07Z</time>
      </trkpt>
      <trkpt lat="49.19963" lon="6.85568">
        <ele>216</ele>
        <time>2020-06-26T20:24:08Z</time>
      </trkpt>
      <trkpt lat="49.19963" lon="6.85569">
        <ele>216.1</ele>
        <time>2020-06-26T20:24:09Z</time>
      </trkpt>
      <trkpt lat="49.19961" lon="6.85573">
        <ele>216.4</ele>
        <time>2020-06-26T20:24:10Z</time>
      </trkpt>
      <trkpt lat="49.1996" lon="6.85575">
        <ele>216.5</ele>
        <time>2020-06-26T20:24:11Z</time>
      </trkpt>
      <trkpt lat="49.19959" lon="6.85579">
        <ele>216.8</ele>
        <time>2020-06-26T20:24:12Z</time>
      </trkpt>
      <trkpt lat="49.19957" lon="6.85583">
        <ele>217</ele>
        <time>2020-06-26T20:24:13Z</time>
      </trkpt>
      <trkpt lat="49.19956" lon="6.85584">
        <ele>217.2</ele>
        <time>2020-06-26T20:24:14Z</time>
      </trkpt>
      <trkpt lat="49.19955" lon="6.85588">
        <ele>217.5</ele>
        <time>2020-06-26T20:24:15Z</time>
      </trkpt>
      <trkpt lat="49.19954" lon="6.8559">
        <ele>217.6</ele>
        <time>2020-06-26T20:24:16Z</time>
      </trkpt>
      <trkpt lat="49.19953" lon="6.85595">
        <ele>217.9</ele>
        <time>2020-06-26T20:24:17Z</time>
      </trkpt>
      <trkpt lat="49.19952" lon="6.85596">
        <ele>218</ele>
        <time>2020-06-26T20:24:18Z</time>
      </trkpt>
      <trkpt lat="49.19952" lon="6.85599">
        <ele>218.2</ele>
        <time>2020-06-26T20:24:19Z</time>
      </trkpt>
      <trkpt lat="49.19952" lon="6.85601">
        <ele>218.3</ele>
        <time>2020-06-26T20:24:20Z</time>
      </trkpt>
      <trkpt lat="49.19951" lon="6.85603">
        <ele>218.4</ele>
        <time>2020-06-26T20:24:21Z</time>
      </trkpt>
      <trkpt lat="49.1995" lon="6.85604">
        <ele>218.6</ele>
        <time>2020-06-26T20:24:22Z</time>
      </trkpt>
      <trkpt lat="49.19948" lon="6.85608">
        <ele>218.9</ele>
        <time>2020-06-26T20:24:23Z</time>
      </trkpt>
      <trkpt lat="49.19947" lon="6.85611">
        <ele>219.1</ele>
        <time>2020-06-26T20:24:24Z</time>
      </trkpt>
      <trkpt lat="49.19946" lon="6.85615">
        <ele>219.3</ele>
        <time>2020-06-26T20:24:25Z</time>
      </trkpt>
      <trkpt lat="49.19945" lon="6.85616">
        <ele>219.4</ele>
        <time>2020-06-26T20:24:26Z</time>
      </trkpt>
      <trkpt lat="49.19945" lon="6.85619">
        <ele>219.6</ele>
        <time>2020-06-26T20:24:27Z</time>
      </trkpt>
      <trkpt lat="49.19946" lon="6.8562">
        <ele>219.7</ele>
        <time>2020-06-26T20:24:28Z</time>
      </trkpt>
      <trkpt lat="49.19944" lon="6.85624">
        <ele>219.9</ele>
        <time>2020-06-26T20:24:29Z</time>
      </trkpt>
      <trkpt lat="49.19943" lon="6.85625">
        <ele>220.1</ele>
        <time>2020-06-26T20:24:30Z</time>
      </trkpt>
      <trkpt lat="49.19943" lon="6.85627">
        <ele>220.2</ele>
        <time>2020-06-26T20:24:31Z</time>
      </trkpt>
      <trkpt lat="49.19942" lon="6.85629">
        <ele>220.3</ele>
        <time>2020-06-26T20:24:32Z</time>
      </trkpt>
      <trkpt lat="49.19941" lon="6.85631">
        <ele>220.5</ele>
        <time>2020-06-26T20:24:33Z</time>
      </trkpt>
      <trkpt lat="49.19941" lon="6.85634">
        <ele>220.7</ele>
        <time>2020-06-26T20:24:34Z</time>
      </trkpt>
      <trkpt lat="49.1994" lon="6.85636">
        <ele>220.8</ele>
        <time>2020-06-26T20:24:35Z</time>
      </trkpt>
      <trkpt lat="49.1994" lon="6.85641">
        <ele>221.2</ele>
        <time>2020-06-26T20:24:36Z</time>
      </trkpt>
      <trkpt lat="49.1994" lon="6.85642">
        <ele>221.3</ele>
        <time>2020-06-26T20:24:37Z</time>
      </trkpt>
      <trkpt lat="49.19939" lon="6.85647">
        <ele>221.6</ele>
        <time>2020-06-26T20:24:38Z</time>
      </trkpt>
      <trkpt lat="49.19939" lon="6.85648">
        <ele>221.6</ele>
        <time>2020-06-26T20:24:39Z</time>
      </trkpt>
      <trkpt lat="49.19939" lon="6.85651">
        <ele>221.8</ele>
        <time>2020-06-26T20:24:40Z</time>
      </trkpt>
      <trkpt lat="49.19938" lon="6.85653">
        <ele>221.9</ele>
        <time>2020-06-26T20:24:41Z</time>
      </trkpt>
      <trkpt lat="49.19935" lon="6.85656">
        <ele>222.2</ele>
        <time>2020-06-26T20:24:42Z</time>
      </trkpt>
      <trkpt lat="49.19935" lon="6.85659">
        <ele>222.4</ele>
        <time>2020-06-26T20:24:43Z</time>
      </trkpt>
      <trkpt lat="49.19934" lon="6.85661">
        <ele>222.5</ele>
        <time>2020-06-26T20:24:44Z</time>
      </trkpt>
      <trkpt lat="49.19934" lon="6.85663">
        <ele>222.7</ele>
        <time>2020-06-26T20:24:45Z</time>
      </trkpt>
      <trkpt lat="49.19933" lon="6.85666">
        <ele>222.8</ele>
        <time>2020-06-26T20:24:46Z</time>
      </trkpt>
      <trkpt lat="49.19932" lon="6.85672">
        <ele>223.1</ele>
        <time>2020-06-26T20:24:47Z</time>
      </trkpt>
      <trkpt lat="49.19932" lon="6.85674">
        <ele>223.2</ele>
        <time>2020-06-26T20:24:48Z</time>
      </trkpt>
      <trkpt lat="49.19932" lon="6.85679">
        <ele>223.4</ele>
        <time>2020-06-26T20:24:49Z</time>
      </trkpt>
      <trkpt lat="49.19932" lon="6.85681">
        <ele>223.5</ele>
        <time>2020-06-26T20:24:50Z</time>
      </trkpt>
      <trkpt lat="49.1993" lon="6.85685">
        <ele>223.7</ele>
        <time>2020-06-26T20:24:51Z</time>
      </trkpt>
      <trkpt lat="49.1993" lon="6.85687">
        <ele>223.8</ele>
        <time>2020-06-26T20:24:52Z</time>
      </trkpt>
      <trkpt lat="49.1993" lon="6.85692">
        <ele>223.9</ele>
        <time>2020-06-26T20:24:53Z</time>
      </trkpt>
      <trkpt lat="49.19929" lon="6.85693">
        <ele>224</ele>
        <time>2020-06-26T20:24:54Z</time>
      </trkpt>
      <trkpt lat="49.19929" lon="6.85697">
        <ele>224.2</ele>
        <time>2020-06-26T20:24:55Z</time>
      </trkpt>
      <trkpt lat="49.19929" lon="6.85698">
        <ele>224.2</ele>
        <time>2020-06-26T20:24:56Z</time>
      </trkpt>
      <trkpt lat="49.19928" lon="6.85699">
        <ele>224.3</ele>
        <time>2020-06-26T20:24:57Z</time>
      </trkpt>
      <trkpt lat="49.19926" lon="6.85703">
        <ele>224.4</ele>
        <time>2020-06-26T20:24:58Z</time>
      </trkpt>
      <trkpt lat="49.19925" lon="6.85705">
        <ele>224.5</ele>
        <time>2020-06-26T20:24:59Z</time>
      </trkpt>
      <trkpt lat="49.19925" lon="6.85708">
        <ele>224.6</ele>
        <time>2020-06-26T20:25:00Z</time>
      </trkpt>
      <trkpt lat="49.19924" lon="6.8571">
        <ele>224.7</ele>
        <time>2020-06-26T20:25:01Z</time>
      </trkpt>
      <trkpt lat="49.19923" lon="6.85714">
        <ele>224.9</ele>
        <time>2020-06-26T20:25:02Z</time>
      </trkpt>
      <trkpt lat="49.19923" lon="6.85716">
        <ele>224.9</ele>
        <time>2020-06-26T20:25:03Z</time>
      </trkpt>
      <trkpt lat="49.19921" lon="6.8572">
        <ele>225.1</ele>
        <time>2020-06-26T20:25:04Z</time>
      </trkpt>
      <trkpt lat="49.1992" lon="6.85721">
        <ele>225.1</ele>
        <time>2020-06-26T20:25:05Z</time>
      </trkpt>
      <trkpt lat="49.19919" lon="6.85726">
        <ele>225.3</ele>
        <time>2020-06-26T20:25:06Z</time>
      </trkpt>
      <trkpt lat="49.19917" lon="6.8573">
        <ele>225.5</ele>
        <time>2020-06-26T20:25:07Z</time>
      </trkpt>
      <trkpt lat="49.19916" lon="6.85735">
        <ele>225.6</ele>
        <time>2020-06-26T20:25:08Z</time>
      </trkpt>
      <trkpt lat="49.19916" lon="6.85737">
        <ele>225.7</ele>
        <time>2020-06-26T20:25:09Z</time>
      </trkpt>
      <trkpt lat="49.19914" lon="6.85742">
        <ele>225.9</ele>
        <time>2020-06-26T20:25:10Z</time>
      </trkpt>
      <trkpt lat="49.19914" lon="6.85744">
        <ele>226</ele>
        <time>2020-06-26T20:25:11Z</time>
      </trkpt>
      <trkpt lat="49.19912" lon="6.85748">
        <ele>226.1</ele>
        <time>2020-06-26T20:25:12Z</time>
      </trkpt>
      <trkpt lat="49.1991" lon="6.85752">
        <ele>226.3</ele>
        <time>2020-06-26T20:25:13Z</time>
      </trkpt>
      <trkpt lat="49.19909" lon="6.85756">
        <ele>226.4</ele>
        <time>2020-06-26T20:25:14Z</time>
      </trkpt>
      <trkpt lat="49.19907" lon="6.85761">
        <ele>226.6</ele>
        <time>2020-06-26T20:25:15Z</time>
      </trkpt>
      <trkpt lat="49.19907" lon="6.85765">
        <ele>226.7</ele>
        <time>2020-06-26T20:25:16Z</time>
      </trkpt>
      <trkpt lat="49.19907" lon="6.85768">
        <ele>226.7</ele>
        <time>2020-06-26T20:25:17Z</time>
      </trkpt>
      <trkpt lat="49.19907" lon="6.85771">
        <ele>226.7</ele>
        <time>2020-06-26T20:25:18Z</time>
      </trkpt>
      <trkpt lat="49.19906" lon="6.85776">
        <ele>226.8</ele>
        <time>2020-06-26T20:25:19Z</time>
      </trkpt>
      <trkpt lat="49.19906" lon="6.85778">
        <ele>226.8</ele>
        <time>2020-06-26T20:25:20Z</time>
      </trkpt>
      <trkpt lat="49.19905" lon="6.85782">
        <ele>226.9</ele>
        <time>2020-06-26T20:25:21Z</time>
      </trkpt>
      <trkpt lat="49.19903" lon="6.85787">
        <ele>227</ele>
        <time>2020-06-26T20:25:22Z</time>
      </trkpt>
      <trkpt lat="49.19903" lon="6.85789">
        <ele>227</ele>
        <time>2020-06-26T20:25:23Z</time>
      </trkpt>
      <trkpt lat="49.19901" lon="6.85794">
        <ele>227.2</ele>
        <time>2020-06-26T20:25:24Z</time>
      </trkpt>
      <trkpt lat="49.19899" lon="6.85799">
        <ele>227.3</ele>
        <time>2020-06-26T20:25:25Z</time>
      </trkpt>
      <trkpt lat="49.19899" lon="6.85801">
        <ele>227.4</ele>
        <time>2020-06-26T20:25:26Z</time>
      </trkpt>
      <trkpt lat="49.19898" lon="6.85805">
        <ele>227.5</ele>
        <time>2020-06-26T20:25:27Z</time>
      </trkpt>
      <trkpt lat="49.19897" lon="6.85807">
        <ele>227.5</ele>
        <time>2020-06-26T20:25:28Z</time>
      </trkpt>
      <trkpt lat="49.19897" lon="6.85809">
        <ele>227.8</ele>
        <time>2020-06-26T20:25:29Z</time>
      </trkpt>
      <trkpt lat="49.19897" lon="6.85812">
        <ele>227.9</ele>
        <time>2020-06-26T20:25:30Z</time>
      </trkpt>
      <trkpt lat="49.19897" lon="6.85817">
        <ele>228.2</ele>
        <time>2020-06-26T20:25:31Z</time>
      </trkpt>
      <trkpt lat="49.19897" lon="6.85819">
        <ele>228.3</ele>
        <time>2020-06-26T20:25:32Z</time>
      </trkpt>
      <trkpt lat="49.19897" lon="6.85823">
        <ele>228.5</ele>
        <time>2020-06-26T20:25:33Z</time>
      </trkpt>
      <trkpt lat="49.19897" lon="6.85824">
        <ele>228.6</ele>
        <time>2020-06-26T20:25:34Z</time>
      </trkpt>
      <trkpt lat="49.19895" lon="6.85829">
        <ele>228.8</ele>
        <time>2020-06-26T20:25:35Z</time>
      </trkpt>
      <trkpt lat="49.19894" lon="6.8583">
        <ele>228.9</ele>
        <time>2020-06-26T20:25:36Z</time>
      </trkpt>
      <trkpt lat="49.19893" lon="6.85835">
        <ele>229.2</ele>
        <time>2020-06-26T20:25:37Z</time>
      </trkpt>
      <trkpt lat="49.19893" lon="6.85837">
        <ele>229.3</ele>
        <time>2020-06-26T20:25:38Z</time>
      </trkpt>
      <trkpt lat="49.19892" lon="6.85841">
        <ele>229.5</ele>
        <time>2020-06-26T20:25:39Z</time>
      </trkpt>
      <trkpt lat="49.19891" lon="6.85843">
        <ele>229.5</ele>
        <time>2020-06-26T20:25:40Z</time>
      </trkpt>
      <trkpt lat="49.1989" lon="6.85845">
        <ele>229.7</ele>
        <time>2020-06-26T20:25:41Z</time>
      </trkpt>
      <trkpt lat="49.1989" lon="6.85848">
        <ele>229.8</ele>
        <time>2020-06-26T20:25:42Z</time>
      </trkpt>
      <trkpt lat="49.19889" lon="6.8585">
        <ele>229.9</ele>
        <time>2020-06-26T20:25:43Z</time>
      </trkpt>
      <trkpt lat="49.19889" lon="6.85853">
        <ele>230.1</ele>
        <time>2020-06-26T20:25:44Z</time>
      </trkpt>
      <trkpt lat="49.19888" lon="6.85858">
        <ele>230.3</ele>
        <time>2020-06-26T20:25:45Z</time>
      </trkpt>
      <trkpt lat="49.19888" lon="6.8586">
        <ele>230.4</ele>
        <time>2020-06-26T20:25:46Z</time>
      </trkpt>
      <trkpt lat="49.19887" lon="6.85862">
        <ele>230.5</ele>
        <time>2020-06-26T20:25:47Z</time>
      </trkpt>
      <trkpt lat="49.19887" lon="6.85865">
        <ele>230.6</ele>
        <time>2020-06-26T20:25:48Z</time>
      </trkpt>
      <trkpt lat="49.19886" lon="6.85869">
        <ele>230.9</ele>
        <time>2020-06-26T20:25:49Z</time>
      </trkpt>
      <trkpt lat="49.19886" lon="6.85871">
        <ele>230.9</ele>
        <time>2020-06-26T20:25:50Z</time>
      </trkpt>
      <trkpt lat="49.19885" lon="6.85876">
        <ele>231.2</ele>
        <time>2020-06-26T20:25:51Z</time>
      </trkpt>
      <trkpt lat="49.19885" lon="6.85877">
        <ele>231.3</ele>
        <time>2020-06-26T20:25:52Z</time>
      </trkpt>
      <trkpt lat="49.19883" lon="6.85882">
        <ele>231.5</ele>
        <time>2020-06-26T20:25:53Z</time>
      </trkpt>
      <trkpt lat="49.19883" lon="6.85883">
        <ele>231.6</ele>
        <time>2020-06-26T20:25:54Z</time>
      </trkpt>
      <trkpt lat="49.19881" lon="6.85887">
        <ele>231.7</ele>
        <time>2020-06-26T20:25:55Z</time>
      </trkpt>
      <trkpt lat="49.1988" lon="6.85891">
        <ele>231.9</ele>
        <time>2020-06-26T20:25:56Z</time>
      </trkpt>
      <trkpt lat="49.1988" lon="6.85895">
        <ele>232.1</ele>
        <time>2020-06-26T20:25:57Z</time>
      </trkpt>
      <trkpt lat="49.19879" lon="6.85898">
        <ele>232.2</ele>
        <time>2020-06-26T20:25:58Z</time>
      </trkpt>
      <trkpt lat="49.19879" lon="6.859">
        <ele>232.3</ele>
        <time>2020-06-26T20:25:59Z</time>
      </trkpt>
      <trkpt lat="49.19878" lon="6.85904">
        <ele>232.5</ele>
        <time>2020-06-26T20:26:00Z</time>
      </trkpt>
      <trkpt lat="49.19878" lon="6.85905">
        <ele>232.6</ele>
        <time>2020-06-26T20:26:01Z</time>
      </trkpt>
      <trkpt lat="49.19877" lon="6.8591">
        <ele>232.7</ele>
        <time>2020-06-26T20:26:02Z</time>
      </trkpt>
      <trkpt lat="49.19876" lon="6.85911">
        <ele>232.8</ele>
        <time>2020-06-26T20:26:03Z</time>
      </trkpt>
      <trkpt lat="49.19876" lon="6.85916">
        <ele>233.2</ele>
        <time>2020-06-26T20:26:04Z</time>
      </trkpt>
      <trkpt lat="49.19875" lon="6.8592">
        <ele>233.6</ele>
        <time>2020-06-26T20:26:05Z</time>
      </trkpt>
      <trkpt lat="49.19875" lon="6.85922">
        <ele>233.7</ele>
        <time>2020-06-26T20:26:06Z</time>
      </trkpt>
      <trkpt lat="49.19875" lon="6.85924">
        <ele>233.9</ele>
        <time>2020-06-26T20:26:07Z</time>
      </trkpt>
      <trkpt lat="49.19874" lon="6.85927">
        <ele>234.1</ele>
        <time>2020-06-26T20:26:08Z</time>
      </trkpt>
      <trkpt lat="49.19873" lon="6.85932">
        <ele>234.4</ele>
        <time>2020-06-26T20:26:09Z</time>
      </trkpt>
      <trkpt lat="49.19873" lon="6.85934">
        <ele>234.5</ele>
        <time>2020-06-26T20:26:10Z</time>
      </trkpt>
      <trkpt lat="49.19871" lon="6.85939">
        <ele>234.8</ele>
        <time>2020-06-26T20:26:11Z</time>
      </trkpt>
      <trkpt lat="49.19871" lon="6.85941">
        <ele>234.9</ele>
        <time>2020-06-26T20:26:12Z</time>
      </trkpt>
      <trkpt lat="49.1987" lon="6.85946">
        <ele>235.2</ele>
        <time>2020-06-26T20:26:13Z</time>
      </trkpt>
      <trkpt lat="49.1987" lon="6.85949">
        <ele>235.3</ele>
        <time>2020-06-26T20:26:14Z</time>
      </trkpt>
      <trkpt lat="49.19869" lon="6.85954">
        <ele>235.6</ele>
        <time>2020-06-26T20:26:15Z</time>
      </trkpt>
      <trkpt lat="49.19868" lon="6.85956">
        <ele>235.7</ele>
        <time>2020-06-26T20:26:16Z</time>
      </trkpt>
      <trkpt lat="49.19867" lon="6.8596">
        <ele>236</ele>
        <time>2020-06-26T20:26:17Z</time>
      </trkpt>
      <trkpt lat="49.19865" lon="6.85964">
        <ele>236.2</ele>
        <time>2020-06-26T20:26:18Z</time>
      </trkpt>
      <trkpt lat="49.19864" lon="6.8597">
        <ele>236.5</ele>
        <time>2020-06-26T20:26:19Z</time>
      </trkpt>
      <trkpt lat="49.19864" lon="6.85972">
        <ele>236.7</ele>
        <time>2020-06-26T20:26:20Z</time>
      </trkpt>
      <trkpt lat="49.19863" lon="6.85976">
        <ele>236.9</ele>
        <time>2020-06-26T20:26:21Z</time>
      </trkpt>
      <trkpt lat="49.19861" lon="6.85981">
        <ele>237.2</ele>
        <time>2020-06-26T20:26:22Z</time>
      </trkpt>
      <trkpt lat="49.1986" lon="6.85983">
        <ele>237.4</ele>
        <time>2020-06-26T20:26:23Z</time>
      </trkpt>
      <trkpt lat="49.19858" lon="6.85987">
        <ele>237.6</ele>
        <time>2020-06-26T20:26:24Z</time>
      </trkpt>
      <trkpt lat="49.19857" lon="6.85988">
        <ele>237.7</ele>
        <time>2020-06-26T20:26:25Z</time>
      </trkpt>
      <trkpt lat="49.19855" lon="6.85994">
        <ele>238.1</ele>
        <time>2020-06-26T20:26:26Z</time>
      </trkpt>
      <trkpt lat="49.19855" lon="6.85996">
        <ele>238.2</ele>
        <time>2020-06-26T20:26:27Z</time>
      </trkpt>
      <trkpt lat="49.19854" lon="6.86001">
        <ele>238.5</ele>
        <time>2020-06-26T20:26:28Z</time>
      </trkpt>
      <trkpt lat="49.19854" lon="6.86005">
        <ele>238.7</ele>
        <time>2020-06-26T20:26:29Z</time>
      </trkpt>
      <trkpt lat="49.19853" lon="6.86009">
        <ele>239</ele>
        <time>2020-06-26T20:26:30Z</time>
      </trkpt>
      <trkpt lat="49.19852" lon="6.86013">
        <ele>239.2</ele>
        <time>2020-06-26T20:26:31Z</time>
      </trkpt>
      <trkpt lat="49.19852" lon="6.86017">
        <ele>239.5</ele>
        <time>2020-06-26T20:26:32Z</time>
      </trkpt>
      <trkpt lat="49.19851" lon="6.86023">
        <ele>239.8</ele>
        <time>2020-06-26T20:26:33Z</time>
      </trkpt>
      <trkpt lat="49.1985" lon="6.86025">
        <ele>239.9</ele>
        <time>2020-06-26T20:26:34Z</time>
      </trkpt>
      <trkpt lat="49.19849" lon="6.86029">
        <ele>240.1</ele>
        <time>2020-06-26T20:26:35Z</time>
      </trkpt>
      <trkpt lat="49.19848" lon="6.86034">
        <ele>240.4</ele>
        <time>2020-06-26T20:26:36Z</time>
      </trkpt>
      <trkpt lat="49.19848" lon="6.86036">
        <ele>240.5</ele>
        <time>2020-06-26T20:26:37Z</time>
      </trkpt>
      <trkpt lat="49.19846" lon="6.8604">
        <ele>240.8</ele>
        <time>2020-06-26T20:26:38Z</time>
      </trkpt>
      <trkpt lat="49.19845" lon="6.86046">
        <ele>241.1</ele>
        <time>2020-06-26T20:26:39Z</time>
      </trkpt>
      <trkpt lat="49.19845" lon="6.86048">
        <ele>241.2</ele>
        <time>2020-06-26T20:26:40Z</time>
      </trkpt>
      <trkpt lat="49.19845" lon="6.86053">
        <ele>241.5</ele>
        <time>2020-06-26T20:26:41Z</time>
      </trkpt>
      <trkpt lat="49.19844" lon="6.86059">
        <ele>241.8</ele>
        <time>2020-06-26T20:26:42Z</time>
      </trkpt>
      <trkpt lat="49.19844" lon="6.86062">
        <ele>241.9</ele>
        <time>2020-06-26T20:26:43Z</time>
      </trkpt>
      <trkpt lat="49.19842" lon="6.86066">
        <ele>242.2</ele>
        <time>2020-06-26T20:26:44Z</time>
      </trkpt>
      <trkpt lat="49.19842" lon="6.86068">
        <ele>242.3</ele>
        <time>2020-06-26T20:26:45Z</time>
      </trkpt>
      <trkpt lat="49.19841" lon="6.86072">
        <ele>242.5</ele>
        <time>2020-06-26T20:26:46Z</time>
      </trkpt>
      <trkpt lat="49.19839" lon="6.86076">
        <ele>242.7</ele>
        <time>2020-06-26T20:26:47Z</time>
      </trkpt>
      <trkpt lat="49.19837" lon="6.86081">
        <ele>242.9</ele>
        <time>2020-06-26T20:26:48Z</time>
      </trkpt>
      <trkpt lat="49.19837" lon="6.86082">
        <ele>243</ele>
        <time>2020-06-26T20:26:49Z</time>
      </trkpt>
      <trkpt lat="49.19836" lon="6.86087">
        <ele>243.2</ele>
        <time>2020-06-26T20:26:50Z</time>
      </trkpt>
      <trkpt lat="49.19836" lon="6.86089">
        <ele>243.3</ele>
        <time>2020-06-26T20:26:51Z</time>
      </trkpt>
      <trkpt lat="49.19836" lon="6.86095">
        <ele>243.5</ele>
        <time>2020-06-26T20:26:52Z</time>
      </trkpt>
      <trkpt lat="49.19836" lon="6.86097">
        <ele>243.6</ele>
        <time>2020-06-26T20:26:53Z</time>
      </trkpt>
      <trkpt lat="49.19835" lon="6.86099">
        <ele>243.7</ele>
        <time>2020-06-26T20:26:54Z</time>
      </trkpt>
      <trkpt lat="49.19835" lon="6.86101">
        <ele>243.8</ele>
        <time>2020-06-26T20:26:55Z</time>
      </trkpt>
      <trkpt lat="49.19834" lon="6.86105">
        <ele>244</ele>
        <time>2020-06-26T20:26:56Z</time>
      </trkpt>
      <trkpt lat="49.19834" lon="6.86107">
        <ele>244</ele>
        <time>2020-06-26T20:26:57Z</time>
      </trkpt>
      <trkpt lat="49.19832" lon="6.86111">
        <ele>244.2</ele>
        <time>2020-06-26T20:26:58Z</time>
      </trkpt>
      <trkpt lat="49.19831" lon="6.86117">
        <ele>244.5</ele>
        <time>2020-06-26T20:26:59Z</time>
      </trkpt>
      <trkpt lat="49.1983" lon="6.86119">
        <ele>244.6</ele>
        <time>2020-06-26T20:27:00Z</time>
      </trkpt>
      <trkpt lat="49.19829" lon="6.86124">
        <ele>244.8</ele>
        <time>2020-06-26T20:27:01Z</time>
      </trkpt>
      <trkpt lat="49.19829" lon="6.86129">
        <ele>245</ele>
        <time>2020-06-26T20:27:02Z</time>
      </trkpt>
      <trkpt lat="49.19827" lon="6.86133">
        <ele>245.2</ele>
        <time>2020-06-26T20:27:03Z</time>
      </trkpt>
      <trkpt lat="49.19827" lon="6.86137">
        <ele>245.4</ele>
        <time>2020-06-26T20:27:04Z</time>
      </trkpt>
      <trkpt lat="49.19825" lon="6.86142">
        <ele>245.7</ele>
        <time>2020-06-26T20:27:05Z</time>
      </trkpt>
      <trkpt lat="49.19825" lon="6.86144">
        <ele>245.7</ele>
        <time>2020-06-26T20:27:06Z</time>
      </trkpt>
      <trkpt lat="49.19824" lon="6.8615">
        <ele>246</ele>
        <time>2020-06-26T20:27:07Z</time>
      </trkpt>
      <trkpt lat="49.19823" lon="6.86152">
        <ele>246.1</ele>
        <time>2020-06-26T20:27:08Z</time>
      </trkpt>
      <trkpt lat="49.19822" lon="6.86156">
        <ele>246.3</ele>
        <time>2020-06-26T20:27:09Z</time>
      </trkpt>
      <trkpt lat="49.19821" lon="6.8616">
        <ele>246.5</ele>
        <time>2020-06-26T20:27:10Z</time>
      </trkpt>
      <trkpt lat="49.19819" lon="6.86163">
        <ele>246.7</ele>
        <time>2020-06-26T20:27:11Z</time>
      </trkpt>
      <trkpt lat="49.19816" lon="6.86168">
        <ele>247</ele>
        <time>2020-06-26T20:27:12Z</time>
      </trkpt>
      <trkpt lat="49.19815" lon="6.86171">
        <ele>247.2</ele>
        <time>2020-06-26T20:27:13Z</time>
      </trkpt>
      <trkpt lat="49.19813" lon="6.86174">
        <ele>247.4</ele>
        <time>2020-06-26T20:27:14Z</time>
      </trkpt>
      <trkpt lat="49.19812" lon="6.86178">
        <ele>247.6</ele>
        <time>2020-06-26T20:27:15Z</time>
      </trkpt>
      <trkpt lat="49.1981" lon="6.86184">
        <ele>247.9</ele>
        <time>2020-06-26T20:27:16Z</time>
      </trkpt>
      <trkpt lat="49.1981" lon="6.86186">
        <ele>248</ele>
        <time>2020-06-26T20:27:17Z</time>
      </trkpt>
      <trkpt lat="49.19809" lon="6.8619">
        <ele>248.1</ele>
        <time>2020-06-26T20:27:18Z</time>
      </trkpt>
      <trkpt lat="49.19807" lon="6.86195">
        <ele>248.4</ele>
        <time>2020-06-26T20:27:19Z</time>
      </trkpt>
      <trkpt lat="49.19806" lon="6.86197">
        <ele>248.4</ele>
        <time>2020-06-26T20:27:20Z</time>
      </trkpt>
      <trkpt lat="49.19805" lon="6.86201">
        <ele>248.6</ele>
        <time>2020-06-26T20:27:21Z</time>
      </trkpt>
      <trkpt lat="49.19803" lon="6.86205">
        <ele>248.8</ele>
        <time>2020-06-26T20:27:22Z</time>
      </trkpt>
      <trkpt lat="49.19801" lon="6.86208">
        <ele>248.9</ele>
        <time>2020-06-26T20:27:23Z</time>
      </trkpt>
      <trkpt lat="49.19801" lon="6.86213">
        <ele>249</ele>
        <time>2020-06-26T20:27:24Z</time>
      </trkpt>
      <trkpt lat="49.198" lon="6.86215">
        <ele>249.1</ele>
        <time>2020-06-26T20:27:25Z</time>
      </trkpt>
      <trkpt lat="49.19799" lon="6.86219">
        <ele>249.2</ele>
        <time>2020-06-26T20:27:26Z</time>
      </trkpt>
      <trkpt lat="49.19798" lon="6.86224">
        <ele>249.4</ele>
        <time>2020-06-26T20:27:27Z</time>
      </trkpt>
      <trkpt lat="49.19797" lon="6.86226">
        <ele>249.5</ele>
        <time>2020-06-26T20:27:28Z</time>
      </trkpt>
      <trkpt lat="49.19796" lon="6.86231">
        <ele>249.6</ele>
        <time>2020-06-26T20:27:29Z</time>
      </trkpt>
      <trkpt lat="49.19795" lon="6.86234">
        <ele>249.8</ele>
        <time>2020-06-26T20:27:30Z</time>
      </trkpt>
      <trkpt lat="49.19794" lon="6.86238">
        <ele>249.9</ele>
        <time>2020-06-26T20:27:31Z</time>
      </trkpt>
      <trkpt lat="49.19792" lon="6.86242">
        <ele>250.1</ele>
        <time>2020-06-26T20:27:32Z</time>
      </trkpt>
      <trkpt lat="49.1979" lon="6.86246">
        <ele>250.3</ele>
        <time>2020-06-26T20:27:33Z</time>
      </trkpt>
      <trkpt lat="49.19789" lon="6.8625">
        <ele>250.4</ele>
        <time>2020-06-26T20:27:34Z</time>
      </trkpt>
      <trkpt lat="49.19788" lon="6.86254">
        <ele>250.6</ele>
        <time>2020-06-26T20:27:35Z</time>
      </trkpt>
      <trkpt lat="49.19787" lon="6.86259">
        <ele>250.7</ele>
        <time>2020-06-26T20:27:36Z</time>
      </trkpt>
      <trkpt lat="49.19785" lon="6.86263">
        <ele>250.9</ele>
        <time>2020-06-26T20:27:37Z</time>
      </trkpt>
      <trkpt lat="49.19784" lon="6.86268">
        <ele>251</ele>
        <time>2020-06-26T20:27:38Z</time>
      </trkpt>
      <trkpt lat="49.19782" lon="6.86272">
        <ele>251.2</ele>
        <time>2020-06-26T20:27:39Z</time>
      </trkpt>
      <trkpt lat="49.19781" lon="6.86277">
        <ele>251.4</ele>
        <time>2020-06-26T20:27:40Z</time>
      </trkpt>
      <trkpt lat="49.19779" lon="6.86284">
        <ele>251.6</ele>
        <time>2020-06-26T20:27:41Z</time>
      </trkpt>
      <trkpt lat="49.19778" lon="6.86286">
        <ele>251.7</ele>
        <time>2020-06-26T20:27:42Z</time>
      </trkpt>
      <trkpt lat="49.19776" lon="6.8629">
        <ele>251.9</ele>
        <time>2020-06-26T20:27:43Z</time>
      </trkpt>
      <trkpt lat="49.19775" lon="6.86294">
        <ele>252.1</ele>
        <time>2020-06-26T20:27:44Z</time>
      </trkpt>
      <trkpt lat="49.19774" lon="6.86299">
        <ele>252.2</ele>
        <time>2020-06-26T20:27:45Z</time>
      </trkpt>
      <trkpt lat="49.19772" lon="6.86303">
        <ele>252.4</ele>
        <time>2020-06-26T20:27:46Z</time>
      </trkpt>
      <trkpt lat="49.19771" lon="6.86307">
        <ele>252.6</ele>
        <time>2020-06-26T20:27:47Z</time>
      </trkpt>
      <trkpt lat="49.1977" lon="6.86311">
        <ele>252.7</ele>
        <time>2020-06-26T20:27:48Z</time>
      </trkpt>
      <trkpt lat="49.19769" lon="6.86317">
        <ele>252.9</ele>
        <time>2020-06-26T20:27:49Z</time>
      </trkpt>
      <trkpt lat="49.19768" lon="6.86319">
        <ele>253</ele>
        <time>2020-06-26T20:27:50Z</time>
      </trkpt>
      <trkpt lat="49.19767" lon="6.86325">
        <ele>253.2</ele>
        <time>2020-06-26T20:27:51Z</time>
      </trkpt>
      <trkpt lat="49.19767" lon="6.86326">
        <ele>253.3</ele>
        <time>2020-06-26T20:27:52Z</time>
      </trkpt>
      <trkpt lat="49.19765" lon="6.86331">
        <ele>253.5</ele>
        <time>2020-06-26T20:27:53Z</time>
      </trkpt>
      <trkpt lat="49.19764" lon="6.86335">
        <ele>253.6</ele>
        <time>2020-06-26T20:27:54Z</time>
      </trkpt>
      <trkpt lat="49.19763" lon="6.86339">
        <ele>253.8</ele>
        <time>2020-06-26T20:27:55Z</time>
      </trkpt>
      <trkpt lat="49.19761" lon="6.86342">
        <ele>254</ele>
        <time>2020-06-26T20:27:56Z</time>
      </trkpt>
      <trkpt lat="49.19759" lon="6.86346">
        <ele>254.1</ele>
        <time>2020-06-26T20:27:57Z</time>
      </trkpt>
      <trkpt lat="49.19758" lon="6.86352">
        <ele>254.4</ele>
        <time>2020-06-26T20:27:58Z</time>
      </trkpt>
      <trkpt lat="49.19758" lon="6.86354">
        <ele>254.5</ele>
        <time>2020-06-26T20:27:59Z</time>
      </trkpt>
      <trkpt lat="49.19757" lon="6.86359">
        <ele>254.7</ele>
        <time>2020-06-26T20:28:00Z</time>
      </trkpt>
      <trkpt lat="49.19756" lon="6.86361">
        <ele>254.7</ele>
        <time>2020-06-26T20:28:01Z</time>
      </trkpt>
      <trkpt lat="49.19755" lon="6.86365">
        <ele>254.9</ele>
        <time>2020-06-26T20:28:02Z</time>
      </trkpt>
      <trkpt lat="49.19754" lon="6.8637">
        <ele>255.1</ele>
        <time>2020-06-26T20:28:03Z</time>
      </trkpt>
      <trkpt lat="49.19753" lon="6.86371">
        <ele>255.1</ele>
        <time>2020-06-26T20:28:04Z</time>
      </trkpt>
      <trkpt lat="49.19752" lon="6.86375">
        <ele>255.3</ele>
        <time>2020-06-26T20:28:05Z</time>
      </trkpt>
      <trkpt lat="49.19751" lon="6.8638">
        <ele>255.5</ele>
        <time>2020-06-26T20:28:06Z</time>
      </trkpt>
      <trkpt lat="49.1975" lon="6.86386">
        <ele>255.7</ele>
        <time>2020-06-26T20:28:07Z</time>
      </trkpt>
      <trkpt lat="49.19749" lon="6.8639">
        <ele>255.9</ele>
        <time>2020-06-26T20:28:08Z</time>
      </trkpt>
      <trkpt lat="49.19746" lon="6.86394">
        <ele>256.1</ele>
        <time>2020-06-26T20:28:09Z</time>
      </trkpt>
      <trkpt lat="49.19745" lon="6.86398">
        <ele>256.2</ele>
        <time>2020-06-26T20:28:10Z</time>
      </trkpt>
      <trkpt lat="49.19744" lon="6.86402">
        <ele>256.4</ele>
        <time>2020-06-26T20:28:11Z</time>
      </trkpt>
      <trkpt lat="49.19742" lon="6.86407">
        <ele>256.6</ele>
        <time>2020-06-26T20:28:12Z</time>
      </trkpt>
      <trkpt lat="49.19741" lon="6.86409">
        <ele>256.7</ele>
        <time>2020-06-26T20:28:13Z</time>
      </trkpt>
      <trkpt lat="49.19739" lon="6.86414">
        <ele>256.9</ele>
        <time>2020-06-26T20:28:14Z</time>
      </trkpt>
      <trkpt lat="49.19738" lon="6.86419">
        <ele>257.1</ele>
        <time>2020-06-26T20:28:15Z</time>
      </trkpt>
      <trkpt lat="49.19736" lon="6.86425">
        <ele>257.2</ele>
        <time>2020-06-26T20:28:16Z</time>
      </trkpt>
      <trkpt lat="49.19736" lon="6.86426">
        <ele>257.3</ele>
        <time>2020-06-26T20:28:17Z</time>
      </trkpt>
      <trkpt lat="49.19734" lon="6.86432">
        <ele>257.5</ele>
        <time>2020-06-26T20:28:18Z</time>
      </trkpt>
      <trkpt lat="49.19734" lon="6.86434">
        <ele>257.5</ele>
        <time>2020-06-26T20:28:19Z</time>
      </trkpt>
      <trkpt lat="49.19732" lon="6.86439">
        <ele>257.7</ele>
        <time>2020-06-26T20:28:20Z</time>
      </trkpt>
      <trkpt lat="49.1973" lon="6.86443">
        <ele>257.8</ele>
        <time>2020-06-26T20:28:21Z</time>
      </trkpt>
      <trkpt lat="49.19729" lon="6.86448">
        <ele>258</ele>
        <time>2020-06-26T20:28:22Z</time>
      </trkpt>
      <trkpt lat="49.19728" lon="6.86453">
        <ele>258.1</ele>
        <time>2020-06-26T20:28:23Z</time>
      </trkpt>
      <trkpt lat="49.19726" lon="6.86458">
        <ele>258.3</ele>
        <time>2020-06-26T20:28:24Z</time>
      </trkpt>
      <trkpt lat="49.19725" lon="6.8646">
        <ele>258.3</ele>
        <time>2020-06-26T20:28:25Z</time>
      </trkpt>
      <trkpt lat="49.19724" lon="6.86464">
        <ele>258.4</ele>
        <time>2020-06-26T20:28:26Z</time>
      </trkpt>
      <trkpt lat="49.19723" lon="6.86469">
        <ele>258.6</ele>
        <time>2020-06-26T20:28:27Z</time>
      </trkpt>
      <trkpt lat="49.19723" lon="6.8647">
        <ele>258.6</ele>
        <time>2020-06-26T20:28:28Z</time>
      </trkpt>
      <trkpt lat="49.19722" lon="6.86476">
        <ele>258.8</ele>
        <time>2020-06-26T20:28:29Z</time>
      </trkpt>
      <trkpt lat="49.19722" lon="6.86479">
        <ele>258.8</ele>
        <time>2020-06-26T20:28:30Z</time>
      </trkpt>
      <trkpt lat="49.19721" lon="6.86483">
        <ele>258.9</ele>
        <time>2020-06-26T20:28:31Z</time>
      </trkpt>
      <trkpt lat="49.1972" lon="6.86489">
        <ele>259.1</ele>
        <time>2020-06-26T20:28:32Z</time>
      </trkpt>
      <trkpt lat="49.19718" lon="6.86494">
        <ele>259.3</ele>
        <time>2020-06-26T20:28:33Z</time>
      </trkpt>
      <trkpt lat="49.19717" lon="6.86496">
        <ele>259.3</ele>
        <time>2020-06-26T20:28:34Z</time>
      </trkpt>
      <trkpt lat="49.19716" lon="6.86501">
        <ele>259.5</ele>
        <time>2020-06-26T20:28:35Z</time>
      </trkpt>
      <trkpt lat="49.19715" lon="6.86505">
        <ele>259.6</ele>
        <time>2020-06-26T20:28:36Z</time>
      </trkpt>
      <trkpt lat="49.19713" lon="6.86509">
        <ele>259.7</ele>
        <time>2020-06-26T20:28:37Z</time>
      </trkpt>
      <trkpt lat="49.19711" lon="6.86514">
        <ele>259.9</ele>
        <time>2020-06-26T20:28:38Z</time>
      </trkpt>
      <trkpt lat="49.1971" lon="6.86519">
        <ele>260</ele>
        <time>2020-06-26T20:28:39Z</time>
      </trkpt>
      <trkpt lat="49.19708" lon="6.86523">
        <ele>260.1</ele>
        <time>2020-06-26T20:28:40Z</time>
      </trkpt>
      <trkpt lat="49.19707" lon="6.86527">
        <ele>260.2</ele>
        <time>2020-06-26T20:28:41Z</time>
      </trkpt>
      <trkpt lat="49.19706" lon="6.86534">
        <ele>260.3</ele>
        <time>2020-06-26T20:28:42Z</time>
      </trkpt>
      <trkpt lat="49.19705" lon="6.86539">
        <ele>260.4</ele>
        <time>2020-06-26T20:28:43Z</time>
      </trkpt>
      <trkpt lat="49.19704" lon="6.86544">
        <ele>260.5</ele>
        <time>2020-06-26T20:28:44Z</time>
      </trkpt>
      <trkpt lat="49.19702" lon="6.86549">
        <ele>260.6</ele>
        <time>2020-06-26T20:28:45Z</time>
      </trkpt>
      <trkpt lat="49.197" lon="6.86555">
        <ele>260.7</ele>
        <time>2020-06-26T20:28:46Z</time>
      </trkpt>
      <trkpt lat="49.19697" lon="6.86559">
        <ele>260.9</ele>
        <time>2020-06-26T20:28:47Z</time>
      </trkpt>
      <trkpt lat="49.19696" lon="6.86564">
        <ele>261</ele>
        <time>2020-06-26T20:28:48Z</time>
      </trkpt>
      <trkpt lat="49.19694" lon="6.86569">
        <ele>261.1</ele>
        <time>2020-06-26T20:28:49Z</time>
      </trkpt>
      <trkpt lat="49.19692" lon="6.86575">
        <ele>261.2</ele>
        <time>2020-06-26T20:28:50Z</time>
      </trkpt>
      <trkpt lat="49.19691" lon="6.86581">
        <ele>261.3</ele>
        <time>2020-06-26T20:28:51Z</time>
      </trkpt>
      <trkpt lat="49.19689" lon="6.86586">
        <ele>261.4</ele>
        <time>2020-06-26T20:28:52Z</time>
      </trkpt>
      <trkpt lat="49.19687" lon="6.86591">
        <ele>261.4</ele>
        <time>2020-06-26T20:28:53Z</time>
      </trkpt>
      <trkpt lat="49.19685" lon="6.86595">
        <ele>261.4</ele>
        <time>2020-06-26T20:28:54Z</time>
      </trkpt>
      <trkpt lat="49.19684" lon="6.866">
        <ele>261.5</ele>
        <time>2020-06-26T20:28:55Z</time>
      </trkpt>
      <trkpt lat="49.19684" lon="6.86605">
        <ele>261.5</ele>
        <time>2020-06-26T20:28:56Z</time>
      </trkpt>
      <trkpt lat="49.19682" lon="6.86609">
        <ele>261.5</ele>
        <time>2020-06-26T20:28:57Z</time>
      </trkpt>
      <trkpt lat="49.19681" lon="6.86614">
        <ele>261.6</ele>
        <time>2020-06-26T20:28:58Z</time>
      </trkpt>
      <trkpt lat="49.19679" lon="6.86621">
        <ele>261.7</ele>
        <time>2020-06-26T20:28:59Z</time>
      </trkpt>
      <trkpt lat="49.19678" lon="6.86627">
        <ele>261.8</ele>
        <time>2020-06-26T20:29:00Z</time>
      </trkpt>
      <trkpt lat="49.19675" lon="6.86631">
        <ele>262</ele>
        <time>2020-06-26T20:29:01Z</time>
      </trkpt>
      <trkpt lat="49.19675" lon="6.86636">
        <ele>262.1</ele>
        <time>2020-06-26T20:29:02Z</time>
      </trkpt>
      <trkpt lat="49.19673" lon="6.86641">
        <ele>262.3</ele>
        <time>2020-06-26T20:29:03Z</time>
      </trkpt>
      <trkpt lat="49.19672" lon="6.86647">
        <ele>262.5</ele>
        <time>2020-06-26T20:29:04Z</time>
      </trkpt>
      <trkpt lat="49.19671" lon="6.86652">
        <ele>262.6</ele>
        <time>2020-06-26T20:29:05Z</time>
      </trkpt>
      <trkpt lat="49.19669" lon="6.86657">
        <ele>262.7</ele>
        <time>2020-06-26T20:29:06Z</time>
      </trkpt>
      <trkpt lat="49.19668" lon="6.86662">
        <ele>262.8</ele>
        <time>2020-06-26T20:29:07Z</time>
      </trkpt>
      <trkpt lat="49.19666" lon="6.86667">
        <ele>262.9</ele>
        <time>2020-06-26T20:29:08Z</time>
      </trkpt>
      <trkpt lat="49.19665" lon="6.86672">
        <ele>263</ele>
        <time>2020-06-26T20:29:09Z</time>
      </trkpt>
      <trkpt lat="49.19664" lon="6.86677">
        <ele>263</ele>
        <time>2020-06-26T20:29:10Z</time>
      </trkpt>
      <trkpt lat="49.19662" lon="6.86682">
        <ele>263.1</ele>
        <time>2020-06-26T20:29:11Z</time>
      </trkpt>
      <trkpt lat="49.19661" lon="6.86686">
        <ele>263.2</ele>
        <time>2020-06-26T20:29:12Z</time>
      </trkpt>
      <trkpt lat="49.19659" lon="6.8669">
        <ele>263.3</ele>
        <time>2020-06-26T20:29:13Z</time>
      </trkpt>
      <trkpt lat="49.19658" lon="6.86694">
        <ele>263.3</ele>
        <time>2020-06-26T20:29:14Z</time>
      </trkpt>
      <trkpt lat="49.19657" lon="6.867">
        <ele>263.5</ele>
        <time>2020-06-26T20:29:15Z</time>
      </trkpt>
      <trkpt lat="49.19657" lon="6.86701">
        <ele>263.5</ele>
        <time>2020-06-26T20:29:16Z</time>
      </trkpt>
      <trkpt lat="49.19656" lon="6.86705">
        <ele>263.6</ele>
        <time>2020-06-26T20:29:17Z</time>
      </trkpt>
      <trkpt lat="49.19655" lon="6.86711">
        <ele>263.7</ele>
        <time>2020-06-26T20:29:18Z</time>
      </trkpt>
      <trkpt lat="49.19654" lon="6.86712">
        <ele>263.7</ele>
        <time>2020-06-26T20:29:19Z</time>
      </trkpt>
      <trkpt lat="49.19653" lon="6.86716">
        <ele>263.8</ele>
        <time>2020-06-26T20:29:20Z</time>
      </trkpt>
      <trkpt lat="49.19652" lon="6.86718">
        <ele>263.8</ele>
        <time>2020-06-26T20:29:21Z</time>
      </trkpt>
      <trkpt lat="49.19653" lon="6.86721">
        <ele>263.9</ele>
        <time>2020-06-26T20:29:22Z</time>
      </trkpt>
      <trkpt lat="49.19652" lon="6.86725">
        <ele>263.9</ele>
        <time>2020-06-26T20:29:23Z</time>
      </trkpt>
      <trkpt lat="49.19651" lon="6.86726">
        <ele>264</ele>
        <time>2020-06-26T20:29:24Z</time>
      </trkpt>
      <trkpt lat="49.19651" lon="6.86729">
        <ele>263.9</ele>
        <time>2020-06-26T20:29:25Z</time>
      </trkpt>
      <trkpt lat="49.19651" lon="6.86731">
        <ele>263.9</ele>
        <time>2020-06-26T20:29:26Z</time>
      </trkpt>
      <trkpt lat="49.19651" lon="6.86732">
        <ele>263.9</ele>
        <time>2020-06-26T20:29:27Z</time>
      </trkpt>
      <trkpt lat="49.19651" lon="6.86732">
        <ele>263.9</ele>
        <time>2020-06-26T20:29:28Z</time>
      </trkpt>
      <trkpt lat="49.19651" lon="6.86733">
        <ele>263.9</ele>
        <time>2020-06-26T20:29:29Z</time>
      </trkpt>
      <trkpt lat="49.19651" lon="6.86732">
        <ele>263.8</ele>
        <time>2020-06-26T20:29:30Z</time>
      </trkpt>
      <trkpt lat="49.1965" lon="6.86732">
        <ele>263.8</ele>
        <time>2020-06-26T20:29:31Z</time>
      </trkpt>
      <trkpt lat="49.19649" lon="6.86731">
        <ele>263.8</ele>
        <time>2020-06-26T20:29:32Z</time>
      </trkpt>
      <trkpt lat="49.19648" lon="6.86731">
        <ele>263.8</ele>
        <time>2020-06-26T20:29:33Z</time>
      </trkpt>
      <trkpt lat="49.19648" lon="6.86731">
        <ele>263.7</ele>
        <time>2020-06-26T20:29:34Z</time>
      </trkpt>
      <trkpt lat="49.19648" lon="6.86732">
        <ele>263.7</ele>
        <time>2020-06-26T20:29:35Z</time>
      </trkpt>
      <trkpt lat="49.19648" lon="6.86733">
        <ele>263.7</ele>
        <time>2020-06-26T20:29:36Z</time>
      </trkpt>
      <trkpt lat="49.19648" lon="6.86734">
        <ele>263.7</ele>
        <time>2020-06-26T20:29:37Z</time>
      </trkpt>
      <trkpt lat="49.19648" lon="6.86735">
        <ele>263.6</ele>
        <time>2020-06-26T20:29:38Z</time>
      </trkpt>
      <trkpt lat="49.19647" lon="6.86736">
        <ele>263.6</ele>
        <time>2020-06-26T20:29:39Z</time>
      </trkpt>
      <trkpt lat="49.19647" lon="6.86737">
        <ele>263.6</ele>
        <time>2020-06-26T20:29:40Z</time>
      </trkpt>
      <trkpt lat="49.19647" lon="6.86738">
        <ele>263.6</ele>
        <time>2020-06-26T20:29:41Z</time>
      </trkpt>
      <trkpt lat="49.19647" lon="6.86739">
        <ele>263.5</ele>
        <time>2020-06-26T20:29:42Z</time>
      </trkpt>
      <trkpt lat="49.19647" lon="6.8674">
        <ele>263.5</ele>
        <time>2020-06-26T20:29:43Z</time>
      </trkpt>
      <trkpt lat="49.19647" lon="6.86741">
        <ele>263.5</ele>
        <time>2020-06-26T20:29:44Z</time>
      </trkpt>
      <trkpt lat="49.19647" lon="6.86742">
        <ele>263.4</ele>
        <time>2020-06-26T20:29:45Z</time>
      </trkpt>
      <trkpt lat="49.19647" lon="6.86743">
        <ele>263.4</ele>
        <time>2020-06-26T20:29:59Z</time>
      </trkpt>
      <trkpt lat="49.19647" lon="6.86744">
        <ele>263.4</ele>
        <time>2020-06-26T20:30:00Z</time>
      </trkpt>
      <trkpt lat="49.19648" lon="6.8675">
        <ele>263.1</ele>
        <time>2020-06-26T20:30:01Z</time>
      </trkpt>
      <trkpt lat="49.19647" lon="6.86752">
        <ele>263.1</ele>
        <time>2020-06-26T20:30:02Z</time>
      </trkpt>
      <trkpt lat="49.19647" lon="6.86759">
        <ele>262.8</ele>
        <time>2020-06-26T20:30:03Z</time>
      </trkpt>
      <trkpt lat="49.19647" lon="6.86761">
        <ele>262.7</ele>
        <time>2020-06-26T20:30:04Z</time>
      </trkpt>
      <trkpt lat="49.19646" lon="6.86766">
        <ele>262.5</ele>
        <time>2020-06-26T20:30:05Z</time>
      </trkpt>
      <trkpt lat="49.19645" lon="6.86773">
        <ele>262.3</ele>
        <time>2020-06-26T20:30:06Z</time>
      </trkpt>
      <trkpt lat="49.19643" lon="6.86779">
        <ele>262</ele>
        <time>2020-06-26T20:30:07Z</time>
      </trkpt>
      <trkpt lat="49.19643" lon="6.86786">
        <ele>261.8</ele>
        <time>2020-06-26T20:30:08Z</time>
      </trkpt>
      <trkpt lat="49.19642" lon="6.86795">
        <ele>261.5</ele>
        <time>2020-06-26T20:30:09Z</time>
      </trkpt>
      <trkpt lat="49.19641" lon="6.86803">
        <ele>261.1</ele>
        <time>2020-06-26T20:30:10Z</time>
      </trkpt>
      <trkpt lat="49.1964" lon="6.86812">
        <ele>260.8</ele>
        <time>2020-06-26T20:30:11Z</time>
      </trkpt>
      <trkpt lat="49.19639" lon="6.86821">
        <ele>260.4</ele>
        <time>2020-06-26T20:30:12Z</time>
      </trkpt>
      <trkpt lat="49.19638" lon="6.86831">
        <ele>259.9</ele>
        <time>2020-06-26T20:30:13Z</time>
      </trkpt>
      <trkpt lat="49.19637" lon="6.86841">
        <ele>259.5</ele>
        <time>2020-06-26T20:30:14Z</time>
      </trkpt>
      <trkpt lat="49.19636" lon="6.86852">
        <ele>259</ele>
        <time>2020-06-26T20:30:15Z</time>
      </trkpt>
      <trkpt lat="49.19636" lon="6.86862">
        <ele>258.7</ele>
        <time>2020-06-26T20:30:16Z</time>
      </trkpt>
      <trkpt lat="49.19635" lon="6.86873">
        <ele>258.3</ele>
        <time>2020-06-26T20:30:17Z</time>
      </trkpt>
      <trkpt lat="49.19635" lon="6.86883">
        <ele>258</ele>
        <time>2020-06-26T20:30:18Z</time>
      </trkpt>
      <trkpt lat="49.19634" lon="6.86892">
        <ele>257.6</ele>
        <time>2020-06-26T20:30:19Z</time>
      </trkpt>
      <trkpt lat="49.19634" lon="6.86902">
        <ele>257.5</ele>
        <time>2020-06-26T20:30:20Z</time>
      </trkpt>
      <trkpt lat="49.19633" lon="6.86912">
        <ele>257.5</ele>
        <time>2020-06-26T20:30:21Z</time>
      </trkpt>
      <trkpt lat="49.19632" lon="6.86923">
        <ele>256</ele>
        <time>2020-06-26T20:30:22Z</time>
      </trkpt>
      <trkpt lat="49.19631" lon="6.86934">
        <ele>255</ele>
        <time>2020-06-26T20:30:23Z</time>
      </trkpt>
      <trkpt lat="49.1963" lon="6.86946">
        <ele>254</ele>
        <time>2020-06-26T20:30:24Z</time>
      </trkpt>
      <trkpt lat="49.19628" lon="6.86958">
        <ele>253</ele>
        <time>2020-06-26T20:30:25Z</time>
      </trkpt>
      <trkpt lat="49.19626" lon="6.8697">
        <ele>252</ele>
        <time>2020-06-26T20:30:26Z</time>
      </trkpt>
      <trkpt lat="49.19625" lon="6.86981">
        <ele>251.1</ele>
        <time>2020-06-26T20:30:27Z</time>
      </trkpt>
      <trkpt lat="49.19623" lon="6.86993">
        <ele>250.2</ele>
        <time>2020-06-26T20:30:28Z</time>
      </trkpt>
      <trkpt lat="49.19621" lon="6.87005">
        <ele>249.2</ele>
        <time>2020-06-26T20:30:29Z</time>
      </trkpt>
      <trkpt lat="49.19619" lon="6.87018">
        <ele>248</ele>
        <time>2020-06-26T20:30:30Z</time>
      </trkpt>
      <trkpt lat="49.19617" lon="6.87032">
        <ele>246.9</ele>
        <time>2020-06-26T20:30:31Z</time>
      </trkpt>
      <trkpt lat="49.19613" lon="6.87047">
        <ele>245.6</ele>
        <time>2020-06-26T20:30:32Z</time>
      </trkpt>
      <trkpt lat="49.19611" lon="6.87063">
        <ele>244.3</ele>
        <time>2020-06-26T20:30:33Z</time>
      </trkpt>
      <trkpt lat="49.19609" lon="6.87078">
        <ele>243.1</ele>
        <time>2020-06-26T20:30:34Z</time>
      </trkpt>
      <trkpt lat="49.19607" lon="6.87091">
        <ele>242</ele>
        <time>2020-06-26T20:30:35Z</time>
      </trkpt>
      <trkpt lat="49.19605" lon="6.87103">
        <ele>241</ele>
        <time>2020-06-26T20:30:36Z</time>
      </trkpt>
      <trkpt lat="49.19603" lon="6.87114">
        <ele>240.1</ele>
        <time>2020-06-26T20:30:37Z</time>
      </trkpt>
      <trkpt lat="49.196" lon="6.87124">
        <ele>239.2</ele>
        <time>2020-06-26T20:30:38Z</time>
      </trkpt>
      <trkpt lat="49.19599" lon="6.87134">
        <ele>238.4</ele>
        <time>2020-06-26T20:30:39Z</time>
      </trkpt>
      <trkpt lat="49.19598" lon="6.87146">
        <ele>237.6</ele>
        <time>2020-06-26T20:30:40Z</time>
      </trkpt>
      <trkpt lat="49.19596" lon="6.87158">
        <ele>236.7</ele>
        <time>2020-06-26T20:30:41Z</time>
      </trkpt>
      <trkpt lat="49.19594" lon="6.87171">
        <ele>235.8</ele>
        <time>2020-06-26T20:30:42Z</time>
      </trkpt>
      <trkpt lat="49.19591" lon="6.87184">
        <ele>234.8</ele>
        <time>2020-06-26T20:30:43Z</time>
      </trkpt>
      <trkpt lat="49.19589" lon="6.87196">
        <ele>233.7</ele>
        <time>2020-06-26T20:30:44Z</time>
      </trkpt>
      <trkpt lat="49.19586" lon="6.87209">
        <ele>232.6</ele>
        <time>2020-06-26T20:30:45Z</time>
      </trkpt>
      <trkpt lat="49.19584" lon="6.8722">
        <ele>231.5</ele>
        <time>2020-06-26T20:30:46Z</time>
      </trkpt>
      <trkpt lat="49.19582" lon="6.87231">
        <ele>230.6</ele>
        <time>2020-06-26T20:30:47Z</time>
      </trkpt>
      <trkpt lat="49.1958" lon="6.8724">
        <ele>229.8</ele>
        <time>2020-06-26T20:30:48Z</time>
      </trkpt>
      <trkpt lat="49.19579" lon="6.87248">
        <ele>229.1</ele>
        <time>2020-06-26T20:30:49Z</time>
      </trkpt>
      <trkpt lat="49.19577" lon="6.87255">
        <ele>228.5</ele>
        <time>2020-06-26T20:30:50Z</time>
      </trkpt>
      <trkpt lat="49.19575" lon="6.8726">
        <ele>227.6</ele>
        <time>2020-06-26T20:30:51Z</time>
      </trkpt>
      <trkpt lat="49.19573" lon="6.87267">
        <ele>227.2</ele>
        <time>2020-06-26T20:30:52Z</time>
      </trkpt>
      <trkpt lat="49.1957" lon="6.87274">
        <ele>226.7</ele>
        <time>2020-06-26T20:30:53Z</time>
      </trkpt>
      <trkpt lat="49.19567" lon="6.87283">
        <ele>226.1</ele>
        <time>2020-06-26T20:30:54Z</time>
      </trkpt>
      <trkpt lat="49.19565" lon="6.87293">
        <ele>225.5</ele>
        <time>2020-06-26T20:30:55Z</time>
      </trkpt>
      <trkpt lat="49.19563" lon="6.87304">
        <ele>224.9</ele>
        <time>2020-06-26T20:30:56Z</time>
      </trkpt>
      <trkpt lat="49.1956" lon="6.87315">
        <ele>224.3</ele>
        <time>2020-06-26T20:30:57Z</time>
      </trkpt>
      <trkpt lat="49.19559" lon="6.87326">
        <ele>223.8</ele>
        <time>2020-06-26T20:30:58Z</time>
      </trkpt>
      <trkpt lat="49.19557" lon="6.87338">
        <ele>223.2</ele>
        <time>2020-06-26T20:30:59Z</time>
      </trkpt>
      <trkpt lat="49.19555" lon="6.87349">
        <ele>222.7</ele>
        <time>2020-06-26T20:31:00Z</time>
      </trkpt>
      <trkpt lat="49.19553" lon="6.8736">
        <ele>222.2</ele>
        <time>2020-06-26T20:31:01Z</time>
      </trkpt>
      <trkpt lat="49.19552" lon="6.87371">
        <ele>221.9</ele>
        <time>2020-06-26T20:31:02Z</time>
      </trkpt>
      <trkpt lat="49.1955" lon="6.87382">
        <ele>221.5</ele>
        <time>2020-06-26T20:31:03Z</time>
      </trkpt>
      <trkpt lat="49.19548" lon="6.87394">
        <ele>221.1</ele>
        <time>2020-06-26T20:31:04Z</time>
      </trkpt>
      <trkpt lat="49.19545" lon="6.87406">
        <ele>220.7</ele>
        <time>2020-06-26T20:31:05Z</time>
      </trkpt>
      <trkpt lat="49.19542" lon="6.87418">
        <ele>220.3</ele>
        <time>2020-06-26T20:31:06Z</time>
      </trkpt>
      <trkpt lat="49.1954" lon="6.8743">
        <ele>220.1</ele>
        <time>2020-06-26T20:31:07Z</time>
      </trkpt>
      <trkpt lat="49.19536" lon="6.87442">
        <ele>219.9</ele>
        <time>2020-06-26T20:31:08Z</time>
      </trkpt>
      <trkpt lat="49.19535" lon="6.87453">
        <ele>219.8</ele>
        <time>2020-06-26T20:31:09Z</time>
      </trkpt>
      <trkpt lat="49.19533" lon="6.87464">
        <ele>219.6</ele>
        <time>2020-06-26T20:31:10Z</time>
      </trkpt>
      <trkpt lat="49.1953" lon="6.87475">
        <ele>219.3</ele>
        <time>2020-06-26T20:31:11Z</time>
      </trkpt>
      <trkpt lat="49.19528" lon="6.87487">
        <ele>218.9</ele>
        <time>2020-06-26T20:31:12Z</time>
      </trkpt>
      <trkpt lat="49.19527" lon="6.87499">
        <ele>218.7</ele>
        <time>2020-06-26T20:31:13Z</time>
      </trkpt>
      <trkpt lat="49.19526" lon="6.8751">
        <ele>218.4</ele>
        <time>2020-06-26T20:31:14Z</time>
      </trkpt>
      <trkpt lat="49.19525" lon="6.87522">
        <ele>218.2</ele>
        <time>2020-06-26T20:31:15Z</time>
      </trkpt>
      <trkpt lat="49.19524" lon="6.87533">
        <ele>218</ele>
        <time>2020-06-26T20:31:16Z</time>
      </trkpt>
      <trkpt lat="49.19524" lon="6.87543">
        <ele>217.4</ele>
        <time>2020-06-26T20:31:17Z</time>
      </trkpt>
      <trkpt lat="49.19523" lon="6.87554">
        <ele>216.6</ele>
        <time>2020-06-26T20:31:18Z</time>
      </trkpt>
      <trkpt lat="49.19522" lon="6.87564">
        <ele>216</ele>
        <time>2020-06-26T20:31:19Z</time>
      </trkpt>
      <trkpt lat="49.19521" lon="6.87574">
        <ele>215.6</ele>
        <time>2020-06-26T20:31:20Z</time>
      </trkpt>
      <trkpt lat="49.19521" lon="6.87584">
        <ele>215.3</ele>
        <time>2020-06-26T20:31:21Z</time>
      </trkpt>
      <trkpt lat="49.1952" lon="6.87594">
        <ele>215.1</ele>
        <time>2020-06-26T20:31:22Z</time>
      </trkpt>
      <trkpt lat="49.19519" lon="6.87603">
        <ele>214.8</ele>
        <time>2020-06-26T20:31:23Z</time>
      </trkpt>
      <trkpt lat="49.19518" lon="6.87613">
        <ele>214.6</ele>
        <time>2020-06-26T20:31:24Z</time>
      </trkpt>
      <trkpt lat="49.19517" lon="6.87622">
        <ele>214.3</ele>
        <time>2020-06-26T20:31:25Z</time>
      </trkpt>
      <trkpt lat="49.19517" lon="6.87631">
        <ele>214.1</ele>
        <time>2020-06-26T20:31:26Z</time>
      </trkpt>
      <trkpt lat="49.19515" lon="6.87641">
        <ele>213.9</ele>
        <time>2020-06-26T20:31:27Z</time>
      </trkpt>
      <trkpt lat="49.19515" lon="6.8765">
        <ele>213.8</ele>
        <time>2020-06-26T20:31:28Z</time>
      </trkpt>
      <trkpt lat="49.19514" lon="6.87659">
        <ele>213.7</ele>
        <time>2020-06-26T20:31:29Z</time>
      </trkpt>
      <trkpt lat="49.19513" lon="6.87668">
        <ele>213.5</ele>
        <time>2020-06-26T20:31:30Z</time>
      </trkpt>
      <trkpt lat="49.19512" lon="6.87677">
        <ele>213.4</ele>
        <time>2020-06-26T20:31:31Z</time>
      </trkpt>
      <trkpt lat="49.19512" lon="6.87686">
        <ele>213.3</ele>
        <time>2020-06-26T20:31:32Z</time>
      </trkpt>
      <trkpt lat="49.19511" lon="6.87695">
        <ele>213.2</ele>
        <time>2020-06-26T20:31:33Z</time>
      </trkpt>
      <trkpt lat="49.1951" lon="6.87704">
        <ele>213.1</ele>
        <time>2020-06-26T20:31:34Z</time>
      </trkpt>
      <trkpt lat="49.19509" lon="6.87712">
        <ele>213.1</ele>
        <time>2020-06-26T20:31:35Z</time>
      </trkpt>
      <trkpt lat="49.19508" lon="6.8772">
        <ele>213</ele>
        <time>2020-06-26T20:31:36Z</time>
      </trkpt>
      <trkpt lat="49.19507" lon="6.87728">
        <ele>212.9</ele>
        <time>2020-06-26T20:31:37Z</time>
      </trkpt>
      <trkpt lat="49.19505" lon="6.87736">
        <ele>212.8</ele>
        <time>2020-06-26T20:31:38Z</time>
      </trkpt>
      <trkpt lat="49.19504" lon="6.87744">
        <ele>212.7</ele>
        <time>2020-06-26T20:31:39Z</time>
      </trkpt>
      <trkpt lat="49.19503" lon="6.87751">
        <ele>212.7</ele>
        <time>2020-06-26T20:31:40Z</time>
      </trkpt>
      <trkpt lat="49.19502" lon="6.87759">
        <ele>212.6</ele>
        <time>2020-06-26T20:31:41Z</time>
      </trkpt>
      <trkpt lat="49.19501" lon="6.87766">
        <ele>212.6</ele>
        <time>2020-06-26T20:31:42Z</time>
      </trkpt>
      <trkpt lat="49.19499" lon="6.87772">
        <ele>212.5</ele>
        <time>2020-06-26T20:31:43Z</time>
      </trkpt>
      <trkpt lat="49.19495" lon="6.87777">
        <ele>212.5</ele>
        <time>2020-06-26T20:31:44Z</time>
      </trkpt>
      <trkpt lat="49.19493" lon="6.87784">
        <ele>212.5</ele>
        <time>2020-06-26T20:31:45Z</time>
      </trkpt>
      <trkpt lat="49.19492" lon="6.8779">
        <ele>212.5</ele>
        <time>2020-06-26T20:31:46Z</time>
      </trkpt>
      <trkpt lat="49.1949" lon="6.87796">
        <ele>212.5</ele>
        <time>2020-06-26T20:31:47Z</time>
      </trkpt>
      <trkpt lat="49.19489" lon="6.87801">
        <ele>212.6</ele>
        <time>2020-06-26T20:31:48Z</time>
      </trkpt>
      <trkpt lat="49.19488" lon="6.87807">
        <ele>212.6</ele>
        <time>2020-06-26T20:31:49Z</time>
      </trkpt>
      <trkpt lat="49.19486" lon="6.87812">
        <ele>212.7</ele>
        <time>2020-06-26T20:31:50Z</time>
      </trkpt>
      <trkpt lat="49.19484" lon="6.87818">
        <ele>212.7</ele>
        <time>2020-06-26T20:31:51Z</time>
      </trkpt>
      <trkpt lat="49.19483" lon="6.87825">
        <ele>212.7</ele>
        <time>2020-06-26T20:31:52Z</time>
      </trkpt>
      <trkpt lat="49.1948" lon="6.8783">
        <ele>212.7</ele>
        <time>2020-06-26T20:31:53Z</time>
      </trkpt>
      <trkpt lat="49.19479" lon="6.87837">
        <ele>212.8</ele>
        <time>2020-06-26T20:31:54Z</time>
      </trkpt>
      <trkpt lat="49.19478" lon="6.87843">
        <ele>212.8</ele>
        <time>2020-06-26T20:31:55Z</time>
      </trkpt>
      <trkpt lat="49.19476" lon="6.87848">
        <ele>212.9</ele>
        <time>2020-06-26T20:31:56Z</time>
      </trkpt>
      <trkpt lat="49.19474" lon="6.87854">
        <ele>213</ele>
        <time>2020-06-26T20:31:57Z</time>
      </trkpt>
      <trkpt lat="49.19473" lon="6.8786">
        <ele>213.1</ele>
        <time>2020-06-26T20:31:58Z</time>
      </trkpt>
      <trkpt lat="49.19471" lon="6.87865">
        <ele>213.2</ele>
        <time>2020-06-26T20:31:59Z</time>
      </trkpt>
      <trkpt lat="49.19469" lon="6.8787">
        <ele>213.3</ele>
        <time>2020-06-26T20:32:00Z</time>
      </trkpt>
      <trkpt lat="49.19468" lon="6.87875">
        <ele>213.4</ele>
        <time>2020-06-26T20:32:01Z</time>
      </trkpt>
      <trkpt lat="49.19467" lon="6.87879">
        <ele>213.5</ele>
        <time>2020-06-26T20:32:02Z</time>
      </trkpt>
      <trkpt lat="49.19466" lon="6.87884">
        <ele>213.7</ele>
        <time>2020-06-26T20:32:03Z</time>
      </trkpt>
      <trkpt lat="49.19465" lon="6.87889">
        <ele>213.8</ele>
        <time>2020-06-26T20:32:04Z</time>
      </trkpt>
      <trkpt lat="49.19464" lon="6.87894">
        <ele>213.9</ele>
        <time>2020-06-26T20:32:05Z</time>
      </trkpt>
      <trkpt lat="49.19463" lon="6.87899">
        <ele>214.1</ele>
        <time>2020-06-26T20:32:06Z</time>
      </trkpt>
      <trkpt lat="49.19462" lon="6.87904">
        <ele>214.3</ele>
        <time>2020-06-26T20:32:07Z</time>
      </trkpt>
      <trkpt lat="49.19461" lon="6.8791">
        <ele>214.5</ele>
        <time>2020-06-26T20:32:08Z</time>
      </trkpt>
      <trkpt lat="49.19459" lon="6.87915">
        <ele>214.7</ele>
        <time>2020-06-26T20:32:09Z</time>
      </trkpt>
      <trkpt lat="49.19458" lon="6.87921">
        <ele>214.9</ele>
        <time>2020-06-26T20:32:10Z</time>
      </trkpt>
      <trkpt lat="49.19457" lon="6.87926">
        <ele>215.1</ele>
        <time>2020-06-26T20:32:11Z</time>
      </trkpt>
      <trkpt lat="49.19456" lon="6.87931">
        <ele>215.3</ele>
        <time>2020-06-26T20:32:12Z</time>
      </trkpt>
      <trkpt lat="49.19455" lon="6.87936">
        <ele>215.4</ele>
        <time>2020-06-26T20:32:13Z</time>
      </trkpt>
      <trkpt lat="49.19453" lon="6.87941">
        <ele>215.6</ele>
        <time>2020-06-26T20:32:14Z</time>
      </trkpt>
      <trkpt lat="49.19452" lon="6.87946">
        <ele>215.7</ele>
        <time>2020-06-26T20:32:15Z</time>
      </trkpt>
      <trkpt lat="49.19451" lon="6.87951">
        <ele>215.8</ele>
        <time>2020-06-26T20:32:16Z</time>
      </trkpt>
      <trkpt lat="49.19449" lon="6.87956">
        <ele>216</ele>
        <time>2020-06-26T20:32:17Z</time>
      </trkpt>
      <trkpt lat="49.19447" lon="6.87961">
        <ele>216.1</ele>
        <time>2020-06-26T20:32:18Z</time>
      </trkpt>
      <trkpt lat="49.19446" lon="6.87966">
        <ele>216.3</ele>
        <time>2020-06-26T20:32:19Z</time>
      </trkpt>
      <trkpt lat="49.19444" lon="6.8797">
        <ele>216.4</ele>
        <time>2020-06-26T20:32:20Z</time>
      </trkpt>
      <trkpt lat="49.19443" lon="6.87974">
        <ele>216.5</ele>
        <time>2020-06-26T20:32:21Z</time>
      </trkpt>
      <trkpt lat="49.19442" lon="6.87979">
        <ele>216.6</ele>
        <time>2020-06-26T20:32:22Z</time>
      </trkpt>
      <trkpt lat="49.19441" lon="6.87985">
        <ele>216.8</ele>
        <time>2020-06-26T20:32:23Z</time>
      </trkpt>
      <trkpt lat="49.19439" lon="6.87993">
        <ele>216.9</ele>
        <time>2020-06-26T20:32:24Z</time>
      </trkpt>
      <trkpt lat="49.19438" lon="6.88">
        <ele>217</ele>
        <time>2020-06-26T20:32:25Z</time>
      </trkpt>
      <trkpt lat="49.19437" lon="6.88007">
        <ele>217.1</ele>
        <time>2020-06-26T20:32:26Z</time>
      </trkpt>
      <trkpt lat="49.19436" lon="6.88011">
        <ele>217.1</ele>
        <time>2020-06-26T20:32:27Z</time>
      </trkpt>
      <trkpt lat="49.19435" lon="6.88016">
        <ele>217.2</ele>
        <time>2020-06-26T20:32:28Z</time>
      </trkpt>
      <trkpt lat="49.19434" lon="6.88024">
        <ele>217.2</ele>
        <time>2020-06-26T20:32:29Z</time>
      </trkpt>
      <trkpt lat="49.19432" lon="6.88031">
        <ele>217.3</ele>
        <time>2020-06-26T20:32:30Z</time>
      </trkpt>
      <trkpt lat="49.19431" lon="6.8804">
        <ele>217.4</ele>
        <time>2020-06-26T20:32:31Z</time>
      </trkpt>
      <trkpt lat="49.1943" lon="6.88047">
        <ele>217.4</ele>
        <time>2020-06-26T20:32:32Z</time>
      </trkpt>
      <trkpt lat="49.19428" lon="6.88055">
        <ele>217.4</ele>
        <time>2020-06-26T20:32:33Z</time>
      </trkpt>
      <trkpt lat="49.19427" lon="6.88062">
        <ele>217.4</ele>
        <time>2020-06-26T20:32:34Z</time>
      </trkpt>
      <trkpt lat="49.19426" lon="6.88067">
        <ele>217.4</ele>
        <time>2020-06-26T20:32:35Z</time>
      </trkpt>
      <trkpt lat="49.19425" lon="6.88073">
        <ele>217.4</ele>
        <time>2020-06-26T20:32:36Z</time>
      </trkpt>
      <trkpt lat="49.19424" lon="6.88081">
        <ele>217.4</ele>
        <time>2020-06-26T20:32:37Z</time>
      </trkpt>
      <trkpt lat="49.19422" lon="6.88087">
        <ele>217.4</ele>
        <time>2020-06-26T20:32:38Z</time>
      </trkpt>
      <trkpt lat="49.1942" lon="6.88094">
        <ele>217.5</ele>
        <time>2020-06-26T20:32:39Z</time>
      </trkpt>
      <trkpt lat="49.19419" lon="6.881">
        <ele>217.5</ele>
        <time>2020-06-26T20:32:40Z</time>
      </trkpt>
      <trkpt lat="49.19417" lon="6.88108">
        <ele>217.6</ele>
        <time>2020-06-26T20:32:41Z</time>
      </trkpt>
      <trkpt lat="49.19415" lon="6.88115">
        <ele>217.6</ele>
        <time>2020-06-26T20:32:42Z</time>
      </trkpt>
      <trkpt lat="49.19414" lon="6.88122">
        <ele>217.7</ele>
        <time>2020-06-26T20:32:43Z</time>
      </trkpt>
      <trkpt lat="49.19411" lon="6.8813">
        <ele>217.8</ele>
        <time>2020-06-26T20:32:44Z</time>
      </trkpt>
      <trkpt lat="49.1941" lon="6.88137">
        <ele>217.8</ele>
        <time>2020-06-26T20:32:45Z</time>
      </trkpt>
      <trkpt lat="49.19408" lon="6.88143">
        <ele>217.9</ele>
        <time>2020-06-26T20:32:46Z</time>
      </trkpt>
      <trkpt lat="49.19406" lon="6.88149">
        <ele>218</ele>
        <time>2020-06-26T20:32:47Z</time>
      </trkpt>
      <trkpt lat="49.19404" lon="6.88154">
        <ele>218.1</ele>
        <time>2020-06-26T20:32:48Z</time>
      </trkpt>
      <trkpt lat="49.19403" lon="6.88159">
        <ele>218.2</ele>
        <time>2020-06-26T20:32:49Z</time>
      </trkpt>
      <trkpt lat="49.19402" lon="6.88164">
        <ele>218.3</ele>
        <time>2020-06-26T20:32:50Z</time>
      </trkpt>
      <trkpt lat="49.194" lon="6.88169">
        <ele>218.5</ele>
        <time>2020-06-26T20:32:51Z</time>
      </trkpt>
      <trkpt lat="49.19399" lon="6.88173">
        <ele>218.7</ele>
        <time>2020-06-26T20:32:52Z</time>
      </trkpt>
      <trkpt lat="49.19397" lon="6.88178">
        <ele>218.9</ele>
        <time>2020-06-26T20:32:53Z</time>
      </trkpt>
      <trkpt lat="49.19396" lon="6.88184">
        <ele>219.1</ele>
        <time>2020-06-26T20:32:54Z</time>
      </trkpt>
      <trkpt lat="49.19395" lon="6.88188">
        <ele>219.3</ele>
        <time>2020-06-26T20:32:55Z</time>
      </trkpt>
      <trkpt lat="49.19393" lon="6.88193">
        <ele>219.5</ele>
        <time>2020-06-26T20:32:56Z</time>
      </trkpt>
      <trkpt lat="49.19392" lon="6.88197">
        <ele>219.7</ele>
        <time>2020-06-26T20:32:57Z</time>
      </trkpt>
      <trkpt lat="49.19389" lon="6.88201">
        <ele>219.9</ele>
        <time>2020-06-26T20:32:58Z</time>
      </trkpt>
      <trkpt lat="49.19387" lon="6.88205">
        <ele>220.1</ele>
        <time>2020-06-26T20:32:59Z</time>
      </trkpt>
      <trkpt lat="49.19385" lon="6.8821">
        <ele>220.3</ele>
        <time>2020-06-26T20:33:00Z</time>
      </trkpt>
      <trkpt lat="49.19382" lon="6.88214">
        <ele>220.6</ele>
        <time>2020-06-26T20:33:01Z</time>
      </trkpt>
      <trkpt lat="49.1938" lon="6.88218">
        <ele>220.7</ele>
        <time>2020-06-26T20:33:02Z</time>
      </trkpt>
      <trkpt lat="49.19378" lon="6.88223">
        <ele>221</ele>
        <time>2020-06-26T20:33:03Z</time>
      </trkpt>
      <trkpt lat="49.19375" lon="6.88227">
        <ele>221.2</ele>
        <time>2020-06-26T20:33:04Z</time>
      </trkpt>
      <trkpt lat="49.19371" lon="6.88231">
        <ele>221.4</ele>
        <time>2020-06-26T20:33:05Z</time>
      </trkpt>
      <trkpt lat="49.19368" lon="6.88234">
        <ele>221.6</ele>
        <time>2020-06-26T20:33:06Z</time>
      </trkpt>
      <trkpt lat="49.19364" lon="6.88237">
        <ele>221.8</ele>
        <time>2020-06-26T20:33:07Z</time>
      </trkpt>
      <trkpt lat="49.1936" lon="6.88239">
        <ele>222.1</ele>
        <time>2020-06-26T20:33:08Z</time>
      </trkpt>
      <trkpt lat="49.19356" lon="6.8824">
        <ele>222.4</ele>
        <time>2020-06-26T20:33:09Z</time>
      </trkpt>
      <trkpt lat="49.19355" lon="6.88241">
        <ele>222.5</ele>
        <time>2020-06-26T20:33:10Z</time>
      </trkpt>
      <trkpt lat="49.19351" lon="6.88243">
        <ele>222.7</ele>
        <time>2020-06-26T20:33:11Z</time>
      </trkpt>
      <trkpt lat="49.1935" lon="6.88244">
        <ele>222.8</ele>
        <time>2020-06-26T20:33:12Z</time>
      </trkpt>
      <trkpt lat="49.19347" lon="6.88246">
        <ele>223.2</ele>
        <time>2020-06-26T20:33:13Z</time>
      </trkpt>
      <trkpt lat="49.19345" lon="6.88247">
        <ele>223.3</ele>
        <time>2020-06-26T20:33:14Z</time>
      </trkpt>
      <trkpt lat="49.19343" lon="6.8825">
        <ele>223.5</ele>
        <time>2020-06-26T20:33:15Z</time>
      </trkpt>
      <trkpt lat="49.1934" lon="6.88253">
        <ele>223.7</ele>
        <time>2020-06-26T20:33:16Z</time>
      </trkpt>
      <trkpt lat="49.19338" lon="6.88256">
        <ele>224</ele>
        <time>2020-06-26T20:33:17Z</time>
      </trkpt>
      <trkpt lat="49.19335" lon="6.8826">
        <ele>224.3</ele>
        <time>2020-06-26T20:33:18Z</time>
      </trkpt>
      <trkpt lat="49.19333" lon="6.88264">
        <ele>224.5</ele>
        <time>2020-06-26T20:33:19Z</time>
      </trkpt>
      <trkpt lat="49.1933" lon="6.88268">
        <ele>224.8</ele>
        <time>2020-06-26T20:33:20Z</time>
      </trkpt>
      <trkpt lat="49.19328" lon="6.88272">
        <ele>225</ele>
        <time>2020-06-26T20:33:21Z</time>
      </trkpt>
      <trkpt lat="49.19325" lon="6.88276">
        <ele>225.3</ele>
        <time>2020-06-26T20:33:22Z</time>
      </trkpt>
      <trkpt lat="49.19323" lon="6.8828">
        <ele>225.5</ele>
        <time>2020-06-26T20:33:23Z</time>
      </trkpt>
      <trkpt lat="49.19321" lon="6.88283">
        <ele>225.7</ele>
        <time>2020-06-26T20:33:24Z</time>
      </trkpt>
      <trkpt lat="49.19319" lon="6.88287">
        <ele>226</ele>
        <time>2020-06-26T20:33:25Z</time>
      </trkpt>
      <trkpt lat="49.19317" lon="6.88291">
        <ele>226.2</ele>
        <time>2020-06-26T20:33:26Z</time>
      </trkpt>
      <trkpt lat="49.19315" lon="6.88295">
        <ele>226.5</ele>
        <time>2020-06-26T20:33:27Z</time>
      </trkpt>
      <trkpt lat="49.19313" lon="6.88298">
        <ele>226.7</ele>
        <time>2020-06-26T20:33:28Z</time>
      </trkpt>
      <trkpt lat="49.19311" lon="6.88303">
        <ele>226.9</ele>
        <time>2020-06-26T20:33:29Z</time>
      </trkpt>
      <trkpt lat="49.19311" lon="6.88305">
        <ele>227</ele>
        <time>2020-06-26T20:33:30Z</time>
      </trkpt>
      <trkpt lat="49.1931" lon="6.8831">
        <ele>227.3</ele>
        <time>2020-06-26T20:33:31Z</time>
      </trkpt>
      <trkpt lat="49.19307" lon="6.88313">
        <ele>227.5</ele>
        <time>2020-06-26T20:33:32Z</time>
      </trkpt>
      <trkpt lat="49.19304" lon="6.88317">
        <ele>227.8</ele>
        <time>2020-06-26T20:33:33Z</time>
      </trkpt>
      <trkpt lat="49.19303" lon="6.88321">
        <ele>228.1</ele>
        <time>2020-06-26T20:33:34Z</time>
      </trkpt>
      <trkpt lat="49.193" lon="6.88325">
        <ele>228.4</ele>
        <time>2020-06-26T20:33:35Z</time>
      </trkpt>
      <trkpt lat="49.19299" lon="6.88326">
        <ele>228.5</ele>
        <time>2020-06-26T20:33:36Z</time>
      </trkpt>
      <trkpt lat="49.19298" lon="6.8833">
        <ele>228.7</ele>
        <time>2020-06-26T20:33:37Z</time>
      </trkpt>
      <trkpt lat="49.19295" lon="6.88335">
        <ele>229.1</ele>
        <time>2020-06-26T20:33:38Z</time>
      </trkpt>
      <trkpt lat="49.19294" lon="6.88337">
        <ele>229.3</ele>
        <time>2020-06-26T20:33:39Z</time>
      </trkpt>
      <trkpt lat="49.19292" lon="6.8834">
        <ele>229.5</ele>
        <time>2020-06-26T20:33:40Z</time>
      </trkpt>
      <trkpt lat="49.1929" lon="6.88343">
        <ele>229.8</ele>
        <time>2020-06-26T20:33:41Z</time>
      </trkpt>
      <trkpt lat="49.19288" lon="6.88346">
        <ele>230</ele>
        <time>2020-06-26T20:33:42Z</time>
      </trkpt>
      <trkpt lat="49.19287" lon="6.88352">
        <ele>230.4</ele>
        <time>2020-06-26T20:33:43Z</time>
      </trkpt>
      <trkpt lat="49.19285" lon="6.88357">
        <ele>230.7</ele>
        <time>2020-06-26T20:33:44Z</time>
      </trkpt>
      <trkpt lat="49.19284" lon="6.88359">
        <ele>230.8</ele>
        <time>2020-06-26T20:33:45Z</time>
      </trkpt>
      <trkpt lat="49.19282" lon="6.88362">
        <ele>231.1</ele>
        <time>2020-06-26T20:33:46Z</time>
      </trkpt>
      <trkpt lat="49.19282" lon="6.88363">
        <ele>231.2</ele>
        <time>2020-06-26T20:33:47Z</time>
      </trkpt>
      <trkpt lat="49.1928" lon="6.88368">
        <ele>231.4</ele>
        <time>2020-06-26T20:33:48Z</time>
      </trkpt>
      <trkpt lat="49.19279" lon="6.88372">
        <ele>231.7</ele>
        <time>2020-06-26T20:33:49Z</time>
      </trkpt>
      <trkpt lat="49.19277" lon="6.88377">
        <ele>231.9</ele>
        <time>2020-06-26T20:33:50Z</time>
      </trkpt>
      <trkpt lat="49.19276" lon="6.88381">
        <ele>232.1</ele>
        <time>2020-06-26T20:33:51Z</time>
      </trkpt>
      <trkpt lat="49.19274" lon="6.88386">
        <ele>232.3</ele>
        <time>2020-06-26T20:33:52Z</time>
      </trkpt>
      <trkpt lat="49.19273" lon="6.88388">
        <ele>232.4</ele>
        <time>2020-06-26T20:33:53Z</time>
      </trkpt>
      <trkpt lat="49.19272" lon="6.88393">
        <ele>232.6</ele>
        <time>2020-06-26T20:33:54Z</time>
      </trkpt>
      <trkpt lat="49.19271" lon="6.88398">
        <ele>233</ele>
        <time>2020-06-26T20:33:55Z</time>
      </trkpt>
      <trkpt lat="49.19271" lon="6.884">
        <ele>233</ele>
        <time>2020-06-26T20:33:56Z</time>
      </trkpt>
      <trkpt lat="49.19271" lon="6.88405">
        <ele>233.3</ele>
        <time>2020-06-26T20:33:57Z</time>
      </trkpt>
      <trkpt lat="49.1927" lon="6.88407">
        <ele>233.4</ele>
        <time>2020-06-26T20:33:58Z</time>
      </trkpt>
      <trkpt lat="49.19271" lon="6.88413">
        <ele>233.6</ele>
        <time>2020-06-26T20:33:59Z</time>
      </trkpt>
      <trkpt lat="49.19271" lon="6.88415">
        <ele>233.7</ele>
        <time>2020-06-26T20:34:00Z</time>
      </trkpt>
      <trkpt lat="49.1927" lon="6.88419">
        <ele>233.9</ele>
        <time>2020-06-26T20:34:01Z</time>
      </trkpt>
      <trkpt lat="49.19268" lon="6.88423">
        <ele>234.3</ele>
        <time>2020-06-26T20:34:02Z</time>
      </trkpt>
      <trkpt lat="49.19267" lon="6.88425">
        <ele>234.4</ele>
        <time>2020-06-26T20:34:03Z</time>
      </trkpt>
      <trkpt lat="49.19266" lon="6.88428">
        <ele>234.5</ele>
        <time>2020-06-26T20:34:04Z</time>
      </trkpt>
      <trkpt lat="49.19264" lon="6.88432">
        <ele>234.6</ele>
        <time>2020-06-26T20:34:05Z</time>
      </trkpt>
      <trkpt lat="49.19262" lon="6.88436">
        <ele>234.7</ele>
        <time>2020-06-26T20:34:06Z</time>
      </trkpt>
      <trkpt lat="49.19261" lon="6.88437">
        <ele>234.7</ele>
        <time>2020-06-26T20:34:07Z</time>
      </trkpt>
      <trkpt lat="49.19261" lon="6.88442">
        <ele>234.8</ele>
        <time>2020-06-26T20:34:08Z</time>
      </trkpt>
      <trkpt lat="49.19259" lon="6.88447">
        <ele>235</ele>
        <time>2020-06-26T20:34:09Z</time>
      </trkpt>
      <trkpt lat="49.19259" lon="6.88449">
        <ele>235</ele>
        <time>2020-06-26T20:34:10Z</time>
      </trkpt>
      <trkpt lat="49.19259" lon="6.88454">
        <ele>235.2</ele>
        <time>2020-06-26T20:34:11Z</time>
      </trkpt>
      <trkpt lat="49.19258" lon="6.88456">
        <ele>235.3</ele>
        <time>2020-06-26T20:34:12Z</time>
      </trkpt>
      <trkpt lat="49.19258" lon="6.88461">
        <ele>235.4</ele>
        <time>2020-06-26T20:34:13Z</time>
      </trkpt>
      <trkpt lat="49.19258" lon="6.88462">
        <ele>235.5</ele>
        <time>2020-06-26T20:34:14Z</time>
      </trkpt>
      <trkpt lat="49.19257" lon="6.88467">
        <ele>235.6</ele>
        <time>2020-06-26T20:34:15Z</time>
      </trkpt>
      <trkpt lat="49.19256" lon="6.88469">
        <ele>235.6</ele>
        <time>2020-06-26T20:34:16Z</time>
      </trkpt>
      <trkpt lat="49.19258" lon="6.88474">
        <ele>235.6</ele>
        <time>2020-06-26T20:34:17Z</time>
      </trkpt>
      <trkpt lat="49.19258" lon="6.88476">
        <ele>235.6</ele>
        <time>2020-06-26T20:34:18Z</time>
      </trkpt>
      <trkpt lat="49.1926" lon="6.88479">
        <ele>235.6</ele>
        <time>2020-06-26T20:34:19Z</time>
      </trkpt>
      <trkpt lat="49.19262" lon="6.88483">
        <ele>235.8</ele>
        <time>2020-06-26T20:34:20Z</time>
      </trkpt>
      <trkpt lat="49.19264" lon="6.88487">
        <ele>236</ele>
        <time>2020-06-26T20:34:21Z</time>
      </trkpt>
      <trkpt lat="49.19266" lon="6.88491">
        <ele>236.2</ele>
        <time>2020-06-26T20:34:22Z</time>
      </trkpt>
      <trkpt lat="49.19267" lon="6.88495">
        <ele>236.3</ele>
        <time>2020-06-26T20:34:23Z</time>
      </trkpt>
      <trkpt lat="49.1927" lon="6.88498">
        <ele>236.5</ele>
        <time>2020-06-26T20:34:24Z</time>
      </trkpt>
      <trkpt lat="49.19271" lon="6.885">
        <ele>236.6</ele>
        <time>2020-06-26T20:34:25Z</time>
      </trkpt>
      <trkpt lat="49.19273" lon="6.885">
        <ele>236.7</ele>
        <time>2020-06-26T20:34:26Z</time>
      </trkpt>
      <trkpt lat="49.19274" lon="6.88501">
        <ele>236.8</ele>
        <time>2020-06-26T20:34:27Z</time>
      </trkpt>
      <trkpt lat="49.19276" lon="6.88502">
        <ele>236.9</ele>
        <time>2020-06-26T20:34:28Z</time>
      </trkpt>
      <trkpt lat="49.19278" lon="6.88504">
        <ele>237.1</ele>
        <time>2020-06-26T20:34:29Z</time>
      </trkpt>
      <trkpt lat="49.19279" lon="6.88506">
        <ele>237.1</ele>
        <time>2020-06-26T20:34:30Z</time>
      </trkpt>
      <trkpt lat="49.19282" lon="6.8851">
        <ele>237.3</ele>
        <time>2020-06-26T20:34:31Z</time>
      </trkpt>
      <trkpt lat="49.19283" lon="6.88511">
        <ele>237.4</ele>
        <time>2020-06-26T20:34:32Z</time>
      </trkpt>
      <trkpt lat="49.19287" lon="6.88514">
        <ele>237.4</ele>
        <time>2020-06-26T20:34:33Z</time>
      </trkpt>
      <trkpt lat="49.19288" lon="6.88515">
        <ele>237.5</ele>
        <time>2020-06-26T20:34:34Z</time>
      </trkpt>
      <trkpt lat="49.1929" lon="6.8852">
        <ele>237.5</ele>
        <time>2020-06-26T20:34:35Z</time>
      </trkpt>
      <trkpt lat="49.19293" lon="6.88525">
        <ele>237.6</ele>
        <time>2020-06-26T20:34:36Z</time>
      </trkpt>
      <trkpt lat="49.19294" lon="6.88529">
        <ele>237.6</ele>
        <time>2020-06-26T20:34:37Z</time>
      </trkpt>
      <trkpt lat="49.19295" lon="6.88534">
        <ele>237.7</ele>
        <time>2020-06-26T20:34:38Z</time>
      </trkpt>
      <trkpt lat="49.19296" lon="6.8854">
        <ele>237.8</ele>
        <time>2020-06-26T20:34:39Z</time>
      </trkpt>
      <trkpt lat="49.19297" lon="6.88546">
        <ele>238</ele>
        <time>2020-06-26T20:34:40Z</time>
      </trkpt>
      <trkpt lat="49.19297" lon="6.88551">
        <ele>238.1</ele>
        <time>2020-06-26T20:34:41Z</time>
      </trkpt>
      <trkpt lat="49.19297" lon="6.88555">
        <ele>238.2</ele>
        <time>2020-06-26T20:34:42Z</time>
      </trkpt>
      <trkpt lat="49.19296" lon="6.8856">
        <ele>238.3</ele>
        <time>2020-06-26T20:34:43Z</time>
      </trkpt>
      <trkpt lat="49.19295" lon="6.88564">
        <ele>238.4</ele>
        <time>2020-06-26T20:34:44Z</time>
      </trkpt>
      <trkpt lat="49.19294" lon="6.88567">
        <ele>238.6</ele>
        <time>2020-06-26T20:34:45Z</time>
      </trkpt>
      <trkpt lat="49.19293" lon="6.88573">
        <ele>238.8</ele>
        <time>2020-06-26T20:34:46Z</time>
      </trkpt>
      <trkpt lat="49.19293" lon="6.88575">
        <ele>238.9</ele>
        <time>2020-06-26T20:34:47Z</time>
      </trkpt>
      <trkpt lat="49.19292" lon="6.88577">
        <ele>239</ele>
        <time>2020-06-26T20:34:48Z</time>
      </trkpt>
      <trkpt lat="49.19291" lon="6.8858">
        <ele>239.1</ele>
        <time>2020-06-26T20:34:49Z</time>
      </trkpt>
      <trkpt lat="49.19289" lon="6.88584">
        <ele>239.3</ele>
        <time>2020-06-26T20:34:50Z</time>
      </trkpt>
      <trkpt lat="49.19289" lon="6.88586">
        <ele>239.3</ele>
        <time>2020-06-26T20:34:51Z</time>
      </trkpt>
      <trkpt lat="49.19287" lon="6.8859">
        <ele>239.5</ele>
        <time>2020-06-26T20:34:52Z</time>
      </trkpt>
      <trkpt lat="49.19287" lon="6.88591">
        <ele>239.5</ele>
        <time>2020-06-26T20:34:53Z</time>
      </trkpt>
      <trkpt lat="49.19285" lon="6.88595">
        <ele>239.6</ele>
        <time>2020-06-26T20:34:54Z</time>
      </trkpt>
      <trkpt lat="49.19285" lon="6.88596">
        <ele>239.7</ele>
        <time>2020-06-26T20:34:55Z</time>
      </trkpt>
      <trkpt lat="49.19284" lon="6.886">
        <ele>239.8</ele>
        <time>2020-06-26T20:34:56Z</time>
      </trkpt>
      <trkpt lat="49.19283" lon="6.88601">
        <ele>239.8</ele>
        <time>2020-06-26T20:34:57Z</time>
      </trkpt>
      <trkpt lat="49.19282" lon="6.88605">
        <ele>239.8</ele>
        <time>2020-06-26T20:34:58Z</time>
      </trkpt>
      <trkpt lat="49.1928" lon="6.88609">
        <ele>239.9</ele>
        <time>2020-06-26T20:34:59Z</time>
      </trkpt>
      <trkpt lat="49.19279" lon="6.88613">
        <ele>240</ele>
        <time>2020-06-26T20:35:00Z</time>
      </trkpt>
      <trkpt lat="49.19276" lon="6.88617">
        <ele>240</ele>
        <time>2020-06-26T20:35:01Z</time>
      </trkpt>
      <trkpt lat="49.19273" lon="6.88619">
        <ele>240.1</ele>
        <time>2020-06-26T20:35:02Z</time>
      </trkpt>
      <trkpt lat="49.1927" lon="6.88624">
        <ele>240.2</ele>
        <time>2020-06-26T20:35:03Z</time>
      </trkpt>
      <trkpt lat="49.19269" lon="6.88628">
        <ele>240.2</ele>
        <time>2020-06-26T20:35:04Z</time>
      </trkpt>
      <trkpt lat="49.19267" lon="6.88632">
        <ele>240.2</ele>
        <time>2020-06-26T20:35:05Z</time>
      </trkpt>
      <trkpt lat="49.19265" lon="6.88637">
        <ele>240.2</ele>
        <time>2020-06-26T20:35:06Z</time>
      </trkpt>
      <trkpt lat="49.19263" lon="6.88641">
        <ele>240.2</ele>
        <time>2020-06-26T20:35:07Z</time>
      </trkpt>
      <trkpt lat="49.1926" lon="6.88646">
        <ele>240.1</ele>
        <time>2020-06-26T20:35:08Z</time>
      </trkpt>
      <trkpt lat="49.19258" lon="6.88651">
        <ele>240</ele>
        <time>2020-06-26T20:35:09Z</time>
      </trkpt>
      <trkpt lat="49.19255" lon="6.88655">
        <ele>239.9</ele>
        <time>2020-06-26T20:35:10Z</time>
      </trkpt>
      <trkpt lat="49.19252" lon="6.88662">
        <ele>239.8</ele>
        <time>2020-06-26T20:35:11Z</time>
      </trkpt>
      <trkpt lat="49.19249" lon="6.88668">
        <ele>239.6</ele>
        <time>2020-06-26T20:35:12Z</time>
      </trkpt>
      <trkpt lat="49.19245" lon="6.88675">
        <ele>239.3</ele>
        <time>2020-06-26T20:35:13Z</time>
      </trkpt>
      <trkpt lat="49.19241" lon="6.88682">
        <ele>239</ele>
        <time>2020-06-26T20:35:14Z</time>
      </trkpt>
      <trkpt lat="49.19237" lon="6.8869">
        <ele>238.7</ele>
        <time>2020-06-26T20:35:15Z</time>
      </trkpt>
      <trkpt lat="49.19233" lon="6.88697">
        <ele>238.3</ele>
        <time>2020-06-26T20:35:16Z</time>
      </trkpt>
      <trkpt lat="49.19229" lon="6.88705">
        <ele>238</ele>
        <time>2020-06-26T20:35:17Z</time>
      </trkpt>
      <trkpt lat="49.19225" lon="6.88713">
        <ele>237.6</ele>
        <time>2020-06-26T20:35:18Z</time>
      </trkpt>
      <trkpt lat="49.1922" lon="6.88723">
        <ele>237.1</ele>
        <time>2020-06-26T20:35:19Z</time>
      </trkpt>
      <trkpt lat="49.19215" lon="6.88732">
        <ele>236.7</ele>
        <time>2020-06-26T20:35:20Z</time>
      </trkpt>
      <trkpt lat="49.1921" lon="6.88742">
        <ele>235.9</ele>
        <time>2020-06-26T20:35:21Z</time>
      </trkpt>
      <trkpt lat="49.19206" lon="6.88751">
        <ele>235.4</ele>
        <time>2020-06-26T20:35:22Z</time>
      </trkpt>
      <trkpt lat="49.19202" lon="6.88759">
        <ele>235</ele>
        <time>2020-06-26T20:35:23Z</time>
      </trkpt>
      <trkpt lat="49.19197" lon="6.88768">
        <ele>234.5</ele>
        <time>2020-06-26T20:35:24Z</time>
      </trkpt>
      <trkpt lat="49.19191" lon="6.88777">
        <ele>234.1</ele>
        <time>2020-06-26T20:35:25Z</time>
      </trkpt>
      <trkpt lat="49.19187" lon="6.88785">
        <ele>233.8</ele>
        <time>2020-06-26T20:35:26Z</time>
      </trkpt>
      <trkpt lat="49.19182" lon="6.88793">
        <ele>233.4</ele>
        <time>2020-06-26T20:35:27Z</time>
      </trkpt>
      <trkpt lat="49.19177" lon="6.88802">
        <ele>233</ele>
        <time>2020-06-26T20:35:28Z</time>
      </trkpt>
      <trkpt lat="49.19172" lon="6.8881">
        <ele>232.5</ele>
        <time>2020-06-26T20:35:29Z</time>
      </trkpt>
      <trkpt lat="49.19168" lon="6.88818">
        <ele>232.1</ele>
        <time>2020-06-26T20:35:30Z</time>
      </trkpt>
      <trkpt lat="49.19163" lon="6.88827">
        <ele>231.7</ele>
        <time>2020-06-26T20:35:31Z</time>
      </trkpt>
      <trkpt lat="49.19158" lon="6.88835">
        <ele>231.3</ele>
        <time>2020-06-26T20:35:32Z</time>
      </trkpt>
      <trkpt lat="49.19154" lon="6.88844">
        <ele>230.9</ele>
        <time>2020-06-26T20:35:33Z</time>
      </trkpt>
      <trkpt lat="49.19149" lon="6.88851">
        <ele>230.4</ele>
        <time>2020-06-26T20:35:34Z</time>
      </trkpt>
      <trkpt lat="49.19145" lon="6.88859">
        <ele>229.9</ele>
        <time>2020-06-26T20:35:35Z</time>
      </trkpt>
      <trkpt lat="49.19141" lon="6.88866">
        <ele>229.5</ele>
        <time>2020-06-26T20:35:36Z</time>
      </trkpt>
      <trkpt lat="49.19137" lon="6.88874">
        <ele>229.2</ele>
        <time>2020-06-26T20:35:37Z</time>
      </trkpt>
      <trkpt lat="49.19132" lon="6.88882">
        <ele>228.8</ele>
        <time>2020-06-26T20:35:38Z</time>
      </trkpt>
      <trkpt lat="49.19127" lon="6.8889">
        <ele>228.4</ele>
        <time>2020-06-26T20:35:39Z</time>
      </trkpt>
      <trkpt lat="49.19123" lon="6.88898">
        <ele>228</ele>
        <time>2020-06-26T20:35:40Z</time>
      </trkpt>
      <trkpt lat="49.19117" lon="6.88907">
        <ele>227.5</ele>
        <time>2020-06-26T20:35:41Z</time>
      </trkpt>
      <trkpt lat="49.19112" lon="6.88914">
        <ele>227.1</ele>
        <time>2020-06-26T20:35:42Z</time>
      </trkpt>
      <trkpt lat="49.19108" lon="6.88923">
        <ele>226.7</ele>
        <time>2020-06-26T20:35:43Z</time>
      </trkpt>
      <trkpt lat="49.19103" lon="6.88932">
        <ele>226.2</ele>
        <time>2020-06-26T20:35:44Z</time>
      </trkpt>
      <trkpt lat="49.19099" lon="6.88941">
        <ele>225.7</ele>
        <time>2020-06-26T20:35:45Z</time>
      </trkpt>
      <trkpt lat="49.19094" lon="6.88949">
        <ele>225.3</ele>
        <time>2020-06-26T20:35:46Z</time>
      </trkpt>
      <trkpt lat="49.1909" lon="6.88958">
        <ele>224.9</ele>
        <time>2020-06-26T20:35:47Z</time>
      </trkpt>
      <trkpt lat="49.19085" lon="6.88966">
        <ele>224.1</ele>
        <time>2020-06-26T20:35:48Z</time>
      </trkpt>
      <trkpt lat="49.19081" lon="6.88975">
        <ele>223.6</ele>
        <time>2020-06-26T20:35:49Z</time>
      </trkpt>
      <trkpt lat="49.19076" lon="6.88984">
        <ele>223.1</ele>
        <time>2020-06-26T20:35:50Z</time>
      </trkpt>
      <trkpt lat="49.19071" lon="6.88992">
        <ele>222.6</ele>
        <time>2020-06-26T20:35:51Z</time>
      </trkpt>
      <trkpt lat="49.19066" lon="6.89">
        <ele>222.2</ele>
        <time>2020-06-26T20:35:52Z</time>
      </trkpt>
      <trkpt lat="49.19061" lon="6.89008">
        <ele>221.7</ele>
        <time>2020-06-26T20:35:53Z</time>
      </trkpt>
      <trkpt lat="49.19057" lon="6.89017">
        <ele>221.3</ele>
        <time>2020-06-26T20:35:54Z</time>
      </trkpt>
      <trkpt lat="49.19053" lon="6.89024">
        <ele>221</ele>
        <time>2020-06-26T20:35:55Z</time>
      </trkpt>
      <trkpt lat="49.19049" lon="6.89033">
        <ele>220.6</ele>
        <time>2020-06-26T20:35:56Z</time>
      </trkpt>
      <trkpt lat="49.19045" lon="6.89041">
        <ele>220.2</ele>
        <time>2020-06-26T20:35:57Z</time>
      </trkpt>
      <trkpt lat="49.1904" lon="6.8905">
        <ele>219.9</ele>
        <time>2020-06-26T20:35:58Z</time>
      </trkpt>
      <trkpt lat="49.19036" lon="6.89059">
        <ele>219.4</ele>
        <time>2020-06-26T20:35:59Z</time>
      </trkpt>
      <trkpt lat="49.19031" lon="6.89068">
        <ele>219.1</ele>
        <time>2020-06-26T20:36:00Z</time>
      </trkpt>
      <trkpt lat="49.19026" lon="6.89077">
        <ele>218.7</ele>
        <time>2020-06-26T20:36:01Z</time>
      </trkpt>
      <trkpt lat="49.19022" lon="6.89086">
        <ele>218.3</ele>
        <time>2020-06-26T20:36:02Z</time>
      </trkpt>
      <trkpt lat="49.19016" lon="6.89095">
        <ele>218</ele>
        <time>2020-06-26T20:36:03Z</time>
      </trkpt>
      <trkpt lat="49.19011" lon="6.89105">
        <ele>217.7</ele>
        <time>2020-06-26T20:36:04Z</time>
      </trkpt>
      <trkpt lat="49.19006" lon="6.89115">
        <ele>217.5</ele>
        <time>2020-06-26T20:36:05Z</time>
      </trkpt>
      <trkpt lat="49.19" lon="6.89123">
        <ele>216.9</ele>
        <time>2020-06-26T20:36:06Z</time>
      </trkpt>
      <trkpt lat="49.18995" lon="6.89132">
        <ele>216.4</ele>
        <time>2020-06-26T20:36:07Z</time>
      </trkpt>
      <trkpt lat="49.18989" lon="6.89142">
        <ele>215.9</ele>
        <time>2020-06-26T20:36:08Z</time>
      </trkpt>
      <trkpt lat="49.18984" lon="6.89152">
        <ele>215.2</ele>
        <time>2020-06-26T20:36:09Z</time>
      </trkpt>
      <trkpt lat="49.18978" lon="6.89162">
        <ele>215.1</ele>
        <time>2020-06-26T20:36:10Z</time>
      </trkpt>
      <trkpt lat="49.18973" lon="6.89172">
        <ele>214.9</ele>
        <time>2020-06-26T20:36:11Z</time>
      </trkpt>
      <trkpt lat="49.18967" lon="6.89182">
        <ele>214.8</ele>
        <time>2020-06-26T20:36:12Z</time>
      </trkpt>
      <trkpt lat="49.18962" lon="6.89192">
        <ele>214.5</ele>
        <time>2020-06-26T20:36:13Z</time>
      </trkpt>
      <trkpt lat="49.18956" lon="6.89201">
        <ele>214.2</ele>
        <time>2020-06-26T20:36:14Z</time>
      </trkpt>
      <trkpt lat="49.18951" lon="6.8921">
        <ele>213.9</ele>
        <time>2020-06-26T20:36:15Z</time>
      </trkpt>
      <trkpt lat="49.18946" lon="6.89219">
        <ele>213.7</ele>
        <time>2020-06-26T20:36:16Z</time>
      </trkpt>
      <trkpt lat="49.18941" lon="6.89228">
        <ele>213.4</ele>
        <time>2020-06-26T20:36:17Z</time>
      </trkpt>
      <trkpt lat="49.18936" lon="6.89236">
        <ele>213.1</ele>
        <time>2020-06-26T20:36:18Z</time>
      </trkpt>
      <trkpt lat="49.18931" lon="6.89245">
        <ele>212.8</ele>
        <time>2020-06-26T20:36:19Z</time>
      </trkpt>
      <trkpt lat="49.18927" lon="6.89253">
        <ele>212.5</ele>
        <time>2020-06-26T20:36:20Z</time>
      </trkpt>
      <trkpt lat="49.18923" lon="6.89261">
        <ele>212.2</ele>
        <time>2020-06-26T20:36:21Z</time>
      </trkpt>
      <trkpt lat="49.18919" lon="6.8927">
        <ele>211.9</ele>
        <time>2020-06-26T20:36:22Z</time>
      </trkpt>
      <trkpt lat="49.18914" lon="6.89279">
        <ele>211.6</ele>
        <time>2020-06-26T20:36:23Z</time>
      </trkpt>
      <trkpt lat="49.1891" lon="6.89289">
        <ele>211.4</ele>
        <time>2020-06-26T20:36:24Z</time>
      </trkpt>
      <trkpt lat="49.18906" lon="6.89297">
        <ele>211.3</ele>
        <time>2020-06-26T20:36:25Z</time>
      </trkpt>
      <trkpt lat="49.18902" lon="6.89306">
        <ele>211.1</ele>
        <time>2020-06-26T20:36:26Z</time>
      </trkpt>
      <trkpt lat="49.18899" lon="6.89313">
        <ele>211</ele>
        <time>2020-06-26T20:36:27Z</time>
      </trkpt>
      <trkpt lat="49.18896" lon="6.89319">
        <ele>210.8</ele>
        <time>2020-06-26T20:36:28Z</time>
      </trkpt>
      <trkpt lat="49.18894" lon="6.89325">
        <ele>210.8</ele>
        <time>2020-06-26T20:36:29Z</time>
      </trkpt>
      <trkpt lat="49.18891" lon="6.8933">
        <ele>210.7</ele>
        <time>2020-06-26T20:36:30Z</time>
      </trkpt>
      <trkpt lat="49.18888" lon="6.89335">
        <ele>210.6</ele>
        <time>2020-06-26T20:36:31Z</time>
      </trkpt>
      <trkpt lat="49.18886" lon="6.89339">
        <ele>210.6</ele>
        <time>2020-06-26T20:36:32Z</time>
      </trkpt>
      <trkpt lat="49.18884" lon="6.89343">
        <ele>210.5</ele>
        <time>2020-06-26T20:36:33Z</time>
      </trkpt>
      <trkpt lat="49.18881" lon="6.89346">
        <ele>210.4</ele>
        <time>2020-06-26T20:36:34Z</time>
      </trkpt>
      <trkpt lat="49.18877" lon="6.89347">
        <ele>210.3</ele>
        <time>2020-06-26T20:36:35Z</time>
      </trkpt>
      <trkpt lat="49.18873" lon="6.89349">
        <ele>210.3</ele>
        <time>2020-06-26T20:36:36Z</time>
      </trkpt>
      <trkpt lat="49.1887" lon="6.89351">
        <ele>210.2</ele>
        <time>2020-06-26T20:36:37Z</time>
      </trkpt>
      <trkpt lat="49.18867" lon="6.89355">
        <ele>210.1</ele>
        <time>2020-06-26T20:36:38Z</time>
      </trkpt>
      <trkpt lat="49.18864" lon="6.89358">
        <ele>210.1</ele>
        <time>2020-06-26T20:36:39Z</time>
      </trkpt>
      <trkpt lat="49.18862" lon="6.89362">
        <ele>210.1</ele>
        <time>2020-06-26T20:36:40Z</time>
      </trkpt>
      <trkpt lat="49.1886" lon="6.89368">
        <ele>210.1</ele>
        <time>2020-06-26T20:36:41Z</time>
      </trkpt>
      <trkpt lat="49.18858" lon="6.89374">
        <ele>210.1</ele>
        <time>2020-06-26T20:36:42Z</time>
      </trkpt>
      <trkpt lat="49.18856" lon="6.8938">
        <ele>210</ele>
        <time>2020-06-26T20:36:43Z</time>
      </trkpt>
      <trkpt lat="49.18857" lon="6.89387">
        <ele>210</ele>
        <time>2020-06-26T20:36:44Z</time>
      </trkpt>
      <trkpt lat="49.18858" lon="6.89392">
        <ele>209.9</ele>
        <time>2020-06-26T20:36:45Z</time>
      </trkpt>
      <trkpt lat="49.18856" lon="6.89396">
        <ele>209.8</ele>
        <time>2020-06-26T20:36:46Z</time>
      </trkpt>
      <trkpt lat="49.18854" lon="6.89398">
        <ele>209.8</ele>
        <time>2020-06-26T20:36:47Z</time>
      </trkpt>
      <trkpt lat="49.18852" lon="6.89401">
        <ele>209.8</ele>
        <time>2020-06-26T20:36:48Z</time>
      </trkpt>
      <trkpt lat="49.1885" lon="6.89404">
        <ele>209.7</ele>
        <time>2020-06-26T20:36:49Z</time>
      </trkpt>
      <trkpt lat="49.18849" lon="6.89409">
        <ele>209.7</ele>
        <time>2020-06-26T20:36:50Z</time>
      </trkpt>
      <trkpt lat="49.18848" lon="6.89411">
        <ele>209.6</ele>
        <time>2020-06-26T20:36:51Z</time>
      </trkpt>
      <trkpt lat="49.18846" lon="6.89414">
        <ele>209.6</ele>
        <time>2020-06-26T20:36:52Z</time>
      </trkpt>
      <trkpt lat="49.18843" lon="6.89417">
        <ele>209.6</ele>
        <time>2020-06-26T20:36:53Z</time>
      </trkpt>
      <trkpt lat="49.1884" lon="6.89421">
        <ele>209.5</ele>
        <time>2020-06-26T20:36:54Z</time>
      </trkpt>
      <trkpt lat="49.18837" lon="6.89423">
        <ele>209.5</ele>
        <time>2020-06-26T20:36:55Z</time>
      </trkpt>
      <trkpt lat="49.18834" lon="6.89425">
        <ele>209.5</ele>
        <time>2020-06-26T20:36:56Z</time>
      </trkpt>
      <trkpt lat="49.18832" lon="6.89429">
        <ele>209.4</ele>
        <time>2020-06-26T20:36:57Z</time>
      </trkpt>
      <trkpt lat="49.18827" lon="6.89429">
        <ele>209.4</ele>
        <time>2020-06-26T20:36:58Z</time>
      </trkpt>
      <trkpt lat="49.18825" lon="6.89433">
        <ele>209.4</ele>
        <time>2020-06-26T20:36:59Z</time>
      </trkpt>
      <trkpt lat="49.18824" lon="6.89437">
        <ele>209.4</ele>
        <time>2020-06-26T20:37:00Z</time>
      </trkpt>
      <trkpt lat="49.18823" lon="6.89441">
        <ele>209.4</ele>
        <time>2020-06-26T20:37:01Z</time>
      </trkpt>
      <trkpt lat="49.18821" lon="6.89445">
        <ele>209.5</ele>
        <time>2020-06-26T20:37:02Z</time>
      </trkpt>
      <trkpt lat="49.1882" lon="6.89449">
        <ele>209.5</ele>
        <time>2020-06-26T20:37:03Z</time>
      </trkpt>
      <trkpt lat="49.18818" lon="6.89453">
        <ele>209.5</ele>
        <time>2020-06-26T20:37:04Z</time>
      </trkpt>
      <trkpt lat="49.18816" lon="6.89458">
        <ele>209.5</ele>
        <time>2020-06-26T20:37:05Z</time>
      </trkpt>
      <trkpt lat="49.18816" lon="6.8946">
        <ele>209.5</ele>
        <time>2020-06-26T20:37:06Z</time>
      </trkpt>
      <trkpt lat="49.18815" lon="6.89463">
        <ele>209.5</ele>
        <time>2020-06-26T20:37:07Z</time>
      </trkpt>
      <trkpt lat="49.18814" lon="6.89464">
        <ele>209.5</ele>
        <time>2020-06-26T20:37:08Z</time>
      </trkpt>
      <trkpt lat="49.18812" lon="6.89467">
        <ele>209.4</ele>
        <time>2020-06-26T20:37:09Z</time>
      </trkpt>
      <trkpt lat="49.18812" lon="6.89468">
        <ele>209.4</ele>
        <time>2020-06-26T20:37:10Z</time>
      </trkpt>
      <trkpt lat="49.18811" lon="6.89469">
        <ele>209.4</ele>
        <time>2020-06-26T20:37:11Z</time>
      </trkpt>
      <trkpt lat="49.18809" lon="6.89472">
        <ele>209.4</ele>
        <time>2020-06-26T20:37:12Z</time>
      </trkpt>
      <trkpt lat="49.18808" lon="6.89474">
        <ele>209.4</ele>
        <time>2020-06-26T20:37:13Z</time>
      </trkpt>
      <trkpt lat="49.18806" lon="6.89476">
        <ele>209.4</ele>
        <time>2020-06-26T20:37:14Z</time>
      </trkpt>
      <trkpt lat="49.18804" lon="6.8948">
        <ele>209.3</ele>
        <time>2020-06-26T20:37:15Z</time>
      </trkpt>
      <trkpt lat="49.18804" lon="6.89481">
        <ele>209.3</ele>
        <time>2020-06-26T20:37:16Z</time>
      </trkpt>
      <trkpt lat="49.18802" lon="6.89485">
        <ele>209.3</ele>
        <time>2020-06-26T20:37:17Z</time>
      </trkpt>
      <trkpt lat="49.188" lon="6.89485">
        <ele>209.3</ele>
        <time>2020-06-26T20:37:18Z</time>
      </trkpt>
      <trkpt lat="49.18797" lon="6.89486">
        <ele>209.3</ele>
        <time>2020-06-26T20:37:19Z</time>
      </trkpt>
      <trkpt lat="49.18796" lon="6.89486">
        <ele>209.3</ele>
        <time>2020-06-26T20:37:20Z</time>
      </trkpt>
      <trkpt lat="49.18794" lon="6.89492">
        <ele>209.2</ele>
        <time>2020-06-26T20:37:21Z</time>
      </trkpt>
      <trkpt lat="49.18793" lon="6.89493">
        <ele>209.2</ele>
        <time>2020-06-26T20:37:22Z</time>
      </trkpt>
      <trkpt lat="49.18793" lon="6.89499">
        <ele>209.2</ele>
        <time>2020-06-26T20:37:23Z</time>
      </trkpt>
      <trkpt lat="49.18791" lon="6.89503">
        <ele>209.2</ele>
        <time>2020-06-26T20:37:24Z</time>
      </trkpt>
      <trkpt lat="49.1879" lon="6.89505">
        <ele>209.2</ele>
        <time>2020-06-26T20:37:25Z</time>
      </trkpt>
      <trkpt lat="49.18788" lon="6.89508">
        <ele>209.2</ele>
        <time>2020-06-26T20:37:26Z</time>
      </trkpt>
      <trkpt lat="49.18787" lon="6.89512">
        <ele>209.2</ele>
        <time>2020-06-26T20:37:27Z</time>
      </trkpt>
      <trkpt lat="49.18782" lon="6.89513">
        <ele>209.2</ele>
        <time>2020-06-26T20:37:28Z</time>
      </trkpt>
      <trkpt lat="49.18779" lon="6.89515">
        <ele>209.2</ele>
        <time>2020-06-26T20:37:29Z</time>
      </trkpt>
      <trkpt lat="49.18776" lon="6.89517">
        <ele>209.3</ele>
        <time>2020-06-26T20:37:30Z</time>
      </trkpt>
      <trkpt lat="49.18774" lon="6.89521">
        <ele>209.3</ele>
        <time>2020-06-26T20:37:31Z</time>
      </trkpt>
      <trkpt lat="49.18773" lon="6.89522">
        <ele>209.3</ele>
        <time>2020-06-26T20:37:32Z</time>
      </trkpt>
      <trkpt lat="49.18771" lon="6.89527">
        <ele>209.4</ele>
        <time>2020-06-26T20:37:33Z</time>
      </trkpt>
      <trkpt lat="49.1877" lon="6.89528">
        <ele>209.4</ele>
        <time>2020-06-26T20:37:34Z</time>
      </trkpt>
      <trkpt lat="49.18768" lon="6.89531">
        <ele>209.5</ele>
        <time>2020-06-26T20:37:35Z</time>
      </trkpt>
      <trkpt lat="49.18765" lon="6.89533">
        <ele>209.6</ele>
        <time>2020-06-26T20:37:36Z</time>
      </trkpt>
      <trkpt lat="49.18764" lon="6.89534">
        <ele>209.6</ele>
        <time>2020-06-26T20:37:37Z</time>
      </trkpt>
      <trkpt lat="49.18762" lon="6.89537">
        <ele>209.6</ele>
        <time>2020-06-26T20:37:38Z</time>
      </trkpt>
      <trkpt lat="49.18761" lon="6.89538">
        <ele>209.7</ele>
        <time>2020-06-26T20:37:39Z</time>
      </trkpt>
      <trkpt lat="49.18759" lon="6.89544">
        <ele>209.8</ele>
        <time>2020-06-26T20:37:40Z</time>
      </trkpt>
      <trkpt lat="49.18759" lon="6.89546">
        <ele>209.8</ele>
        <time>2020-06-26T20:37:41Z</time>
      </trkpt>
      <trkpt lat="49.18758" lon="6.8955">
        <ele>209.9</ele>
        <time>2020-06-26T20:37:42Z</time>
      </trkpt>
      <trkpt lat="49.18756" lon="6.89554">
        <ele>209.9</ele>
        <time>2020-06-26T20:37:43Z</time>
      </trkpt>
      <trkpt lat="49.18753" lon="6.89561">
        <ele>210.1</ele>
        <time>2020-06-26T20:37:44Z</time>
      </trkpt>
      <trkpt lat="49.18752" lon="6.89569">
        <ele>210.3</ele>
        <time>2020-06-26T20:37:45Z</time>
      </trkpt>
      <trkpt lat="49.18749" lon="6.89575">
        <ele>210.4</ele>
        <time>2020-06-26T20:37:46Z</time>
      </trkpt>
      <trkpt lat="49.18745" lon="6.89581">
        <ele>210.6</ele>
        <time>2020-06-26T20:37:47Z</time>
      </trkpt>
      <trkpt lat="49.18743" lon="6.89587">
        <ele>210.8</ele>
        <time>2020-06-26T20:37:48Z</time>
      </trkpt>
      <trkpt lat="49.18741" lon="6.89593">
        <ele>211</ele>
        <time>2020-06-26T20:37:49Z</time>
      </trkpt>
      <trkpt lat="49.18739" lon="6.89599">
        <ele>211.2</ele>
        <time>2020-06-26T20:37:50Z</time>
      </trkpt>
      <trkpt lat="49.18736" lon="6.89605">
        <ele>211.5</ele>
        <time>2020-06-26T20:37:51Z</time>
      </trkpt>
      <trkpt lat="49.18734" lon="6.8961">
        <ele>211.8</ele>
        <time>2020-06-26T20:37:52Z</time>
      </trkpt>
      <trkpt lat="49.18728" lon="6.89621">
        <ele>212.5</ele>
        <time>2020-06-26T20:37:53Z</time>
      </trkpt>
      <trkpt lat="49.18723" lon="6.8963">
        <ele>213</ele>
        <time>2020-06-26T20:37:54Z</time>
      </trkpt>
      <trkpt lat="49.18718" lon="6.89638">
        <ele>213.6</ele>
        <time>2020-06-26T20:37:55Z</time>
      </trkpt>
      <trkpt lat="49.18714" lon="6.89645">
        <ele>214.1</ele>
        <time>2020-06-26T20:37:56Z</time>
      </trkpt>
      <trkpt lat="49.18711" lon="6.89649">
        <ele>214.3</ele>
        <time>2020-06-26T20:37:57Z</time>
      </trkpt>
      <trkpt lat="49.18708" lon="6.89654">
        <ele>214.6</ele>
        <time>2020-06-26T20:37:58Z</time>
      </trkpt>
      <trkpt lat="49.18705" lon="6.89658">
        <ele>214.9</ele>
        <time>2020-06-26T20:37:59Z</time>
      </trkpt>
      <trkpt lat="49.18703" lon="6.89662">
        <ele>215</ele>
        <time>2020-06-26T20:38:00Z</time>
      </trkpt>
      <trkpt lat="49.18702" lon="6.89665">
        <ele>215.2</ele>
        <time>2020-06-26T20:38:01Z</time>
      </trkpt>
      <trkpt lat="49.18701" lon="6.89667">
        <ele>215.3</ele>
        <time>2020-06-26T20:38:02Z</time>
      </trkpt>
      <trkpt lat="49.18699" lon="6.89671">
        <ele>215.5</ele>
        <time>2020-06-26T20:38:03Z</time>
      </trkpt>
      <trkpt lat="49.18696" lon="6.89675">
        <ele>215.7</ele>
        <time>2020-06-26T20:38:04Z</time>
      </trkpt>
      <trkpt lat="49.18695" lon="6.89678">
        <ele>215.9</ele>
        <time>2020-06-26T20:38:05Z</time>
      </trkpt>
      <trkpt lat="49.18693" lon="6.89682">
        <ele>216.1</ele>
        <time>2020-06-26T20:38:06Z</time>
      </trkpt>
      <trkpt lat="49.1869" lon="6.89685">
        <ele>216.3</ele>
        <time>2020-06-26T20:38:07Z</time>
      </trkpt>
      <trkpt lat="49.18689" lon="6.89687">
        <ele>216.4</ele>
        <time>2020-06-26T20:38:08Z</time>
      </trkpt>
      <trkpt lat="49.18685" lon="6.8969">
        <ele>216.7</ele>
        <time>2020-06-26T20:38:09Z</time>
      </trkpt>
      <trkpt lat="49.1868" lon="6.89694">
        <ele>217</ele>
        <time>2020-06-26T20:38:10Z</time>
      </trkpt>
      <trkpt lat="49.18678" lon="6.89696">
        <ele>217.2</ele>
        <time>2020-06-26T20:38:11Z</time>
      </trkpt>
      <trkpt lat="49.18676" lon="6.89699">
        <ele>217.5</ele>
        <time>2020-06-26T20:38:12Z</time>
      </trkpt>
      <trkpt lat="49.18675" lon="6.897">
        <ele>217.5</ele>
        <time>2020-06-26T20:38:13Z</time>
      </trkpt>
      <trkpt lat="49.18673" lon="6.89702">
        <ele>217.8</ele>
        <time>2020-06-26T20:38:14Z</time>
      </trkpt>
      <trkpt lat="49.18672" lon="6.89704">
        <ele>217.9</ele>
        <time>2020-06-26T20:38:15Z</time>
      </trkpt>
      <trkpt lat="49.1867" lon="6.89706">
        <ele>218</ele>
        <time>2020-06-26T20:38:16Z</time>
      </trkpt>
      <trkpt lat="49.18669" lon="6.89706">
        <ele>218.1</ele>
        <time>2020-06-26T20:38:17Z</time>
      </trkpt>
      <trkpt lat="49.18666" lon="6.89709">
        <ele>218.4</ele>
        <time>2020-06-26T20:38:18Z</time>
      </trkpt>
      <trkpt lat="49.18665" lon="6.8971">
        <ele>218.4</ele>
        <time>2020-06-26T20:38:19Z</time>
      </trkpt>
      <trkpt lat="49.18662" lon="6.89712">
        <ele>218.5</ele>
        <time>2020-06-26T20:38:20Z</time>
      </trkpt>
      <trkpt lat="49.18661" lon="6.89713">
        <ele>218.5</ele>
        <time>2020-06-26T20:38:21Z</time>
      </trkpt>
      <trkpt lat="49.18661" lon="6.89712">
        <ele>218.6</ele>
        <time>2020-06-26T20:38:22Z</time>
      </trkpt>
      <trkpt lat="49.18661" lon="6.89711">
        <ele>218.6</ele>
        <time>2020-06-26T20:38:23Z</time>
      </trkpt>
      <trkpt lat="49.18662" lon="6.8971">
        <ele>218.6</ele>
        <time>2020-06-26T20:38:24Z</time>
      </trkpt>
      <trkpt lat="49.18662" lon="6.8971">
        <ele>218.6</ele>
        <time>2020-06-26T20:38:25Z</time>
      </trkpt>
      <trkpt lat="49.18664" lon="6.89709">
        <ele>218.7</ele>
        <time>2020-06-26T20:38:26Z</time>
      </trkpt>
      <trkpt lat="49.18665" lon="6.89708">
        <ele>218.7</ele>
        <time>2020-06-26T20:38:27Z</time>
      </trkpt>
      <trkpt lat="49.18665" lon="6.89708">
        <ele>218.7</ele>
        <time>2020-06-26T20:38:28Z</time>
      </trkpt>
      <trkpt lat="49.18665" lon="6.89709">
        <ele>218.7</ele>
        <time>2020-06-26T20:38:29Z</time>
      </trkpt>
      <trkpt lat="49.18664" lon="6.89709">
        <ele>218.7</ele>
        <time>2020-06-26T20:38:30Z</time>
      </trkpt>
      <trkpt lat="49.18664" lon="6.89709">
        <ele>218.7</ele>
        <time>2020-06-26T20:38:31Z</time>
      </trkpt>
      <trkpt lat="49.18663" lon="6.89709">
        <ele>218.8</ele>
        <time>2020-06-26T20:38:32Z</time>
      </trkpt>
      <trkpt lat="49.18663" lon="6.8971">
        <ele>218.8</ele>
        <time>2020-06-26T20:38:33Z</time>
      </trkpt>
      <trkpt lat="49.18653" lon="6.89709">
        <ele>219</ele>
        <time>2020-06-26T20:38:57Z</time>
      </trkpt>
      <trkpt lat="49.18652" lon="6.8971">
        <ele>219.1</ele>
        <time>2020-06-26T20:38:58Z</time>
      </trkpt>
      <trkpt lat="49.1865" lon="6.89713">
        <ele>219.1</ele>
        <time>2020-06-26T20:38:59Z</time>
      </trkpt>
      <trkpt lat="49.18649" lon="6.89714">
        <ele>219.2</ele>
        <time>2020-06-26T20:39:00Z</time>
      </trkpt>
      <trkpt lat="49.18647" lon="6.89719">
        <ele>219.4</ele>
        <time>2020-06-26T20:39:01Z</time>
      </trkpt>
      <trkpt lat="49.18646" lon="6.89721">
        <ele>219.5</ele>
        <time>2020-06-26T20:39:02Z</time>
      </trkpt>
      <trkpt lat="49.18644" lon="6.89727">
        <ele>219.7</ele>
        <time>2020-06-26T20:39:03Z</time>
      </trkpt>
      <trkpt lat="49.18643" lon="6.89729">
        <ele>219.7</ele>
        <time>2020-06-26T20:39:04Z</time>
      </trkpt>
      <trkpt lat="49.18641" lon="6.89734">
        <ele>219.9</ele>
        <time>2020-06-26T20:39:05Z</time>
      </trkpt>
      <trkpt lat="49.1864" lon="6.89736">
        <ele>220</ele>
        <time>2020-06-26T20:39:06Z</time>
      </trkpt>
      <trkpt lat="49.18639" lon="6.89742">
        <ele>220.2</ele>
        <time>2020-06-26T20:39:07Z</time>
      </trkpt>
      <trkpt lat="49.18638" lon="6.89743">
        <ele>220.3</ele>
        <time>2020-06-26T20:39:08Z</time>
      </trkpt>
      <trkpt lat="49.18638" lon="6.89748">
        <ele>220.5</ele>
        <time>2020-06-26T20:39:09Z</time>
      </trkpt>
      <trkpt lat="49.18637" lon="6.89749">
        <ele>220.6</ele>
        <time>2020-06-26T20:39:10Z</time>
      </trkpt>
      <trkpt lat="49.18636" lon="6.89755">
        <ele>220.8</ele>
        <time>2020-06-26T20:39:11Z</time>
      </trkpt>
      <trkpt lat="49.18635" lon="6.89757">
        <ele>220.9</ele>
        <time>2020-06-26T20:39:12Z</time>
      </trkpt>
      <trkpt lat="49.18634" lon="6.89759">
        <ele>221</ele>
        <time>2020-06-26T20:39:13Z</time>
      </trkpt>
      <trkpt lat="49.18634" lon="6.89761">
        <ele>221.1</ele>
        <time>2020-06-26T20:39:14Z</time>
      </trkpt>
      <trkpt lat="49.18634" lon="6.89766">
        <ele>221.3</ele>
        <time>2020-06-26T20:39:15Z</time>
      </trkpt>
      <trkpt lat="49.18634" lon="6.89767">
        <ele>221.3</ele>
        <time>2020-06-26T20:39:16Z</time>
      </trkpt>
      <trkpt lat="49.18633" lon="6.89772">
        <ele>221.6</ele>
        <time>2020-06-26T20:39:17Z</time>
      </trkpt>
      <trkpt lat="49.18633" lon="6.89773">
        <ele>221.6</ele>
        <time>2020-06-26T20:39:18Z</time>
      </trkpt>
      <trkpt lat="49.18631" lon="6.89777">
        <ele>221.8</ele>
        <time>2020-06-26T20:39:19Z</time>
      </trkpt>
      <trkpt lat="49.18631" lon="6.89779">
        <ele>221.9</ele>
        <time>2020-06-26T20:39:20Z</time>
      </trkpt>
      <trkpt lat="49.1863" lon="6.89783">
        <ele>222</ele>
        <time>2020-06-26T20:39:21Z</time>
      </trkpt>
      <trkpt lat="49.18628" lon="6.89787">
        <ele>222.2</ele>
        <time>2020-06-26T20:39:22Z</time>
      </trkpt>
      <trkpt lat="49.18626" lon="6.89788">
        <ele>222.3</ele>
        <time>2020-06-26T20:39:23Z</time>
      </trkpt>
      <trkpt lat="49.18625" lon="6.8979">
        <ele>222.4</ele>
        <time>2020-06-26T20:39:24Z</time>
      </trkpt>
      <trkpt lat="49.18622" lon="6.89792">
        <ele>222.6</ele>
        <time>2020-06-26T20:39:25Z</time>
      </trkpt>
      <trkpt lat="49.18621" lon="6.89794">
        <ele>222.7</ele>
        <time>2020-06-26T20:39:26Z</time>
      </trkpt>
      <trkpt lat="49.18619" lon="6.89795">
        <ele>222.8</ele>
        <time>2020-06-26T20:39:27Z</time>
      </trkpt>
      <trkpt lat="49.18617" lon="6.89799">
        <ele>222.9</ele>
        <time>2020-06-26T20:39:28Z</time>
      </trkpt>
      <trkpt lat="49.18617" lon="6.898">
        <ele>223</ele>
        <time>2020-06-26T20:39:29Z</time>
      </trkpt>
      <trkpt lat="49.18615" lon="6.89803">
        <ele>223.1</ele>
        <time>2020-06-26T20:39:30Z</time>
      </trkpt>
      <trkpt lat="49.18614" lon="6.89804">
        <ele>223.2</ele>
        <time>2020-06-26T20:39:31Z</time>
      </trkpt>
      <trkpt lat="49.18611" lon="6.89806">
        <ele>223.7</ele>
        <time>2020-06-26T20:39:32Z</time>
      </trkpt>
      <trkpt lat="49.18609" lon="6.89808">
        <ele>223.8</ele>
        <time>2020-06-26T20:39:33Z</time>
      </trkpt>
      <trkpt lat="49.18609" lon="6.89809">
        <ele>223.9</ele>
        <time>2020-06-26T20:39:34Z</time>
      </trkpt>
      <trkpt lat="49.18607" lon="6.89811">
        <ele>224.1</ele>
        <time>2020-06-26T20:39:35Z</time>
      </trkpt>
      <trkpt lat="49.18605" lon="6.89814">
        <ele>224.4</ele>
        <time>2020-06-26T20:39:36Z</time>
      </trkpt>
      <trkpt lat="49.18605" lon="6.89816">
        <ele>224.5</ele>
        <time>2020-06-26T20:39:37Z</time>
      </trkpt>
      <trkpt lat="49.18602" lon="6.89818">
        <ele>224.7</ele>
        <time>2020-06-26T20:39:38Z</time>
      </trkpt>
      <trkpt lat="49.18601" lon="6.89819">
        <ele>224.9</ele>
        <time>2020-06-26T20:39:39Z</time>
      </trkpt>
      <trkpt lat="49.186" lon="6.89821">
        <ele>225</ele>
        <time>2020-06-26T20:39:40Z</time>
      </trkpt>
      <trkpt lat="49.18599" lon="6.89823">
        <ele>225.1</ele>
        <time>2020-06-26T20:39:41Z</time>
      </trkpt>
      <trkpt lat="49.18598" lon="6.89825">
        <ele>225.3</ele>
        <time>2020-06-26T20:39:42Z</time>
      </trkpt>
      <trkpt lat="49.18599" lon="6.89827">
        <ele>225.4</ele>
        <time>2020-06-26T20:39:43Z</time>
      </trkpt>
      <trkpt lat="49.18599" lon="6.89829">
        <ele>225.5</ele>
        <time>2020-06-26T20:39:44Z</time>
      </trkpt>
      <trkpt lat="49.186" lon="6.89834">
        <ele>227</ele>
        <time>2020-06-26T20:39:45Z</time>
      </trkpt>
      <trkpt lat="49.18601" lon="6.89836">
        <ele>227</ele>
        <time>2020-06-26T20:39:46Z</time>
      </trkpt>
      <trkpt lat="49.18602" lon="6.8984">
        <ele>227</ele>
        <time>2020-06-26T20:39:47Z</time>
      </trkpt>
      <trkpt lat="49.18602" lon="6.89841">
        <ele>227.1</ele>
        <time>2020-06-26T20:39:48Z</time>
      </trkpt>
      <trkpt lat="49.18603" lon="6.89847">
        <ele>227.1</ele>
        <time>2020-06-26T20:39:49Z</time>
      </trkpt>
      <trkpt lat="49.18603" lon="6.89848">
        <ele>227.1</ele>
        <time>2020-06-26T20:39:50Z</time>
      </trkpt>
      <trkpt lat="49.18606" lon="6.89853">
        <ele>227.2</ele>
        <time>2020-06-26T20:39:51Z</time>
      </trkpt>
      <trkpt lat="49.18607" lon="6.89854">
        <ele>227.3</ele>
        <time>2020-06-26T20:39:52Z</time>
      </trkpt>
      <trkpt lat="49.18609" lon="6.89857">
        <ele>227.3</ele>
        <time>2020-06-26T20:39:53Z</time>
      </trkpt>
      <trkpt lat="49.18611" lon="6.8986">
        <ele>227.4</ele>
        <time>2020-06-26T20:39:54Z</time>
      </trkpt>
      <trkpt lat="49.18614" lon="6.89864">
        <ele>227.4</ele>
        <time>2020-06-26T20:39:55Z</time>
      </trkpt>
      <trkpt lat="49.18616" lon="6.8987">
        <ele>227.5</ele>
        <time>2020-06-26T20:39:56Z</time>
      </trkpt>
      <trkpt lat="49.18617" lon="6.89873">
        <ele>227.5</ele>
        <time>2020-06-26T20:39:57Z</time>
      </trkpt>
      <trkpt lat="49.18619" lon="6.8988">
        <ele>227.5</ele>
        <time>2020-06-26T20:39:58Z</time>
      </trkpt>
      <trkpt lat="49.1862" lon="6.89886">
        <ele>227.5</ele>
        <time>2020-06-26T20:39:59Z</time>
      </trkpt>
      <trkpt lat="49.1862" lon="6.89892">
        <ele>227.5</ele>
        <time>2020-06-26T20:40:00Z</time>
      </trkpt>
      <trkpt lat="49.18624" lon="6.89896">
        <ele>227.5</ele>
        <time>2020-06-26T20:40:01Z</time>
      </trkpt>
      <trkpt lat="49.18626" lon="6.89901">
        <ele>227.5</ele>
        <time>2020-06-26T20:40:02Z</time>
      </trkpt>
      <trkpt lat="49.18628" lon="6.89904">
        <ele>227.5</ele>
        <time>2020-06-26T20:40:03Z</time>
      </trkpt>
      <trkpt lat="49.18631" lon="6.89909">
        <ele>227.4</ele>
        <time>2020-06-26T20:40:04Z</time>
      </trkpt>
      <trkpt lat="49.18633" lon="6.89916">
        <ele>227.4</ele>
        <time>2020-06-26T20:40:05Z</time>
      </trkpt>
      <trkpt lat="49.18635" lon="6.89923">
        <ele>227.4</ele>
        <time>2020-06-26T20:40:06Z</time>
      </trkpt>
      <trkpt lat="49.18638" lon="6.89929">
        <ele>227.4</ele>
        <time>2020-06-26T20:40:07Z</time>
      </trkpt>
      <trkpt lat="49.1864" lon="6.89935">
        <ele>227.4</ele>
        <time>2020-06-26T20:40:08Z</time>
      </trkpt>
      <trkpt lat="49.18641" lon="6.89942">
        <ele>227.4</ele>
        <time>2020-06-26T20:40:09Z</time>
      </trkpt>
      <trkpt lat="49.18642" lon="6.89949">
        <ele>227.4</ele>
        <time>2020-06-26T20:40:10Z</time>
      </trkpt>
      <trkpt lat="49.18642" lon="6.89956">
        <ele>227.4</ele>
        <time>2020-06-26T20:40:11Z</time>
      </trkpt>
      <trkpt lat="49.18643" lon="6.89962">
        <ele>227.4</ele>
        <time>2020-06-26T20:40:12Z</time>
      </trkpt>
      <trkpt lat="49.18643" lon="6.89968">
        <ele>227.4</ele>
        <time>2020-06-26T20:40:13Z</time>
      </trkpt>
      <trkpt lat="49.18645" lon="6.89974">
        <ele>227.4</ele>
        <time>2020-06-26T20:40:14Z</time>
      </trkpt>
      <trkpt lat="49.18646" lon="6.89981">
        <ele>227.4</ele>
        <time>2020-06-26T20:40:15Z</time>
      </trkpt>
      <trkpt lat="49.18648" lon="6.89986">
        <ele>227.4</ele>
        <time>2020-06-26T20:40:16Z</time>
      </trkpt>
      <trkpt lat="49.1865" lon="6.89991">
        <ele>227.4</ele>
        <time>2020-06-26T20:40:17Z</time>
      </trkpt>
      <trkpt lat="49.18651" lon="6.89996">
        <ele>227.4</ele>
        <time>2020-06-26T20:40:18Z</time>
      </trkpt>
      <trkpt lat="49.18653" lon="6.90001">
        <ele>227.4</ele>
        <time>2020-06-26T20:40:19Z</time>
      </trkpt>
      <trkpt lat="49.18654" lon="6.90005">
        <ele>227.4</ele>
        <time>2020-06-26T20:40:20Z</time>
      </trkpt>
      <trkpt lat="49.18656" lon="6.9001">
        <ele>227.4</ele>
        <time>2020-06-26T20:40:21Z</time>
      </trkpt>
      <trkpt lat="49.18658" lon="6.90015">
        <ele>227.5</ele>
        <time>2020-06-26T20:40:22Z</time>
      </trkpt>
      <trkpt lat="49.1866" lon="6.90019">
        <ele>227.5</ele>
        <time>2020-06-26T20:40:23Z</time>
      </trkpt>
      <trkpt lat="49.18662" lon="6.90023">
        <ele>227.5</ele>
        <time>2020-06-26T20:40:24Z</time>
      </trkpt>
      <trkpt lat="49.18664" lon="6.90028">
        <ele>227.5</ele>
        <time>2020-06-26T20:40:25Z</time>
      </trkpt>
      <trkpt lat="49.18665" lon="6.90032">
        <ele>227.5</ele>
        <time>2020-06-26T20:40:26Z</time>
      </trkpt>
      <trkpt lat="49.18667" lon="6.90037">
        <ele>227.5</ele>
        <time>2020-06-26T20:40:27Z</time>
      </trkpt>
      <trkpt lat="49.18669" lon="6.90043">
        <ele>227.5</ele>
        <time>2020-06-26T20:40:28Z</time>
      </trkpt>
      <trkpt lat="49.1867" lon="6.90047">
        <ele>227.6</ele>
        <time>2020-06-26T20:40:29Z</time>
      </trkpt>
      <trkpt lat="49.1867" lon="6.90052">
        <ele>227.6</ele>
        <time>2020-06-26T20:40:30Z</time>
      </trkpt>
      <trkpt lat="49.18669" lon="6.90058">
        <ele>227.7</ele>
        <time>2020-06-26T20:40:31Z</time>
      </trkpt>
      <trkpt lat="49.18667" lon="6.90064">
        <ele>227.7</ele>
        <time>2020-06-26T20:40:32Z</time>
      </trkpt>
      <trkpt lat="49.18665" lon="6.90069">
        <ele>227.8</ele>
        <time>2020-06-26T20:40:33Z</time>
      </trkpt>
      <trkpt lat="49.18665" lon="6.90075">
        <ele>227.9</ele>
        <time>2020-06-26T20:40:34Z</time>
      </trkpt>
      <trkpt lat="49.18665" lon="6.90081">
        <ele>228</ele>
        <time>2020-06-26T20:40:35Z</time>
      </trkpt>
      <trkpt lat="49.18664" lon="6.90088">
        <ele>228.1</ele>
        <time>2020-06-26T20:40:36Z</time>
      </trkpt>
      <trkpt lat="49.18663" lon="6.90094">
        <ele>228.2</ele>
        <time>2020-06-26T20:40:37Z</time>
      </trkpt>
      <trkpt lat="49.18662" lon="6.901">
        <ele>228.3</ele>
        <time>2020-06-26T20:40:38Z</time>
      </trkpt>
      <trkpt lat="49.18659" lon="6.90105">
        <ele>228.4</ele>
        <time>2020-06-26T20:40:39Z</time>
      </trkpt>
      <trkpt lat="49.18658" lon="6.90109">
        <ele>228.5</ele>
        <time>2020-06-26T20:40:40Z</time>
      </trkpt>
      <trkpt lat="49.18657" lon="6.90113">
        <ele>228.5</ele>
        <time>2020-06-26T20:40:41Z</time>
      </trkpt>
      <trkpt lat="49.18655" lon="6.90118">
        <ele>228.6</ele>
        <time>2020-06-26T20:40:42Z</time>
      </trkpt>
      <trkpt lat="49.18654" lon="6.90122">
        <ele>228.7</ele>
        <time>2020-06-26T20:40:43Z</time>
      </trkpt>
      <trkpt lat="49.18652" lon="6.90127">
        <ele>228.8</ele>
        <time>2020-06-26T20:40:44Z</time>
      </trkpt>
      <trkpt lat="49.18651" lon="6.90131">
        <ele>228.8</ele>
        <time>2020-06-26T20:40:45Z</time>
      </trkpt>
      <trkpt lat="49.1865" lon="6.90136">
        <ele>228.9</ele>
        <time>2020-06-26T20:40:46Z</time>
      </trkpt>
      <trkpt lat="49.18648" lon="6.90141">
        <ele>229</ele>
        <time>2020-06-26T20:40:47Z</time>
      </trkpt>
      <trkpt lat="49.18647" lon="6.90146">
        <ele>229.1</ele>
        <time>2020-06-26T20:40:48Z</time>
      </trkpt>
      <trkpt lat="49.18646" lon="6.90152">
        <ele>229.2</ele>
        <time>2020-06-26T20:40:49Z</time>
      </trkpt>
      <trkpt lat="49.18646" lon="6.90157">
        <ele>229.3</ele>
        <time>2020-06-26T20:40:50Z</time>
      </trkpt>
      <trkpt lat="49.18646" lon="6.90163">
        <ele>229.5</ele>
        <time>2020-06-26T20:40:51Z</time>
      </trkpt>
      <trkpt lat="49.18646" lon="6.90169">
        <ele>229.6</ele>
        <time>2020-06-26T20:40:52Z</time>
      </trkpt>
      <trkpt lat="49.18647" lon="6.90173">
        <ele>229.8</ele>
        <time>2020-06-26T20:40:53Z</time>
      </trkpt>
      <trkpt lat="49.18646" lon="6.90179">
        <ele>229.9</ele>
        <time>2020-06-26T20:40:54Z</time>
      </trkpt>
      <trkpt lat="49.18647" lon="6.90183">
        <ele>230</ele>
        <time>2020-06-26T20:40:55Z</time>
      </trkpt>
      <trkpt lat="49.18645" lon="6.90187">
        <ele>230.1</ele>
        <time>2020-06-26T20:40:56Z</time>
      </trkpt>
      <trkpt lat="49.18639" lon="6.90192">
        <ele>230.4</ele>
        <time>2020-06-26T20:40:57Z</time>
      </trkpt>
      <trkpt lat="49.18633" lon="6.90199">
        <ele>230.6</ele>
        <time>2020-06-26T20:40:58Z</time>
      </trkpt>
      <trkpt lat="49.1863" lon="6.90204">
        <ele>231.2</ele>
        <time>2020-06-26T20:40:59Z</time>
      </trkpt>
      <trkpt lat="49.18627" lon="6.90209">
        <ele>231.2</ele>
        <time>2020-06-26T20:41:00Z</time>
      </trkpt>
      <trkpt lat="49.18626" lon="6.90213">
        <ele>231.2</ele>
        <time>2020-06-26T20:41:01Z</time>
      </trkpt>
      <trkpt lat="49.18625" lon="6.90217">
        <ele>231.2</ele>
        <time>2020-06-26T20:41:02Z</time>
      </trkpt>
      <trkpt lat="49.18625" lon="6.90223">
        <ele>231.1</ele>
        <time>2020-06-26T20:41:03Z</time>
      </trkpt>
      <trkpt lat="49.18625" lon="6.90229">
        <ele>231</ele>
        <time>2020-06-26T20:41:04Z</time>
      </trkpt>
      <trkpt lat="49.18624" lon="6.90236">
        <ele>231</ele>
        <time>2020-06-26T20:41:05Z</time>
      </trkpt>
      <trkpt lat="49.18624" lon="6.90241">
        <ele>231</ele>
        <time>2020-06-26T20:41:06Z</time>
      </trkpt>
      <trkpt lat="49.18622" lon="6.90246">
        <ele>231</ele>
        <time>2020-06-26T20:41:07Z</time>
      </trkpt>
      <trkpt lat="49.1862" lon="6.90251">
        <ele>230.9</ele>
        <time>2020-06-26T20:41:08Z</time>
      </trkpt>
      <trkpt lat="49.18619" lon="6.90257">
        <ele>230.9</ele>
        <time>2020-06-26T20:41:09Z</time>
      </trkpt>
      <trkpt lat="49.18617" lon="6.90262">
        <ele>230.9</ele>
        <time>2020-06-26T20:41:10Z</time>
      </trkpt>
      <trkpt lat="49.18615" lon="6.90269">
        <ele>230.8</ele>
        <time>2020-06-26T20:41:11Z</time>
      </trkpt>
      <trkpt lat="49.18616" lon="6.90274">
        <ele>230.8</ele>
        <time>2020-06-26T20:41:12Z</time>
      </trkpt>
      <trkpt lat="49.18616" lon="6.9028">
        <ele>230.9</ele>
        <time>2020-06-26T20:41:13Z</time>
      </trkpt>
      <trkpt lat="49.18616" lon="6.90282">
        <ele>230.9</ele>
        <time>2020-06-26T20:41:14Z</time>
      </trkpt>
      <trkpt lat="49.18615" lon="6.90287">
        <ele>231</ele>
        <time>2020-06-26T20:41:15Z</time>
      </trkpt>
      <trkpt lat="49.18615" lon="6.90292">
        <ele>231</ele>
        <time>2020-06-26T20:41:16Z</time>
      </trkpt>
      <trkpt lat="49.18615" lon="6.90298">
        <ele>231.1</ele>
        <time>2020-06-26T20:41:17Z</time>
      </trkpt>
      <trkpt lat="49.18615" lon="6.90305">
        <ele>231.1</ele>
        <time>2020-06-26T20:41:18Z</time>
      </trkpt>
      <trkpt lat="49.18614" lon="6.90312">
        <ele>231.2</ele>
        <time>2020-06-26T20:41:19Z</time>
      </trkpt>
      <trkpt lat="49.18613" lon="6.90319">
        <ele>231.2</ele>
        <time>2020-06-26T20:41:20Z</time>
      </trkpt>
      <trkpt lat="49.18612" lon="6.90326">
        <ele>231.3</ele>
        <time>2020-06-26T20:41:21Z</time>
      </trkpt>
      <trkpt lat="49.18611" lon="6.90332">
        <ele>231.3</ele>
        <time>2020-06-26T20:41:22Z</time>
      </trkpt>
      <trkpt lat="49.18611" lon="6.90338">
        <ele>231.3</ele>
        <time>2020-06-26T20:41:23Z</time>
      </trkpt>
      <trkpt lat="49.1861" lon="6.90344">
        <ele>231.4</ele>
        <time>2020-06-26T20:41:24Z</time>
      </trkpt>
      <trkpt lat="49.18609" lon="6.90351">
        <ele>231.4</ele>
        <time>2020-06-26T20:41:25Z</time>
      </trkpt>
      <trkpt lat="49.18608" lon="6.90357">
        <ele>231.4</ele>
        <time>2020-06-26T20:41:26Z</time>
      </trkpt>
      <trkpt lat="49.18608" lon="6.90361">
        <ele>231.5</ele>
        <time>2020-06-26T20:41:27Z</time>
      </trkpt>
      <trkpt lat="49.18606" lon="6.90367">
        <ele>231.5</ele>
        <time>2020-06-26T20:41:28Z</time>
      </trkpt>
      <trkpt lat="49.18605" lon="6.90373">
        <ele>231.6</ele>
        <time>2020-06-26T20:41:29Z</time>
      </trkpt>
      <trkpt lat="49.18603" lon="6.90379">
        <ele>231.6</ele>
        <time>2020-06-26T20:41:30Z</time>
      </trkpt>
      <trkpt lat="49.18602" lon="6.90385">
        <ele>231.7</ele>
        <time>2020-06-26T20:41:31Z</time>
      </trkpt>
      <trkpt lat="49.18601" lon="6.90391">
        <ele>231.7</ele>
        <time>2020-06-26T20:41:32Z</time>
      </trkpt>
      <trkpt lat="49.186" lon="6.90397">
        <ele>231.7</ele>
        <time>2020-06-26T20:41:33Z</time>
      </trkpt>
      <trkpt lat="49.18599" lon="6.90403">
        <ele>231.7</ele>
        <time>2020-06-26T20:41:34Z</time>
      </trkpt>
      <trkpt lat="49.18598" lon="6.90409">
        <ele>231.7</ele>
        <time>2020-06-26T20:41:35Z</time>
      </trkpt>
      <trkpt lat="49.18597" lon="6.90416">
        <ele>231.7</ele>
        <time>2020-06-26T20:41:36Z</time>
      </trkpt>
      <trkpt lat="49.18596" lon="6.90423">
        <ele>231.7</ele>
        <time>2020-06-26T20:41:37Z</time>
      </trkpt>
      <trkpt lat="49.18595" lon="6.9043">
        <ele>231.7</ele>
        <time>2020-06-26T20:41:38Z</time>
      </trkpt>
      <trkpt lat="49.18594" lon="6.90437">
        <ele>231.7</ele>
        <time>2020-06-26T20:41:39Z</time>
      </trkpt>
      <trkpt lat="49.18592" lon="6.90445">
        <ele>231.7</ele>
        <time>2020-06-26T20:41:40Z</time>
      </trkpt>
      <trkpt lat="49.18591" lon="6.90452">
        <ele>231.7</ele>
        <time>2020-06-26T20:41:41Z</time>
      </trkpt>
      <trkpt lat="49.1859" lon="6.90458">
        <ele>231.7</ele>
        <time>2020-06-26T20:41:42Z</time>
      </trkpt>
      <trkpt lat="49.1859" lon="6.90464">
        <ele>231.7</ele>
        <time>2020-06-26T20:41:43Z</time>
      </trkpt>
      <trkpt lat="49.18589" lon="6.9047">
        <ele>231.7</ele>
        <time>2020-06-26T20:41:44Z</time>
      </trkpt>
      <trkpt lat="49.18589" lon="6.90475">
        <ele>231.7</ele>
        <time>2020-06-26T20:41:45Z</time>
      </trkpt>
      <trkpt lat="49.18589" lon="6.90482">
        <ele>231.7</ele>
        <time>2020-06-26T20:41:46Z</time>
      </trkpt>
      <trkpt lat="49.18589" lon="6.90488">
        <ele>231.7</ele>
        <time>2020-06-26T20:41:47Z</time>
      </trkpt>
      <trkpt lat="49.18587" lon="6.90495">
        <ele>231.7</ele>
        <time>2020-06-26T20:41:48Z</time>
      </trkpt>
      <trkpt lat="49.18586" lon="6.90501">
        <ele>231.8</ele>
        <time>2020-06-26T20:41:49Z</time>
      </trkpt>
      <trkpt lat="49.18584" lon="6.90506">
        <ele>231.8</ele>
        <time>2020-06-26T20:41:50Z</time>
      </trkpt>
      <trkpt lat="49.18583" lon="6.90513">
        <ele>231.8</ele>
        <time>2020-06-26T20:41:51Z</time>
      </trkpt>
      <trkpt lat="49.18581" lon="6.90519">
        <ele>231.8</ele>
        <time>2020-06-26T20:41:52Z</time>
      </trkpt>
      <trkpt lat="49.18579" lon="6.90526">
        <ele>231.8</ele>
        <time>2020-06-26T20:41:53Z</time>
      </trkpt>
      <trkpt lat="49.18577" lon="6.90534">
        <ele>231.8</ele>
        <time>2020-06-26T20:41:54Z</time>
      </trkpt>
      <trkpt lat="49.18573" lon="6.90542">
        <ele>231.8</ele>
        <time>2020-06-26T20:41:55Z</time>
      </trkpt>
      <trkpt lat="49.18568" lon="6.9055">
        <ele>231.8</ele>
        <time>2020-06-26T20:41:56Z</time>
      </trkpt>
      <trkpt lat="49.18565" lon="6.90557">
        <ele>231.8</ele>
        <time>2020-06-26T20:41:57Z</time>
      </trkpt>
      <trkpt lat="49.18564" lon="6.90564">
        <ele>231.8</ele>
        <time>2020-06-26T20:41:58Z</time>
      </trkpt>
      <trkpt lat="49.18563" lon="6.9057">
        <ele>231.8</ele>
        <time>2020-06-26T20:41:59Z</time>
      </trkpt>
      <trkpt lat="49.18558" lon="6.90578">
        <ele>231.8</ele>
        <time>2020-06-26T20:42:00Z</time>
      </trkpt>
      <trkpt lat="49.18556" lon="6.90585">
        <ele>231.9</ele>
        <time>2020-06-26T20:42:01Z</time>
      </trkpt>
      <trkpt lat="49.18554" lon="6.90591">
        <ele>231.9</ele>
        <time>2020-06-26T20:42:02Z</time>
      </trkpt>
      <trkpt lat="49.18553" lon="6.90598">
        <ele>231.9</ele>
        <time>2020-06-26T20:42:03Z</time>
      </trkpt>
      <trkpt lat="49.18551" lon="6.90605">
        <ele>231.9</ele>
        <time>2020-06-26T20:42:04Z</time>
      </trkpt>
      <trkpt lat="49.18549" lon="6.90611">
        <ele>232</ele>
        <time>2020-06-26T20:42:05Z</time>
      </trkpt>
      <trkpt lat="49.18548" lon="6.90618">
        <ele>232</ele>
        <time>2020-06-26T20:42:06Z</time>
      </trkpt>
      <trkpt lat="49.18546" lon="6.90625">
        <ele>232.1</ele>
        <time>2020-06-26T20:42:07Z</time>
      </trkpt>
      <trkpt lat="49.18545" lon="6.90633">
        <ele>232.2</ele>
        <time>2020-06-26T20:42:08Z</time>
      </trkpt>
      <trkpt lat="49.18544" lon="6.9064">
        <ele>232.2</ele>
        <time>2020-06-26T20:42:09Z</time>
      </trkpt>
      <trkpt lat="49.18542" lon="6.90648">
        <ele>232.3</ele>
        <time>2020-06-26T20:42:10Z</time>
      </trkpt>
      <trkpt lat="49.1854" lon="6.90656">
        <ele>232.3</ele>
        <time>2020-06-26T20:42:11Z</time>
      </trkpt>
      <trkpt lat="49.18538" lon="6.90664">
        <ele>232.4</ele>
        <time>2020-06-26T20:42:12Z</time>
      </trkpt>
      <trkpt lat="49.18537" lon="6.90671">
        <ele>232.4</ele>
        <time>2020-06-26T20:42:13Z</time>
      </trkpt>
      <trkpt lat="49.18536" lon="6.90679">
        <ele>232.5</ele>
        <time>2020-06-26T20:42:14Z</time>
      </trkpt>
      <trkpt lat="49.18534" lon="6.90687">
        <ele>232.5</ele>
        <time>2020-06-26T20:42:15Z</time>
      </trkpt>
      <trkpt lat="49.18534" lon="6.90695">
        <ele>232.6</ele>
        <time>2020-06-26T20:42:16Z</time>
      </trkpt>
      <trkpt lat="49.18533" lon="6.90702">
        <ele>232.6</ele>
        <time>2020-06-26T20:42:17Z</time>
      </trkpt>
      <trkpt lat="49.18532" lon="6.90708">
        <ele>232.7</ele>
        <time>2020-06-26T20:42:18Z</time>
      </trkpt>
      <trkpt lat="49.1853" lon="6.90714">
        <ele>232.8</ele>
        <time>2020-06-26T20:42:19Z</time>
      </trkpt>
      <trkpt lat="49.18527" lon="6.90719">
        <ele>232.9</ele>
        <time>2020-06-26T20:42:20Z</time>
      </trkpt>
      <trkpt lat="49.18525" lon="6.90725">
        <ele>233</ele>
        <time>2020-06-26T20:42:21Z</time>
      </trkpt>
      <trkpt lat="49.18524" lon="6.90732">
        <ele>233</ele>
        <time>2020-06-26T20:42:22Z</time>
      </trkpt>
      <trkpt lat="49.18522" lon="6.90738">
        <ele>233.1</ele>
        <time>2020-06-26T20:42:23Z</time>
      </trkpt>
      <trkpt lat="49.1852" lon="6.90744">
        <ele>233.2</ele>
        <time>2020-06-26T20:42:24Z</time>
      </trkpt>
      <trkpt lat="49.18518" lon="6.9075">
        <ele>233.3</ele>
        <time>2020-06-26T20:42:25Z</time>
      </trkpt>
      <trkpt lat="49.18517" lon="6.90755">
        <ele>233.4</ele>
        <time>2020-06-26T20:42:26Z</time>
      </trkpt>
      <trkpt lat="49.18516" lon="6.90761">
        <ele>233.5</ele>
        <time>2020-06-26T20:42:27Z</time>
      </trkpt>
      <trkpt lat="49.18516" lon="6.90767">
        <ele>233.6</ele>
        <time>2020-06-26T20:42:28Z</time>
      </trkpt>
      <trkpt lat="49.18515" lon="6.90774">
        <ele>233.8</ele>
        <time>2020-06-26T20:42:29Z</time>
      </trkpt>
      <trkpt lat="49.18514" lon="6.9078">
        <ele>233.9</ele>
        <time>2020-06-26T20:42:30Z</time>
      </trkpt>
      <trkpt lat="49.18513" lon="6.90786">
        <ele>234.1</ele>
        <time>2020-06-26T20:42:31Z</time>
      </trkpt>
      <trkpt lat="49.18512" lon="6.90792">
        <ele>234.2</ele>
        <time>2020-06-26T20:42:32Z</time>
      </trkpt>
      <trkpt lat="49.18511" lon="6.90798">
        <ele>234.4</ele>
        <time>2020-06-26T20:42:33Z</time>
      </trkpt>
      <trkpt lat="49.18509" lon="6.90803">
        <ele>234.6</ele>
        <time>2020-06-26T20:42:34Z</time>
      </trkpt>
      <trkpt lat="49.18509" lon="6.90809">
        <ele>234.7</ele>
        <time>2020-06-26T20:42:35Z</time>
      </trkpt>
      <trkpt lat="49.18508" lon="6.90814">
        <ele>234.9</ele>
        <time>2020-06-26T20:42:36Z</time>
      </trkpt>
      <trkpt lat="49.18507" lon="6.90819">
        <ele>235</ele>
        <time>2020-06-26T20:42:37Z</time>
      </trkpt>
      <trkpt lat="49.18505" lon="6.90824">
        <ele>235.2</ele>
        <time>2020-06-26T20:42:38Z</time>
      </trkpt>
      <trkpt lat="49.18504" lon="6.90829">
        <ele>235.4</ele>
        <time>2020-06-26T20:42:39Z</time>
      </trkpt>
      <trkpt lat="49.18503" lon="6.90835">
        <ele>235.6</ele>
        <time>2020-06-26T20:42:40Z</time>
      </trkpt>
      <trkpt lat="49.18501" lon="6.90841">
        <ele>235.8</ele>
        <time>2020-06-26T20:42:41Z</time>
      </trkpt>
      <trkpt lat="49.18499" lon="6.90846">
        <ele>236</ele>
        <time>2020-06-26T20:42:42Z</time>
      </trkpt>
      <trkpt lat="49.18498" lon="6.90851">
        <ele>236.2</ele>
        <time>2020-06-26T20:42:43Z</time>
      </trkpt>
      <trkpt lat="49.18497" lon="6.90856">
        <ele>236.4</ele>
        <time>2020-06-26T20:42:44Z</time>
      </trkpt>
      <trkpt lat="49.18495" lon="6.90861">
        <ele>236.6</ele>
        <time>2020-06-26T20:42:45Z</time>
      </trkpt>
      <trkpt lat="49.18494" lon="6.90866">
        <ele>236.8</ele>
        <time>2020-06-26T20:42:46Z</time>
      </trkpt>
      <trkpt lat="49.18494" lon="6.90871">
        <ele>237</ele>
        <time>2020-06-26T20:42:47Z</time>
      </trkpt>
      <trkpt lat="49.18493" lon="6.90877">
        <ele>237.2</ele>
        <time>2020-06-26T20:42:48Z</time>
      </trkpt>
      <trkpt lat="49.18492" lon="6.90883">
        <ele>237.4</ele>
        <time>2020-06-26T20:42:49Z</time>
      </trkpt>
      <trkpt lat="49.18491" lon="6.90889">
        <ele>237.6</ele>
        <time>2020-06-26T20:42:50Z</time>
      </trkpt>
      <trkpt lat="49.18491" lon="6.90895">
        <ele>237.8</ele>
        <time>2020-06-26T20:42:51Z</time>
      </trkpt>
      <trkpt lat="49.18489" lon="6.909">
        <ele>238</ele>
        <time>2020-06-26T20:42:52Z</time>
      </trkpt>
      <trkpt lat="49.18488" lon="6.90906">
        <ele>238.2</ele>
        <time>2020-06-26T20:42:53Z</time>
      </trkpt>
      <trkpt lat="49.18486" lon="6.9091">
        <ele>238.4</ele>
        <time>2020-06-26T20:42:54Z</time>
      </trkpt>
      <trkpt lat="49.18486" lon="6.90915">
        <ele>238.5</ele>
        <time>2020-06-26T20:42:55Z</time>
      </trkpt>
      <trkpt lat="49.18484" lon="6.90919">
        <ele>238.7</ele>
        <time>2020-06-26T20:42:56Z</time>
      </trkpt>
      <trkpt lat="49.18482" lon="6.90923">
        <ele>238.9</ele>
        <time>2020-06-26T20:42:57Z</time>
      </trkpt>
      <trkpt lat="49.18481" lon="6.90928">
        <ele>239</ele>
        <time>2020-06-26T20:42:58Z</time>
      </trkpt>
      <trkpt lat="49.1848" lon="6.90933">
        <ele>239.2</ele>
        <time>2020-06-26T20:42:59Z</time>
      </trkpt>
      <trkpt lat="49.1848" lon="6.90938">
        <ele>239.4</ele>
        <time>2020-06-26T20:43:00Z</time>
      </trkpt>
      <trkpt lat="49.18479" lon="6.90943">
        <ele>239.5</ele>
        <time>2020-06-26T20:43:01Z</time>
      </trkpt>
      <trkpt lat="49.18479" lon="6.90948">
        <ele>239.7</ele>
        <time>2020-06-26T20:43:02Z</time>
      </trkpt>
      <trkpt lat="49.18477" lon="6.90952">
        <ele>239.9</ele>
        <time>2020-06-26T20:43:03Z</time>
      </trkpt>
      <trkpt lat="49.18476" lon="6.90957">
        <ele>240</ele>
        <time>2020-06-26T20:43:04Z</time>
      </trkpt>
      <trkpt lat="49.18475" lon="6.90962">
        <ele>240.2</ele>
        <time>2020-06-26T20:43:05Z</time>
      </trkpt>
      <trkpt lat="49.18474" lon="6.90966">
        <ele>240.4</ele>
        <time>2020-06-26T20:43:06Z</time>
      </trkpt>
      <trkpt lat="49.18474" lon="6.90971">
        <ele>240.5</ele>
        <time>2020-06-26T20:43:07Z</time>
      </trkpt>
      <trkpt lat="49.18473" lon="6.90975">
        <ele>240.7</ele>
        <time>2020-06-26T20:43:08Z</time>
      </trkpt>
      <trkpt lat="49.18472" lon="6.90979">
        <ele>240.8</ele>
        <time>2020-06-26T20:43:09Z</time>
      </trkpt>
      <trkpt lat="49.18471" lon="6.90985">
        <ele>241.1</ele>
        <time>2020-06-26T20:43:10Z</time>
      </trkpt>
      <trkpt lat="49.18471" lon="6.90987">
        <ele>241.1</ele>
        <time>2020-06-26T20:43:11Z</time>
      </trkpt>
      <trkpt lat="49.1847" lon="6.90993">
        <ele>241.4</ele>
        <time>2020-06-26T20:43:12Z</time>
      </trkpt>
      <trkpt lat="49.1847" lon="6.90995">
        <ele>241.4</ele>
        <time>2020-06-26T20:43:13Z</time>
      </trkpt>
      <trkpt lat="49.18469" lon="6.90999">
        <ele>241.6</ele>
        <time>2020-06-26T20:43:14Z</time>
      </trkpt>
      <trkpt lat="49.18468" lon="6.91003">
        <ele>241.8</ele>
        <time>2020-06-26T20:43:15Z</time>
      </trkpt>
      <trkpt lat="49.18467" lon="6.91007">
        <ele>241.9</ele>
        <time>2020-06-26T20:43:16Z</time>
      </trkpt>
      <trkpt lat="49.18466" lon="6.91011">
        <ele>242.1</ele>
        <time>2020-06-26T20:43:17Z</time>
      </trkpt>
      <trkpt lat="49.18466" lon="6.91016">
        <ele>242.3</ele>
        <time>2020-06-26T20:43:18Z</time>
      </trkpt>
      <trkpt lat="49.18463" lon="6.91019">
        <ele>242.5</ele>
        <time>2020-06-26T20:43:19Z</time>
      </trkpt>
      <trkpt lat="49.18463" lon="6.91024">
        <ele>242.7</ele>
        <time>2020-06-26T20:43:20Z</time>
      </trkpt>
      <trkpt lat="49.18463" lon="6.91028">
        <ele>242.9</ele>
        <time>2020-06-26T20:43:21Z</time>
      </trkpt>
      <trkpt lat="49.18461" lon="6.91032">
        <ele>243.1</ele>
        <time>2020-06-26T20:43:22Z</time>
      </trkpt>
      <trkpt lat="49.1846" lon="6.91037">
        <ele>243.3</ele>
        <time>2020-06-26T20:43:23Z</time>
      </trkpt>
      <trkpt lat="49.18459" lon="6.91041">
        <ele>243.5</ele>
        <time>2020-06-26T20:43:24Z</time>
      </trkpt>
      <trkpt lat="49.18458" lon="6.91045">
        <ele>243.7</ele>
        <time>2020-06-26T20:43:25Z</time>
      </trkpt>
      <trkpt lat="49.18457" lon="6.9105">
        <ele>243.9</ele>
        <time>2020-06-26T20:43:26Z</time>
      </trkpt>
      <trkpt lat="49.18457" lon="6.91054">
        <ele>244</ele>
        <time>2020-06-26T20:43:27Z</time>
      </trkpt>
      <trkpt lat="49.18455" lon="6.91059">
        <ele>244.2</ele>
        <time>2020-06-26T20:43:28Z</time>
      </trkpt>
      <trkpt lat="49.18454" lon="6.91063">
        <ele>244.4</ele>
        <time>2020-06-26T20:43:29Z</time>
      </trkpt>
      <trkpt lat="49.18453" lon="6.91068">
        <ele>244.4</ele>
        <time>2020-06-26T20:43:30Z</time>
      </trkpt>
      <trkpt lat="49.18452" lon="6.91072">
        <ele>244.6</ele>
        <time>2020-06-26T20:43:31Z</time>
      </trkpt>
      <trkpt lat="49.18453" lon="6.91078">
        <ele>244.8</ele>
        <time>2020-06-26T20:43:32Z</time>
      </trkpt>
      <trkpt lat="49.18453" lon="6.9108">
        <ele>244.9</ele>
        <time>2020-06-26T20:43:33Z</time>
      </trkpt>
      <trkpt lat="49.18452" lon="6.91084">
        <ele>245.1</ele>
        <time>2020-06-26T20:43:34Z</time>
      </trkpt>
      <trkpt lat="49.18451" lon="6.9109">
        <ele>245.3</ele>
        <time>2020-06-26T20:43:35Z</time>
      </trkpt>
      <trkpt lat="49.18451" lon="6.91092">
        <ele>245.4</ele>
        <time>2020-06-26T20:43:36Z</time>
      </trkpt>
      <trkpt lat="49.1845" lon="6.91097">
        <ele>245.5</ele>
        <time>2020-06-26T20:43:37Z</time>
      </trkpt>
      <trkpt lat="49.18448" lon="6.91101">
        <ele>245.7</ele>
        <time>2020-06-26T20:43:38Z</time>
      </trkpt>
      <trkpt lat="49.18447" lon="6.91105">
        <ele>245.9</ele>
        <time>2020-06-26T20:43:39Z</time>
      </trkpt>
      <trkpt lat="49.18446" lon="6.91111">
        <ele>246.1</ele>
        <time>2020-06-26T20:43:40Z</time>
      </trkpt>
      <trkpt lat="49.18446" lon="6.91113">
        <ele>246.2</ele>
        <time>2020-06-26T20:43:41Z</time>
      </trkpt>
      <trkpt lat="49.18445" lon="6.91118">
        <ele>246.4</ele>
        <time>2020-06-26T20:43:42Z</time>
      </trkpt>
      <trkpt lat="49.18445" lon="6.9112">
        <ele>246.5</ele>
        <time>2020-06-26T20:43:43Z</time>
      </trkpt>
      <trkpt lat="49.18443" lon="6.91126">
        <ele>246.7</ele>
        <time>2020-06-26T20:43:44Z</time>
      </trkpt>
      <trkpt lat="49.18443" lon="6.91128">
        <ele>246.8</ele>
        <time>2020-06-26T20:43:45Z</time>
      </trkpt>
      <trkpt lat="49.18443" lon="6.91133">
        <ele>247</ele>
        <time>2020-06-26T20:43:46Z</time>
      </trkpt>
      <trkpt lat="49.18441" lon="6.91138">
        <ele>247.2</ele>
        <time>2020-06-26T20:43:47Z</time>
      </trkpt>
      <trkpt lat="49.18441" lon="6.9114">
        <ele>247.3</ele>
        <time>2020-06-26T20:43:48Z</time>
      </trkpt>
      <trkpt lat="49.1844" lon="6.91144">
        <ele>247.5</ele>
        <time>2020-06-26T20:43:49Z</time>
      </trkpt>
      <trkpt lat="49.18439" lon="6.91148">
        <ele>247.7</ele>
        <time>2020-06-26T20:43:50Z</time>
      </trkpt>
      <trkpt lat="49.18438" lon="6.91149">
        <ele>247.7</ele>
        <time>2020-06-26T20:43:51Z</time>
      </trkpt>
      <trkpt lat="49.18435" lon="6.91153">
        <ele>248</ele>
        <time>2020-06-26T20:43:52Z</time>
      </trkpt>
      <trkpt lat="49.18435" lon="6.91154">
        <ele>248.1</ele>
        <time>2020-06-26T20:43:53Z</time>
      </trkpt>
      <trkpt lat="49.18432" lon="6.91157">
        <ele>248.3</ele>
        <time>2020-06-26T20:43:54Z</time>
      </trkpt>
      <trkpt lat="49.18429" lon="6.9116">
        <ele>248.6</ele>
        <time>2020-06-26T20:43:55Z</time>
      </trkpt>
      <trkpt lat="49.18426" lon="6.91163">
        <ele>248.9</ele>
        <time>2020-06-26T20:43:56Z</time>
      </trkpt>
      <trkpt lat="49.18425" lon="6.91163">
        <ele>248.9</ele>
        <time>2020-06-26T20:43:57Z</time>
      </trkpt>
      <trkpt lat="49.18421" lon="6.91165">
        <ele>249.3</ele>
        <time>2020-06-26T20:43:58Z</time>
      </trkpt>
      <trkpt lat="49.1842" lon="6.91166">
        <ele>249.4</ele>
        <time>2020-06-26T20:43:59Z</time>
      </trkpt>
      <trkpt lat="49.18417" lon="6.91168">
        <ele>249.7</ele>
        <time>2020-06-26T20:44:00Z</time>
      </trkpt>
      <trkpt lat="49.18416" lon="6.91172">
        <ele>249.9</ele>
        <time>2020-06-26T20:44:01Z</time>
      </trkpt>
      <trkpt lat="49.18415" lon="6.91174">
        <ele>250</ele>
        <time>2020-06-26T20:44:02Z</time>
      </trkpt>
      <trkpt lat="49.18416" lon="6.91178">
        <ele>250.3</ele>
        <time>2020-06-26T20:44:03Z</time>
      </trkpt>
      <trkpt lat="49.18418" lon="6.91183">
        <ele>250.9</ele>
        <time>2020-06-26T20:44:04Z</time>
      </trkpt>
      <trkpt lat="49.18419" lon="6.91185">
        <ele>250.9</ele>
        <time>2020-06-26T20:44:05Z</time>
      </trkpt>
      <trkpt lat="49.1842" lon="6.91191">
        <ele>251</ele>
        <time>2020-06-26T20:44:06Z</time>
      </trkpt>
      <trkpt lat="49.1842" lon="6.91192">
        <ele>251.1</ele>
        <time>2020-06-26T20:44:07Z</time>
      </trkpt>
      <trkpt lat="49.18421" lon="6.91197">
        <ele>251.2</ele>
        <time>2020-06-26T20:44:08Z</time>
      </trkpt>
      <trkpt lat="49.18422" lon="6.91204">
        <ele>251.4</ele>
        <time>2020-06-26T20:44:09Z</time>
      </trkpt>
      <trkpt lat="49.18422" lon="6.9121">
        <ele>251.5</ele>
        <time>2020-06-26T20:44:10Z</time>
      </trkpt>
      <trkpt lat="49.18423" lon="6.91216">
        <ele>251.7</ele>
        <time>2020-06-26T20:44:11Z</time>
      </trkpt>
      <trkpt lat="49.18424" lon="6.91221">
        <ele>251.8</ele>
        <time>2020-06-26T20:44:12Z</time>
      </trkpt>
      <trkpt lat="49.18425" lon="6.91226">
        <ele>252</ele>
        <time>2020-06-26T20:44:13Z</time>
      </trkpt>
      <trkpt lat="49.18425" lon="6.91231">
        <ele>252.1</ele>
        <time>2020-06-26T20:44:14Z</time>
      </trkpt>
      <trkpt lat="49.18425" lon="6.91233">
        <ele>252.2</ele>
        <time>2020-06-26T20:44:15Z</time>
      </trkpt>
      <trkpt lat="49.18425" lon="6.91238">
        <ele>252.4</ele>
        <time>2020-06-26T20:44:16Z</time>
      </trkpt>
      <trkpt lat="49.18425" lon="6.9124">
        <ele>252.4</ele>
        <time>2020-06-26T20:44:17Z</time>
      </trkpt>
      <trkpt lat="49.18424" lon="6.91244">
        <ele>252.6</ele>
        <time>2020-06-26T20:44:18Z</time>
      </trkpt>
      <trkpt lat="49.18424" lon="6.91246">
        <ele>252.6</ele>
        <time>2020-06-26T20:44:19Z</time>
      </trkpt>
      <trkpt lat="49.18423" lon="6.91251">
        <ele>252.8</ele>
        <time>2020-06-26T20:44:20Z</time>
      </trkpt>
      <trkpt lat="49.18422" lon="6.91253">
        <ele>252.9</ele>
        <time>2020-06-26T20:44:21Z</time>
      </trkpt>
      <trkpt lat="49.18422" lon="6.91257">
        <ele>253.1</ele>
        <time>2020-06-26T20:44:22Z</time>
      </trkpt>
      <trkpt lat="49.18422" lon="6.91261">
        <ele>253.2</ele>
        <time>2020-06-26T20:44:23Z</time>
      </trkpt>
      <trkpt lat="49.18422" lon="6.91266">
        <ele>253.4</ele>
        <time>2020-06-26T20:44:24Z</time>
      </trkpt>
      <trkpt lat="49.18421" lon="6.9127">
        <ele>253.6</ele>
        <time>2020-06-26T20:44:25Z</time>
      </trkpt>
      <trkpt lat="49.18421" lon="6.91275">
        <ele>253.8</ele>
        <time>2020-06-26T20:44:26Z</time>
      </trkpt>
      <trkpt lat="49.18421" lon="6.9128">
        <ele>254</ele>
        <time>2020-06-26T20:44:27Z</time>
      </trkpt>
      <trkpt lat="49.1842" lon="6.91282">
        <ele>254</ele>
        <time>2020-06-26T20:44:28Z</time>
      </trkpt>
      <trkpt lat="49.1842" lon="6.91286">
        <ele>254.2</ele>
        <time>2020-06-26T20:44:29Z</time>
      </trkpt>
      <trkpt lat="49.18418" lon="6.9129">
        <ele>254.4</ele>
        <time>2020-06-26T20:44:30Z</time>
      </trkpt>
      <trkpt lat="49.18417" lon="6.91295">
        <ele>254.7</ele>
        <time>2020-06-26T20:44:31Z</time>
      </trkpt>
      <trkpt lat="49.18416" lon="6.91297">
        <ele>254.7</ele>
        <time>2020-06-26T20:44:32Z</time>
      </trkpt>
      <trkpt lat="49.18415" lon="6.91303">
        <ele>255</ele>
        <time>2020-06-26T20:44:33Z</time>
      </trkpt>
      <trkpt lat="49.18415" lon="6.91305">
        <ele>255.1</ele>
        <time>2020-06-26T20:44:34Z</time>
      </trkpt>
      <trkpt lat="49.18414" lon="6.9131">
        <ele>255.4</ele>
        <time>2020-06-26T20:44:35Z</time>
      </trkpt>
      <trkpt lat="49.18414" lon="6.91312">
        <ele>255.4</ele>
        <time>2020-06-26T20:44:36Z</time>
      </trkpt>
      <trkpt lat="49.18412" lon="6.91317">
        <ele>255.7</ele>
        <time>2020-06-26T20:44:37Z</time>
      </trkpt>
      <trkpt lat="49.18412" lon="6.91319">
        <ele>255.8</ele>
        <time>2020-06-26T20:44:38Z</time>
      </trkpt>
      <trkpt lat="49.1841" lon="6.91324">
        <ele>256</ele>
        <time>2020-06-26T20:44:39Z</time>
      </trkpt>
      <trkpt lat="49.18409" lon="6.91326">
        <ele>256.1</ele>
        <time>2020-06-26T20:44:40Z</time>
      </trkpt>
      <trkpt lat="49.18407" lon="6.91331">
        <ele>256.4</ele>
        <time>2020-06-26T20:44:41Z</time>
      </trkpt>
      <trkpt lat="49.18405" lon="6.91335">
        <ele>256.6</ele>
        <time>2020-06-26T20:44:42Z</time>
      </trkpt>
      <trkpt lat="49.18403" lon="6.91341">
        <ele>256.9</ele>
        <time>2020-06-26T20:44:43Z</time>
      </trkpt>
      <trkpt lat="49.18402" lon="6.91343">
        <ele>257.1</ele>
        <time>2020-06-26T20:44:44Z</time>
      </trkpt>
      <trkpt lat="49.18401" lon="6.91348">
        <ele>257.3</ele>
        <time>2020-06-26T20:44:45Z</time>
      </trkpt>
      <trkpt lat="49.18399" lon="6.91352">
        <ele>257.5</ele>
        <time>2020-06-26T20:44:46Z</time>
      </trkpt>
      <trkpt lat="49.18398" lon="6.91356">
        <ele>257.7</ele>
        <time>2020-06-26T20:44:47Z</time>
      </trkpt>
      <trkpt lat="49.18397" lon="6.9136">
        <ele>257.9</ele>
        <time>2020-06-26T20:44:48Z</time>
      </trkpt>
      <trkpt lat="49.18396" lon="6.91364">
        <ele>258.1</ele>
        <time>2020-06-26T20:44:49Z</time>
      </trkpt>
      <trkpt lat="49.18396" lon="6.9137">
        <ele>258.2</ele>
        <time>2020-06-26T20:44:50Z</time>
      </trkpt>
      <trkpt lat="49.18396" lon="6.91372">
        <ele>258.3</ele>
        <time>2020-06-26T20:44:51Z</time>
      </trkpt>
      <trkpt lat="49.18395" lon="6.91376">
        <ele>258.5</ele>
        <time>2020-06-26T20:44:52Z</time>
      </trkpt>
      <trkpt lat="49.18395" lon="6.91378">
        <ele>258.6</ele>
        <time>2020-06-26T20:44:53Z</time>
      </trkpt>
      <trkpt lat="49.18395" lon="6.91383">
        <ele>258.8</ele>
        <time>2020-06-26T20:44:54Z</time>
      </trkpt>
      <trkpt lat="49.18394" lon="6.91384">
        <ele>258.8</ele>
        <time>2020-06-26T20:44:55Z</time>
      </trkpt>
      <trkpt lat="49.18394" lon="6.91386">
        <ele>258.9</ele>
        <time>2020-06-26T20:44:56Z</time>
      </trkpt>
      <trkpt lat="49.18393" lon="6.91388">
        <ele>259</ele>
        <time>2020-06-26T20:44:57Z</time>
      </trkpt>
      <trkpt lat="49.18392" lon="6.91393">
        <ele>259.2</ele>
        <time>2020-06-26T20:44:58Z</time>
      </trkpt>
      <trkpt lat="49.18391" lon="6.91395">
        <ele>259.3</ele>
        <time>2020-06-26T20:44:59Z</time>
      </trkpt>
      <trkpt lat="49.18391" lon="6.914">
        <ele>259.5</ele>
        <time>2020-06-26T20:45:00Z</time>
      </trkpt>
      <trkpt lat="49.1839" lon="6.91402">
        <ele>259.5</ele>
        <time>2020-06-26T20:45:01Z</time>
      </trkpt>
      <trkpt lat="49.18388" lon="6.91406">
        <ele>259.7</ele>
        <time>2020-06-26T20:45:02Z</time>
      </trkpt>
      <trkpt lat="49.18387" lon="6.9141">
        <ele>259.9</ele>
        <time>2020-06-26T20:45:03Z</time>
      </trkpt>
      <trkpt lat="49.18386" lon="6.91415">
        <ele>260.1</ele>
        <time>2020-06-26T20:45:04Z</time>
      </trkpt>
      <trkpt lat="49.18385" lon="6.91416">
        <ele>260.1</ele>
        <time>2020-06-26T20:45:05Z</time>
      </trkpt>
      <trkpt lat="49.18384" lon="6.9142">
        <ele>260.3</ele>
        <time>2020-06-26T20:45:06Z</time>
      </trkpt>
      <trkpt lat="49.18384" lon="6.91422">
        <ele>260.4</ele>
        <time>2020-06-26T20:45:07Z</time>
      </trkpt>
      <trkpt lat="49.18383" lon="6.91427">
        <ele>260.6</ele>
        <time>2020-06-26T20:45:08Z</time>
      </trkpt>
      <trkpt lat="49.18383" lon="6.91429">
        <ele>260.7</ele>
        <time>2020-06-26T20:45:09Z</time>
      </trkpt>
      <trkpt lat="49.18381" lon="6.91434">
        <ele>260.9</ele>
        <time>2020-06-26T20:45:10Z</time>
      </trkpt>
      <trkpt lat="49.1838" lon="6.91435">
        <ele>261</ele>
        <time>2020-06-26T20:45:11Z</time>
      </trkpt>
      <trkpt lat="49.18379" lon="6.91439">
        <ele>261.2</ele>
        <time>2020-06-26T20:45:12Z</time>
      </trkpt>
      <trkpt lat="49.18379" lon="6.9144">
        <ele>261.2</ele>
        <time>2020-06-26T20:45:13Z</time>
      </trkpt>
      <trkpt lat="49.18376" lon="6.91444">
        <ele>261.5</ele>
        <time>2020-06-26T20:45:14Z</time>
      </trkpt>
      <trkpt lat="49.18375" lon="6.91445">
        <ele>261.6</ele>
        <time>2020-06-26T20:45:15Z</time>
      </trkpt>
      <trkpt lat="49.18374" lon="6.91448">
        <ele>261.7</ele>
        <time>2020-06-26T20:45:16Z</time>
      </trkpt>
      <trkpt lat="49.18374" lon="6.91449">
        <ele>261.8</ele>
        <time>2020-06-26T20:45:17Z</time>
      </trkpt>
      <trkpt lat="49.18372" lon="6.91453">
        <ele>262</ele>
        <time>2020-06-26T20:45:18Z</time>
      </trkpt>
      <trkpt lat="49.18372" lon="6.91454">
        <ele>262.1</ele>
        <time>2020-06-26T20:45:19Z</time>
      </trkpt>
      <trkpt lat="49.18368" lon="6.91457">
        <ele>262.4</ele>
        <time>2020-06-26T20:45:20Z</time>
      </trkpt>
      <trkpt lat="49.18366" lon="6.91461">
        <ele>262.7</ele>
        <time>2020-06-26T20:45:21Z</time>
      </trkpt>
      <trkpt lat="49.18364" lon="6.91464">
        <ele>262.9</ele>
        <time>2020-06-26T20:45:22Z</time>
      </trkpt>
      <trkpt lat="49.18362" lon="6.91468">
        <ele>263.1</ele>
        <time>2020-06-26T20:45:23Z</time>
      </trkpt>
      <trkpt lat="49.18361" lon="6.91469">
        <ele>263.2</ele>
        <time>2020-06-26T20:45:24Z</time>
      </trkpt>
      <trkpt lat="49.1836" lon="6.91473">
        <ele>263.4</ele>
        <time>2020-06-26T20:45:25Z</time>
      </trkpt>
      <trkpt lat="49.18359" lon="6.91475">
        <ele>263.5</ele>
        <time>2020-06-26T20:45:26Z</time>
      </trkpt>
      <trkpt lat="49.18358" lon="6.91479">
        <ele>263.7</ele>
        <time>2020-06-26T20:45:27Z</time>
      </trkpt>
      <trkpt lat="49.18358" lon="6.91481">
        <ele>263.8</ele>
        <time>2020-06-26T20:45:28Z</time>
      </trkpt>
      <trkpt lat="49.18356" lon="6.91485">
        <ele>264.1</ele>
        <time>2020-06-26T20:45:29Z</time>
      </trkpt>
      <trkpt lat="49.18355" lon="6.91487">
        <ele>264.2</ele>
        <time>2020-06-26T20:45:30Z</time>
      </trkpt>
      <trkpt lat="49.18353" lon="6.9149">
        <ele>264.4</ele>
        <time>2020-06-26T20:45:31Z</time>
      </trkpt>
      <trkpt lat="49.18352" lon="6.91491">
        <ele>264.5</ele>
        <time>2020-06-26T20:45:32Z</time>
      </trkpt>
      <trkpt lat="49.1835" lon="6.91495">
        <ele>264.7</ele>
        <time>2020-06-26T20:45:33Z</time>
      </trkpt>
      <trkpt lat="49.18349" lon="6.91496">
        <ele>264.8</ele>
        <time>2020-06-26T20:45:34Z</time>
      </trkpt>
      <trkpt lat="49.18346" lon="6.915">
        <ele>265.1</ele>
        <time>2020-06-26T20:45:35Z</time>
      </trkpt>
      <trkpt lat="49.18345" lon="6.91501">
        <ele>265.2</ele>
        <time>2020-06-26T20:45:36Z</time>
      </trkpt>
      <trkpt lat="49.18343" lon="6.91505">
        <ele>265.4</ele>
        <time>2020-06-26T20:45:37Z</time>
      </trkpt>
      <trkpt lat="49.18343" lon="6.91506">
        <ele>265.4</ele>
        <time>2020-06-26T20:45:38Z</time>
      </trkpt>
      <trkpt lat="49.18341" lon="6.91511">
        <ele>265.6</ele>
        <time>2020-06-26T20:45:39Z</time>
      </trkpt>
      <trkpt lat="49.18341" lon="6.91512">
        <ele>265.7</ele>
        <time>2020-06-26T20:45:40Z</time>
      </trkpt>
      <trkpt lat="49.18339" lon="6.91518">
        <ele>265.9</ele>
        <time>2020-06-26T20:45:41Z</time>
      </trkpt>
      <trkpt lat="49.18338" lon="6.91519">
        <ele>266</ele>
        <time>2020-06-26T20:45:42Z</time>
      </trkpt>
      <trkpt lat="49.18336" lon="6.91523">
        <ele>266.1</ele>
        <time>2020-06-26T20:45:43Z</time>
      </trkpt>
      <trkpt lat="49.18336" lon="6.91525">
        <ele>266.2</ele>
        <time>2020-06-26T20:45:44Z</time>
      </trkpt>
      <trkpt lat="49.18334" lon="6.91528">
        <ele>266.3</ele>
        <time>2020-06-26T20:45:45Z</time>
      </trkpt>
      <trkpt lat="49.18332" lon="6.91531">
        <ele>266.4</ele>
        <time>2020-06-26T20:45:46Z</time>
      </trkpt>
      <trkpt lat="49.1833" lon="6.91535">
        <ele>266.5</ele>
        <time>2020-06-26T20:45:47Z</time>
      </trkpt>
      <trkpt lat="49.18328" lon="6.91539">
        <ele>266.6</ele>
        <time>2020-06-26T20:45:48Z</time>
      </trkpt>
      <trkpt lat="49.18327" lon="6.91541">
        <ele>266.7</ele>
        <time>2020-06-26T20:45:49Z</time>
      </trkpt>
      <trkpt lat="49.18324" lon="6.91544">
        <ele>266.8</ele>
        <time>2020-06-26T20:45:50Z</time>
      </trkpt>
      <trkpt lat="49.18323" lon="6.91546">
        <ele>266.9</ele>
        <time>2020-06-26T20:45:51Z</time>
      </trkpt>
      <trkpt lat="49.1832" lon="6.9155">
        <ele>267</ele>
        <time>2020-06-26T20:45:52Z</time>
      </trkpt>
      <trkpt lat="49.18319" lon="6.91551">
        <ele>267</ele>
        <time>2020-06-26T20:45:53Z</time>
      </trkpt>
      <trkpt lat="49.18316" lon="6.91555">
        <ele>267.1</ele>
        <time>2020-06-26T20:45:54Z</time>
      </trkpt>
      <trkpt lat="49.18315" lon="6.91556">
        <ele>267.2</ele>
        <time>2020-06-26T20:45:55Z</time>
      </trkpt>
      <trkpt lat="49.18313" lon="6.9156">
        <ele>267.3</ele>
        <time>2020-06-26T20:45:56Z</time>
      </trkpt>
      <trkpt lat="49.18312" lon="6.91561">
        <ele>267.3</ele>
        <time>2020-06-26T20:45:57Z</time>
      </trkpt>
      <trkpt lat="49.18309" lon="6.91564">
        <ele>267.4</ele>
        <time>2020-06-26T20:45:58Z</time>
      </trkpt>
      <trkpt lat="49.18306" lon="6.91568">
        <ele>267.6</ele>
        <time>2020-06-26T20:45:59Z</time>
      </trkpt>
      <trkpt lat="49.18304" lon="6.91572">
        <ele>267.6</ele>
        <time>2020-06-26T20:46:00Z</time>
      </trkpt>
      <trkpt lat="49.18302" lon="6.91576">
        <ele>267.7</ele>
        <time>2020-06-26T20:46:01Z</time>
      </trkpt>
      <trkpt lat="49.18301" lon="6.91577">
        <ele>268.2</ele>
        <time>2020-06-26T20:46:02Z</time>
      </trkpt>
      <trkpt lat="49.18298" lon="6.91581">
        <ele>268.3</ele>
        <time>2020-06-26T20:46:03Z</time>
      </trkpt>
      <trkpt lat="49.18297" lon="6.91582">
        <ele>268.4</ele>
        <time>2020-06-26T20:46:04Z</time>
      </trkpt>
      <trkpt lat="49.18294" lon="6.91586">
        <ele>268.5</ele>
        <time>2020-06-26T20:46:05Z</time>
      </trkpt>
      <trkpt lat="49.18291" lon="6.9159">
        <ele>268.6</ele>
        <time>2020-06-26T20:46:06Z</time>
      </trkpt>
      <trkpt lat="49.18288" lon="6.91592">
        <ele>268.8</ele>
        <time>2020-06-26T20:46:07Z</time>
      </trkpt>
      <trkpt lat="49.18287" lon="6.91593">
        <ele>268.7</ele>
        <time>2020-06-26T20:46:08Z</time>
      </trkpt>
      <trkpt lat="49.18284" lon="6.91596">
        <ele>268.7</ele>
        <time>2020-06-26T20:46:09Z</time>
      </trkpt>
      <trkpt lat="49.18283" lon="6.91597">
        <ele>268.6</ele>
        <time>2020-06-26T20:46:10Z</time>
      </trkpt>
      <trkpt lat="49.18282" lon="6.91602">
        <ele>268.6</ele>
        <time>2020-06-26T20:46:11Z</time>
      </trkpt>
      <trkpt lat="49.18282" lon="6.91603">
        <ele>268.5</ele>
        <time>2020-06-26T20:46:12Z</time>
      </trkpt>
      <trkpt lat="49.18281" lon="6.91608">
        <ele>268.3</ele>
        <time>2020-06-26T20:46:13Z</time>
      </trkpt>
      <trkpt lat="49.18281" lon="6.91613">
        <ele>268.3</ele>
        <time>2020-06-26T20:46:14Z</time>
      </trkpt>
      <trkpt lat="49.1828" lon="6.91617">
        <ele>268.3</ele>
        <time>2020-06-26T20:46:15Z</time>
      </trkpt>
      <trkpt lat="49.18279" lon="6.91622">
        <ele>268.3</ele>
        <time>2020-06-26T20:46:16Z</time>
      </trkpt>
      <trkpt lat="49.18276" lon="6.91627">
        <ele>268.2</ele>
        <time>2020-06-26T20:46:17Z</time>
      </trkpt>
      <trkpt lat="49.18273" lon="6.91632">
        <ele>268.2</ele>
        <time>2020-06-26T20:46:18Z</time>
      </trkpt>
      <trkpt lat="49.1827" lon="6.91635">
        <ele>268.2</ele>
        <time>2020-06-26T20:46:19Z</time>
      </trkpt>
      <trkpt lat="49.18267" lon="6.91639">
        <ele>268.2</ele>
        <time>2020-06-26T20:46:20Z</time>
      </trkpt>
      <trkpt lat="49.18264" lon="6.91644">
        <ele>268.2</ele>
        <time>2020-06-26T20:46:21Z</time>
      </trkpt>
      <trkpt lat="49.18261" lon="6.9165">
        <ele>268.1</ele>
        <time>2020-06-26T20:46:22Z</time>
      </trkpt>
      <trkpt lat="49.18258" lon="6.91655">
        <ele>268.1</ele>
        <time>2020-06-26T20:46:23Z</time>
      </trkpt>
      <trkpt lat="49.18255" lon="6.9166">
        <ele>268.1</ele>
        <time>2020-06-26T20:46:24Z</time>
      </trkpt>
      <trkpt lat="49.18252" lon="6.91664">
        <ele>268.1</ele>
        <time>2020-06-26T20:46:25Z</time>
      </trkpt>
      <trkpt lat="49.18248" lon="6.91667">
        <ele>268.1</ele>
        <time>2020-06-26T20:46:26Z</time>
      </trkpt>
      <trkpt lat="49.18244" lon="6.91671">
        <ele>268.1</ele>
        <time>2020-06-26T20:46:27Z</time>
      </trkpt>
      <trkpt lat="49.18241" lon="6.91674">
        <ele>268.2</ele>
        <time>2020-06-26T20:46:28Z</time>
      </trkpt>
      <trkpt lat="49.18237" lon="6.91678">
        <ele>268.2</ele>
        <time>2020-06-26T20:46:29Z</time>
      </trkpt>
      <trkpt lat="49.18234" lon="6.91682">
        <ele>268.2</ele>
        <time>2020-06-26T20:46:30Z</time>
      </trkpt>
      <trkpt lat="49.18231" lon="6.91685">
        <ele>268.2</ele>
        <time>2020-06-26T20:46:31Z</time>
      </trkpt>
      <trkpt lat="49.18227" lon="6.91689">
        <ele>268.2</ele>
        <time>2020-06-26T20:46:32Z</time>
      </trkpt>
      <trkpt lat="49.18223" lon="6.91693">
        <ele>268.2</ele>
        <time>2020-06-26T20:46:33Z</time>
      </trkpt>
      <trkpt lat="49.18219" lon="6.91697">
        <ele>268.2</ele>
        <time>2020-06-26T20:46:34Z</time>
      </trkpt>
      <trkpt lat="49.18216" lon="6.917">
        <ele>268.1</ele>
        <time>2020-06-26T20:46:35Z</time>
      </trkpt>
      <trkpt lat="49.18213" lon="6.91703">
        <ele>268.1</ele>
        <time>2020-06-26T20:46:36Z</time>
      </trkpt>
      <trkpt lat="49.18209" lon="6.91706">
        <ele>268.1</ele>
        <time>2020-06-26T20:46:37Z</time>
      </trkpt>
      <trkpt lat="49.18206" lon="6.91705">
        <ele>268.1</ele>
        <time>2020-06-26T20:46:38Z</time>
      </trkpt>
      <trkpt lat="49.18203" lon="6.91707">
        <ele>268.1</ele>
        <time>2020-06-26T20:46:39Z</time>
      </trkpt>
      <trkpt lat="49.182" lon="6.91709">
        <ele>268.1</ele>
        <time>2020-06-26T20:46:40Z</time>
      </trkpt>
      <trkpt lat="49.18196" lon="6.91711">
        <ele>268.1</ele>
        <time>2020-06-26T20:46:41Z</time>
      </trkpt>
      <trkpt lat="49.18194" lon="6.91712">
        <ele>268.1</ele>
        <time>2020-06-26T20:46:42Z</time>
      </trkpt>
      <trkpt lat="49.1819" lon="6.91715">
        <ele>268.1</ele>
        <time>2020-06-26T20:46:43Z</time>
      </trkpt>
      <trkpt lat="49.18188" lon="6.91717">
        <ele>268.1</ele>
        <time>2020-06-26T20:46:44Z</time>
      </trkpt>
      <trkpt lat="49.18185" lon="6.9172">
        <ele>268.1</ele>
        <time>2020-06-26T20:46:45Z</time>
      </trkpt>
      <trkpt lat="49.18182" lon="6.91723">
        <ele>268.1</ele>
        <time>2020-06-26T20:46:46Z</time>
      </trkpt>
      <trkpt lat="49.18179" lon="6.91725">
        <ele>268.1</ele>
        <time>2020-06-26T20:46:47Z</time>
      </trkpt>
      <trkpt lat="49.18176" lon="6.91728">
        <ele>268.1</ele>
        <time>2020-06-26T20:46:48Z</time>
      </trkpt>
      <trkpt lat="49.18173" lon="6.91731">
        <ele>268.1</ele>
        <time>2020-06-26T20:46:49Z</time>
      </trkpt>
      <trkpt lat="49.18169" lon="6.91733">
        <ele>268.1</ele>
        <time>2020-06-26T20:46:50Z</time>
      </trkpt>
      <trkpt lat="49.18166" lon="6.91735">
        <ele>268.1</ele>
        <time>2020-06-26T20:46:51Z</time>
      </trkpt>
      <trkpt lat="49.18162" lon="6.91736">
        <ele>268.1</ele>
        <time>2020-06-26T20:46:52Z</time>
      </trkpt>
      <trkpt lat="49.18159" lon="6.91739">
        <ele>268.1</ele>
        <time>2020-06-26T20:46:53Z</time>
      </trkpt>
      <trkpt lat="49.18155" lon="6.91743">
        <ele>268.1</ele>
        <time>2020-06-26T20:46:54Z</time>
      </trkpt>
      <trkpt lat="49.18151" lon="6.91746">
        <ele>268.2</ele>
        <time>2020-06-26T20:46:55Z</time>
      </trkpt>
      <trkpt lat="49.18147" lon="6.9175">
        <ele>268.2</ele>
        <time>2020-06-26T20:46:56Z</time>
      </trkpt>
      <trkpt lat="49.18144" lon="6.91753">
        <ele>268.2</ele>
        <time>2020-06-26T20:46:57Z</time>
      </trkpt>
      <trkpt lat="49.18139" lon="6.91757">
        <ele>268.3</ele>
        <time>2020-06-26T20:46:58Z</time>
      </trkpt>
      <trkpt lat="49.18135" lon="6.91762">
        <ele>268.3</ele>
        <time>2020-06-26T20:46:59Z</time>
      </trkpt>
      <trkpt lat="49.18131" lon="6.91766">
        <ele>268.3</ele>
        <time>2020-06-26T20:47:00Z</time>
      </trkpt>
      <trkpt lat="49.18127" lon="6.9177">
        <ele>268.4</ele>
        <time>2020-06-26T20:47:01Z</time>
      </trkpt>
      <trkpt lat="49.18124" lon="6.91772">
        <ele>268.4</ele>
        <time>2020-06-26T20:47:02Z</time>
      </trkpt>
      <trkpt lat="49.1812" lon="6.91774">
        <ele>268.5</ele>
        <time>2020-06-26T20:47:03Z</time>
      </trkpt>
      <trkpt lat="49.18116" lon="6.91776">
        <ele>268.5</ele>
        <time>2020-06-26T20:47:04Z</time>
      </trkpt>
      <trkpt lat="49.18112" lon="6.91778">
        <ele>268.6</ele>
        <time>2020-06-26T20:47:05Z</time>
      </trkpt>
      <trkpt lat="49.18108" lon="6.91779">
        <ele>268.6</ele>
        <time>2020-06-26T20:47:06Z</time>
      </trkpt>
      <trkpt lat="49.18104" lon="6.91782">
        <ele>268.7</ele>
        <time>2020-06-26T20:47:07Z</time>
      </trkpt>
      <trkpt lat="49.18101" lon="6.91784">
        <ele>268.7</ele>
        <time>2020-06-26T20:47:08Z</time>
      </trkpt>
      <trkpt lat="49.18097" lon="6.91788">
        <ele>268.8</ele>
        <time>2020-06-26T20:47:09Z</time>
      </trkpt>
      <trkpt lat="49.18094" lon="6.9179">
        <ele>268.8</ele>
        <time>2020-06-26T20:47:10Z</time>
      </trkpt>
      <trkpt lat="49.18091" lon="6.91793">
        <ele>268.8</ele>
        <time>2020-06-26T20:47:11Z</time>
      </trkpt>
      <trkpt lat="49.18088" lon="6.91796">
        <ele>268.8</ele>
        <time>2020-06-26T20:47:12Z</time>
      </trkpt>
      <trkpt lat="49.18085" lon="6.91798">
        <ele>268.9</ele>
        <time>2020-06-26T20:47:13Z</time>
      </trkpt>
      <trkpt lat="49.18081" lon="6.91801">
        <ele>268.9</ele>
        <time>2020-06-26T20:47:14Z</time>
      </trkpt>
      <trkpt lat="49.18078" lon="6.91803">
        <ele>269</ele>
        <time>2020-06-26T20:47:15Z</time>
      </trkpt>
      <trkpt lat="49.18074" lon="6.91805">
        <ele>269.1</ele>
        <time>2020-06-26T20:47:16Z</time>
      </trkpt>
      <trkpt lat="49.1807" lon="6.91804">
        <ele>270.2</ele>
        <time>2020-06-26T20:47:17Z</time>
      </trkpt>
      <trkpt lat="49.18067" lon="6.91802">
        <ele>270.2</ele>
        <time>2020-06-26T20:47:18Z</time>
      </trkpt>
      <trkpt lat="49.18063" lon="6.918">
        <ele>270.2</ele>
        <time>2020-06-26T20:47:19Z</time>
      </trkpt>
      <trkpt lat="49.1806" lon="6.91799">
        <ele>270</ele>
        <time>2020-06-26T20:47:20Z</time>
      </trkpt>
      <trkpt lat="49.18057" lon="6.91799">
        <ele>270</ele>
        <time>2020-06-26T20:47:21Z</time>
      </trkpt>
      <trkpt lat="49.18053" lon="6.91801">
        <ele>270</ele>
        <time>2020-06-26T20:47:22Z</time>
      </trkpt>
      <trkpt lat="49.18049" lon="6.91802">
        <ele>269.9</ele>
        <time>2020-06-26T20:47:23Z</time>
      </trkpt>
      <trkpt lat="49.18045" lon="6.91804">
        <ele>269.8</ele>
        <time>2020-06-26T20:47:24Z</time>
      </trkpt>
      <trkpt lat="49.18041" lon="6.91807">
        <ele>269.7</ele>
        <time>2020-06-26T20:47:25Z</time>
      </trkpt>
      <trkpt lat="49.18038" lon="6.91811">
        <ele>269.7</ele>
        <time>2020-06-26T20:47:26Z</time>
      </trkpt>
      <trkpt lat="49.18036" lon="6.91815">
        <ele>269.6</ele>
        <time>2020-06-26T20:47:27Z</time>
      </trkpt>
      <trkpt lat="49.18034" lon="6.91819">
        <ele>269.5</ele>
        <time>2020-06-26T20:47:28Z</time>
      </trkpt>
      <trkpt lat="49.18032" lon="6.91823">
        <ele>269.5</ele>
        <time>2020-06-26T20:47:29Z</time>
      </trkpt>
      <trkpt lat="49.1803" lon="6.91828">
        <ele>270</ele>
        <time>2020-06-26T20:47:30Z</time>
      </trkpt>
      <trkpt lat="49.18029" lon="6.91833">
        <ele>270</ele>
        <time>2020-06-26T20:47:31Z</time>
      </trkpt>
      <trkpt lat="49.18027" lon="6.91839">
        <ele>270.1</ele>
        <time>2020-06-26T20:47:32Z</time>
      </trkpt>
      <trkpt lat="49.18024" lon="6.91844">
        <ele>270.1</ele>
        <time>2020-06-26T20:47:33Z</time>
      </trkpt>
      <trkpt lat="49.1802" lon="6.91849">
        <ele>270.2</ele>
        <time>2020-06-26T20:47:34Z</time>
      </trkpt>
      <trkpt lat="49.18017" lon="6.91852">
        <ele>270.3</ele>
        <time>2020-06-26T20:47:35Z</time>
      </trkpt>
      <trkpt lat="49.18014" lon="6.91855">
        <ele>270.4</ele>
        <time>2020-06-26T20:47:36Z</time>
      </trkpt>
      <trkpt lat="49.18011" lon="6.91859">
        <ele>270.4</ele>
        <time>2020-06-26T20:47:37Z</time>
      </trkpt>
      <trkpt lat="49.18008" lon="6.91861">
        <ele>270.5</ele>
        <time>2020-06-26T20:47:38Z</time>
      </trkpt>
      <trkpt lat="49.18004" lon="6.91863">
        <ele>270.6</ele>
        <time>2020-06-26T20:47:39Z</time>
      </trkpt>
      <trkpt lat="49.18" lon="6.91866">
        <ele>270.7</ele>
        <time>2020-06-26T20:47:40Z</time>
      </trkpt>
      <trkpt lat="49.17997" lon="6.91868">
        <ele>270.8</ele>
        <time>2020-06-26T20:47:41Z</time>
      </trkpt>
      <trkpt lat="49.17994" lon="6.9187">
        <ele>270.9</ele>
        <time>2020-06-26T20:47:42Z</time>
      </trkpt>
      <trkpt lat="49.1799" lon="6.91872">
        <ele>271</ele>
        <time>2020-06-26T20:47:43Z</time>
      </trkpt>
      <trkpt lat="49.17987" lon="6.91874">
        <ele>271.1</ele>
        <time>2020-06-26T20:47:44Z</time>
      </trkpt>
      <trkpt lat="49.17983" lon="6.91876">
        <ele>271.3</ele>
        <time>2020-06-26T20:47:45Z</time>
      </trkpt>
      <trkpt lat="49.1798" lon="6.91879">
        <ele>271.5</ele>
        <time>2020-06-26T20:47:46Z</time>
      </trkpt>
      <trkpt lat="49.17977" lon="6.91881">
        <ele>271.7</ele>
        <time>2020-06-26T20:47:47Z</time>
      </trkpt>
      <trkpt lat="49.17974" lon="6.91884">
        <ele>271.9</ele>
        <time>2020-06-26T20:47:48Z</time>
      </trkpt>
      <trkpt lat="49.17971" lon="6.91886">
        <ele>272.1</ele>
        <time>2020-06-26T20:47:49Z</time>
      </trkpt>
      <trkpt lat="49.17969" lon="6.91889">
        <ele>272.2</ele>
        <time>2020-06-26T20:47:50Z</time>
      </trkpt>
      <trkpt lat="49.17966" lon="6.91893">
        <ele>272.4</ele>
        <time>2020-06-26T20:47:51Z</time>
      </trkpt>
      <trkpt lat="49.17964" lon="6.91895">
        <ele>272.5</ele>
        <time>2020-06-26T20:47:52Z</time>
      </trkpt>
      <trkpt lat="49.17961" lon="6.91897">
        <ele>272.6</ele>
        <time>2020-06-26T20:47:53Z</time>
      </trkpt>
      <trkpt lat="49.17959" lon="6.919">
        <ele>272.6</ele>
        <time>2020-06-26T20:47:54Z</time>
      </trkpt>
      <trkpt lat="49.17956" lon="6.91905">
        <ele>272.8</ele>
        <time>2020-06-26T20:47:55Z</time>
      </trkpt>
      <trkpt lat="49.17955" lon="6.91907">
        <ele>272.9</ele>
        <time>2020-06-26T20:47:56Z</time>
      </trkpt>
      <trkpt lat="49.17952" lon="6.91913">
        <ele>273.2</ele>
        <time>2020-06-26T20:47:57Z</time>
      </trkpt>
      <trkpt lat="49.17951" lon="6.91917">
        <ele>273.4</ele>
        <time>2020-06-26T20:47:58Z</time>
      </trkpt>
      <trkpt lat="49.17949" lon="6.9192">
        <ele>273.5</ele>
        <time>2020-06-26T20:47:59Z</time>
      </trkpt>
      <trkpt lat="49.17947" lon="6.91924">
        <ele>273.7</ele>
        <time>2020-06-26T20:48:00Z</time>
      </trkpt>
      <trkpt lat="49.17945" lon="6.91927">
        <ele>273.9</ele>
        <time>2020-06-26T20:48:01Z</time>
      </trkpt>
      <trkpt lat="49.17943" lon="6.91931">
        <ele>274</ele>
        <time>2020-06-26T20:48:02Z</time>
      </trkpt>
      <trkpt lat="49.1794" lon="6.91936">
        <ele>274.3</ele>
        <time>2020-06-26T20:48:03Z</time>
      </trkpt>
      <trkpt lat="49.17938" lon="6.9194">
        <ele>274.4</ele>
        <time>2020-06-26T20:48:04Z</time>
      </trkpt>
      <trkpt lat="49.17935" lon="6.91945">
        <ele>274.6</ele>
        <time>2020-06-26T20:48:05Z</time>
      </trkpt>
      <trkpt lat="49.17934" lon="6.91947">
        <ele>274.8</ele>
        <time>2020-06-26T20:48:06Z</time>
      </trkpt>
      <trkpt lat="49.17932" lon="6.91951">
        <ele>274.9</ele>
        <time>2020-06-26T20:48:07Z</time>
      </trkpt>
      <trkpt lat="49.1793" lon="6.91954">
        <ele>275.1</ele>
        <time>2020-06-26T20:48:08Z</time>
      </trkpt>
      <trkpt lat="49.17929" lon="6.91959">
        <ele>275.3</ele>
        <time>2020-06-26T20:48:09Z</time>
      </trkpt>
      <trkpt lat="49.17928" lon="6.91963">
        <ele>275.4</ele>
        <time>2020-06-26T20:48:10Z</time>
      </trkpt>
      <trkpt lat="49.17927" lon="6.91968">
        <ele>275.6</ele>
        <time>2020-06-26T20:48:11Z</time>
      </trkpt>
      <trkpt lat="49.17925" lon="6.91972">
        <ele>275.7</ele>
        <time>2020-06-26T20:48:12Z</time>
      </trkpt>
      <trkpt lat="49.17923" lon="6.91977">
        <ele>276</ele>
        <time>2020-06-26T20:48:13Z</time>
      </trkpt>
      <trkpt lat="49.17922" lon="6.91979">
        <ele>276.1</ele>
        <time>2020-06-26T20:48:14Z</time>
      </trkpt>
      <trkpt lat="49.1792" lon="6.91984">
        <ele>276.2</ele>
        <time>2020-06-26T20:48:15Z</time>
      </trkpt>
      <trkpt lat="49.17919" lon="6.91988">
        <ele>276.4</ele>
        <time>2020-06-26T20:48:16Z</time>
      </trkpt>
      <trkpt lat="49.17918" lon="6.91993">
        <ele>276.6</ele>
        <time>2020-06-26T20:48:17Z</time>
      </trkpt>
      <trkpt lat="49.17916" lon="6.91997">
        <ele>276.8</ele>
        <time>2020-06-26T20:48:18Z</time>
      </trkpt>
      <trkpt lat="49.17915" lon="6.92001">
        <ele>276.9</ele>
        <time>2020-06-26T20:48:19Z</time>
      </trkpt>
      <trkpt lat="49.17914" lon="6.92007">
        <ele>277.1</ele>
        <time>2020-06-26T20:48:20Z</time>
      </trkpt>
      <trkpt lat="49.17913" lon="6.92008">
        <ele>277.2</ele>
        <time>2020-06-26T20:48:21Z</time>
      </trkpt>
      <trkpt lat="49.17912" lon="6.92012">
        <ele>277.3</ele>
        <time>2020-06-26T20:48:22Z</time>
      </trkpt>
      <trkpt lat="49.17912" lon="6.92018">
        <ele>277.5</ele>
        <time>2020-06-26T20:48:23Z</time>
      </trkpt>
      <trkpt lat="49.17912" lon="6.9202">
        <ele>277.6</ele>
        <time>2020-06-26T20:48:24Z</time>
      </trkpt>
      <trkpt lat="49.17911" lon="6.92025">
        <ele>277.7</ele>
        <time>2020-06-26T20:48:25Z</time>
      </trkpt>
      <trkpt lat="49.1791" lon="6.92029">
        <ele>277.9</ele>
        <time>2020-06-26T20:48:26Z</time>
      </trkpt>
      <trkpt lat="49.17909" lon="6.92033">
        <ele>278</ele>
        <time>2020-06-26T20:48:27Z</time>
      </trkpt>
      <trkpt lat="49.17907" lon="6.92038">
        <ele>278.2</ele>
        <time>2020-06-26T20:48:28Z</time>
      </trkpt>
      <trkpt lat="49.17905" lon="6.92041">
        <ele>278.4</ele>
        <time>2020-06-26T20:48:29Z</time>
      </trkpt>
      <trkpt lat="49.17903" lon="6.92046">
        <ele>278.6</ele>
        <time>2020-06-26T20:48:30Z</time>
      </trkpt>
      <trkpt lat="49.17901" lon="6.92051">
        <ele>278.8</ele>
        <time>2020-06-26T20:48:31Z</time>
      </trkpt>
      <trkpt lat="49.179" lon="6.92055">
        <ele>278.9</ele>
        <time>2020-06-26T20:48:32Z</time>
      </trkpt>
      <trkpt lat="49.17897" lon="6.92059">
        <ele>279.1</ele>
        <time>2020-06-26T20:48:33Z</time>
      </trkpt>
      <trkpt lat="49.17895" lon="6.92062">
        <ele>279.3</ele>
        <time>2020-06-26T20:48:34Z</time>
      </trkpt>
      <trkpt lat="49.17893" lon="6.92066">
        <ele>279.5</ele>
        <time>2020-06-26T20:48:35Z</time>
      </trkpt>
      <trkpt lat="49.17892" lon="6.92068">
        <ele>279.6</ele>
        <time>2020-06-26T20:48:36Z</time>
      </trkpt>
      <trkpt lat="49.1789" lon="6.92069">
        <ele>279.7</ele>
        <time>2020-06-26T20:48:37Z</time>
      </trkpt>
      <trkpt lat="49.17889" lon="6.92071">
        <ele>279.8</ele>
        <time>2020-06-26T20:48:38Z</time>
      </trkpt>
      <trkpt lat="49.17887" lon="6.92075">
        <ele>280</ele>
        <time>2020-06-26T20:48:39Z</time>
      </trkpt>
      <trkpt lat="49.17886" lon="6.92076">
        <ele>280.1</ele>
        <time>2020-06-26T20:48:40Z</time>
      </trkpt>
      <trkpt lat="49.17884" lon="6.92079">
        <ele>280.2</ele>
        <time>2020-06-26T20:48:41Z</time>
      </trkpt>
      <trkpt lat="49.1788" lon="6.92083">
        <ele>280.5</ele>
        <time>2020-06-26T20:48:42Z</time>
      </trkpt>
      <trkpt lat="49.17877" lon="6.92087">
        <ele>280.8</ele>
        <time>2020-06-26T20:48:43Z</time>
      </trkpt>
      <trkpt lat="49.17874" lon="6.9209">
        <ele>281</ele>
        <time>2020-06-26T20:48:44Z</time>
      </trkpt>
      <trkpt lat="49.17871" lon="6.92093">
        <ele>281.2</ele>
        <time>2020-06-26T20:48:45Z</time>
      </trkpt>
      <trkpt lat="49.17868" lon="6.92094">
        <ele>281.4</ele>
        <time>2020-06-26T20:48:46Z</time>
      </trkpt>
      <trkpt lat="49.17864" lon="6.92098">
        <ele>281.7</ele>
        <time>2020-06-26T20:48:47Z</time>
      </trkpt>
      <trkpt lat="49.17862" lon="6.92099">
        <ele>281.8</ele>
        <time>2020-06-26T20:48:48Z</time>
      </trkpt>
      <trkpt lat="49.1786" lon="6.921">
        <ele>282</ele>
        <time>2020-06-26T20:48:49Z</time>
      </trkpt>
      <trkpt lat="49.17857" lon="6.92101">
        <ele>282.1</ele>
        <time>2020-06-26T20:48:50Z</time>
      </trkpt>
      <trkpt lat="49.17853" lon="6.92101">
        <ele>282.3</ele>
        <time>2020-06-26T20:48:51Z</time>
      </trkpt>
      <trkpt lat="49.17852" lon="6.92101">
        <ele>282.4</ele>
        <time>2020-06-26T20:48:52Z</time>
      </trkpt>
      <trkpt lat="49.1785" lon="6.92101">
        <ele>282.5</ele>
        <time>2020-06-26T20:48:53Z</time>
      </trkpt>
      <trkpt lat="49.17846" lon="6.92101">
        <ele>282.7</ele>
        <time>2020-06-26T20:48:54Z</time>
      </trkpt>
      <trkpt lat="49.17843" lon="6.92101">
        <ele>282.9</ele>
        <time>2020-06-26T20:48:55Z</time>
      </trkpt>
      <trkpt lat="49.17839" lon="6.92099">
        <ele>283.1</ele>
        <time>2020-06-26T20:48:56Z</time>
      </trkpt>
      <trkpt lat="49.17836" lon="6.92097">
        <ele>283.3</ele>
        <time>2020-06-26T20:48:57Z</time>
      </trkpt>
      <trkpt lat="49.17833" lon="6.92095">
        <ele>283.5</ele>
        <time>2020-06-26T20:48:58Z</time>
      </trkpt>
      <trkpt lat="49.1783" lon="6.92093">
        <ele>283.7</ele>
        <time>2020-06-26T20:48:59Z</time>
      </trkpt>
      <trkpt lat="49.17827" lon="6.92091">
        <ele>283.9</ele>
        <time>2020-06-26T20:49:00Z</time>
      </trkpt>
      <trkpt lat="49.17824" lon="6.92089">
        <ele>284.1</ele>
        <time>2020-06-26T20:49:01Z</time>
      </trkpt>
      <trkpt lat="49.17821" lon="6.92087">
        <ele>284.3</ele>
        <time>2020-06-26T20:49:02Z</time>
      </trkpt>
      <trkpt lat="49.17818" lon="6.92083">
        <ele>284.6</ele>
        <time>2020-06-26T20:49:03Z</time>
      </trkpt>
      <trkpt lat="49.17816" lon="6.92079">
        <ele>284.8</ele>
        <time>2020-06-26T20:49:04Z</time>
      </trkpt>
      <trkpt lat="49.17814" lon="6.92075">
        <ele>284.9</ele>
        <time>2020-06-26T20:49:05Z</time>
      </trkpt>
      <trkpt lat="49.17812" lon="6.92072">
        <ele>285.2</ele>
        <time>2020-06-26T20:49:06Z</time>
      </trkpt>
      <trkpt lat="49.17809" lon="6.92069">
        <ele>285.4</ele>
        <time>2020-06-26T20:49:07Z</time>
      </trkpt>
      <trkpt lat="49.17805" lon="6.92067">
        <ele>285.6</ele>
        <time>2020-06-26T20:49:08Z</time>
      </trkpt>
      <trkpt lat="49.17802" lon="6.92064">
        <ele>285.9</ele>
        <time>2020-06-26T20:49:09Z</time>
      </trkpt>
      <trkpt lat="49.17799" lon="6.92062">
        <ele>286.1</ele>
        <time>2020-06-26T20:49:10Z</time>
      </trkpt>
      <trkpt lat="49.17796" lon="6.9206">
        <ele>286.3</ele>
        <time>2020-06-26T20:49:11Z</time>
      </trkpt>
      <trkpt lat="49.17793" lon="6.92059">
        <ele>286.5</ele>
        <time>2020-06-26T20:49:12Z</time>
      </trkpt>
      <trkpt lat="49.1779" lon="6.92056">
        <ele>286.7</ele>
        <time>2020-06-26T20:49:13Z</time>
      </trkpt>
      <trkpt lat="49.17789" lon="6.92055">
        <ele>286.8</ele>
        <time>2020-06-26T20:49:14Z</time>
      </trkpt>
      <trkpt lat="49.17787" lon="6.92051">
        <ele>287</ele>
        <time>2020-06-26T20:49:15Z</time>
      </trkpt>
      <trkpt lat="49.17786" lon="6.9205">
        <ele>287</ele>
        <time>2020-06-26T20:49:16Z</time>
      </trkpt>
      <trkpt lat="49.17783" lon="6.92046">
        <ele>287.3</ele>
        <time>2020-06-26T20:49:17Z</time>
      </trkpt>
      <trkpt lat="49.17783" lon="6.92043">
        <ele>287.4</ele>
        <time>2020-06-26T20:49:18Z</time>
      </trkpt>
      <trkpt lat="49.17781" lon="6.9204">
        <ele>287.5</ele>
        <time>2020-06-26T20:49:19Z</time>
      </trkpt>
      <trkpt lat="49.17779" lon="6.92036">
        <ele>287.7</ele>
        <time>2020-06-26T20:49:20Z</time>
      </trkpt>
      <trkpt lat="49.17778" lon="6.92035">
        <ele>287.8</ele>
        <time>2020-06-26T20:49:21Z</time>
      </trkpt>
      <trkpt lat="49.17776" lon="6.92031">
        <ele>287.9</ele>
        <time>2020-06-26T20:49:22Z</time>
      </trkpt>
      <trkpt lat="49.17774" lon="6.92028">
        <ele>288.1</ele>
        <time>2020-06-26T20:49:23Z</time>
      </trkpt>
      <trkpt lat="49.17772" lon="6.92023">
        <ele>288.3</ele>
        <time>2020-06-26T20:49:24Z</time>
      </trkpt>
      <trkpt lat="49.1777" lon="6.92019">
        <ele>288.5</ele>
        <time>2020-06-26T20:49:25Z</time>
      </trkpt>
      <trkpt lat="49.17768" lon="6.92015">
        <ele>288.7</ele>
        <time>2020-06-26T20:49:26Z</time>
      </trkpt>
      <trkpt lat="49.17765" lon="6.92011">
        <ele>288.9</ele>
        <time>2020-06-26T20:49:27Z</time>
      </trkpt>
      <trkpt lat="49.17763" lon="6.92008">
        <ele>289.1</ele>
        <time>2020-06-26T20:49:28Z</time>
      </trkpt>
      <trkpt lat="49.1776" lon="6.92004">
        <ele>289.2</ele>
        <time>2020-06-26T20:49:29Z</time>
      </trkpt>
      <trkpt lat="49.17757" lon="6.92001">
        <ele>289.4</ele>
        <time>2020-06-26T20:49:30Z</time>
      </trkpt>
      <trkpt lat="49.17755" lon="6.91997">
        <ele>289.6</ele>
        <time>2020-06-26T20:49:31Z</time>
      </trkpt>
      <trkpt lat="49.17752" lon="6.91994">
        <ele>289.8</ele>
        <time>2020-06-26T20:49:32Z</time>
      </trkpt>
      <trkpt lat="49.17749" lon="6.9199">
        <ele>290.1</ele>
        <time>2020-06-26T20:49:33Z</time>
      </trkpt>
      <trkpt lat="49.17747" lon="6.91987">
        <ele>290.2</ele>
        <time>2020-06-26T20:49:34Z</time>
      </trkpt>
      <trkpt lat="49.17745" lon="6.91984">
        <ele>290.3</ele>
        <time>2020-06-26T20:49:35Z</time>
      </trkpt>
      <trkpt lat="49.17742" lon="6.91981">
        <ele>290.4</ele>
        <time>2020-06-26T20:49:36Z</time>
      </trkpt>
      <trkpt lat="49.1774" lon="6.91977">
        <ele>290.5</ele>
        <time>2020-06-26T20:49:37Z</time>
      </trkpt>
      <trkpt lat="49.17738" lon="6.91973">
        <ele>290.6</ele>
        <time>2020-06-26T20:49:38Z</time>
      </trkpt>
      <trkpt lat="49.17737" lon="6.91972">
        <ele>290.7</ele>
        <time>2020-06-26T20:49:39Z</time>
      </trkpt>
      <trkpt lat="49.17735" lon="6.91969">
        <ele>290.8</ele>
        <time>2020-06-26T20:49:40Z</time>
      </trkpt>
      <trkpt lat="49.17732" lon="6.91966">
        <ele>290.9</ele>
        <time>2020-06-26T20:49:41Z</time>
      </trkpt>
      <trkpt lat="49.17729" lon="6.91963">
        <ele>291</ele>
        <time>2020-06-26T20:49:42Z</time>
      </trkpt>
      <trkpt lat="49.17727" lon="6.91959">
        <ele>291.1</ele>
        <time>2020-06-26T20:49:43Z</time>
      </trkpt>
      <trkpt lat="49.17724" lon="6.91956">
        <ele>291.2</ele>
        <time>2020-06-26T20:49:44Z</time>
      </trkpt>
      <trkpt lat="49.17721" lon="6.91952">
        <ele>291.3</ele>
        <time>2020-06-26T20:49:45Z</time>
      </trkpt>
      <trkpt lat="49.17718" lon="6.91948">
        <ele>291.4</ele>
        <time>2020-06-26T20:49:46Z</time>
      </trkpt>
      <trkpt lat="49.17715" lon="6.91945">
        <ele>291.4</ele>
        <time>2020-06-26T20:49:47Z</time>
      </trkpt>
      <trkpt lat="49.17715" lon="6.91944">
        <ele>291.5</ele>
        <time>2020-06-26T20:49:48Z</time>
      </trkpt>
      <trkpt lat="49.17712" lon="6.91939">
        <ele>291.5</ele>
        <time>2020-06-26T20:49:49Z</time>
      </trkpt>
      <trkpt lat="49.17711" lon="6.91937">
        <ele>291.5</ele>
        <time>2020-06-26T20:49:50Z</time>
      </trkpt>
      <trkpt lat="49.1771" lon="6.91931">
        <ele>291.6</ele>
        <time>2020-06-26T20:49:51Z</time>
      </trkpt>
      <trkpt lat="49.17708" lon="6.91927">
        <ele>291.7</ele>
        <time>2020-06-26T20:49:52Z</time>
      </trkpt>
      <trkpt lat="49.17706" lon="6.91923">
        <ele>291.7</ele>
        <time>2020-06-26T20:49:53Z</time>
      </trkpt>
      <trkpt lat="49.17704" lon="6.91919">
        <ele>291.8</ele>
        <time>2020-06-26T20:49:54Z</time>
      </trkpt>
      <trkpt lat="49.17701" lon="6.91916">
        <ele>291.8</ele>
        <time>2020-06-26T20:49:55Z</time>
      </trkpt>
      <trkpt lat="49.17698" lon="6.91914">
        <ele>291.9</ele>
        <time>2020-06-26T20:49:56Z</time>
      </trkpt>
      <trkpt lat="49.17695" lon="6.91909">
        <ele>291.9</ele>
        <time>2020-06-26T20:49:57Z</time>
      </trkpt>
      <trkpt lat="49.17692" lon="6.91904">
        <ele>292</ele>
        <time>2020-06-26T20:49:58Z</time>
      </trkpt>
      <trkpt lat="49.17689" lon="6.91899">
        <ele>292</ele>
        <time>2020-06-26T20:49:59Z</time>
      </trkpt>
      <trkpt lat="49.17686" lon="6.91895">
        <ele>292.1</ele>
        <time>2020-06-26T20:50:00Z</time>
      </trkpt>
      <trkpt lat="49.17684" lon="6.91891">
        <ele>292.1</ele>
        <time>2020-06-26T20:50:01Z</time>
      </trkpt>
      <trkpt lat="49.17682" lon="6.91888">
        <ele>292.1</ele>
        <time>2020-06-26T20:50:02Z</time>
      </trkpt>
      <trkpt lat="49.1768" lon="6.91885">
        <ele>292.1</ele>
        <time>2020-06-26T20:50:03Z</time>
      </trkpt>
      <trkpt lat="49.17678" lon="6.91881">
        <ele>292.2</ele>
        <time>2020-06-26T20:50:04Z</time>
      </trkpt>
      <trkpt lat="49.17676" lon="6.91878">
        <ele>292.2</ele>
        <time>2020-06-26T20:50:05Z</time>
      </trkpt>
      <trkpt lat="49.17674" lon="6.91874">
        <ele>292.2</ele>
        <time>2020-06-26T20:50:06Z</time>
      </trkpt>
      <trkpt lat="49.17671" lon="6.9187">
        <ele>292.3</ele>
        <time>2020-06-26T20:50:07Z</time>
      </trkpt>
      <trkpt lat="49.17669" lon="6.91867">
        <ele>292.3</ele>
        <time>2020-06-26T20:50:08Z</time>
      </trkpt>
      <trkpt lat="49.17667" lon="6.91862">
        <ele>292.4</ele>
        <time>2020-06-26T20:50:09Z</time>
      </trkpt>
      <trkpt lat="49.17665" lon="6.91858">
        <ele>292.5</ele>
        <time>2020-06-26T20:50:10Z</time>
      </trkpt>
      <trkpt lat="49.17664" lon="6.91853">
        <ele>292.5</ele>
        <time>2020-06-26T20:50:11Z</time>
      </trkpt>
      <trkpt lat="49.17662" lon="6.9185">
        <ele>292.6</ele>
        <time>2020-06-26T20:50:12Z</time>
      </trkpt>
      <trkpt lat="49.17661" lon="6.91846">
        <ele>292.7</ele>
        <time>2020-06-26T20:50:13Z</time>
      </trkpt>
      <trkpt lat="49.1766" lon="6.91842">
        <ele>292.8</ele>
        <time>2020-06-26T20:50:14Z</time>
      </trkpt>
      <trkpt lat="49.17658" lon="6.91838">
        <ele>293</ele>
        <time>2020-06-26T20:50:15Z</time>
      </trkpt>
      <trkpt lat="49.17656" lon="6.91833">
        <ele>293.1</ele>
        <time>2020-06-26T20:50:16Z</time>
      </trkpt>
      <trkpt lat="49.17654" lon="6.9183">
        <ele>293.3</ele>
        <time>2020-06-26T20:50:17Z</time>
      </trkpt>
      <trkpt lat="49.17652" lon="6.91826">
        <ele>293.4</ele>
        <time>2020-06-26T20:50:18Z</time>
      </trkpt>
      <trkpt lat="49.17651" lon="6.91822">
        <ele>293.5</ele>
        <time>2020-06-26T20:50:19Z</time>
      </trkpt>
      <trkpt lat="49.1765" lon="6.91819">
        <ele>293.7</ele>
        <time>2020-06-26T20:50:20Z</time>
      </trkpt>
      <trkpt lat="49.17647" lon="6.91813">
        <ele>293.9</ele>
        <time>2020-06-26T20:50:21Z</time>
      </trkpt>
      <trkpt lat="49.17646" lon="6.91812">
        <ele>294</ele>
        <time>2020-06-26T20:50:22Z</time>
      </trkpt>
      <trkpt lat="49.17644" lon="6.91808">
        <ele>294.1</ele>
        <time>2020-06-26T20:50:23Z</time>
      </trkpt>
      <trkpt lat="49.17643" lon="6.91804">
        <ele>294.3</ele>
        <time>2020-06-26T20:50:24Z</time>
      </trkpt>
      <trkpt lat="49.17641" lon="6.918">
        <ele>294.4</ele>
        <time>2020-06-26T20:50:25Z</time>
      </trkpt>
      <trkpt lat="49.1764" lon="6.91796">
        <ele>294.6</ele>
        <time>2020-06-26T20:50:26Z</time>
      </trkpt>
      <trkpt lat="49.17637" lon="6.91791">
        <ele>294.8</ele>
        <time>2020-06-26T20:50:27Z</time>
      </trkpt>
      <trkpt lat="49.17636" lon="6.91789">
        <ele>294.9</ele>
        <time>2020-06-26T20:50:28Z</time>
      </trkpt>
      <trkpt lat="49.17635" lon="6.91785">
        <ele>295</ele>
        <time>2020-06-26T20:50:29Z</time>
      </trkpt>
      <trkpt lat="49.17633" lon="6.91781">
        <ele>295.2</ele>
        <time>2020-06-26T20:50:30Z</time>
      </trkpt>
      <trkpt lat="49.17631" lon="6.91777">
        <ele>295.4</ele>
        <time>2020-06-26T20:50:31Z</time>
      </trkpt>
      <trkpt lat="49.1763" lon="6.91773">
        <ele>295.5</ele>
        <time>2020-06-26T20:50:32Z</time>
      </trkpt>
      <trkpt lat="49.17628" lon="6.91768">
        <ele>295.7</ele>
        <time>2020-06-26T20:50:33Z</time>
      </trkpt>
      <trkpt lat="49.17627" lon="6.91767">
        <ele>295.8</ele>
        <time>2020-06-26T20:50:34Z</time>
      </trkpt>
      <trkpt lat="49.17626" lon="6.91762">
        <ele>295.9</ele>
        <time>2020-06-26T20:50:35Z</time>
      </trkpt>
      <trkpt lat="49.17625" lon="6.91758">
        <ele>296.1</ele>
        <time>2020-06-26T20:50:36Z</time>
      </trkpt>
      <trkpt lat="49.17623" lon="6.91755">
        <ele>296.2</ele>
        <time>2020-06-26T20:50:37Z</time>
      </trkpt>
      <trkpt lat="49.17622" lon="6.91751">
        <ele>296.4</ele>
        <time>2020-06-26T20:50:38Z</time>
      </trkpt>
      <trkpt lat="49.1762" lon="6.91746">
        <ele>296.6</ele>
        <time>2020-06-26T20:50:39Z</time>
      </trkpt>
      <trkpt lat="49.17619" lon="6.91741">
        <ele>296.7</ele>
        <time>2020-06-26T20:50:40Z</time>
      </trkpt>
      <trkpt lat="49.17618" lon="6.91739">
        <ele>296.8</ele>
        <time>2020-06-26T20:50:41Z</time>
      </trkpt>
      <trkpt lat="49.17617" lon="6.91735">
        <ele>296.9</ele>
        <time>2020-06-26T20:50:42Z</time>
      </trkpt>
      <trkpt lat="49.17614" lon="6.9173">
        <ele>297.1</ele>
        <time>2020-06-26T20:50:43Z</time>
      </trkpt>
      <trkpt lat="49.17613" lon="6.91727">
        <ele>297.3</ele>
        <time>2020-06-26T20:50:44Z</time>
      </trkpt>
      <trkpt lat="49.1761" lon="6.91724">
        <ele>297.4</ele>
        <time>2020-06-26T20:50:45Z</time>
      </trkpt>
      <trkpt lat="49.17609" lon="6.91722">
        <ele>297.5</ele>
        <time>2020-06-26T20:50:46Z</time>
      </trkpt>
      <trkpt lat="49.17608" lon="6.91718">
        <ele>297.6</ele>
        <time>2020-06-26T20:50:47Z</time>
      </trkpt>
      <trkpt lat="49.17607" lon="6.91714">
        <ele>297.8</ele>
        <time>2020-06-26T20:50:48Z</time>
      </trkpt>
      <trkpt lat="49.17605" lon="6.9171">
        <ele>297.9</ele>
        <time>2020-06-26T20:50:49Z</time>
      </trkpt>
      <trkpt lat="49.17604" lon="6.91706">
        <ele>298.1</ele>
        <time>2020-06-26T20:50:50Z</time>
      </trkpt>
      <trkpt lat="49.17603" lon="6.91702">
        <ele>298.2</ele>
        <time>2020-06-26T20:50:51Z</time>
      </trkpt>
      <trkpt lat="49.17601" lon="6.91696">
        <ele>298.4</ele>
        <time>2020-06-26T20:50:52Z</time>
      </trkpt>
      <trkpt lat="49.176" lon="6.91695">
        <ele>298.5</ele>
        <time>2020-06-26T20:50:53Z</time>
      </trkpt>
      <trkpt lat="49.176" lon="6.91691">
        <ele>298.6</ele>
        <time>2020-06-26T20:50:54Z</time>
      </trkpt>
      <trkpt lat="49.17598" lon="6.91686">
        <ele>298.8</ele>
        <time>2020-06-26T20:50:55Z</time>
      </trkpt>
      <trkpt lat="49.17597" lon="6.91682">
        <ele>299</ele>
        <time>2020-06-26T20:50:56Z</time>
      </trkpt>
      <trkpt lat="49.17596" lon="6.91678">
        <ele>299.1</ele>
        <time>2020-06-26T20:50:57Z</time>
      </trkpt>
      <trkpt lat="49.17594" lon="6.91673">
        <ele>299.3</ele>
        <time>2020-06-26T20:50:58Z</time>
      </trkpt>
      <trkpt lat="49.17593" lon="6.91668">
        <ele>299.5</ele>
        <time>2020-06-26T20:50:59Z</time>
      </trkpt>
      <trkpt lat="49.17592" lon="6.91666">
        <ele>299.5</ele>
        <time>2020-06-26T20:51:00Z</time>
      </trkpt>
      <trkpt lat="49.17591" lon="6.91663">
        <ele>299.7</ele>
        <time>2020-06-26T20:51:01Z</time>
      </trkpt>
      <trkpt lat="49.1759" lon="6.91659">
        <ele>299.8</ele>
        <time>2020-06-26T20:51:02Z</time>
      </trkpt>
      <trkpt lat="49.17588" lon="6.91655">
        <ele>299.9</ele>
        <time>2020-06-26T20:51:03Z</time>
      </trkpt>
      <trkpt lat="49.17586" lon="6.91651">
        <ele>300.1</ele>
        <time>2020-06-26T20:51:04Z</time>
      </trkpt>
      <trkpt lat="49.17585" lon="6.91647">
        <ele>300.2</ele>
        <time>2020-06-26T20:51:05Z</time>
      </trkpt>
      <trkpt lat="49.17582" lon="6.91645">
        <ele>300.4</ele>
        <time>2020-06-26T20:51:06Z</time>
      </trkpt>
      <trkpt lat="49.1758" lon="6.91641">
        <ele>300.6</ele>
        <time>2020-06-26T20:51:07Z</time>
      </trkpt>
      <trkpt lat="49.1758" lon="6.91636">
        <ele>300.7</ele>
        <time>2020-06-26T20:51:08Z</time>
      </trkpt>
      <trkpt lat="49.17578" lon="6.91633">
        <ele>300.9</ele>
        <time>2020-06-26T20:51:09Z</time>
      </trkpt>
      <trkpt lat="49.17577" lon="6.91628">
        <ele>301.1</ele>
        <time>2020-06-26T20:51:10Z</time>
      </trkpt>
      <trkpt lat="49.17576" lon="6.91623">
        <ele>301.3</ele>
        <time>2020-06-26T20:51:11Z</time>
      </trkpt>
      <trkpt lat="49.17575" lon="6.91621">
        <ele>301.4</ele>
        <time>2020-06-26T20:51:12Z</time>
      </trkpt>
      <trkpt lat="49.17574" lon="6.91617">
        <ele>301.6</ele>
        <time>2020-06-26T20:51:13Z</time>
      </trkpt>
      <trkpt lat="49.17572" lon="6.91613">
        <ele>301.8</ele>
        <time>2020-06-26T20:51:14Z</time>
      </trkpt>
      <trkpt lat="49.17571" lon="6.91607">
        <ele>302.1</ele>
        <time>2020-06-26T20:51:15Z</time>
      </trkpt>
      <trkpt lat="49.1757" lon="6.91605">
        <ele>302.2</ele>
        <time>2020-06-26T20:51:16Z</time>
      </trkpt>
      <trkpt lat="49.17569" lon="6.916">
        <ele>302.4</ele>
        <time>2020-06-26T20:51:17Z</time>
      </trkpt>
      <trkpt lat="49.17568" lon="6.91595">
        <ele>302.6</ele>
        <time>2020-06-26T20:51:18Z</time>
      </trkpt>
      <trkpt lat="49.17567" lon="6.91593">
        <ele>302.6</ele>
        <time>2020-06-26T20:51:19Z</time>
      </trkpt>
      <trkpt lat="49.17564" lon="6.91593">
        <ele>302.8</ele>
        <time>2020-06-26T20:51:20Z</time>
      </trkpt>
      <trkpt lat="49.17561" lon="6.91589">
        <ele>303</ele>
        <time>2020-06-26T20:51:21Z</time>
      </trkpt>
      <trkpt lat="49.1756" lon="6.91588">
        <ele>303.1</ele>
        <time>2020-06-26T20:51:22Z</time>
      </trkpt>
      <trkpt lat="49.17558" lon="6.91584">
        <ele>303.2</ele>
        <time>2020-06-26T20:51:23Z</time>
      </trkpt>
      <trkpt lat="49.17555" lon="6.91582">
        <ele>303.3</ele>
        <time>2020-06-26T20:51:24Z</time>
      </trkpt>
      <trkpt lat="49.17552" lon="6.91578">
        <ele>303.5</ele>
        <time>2020-06-26T20:51:25Z</time>
      </trkpt>
      <trkpt lat="49.1755" lon="6.91577">
        <ele>303.6</ele>
        <time>2020-06-26T20:51:26Z</time>
      </trkpt>
      <trkpt lat="49.17548" lon="6.91574">
        <ele>303.7</ele>
        <time>2020-06-26T20:51:27Z</time>
      </trkpt>
      <trkpt lat="49.17545" lon="6.91571">
        <ele>303.9</ele>
        <time>2020-06-26T20:51:28Z</time>
      </trkpt>
      <trkpt lat="49.17544" lon="6.9157">
        <ele>303.9</ele>
        <time>2020-06-26T20:51:29Z</time>
      </trkpt>
      <trkpt lat="49.17541" lon="6.91567">
        <ele>304.1</ele>
        <time>2020-06-26T20:51:30Z</time>
      </trkpt>
      <trkpt lat="49.17537" lon="6.91565">
        <ele>304.2</ele>
        <time>2020-06-26T20:51:31Z</time>
      </trkpt>
      <trkpt lat="49.17536" lon="6.91565">
        <ele>304.2</ele>
        <time>2020-06-26T20:51:32Z</time>
      </trkpt>
      <trkpt lat="49.17533" lon="6.91563">
        <ele>304.3</ele>
        <time>2020-06-26T20:51:33Z</time>
      </trkpt>
      <trkpt lat="49.1753" lon="6.91561">
        <ele>304.4</ele>
        <time>2020-06-26T20:51:34Z</time>
      </trkpt>
      <trkpt lat="49.17527" lon="6.9156">
        <ele>304.4</ele>
        <time>2020-06-26T20:51:35Z</time>
      </trkpt>
      <trkpt lat="49.17523" lon="6.91558">
        <ele>304.6</ele>
        <time>2020-06-26T20:51:36Z</time>
      </trkpt>
      <trkpt lat="49.17522" lon="6.91558">
        <ele>304.6</ele>
        <time>2020-06-26T20:51:37Z</time>
      </trkpt>
      <trkpt lat="49.17518" lon="6.91559">
        <ele>304.7</ele>
        <time>2020-06-26T20:51:38Z</time>
      </trkpt>
      <trkpt lat="49.17515" lon="6.91557">
        <ele>304.9</ele>
        <time>2020-06-26T20:51:39Z</time>
      </trkpt>
      <trkpt lat="49.17512" lon="6.91556">
        <ele>305</ele>
        <time>2020-06-26T20:51:40Z</time>
      </trkpt>
      <trkpt lat="49.17509" lon="6.91555">
        <ele>305.1</ele>
        <time>2020-06-26T20:51:41Z</time>
      </trkpt>
      <trkpt lat="49.17506" lon="6.91554">
        <ele>305.2</ele>
        <time>2020-06-26T20:51:42Z</time>
      </trkpt>
      <trkpt lat="49.17502" lon="6.91553">
        <ele>305.3</ele>
        <time>2020-06-26T20:51:43Z</time>
      </trkpt>
      <trkpt lat="49.175" lon="6.91553">
        <ele>305.4</ele>
        <time>2020-06-26T20:51:44Z</time>
      </trkpt>
      <trkpt lat="49.17497" lon="6.91553">
        <ele>305.5</ele>
        <time>2020-06-26T20:51:45Z</time>
      </trkpt>
      <trkpt lat="49.17494" lon="6.91553">
        <ele>305.9</ele>
        <time>2020-06-26T20:51:46Z</time>
      </trkpt>
      <trkpt lat="49.17491" lon="6.91554">
        <ele>306</ele>
        <time>2020-06-26T20:51:47Z</time>
      </trkpt>
      <trkpt lat="49.17488" lon="6.91555">
        <ele>306.2</ele>
        <time>2020-06-26T20:51:48Z</time>
      </trkpt>
      <trkpt lat="49.17485" lon="6.91556">
        <ele>306.4</ele>
        <time>2020-06-26T20:51:49Z</time>
      </trkpt>
      <trkpt lat="49.17482" lon="6.91558">
        <ele>306.5</ele>
        <time>2020-06-26T20:51:50Z</time>
      </trkpt>
      <trkpt lat="49.17479" lon="6.9156">
        <ele>306.7</ele>
        <time>2020-06-26T20:51:51Z</time>
      </trkpt>
      <trkpt lat="49.17477" lon="6.91563">
        <ele>306.8</ele>
        <time>2020-06-26T20:51:52Z</time>
      </trkpt>
      <trkpt lat="49.17474" lon="6.91564">
        <ele>307</ele>
        <time>2020-06-26T20:51:53Z</time>
      </trkpt>
      <trkpt lat="49.17472" lon="6.91567">
        <ele>307.1</ele>
        <time>2020-06-26T20:51:54Z</time>
      </trkpt>
      <trkpt lat="49.17469" lon="6.91568">
        <ele>307.2</ele>
        <time>2020-06-26T20:51:55Z</time>
      </trkpt>
      <trkpt lat="49.17467" lon="6.9157">
        <ele>307.4</ele>
        <time>2020-06-26T20:51:56Z</time>
      </trkpt>
      <trkpt lat="49.17464" lon="6.91573">
        <ele>307.5</ele>
        <time>2020-06-26T20:51:57Z</time>
      </trkpt>
      <trkpt lat="49.17463" lon="6.91574">
        <ele>307.6</ele>
        <time>2020-06-26T20:51:58Z</time>
      </trkpt>
      <trkpt lat="49.1746" lon="6.91576">
        <ele>307.7</ele>
        <time>2020-06-26T20:51:59Z</time>
      </trkpt>
      <trkpt lat="49.17458" lon="6.91581">
        <ele>307.9</ele>
        <time>2020-06-26T20:52:00Z</time>
      </trkpt>
      <trkpt lat="49.17455" lon="6.91583">
        <ele>308.1</ele>
        <time>2020-06-26T20:52:01Z</time>
      </trkpt>
      <trkpt lat="49.17452" lon="6.91586">
        <ele>308.3</ele>
        <time>2020-06-26T20:52:02Z</time>
      </trkpt>
      <trkpt lat="49.1745" lon="6.91591">
        <ele>308.5</ele>
        <time>2020-06-26T20:52:03Z</time>
      </trkpt>
      <trkpt lat="49.17449" lon="6.91592">
        <ele>308.6</ele>
        <time>2020-06-26T20:52:04Z</time>
      </trkpt>
      <trkpt lat="49.17445" lon="6.91596">
        <ele>308.8</ele>
        <time>2020-06-26T20:52:05Z</time>
      </trkpt>
      <trkpt lat="49.17444" lon="6.91601">
        <ele>309</ele>
        <time>2020-06-26T20:52:06Z</time>
      </trkpt>
      <trkpt lat="49.17443" lon="6.91605">
        <ele>309.2</ele>
        <time>2020-06-26T20:52:07Z</time>
      </trkpt>
      <trkpt lat="49.17441" lon="6.91609">
        <ele>309.4</ele>
        <time>2020-06-26T20:52:08Z</time>
      </trkpt>
      <trkpt lat="49.17439" lon="6.91613">
        <ele>309.5</ele>
        <time>2020-06-26T20:52:09Z</time>
      </trkpt>
      <trkpt lat="49.17437" lon="6.91617">
        <ele>309.7</ele>
        <time>2020-06-26T20:52:10Z</time>
      </trkpt>
      <trkpt lat="49.17436" lon="6.91621">
        <ele>309.9</ele>
        <time>2020-06-26T20:52:11Z</time>
      </trkpt>
      <trkpt lat="49.17435" lon="6.91626">
        <ele>310.1</ele>
        <time>2020-06-26T20:52:12Z</time>
      </trkpt>
      <trkpt lat="49.17433" lon="6.91631">
        <ele>310.3</ele>
        <time>2020-06-26T20:52:13Z</time>
      </trkpt>
      <trkpt lat="49.17432" lon="6.91633">
        <ele>310.4</ele>
        <time>2020-06-26T20:52:14Z</time>
      </trkpt>
      <trkpt lat="49.17432" lon="6.91638">
        <ele>310.6</ele>
        <time>2020-06-26T20:52:15Z</time>
      </trkpt>
      <trkpt lat="49.17431" lon="6.9164">
        <ele>310.7</ele>
        <time>2020-06-26T20:52:16Z</time>
      </trkpt>
      <trkpt lat="49.17431" lon="6.91645">
        <ele>310.9</ele>
        <time>2020-06-26T20:52:17Z</time>
      </trkpt>
      <trkpt lat="49.1743" lon="6.9165">
        <ele>311.2</ele>
        <time>2020-06-26T20:52:18Z</time>
      </trkpt>
      <trkpt lat="49.1743" lon="6.91652">
        <ele>311.2</ele>
        <time>2020-06-26T20:52:19Z</time>
      </trkpt>
      <trkpt lat="49.1743" lon="6.91657">
        <ele>311.5</ele>
        <time>2020-06-26T20:52:20Z</time>
      </trkpt>
      <trkpt lat="49.17429" lon="6.91659">
        <ele>311.5</ele>
        <time>2020-06-26T20:52:21Z</time>
      </trkpt>
      <trkpt lat="49.17429" lon="6.91663">
        <ele>311.7</ele>
        <time>2020-06-26T20:52:22Z</time>
      </trkpt>
      <trkpt lat="49.1743" lon="6.91669">
        <ele>312</ele>
        <time>2020-06-26T20:52:23Z</time>
      </trkpt>
      <trkpt lat="49.1743" lon="6.91671">
        <ele>312.1</ele>
        <time>2020-06-26T20:52:24Z</time>
      </trkpt>
      <trkpt lat="49.1743" lon="6.91677">
        <ele>312.3</ele>
        <time>2020-06-26T20:52:25Z</time>
      </trkpt>
      <trkpt lat="49.17431" lon="6.91679">
        <ele>312.4</ele>
        <time>2020-06-26T20:52:26Z</time>
      </trkpt>
      <trkpt lat="49.17431" lon="6.91685">
        <ele>312.7</ele>
        <time>2020-06-26T20:52:27Z</time>
      </trkpt>
      <trkpt lat="49.17431" lon="6.91687">
        <ele>312.7</ele>
        <time>2020-06-26T20:52:28Z</time>
      </trkpt>
      <trkpt lat="49.17432" lon="6.91693">
        <ele>313</ele>
        <time>2020-06-26T20:52:29Z</time>
      </trkpt>
      <trkpt lat="49.17433" lon="6.91696">
        <ele>313.4</ele>
        <time>2020-06-26T20:52:30Z</time>
      </trkpt>
      <trkpt lat="49.17434" lon="6.91703">
        <ele>313.8</ele>
        <time>2020-06-26T20:52:31Z</time>
      </trkpt>
      <trkpt lat="49.17435" lon="6.91707">
        <ele>314</ele>
        <time>2020-06-26T20:52:32Z</time>
      </trkpt>
      <trkpt lat="49.17435" lon="6.91712">
        <ele>314.2</ele>
        <time>2020-06-26T20:52:33Z</time>
      </trkpt>
      <trkpt lat="49.17435" lon="6.91717">
        <ele>314.4</ele>
        <time>2020-06-26T20:52:34Z</time>
      </trkpt>
      <trkpt lat="49.17436" lon="6.91723">
        <ele>314.6</ele>
        <time>2020-06-26T20:52:35Z</time>
      </trkpt>
      <trkpt lat="49.17436" lon="6.91726">
        <ele>314.7</ele>
        <time>2020-06-26T20:52:36Z</time>
      </trkpt>
      <trkpt lat="49.17436" lon="6.9173">
        <ele>314.9</ele>
        <time>2020-06-26T20:52:37Z</time>
      </trkpt>
      <trkpt lat="49.17438" lon="6.91735">
        <ele>315.1</ele>
        <time>2020-06-26T20:52:38Z</time>
      </trkpt>
      <trkpt lat="49.17438" lon="6.91737">
        <ele>315.2</ele>
        <time>2020-06-26T20:52:39Z</time>
      </trkpt>
      <trkpt lat="49.1744" lon="6.91742">
        <ele>315.4</ele>
        <time>2020-06-26T20:52:40Z</time>
      </trkpt>
      <trkpt lat="49.1744" lon="6.91743">
        <ele>315.5</ele>
        <time>2020-06-26T20:52:41Z</time>
      </trkpt>
      <trkpt lat="49.1744" lon="6.91749">
        <ele>315.7</ele>
        <time>2020-06-26T20:52:42Z</time>
      </trkpt>
      <trkpt lat="49.17441" lon="6.91751">
        <ele>315.8</ele>
        <time>2020-06-26T20:52:43Z</time>
      </trkpt>
      <trkpt lat="49.17443" lon="6.91755">
        <ele>316</ele>
        <time>2020-06-26T20:52:44Z</time>
      </trkpt>
      <trkpt lat="49.17443" lon="6.91761">
        <ele>316.2</ele>
        <time>2020-06-26T20:52:45Z</time>
      </trkpt>
      <trkpt lat="49.17444" lon="6.91763">
        <ele>316.3</ele>
        <time>2020-06-26T20:52:46Z</time>
      </trkpt>
      <trkpt lat="49.17444" lon="6.91768">
        <ele>316.5</ele>
        <time>2020-06-26T20:52:47Z</time>
      </trkpt>
      <trkpt lat="49.17445" lon="6.91773">
        <ele>316.7</ele>
        <time>2020-06-26T20:52:48Z</time>
      </trkpt>
      <trkpt lat="49.17445" lon="6.91778">
        <ele>317</ele>
        <time>2020-06-26T20:52:49Z</time>
      </trkpt>
      <trkpt lat="49.17448" lon="6.91782">
        <ele>317.2</ele>
        <time>2020-06-26T20:52:50Z</time>
      </trkpt>
      <trkpt lat="49.17449" lon="6.91787">
        <ele>317.5</ele>
        <time>2020-06-26T20:52:51Z</time>
      </trkpt>
      <trkpt lat="49.17451" lon="6.91792">
        <ele>317.7</ele>
        <time>2020-06-26T20:52:52Z</time>
      </trkpt>
      <trkpt lat="49.17452" lon="6.91797">
        <ele>318</ele>
        <time>2020-06-26T20:52:53Z</time>
      </trkpt>
      <trkpt lat="49.17453" lon="6.91802">
        <ele>318.2</ele>
        <time>2020-06-26T20:52:54Z</time>
      </trkpt>
      <trkpt lat="49.17455" lon="6.91808">
        <ele>318.5</ele>
        <time>2020-06-26T20:52:55Z</time>
      </trkpt>
      <trkpt lat="49.17455" lon="6.91809">
        <ele>318.6</ele>
        <time>2020-06-26T20:52:56Z</time>
      </trkpt>
      <trkpt lat="49.17457" lon="6.91814">
        <ele>318.9</ele>
        <time>2020-06-26T20:52:57Z</time>
      </trkpt>
      <trkpt lat="49.17457" lon="6.91816">
        <ele>318.9</ele>
        <time>2020-06-26T20:52:58Z</time>
      </trkpt>
      <trkpt lat="49.17458" lon="6.91822">
        <ele>319.2</ele>
        <time>2020-06-26T20:52:59Z</time>
      </trkpt>
      <trkpt lat="49.17459" lon="6.91824">
        <ele>319.4</ele>
        <time>2020-06-26T20:53:00Z</time>
      </trkpt>
      <trkpt lat="49.1746" lon="6.91828">
        <ele>319.6</ele>
        <time>2020-06-26T20:53:01Z</time>
      </trkpt>
      <trkpt lat="49.17462" lon="6.91832">
        <ele>319.7</ele>
        <time>2020-06-26T20:53:02Z</time>
      </trkpt>
      <trkpt lat="49.17463" lon="6.91836">
        <ele>319.8</ele>
        <time>2020-06-26T20:53:03Z</time>
      </trkpt>
      <trkpt lat="49.17464" lon="6.91841">
        <ele>319.9</ele>
        <time>2020-06-26T20:53:04Z</time>
      </trkpt>
      <trkpt lat="49.17465" lon="6.91845">
        <ele>319.9</ele>
        <time>2020-06-26T20:53:05Z</time>
      </trkpt>
      <trkpt lat="49.17466" lon="6.91849">
        <ele>320</ele>
        <time>2020-06-26T20:53:06Z</time>
      </trkpt>
      <trkpt lat="49.17467" lon="6.91853">
        <ele>320.1</ele>
        <time>2020-06-26T20:53:07Z</time>
      </trkpt>
      <trkpt lat="49.17469" lon="6.91857">
        <ele>320.2</ele>
        <time>2020-06-26T20:53:08Z</time>
      </trkpt>
      <trkpt lat="49.1747" lon="6.91862">
        <ele>320.2</ele>
        <time>2020-06-26T20:53:09Z</time>
      </trkpt>
      <trkpt lat="49.17472" lon="6.91867">
        <ele>320.3</ele>
        <time>2020-06-26T20:53:10Z</time>
      </trkpt>
      <trkpt lat="49.17472" lon="6.91869">
        <ele>320.4</ele>
        <time>2020-06-26T20:53:11Z</time>
      </trkpt>
      <trkpt lat="49.17473" lon="6.91873">
        <ele>320.5</ele>
        <time>2020-06-26T20:53:12Z</time>
      </trkpt>
      <trkpt lat="49.17474" lon="6.91878">
        <ele>320.6</ele>
        <time>2020-06-26T20:53:13Z</time>
      </trkpt>
      <trkpt lat="49.17475" lon="6.91884">
        <ele>320.8</ele>
        <time>2020-06-26T20:53:14Z</time>
      </trkpt>
      <trkpt lat="49.17475" lon="6.91886">
        <ele>320.8</ele>
        <time>2020-06-26T20:53:15Z</time>
      </trkpt>
      <trkpt lat="49.17476" lon="6.9189">
        <ele>321</ele>
        <time>2020-06-26T20:53:16Z</time>
      </trkpt>
      <trkpt lat="49.17477" lon="6.91894">
        <ele>321.1</ele>
        <time>2020-06-26T20:53:17Z</time>
      </trkpt>
      <trkpt lat="49.17477" lon="6.91896">
        <ele>321.1</ele>
        <time>2020-06-26T20:53:18Z</time>
      </trkpt>
      <trkpt lat="49.1748" lon="6.919">
        <ele>321.3</ele>
        <time>2020-06-26T20:53:19Z</time>
      </trkpt>
      <trkpt lat="49.17481" lon="6.91904">
        <ele>321.4</ele>
        <time>2020-06-26T20:53:20Z</time>
      </trkpt>
      <trkpt lat="49.17482" lon="6.91908">
        <ele>321.5</ele>
        <time>2020-06-26T20:53:21Z</time>
      </trkpt>
      <trkpt lat="49.17483" lon="6.91912">
        <ele>321.7</ele>
        <time>2020-06-26T20:53:22Z</time>
      </trkpt>
      <trkpt lat="49.17484" lon="6.91918">
        <ele>321.9</ele>
        <time>2020-06-26T20:53:23Z</time>
      </trkpt>
      <trkpt lat="49.17485" lon="6.91921">
        <ele>322</ele>
        <time>2020-06-26T20:53:24Z</time>
      </trkpt>
      <trkpt lat="49.17485" lon="6.91925">
        <ele>322.1</ele>
        <time>2020-06-26T20:53:25Z</time>
      </trkpt>
      <trkpt lat="49.17486" lon="6.9193">
        <ele>322.2</ele>
        <time>2020-06-26T20:53:26Z</time>
      </trkpt>
      <trkpt lat="49.17487" lon="6.91936">
        <ele>322.4</ele>
        <time>2020-06-26T20:53:27Z</time>
      </trkpt>
      <trkpt lat="49.17488" lon="6.91938">
        <ele>322.4</ele>
        <time>2020-06-26T20:53:28Z</time>
      </trkpt>
      <trkpt lat="49.17488" lon="6.91942">
        <ele>322.6</ele>
        <time>2020-06-26T20:53:29Z</time>
      </trkpt>
      <trkpt lat="49.17489" lon="6.91947">
        <ele>322.7</ele>
        <time>2020-06-26T20:53:30Z</time>
      </trkpt>
      <trkpt lat="49.17489" lon="6.91951">
        <ele>322.8</ele>
        <time>2020-06-26T20:53:31Z</time>
      </trkpt>
      <trkpt lat="49.1749" lon="6.91957">
        <ele>323</ele>
        <time>2020-06-26T20:53:32Z</time>
      </trkpt>
      <trkpt lat="49.17491" lon="6.91959">
        <ele>323</ele>
        <time>2020-06-26T20:53:33Z</time>
      </trkpt>
      <trkpt lat="49.17492" lon="6.91963">
        <ele>323.2</ele>
        <time>2020-06-26T20:53:34Z</time>
      </trkpt>
      <trkpt lat="49.17493" lon="6.91968">
        <ele>323.3</ele>
        <time>2020-06-26T20:53:35Z</time>
      </trkpt>
      <trkpt lat="49.17494" lon="6.91973">
        <ele>323.5</ele>
        <time>2020-06-26T20:53:36Z</time>
      </trkpt>
      <trkpt lat="49.17495" lon="6.91977">
        <ele>323.7</ele>
        <time>2020-06-26T20:53:37Z</time>
      </trkpt>
      <trkpt lat="49.17496" lon="6.91981">
        <ele>323.8</ele>
        <time>2020-06-26T20:53:38Z</time>
      </trkpt>
      <trkpt lat="49.17497" lon="6.91986">
        <ele>324</ele>
        <time>2020-06-26T20:53:39Z</time>
      </trkpt>
      <trkpt lat="49.17498" lon="6.91991">
        <ele>324.1</ele>
        <time>2020-06-26T20:53:40Z</time>
      </trkpt>
      <trkpt lat="49.17499" lon="6.91995">
        <ele>324.3</ele>
        <time>2020-06-26T20:53:41Z</time>
      </trkpt>
      <trkpt lat="49.175" lon="6.92001">
        <ele>324.5</ele>
        <time>2020-06-26T20:53:42Z</time>
      </trkpt>
      <trkpt lat="49.175" lon="6.92003">
        <ele>324.6</ele>
        <time>2020-06-26T20:53:43Z</time>
      </trkpt>
      <trkpt lat="49.17502" lon="6.92007">
        <ele>324.7</ele>
        <time>2020-06-26T20:53:44Z</time>
      </trkpt>
      <trkpt lat="49.17503" lon="6.92013">
        <ele>324.9</ele>
        <time>2020-06-26T20:53:45Z</time>
      </trkpt>
      <trkpt lat="49.17503" lon="6.92016">
        <ele>325</ele>
        <time>2020-06-26T20:53:46Z</time>
      </trkpt>
      <trkpt lat="49.17504" lon="6.9202">
        <ele>325.1</ele>
        <time>2020-06-26T20:53:47Z</time>
      </trkpt>
      <trkpt lat="49.17505" lon="6.92024">
        <ele>325.2</ele>
        <time>2020-06-26T20:53:48Z</time>
      </trkpt>
      <trkpt lat="49.17506" lon="6.92029">
        <ele>325.4</ele>
        <time>2020-06-26T20:53:49Z</time>
      </trkpt>
      <trkpt lat="49.17508" lon="6.92034">
        <ele>325.5</ele>
        <time>2020-06-26T20:53:50Z</time>
      </trkpt>
      <trkpt lat="49.17508" lon="6.92036">
        <ele>325.6</ele>
        <time>2020-06-26T20:53:51Z</time>
      </trkpt>
      <trkpt lat="49.1751" lon="6.92042">
        <ele>325.8</ele>
        <time>2020-06-26T20:53:52Z</time>
      </trkpt>
      <trkpt lat="49.17511" lon="6.92046">
        <ele>325.9</ele>
        <time>2020-06-26T20:53:53Z</time>
      </trkpt>
      <trkpt lat="49.17512" lon="6.9205">
        <ele>326</ele>
        <time>2020-06-26T20:53:54Z</time>
      </trkpt>
      <trkpt lat="49.17513" lon="6.92055">
        <ele>326.2</ele>
        <time>2020-06-26T20:53:55Z</time>
      </trkpt>
      <trkpt lat="49.17514" lon="6.92059">
        <ele>326.3</ele>
        <time>2020-06-26T20:53:56Z</time>
      </trkpt>
      <trkpt lat="49.17515" lon="6.92064">
        <ele>326.5</ele>
        <time>2020-06-26T20:53:57Z</time>
      </trkpt>
      <trkpt lat="49.17515" lon="6.92065">
        <ele>326.5</ele>
        <time>2020-06-26T20:53:58Z</time>
      </trkpt>
      <trkpt lat="49.17516" lon="6.92071">
        <ele>326.7</ele>
        <time>2020-06-26T20:53:59Z</time>
      </trkpt>
      <trkpt lat="49.17517" lon="6.92073">
        <ele>326.8</ele>
        <time>2020-06-26T20:54:00Z</time>
      </trkpt>
      <trkpt lat="49.17518" lon="6.92078">
        <ele>326.9</ele>
        <time>2020-06-26T20:54:01Z</time>
      </trkpt>
      <trkpt lat="49.17518" lon="6.9208">
        <ele>327</ele>
        <time>2020-06-26T20:54:02Z</time>
      </trkpt>
      <trkpt lat="49.1752" lon="6.92085">
        <ele>327.1</ele>
        <time>2020-06-26T20:54:03Z</time>
      </trkpt>
      <trkpt lat="49.17521" lon="6.92088">
        <ele>327.5</ele>
        <time>2020-06-26T20:54:04Z</time>
      </trkpt>
      <trkpt lat="49.17523" lon="6.92092">
        <ele>327.7</ele>
        <time>2020-06-26T20:54:05Z</time>
      </trkpt>
      <trkpt lat="49.17524" lon="6.92096">
        <ele>327.8</ele>
        <time>2020-06-26T20:54:06Z</time>
      </trkpt>
      <trkpt lat="49.17525" lon="6.92101">
        <ele>328.1</ele>
        <time>2020-06-26T20:54:07Z</time>
      </trkpt>
      <trkpt lat="49.17526" lon="6.92103">
        <ele>328.2</ele>
        <time>2020-06-26T20:54:08Z</time>
      </trkpt>
      <trkpt lat="49.17527" lon="6.92108">
        <ele>328.4</ele>
        <time>2020-06-26T20:54:09Z</time>
      </trkpt>
      <trkpt lat="49.17529" lon="6.92114">
        <ele>328.7</ele>
        <time>2020-06-26T20:54:10Z</time>
      </trkpt>
      <trkpt lat="49.1753" lon="6.92116">
        <ele>328.8</ele>
        <time>2020-06-26T20:54:11Z</time>
      </trkpt>
      <trkpt lat="49.17532" lon="6.9212">
        <ele>328.9</ele>
        <time>2020-06-26T20:54:12Z</time>
      </trkpt>
      <trkpt lat="49.17533" lon="6.92123">
        <ele>328.9</ele>
        <time>2020-06-26T20:54:13Z</time>
      </trkpt>
      <trkpt lat="49.17534" lon="6.92127">
        <ele>329</ele>
        <time>2020-06-26T20:54:14Z</time>
      </trkpt>
      <trkpt lat="49.17536" lon="6.92131">
        <ele>329.1</ele>
        <time>2020-06-26T20:54:15Z</time>
      </trkpt>
      <trkpt lat="49.17538" lon="6.92135">
        <ele>329.2</ele>
        <time>2020-06-26T20:54:16Z</time>
      </trkpt>
      <trkpt lat="49.17539" lon="6.9214">
        <ele>329.3</ele>
        <time>2020-06-26T20:54:17Z</time>
      </trkpt>
      <trkpt lat="49.1754" lon="6.92144">
        <ele>329.4</ele>
        <time>2020-06-26T20:54:18Z</time>
      </trkpt>
      <trkpt lat="49.17541" lon="6.9215">
        <ele>329.5</ele>
        <time>2020-06-26T20:54:19Z</time>
      </trkpt>
      <trkpt lat="49.17541" lon="6.92152">
        <ele>329.6</ele>
        <time>2020-06-26T20:54:20Z</time>
      </trkpt>
      <trkpt lat="49.17542" lon="6.92157">
        <ele>329.7</ele>
        <time>2020-06-26T20:54:21Z</time>
      </trkpt>
      <trkpt lat="49.17543" lon="6.92159">
        <ele>329.8</ele>
        <time>2020-06-26T20:54:22Z</time>
      </trkpt>
      <trkpt lat="49.17543" lon="6.92164">
        <ele>329.9</ele>
        <time>2020-06-26T20:54:23Z</time>
      </trkpt>
      <trkpt lat="49.17544" lon="6.92167">
        <ele>329.9</ele>
        <time>2020-06-26T20:54:24Z</time>
      </trkpt>
      <trkpt lat="49.17544" lon="6.92171">
        <ele>330</ele>
        <time>2020-06-26T20:54:25Z</time>
      </trkpt>
      <trkpt lat="49.17546" lon="6.92176">
        <ele>330.2</ele>
        <time>2020-06-26T20:54:26Z</time>
      </trkpt>
      <trkpt lat="49.17546" lon="6.92178">
        <ele>330.2</ele>
        <time>2020-06-26T20:54:27Z</time>
      </trkpt>
      <trkpt lat="49.17547" lon="6.92184">
        <ele>330.4</ele>
        <time>2020-06-26T20:54:28Z</time>
      </trkpt>
      <trkpt lat="49.17547" lon="6.92186">
        <ele>330.4</ele>
        <time>2020-06-26T20:54:29Z</time>
      </trkpt>
      <trkpt lat="49.17549" lon="6.92191">
        <ele>330.6</ele>
        <time>2020-06-26T20:54:30Z</time>
      </trkpt>
      <trkpt lat="49.1755" lon="6.92193">
        <ele>330.7</ele>
        <time>2020-06-26T20:54:31Z</time>
      </trkpt>
      <trkpt lat="49.17552" lon="6.92198">
        <ele>330.8</ele>
        <time>2020-06-26T20:54:32Z</time>
      </trkpt>
      <trkpt lat="49.17553" lon="6.922">
        <ele>330.8</ele>
        <time>2020-06-26T20:54:33Z</time>
      </trkpt>
      <trkpt lat="49.17554" lon="6.92205">
        <ele>331</ele>
        <time>2020-06-26T20:54:34Z</time>
      </trkpt>
      <trkpt lat="49.17555" lon="6.92207">
        <ele>331.1</ele>
        <time>2020-06-26T20:54:35Z</time>
      </trkpt>
      <trkpt lat="49.17556" lon="6.92212">
        <ele>331.3</ele>
        <time>2020-06-26T20:54:36Z</time>
      </trkpt>
      <trkpt lat="49.17557" lon="6.92214">
        <ele>331.4</ele>
        <time>2020-06-26T20:54:37Z</time>
      </trkpt>
      <trkpt lat="49.17558" lon="6.92219">
        <ele>331.6</ele>
        <time>2020-06-26T20:54:38Z</time>
      </trkpt>
      <trkpt lat="49.17559" lon="6.92223">
        <ele>331.8</ele>
        <time>2020-06-26T20:54:39Z</time>
      </trkpt>
      <trkpt lat="49.1756" lon="6.92229">
        <ele>332</ele>
        <time>2020-06-26T20:54:40Z</time>
      </trkpt>
      <trkpt lat="49.1756" lon="6.92231">
        <ele>332</ele>
        <time>2020-06-26T20:54:41Z</time>
      </trkpt>
      <trkpt lat="49.17562" lon="6.92236">
        <ele>332.2</ele>
        <time>2020-06-26T20:54:42Z</time>
      </trkpt>
      <trkpt lat="49.17563" lon="6.92241">
        <ele>332.4</ele>
        <time>2020-06-26T20:54:43Z</time>
      </trkpt>
      <trkpt lat="49.17565" lon="6.92244">
        <ele>332.5</ele>
        <time>2020-06-26T20:54:44Z</time>
      </trkpt>
      <trkpt lat="49.17567" lon="6.92249">
        <ele>332.7</ele>
        <time>2020-06-26T20:54:45Z</time>
      </trkpt>
      <trkpt lat="49.17568" lon="6.92251">
        <ele>332.8</ele>
        <time>2020-06-26T20:54:46Z</time>
      </trkpt>
      <trkpt lat="49.1757" lon="6.92256">
        <ele>333</ele>
        <time>2020-06-26T20:54:47Z</time>
      </trkpt>
      <trkpt lat="49.17571" lon="6.92259">
        <ele>333.1</ele>
        <time>2020-06-26T20:54:48Z</time>
      </trkpt>
      <trkpt lat="49.17573" lon="6.92263">
        <ele>333.2</ele>
        <time>2020-06-26T20:54:49Z</time>
      </trkpt>
      <trkpt lat="49.17575" lon="6.92266">
        <ele>333.4</ele>
        <time>2020-06-26T20:54:50Z</time>
      </trkpt>
      <trkpt lat="49.17577" lon="6.92272">
        <ele>333.6</ele>
        <time>2020-06-26T20:54:51Z</time>
      </trkpt>
      <trkpt lat="49.17578" lon="6.92273">
        <ele>333.7</ele>
        <time>2020-06-26T20:54:52Z</time>
      </trkpt>
      <trkpt lat="49.1758" lon="6.92278">
        <ele>333.9</ele>
        <time>2020-06-26T20:54:53Z</time>
      </trkpt>
      <trkpt lat="49.1758" lon="6.9228">
        <ele>333.9</ele>
        <time>2020-06-26T20:54:54Z</time>
      </trkpt>
      <trkpt lat="49.17582" lon="6.92284">
        <ele>334.1</ele>
        <time>2020-06-26T20:54:55Z</time>
      </trkpt>
      <trkpt lat="49.17583" lon="6.92289">
        <ele>334.3</ele>
        <time>2020-06-26T20:54:56Z</time>
      </trkpt>
      <trkpt lat="49.17584" lon="6.92292">
        <ele>334.4</ele>
        <time>2020-06-26T20:54:57Z</time>
      </trkpt>
      <trkpt lat="49.17586" lon="6.92295">
        <ele>334.5</ele>
        <time>2020-06-26T20:54:58Z</time>
      </trkpt>
      <trkpt lat="49.17589" lon="6.923">
        <ele>334.8</ele>
        <time>2020-06-26T20:54:59Z</time>
      </trkpt>
      <trkpt lat="49.1759" lon="6.92302">
        <ele>334.8</ele>
        <time>2020-06-26T20:55:00Z</time>
      </trkpt>
      <trkpt lat="49.17592" lon="6.92305">
        <ele>335</ele>
        <time>2020-06-26T20:55:01Z</time>
      </trkpt>
      <trkpt lat="49.17595" lon="6.92308">
        <ele>335.2</ele>
        <time>2020-06-26T20:55:02Z</time>
      </trkpt>
      <trkpt lat="49.17597" lon="6.92312">
        <ele>335.4</ele>
        <time>2020-06-26T20:55:03Z</time>
      </trkpt>
      <trkpt lat="49.176" lon="6.92316">
        <ele>335.6</ele>
        <time>2020-06-26T20:55:04Z</time>
      </trkpt>
      <trkpt lat="49.17603" lon="6.9232">
        <ele>335.8</ele>
        <time>2020-06-26T20:55:05Z</time>
      </trkpt>
      <trkpt lat="49.17605" lon="6.92323">
        <ele>335.9</ele>
        <time>2020-06-26T20:55:06Z</time>
      </trkpt>
      <trkpt lat="49.17607" lon="6.92326">
        <ele>336.1</ele>
        <time>2020-06-26T20:55:07Z</time>
      </trkpt>
      <trkpt lat="49.17609" lon="6.9233">
        <ele>336.3</ele>
        <time>2020-06-26T20:55:08Z</time>
      </trkpt>
      <trkpt lat="49.17611" lon="6.92333">
        <ele>336.5</ele>
        <time>2020-06-26T20:55:09Z</time>
      </trkpt>
      <trkpt lat="49.17613" lon="6.92337">
        <ele>336.7</ele>
        <time>2020-06-26T20:55:10Z</time>
      </trkpt>
      <trkpt lat="49.17614" lon="6.92338">
        <ele>336.7</ele>
        <time>2020-06-26T20:55:11Z</time>
      </trkpt>
      <trkpt lat="49.17616" lon="6.92342">
        <ele>336.9</ele>
        <time>2020-06-26T20:55:12Z</time>
      </trkpt>
      <trkpt lat="49.17617" lon="6.92344">
        <ele>337</ele>
        <time>2020-06-26T20:55:13Z</time>
      </trkpt>
      <trkpt lat="49.17619" lon="6.92349">
        <ele>337.3</ele>
        <time>2020-06-26T20:55:14Z</time>
      </trkpt>
      <trkpt lat="49.1762" lon="6.92351">
        <ele>337.4</ele>
        <time>2020-06-26T20:55:15Z</time>
      </trkpt>
      <trkpt lat="49.17622" lon="6.92354">
        <ele>337.5</ele>
        <time>2020-06-26T20:55:16Z</time>
      </trkpt>
      <trkpt lat="49.17624" lon="6.92359">
        <ele>337.8</ele>
        <time>2020-06-26T20:55:17Z</time>
      </trkpt>
      <trkpt lat="49.17625" lon="6.92361">
        <ele>337.8</ele>
        <time>2020-06-26T20:55:18Z</time>
      </trkpt>
      <trkpt lat="49.17627" lon="6.92364">
        <ele>338</ele>
        <time>2020-06-26T20:55:19Z</time>
      </trkpt>
      <trkpt lat="49.17628" lon="6.92368">
        <ele>338.2</ele>
        <time>2020-06-26T20:55:20Z</time>
      </trkpt>
      <trkpt lat="49.1763" lon="6.92371">
        <ele>338.4</ele>
        <time>2020-06-26T20:55:21Z</time>
      </trkpt>
      <trkpt lat="49.1763" lon="6.92373">
        <ele>338.5</ele>
        <time>2020-06-26T20:55:22Z</time>
      </trkpt>
      <trkpt lat="49.1763" lon="6.92375">
        <ele>338.6</ele>
        <time>2020-06-26T20:55:23Z</time>
      </trkpt>
      <trkpt lat="49.17631" lon="6.9238">
        <ele>338.8</ele>
        <time>2020-06-26T20:55:24Z</time>
      </trkpt>
      <trkpt lat="49.17632" lon="6.92381">
        <ele>338.9</ele>
        <time>2020-06-26T20:55:25Z</time>
      </trkpt>
      <trkpt lat="49.17633" lon="6.92385">
        <ele>339</ele>
        <time>2020-06-26T20:55:26Z</time>
      </trkpt>
      <trkpt lat="49.17633" lon="6.92386">
        <ele>339.1</ele>
        <time>2020-06-26T20:55:27Z</time>
      </trkpt>
      <trkpt lat="49.17634" lon="6.92391">
        <ele>339.3</ele>
        <time>2020-06-26T20:55:28Z</time>
      </trkpt>
      <trkpt lat="49.17635" lon="6.92396">
        <ele>339.6</ele>
        <time>2020-06-26T20:55:29Z</time>
      </trkpt>
      <trkpt lat="49.17636" lon="6.92401">
        <ele>339.8</ele>
        <time>2020-06-26T20:55:30Z</time>
      </trkpt>
      <trkpt lat="49.17638" lon="6.92405">
        <ele>340</ele>
        <time>2020-06-26T20:55:31Z</time>
      </trkpt>
      <trkpt lat="49.17639" lon="6.92409">
        <ele>340.2</ele>
        <time>2020-06-26T20:55:32Z</time>
      </trkpt>
      <trkpt lat="49.1764" lon="6.92413">
        <ele>340.4</ele>
        <time>2020-06-26T20:55:33Z</time>
      </trkpt>
      <trkpt lat="49.17641" lon="6.92418">
        <ele>340.6</ele>
        <time>2020-06-26T20:55:34Z</time>
      </trkpt>
      <trkpt lat="49.17643" lon="6.92422">
        <ele>340.8</ele>
        <time>2020-06-26T20:55:35Z</time>
      </trkpt>
      <trkpt lat="49.17645" lon="6.92426">
        <ele>341</ele>
        <time>2020-06-26T20:55:36Z</time>
      </trkpt>
      <trkpt lat="49.17647" lon="6.9243">
        <ele>341.1</ele>
        <time>2020-06-26T20:55:37Z</time>
      </trkpt>
      <trkpt lat="49.17649" lon="6.92435">
        <ele>341.3</ele>
        <time>2020-06-26T20:55:38Z</time>
      </trkpt>
      <trkpt lat="49.17651" lon="6.9244">
        <ele>341.5</ele>
        <time>2020-06-26T20:55:39Z</time>
      </trkpt>
      <trkpt lat="49.17653" lon="6.92445">
        <ele>341.7</ele>
        <time>2020-06-26T20:55:40Z</time>
      </trkpt>
      <trkpt lat="49.17654" lon="6.92447">
        <ele>341.8</ele>
        <time>2020-06-26T20:55:41Z</time>
      </trkpt>
      <trkpt lat="49.17656" lon="6.92451">
        <ele>342</ele>
        <time>2020-06-26T20:55:42Z</time>
      </trkpt>
      <trkpt lat="49.17659" lon="6.92456">
        <ele>342.2</ele>
        <time>2020-06-26T20:55:43Z</time>
      </trkpt>
      <trkpt lat="49.1766" lon="6.92458">
        <ele>342.3</ele>
        <time>2020-06-26T20:55:44Z</time>
      </trkpt>
      <trkpt lat="49.17662" lon="6.92462">
        <ele>342.5</ele>
        <time>2020-06-26T20:55:45Z</time>
      </trkpt>
      <trkpt lat="49.17663" lon="6.92466">
        <ele>342.7</ele>
        <time>2020-06-26T20:55:46Z</time>
      </trkpt>
      <trkpt lat="49.17665" lon="6.9247">
        <ele>342.9</ele>
        <time>2020-06-26T20:55:47Z</time>
      </trkpt>
      <trkpt lat="49.17666" lon="6.92475">
        <ele>343</ele>
        <time>2020-06-26T20:55:48Z</time>
      </trkpt>
      <trkpt lat="49.17667" lon="6.92479">
        <ele>343.2</ele>
        <time>2020-06-26T20:55:49Z</time>
      </trkpt>
      <trkpt lat="49.17668" lon="6.92483">
        <ele>343.4</ele>
        <time>2020-06-26T20:55:50Z</time>
      </trkpt>
      <trkpt lat="49.17669" lon="6.92488">
        <ele>343.6</ele>
        <time>2020-06-26T20:55:51Z</time>
      </trkpt>
      <trkpt lat="49.1767" lon="6.92494">
        <ele>343.8</ele>
        <time>2020-06-26T20:55:52Z</time>
      </trkpt>
      <trkpt lat="49.17671" lon="6.92499">
        <ele>344</ele>
        <time>2020-06-26T20:55:53Z</time>
      </trkpt>
      <trkpt lat="49.17671" lon="6.92501">
        <ele>344</ele>
        <time>2020-06-26T20:55:54Z</time>
      </trkpt>
      <trkpt lat="49.17672" lon="6.92505">
        <ele>344.2</ele>
        <time>2020-06-26T20:55:55Z</time>
      </trkpt>
      <trkpt lat="49.17673" lon="6.9251">
        <ele>344.4</ele>
        <time>2020-06-26T20:55:56Z</time>
      </trkpt>
      <trkpt lat="49.17674" lon="6.92514">
        <ele>344.6</ele>
        <time>2020-06-26T20:55:57Z</time>
      </trkpt>
      <trkpt lat="49.17676" lon="6.92518">
        <ele>344.8</ele>
        <time>2020-06-26T20:55:58Z</time>
      </trkpt>
      <trkpt lat="49.17676" lon="6.92522">
        <ele>344.9</ele>
        <time>2020-06-26T20:55:59Z</time>
      </trkpt>
      <trkpt lat="49.17678" lon="6.92527">
        <ele>345.3</ele>
        <time>2020-06-26T20:56:00Z</time>
      </trkpt>
      <trkpt lat="49.17678" lon="6.92531">
        <ele>345.5</ele>
        <time>2020-06-26T20:56:01Z</time>
      </trkpt>
      <trkpt lat="49.17679" lon="6.92536">
        <ele>345.6</ele>
        <time>2020-06-26T20:56:02Z</time>
      </trkpt>
      <trkpt lat="49.1768" lon="6.9254">
        <ele>345.8</ele>
        <time>2020-06-26T20:56:03Z</time>
      </trkpt>
      <trkpt lat="49.17681" lon="6.92545">
        <ele>346</ele>
        <time>2020-06-26T20:56:04Z</time>
      </trkpt>
      <trkpt lat="49.17681" lon="6.92547">
        <ele>346</ele>
        <time>2020-06-26T20:56:05Z</time>
      </trkpt>
      <trkpt lat="49.17682" lon="6.92553">
        <ele>346.2</ele>
        <time>2020-06-26T20:56:06Z</time>
      </trkpt>
      <trkpt lat="49.17683" lon="6.92555">
        <ele>346.3</ele>
        <time>2020-06-26T20:56:07Z</time>
      </trkpt>
      <trkpt lat="49.17683" lon="6.9256">
        <ele>346.5</ele>
        <time>2020-06-26T20:56:08Z</time>
      </trkpt>
      <trkpt lat="49.17684" lon="6.92565">
        <ele>346.6</ele>
        <time>2020-06-26T20:56:09Z</time>
      </trkpt>
      <trkpt lat="49.17684" lon="6.9257">
        <ele>346.8</ele>
        <time>2020-06-26T20:56:10Z</time>
      </trkpt>
      <trkpt lat="49.17684" lon="6.92574">
        <ele>346.9</ele>
        <time>2020-06-26T20:56:11Z</time>
      </trkpt>
      <trkpt lat="49.17685" lon="6.92579">
        <ele>347.1</ele>
        <time>2020-06-26T20:56:12Z</time>
      </trkpt>
      <trkpt lat="49.17686" lon="6.92585">
        <ele>347.3</ele>
        <time>2020-06-26T20:56:13Z</time>
      </trkpt>
      <trkpt lat="49.17686" lon="6.92586">
        <ele>347.3</ele>
        <time>2020-06-26T20:56:14Z</time>
      </trkpt>
      <trkpt lat="49.17687" lon="6.92592">
        <ele>347.5</ele>
        <time>2020-06-26T20:56:15Z</time>
      </trkpt>
      <trkpt lat="49.17687" lon="6.92594">
        <ele>347.6</ele>
        <time>2020-06-26T20:56:16Z</time>
      </trkpt>
      <trkpt lat="49.17687" lon="6.926">
        <ele>347.8</ele>
        <time>2020-06-26T20:56:17Z</time>
      </trkpt>
      <trkpt lat="49.17687" lon="6.92602">
        <ele>347.9</ele>
        <time>2020-06-26T20:56:18Z</time>
      </trkpt>
      <trkpt lat="49.17685" lon="6.92606">
        <ele>348.1</ele>
        <time>2020-06-26T20:56:19Z</time>
      </trkpt>
      <trkpt lat="49.17684" lon="6.92611">
        <ele>348.3</ele>
        <time>2020-06-26T20:56:20Z</time>
      </trkpt>
      <trkpt lat="49.17683" lon="6.92616">
        <ele>348.5</ele>
        <time>2020-06-26T20:56:21Z</time>
      </trkpt>
      <trkpt lat="49.17682" lon="6.92621">
        <ele>348.8</ele>
        <time>2020-06-26T20:56:22Z</time>
      </trkpt>
      <trkpt lat="49.17681" lon="6.92626">
        <ele>349</ele>
        <time>2020-06-26T20:56:23Z</time>
      </trkpt>
      <trkpt lat="49.17679" lon="6.9263">
        <ele>349.2</ele>
        <time>2020-06-26T20:56:24Z</time>
      </trkpt>
      <trkpt lat="49.17678" lon="6.92634">
        <ele>349.4</ele>
        <time>2020-06-26T20:56:25Z</time>
      </trkpt>
      <trkpt lat="49.17677" lon="6.92638">
        <ele>349.6</ele>
        <time>2020-06-26T20:56:26Z</time>
      </trkpt>
      <trkpt lat="49.17676" lon="6.92643">
        <ele>349.8</ele>
        <time>2020-06-26T20:56:27Z</time>
      </trkpt>
      <trkpt lat="49.17676" lon="6.92648">
        <ele>350</ele>
        <time>2020-06-26T20:56:28Z</time>
      </trkpt>
      <trkpt lat="49.17675" lon="6.92652">
        <ele>350.3</ele>
        <time>2020-06-26T20:56:29Z</time>
      </trkpt>
      <trkpt lat="49.17673" lon="6.92656">
        <ele>350.5</ele>
        <time>2020-06-26T20:56:30Z</time>
      </trkpt>
      <trkpt lat="49.17671" lon="6.92655">
        <ele>350.6</ele>
        <time>2020-06-26T20:56:31Z</time>
      </trkpt>
      <trkpt lat="49.1767" lon="6.92656">
        <ele>350.7</ele>
        <time>2020-06-26T20:56:32Z</time>
      </trkpt>
      <trkpt lat="49.17668" lon="6.92658">
        <ele>350.9</ele>
        <time>2020-06-26T20:56:33Z</time>
      </trkpt>
      <trkpt lat="49.17667" lon="6.92659">
        <ele>351</ele>
        <time>2020-06-26T20:56:34Z</time>
      </trkpt>
      <trkpt lat="49.17666" lon="6.9266">
        <ele>351</ele>
        <time>2020-06-26T20:56:35Z</time>
      </trkpt>
      <trkpt lat="49.17663" lon="6.92663">
        <ele>351</ele>
        <time>2020-06-26T20:56:36Z</time>
      </trkpt>
      <trkpt lat="49.17661" lon="6.92667">
        <ele>351</ele>
        <time>2020-06-26T20:56:37Z</time>
      </trkpt>
      <trkpt lat="49.17659" lon="6.92668">
        <ele>351</ele>
        <time>2020-06-26T20:56:38Z</time>
      </trkpt>
      <trkpt lat="49.17657" lon="6.92672">
        <ele>351.1</ele>
        <time>2020-06-26T20:56:39Z</time>
      </trkpt>
      <trkpt lat="49.17654" lon="6.92675">
        <ele>351.1</ele>
        <time>2020-06-26T20:56:40Z</time>
      </trkpt>
      <trkpt lat="49.17652" lon="6.92677">
        <ele>351.1</ele>
        <time>2020-06-26T20:56:41Z</time>
      </trkpt>
      <trkpt lat="49.17648" lon="6.92679">
        <ele>351.1</ele>
        <time>2020-06-26T20:56:42Z</time>
      </trkpt>
      <trkpt lat="49.17647" lon="6.92679">
        <ele>351.2</ele>
        <time>2020-06-26T20:56:43Z</time>
      </trkpt>
      <trkpt lat="49.17643" lon="6.92678">
        <ele>351.2</ele>
        <time>2020-06-26T20:56:44Z</time>
      </trkpt>
      <trkpt lat="49.17642" lon="6.92678">
        <ele>351.2</ele>
        <time>2020-06-26T20:56:45Z</time>
      </trkpt>
      <trkpt lat="49.17639" lon="6.92681">
        <ele>351.2</ele>
        <time>2020-06-26T20:56:46Z</time>
      </trkpt>
      <trkpt lat="49.17638" lon="6.92682">
        <ele>351.3</ele>
        <time>2020-06-26T20:56:47Z</time>
      </trkpt>
      <trkpt lat="49.17637" lon="6.92685">
        <ele>351.2</ele>
        <time>2020-06-26T20:56:48Z</time>
      </trkpt>
      <trkpt lat="49.17637" lon="6.92687">
        <ele>351.2</ele>
        <time>2020-06-26T20:56:49Z</time>
      </trkpt>
      <trkpt lat="49.17638" lon="6.92689">
        <ele>351.1</ele>
        <time>2020-06-26T20:56:50Z</time>
      </trkpt>
      <trkpt lat="49.17638" lon="6.92691">
        <ele>351.1</ele>
        <time>2020-06-26T20:56:51Z</time>
      </trkpt>
      <trkpt lat="49.17637" lon="6.92695">
        <ele>351</ele>
        <time>2020-06-26T20:56:52Z</time>
      </trkpt>
      <trkpt lat="49.17637" lon="6.92697">
        <ele>351</ele>
        <time>2020-06-26T20:56:53Z</time>
      </trkpt>
      <trkpt lat="49.17634" lon="6.92702">
        <ele>350.8</ele>
        <time>2020-06-26T20:56:54Z</time>
      </trkpt>
      <trkpt lat="49.17633" lon="6.92703">
        <ele>350.8</ele>
        <time>2020-06-26T20:56:55Z</time>
      </trkpt>
      <trkpt lat="49.1763" lon="6.92707">
        <ele>350.6</ele>
        <time>2020-06-26T20:56:56Z</time>
      </trkpt>
      <trkpt lat="49.1763" lon="6.92708">
        <ele>350.6</ele>
        <time>2020-06-26T20:56:57Z</time>
      </trkpt>
      <trkpt lat="49.17627" lon="6.92711">
        <ele>350.5</ele>
        <time>2020-06-26T20:56:58Z</time>
      </trkpt>
      <trkpt lat="49.17626" lon="6.92712">
        <ele>350.4</ele>
        <time>2020-06-26T20:56:59Z</time>
      </trkpt>
      <trkpt lat="49.17624" lon="6.92716">
        <ele>350.3</ele>
        <time>2020-06-26T20:57:00Z</time>
      </trkpt>
      <trkpt lat="49.17623" lon="6.92718">
        <ele>350.2</ele>
        <time>2020-06-26T20:57:01Z</time>
      </trkpt>
      <trkpt lat="49.17621" lon="6.92721">
        <ele>350.1</ele>
        <time>2020-06-26T20:57:02Z</time>
      </trkpt>
      <trkpt lat="49.17617" lon="6.92724">
        <ele>349.9</ele>
        <time>2020-06-26T20:57:03Z</time>
      </trkpt>
      <trkpt lat="49.17614" lon="6.92728">
        <ele>349.7</ele>
        <time>2020-06-26T20:57:04Z</time>
      </trkpt>
      <trkpt lat="49.17611" lon="6.92733">
        <ele>349.5</ele>
        <time>2020-06-26T20:57:05Z</time>
      </trkpt>
      <trkpt lat="49.17608" lon="6.92738">
        <ele>349.2</ele>
        <time>2020-06-26T20:57:06Z</time>
      </trkpt>
      <trkpt lat="49.17604" lon="6.92743">
        <ele>348.9</ele>
        <time>2020-06-26T20:57:07Z</time>
      </trkpt>
      <trkpt lat="49.17599" lon="6.92747">
        <ele>348.7</ele>
        <time>2020-06-26T20:57:08Z</time>
      </trkpt>
      <trkpt lat="49.17595" lon="6.92752">
        <ele>348.5</ele>
        <time>2020-06-26T20:57:09Z</time>
      </trkpt>
      <trkpt lat="49.1759" lon="6.92758">
        <ele>348.2</ele>
        <time>2020-06-26T20:57:10Z</time>
      </trkpt>
      <trkpt lat="49.17585" lon="6.92764">
        <ele>347.9</ele>
        <time>2020-06-26T20:57:11Z</time>
      </trkpt>
      <trkpt lat="49.1758" lon="6.9277">
        <ele>347.6</ele>
        <time>2020-06-26T20:57:12Z</time>
      </trkpt>
      <trkpt lat="49.17576" lon="6.92775">
        <ele>347.4</ele>
        <time>2020-06-26T20:57:13Z</time>
      </trkpt>
      <trkpt lat="49.17572" lon="6.92782">
        <ele>347.1</ele>
        <time>2020-06-26T20:57:14Z</time>
      </trkpt>
      <trkpt lat="49.17569" lon="6.92787">
        <ele>347</ele>
        <time>2020-06-26T20:57:15Z</time>
      </trkpt>
      <trkpt lat="49.17566" lon="6.92793">
        <ele>346.8</ele>
        <time>2020-06-26T20:57:16Z</time>
      </trkpt>
      <trkpt lat="49.17562" lon="6.92799">
        <ele>346.4</ele>
        <time>2020-06-26T20:57:17Z</time>
      </trkpt>
      <trkpt lat="49.17558" lon="6.92804">
        <ele>346.4</ele>
        <time>2020-06-26T20:57:18Z</time>
      </trkpt>
      <trkpt lat="49.17553" lon="6.9281">
        <ele>346.3</ele>
        <time>2020-06-26T20:57:19Z</time>
      </trkpt>
      <trkpt lat="49.17549" lon="6.92816">
        <ele>346.3</ele>
        <time>2020-06-26T20:57:20Z</time>
      </trkpt>
      <trkpt lat="49.17542" lon="6.9282">
        <ele>346.2</ele>
        <time>2020-06-26T20:57:21Z</time>
      </trkpt>
      <trkpt lat="49.17535" lon="6.92823">
        <ele>346.1</ele>
        <time>2020-06-26T20:57:22Z</time>
      </trkpt>
      <trkpt lat="49.17527" lon="6.92823">
        <ele>346.1</ele>
        <time>2020-06-26T20:57:23Z</time>
      </trkpt>
      <trkpt lat="49.17521" lon="6.92824">
        <ele>346</ele>
        <time>2020-06-26T20:57:24Z</time>
      </trkpt>
      <trkpt lat="49.17516" lon="6.92827">
        <ele>345.8</ele>
        <time>2020-06-26T20:57:25Z</time>
      </trkpt>
      <trkpt lat="49.1751" lon="6.92832">
        <ele>345.6</ele>
        <time>2020-06-26T20:57:26Z</time>
      </trkpt>
      <trkpt lat="49.17507" lon="6.92838">
        <ele>345.4</ele>
        <time>2020-06-26T20:57:27Z</time>
      </trkpt>
      <trkpt lat="49.17505" lon="6.92845">
        <ele>345.4</ele>
        <time>2020-06-26T20:57:28Z</time>
      </trkpt>
      <trkpt lat="49.17506" lon="6.92853">
        <ele>345.1</ele>
        <time>2020-06-26T20:57:29Z</time>
      </trkpt>
      <trkpt lat="49.17508" lon="6.92861">
        <ele>345</ele>
        <time>2020-06-26T20:57:30Z</time>
      </trkpt>
      <trkpt lat="49.1751" lon="6.92869">
        <ele>344.9</ele>
        <time>2020-06-26T20:57:31Z</time>
      </trkpt>
      <trkpt lat="49.17513" lon="6.92876">
        <ele>344.1</ele>
        <time>2020-06-26T20:57:32Z</time>
      </trkpt>
      <trkpt lat="49.17517" lon="6.92884">
        <ele>343.6</ele>
        <time>2020-06-26T20:57:33Z</time>
      </trkpt>
      <trkpt lat="49.17519" lon="6.92891">
        <ele>343.2</ele>
        <time>2020-06-26T20:57:34Z</time>
      </trkpt>
      <trkpt lat="49.1752" lon="6.92898">
        <ele>342.9</ele>
        <time>2020-06-26T20:57:35Z</time>
      </trkpt>
      <trkpt lat="49.17521" lon="6.92905">
        <ele>342.5</ele>
        <time>2020-06-26T20:57:36Z</time>
      </trkpt>
      <trkpt lat="49.17522" lon="6.92914">
        <ele>342.1</ele>
        <time>2020-06-26T20:57:37Z</time>
      </trkpt>
      <trkpt lat="49.17523" lon="6.92924">
        <ele>341.7</ele>
        <time>2020-06-26T20:57:38Z</time>
      </trkpt>
      <trkpt lat="49.17523" lon="6.92934">
        <ele>341.3</ele>
        <time>2020-06-26T20:57:39Z</time>
      </trkpt>
      <trkpt lat="49.17523" lon="6.92944">
        <ele>340.9</ele>
        <time>2020-06-26T20:57:40Z</time>
      </trkpt>
      <trkpt lat="49.17522" lon="6.92952">
        <ele>340.7</ele>
        <time>2020-06-26T20:57:41Z</time>
      </trkpt>
      <trkpt lat="49.17522" lon="6.92963">
        <ele>340.4</ele>
        <time>2020-06-26T20:57:42Z</time>
      </trkpt>
      <trkpt lat="49.17522" lon="6.92971">
        <ele>340.3</ele>
        <time>2020-06-26T20:57:43Z</time>
      </trkpt>
      <trkpt lat="49.17521" lon="6.92981">
        <ele>340.1</ele>
        <time>2020-06-26T20:57:44Z</time>
      </trkpt>
      <trkpt lat="49.1752" lon="6.9299">
        <ele>339.9</ele>
        <time>2020-06-26T20:57:45Z</time>
      </trkpt>
      <trkpt lat="49.17517" lon="6.92998">
        <ele>339.9</ele>
        <time>2020-06-26T20:57:46Z</time>
      </trkpt>
      <trkpt lat="49.17515" lon="6.93005">
        <ele>339.8</ele>
        <time>2020-06-26T20:57:47Z</time>
      </trkpt>
      <trkpt lat="49.17514" lon="6.93012">
        <ele>339.5</ele>
        <time>2020-06-26T20:57:48Z</time>
      </trkpt>
      <trkpt lat="49.17512" lon="6.93019">
        <ele>339.3</ele>
        <time>2020-06-26T20:57:49Z</time>
      </trkpt>
      <trkpt lat="49.17509" lon="6.93025">
        <ele>339.1</ele>
        <time>2020-06-26T20:57:50Z</time>
      </trkpt>
      <trkpt lat="49.17506" lon="6.9303">
        <ele>338.9</ele>
        <time>2020-06-26T20:57:51Z</time>
      </trkpt>
      <trkpt lat="49.17502" lon="6.93035">
        <ele>338.7</ele>
        <time>2020-06-26T20:57:52Z</time>
      </trkpt>
      <trkpt lat="49.175" lon="6.93041">
        <ele>338.6</ele>
        <time>2020-06-26T20:57:53Z</time>
      </trkpt>
      <trkpt lat="49.17497" lon="6.93046">
        <ele>338.4</ele>
        <time>2020-06-26T20:57:54Z</time>
      </trkpt>
      <trkpt lat="49.17494" lon="6.93049">
        <ele>338.3</ele>
        <time>2020-06-26T20:57:55Z</time>
      </trkpt>
      <trkpt lat="49.1749" lon="6.93053">
        <ele>338.1</ele>
        <time>2020-06-26T20:57:56Z</time>
      </trkpt>
      <trkpt lat="49.17486" lon="6.93057">
        <ele>338</ele>
        <time>2020-06-26T20:57:57Z</time>
      </trkpt>
      <trkpt lat="49.17482" lon="6.93061">
        <ele>337.9</ele>
        <time>2020-06-26T20:57:58Z</time>
      </trkpt>
      <trkpt lat="49.17478" lon="6.93065">
        <ele>337.7</ele>
        <time>2020-06-26T20:57:59Z</time>
      </trkpt>
      <trkpt lat="49.17474" lon="6.9307">
        <ele>337.6</ele>
        <time>2020-06-26T20:58:00Z</time>
      </trkpt>
      <trkpt lat="49.1747" lon="6.93074">
        <ele>337.5</ele>
        <time>2020-06-26T20:58:01Z</time>
      </trkpt>
      <trkpt lat="49.17464" lon="6.93079">
        <ele>337.3</ele>
        <time>2020-06-26T20:58:02Z</time>
      </trkpt>
      <trkpt lat="49.1746" lon="6.93084">
        <ele>337.1</ele>
        <time>2020-06-26T20:58:03Z</time>
      </trkpt>
      <trkpt lat="49.17456" lon="6.9309">
        <ele>336.9</ele>
        <time>2020-06-26T20:58:04Z</time>
      </trkpt>
      <trkpt lat="49.17452" lon="6.93096">
        <ele>336.6</ele>
        <time>2020-06-26T20:58:05Z</time>
      </trkpt>
      <trkpt lat="49.17447" lon="6.93101">
        <ele>336.3</ele>
        <time>2020-06-26T20:58:06Z</time>
      </trkpt>
      <trkpt lat="49.17443" lon="6.93108">
        <ele>336</ele>
        <time>2020-06-26T20:58:07Z</time>
      </trkpt>
      <trkpt lat="49.17439" lon="6.93113">
        <ele>335.7</ele>
        <time>2020-06-26T20:58:08Z</time>
      </trkpt>
      <trkpt lat="49.17435" lon="6.93117">
        <ele>335.3</ele>
        <time>2020-06-26T20:58:09Z</time>
      </trkpt>
      <trkpt lat="49.17431" lon="6.93122">
        <ele>335</ele>
        <time>2020-06-26T20:58:10Z</time>
      </trkpt>
      <trkpt lat="49.17426" lon="6.93127">
        <ele>334.6</ele>
        <time>2020-06-26T20:58:11Z</time>
      </trkpt>
      <trkpt lat="49.17422" lon="6.93132">
        <ele>334.1</ele>
        <time>2020-06-26T20:58:12Z</time>
      </trkpt>
      <trkpt lat="49.17418" lon="6.93138">
        <ele>333.7</ele>
        <time>2020-06-26T20:58:13Z</time>
      </trkpt>
      <trkpt lat="49.17413" lon="6.93145">
        <ele>333.2</ele>
        <time>2020-06-26T20:58:14Z</time>
      </trkpt>
      <trkpt lat="49.17407" lon="6.93151">
        <ele>332.6</ele>
        <time>2020-06-26T20:58:15Z</time>
      </trkpt>
      <trkpt lat="49.17403" lon="6.93155">
        <ele>332.2</ele>
        <time>2020-06-26T20:58:16Z</time>
      </trkpt>
      <trkpt lat="49.17401" lon="6.93157">
        <ele>331.9</ele>
        <time>2020-06-26T20:58:17Z</time>
      </trkpt>
      <trkpt lat="49.17395" lon="6.93163">
        <ele>331.3</ele>
        <time>2020-06-26T20:58:18Z</time>
      </trkpt>
      <trkpt lat="49.1739" lon="6.9317">
        <ele>330</ele>
        <time>2020-06-26T20:58:19Z</time>
      </trkpt>
      <trkpt lat="49.17385" lon="6.93177">
        <ele>329.8</ele>
        <time>2020-06-26T20:58:20Z</time>
      </trkpt>
      <trkpt lat="49.1738" lon="6.93184">
        <ele>329.4</ele>
        <time>2020-06-26T20:58:21Z</time>
      </trkpt>
      <trkpt lat="49.17374" lon="6.93192">
        <ele>328.9</ele>
        <time>2020-06-26T20:58:22Z</time>
      </trkpt>
      <trkpt lat="49.17369" lon="6.93199">
        <ele>328.4</ele>
        <time>2020-06-26T20:58:23Z</time>
      </trkpt>
      <trkpt lat="49.17363" lon="6.93207">
        <ele>328.8</ele>
        <time>2020-06-26T20:58:24Z</time>
      </trkpt>
      <trkpt lat="49.17356" lon="6.93215">
        <ele>330.2</ele>
        <time>2020-06-26T20:58:25Z</time>
      </trkpt>
      <trkpt lat="49.1735" lon="6.93223">
        <ele>329.5</ele>
        <time>2020-06-26T20:58:26Z</time>
      </trkpt>
      <trkpt lat="49.17345" lon="6.93229">
        <ele>328.9</ele>
        <time>2020-06-26T20:58:27Z</time>
      </trkpt>
      <trkpt lat="49.17341" lon="6.93235">
        <ele>328.3</ele>
        <time>2020-06-26T20:58:28Z</time>
      </trkpt>
      <trkpt lat="49.17336" lon="6.93241">
        <ele>327.8</ele>
        <time>2020-06-26T20:58:29Z</time>
      </trkpt>
      <trkpt lat="49.17332" lon="6.93246">
        <ele>327.3</ele>
        <time>2020-06-26T20:58:30Z</time>
      </trkpt>
      <trkpt lat="49.17328" lon="6.93251">
        <ele>326.8</ele>
        <time>2020-06-26T20:58:31Z</time>
      </trkpt>
      <trkpt lat="49.17324" lon="6.93256">
        <ele>326.3</ele>
        <time>2020-06-26T20:58:32Z</time>
      </trkpt>
      <trkpt lat="49.17321" lon="6.9326">
        <ele>326</ele>
        <time>2020-06-26T20:58:33Z</time>
      </trkpt>
      <trkpt lat="49.17317" lon="6.93265">
        <ele>324.8</ele>
        <time>2020-06-26T20:58:34Z</time>
      </trkpt>
      <trkpt lat="49.17313" lon="6.9327">
        <ele>323.6</ele>
        <time>2020-06-26T20:58:35Z</time>
      </trkpt>
      <trkpt lat="49.17309" lon="6.93277">
        <ele>322.3</ele>
        <time>2020-06-26T20:58:36Z</time>
      </trkpt>
      <trkpt lat="49.17305" lon="6.93283">
        <ele>320.8</ele>
        <time>2020-06-26T20:58:37Z</time>
      </trkpt>
      <trkpt lat="49.173" lon="6.93291">
        <ele>321.8</ele>
        <time>2020-06-26T20:58:38Z</time>
      </trkpt>
      <trkpt lat="49.17294" lon="6.93297">
        <ele>323.5</ele>
        <time>2020-06-26T20:58:39Z</time>
      </trkpt>
      <trkpt lat="49.17289" lon="6.93304">
        <ele>322.7</ele>
        <time>2020-06-26T20:58:40Z</time>
      </trkpt>
      <trkpt lat="49.17283" lon="6.9331">
        <ele>321.8</ele>
        <time>2020-06-26T20:58:41Z</time>
      </trkpt>
      <trkpt lat="49.17277" lon="6.93317">
        <ele>321</ele>
        <time>2020-06-26T20:58:42Z</time>
      </trkpt>
      <trkpt lat="49.17272" lon="6.93323">
        <ele>320.2</ele>
        <time>2020-06-26T20:58:43Z</time>
      </trkpt>
      <trkpt lat="49.17267" lon="6.93329">
        <ele>320.2</ele>
        <time>2020-06-26T20:58:44Z</time>
      </trkpt>
      <trkpt lat="49.17262" lon="6.93335">
        <ele>320.3</ele>
        <time>2020-06-26T20:58:45Z</time>
      </trkpt>
      <trkpt lat="49.17257" lon="6.93342">
        <ele>320.2</ele>
        <time>2020-06-26T20:58:46Z</time>
      </trkpt>
      <trkpt lat="49.17252" lon="6.93348">
        <ele>320.1</ele>
        <time>2020-06-26T20:58:47Z</time>
      </trkpt>
      <trkpt lat="49.17248" lon="6.93353">
        <ele>320.1</ele>
        <time>2020-06-26T20:58:48Z</time>
      </trkpt>
      <trkpt lat="49.17243" lon="6.93359">
        <ele>320</ele>
        <time>2020-06-26T20:58:49Z</time>
      </trkpt>
      <trkpt lat="49.17238" lon="6.93365">
        <ele>319.8</ele>
        <time>2020-06-26T20:58:50Z</time>
      </trkpt>
      <trkpt lat="49.17234" lon="6.9337">
        <ele>319.7</ele>
        <time>2020-06-26T20:58:51Z</time>
      </trkpt>
      <trkpt lat="49.1723" lon="6.93376">
        <ele>319.7</ele>
        <time>2020-06-26T20:58:52Z</time>
      </trkpt>
      <trkpt lat="49.17225" lon="6.93381">
        <ele>319.8</ele>
        <time>2020-06-26T20:58:53Z</time>
      </trkpt>
      <trkpt lat="49.17221" lon="6.93386">
        <ele>319.8</ele>
        <time>2020-06-26T20:58:54Z</time>
      </trkpt>
      <trkpt lat="49.17217" lon="6.9339">
        <ele>319.9</ele>
        <time>2020-06-26T20:58:55Z</time>
      </trkpt>
      <trkpt lat="49.17213" lon="6.93395">
        <ele>320.2</ele>
        <time>2020-06-26T20:58:56Z</time>
      </trkpt>
      <trkpt lat="49.1721" lon="6.934">
        <ele>320.4</ele>
        <time>2020-06-26T20:58:57Z</time>
      </trkpt>
      <trkpt lat="49.17207" lon="6.93406">
        <ele>320.7</ele>
        <time>2020-06-26T20:58:58Z</time>
      </trkpt>
      <trkpt lat="49.17204" lon="6.9341">
        <ele>320.9</ele>
        <time>2020-06-26T20:58:59Z</time>
      </trkpt>
      <trkpt lat="49.172" lon="6.93413">
        <ele>321.2</ele>
        <time>2020-06-26T20:59:00Z</time>
      </trkpt>
      <trkpt lat="49.17197" lon="6.93416">
        <ele>321.5</ele>
        <time>2020-06-26T20:59:01Z</time>
      </trkpt>
      <trkpt lat="49.17194" lon="6.93419">
        <ele>321.9</ele>
        <time>2020-06-26T20:59:02Z</time>
      </trkpt>
      <trkpt lat="49.17192" lon="6.93423">
        <ele>322.2</ele>
        <time>2020-06-26T20:59:03Z</time>
      </trkpt>
      <trkpt lat="49.17189" lon="6.93426">
        <ele>322.5</ele>
        <time>2020-06-26T20:59:04Z</time>
      </trkpt>
      <trkpt lat="49.17186" lon="6.93429">
        <ele>322.8</ele>
        <time>2020-06-26T20:59:05Z</time>
      </trkpt>
      <trkpt lat="49.17184" lon="6.93432">
        <ele>323.2</ele>
        <time>2020-06-26T20:59:06Z</time>
      </trkpt>
      <trkpt lat="49.17181" lon="6.93435">
        <ele>323.5</ele>
        <time>2020-06-26T20:59:07Z</time>
      </trkpt>
      <trkpt lat="49.17179" lon="6.93438">
        <ele>323.8</ele>
        <time>2020-06-26T20:59:08Z</time>
      </trkpt>
      <trkpt lat="49.17176" lon="6.93441">
        <ele>324.1</ele>
        <time>2020-06-26T20:59:09Z</time>
      </trkpt>
      <trkpt lat="49.17174" lon="6.93444">
        <ele>324.4</ele>
        <time>2020-06-26T20:59:10Z</time>
      </trkpt>
      <trkpt lat="49.17171" lon="6.93447">
        <ele>324.8</ele>
        <time>2020-06-26T20:59:11Z</time>
      </trkpt>
      <trkpt lat="49.17169" lon="6.9345">
        <ele>325.1</ele>
        <time>2020-06-26T20:59:12Z</time>
      </trkpt>
      <trkpt lat="49.17166" lon="6.93452">
        <ele>325.5</ele>
        <time>2020-06-26T20:59:13Z</time>
      </trkpt>
      <trkpt lat="49.17163" lon="6.93454">
        <ele>325.9</ele>
        <time>2020-06-26T20:59:14Z</time>
      </trkpt>
      <trkpt lat="49.17161" lon="6.93457">
        <ele>326</ele>
        <time>2020-06-26T20:59:15Z</time>
      </trkpt>
      <trkpt lat="49.17159" lon="6.93461">
        <ele>326.1</ele>
        <time>2020-06-26T20:59:16Z</time>
      </trkpt>
      <trkpt lat="49.17156" lon="6.93463">
        <ele>326.3</ele>
        <time>2020-06-26T20:59:17Z</time>
      </trkpt>
      <trkpt lat="49.17154" lon="6.93466">
        <ele>326.4</ele>
        <time>2020-06-26T20:59:18Z</time>
      </trkpt>
      <trkpt lat="49.17152" lon="6.9347">
        <ele>326.5</ele>
        <time>2020-06-26T20:59:19Z</time>
      </trkpt>
      <trkpt lat="49.17149" lon="6.93473">
        <ele>326.7</ele>
        <time>2020-06-26T20:59:20Z</time>
      </trkpt>
      <trkpt lat="49.17146" lon="6.93476">
        <ele>326.8</ele>
        <time>2020-06-26T20:59:21Z</time>
      </trkpt>
      <trkpt lat="49.17143" lon="6.9348">
        <ele>327</ele>
        <time>2020-06-26T20:59:22Z</time>
      </trkpt>
      <trkpt lat="49.1714" lon="6.93484">
        <ele>327.3</ele>
        <time>2020-06-26T20:59:23Z</time>
      </trkpt>
      <trkpt lat="49.17137" lon="6.93488">
        <ele>327.4</ele>
        <time>2020-06-26T20:59:24Z</time>
      </trkpt>
      <trkpt lat="49.17135" lon="6.93491">
        <ele>327.6</ele>
        <time>2020-06-26T20:59:25Z</time>
      </trkpt>
      <trkpt lat="49.17132" lon="6.93494">
        <ele>327.7</ele>
        <time>2020-06-26T20:59:26Z</time>
      </trkpt>
      <trkpt lat="49.1713" lon="6.93497">
        <ele>327.9</ele>
        <time>2020-06-26T20:59:27Z</time>
      </trkpt>
      <trkpt lat="49.17128" lon="6.93499">
        <ele>328</ele>
        <time>2020-06-26T20:59:28Z</time>
      </trkpt>
      <trkpt lat="49.17126" lon="6.93502">
        <ele>328.1</ele>
        <time>2020-06-26T20:59:29Z</time>
      </trkpt>
      <trkpt lat="49.17125" lon="6.93502">
        <ele>328.2</ele>
        <time>2020-06-26T20:59:30Z</time>
      </trkpt>
      <trkpt lat="49.17122" lon="6.93505">
        <ele>328.3</ele>
        <time>2020-06-26T20:59:31Z</time>
      </trkpt>
      <trkpt lat="49.17119" lon="6.93509">
        <ele>328.5</ele>
        <time>2020-06-26T20:59:32Z</time>
      </trkpt>
      <trkpt lat="49.17117" lon="6.93512">
        <ele>328.6</ele>
        <time>2020-06-26T20:59:33Z</time>
      </trkpt>
      <trkpt lat="49.17116" lon="6.93513">
        <ele>328.7</ele>
        <time>2020-06-26T20:59:34Z</time>
      </trkpt>
      <trkpt lat="49.17114" lon="6.93516">
        <ele>328.8</ele>
        <time>2020-06-26T20:59:35Z</time>
      </trkpt>
      <trkpt lat="49.17113" lon="6.93517">
        <ele>328.8</ele>
        <time>2020-06-26T20:59:36Z</time>
      </trkpt>
      <trkpt lat="49.1711" lon="6.9352">
        <ele>328.9</ele>
        <time>2020-06-26T20:59:37Z</time>
      </trkpt>
      <trkpt lat="49.17108" lon="6.93523">
        <ele>329</ele>
        <time>2020-06-26T20:59:38Z</time>
      </trkpt>
      <trkpt lat="49.17105" lon="6.93526">
        <ele>329.1</ele>
        <time>2020-06-26T20:59:39Z</time>
      </trkpt>
      <trkpt lat="49.17102" lon="6.93531">
        <ele>329.2</ele>
        <time>2020-06-26T20:59:40Z</time>
      </trkpt>
      <trkpt lat="49.171" lon="6.93532">
        <ele>329.3</ele>
        <time>2020-06-26T20:59:41Z</time>
      </trkpt>
      <trkpt lat="49.17097" lon="6.93536">
        <ele>329.4</ele>
        <time>2020-06-26T20:59:42Z</time>
      </trkpt>
      <trkpt lat="49.17095" lon="6.93539">
        <ele>329.5</ele>
        <time>2020-06-26T20:59:43Z</time>
      </trkpt>
      <trkpt lat="49.17092" lon="6.93542">
        <ele>329.6</ele>
        <time>2020-06-26T20:59:44Z</time>
      </trkpt>
      <trkpt lat="49.1709" lon="6.93544">
        <ele>329.6</ele>
        <time>2020-06-26T20:59:45Z</time>
      </trkpt>
      <trkpt lat="49.17088" lon="6.93546">
        <ele>329.7</ele>
        <time>2020-06-26T20:59:46Z</time>
      </trkpt>
      <trkpt lat="49.17085" lon="6.9355">
        <ele>329.8</ele>
        <time>2020-06-26T20:59:47Z</time>
      </trkpt>
      <trkpt lat="49.17083" lon="6.93553">
        <ele>329.9</ele>
        <time>2020-06-26T20:59:48Z</time>
      </trkpt>
      <trkpt lat="49.1708" lon="6.93557">
        <ele>329.9</ele>
        <time>2020-06-26T20:59:49Z</time>
      </trkpt>
      <trkpt lat="49.17078" lon="6.93558">
        <ele>330</ele>
        <time>2020-06-26T20:59:50Z</time>
      </trkpt>
      <trkpt lat="49.17076" lon="6.93562">
        <ele>330</ele>
        <time>2020-06-26T20:59:51Z</time>
      </trkpt>
      <trkpt lat="49.17075" lon="6.93564">
        <ele>330</ele>
        <time>2020-06-26T20:59:52Z</time>
      </trkpt>
      <trkpt lat="49.17073" lon="6.93566">
        <ele>330.1</ele>
        <time>2020-06-26T20:59:53Z</time>
      </trkpt>
      <trkpt lat="49.17071" lon="6.93569">
        <ele>330.1</ele>
        <time>2020-06-26T20:59:54Z</time>
      </trkpt>
      <trkpt lat="49.1707" lon="6.93571">
        <ele>330.1</ele>
        <time>2020-06-26T20:59:55Z</time>
      </trkpt>
      <trkpt lat="49.17067" lon="6.93575">
        <ele>330.1</ele>
        <time>2020-06-26T20:59:56Z</time>
      </trkpt>
      <trkpt lat="49.17066" lon="6.93577">
        <ele>330.2</ele>
        <time>2020-06-26T20:59:57Z</time>
      </trkpt>
      <trkpt lat="49.17064" lon="6.9358">
        <ele>330.2</ele>
        <time>2020-06-26T20:59:58Z</time>
      </trkpt>
      <trkpt lat="49.17063" lon="6.93582">
        <ele>330.2</ele>
        <time>2020-06-26T20:59:59Z</time>
      </trkpt>
      <trkpt lat="49.17061" lon="6.93586">
        <ele>330.2</ele>
        <time>2020-06-26T21:00:00Z</time>
      </trkpt>
      <trkpt lat="49.1706" lon="6.93587">
        <ele>330.2</ele>
        <time>2020-06-26T21:00:01Z</time>
      </trkpt>
      <trkpt lat="49.17058" lon="6.9359">
        <ele>330.2</ele>
        <time>2020-06-26T21:00:02Z</time>
      </trkpt>
      <trkpt lat="49.17055" lon="6.93591">
        <ele>330.2</ele>
        <time>2020-06-26T21:00:03Z</time>
      </trkpt>
      <trkpt lat="49.17052" lon="6.93593">
        <ele>330.2</ele>
        <time>2020-06-26T21:00:04Z</time>
      </trkpt>
      <trkpt lat="49.1705" lon="6.93595">
        <ele>330.2</ele>
        <time>2020-06-26T21:00:05Z</time>
      </trkpt>
      <trkpt lat="49.17048" lon="6.93598">
        <ele>330.2</ele>
        <time>2020-06-26T21:00:06Z</time>
      </trkpt>
      <trkpt lat="49.17045" lon="6.936">
        <ele>330.2</ele>
        <time>2020-06-26T21:00:07Z</time>
      </trkpt>
      <trkpt lat="49.17043" lon="6.93604">
        <ele>330.2</ele>
        <time>2020-06-26T21:00:08Z</time>
      </trkpt>
      <trkpt lat="49.1704" lon="6.93606">
        <ele>330.1</ele>
        <time>2020-06-26T21:00:09Z</time>
      </trkpt>
      <trkpt lat="49.17037" lon="6.93608">
        <ele>330.1</ele>
        <time>2020-06-26T21:00:10Z</time>
      </trkpt>
      <trkpt lat="49.17035" lon="6.93613">
        <ele>330</ele>
        <time>2020-06-26T21:00:11Z</time>
      </trkpt>
      <trkpt lat="49.17033" lon="6.93614">
        <ele>329.9</ele>
        <time>2020-06-26T21:00:12Z</time>
      </trkpt>
      <trkpt lat="49.17031" lon="6.93618">
        <ele>329.8</ele>
        <time>2020-06-26T21:00:13Z</time>
      </trkpt>
      <trkpt lat="49.17029" lon="6.93623">
        <ele>329.7</ele>
        <time>2020-06-26T21:00:14Z</time>
      </trkpt>
      <trkpt lat="49.17026" lon="6.93626">
        <ele>329.6</ele>
        <time>2020-06-26T21:00:15Z</time>
      </trkpt>
      <trkpt lat="49.17025" lon="6.93627">
        <ele>329.6</ele>
        <time>2020-06-26T21:00:16Z</time>
      </trkpt>
      <trkpt lat="49.17023" lon="6.9363">
        <ele>329.6</ele>
        <time>2020-06-26T21:00:17Z</time>
      </trkpt>
      <trkpt lat="49.17021" lon="6.93633">
        <ele>329.5</ele>
        <time>2020-06-26T21:00:18Z</time>
      </trkpt>
      <trkpt lat="49.17018" lon="6.93637">
        <ele>329.4</ele>
        <time>2020-06-26T21:00:19Z</time>
      </trkpt>
      <trkpt lat="49.17015" lon="6.93641">
        <ele>329.3</ele>
        <time>2020-06-26T21:00:20Z</time>
      </trkpt>
      <trkpt lat="49.17013" lon="6.93646">
        <ele>329.2</ele>
        <time>2020-06-26T21:00:21Z</time>
      </trkpt>
      <trkpt lat="49.17009" lon="6.93649">
        <ele>329.1</ele>
        <time>2020-06-26T21:00:22Z</time>
      </trkpt>
      <trkpt lat="49.17004" lon="6.93652">
        <ele>328.9</ele>
        <time>2020-06-26T21:00:23Z</time>
      </trkpt>
      <trkpt lat="49.17001" lon="6.93656">
        <ele>328.8</ele>
        <time>2020-06-26T21:00:24Z</time>
      </trkpt>
      <trkpt lat="49.16997" lon="6.9366">
        <ele>328.7</ele>
        <time>2020-06-26T21:00:25Z</time>
      </trkpt>
      <trkpt lat="49.16995" lon="6.93664">
        <ele>328.6</ele>
        <time>2020-06-26T21:00:26Z</time>
      </trkpt>
      <trkpt lat="49.16992" lon="6.93668">
        <ele>328.4</ele>
        <time>2020-06-26T21:00:27Z</time>
      </trkpt>
      <trkpt lat="49.16988" lon="6.93672">
        <ele>328.2</ele>
        <time>2020-06-26T21:00:28Z</time>
      </trkpt>
      <trkpt lat="49.16983" lon="6.93676">
        <ele>328</ele>
        <time>2020-06-26T21:00:29Z</time>
      </trkpt>
      <trkpt lat="49.16979" lon="6.93681">
        <ele>327.8</ele>
        <time>2020-06-26T21:00:30Z</time>
      </trkpt>
      <trkpt lat="49.16976" lon="6.93685">
        <ele>327.5</ele>
        <time>2020-06-26T21:00:31Z</time>
      </trkpt>
      <trkpt lat="49.16974" lon="6.93689">
        <ele>327.3</ele>
        <time>2020-06-26T21:00:32Z</time>
      </trkpt>
      <trkpt lat="49.1697" lon="6.93693">
        <ele>327.1</ele>
        <time>2020-06-26T21:00:33Z</time>
      </trkpt>
      <trkpt lat="49.16967" lon="6.93696">
        <ele>326.8</ele>
        <time>2020-06-26T21:00:34Z</time>
      </trkpt>
      <trkpt lat="49.16963" lon="6.93699">
        <ele>326.7</ele>
        <time>2020-06-26T21:00:35Z</time>
      </trkpt>
      <trkpt lat="49.16958" lon="6.93699">
        <ele>326.5</ele>
        <time>2020-06-26T21:00:36Z</time>
      </trkpt>
      <trkpt lat="49.16953" lon="6.93697">
        <ele>326.4</ele>
        <time>2020-06-26T21:00:37Z</time>
      </trkpt>
      <trkpt lat="49.16947" lon="6.93694">
        <ele>326.2</ele>
        <time>2020-06-26T21:00:38Z</time>
      </trkpt>
      <trkpt lat="49.16942" lon="6.93691">
        <ele>326</ele>
        <time>2020-06-26T21:00:39Z</time>
      </trkpt>
      <trkpt lat="49.16937" lon="6.9369">
        <ele>325.9</ele>
        <time>2020-06-26T21:00:40Z</time>
      </trkpt>
      <trkpt lat="49.16932" lon="6.93688">
        <ele>325.8</ele>
        <time>2020-06-26T21:00:41Z</time>
      </trkpt>
      <trkpt lat="49.16929" lon="6.93684">
        <ele>325.7</ele>
        <time>2020-06-26T21:00:42Z</time>
      </trkpt>
      <trkpt lat="49.16924" lon="6.93681">
        <ele>325.6</ele>
        <time>2020-06-26T21:00:43Z</time>
      </trkpt>
      <trkpt lat="49.16919" lon="6.93679">
        <ele>325.5</ele>
        <time>2020-06-26T21:00:44Z</time>
      </trkpt>
      <trkpt lat="49.16914" lon="6.93677">
        <ele>325.5</ele>
        <time>2020-06-26T21:00:45Z</time>
      </trkpt>
      <trkpt lat="49.16908" lon="6.93676">
        <ele>325.4</ele>
        <time>2020-06-26T21:00:46Z</time>
      </trkpt>
      <trkpt lat="49.16904" lon="6.93674">
        <ele>325.4</ele>
        <time>2020-06-26T21:00:47Z</time>
      </trkpt>
      <trkpt lat="49.169" lon="6.93668">
        <ele>325.5</ele>
        <time>2020-06-26T21:00:48Z</time>
      </trkpt>
      <trkpt lat="49.16897" lon="6.93666">
        <ele>325.5</ele>
        <time>2020-06-26T21:00:49Z</time>
      </trkpt>
      <trkpt lat="49.16893" lon="6.93664">
        <ele>325.5</ele>
        <time>2020-06-26T21:00:50Z</time>
      </trkpt>
      <trkpt lat="49.16888" lon="6.93664">
        <ele>325.6</ele>
        <time>2020-06-26T21:00:51Z</time>
      </trkpt>
      <trkpt lat="49.16884" lon="6.93666">
        <ele>325.5</ele>
        <time>2020-06-26T21:00:52Z</time>
      </trkpt>
      <trkpt lat="49.16882" lon="6.93668">
        <ele>325.5</ele>
        <time>2020-06-26T21:00:53Z</time>
      </trkpt>
      <trkpt lat="49.1688" lon="6.93672">
        <ele>325.5</ele>
        <time>2020-06-26T21:00:54Z</time>
      </trkpt>
      <trkpt lat="49.16879" lon="6.93678">
        <ele>325.4</ele>
        <time>2020-06-26T21:00:55Z</time>
      </trkpt>
      <trkpt lat="49.16879" lon="6.93684">
        <ele>325.3</ele>
        <time>2020-06-26T21:00:56Z</time>
      </trkpt>
      <trkpt lat="49.16879" lon="6.93689">
        <ele>325.1</ele>
        <time>2020-06-26T21:00:57Z</time>
      </trkpt>
      <trkpt lat="49.1688" lon="6.93694">
        <ele>325</ele>
        <time>2020-06-26T21:00:58Z</time>
      </trkpt>
      <trkpt lat="49.16879" lon="6.93699">
        <ele>324.8</ele>
        <time>2020-06-26T21:00:59Z</time>
      </trkpt>
      <trkpt lat="49.16878" lon="6.93703">
        <ele>324.7</ele>
        <time>2020-06-26T21:01:00Z</time>
      </trkpt>
      <trkpt lat="49.16876" lon="6.93708">
        <ele>324.6</ele>
        <time>2020-06-26T21:01:01Z</time>
      </trkpt>
      <trkpt lat="49.16874" lon="6.93714">
        <ele>324.4</ele>
        <time>2020-06-26T21:01:02Z</time>
      </trkpt>
      <trkpt lat="49.16871" lon="6.9372">
        <ele>324.2</ele>
        <time>2020-06-26T21:01:03Z</time>
      </trkpt>
      <trkpt lat="49.16869" lon="6.93726">
        <ele>324.1</ele>
        <time>2020-06-26T21:01:04Z</time>
      </trkpt>
      <trkpt lat="49.16868" lon="6.93733">
        <ele>323.9</ele>
        <time>2020-06-26T21:01:05Z</time>
      </trkpt>
      <trkpt lat="49.16866" lon="6.93737">
        <ele>323.8</ele>
        <time>2020-06-26T21:01:06Z</time>
      </trkpt>
      <trkpt lat="49.16863" lon="6.93741">
        <ele>323.7</ele>
        <time>2020-06-26T21:01:07Z</time>
      </trkpt>
      <trkpt lat="49.16863" lon="6.93744">
        <ele>323.6</ele>
        <time>2020-06-26T21:01:08Z</time>
      </trkpt>
      <trkpt lat="49.16863" lon="6.93746">
        <ele>323.5</ele>
        <time>2020-06-26T21:01:09Z</time>
      </trkpt>
      <trkpt lat="49.16863" lon="6.93749">
        <ele>323.5</ele>
        <time>2020-06-26T21:01:10Z</time>
      </trkpt>
      <trkpt lat="49.16863" lon="6.9375">
        <ele>323.4</ele>
        <time>2020-06-26T21:01:11Z</time>
      </trkpt>
      <trkpt lat="49.16863" lon="6.93752">
        <ele>323.4</ele>
        <time>2020-06-26T21:01:12Z</time>
      </trkpt>
      <trkpt lat="49.16864" lon="6.93751">
        <ele>323.4</ele>
        <time>2020-06-26T21:01:13Z</time>
      </trkpt>
      <trkpt lat="49.16864" lon="6.93752">
        <ele>323.4</ele>
        <time>2020-06-26T21:01:14Z</time>
      </trkpt>
      <trkpt lat="49.16864" lon="6.93752">
        <ele>323.4</ele>
        <time>2020-06-26T21:01:15Z</time>
      </trkpt>
      <trkpt lat="49.16864" lon="6.93752">
        <ele>323.3</ele>
        <time>2020-06-26T21:01:16Z</time>
      </trkpt>
      <trkpt lat="49.16866" lon="6.93753">
        <ele>323.4</ele>
        <time>2020-06-26T21:01:17Z</time>
      </trkpt>
      <trkpt lat="49.16867" lon="6.93753">
        <ele>323.4</ele>
        <time>2020-06-26T21:01:18Z</time>
      </trkpt>
      <trkpt lat="49.16867" lon="6.93754">
        <ele>323.4</ele>
        <time>2020-06-26T21:01:19Z</time>
      </trkpt>
      <trkpt lat="49.16868" lon="6.93755">
        <ele>323.4</ele>
        <time>2020-06-26T21:01:20Z</time>
      </trkpt>
      <trkpt lat="49.16868" lon="6.93755">
        <ele>323.4</ele>
        <time>2020-06-26T21:01:21Z</time>
      </trkpt>
      <trkpt lat="49.16868" lon="6.93756">
        <ele>323.4</ele>
        <time>2020-06-26T21:01:22Z</time>
      </trkpt>
      <trkpt lat="49.16869" lon="6.93757">
        <ele>323.4</ele>
        <time>2020-06-26T21:01:23Z</time>
      </trkpt>
      <trkpt lat="49.16869" lon="6.93757">
        <ele>323.4</ele>
        <time>2020-06-26T21:01:24Z</time>
      </trkpt>
      <trkpt lat="49.16869" lon="6.93758">
        <ele>323.4</ele>
        <time>2020-06-26T21:01:25Z</time>
      </trkpt>
      <trkpt lat="49.1687" lon="6.93759">
        <ele>323.4</ele>
        <time>2020-06-26T21:01:35Z</time>
      </trkpt>
      <trkpt lat="49.1687" lon="6.9376">
        <ele>323.4</ele>
        <time>2020-06-26T21:01:36Z</time>
      </trkpt>
      <trkpt lat="49.16871" lon="6.9376">
        <ele>323.4</ele>
        <time>2020-06-26T21:01:37Z</time>
      </trkpt>
      <trkpt lat="49.16872" lon="6.9376">
        <ele>323.5</ele>
        <time>2020-06-26T21:01:38Z</time>
      </trkpt>
      <trkpt lat="49.16873" lon="6.93762">
        <ele>323.4</ele>
        <time>2020-06-26T21:01:39Z</time>
      </trkpt>
      <trkpt lat="49.16874" lon="6.93762">
        <ele>323.4</ele>
        <time>2020-06-26T21:01:40Z</time>
      </trkpt>
      <trkpt lat="49.16875" lon="6.93763">
        <ele>323.5</ele>
        <time>2020-06-26T21:01:41Z</time>
      </trkpt>
      <trkpt lat="49.16876" lon="6.93766">
        <ele>323.4</ele>
        <time>2020-06-26T21:01:42Z</time>
      </trkpt>
      <trkpt lat="49.16879" lon="6.93768">
        <ele>323.5</ele>
        <time>2020-06-26T21:01:43Z</time>
      </trkpt>
      <trkpt lat="49.16879" lon="6.93769">
        <ele>323.5</ele>
        <time>2020-06-26T21:01:44Z</time>
      </trkpt>
      <trkpt lat="49.16882" lon="6.93773">
        <ele>323.5</ele>
        <time>2020-06-26T21:01:45Z</time>
      </trkpt>
      <trkpt lat="49.16884" lon="6.93775">
        <ele>323.5</ele>
        <time>2020-06-26T21:01:46Z</time>
      </trkpt>
      <trkpt lat="49.16885" lon="6.93776">
        <ele>323.5</ele>
        <time>2020-06-26T21:01:47Z</time>
      </trkpt>
      <trkpt lat="49.16885" lon="6.93776">
        <ele>323.5</ele>
        <time>2020-06-26T21:01:48Z</time>
      </trkpt>
      <trkpt lat="49.16886" lon="6.93776">
        <ele>323.6</ele>
        <time>2020-06-26T21:01:49Z</time>
      </trkpt>
      <trkpt lat="49.16886" lon="6.93776">
        <ele>323.6</ele>
        <time>2020-06-26T21:01:50Z</time>
      </trkpt>
      <trkpt lat="49.16887" lon="6.93777">
        <ele>323.6</ele>
        <time>2020-06-26T21:01:51Z</time>
      </trkpt>
      <trkpt lat="49.16887" lon="6.93777">
        <ele>323.6</ele>
        <time>2020-06-26T21:01:52Z</time>
      </trkpt>
      <trkpt lat="49.16887" lon="6.93776">
        <ele>323.6</ele>
        <time>2020-06-26T21:01:53Z</time>
      </trkpt>
      <trkpt lat="49.16888" lon="6.93776">
        <ele>323.6</ele>
        <time>2020-06-26T21:01:54Z</time>
      </trkpt>
      <trkpt lat="49.16888" lon="6.93776">
        <ele>323.6</ele>
        <time>2020-06-26T21:01:55Z</time>
      </trkpt>
      <trkpt lat="49.16889" lon="6.93776">
        <ele>323.7</ele>
        <time>2020-06-26T21:01:56Z</time>
      </trkpt>
      <trkpt lat="49.16889" lon="6.93776">
        <ele>323.7</ele>
        <time>2020-06-26T21:01:57Z</time>
      </trkpt>
      <trkpt lat="49.1689" lon="6.93776">
        <ele>323.7</ele>
        <time>2020-06-26T21:01:58Z</time>
      </trkpt>
      <trkpt lat="49.16891" lon="6.93775">
        <ele>323.7</ele>
        <time>2020-06-26T21:01:59Z</time>
      </trkpt>
      <trkpt lat="49.16893" lon="6.93772">
        <ele>323.8</ele>
        <time>2020-06-26T21:02:00Z</time>
      </trkpt>
      <trkpt lat="49.16894" lon="6.9377">
        <ele>323.8</ele>
        <time>2020-06-26T21:02:01Z</time>
      </trkpt>
      <trkpt lat="49.16895" lon="6.9377">
        <ele>323.9</ele>
        <time>2020-06-26T21:02:02Z</time>
      </trkpt>
      <trkpt lat="49.16895" lon="6.9377">
        <ele>323.9</ele>
        <time>2020-06-26T21:02:03Z</time>
      </trkpt>
      <trkpt lat="49.16895" lon="6.93768">
        <ele>324</ele>
        <time>2020-06-26T21:02:04Z</time>
      </trkpt>
      <trkpt lat="49.16895" lon="6.93767">
        <ele>324</ele>
        <time>2020-06-26T21:02:05Z</time>
      </trkpt>
      <trkpt lat="49.16895" lon="6.93765">
        <ele>324.1</ele>
        <time>2020-06-26T21:02:06Z</time>
      </trkpt>
      <trkpt lat="49.16896" lon="6.93763">
        <ele>324.1</ele>
        <time>2020-06-26T21:02:07Z</time>
      </trkpt>
      <trkpt lat="49.16896" lon="6.93762">
        <ele>324.1</ele>
        <time>2020-06-26T21:02:08Z</time>
      </trkpt>
      <trkpt lat="49.16896" lon="6.93762">
        <ele>324.1</ele>
        <time>2020-06-26T21:02:09Z</time>
      </trkpt>
      <trkpt lat="49.16896" lon="6.93764">
        <ele>324.1</ele>
        <time>2020-06-26T21:02:10Z</time>
      </trkpt>
      <trkpt lat="49.16896" lon="6.93766">
        <ele>324</ele>
        <time>2020-06-26T21:02:11Z</time>
      </trkpt>
      <trkpt lat="49.16896" lon="6.93768">
        <ele>324</ele>
        <time>2020-06-26T21:02:12Z</time>
      </trkpt>
      <trkpt lat="49.16896" lon="6.9377">
        <ele>323.9</ele>
        <time>2020-06-26T21:02:13Z</time>
      </trkpt>
      <trkpt lat="49.16896" lon="6.93772">
        <ele>323.9</ele>
        <time>2020-06-26T21:02:14Z</time>
      </trkpt>
      <trkpt lat="49.16896" lon="6.93774">
        <ele>323.9</ele>
        <time>2020-06-26T21:02:15Z</time>
      </trkpt>
      <trkpt lat="49.16896" lon="6.93776">
        <ele>323.9</ele>
        <time>2020-06-26T21:02:29Z</time>
      </trkpt>
      <trkpt lat="49.16896" lon="6.93777">
        <ele>323.9</ele>
        <time>2020-06-26T21:02:30Z</time>
      </trkpt>
      <trkpt lat="49.16898" lon="6.9378">
        <ele>323.9</ele>
        <time>2020-06-26T21:02:31Z</time>
      </trkpt>
      <trkpt lat="49.16899" lon="6.93784">
        <ele>323.8</ele>
        <time>2020-06-26T21:02:32Z</time>
      </trkpt>
      <trkpt lat="49.16902" lon="6.93788">
        <ele>323.9</ele>
        <time>2020-06-26T21:02:33Z</time>
      </trkpt>
      <trkpt lat="49.16904" lon="6.93792">
        <ele>323.8</ele>
        <time>2020-06-26T21:02:34Z</time>
      </trkpt>
      <trkpt lat="49.16906" lon="6.93795">
        <ele>323.8</ele>
        <time>2020-06-26T21:02:35Z</time>
      </trkpt>
      <trkpt lat="49.16908" lon="6.93799">
        <ele>323.9</ele>
        <time>2020-06-26T21:02:36Z</time>
      </trkpt>
      <trkpt lat="49.1691" lon="6.93802">
        <ele>323.8</ele>
        <time>2020-06-26T21:02:37Z</time>
      </trkpt>
      <trkpt lat="49.16913" lon="6.93804">
        <ele>323.8</ele>
        <time>2020-06-26T21:02:38Z</time>
      </trkpt>
      <trkpt lat="49.16915" lon="6.93809">
        <ele>323.9</ele>
        <time>2020-06-26T21:02:39Z</time>
      </trkpt>
      <trkpt lat="49.16916" lon="6.9381">
        <ele>323.9</ele>
        <time>2020-06-26T21:02:40Z</time>
      </trkpt>
      <trkpt lat="49.16918" lon="6.93813">
        <ele>323.9</ele>
        <time>2020-06-26T21:02:41Z</time>
      </trkpt>
      <trkpt lat="49.16919" lon="6.93814">
        <ele>323.9</ele>
        <time>2020-06-26T21:02:42Z</time>
      </trkpt>
      <trkpt lat="49.16922" lon="6.93818">
        <ele>324</ele>
        <time>2020-06-26T21:02:43Z</time>
      </trkpt>
      <trkpt lat="49.16923" lon="6.93819">
        <ele>324.1</ele>
        <time>2020-06-26T21:02:44Z</time>
      </trkpt>
      <trkpt lat="49.16925" lon="6.93822">
        <ele>324.2</ele>
        <time>2020-06-26T21:02:45Z</time>
      </trkpt>
      <trkpt lat="49.16926" lon="6.93822">
        <ele>324.2</ele>
        <time>2020-06-26T21:02:46Z</time>
      </trkpt>
      <trkpt lat="49.16929" lon="6.93824">
        <ele>324.4</ele>
        <time>2020-06-26T21:02:47Z</time>
      </trkpt>
      <trkpt lat="49.1693" lon="6.93825">
        <ele>324.4</ele>
        <time>2020-06-26T21:02:48Z</time>
      </trkpt>
      <trkpt lat="49.16933" lon="6.93826">
        <ele>324.5</ele>
        <time>2020-06-26T21:02:49Z</time>
      </trkpt>
      <trkpt lat="49.16934" lon="6.93827">
        <ele>324.6</ele>
        <time>2020-06-26T21:02:50Z</time>
      </trkpt>
      <trkpt lat="49.16935" lon="6.93828">
        <ele>324.6</ele>
        <time>2020-06-26T21:02:51Z</time>
      </trkpt>
      <trkpt lat="49.16936" lon="6.93829">
        <ele>324.7</ele>
        <time>2020-06-26T21:02:52Z</time>
      </trkpt>
      <trkpt lat="49.16937" lon="6.9383">
        <ele>324.7</ele>
        <time>2020-06-26T21:02:53Z</time>
      </trkpt>
      <trkpt lat="49.16938" lon="6.9383">
        <ele>324.7</ele>
        <time>2020-06-26T21:02:54Z</time>
      </trkpt>
      <trkpt lat="49.16939" lon="6.93832">
        <ele>324.7</ele>
        <time>2020-06-26T21:02:55Z</time>
      </trkpt>
      <trkpt lat="49.1694" lon="6.93834">
        <ele>324.7</ele>
        <time>2020-06-26T21:02:56Z</time>
      </trkpt>
      <trkpt lat="49.16939" lon="6.93837">
        <ele>324.7</ele>
        <time>2020-06-26T21:02:57Z</time>
      </trkpt>
      <trkpt lat="49.16937" lon="6.93842">
        <ele>324.5</ele>
        <time>2020-06-26T21:02:58Z</time>
      </trkpt>
      <trkpt lat="49.16937" lon="6.93848">
        <ele>324.4</ele>
        <time>2020-06-26T21:02:59Z</time>
      </trkpt>
      <trkpt lat="49.16935" lon="6.93852">
        <ele>324.2</ele>
        <time>2020-06-26T21:03:00Z</time>
      </trkpt>
      <trkpt lat="49.16934" lon="6.93857">
        <ele>324.1</ele>
        <time>2020-06-26T21:03:01Z</time>
      </trkpt>
      <trkpt lat="49.16934" lon="6.93858">
        <ele>324.1</ele>
        <time>2020-06-26T21:03:02Z</time>
      </trkpt>
      <trkpt lat="49.16934" lon="6.93859">
        <ele>324.1</ele>
        <time>2020-06-26T21:03:03Z</time>
      </trkpt>
      <trkpt lat="49.16934" lon="6.93862">
        <ele>324</ele>
        <time>2020-06-26T21:03:04Z</time>
      </trkpt>
      <trkpt lat="49.16934" lon="6.93864">
        <ele>323.9</ele>
        <time>2020-06-26T21:03:05Z</time>
      </trkpt>
      <trkpt lat="49.16934" lon="6.93866">
        <ele>323.9</ele>
        <time>2020-06-26T21:03:06Z</time>
      </trkpt>
      <trkpt lat="49.16934" lon="6.93866">
        <ele>323.9</ele>
        <time>2020-06-26T21:03:07Z</time>
      </trkpt>
      <trkpt lat="49.16934" lon="6.93865">
        <ele>323.9</ele>
        <time>2020-06-26T21:03:08Z</time>
      </trkpt>
      <trkpt lat="49.16934" lon="6.93865">
        <ele>323.9</ele>
        <time>2020-06-26T21:03:09Z</time>
      </trkpt>
      <trkpt lat="49.16934" lon="6.93865">
        <ele>323.9</ele>
        <time>2020-06-26T21:03:10Z</time>
      </trkpt>
      <trkpt lat="49.16934" lon="6.93865">
        <ele>323.9</ele>
        <time>2020-06-26T21:03:11Z</time>
      </trkpt>
      <trkpt lat="49.16934" lon="6.93865">
        <ele>323.9</ele>
        <time>2020-06-26T21:03:12Z</time>
      </trkpt>
      <trkpt lat="49.16934" lon="6.93865">
        <ele>323.9</ele>
        <time>2020-06-26T21:03:13Z</time>
      </trkpt>
      <trkpt lat="49.16934" lon="6.93865">
        <ele>323.9</ele>
        <time>2020-06-26T21:03:14Z</time>
      </trkpt>
      <trkpt lat="49.16933" lon="6.93865">
        <ele>323.9</ele>
        <time>2020-06-26T21:03:15Z</time>
      </trkpt>
      <trkpt lat="49.16933" lon="6.93857">
        <ele>324.1</ele>
        <time>2020-06-26T21:03:23Z</time>
      </trkpt>
      <trkpt lat="49.16933" lon="6.93857">
        <ele>323.9</ele>
        <time>2020-06-26T21:03:24Z</time>
      </trkpt>
      <trkpt lat="49.16933" lon="6.93855">
        <ele>324.2</ele>
        <time>2020-06-26T21:03:25Z</time>
      </trkpt>
      <trkpt lat="49.16933" lon="6.93855">
        <ele>324.2</ele>
        <time>2020-06-26T21:03:26Z</time>
      </trkpt>
      <trkpt lat="49.16933" lon="6.93853">
        <ele>324.2</ele>
        <time>2020-06-26T21:03:27Z</time>
      </trkpt>
      <trkpt lat="49.16933" lon="6.93851">
        <ele>324.2</ele>
        <time>2020-06-26T21:03:28Z</time>
      </trkpt>
      <trkpt lat="49.16933" lon="6.93849">
        <ele>324.3</ele>
        <time>2020-06-26T21:03:29Z</time>
      </trkpt>
      <trkpt lat="49.16933" lon="6.93845">
        <ele>324.2</ele>
        <time>2020-06-26T21:03:30Z</time>
      </trkpt>
      <trkpt lat="49.16933" lon="6.93843">
        <ele>324.2</ele>
        <time>2020-06-26T21:03:31Z</time>
      </trkpt>
      <trkpt lat="49.16932" lon="6.93841">
        <ele>324.3</ele>
        <time>2020-06-26T21:03:32Z</time>
      </trkpt>
      <trkpt lat="49.16931" lon="6.93839">
        <ele>324.3</ele>
        <time>2020-06-26T21:03:33Z</time>
      </trkpt>
      <trkpt lat="49.16929" lon="6.93835">
        <ele>324.2</ele>
        <time>2020-06-26T21:03:34Z</time>
      </trkpt>
      <trkpt lat="49.16928" lon="6.93833">
        <ele>324.3</ele>
        <time>2020-06-26T21:03:35Z</time>
      </trkpt>
      <trkpt lat="49.16926" lon="6.93829">
        <ele>324.2</ele>
        <time>2020-06-26T21:03:36Z</time>
      </trkpt>
      <trkpt lat="49.16925" lon="6.93828">
        <ele>324.2</ele>
        <time>2020-06-26T21:03:37Z</time>
      </trkpt>
      <trkpt lat="49.16924" lon="6.93822">
        <ele>324.1</ele>
        <time>2020-06-26T21:03:38Z</time>
      </trkpt>
      <trkpt lat="49.16924" lon="6.9382">
        <ele>324.1</ele>
        <time>2020-06-26T21:03:39Z</time>
      </trkpt>
      <trkpt lat="49.16922" lon="6.93817">
        <ele>324</ele>
        <time>2020-06-26T21:03:40Z</time>
      </trkpt>
      <trkpt lat="49.1692" lon="6.93813">
        <ele>324.1</ele>
        <time>2020-06-26T21:03:41Z</time>
      </trkpt>
      <trkpt lat="49.16918" lon="6.93811">
        <ele>324</ele>
        <time>2020-06-26T21:03:42Z</time>
      </trkpt>
      <trkpt lat="49.16915" lon="6.93807">
        <ele>323.9</ele>
        <time>2020-06-26T21:03:43Z</time>
      </trkpt>
      <trkpt lat="49.16913" lon="6.93803">
        <ele>323.9</ele>
        <time>2020-06-26T21:03:44Z</time>
      </trkpt>
      <trkpt lat="49.16911" lon="6.938">
        <ele>323.9</ele>
        <time>2020-06-26T21:03:45Z</time>
      </trkpt>
      <trkpt lat="49.1691" lon="6.93795">
        <ele>324</ele>
        <time>2020-06-26T21:03:46Z</time>
      </trkpt>
      <trkpt lat="49.16908" lon="6.93791">
        <ele>324</ele>
        <time>2020-06-26T21:03:47Z</time>
      </trkpt>
      <trkpt lat="49.16906" lon="6.93786">
        <ele>324</ele>
        <time>2020-06-26T21:03:48Z</time>
      </trkpt>
      <trkpt lat="49.16904" lon="6.93782">
        <ele>323.9</ele>
        <time>2020-06-26T21:03:49Z</time>
      </trkpt>
      <trkpt lat="49.16902" lon="6.93779">
        <ele>324</ele>
        <time>2020-06-26T21:03:50Z</time>
      </trkpt>
      <trkpt lat="49.16901" lon="6.93774">
        <ele>324</ele>
        <time>2020-06-26T21:03:51Z</time>
      </trkpt>
      <trkpt lat="49.16898" lon="6.9377">
        <ele>324</ele>
        <time>2020-06-26T21:03:52Z</time>
      </trkpt>
      <trkpt lat="49.16896" lon="6.93766">
        <ele>324</ele>
        <time>2020-06-26T21:03:53Z</time>
      </trkpt>
      <trkpt lat="49.16894" lon="6.93763">
        <ele>324</ele>
        <time>2020-06-26T21:03:54Z</time>
      </trkpt>
      <trkpt lat="49.16892" lon="6.9376">
        <ele>324.1</ele>
        <time>2020-06-26T21:03:55Z</time>
      </trkpt>
      <trkpt lat="49.16888" lon="6.93758">
        <ele>323.9</ele>
        <time>2020-06-26T21:03:56Z</time>
      </trkpt>
      <trkpt lat="49.16886" lon="6.93758">
        <ele>323.9</ele>
        <time>2020-06-26T21:03:57Z</time>
      </trkpt>
      <trkpt lat="49.16883" lon="6.93755">
        <ele>323.9</ele>
        <time>2020-06-26T21:03:58Z</time>
      </trkpt>
      <trkpt lat="49.16882" lon="6.93754">
        <ele>323.8</ele>
        <time>2020-06-26T21:03:59Z</time>
      </trkpt>
      <trkpt lat="49.16879" lon="6.93752">
        <ele>323.8</ele>
        <time>2020-06-26T21:04:00Z</time>
      </trkpt>
      <trkpt lat="49.16876" lon="6.9375">
        <ele>323.7</ele>
        <time>2020-06-26T21:04:01Z</time>
      </trkpt>
      <trkpt lat="49.16875" lon="6.93745">
        <ele>323.8</ele>
        <time>2020-06-26T21:04:02Z</time>
      </trkpt>
      <trkpt lat="49.16875" lon="6.93744">
        <ele>323.8</ele>
        <time>2020-06-26T21:04:03Z</time>
      </trkpt>
      <trkpt lat="49.16874" lon="6.93741">
        <ele>323.8</ele>
        <time>2020-06-26T21:04:04Z</time>
      </trkpt>
      <trkpt lat="49.16874" lon="6.93738">
        <ele>323.9</ele>
        <time>2020-06-26T21:04:05Z</time>
      </trkpt>
      <trkpt lat="49.16874" lon="6.93737">
        <ele>323.8</ele>
        <time>2020-06-26T21:04:06Z</time>
      </trkpt>
      <trkpt lat="49.16875" lon="6.93734">
        <ele>323.9</ele>
        <time>2020-06-26T21:04:07Z</time>
      </trkpt>
      <trkpt lat="49.16874" lon="6.93733">
        <ele>323.9</ele>
        <time>2020-06-26T21:04:08Z</time>
      </trkpt>
      <trkpt lat="49.16875" lon="6.93733">
        <ele>323.9</ele>
        <time>2020-06-26T21:04:09Z</time>
      </trkpt>
      <trkpt lat="49.16875" lon="6.93732">
        <ele>323.9</ele>
        <time>2020-06-26T21:04:10Z</time>
      </trkpt>
      <trkpt lat="49.16875" lon="6.93732">
        <ele>323.9</ele>
        <time>2020-06-26T21:04:11Z</time>
      </trkpt>
      <trkpt lat="49.16875" lon="6.93732">
        <ele>323.9</ele>
        <time>2020-06-26T21:04:12Z</time>
      </trkpt>
      <trkpt lat="49.16875" lon="6.93733">
        <ele>323.9</ele>
        <time>2020-06-26T21:04:13Z</time>
      </trkpt>
      <trkpt lat="49.16876" lon="6.93734">
        <ele>323.9</ele>
        <time>2020-06-26T21:04:14Z</time>
      </trkpt>
      <trkpt lat="49.16875" lon="6.93734">
        <ele>323.9</ele>
        <time>2020-06-26T21:04:15Z</time>
      </trkpt>
      <trkpt lat="49.16876" lon="6.93734">
        <ele>323.9</ele>
        <time>2020-06-26T21:04:16Z</time>
      </trkpt>
      <trkpt lat="49.16876" lon="6.93734">
        <ele>323.9</ele>
        <time>2020-06-26T21:04:17Z</time>
      </trkpt>
      <trkpt lat="49.16876" lon="6.93734">
        <ele>323.9</ele>
        <time>2020-06-26T21:04:18Z</time>
      </trkpt>
      <trkpt lat="49.1688" lon="6.9374">
        <ele>324</ele>
        <time>2020-06-26T21:05:05Z</time>
      </trkpt>
      <trkpt lat="49.16881" lon="6.9374">
        <ele>324</ele>
        <time>2020-06-26T21:05:06Z</time>
      </trkpt>
      <trkpt lat="49.16881" lon="6.9374">
        <ele>324</ele>
        <time>2020-06-26T21:05:07Z</time>
      </trkpt>
      <trkpt lat="49.16881" lon="6.9374">
        <ele>324</ele>
        <time>2020-06-26T21:05:08Z</time>
      </trkpt>
      <trkpt lat="49.16882" lon="6.9374">
        <ele>324</ele>
        <time>2020-06-26T21:05:09Z</time>
      </trkpt>
      <trkpt lat="49.16882" lon="6.93741">
        <ele>324</ele>
        <time>2020-06-26T21:05:10Z</time>
      </trkpt>
      <trkpt lat="49.16882" lon="6.93741">
        <ele>324</ele>
        <time>2020-06-26T21:05:11Z</time>
      </trkpt>
      <trkpt lat="49.16882" lon="6.93741">
        <ele>324</ele>
        <time>2020-06-26T21:05:12Z</time>
      </trkpt>
      <trkpt lat="49.16882" lon="6.93741">
        <ele>324</ele>
        <time>2020-06-26T21:05:13Z</time>
      </trkpt>
      <trkpt lat="49.16882" lon="6.93741">
        <ele>324</ele>
        <time>2020-06-26T21:05:14Z</time>
      </trkpt>
      <trkpt lat="49.16883" lon="6.93741">
        <ele>324</ele>
        <time>2020-06-26T21:05:15Z</time>
      </trkpt>
      <trkpt lat="49.16883" lon="6.93741">
        <ele>324.1</ele>
        <time>2020-06-26T21:05:16Z</time>
      </trkpt>
      <trkpt lat="49.16883" lon="6.93741">
        <ele>324</ele>
        <time>2020-06-26T21:05:17Z</time>
      </trkpt>
      <trkpt lat="49.1688" lon="6.93739">
        <ele>324.1</ele>
        <time>2020-06-26T21:06:30Z</time>
      </trkpt>
      <trkpt lat="49.1688" lon="6.93739">
        <ele>324.1</ele>
        <time>2020-06-26T21:06:31Z</time>
      </trkpt>
      <trkpt lat="49.1688" lon="6.93739">
        <ele>324.1</ele>
        <time>2020-06-26T21:06:32Z</time>
      </trkpt>
      <trkpt lat="49.1688" lon="6.93739">
        <ele>324.1</ele>
        <time>2020-06-26T21:06:33Z</time>
      </trkpt>
      <trkpt lat="49.16881" lon="6.9374">
        <ele>324</ele>
        <time>2020-06-26T21:06:34Z</time>
      </trkpt>
      <trkpt lat="49.1688" lon="6.9374">
        <ele>324</ele>
        <time>2020-06-26T21:06:35Z</time>
      </trkpt>
      <trkpt lat="49.1688" lon="6.9374">
        <ele>324</ele>
        <time>2020-06-26T21:06:36Z</time>
      </trkpt>
      <trkpt lat="49.16881" lon="6.9374">
        <ele>324</ele>
        <time>2020-06-26T21:06:37Z</time>
      </trkpt>
      <trkpt lat="49.16881" lon="6.93739">
        <ele>324.1</ele>
        <time>2020-06-26T21:06:38Z</time>
      </trkpt>
      <trkpt lat="49.16881" lon="6.93739">
        <ele>324.1</ele>
        <time>2020-06-26T21:06:39Z</time>
      </trkpt>
      <trkpt lat="49.16881" lon="6.93738">
        <ele>324.1</ele>
        <time>2020-06-26T21:06:40Z</time>
      </trkpt>
      <trkpt lat="49.16881" lon="6.93738">
        <ele>324.1</ele>
        <time>2020-06-26T21:06:41Z</time>
      </trkpt>
      <trkpt lat="49.16882" lon="6.93738">
        <ele>324.1</ele>
        <time>2020-06-26T21:06:42Z</time>
      </trkpt>
      <trkpt lat="49.16882" lon="6.93736">
        <ele>324.1</ele>
        <time>2020-06-26T21:06:43Z</time>
      </trkpt>
      <trkpt lat="49.16882" lon="6.93736">
        <ele>324.1</ele>
        <time>2020-06-26T21:06:44Z</time>
      </trkpt>
      <trkpt lat="49.16882" lon="6.93735">
        <ele>324.1</ele>
        <time>2020-06-26T21:06:45Z</time>
      </trkpt>
      <trkpt lat="49.16882" lon="6.93734">
        <ele>324.1</ele>
        <time>2020-06-26T21:06:46Z</time>
      </trkpt>
      <trkpt lat="49.16882" lon="6.93734">
        <ele>324.1</ele>
        <time>2020-06-26T21:06:47Z</time>
      </trkpt>
      <trkpt lat="49.16883" lon="6.93733">
        <ele>324.2</ele>
        <time>2020-06-26T21:06:48Z</time>
      </trkpt>
      <trkpt lat="49.16883" lon="6.93733">
        <ele>324.2</ele>
        <time>2020-06-26T21:06:49Z</time>
      </trkpt>
      <trkpt lat="49.16883" lon="6.93733">
        <ele>324.2</ele>
        <time>2020-06-26T21:06:50Z</time>
      </trkpt>
      <trkpt lat="49.16883" lon="6.93733">
        <ele>324.2</ele>
        <time>2020-06-26T21:06:51Z</time>
      </trkpt>
      <trkpt lat="49.16883" lon="6.93733">
        <ele>324.2</ele>
        <time>2020-06-26T21:06:52Z</time>
      </trkpt>
      <trkpt lat="49.16883" lon="6.93733">
        <ele>324.2</ele>
        <time>2020-06-26T21:06:53Z</time>
      </trkpt>
      <trkpt lat="49.16883" lon="6.93733">
        <ele>324.2</ele>
        <time>2020-06-26T21:06:54Z</time>
      </trkpt>
      <trkpt lat="49.16883" lon="6.93733">
        <ele>324.2</ele>
        <time>2020-06-26T21:06:55Z</time>
      </trkpt>
      <trkpt lat="49.16883" lon="6.93733">
        <ele>324.2</ele>
        <time>2020-06-26T21:06:56Z</time>
      </trkpt>
      <trkpt lat="49.16883" lon="6.93733">
        <ele>324.2</ele>
        <time>2020-06-26T21:06:57Z</time>
      </trkpt>
      <trkpt lat="49.16883" lon="6.93733">
        <ele>324.2</ele>
        <time>2020-06-26T21:06:58Z</time>
      </trkpt>
      <trkpt lat="49.16884" lon="6.93733">
        <ele>324.2</ele>
        <time>2020-06-26T21:06:59Z</time>
      </trkpt>
      <trkpt lat="49.16884" lon="6.93733">
        <ele>324.2</ele>
        <time>2020-06-26T21:07:00Z</time>
      </trkpt>
      <trkpt lat="49.16883" lon="6.93734">
        <ele>324.2</ele>
        <time>2020-06-26T21:07:01Z</time>
      </trkpt>
      <trkpt lat="49.16883" lon="6.93734">
        <ele>324.2</ele>
        <time>2020-06-26T21:07:02Z</time>
      </trkpt>
      <trkpt lat="49.16883" lon="6.93734">
        <ele>324.2</ele>
        <time>2020-06-26T21:07:03Z</time>
      </trkpt>
      <trkpt lat="49.16883" lon="6.93734">
        <ele>324.2</ele>
        <time>2020-06-26T21:07:04Z</time>
      </trkpt>
      <trkpt lat="49.16883" lon="6.93734">
        <ele>324.2</ele>
        <time>2020-06-26T21:07:05Z</time>
      </trkpt>
      <trkpt lat="49.16883" lon="6.93734">
        <ele>324.2</ele>
        <time>2020-06-26T21:07:06Z</time>
      </trkpt>
      <trkpt lat="49.16883" lon="6.93734">
        <ele>324.2</ele>
        <time>2020-06-26T21:07:07Z</time>
      </trkpt>
      <trkpt lat="49.16883" lon="6.93734">
        <ele>324.2</ele>
        <time>2020-06-26T21:07:08Z</time>
      </trkpt>
      <trkpt lat="49.16883" lon="6.93734">
        <ele>324.2</ele>
        <time>2020-06-26T21:07:09Z</time>
      </trkpt>
      <trkpt lat="49.16883" lon="6.93733">
        <ele>324.2</ele>
        <time>2020-06-26T21:07:10Z</time>
      </trkpt>
      <trkpt lat="49.16883" lon="6.93733">
        <ele>324.2</ele>
        <time>2020-06-26T21:07:11Z</time>
      </trkpt>
      <trkpt lat="49.16883" lon="6.93734">
        <ele>324.2</ele>
        <time>2020-06-26T21:07:12Z</time>
      </trkpt>
      <trkpt lat="49.16875" lon="6.93732">
        <ele>323.9</ele>
        <time>2020-06-26T21:08:45Z</time>
      </trkpt>
      <trkpt lat="49.16875" lon="6.93733">
        <ele>323.9</ele>
        <time>2020-06-26T21:08:46Z</time>
      </trkpt>
      <trkpt lat="49.16876" lon="6.93734">
        <ele>323.9</ele>
        <time>2020-06-26T21:08:47Z</time>
      </trkpt>
      <trkpt lat="49.16876" lon="6.93735">
        <ele>323.9</ele>
        <time>2020-06-26T21:08:48Z</time>
      </trkpt>
      <trkpt lat="49.16876" lon="6.93736">
        <ele>323.9</ele>
        <time>2020-06-26T21:08:49Z</time>
      </trkpt>
      <trkpt lat="49.16876" lon="6.93735">
        <ele>323.9</ele>
        <time>2020-06-26T21:08:50Z</time>
      </trkpt>
      <trkpt lat="49.16876" lon="6.93736">
        <ele>323.9</ele>
        <time>2020-06-26T21:08:51Z</time>
      </trkpt>
      <trkpt lat="49.16875" lon="6.93737">
        <ele>323.9</ele>
        <time>2020-06-26T21:08:52Z</time>
      </trkpt>
      <trkpt lat="49.16874" lon="6.93738">
        <ele>323.8</ele>
        <time>2020-06-26T21:08:53Z</time>
      </trkpt>
      <trkpt lat="49.16873" lon="6.9374">
        <ele>323.7</ele>
        <time>2020-06-26T21:08:54Z</time>
      </trkpt>
      <trkpt lat="49.16871" lon="6.93744">
        <ele>323.6</ele>
        <time>2020-06-26T21:08:55Z</time>
      </trkpt>
      <trkpt lat="49.16871" lon="6.93746">
        <ele>323.6</ele>
        <time>2020-06-26T21:08:56Z</time>
      </trkpt>
      <trkpt lat="49.16869" lon="6.93749">
        <ele>323.5</ele>
        <time>2020-06-26T21:08:57Z</time>
      </trkpt>
      <trkpt lat="49.16868" lon="6.9375">
        <ele>323.5</ele>
        <time>2020-06-26T21:08:58Z</time>
      </trkpt>
      <trkpt lat="49.16867" lon="6.93751">
        <ele>323.5</ele>
        <time>2020-06-26T21:08:59Z</time>
      </trkpt>
      <trkpt lat="49.16864" lon="6.93753">
        <ele>323.3</ele>
        <time>2020-06-26T21:09:00Z</time>
      </trkpt>
      <trkpt lat="49.16863" lon="6.93754">
        <ele>323.3</ele>
        <time>2020-06-26T21:09:01Z</time>
      </trkpt>
      <trkpt lat="49.16862" lon="6.93754">
        <ele>323.3</ele>
        <time>2020-06-26T21:09:02Z</time>
      </trkpt>
      <trkpt lat="49.16862" lon="6.93754">
        <ele>323.3</ele>
        <time>2020-06-26T21:09:03Z</time>
      </trkpt>
      <trkpt lat="49.16861" lon="6.93755">
        <ele>323.3</ele>
        <time>2020-06-26T21:09:04Z</time>
      </trkpt>
      <trkpt lat="49.16861" lon="6.93755">
        <ele>323.3</ele>
        <time>2020-06-26T21:09:05Z</time>
      </trkpt>
      <trkpt lat="49.1686" lon="6.93756">
        <ele>323.3</ele>
        <time>2020-06-26T21:09:06Z</time>
      </trkpt>
      <trkpt lat="49.16861" lon="6.93758">
        <ele>323.2</ele>
        <time>2020-06-26T21:09:07Z</time>
      </trkpt>
      <trkpt lat="49.1686" lon="6.93758">
        <ele>323.2</ele>
        <time>2020-06-26T21:09:08Z</time>
      </trkpt>
      <trkpt lat="49.1686" lon="6.93758">
        <ele>323.2</ele>
        <time>2020-06-26T21:09:09Z</time>
      </trkpt>
      <trkpt lat="49.1686" lon="6.93758">
        <ele>323.2</ele>
        <time>2020-06-26T21:09:10Z</time>
      </trkpt>
      <trkpt lat="49.1686" lon="6.93759">
        <ele>323.2</ele>
        <time>2020-06-26T21:09:11Z</time>
      </trkpt>
      <trkpt lat="49.16859" lon="6.9376">
        <ele>323.2</ele>
        <time>2020-06-26T21:09:12Z</time>
      </trkpt>
      <trkpt lat="49.16857" lon="6.93761">
        <ele>323.1</ele>
        <time>2020-06-26T21:09:13Z</time>
      </trkpt>
      <trkpt lat="49.16856" lon="6.93761">
        <ele>323.1</ele>
        <time>2020-06-26T21:09:14Z</time>
      </trkpt>
      <trkpt lat="49.16855" lon="6.93762">
        <ele>323.1</ele>
        <time>2020-06-26T21:09:15Z</time>
      </trkpt>
      <trkpt lat="49.16853" lon="6.93762">
        <ele>323</ele>
        <time>2020-06-26T21:09:16Z</time>
      </trkpt>
      <trkpt lat="49.16852" lon="6.93763">
        <ele>323</ele>
        <time>2020-06-26T21:09:17Z</time>
      </trkpt>
      <trkpt lat="49.1685" lon="6.93764">
        <ele>323</ele>
        <time>2020-06-26T21:09:18Z</time>
      </trkpt>
      <trkpt lat="49.16849" lon="6.93764">
        <ele>322.9</ele>
        <time>2020-06-26T21:09:19Z</time>
      </trkpt>
      <trkpt lat="49.16848" lon="6.93764">
        <ele>322.9</ele>
        <time>2020-06-26T21:09:20Z</time>
      </trkpt>
      <trkpt lat="49.16847" lon="6.93764">
        <ele>322.9</ele>
        <time>2020-06-26T21:09:21Z</time>
      </trkpt>
      <trkpt lat="49.16846" lon="6.93763">
        <ele>322.9</ele>
        <time>2020-06-26T21:09:22Z</time>
      </trkpt>
      <trkpt lat="49.16846" lon="6.93763">
        <ele>322.9</ele>
        <time>2020-06-26T21:09:23Z</time>
      </trkpt>
      <trkpt lat="49.16846" lon="6.93762">
        <ele>322.9</ele>
        <time>2020-06-26T21:09:24Z</time>
      </trkpt>
      <trkpt lat="49.16846" lon="6.93762">
        <ele>322.9</ele>
        <time>2020-06-26T21:09:25Z</time>
      </trkpt>
      <trkpt lat="49.16846" lon="6.93762">
        <ele>322.9</ele>
        <time>2020-06-26T21:09:26Z</time>
      </trkpt>
      <trkpt lat="49.16846" lon="6.93761">
        <ele>322.9</ele>
        <time>2020-06-26T21:09:27Z</time>
      </trkpt>
      <trkpt lat="49.16846" lon="6.93761">
        <ele>322.9</ele>
        <time>2020-06-26T21:09:28Z</time>
      </trkpt>
      <trkpt lat="49.16846" lon="6.93761">
        <ele>322.9</ele>
        <time>2020-06-26T21:09:29Z</time>
      </trkpt>
      <trkpt lat="49.16846" lon="6.93761">
        <ele>322.9</ele>
        <time>2020-06-26T21:09:30Z</time>
      </trkpt>
      <trkpt lat="49.16846" lon="6.93761">
        <ele>322.9</ele>
        <time>2020-06-26T21:09:31Z</time>
      </trkpt>
      <trkpt lat="49.16846" lon="6.93761">
        <ele>322.9</ele>
        <time>2020-06-26T21:09:32Z</time>
      </trkpt>
      <trkpt lat="49.16846" lon="6.93761">
        <ele>322.9</ele>
        <time>2020-06-26T21:09:33Z</time>
      </trkpt>
      <trkpt lat="49.16846" lon="6.93761">
        <ele>322.9</ele>
        <time>2020-06-26T21:09:34Z</time>
      </trkpt>
      <trkpt lat="49.16845" lon="6.93761">
        <ele>322.9</ele>
        <time>2020-06-26T21:09:35Z</time>
      </trkpt>
    </trkseg>
  </trk>
</gpx>